<?xml version="1.0" encoding="UTF-8"?>
<gpx version="1.1" creator="https://www.youtrack.es" xsi:schemaLocation="http://www.topografix.com/GPX/1/1 http://www.topografix.com/GPX/1/1/gpx.xsd http://www.garmin.com/xmlschemas/GpxExtensions/v3 http://www.garmin.com/xmlschemas/GpxExtensionsv3.xsd http://www.garmin.com/xmlschemas/TrackPointExtension/v1 http://www.garmin.com/xmlschemas/TrackPointExtensionv1.xsd" xmlns:gpxtpx="http://www.garmin.com/xmlschemas/TrackPointExtension/v1" xmlns:gpxx="http://www.garmin.com/xmlschemas/GpxExtensions/v3" xmlns:xsi="http://www.w3.org/2001/XMLSchema-instance">
  <metadata>
    <link href="https://www.youtrack.es">
      <text>YouTrack.es</text>
    </link>
    <time>2026-05-08T23:10:36Z</time>
  </metadata>
  <trk>
    <src>https://www.youtrack.es</src>
    <link href="https://www.youtrack.es/ruta/33439-vf">
      <text>YouTrack.es</text>
    </link>
    <trkseg>
      <trkpt lat="39.565391" lon="-0.287368">
        <ele>10.947</ele>
        <time>2020-08-10T05:54:10Z</time>
      </trkpt>
      <trkpt lat="39.565902" lon="-0.287815">
        <ele>10.929</ele>
        <time>2020-08-10T05:54:13Z</time>
      </trkpt>
      <trkpt lat="39.565598" lon="-0.287596">
        <ele>10.921</ele>
        <time>2020-08-10T05:54:17Z</time>
      </trkpt>
      <trkpt lat="39.565431" lon="-0.287506">
        <ele>10.908</ele>
        <time>2020-08-10T05:54:23Z</time>
      </trkpt>
      <trkpt lat="39.565610" lon="-0.287415">
        <ele>10.969</ele>
        <time>2020-08-10T05:54:41Z</time>
      </trkpt>
      <trkpt lat="39.565481" lon="-0.287612">
        <ele>-49.068</ele>
        <time>2020-08-10T05:56:19Z</time>
      </trkpt>
      <trkpt lat="39.565281" lon="-0.287634">
        <ele>-48.173</ele>
        <time>2020-08-10T05:56:25Z</time>
      </trkpt>
      <trkpt lat="39.565099" lon="-0.287659">
        <ele>-47.662</ele>
        <time>2020-08-10T05:56:51Z</time>
      </trkpt>
      <trkpt lat="39.564887" lon="-0.287668">
        <ele>-47.212</ele>
        <time>2020-08-10T05:56:57Z</time>
      </trkpt>
      <trkpt lat="39.564691" lon="-0.287655">
        <ele>-47.593</ele>
        <time>2020-08-10T05:57:03Z</time>
      </trkpt>
      <trkpt lat="39.564503" lon="-0.287656">
        <ele>-46.124</ele>
        <time>2020-08-10T05:57:09Z</time>
      </trkpt>
      <trkpt lat="39.564295" lon="-0.287670">
        <ele>-43.195</ele>
        <time>2020-08-10T05:57:15Z</time>
      </trkpt>
      <trkpt lat="39.564115" lon="-0.287684">
        <ele>-40.887</ele>
        <time>2020-08-10T05:57:20Z</time>
      </trkpt>
      <trkpt lat="39.563933" lon="-0.287686">
        <ele>-38.742</ele>
        <time>2020-08-10T05:57:25Z</time>
      </trkpt>
      <trkpt lat="39.563727" lon="-0.287677">
        <ele>-37.026</ele>
        <time>2020-08-10T05:57:30Z</time>
      </trkpt>
      <trkpt lat="39.563505" lon="-0.287664">
        <ele>-37.108</ele>
        <time>2020-08-10T05:57:35Z</time>
      </trkpt>
      <trkpt lat="39.563304" lon="-0.287666">
        <ele>-36.513</ele>
        <time>2020-08-10T05:57:40Z</time>
      </trkpt>
      <trkpt lat="39.563311" lon="-0.287919">
        <ele>-34.732</ele>
        <time>2020-08-10T05:57:47Z</time>
      </trkpt>
      <trkpt lat="39.563405" lon="-0.288181">
        <ele>-34.387</ele>
        <time>2020-08-10T05:57:52Z</time>
      </trkpt>
      <trkpt lat="39.563478" lon="-0.288408">
        <ele>-34.156</ele>
        <time>2020-08-10T05:57:56Z</time>
      </trkpt>
      <trkpt lat="39.563526" lon="-0.288633">
        <ele>-33.846</ele>
        <time>2020-08-10T05:58:00Z</time>
      </trkpt>
      <trkpt lat="39.563591" lon="-0.288860">
        <ele>-33.677</ele>
        <time>2020-08-10T05:58:04Z</time>
      </trkpt>
      <trkpt lat="39.563653" lon="-0.289095">
        <ele>-34.168</ele>
        <time>2020-08-10T05:58:08Z</time>
      </trkpt>
      <trkpt lat="39.563726" lon="-0.289318">
        <ele>-36.449</ele>
        <time>2020-08-10T05:58:12Z</time>
      </trkpt>
      <trkpt lat="39.563819" lon="-0.289527">
        <ele>-36.667</ele>
        <time>2020-08-10T05:58:16Z</time>
      </trkpt>
      <trkpt lat="39.563918" lon="-0.289766">
        <ele>-36.081</ele>
        <time>2020-08-10T05:58:20Z</time>
      </trkpt>
      <trkpt lat="39.563997" lon="-0.290009">
        <ele>-36.619</ele>
        <time>2020-08-10T05:58:24Z</time>
      </trkpt>
      <trkpt lat="39.564076" lon="-0.290255">
        <ele>-37.108</ele>
        <time>2020-08-10T05:58:28Z</time>
      </trkpt>
      <trkpt lat="39.564158" lon="-0.290501">
        <ele>-38.331</ele>
        <time>2020-08-10T05:58:32Z</time>
      </trkpt>
      <trkpt lat="39.564236" lon="-0.290748">
        <ele>-39.240</ele>
        <time>2020-08-10T05:58:36Z</time>
      </trkpt>
      <trkpt lat="39.564307" lon="-0.290998">
        <ele>-38.955</ele>
        <time>2020-08-10T05:58:40Z</time>
      </trkpt>
      <trkpt lat="39.564382" lon="-0.291219">
        <ele>-39.734</ele>
        <time>2020-08-10T05:58:44Z</time>
      </trkpt>
      <trkpt lat="39.564448" lon="-0.291447">
        <ele>-40.744</ele>
        <time>2020-08-10T05:58:48Z</time>
      </trkpt>
      <trkpt lat="39.564520" lon="-0.291676">
        <ele>-42.315</ele>
        <time>2020-08-10T05:58:52Z</time>
      </trkpt>
      <trkpt lat="39.564596" lon="-0.291937">
        <ele>-42.396</ele>
        <time>2020-08-10T05:58:57Z</time>
      </trkpt>
      <trkpt lat="39.564648" lon="-0.292164">
        <ele>-42.627</ele>
        <time>2020-08-10T05:59:03Z</time>
      </trkpt>
      <trkpt lat="39.564492" lon="-0.292314">
        <ele>-41.735</ele>
        <time>2020-08-10T05:59:09Z</time>
      </trkpt>
      <trkpt lat="39.564307" lon="-0.292405">
        <ele>-40.286</ele>
        <time>2020-08-10T05:59:14Z</time>
      </trkpt>
      <trkpt lat="39.564102" lon="-0.292516">
        <ele>-40.214</ele>
        <time>2020-08-10T05:59:19Z</time>
      </trkpt>
      <trkpt lat="39.563926" lon="-0.292595">
        <ele>-40.208</ele>
        <time>2020-08-10T05:59:23Z</time>
      </trkpt>
      <trkpt lat="39.563749" lon="-0.292687">
        <ele>-41.078</ele>
        <time>2020-08-10T05:59:27Z</time>
      </trkpt>
      <trkpt lat="39.563569" lon="-0.292789">
        <ele>-41.657</ele>
        <time>2020-08-10T05:59:31Z</time>
      </trkpt>
      <trkpt lat="39.563385" lon="-0.292889">
        <ele>-42.862</ele>
        <time>2020-08-10T05:59:35Z</time>
      </trkpt>
      <trkpt lat="39.563196" lon="-0.292987">
        <ele>-43.561</ele>
        <time>2020-08-10T05:59:39Z</time>
      </trkpt>
      <trkpt lat="39.563002" lon="-0.293081">
        <ele>-43.461</ele>
        <time>2020-08-10T05:59:43Z</time>
      </trkpt>
      <trkpt lat="39.562807" lon="-0.293176">
        <ele>-43.912</ele>
        <time>2020-08-10T05:59:47Z</time>
      </trkpt>
      <trkpt lat="39.562617" lon="-0.293264">
        <ele>-44.843</ele>
        <time>2020-08-10T05:59:51Z</time>
      </trkpt>
      <trkpt lat="39.562433" lon="-0.293345">
        <ele>-44.534</ele>
        <time>2020-08-10T05:59:55Z</time>
      </trkpt>
      <trkpt lat="39.562255" lon="-0.293434">
        <ele>-43.781</ele>
        <time>2020-08-10T05:59:59Z</time>
      </trkpt>
      <trkpt lat="39.562067" lon="-0.293526">
        <ele>-43.661</ele>
        <time>2020-08-10T06:00:03Z</time>
      </trkpt>
      <trkpt lat="39.561883" lon="-0.293663">
        <ele>-44.117</ele>
        <time>2020-08-10T06:00:08Z</time>
      </trkpt>
      <trkpt lat="39.561971" lon="-0.293923">
        <ele>-42.808</ele>
        <time>2020-08-10T06:00:13Z</time>
      </trkpt>
      <trkpt lat="39.562031" lon="-0.294146">
        <ele>-40.713</ele>
        <time>2020-08-10T06:00:17Z</time>
      </trkpt>
      <trkpt lat="39.562102" lon="-0.294380">
        <ele>-41.312</ele>
        <time>2020-08-10T06:00:21Z</time>
      </trkpt>
      <trkpt lat="39.562175" lon="-0.294614">
        <ele>-42.537</ele>
        <time>2020-08-10T06:00:25Z</time>
      </trkpt>
      <trkpt lat="39.562240" lon="-0.294845">
        <ele>-44.266</ele>
        <time>2020-08-10T06:00:29Z</time>
      </trkpt>
      <trkpt lat="39.562312" lon="-0.295076">
        <ele>-45.166</ele>
        <time>2020-08-10T06:00:33Z</time>
      </trkpt>
      <trkpt lat="39.562375" lon="-0.295318">
        <ele>-46.457</ele>
        <time>2020-08-10T06:00:37Z</time>
      </trkpt>
      <trkpt lat="39.562387" lon="-0.295562">
        <ele>-46.438</ele>
        <time>2020-08-10T06:00:41Z</time>
      </trkpt>
      <trkpt lat="39.562451" lon="-0.295782">
        <ele>-46.029</ele>
        <time>2020-08-10T06:00:53Z</time>
      </trkpt>
      <trkpt lat="39.562530" lon="-0.296039">
        <ele>-45.655</ele>
        <time>2020-08-10T06:00:59Z</time>
      </trkpt>
      <trkpt lat="39.562602" lon="-0.296271">
        <ele>-45.307</ele>
        <time>2020-08-10T06:01:03Z</time>
      </trkpt>
      <trkpt lat="39.562705" lon="-0.296493">
        <ele>-44.317</ele>
        <time>2020-08-10T06:01:08Z</time>
      </trkpt>
      <trkpt lat="39.562806" lon="-0.296752">
        <ele>-43.308</ele>
        <time>2020-08-10T06:01:15Z</time>
      </trkpt>
      <trkpt lat="39.562829" lon="-0.296991">
        <ele>-43.150</ele>
        <time>2020-08-10T06:01:19Z</time>
      </trkpt>
      <trkpt lat="39.562893" lon="-0.297242">
        <ele>-44.069</ele>
        <time>2020-08-10T06:01:26Z</time>
      </trkpt>
      <trkpt lat="39.562983" lon="-0.297501">
        <ele>-45.364</ele>
        <time>2020-08-10T06:01:32Z</time>
      </trkpt>
      <trkpt lat="39.563069" lon="-0.297763">
        <ele>-47.373</ele>
        <time>2020-08-10T06:01:37Z</time>
      </trkpt>
      <trkpt lat="39.563129" lon="-0.297983">
        <ele>-48.743</ele>
        <time>2020-08-10T06:01:41Z</time>
      </trkpt>
      <trkpt lat="39.563192" lon="-0.298217">
        <ele>-50.674</ele>
        <time>2020-08-10T06:01:45Z</time>
      </trkpt>
      <trkpt lat="39.563239" lon="-0.298446">
        <ele>-50.235</ele>
        <time>2020-08-10T06:01:49Z</time>
      </trkpt>
      <trkpt lat="39.563334" lon="-0.298702">
        <ele>-47.436</ele>
        <time>2020-08-10T06:01:54Z</time>
      </trkpt>
      <trkpt lat="39.563398" lon="-0.298930">
        <ele>-47.183</ele>
        <time>2020-08-10T06:01:58Z</time>
      </trkpt>
      <trkpt lat="39.563466" lon="-0.299149">
        <ele>-46.325</ele>
        <time>2020-08-10T06:02:02Z</time>
      </trkpt>
      <trkpt lat="39.563537" lon="-0.299373">
        <ele>-46.917</ele>
        <time>2020-08-10T06:02:06Z</time>
      </trkpt>
      <trkpt lat="39.563610" lon="-0.299596">
        <ele>-46.208</ele>
        <time>2020-08-10T06:02:10Z</time>
      </trkpt>
      <trkpt lat="39.563687" lon="-0.299814">
        <ele>-46.093</ele>
        <time>2020-08-10T06:02:14Z</time>
      </trkpt>
      <trkpt lat="39.563752" lon="-0.300047">
        <ele>-45.672</ele>
        <time>2020-08-10T06:02:18Z</time>
      </trkpt>
      <trkpt lat="39.563823" lon="-0.300279">
        <ele>-45.697</ele>
        <time>2020-08-10T06:02:22Z</time>
      </trkpt>
      <trkpt lat="39.563894" lon="-0.300512">
        <ele>-45.386</ele>
        <time>2020-08-10T06:02:26Z</time>
      </trkpt>
      <trkpt lat="39.563968" lon="-0.300745">
        <ele>-45.446</ele>
        <time>2020-08-10T06:02:30Z</time>
      </trkpt>
      <trkpt lat="39.564038" lon="-0.300976">
        <ele>-45.117</ele>
        <time>2020-08-10T06:02:34Z</time>
      </trkpt>
      <trkpt lat="39.564110" lon="-0.301203">
        <ele>-44.398</ele>
        <time>2020-08-10T06:02:38Z</time>
      </trkpt>
      <trkpt lat="39.564182" lon="-0.301427">
        <ele>-43.869</ele>
        <time>2020-08-10T06:02:42Z</time>
      </trkpt>
      <trkpt lat="39.564251" lon="-0.301659">
        <ele>-44.481</ele>
        <time>2020-08-10T06:02:46Z</time>
      </trkpt>
      <trkpt lat="39.564319" lon="-0.301890">
        <ele>-44.661</ele>
        <time>2020-08-10T06:02:50Z</time>
      </trkpt>
      <trkpt lat="39.564385" lon="-0.302111">
        <ele>-44.317</ele>
        <time>2020-08-10T06:02:54Z</time>
      </trkpt>
      <trkpt lat="39.564447" lon="-0.302335">
        <ele>-44.108</ele>
        <time>2020-08-10T06:02:58Z</time>
      </trkpt>
      <trkpt lat="39.564509" lon="-0.302556">
        <ele>-44.063</ele>
        <time>2020-08-10T06:03:02Z</time>
      </trkpt>
      <trkpt lat="39.564596" lon="-0.302825">
        <ele>-42.722</ele>
        <time>2020-08-10T06:03:07Z</time>
      </trkpt>
      <trkpt lat="39.564671" lon="-0.303044">
        <ele>-42.337</ele>
        <time>2020-08-10T06:03:11Z</time>
      </trkpt>
      <trkpt lat="39.564739" lon="-0.303274">
        <ele>-42.466</ele>
        <time>2020-08-10T06:03:15Z</time>
      </trkpt>
      <trkpt lat="39.564799" lon="-0.303503">
        <ele>-42.276</ele>
        <time>2020-08-10T06:03:19Z</time>
      </trkpt>
      <trkpt lat="39.564865" lon="-0.303721">
        <ele>-42.097</ele>
        <time>2020-08-10T06:03:23Z</time>
      </trkpt>
      <trkpt lat="39.564932" lon="-0.303946">
        <ele>-42.398</ele>
        <time>2020-08-10T06:03:27Z</time>
      </trkpt>
      <trkpt lat="39.565000" lon="-0.304167">
        <ele>-43.059</ele>
        <time>2020-08-10T06:03:31Z</time>
      </trkpt>
      <trkpt lat="39.565067" lon="-0.304383">
        <ele>-43.553</ele>
        <time>2020-08-10T06:03:35Z</time>
      </trkpt>
      <trkpt lat="39.565134" lon="-0.304600">
        <ele>-43.904</ele>
        <time>2020-08-10T06:03:39Z</time>
      </trkpt>
      <trkpt lat="39.565206" lon="-0.304869">
        <ele>-43.914</ele>
        <time>2020-08-10T06:03:44Z</time>
      </trkpt>
      <trkpt lat="39.565285" lon="-0.305129">
        <ele>-43.908</ele>
        <time>2020-08-10T06:03:49Z</time>
      </trkpt>
      <trkpt lat="39.565375" lon="-0.305381">
        <ele>-43.960</ele>
        <time>2020-08-10T06:03:54Z</time>
      </trkpt>
      <trkpt lat="39.565468" lon="-0.305644">
        <ele>-44.119</ele>
        <time>2020-08-10T06:03:59Z</time>
      </trkpt>
      <trkpt lat="39.565534" lon="-0.305864">
        <ele>-44.144</ele>
        <time>2020-08-10T06:04:03Z</time>
      </trkpt>
      <trkpt lat="39.565603" lon="-0.306083">
        <ele>-44.543</ele>
        <time>2020-08-10T06:04:07Z</time>
      </trkpt>
      <trkpt lat="39.565674" lon="-0.306307">
        <ele>-45.033</ele>
        <time>2020-08-10T06:04:11Z</time>
      </trkpt>
      <trkpt lat="39.565736" lon="-0.306529">
        <ele>-44.574</ele>
        <time>2020-08-10T06:04:15Z</time>
      </trkpt>
      <trkpt lat="39.565807" lon="-0.306746">
        <ele>-44.325</ele>
        <time>2020-08-10T06:04:19Z</time>
      </trkpt>
      <trkpt lat="39.565879" lon="-0.306966">
        <ele>-44.586</ele>
        <time>2020-08-10T06:04:23Z</time>
      </trkpt>
      <trkpt lat="39.565950" lon="-0.307184">
        <ele>-43.824</ele>
        <time>2020-08-10T06:04:27Z</time>
      </trkpt>
      <trkpt lat="39.566017" lon="-0.307413">
        <ele>-44.704</ele>
        <time>2020-08-10T06:04:31Z</time>
      </trkpt>
      <trkpt lat="39.566088" lon="-0.307637">
        <ele>-44.214</ele>
        <time>2020-08-10T06:04:35Z</time>
      </trkpt>
      <trkpt lat="39.566161" lon="-0.307857">
        <ele>-43.608</ele>
        <time>2020-08-10T06:04:39Z</time>
      </trkpt>
      <trkpt lat="39.566242" lon="-0.308128">
        <ele>-42.547</ele>
        <time>2020-08-10T06:04:44Z</time>
      </trkpt>
      <trkpt lat="39.566333" lon="-0.308396">
        <ele>-42.026</ele>
        <time>2020-08-10T06:04:49Z</time>
      </trkpt>
      <trkpt lat="39.566411" lon="-0.308619">
        <ele>-41.891</ele>
        <time>2020-08-10T06:04:53Z</time>
      </trkpt>
      <trkpt lat="39.566484" lon="-0.308847">
        <ele>-42.650</ele>
        <time>2020-08-10T06:04:57Z</time>
      </trkpt>
      <trkpt lat="39.566556" lon="-0.309071">
        <ele>-42.860</ele>
        <time>2020-08-10T06:05:01Z</time>
      </trkpt>
      <trkpt lat="39.566635" lon="-0.309288">
        <ele>-43.621</ele>
        <time>2020-08-10T06:05:05Z</time>
      </trkpt>
      <trkpt lat="39.566717" lon="-0.309525">
        <ele>-47.062</ele>
        <time>2020-08-10T06:05:09Z</time>
      </trkpt>
      <trkpt lat="39.566796" lon="-0.309757">
        <ele>-50.043</ele>
        <time>2020-08-10T06:05:13Z</time>
      </trkpt>
      <trkpt lat="39.566877" lon="-0.309971">
        <ele>-51.126</ele>
        <time>2020-08-10T06:05:17Z</time>
      </trkpt>
      <trkpt lat="39.566956" lon="-0.310232">
        <ele>-48.747</ele>
        <time>2020-08-10T06:05:22Z</time>
      </trkpt>
      <trkpt lat="39.567028" lon="-0.310448">
        <ele>-47.311</ele>
        <time>2020-08-10T06:05:26Z</time>
      </trkpt>
      <trkpt lat="39.567106" lon="-0.310676">
        <ele>-45.408</ele>
        <time>2020-08-10T06:05:30Z</time>
      </trkpt>
      <trkpt lat="39.567183" lon="-0.310907">
        <ele>-44.177</ele>
        <time>2020-08-10T06:05:34Z</time>
      </trkpt>
      <trkpt lat="39.567257" lon="-0.311131">
        <ele>-45.286</ele>
        <time>2020-08-10T06:05:38Z</time>
      </trkpt>
      <trkpt lat="39.567335" lon="-0.311354">
        <ele>-45.161</ele>
        <time>2020-08-10T06:05:42Z</time>
      </trkpt>
      <trkpt lat="39.567411" lon="-0.311577">
        <ele>-45.440</ele>
        <time>2020-08-10T06:05:46Z</time>
      </trkpt>
      <trkpt lat="39.567472" lon="-0.311804">
        <ele>-44.860</ele>
        <time>2020-08-10T06:05:50Z</time>
      </trkpt>
      <trkpt lat="39.567531" lon="-0.312086">
        <ele>-44.191</ele>
        <time>2020-08-10T06:05:55Z</time>
      </trkpt>
      <trkpt lat="39.567579" lon="-0.312317">
        <ele>-42.952</ele>
        <time>2020-08-10T06:05:59Z</time>
      </trkpt>
      <trkpt lat="39.567630" lon="-0.312554">
        <ele>-43.363</ele>
        <time>2020-08-10T06:06:03Z</time>
      </trkpt>
      <trkpt lat="39.567680" lon="-0.312799">
        <ele>-43.841</ele>
        <time>2020-08-10T06:06:07Z</time>
      </trkpt>
      <trkpt lat="39.567731" lon="-0.313042">
        <ele>-42.681</ele>
        <time>2020-08-10T06:06:11Z</time>
      </trkpt>
      <trkpt lat="39.567775" lon="-0.313282">
        <ele>-41.409</ele>
        <time>2020-08-10T06:06:15Z</time>
      </trkpt>
      <trkpt lat="39.567830" lon="-0.313514">
        <ele>-40.208</ele>
        <time>2020-08-10T06:06:19Z</time>
      </trkpt>
      <trkpt lat="39.567878" lon="-0.313751">
        <ele>-40.569</ele>
        <time>2020-08-10T06:06:23Z</time>
      </trkpt>
      <trkpt lat="39.567921" lon="-0.314001">
        <ele>-40.888</ele>
        <time>2020-08-10T06:06:27Z</time>
      </trkpt>
      <trkpt lat="39.567954" lon="-0.314242">
        <ele>-40.663</ele>
        <time>2020-08-10T06:06:31Z</time>
      </trkpt>
      <trkpt lat="39.567971" lon="-0.314483">
        <ele>-40.082</ele>
        <time>2020-08-10T06:06:36Z</time>
      </trkpt>
      <trkpt lat="39.567972" lon="-0.314744">
        <ele>-39.622</ele>
        <time>2020-08-10T06:06:44Z</time>
      </trkpt>
      <trkpt lat="39.567975" lon="-0.314988">
        <ele>-39.313</ele>
        <time>2020-08-10T06:06:52Z</time>
      </trkpt>
      <trkpt lat="39.567983" lon="-0.315243">
        <ele>-38.724</ele>
        <time>2020-08-10T06:07:00Z</time>
      </trkpt>
      <trkpt lat="39.567998" lon="-0.315479">
        <ele>-36.345</ele>
        <time>2020-08-10T06:07:07Z</time>
      </trkpt>
      <trkpt lat="39.568023" lon="-0.315721">
        <ele>-34.964</ele>
        <time>2020-08-10T06:07:13Z</time>
      </trkpt>
      <trkpt lat="39.568050" lon="-0.315954">
        <ele>-33.606</ele>
        <time>2020-08-10T06:07:18Z</time>
      </trkpt>
      <trkpt lat="39.568083" lon="-0.316188">
        <ele>-34.016</ele>
        <time>2020-08-10T06:07:22Z</time>
      </trkpt>
      <trkpt lat="39.568146" lon="-0.316472">
        <ele>-35.208</ele>
        <time>2020-08-10T06:07:26Z</time>
      </trkpt>
      <trkpt lat="39.568230" lon="-0.316735">
        <ele>-37.681</ele>
        <time>2020-08-10T06:07:29Z</time>
      </trkpt>
      <trkpt lat="39.568308" lon="-0.317039">
        <ele>-39.390</ele>
        <time>2020-08-10T06:07:32Z</time>
      </trkpt>
      <trkpt lat="39.568369" lon="-0.317379">
        <ele>-42.115</ele>
        <time>2020-08-10T06:07:35Z</time>
      </trkpt>
      <trkpt lat="39.568416" lon="-0.317617">
        <ele>-43.294</ele>
        <time>2020-08-10T06:07:37Z</time>
      </trkpt>
      <trkpt lat="39.568461" lon="-0.317941">
        <ele>-43.484</ele>
        <time>2020-08-10T06:07:40Z</time>
      </trkpt>
      <trkpt lat="39.568490" lon="-0.318226">
        <ele>-43.425</ele>
        <time>2020-08-10T06:07:43Z</time>
      </trkpt>
      <trkpt lat="39.568517" lon="-0.318488">
        <ele>-43.216</ele>
        <time>2020-08-10T06:07:46Z</time>
      </trkpt>
      <trkpt lat="39.568549" lon="-0.318737">
        <ele>-43.037</ele>
        <time>2020-08-10T06:07:49Z</time>
      </trkpt>
      <trkpt lat="39.568592" lon="-0.319038">
        <ele>-42.428</ele>
        <time>2020-08-10T06:07:53Z</time>
      </trkpt>
      <trkpt lat="39.568623" lon="-0.319277">
        <ele>-42.689</ele>
        <time>2020-08-10T06:07:56Z</time>
      </trkpt>
      <trkpt lat="39.568657" lon="-0.319525">
        <ele>-42.917</ele>
        <time>2020-08-10T06:07:59Z</time>
      </trkpt>
      <trkpt lat="39.568701" lon="-0.319761">
        <ele>-43.008</ele>
        <time>2020-08-10T06:08:02Z</time>
      </trkpt>
      <trkpt lat="39.568747" lon="-0.319989">
        <ele>-42.817</ele>
        <time>2020-08-10T06:08:05Z</time>
      </trkpt>
      <trkpt lat="39.568809" lon="-0.320213">
        <ele>-42.796</ele>
        <time>2020-08-10T06:08:08Z</time>
      </trkpt>
      <trkpt lat="39.568877" lon="-0.320435">
        <ele>-43.191</ele>
        <time>2020-08-10T06:08:11Z</time>
      </trkpt>
      <trkpt lat="39.568920" lon="-0.320671">
        <ele>-43.190</ele>
        <time>2020-08-10T06:08:14Z</time>
      </trkpt>
      <trkpt lat="39.568962" lon="-0.320910">
        <ele>-42.630</ele>
        <time>2020-08-10T06:08:17Z</time>
      </trkpt>
      <trkpt lat="39.568993" lon="-0.321141">
        <ele>-41.451</ele>
        <time>2020-08-10T06:08:20Z</time>
      </trkpt>
      <trkpt lat="39.569029" lon="-0.321373">
        <ele>-41.642</ele>
        <time>2020-08-10T06:08:23Z</time>
      </trkpt>
      <trkpt lat="39.569092" lon="-0.321609">
        <ele>-41.813</ele>
        <time>2020-08-10T06:08:26Z</time>
      </trkpt>
      <trkpt lat="39.569165" lon="-0.321834">
        <ele>-41.461</ele>
        <time>2020-08-10T06:08:29Z</time>
      </trkpt>
      <trkpt lat="39.569241" lon="-0.322047">
        <ele>-41.121</ele>
        <time>2020-08-10T06:08:32Z</time>
      </trkpt>
      <trkpt lat="39.569334" lon="-0.322336">
        <ele>-40.613</ele>
        <time>2020-08-10T06:08:36Z</time>
      </trkpt>
      <trkpt lat="39.569412" lon="-0.322557">
        <ele>-40.208</ele>
        <time>2020-08-10T06:08:39Z</time>
      </trkpt>
      <trkpt lat="39.569486" lon="-0.322780">
        <ele>-40.041</ele>
        <time>2020-08-10T06:08:42Z</time>
      </trkpt>
      <trkpt lat="39.569561" lon="-0.323003">
        <ele>-39.370</ele>
        <time>2020-08-10T06:08:45Z</time>
      </trkpt>
      <trkpt lat="39.569632" lon="-0.323221">
        <ele>-38.435</ele>
        <time>2020-08-10T06:08:48Z</time>
      </trkpt>
      <trkpt lat="39.569707" lon="-0.323444">
        <ele>-38.144</ele>
        <time>2020-08-10T06:08:51Z</time>
      </trkpt>
      <trkpt lat="39.569777" lon="-0.323665">
        <ele>-37.394</ele>
        <time>2020-08-10T06:08:54Z</time>
      </trkpt>
      <trkpt lat="39.569842" lon="-0.323888">
        <ele>-37.755</ele>
        <time>2020-08-10T06:08:57Z</time>
      </trkpt>
      <trkpt lat="39.569918" lon="-0.324114">
        <ele>-38.276</ele>
        <time>2020-08-10T06:09:00Z</time>
      </trkpt>
      <trkpt lat="39.569992" lon="-0.324332">
        <ele>-38.617</ele>
        <time>2020-08-10T06:09:03Z</time>
      </trkpt>
      <trkpt lat="39.570063" lon="-0.324556">
        <ele>-39.025</ele>
        <time>2020-08-10T06:09:06Z</time>
      </trkpt>
      <trkpt lat="39.570139" lon="-0.324780">
        <ele>-39.426</ele>
        <time>2020-08-10T06:09:09Z</time>
      </trkpt>
      <trkpt lat="39.570192" lon="-0.325010">
        <ele>-39.308</ele>
        <time>2020-08-10T06:09:12Z</time>
      </trkpt>
      <trkpt lat="39.570232" lon="-0.325257">
        <ele>-39.808</ele>
        <time>2020-08-10T06:09:15Z</time>
      </trkpt>
      <trkpt lat="39.570254" lon="-0.325497">
        <ele>-39.677</ele>
        <time>2020-08-10T06:09:18Z</time>
      </trkpt>
      <trkpt lat="39.570259" lon="-0.325735">
        <ele>-38.956</ele>
        <time>2020-08-10T06:09:21Z</time>
      </trkpt>
      <trkpt lat="39.570264" lon="-0.325972">
        <ele>-38.911</ele>
        <time>2020-08-10T06:09:24Z</time>
      </trkpt>
      <trkpt lat="39.570266" lon="-0.326220">
        <ele>-39.290</ele>
        <time>2020-08-10T06:09:27Z</time>
      </trkpt>
      <trkpt lat="39.570262" lon="-0.326464">
        <ele>-39.860</ele>
        <time>2020-08-10T06:09:30Z</time>
      </trkpt>
      <trkpt lat="39.570246" lon="-0.326697">
        <ele>-39.931</ele>
        <time>2020-08-10T06:09:33Z</time>
      </trkpt>
      <trkpt lat="39.570226" lon="-0.326996">
        <ele>-39.262</ele>
        <time>2020-08-10T06:09:37Z</time>
      </trkpt>
      <trkpt lat="39.570193" lon="-0.327276">
        <ele>-38.583</ele>
        <time>2020-08-10T06:09:41Z</time>
      </trkpt>
      <trkpt lat="39.570151" lon="-0.327585">
        <ele>-41.835</ele>
        <time>2020-08-10T06:09:45Z</time>
      </trkpt>
      <trkpt lat="39.570088" lon="-0.327820">
        <ele>-43.886</ele>
        <time>2020-08-10T06:09:48Z</time>
      </trkpt>
      <trkpt lat="39.570161" lon="-0.328096">
        <ele>-44.914</ele>
        <time>2020-08-10T06:09:51Z</time>
      </trkpt>
      <trkpt lat="39.569952" lon="-0.328058">
        <ele>-48.108</ele>
        <time>2020-08-10T06:10:05Z</time>
      </trkpt>
      <trkpt lat="39.569760" lon="-0.328162">
        <ele>-46.248</ele>
        <time>2020-08-10T06:10:10Z</time>
      </trkpt>
      <trkpt lat="39.569567" lon="-0.328179">
        <ele>-42.877</ele>
        <time>2020-08-10T06:10:14Z</time>
      </trkpt>
      <trkpt lat="39.569385" lon="-0.328212">
        <ele>-40.252</ele>
        <time>2020-08-10T06:10:18Z</time>
      </trkpt>
      <trkpt lat="39.569200" lon="-0.328282">
        <ele>-38.451</ele>
        <time>2020-08-10T06:10:22Z</time>
      </trkpt>
      <trkpt lat="39.569035" lon="-0.328413">
        <ele>-37.831</ele>
        <time>2020-08-10T06:10:26Z</time>
      </trkpt>
      <trkpt lat="39.568939" lon="-0.328623">
        <ele>-37.512</ele>
        <time>2020-08-10T06:10:30Z</time>
      </trkpt>
      <trkpt lat="39.568758" lon="-0.328692">
        <ele>-37.573</ele>
        <time>2020-08-10T06:10:35Z</time>
      </trkpt>
      <trkpt lat="39.568573" lon="-0.328696">
        <ele>-38.314</ele>
        <time>2020-08-10T06:10:39Z</time>
      </trkpt>
      <trkpt lat="39.568377" lon="-0.328607">
        <ele>-38.673</ele>
        <time>2020-08-10T06:10:43Z</time>
      </trkpt>
      <trkpt lat="39.568166" lon="-0.328670">
        <ele>-37.885</ele>
        <time>2020-08-10T06:10:47Z</time>
      </trkpt>
      <trkpt lat="39.567959" lon="-0.328769">
        <ele>-37.013</ele>
        <time>2020-08-10T06:10:51Z</time>
      </trkpt>
      <trkpt lat="39.567751" lon="-0.328856">
        <ele>-37.408</ele>
        <time>2020-08-10T06:10:55Z</time>
      </trkpt>
      <trkpt lat="39.567537" lon="-0.328944">
        <ele>-37.652</ele>
        <time>2020-08-10T06:10:59Z</time>
      </trkpt>
      <trkpt lat="39.567316" lon="-0.329039">
        <ele>-38.121</ele>
        <time>2020-08-10T06:11:03Z</time>
      </trkpt>
      <trkpt lat="39.567097" lon="-0.329135">
        <ele>-39.116</ele>
        <time>2020-08-10T06:11:07Z</time>
      </trkpt>
      <trkpt lat="39.566876" lon="-0.329229">
        <ele>-39.015</ele>
        <time>2020-08-10T06:11:11Z</time>
      </trkpt>
      <trkpt lat="39.566661" lon="-0.329322">
        <ele>-38.965</ele>
        <time>2020-08-10T06:11:15Z</time>
      </trkpt>
      <trkpt lat="39.566445" lon="-0.329410">
        <ele>-38.066</ele>
        <time>2020-08-10T06:11:19Z</time>
      </trkpt>
      <trkpt lat="39.566233" lon="-0.329506">
        <ele>-38.247</ele>
        <time>2020-08-10T06:11:23Z</time>
      </trkpt>
      <trkpt lat="39.566015" lon="-0.329604">
        <ele>-37.598</ele>
        <time>2020-08-10T06:11:27Z</time>
      </trkpt>
      <trkpt lat="39.565796" lon="-0.329690">
        <ele>-36.046</ele>
        <time>2020-08-10T06:11:31Z</time>
      </trkpt>
      <trkpt lat="39.565574" lon="-0.329789">
        <ele>-35.388</ele>
        <time>2020-08-10T06:11:35Z</time>
      </trkpt>
      <trkpt lat="39.565357" lon="-0.329887">
        <ele>-36.316</ele>
        <time>2020-08-10T06:11:39Z</time>
      </trkpt>
      <trkpt lat="39.565129" lon="-0.329988">
        <ele>-36.808</ele>
        <time>2020-08-10T06:11:43Z</time>
      </trkpt>
      <trkpt lat="39.564951" lon="-0.330049">
        <ele>-38.559</ele>
        <time>2020-08-10T06:11:46Z</time>
      </trkpt>
      <trkpt lat="39.564780" lon="-0.330128">
        <ele>-39.418</ele>
        <time>2020-08-10T06:11:49Z</time>
      </trkpt>
      <trkpt lat="39.564553" lon="-0.330226">
        <ele>-39.413</ele>
        <time>2020-08-10T06:11:53Z</time>
      </trkpt>
      <trkpt lat="39.564345" lon="-0.330330">
        <ele>-39.692</ele>
        <time>2020-08-10T06:11:57Z</time>
      </trkpt>
      <trkpt lat="39.564154" lon="-0.330427">
        <ele>-38.292</ele>
        <time>2020-08-10T06:12:01Z</time>
      </trkpt>
      <trkpt lat="39.563956" lon="-0.330566">
        <ele>-38.293</ele>
        <time>2020-08-10T06:12:05Z</time>
      </trkpt>
      <trkpt lat="39.563797" lon="-0.330783">
        <ele>-38.774</ele>
        <time>2020-08-10T06:12:09Z</time>
      </trkpt>
      <trkpt lat="39.563729" lon="-0.331052">
        <ele>-38.465</ele>
        <time>2020-08-10T06:12:13Z</time>
      </trkpt>
      <trkpt lat="39.563771" lon="-0.331312">
        <ele>-37.637</ele>
        <time>2020-08-10T06:12:17Z</time>
      </trkpt>
      <trkpt lat="39.563867" lon="-0.331563">
        <ele>-37.449</ele>
        <time>2020-08-10T06:12:21Z</time>
      </trkpt>
      <trkpt lat="39.563962" lon="-0.331802">
        <ele>-37.613</ele>
        <time>2020-08-10T06:12:25Z</time>
      </trkpt>
      <trkpt lat="39.564045" lon="-0.332023">
        <ele>-37.408</ele>
        <time>2020-08-10T06:12:29Z</time>
      </trkpt>
      <trkpt lat="39.564154" lon="-0.332270">
        <ele>-37.498</ele>
        <time>2020-08-10T06:12:34Z</time>
      </trkpt>
      <trkpt lat="39.564256" lon="-0.332481">
        <ele>-37.457</ele>
        <time>2020-08-10T06:12:38Z</time>
      </trkpt>
      <trkpt lat="39.564365" lon="-0.332688">
        <ele>-37.522</ele>
        <time>2020-08-10T06:12:42Z</time>
      </trkpt>
      <trkpt lat="39.564477" lon="-0.332913">
        <ele>-36.981</ele>
        <time>2020-08-10T06:12:46Z</time>
      </trkpt>
      <trkpt lat="39.564587" lon="-0.333143">
        <ele>-36.891</ele>
        <time>2020-08-10T06:12:50Z</time>
      </trkpt>
      <trkpt lat="39.564697" lon="-0.333359">
        <ele>-37.232</ele>
        <time>2020-08-10T06:12:54Z</time>
      </trkpt>
      <trkpt lat="39.564795" lon="-0.333591">
        <ele>-37.733</ele>
        <time>2020-08-10T06:12:58Z</time>
      </trkpt>
      <trkpt lat="39.564884" lon="-0.333823">
        <ele>-36.984</ele>
        <time>2020-08-10T06:13:02Z</time>
      </trkpt>
      <trkpt lat="39.564982" lon="-0.334046">
        <ele>-35.959</ele>
        <time>2020-08-10T06:13:06Z</time>
      </trkpt>
      <trkpt lat="39.564989" lon="-0.334304">
        <ele>-35.503</ele>
        <time>2020-08-10T06:13:10Z</time>
      </trkpt>
      <trkpt lat="39.564851" lon="-0.334488">
        <ele>-34.423</ele>
        <time>2020-08-10T06:13:14Z</time>
      </trkpt>
      <trkpt lat="39.564632" lon="-0.334467">
        <ele>-35.408</ele>
        <time>2020-08-10T06:13:18Z</time>
      </trkpt>
      <trkpt lat="39.564410" lon="-0.334476">
        <ele>-38.420</ele>
        <time>2020-08-10T06:13:22Z</time>
      </trkpt>
      <trkpt lat="39.564199" lon="-0.334566">
        <ele>-38.829</ele>
        <time>2020-08-10T06:13:26Z</time>
      </trkpt>
      <trkpt lat="39.564055" lon="-0.334730">
        <ele>-36.974</ele>
        <time>2020-08-10T06:13:30Z</time>
      </trkpt>
      <trkpt lat="39.564017" lon="-0.334991">
        <ele>-34.433</ele>
        <time>2020-08-10T06:13:34Z</time>
      </trkpt>
      <trkpt lat="39.564061" lon="-0.335231">
        <ele>-33.833</ele>
        <time>2020-08-10T06:13:38Z</time>
      </trkpt>
      <trkpt lat="39.564118" lon="-0.335465">
        <ele>-34.534</ele>
        <time>2020-08-10T06:13:42Z</time>
      </trkpt>
      <trkpt lat="39.564183" lon="-0.335714">
        <ele>-32.485</ele>
        <time>2020-08-10T06:13:46Z</time>
      </trkpt>
      <trkpt lat="39.564238" lon="-0.335993">
        <ele>-30.736</ele>
        <time>2020-08-10T06:13:51Z</time>
      </trkpt>
      <trkpt lat="39.564310" lon="-0.336263">
        <ele>-29.077</ele>
        <time>2020-08-10T06:13:56Z</time>
      </trkpt>
      <trkpt lat="39.564372" lon="-0.336539">
        <ele>-29.461</ele>
        <time>2020-08-10T06:14:00Z</time>
      </trkpt>
      <trkpt lat="39.564441" lon="-0.336803">
        <ele>-31.327</ele>
        <time>2020-08-10T06:14:03Z</time>
      </trkpt>
      <trkpt lat="39.564505" lon="-0.337109">
        <ele>-32.708</ele>
        <time>2020-08-10T06:14:06Z</time>
      </trkpt>
      <trkpt lat="39.564584" lon="-0.337453">
        <ele>-34.772</ele>
        <time>2020-08-10T06:14:09Z</time>
      </trkpt>
      <trkpt lat="39.564619" lon="-0.337700">
        <ele>-34.181</ele>
        <time>2020-08-10T06:14:11Z</time>
      </trkpt>
      <trkpt lat="39.564665" lon="-0.337958">
        <ele>-35.376</ele>
        <time>2020-08-10T06:14:14Z</time>
      </trkpt>
      <trkpt lat="39.564728" lon="-0.338188">
        <ele>-32.885</ele>
        <time>2020-08-10T06:14:18Z</time>
      </trkpt>
      <trkpt lat="39.564817" lon="-0.338419">
        <ele>-28.345</ele>
        <time>2020-08-10T06:14:24Z</time>
      </trkpt>
      <trkpt lat="39.564895" lon="-0.338654">
        <ele>-26.396</ele>
        <time>2020-08-10T06:14:30Z</time>
      </trkpt>
      <trkpt lat="39.564981" lon="-0.338924">
        <ele>-29.587</ele>
        <time>2020-08-10T06:14:35Z</time>
      </trkpt>
      <trkpt lat="39.565040" lon="-0.339148">
        <ele>-32.368</ele>
        <time>2020-08-10T06:14:39Z</time>
      </trkpt>
      <trkpt lat="39.565101" lon="-0.339377">
        <ele>-33.826</ele>
        <time>2020-08-10T06:14:43Z</time>
      </trkpt>
      <trkpt lat="39.565145" lon="-0.339616">
        <ele>-35.047</ele>
        <time>2020-08-10T06:14:47Z</time>
      </trkpt>
      <trkpt lat="39.565173" lon="-0.339853">
        <ele>-34.211</ele>
        <time>2020-08-10T06:14:51Z</time>
      </trkpt>
      <trkpt lat="39.565221" lon="-0.340138">
        <ele>-28.808</ele>
        <time>2020-08-10T06:14:56Z</time>
      </trkpt>
      <trkpt lat="39.565253" lon="-0.340380">
        <ele>-26.137</ele>
        <time>2020-08-10T06:15:00Z</time>
      </trkpt>
      <trkpt lat="39.565299" lon="-0.340618">
        <ele>-22.566</ele>
        <time>2020-08-10T06:15:04Z</time>
      </trkpt>
      <trkpt lat="39.565415" lon="-0.340850">
        <ele>-20.731</ele>
        <time>2020-08-10T06:15:09Z</time>
      </trkpt>
      <trkpt lat="39.565400" lon="-0.341085">
        <ele>-22.650</ele>
        <time>2020-08-10T06:15:13Z</time>
      </trkpt>
      <trkpt lat="39.565393" lon="-0.341319">
        <ele>-25.110</ele>
        <time>2020-08-10T06:15:17Z</time>
      </trkpt>
      <trkpt lat="39.565427" lon="-0.341560">
        <ele>-24.431</ele>
        <time>2020-08-10T06:15:21Z</time>
      </trkpt>
      <trkpt lat="39.565460" lon="-0.341823">
        <ele>-22.772</ele>
        <time>2020-08-10T06:15:26Z</time>
      </trkpt>
      <trkpt lat="39.565485" lon="-0.342056">
        <ele>-23.613</ele>
        <time>2020-08-10T06:15:30Z</time>
      </trkpt>
      <trkpt lat="39.565518" lon="-0.342306">
        <ele>-24.354</ele>
        <time>2020-08-10T06:15:34Z</time>
      </trkpt>
      <trkpt lat="39.565558" lon="-0.342539">
        <ele>-26.356</ele>
        <time>2020-08-10T06:15:38Z</time>
      </trkpt>
      <trkpt lat="39.565609" lon="-0.342767">
        <ele>-25.811</ele>
        <time>2020-08-10T06:15:42Z</time>
      </trkpt>
      <trkpt lat="39.565661" lon="-0.343021">
        <ele>-25.408</ele>
        <time>2020-08-10T06:15:46Z</time>
      </trkpt>
      <trkpt lat="39.565702" lon="-0.343278">
        <ele>-24.420</ele>
        <time>2020-08-10T06:15:50Z</time>
      </trkpt>
      <trkpt lat="39.565748" lon="-0.343530">
        <ele>-27.599</ele>
        <time>2020-08-10T06:15:54Z</time>
      </trkpt>
      <trkpt lat="39.565794" lon="-0.343771">
        <ele>-28.654</ele>
        <time>2020-08-10T06:15:58Z</time>
      </trkpt>
      <trkpt lat="39.565833" lon="-0.344007">
        <ele>-26.463</ele>
        <time>2020-08-10T06:16:02Z</time>
      </trkpt>
      <trkpt lat="39.565872" lon="-0.344240">
        <ele>-24.243</ele>
        <time>2020-08-10T06:16:06Z</time>
      </trkpt>
      <trkpt lat="39.565927" lon="-0.344511">
        <ele>-21.674</ele>
        <time>2020-08-10T06:16:11Z</time>
      </trkpt>
      <trkpt lat="39.565958" lon="-0.344745">
        <ele>-22.655</ele>
        <time>2020-08-10T06:16:15Z</time>
      </trkpt>
      <trkpt lat="39.565988" lon="-0.344994">
        <ele>-25.296</ele>
        <time>2020-08-10T06:16:19Z</time>
      </trkpt>
      <trkpt lat="39.566038" lon="-0.345242">
        <ele>-27.768</ele>
        <time>2020-08-10T06:16:23Z</time>
      </trkpt>
      <trkpt lat="39.566079" lon="-0.345485">
        <ele>-29.642</ele>
        <time>2020-08-10T06:16:27Z</time>
      </trkpt>
      <trkpt lat="39.566129" lon="-0.345732">
        <ele>-30.826</ele>
        <time>2020-08-10T06:16:31Z</time>
      </trkpt>
      <trkpt lat="39.566163" lon="-0.345971">
        <ele>-30.908</ele>
        <time>2020-08-10T06:16:35Z</time>
      </trkpt>
      <trkpt lat="39.566203" lon="-0.346213">
        <ele>-32.161</ele>
        <time>2020-08-10T06:16:39Z</time>
      </trkpt>
      <trkpt lat="39.566253" lon="-0.346449">
        <ele>-32.260</ele>
        <time>2020-08-10T06:16:43Z</time>
      </trkpt>
      <trkpt lat="39.566290" lon="-0.346679">
        <ele>-32.555</ele>
        <time>2020-08-10T06:16:47Z</time>
      </trkpt>
      <trkpt lat="39.566372" lon="-0.347008">
        <ele>-30.034</ele>
        <time>2020-08-10T06:16:53Z</time>
      </trkpt>
      <trkpt lat="39.566493" lon="-0.347183">
        <ele>-31.024</ele>
        <time>2020-08-10T06:16:57Z</time>
      </trkpt>
      <trkpt lat="39.566639" lon="-0.347356">
        <ele>-29.255</ele>
        <time>2020-08-10T06:17:01Z</time>
      </trkpt>
      <trkpt lat="39.566602" lon="-0.347614">
        <ele>-27.996</ele>
        <time>2020-08-10T06:17:08Z</time>
      </trkpt>
      <trkpt lat="39.566441" lon="-0.347775">
        <ele>-27.787</ele>
        <time>2020-08-10T06:17:12Z</time>
      </trkpt>
      <trkpt lat="39.566275" lon="-0.347911">
        <ele>-27.831</ele>
        <time>2020-08-10T06:17:16Z</time>
      </trkpt>
      <trkpt lat="39.566110" lon="-0.348047">
        <ele>-27.961</ele>
        <time>2020-08-10T06:17:20Z</time>
      </trkpt>
      <trkpt lat="39.565994" lon="-0.348249">
        <ele>-28.707</ele>
        <time>2020-08-10T06:17:24Z</time>
      </trkpt>
      <trkpt lat="39.565899" lon="-0.348486">
        <ele>-29.708</ele>
        <time>2020-08-10T06:17:28Z</time>
      </trkpt>
      <trkpt lat="39.565879" lon="-0.348766">
        <ele>-30.078</ele>
        <time>2020-08-10T06:17:32Z</time>
      </trkpt>
      <trkpt lat="39.565858" lon="-0.349035">
        <ele>-29.847</ele>
        <time>2020-08-10T06:17:36Z</time>
      </trkpt>
      <trkpt lat="39.565865" lon="-0.349297">
        <ele>-29.752</ele>
        <time>2020-08-10T06:17:40Z</time>
      </trkpt>
      <trkpt lat="39.565905" lon="-0.349552">
        <ele>-30.231</ele>
        <time>2020-08-10T06:17:44Z</time>
      </trkpt>
      <trkpt lat="39.565955" lon="-0.349802">
        <ele>-31.131</ele>
        <time>2020-08-10T06:17:48Z</time>
      </trkpt>
      <trkpt lat="39.566010" lon="-0.350059">
        <ele>-31.412</ele>
        <time>2020-08-10T06:17:52Z</time>
      </trkpt>
      <trkpt lat="39.566058" lon="-0.350325">
        <ele>-31.373</ele>
        <time>2020-08-10T06:17:56Z</time>
      </trkpt>
      <trkpt lat="39.566108" lon="-0.350594">
        <ele>-30.994</ele>
        <time>2020-08-10T06:18:00Z</time>
      </trkpt>
      <trkpt lat="39.566154" lon="-0.350853">
        <ele>-30.459</ele>
        <time>2020-08-10T06:18:04Z</time>
      </trkpt>
      <trkpt lat="39.566200" lon="-0.351119">
        <ele>-30.703</ele>
        <time>2020-08-10T06:18:08Z</time>
      </trkpt>
      <trkpt lat="39.566244" lon="-0.351386">
        <ele>-30.923</ele>
        <time>2020-08-10T06:18:12Z</time>
      </trkpt>
      <trkpt lat="39.566286" lon="-0.351658">
        <ele>-30.508</ele>
        <time>2020-08-10T06:18:16Z</time>
      </trkpt>
      <trkpt lat="39.566318" lon="-0.351920">
        <ele>-29.530</ele>
        <time>2020-08-10T06:18:20Z</time>
      </trkpt>
      <trkpt lat="39.566364" lon="-0.352180">
        <ele>-30.159</ele>
        <time>2020-08-10T06:18:24Z</time>
      </trkpt>
      <trkpt lat="39.566398" lon="-0.352442">
        <ele>-30.034</ele>
        <time>2020-08-10T06:18:28Z</time>
      </trkpt>
      <trkpt lat="39.566398" lon="-0.352736">
        <ele>-28.913</ele>
        <time>2020-08-10T06:18:33Z</time>
      </trkpt>
      <trkpt lat="39.566394" lon="-0.352987">
        <ele>-28.073</ele>
        <time>2020-08-10T06:18:37Z</time>
      </trkpt>
      <trkpt lat="39.566380" lon="-0.353241">
        <ele>-26.544</ele>
        <time>2020-08-10T06:18:41Z</time>
      </trkpt>
      <trkpt lat="39.566371" lon="-0.353496">
        <ele>-26.395</ele>
        <time>2020-08-10T06:18:45Z</time>
      </trkpt>
      <trkpt lat="39.566362" lon="-0.353743">
        <ele>-26.236</ele>
        <time>2020-08-10T06:18:49Z</time>
      </trkpt>
      <trkpt lat="39.566349" lon="-0.353985">
        <ele>-27.347</ele>
        <time>2020-08-10T06:18:53Z</time>
      </trkpt>
      <trkpt lat="39.566349" lon="-0.354240">
        <ele>-28.629</ele>
        <time>2020-08-10T06:18:57Z</time>
      </trkpt>
      <trkpt lat="39.566340" lon="-0.354496">
        <ele>-28.921</ele>
        <time>2020-08-10T06:19:01Z</time>
      </trkpt>
      <trkpt lat="39.566327" lon="-0.354749">
        <ele>-28.708</ele>
        <time>2020-08-10T06:19:05Z</time>
      </trkpt>
      <trkpt lat="39.566316" lon="-0.354997">
        <ele>-29.599</ele>
        <time>2020-08-10T06:19:09Z</time>
      </trkpt>
      <trkpt lat="39.566298" lon="-0.355241">
        <ele>-30.288</ele>
        <time>2020-08-10T06:19:13Z</time>
      </trkpt>
      <trkpt lat="39.566287" lon="-0.355485">
        <ele>-30.183</ele>
        <time>2020-08-10T06:19:17Z</time>
      </trkpt>
      <trkpt lat="39.566275" lon="-0.355723">
        <ele>-29.532</ele>
        <time>2020-08-10T06:19:21Z</time>
      </trkpt>
      <trkpt lat="39.566259" lon="-0.356005">
        <ele>-29.842</ele>
        <time>2020-08-10T06:19:26Z</time>
      </trkpt>
      <trkpt lat="39.566250" lon="-0.356241">
        <ele>-30.863</ele>
        <time>2020-08-10T06:19:30Z</time>
      </trkpt>
      <trkpt lat="39.566229" lon="-0.356497">
        <ele>-31.564</ele>
        <time>2020-08-10T06:19:35Z</time>
      </trkpt>
      <trkpt lat="39.566088" lon="-0.356696">
        <ele>-30.055</ele>
        <time>2020-08-10T06:19:41Z</time>
      </trkpt>
      <trkpt lat="39.565951" lon="-0.356911">
        <ele>-29.422</ele>
        <time>2020-08-10T06:19:47Z</time>
      </trkpt>
      <trkpt lat="39.565850" lon="-0.357158">
        <ele>-29.962</ele>
        <time>2020-08-10T06:19:52Z</time>
      </trkpt>
      <trkpt lat="39.565778" lon="-0.357373">
        <ele>-30.008</ele>
        <time>2020-08-10T06:19:56Z</time>
      </trkpt>
      <trkpt lat="39.565753" lon="-0.357608">
        <ele>-28.508</ele>
        <time>2020-08-10T06:20:00Z</time>
      </trkpt>
      <trkpt lat="39.565739" lon="-0.357845">
        <ele>-27.917</ele>
        <time>2020-08-10T06:20:04Z</time>
      </trkpt>
      <trkpt lat="39.565670" lon="-0.358118">
        <ele>-26.146</ele>
        <time>2020-08-10T06:20:09Z</time>
      </trkpt>
      <trkpt lat="39.565532" lon="-0.358269">
        <ele>-25.571</ele>
        <time>2020-08-10T06:20:13Z</time>
      </trkpt>
      <trkpt lat="39.565367" lon="-0.358393">
        <ele>-26.590</ele>
        <time>2020-08-10T06:20:17Z</time>
      </trkpt>
      <trkpt lat="39.565192" lon="-0.358528">
        <ele>-27.460</ele>
        <time>2020-08-10T06:20:21Z</time>
      </trkpt>
      <trkpt lat="39.565012" lon="-0.358629">
        <ele>-28.211</ele>
        <time>2020-08-10T06:20:25Z</time>
      </trkpt>
      <trkpt lat="39.564828" lon="-0.358736">
        <ele>-28.912</ele>
        <time>2020-08-10T06:20:29Z</time>
      </trkpt>
      <trkpt lat="39.564638" lon="-0.358844">
        <ele>-28.953</ele>
        <time>2020-08-10T06:20:33Z</time>
      </trkpt>
      <trkpt lat="39.564494" lon="-0.359013">
        <ele>-26.523</ele>
        <time>2020-08-10T06:20:37Z</time>
      </trkpt>
      <trkpt lat="39.564530" lon="-0.359280">
        <ele>-25.283</ele>
        <time>2020-08-10T06:20:41Z</time>
      </trkpt>
      <trkpt lat="39.564565" lon="-0.359545">
        <ele>-24.611</ele>
        <time>2020-08-10T06:20:45Z</time>
      </trkpt>
      <trkpt lat="39.564604" lon="-0.359807">
        <ele>-24.208</ele>
        <time>2020-08-10T06:20:49Z</time>
      </trkpt>
      <trkpt lat="39.564632" lon="-0.360061">
        <ele>-23.397</ele>
        <time>2020-08-10T06:20:53Z</time>
      </trkpt>
      <trkpt lat="39.564663" lon="-0.360313">
        <ele>-23.986</ele>
        <time>2020-08-10T06:20:57Z</time>
      </trkpt>
      <trkpt lat="39.564681" lon="-0.360557">
        <ele>-23.261</ele>
        <time>2020-08-10T06:21:01Z</time>
      </trkpt>
      <trkpt lat="39.564709" lon="-0.360813">
        <ele>-22.840</ele>
        <time>2020-08-10T06:21:05Z</time>
      </trkpt>
      <trkpt lat="39.564741" lon="-0.361076">
        <ele>-23.850</ele>
        <time>2020-08-10T06:21:09Z</time>
      </trkpt>
      <trkpt lat="39.564780" lon="-0.361328">
        <ele>-24.871</ele>
        <time>2020-08-10T06:21:13Z</time>
      </trkpt>
      <trkpt lat="39.564820" lon="-0.361564">
        <ele>-25.372</ele>
        <time>2020-08-10T06:21:18Z</time>
      </trkpt>
      <trkpt lat="39.564676" lon="-0.361754">
        <ele>-27.053</ele>
        <time>2020-08-10T06:21:26Z</time>
      </trkpt>
      <trkpt lat="39.564474" lon="-0.361835">
        <ele>-27.876</ele>
        <time>2020-08-10T06:21:31Z</time>
      </trkpt>
      <trkpt lat="39.564417" lon="-0.362067">
        <ele>-26.690</ele>
        <time>2020-08-10T06:21:36Z</time>
      </trkpt>
      <trkpt lat="39.564457" lon="-0.362345">
        <ele>-25.719</ele>
        <time>2020-08-10T06:21:42Z</time>
      </trkpt>
      <trkpt lat="39.564497" lon="-0.362593">
        <ele>-25.008</ele>
        <time>2020-08-10T06:21:47Z</time>
      </trkpt>
      <trkpt lat="39.564462" lon="-0.362850">
        <ele>-25.412</ele>
        <time>2020-08-10T06:21:52Z</time>
      </trkpt>
      <trkpt lat="39.564301" lon="-0.363043">
        <ele>-26.861</ele>
        <time>2020-08-10T06:21:57Z</time>
      </trkpt>
      <trkpt lat="39.564162" lon="-0.363202">
        <ele>-26.416</ele>
        <time>2020-08-10T06:22:01Z</time>
      </trkpt>
      <trkpt lat="39.564018" lon="-0.363379">
        <ele>-24.745</ele>
        <time>2020-08-10T06:22:05Z</time>
      </trkpt>
      <trkpt lat="39.563884" lon="-0.363569">
        <ele>-24.075</ele>
        <time>2020-08-10T06:22:09Z</time>
      </trkpt>
      <trkpt lat="39.563756" lon="-0.363771">
        <ele>-22.866</ele>
        <time>2020-08-10T06:22:13Z</time>
      </trkpt>
      <trkpt lat="39.563648" lon="-0.363985">
        <ele>-23.147</ele>
        <time>2020-08-10T06:22:17Z</time>
      </trkpt>
      <trkpt lat="39.563535" lon="-0.364196">
        <ele>-23.068</ele>
        <time>2020-08-10T06:22:21Z</time>
      </trkpt>
      <trkpt lat="39.563427" lon="-0.364409">
        <ele>-23.476</ele>
        <time>2020-08-10T06:22:25Z</time>
      </trkpt>
      <trkpt lat="39.563320" lon="-0.364618">
        <ele>-23.290</ele>
        <time>2020-08-10T06:22:29Z</time>
      </trkpt>
      <trkpt lat="39.563220" lon="-0.364833">
        <ele>-23.219</ele>
        <time>2020-08-10T06:22:33Z</time>
      </trkpt>
      <trkpt lat="39.563133" lon="-0.365047">
        <ele>-22.708</ele>
        <time>2020-08-10T06:22:37Z</time>
      </trkpt>
      <trkpt lat="39.563063" lon="-0.365276">
        <ele>-23.092</ele>
        <time>2020-08-10T06:22:41Z</time>
      </trkpt>
      <trkpt lat="39.563007" lon="-0.365519">
        <ele>-24.261</ele>
        <time>2020-08-10T06:22:45Z</time>
      </trkpt>
      <trkpt lat="39.562922" lon="-0.365733">
        <ele>-24.436</ele>
        <time>2020-08-10T06:22:49Z</time>
      </trkpt>
      <trkpt lat="39.562796" lon="-0.365907">
        <ele>-25.025</ele>
        <time>2020-08-10T06:22:53Z</time>
      </trkpt>
      <trkpt lat="39.562649" lon="-0.366050">
        <ele>-25.145</ele>
        <time>2020-08-10T06:22:57Z</time>
      </trkpt>
      <trkpt lat="39.562494" lon="-0.366228">
        <ele>-25.586</ele>
        <time>2020-08-10T06:23:02Z</time>
      </trkpt>
      <trkpt lat="39.562318" lon="-0.366400">
        <ele>-25.447</ele>
        <time>2020-08-10T06:23:07Z</time>
      </trkpt>
      <trkpt lat="39.562133" lon="-0.366562">
        <ele>-21.858</ele>
        <time>2020-08-10T06:23:12Z</time>
      </trkpt>
      <trkpt lat="39.561959" lon="-0.366732">
        <ele>-20.123</ele>
        <time>2020-08-10T06:23:17Z</time>
      </trkpt>
      <trkpt lat="39.561794" lon="-0.366917">
        <ele>-19.583</ele>
        <time>2020-08-10T06:23:22Z</time>
      </trkpt>
      <trkpt lat="39.561640" lon="-0.367110">
        <ele>-19.311</ele>
        <time>2020-08-10T06:23:27Z</time>
      </trkpt>
      <trkpt lat="39.561485" lon="-0.367310">
        <ele>-18.608</ele>
        <time>2020-08-10T06:23:32Z</time>
      </trkpt>
      <trkpt lat="39.561324" lon="-0.367513">
        <ele>-19.557</ele>
        <time>2020-08-10T06:23:37Z</time>
      </trkpt>
      <trkpt lat="39.561188" lon="-0.367678">
        <ele>-20.236</ele>
        <time>2020-08-10T06:23:41Z</time>
      </trkpt>
      <trkpt lat="39.561047" lon="-0.367841">
        <ele>-20.181</ele>
        <time>2020-08-10T06:23:45Z</time>
      </trkpt>
      <trkpt lat="39.560914" lon="-0.368056">
        <ele>-20.180</ele>
        <time>2020-08-10T06:23:50Z</time>
      </trkpt>
      <trkpt lat="39.560796" lon="-0.368287">
        <ele>-20.270</ele>
        <time>2020-08-10T06:23:55Z</time>
      </trkpt>
      <trkpt lat="39.560635" lon="-0.368428">
        <ele>-19.231</ele>
        <time>2020-08-10T06:23:59Z</time>
      </trkpt>
      <trkpt lat="39.560475" lon="-0.368578">
        <ele>-17.892</ele>
        <time>2020-08-10T06:24:03Z</time>
      </trkpt>
      <trkpt lat="39.560322" lon="-0.368747">
        <ele>-17.493</ele>
        <time>2020-08-10T06:24:07Z</time>
      </trkpt>
      <trkpt lat="39.560175" lon="-0.368920">
        <ele>-17.514</ele>
        <time>2020-08-10T06:24:11Z</time>
      </trkpt>
      <trkpt lat="39.560022" lon="-0.369091">
        <ele>-17.954</ele>
        <time>2020-08-10T06:24:15Z</time>
      </trkpt>
      <trkpt lat="39.559876" lon="-0.369261">
        <ele>-18.709</ele>
        <time>2020-08-10T06:24:19Z</time>
      </trkpt>
      <trkpt lat="39.559730" lon="-0.369424">
        <ele>-18.708</ele>
        <time>2020-08-10T06:24:23Z</time>
      </trkpt>
      <trkpt lat="39.559586" lon="-0.369591">
        <ele>-18.026</ele>
        <time>2020-08-10T06:24:27Z</time>
      </trkpt>
      <trkpt lat="39.559442" lon="-0.369754">
        <ele>-17.415</ele>
        <time>2020-08-10T06:24:31Z</time>
      </trkpt>
      <trkpt lat="39.559296" lon="-0.369922">
        <ele>-17.230</ele>
        <time>2020-08-10T06:24:35Z</time>
      </trkpt>
      <trkpt lat="39.559150" lon="-0.370097">
        <ele>-17.259</ele>
        <time>2020-08-10T06:24:39Z</time>
      </trkpt>
      <trkpt lat="39.559013" lon="-0.370283">
        <ele>-16.629</ele>
        <time>2020-08-10T06:24:43Z</time>
      </trkpt>
      <trkpt lat="39.558882" lon="-0.370472">
        <ele>-16.960</ele>
        <time>2020-08-10T06:24:47Z</time>
      </trkpt>
      <trkpt lat="39.558759" lon="-0.370670">
        <ele>-16.921</ele>
        <time>2020-08-10T06:24:51Z</time>
      </trkpt>
      <trkpt lat="39.558637" lon="-0.370874">
        <ele>-16.692</ele>
        <time>2020-08-10T06:24:55Z</time>
      </trkpt>
      <trkpt lat="39.558517" lon="-0.371081">
        <ele>-15.832</ele>
        <time>2020-08-10T06:24:59Z</time>
      </trkpt>
      <trkpt lat="39.558399" lon="-0.371292">
        <ele>-15.692</ele>
        <time>2020-08-10T06:25:03Z</time>
      </trkpt>
      <trkpt lat="39.558277" lon="-0.371493">
        <ele>-15.511</ele>
        <time>2020-08-10T06:25:07Z</time>
      </trkpt>
      <trkpt lat="39.558149" lon="-0.371695">
        <ele>-15.308</ele>
        <time>2020-08-10T06:25:11Z</time>
      </trkpt>
      <trkpt lat="39.558024" lon="-0.371901">
        <ele>-15.278</ele>
        <time>2020-08-10T06:25:15Z</time>
      </trkpt>
      <trkpt lat="39.557900" lon="-0.372103">
        <ele>-15.147</ele>
        <time>2020-08-10T06:25:19Z</time>
      </trkpt>
      <trkpt lat="39.557775" lon="-0.372316">
        <ele>-15.942</ele>
        <time>2020-08-10T06:25:23Z</time>
      </trkpt>
      <trkpt lat="39.557654" lon="-0.372534">
        <ele>-17.291</ele>
        <time>2020-08-10T06:25:27Z</time>
      </trkpt>
      <trkpt lat="39.557533" lon="-0.372754">
        <ele>-17.831</ele>
        <time>2020-08-10T06:25:31Z</time>
      </trkpt>
      <trkpt lat="39.557410" lon="-0.372968">
        <ele>-18.012</ele>
        <time>2020-08-10T06:25:35Z</time>
      </trkpt>
      <trkpt lat="39.557293" lon="-0.373174">
        <ele>-18.283</ele>
        <time>2020-08-10T06:25:39Z</time>
      </trkpt>
      <trkpt lat="39.557172" lon="-0.373389">
        <ele>-18.444</ele>
        <time>2020-08-10T06:25:44Z</time>
      </trkpt>
      <trkpt lat="39.557063" lon="-0.373604">
        <ele>-18.134</ele>
        <time>2020-08-10T06:25:52Z</time>
      </trkpt>
      <trkpt lat="39.556941" lon="-0.373793">
        <ele>-18.255</ele>
        <time>2020-08-10T06:25:58Z</time>
      </trkpt>
      <trkpt lat="39.556821" lon="-0.374029">
        <ele>-17.310</ele>
        <time>2020-08-10T06:26:03Z</time>
      </trkpt>
      <trkpt lat="39.556708" lon="-0.374227">
        <ele>-16.908</ele>
        <time>2020-08-10T06:26:07Z</time>
      </trkpt>
      <trkpt lat="39.556601" lon="-0.374438">
        <ele>-16.068</ele>
        <time>2020-08-10T06:26:11Z</time>
      </trkpt>
      <trkpt lat="39.556481" lon="-0.374650">
        <ele>-15.627</ele>
        <time>2020-08-10T06:26:15Z</time>
      </trkpt>
      <trkpt lat="39.556376" lon="-0.374847">
        <ele>-15.252</ele>
        <time>2020-08-10T06:26:19Z</time>
      </trkpt>
      <trkpt lat="39.556254" lon="-0.375089">
        <ele>-15.791</ele>
        <time>2020-08-10T06:26:24Z</time>
      </trkpt>
      <trkpt lat="39.556151" lon="-0.375296">
        <ele>-15.831</ele>
        <time>2020-08-10T06:26:28Z</time>
      </trkpt>
      <trkpt lat="39.556041" lon="-0.375506">
        <ele>-15.652</ele>
        <time>2020-08-10T06:26:32Z</time>
      </trkpt>
      <trkpt lat="39.555931" lon="-0.375716">
        <ele>-16.043</ele>
        <time>2020-08-10T06:26:36Z</time>
      </trkpt>
      <trkpt lat="39.555824" lon="-0.375926">
        <ele>-16.194</ele>
        <time>2020-08-10T06:26:40Z</time>
      </trkpt>
      <trkpt lat="39.555711" lon="-0.376139">
        <ele>-16.651</ele>
        <time>2020-08-10T06:26:44Z</time>
      </trkpt>
      <trkpt lat="39.555600" lon="-0.376361">
        <ele>-16.801</ele>
        <time>2020-08-10T06:26:48Z</time>
      </trkpt>
      <trkpt lat="39.555491" lon="-0.376586">
        <ele>-17.511</ele>
        <time>2020-08-10T06:26:52Z</time>
      </trkpt>
      <trkpt lat="39.555380" lon="-0.376806">
        <ele>-17.508</ele>
        <time>2020-08-10T06:26:56Z</time>
      </trkpt>
      <trkpt lat="39.555276" lon="-0.377032">
        <ele>-17.030</ele>
        <time>2020-08-10T06:27:00Z</time>
      </trkpt>
      <trkpt lat="39.555162" lon="-0.377259">
        <ele>-17.139</ele>
        <time>2020-08-10T06:27:04Z</time>
      </trkpt>
      <trkpt lat="39.555047" lon="-0.377487">
        <ele>-16.924</ele>
        <time>2020-08-10T06:27:08Z</time>
      </trkpt>
      <trkpt lat="39.554930" lon="-0.377719">
        <ele>-17.073</ele>
        <time>2020-08-10T06:27:12Z</time>
      </trkpt>
      <trkpt lat="39.554813" lon="-0.377956">
        <ele>-17.143</ele>
        <time>2020-08-10T06:27:16Z</time>
      </trkpt>
      <trkpt lat="39.554690" lon="-0.378194">
        <ele>-16.424</ele>
        <time>2020-08-10T06:27:20Z</time>
      </trkpt>
      <trkpt lat="39.554558" lon="-0.378443">
        <ele>-16.165</ele>
        <time>2020-08-10T06:27:24Z</time>
      </trkpt>
      <trkpt lat="39.554451" lon="-0.378643">
        <ele>-16.496</ele>
        <time>2020-08-10T06:27:27Z</time>
      </trkpt>
      <trkpt lat="39.554337" lon="-0.378846">
        <ele>-17.765</ele>
        <time>2020-08-10T06:27:30Z</time>
      </trkpt>
      <trkpt lat="39.554204" lon="-0.379075">
        <ele>-18.168</ele>
        <time>2020-08-10T06:27:33Z</time>
      </trkpt>
      <trkpt lat="39.554102" lon="-0.379289">
        <ele>-18.014</ele>
        <time>2020-08-10T06:27:36Z</time>
      </trkpt>
      <trkpt lat="39.553976" lon="-0.379543">
        <ele>-17.808</ele>
        <time>2020-08-10T06:27:40Z</time>
      </trkpt>
      <trkpt lat="39.553858" lon="-0.379789">
        <ele>-17.461</ele>
        <time>2020-08-10T06:27:44Z</time>
      </trkpt>
      <trkpt lat="39.553751" lon="-0.380016">
        <ele>-17.210</ele>
        <time>2020-08-10T06:27:48Z</time>
      </trkpt>
      <trkpt lat="39.553647" lon="-0.380237">
        <ele>-16.795</ele>
        <time>2020-08-10T06:27:52Z</time>
      </trkpt>
      <trkpt lat="39.553540" lon="-0.380459">
        <ele>-16.874</ele>
        <time>2020-08-10T06:27:56Z</time>
      </trkpt>
      <trkpt lat="39.553434" lon="-0.380678">
        <ele>-16.714</ele>
        <time>2020-08-10T06:28:00Z</time>
      </trkpt>
      <trkpt lat="39.553307" lon="-0.380890">
        <ele>-17.145</ele>
        <time>2020-08-10T06:28:04Z</time>
      </trkpt>
      <trkpt lat="39.553162" lon="-0.381120">
        <ele>-17.546</ele>
        <time>2020-08-10T06:28:08Z</time>
      </trkpt>
      <trkpt lat="39.553050" lon="-0.381308">
        <ele>-18.297</ele>
        <time>2020-08-10T06:28:11Z</time>
      </trkpt>
      <trkpt lat="39.552935" lon="-0.381493">
        <ele>-19.553</ele>
        <time>2020-08-10T06:28:14Z</time>
      </trkpt>
      <trkpt lat="39.552769" lon="-0.381720">
        <ele>-20.104</ele>
        <time>2020-08-10T06:28:18Z</time>
      </trkpt>
      <trkpt lat="39.552632" lon="-0.381884">
        <ele>-20.614</ele>
        <time>2020-08-10T06:28:21Z</time>
      </trkpt>
      <trkpt lat="39.552482" lon="-0.382023">
        <ele>-21.508</ele>
        <time>2020-08-10T06:28:24Z</time>
      </trkpt>
      <trkpt lat="39.552325" lon="-0.382172">
        <ele>-22.520</ele>
        <time>2020-08-10T06:28:27Z</time>
      </trkpt>
      <trkpt lat="39.552150" lon="-0.382335">
        <ele>-23.829</ele>
        <time>2020-08-10T06:28:30Z</time>
      </trkpt>
      <trkpt lat="39.551940" lon="-0.382529">
        <ele>-25.014</ele>
        <time>2020-08-10T06:28:33Z</time>
      </trkpt>
      <trkpt lat="39.551734" lon="-0.382718">
        <ele>-24.753</ele>
        <time>2020-08-10T06:28:36Z</time>
      </trkpt>
      <trkpt lat="39.551540" lon="-0.382858">
        <ele>-24.543</ele>
        <time>2020-08-10T06:28:39Z</time>
      </trkpt>
      <trkpt lat="39.551368" lon="-0.382954">
        <ele>-23.864</ele>
        <time>2020-08-10T06:28:42Z</time>
      </trkpt>
      <trkpt lat="39.551163" lon="-0.383022">
        <ele>-23.115</ele>
        <time>2020-08-10T06:28:46Z</time>
      </trkpt>
      <trkpt lat="39.550997" lon="-0.383129">
        <ele>-22.526</ele>
        <time>2020-08-10T06:28:50Z</time>
      </trkpt>
      <trkpt lat="39.550853" lon="-0.383279">
        <ele>-21.193</ele>
        <time>2020-08-10T06:28:54Z</time>
      </trkpt>
      <trkpt lat="39.550698" lon="-0.383464">
        <ele>-18.865</ele>
        <time>2020-08-10T06:28:59Z</time>
      </trkpt>
      <trkpt lat="39.550562" lon="-0.383632">
        <ele>-19.421</ele>
        <time>2020-08-10T06:29:04Z</time>
      </trkpt>
      <trkpt lat="39.550422" lon="-0.383824">
        <ele>-13.208</ele>
        <time>2020-08-10T06:29:10Z</time>
      </trkpt>
      <trkpt lat="39.550293" lon="-0.384033">
        <ele>-11.464</ele>
        <time>2020-08-10T06:29:15Z</time>
      </trkpt>
      <trkpt lat="39.550177" lon="-0.384263">
        <ele>-11.623</ele>
        <time>2020-08-10T06:29:20Z</time>
      </trkpt>
      <trkpt lat="39.550078" lon="-0.384466">
        <ele>-10.718</ele>
        <time>2020-08-10T06:29:24Z</time>
      </trkpt>
      <trkpt lat="39.549967" lon="-0.384666">
        <ele>-7.697</ele>
        <time>2020-08-10T06:29:28Z</time>
      </trkpt>
      <trkpt lat="39.549869" lon="-0.384885">
        <ele>-7.627</ele>
        <time>2020-08-10T06:29:32Z</time>
      </trkpt>
      <trkpt lat="39.549788" lon="-0.385142">
        <ele>-10.528</ele>
        <time>2020-08-10T06:29:36Z</time>
      </trkpt>
      <trkpt lat="39.549723" lon="-0.385400">
        <ele>-10.739</ele>
        <time>2020-08-10T06:29:40Z</time>
      </trkpt>
      <trkpt lat="39.549662" lon="-0.385659">
        <ele>-11.430</ele>
        <time>2020-08-10T06:29:44Z</time>
      </trkpt>
      <trkpt lat="39.549593" lon="-0.385920">
        <ele>-11.993</ele>
        <time>2020-08-10T06:29:48Z</time>
      </trkpt>
      <trkpt lat="39.549525" lon="-0.386186">
        <ele>-11.365</ele>
        <time>2020-08-10T06:29:52Z</time>
      </trkpt>
      <trkpt lat="39.549442" lon="-0.386452">
        <ele>-10.721</ele>
        <time>2020-08-10T06:29:56Z</time>
      </trkpt>
      <trkpt lat="39.549354" lon="-0.386716">
        <ele>-10.308</ele>
        <time>2020-08-10T06:30:00Z</time>
      </trkpt>
      <trkpt lat="39.549271" lon="-0.386986">
        <ele>-11.734</ele>
        <time>2020-08-10T06:30:04Z</time>
      </trkpt>
      <trkpt lat="39.549192" lon="-0.387231">
        <ele>-13.693</ele>
        <time>2020-08-10T06:30:08Z</time>
      </trkpt>
      <trkpt lat="39.549111" lon="-0.387466">
        <ele>-13.158</ele>
        <time>2020-08-10T06:30:12Z</time>
      </trkpt>
      <trkpt lat="39.549031" lon="-0.387689">
        <ele>-12.817</ele>
        <time>2020-08-10T06:30:16Z</time>
      </trkpt>
      <trkpt lat="39.548930" lon="-0.387909">
        <ele>-13.277</ele>
        <time>2020-08-10T06:30:20Z</time>
      </trkpt>
      <trkpt lat="39.548817" lon="-0.388104">
        <ele>-11.678</ele>
        <time>2020-08-10T06:30:24Z</time>
      </trkpt>
      <trkpt lat="39.548696" lon="-0.388294">
        <ele>-8.569</ele>
        <time>2020-08-10T06:30:28Z</time>
      </trkpt>
      <trkpt lat="39.548637" lon="-0.388571">
        <ele>-6.490</ele>
        <time>2020-08-10T06:30:33Z</time>
      </trkpt>
      <trkpt lat="39.548512" lon="-0.388792">
        <ele>-10.473</ele>
        <time>2020-08-10T06:30:38Z</time>
      </trkpt>
      <trkpt lat="39.548334" lon="-0.388926">
        <ele>-11.285</ele>
        <time>2020-08-10T06:30:43Z</time>
      </trkpt>
      <trkpt lat="39.548213" lon="-0.389162">
        <ele>-12.613</ele>
        <time>2020-08-10T06:30:48Z</time>
      </trkpt>
      <trkpt lat="39.548084" lon="-0.389377">
        <ele>-11.708</ele>
        <time>2020-08-10T06:30:52Z</time>
      </trkpt>
      <trkpt lat="39.547946" lon="-0.389603">
        <ele>-11.862</ele>
        <time>2020-08-10T06:30:56Z</time>
      </trkpt>
      <trkpt lat="39.547801" lon="-0.389828">
        <ele>-11.811</ele>
        <time>2020-08-10T06:31:00Z</time>
      </trkpt>
      <trkpt lat="39.547656" lon="-0.390055">
        <ele>-14.356</ele>
        <time>2020-08-10T06:31:04Z</time>
      </trkpt>
      <trkpt lat="39.547501" lon="-0.390261">
        <ele>-14.635</ele>
        <time>2020-08-10T06:31:08Z</time>
      </trkpt>
      <trkpt lat="39.547357" lon="-0.390463">
        <ele>-13.395</ele>
        <time>2020-08-10T06:31:12Z</time>
      </trkpt>
      <trkpt lat="39.547225" lon="-0.390701">
        <ele>-13.516</ele>
        <time>2020-08-10T06:31:16Z</time>
      </trkpt>
      <trkpt lat="39.547092" lon="-0.390950">
        <ele>-15.857</ele>
        <time>2020-08-10T06:31:20Z</time>
      </trkpt>
      <trkpt lat="39.546943" lon="-0.391181">
        <ele>-16.678</ele>
        <time>2020-08-10T06:31:24Z</time>
      </trkpt>
      <trkpt lat="39.546819" lon="-0.391429">
        <ele>-18.775</ele>
        <time>2020-08-10T06:31:28Z</time>
      </trkpt>
      <trkpt lat="39.546714" lon="-0.391651">
        <ele>-18.828</ele>
        <time>2020-08-10T06:31:46Z</time>
      </trkpt>
      <trkpt lat="39.546661" lon="-0.391896">
        <ele>-17.120</ele>
        <time>2020-08-10T06:31:51Z</time>
      </trkpt>
      <trkpt lat="39.546571" lon="-0.392112">
        <ele>-15.608</ele>
        <time>2020-08-10T06:31:56Z</time>
      </trkpt>
      <trkpt lat="39.546502" lon="-0.392335">
        <ele>-14.762</ele>
        <time>2020-08-10T06:32:01Z</time>
      </trkpt>
      <trkpt lat="39.546419" lon="-0.392581">
        <ele>-14.121</ele>
        <time>2020-08-10T06:32:06Z</time>
      </trkpt>
      <trkpt lat="39.546359" lon="-0.392825">
        <ele>-17.046</ele>
        <time>2020-08-10T06:32:55Z</time>
      </trkpt>
      <trkpt lat="39.546281" lon="-0.393068">
        <ele>-14.565</ele>
        <time>2020-08-10T06:33:01Z</time>
      </trkpt>
      <trkpt lat="39.546177" lon="-0.393282">
        <ele>-14.225</ele>
        <time>2020-08-10T06:33:05Z</time>
      </trkpt>
      <trkpt lat="39.545978" lon="-0.393372">
        <ele>-15.726</ele>
        <time>2020-08-10T06:33:09Z</time>
      </trkpt>
      <trkpt lat="39.545783" lon="-0.393420">
        <ele>-16.527</ele>
        <time>2020-08-10T06:33:13Z</time>
      </trkpt>
      <trkpt lat="39.545621" lon="-0.393525">
        <ele>-14.698</ele>
        <time>2020-08-10T06:33:17Z</time>
      </trkpt>
      <trkpt lat="39.545574" lon="-0.393796">
        <ele>-13.437</ele>
        <time>2020-08-10T06:33:22Z</time>
      </trkpt>
      <trkpt lat="39.545600" lon="-0.394049">
        <ele>-11.249</ele>
        <time>2020-08-10T06:33:26Z</time>
      </trkpt>
      <trkpt lat="39.545581" lon="-0.394300">
        <ele>-11.613</ele>
        <time>2020-08-10T06:33:29Z</time>
      </trkpt>
      <trkpt lat="39.545551" lon="-0.394587">
        <ele>-11.308</ele>
        <time>2020-08-10T06:33:33Z</time>
      </trkpt>
      <trkpt lat="39.545600" lon="-0.394871">
        <ele>-11.028</ele>
        <time>2020-08-10T06:33:37Z</time>
      </trkpt>
      <trkpt lat="39.545639" lon="-0.395109">
        <ele>-8.637</ele>
        <time>2020-08-10T06:33:44Z</time>
      </trkpt>
      <trkpt lat="39.545632" lon="-0.395390">
        <ele>-4.592</ele>
        <time>2020-08-10T06:33:53Z</time>
      </trkpt>
      <trkpt lat="39.545625" lon="-0.395661">
        <ele>-1.091</ele>
        <time>2020-08-10T06:33:58Z</time>
      </trkpt>
      <trkpt lat="39.545616" lon="-0.395904">
        <ele>1.171</ele>
        <time>2020-08-10T06:34:02Z</time>
      </trkpt>
      <trkpt lat="39.545641" lon="-0.396162">
        <ele>1.622</ele>
        <time>2020-08-10T06:34:06Z</time>
      </trkpt>
      <trkpt lat="39.545665" lon="-0.396433">
        <ele>1.613</ele>
        <time>2020-08-10T06:34:10Z</time>
      </trkpt>
      <trkpt lat="39.545667" lon="-0.396708">
        <ele>2.874</ele>
        <time>2020-08-10T06:34:14Z</time>
      </trkpt>
      <trkpt lat="39.545701" lon="-0.396944">
        <ele>2.831</ele>
        <time>2020-08-10T06:34:17Z</time>
      </trkpt>
      <trkpt lat="39.545739" lon="-0.397188">
        <ele>2.361</ele>
        <time>2020-08-10T06:34:20Z</time>
      </trkpt>
      <trkpt lat="39.545757" lon="-0.397474">
        <ele>3.207</ele>
        <time>2020-08-10T06:34:24Z</time>
      </trkpt>
      <trkpt lat="39.545775" lon="-0.397741">
        <ele>1.408</ele>
        <time>2020-08-10T06:34:28Z</time>
      </trkpt>
      <trkpt lat="39.545789" lon="-0.397987">
        <ele>0.738</ele>
        <time>2020-08-10T06:34:32Z</time>
      </trkpt>
      <trkpt lat="39.545860" lon="-0.398249">
        <ele>-0.757</ele>
        <time>2020-08-10T06:34:37Z</time>
      </trkpt>
      <trkpt lat="39.546018" lon="-0.398446">
        <ele>-6.392</ele>
        <time>2020-08-10T06:34:42Z</time>
      </trkpt>
      <trkpt lat="39.546178" lon="-0.398623">
        <ele>-10.481</ele>
        <time>2020-08-10T06:34:48Z</time>
      </trkpt>
      <trkpt lat="39.546307" lon="-0.398817">
        <ele>-11.591</ele>
        <time>2020-08-10T06:34:54Z</time>
      </trkpt>
      <trkpt lat="39.546448" lon="-0.398969">
        <ele>-13.842</ele>
        <time>2020-08-10T06:35:00Z</time>
      </trkpt>
      <trkpt lat="39.546613" lon="-0.399114">
        <ele>-12.443</ele>
        <time>2020-08-10T06:35:07Z</time>
      </trkpt>
      <trkpt lat="39.546768" lon="-0.399262">
        <ele>-13.764</ele>
        <time>2020-08-10T06:35:14Z</time>
      </trkpt>
      <trkpt lat="39.546949" lon="-0.399363">
        <ele>-13.267</ele>
        <time>2020-08-10T06:35:23Z</time>
      </trkpt>
      <trkpt lat="39.547080" lon="-0.399549">
        <ele>-10.781</ele>
        <time>2020-08-10T06:35:29Z</time>
      </trkpt>
      <trkpt lat="39.547235" lon="-0.399705">
        <ele>-9.619</ele>
        <time>2020-08-10T06:35:35Z</time>
      </trkpt>
      <trkpt lat="39.547370" lon="-0.399861">
        <ele>-8.408</ele>
        <time>2020-08-10T06:35:41Z</time>
      </trkpt>
      <trkpt lat="39.547560" lon="-0.399952">
        <ele>-9.181</ele>
        <time>2020-08-10T06:35:47Z</time>
      </trkpt>
      <trkpt lat="39.547728" lon="-0.400113">
        <ele>-7.780</ele>
        <time>2020-08-10T06:35:53Z</time>
      </trkpt>
      <trkpt lat="39.547884" lon="-0.400294">
        <ele>-7.335</ele>
        <time>2020-08-10T06:35:59Z</time>
      </trkpt>
      <trkpt lat="39.548055" lon="-0.400458">
        <ele>-6.814</ele>
        <time>2020-08-10T06:36:05Z</time>
      </trkpt>
      <trkpt lat="39.548231" lon="-0.400568">
        <ele>-10.494</ele>
        <time>2020-08-10T06:36:11Z</time>
      </trkpt>
      <trkpt lat="39.548391" lon="-0.400742">
        <ele>-7.745</ele>
        <time>2020-08-10T06:36:17Z</time>
      </trkpt>
      <trkpt lat="39.548411" lon="-0.400998">
        <ele>-2.876</ele>
        <time>2020-08-10T06:36:24Z</time>
      </trkpt>
      <trkpt lat="39.548309" lon="-0.401204">
        <ele>-1.467</ele>
        <time>2020-08-10T06:36:30Z</time>
      </trkpt>
      <trkpt lat="39.548228" lon="-0.401447">
        <ele>-2.139</ele>
        <time>2020-08-10T06:36:38Z</time>
      </trkpt>
      <trkpt lat="39.548145" lon="-0.401674">
        <ele>-0.601</ele>
        <time>2020-08-10T06:36:46Z</time>
      </trkpt>
      <trkpt lat="39.547964" lon="-0.401758">
        <ele>-0.921</ele>
        <time>2020-08-10T06:36:54Z</time>
      </trkpt>
      <trkpt lat="39.547743" lon="-0.401691">
        <ele>-1.708</ele>
        <time>2020-08-10T06:36:59Z</time>
      </trkpt>
      <trkpt lat="39.547535" lon="-0.401657">
        <ele>-2.048</ele>
        <time>2020-08-10T06:37:03Z</time>
      </trkpt>
      <trkpt lat="39.547330" lon="-0.401798">
        <ele>-1.717</ele>
        <time>2020-08-10T06:37:07Z</time>
      </trkpt>
      <trkpt lat="39.547216" lon="-0.401981">
        <ele>-0.112</ele>
        <time>2020-08-10T06:37:10Z</time>
      </trkpt>
      <trkpt lat="39.547208" lon="-0.402220">
        <ele>-0.271</ele>
        <time>2020-08-10T06:37:14Z</time>
      </trkpt>
      <trkpt lat="39.547322" lon="-0.402419">
        <ele>-0.341</ele>
        <time>2020-08-10T06:37:19Z</time>
      </trkpt>
      <trkpt lat="39.547437" lon="-0.402636">
        <ele>-0.712</ele>
        <time>2020-08-10T06:37:26Z</time>
      </trkpt>
      <trkpt lat="39.547549" lon="-0.402836">
        <ele>0.513</ele>
        <time>2020-08-10T06:37:33Z</time>
      </trkpt>
      <trkpt lat="39.547656" lon="-0.403040">
        <ele>2.024</ele>
        <time>2020-08-10T06:37:40Z</time>
      </trkpt>
      <trkpt lat="39.547776" lon="-0.403253">
        <ele>2.378</ele>
        <time>2020-08-10T06:37:47Z</time>
      </trkpt>
      <trkpt lat="39.547889" lon="-0.403447">
        <ele>3.533</ele>
        <time>2020-08-10T06:37:53Z</time>
      </trkpt>
      <trkpt lat="39.548012" lon="-0.403652">
        <ele>5.526</ele>
        <time>2020-08-10T06:37:59Z</time>
      </trkpt>
      <trkpt lat="39.548115" lon="-0.403844">
        <ele>6.208</ele>
        <time>2020-08-10T06:38:04Z</time>
      </trkpt>
      <trkpt lat="39.548203" lon="-0.404107">
        <ele>5.052</ele>
        <time>2020-08-10T06:38:09Z</time>
      </trkpt>
      <trkpt lat="39.548224" lon="-0.404398">
        <ele>3.011</ele>
        <time>2020-08-10T06:38:13Z</time>
      </trkpt>
      <trkpt lat="39.548270" lon="-0.404647">
        <ele>1.766</ele>
        <time>2020-08-10T06:38:16Z</time>
      </trkpt>
      <trkpt lat="39.548433" lon="-0.404866">
        <ele>-0.265</ele>
        <time>2020-08-10T06:38:19Z</time>
      </trkpt>
      <trkpt lat="39.548693" lon="-0.404906">
        <ele>-1.415</ele>
        <time>2020-08-10T06:38:22Z</time>
      </trkpt>
      <trkpt lat="39.548875" lon="-0.404923">
        <ele>-2.256</ele>
        <time>2020-08-10T06:38:24Z</time>
      </trkpt>
      <trkpt lat="39.549138" lon="-0.404951">
        <ele>-3.587</ele>
        <time>2020-08-10T06:38:27Z</time>
      </trkpt>
      <trkpt lat="39.549375" lon="-0.404980">
        <ele>-4.258</ele>
        <time>2020-08-10T06:38:30Z</time>
      </trkpt>
      <trkpt lat="39.549591" lon="-0.405034">
        <ele>-4.322</ele>
        <time>2020-08-10T06:38:33Z</time>
      </trkpt>
      <trkpt lat="39.549732" lon="-0.405223">
        <ele>-4.162</ele>
        <time>2020-08-10T06:38:36Z</time>
      </trkpt>
      <trkpt lat="39.549788" lon="-0.405533">
        <ele>-4.408</ele>
        <time>2020-08-10T06:38:39Z</time>
      </trkpt>
      <trkpt lat="39.549835" lon="-0.405871">
        <ele>-5.608</ele>
        <time>2020-08-10T06:38:42Z</time>
      </trkpt>
      <trkpt lat="39.549886" lon="-0.406207">
        <ele>-7.057</ele>
        <time>2020-08-10T06:38:45Z</time>
      </trkpt>
      <trkpt lat="39.549940" lon="-0.406504">
        <ele>-7.346</ele>
        <time>2020-08-10T06:38:48Z</time>
      </trkpt>
      <trkpt lat="39.549998" lon="-0.406765">
        <ele>-6.731</ele>
        <time>2020-08-10T06:38:51Z</time>
      </trkpt>
      <trkpt lat="39.550090" lon="-0.407035">
        <ele>-4.720</ele>
        <time>2020-08-10T06:38:55Z</time>
      </trkpt>
      <trkpt lat="39.550198" lon="-0.407245">
        <ele>-4.490</ele>
        <time>2020-08-10T06:39:00Z</time>
      </trkpt>
      <trkpt lat="39.550372" lon="-0.407348">
        <ele>-4.371</ele>
        <time>2020-08-10T06:39:06Z</time>
      </trkpt>
      <trkpt lat="39.550585" lon="-0.407419">
        <ele>-5.492</ele>
        <time>2020-08-10T06:39:12Z</time>
      </trkpt>
      <trkpt lat="39.550801" lon="-0.407496">
        <ele>-5.963</ele>
        <time>2020-08-10T06:39:17Z</time>
      </trkpt>
      <trkpt lat="39.550973" lon="-0.407580">
        <ele>-5.668</ele>
        <time>2020-08-10T06:39:21Z</time>
      </trkpt>
      <trkpt lat="39.551116" lon="-0.407734">
        <ele>-4.342</ele>
        <time>2020-08-10T06:39:25Z</time>
      </trkpt>
      <trkpt lat="39.551223" lon="-0.407955">
        <ele>-2.226</ele>
        <time>2020-08-10T06:39:30Z</time>
      </trkpt>
      <trkpt lat="39.551298" lon="-0.408202">
        <ele>-0.108</ele>
        <time>2020-08-10T06:39:36Z</time>
      </trkpt>
      <trkpt lat="39.551385" lon="-0.408446">
        <ele>2.321</ele>
        <time>2020-08-10T06:39:42Z</time>
      </trkpt>
      <trkpt lat="39.551456" lon="-0.408669">
        <ele>2.260</ele>
        <time>2020-08-10T06:39:47Z</time>
      </trkpt>
      <trkpt lat="39.551519" lon="-0.408918">
        <ele>2.175</ele>
        <time>2020-08-10T06:39:52Z</time>
      </trkpt>
      <trkpt lat="39.551587" lon="-0.409177">
        <ele>0.484</ele>
        <time>2020-08-10T06:39:57Z</time>
      </trkpt>
      <trkpt lat="39.551652" lon="-0.409430">
        <ele>0.024</ele>
        <time>2020-08-10T06:40:02Z</time>
      </trkpt>
      <trkpt lat="39.551692" lon="-0.409671">
        <ele>-1.235</ele>
        <time>2020-08-10T06:40:07Z</time>
      </trkpt>
      <trkpt lat="39.551756" lon="-0.409902">
        <ele>-2.036</ele>
        <time>2020-08-10T06:40:13Z</time>
      </trkpt>
      <trkpt lat="39.551802" lon="-0.410140">
        <ele>-0.537</ele>
        <time>2020-08-10T06:40:19Z</time>
      </trkpt>
      <trkpt lat="39.551857" lon="-0.410393">
        <ele>0.434</ele>
        <time>2020-08-10T06:40:25Z</time>
      </trkpt>
      <trkpt lat="39.551913" lon="-0.410651">
        <ele>3.355</ele>
        <time>2020-08-10T06:40:31Z</time>
      </trkpt>
      <trkpt lat="39.551965" lon="-0.410883">
        <ele>5.610</ele>
        <time>2020-08-10T06:40:36Z</time>
      </trkpt>
      <trkpt lat="39.552029" lon="-0.411133">
        <ele>5.308</ele>
        <time>2020-08-10T06:40:41Z</time>
      </trkpt>
      <trkpt lat="39.552158" lon="-0.411360">
        <ele>4.228</ele>
        <time>2020-08-10T06:40:46Z</time>
      </trkpt>
      <trkpt lat="39.552288" lon="-0.411551">
        <ele>2.997</ele>
        <time>2020-08-10T06:40:50Z</time>
      </trkpt>
      <trkpt lat="39.552336" lon="-0.411784">
        <ele>4.142</ele>
        <time>2020-08-10T06:40:54Z</time>
      </trkpt>
      <trkpt lat="39.552328" lon="-0.412059">
        <ele>8.011</ele>
        <time>2020-08-10T06:40:59Z</time>
      </trkpt>
      <trkpt lat="39.552340" lon="-0.412319">
        <ele>11.661</ele>
        <time>2020-08-10T06:41:04Z</time>
      </trkpt>
      <trkpt lat="39.552365" lon="-0.412569">
        <ele>12.332</ele>
        <time>2020-08-10T06:41:10Z</time>
      </trkpt>
      <trkpt lat="39.552381" lon="-0.412846">
        <ele>12.363</ele>
        <time>2020-08-10T06:41:16Z</time>
      </trkpt>
      <trkpt lat="39.552440" lon="-0.413131">
        <ele>9.944</ele>
        <time>2020-08-10T06:41:21Z</time>
      </trkpt>
      <trkpt lat="39.552520" lon="-0.413361">
        <ele>8.988</ele>
        <time>2020-08-10T06:41:25Z</time>
      </trkpt>
      <trkpt lat="39.552600" lon="-0.413583">
        <ele>8.424</ele>
        <time>2020-08-10T06:41:29Z</time>
      </trkpt>
      <trkpt lat="39.552675" lon="-0.413812">
        <ele>7.726</ele>
        <time>2020-08-10T06:41:33Z</time>
      </trkpt>
      <trkpt lat="39.552745" lon="-0.414034">
        <ele>6.908</ele>
        <time>2020-08-10T06:41:37Z</time>
      </trkpt>
      <trkpt lat="39.552822" lon="-0.414265">
        <ele>6.913</ele>
        <time>2020-08-10T06:41:41Z</time>
      </trkpt>
      <trkpt lat="39.552903" lon="-0.414481">
        <ele>6.972</ele>
        <time>2020-08-10T06:41:45Z</time>
      </trkpt>
      <trkpt lat="39.552994" lon="-0.414735">
        <ele>7.227</ele>
        <time>2020-08-10T06:41:50Z</time>
      </trkpt>
      <trkpt lat="39.553080" lon="-0.414996">
        <ele>6.966</ele>
        <time>2020-08-10T06:41:55Z</time>
      </trkpt>
      <trkpt lat="39.553166" lon="-0.415262">
        <ele>7.396</ele>
        <time>2020-08-10T06:42:00Z</time>
      </trkpt>
      <trkpt lat="39.553242" lon="-0.415488">
        <ele>7.567</ele>
        <time>2020-08-10T06:42:04Z</time>
      </trkpt>
      <trkpt lat="39.553317" lon="-0.415727">
        <ele>7.588</ele>
        <time>2020-08-10T06:42:08Z</time>
      </trkpt>
      <trkpt lat="39.553520" lon="-0.415816">
        <ele>7.279</ele>
        <time>2020-08-10T06:42:13Z</time>
      </trkpt>
      <trkpt lat="39.553712" lon="-0.415775">
        <ele>7.017</ele>
        <time>2020-08-10T06:42:16Z</time>
      </trkpt>
      <trkpt lat="39.553867" lon="-0.415918">
        <ele>6.587</ele>
        <time>2020-08-10T06:42:19Z</time>
      </trkpt>
      <trkpt lat="39.553926" lon="-0.416173">
        <ele>5.715</ele>
        <time>2020-08-10T06:42:22Z</time>
      </trkpt>
      <trkpt lat="39.553984" lon="-0.416405">
        <ele>5.708</ele>
        <time>2020-08-10T06:42:25Z</time>
      </trkpt>
      <trkpt lat="39.554063" lon="-0.416682">
        <ele>5.616</ele>
        <time>2020-08-10T06:42:29Z</time>
      </trkpt>
      <trkpt lat="39.554129" lon="-0.416954">
        <ele>5.985</ele>
        <time>2020-08-10T06:42:33Z</time>
      </trkpt>
      <trkpt lat="39.554197" lon="-0.417218">
        <ele>5.940</ele>
        <time>2020-08-10T06:42:37Z</time>
      </trkpt>
      <trkpt lat="39.554268" lon="-0.417467">
        <ele>5.719</ele>
        <time>2020-08-10T06:42:41Z</time>
      </trkpt>
      <trkpt lat="39.554332" lon="-0.417716">
        <ele>5.459</ele>
        <time>2020-08-10T06:42:45Z</time>
      </trkpt>
      <trkpt lat="39.554399" lon="-0.417949">
        <ele>6.570</ele>
        <time>2020-08-10T06:42:49Z</time>
      </trkpt>
      <trkpt lat="39.554460" lon="-0.418170">
        <ele>7.341</ele>
        <time>2020-08-10T06:42:53Z</time>
      </trkpt>
      <trkpt lat="39.554526" lon="-0.418438">
        <ele>7.432</ele>
        <time>2020-08-10T06:42:58Z</time>
      </trkpt>
      <trkpt lat="39.554591" lon="-0.418711">
        <ele>7.486</ele>
        <time>2020-08-10T06:43:03Z</time>
      </trkpt>
      <trkpt lat="39.554661" lon="-0.418976">
        <ele>8.160</ele>
        <time>2020-08-10T06:43:08Z</time>
      </trkpt>
      <trkpt lat="39.554723" lon="-0.419243">
        <ele>9.226</ele>
        <time>2020-08-10T06:43:13Z</time>
      </trkpt>
      <trkpt lat="39.554785" lon="-0.419485">
        <ele>10.908</ele>
        <time>2020-08-10T06:43:18Z</time>
      </trkpt>
      <trkpt lat="39.554866" lon="-0.419745">
        <ele>12.933</ele>
        <time>2020-08-10T06:43:23Z</time>
      </trkpt>
      <trkpt lat="39.554931" lon="-0.419970">
        <ele>11.722</ele>
        <time>2020-08-10T06:43:27Z</time>
      </trkpt>
      <trkpt lat="39.554995" lon="-0.420195">
        <ele>12.617</ele>
        <time>2020-08-10T06:43:31Z</time>
      </trkpt>
      <trkpt lat="39.555041" lon="-0.420435">
        <ele>15.736</ele>
        <time>2020-08-10T06:43:36Z</time>
      </trkpt>
      <trkpt lat="39.555014" lon="-0.420698">
        <ele>16.576</ele>
        <time>2020-08-10T06:43:41Z</time>
      </trkpt>
      <trkpt lat="39.554945" lon="-0.420946">
        <ele>15.457</ele>
        <time>2020-08-10T06:43:46Z</time>
      </trkpt>
      <trkpt lat="39.554885" lon="-0.421179">
        <ele>15.058</ele>
        <time>2020-08-10T06:43:51Z</time>
      </trkpt>
      <trkpt lat="39.554863" lon="-0.421449">
        <ele>16.099</ele>
        <time>2020-08-10T06:43:57Z</time>
      </trkpt>
      <trkpt lat="39.554883" lon="-0.421691">
        <ele>18.782</ele>
        <time>2020-08-10T06:44:04Z</time>
      </trkpt>
      <trkpt lat="39.554906" lon="-0.421935">
        <ele>21.143</ele>
        <time>2020-08-10T06:44:11Z</time>
      </trkpt>
      <trkpt lat="39.554922" lon="-0.422184">
        <ele>20.717</ele>
        <time>2020-08-10T06:44:18Z</time>
      </trkpt>
      <trkpt lat="39.554942" lon="-0.422447">
        <ele>19.208</ele>
        <time>2020-08-10T06:44:25Z</time>
      </trkpt>
      <trkpt lat="39.554881" lon="-0.422678">
        <ele>18.043</ele>
        <time>2020-08-10T06:44:33Z</time>
      </trkpt>
      <trkpt lat="39.554798" lon="-0.422912">
        <ele>18.582</ele>
        <time>2020-08-10T06:44:40Z</time>
      </trkpt>
      <trkpt lat="39.554749" lon="-0.423163">
        <ele>24.457</ele>
        <time>2020-08-10T06:44:47Z</time>
      </trkpt>
      <trkpt lat="39.554766" lon="-0.423426">
        <ele>24.646</ele>
        <time>2020-08-10T06:44:53Z</time>
      </trkpt>
      <trkpt lat="39.554748" lon="-0.423669">
        <ele>23.186</ele>
        <time>2020-08-10T06:44:57Z</time>
      </trkpt>
      <trkpt lat="39.554661" lon="-0.423938">
        <ele>22.347</ele>
        <time>2020-08-10T06:45:01Z</time>
      </trkpt>
      <trkpt lat="39.554560" lon="-0.424189">
        <ele>21.438</ele>
        <time>2020-08-10T06:45:05Z</time>
      </trkpt>
      <trkpt lat="39.554461" lon="-0.424438">
        <ele>17.849</ele>
        <time>2020-08-10T06:45:09Z</time>
      </trkpt>
      <trkpt lat="39.554357" lon="-0.424647">
        <ele>18.487</ele>
        <time>2020-08-10T06:45:13Z</time>
      </trkpt>
      <trkpt lat="39.554270" lon="-0.424886">
        <ele>20.142</ele>
        <time>2020-08-10T06:45:18Z</time>
      </trkpt>
      <trkpt lat="39.554278" lon="-0.425154">
        <ele>22.226</ele>
        <time>2020-08-10T06:45:24Z</time>
      </trkpt>
      <trkpt lat="39.554286" lon="-0.425409">
        <ele>24.308</ele>
        <time>2020-08-10T06:45:30Z</time>
      </trkpt>
      <trkpt lat="39.554288" lon="-0.425660">
        <ele>26.153</ele>
        <time>2020-08-10T06:45:36Z</time>
      </trkpt>
      <trkpt lat="39.554286" lon="-0.425945">
        <ele>26.262</ele>
        <time>2020-08-10T06:45:42Z</time>
      </trkpt>
      <trkpt lat="39.554222" lon="-0.426170">
        <ele>26.847</ele>
        <time>2020-08-10T06:45:46Z</time>
      </trkpt>
      <trkpt lat="39.554111" lon="-0.426398">
        <ele>26.586</ele>
        <time>2020-08-10T06:45:50Z</time>
      </trkpt>
      <trkpt lat="39.554063" lon="-0.426641">
        <ele>25.546</ele>
        <time>2020-08-10T06:45:54Z</time>
      </trkpt>
      <trkpt lat="39.554066" lon="-0.426925">
        <ele>24.727</ele>
        <time>2020-08-10T06:45:58Z</time>
      </trkpt>
      <trkpt lat="39.554063" lon="-0.427227">
        <ele>24.358</ele>
        <time>2020-08-10T06:46:02Z</time>
      </trkpt>
      <trkpt lat="39.554055" lon="-0.427533">
        <ele>24.119</ele>
        <time>2020-08-10T06:46:06Z</time>
      </trkpt>
      <trkpt lat="39.554035" lon="-0.427829">
        <ele>23.654</ele>
        <time>2020-08-10T06:46:10Z</time>
      </trkpt>
      <trkpt lat="39.554011" lon="-0.428133">
        <ele>23.056</ele>
        <time>2020-08-10T06:46:14Z</time>
      </trkpt>
      <trkpt lat="39.553988" lon="-0.428434">
        <ele>20.911</ele>
        <time>2020-08-10T06:46:18Z</time>
      </trkpt>
      <trkpt lat="39.553972" lon="-0.428718">
        <ele>21.208</ele>
        <time>2020-08-10T06:46:22Z</time>
      </trkpt>
      <trkpt lat="39.553947" lon="-0.428994">
        <ele>19.840</ele>
        <time>2020-08-10T06:46:26Z</time>
      </trkpt>
      <trkpt lat="39.553919" lon="-0.429246">
        <ele>17.759</ele>
        <time>2020-08-10T06:46:30Z</time>
      </trkpt>
      <trkpt lat="39.554084" lon="-0.429398">
        <ele>17.814</ele>
        <time>2020-08-10T06:46:37Z</time>
      </trkpt>
      <trkpt lat="39.554003" lon="-0.429627">
        <ele>17.863</ele>
        <time>2020-08-10T06:46:57Z</time>
      </trkpt>
      <trkpt lat="39.553938" lon="-0.429861">
        <ele>18.383</ele>
        <time>2020-08-10T06:47:02Z</time>
      </trkpt>
      <trkpt lat="39.553977" lon="-0.430147">
        <ele>17.914</ele>
        <time>2020-08-10T06:47:07Z</time>
      </trkpt>
      <trkpt lat="39.554015" lon="-0.430393">
        <ele>18.185</ele>
        <time>2020-08-10T06:47:11Z</time>
      </trkpt>
      <trkpt lat="39.554054" lon="-0.430643">
        <ele>18.286</ele>
        <time>2020-08-10T06:47:15Z</time>
      </trkpt>
      <trkpt lat="39.554082" lon="-0.430897">
        <ele>19.346</ele>
        <time>2020-08-10T06:47:19Z</time>
      </trkpt>
      <trkpt lat="39.554114" lon="-0.431142">
        <ele>19.788</ele>
        <time>2020-08-10T06:47:23Z</time>
      </trkpt>
      <trkpt lat="39.554144" lon="-0.431389">
        <ele>19.716</ele>
        <time>2020-08-10T06:47:27Z</time>
      </trkpt>
      <trkpt lat="39.554178" lon="-0.431622">
        <ele>19.708</ele>
        <time>2020-08-10T06:47:31Z</time>
      </trkpt>
      <trkpt lat="39.554211" lon="-0.431865">
        <ele>19.999</ele>
        <time>2020-08-10T06:47:35Z</time>
      </trkpt>
      <trkpt lat="39.554222" lon="-0.432109">
        <ele>20.298</ele>
        <time>2020-08-10T06:47:39Z</time>
      </trkpt>
      <trkpt lat="39.554196" lon="-0.432349">
        <ele>19.773</ele>
        <time>2020-08-10T06:47:43Z</time>
      </trkpt>
      <trkpt lat="39.554159" lon="-0.432589">
        <ele>19.632</ele>
        <time>2020-08-10T06:47:47Z</time>
      </trkpt>
      <trkpt lat="39.554118" lon="-0.432823">
        <ele>19.362</ele>
        <time>2020-08-10T06:47:51Z</time>
      </trkpt>
      <trkpt lat="39.554065" lon="-0.433091">
        <ele>20.273</ele>
        <time>2020-08-10T06:47:56Z</time>
      </trkpt>
      <trkpt lat="39.553974" lon="-0.433350">
        <ele>20.594</ele>
        <time>2020-08-10T06:48:01Z</time>
      </trkpt>
      <trkpt lat="39.553867" lon="-0.433591">
        <ele>21.765</ele>
        <time>2020-08-10T06:48:06Z</time>
      </trkpt>
      <trkpt lat="39.553749" lon="-0.433822">
        <ele>23.138</ele>
        <time>2020-08-10T06:48:11Z</time>
      </trkpt>
      <trkpt lat="39.553630" lon="-0.434047">
        <ele>23.870</ele>
        <time>2020-08-10T06:48:16Z</time>
      </trkpt>
      <trkpt lat="39.553535" lon="-0.434279">
        <ele>24.517</ele>
        <time>2020-08-10T06:48:21Z</time>
      </trkpt>
      <trkpt lat="39.553442" lon="-0.434495">
        <ele>24.308</ele>
        <time>2020-08-10T06:48:26Z</time>
      </trkpt>
      <trkpt lat="39.553352" lon="-0.434704">
        <ele>24.678</ele>
        <time>2020-08-10T06:48:31Z</time>
      </trkpt>
      <trkpt lat="39.553261" lon="-0.434916">
        <ele>24.087</ele>
        <time>2020-08-10T06:48:36Z</time>
      </trkpt>
      <trkpt lat="39.553155" lon="-0.435111">
        <ele>24.562</ele>
        <time>2020-08-10T06:48:41Z</time>
      </trkpt>
      <trkpt lat="39.553051" lon="-0.435316">
        <ele>25.561</ele>
        <time>2020-08-10T06:48:46Z</time>
      </trkpt>
      <trkpt lat="39.552945" lon="-0.435535">
        <ele>25.771</ele>
        <time>2020-08-10T06:48:51Z</time>
      </trkpt>
      <trkpt lat="39.552850" lon="-0.435743">
        <ele>26.132</ele>
        <time>2020-08-10T06:48:56Z</time>
      </trkpt>
      <trkpt lat="39.552753" lon="-0.435941">
        <ele>26.973</ele>
        <time>2020-08-10T06:49:02Z</time>
      </trkpt>
      <trkpt lat="39.552650" lon="-0.436168">
        <ele>26.744</ele>
        <time>2020-08-10T06:49:08Z</time>
      </trkpt>
      <trkpt lat="39.552572" lon="-0.436400">
        <ele>27.658</ele>
        <time>2020-08-10T06:49:13Z</time>
      </trkpt>
      <trkpt lat="39.552504" lon="-0.436634">
        <ele>28.052</ele>
        <time>2020-08-10T06:49:18Z</time>
      </trkpt>
      <trkpt lat="39.552443" lon="-0.436863">
        <ele>28.117</ele>
        <time>2020-08-10T06:49:23Z</time>
      </trkpt>
      <trkpt lat="39.552388" lon="-0.437116">
        <ele>29.008</ele>
        <time>2020-08-10T06:49:29Z</time>
      </trkpt>
      <trkpt lat="39.552306" lon="-0.437372">
        <ele>30.490</ele>
        <time>2020-08-10T06:49:35Z</time>
      </trkpt>
      <trkpt lat="39.552218" lon="-0.437580">
        <ele>30.729</ele>
        <time>2020-08-10T06:49:40Z</time>
      </trkpt>
      <trkpt lat="39.552129" lon="-0.437791">
        <ele>31.274</ele>
        <time>2020-08-10T06:49:45Z</time>
      </trkpt>
      <trkpt lat="39.552038" lon="-0.437996">
        <ele>31.843</ele>
        <time>2020-08-10T06:49:50Z</time>
      </trkpt>
      <trkpt lat="39.551937" lon="-0.438201">
        <ele>32.393</ele>
        <time>2020-08-10T06:49:55Z</time>
      </trkpt>
      <trkpt lat="39.551842" lon="-0.438404">
        <ele>33.374</ele>
        <time>2020-08-10T06:50:00Z</time>
      </trkpt>
      <trkpt lat="39.551766" lon="-0.438622">
        <ele>33.835</ele>
        <time>2020-08-10T06:50:05Z</time>
      </trkpt>
      <trkpt lat="39.551666" lon="-0.438870">
        <ele>33.746</ele>
        <time>2020-08-10T06:50:11Z</time>
      </trkpt>
      <trkpt lat="39.551480" lon="-0.439002">
        <ele>33.987</ele>
        <time>2020-08-10T06:50:17Z</time>
      </trkpt>
      <trkpt lat="39.551278" lon="-0.438919">
        <ele>33.842</ele>
        <time>2020-08-10T06:50:22Z</time>
      </trkpt>
      <trkpt lat="39.551118" lon="-0.438793">
        <ele>34.026</ele>
        <time>2020-08-10T06:50:26Z</time>
      </trkpt>
      <trkpt lat="39.550933" lon="-0.438745">
        <ele>34.008</ele>
        <time>2020-08-10T06:50:31Z</time>
      </trkpt>
      <trkpt lat="39.550862" lon="-0.438983">
        <ele>34.863</ele>
        <time>2020-08-10T06:50:36Z</time>
      </trkpt>
      <trkpt lat="39.550672" lon="-0.439015">
        <ele>36.172</ele>
        <time>2020-08-10T06:50:42Z</time>
      </trkpt>
      <trkpt lat="39.550472" lon="-0.438975">
        <ele>36.857</ele>
        <time>2020-08-10T06:50:48Z</time>
      </trkpt>
      <trkpt lat="39.550268" lon="-0.438917">
        <ele>37.496</ele>
        <time>2020-08-10T06:50:54Z</time>
      </trkpt>
      <trkpt lat="39.550071" lon="-0.438869">
        <ele>36.426</ele>
        <time>2020-08-10T06:51:00Z</time>
      </trkpt>
      <trkpt lat="39.549867" lon="-0.438794">
        <ele>38.197</ele>
        <time>2020-08-10T06:51:06Z</time>
      </trkpt>
      <trkpt lat="39.549693" lon="-0.438736">
        <ele>38.678</ele>
        <time>2020-08-10T06:51:11Z</time>
      </trkpt>
      <trkpt lat="39.549494" lon="-0.438676">
        <ele>37.419</ele>
        <time>2020-08-10T06:51:17Z</time>
      </trkpt>
      <trkpt lat="39.549296" lon="-0.438608">
        <ele>38.367</ele>
        <time>2020-08-10T06:51:23Z</time>
      </trkpt>
      <trkpt lat="39.549117" lon="-0.438553">
        <ele>39.081</ele>
        <time>2020-08-10T06:51:28Z</time>
      </trkpt>
      <trkpt lat="39.548939" lon="-0.438476">
        <ele>39.819</ele>
        <time>2020-08-10T06:51:33Z</time>
      </trkpt>
      <trkpt lat="39.548771" lon="-0.438379">
        <ele>40.508</ele>
        <time>2020-08-10T06:51:38Z</time>
      </trkpt>
      <trkpt lat="39.548584" lon="-0.438280">
        <ele>40.851</ele>
        <time>2020-08-10T06:51:43Z</time>
      </trkpt>
      <trkpt lat="39.548409" lon="-0.438198">
        <ele>40.060</ele>
        <time>2020-08-10T06:51:48Z</time>
      </trkpt>
      <trkpt lat="39.548242" lon="-0.438286">
        <ele>41.285</ele>
        <time>2020-08-10T06:51:53Z</time>
      </trkpt>
      <trkpt lat="39.548108" lon="-0.438459">
        <ele>44.284</ele>
        <time>2020-08-10T06:51:59Z</time>
      </trkpt>
      <trkpt lat="39.547939" lon="-0.438588">
        <ele>44.784</ele>
        <time>2020-08-10T06:52:06Z</time>
      </trkpt>
      <trkpt lat="39.547756" lon="-0.438542">
        <ele>45.785</ele>
        <time>2020-08-10T06:52:12Z</time>
      </trkpt>
      <trkpt lat="39.547565" lon="-0.438470">
        <ele>45.896</ele>
        <time>2020-08-10T06:52:17Z</time>
      </trkpt>
      <trkpt lat="39.547377" lon="-0.438505">
        <ele>45.697</ele>
        <time>2020-08-10T06:52:22Z</time>
      </trkpt>
      <trkpt lat="39.547188" lon="-0.438608">
        <ele>45.794</ele>
        <time>2020-08-10T06:52:27Z</time>
      </trkpt>
      <trkpt lat="39.546989" lon="-0.438714">
        <ele>46.057</ele>
        <time>2020-08-10T06:52:33Z</time>
      </trkpt>
      <trkpt lat="39.546831" lon="-0.438826">
        <ele>44.522</ele>
        <time>2020-08-10T06:52:37Z</time>
      </trkpt>
      <trkpt lat="39.546638" lon="-0.438938">
        <ele>42.608</ele>
        <time>2020-08-10T06:52:42Z</time>
      </trkpt>
      <trkpt lat="39.546440" lon="-0.439041">
        <ele>44.364</ele>
        <time>2020-08-10T06:52:47Z</time>
      </trkpt>
      <trkpt lat="39.546249" lon="-0.439104">
        <ele>46.093</ele>
        <time>2020-08-10T06:52:52Z</time>
      </trkpt>
      <trkpt lat="39.546062" lon="-0.439124">
        <ele>46.748</ele>
        <time>2020-08-10T06:52:57Z</time>
      </trkpt>
      <trkpt lat="39.545869" lon="-0.439108">
        <ele>47.197</ele>
        <time>2020-08-10T06:53:02Z</time>
      </trkpt>
      <trkpt lat="39.545681" lon="-0.439078">
        <ele>47.577</ele>
        <time>2020-08-10T06:53:08Z</time>
      </trkpt>
      <trkpt lat="39.545502" lon="-0.439045">
        <ele>46.318</ele>
        <time>2020-08-10T06:53:13Z</time>
      </trkpt>
      <trkpt lat="39.545294" lon="-0.438980">
        <ele>46.949</ele>
        <time>2020-08-10T06:53:19Z</time>
      </trkpt>
      <trkpt lat="39.545112" lon="-0.439025">
        <ele>51.490</ele>
        <time>2020-08-10T06:53:27Z</time>
      </trkpt>
      <trkpt lat="39.545036" lon="-0.439238">
        <ele>55.619</ele>
        <time>2020-08-10T06:53:36Z</time>
      </trkpt>
      <trkpt lat="39.544977" lon="-0.439481">
        <ele>56.209</ele>
        <time>2020-08-10T06:53:47Z</time>
      </trkpt>
      <trkpt lat="39.544909" lon="-0.439711">
        <ele>58.319</ele>
        <time>2020-08-10T06:53:58Z</time>
      </trkpt>
      <trkpt lat="39.544829" lon="-0.439932">
        <ele>58.808</ele>
        <time>2020-08-10T06:54:08Z</time>
      </trkpt>
      <trkpt lat="39.544753" lon="-0.440160">
        <ele>61.496</ele>
        <time>2020-08-10T06:54:17Z</time>
      </trkpt>
      <trkpt lat="39.544657" lon="-0.440421">
        <ele>56.635</ele>
        <time>2020-08-10T06:54:24Z</time>
      </trkpt>
      <trkpt lat="39.544566" lon="-0.440647">
        <ele>53.490</ele>
        <time>2020-08-10T06:54:27Z</time>
      </trkpt>
      <trkpt lat="39.544477" lon="-0.440917">
        <ele>55.199</ele>
        <time>2020-08-10T06:54:30Z</time>
      </trkpt>
      <trkpt lat="39.544403" lon="-0.441152">
        <ele>55.519</ele>
        <time>2020-08-10T06:54:33Z</time>
      </trkpt>
      <trkpt lat="39.544395" lon="-0.441442">
        <ele>54.750</ele>
        <time>2020-08-10T06:54:37Z</time>
      </trkpt>
      <trkpt lat="39.544416" lon="-0.441685">
        <ele>54.271</ele>
        <time>2020-08-10T06:54:40Z</time>
      </trkpt>
      <trkpt lat="39.544438" lon="-0.441929">
        <ele>54.312</ele>
        <time>2020-08-10T06:54:43Z</time>
      </trkpt>
      <trkpt lat="39.544469" lon="-0.442179">
        <ele>54.591</ele>
        <time>2020-08-10T06:54:46Z</time>
      </trkpt>
      <trkpt lat="39.544477" lon="-0.442413">
        <ele>55.381</ele>
        <time>2020-08-10T06:54:49Z</time>
      </trkpt>
      <trkpt lat="39.544444" lon="-0.442684">
        <ele>55.819</ele>
        <time>2020-08-10T06:54:53Z</time>
      </trkpt>
      <trkpt lat="39.544418" lon="-0.442945">
        <ele>55.008</ele>
        <time>2020-08-10T06:54:57Z</time>
      </trkpt>
      <trkpt lat="39.544392" lon="-0.443186">
        <ele>54.314</ele>
        <time>2020-08-10T06:55:01Z</time>
      </trkpt>
      <trkpt lat="39.544363" lon="-0.443455">
        <ele>55.683</ele>
        <time>2020-08-10T06:55:06Z</time>
      </trkpt>
      <trkpt lat="39.544313" lon="-0.443685">
        <ele>56.298</ele>
        <time>2020-08-10T06:55:11Z</time>
      </trkpt>
      <trkpt lat="39.544270" lon="-0.443919">
        <ele>54.767</ele>
        <time>2020-08-10T06:55:16Z</time>
      </trkpt>
      <trkpt lat="39.544219" lon="-0.444171">
        <ele>55.197</ele>
        <time>2020-08-10T06:55:22Z</time>
      </trkpt>
      <trkpt lat="39.544141" lon="-0.444404">
        <ele>56.598</ele>
        <time>2020-08-10T06:55:28Z</time>
      </trkpt>
      <trkpt lat="39.543957" lon="-0.444444">
        <ele>58.719</ele>
        <time>2020-08-10T06:55:35Z</time>
      </trkpt>
      <trkpt lat="39.543763" lon="-0.444464">
        <ele>63.920</ele>
        <time>2020-08-10T06:55:44Z</time>
      </trkpt>
      <trkpt lat="39.543731" lon="-0.444715">
        <ele>63.511</ele>
        <time>2020-08-10T06:55:52Z</time>
      </trkpt>
      <trkpt lat="39.543727" lon="-0.444998">
        <ele>61.521</ele>
        <time>2020-08-10T06:55:58Z</time>
      </trkpt>
      <trkpt lat="39.543722" lon="-0.445272">
        <ele>63.003</ele>
        <time>2020-08-10T06:56:03Z</time>
      </trkpt>
      <trkpt lat="39.543571" lon="-0.445416">
        <ele>64.908</ele>
        <time>2020-08-10T06:56:08Z</time>
      </trkpt>
      <trkpt lat="39.543376" lon="-0.445413">
        <ele>65.346</ele>
        <time>2020-08-10T06:56:14Z</time>
      </trkpt>
      <trkpt lat="39.543184" lon="-0.445425">
        <ele>63.975</ele>
        <time>2020-08-10T06:56:21Z</time>
      </trkpt>
      <trkpt lat="39.542987" lon="-0.445445">
        <ele>65.490</ele>
        <time>2020-08-10T06:56:29Z</time>
      </trkpt>
      <trkpt lat="39.542795" lon="-0.445470">
        <ele>65.389</ele>
        <time>2020-08-10T06:56:36Z</time>
      </trkpt>
      <trkpt lat="39.542609" lon="-0.445473">
        <ele>64.969</ele>
        <time>2020-08-10T06:56:43Z</time>
      </trkpt>
      <trkpt lat="39.542411" lon="-0.445493">
        <ele>67.430</ele>
        <time>2020-08-10T06:56:51Z</time>
      </trkpt>
      <trkpt lat="39.542211" lon="-0.445536">
        <ele>68.331</ele>
        <time>2020-08-10T06:56:59Z</time>
      </trkpt>
      <trkpt lat="39.542016" lon="-0.445568">
        <ele>69.582</ele>
        <time>2020-08-10T06:57:07Z</time>
      </trkpt>
      <trkpt lat="39.541891" lon="-0.445777">
        <ele>70.556</ele>
        <time>2020-08-10T06:57:15Z</time>
      </trkpt>
      <trkpt lat="39.541708" lon="-0.445804">
        <ele>68.659</ele>
        <time>2020-08-10T06:57:20Z</time>
      </trkpt>
      <trkpt lat="39.541459" lon="-0.445815">
        <ele>66.314</ele>
        <time>2020-08-10T06:57:24Z</time>
      </trkpt>
      <trkpt lat="39.541230" lon="-0.445832">
        <ele>64.408</ele>
        <time>2020-08-10T06:57:27Z</time>
      </trkpt>
      <trkpt lat="39.541006" lon="-0.445901">
        <ele>62.750</ele>
        <time>2020-08-10T06:57:30Z</time>
      </trkpt>
      <trkpt lat="39.540859" lon="-0.446163">
        <ele>61.179</ele>
        <time>2020-08-10T06:57:33Z</time>
      </trkpt>
      <trkpt lat="39.540777" lon="-0.446384">
        <ele>60.364</ele>
        <time>2020-08-10T06:57:35Z</time>
      </trkpt>
      <trkpt lat="39.540683" lon="-0.446609">
        <ele>60.293</ele>
        <time>2020-08-10T06:57:37Z</time>
      </trkpt>
      <trkpt lat="39.540586" lon="-0.446832">
        <ele>59.653</ele>
        <time>2020-08-10T06:57:39Z</time>
      </trkpt>
      <trkpt lat="39.540490" lon="-0.447053">
        <ele>58.994</ele>
        <time>2020-08-10T06:57:41Z</time>
      </trkpt>
      <trkpt lat="39.540380" lon="-0.447276">
        <ele>58.325</ele>
        <time>2020-08-10T06:57:43Z</time>
      </trkpt>
      <trkpt lat="39.540269" lon="-0.447506">
        <ele>56.716</ele>
        <time>2020-08-10T06:57:45Z</time>
      </trkpt>
      <trkpt lat="39.540154" lon="-0.447734">
        <ele>55.783</ele>
        <time>2020-08-10T06:57:47Z</time>
      </trkpt>
      <trkpt lat="39.540037" lon="-0.447963">
        <ele>55.125</ele>
        <time>2020-08-10T06:57:49Z</time>
      </trkpt>
      <trkpt lat="39.539922" lon="-0.448200">
        <ele>53.717</ele>
        <time>2020-08-10T06:57:51Z</time>
      </trkpt>
      <trkpt lat="39.539805" lon="-0.448429">
        <ele>52.608</ele>
        <time>2020-08-10T06:57:53Z</time>
      </trkpt>
      <trkpt lat="39.539689" lon="-0.448657">
        <ele>51.543</ele>
        <time>2020-08-10T06:57:55Z</time>
      </trkpt>
      <trkpt lat="39.539588" lon="-0.448868">
        <ele>50.312</ele>
        <time>2020-08-10T06:57:57Z</time>
      </trkpt>
      <trkpt lat="39.539465" lon="-0.449113">
        <ele>49.087</ele>
        <time>2020-08-10T06:58:00Z</time>
      </trkpt>
      <trkpt lat="39.539366" lon="-0.449313">
        <ele>47.896</ele>
        <time>2020-08-10T06:58:04Z</time>
      </trkpt>
      <trkpt lat="39.539229" lon="-0.449475">
        <ele>47.626</ele>
        <time>2020-08-10T06:58:10Z</time>
      </trkpt>
      <trkpt lat="39.539087" lon="-0.449637">
        <ele>47.527</ele>
        <time>2020-08-10T06:58:14Z</time>
      </trkpt>
      <trkpt lat="39.538913" lon="-0.449829">
        <ele>46.888</ele>
        <time>2020-08-10T06:58:18Z</time>
      </trkpt>
      <trkpt lat="39.538758" lon="-0.450001">
        <ele>46.529</ele>
        <time>2020-08-10T06:58:21Z</time>
      </trkpt>
      <trkpt lat="39.538592" lon="-0.450134">
        <ele>45.226</ele>
        <time>2020-08-10T06:58:24Z</time>
      </trkpt>
      <trkpt lat="39.538403" lon="-0.450165">
        <ele>44.047</ele>
        <time>2020-08-10T06:58:27Z</time>
      </trkpt>
      <trkpt lat="39.538212" lon="-0.450102">
        <ele>43.111</ele>
        <time>2020-08-10T06:58:30Z</time>
      </trkpt>
      <trkpt lat="39.538023" lon="-0.450027">
        <ele>44.108</ele>
        <time>2020-08-10T06:58:33Z</time>
      </trkpt>
      <trkpt lat="39.537827" lon="-0.449920">
        <ele>45.727</ele>
        <time>2020-08-10T06:58:37Z</time>
      </trkpt>
      <trkpt lat="39.537681" lon="-0.449782">
        <ele>48.316</ele>
        <time>2020-08-10T06:58:41Z</time>
      </trkpt>
      <trkpt lat="39.537519" lon="-0.449611">
        <ele>49.331</ele>
        <time>2020-08-10T06:58:46Z</time>
      </trkpt>
      <trkpt lat="39.537359" lon="-0.449456">
        <ele>49.610</ele>
        <time>2020-08-10T06:58:51Z</time>
      </trkpt>
      <trkpt lat="39.537198" lon="-0.449321">
        <ele>47.960</ele>
        <time>2020-08-10T06:58:56Z</time>
      </trkpt>
      <trkpt lat="39.537048" lon="-0.449172">
        <ele>47.781</ele>
        <time>2020-08-10T06:59:01Z</time>
      </trkpt>
      <trkpt lat="39.536901" lon="-0.448970">
        <ele>49.772</ele>
        <time>2020-08-10T06:59:07Z</time>
      </trkpt>
      <trkpt lat="39.536796" lon="-0.448774">
        <ele>50.783</ele>
        <time>2020-08-10T06:59:12Z</time>
      </trkpt>
      <trkpt lat="39.536713" lon="-0.448557">
        <ele>51.463</ele>
        <time>2020-08-10T06:59:17Z</time>
      </trkpt>
      <trkpt lat="39.536610" lon="-0.448364">
        <ele>52.044</ele>
        <time>2020-08-10T06:59:21Z</time>
      </trkpt>
      <trkpt lat="39.536475" lon="-0.448167">
        <ele>52.118</ele>
        <time>2020-08-10T06:59:25Z</time>
      </trkpt>
      <trkpt lat="39.536321" lon="-0.448009">
        <ele>51.808</ele>
        <time>2020-08-10T06:59:29Z</time>
      </trkpt>
      <trkpt lat="39.536097" lon="-0.448000">
        <ele>50.321</ele>
        <time>2020-08-10T06:59:34Z</time>
      </trkpt>
      <trkpt lat="39.535916" lon="-0.448068">
        <ele>49.640</ele>
        <time>2020-08-10T06:59:38Z</time>
      </trkpt>
      <trkpt lat="39.535787" lon="-0.448253">
        <ele>51.645</ele>
        <time>2020-08-10T06:59:42Z</time>
      </trkpt>
      <trkpt lat="39.535684" lon="-0.448450">
        <ele>53.064</ele>
        <time>2020-08-10T06:59:46Z</time>
      </trkpt>
      <trkpt lat="39.535588" lon="-0.448661">
        <ele>54.084</ele>
        <time>2020-08-10T06:59:50Z</time>
      </trkpt>
      <trkpt lat="39.535494" lon="-0.448916">
        <ele>53.985</ele>
        <time>2020-08-10T06:59:55Z</time>
      </trkpt>
      <trkpt lat="39.535386" lon="-0.449147">
        <ele>55.086</ele>
        <time>2020-08-10T07:00:00Z</time>
      </trkpt>
      <trkpt lat="39.535287" lon="-0.449371">
        <ele>54.887</ele>
        <time>2020-08-10T07:00:05Z</time>
      </trkpt>
      <trkpt lat="39.535148" lon="-0.449577">
        <ele>53.463</ele>
        <time>2020-08-10T07:00:10Z</time>
      </trkpt>
      <trkpt lat="39.534951" lon="-0.449678">
        <ele>50.444</ele>
        <time>2020-08-10T07:00:14Z</time>
      </trkpt>
      <trkpt lat="39.534741" lon="-0.449631">
        <ele>48.918</ele>
        <time>2020-08-10T07:00:17Z</time>
      </trkpt>
      <trkpt lat="39.534516" lon="-0.449652">
        <ele>47.508</ele>
        <time>2020-08-10T07:00:20Z</time>
      </trkpt>
      <trkpt lat="39.534299" lon="-0.449732">
        <ele>47.281</ele>
        <time>2020-08-10T07:00:23Z</time>
      </trkpt>
      <trkpt lat="39.534082" lon="-0.449804">
        <ele>46.480</ele>
        <time>2020-08-10T07:00:26Z</time>
      </trkpt>
      <trkpt lat="39.533971" lon="-0.450038">
        <ele>45.975</ele>
        <time>2020-08-10T07:00:29Z</time>
      </trkpt>
      <trkpt lat="39.533951" lon="-0.450328">
        <ele>44.394</ele>
        <time>2020-08-10T07:00:32Z</time>
      </trkpt>
      <trkpt lat="39.533978" lon="-0.450623">
        <ele>42.244</ele>
        <time>2020-08-10T07:00:35Z</time>
      </trkpt>
      <trkpt lat="39.534041" lon="-0.450918">
        <ele>42.125</ele>
        <time>2020-08-10T07:00:38Z</time>
      </trkpt>
      <trkpt lat="39.534119" lon="-0.451215">
        <ele>41.246</ele>
        <time>2020-08-10T07:00:41Z</time>
      </trkpt>
      <trkpt lat="39.534198" lon="-0.451514">
        <ele>41.017</ele>
        <time>2020-08-10T07:00:44Z</time>
      </trkpt>
      <trkpt lat="39.534275" lon="-0.451812">
        <ele>40.516</ele>
        <time>2020-08-10T07:00:47Z</time>
      </trkpt>
      <trkpt lat="39.534326" lon="-0.452107">
        <ele>40.476</ele>
        <time>2020-08-10T07:00:50Z</time>
      </trkpt>
      <trkpt lat="39.534350" lon="-0.452387">
        <ele>40.013</ele>
        <time>2020-08-10T07:00:53Z</time>
      </trkpt>
      <trkpt lat="39.534353" lon="-0.452676">
        <ele>38.708</ele>
        <time>2020-08-10T07:00:56Z</time>
      </trkpt>
      <trkpt lat="39.534359" lon="-0.452953">
        <ele>38.726</ele>
        <time>2020-08-10T07:00:59Z</time>
      </trkpt>
      <trkpt lat="39.534370" lon="-0.453197">
        <ele>40.215</ele>
        <time>2020-08-10T07:01:02Z</time>
      </trkpt>
      <trkpt lat="39.534388" lon="-0.453438">
        <ele>41.790</ele>
        <time>2020-08-10T07:01:06Z</time>
      </trkpt>
      <trkpt lat="39.534402" lon="-0.453672">
        <ele>44.029</ele>
        <time>2020-08-10T07:01:12Z</time>
      </trkpt>
      <trkpt lat="39.534432" lon="-0.453903">
        <ele>44.119</ele>
        <time>2020-08-10T07:01:19Z</time>
      </trkpt>
      <trkpt lat="39.534455" lon="-0.454138">
        <ele>45.330</ele>
        <time>2020-08-10T07:01:26Z</time>
      </trkpt>
      <trkpt lat="39.534489" lon="-0.454375">
        <ele>47.091</ele>
        <time>2020-08-10T07:01:33Z</time>
      </trkpt>
      <trkpt lat="39.534526" lon="-0.454607">
        <ele>48.362</ele>
        <time>2020-08-10T07:01:40Z</time>
      </trkpt>
      <trkpt lat="39.534591" lon="-0.454837">
        <ele>48.024</ele>
        <time>2020-08-10T07:01:47Z</time>
      </trkpt>
      <trkpt lat="39.534667" lon="-0.455071">
        <ele>52.404</ele>
        <time>2020-08-10T07:01:55Z</time>
      </trkpt>
      <trkpt lat="39.534738" lon="-0.455315">
        <ele>50.914</ele>
        <time>2020-08-10T07:02:02Z</time>
      </trkpt>
      <trkpt lat="39.534809" lon="-0.455555">
        <ele>53.508</ele>
        <time>2020-08-10T07:02:09Z</time>
      </trkpt>
      <trkpt lat="39.534869" lon="-0.455776">
        <ele>57.117</ele>
        <time>2020-08-10T07:02:15Z</time>
      </trkpt>
      <trkpt lat="39.534925" lon="-0.456017">
        <ele>56.156</ele>
        <time>2020-08-10T07:02:21Z</time>
      </trkpt>
      <trkpt lat="39.534981" lon="-0.456240">
        <ele>58.041</ele>
        <time>2020-08-10T07:02:27Z</time>
      </trkpt>
      <trkpt lat="39.535037" lon="-0.456471">
        <ele>59.220</ele>
        <time>2020-08-10T07:02:33Z</time>
      </trkpt>
      <trkpt lat="39.535097" lon="-0.456716">
        <ele>59.180</ele>
        <time>2020-08-10T07:02:39Z</time>
      </trkpt>
      <trkpt lat="39.535133" lon="-0.456952">
        <ele>59.491</ele>
        <time>2020-08-10T07:02:44Z</time>
      </trkpt>
      <trkpt lat="39.535016" lon="-0.457175">
        <ele>59.742</ele>
        <time>2020-08-10T07:02:49Z</time>
      </trkpt>
      <trkpt lat="39.534821" lon="-0.457310">
        <ele>58.913</ele>
        <time>2020-08-10T07:02:54Z</time>
      </trkpt>
      <trkpt lat="39.534651" lon="-0.457494">
        <ele>59.549</ele>
        <time>2020-08-10T07:02:58Z</time>
      </trkpt>
      <trkpt lat="39.534516" lon="-0.457669">
        <ele>59.202</ele>
        <time>2020-08-10T07:03:01Z</time>
      </trkpt>
      <trkpt lat="39.534388" lon="-0.457866">
        <ele>58.222</ele>
        <time>2020-08-10T07:03:04Z</time>
      </trkpt>
      <trkpt lat="39.534243" lon="-0.458072">
        <ele>57.508</ele>
        <time>2020-08-10T07:03:07Z</time>
      </trkpt>
      <trkpt lat="39.534087" lon="-0.458281">
        <ele>56.719</ele>
        <time>2020-08-10T07:03:10Z</time>
      </trkpt>
      <trkpt lat="39.533911" lon="-0.458481">
        <ele>54.898</ele>
        <time>2020-08-10T07:03:13Z</time>
      </trkpt>
      <trkpt lat="39.533722" lon="-0.458665">
        <ele>52.913</ele>
        <time>2020-08-10T07:03:16Z</time>
      </trkpt>
      <trkpt lat="39.533523" lon="-0.458855">
        <ele>50.732</ele>
        <time>2020-08-10T07:03:19Z</time>
      </trkpt>
      <trkpt lat="39.533318" lon="-0.459044">
        <ele>49.142</ele>
        <time>2020-08-10T07:03:22Z</time>
      </trkpt>
      <trkpt lat="39.533107" lon="-0.459232">
        <ele>49.723</ele>
        <time>2020-08-10T07:03:25Z</time>
      </trkpt>
      <trkpt lat="39.532897" lon="-0.459425">
        <ele>48.934</ele>
        <time>2020-08-10T07:03:28Z</time>
      </trkpt>
      <trkpt lat="39.532680" lon="-0.459618">
        <ele>47.695</ele>
        <time>2020-08-10T07:03:31Z</time>
      </trkpt>
      <trkpt lat="39.532469" lon="-0.459805">
        <ele>47.924</ele>
        <time>2020-08-10T07:03:34Z</time>
      </trkpt>
      <trkpt lat="39.532251" lon="-0.459995">
        <ele>47.004</ele>
        <time>2020-08-10T07:03:37Z</time>
      </trkpt>
      <trkpt lat="39.532033" lon="-0.460186">
        <ele>46.514</ele>
        <time>2020-08-10T07:03:40Z</time>
      </trkpt>
      <trkpt lat="39.531884" lon="-0.460319">
        <ele>46.108</ele>
        <time>2020-08-10T07:03:42Z</time>
      </trkpt>
      <trkpt lat="39.531671" lon="-0.460517">
        <ele>44.397</ele>
        <time>2020-08-10T07:03:45Z</time>
      </trkpt>
      <trkpt lat="39.531455" lon="-0.460715">
        <ele>42.176</ele>
        <time>2020-08-10T07:03:48Z</time>
      </trkpt>
      <trkpt lat="39.531307" lon="-0.460850">
        <ele>41.011</ele>
        <time>2020-08-10T07:03:50Z</time>
      </trkpt>
      <trkpt lat="39.531084" lon="-0.461039">
        <ele>40.190</ele>
        <time>2020-08-10T07:03:53Z</time>
      </trkpt>
      <trkpt lat="39.530865" lon="-0.461236">
        <ele>39.510</ele>
        <time>2020-08-10T07:03:56Z</time>
      </trkpt>
      <trkpt lat="39.530655" lon="-0.461418">
        <ele>39.121</ele>
        <time>2020-08-10T07:03:59Z</time>
      </trkpt>
      <trkpt lat="39.530446" lon="-0.461597">
        <ele>39.322</ele>
        <time>2020-08-10T07:04:02Z</time>
      </trkpt>
      <trkpt lat="39.530243" lon="-0.461771">
        <ele>39.453</ele>
        <time>2020-08-10T07:04:05Z</time>
      </trkpt>
      <trkpt lat="39.530049" lon="-0.461943">
        <ele>39.163</ele>
        <time>2020-08-10T07:04:08Z</time>
      </trkpt>
      <trkpt lat="39.529865" lon="-0.462111">
        <ele>38.044</ele>
        <time>2020-08-10T07:04:11Z</time>
      </trkpt>
      <trkpt lat="39.529676" lon="-0.462279">
        <ele>38.118</ele>
        <time>2020-08-10T07:04:14Z</time>
      </trkpt>
      <trkpt lat="39.529487" lon="-0.462444">
        <ele>37.008</ele>
        <time>2020-08-10T07:04:17Z</time>
      </trkpt>
      <trkpt lat="39.529309" lon="-0.462617">
        <ele>36.411</ele>
        <time>2020-08-10T07:04:20Z</time>
      </trkpt>
      <trkpt lat="39.529137" lon="-0.462789">
        <ele>36.820</ele>
        <time>2020-08-10T07:04:23Z</time>
      </trkpt>
      <trkpt lat="39.528966" lon="-0.462952">
        <ele>36.895</ele>
        <time>2020-08-10T07:04:26Z</time>
      </trkpt>
      <trkpt lat="39.528801" lon="-0.463128">
        <ele>38.094</ele>
        <time>2020-08-10T07:04:29Z</time>
      </trkpt>
      <trkpt lat="39.528637" lon="-0.463316">
        <ele>38.184</ele>
        <time>2020-08-10T07:04:32Z</time>
      </trkpt>
      <trkpt lat="39.528474" lon="-0.463488">
        <ele>38.245</ele>
        <time>2020-08-10T07:04:35Z</time>
      </trkpt>
      <trkpt lat="39.528320" lon="-0.463654">
        <ele>38.076</ele>
        <time>2020-08-10T07:04:38Z</time>
      </trkpt>
      <trkpt lat="39.528169" lon="-0.463810">
        <ele>37.437</ele>
        <time>2020-08-10T07:04:41Z</time>
      </trkpt>
      <trkpt lat="39.528015" lon="-0.463965">
        <ele>36.941</ele>
        <time>2020-08-10T07:04:44Z</time>
      </trkpt>
      <trkpt lat="39.527863" lon="-0.464103">
        <ele>36.081</ele>
        <time>2020-08-10T07:04:47Z</time>
      </trkpt>
      <trkpt lat="39.527710" lon="-0.464250">
        <ele>36.209</ele>
        <time>2020-08-10T07:04:50Z</time>
      </trkpt>
      <trkpt lat="39.527589" lon="-0.464445">
        <ele>36.808</ele>
        <time>2020-08-10T07:04:53Z</time>
      </trkpt>
      <trkpt lat="39.527486" lon="-0.464658">
        <ele>36.699</ele>
        <time>2020-08-10T07:04:56Z</time>
      </trkpt>
      <trkpt lat="39.527352" lon="-0.464828">
        <ele>35.418</ele>
        <time>2020-08-10T07:04:59Z</time>
      </trkpt>
      <trkpt lat="39.527255" lon="-0.465042">
        <ele>34.843</ele>
        <time>2020-08-10T07:05:02Z</time>
      </trkpt>
      <trkpt lat="39.527142" lon="-0.465270">
        <ele>33.942</ele>
        <time>2020-08-10T07:05:05Z</time>
      </trkpt>
      <trkpt lat="39.526989" lon="-0.465486">
        <ele>33.252</ele>
        <time>2020-08-10T07:05:08Z</time>
      </trkpt>
      <trkpt lat="39.526827" lon="-0.465711">
        <ele>32.663</ele>
        <time>2020-08-10T07:05:11Z</time>
      </trkpt>
      <trkpt lat="39.526657" lon="-0.465948">
        <ele>31.974</ele>
        <time>2020-08-10T07:05:14Z</time>
      </trkpt>
      <trkpt lat="39.526474" lon="-0.466196">
        <ele>30.695</ele>
        <time>2020-08-10T07:05:17Z</time>
      </trkpt>
      <trkpt lat="39.526352" lon="-0.466368">
        <ele>29.849</ele>
        <time>2020-08-10T07:05:19Z</time>
      </trkpt>
      <trkpt lat="39.526151" lon="-0.466573">
        <ele>29.102</ele>
        <time>2020-08-10T07:05:22Z</time>
      </trkpt>
      <trkpt lat="39.525914" lon="-0.466616">
        <ele>29.222</ele>
        <time>2020-08-10T07:05:25Z</time>
      </trkpt>
      <trkpt lat="39.525693" lon="-0.466746">
        <ele>29.808</ele>
        <time>2020-08-10T07:05:28Z</time>
      </trkpt>
      <trkpt lat="39.525549" lon="-0.467014">
        <ele>28.719</ele>
        <time>2020-08-10T07:05:31Z</time>
      </trkpt>
      <trkpt lat="39.525456" lon="-0.467291">
        <ele>29.848</ele>
        <time>2020-08-10T07:05:34Z</time>
      </trkpt>
      <trkpt lat="39.525337" lon="-0.467551">
        <ele>29.273</ele>
        <time>2020-08-10T07:05:37Z</time>
      </trkpt>
      <trkpt lat="39.525214" lon="-0.467789">
        <ele>27.092</ele>
        <time>2020-08-10T07:05:40Z</time>
      </trkpt>
      <trkpt lat="39.525095" lon="-0.468028">
        <ele>25.342</ele>
        <time>2020-08-10T07:05:43Z</time>
      </trkpt>
      <trkpt lat="39.524975" lon="-0.468283">
        <ele>24.813</ele>
        <time>2020-08-10T07:05:46Z</time>
      </trkpt>
      <trkpt lat="39.524835" lon="-0.468529">
        <ele>24.094</ele>
        <time>2020-08-10T07:05:49Z</time>
      </trkpt>
      <trkpt lat="39.524680" lon="-0.468753">
        <ele>23.295</ele>
        <time>2020-08-10T07:05:52Z</time>
      </trkpt>
      <trkpt lat="39.524508" lon="-0.468953">
        <ele>22.225</ele>
        <time>2020-08-10T07:05:55Z</time>
      </trkpt>
      <trkpt lat="39.524341" lon="-0.469134">
        <ele>22.526</ele>
        <time>2020-08-10T07:05:58Z</time>
      </trkpt>
      <trkpt lat="39.524173" lon="-0.469284">
        <ele>23.808</ele>
        <time>2020-08-10T07:06:01Z</time>
      </trkpt>
      <trkpt lat="39.524011" lon="-0.469451">
        <ele>23.308</ele>
        <time>2020-08-10T07:06:04Z</time>
      </trkpt>
      <trkpt lat="39.523844" lon="-0.469632">
        <ele>22.137</ele>
        <time>2020-08-10T07:06:07Z</time>
      </trkpt>
      <trkpt lat="39.523672" lon="-0.469817">
        <ele>20.536</ele>
        <time>2020-08-10T07:06:10Z</time>
      </trkpt>
      <trkpt lat="39.523489" lon="-0.470006">
        <ele>20.841</ele>
        <time>2020-08-10T07:06:13Z</time>
      </trkpt>
      <trkpt lat="39.523300" lon="-0.470195">
        <ele>19.320</ele>
        <time>2020-08-10T07:06:16Z</time>
      </trkpt>
      <trkpt lat="39.523112" lon="-0.470394">
        <ele>18.060</ele>
        <time>2020-08-10T07:06:19Z</time>
      </trkpt>
      <trkpt lat="39.522940" lon="-0.470597">
        <ele>18.411</ele>
        <time>2020-08-10T07:06:22Z</time>
      </trkpt>
      <trkpt lat="39.522783" lon="-0.470770">
        <ele>19.192</ele>
        <time>2020-08-10T07:06:25Z</time>
      </trkpt>
      <trkpt lat="39.522518" lon="-0.471024">
        <ele>19.953</ele>
        <time>2020-08-10T07:06:31Z</time>
      </trkpt>
      <trkpt lat="39.522385" lon="-0.471183">
        <ele>21.266</ele>
        <time>2020-08-10T07:06:36Z</time>
      </trkpt>
      <trkpt lat="39.522229" lon="-0.471334">
        <ele>22.629</ele>
        <time>2020-08-10T07:06:43Z</time>
      </trkpt>
      <trkpt lat="39.522079" lon="-0.471475">
        <ele>24.121</ele>
        <time>2020-08-10T07:06:50Z</time>
      </trkpt>
      <trkpt lat="39.521930" lon="-0.471621">
        <ele>25.408</ele>
        <time>2020-08-10T07:06:57Z</time>
      </trkpt>
      <trkpt lat="39.521789" lon="-0.471770">
        <ele>27.461</ele>
        <time>2020-08-10T07:07:04Z</time>
      </trkpt>
      <trkpt lat="39.521629" lon="-0.471917">
        <ele>32.070</ele>
        <time>2020-08-10T07:07:12Z</time>
      </trkpt>
      <trkpt lat="39.521481" lon="-0.472050">
        <ele>34.715</ele>
        <time>2020-08-10T07:07:19Z</time>
      </trkpt>
      <trkpt lat="39.521333" lon="-0.472187">
        <ele>32.694</ele>
        <time>2020-08-10T07:07:26Z</time>
      </trkpt>
      <trkpt lat="39.521175" lon="-0.472311">
        <ele>32.424</ele>
        <time>2020-08-10T07:07:33Z</time>
      </trkpt>
      <trkpt lat="39.521012" lon="-0.472443">
        <ele>35.275</ele>
        <time>2020-08-10T07:07:41Z</time>
      </trkpt>
      <trkpt lat="39.520852" lon="-0.472560">
        <ele>34.426</ele>
        <time>2020-08-10T07:07:49Z</time>
      </trkpt>
      <trkpt lat="39.520676" lon="-0.472463">
        <ele>30.767</ele>
        <time>2020-08-10T07:07:58Z</time>
      </trkpt>
      <trkpt lat="39.520568" lon="-0.472261">
        <ele>30.113</ele>
        <time>2020-08-10T07:08:03Z</time>
      </trkpt>
      <trkpt lat="39.520455" lon="-0.472017">
        <ele>32.243</ele>
        <time>2020-08-10T07:08:08Z</time>
      </trkpt>
      <trkpt lat="39.520341" lon="-0.471772">
        <ele>35.107</ele>
        <time>2020-08-10T07:08:13Z</time>
      </trkpt>
      <trkpt lat="39.520218" lon="-0.471596">
        <ele>36.408</ele>
        <time>2020-08-10T07:08:19Z</time>
      </trkpt>
      <trkpt lat="39.520049" lon="-0.471704">
        <ele>32.946</ele>
        <time>2020-08-10T07:08:29Z</time>
      </trkpt>
      <trkpt lat="39.520173" lon="-0.471512">
        <ele>30.395</ele>
        <time>2020-08-10T07:08:56Z</time>
      </trkpt>
      <trkpt lat="39.520068" lon="-0.471288">
        <ele>30.060</ele>
        <time>2020-08-10T07:09:01Z</time>
      </trkpt>
      <trkpt lat="39.519927" lon="-0.471105">
        <ele>29.919</ele>
        <time>2020-08-10T07:09:05Z</time>
      </trkpt>
      <trkpt lat="39.519788" lon="-0.470919">
        <ele>29.419</ele>
        <time>2020-08-10T07:09:09Z</time>
      </trkpt>
      <trkpt lat="39.519647" lon="-0.470734">
        <ele>28.820</ele>
        <time>2020-08-10T07:09:13Z</time>
      </trkpt>
      <trkpt lat="39.519502" lon="-0.470560">
        <ele>29.071</ele>
        <time>2020-08-10T07:09:17Z</time>
      </trkpt>
      <trkpt lat="39.519327" lon="-0.470403">
        <ele>30.122</ele>
        <time>2020-08-10T07:09:21Z</time>
      </trkpt>
      <trkpt lat="39.519141" lon="-0.470281">
        <ele>30.055</ele>
        <time>2020-08-10T07:09:25Z</time>
      </trkpt>
      <trkpt lat="39.518973" lon="-0.470138">
        <ele>30.107</ele>
        <time>2020-08-10T07:09:29Z</time>
      </trkpt>
      <trkpt lat="39.518800" lon="-0.470018">
        <ele>29.217</ele>
        <time>2020-08-10T07:09:33Z</time>
      </trkpt>
      <trkpt lat="39.518623" lon="-0.469892">
        <ele>28.508</ele>
        <time>2020-08-10T07:09:38Z</time>
      </trkpt>
      <trkpt lat="39.518603" lon="-0.470141">
        <ele>28.510</ele>
        <time>2020-08-10T07:09:52Z</time>
      </trkpt>
      <trkpt lat="39.518768" lon="-0.470291">
        <ele>29.559</ele>
        <time>2020-08-10T07:09:58Z</time>
      </trkpt>
      <trkpt lat="39.518692" lon="-0.470541">
        <ele>31.174</ele>
        <time>2020-08-10T07:12:09Z</time>
      </trkpt>
      <trkpt lat="39.518655" lon="-0.470781">
        <ele>31.593</ele>
        <time>2020-08-10T07:12:40Z</time>
      </trkpt>
      <trkpt lat="39.518797" lon="-0.470925">
        <ele>32.453</ele>
        <time>2020-08-10T07:12:47Z</time>
      </trkpt>
      <trkpt lat="39.518970" lon="-0.471059">
        <ele>34.344</ele>
        <time>2020-08-10T07:12:53Z</time>
      </trkpt>
      <trkpt lat="39.519135" lon="-0.471227">
        <ele>34.345</ele>
        <time>2020-08-10T07:12:59Z</time>
      </trkpt>
      <trkpt lat="39.519288" lon="-0.471397">
        <ele>37.876</ele>
        <time>2020-08-10T07:13:05Z</time>
      </trkpt>
      <trkpt lat="39.519415" lon="-0.471569">
        <ele>36.419</ele>
        <time>2020-08-10T07:13:10Z</time>
      </trkpt>
      <trkpt lat="39.519524" lon="-0.471775">
        <ele>34.409</ele>
        <time>2020-08-10T07:13:15Z</time>
      </trkpt>
      <trkpt lat="39.519645" lon="-0.472002">
        <ele>35.519</ele>
        <time>2020-08-10T07:13:21Z</time>
      </trkpt>
      <trkpt lat="39.519749" lon="-0.472249">
        <ele>35.408</ele>
        <time>2020-08-10T07:13:27Z</time>
      </trkpt>
      <trkpt lat="39.519837" lon="-0.472463">
        <ele>36.046</ele>
        <time>2020-08-10T07:13:32Z</time>
      </trkpt>
      <trkpt lat="39.519934" lon="-0.472671">
        <ele>37.335</ele>
        <time>2020-08-10T07:13:37Z</time>
      </trkpt>
      <trkpt lat="39.520029" lon="-0.472889">
        <ele>39.220</ele>
        <time>2020-08-10T07:13:42Z</time>
      </trkpt>
      <trkpt lat="39.520120" lon="-0.473101">
        <ele>38.969</ele>
        <time>2020-08-10T07:13:47Z</time>
      </trkpt>
      <trkpt lat="39.520215" lon="-0.473324">
        <ele>38.889</ele>
        <time>2020-08-10T07:13:52Z</time>
      </trkpt>
      <trkpt lat="39.520306" lon="-0.473544">
        <ele>39.110</ele>
        <time>2020-08-10T07:13:57Z</time>
      </trkpt>
      <trkpt lat="39.520396" lon="-0.473749">
        <ele>37.531</ele>
        <time>2020-08-10T07:14:02Z</time>
      </trkpt>
      <trkpt lat="39.520442" lon="-0.474017">
        <ele>39.172</ele>
        <time>2020-08-10T07:14:08Z</time>
      </trkpt>
      <trkpt lat="39.520595" lon="-0.474184">
        <ele>37.876</ele>
        <time>2020-08-10T07:14:14Z</time>
      </trkpt>
      <trkpt lat="39.520733" lon="-0.474373">
        <ele>36.690</ele>
        <time>2020-08-10T07:14:19Z</time>
      </trkpt>
      <trkpt lat="39.520879" lon="-0.474572">
        <ele>36.819</ele>
        <time>2020-08-10T07:14:24Z</time>
      </trkpt>
      <trkpt lat="39.521013" lon="-0.474753">
        <ele>37.908</ele>
        <time>2020-08-10T07:14:28Z</time>
      </trkpt>
      <trkpt lat="39.521145" lon="-0.474942">
        <ele>37.642</ele>
        <time>2020-08-10T07:14:32Z</time>
      </trkpt>
      <trkpt lat="39.521254" lon="-0.475157">
        <ele>38.281</ele>
        <time>2020-08-10T07:14:36Z</time>
      </trkpt>
      <trkpt lat="39.521360" lon="-0.475361">
        <ele>40.926</ele>
        <time>2020-08-10T07:14:40Z</time>
      </trkpt>
      <trkpt lat="39.521472" lon="-0.475610">
        <ele>43.875</ele>
        <time>2020-08-10T07:14:45Z</time>
      </trkpt>
      <trkpt lat="39.521570" lon="-0.475836">
        <ele>45.895</ele>
        <time>2020-08-10T07:14:50Z</time>
      </trkpt>
      <trkpt lat="39.521661" lon="-0.476071">
        <ele>45.936</ele>
        <time>2020-08-10T07:14:56Z</time>
      </trkpt>
      <trkpt lat="39.521784" lon="-0.476292">
        <ele>45.137</ele>
        <time>2020-08-10T07:15:02Z</time>
      </trkpt>
      <trkpt lat="39.521889" lon="-0.476486">
        <ele>46.598</ele>
        <time>2020-08-10T07:15:07Z</time>
      </trkpt>
      <trkpt lat="39.521988" lon="-0.476693">
        <ele>46.072</ele>
        <time>2020-08-10T07:15:12Z</time>
      </trkpt>
      <trkpt lat="39.522081" lon="-0.476942">
        <ele>46.613</ele>
        <time>2020-08-10T07:15:18Z</time>
      </trkpt>
      <trkpt lat="39.522184" lon="-0.477181">
        <ele>46.214</ele>
        <time>2020-08-10T07:15:24Z</time>
      </trkpt>
      <trkpt lat="39.522268" lon="-0.477424">
        <ele>44.908</ele>
        <time>2020-08-10T07:15:30Z</time>
      </trkpt>
      <trkpt lat="39.522345" lon="-0.477673">
        <ele>45.272</ele>
        <time>2020-08-10T07:15:36Z</time>
      </trkpt>
      <trkpt lat="39.522300" lon="-0.477917">
        <ele>45.491</ele>
        <time>2020-08-10T07:15:42Z</time>
      </trkpt>
      <trkpt lat="39.522137" lon="-0.478071">
        <ele>45.916</ele>
        <time>2020-08-10T07:15:48Z</time>
      </trkpt>
      <trkpt lat="39.521985" lon="-0.478205">
        <ele>48.235</ele>
        <time>2020-08-10T07:15:55Z</time>
      </trkpt>
      <trkpt lat="39.521823" lon="-0.478351">
        <ele>48.185</ele>
        <time>2020-08-10T07:16:03Z</time>
      </trkpt>
      <trkpt lat="39.521679" lon="-0.478491">
        <ele>48.276</ele>
        <time>2020-08-10T07:16:10Z</time>
      </trkpt>
      <trkpt lat="39.521608" lon="-0.478711">
        <ele>49.417</ele>
        <time>2020-08-10T07:16:19Z</time>
      </trkpt>
      <trkpt lat="39.521724" lon="-0.478914">
        <ele>55.758</ele>
        <time>2020-08-10T07:16:27Z</time>
      </trkpt>
      <trkpt lat="39.521805" lon="-0.479139">
        <ele>60.846</ele>
        <time>2020-08-10T07:16:38Z</time>
      </trkpt>
      <trkpt lat="39.521899" lon="-0.479340">
        <ele>61.388</ele>
        <time>2020-08-10T07:16:47Z</time>
      </trkpt>
      <trkpt lat="39.522018" lon="-0.479546">
        <ele>58.316</ele>
        <time>2020-08-10T07:16:52Z</time>
      </trkpt>
      <trkpt lat="39.522106" lon="-0.479752">
        <ele>54.408</ele>
        <time>2020-08-10T07:16:56Z</time>
      </trkpt>
      <trkpt lat="39.521997" lon="-0.479942">
        <ele>52.399</ele>
        <time>2020-08-10T07:17:02Z</time>
      </trkpt>
      <trkpt lat="39.522180" lon="-0.479926">
        <ele>51.428</ele>
        <time>2020-08-10T07:17:17Z</time>
      </trkpt>
      <trkpt lat="39.522272" lon="-0.480129">
        <ele>52.123</ele>
        <time>2020-08-10T07:17:21Z</time>
      </trkpt>
      <trkpt lat="39.522377" lon="-0.480340">
        <ele>54.592</ele>
        <time>2020-08-10T07:17:27Z</time>
      </trkpt>
      <trkpt lat="39.522200" lon="-0.480472">
        <ele>53.622</ele>
        <time>2020-08-10T07:17:36Z</time>
      </trkpt>
      <trkpt lat="39.522030" lon="-0.480593">
        <ele>51.653</ele>
        <time>2020-08-10T07:17:42Z</time>
      </trkpt>
      <trkpt lat="39.521864" lon="-0.480745">
        <ele>52.564</ele>
        <time>2020-08-10T07:17:48Z</time>
      </trkpt>
      <trkpt lat="39.521713" lon="-0.480889">
        <ele>53.595</ele>
        <time>2020-08-10T07:17:54Z</time>
      </trkpt>
      <trkpt lat="39.521543" lon="-0.481026">
        <ele>54.619</ele>
        <time>2020-08-10T07:18:02Z</time>
      </trkpt>
      <trkpt lat="39.521394" lon="-0.481162">
        <ele>55.809</ele>
        <time>2020-08-10T07:18:09Z</time>
      </trkpt>
      <trkpt lat="39.521226" lon="-0.481259">
        <ele>52.619</ele>
        <time>2020-08-10T07:18:16Z</time>
      </trkpt>
      <trkpt lat="39.521078" lon="-0.481400">
        <ele>54.308</ele>
        <time>2020-08-10T07:18:23Z</time>
      </trkpt>
      <trkpt lat="39.520931" lon="-0.481546">
        <ele>55.866</ele>
        <time>2020-08-10T07:18:29Z</time>
      </trkpt>
      <trkpt lat="39.520782" lon="-0.481697">
        <ele>57.295</ele>
        <time>2020-08-10T07:18:34Z</time>
      </trkpt>
      <trkpt lat="39.520613" lon="-0.481847">
        <ele>56.620</ele>
        <time>2020-08-10T07:18:39Z</time>
      </trkpt>
      <trkpt lat="39.520453" lon="-0.482005">
        <ele>55.639</ele>
        <time>2020-08-10T07:18:44Z</time>
      </trkpt>
      <trkpt lat="39.520272" lon="-0.482158">
        <ele>53.959</ele>
        <time>2020-08-10T07:18:49Z</time>
      </trkpt>
      <trkpt lat="39.520110" lon="-0.482304">
        <ele>53.620</ele>
        <time>2020-08-10T07:18:53Z</time>
      </trkpt>
      <trkpt lat="39.519938" lon="-0.482450">
        <ele>54.271</ele>
        <time>2020-08-10T07:18:57Z</time>
      </trkpt>
      <trkpt lat="39.519768" lon="-0.482583">
        <ele>55.042</ele>
        <time>2020-08-10T07:19:01Z</time>
      </trkpt>
      <trkpt lat="39.519610" lon="-0.482733">
        <ele>53.457</ele>
        <time>2020-08-10T07:19:05Z</time>
      </trkpt>
      <trkpt lat="39.519463" lon="-0.482883">
        <ele>52.500</ele>
        <time>2020-08-10T07:19:09Z</time>
      </trkpt>
      <trkpt lat="39.519556" lon="-0.483124">
        <ele>54.420</ele>
        <time>2020-08-10T07:19:15Z</time>
      </trkpt>
      <trkpt lat="39.519652" lon="-0.483328">
        <ele>57.508</ele>
        <time>2020-08-10T07:19:22Z</time>
      </trkpt>
      <trkpt lat="39.519774" lon="-0.483556">
        <ele>57.840</ele>
        <time>2020-08-10T07:19:29Z</time>
      </trkpt>
      <trkpt lat="39.519887" lon="-0.483756">
        <ele>58.159</ele>
        <time>2020-08-10T07:19:34Z</time>
      </trkpt>
      <trkpt lat="39.519997" lon="-0.483961">
        <ele>58.584</ele>
        <time>2020-08-10T07:19:39Z</time>
      </trkpt>
      <trkpt lat="39.520007" lon="-0.484212">
        <ele>57.783</ele>
        <time>2020-08-10T07:19:45Z</time>
      </trkpt>
      <trkpt lat="39.519905" lon="-0.484428">
        <ele>57.473</ele>
        <time>2020-08-10T07:19:50Z</time>
      </trkpt>
      <trkpt lat="39.519792" lon="-0.484630">
        <ele>58.654</ele>
        <time>2020-08-10T07:19:55Z</time>
      </trkpt>
      <trkpt lat="39.519681" lon="-0.484831">
        <ele>55.495</ele>
        <time>2020-08-10T07:19:59Z</time>
      </trkpt>
      <trkpt lat="39.519566" lon="-0.485087">
        <ele>52.076</ele>
        <time>2020-08-10T07:20:02Z</time>
      </trkpt>
      <trkpt lat="39.519429" lon="-0.485397">
        <ele>49.151</ele>
        <time>2020-08-10T07:20:05Z</time>
      </trkpt>
      <trkpt lat="39.519312" lon="-0.485591">
        <ele>46.601</ele>
        <time>2020-08-10T07:20:07Z</time>
      </trkpt>
      <trkpt lat="39.519218" lon="-0.485802">
        <ele>45.711</ele>
        <time>2020-08-10T07:20:09Z</time>
      </trkpt>
      <trkpt lat="39.519087" lon="-0.486079">
        <ele>44.708</ele>
        <time>2020-08-10T07:20:12Z</time>
      </trkpt>
      <trkpt lat="39.518971" lon="-0.486336">
        <ele>44.310</ele>
        <time>2020-08-10T07:20:15Z</time>
      </trkpt>
      <trkpt lat="39.518833" lon="-0.486571">
        <ele>45.529</ele>
        <time>2020-08-10T07:20:19Z</time>
      </trkpt>
      <trkpt lat="39.518707" lon="-0.486768">
        <ele>44.684</ele>
        <time>2020-08-10T07:20:23Z</time>
      </trkpt>
      <trkpt lat="39.518603" lon="-0.486969">
        <ele>43.053</ele>
        <time>2020-08-10T07:20:26Z</time>
      </trkpt>
      <trkpt lat="39.518483" lon="-0.487209">
        <ele>42.293</ele>
        <time>2020-08-10T07:20:29Z</time>
      </trkpt>
      <trkpt lat="39.518348" lon="-0.487459">
        <ele>39.784</ele>
        <time>2020-08-10T07:20:32Z</time>
      </trkpt>
      <trkpt lat="39.518204" lon="-0.487748">
        <ele>37.845</ele>
        <time>2020-08-10T07:20:35Z</time>
      </trkpt>
      <trkpt lat="39.518097" lon="-0.487944">
        <ele>37.276</ele>
        <time>2020-08-10T07:20:37Z</time>
      </trkpt>
      <trkpt lat="39.517954" lon="-0.488224">
        <ele>35.658</ele>
        <time>2020-08-10T07:20:40Z</time>
      </trkpt>
      <trkpt lat="39.517819" lon="-0.488475">
        <ele>34.452</ele>
        <time>2020-08-10T07:20:43Z</time>
      </trkpt>
      <trkpt lat="39.517765" lon="-0.488736">
        <ele>33.417</ele>
        <time>2020-08-10T07:20:46Z</time>
      </trkpt>
      <trkpt lat="39.517827" lon="-0.488979">
        <ele>33.308</ele>
        <time>2020-08-10T07:20:49Z</time>
      </trkpt>
      <trkpt lat="39.517980" lon="-0.489192">
        <ele>36.460</ele>
        <time>2020-08-10T07:20:53Z</time>
      </trkpt>
      <trkpt lat="39.518110" lon="-0.489358">
        <ele>37.429</ele>
        <time>2020-08-10T07:20:57Z</time>
      </trkpt>
      <trkpt lat="39.518235" lon="-0.489538">
        <ele>40.174</ele>
        <time>2020-08-10T07:21:01Z</time>
      </trkpt>
      <trkpt lat="39.518354" lon="-0.489723">
        <ele>40.483</ele>
        <time>2020-08-10T07:21:05Z</time>
      </trkpt>
      <trkpt lat="39.518476" lon="-0.489896">
        <ele>42.223</ele>
        <time>2020-08-10T07:21:09Z</time>
      </trkpt>
      <trkpt lat="39.518644" lon="-0.490064">
        <ele>43.334</ele>
        <time>2020-08-10T07:21:14Z</time>
      </trkpt>
      <trkpt lat="39.518821" lon="-0.490216">
        <ele>42.655</ele>
        <time>2020-08-10T07:21:19Z</time>
      </trkpt>
      <trkpt lat="39.518983" lon="-0.490348">
        <ele>40.816</ele>
        <time>2020-08-10T07:21:24Z</time>
      </trkpt>
      <trkpt lat="39.519149" lon="-0.490495">
        <ele>41.831</ele>
        <time>2020-08-10T07:21:31Z</time>
      </trkpt>
      <trkpt lat="39.519307" lon="-0.490622">
        <ele>44.561</ele>
        <time>2020-08-10T07:21:39Z</time>
      </trkpt>
      <trkpt lat="39.519460" lon="-0.490750">
        <ele>44.707</ele>
        <time>2020-08-10T07:21:45Z</time>
      </trkpt>
      <trkpt lat="39.519616" lon="-0.490881">
        <ele>44.908</ele>
        <time>2020-08-10T07:21:50Z</time>
      </trkpt>
      <trkpt lat="39.519797" lon="-0.491027">
        <ele>44.798</ele>
        <time>2020-08-10T07:21:55Z</time>
      </trkpt>
      <trkpt lat="39.519958" lon="-0.491169">
        <ele>43.547</ele>
        <time>2020-08-10T07:21:59Z</time>
      </trkpt>
      <trkpt lat="39.519975" lon="-0.491407">
        <ele>41.292</ele>
        <time>2020-08-10T07:22:05Z</time>
      </trkpt>
      <trkpt lat="39.519773" lon="-0.491492">
        <ele>40.061</ele>
        <time>2020-08-10T07:22:10Z</time>
      </trkpt>
      <trkpt lat="39.519584" lon="-0.491483">
        <ele>38.011</ele>
        <time>2020-08-10T07:22:14Z</time>
      </trkpt>
      <trkpt lat="39.519391" lon="-0.491457">
        <ele>37.052</ele>
        <time>2020-08-10T07:22:17Z</time>
      </trkpt>
      <trkpt lat="39.519164" lon="-0.491437">
        <ele>36.023</ele>
        <time>2020-08-10T07:22:20Z</time>
      </trkpt>
      <trkpt lat="39.518920" lon="-0.491444">
        <ele>33.724</ele>
        <time>2020-08-10T07:22:23Z</time>
      </trkpt>
      <trkpt lat="39.518668" lon="-0.491505">
        <ele>30.996</ele>
        <time>2020-08-10T07:22:26Z</time>
      </trkpt>
      <trkpt lat="39.518424" lon="-0.491571">
        <ele>28.031</ele>
        <time>2020-08-10T07:22:29Z</time>
      </trkpt>
      <trkpt lat="39.518199" lon="-0.491643">
        <ele>25.024</ele>
        <time>2020-08-10T07:22:32Z</time>
      </trkpt>
      <trkpt lat="39.517995" lon="-0.491737">
        <ele>22.708</ele>
        <time>2020-08-10T07:22:35Z</time>
      </trkpt>
      <trkpt lat="39.517813" lon="-0.491747">
        <ele>21.184</ele>
        <time>2020-08-10T07:22:39Z</time>
      </trkpt>
      <trkpt lat="39.517732" lon="-0.491527">
        <ele>24.113</ele>
        <time>2020-08-10T07:22:44Z</time>
      </trkpt>
      <trkpt lat="39.517540" lon="-0.491496">
        <ele>26.078</ele>
        <time>2020-08-10T07:22:49Z</time>
      </trkpt>
      <trkpt lat="39.517343" lon="-0.491615">
        <ele>23.977</ele>
        <time>2020-08-10T07:22:53Z</time>
      </trkpt>
      <trkpt lat="39.517178" lon="-0.491719">
        <ele>22.237</ele>
        <time>2020-08-10T07:22:56Z</time>
      </trkpt>
      <trkpt lat="39.517000" lon="-0.491835">
        <ele>22.318</ele>
        <time>2020-08-10T07:22:59Z</time>
      </trkpt>
      <trkpt lat="39.516817" lon="-0.491948">
        <ele>21.319</ele>
        <time>2020-08-10T07:23:02Z</time>
      </trkpt>
      <trkpt lat="39.516619" lon="-0.492068">
        <ele>21.410</ele>
        <time>2020-08-10T07:23:05Z</time>
      </trkpt>
      <trkpt lat="39.516422" lon="-0.492197">
        <ele>20.763</ele>
        <time>2020-08-10T07:23:08Z</time>
      </trkpt>
      <trkpt lat="39.516230" lon="-0.492318">
        <ele>19.744</ele>
        <time>2020-08-10T07:23:11Z</time>
      </trkpt>
      <trkpt lat="39.516047" lon="-0.492436">
        <ele>18.618</ele>
        <time>2020-08-10T07:23:14Z</time>
      </trkpt>
      <trkpt lat="39.515862" lon="-0.492539">
        <ele>17.708</ele>
        <time>2020-08-10T07:23:17Z</time>
      </trkpt>
      <trkpt lat="39.515667" lon="-0.492678">
        <ele>16.631</ele>
        <time>2020-08-10T07:23:20Z</time>
      </trkpt>
      <trkpt lat="39.515473" lon="-0.492805">
        <ele>16.140</ele>
        <time>2020-08-10T07:23:23Z</time>
      </trkpt>
      <trkpt lat="39.515302" lon="-0.492916">
        <ele>16.565</ele>
        <time>2020-08-10T07:23:26Z</time>
      </trkpt>
      <trkpt lat="39.515138" lon="-0.493023">
        <ele>15.884</ele>
        <time>2020-08-10T07:23:29Z</time>
      </trkpt>
      <trkpt lat="39.514935" lon="-0.493158">
        <ele>14.764</ele>
        <time>2020-08-10T07:23:32Z</time>
      </trkpt>
      <trkpt lat="39.514737" lon="-0.493288">
        <ele>13.125</ele>
        <time>2020-08-10T07:23:35Z</time>
      </trkpt>
      <trkpt lat="39.514539" lon="-0.493422">
        <ele>11.386</ele>
        <time>2020-08-10T07:23:38Z</time>
      </trkpt>
      <trkpt lat="39.514324" lon="-0.493553">
        <ele>10.917</ele>
        <time>2020-08-10T07:23:41Z</time>
      </trkpt>
      <trkpt lat="39.514104" lon="-0.493681">
        <ele>11.161</ele>
        <time>2020-08-10T07:23:44Z</time>
      </trkpt>
      <trkpt lat="39.513916" lon="-0.493811">
        <ele>11.121</ele>
        <time>2020-08-10T07:23:47Z</time>
      </trkpt>
      <trkpt lat="39.513825" lon="-0.494064">
        <ele>9.713</ele>
        <time>2020-08-10T07:23:50Z</time>
      </trkpt>
      <trkpt lat="39.513802" lon="-0.494376">
        <ele>8.608</ele>
        <time>2020-08-10T07:23:53Z</time>
      </trkpt>
      <trkpt lat="39.513782" lon="-0.494679">
        <ele>8.921</ele>
        <time>2020-08-10T07:23:56Z</time>
      </trkpt>
      <trkpt lat="39.513757" lon="-0.494947">
        <ele>9.970</ele>
        <time>2020-08-10T07:23:59Z</time>
      </trkpt>
      <trkpt lat="39.513801" lon="-0.495202">
        <ele>10.165</ele>
        <time>2020-08-10T07:24:02Z</time>
      </trkpt>
      <trkpt lat="39.513915" lon="-0.495416">
        <ele>10.394</ele>
        <time>2020-08-10T07:24:05Z</time>
      </trkpt>
      <trkpt lat="39.514009" lon="-0.495634">
        <ele>10.294</ele>
        <time>2020-08-10T07:24:08Z</time>
      </trkpt>
      <trkpt lat="39.514072" lon="-0.495857">
        <ele>10.925</ele>
        <time>2020-08-10T07:24:11Z</time>
      </trkpt>
      <trkpt lat="39.514104" lon="-0.496089">
        <ele>10.966</ele>
        <time>2020-08-10T07:24:14Z</time>
      </trkpt>
      <trkpt lat="39.514126" lon="-0.496323">
        <ele>10.847</ele>
        <time>2020-08-10T07:24:17Z</time>
      </trkpt>
      <trkpt lat="39.514154" lon="-0.496560">
        <ele>11.435</ele>
        <time>2020-08-10T07:24:20Z</time>
      </trkpt>
      <trkpt lat="39.514203" lon="-0.496852">
        <ele>12.286</ele>
        <time>2020-08-10T07:24:24Z</time>
      </trkpt>
      <trkpt lat="39.514262" lon="-0.497135">
        <ele>12.414</ele>
        <time>2020-08-10T07:24:28Z</time>
      </trkpt>
      <trkpt lat="39.514270" lon="-0.497392">
        <ele>11.908</ele>
        <time>2020-08-10T07:24:32Z</time>
      </trkpt>
      <trkpt lat="39.514146" lon="-0.497617">
        <ele>11.358</ele>
        <time>2020-08-10T07:24:36Z</time>
      </trkpt>
      <trkpt lat="39.513979" lon="-0.497728">
        <ele>10.487</ele>
        <time>2020-08-10T07:24:39Z</time>
      </trkpt>
      <trkpt lat="39.513763" lon="-0.497855">
        <ele>9.062</ele>
        <time>2020-08-10T07:24:43Z</time>
      </trkpt>
      <trkpt lat="39.513550" lon="-0.497995">
        <ele>8.941</ele>
        <time>2020-08-10T07:24:47Z</time>
      </trkpt>
      <trkpt lat="39.513372" lon="-0.498083">
        <ele>8.171</ele>
        <time>2020-08-10T07:24:50Z</time>
      </trkpt>
      <trkpt lat="39.513213" lon="-0.498208">
        <ele>6.792</ele>
        <time>2020-08-10T07:24:53Z</time>
      </trkpt>
      <trkpt lat="39.513118" lon="-0.498451">
        <ele>4.953</ele>
        <time>2020-08-10T07:24:56Z</time>
      </trkpt>
      <trkpt lat="39.513095" lon="-0.498748">
        <ele>3.114</ele>
        <time>2020-08-10T07:24:59Z</time>
      </trkpt>
      <trkpt lat="39.513105" lon="-0.499052">
        <ele>2.267</ele>
        <time>2020-08-10T07:25:02Z</time>
      </trkpt>
      <trkpt lat="39.513154" lon="-0.499326">
        <ele>3.081</ele>
        <time>2020-08-10T07:25:05Z</time>
      </trkpt>
      <trkpt lat="39.513152" lon="-0.499593">
        <ele>5.319</ele>
        <time>2020-08-10T07:25:10Z</time>
      </trkpt>
      <trkpt lat="39.513133" lon="-0.499834">
        <ele>5.708</ele>
        <time>2020-08-10T07:25:15Z</time>
      </trkpt>
      <trkpt lat="39.513144" lon="-0.500078">
        <ele>4.761</ele>
        <time>2020-08-10T07:25:19Z</time>
      </trkpt>
      <trkpt lat="39.513163" lon="-0.500383">
        <ele>3.560</ele>
        <time>2020-08-10T07:25:23Z</time>
      </trkpt>
      <trkpt lat="39.513217" lon="-0.500647">
        <ele>3.275</ele>
        <time>2020-08-10T07:25:27Z</time>
      </trkpt>
      <trkpt lat="39.513265" lon="-0.500926">
        <ele>1.264</ele>
        <time>2020-08-10T07:25:32Z</time>
      </trkpt>
      <trkpt lat="39.513266" lon="-0.501179">
        <ele>1.164</ele>
        <time>2020-08-10T07:25:36Z</time>
      </trkpt>
      <trkpt lat="39.513397" lon="-0.501413">
        <ele>-0.775</ele>
        <time>2020-08-10T07:25:42Z</time>
      </trkpt>
      <trkpt lat="39.513583" lon="-0.501571">
        <ele>-1.966</ele>
        <time>2020-08-10T07:25:46Z</time>
      </trkpt>
      <trkpt lat="39.513714" lon="-0.501757">
        <ele>-2.097</ele>
        <time>2020-08-10T07:25:50Z</time>
      </trkpt>
      <trkpt lat="39.513803" lon="-0.501961">
        <ele>-1.246</ele>
        <time>2020-08-10T07:25:54Z</time>
      </trkpt>
      <trkpt lat="39.513877" lon="-0.502191">
        <ele>0.488</ele>
        <time>2020-08-10T07:25:58Z</time>
      </trkpt>
      <trkpt lat="39.513999" lon="-0.502394">
        <ele>0.816</ele>
        <time>2020-08-10T07:26:02Z</time>
      </trkpt>
      <trkpt lat="39.514151" lon="-0.502571">
        <ele>0.708</ele>
        <time>2020-08-10T07:26:06Z</time>
      </trkpt>
      <trkpt lat="39.514314" lon="-0.502744">
        <ele>0.569</ele>
        <time>2020-08-10T07:26:11Z</time>
      </trkpt>
      <trkpt lat="39.514468" lon="-0.502926">
        <ele>1.978</ele>
        <time>2020-08-10T07:26:16Z</time>
      </trkpt>
      <trkpt lat="39.514638" lon="-0.503118">
        <ele>2.693</ele>
        <time>2020-08-10T07:26:21Z</time>
      </trkpt>
      <trkpt lat="39.514786" lon="-0.503256">
        <ele>1.582</ele>
        <time>2020-08-10T07:26:25Z</time>
      </trkpt>
      <trkpt lat="39.514953" lon="-0.503371">
        <ele>2.132</ele>
        <time>2020-08-10T07:26:29Z</time>
      </trkpt>
      <trkpt lat="39.515155" lon="-0.503503">
        <ele>1.633</ele>
        <time>2020-08-10T07:26:34Z</time>
      </trkpt>
      <trkpt lat="39.515326" lon="-0.503600">
        <ele>2.244</ele>
        <time>2020-08-10T07:26:38Z</time>
      </trkpt>
      <trkpt lat="39.515502" lon="-0.503669">
        <ele>1.535</ele>
        <time>2020-08-10T07:26:42Z</time>
      </trkpt>
      <trkpt lat="39.515692" lon="-0.503725">
        <ele>1.577</ele>
        <time>2020-08-10T07:26:46Z</time>
      </trkpt>
      <trkpt lat="39.515896" lon="-0.503760">
        <ele>1.961</ele>
        <time>2020-08-10T07:26:50Z</time>
      </trkpt>
      <trkpt lat="39.516088" lon="-0.503817">
        <ele>1.727</ele>
        <time>2020-08-10T07:26:54Z</time>
      </trkpt>
      <trkpt lat="39.516277" lon="-0.503882">
        <ele>1.908</ele>
        <time>2020-08-10T07:26:58Z</time>
      </trkpt>
      <trkpt lat="39.516472" lon="-0.503906">
        <ele>0.122</ele>
        <time>2020-08-10T07:27:07Z</time>
      </trkpt>
      <trkpt lat="39.516675" lon="-0.503930">
        <ele>-1.491</ele>
        <time>2020-08-10T07:27:13Z</time>
      </trkpt>
      <trkpt lat="39.516856" lon="-0.503930">
        <ele>-0.476</ele>
        <time>2020-08-10T07:27:17Z</time>
      </trkpt>
      <trkpt lat="39.517041" lon="-0.503966">
        <ele>-1.025</ele>
        <time>2020-08-10T07:27:21Z</time>
      </trkpt>
      <trkpt lat="39.517250" lon="-0.503963">
        <ele>1.025</ele>
        <time>2020-08-10T07:27:26Z</time>
      </trkpt>
      <trkpt lat="39.517435" lon="-0.503923">
        <ele>-2.226</ele>
        <time>2020-08-10T07:27:30Z</time>
      </trkpt>
      <trkpt lat="39.517621" lon="-0.503924">
        <ele>-1.577</ele>
        <time>2020-08-10T07:27:35Z</time>
      </trkpt>
      <trkpt lat="39.517796" lon="-0.504040">
        <ele>2.888</ele>
        <time>2020-08-10T07:27:45Z</time>
      </trkpt>
      <trkpt lat="39.517928" lon="-0.504217">
        <ele>3.833</ele>
        <time>2020-08-10T07:29:12Z</time>
      </trkpt>
      <trkpt lat="39.518090" lon="-0.504376">
        <ele>1.523</ele>
        <time>2020-08-10T07:29:19Z</time>
      </trkpt>
      <trkpt lat="39.518011" lon="-0.504589">
        <ele>-2.015</ele>
        <time>2020-08-10T07:29:29Z</time>
      </trkpt>
      <trkpt lat="39.517877" lon="-0.504784">
        <ele>-1.208</ele>
        <time>2020-08-10T07:29:35Z</time>
      </trkpt>
      <trkpt lat="39.517762" lon="-0.504975">
        <ele>0.428</ele>
        <time>2020-08-10T07:29:43Z</time>
      </trkpt>
      <trkpt lat="39.517608" lon="-0.505119">
        <ele>3.017</ele>
        <time>2020-08-10T07:29:55Z</time>
      </trkpt>
      <trkpt lat="39.517423" lon="-0.505234">
        <ele>5.052</ele>
        <time>2020-08-10T07:30:04Z</time>
      </trkpt>
      <trkpt lat="39.517253" lon="-0.505352">
        <ele>4.511</ele>
        <time>2020-08-10T07:30:10Z</time>
      </trkpt>
      <trkpt lat="39.517125" lon="-0.505556">
        <ele>3.441</ele>
        <time>2020-08-10T07:30:16Z</time>
      </trkpt>
      <trkpt lat="39.517105" lon="-0.505822">
        <ele>3.912</ele>
        <time>2020-08-10T07:30:24Z</time>
      </trkpt>
      <trkpt lat="39.517001" lon="-0.506057">
        <ele>2.893</ele>
        <time>2020-08-10T07:30:31Z</time>
      </trkpt>
      <trkpt lat="39.516819" lon="-0.506113">
        <ele>3.074</ele>
        <time>2020-08-10T07:30:35Z</time>
      </trkpt>
      <trkpt lat="39.516634" lon="-0.506159">
        <ele>4.321</ele>
        <time>2020-08-10T07:30:39Z</time>
      </trkpt>
      <trkpt lat="39.516438" lon="-0.506222">
        <ele>4.541</ele>
        <time>2020-08-10T07:30:44Z</time>
      </trkpt>
      <trkpt lat="39.516380" lon="-0.506466">
        <ele>6.405</ele>
        <time>2020-08-10T07:30:53Z</time>
      </trkpt>
      <trkpt lat="39.516431" lon="-0.506717">
        <ele>3.808</ele>
        <time>2020-08-10T07:31:00Z</time>
      </trkpt>
      <trkpt lat="39.516487" lon="-0.506950">
        <ele>4.337</ele>
        <time>2020-08-10T07:31:06Z</time>
      </trkpt>
      <trkpt lat="39.516537" lon="-0.507208">
        <ele>7.296</ele>
        <time>2020-08-10T07:31:13Z</time>
      </trkpt>
      <trkpt lat="39.516589" lon="-0.507447">
        <ele>9.141</ele>
        <time>2020-08-10T07:31:20Z</time>
      </trkpt>
      <trkpt lat="39.516545" lon="-0.507698">
        <ele>10.750</ele>
        <time>2020-08-10T07:31:29Z</time>
      </trkpt>
      <trkpt lat="39.516388" lon="-0.507847">
        <ele>10.760</ele>
        <time>2020-08-10T07:31:36Z</time>
      </trkpt>
      <trkpt lat="39.516207" lon="-0.507899">
        <ele>11.041</ele>
        <time>2020-08-10T07:31:41Z</time>
      </trkpt>
      <trkpt lat="39.515988" lon="-0.507876">
        <ele>12.062</ele>
        <time>2020-08-10T07:31:46Z</time>
      </trkpt>
      <trkpt lat="39.515773" lon="-0.507872">
        <ele>13.323</ele>
        <time>2020-08-10T07:31:51Z</time>
      </trkpt>
      <trkpt lat="39.515560" lon="-0.507899">
        <ele>14.113</ele>
        <time>2020-08-10T07:31:56Z</time>
      </trkpt>
      <trkpt lat="39.515355" lon="-0.507925">
        <ele>11.943</ele>
        <time>2020-08-10T07:32:00Z</time>
      </trkpt>
      <trkpt lat="39.515143" lon="-0.507939">
        <ele>12.807</ele>
        <time>2020-08-10T07:32:04Z</time>
      </trkpt>
      <trkpt lat="39.514911" lon="-0.508002">
        <ele>12.908</ele>
        <time>2020-08-10T07:32:08Z</time>
      </trkpt>
      <trkpt lat="39.514711" lon="-0.508045">
        <ele>12.726</ele>
        <time>2020-08-10T07:32:12Z</time>
      </trkpt>
      <trkpt lat="39.514538" lon="-0.507928">
        <ele>13.485</ele>
        <time>2020-08-10T07:32:17Z</time>
      </trkpt>
      <trkpt lat="39.514378" lon="-0.507778">
        <ele>14.590</ele>
        <time>2020-08-10T07:32:23Z</time>
      </trkpt>
      <trkpt lat="39.514184" lon="-0.507698">
        <ele>16.159</ele>
        <time>2020-08-10T07:32:29Z</time>
      </trkpt>
      <trkpt lat="39.513990" lon="-0.507747">
        <ele>17.829</ele>
        <time>2020-08-10T07:32:37Z</time>
      </trkpt>
      <trkpt lat="39.513839" lon="-0.507897">
        <ele>19.540</ele>
        <time>2020-08-10T07:32:46Z</time>
      </trkpt>
      <trkpt lat="39.513646" lon="-0.507907">
        <ele>20.411</ele>
        <time>2020-08-10T07:32:54Z</time>
      </trkpt>
      <trkpt lat="39.513466" lon="-0.507844">
        <ele>22.582</ele>
        <time>2020-08-10T07:33:02Z</time>
      </trkpt>
      <trkpt lat="39.513291" lon="-0.507786">
        <ele>25.186</ele>
        <time>2020-08-10T07:33:10Z</time>
      </trkpt>
      <trkpt lat="39.513146" lon="-0.507929">
        <ele>23.960</ele>
        <time>2020-08-10T07:33:19Z</time>
      </trkpt>
      <trkpt lat="39.513013" lon="-0.508094">
        <ele>23.626</ele>
        <time>2020-08-10T07:33:26Z</time>
      </trkpt>
      <trkpt lat="39.512848" lon="-0.508192">
        <ele>24.408</ele>
        <time>2020-08-10T07:33:32Z</time>
      </trkpt>
      <trkpt lat="39.512659" lon="-0.508228">
        <ele>27.473</ele>
        <time>2020-08-10T07:33:37Z</time>
      </trkpt>
      <trkpt lat="39.512469" lon="-0.508247">
        <ele>28.142</ele>
        <time>2020-08-10T07:33:42Z</time>
      </trkpt>
      <trkpt lat="39.512260" lon="-0.508252">
        <ele>29.997</ele>
        <time>2020-08-10T07:33:48Z</time>
      </trkpt>
      <trkpt lat="39.512056" lon="-0.508219">
        <ele>30.596</ele>
        <time>2020-08-10T07:33:54Z</time>
      </trkpt>
      <trkpt lat="39.511861" lon="-0.508161">
        <ele>31.766</ele>
        <time>2020-08-10T07:34:01Z</time>
      </trkpt>
      <trkpt lat="39.511663" lon="-0.508156">
        <ele>30.587</ele>
        <time>2020-08-10T07:34:09Z</time>
      </trkpt>
      <trkpt lat="39.511476" lon="-0.508228">
        <ele>31.458</ele>
        <time>2020-08-10T07:34:17Z</time>
      </trkpt>
      <trkpt lat="39.511314" lon="-0.508342">
        <ele>32.649</ele>
        <time>2020-08-10T07:34:24Z</time>
      </trkpt>
      <trkpt lat="39.511158" lon="-0.508471">
        <ele>33.446</ele>
        <time>2020-08-10T07:34:30Z</time>
      </trkpt>
      <trkpt lat="39.510982" lon="-0.508599">
        <ele>34.188</ele>
        <time>2020-08-10T07:34:35Z</time>
      </trkpt>
      <trkpt lat="39.510784" lon="-0.508736">
        <ele>32.416</ele>
        <time>2020-08-10T07:34:39Z</time>
      </trkpt>
      <trkpt lat="39.510586" lon="-0.508844">
        <ele>31.008</ele>
        <time>2020-08-10T07:34:42Z</time>
      </trkpt>
      <trkpt lat="39.510358" lon="-0.508930">
        <ele>30.799</ele>
        <time>2020-08-10T07:34:45Z</time>
      </trkpt>
      <trkpt lat="39.510135" lon="-0.508994">
        <ele>30.518</ele>
        <time>2020-08-10T07:34:48Z</time>
      </trkpt>
      <trkpt lat="39.509912" lon="-0.509056">
        <ele>29.793</ele>
        <time>2020-08-10T07:34:51Z</time>
      </trkpt>
      <trkpt lat="39.509730" lon="-0.509200">
        <ele>28.852</ele>
        <time>2020-08-10T07:34:54Z</time>
      </trkpt>
      <trkpt lat="39.509569" lon="-0.509388">
        <ele>28.432</ele>
        <time>2020-08-10T07:34:57Z</time>
      </trkpt>
      <trkpt lat="39.509409" lon="-0.509551">
        <ele>28.663</ele>
        <time>2020-08-10T07:35:00Z</time>
      </trkpt>
      <trkpt lat="39.509259" lon="-0.509698">
        <ele>28.094</ele>
        <time>2020-08-10T07:35:03Z</time>
      </trkpt>
      <trkpt lat="39.509068" lon="-0.509832">
        <ele>26.985</ele>
        <time>2020-08-10T07:35:07Z</time>
      </trkpt>
      <trkpt lat="39.508864" lon="-0.509898">
        <ele>28.075</ele>
        <time>2020-08-10T07:35:11Z</time>
      </trkpt>
      <trkpt lat="39.508701" lon="-0.510009">
        <ele>31.828</ele>
        <time>2020-08-10T07:35:17Z</time>
      </trkpt>
      <trkpt lat="39.508794" lon="-0.510213">
        <ele>33.620</ele>
        <time>2020-08-10T07:35:23Z</time>
      </trkpt>
      <trkpt lat="39.508875" lon="-0.510424">
        <ele>33.908</ele>
        <time>2020-08-10T07:35:28Z</time>
      </trkpt>
      <trkpt lat="39.508952" lon="-0.510657">
        <ele>34.962</ele>
        <time>2020-08-10T07:35:33Z</time>
      </trkpt>
      <trkpt lat="39.509030" lon="-0.510875">
        <ele>35.781</ele>
        <time>2020-08-10T07:35:38Z</time>
      </trkpt>
      <trkpt lat="39.509120" lon="-0.511120">
        <ele>36.066</ele>
        <time>2020-08-10T07:35:44Z</time>
      </trkpt>
      <trkpt lat="39.509216" lon="-0.511366">
        <ele>36.775</ele>
        <time>2020-08-10T07:35:50Z</time>
      </trkpt>
      <trkpt lat="39.509312" lon="-0.511610">
        <ele>37.665</ele>
        <time>2020-08-10T07:35:56Z</time>
      </trkpt>
      <trkpt lat="39.509404" lon="-0.511815">
        <ele>39.236</ele>
        <time>2020-08-10T07:36:01Z</time>
      </trkpt>
      <trkpt lat="39.509509" lon="-0.512022">
        <ele>38.977</ele>
        <time>2020-08-10T07:36:06Z</time>
      </trkpt>
      <trkpt lat="39.509628" lon="-0.512251">
        <ele>39.848</ele>
        <time>2020-08-10T07:36:12Z</time>
      </trkpt>
      <trkpt lat="39.509739" lon="-0.512456">
        <ele>41.341</ele>
        <time>2020-08-10T07:36:18Z</time>
      </trkpt>
      <trkpt lat="39.509827" lon="-0.512706">
        <ele>40.681</ele>
        <time>2020-08-10T07:36:24Z</time>
      </trkpt>
      <trkpt lat="39.509785" lon="-0.512956">
        <ele>39.609</ele>
        <time>2020-08-10T07:36:29Z</time>
      </trkpt>
      <trkpt lat="39.509686" lon="-0.513184">
        <ele>39.508</ele>
        <time>2020-08-10T07:36:33Z</time>
      </trkpt>
      <trkpt lat="39.509593" lon="-0.513420">
        <ele>39.559</ele>
        <time>2020-08-10T07:36:37Z</time>
      </trkpt>
      <trkpt lat="39.509496" lon="-0.513661">
        <ele>39.488</ele>
        <time>2020-08-10T07:36:41Z</time>
      </trkpt>
      <trkpt lat="39.509396" lon="-0.513905">
        <ele>38.613</ele>
        <time>2020-08-10T07:36:45Z</time>
      </trkpt>
      <trkpt lat="39.509280" lon="-0.514124">
        <ele>37.482</ele>
        <time>2020-08-10T07:36:49Z</time>
      </trkpt>
      <trkpt lat="39.509130" lon="-0.514312">
        <ele>37.882</ele>
        <time>2020-08-10T07:36:53Z</time>
      </trkpt>
      <trkpt lat="39.508959" lon="-0.514459">
        <ele>38.713</ele>
        <time>2020-08-10T07:36:57Z</time>
      </trkpt>
      <trkpt lat="39.508775" lon="-0.514580">
        <ele>39.884</ele>
        <time>2020-08-10T07:37:01Z</time>
      </trkpt>
      <trkpt lat="39.508582" lon="-0.514687">
        <ele>40.015</ele>
        <time>2020-08-10T07:37:05Z</time>
      </trkpt>
      <trkpt lat="39.508397" lon="-0.514788">
        <ele>40.011</ele>
        <time>2020-08-10T07:37:09Z</time>
      </trkpt>
      <trkpt lat="39.508230" lon="-0.514901">
        <ele>40.121</ele>
        <time>2020-08-10T07:37:13Z</time>
      </trkpt>
      <trkpt lat="39.508084" lon="-0.515037">
        <ele>40.303</ele>
        <time>2020-08-10T07:37:17Z</time>
      </trkpt>
      <trkpt lat="39.507919" lon="-0.515227">
        <ele>40.508</ele>
        <time>2020-08-10T07:37:22Z</time>
      </trkpt>
      <trkpt lat="39.507779" lon="-0.515395">
        <ele>40.186</ele>
        <time>2020-08-10T07:37:26Z</time>
      </trkpt>
      <trkpt lat="39.507634" lon="-0.515568">
        <ele>40.115</ele>
        <time>2020-08-10T07:37:30Z</time>
      </trkpt>
      <trkpt lat="39.507481" lon="-0.515740">
        <ele>40.210</ele>
        <time>2020-08-10T07:37:34Z</time>
      </trkpt>
      <trkpt lat="39.507263" lon="-0.516002">
        <ele>40.919</ele>
        <time>2020-08-10T07:37:40Z</time>
      </trkpt>
      <trkpt lat="39.507257" lon="-0.516273">
        <ele>42.749</ele>
        <time>2020-08-10T07:37:46Z</time>
      </trkpt>
      <trkpt lat="39.507282" lon="-0.516506">
        <ele>43.280</ele>
        <time>2020-08-10T07:37:51Z</time>
      </trkpt>
      <trkpt lat="39.507286" lon="-0.516758">
        <ele>44.691</ele>
        <time>2020-08-10T07:37:57Z</time>
      </trkpt>
      <trkpt lat="39.507296" lon="-0.517000">
        <ele>46.082</ele>
        <time>2020-08-10T07:38:03Z</time>
      </trkpt>
      <trkpt lat="39.507318" lon="-0.517265">
        <ele>46.592</ele>
        <time>2020-08-10T07:38:10Z</time>
      </trkpt>
      <trkpt lat="39.507356" lon="-0.517524">
        <ele>47.173</ele>
        <time>2020-08-10T07:38:17Z</time>
      </trkpt>
      <trkpt lat="39.507398" lon="-0.517785">
        <ele>47.220</ele>
        <time>2020-08-10T07:38:24Z</time>
      </trkpt>
      <trkpt lat="39.507461" lon="-0.518025">
        <ele>49.008</ele>
        <time>2020-08-10T07:38:31Z</time>
      </trkpt>
      <trkpt lat="39.507506" lon="-0.518251">
        <ele>49.694</ele>
        <time>2020-08-10T07:38:37Z</time>
      </trkpt>
      <trkpt lat="39.507565" lon="-0.518502">
        <ele>49.353</ele>
        <time>2020-08-10T07:38:44Z</time>
      </trkpt>
      <trkpt lat="39.507610" lon="-0.518766">
        <ele>50.558</ele>
        <time>2020-08-10T07:38:51Z</time>
      </trkpt>
      <trkpt lat="39.507654" lon="-0.518997">
        <ele>51.327</ele>
        <time>2020-08-10T07:38:57Z</time>
      </trkpt>
      <trkpt lat="39.507696" lon="-0.519227">
        <ele>53.237</ele>
        <time>2020-08-10T07:39:03Z</time>
      </trkpt>
      <trkpt lat="39.507741" lon="-0.519458">
        <ele>54.558</ele>
        <time>2020-08-10T07:39:10Z</time>
      </trkpt>
      <trkpt lat="39.507784" lon="-0.519706">
        <ele>54.559</ele>
        <time>2020-08-10T07:39:18Z</time>
      </trkpt>
      <trkpt lat="39.507841" lon="-0.519941">
        <ele>54.550</ele>
        <time>2020-08-10T07:39:25Z</time>
      </trkpt>
      <trkpt lat="39.507889" lon="-0.520171">
        <ele>55.286</ele>
        <time>2020-08-10T07:39:31Z</time>
      </trkpt>
      <trkpt lat="39.507940" lon="-0.520408">
        <ele>56.460</ele>
        <time>2020-08-10T07:39:39Z</time>
      </trkpt>
      <trkpt lat="39.508023" lon="-0.520638">
        <ele>57.726</ele>
        <time>2020-08-10T07:39:50Z</time>
      </trkpt>
      <trkpt lat="39.508080" lon="-0.520862">
        <ele>58.208</ele>
        <time>2020-08-10T07:39:58Z</time>
      </trkpt>
      <trkpt lat="39.508003" lon="-0.520643">
        <ele>57.223</ele>
        <time>2020-08-10T07:40:20Z</time>
      </trkpt>
      <trkpt lat="39.507938" lon="-0.520381">
        <ele>56.632</ele>
        <time>2020-08-10T07:40:27Z</time>
      </trkpt>
      <trkpt lat="39.507875" lon="-0.520104">
        <ele>55.197</ele>
        <time>2020-08-10T07:40:32Z</time>
      </trkpt>
      <trkpt lat="39.507826" lon="-0.519850">
        <ele>54.726</ele>
        <time>2020-08-10T07:40:37Z</time>
      </trkpt>
      <trkpt lat="39.507788" lon="-0.519596">
        <ele>54.026</ele>
        <time>2020-08-10T07:40:43Z</time>
      </trkpt>
      <trkpt lat="39.507926" lon="-0.519420">
        <ele>56.447</ele>
        <time>2020-08-10T07:41:59Z</time>
      </trkpt>
      <trkpt lat="39.508126" lon="-0.519337">
        <ele>56.878</ele>
        <time>2020-08-10T07:42:05Z</time>
      </trkpt>
      <trkpt lat="39.508328" lon="-0.519330">
        <ele>55.059</ele>
        <time>2020-08-10T07:42:10Z</time>
      </trkpt>
      <trkpt lat="39.508492" lon="-0.519503">
        <ele>51.824</ele>
        <time>2020-08-10T07:42:15Z</time>
      </trkpt>
      <trkpt lat="39.508517" lon="-0.519739">
        <ele>53.704</ele>
        <time>2020-08-10T07:42:20Z</time>
      </trkpt>
      <trkpt lat="39.508543" lon="-0.519992">
        <ele>54.314</ele>
        <time>2020-08-10T07:42:26Z</time>
      </trkpt>
      <trkpt lat="39.508594" lon="-0.520223">
        <ele>54.708</ele>
        <time>2020-08-10T07:42:32Z</time>
      </trkpt>
      <trkpt lat="39.508634" lon="-0.520474">
        <ele>54.827</ele>
        <time>2020-08-10T07:42:39Z</time>
      </trkpt>
      <trkpt lat="39.508683" lon="-0.520726">
        <ele>55.846</ele>
        <time>2020-08-10T07:42:46Z</time>
      </trkpt>
      <trkpt lat="39.508716" lon="-0.520983">
        <ele>58.171</ele>
        <time>2020-08-10T07:42:53Z</time>
      </trkpt>
      <trkpt lat="39.508748" lon="-0.521219">
        <ele>56.930</ele>
        <time>2020-08-10T07:43:00Z</time>
      </trkpt>
      <trkpt lat="39.508759" lon="-0.521451">
        <ele>58.110</ele>
        <time>2020-08-10T07:43:07Z</time>
      </trkpt>
      <trkpt lat="39.508753" lon="-0.521697">
        <ele>56.861</ele>
        <time>2020-08-10T07:43:14Z</time>
      </trkpt>
      <trkpt lat="39.508723" lon="-0.521961">
        <ele>58.292</ele>
        <time>2020-08-10T07:43:21Z</time>
      </trkpt>
      <trkpt lat="39.508726" lon="-0.522220">
        <ele>59.743</ele>
        <time>2020-08-10T07:43:28Z</time>
      </trkpt>
      <trkpt lat="39.508680" lon="-0.522484">
        <ele>60.032</ele>
        <time>2020-08-10T07:43:35Z</time>
      </trkpt>
      <trkpt lat="39.508563" lon="-0.522715">
        <ele>59.892</ele>
        <time>2020-08-10T07:43:41Z</time>
      </trkpt>
      <trkpt lat="39.508491" lon="-0.522948">
        <ele>58.911</ele>
        <time>2020-08-10T07:43:46Z</time>
      </trkpt>
      <trkpt lat="39.508403" lon="-0.523188">
        <ele>57.808</ele>
        <time>2020-08-10T07:43:52Z</time>
      </trkpt>
      <trkpt lat="39.508469" lon="-0.523424">
        <ele>57.588</ele>
        <time>2020-08-10T07:44:53Z</time>
      </trkpt>
      <trkpt lat="39.508480" lon="-0.523691">
        <ele>58.017</ele>
        <time>2020-08-10T07:44:59Z</time>
      </trkpt>
      <trkpt lat="39.508434" lon="-0.523926">
        <ele>57.772</ele>
        <time>2020-08-10T07:45:03Z</time>
      </trkpt>
      <trkpt lat="39.508451" lon="-0.524205">
        <ele>57.241</ele>
        <time>2020-08-10T07:45:07Z</time>
      </trkpt>
      <trkpt lat="39.508495" lon="-0.524493">
        <ele>58.141</ele>
        <time>2020-08-10T07:45:11Z</time>
      </trkpt>
      <trkpt lat="39.508535" lon="-0.524729">
        <ele>59.222</ele>
        <time>2020-08-10T07:45:15Z</time>
      </trkpt>
      <trkpt lat="39.508554" lon="-0.525007">
        <ele>56.923</ele>
        <time>2020-08-10T07:45:48Z</time>
      </trkpt>
      <trkpt lat="39.508618" lon="-0.525261">
        <ele>56.184</ele>
        <time>2020-08-10T07:45:52Z</time>
      </trkpt>
      <trkpt lat="39.508707" lon="-0.525528">
        <ele>55.645</ele>
        <time>2020-08-10T07:45:56Z</time>
      </trkpt>
      <trkpt lat="39.508819" lon="-0.525778">
        <ele>54.647</ele>
        <time>2020-08-10T07:46:00Z</time>
      </trkpt>
      <trkpt lat="39.508905" lon="-0.526039">
        <ele>53.811</ele>
        <time>2020-08-10T07:46:04Z</time>
      </trkpt>
      <trkpt lat="39.508957" lon="-0.526293">
        <ele>53.908</ele>
        <time>2020-08-10T07:46:08Z</time>
      </trkpt>
      <trkpt lat="39.508981" lon="-0.526564">
        <ele>54.139</ele>
        <time>2020-08-10T07:46:12Z</time>
      </trkpt>
      <trkpt lat="39.509008" lon="-0.526843">
        <ele>54.078</ele>
        <time>2020-08-10T07:46:16Z</time>
      </trkpt>
      <trkpt lat="39.509038" lon="-0.527141">
        <ele>54.283</ele>
        <time>2020-08-10T07:46:20Z</time>
      </trkpt>
      <trkpt lat="39.509071" lon="-0.527378">
        <ele>54.562</ele>
        <time>2020-08-10T07:46:23Z</time>
      </trkpt>
      <trkpt lat="39.509113" lon="-0.527621">
        <ele>54.542</ele>
        <time>2020-08-10T07:46:26Z</time>
      </trkpt>
      <trkpt lat="39.509142" lon="-0.527871">
        <ele>54.053</ele>
        <time>2020-08-10T07:46:29Z</time>
      </trkpt>
      <trkpt lat="39.509174" lon="-0.528119">
        <ele>53.964</ele>
        <time>2020-08-10T07:46:32Z</time>
      </trkpt>
      <trkpt lat="39.509209" lon="-0.528358">
        <ele>54.125</ele>
        <time>2020-08-10T07:46:35Z</time>
      </trkpt>
      <trkpt lat="39.509235" lon="-0.528591">
        <ele>54.715</ele>
        <time>2020-08-10T07:46:38Z</time>
      </trkpt>
      <trkpt lat="39.509279" lon="-0.528883">
        <ele>54.365</ele>
        <time>2020-08-10T07:46:42Z</time>
      </trkpt>
      <trkpt lat="39.509329" lon="-0.529172">
        <ele>54.211</ele>
        <time>2020-08-10T07:46:46Z</time>
      </trkpt>
      <trkpt lat="39.509382" lon="-0.529456">
        <ele>53.308</ele>
        <time>2020-08-10T07:46:50Z</time>
      </trkpt>
      <trkpt lat="39.509416" lon="-0.529728">
        <ele>53.766</ele>
        <time>2020-08-10T07:46:54Z</time>
      </trkpt>
      <trkpt lat="39.509465" lon="-0.529978">
        <ele>54.155</ele>
        <time>2020-08-10T07:46:58Z</time>
      </trkpt>
      <trkpt lat="39.509506" lon="-0.530221">
        <ele>55.350</ele>
        <time>2020-08-10T07:47:02Z</time>
      </trkpt>
      <trkpt lat="39.509553" lon="-0.530480">
        <ele>55.779</ele>
        <time>2020-08-10T07:47:06Z</time>
      </trkpt>
      <trkpt lat="39.509600" lon="-0.530750">
        <ele>56.099</ele>
        <time>2020-08-10T07:47:10Z</time>
      </trkpt>
      <trkpt lat="39.509632" lon="-0.531005">
        <ele>56.120</ele>
        <time>2020-08-10T07:47:14Z</time>
      </trkpt>
      <trkpt lat="39.509677" lon="-0.531270">
        <ele>55.521</ele>
        <time>2020-08-10T07:47:19Z</time>
      </trkpt>
      <trkpt lat="39.509732" lon="-0.531552">
        <ele>53.062</ele>
        <time>2020-08-10T07:47:24Z</time>
      </trkpt>
      <trkpt lat="39.509786" lon="-0.531788">
        <ele>51.765</ele>
        <time>2020-08-10T07:47:28Z</time>
      </trkpt>
      <trkpt lat="39.509820" lon="-0.532022">
        <ele>50.568</ele>
        <time>2020-08-10T07:47:32Z</time>
      </trkpt>
      <trkpt lat="39.509806" lon="-0.532282">
        <ele>51.614</ele>
        <time>2020-08-10T07:47:36Z</time>
      </trkpt>
      <trkpt lat="39.509754" lon="-0.532528">
        <ele>52.708</ele>
        <time>2020-08-10T07:47:40Z</time>
      </trkpt>
      <trkpt lat="39.509750" lon="-0.532816">
        <ele>54.341</ele>
        <time>2020-08-10T07:47:45Z</time>
      </trkpt>
      <trkpt lat="39.509746" lon="-0.533106">
        <ele>56.990</ele>
        <time>2020-08-10T07:47:51Z</time>
      </trkpt>
      <trkpt lat="39.509750" lon="-0.533367">
        <ele>58.245</ele>
        <time>2020-08-10T07:47:57Z</time>
      </trkpt>
      <trkpt lat="39.509745" lon="-0.533623">
        <ele>59.024</ele>
        <time>2020-08-10T07:48:03Z</time>
      </trkpt>
      <trkpt lat="39.509758" lon="-0.533876">
        <ele>60.434</ele>
        <time>2020-08-10T07:48:09Z</time>
      </trkpt>
      <trkpt lat="39.509793" lon="-0.534142">
        <ele>60.545</ele>
        <time>2020-08-10T07:48:16Z</time>
      </trkpt>
      <trkpt lat="39.509833" lon="-0.534408">
        <ele>61.966</ele>
        <time>2020-08-10T07:48:23Z</time>
      </trkpt>
      <trkpt lat="39.509875" lon="-0.534659">
        <ele>63.367</ele>
        <time>2020-08-10T07:48:30Z</time>
      </trkpt>
      <trkpt lat="39.509935" lon="-0.534913">
        <ele>63.257</ele>
        <time>2020-08-10T07:48:37Z</time>
      </trkpt>
      <trkpt lat="39.509804" lon="-0.535088">
        <ele>63.000</ele>
        <time>2020-08-10T07:48:42Z</time>
      </trkpt>
      <trkpt lat="39.509628" lon="-0.535210">
        <ele>64.020</ele>
        <time>2020-08-10T07:48:46Z</time>
      </trkpt>
      <trkpt lat="39.509435" lon="-0.535334">
        <ele>63.708</ele>
        <time>2020-08-10T07:48:50Z</time>
      </trkpt>
      <trkpt lat="39.509233" lon="-0.535456">
        <ele>63.220</ele>
        <time>2020-08-10T07:48:54Z</time>
      </trkpt>
      <trkpt lat="39.509015" lon="-0.535533">
        <ele>63.269</ele>
        <time>2020-08-10T07:48:58Z</time>
      </trkpt>
      <trkpt lat="39.508790" lon="-0.535601">
        <ele>63.574</ele>
        <time>2020-08-10T07:49:02Z</time>
      </trkpt>
      <trkpt lat="39.508562" lon="-0.535660">
        <ele>63.573</ele>
        <time>2020-08-10T07:49:06Z</time>
      </trkpt>
      <trkpt lat="39.508352" lon="-0.535764">
        <ele>63.383</ele>
        <time>2020-08-10T07:49:10Z</time>
      </trkpt>
      <trkpt lat="39.508314" lon="-0.536011">
        <ele>63.254</ele>
        <time>2020-08-10T07:49:14Z</time>
      </trkpt>
      <trkpt lat="39.508365" lon="-0.536277">
        <ele>64.235</ele>
        <time>2020-08-10T07:49:18Z</time>
      </trkpt>
      <trkpt lat="39.508401" lon="-0.536518">
        <ele>65.026</ele>
        <time>2020-08-10T07:49:22Z</time>
      </trkpt>
      <trkpt lat="39.508433" lon="-0.536802">
        <ele>65.125</ele>
        <time>2020-08-10T07:49:27Z</time>
      </trkpt>
      <trkpt lat="39.508421" lon="-0.537068">
        <ele>64.626</ele>
        <time>2020-08-10T07:49:32Z</time>
      </trkpt>
      <trkpt lat="39.508339" lon="-0.537294">
        <ele>65.308</ele>
        <time>2020-08-10T07:49:37Z</time>
      </trkpt>
      <trkpt lat="39.508185" lon="-0.537451">
        <ele>65.208</ele>
        <time>2020-08-10T07:49:42Z</time>
      </trkpt>
      <trkpt lat="39.508020" lon="-0.537581">
        <ele>65.567</ele>
        <time>2020-08-10T07:49:47Z</time>
      </trkpt>
      <trkpt lat="39.507888" lon="-0.537752">
        <ele>64.326</ele>
        <time>2020-08-10T07:49:52Z</time>
      </trkpt>
      <trkpt lat="39.507740" lon="-0.537950">
        <ele>64.751</ele>
        <time>2020-08-10T07:49:58Z</time>
      </trkpt>
      <trkpt lat="39.507568" lon="-0.538054">
        <ele>65.520</ele>
        <time>2020-08-10T07:50:02Z</time>
      </trkpt>
      <trkpt lat="39.507360" lon="-0.538159">
        <ele>66.010</ele>
        <time>2020-08-10T07:50:06Z</time>
      </trkpt>
      <trkpt lat="39.507153" lon="-0.538248">
        <ele>66.151</ele>
        <time>2020-08-10T07:50:10Z</time>
      </trkpt>
      <trkpt lat="39.506956" lon="-0.538352">
        <ele>66.292</ele>
        <time>2020-08-10T07:50:14Z</time>
      </trkpt>
      <trkpt lat="39.506756" lon="-0.538452">
        <ele>65.933</ele>
        <time>2020-08-10T07:50:18Z</time>
      </trkpt>
      <trkpt lat="39.506544" lon="-0.538543">
        <ele>66.356</ele>
        <time>2020-08-10T07:50:22Z</time>
      </trkpt>
      <trkpt lat="39.506314" lon="-0.538601">
        <ele>67.159</ele>
        <time>2020-08-10T07:50:26Z</time>
      </trkpt>
      <trkpt lat="39.506072" lon="-0.538614">
        <ele>66.714</ele>
        <time>2020-08-10T07:50:30Z</time>
      </trkpt>
      <trkpt lat="39.505883" lon="-0.538574">
        <ele>66.608</ele>
        <time>2020-08-10T07:50:33Z</time>
      </trkpt>
      <trkpt lat="39.505664" lon="-0.538481">
        <ele>66.930</ele>
        <time>2020-08-10T07:50:37Z</time>
      </trkpt>
      <trkpt lat="39.505436" lon="-0.538503">
        <ele>67.539</ele>
        <time>2020-08-10T07:50:41Z</time>
      </trkpt>
      <trkpt lat="39.505210" lon="-0.538526">
        <ele>67.344</ele>
        <time>2020-08-10T07:50:45Z</time>
      </trkpt>
      <trkpt lat="39.504981" lon="-0.538536">
        <ele>65.933</ele>
        <time>2020-08-10T07:50:49Z</time>
      </trkpt>
      <trkpt lat="39.504746" lon="-0.538562">
        <ele>64.653</ele>
        <time>2020-08-10T07:50:53Z</time>
      </trkpt>
      <trkpt lat="39.504564" lon="-0.538573">
        <ele>64.274</ele>
        <time>2020-08-10T07:50:56Z</time>
      </trkpt>
      <trkpt lat="39.504330" lon="-0.538599">
        <ele>64.135</ele>
        <time>2020-08-10T07:51:00Z</time>
      </trkpt>
      <trkpt lat="39.504137" lon="-0.538643">
        <ele>64.216</ele>
        <time>2020-08-10T07:51:03Z</time>
      </trkpt>
      <trkpt lat="39.503927" lon="-0.538721">
        <ele>63.848</ele>
        <time>2020-08-10T07:51:06Z</time>
      </trkpt>
      <trkpt lat="39.503688" lon="-0.538820">
        <ele>62.961</ele>
        <time>2020-08-10T07:51:09Z</time>
      </trkpt>
      <trkpt lat="39.503451" lon="-0.538923">
        <ele>62.217</ele>
        <time>2020-08-10T07:51:12Z</time>
      </trkpt>
      <trkpt lat="39.503226" lon="-0.539056">
        <ele>61.608</ele>
        <time>2020-08-10T07:51:15Z</time>
      </trkpt>
      <trkpt lat="39.503010" lon="-0.539200">
        <ele>61.349</ele>
        <time>2020-08-10T07:51:18Z</time>
      </trkpt>
      <trkpt lat="39.502797" lon="-0.539340">
        <ele>60.928</ele>
        <time>2020-08-10T07:51:21Z</time>
      </trkpt>
      <trkpt lat="39.502591" lon="-0.539450">
        <ele>61.453</ele>
        <time>2020-08-10T07:51:24Z</time>
      </trkpt>
      <trkpt lat="39.502385" lon="-0.539568">
        <ele>61.272</ele>
        <time>2020-08-10T07:51:27Z</time>
      </trkpt>
      <trkpt lat="39.502202" lon="-0.539697">
        <ele>61.962</ele>
        <time>2020-08-10T07:51:30Z</time>
      </trkpt>
      <trkpt lat="39.502048" lon="-0.539834">
        <ele>62.253</ele>
        <time>2020-08-10T07:51:33Z</time>
      </trkpt>
      <trkpt lat="39.501901" lon="-0.539973">
        <ele>62.464</ele>
        <time>2020-08-10T07:51:36Z</time>
      </trkpt>
      <trkpt lat="39.501756" lon="-0.540135">
        <ele>62.375</ele>
        <time>2020-08-10T07:51:39Z</time>
      </trkpt>
      <trkpt lat="39.501643" lon="-0.540322">
        <ele>61.766</ele>
        <time>2020-08-10T07:51:42Z</time>
      </trkpt>
      <trkpt lat="39.501539" lon="-0.540515">
        <ele>61.429</ele>
        <time>2020-08-10T07:51:45Z</time>
      </trkpt>
      <trkpt lat="39.501408" lon="-0.540767">
        <ele>61.721</ele>
        <time>2020-08-10T07:51:49Z</time>
      </trkpt>
      <trkpt lat="39.501264" lon="-0.541005">
        <ele>62.408</ele>
        <time>2020-08-10T07:51:53Z</time>
      </trkpt>
      <trkpt lat="39.501115" lon="-0.541245">
        <ele>62.881</ele>
        <time>2020-08-10T07:51:57Z</time>
      </trkpt>
      <trkpt lat="39.500997" lon="-0.541430">
        <ele>63.070</ele>
        <time>2020-08-10T07:52:00Z</time>
      </trkpt>
      <trkpt lat="39.500888" lon="-0.541618">
        <ele>62.615</ele>
        <time>2020-08-10T07:52:03Z</time>
      </trkpt>
      <trkpt lat="39.500815" lon="-0.541877">
        <ele>63.044</ele>
        <time>2020-08-10T07:52:07Z</time>
      </trkpt>
      <trkpt lat="39.500780" lon="-0.542144">
        <ele>64.134</ele>
        <time>2020-08-10T07:52:11Z</time>
      </trkpt>
      <trkpt lat="39.500743" lon="-0.542399">
        <ele>64.615</ele>
        <time>2020-08-10T07:52:15Z</time>
      </trkpt>
      <trkpt lat="39.500711" lon="-0.542640">
        <ele>64.496</ele>
        <time>2020-08-10T07:52:19Z</time>
      </trkpt>
      <trkpt lat="39.500684" lon="-0.542878">
        <ele>64.147</ele>
        <time>2020-08-10T07:52:23Z</time>
      </trkpt>
      <trkpt lat="39.500674" lon="-0.543163">
        <ele>63.629</ele>
        <time>2020-08-10T07:52:28Z</time>
      </trkpt>
      <trkpt lat="39.500707" lon="-0.543434">
        <ele>63.100</ele>
        <time>2020-08-10T07:52:33Z</time>
      </trkpt>
      <trkpt lat="39.500742" lon="-0.543701">
        <ele>62.420</ele>
        <time>2020-08-10T07:52:38Z</time>
      </trkpt>
      <trkpt lat="39.500768" lon="-0.543959">
        <ele>63.108</ele>
        <time>2020-08-10T07:52:43Z</time>
      </trkpt>
      <trkpt lat="39.500785" lon="-0.544213">
        <ele>64.037</ele>
        <time>2020-08-10T07:52:48Z</time>
      </trkpt>
      <trkpt lat="39.500805" lon="-0.544447">
        <ele>66.056</ele>
        <time>2020-08-10T07:52:53Z</time>
      </trkpt>
      <trkpt lat="39.500840" lon="-0.544722">
        <ele>67.471</ele>
        <time>2020-08-10T07:52:59Z</time>
      </trkpt>
      <trkpt lat="39.500869" lon="-0.544996">
        <ele>68.930</ele>
        <time>2020-08-10T07:53:05Z</time>
      </trkpt>
      <trkpt lat="39.500887" lon="-0.545264">
        <ele>69.420</ele>
        <time>2020-08-10T07:53:11Z</time>
      </trkpt>
      <trkpt lat="39.500919" lon="-0.545510">
        <ele>70.851</ele>
        <time>2020-08-10T07:53:17Z</time>
      </trkpt>
      <trkpt lat="39.500947" lon="-0.545750">
        <ele>72.462</ele>
        <time>2020-08-10T07:53:23Z</time>
      </trkpt>
      <trkpt lat="39.500973" lon="-0.545991">
        <ele>72.233</ele>
        <time>2020-08-10T07:53:29Z</time>
      </trkpt>
      <trkpt lat="39.500997" lon="-0.546234">
        <ele>72.041</ele>
        <time>2020-08-10T07:53:35Z</time>
      </trkpt>
      <trkpt lat="39.501026" lon="-0.546471">
        <ele>70.781</ele>
        <time>2020-08-10T07:53:41Z</time>
      </trkpt>
      <trkpt lat="39.501036" lon="-0.546710">
        <ele>71.709</ele>
        <time>2020-08-10T07:53:47Z</time>
      </trkpt>
      <trkpt lat="39.501060" lon="-0.546961">
        <ele>73.208</ele>
        <time>2020-08-10T07:53:53Z</time>
      </trkpt>
      <trkpt lat="39.501078" lon="-0.547231">
        <ele>73.849</ele>
        <time>2020-08-10T07:53:59Z</time>
      </trkpt>
      <trkpt lat="39.501113" lon="-0.547564">
        <ele>74.938</ele>
        <time>2020-08-10T07:54:07Z</time>
      </trkpt>
      <trkpt lat="39.501145" lon="-0.547821">
        <ele>73.793</ele>
        <time>2020-08-10T07:54:13Z</time>
      </trkpt>
      <trkpt lat="39.501162" lon="-0.548075">
        <ele>73.252</ele>
        <time>2020-08-10T07:54:18Z</time>
      </trkpt>
      <trkpt lat="39.501176" lon="-0.548348">
        <ele>74.182</ele>
        <time>2020-08-10T07:54:23Z</time>
      </trkpt>
      <trkpt lat="39.501194" lon="-0.548588">
        <ele>74.763</ele>
        <time>2020-08-10T07:54:27Z</time>
      </trkpt>
      <trkpt lat="39.501210" lon="-0.548846">
        <ele>74.954</ele>
        <time>2020-08-10T07:54:31Z</time>
      </trkpt>
      <trkpt lat="39.501228" lon="-0.549128">
        <ele>73.585</ele>
        <time>2020-08-10T07:54:35Z</time>
      </trkpt>
      <trkpt lat="39.501239" lon="-0.549433">
        <ele>73.145</ele>
        <time>2020-08-10T07:54:39Z</time>
      </trkpt>
      <trkpt lat="39.501253" lon="-0.549670">
        <ele>72.747</ele>
        <time>2020-08-10T07:54:42Z</time>
      </trkpt>
      <trkpt lat="39.501267" lon="-0.549907">
        <ele>73.211</ele>
        <time>2020-08-10T07:54:45Z</time>
      </trkpt>
      <trkpt lat="39.501288" lon="-0.550212">
        <ele>73.208</ele>
        <time>2020-08-10T07:54:49Z</time>
      </trkpt>
      <trkpt lat="39.501304" lon="-0.550515">
        <ele>72.639</ele>
        <time>2020-08-10T07:54:53Z</time>
      </trkpt>
      <trkpt lat="39.501307" lon="-0.550817">
        <ele>72.648</ele>
        <time>2020-08-10T07:54:57Z</time>
      </trkpt>
      <trkpt lat="39.501325" lon="-0.551105">
        <ele>72.653</ele>
        <time>2020-08-10T07:55:01Z</time>
      </trkpt>
      <trkpt lat="39.501338" lon="-0.551399">
        <ele>73.022</ele>
        <time>2020-08-10T07:55:05Z</time>
      </trkpt>
      <trkpt lat="39.501377" lon="-0.551699">
        <ele>73.162</ele>
        <time>2020-08-10T07:55:09Z</time>
      </trkpt>
      <trkpt lat="39.501461" lon="-0.551983">
        <ele>73.293</ele>
        <time>2020-08-10T07:55:13Z</time>
      </trkpt>
      <trkpt lat="39.501542" lon="-0.552194">
        <ele>73.064</ele>
        <time>2020-08-10T07:55:16Z</time>
      </trkpt>
      <trkpt lat="39.501638" lon="-0.552456">
        <ele>72.975</ele>
        <time>2020-08-10T07:55:20Z</time>
      </trkpt>
      <trkpt lat="39.501744" lon="-0.552719">
        <ele>71.957</ele>
        <time>2020-08-10T07:55:24Z</time>
      </trkpt>
      <trkpt lat="39.501848" lon="-0.552991">
        <ele>69.700</ele>
        <time>2020-08-10T07:55:28Z</time>
      </trkpt>
      <trkpt lat="39.501942" lon="-0.553259">
        <ele>69.220</ele>
        <time>2020-08-10T07:55:32Z</time>
      </trkpt>
      <trkpt lat="39.502042" lon="-0.553530">
        <ele>69.008</ele>
        <time>2020-08-10T07:55:36Z</time>
      </trkpt>
      <trkpt lat="39.502143" lon="-0.553801">
        <ele>68.720</ele>
        <time>2020-08-10T07:55:40Z</time>
      </trkpt>
      <trkpt lat="39.502244" lon="-0.554063">
        <ele>69.269</ele>
        <time>2020-08-10T07:55:44Z</time>
      </trkpt>
      <trkpt lat="39.502348" lon="-0.554312">
        <ele>69.864</ele>
        <time>2020-08-10T07:55:48Z</time>
      </trkpt>
      <trkpt lat="39.502433" lon="-0.554567">
        <ele>70.863</ele>
        <time>2020-08-10T07:55:52Z</time>
      </trkpt>
      <trkpt lat="39.502518" lon="-0.554827">
        <ele>72.033</ele>
        <time>2020-08-10T07:55:56Z</time>
      </trkpt>
      <trkpt lat="39.502596" lon="-0.555079">
        <ele>73.414</ele>
        <time>2020-08-10T07:56:00Z</time>
      </trkpt>
      <trkpt lat="39.502714" lon="-0.555320">
        <ele>72.835</ele>
        <time>2020-08-10T07:56:04Z</time>
      </trkpt>
      <trkpt lat="39.502834" lon="-0.555548">
        <ele>72.436</ele>
        <time>2020-08-10T07:56:08Z</time>
      </trkpt>
      <trkpt lat="39.502945" lon="-0.555780">
        <ele>72.485</ele>
        <time>2020-08-10T07:56:12Z</time>
      </trkpt>
      <trkpt lat="39.503053" lon="-0.555991">
        <ele>72.289</ele>
        <time>2020-08-10T07:56:16Z</time>
      </trkpt>
      <trkpt lat="39.503146" lon="-0.556192">
        <ele>72.017</ele>
        <time>2020-08-10T07:56:20Z</time>
      </trkpt>
      <trkpt lat="39.503260" lon="-0.556414">
        <ele>75.008</ele>
        <time>2020-08-10T07:56:25Z</time>
      </trkpt>
      <trkpt lat="39.503387" lon="-0.556591">
        <ele>76.893</ele>
        <time>2020-08-10T07:56:30Z</time>
      </trkpt>
      <trkpt lat="39.503530" lon="-0.556794">
        <ele>78.342</ele>
        <time>2020-08-10T07:56:36Z</time>
      </trkpt>
      <trkpt lat="39.503683" lon="-0.556969">
        <ele>79.947</ele>
        <time>2020-08-10T07:56:42Z</time>
      </trkpt>
      <trkpt lat="39.503845" lon="-0.557125">
        <ele>80.456</ele>
        <time>2020-08-10T07:56:48Z</time>
      </trkpt>
      <trkpt lat="39.503946" lon="-0.557329">
        <ele>80.196</ele>
        <time>2020-08-10T07:56:55Z</time>
      </trkpt>
      <trkpt lat="39.503776" lon="-0.557431">
        <ele>78.857</ele>
        <time>2020-08-10T07:57:00Z</time>
      </trkpt>
      <trkpt lat="39.503570" lon="-0.557449">
        <ele>75.518</ele>
        <time>2020-08-10T07:57:04Z</time>
      </trkpt>
      <trkpt lat="39.503391" lon="-0.557500">
        <ele>73.329</ele>
        <time>2020-08-10T07:57:07Z</time>
      </trkpt>
      <trkpt lat="39.503176" lon="-0.557537">
        <ele>72.316</ele>
        <time>2020-08-10T07:57:10Z</time>
      </trkpt>
      <trkpt lat="39.502937" lon="-0.557586">
        <ele>71.276</ele>
        <time>2020-08-10T07:57:13Z</time>
      </trkpt>
      <trkpt lat="39.502680" lon="-0.557637">
        <ele>69.713</ele>
        <time>2020-08-10T07:57:16Z</time>
      </trkpt>
      <trkpt lat="39.502488" lon="-0.557691">
        <ele>69.808</ele>
        <time>2020-08-10T07:57:18Z</time>
      </trkpt>
      <trkpt lat="39.502298" lon="-0.557753">
        <ele>67.876</ele>
        <time>2020-08-10T07:57:20Z</time>
      </trkpt>
      <trkpt lat="39.502098" lon="-0.557809">
        <ele>67.245</ele>
        <time>2020-08-10T07:57:22Z</time>
      </trkpt>
      <trkpt lat="39.501907" lon="-0.557850">
        <ele>67.180</ele>
        <time>2020-08-10T07:57:24Z</time>
      </trkpt>
      <trkpt lat="39.501649" lon="-0.557828">
        <ele>67.689</ele>
        <time>2020-08-10T07:57:27Z</time>
      </trkpt>
      <trkpt lat="39.501546" lon="-0.558046">
        <ele>67.749</ele>
        <time>2020-08-10T07:57:32Z</time>
      </trkpt>
      <trkpt lat="39.501670" lon="-0.558223">
        <ele>68.560</ele>
        <time>2020-08-10T07:57:36Z</time>
      </trkpt>
      <trkpt lat="39.501801" lon="-0.558444">
        <ele>68.871</ele>
        <time>2020-08-10T07:57:41Z</time>
      </trkpt>
      <trkpt lat="39.501932" lon="-0.558642">
        <ele>69.762</ele>
        <time>2020-08-10T07:57:46Z</time>
      </trkpt>
      <trkpt lat="39.502030" lon="-0.558870">
        <ele>71.257</ele>
        <time>2020-08-10T07:57:51Z</time>
      </trkpt>
      <trkpt lat="39.502153" lon="-0.559103">
        <ele>70.900</ele>
        <time>2020-08-10T07:57:56Z</time>
      </trkpt>
      <trkpt lat="39.502256" lon="-0.559299">
        <ele>70.720</ele>
        <time>2020-08-10T07:58:00Z</time>
      </trkpt>
      <trkpt lat="39.502369" lon="-0.559499">
        <ele>70.708</ele>
        <time>2020-08-10T07:58:04Z</time>
      </trkpt>
      <trkpt lat="39.502483" lon="-0.559692">
        <ele>69.720</ele>
        <time>2020-08-10T07:58:08Z</time>
      </trkpt>
      <trkpt lat="39.502627" lon="-0.559911">
        <ele>70.279</ele>
        <time>2020-08-10T07:58:13Z</time>
      </trkpt>
      <trkpt lat="39.502755" lon="-0.560131">
        <ele>70.974</ele>
        <time>2020-08-10T07:58:18Z</time>
      </trkpt>
      <trkpt lat="39.502879" lon="-0.560360">
        <ele>70.923</ele>
        <time>2020-08-10T07:58:23Z</time>
      </trkpt>
      <trkpt lat="39.502993" lon="-0.560542">
        <ele>70.013</ele>
        <time>2020-08-10T07:58:27Z</time>
      </trkpt>
      <trkpt lat="39.503152" lon="-0.560717">
        <ele>68.784</ele>
        <time>2020-08-10T07:58:33Z</time>
      </trkpt>
      <trkpt lat="39.503303" lon="-0.560883">
        <ele>70.475</ele>
        <time>2020-08-10T07:58:39Z</time>
      </trkpt>
      <trkpt lat="39.503445" lon="-0.561066">
        <ele>77.096</ele>
        <time>2020-08-10T07:58:47Z</time>
      </trkpt>
      <trkpt lat="39.503570" lon="-0.561233">
        <ele>77.821</ele>
        <time>2020-08-10T07:58:52Z</time>
      </trkpt>
      <trkpt lat="39.503729" lon="-0.561417">
        <ele>78.141</ele>
        <time>2020-08-10T07:58:58Z</time>
      </trkpt>
      <trkpt lat="39.503869" lon="-0.561569">
        <ele>75.805</ele>
        <time>2020-08-10T07:59:03Z</time>
      </trkpt>
      <trkpt lat="39.504008" lon="-0.561719">
        <ele>74.808</ele>
        <time>2020-08-10T07:59:08Z</time>
      </trkpt>
      <trkpt lat="39.504158" lon="-0.561877">
        <ele>73.267</ele>
        <time>2020-08-10T07:59:13Z</time>
      </trkpt>
      <trkpt lat="39.504300" lon="-0.562034">
        <ele>74.396</ele>
        <time>2020-08-10T07:59:18Z</time>
      </trkpt>
      <trkpt lat="39.504446" lon="-0.562217">
        <ele>75.621</ele>
        <time>2020-08-10T07:59:24Z</time>
      </trkpt>
      <trkpt lat="39.504601" lon="-0.562390">
        <ele>76.780</ele>
        <time>2020-08-10T07:59:30Z</time>
      </trkpt>
      <trkpt lat="39.504761" lon="-0.562563">
        <ele>77.630</ele>
        <time>2020-08-10T07:59:36Z</time>
      </trkpt>
      <trkpt lat="39.504857" lon="-0.562780">
        <ele>77.771</ele>
        <time>2020-08-10T07:59:42Z</time>
      </trkpt>
      <trkpt lat="39.504885" lon="-0.563042">
        <ele>79.972</ele>
        <time>2020-08-10T08:00:28Z</time>
      </trkpt>
      <trkpt lat="39.504900" lon="-0.563285">
        <ele>81.713</ele>
        <time>2020-08-10T08:00:35Z</time>
      </trkpt>
      <trkpt lat="39.504918" lon="-0.563531">
        <ele>81.265</ele>
        <time>2020-08-10T08:00:42Z</time>
      </trkpt>
      <trkpt lat="39.504940" lon="-0.563773">
        <ele>81.768</ele>
        <time>2020-08-10T08:00:48Z</time>
      </trkpt>
      <trkpt lat="39.504963" lon="-0.564038">
        <ele>83.414</ele>
        <time>2020-08-10T08:00:55Z</time>
      </trkpt>
      <trkpt lat="39.504981" lon="-0.564273">
        <ele>83.208</ele>
        <time>2020-08-10T08:01:01Z</time>
      </trkpt>
      <trkpt lat="39.504985" lon="-0.564542">
        <ele>84.461</ele>
        <time>2020-08-10T08:01:08Z</time>
      </trkpt>
      <trkpt lat="39.505003" lon="-0.564810">
        <ele>85.520</ele>
        <time>2020-08-10T08:01:15Z</time>
      </trkpt>
      <trkpt lat="39.505023" lon="-0.565043">
        <ele>86.915</ele>
        <time>2020-08-10T08:01:22Z</time>
      </trkpt>
      <trkpt lat="39.504868" lon="-0.565170">
        <ele>87.734</ele>
        <time>2020-08-10T08:01:48Z</time>
      </trkpt>
      <trkpt lat="39.504648" lon="-0.565164">
        <ele>88.214</ele>
        <time>2020-08-10T08:01:53Z</time>
      </trkpt>
      <trkpt lat="39.504458" lon="-0.565161">
        <ele>87.325</ele>
        <time>2020-08-10T08:01:57Z</time>
      </trkpt>
      <trkpt lat="39.504261" lon="-0.565159">
        <ele>86.776</ele>
        <time>2020-08-10T08:02:01Z</time>
      </trkpt>
      <trkpt lat="39.504063" lon="-0.565154">
        <ele>87.457</ele>
        <time>2020-08-10T08:02:05Z</time>
      </trkpt>
      <trkpt lat="39.503862" lon="-0.565151">
        <ele>87.772</ele>
        <time>2020-08-10T08:02:09Z</time>
      </trkpt>
      <trkpt lat="39.503652" lon="-0.565146">
        <ele>87.913</ele>
        <time>2020-08-10T08:02:13Z</time>
      </trkpt>
      <trkpt lat="39.503431" lon="-0.565135">
        <ele>88.514</ele>
        <time>2020-08-10T08:02:17Z</time>
      </trkpt>
      <trkpt lat="39.503196" lon="-0.565129">
        <ele>88.908</ele>
        <time>2020-08-10T08:02:21Z</time>
      </trkpt>
      <trkpt lat="39.503010" lon="-0.565135">
        <ele>88.052</ele>
        <time>2020-08-10T08:02:24Z</time>
      </trkpt>
      <trkpt lat="39.502808" lon="-0.565137">
        <ele>86.611</ele>
        <time>2020-08-10T08:02:27Z</time>
      </trkpt>
      <trkpt lat="39.502600" lon="-0.565129">
        <ele>86.076</ele>
        <time>2020-08-10T08:02:30Z</time>
      </trkpt>
      <trkpt lat="39.502384" lon="-0.565135">
        <ele>85.765</ele>
        <time>2020-08-10T08:02:33Z</time>
      </trkpt>
      <trkpt lat="39.502163" lon="-0.565166">
        <ele>84.895</ele>
        <time>2020-08-10T08:02:36Z</time>
      </trkpt>
      <trkpt lat="39.501928" lon="-0.565229">
        <ele>84.076</ele>
        <time>2020-08-10T08:02:39Z</time>
      </trkpt>
      <trkpt lat="39.501682" lon="-0.565327">
        <ele>83.427</ele>
        <time>2020-08-10T08:02:42Z</time>
      </trkpt>
      <trkpt lat="39.501514" lon="-0.565412">
        <ele>82.778</ele>
        <time>2020-08-10T08:02:44Z</time>
      </trkpt>
      <trkpt lat="39.501339" lon="-0.565502">
        <ele>82.247</ele>
        <time>2020-08-10T08:02:46Z</time>
      </trkpt>
      <trkpt lat="39.501158" lon="-0.565591">
        <ele>81.129</ele>
        <time>2020-08-10T08:02:48Z</time>
      </trkpt>
      <trkpt lat="39.500972" lon="-0.565682">
        <ele>79.921</ele>
        <time>2020-08-10T08:02:50Z</time>
      </trkpt>
      <trkpt lat="39.500782" lon="-0.565776">
        <ele>79.008</ele>
        <time>2020-08-10T08:02:52Z</time>
      </trkpt>
      <trkpt lat="39.500594" lon="-0.565872">
        <ele>78.359</ele>
        <time>2020-08-10T08:02:54Z</time>
      </trkpt>
      <trkpt lat="39.500410" lon="-0.565964">
        <ele>77.868</ele>
        <time>2020-08-10T08:02:56Z</time>
      </trkpt>
      <trkpt lat="39.500237" lon="-0.566044">
        <ele>77.573</ele>
        <time>2020-08-10T08:02:58Z</time>
      </trkpt>
      <trkpt lat="39.500064" lon="-0.566126">
        <ele>76.942</ele>
        <time>2020-08-10T08:03:00Z</time>
      </trkpt>
      <trkpt lat="39.499811" lon="-0.566245">
        <ele>75.732</ele>
        <time>2020-08-10T08:03:03Z</time>
      </trkpt>
      <trkpt lat="39.499574" lon="-0.566354">
        <ele>75.043</ele>
        <time>2020-08-10T08:03:06Z</time>
      </trkpt>
      <trkpt lat="39.499335" lon="-0.566470">
        <ele>75.164</ele>
        <time>2020-08-10T08:03:09Z</time>
      </trkpt>
      <trkpt lat="39.499088" lon="-0.566580">
        <ele>75.125</ele>
        <time>2020-08-10T08:03:12Z</time>
      </trkpt>
      <trkpt lat="39.498837" lon="-0.566692">
        <ele>75.285</ele>
        <time>2020-08-10T08:03:15Z</time>
      </trkpt>
      <trkpt lat="39.498595" lon="-0.566806">
        <ele>75.389</ele>
        <time>2020-08-10T08:03:18Z</time>
      </trkpt>
      <trkpt lat="39.498358" lon="-0.566922">
        <ele>75.317</ele>
        <time>2020-08-10T08:03:21Z</time>
      </trkpt>
      <trkpt lat="39.498136" lon="-0.567035">
        <ele>74.808</ele>
        <time>2020-08-10T08:03:24Z</time>
      </trkpt>
      <trkpt lat="39.497922" lon="-0.567143">
        <ele>74.543</ele>
        <time>2020-08-10T08:03:27Z</time>
      </trkpt>
      <trkpt lat="39.497721" lon="-0.567243">
        <ele>74.482</ele>
        <time>2020-08-10T08:03:30Z</time>
      </trkpt>
      <trkpt lat="39.497515" lon="-0.567344">
        <ele>73.997</ele>
        <time>2020-08-10T08:03:33Z</time>
      </trkpt>
      <trkpt lat="39.497306" lon="-0.567454">
        <ele>73.116</ele>
        <time>2020-08-10T08:03:36Z</time>
      </trkpt>
      <trkpt lat="39.497098" lon="-0.567561">
        <ele>72.366</ele>
        <time>2020-08-10T08:03:39Z</time>
      </trkpt>
      <trkpt lat="39.496893" lon="-0.567658">
        <ele>72.197</ele>
        <time>2020-08-10T08:03:42Z</time>
      </trkpt>
      <trkpt lat="39.496684" lon="-0.567761">
        <ele>71.438</ele>
        <time>2020-08-10T08:03:45Z</time>
      </trkpt>
      <trkpt lat="39.496477" lon="-0.567865">
        <ele>70.649</ele>
        <time>2020-08-10T08:03:48Z</time>
      </trkpt>
      <trkpt lat="39.496267" lon="-0.567974">
        <ele>70.123</ele>
        <time>2020-08-10T08:03:51Z</time>
      </trkpt>
      <trkpt lat="39.496051" lon="-0.568074">
        <ele>69.683</ele>
        <time>2020-08-10T08:03:54Z</time>
      </trkpt>
      <trkpt lat="39.495835" lon="-0.568185">
        <ele>69.111</ele>
        <time>2020-08-10T08:03:57Z</time>
      </trkpt>
      <trkpt lat="39.495619" lon="-0.568297">
        <ele>68.708</ele>
        <time>2020-08-10T08:04:00Z</time>
      </trkpt>
      <trkpt lat="39.495412" lon="-0.568437">
        <ele>68.857</ele>
        <time>2020-08-10T08:04:03Z</time>
      </trkpt>
      <trkpt lat="39.495232" lon="-0.568570">
        <ele>68.226</ele>
        <time>2020-08-10T08:04:06Z</time>
      </trkpt>
      <trkpt lat="39.495039" lon="-0.568506">
        <ele>67.381</ele>
        <time>2020-08-10T08:04:09Z</time>
      </trkpt>
      <trkpt lat="39.494857" lon="-0.568390">
        <ele>66.730</ele>
        <time>2020-08-10T08:04:12Z</time>
      </trkpt>
      <trkpt lat="39.494658" lon="-0.568330">
        <ele>66.950</ele>
        <time>2020-08-10T08:04:15Z</time>
      </trkpt>
      <trkpt lat="39.494464" lon="-0.568291">
        <ele>67.061</ele>
        <time>2020-08-10T08:04:18Z</time>
      </trkpt>
      <trkpt lat="39.494264" lon="-0.568264">
        <ele>66.592</ele>
        <time>2020-08-10T08:04:21Z</time>
      </trkpt>
      <trkpt lat="39.494054" lon="-0.568233">
        <ele>66.753</ele>
        <time>2020-08-10T08:04:24Z</time>
      </trkpt>
      <trkpt lat="39.493829" lon="-0.568203">
        <ele>65.637</ele>
        <time>2020-08-10T08:04:27Z</time>
      </trkpt>
      <trkpt lat="39.493604" lon="-0.568169">
        <ele>64.049</ele>
        <time>2020-08-10T08:04:30Z</time>
      </trkpt>
      <trkpt lat="39.493361" lon="-0.568133">
        <ele>62.813</ele>
        <time>2020-08-10T08:04:33Z</time>
      </trkpt>
      <trkpt lat="39.493115" lon="-0.568094">
        <ele>62.708</ele>
        <time>2020-08-10T08:04:36Z</time>
      </trkpt>
      <trkpt lat="39.492863" lon="-0.568064">
        <ele>62.058</ele>
        <time>2020-08-10T08:04:39Z</time>
      </trkpt>
      <trkpt lat="39.492612" lon="-0.568032">
        <ele>61.237</ele>
        <time>2020-08-10T08:04:42Z</time>
      </trkpt>
      <trkpt lat="39.492342" lon="-0.567996">
        <ele>60.822</ele>
        <time>2020-08-10T08:04:45Z</time>
      </trkpt>
      <trkpt lat="39.492075" lon="-0.567958">
        <ele>60.691</ele>
        <time>2020-08-10T08:04:48Z</time>
      </trkpt>
      <trkpt lat="39.491814" lon="-0.567922">
        <ele>60.041</ele>
        <time>2020-08-10T08:04:51Z</time>
      </trkpt>
      <trkpt lat="39.491566" lon="-0.567885">
        <ele>59.172</ele>
        <time>2020-08-10T08:04:54Z</time>
      </trkpt>
      <trkpt lat="39.491314" lon="-0.567848">
        <ele>58.413</ele>
        <time>2020-08-10T08:04:57Z</time>
      </trkpt>
      <trkpt lat="39.491070" lon="-0.567813">
        <ele>58.414</ele>
        <time>2020-08-10T08:05:00Z</time>
      </trkpt>
      <trkpt lat="39.490830" lon="-0.567771">
        <ele>58.512</ele>
        <time>2020-08-10T08:05:03Z</time>
      </trkpt>
      <trkpt lat="39.490601" lon="-0.567740">
        <ele>58.132</ele>
        <time>2020-08-10T08:05:06Z</time>
      </trkpt>
      <trkpt lat="39.490375" lon="-0.567704">
        <ele>57.205</ele>
        <time>2020-08-10T08:05:09Z</time>
      </trkpt>
      <trkpt lat="39.490157" lon="-0.567680">
        <ele>56.508</ele>
        <time>2020-08-10T08:05:12Z</time>
      </trkpt>
      <trkpt lat="39.489930" lon="-0.567648">
        <ele>56.296</ele>
        <time>2020-08-10T08:05:15Z</time>
      </trkpt>
      <trkpt lat="39.489704" lon="-0.567616">
        <ele>55.945</ele>
        <time>2020-08-10T08:05:18Z</time>
      </trkpt>
      <trkpt lat="39.489481" lon="-0.567583">
        <ele>55.640</ele>
        <time>2020-08-10T08:05:21Z</time>
      </trkpt>
      <trkpt lat="39.489265" lon="-0.567562">
        <ele>54.389</ele>
        <time>2020-08-10T08:05:24Z</time>
      </trkpt>
      <trkpt lat="39.489060" lon="-0.567582">
        <ele>53.829</ele>
        <time>2020-08-10T08:05:27Z</time>
      </trkpt>
      <trkpt lat="39.488854" lon="-0.567730">
        <ele>54.130</ele>
        <time>2020-08-10T08:05:31Z</time>
      </trkpt>
      <trkpt lat="39.488754" lon="-0.567973">
        <ele>54.731</ele>
        <time>2020-08-10T08:05:35Z</time>
      </trkpt>
      <trkpt lat="39.488717" lon="-0.568222">
        <ele>55.352</ele>
        <time>2020-08-10T08:05:39Z</time>
      </trkpt>
      <trkpt lat="39.488671" lon="-0.568469">
        <ele>55.059</ele>
        <time>2020-08-10T08:05:45Z</time>
      </trkpt>
      <trkpt lat="39.488493" lon="-0.568406">
        <ele>55.203</ele>
        <time>2020-08-10T08:05:50Z</time>
      </trkpt>
      <trkpt lat="39.488284" lon="-0.568388">
        <ele>54.823</ele>
        <time>2020-08-10T08:05:55Z</time>
      </trkpt>
      <trkpt lat="39.488022" lon="-0.568342">
        <ele>54.208</ele>
        <time>2020-08-10T08:06:01Z</time>
      </trkpt>
      <trkpt lat="39.487805" lon="-0.568306">
        <ele>55.840</ele>
        <time>2020-08-10T08:06:05Z</time>
      </trkpt>
      <trkpt lat="39.487584" lon="-0.568280">
        <ele>56.239</ele>
        <time>2020-08-10T08:06:09Z</time>
      </trkpt>
      <trkpt lat="39.487378" lon="-0.568267">
        <ele>55.744</ele>
        <time>2020-08-10T08:06:13Z</time>
      </trkpt>
      <trkpt lat="39.487188" lon="-0.568227">
        <ele>53.363</ele>
        <time>2020-08-10T08:06:17Z</time>
      </trkpt>
      <trkpt lat="39.486992" lon="-0.568200">
        <ele>51.383</ele>
        <time>2020-08-10T08:06:21Z</time>
      </trkpt>
      <trkpt lat="39.486800" lon="-0.568181">
        <ele>50.594</ele>
        <time>2020-08-10T08:06:25Z</time>
      </trkpt>
      <trkpt lat="39.486617" lon="-0.568156">
        <ele>50.465</ele>
        <time>2020-08-10T08:06:29Z</time>
      </trkpt>
      <trkpt lat="39.486424" lon="-0.568134">
        <ele>51.126</ele>
        <time>2020-08-10T08:06:34Z</time>
      </trkpt>
      <trkpt lat="39.486319" lon="-0.567895">
        <ele>50.311</ele>
        <time>2020-08-10T08:06:41Z</time>
      </trkpt>
      <trkpt lat="39.486322" lon="-0.567631">
        <ele>50.421</ele>
        <time>2020-08-10T08:06:46Z</time>
      </trkpt>
      <trkpt lat="39.486326" lon="-0.567367">
        <ele>50.403</ele>
        <time>2020-08-10T08:06:51Z</time>
      </trkpt>
      <trkpt lat="39.486271" lon="-0.567138">
        <ele>49.708</ele>
        <time>2020-08-10T08:07:01Z</time>
      </trkpt>
      <trkpt lat="39.486077" lon="-0.567105">
        <ele>50.626</ele>
        <time>2020-08-10T08:07:07Z</time>
      </trkpt>
      <trkpt lat="39.485883" lon="-0.567060">
        <ele>50.415</ele>
        <time>2020-08-10T08:07:14Z</time>
      </trkpt>
      <trkpt lat="39.485707" lon="-0.567120">
        <ele>48.990</ele>
        <time>2020-08-10T08:07:24Z</time>
      </trkpt>
      <trkpt lat="39.485517" lon="-0.567039">
        <ele>107.519</ele>
        <time>2020-08-10T08:09:50Z</time>
      </trkpt>
      <trkpt lat="39.485335" lon="-0.567111">
        <ele>55.529</ele>
        <time>2020-08-10T08:11:01Z</time>
      </trkpt>
      <trkpt lat="39.485261" lon="-0.567335">
        <ele>54.760</ele>
        <time>2020-08-10T08:11:09Z</time>
      </trkpt>
      <trkpt lat="39.485232" lon="-0.567566">
        <ele>55.421</ele>
        <time>2020-08-10T08:11:15Z</time>
      </trkpt>
      <trkpt lat="39.485251" lon="-0.567809">
        <ele>55.212</ele>
        <time>2020-08-10T08:11:21Z</time>
      </trkpt>
      <trkpt lat="39.485287" lon="-0.568053">
        <ele>54.847</ele>
        <time>2020-08-10T08:11:27Z</time>
      </trkpt>
      <trkpt lat="39.485326" lon="-0.568304">
        <ele>52.729</ele>
        <time>2020-08-10T08:11:33Z</time>
      </trkpt>
      <trkpt lat="39.485354" lon="-0.568572">
        <ele>51.821</ele>
        <time>2020-08-10T08:11:39Z</time>
      </trkpt>
      <trkpt lat="39.485385" lon="-0.568804">
        <ele>52.708</ele>
        <time>2020-08-10T08:11:44Z</time>
      </trkpt>
      <trkpt lat="39.485406" lon="-0.569047">
        <ele>55.469</ele>
        <time>2020-08-10T08:11:49Z</time>
      </trkpt>
      <trkpt lat="39.485437" lon="-0.569307">
        <ele>57.598</ele>
        <time>2020-08-10T08:11:54Z</time>
      </trkpt>
      <trkpt lat="39.485463" lon="-0.569587">
        <ele>59.613</ele>
        <time>2020-08-10T08:11:59Z</time>
      </trkpt>
      <trkpt lat="39.485493" lon="-0.569867">
        <ele>59.992</ele>
        <time>2020-08-10T08:12:04Z</time>
      </trkpt>
      <trkpt lat="39.485524" lon="-0.570153">
        <ele>59.632</ele>
        <time>2020-08-10T08:12:09Z</time>
      </trkpt>
      <trkpt lat="39.485545" lon="-0.570438">
        <ele>60.023</ele>
        <time>2020-08-10T08:12:14Z</time>
      </trkpt>
      <trkpt lat="39.485559" lon="-0.570726">
        <ele>60.614</ele>
        <time>2020-08-10T08:12:19Z</time>
      </trkpt>
      <trkpt lat="39.485569" lon="-0.571015">
        <ele>60.645</ele>
        <time>2020-08-10T08:12:24Z</time>
      </trkpt>
      <trkpt lat="39.485572" lon="-0.571251">
        <ele>60.315</ele>
        <time>2020-08-10T08:12:28Z</time>
      </trkpt>
      <trkpt lat="39.485566" lon="-0.571540">
        <ele>61.165</ele>
        <time>2020-08-10T08:12:33Z</time>
      </trkpt>
      <trkpt lat="39.485561" lon="-0.571782">
        <ele>60.711</ele>
        <time>2020-08-10T08:12:37Z</time>
      </trkpt>
      <trkpt lat="39.485550" lon="-0.572021">
        <ele>60.308</ele>
        <time>2020-08-10T08:12:41Z</time>
      </trkpt>
      <trkpt lat="39.485545" lon="-0.572261">
        <ele>60.136</ele>
        <time>2020-08-10T08:12:45Z</time>
      </trkpt>
      <trkpt lat="39.485535" lon="-0.572504">
        <ele>60.085</ele>
        <time>2020-08-10T08:12:49Z</time>
      </trkpt>
      <trkpt lat="39.485524" lon="-0.572756">
        <ele>60.080</ele>
        <time>2020-08-10T08:12:53Z</time>
      </trkpt>
      <trkpt lat="39.485513" lon="-0.573010">
        <ele>59.839</ele>
        <time>2020-08-10T08:12:57Z</time>
      </trkpt>
      <trkpt lat="39.485503" lon="-0.573261">
        <ele>60.089</ele>
        <time>2020-08-10T08:13:01Z</time>
      </trkpt>
      <trkpt lat="39.485497" lon="-0.573516">
        <ele>60.090</ele>
        <time>2020-08-10T08:13:05Z</time>
      </trkpt>
      <trkpt lat="39.485494" lon="-0.573771">
        <ele>60.271</ele>
        <time>2020-08-10T08:13:09Z</time>
      </trkpt>
      <trkpt lat="39.485484" lon="-0.574028">
        <ele>60.792</ele>
        <time>2020-08-10T08:13:13Z</time>
      </trkpt>
      <trkpt lat="39.485475" lon="-0.574287">
        <ele>61.017</ele>
        <time>2020-08-10T08:13:17Z</time>
      </trkpt>
      <trkpt lat="39.485476" lon="-0.574549">
        <ele>61.787</ele>
        <time>2020-08-10T08:13:21Z</time>
      </trkpt>
      <trkpt lat="39.485467" lon="-0.574817">
        <ele>62.915</ele>
        <time>2020-08-10T08:13:25Z</time>
      </trkpt>
      <trkpt lat="39.485457" lon="-0.575076">
        <ele>63.108</ele>
        <time>2020-08-10T08:13:29Z</time>
      </trkpt>
      <trkpt lat="39.485440" lon="-0.575332">
        <ele>63.866</ele>
        <time>2020-08-10T08:13:33Z</time>
      </trkpt>
      <trkpt lat="39.485440" lon="-0.575589">
        <ele>64.545</ele>
        <time>2020-08-10T08:13:37Z</time>
      </trkpt>
      <trkpt lat="39.485442" lon="-0.575858">
        <ele>64.490</ele>
        <time>2020-08-10T08:13:41Z</time>
      </trkpt>
      <trkpt lat="39.485437" lon="-0.576135">
        <ele>63.569</ele>
        <time>2020-08-10T08:13:45Z</time>
      </trkpt>
      <trkpt lat="39.485428" lon="-0.576405">
        <ele>63.639</ele>
        <time>2020-08-10T08:13:49Z</time>
      </trkpt>
      <trkpt lat="39.485419" lon="-0.576675">
        <ele>63.770</ele>
        <time>2020-08-10T08:13:53Z</time>
      </trkpt>
      <trkpt lat="39.485410" lon="-0.576940">
        <ele>63.311</ele>
        <time>2020-08-10T08:13:57Z</time>
      </trkpt>
      <trkpt lat="39.485400" lon="-0.577205">
        <ele>62.432</ele>
        <time>2020-08-10T08:14:01Z</time>
      </trkpt>
      <trkpt lat="39.485392" lon="-0.577474">
        <ele>61.483</ele>
        <time>2020-08-10T08:14:05Z</time>
      </trkpt>
      <trkpt lat="39.485381" lon="-0.577742">
        <ele>60.325</ele>
        <time>2020-08-10T08:14:09Z</time>
      </trkpt>
      <trkpt lat="39.485374" lon="-0.578002">
        <ele>59.717</ele>
        <time>2020-08-10T08:14:13Z</time>
      </trkpt>
      <trkpt lat="39.485365" lon="-0.578257">
        <ele>59.708</ele>
        <time>2020-08-10T08:14:17Z</time>
      </trkpt>
      <trkpt lat="39.485356" lon="-0.578509">
        <ele>60.193</ele>
        <time>2020-08-10T08:14:21Z</time>
      </trkpt>
      <trkpt lat="39.485345" lon="-0.578757">
        <ele>60.652</ele>
        <time>2020-08-10T08:14:25Z</time>
      </trkpt>
      <trkpt lat="39.485340" lon="-0.578996">
        <ele>61.147</ele>
        <time>2020-08-10T08:14:29Z</time>
      </trkpt>
      <trkpt lat="39.485331" lon="-0.579233">
        <ele>61.666</ele>
        <time>2020-08-10T08:14:33Z</time>
      </trkpt>
      <trkpt lat="39.485323" lon="-0.579467">
        <ele>61.956</ele>
        <time>2020-08-10T08:14:37Z</time>
      </trkpt>
      <trkpt lat="39.485315" lon="-0.579756">
        <ele>62.087</ele>
        <time>2020-08-10T08:14:42Z</time>
      </trkpt>
      <trkpt lat="39.485311" lon="-0.580044">
        <ele>61.748</ele>
        <time>2020-08-10T08:14:47Z</time>
      </trkpt>
      <trkpt lat="39.485306" lon="-0.580285">
        <ele>61.859</ele>
        <time>2020-08-10T08:14:51Z</time>
      </trkpt>
      <trkpt lat="39.485301" lon="-0.580524">
        <ele>62.152</ele>
        <time>2020-08-10T08:14:55Z</time>
      </trkpt>
      <trkpt lat="39.485293" lon="-0.580761">
        <ele>62.653</ele>
        <time>2020-08-10T08:14:59Z</time>
      </trkpt>
      <trkpt lat="39.485289" lon="-0.580999">
        <ele>62.308</ele>
        <time>2020-08-10T08:15:03Z</time>
      </trkpt>
      <trkpt lat="39.485281" lon="-0.581241">
        <ele>62.208</ele>
        <time>2020-08-10T08:15:07Z</time>
      </trkpt>
      <trkpt lat="39.485273" lon="-0.581481">
        <ele>62.150</ele>
        <time>2020-08-10T08:15:11Z</time>
      </trkpt>
      <trkpt lat="39.485265" lon="-0.581724">
        <ele>62.389</ele>
        <time>2020-08-10T08:15:15Z</time>
      </trkpt>
      <trkpt lat="39.485258" lon="-0.581962">
        <ele>62.724</ele>
        <time>2020-08-10T08:15:19Z</time>
      </trkpt>
      <trkpt lat="39.485248" lon="-0.582203">
        <ele>63.173</ele>
        <time>2020-08-10T08:15:23Z</time>
      </trkpt>
      <trkpt lat="39.485243" lon="-0.582456">
        <ele>62.743</ele>
        <time>2020-08-10T08:15:27Z</time>
      </trkpt>
      <trkpt lat="39.485235" lon="-0.582715">
        <ele>62.624</ele>
        <time>2020-08-10T08:15:31Z</time>
      </trkpt>
      <trkpt lat="39.485225" lon="-0.582976">
        <ele>62.435</ele>
        <time>2020-08-10T08:15:35Z</time>
      </trkpt>
      <trkpt lat="39.485215" lon="-0.583235">
        <ele>62.216</ele>
        <time>2020-08-10T08:15:39Z</time>
      </trkpt>
      <trkpt lat="39.485204" lon="-0.583484">
        <ele>62.175</ele>
        <time>2020-08-10T08:15:43Z</time>
      </trkpt>
      <trkpt lat="39.485183" lon="-0.583736">
        <ele>62.228</ele>
        <time>2020-08-10T08:15:47Z</time>
      </trkpt>
      <trkpt lat="39.485153" lon="-0.583988">
        <ele>62.620</ele>
        <time>2020-08-10T08:15:51Z</time>
      </trkpt>
      <trkpt lat="39.485122" lon="-0.584245">
        <ele>63.408</ele>
        <time>2020-08-10T08:15:55Z</time>
      </trkpt>
      <trkpt lat="39.485087" lon="-0.584512">
        <ele>63.662</ele>
        <time>2020-08-10T08:15:59Z</time>
      </trkpt>
      <trkpt lat="39.485063" lon="-0.584786">
        <ele>63.631</ele>
        <time>2020-08-10T08:16:03Z</time>
      </trkpt>
      <trkpt lat="39.485058" lon="-0.585049">
        <ele>62.216</ele>
        <time>2020-08-10T08:16:07Z</time>
      </trkpt>
      <trkpt lat="39.485051" lon="-0.585284">
        <ele>60.625</ele>
        <time>2020-08-10T08:16:11Z</time>
      </trkpt>
      <trkpt lat="39.485055" lon="-0.585559">
        <ele>60.835</ele>
        <time>2020-08-10T08:16:16Z</time>
      </trkpt>
      <trkpt lat="39.485034" lon="-0.585839">
        <ele>61.516</ele>
        <time>2020-08-10T08:16:21Z</time>
      </trkpt>
      <trkpt lat="39.484985" lon="-0.586113">
        <ele>61.757</ele>
        <time>2020-08-10T08:16:26Z</time>
      </trkpt>
      <trkpt lat="39.484919" lon="-0.586337">
        <ele>61.558</ele>
        <time>2020-08-10T08:16:30Z</time>
      </trkpt>
      <trkpt lat="39.484819" lon="-0.586556">
        <ele>61.348</ele>
        <time>2020-08-10T08:16:34Z</time>
      </trkpt>
      <trkpt lat="39.484704" lon="-0.586776">
        <ele>61.361</ele>
        <time>2020-08-10T08:16:38Z</time>
      </trkpt>
      <trkpt lat="39.484586" lon="-0.586996">
        <ele>62.517</ele>
        <time>2020-08-10T08:16:42Z</time>
      </trkpt>
      <trkpt lat="39.484470" lon="-0.587211">
        <ele>63.908</ele>
        <time>2020-08-10T08:16:46Z</time>
      </trkpt>
      <trkpt lat="39.484356" lon="-0.587432">
        <ele>65.249</ele>
        <time>2020-08-10T08:16:50Z</time>
      </trkpt>
      <trkpt lat="39.484247" lon="-0.587647">
        <ele>65.378</ele>
        <time>2020-08-10T08:16:54Z</time>
      </trkpt>
      <trkpt lat="39.484143" lon="-0.587864">
        <ele>65.863</ele>
        <time>2020-08-10T08:16:58Z</time>
      </trkpt>
      <trkpt lat="39.484047" lon="-0.588072">
        <ele>65.462</ele>
        <time>2020-08-10T08:17:02Z</time>
      </trkpt>
      <trkpt lat="39.483970" lon="-0.588286">
        <ele>64.962</ele>
        <time>2020-08-10T08:17:06Z</time>
      </trkpt>
      <trkpt lat="39.483954" lon="-0.588522">
        <ele>64.973</ele>
        <time>2020-08-10T08:17:10Z</time>
      </trkpt>
      <trkpt lat="39.483902" lon="-0.588756">
        <ele>65.064</ele>
        <time>2020-08-10T08:17:14Z</time>
      </trkpt>
      <trkpt lat="39.483797" lon="-0.588979">
        <ele>64.755</ele>
        <time>2020-08-10T08:17:18Z</time>
      </trkpt>
      <trkpt lat="39.483740" lon="-0.589229">
        <ele>64.519</ele>
        <time>2020-08-10T08:17:22Z</time>
      </trkpt>
      <trkpt lat="39.483713" lon="-0.589480">
        <ele>64.509</ele>
        <time>2020-08-10T08:17:26Z</time>
      </trkpt>
      <trkpt lat="39.483701" lon="-0.589727">
        <ele>64.919</ele>
        <time>2020-08-10T08:17:30Z</time>
      </trkpt>
      <trkpt lat="39.483695" lon="-0.589977">
        <ele>65.208</ele>
        <time>2020-08-10T08:17:34Z</time>
      </trkpt>
      <trkpt lat="39.483690" lon="-0.590221">
        <ele>65.516</ele>
        <time>2020-08-10T08:17:38Z</time>
      </trkpt>
      <trkpt lat="39.483683" lon="-0.590457">
        <ele>66.065</ele>
        <time>2020-08-10T08:17:42Z</time>
      </trkpt>
      <trkpt lat="39.483681" lon="-0.590694">
        <ele>66.650</ele>
        <time>2020-08-10T08:17:46Z</time>
      </trkpt>
      <trkpt lat="39.483682" lon="-0.590942">
        <ele>65.349</ele>
        <time>2020-08-10T08:17:50Z</time>
      </trkpt>
      <trkpt lat="39.483686" lon="-0.591186">
        <ele>63.989</ele>
        <time>2020-08-10T08:17:54Z</time>
      </trkpt>
      <trkpt lat="39.483683" lon="-0.591420">
        <ele>64.370</ele>
        <time>2020-08-10T08:17:58Z</time>
      </trkpt>
      <trkpt lat="39.483674" lon="-0.591658">
        <ele>64.951</ele>
        <time>2020-08-10T08:18:02Z</time>
      </trkpt>
      <trkpt lat="39.483660" lon="-0.591893">
        <ele>65.932</ele>
        <time>2020-08-10T08:18:06Z</time>
      </trkpt>
      <trkpt lat="39.483638" lon="-0.592174">
        <ele>66.782</ele>
        <time>2020-08-10T08:18:11Z</time>
      </trkpt>
      <trkpt lat="39.483608" lon="-0.592455">
        <ele>67.843</ele>
        <time>2020-08-10T08:18:16Z</time>
      </trkpt>
      <trkpt lat="39.483585" lon="-0.592691">
        <ele>68.717</ele>
        <time>2020-08-10T08:18:20Z</time>
      </trkpt>
      <trkpt lat="39.483559" lon="-0.592978">
        <ele>69.808</ele>
        <time>2020-08-10T08:18:25Z</time>
      </trkpt>
      <trkpt lat="39.483535" lon="-0.593263">
        <ele>70.243</ele>
        <time>2020-08-10T08:18:30Z</time>
      </trkpt>
      <trkpt lat="39.483510" lon="-0.593544">
        <ele>70.452</ele>
        <time>2020-08-10T08:18:35Z</time>
      </trkpt>
      <trkpt lat="39.483492" lon="-0.593829">
        <ele>70.347</ele>
        <time>2020-08-10T08:18:40Z</time>
      </trkpt>
      <trkpt lat="39.483482" lon="-0.594071">
        <ele>70.336</ele>
        <time>2020-08-10T08:18:44Z</time>
      </trkpt>
      <trkpt lat="39.483493" lon="-0.594318">
        <ele>70.396</ele>
        <time>2020-08-10T08:18:48Z</time>
      </trkpt>
      <trkpt lat="39.483508" lon="-0.594562">
        <ele>70.577</ele>
        <time>2020-08-10T08:18:52Z</time>
      </trkpt>
      <trkpt lat="39.483523" lon="-0.594812">
        <ele>70.958</ele>
        <time>2020-08-10T08:18:56Z</time>
      </trkpt>
      <trkpt lat="39.483542" lon="-0.595059">
        <ele>71.579</ele>
        <time>2020-08-10T08:19:00Z</time>
      </trkpt>
      <trkpt lat="39.483565" lon="-0.595297">
        <ele>71.499</ele>
        <time>2020-08-10T08:19:04Z</time>
      </trkpt>
      <trkpt lat="39.483583" lon="-0.595530">
        <ele>71.107</ele>
        <time>2020-08-10T08:19:08Z</time>
      </trkpt>
      <trkpt lat="39.483600" lon="-0.595814">
        <ele>71.727</ele>
        <time>2020-08-10T08:19:13Z</time>
      </trkpt>
      <trkpt lat="39.483617" lon="-0.596103">
        <ele>72.808</ele>
        <time>2020-08-10T08:19:18Z</time>
      </trkpt>
      <trkpt lat="39.483640" lon="-0.596342">
        <ele>73.534</ele>
        <time>2020-08-10T08:19:22Z</time>
      </trkpt>
      <trkpt lat="39.483683" lon="-0.596582">
        <ele>73.243</ele>
        <time>2020-08-10T08:19:26Z</time>
      </trkpt>
      <trkpt lat="39.483758" lon="-0.596805">
        <ele>73.258</ele>
        <time>2020-08-10T08:19:30Z</time>
      </trkpt>
      <trkpt lat="39.483862" lon="-0.597012">
        <ele>73.377</ele>
        <time>2020-08-10T08:19:34Z</time>
      </trkpt>
      <trkpt lat="39.483967" lon="-0.597239">
        <ele>73.017</ele>
        <time>2020-08-10T08:19:38Z</time>
      </trkpt>
      <trkpt lat="39.484072" lon="-0.597479">
        <ele>72.948</ele>
        <time>2020-08-10T08:19:42Z</time>
      </trkpt>
      <trkpt lat="39.484184" lon="-0.597714">
        <ele>72.899</ele>
        <time>2020-08-10T08:19:46Z</time>
      </trkpt>
      <trkpt lat="39.484297" lon="-0.597950">
        <ele>72.080</ele>
        <time>2020-08-10T08:19:50Z</time>
      </trkpt>
      <trkpt lat="39.484413" lon="-0.598183">
        <ele>71.593</ele>
        <time>2020-08-10T08:19:54Z</time>
      </trkpt>
      <trkpt lat="39.484521" lon="-0.598416">
        <ele>71.465</ele>
        <time>2020-08-10T08:19:58Z</time>
      </trkpt>
      <trkpt lat="39.484630" lon="-0.598647">
        <ele>71.721</ele>
        <time>2020-08-10T08:20:02Z</time>
      </trkpt>
      <trkpt lat="39.484739" lon="-0.598876">
        <ele>72.108</ele>
        <time>2020-08-10T08:20:06Z</time>
      </trkpt>
      <trkpt lat="39.484843" lon="-0.599096">
        <ele>72.794</ele>
        <time>2020-08-10T08:20:10Z</time>
      </trkpt>
      <trkpt lat="39.484942" lon="-0.599312">
        <ele>73.733</ele>
        <time>2020-08-10T08:20:14Z</time>
      </trkpt>
      <trkpt lat="39.485041" lon="-0.599526">
        <ele>74.658</ele>
        <time>2020-08-10T08:20:18Z</time>
      </trkpt>
      <trkpt lat="39.485141" lon="-0.599744">
        <ele>75.337</ele>
        <time>2020-08-10T08:20:22Z</time>
      </trkpt>
      <trkpt lat="39.485244" lon="-0.599964">
        <ele>75.397</ele>
        <time>2020-08-10T08:20:26Z</time>
      </trkpt>
      <trkpt lat="39.485344" lon="-0.600173">
        <ele>76.118</ele>
        <time>2020-08-10T08:20:30Z</time>
      </trkpt>
      <trkpt lat="39.485448" lon="-0.600384">
        <ele>76.249</ele>
        <time>2020-08-10T08:20:34Z</time>
      </trkpt>
      <trkpt lat="39.485550" lon="-0.600595">
        <ele>76.390</ele>
        <time>2020-08-10T08:20:38Z</time>
      </trkpt>
      <trkpt lat="39.485651" lon="-0.600849">
        <ele>77.627</ele>
        <time>2020-08-10T08:20:43Z</time>
      </trkpt>
      <trkpt lat="39.485694" lon="-0.601120">
        <ele>77.468</ele>
        <time>2020-08-10T08:20:48Z</time>
      </trkpt>
      <trkpt lat="39.485694" lon="-0.601404">
        <ele>76.714</ele>
        <time>2020-08-10T08:20:53Z</time>
      </trkpt>
      <trkpt lat="39.485679" lon="-0.601688">
        <ele>77.008</ele>
        <time>2020-08-10T08:20:58Z</time>
      </trkpt>
      <trkpt lat="39.485679" lon="-0.601968">
        <ele>76.927</ele>
        <time>2020-08-10T08:21:03Z</time>
      </trkpt>
      <trkpt lat="39.485705" lon="-0.602257">
        <ele>77.426</ele>
        <time>2020-08-10T08:21:08Z</time>
      </trkpt>
      <trkpt lat="39.485735" lon="-0.602491">
        <ele>78.091</ele>
        <time>2020-08-10T08:21:12Z</time>
      </trkpt>
      <trkpt lat="39.485767" lon="-0.602729">
        <ele>78.730</ele>
        <time>2020-08-10T08:21:16Z</time>
      </trkpt>
      <trkpt lat="39.485795" lon="-0.602962">
        <ele>79.170</ele>
        <time>2020-08-10T08:21:20Z</time>
      </trkpt>
      <trkpt lat="39.485825" lon="-0.603246">
        <ele>79.891</ele>
        <time>2020-08-10T08:21:25Z</time>
      </trkpt>
      <trkpt lat="39.485866" lon="-0.603510">
        <ele>79.082</ele>
        <time>2020-08-10T08:21:30Z</time>
      </trkpt>
      <trkpt lat="39.485916" lon="-0.603779">
        <ele>76.813</ele>
        <time>2020-08-10T08:21:35Z</time>
      </trkpt>
      <trkpt lat="39.485955" lon="-0.604066">
        <ele>75.172</ele>
        <time>2020-08-10T08:21:40Z</time>
      </trkpt>
      <trkpt lat="39.485983" lon="-0.604328">
        <ele>74.813</ele>
        <time>2020-08-10T08:21:44Z</time>
      </trkpt>
      <trkpt lat="39.486014" lon="-0.604616">
        <ele>75.014</ele>
        <time>2020-08-10T08:21:48Z</time>
      </trkpt>
      <trkpt lat="39.486047" lon="-0.604913">
        <ele>74.708</ele>
        <time>2020-08-10T08:21:52Z</time>
      </trkpt>
      <trkpt lat="39.486087" lon="-0.605214">
        <ele>74.352</ele>
        <time>2020-08-10T08:21:56Z</time>
      </trkpt>
      <trkpt lat="39.486120" lon="-0.605503">
        <ele>74.511</ele>
        <time>2020-08-10T08:22:00Z</time>
      </trkpt>
      <trkpt lat="39.486150" lon="-0.605768">
        <ele>75.546</ele>
        <time>2020-08-10T08:22:04Z</time>
      </trkpt>
      <trkpt lat="39.486161" lon="-0.606018">
        <ele>76.395</ele>
        <time>2020-08-10T08:22:08Z</time>
      </trkpt>
      <trkpt lat="39.486157" lon="-0.606272">
        <ele>77.385</ele>
        <time>2020-08-10T08:22:12Z</time>
      </trkpt>
      <trkpt lat="39.486153" lon="-0.606527">
        <ele>77.896</ele>
        <time>2020-08-10T08:22:16Z</time>
      </trkpt>
      <trkpt lat="39.486153" lon="-0.606787">
        <ele>78.657</ele>
        <time>2020-08-10T08:22:20Z</time>
      </trkpt>
      <trkpt lat="39.486156" lon="-0.607043">
        <ele>78.618</ele>
        <time>2020-08-10T08:22:24Z</time>
      </trkpt>
      <trkpt lat="39.486175" lon="-0.607302">
        <ele>78.795</ele>
        <time>2020-08-10T08:22:28Z</time>
      </trkpt>
      <trkpt lat="39.486231" lon="-0.607552">
        <ele>79.649</ele>
        <time>2020-08-10T08:22:32Z</time>
      </trkpt>
      <trkpt lat="39.486300" lon="-0.607782">
        <ele>80.423</ele>
        <time>2020-08-10T08:22:36Z</time>
      </trkpt>
      <trkpt lat="39.486380" lon="-0.608054">
        <ele>79.308</ele>
        <time>2020-08-10T08:22:41Z</time>
      </trkpt>
      <trkpt lat="39.486455" lon="-0.608318">
        <ele>79.654</ele>
        <time>2020-08-10T08:22:46Z</time>
      </trkpt>
      <trkpt lat="39.486537" lon="-0.608581">
        <ele>80.663</ele>
        <time>2020-08-10T08:22:51Z</time>
      </trkpt>
      <trkpt lat="39.486603" lon="-0.608806">
        <ele>80.298</ele>
        <time>2020-08-10T08:22:55Z</time>
      </trkpt>
      <trkpt lat="39.486692" lon="-0.609037">
        <ele>80.197</ele>
        <time>2020-08-10T08:22:59Z</time>
      </trkpt>
      <trkpt lat="39.486814" lon="-0.609262">
        <ele>80.217</ele>
        <time>2020-08-10T08:23:03Z</time>
      </trkpt>
      <trkpt lat="39.486944" lon="-0.609487">
        <ele>80.648</ele>
        <time>2020-08-10T08:23:07Z</time>
      </trkpt>
      <trkpt lat="39.487072" lon="-0.609718">
        <ele>80.789</ele>
        <time>2020-08-10T08:23:11Z</time>
      </trkpt>
      <trkpt lat="39.487201" lon="-0.609947">
        <ele>81.290</ele>
        <time>2020-08-10T08:23:15Z</time>
      </trkpt>
      <trkpt lat="39.487325" lon="-0.610169">
        <ele>81.296</ele>
        <time>2020-08-10T08:23:19Z</time>
      </trkpt>
      <trkpt lat="39.487454" lon="-0.610393">
        <ele>82.031</ele>
        <time>2020-08-10T08:23:23Z</time>
      </trkpt>
      <trkpt lat="39.487581" lon="-0.610613">
        <ele>82.924</ele>
        <time>2020-08-10T08:23:27Z</time>
      </trkpt>
      <trkpt lat="39.487707" lon="-0.610834">
        <ele>83.008</ele>
        <time>2020-08-10T08:23:31Z</time>
      </trkpt>
      <trkpt lat="39.487830" lon="-0.611049">
        <ele>82.844</ele>
        <time>2020-08-10T08:23:35Z</time>
      </trkpt>
      <trkpt lat="39.487950" lon="-0.611259">
        <ele>82.873</ele>
        <time>2020-08-10T08:23:39Z</time>
      </trkpt>
      <trkpt lat="39.488064" lon="-0.611451">
        <ele>83.538</ele>
        <time>2020-08-10T08:23:43Z</time>
      </trkpt>
      <trkpt lat="39.488169" lon="-0.611652">
        <ele>83.937</ele>
        <time>2020-08-10T08:23:47Z</time>
      </trkpt>
      <trkpt lat="39.488246" lon="-0.611878">
        <ele>84.477</ele>
        <time>2020-08-10T08:23:51Z</time>
      </trkpt>
      <trkpt lat="39.488300" lon="-0.612115">
        <ele>84.428</ele>
        <time>2020-08-10T08:23:55Z</time>
      </trkpt>
      <trkpt lat="39.488346" lon="-0.612364">
        <ele>84.149</ele>
        <time>2020-08-10T08:23:59Z</time>
      </trkpt>
      <trkpt lat="39.488393" lon="-0.612618">
        <ele>84.090</ele>
        <time>2020-08-10T08:24:03Z</time>
      </trkpt>
      <trkpt lat="39.488436" lon="-0.612863">
        <ele>83.363</ele>
        <time>2020-08-10T08:24:07Z</time>
      </trkpt>
      <trkpt lat="39.488479" lon="-0.613112">
        <ele>82.944</ele>
        <time>2020-08-10T08:24:11Z</time>
      </trkpt>
      <trkpt lat="39.488527" lon="-0.613379">
        <ele>82.618</ele>
        <time>2020-08-10T08:24:15Z</time>
      </trkpt>
      <trkpt lat="39.488571" lon="-0.613647">
        <ele>82.908</ele>
        <time>2020-08-10T08:24:19Z</time>
      </trkpt>
      <trkpt lat="39.488615" lon="-0.613914">
        <ele>83.361</ele>
        <time>2020-08-10T08:24:23Z</time>
      </trkpt>
      <trkpt lat="39.488667" lon="-0.614167">
        <ele>83.840</ele>
        <time>2020-08-10T08:24:27Z</time>
      </trkpt>
      <trkpt lat="39.488734" lon="-0.614412">
        <ele>84.155</ele>
        <time>2020-08-10T08:24:31Z</time>
      </trkpt>
      <trkpt lat="39.488806" lon="-0.614650">
        <ele>85.774</ele>
        <time>2020-08-10T08:24:35Z</time>
      </trkpt>
      <trkpt lat="39.488888" lon="-0.614880">
        <ele>86.264</ele>
        <time>2020-08-10T08:24:39Z</time>
      </trkpt>
      <trkpt lat="39.488977" lon="-0.615099">
        <ele>86.575</ele>
        <time>2020-08-10T08:24:43Z</time>
      </trkpt>
      <trkpt lat="39.489089" lon="-0.615304">
        <ele>86.926</ele>
        <time>2020-08-10T08:24:47Z</time>
      </trkpt>
      <trkpt lat="39.489203" lon="-0.615504">
        <ele>87.337</ele>
        <time>2020-08-10T08:24:51Z</time>
      </trkpt>
      <trkpt lat="39.489323" lon="-0.615689">
        <ele>87.515</ele>
        <time>2020-08-10T08:24:55Z</time>
      </trkpt>
      <trkpt lat="39.489493" lon="-0.615842">
        <ele>88.165</ele>
        <time>2020-08-10T08:25:00Z</time>
      </trkpt>
      <trkpt lat="39.489663" lon="-0.615930">
        <ele>88.711</ele>
        <time>2020-08-10T08:25:05Z</time>
      </trkpt>
      <trkpt lat="39.489830" lon="-0.616020">
        <ele>89.208</ele>
        <time>2020-08-10T08:25:10Z</time>
      </trkpt>
      <trkpt lat="39.490029" lon="-0.616121">
        <ele>89.746</ele>
        <time>2020-08-10T08:25:16Z</time>
      </trkpt>
      <trkpt lat="39.490213" lon="-0.616232">
        <ele>90.845</ele>
        <time>2020-08-10T08:25:22Z</time>
      </trkpt>
      <trkpt lat="39.490405" lon="-0.616333">
        <ele>87.360</ele>
        <time>2020-08-10T08:25:28Z</time>
      </trkpt>
      <trkpt lat="39.490584" lon="-0.616426">
        <ele>86.789</ele>
        <time>2020-08-10T08:25:33Z</time>
      </trkpt>
      <trkpt lat="39.490766" lon="-0.616495">
        <ele>87.999</ele>
        <time>2020-08-10T08:25:38Z</time>
      </trkpt>
      <trkpt lat="39.490955" lon="-0.616542">
        <ele>89.570</ele>
        <time>2020-08-10T08:25:43Z</time>
      </trkpt>
      <trkpt lat="39.491158" lon="-0.616595">
        <ele>90.561</ele>
        <time>2020-08-10T08:25:48Z</time>
      </trkpt>
      <trkpt lat="39.491381" lon="-0.616638">
        <ele>91.822</ele>
        <time>2020-08-10T08:25:53Z</time>
      </trkpt>
      <trkpt lat="39.491569" lon="-0.616635">
        <ele>92.677</ele>
        <time>2020-08-10T08:25:57Z</time>
      </trkpt>
      <trkpt lat="39.491762" lon="-0.616618">
        <ele>92.861</ele>
        <time>2020-08-10T08:26:01Z</time>
      </trkpt>
      <trkpt lat="39.491962" lon="-0.616595">
        <ele>90.927</ele>
        <time>2020-08-10T08:26:05Z</time>
      </trkpt>
      <trkpt lat="39.492153" lon="-0.616613">
        <ele>89.908</ele>
        <time>2020-08-10T08:26:09Z</time>
      </trkpt>
      <trkpt lat="39.492346" lon="-0.616678">
        <ele>89.722</ele>
        <time>2020-08-10T08:26:13Z</time>
      </trkpt>
      <trkpt lat="39.492550" lon="-0.616749">
        <ele>89.671</ele>
        <time>2020-08-10T08:26:17Z</time>
      </trkpt>
      <trkpt lat="39.492772" lon="-0.616818">
        <ele>89.436</ele>
        <time>2020-08-10T08:26:21Z</time>
      </trkpt>
      <trkpt lat="39.492945" lon="-0.616882">
        <ele>89.655</ele>
        <time>2020-08-10T08:26:24Z</time>
      </trkpt>
      <trkpt lat="39.493125" lon="-0.616945">
        <ele>90.595</ele>
        <time>2020-08-10T08:26:27Z</time>
      </trkpt>
      <trkpt lat="39.493304" lon="-0.617008">
        <ele>91.276</ele>
        <time>2020-08-10T08:26:30Z</time>
      </trkpt>
      <trkpt lat="39.493498" lon="-0.617095">
        <ele>92.367</ele>
        <time>2020-08-10T08:26:33Z</time>
      </trkpt>
      <trkpt lat="39.493651" lon="-0.617221">
        <ele>93.078</ele>
        <time>2020-08-10T08:26:36Z</time>
      </trkpt>
      <trkpt lat="39.493759" lon="-0.617414">
        <ele>92.684</ele>
        <time>2020-08-10T08:26:39Z</time>
      </trkpt>
      <trkpt lat="39.493846" lon="-0.617621">
        <ele>93.207</ele>
        <time>2020-08-10T08:26:42Z</time>
      </trkpt>
      <trkpt lat="39.493960" lon="-0.617882">
        <ele>93.817</ele>
        <time>2020-08-10T08:26:46Z</time>
      </trkpt>
      <trkpt lat="39.494045" lon="-0.618093">
        <ele>94.008</ele>
        <time>2020-08-10T08:26:49Z</time>
      </trkpt>
      <trkpt lat="39.494139" lon="-0.618307">
        <ele>93.723</ele>
        <time>2020-08-10T08:26:52Z</time>
      </trkpt>
      <trkpt lat="39.494227" lon="-0.618537">
        <ele>93.192</ele>
        <time>2020-08-10T08:26:55Z</time>
      </trkpt>
      <trkpt lat="39.494294" lon="-0.618772">
        <ele>93.077</ele>
        <time>2020-08-10T08:26:58Z</time>
      </trkpt>
      <trkpt lat="39.494337" lon="-0.619014">
        <ele>93.196</ele>
        <time>2020-08-10T08:27:01Z</time>
      </trkpt>
      <trkpt lat="39.494375" lon="-0.619244">
        <ele>93.266</ele>
        <time>2020-08-10T08:27:04Z</time>
      </trkpt>
      <trkpt lat="39.494401" lon="-0.619534">
        <ele>93.327</ele>
        <time>2020-08-10T08:27:08Z</time>
      </trkpt>
      <trkpt lat="39.494415" lon="-0.619793">
        <ele>93.428</ele>
        <time>2020-08-10T08:27:12Z</time>
      </trkpt>
      <trkpt lat="39.494426" lon="-0.620063">
        <ele>93.349</ele>
        <time>2020-08-10T08:27:16Z</time>
      </trkpt>
      <trkpt lat="39.494449" lon="-0.620359">
        <ele>93.314</ele>
        <time>2020-08-10T08:27:20Z</time>
      </trkpt>
      <trkpt lat="39.494466" lon="-0.620649">
        <ele>92.654</ele>
        <time>2020-08-10T08:27:24Z</time>
      </trkpt>
      <trkpt lat="39.494484" lon="-0.620944">
        <ele>93.109</ele>
        <time>2020-08-10T08:27:28Z</time>
      </trkpt>
      <trkpt lat="39.494501" lon="-0.621240">
        <ele>93.408</ele>
        <time>2020-08-10T08:27:32Z</time>
      </trkpt>
      <trkpt lat="39.494516" lon="-0.621538">
        <ele>94.486</ele>
        <time>2020-08-10T08:27:36Z</time>
      </trkpt>
      <trkpt lat="39.494538" lon="-0.621835">
        <ele>94.145</ele>
        <time>2020-08-10T08:27:40Z</time>
      </trkpt>
      <trkpt lat="39.494564" lon="-0.622068">
        <ele>94.520</ele>
        <time>2020-08-10T08:27:43Z</time>
      </trkpt>
      <trkpt lat="39.494616" lon="-0.622362">
        <ele>96.269</ele>
        <time>2020-08-10T08:27:47Z</time>
      </trkpt>
      <trkpt lat="39.494690" lon="-0.622656">
        <ele>95.459</ele>
        <time>2020-08-10T08:27:51Z</time>
      </trkpt>
      <trkpt lat="39.494756" lon="-0.622949">
        <ele>95.610</ele>
        <time>2020-08-10T08:27:55Z</time>
      </trkpt>
      <trkpt lat="39.494809" lon="-0.623176">
        <ele>95.631</ele>
        <time>2020-08-10T08:27:58Z</time>
      </trkpt>
      <trkpt lat="39.494876" lon="-0.623467">
        <ele>95.812</ele>
        <time>2020-08-10T08:28:02Z</time>
      </trkpt>
      <trkpt lat="39.494939" lon="-0.623748">
        <ele>95.949</ele>
        <time>2020-08-10T08:28:06Z</time>
      </trkpt>
      <trkpt lat="39.495005" lon="-0.624024">
        <ele>95.602</ele>
        <time>2020-08-10T08:28:10Z</time>
      </trkpt>
      <trkpt lat="39.495062" lon="-0.624289">
        <ele>95.322</ele>
        <time>2020-08-10T08:28:14Z</time>
      </trkpt>
      <trkpt lat="39.495117" lon="-0.624549">
        <ele>95.908</ele>
        <time>2020-08-10T08:28:18Z</time>
      </trkpt>
      <trkpt lat="39.495178" lon="-0.624810">
        <ele>96.629</ele>
        <time>2020-08-10T08:28:22Z</time>
      </trkpt>
      <trkpt lat="39.495234" lon="-0.625062">
        <ele>96.758</ele>
        <time>2020-08-10T08:28:26Z</time>
      </trkpt>
      <trkpt lat="39.495288" lon="-0.625315">
        <ele>96.963</ele>
        <time>2020-08-10T08:28:30Z</time>
      </trkpt>
      <trkpt lat="39.495340" lon="-0.625565">
        <ele>96.792</ele>
        <time>2020-08-10T08:28:34Z</time>
      </trkpt>
      <trkpt lat="39.495405" lon="-0.625819">
        <ele>97.692</ele>
        <time>2020-08-10T08:28:38Z</time>
      </trkpt>
      <trkpt lat="39.495461" lon="-0.626062">
        <ele>97.913</ele>
        <time>2020-08-10T08:28:42Z</time>
      </trkpt>
      <trkpt lat="39.495471" lon="-0.626335">
        <ele>99.864</ele>
        <time>2020-08-10T08:28:47Z</time>
      </trkpt>
      <trkpt lat="39.495379" lon="-0.626560">
        <ele>99.675</ele>
        <time>2020-08-10T08:28:55Z</time>
      </trkpt>
      <trkpt lat="39.495418" lon="-0.626815">
        <ele>98.622</ele>
        <time>2020-08-10T08:29:01Z</time>
      </trkpt>
      <trkpt lat="39.495398" lon="-0.627100">
        <ele>99.762</ele>
        <time>2020-08-10T08:29:06Z</time>
      </trkpt>
      <trkpt lat="39.495403" lon="-0.627364">
        <ele>102.808</ele>
        <time>2020-08-10T08:29:12Z</time>
      </trkpt>
      <trkpt lat="39.495480" lon="-0.627593">
        <ele>105.308</ele>
        <time>2020-08-10T08:29:18Z</time>
      </trkpt>
      <trkpt lat="39.495634" lon="-0.627749">
        <ele>107.657</ele>
        <time>2020-08-10T08:29:24Z</time>
      </trkpt>
      <trkpt lat="39.495806" lon="-0.627821">
        <ele>108.216</ele>
        <time>2020-08-10T08:29:29Z</time>
      </trkpt>
      <trkpt lat="39.496008" lon="-0.627837">
        <ele>108.431</ele>
        <time>2020-08-10T08:29:34Z</time>
      </trkpt>
      <trkpt lat="39.496209" lon="-0.627891">
        <ele>108.070</ele>
        <time>2020-08-10T08:29:38Z</time>
      </trkpt>
      <trkpt lat="39.496380" lon="-0.628012">
        <ele>106.860</ele>
        <time>2020-08-10T08:29:41Z</time>
      </trkpt>
      <trkpt lat="39.496497" lon="-0.628265">
        <ele>105.591</ele>
        <time>2020-08-10T08:29:44Z</time>
      </trkpt>
      <trkpt lat="39.496535" lon="-0.628577">
        <ele>104.362</ele>
        <time>2020-08-10T08:29:47Z</time>
      </trkpt>
      <trkpt lat="39.496560" lon="-0.628870">
        <ele>103.793</ele>
        <time>2020-08-10T08:29:50Z</time>
      </trkpt>
      <trkpt lat="39.496604" lon="-0.629121">
        <ele>102.818</ele>
        <time>2020-08-10T08:29:53Z</time>
      </trkpt>
      <trkpt lat="39.496666" lon="-0.629359">
        <ele>102.198</ele>
        <time>2020-08-10T08:29:56Z</time>
      </trkpt>
      <trkpt lat="39.496744" lon="-0.629581">
        <ele>101.917</ele>
        <time>2020-08-10T08:29:59Z</time>
      </trkpt>
      <trkpt lat="39.496823" lon="-0.629800">
        <ele>101.508</ele>
        <time>2020-08-10T08:30:02Z</time>
      </trkpt>
      <trkpt lat="39.496901" lon="-0.630017">
        <ele>101.296</ele>
        <time>2020-08-10T08:30:05Z</time>
      </trkpt>
      <trkpt lat="39.497004" lon="-0.630286">
        <ele>101.435</ele>
        <time>2020-08-10T08:30:09Z</time>
      </trkpt>
      <trkpt lat="39.497109" lon="-0.630522">
        <ele>102.810</ele>
        <time>2020-08-10T08:30:13Z</time>
      </trkpt>
      <trkpt lat="39.497215" lon="-0.630724">
        <ele>104.049</ele>
        <time>2020-08-10T08:30:17Z</time>
      </trkpt>
      <trkpt lat="39.497338" lon="-0.630923">
        <ele>105.279</ele>
        <time>2020-08-10T08:30:22Z</time>
      </trkpt>
      <trkpt lat="39.497442" lon="-0.631121">
        <ele>105.860</ele>
        <time>2020-08-10T08:30:27Z</time>
      </trkpt>
      <trkpt lat="39.497569" lon="-0.631335">
        <ele>106.031</ele>
        <time>2020-08-10T08:30:32Z</time>
      </trkpt>
      <trkpt lat="39.497673" lon="-0.631525">
        <ele>106.162</ele>
        <time>2020-08-10T08:30:36Z</time>
      </trkpt>
      <trkpt lat="39.497773" lon="-0.631718">
        <ele>106.215</ele>
        <time>2020-08-10T08:30:40Z</time>
      </trkpt>
      <trkpt lat="39.497900" lon="-0.631952">
        <ele>106.265</ele>
        <time>2020-08-10T08:30:45Z</time>
      </trkpt>
      <trkpt lat="39.498017" lon="-0.632167">
        <ele>106.611</ele>
        <time>2020-08-10T08:30:50Z</time>
      </trkpt>
      <trkpt lat="39.498125" lon="-0.632375">
        <ele>106.608</ele>
        <time>2020-08-10T08:30:55Z</time>
      </trkpt>
      <trkpt lat="39.498221" lon="-0.632585">
        <ele>108.226</ele>
        <time>2020-08-10T08:31:00Z</time>
      </trkpt>
      <trkpt lat="39.498326" lon="-0.632838">
        <ele>109.315</ele>
        <time>2020-08-10T08:31:05Z</time>
      </trkpt>
      <trkpt lat="39.498418" lon="-0.633072">
        <ele>109.390</ele>
        <time>2020-08-10T08:31:09Z</time>
      </trkpt>
      <trkpt lat="39.498523" lon="-0.633333">
        <ele>108.889</ele>
        <time>2020-08-10T08:31:13Z</time>
      </trkpt>
      <trkpt lat="39.498628" lon="-0.633593">
        <ele>108.989</ele>
        <time>2020-08-10T08:31:17Z</time>
      </trkpt>
      <trkpt lat="39.498734" lon="-0.633846">
        <ele>108.540</ele>
        <time>2020-08-10T08:31:21Z</time>
      </trkpt>
      <trkpt lat="39.498837" lon="-0.634098">
        <ele>107.721</ele>
        <time>2020-08-10T08:31:25Z</time>
      </trkpt>
      <trkpt lat="39.498933" lon="-0.634353">
        <ele>106.962</ele>
        <time>2020-08-10T08:31:29Z</time>
      </trkpt>
      <trkpt lat="39.499031" lon="-0.634613">
        <ele>106.627</ele>
        <time>2020-08-10T08:31:33Z</time>
      </trkpt>
      <trkpt lat="39.499126" lon="-0.634822">
        <ele>106.368</ele>
        <time>2020-08-10T08:31:36Z</time>
      </trkpt>
      <trkpt lat="39.499267" lon="-0.635030">
        <ele>105.714</ele>
        <time>2020-08-10T08:31:39Z</time>
      </trkpt>
      <trkpt lat="39.499433" lon="-0.635215">
        <ele>104.208</ele>
        <time>2020-08-10T08:31:42Z</time>
      </trkpt>
      <trkpt lat="39.499602" lon="-0.635397">
        <ele>104.277</ele>
        <time>2020-08-10T08:31:45Z</time>
      </trkpt>
      <trkpt lat="39.499776" lon="-0.635541">
        <ele>105.686</ele>
        <time>2020-08-10T08:31:48Z</time>
      </trkpt>
      <trkpt lat="39.499971" lon="-0.635604">
        <ele>106.041</ele>
        <time>2020-08-10T08:31:51Z</time>
      </trkpt>
      <trkpt lat="39.500167" lon="-0.635657">
        <ele>105.320</ele>
        <time>2020-08-10T08:31:54Z</time>
      </trkpt>
      <trkpt lat="39.500365" lon="-0.635717">
        <ele>105.340</ele>
        <time>2020-08-10T08:31:57Z</time>
      </trkpt>
      <trkpt lat="39.500542" lon="-0.635761">
        <ele>105.881</ele>
        <time>2020-08-10T08:32:00Z</time>
      </trkpt>
      <trkpt lat="39.500729" lon="-0.635833">
        <ele>108.032</ele>
        <time>2020-08-10T08:32:04Z</time>
      </trkpt>
      <trkpt lat="39.500897" lon="-0.635944">
        <ele>110.093</ele>
        <time>2020-08-10T08:32:09Z</time>
      </trkpt>
      <trkpt lat="39.501050" lon="-0.636071">
        <ele>111.928</ele>
        <time>2020-08-10T08:32:15Z</time>
      </trkpt>
      <trkpt lat="39.501227" lon="-0.636140">
        <ele>112.389</ele>
        <time>2020-08-10T08:32:21Z</time>
      </trkpt>
      <trkpt lat="39.501412" lon="-0.636163">
        <ele>114.317</ele>
        <time>2020-08-10T08:32:27Z</time>
      </trkpt>
      <trkpt lat="39.501601" lon="-0.636198">
        <ele>115.408</ele>
        <time>2020-08-10T08:32:33Z</time>
      </trkpt>
      <trkpt lat="39.501800" lon="-0.636231">
        <ele>115.067</ele>
        <time>2020-08-10T08:32:38Z</time>
      </trkpt>
      <trkpt lat="39.501983" lon="-0.636258">
        <ele>115.086</ele>
        <time>2020-08-10T08:32:42Z</time>
      </trkpt>
      <trkpt lat="39.502184" lon="-0.636267">
        <ele>115.561</ele>
        <time>2020-08-10T08:32:46Z</time>
      </trkpt>
      <trkpt lat="39.502401" lon="-0.636273">
        <ele>115.490</ele>
        <time>2020-08-10T08:32:50Z</time>
      </trkpt>
      <trkpt lat="39.502618" lon="-0.636294">
        <ele>115.060</ele>
        <time>2020-08-10T08:32:54Z</time>
      </trkpt>
      <trkpt lat="39.502853" lon="-0.636345">
        <ele>115.631</ele>
        <time>2020-08-10T08:32:58Z</time>
      </trkpt>
      <trkpt lat="39.503037" lon="-0.636397">
        <ele>116.812</ele>
        <time>2020-08-10T08:33:01Z</time>
      </trkpt>
      <trkpt lat="39.503206" lon="-0.636534">
        <ele>115.773</ele>
        <time>2020-08-10T08:33:04Z</time>
      </trkpt>
      <trkpt lat="39.503312" lon="-0.636763">
        <ele>114.439</ele>
        <time>2020-08-10T08:33:07Z</time>
      </trkpt>
      <trkpt lat="39.503377" lon="-0.637009">
        <ele>114.401</ele>
        <time>2020-08-10T08:33:10Z</time>
      </trkpt>
      <trkpt lat="39.503436" lon="-0.637240">
        <ele>113.821</ele>
        <time>2020-08-10T08:33:13Z</time>
      </trkpt>
      <trkpt lat="39.503501" lon="-0.637515">
        <ele>113.108</ele>
        <time>2020-08-10T08:33:17Z</time>
      </trkpt>
      <trkpt lat="39.503569" lon="-0.637775">
        <ele>114.418</ele>
        <time>2020-08-10T08:33:22Z</time>
      </trkpt>
      <trkpt lat="39.503642" lon="-0.637999">
        <ele>114.647</ele>
        <time>2020-08-10T08:33:27Z</time>
      </trkpt>
      <trkpt lat="39.503758" lon="-0.638194">
        <ele>115.952</ele>
        <time>2020-08-10T08:33:32Z</time>
      </trkpt>
      <trkpt lat="39.503876" lon="-0.638380">
        <ele>117.881</ele>
        <time>2020-08-10T08:33:37Z</time>
      </trkpt>
      <trkpt lat="39.504058" lon="-0.638520">
        <ele>117.781</ele>
        <time>2020-08-10T08:33:42Z</time>
      </trkpt>
      <trkpt lat="39.504282" lon="-0.638553">
        <ele>117.152</ele>
        <time>2020-08-10T08:33:46Z</time>
      </trkpt>
      <trkpt lat="39.504486" lon="-0.638602">
        <ele>117.253</ele>
        <time>2020-08-10T08:33:49Z</time>
      </trkpt>
      <trkpt lat="39.504655" lon="-0.638755">
        <ele>115.934</ele>
        <time>2020-08-10T08:33:52Z</time>
      </trkpt>
      <trkpt lat="39.504750" lon="-0.638984">
        <ele>115.454</ele>
        <time>2020-08-10T08:33:55Z</time>
      </trkpt>
      <trkpt lat="39.504754" lon="-0.639232">
        <ele>115.556</ele>
        <time>2020-08-10T08:33:58Z</time>
      </trkpt>
      <trkpt lat="39.504762" lon="-0.639468">
        <ele>115.911</ele>
        <time>2020-08-10T08:34:01Z</time>
      </trkpt>
      <trkpt lat="39.504796" lon="-0.639734">
        <ele>116.508</ele>
        <time>2020-08-10T08:34:04Z</time>
      </trkpt>
      <trkpt lat="39.504874" lon="-0.640011">
        <ele>115.550</ele>
        <time>2020-08-10T08:34:07Z</time>
      </trkpt>
      <trkpt lat="39.504977" lon="-0.640312">
        <ele>114.079</ele>
        <time>2020-08-10T08:34:10Z</time>
      </trkpt>
      <trkpt lat="39.505075" lon="-0.640638">
        <ele>113.864</ele>
        <time>2020-08-10T08:34:13Z</time>
      </trkpt>
      <trkpt lat="39.505141" lon="-0.640855">
        <ele>113.083</ele>
        <time>2020-08-10T08:34:15Z</time>
      </trkpt>
      <trkpt lat="39.505243" lon="-0.641173">
        <ele>111.843</ele>
        <time>2020-08-10T08:34:18Z</time>
      </trkpt>
      <trkpt lat="39.505329" lon="-0.641468">
        <ele>111.254</ele>
        <time>2020-08-10T08:34:21Z</time>
      </trkpt>
      <trkpt lat="39.505414" lon="-0.641730">
        <ele>111.415</ele>
        <time>2020-08-10T08:34:24Z</time>
      </trkpt>
      <trkpt lat="39.505476" lon="-0.641998">
        <ele>110.936</ele>
        <time>2020-08-10T08:34:27Z</time>
      </trkpt>
      <trkpt lat="39.505522" lon="-0.642261">
        <ele>110.858</ele>
        <time>2020-08-10T08:34:30Z</time>
      </trkpt>
      <trkpt lat="39.505567" lon="-0.642513">
        <ele>110.852</ele>
        <time>2020-08-10T08:34:33Z</time>
      </trkpt>
      <trkpt lat="39.505605" lon="-0.642750">
        <ele>111.017</ele>
        <time>2020-08-10T08:34:36Z</time>
      </trkpt>
      <trkpt lat="39.505639" lon="-0.642982">
        <ele>111.308</ele>
        <time>2020-08-10T08:34:39Z</time>
      </trkpt>
      <trkpt lat="39.505670" lon="-0.643263">
        <ele>111.370</ele>
        <time>2020-08-10T08:34:43Z</time>
      </trkpt>
      <trkpt lat="39.505695" lon="-0.643547">
        <ele>111.149</ele>
        <time>2020-08-10T08:34:47Z</time>
      </trkpt>
      <trkpt lat="39.505719" lon="-0.643829">
        <ele>111.054</ele>
        <time>2020-08-10T08:34:51Z</time>
      </trkpt>
      <trkpt lat="39.505740" lon="-0.644096">
        <ele>111.623</ele>
        <time>2020-08-10T08:34:55Z</time>
      </trkpt>
      <trkpt lat="39.505760" lon="-0.644355">
        <ele>112.073</ele>
        <time>2020-08-10T08:34:59Z</time>
      </trkpt>
      <trkpt lat="39.505772" lon="-0.644613">
        <ele>113.694</ele>
        <time>2020-08-10T08:35:03Z</time>
      </trkpt>
      <trkpt lat="39.505797" lon="-0.644861">
        <ele>113.945</ele>
        <time>2020-08-10T08:35:07Z</time>
      </trkpt>
      <trkpt lat="39.505817" lon="-0.645140">
        <ele>114.426</ele>
        <time>2020-08-10T08:35:12Z</time>
      </trkpt>
      <trkpt lat="39.505837" lon="-0.645404">
        <ele>115.581</ele>
        <time>2020-08-10T08:35:17Z</time>
      </trkpt>
      <trkpt lat="39.505861" lon="-0.645682">
        <ele>115.361</ele>
        <time>2020-08-10T08:35:22Z</time>
      </trkpt>
      <trkpt lat="39.505886" lon="-0.645964">
        <ele>115.417</ele>
        <time>2020-08-10T08:35:27Z</time>
      </trkpt>
      <trkpt lat="39.505907" lon="-0.646234">
        <ele>115.208</ele>
        <time>2020-08-10T08:35:32Z</time>
      </trkpt>
      <trkpt lat="39.505926" lon="-0.646492">
        <ele>116.523</ele>
        <time>2020-08-10T08:35:37Z</time>
      </trkpt>
      <trkpt lat="39.505946" lon="-0.646725">
        <ele>117.432</ele>
        <time>2020-08-10T08:35:42Z</time>
      </trkpt>
      <trkpt lat="39.505964" lon="-0.646992">
        <ele>117.987</ele>
        <time>2020-08-10T08:35:48Z</time>
      </trkpt>
      <trkpt lat="39.505983" lon="-0.647242">
        <ele>119.386</ele>
        <time>2020-08-10T08:35:54Z</time>
      </trkpt>
      <trkpt lat="39.505963" lon="-0.647491">
        <ele>118.476</ele>
        <time>2020-08-10T08:35:59Z</time>
      </trkpt>
      <trkpt lat="39.505892" lon="-0.647715">
        <ele>118.067</ele>
        <time>2020-08-10T08:36:04Z</time>
      </trkpt>
      <trkpt lat="39.505791" lon="-0.647923">
        <ele>119.938</ele>
        <time>2020-08-10T08:36:09Z</time>
      </trkpt>
      <trkpt lat="39.505696" lon="-0.648133">
        <ele>117.789</ele>
        <time>2020-08-10T08:36:14Z</time>
      </trkpt>
      <trkpt lat="39.505591" lon="-0.648337">
        <ele>118.249</ele>
        <time>2020-08-10T08:36:19Z</time>
      </trkpt>
      <trkpt lat="39.505488" lon="-0.648544">
        <ele>118.802</ele>
        <time>2020-08-10T08:36:24Z</time>
      </trkpt>
      <trkpt lat="39.505393" lon="-0.648753">
        <ele>119.822</ele>
        <time>2020-08-10T08:36:29Z</time>
      </trkpt>
      <trkpt lat="39.505321" lon="-0.648968">
        <ele>119.908</ele>
        <time>2020-08-10T08:36:33Z</time>
      </trkpt>
      <trkpt lat="39.505262" lon="-0.649245">
        <ele>119.489</ele>
        <time>2020-08-10T08:36:37Z</time>
      </trkpt>
      <trkpt lat="39.505300" lon="-0.649549">
        <ele>119.188</ele>
        <time>2020-08-10T08:36:41Z</time>
      </trkpt>
      <trkpt lat="39.505439" lon="-0.649747">
        <ele>118.973</ele>
        <time>2020-08-10T08:36:44Z</time>
      </trkpt>
      <trkpt lat="39.505553" lon="-0.650014">
        <ele>117.322</ele>
        <time>2020-08-10T08:36:47Z</time>
      </trkpt>
      <trkpt lat="39.505527" lon="-0.650331">
        <ele>116.772</ele>
        <time>2020-08-10T08:36:50Z</time>
      </trkpt>
      <trkpt lat="39.505436" lon="-0.650612">
        <ele>116.323</ele>
        <time>2020-08-10T08:36:53Z</time>
      </trkpt>
      <trkpt lat="39.505288" lon="-0.650842">
        <ele>116.954</ele>
        <time>2020-08-10T08:36:56Z</time>
      </trkpt>
      <trkpt lat="39.505132" lon="-0.651043">
        <ele>117.215</ele>
        <time>2020-08-10T08:36:59Z</time>
      </trkpt>
      <trkpt lat="39.504980" lon="-0.651234">
        <ele>117.933</ele>
        <time>2020-08-10T08:37:02Z</time>
      </trkpt>
      <trkpt lat="39.504832" lon="-0.651416">
        <ele>118.523</ele>
        <time>2020-08-10T08:37:05Z</time>
      </trkpt>
      <trkpt lat="39.504692" lon="-0.651593">
        <ele>118.515</ele>
        <time>2020-08-10T08:37:08Z</time>
      </trkpt>
      <trkpt lat="39.504546" lon="-0.651739">
        <ele>118.808</ele>
        <time>2020-08-10T08:37:11Z</time>
      </trkpt>
      <trkpt lat="39.504372" lon="-0.651831">
        <ele>118.728</ele>
        <time>2020-08-10T08:37:14Z</time>
      </trkpt>
      <trkpt lat="39.504192" lon="-0.651890">
        <ele>117.927</ele>
        <time>2020-08-10T08:37:17Z</time>
      </trkpt>
      <trkpt lat="39.504010" lon="-0.651946">
        <ele>117.822</ele>
        <time>2020-08-10T08:37:20Z</time>
      </trkpt>
      <trkpt lat="39.503830" lon="-0.652003">
        <ele>117.491</ele>
        <time>2020-08-10T08:37:23Z</time>
      </trkpt>
      <trkpt lat="39.503651" lon="-0.652054">
        <ele>118.071</ele>
        <time>2020-08-10T08:37:26Z</time>
      </trkpt>
      <trkpt lat="39.503475" lon="-0.652106">
        <ele>118.582</ele>
        <time>2020-08-10T08:37:29Z</time>
      </trkpt>
      <trkpt lat="39.503239" lon="-0.652171">
        <ele>119.093</ele>
        <time>2020-08-10T08:37:33Z</time>
      </trkpt>
      <trkpt lat="39.503064" lon="-0.652232">
        <ele>119.564</ele>
        <time>2020-08-10T08:37:36Z</time>
      </trkpt>
      <trkpt lat="39.502834" lon="-0.652292">
        <ele>119.839</ele>
        <time>2020-08-10T08:37:40Z</time>
      </trkpt>
      <trkpt lat="39.502612" lon="-0.652365">
        <ele>119.801</ele>
        <time>2020-08-10T08:37:44Z</time>
      </trkpt>
      <trkpt lat="39.502399" lon="-0.652427">
        <ele>120.421</ele>
        <time>2020-08-10T08:37:48Z</time>
      </trkpt>
      <trkpt lat="39.502199" lon="-0.652483">
        <ele>120.908</ele>
        <time>2020-08-10T08:37:52Z</time>
      </trkpt>
      <trkpt lat="39.502004" lon="-0.652540">
        <ele>121.098</ele>
        <time>2020-08-10T08:37:56Z</time>
      </trkpt>
      <trkpt lat="39.501817" lon="-0.652597">
        <ele>120.527</ele>
        <time>2020-08-10T08:38:00Z</time>
      </trkpt>
      <trkpt lat="39.501636" lon="-0.652658">
        <ele>120.692</ele>
        <time>2020-08-10T08:38:04Z</time>
      </trkpt>
      <trkpt lat="39.501447" lon="-0.652712">
        <ele>120.811</ele>
        <time>2020-08-10T08:38:08Z</time>
      </trkpt>
      <trkpt lat="39.501261" lon="-0.652766">
        <ele>121.291</ele>
        <time>2020-08-10T08:38:12Z</time>
      </trkpt>
      <trkpt lat="39.501078" lon="-0.652829">
        <ele>121.982</ele>
        <time>2020-08-10T08:38:16Z</time>
      </trkpt>
      <trkpt lat="39.500898" lon="-0.652894">
        <ele>121.813</ele>
        <time>2020-08-10T08:38:20Z</time>
      </trkpt>
      <trkpt lat="39.500720" lon="-0.652969">
        <ele>122.254</ele>
        <time>2020-08-10T08:38:24Z</time>
      </trkpt>
      <trkpt lat="39.500543" lon="-0.653043">
        <ele>122.037</ele>
        <time>2020-08-10T08:38:28Z</time>
      </trkpt>
      <trkpt lat="39.500362" lon="-0.653119">
        <ele>121.849</ele>
        <time>2020-08-10T08:38:32Z</time>
      </trkpt>
      <trkpt lat="39.500175" lon="-0.653194">
        <ele>122.213</ele>
        <time>2020-08-10T08:38:36Z</time>
      </trkpt>
      <trkpt lat="39.499995" lon="-0.653271">
        <ele>122.208</ele>
        <time>2020-08-10T08:38:40Z</time>
      </trkpt>
      <trkpt lat="39.499818" lon="-0.653382">
        <ele>123.868</ele>
        <time>2020-08-10T08:38:44Z</time>
      </trkpt>
      <trkpt lat="39.499677" lon="-0.653537">
        <ele>124.787</ele>
        <time>2020-08-10T08:38:48Z</time>
      </trkpt>
      <trkpt lat="39.499528" lon="-0.653726">
        <ele>124.672</ele>
        <time>2020-08-10T08:38:53Z</time>
      </trkpt>
      <trkpt lat="39.499394" lon="-0.653892">
        <ele>124.611</ele>
        <time>2020-08-10T08:38:58Z</time>
      </trkpt>
      <trkpt lat="39.499247" lon="-0.654067">
        <ele>125.481</ele>
        <time>2020-08-10T08:39:04Z</time>
      </trkpt>
      <trkpt lat="39.499111" lon="-0.654236">
        <ele>127.132</ele>
        <time>2020-08-10T08:39:10Z</time>
      </trkpt>
      <trkpt lat="39.498970" lon="-0.654420">
        <ele>127.393</ele>
        <time>2020-08-10T08:39:16Z</time>
      </trkpt>
      <trkpt lat="39.498831" lon="-0.654604">
        <ele>128.044</ele>
        <time>2020-08-10T08:39:22Z</time>
      </trkpt>
      <trkpt lat="39.498699" lon="-0.654797">
        <ele>128.329</ele>
        <time>2020-08-10T08:39:28Z</time>
      </trkpt>
      <trkpt lat="39.498575" lon="-0.654977">
        <ele>128.100</ele>
        <time>2020-08-10T08:39:34Z</time>
      </trkpt>
      <trkpt lat="39.498459" lon="-0.655161">
        <ele>128.320</ele>
        <time>2020-08-10T08:39:40Z</time>
      </trkpt>
      <trkpt lat="39.498335" lon="-0.655340">
        <ele>129.508</ele>
        <time>2020-08-10T08:39:46Z</time>
      </trkpt>
      <trkpt lat="39.498204" lon="-0.655534">
        <ele>130.157</ele>
        <time>2020-08-10T08:39:52Z</time>
      </trkpt>
      <trkpt lat="39.498094" lon="-0.655743">
        <ele>130.516</ele>
        <time>2020-08-10T08:39:58Z</time>
      </trkpt>
      <trkpt lat="39.498026" lon="-0.655995">
        <ele>131.181</ele>
        <time>2020-08-10T08:40:04Z</time>
      </trkpt>
      <trkpt lat="39.497994" lon="-0.656270">
        <ele>131.280</ele>
        <time>2020-08-10T08:40:10Z</time>
      </trkpt>
      <trkpt lat="39.497959" lon="-0.656543">
        <ele>131.270</ele>
        <time>2020-08-10T08:40:15Z</time>
      </trkpt>
      <trkpt lat="39.497936" lon="-0.656776">
        <ele>131.371</ele>
        <time>2020-08-10T08:40:19Z</time>
      </trkpt>
      <trkpt lat="39.497901" lon="-0.657011">
        <ele>131.252</ele>
        <time>2020-08-10T08:40:23Z</time>
      </trkpt>
      <trkpt lat="39.497867" lon="-0.657282">
        <ele>131.243</ele>
        <time>2020-08-10T08:40:27Z</time>
      </trkpt>
      <trkpt lat="39.497834" lon="-0.657563">
        <ele>131.324</ele>
        <time>2020-08-10T08:40:31Z</time>
      </trkpt>
      <trkpt lat="39.497798" lon="-0.657839">
        <ele>131.604</ele>
        <time>2020-08-10T08:40:35Z</time>
      </trkpt>
      <trkpt lat="39.497768" lon="-0.658118">
        <ele>130.714</ele>
        <time>2020-08-10T08:40:39Z</time>
      </trkpt>
      <trkpt lat="39.497740" lon="-0.658387">
        <ele>130.208</ele>
        <time>2020-08-10T08:40:43Z</time>
      </trkpt>
      <trkpt lat="39.497705" lon="-0.658666">
        <ele>130.097</ele>
        <time>2020-08-10T08:40:47Z</time>
      </trkpt>
      <trkpt lat="39.497661" lon="-0.658940">
        <ele>132.056</ele>
        <time>2020-08-10T08:40:51Z</time>
      </trkpt>
      <trkpt lat="39.497626" lon="-0.659221">
        <ele>131.381</ele>
        <time>2020-08-10T08:40:55Z</time>
      </trkpt>
      <trkpt lat="39.497600" lon="-0.659506">
        <ele>130.590</ele>
        <time>2020-08-10T08:40:59Z</time>
      </trkpt>
      <trkpt lat="39.497589" lon="-0.659784">
        <ele>130.750</ele>
        <time>2020-08-10T08:41:03Z</time>
      </trkpt>
      <trkpt lat="39.497590" lon="-0.660058">
        <ele>131.051</ele>
        <time>2020-08-10T08:41:07Z</time>
      </trkpt>
      <trkpt lat="39.497587" lon="-0.660330">
        <ele>131.042</ele>
        <time>2020-08-10T08:41:11Z</time>
      </trkpt>
      <trkpt lat="39.497583" lon="-0.660592">
        <ele>130.973</ele>
        <time>2020-08-10T08:41:15Z</time>
      </trkpt>
      <trkpt lat="39.497585" lon="-0.660858">
        <ele>130.886</ele>
        <time>2020-08-10T08:41:19Z</time>
      </trkpt>
      <trkpt lat="39.497588" lon="-0.661132">
        <ele>130.760</ele>
        <time>2020-08-10T08:41:23Z</time>
      </trkpt>
      <trkpt lat="39.497579" lon="-0.661388">
        <ele>130.826</ele>
        <time>2020-08-10T08:41:27Z</time>
      </trkpt>
      <trkpt lat="39.497574" lon="-0.661653">
        <ele>132.108</ele>
        <time>2020-08-10T08:41:32Z</time>
      </trkpt>
      <trkpt lat="39.497595" lon="-0.661919">
        <ele>132.023</ele>
        <time>2020-08-10T08:41:38Z</time>
      </trkpt>
      <trkpt lat="39.497638" lon="-0.662184">
        <ele>134.612</ele>
        <time>2020-08-10T08:41:45Z</time>
      </trkpt>
      <trkpt lat="39.497676" lon="-0.662426">
        <ele>136.147</ele>
        <time>2020-08-10T08:41:51Z</time>
      </trkpt>
      <trkpt lat="39.497704" lon="-0.662693">
        <ele>137.616</ele>
        <time>2020-08-10T08:41:58Z</time>
      </trkpt>
      <trkpt lat="39.497752" lon="-0.662947">
        <ele>137.876</ele>
        <time>2020-08-10T08:42:04Z</time>
      </trkpt>
      <trkpt lat="39.497793" lon="-0.663197">
        <ele>137.237</ele>
        <time>2020-08-10T08:42:09Z</time>
      </trkpt>
      <trkpt lat="39.497835" lon="-0.663465">
        <ele>136.968</ele>
        <time>2020-08-10T08:42:14Z</time>
      </trkpt>
      <trkpt lat="39.497882" lon="-0.663740">
        <ele>137.179</ele>
        <time>2020-08-10T08:42:19Z</time>
      </trkpt>
      <trkpt lat="39.497919" lon="-0.663968">
        <ele>136.924</ele>
        <time>2020-08-10T08:42:23Z</time>
      </trkpt>
      <trkpt lat="39.497963" lon="-0.664230">
        <ele>138.604</ele>
        <time>2020-08-10T08:42:28Z</time>
      </trkpt>
      <trkpt lat="39.497999" lon="-0.664501">
        <ele>139.914</ele>
        <time>2020-08-10T08:42:33Z</time>
      </trkpt>
      <trkpt lat="39.498041" lon="-0.664775">
        <ele>140.508</ele>
        <time>2020-08-10T08:42:38Z</time>
      </trkpt>
      <trkpt lat="39.498085" lon="-0.665033">
        <ele>141.297</ele>
        <time>2020-08-10T08:42:43Z</time>
      </trkpt>
      <trkpt lat="39.498140" lon="-0.665288">
        <ele>141.096</ele>
        <time>2020-08-10T08:42:48Z</time>
      </trkpt>
      <trkpt lat="39.498241" lon="-0.665546">
        <ele>140.711</ele>
        <time>2020-08-10T08:42:53Z</time>
      </trkpt>
      <trkpt lat="39.498347" lon="-0.665791">
        <ele>139.920</ele>
        <time>2020-08-10T08:42:57Z</time>
      </trkpt>
      <trkpt lat="39.498438" lon="-0.665997">
        <ele>139.490</ele>
        <time>2020-08-10T08:43:00Z</time>
      </trkpt>
      <trkpt lat="39.498533" lon="-0.666208">
        <ele>139.061</ele>
        <time>2020-08-10T08:43:03Z</time>
      </trkpt>
      <trkpt lat="39.498631" lon="-0.666426">
        <ele>138.882</ele>
        <time>2020-08-10T08:43:06Z</time>
      </trkpt>
      <trkpt lat="39.498731" lon="-0.666642">
        <ele>138.413</ele>
        <time>2020-08-10T08:43:09Z</time>
      </trkpt>
      <trkpt lat="39.498823" lon="-0.666848">
        <ele>138.694</ele>
        <time>2020-08-10T08:43:12Z</time>
      </trkpt>
      <trkpt lat="39.498894" lon="-0.667073">
        <ele>137.957</ele>
        <time>2020-08-10T08:43:15Z</time>
      </trkpt>
      <trkpt lat="39.498914" lon="-0.667316">
        <ele>137.522</ele>
        <time>2020-08-10T08:43:18Z</time>
      </trkpt>
      <trkpt lat="39.498914" lon="-0.667570">
        <ele>137.008</ele>
        <time>2020-08-10T08:43:21Z</time>
      </trkpt>
      <trkpt lat="39.498919" lon="-0.667819">
        <ele>136.754</ele>
        <time>2020-08-10T08:43:24Z</time>
      </trkpt>
      <trkpt lat="39.498927" lon="-0.668069">
        <ele>137.013</ele>
        <time>2020-08-10T08:43:27Z</time>
      </trkpt>
      <trkpt lat="39.498926" lon="-0.668308">
        <ele>137.058</ele>
        <time>2020-08-10T08:43:30Z</time>
      </trkpt>
      <trkpt lat="39.498912" lon="-0.668552">
        <ele>136.567</ele>
        <time>2020-08-10T08:43:33Z</time>
      </trkpt>
      <trkpt lat="39.498880" lon="-0.668791">
        <ele>136.027</ele>
        <time>2020-08-10T08:43:36Z</time>
      </trkpt>
      <trkpt lat="39.498838" lon="-0.669018">
        <ele>136.038</ele>
        <time>2020-08-10T08:43:39Z</time>
      </trkpt>
      <trkpt lat="39.498791" lon="-0.669288">
        <ele>137.049</ele>
        <time>2020-08-10T08:43:43Z</time>
      </trkpt>
      <trkpt lat="39.498755" lon="-0.669545">
        <ele>137.010</ele>
        <time>2020-08-10T08:43:47Z</time>
      </trkpt>
      <trkpt lat="39.498753" lon="-0.669805">
        <ele>136.982</ele>
        <time>2020-08-10T08:43:51Z</time>
      </trkpt>
      <trkpt lat="39.498786" lon="-0.670052">
        <ele>137.043</ele>
        <time>2020-08-10T08:43:55Z</time>
      </trkpt>
      <trkpt lat="39.498871" lon="-0.670285">
        <ele>138.117</ele>
        <time>2020-08-10T08:43:59Z</time>
      </trkpt>
      <trkpt lat="39.498987" lon="-0.670505">
        <ele>137.808</ele>
        <time>2020-08-10T08:44:03Z</time>
      </trkpt>
      <trkpt lat="39.499100" lon="-0.670742">
        <ele>138.423</ele>
        <time>2020-08-10T08:44:07Z</time>
      </trkpt>
      <trkpt lat="39.499229" lon="-0.670975">
        <ele>138.582</ele>
        <time>2020-08-10T08:44:11Z</time>
      </trkpt>
      <trkpt lat="39.499351" lon="-0.671218">
        <ele>138.877</ele>
        <time>2020-08-10T08:44:15Z</time>
      </trkpt>
      <trkpt lat="39.499477" lon="-0.671455">
        <ele>139.276</ele>
        <time>2020-08-10T08:44:19Z</time>
      </trkpt>
      <trkpt lat="39.499609" lon="-0.671716">
        <ele>139.036</ele>
        <time>2020-08-10T08:44:23Z</time>
      </trkpt>
      <trkpt lat="39.499679" lon="-0.671946">
        <ele>138.487</ele>
        <time>2020-08-10T08:44:26Z</time>
      </trkpt>
      <trkpt lat="39.499607" lon="-0.672167">
        <ele>139.178</ele>
        <time>2020-08-10T08:44:29Z</time>
      </trkpt>
      <trkpt lat="39.499435" lon="-0.672314">
        <ele>138.849</ele>
        <time>2020-08-10T08:44:32Z</time>
      </trkpt>
      <trkpt lat="39.499264" lon="-0.672460">
        <ele>138.579</ele>
        <time>2020-08-10T08:44:35Z</time>
      </trkpt>
      <trkpt lat="39.499102" lon="-0.672619">
        <ele>138.605</ele>
        <time>2020-08-10T08:44:38Z</time>
      </trkpt>
      <trkpt lat="39.498940" lon="-0.672764">
        <ele>139.325</ele>
        <time>2020-08-10T08:44:41Z</time>
      </trkpt>
      <trkpt lat="39.498785" lon="-0.672902">
        <ele>140.308</ele>
        <time>2020-08-10T08:44:44Z</time>
      </trkpt>
      <trkpt lat="39.498635" lon="-0.673037">
        <ele>141.522</ele>
        <time>2020-08-10T08:44:47Z</time>
      </trkpt>
      <trkpt lat="39.498464" lon="-0.673200">
        <ele>142.121</ele>
        <time>2020-08-10T08:44:51Z</time>
      </trkpt>
      <trkpt lat="39.498316" lon="-0.673349">
        <ele>142.236</ele>
        <time>2020-08-10T08:44:55Z</time>
      </trkpt>
      <trkpt lat="39.498187" lon="-0.673554">
        <ele>142.445</ele>
        <time>2020-08-10T08:45:00Z</time>
      </trkpt>
      <trkpt lat="39.498151" lon="-0.673785">
        <ele>143.345</ele>
        <time>2020-08-10T08:45:05Z</time>
      </trkpt>
      <trkpt lat="39.498126" lon="-0.674018">
        <ele>144.626</ele>
        <time>2020-08-10T08:45:11Z</time>
      </trkpt>
      <trkpt lat="39.498100" lon="-0.674254">
        <ele>147.057</ele>
        <time>2020-08-10T08:45:17Z</time>
      </trkpt>
      <trkpt lat="39.498071" lon="-0.674523">
        <ele>148.588</ele>
        <time>2020-08-10T08:45:24Z</time>
      </trkpt>
      <trkpt lat="39.498038" lon="-0.674753">
        <ele>147.068</ele>
        <time>2020-08-10T08:45:30Z</time>
      </trkpt>
      <trkpt lat="39.498021" lon="-0.675022">
        <ele>145.542</ele>
        <time>2020-08-10T08:45:37Z</time>
      </trkpt>
      <trkpt lat="39.497998" lon="-0.675293">
        <ele>146.326</ele>
        <time>2020-08-10T08:45:44Z</time>
      </trkpt>
      <trkpt lat="39.497975" lon="-0.675551">
        <ele>147.308</ele>
        <time>2020-08-10T08:45:50Z</time>
      </trkpt>
      <trkpt lat="39.497951" lon="-0.675799">
        <ele>148.731</ele>
        <time>2020-08-10T08:45:55Z</time>
      </trkpt>
      <trkpt lat="39.497927" lon="-0.676068">
        <ele>149.680</ele>
        <time>2020-08-10T08:46:00Z</time>
      </trkpt>
      <trkpt lat="39.497904" lon="-0.676341">
        <ele>148.555</ele>
        <time>2020-08-10T08:46:05Z</time>
      </trkpt>
      <trkpt lat="39.497873" lon="-0.676619">
        <ele>148.054</ele>
        <time>2020-08-10T08:46:10Z</time>
      </trkpt>
      <trkpt lat="39.497839" lon="-0.676895">
        <ele>149.064</ele>
        <time>2020-08-10T08:46:15Z</time>
      </trkpt>
      <trkpt lat="39.497818" lon="-0.677171">
        <ele>150.155</ele>
        <time>2020-08-10T08:46:20Z</time>
      </trkpt>
      <trkpt lat="39.497878" lon="-0.677403">
        <ele>153.366</ele>
        <time>2020-08-10T08:46:25Z</time>
      </trkpt>
      <trkpt lat="39.497899" lon="-0.677718">
        <ele>152.337</ele>
        <time>2020-08-10T08:46:31Z</time>
      </trkpt>
      <trkpt lat="39.497821" lon="-0.677934">
        <ele>149.939</ele>
        <time>2020-08-10T08:46:35Z</time>
      </trkpt>
      <trkpt lat="39.497796" lon="-0.678178">
        <ele>148.401</ele>
        <time>2020-08-10T08:46:39Z</time>
      </trkpt>
      <trkpt lat="39.497814" lon="-0.678450">
        <ele>149.321</ele>
        <time>2020-08-10T08:46:44Z</time>
      </trkpt>
      <trkpt lat="39.497871" lon="-0.678700">
        <ele>152.408</ele>
        <time>2020-08-10T08:46:50Z</time>
      </trkpt>
      <trkpt lat="39.498012" lon="-0.678542">
        <ele>152.518</ele>
        <time>2020-08-10T08:46:56Z</time>
      </trkpt>
      <trkpt lat="39.497859" lon="-0.678729">
        <ele>155.537</ele>
        <time>2020-08-10T08:59:15Z</time>
      </trkpt>
      <trkpt lat="39.497831" lon="-0.679007">
        <ele>155.062</ele>
        <time>2020-08-10T08:59:21Z</time>
      </trkpt>
      <trkpt lat="39.497861" lon="-0.679261">
        <ele>154.311</ele>
        <time>2020-08-10T08:59:26Z</time>
      </trkpt>
      <trkpt lat="39.497896" lon="-0.679519">
        <ele>153.251</ele>
        <time>2020-08-10T08:59:31Z</time>
      </trkpt>
      <trkpt lat="39.497724" lon="-0.679675">
        <ele>154.412</ele>
        <time>2020-08-10T08:59:36Z</time>
      </trkpt>
      <trkpt lat="39.497570" lon="-0.679555">
        <ele>154.363</ele>
        <time>2020-08-10T08:59:40Z</time>
      </trkpt>
      <trkpt lat="39.497422" lon="-0.679404">
        <ele>153.654</ele>
        <time>2020-08-10T08:59:44Z</time>
      </trkpt>
      <trkpt lat="39.497215" lon="-0.679400">
        <ele>152.331</ele>
        <time>2020-08-10T08:59:48Z</time>
      </trkpt>
      <trkpt lat="39.497006" lon="-0.679414">
        <ele>152.461</ele>
        <time>2020-08-10T08:59:52Z</time>
      </trkpt>
      <trkpt lat="39.496804" lon="-0.679425">
        <ele>153.607</ele>
        <time>2020-08-10T08:59:56Z</time>
      </trkpt>
      <trkpt lat="39.496597" lon="-0.679443">
        <ele>154.808</ele>
        <time>2020-08-10T09:00:00Z</time>
      </trkpt>
      <trkpt lat="39.496389" lon="-0.679449">
        <ele>156.188</ele>
        <time>2020-08-10T09:00:04Z</time>
      </trkpt>
      <trkpt lat="39.496186" lon="-0.679453">
        <ele>156.917</ele>
        <time>2020-08-10T09:00:08Z</time>
      </trkpt>
      <trkpt lat="39.495989" lon="-0.679477">
        <ele>157.692</ele>
        <time>2020-08-10T09:00:12Z</time>
      </trkpt>
      <trkpt lat="39.495789" lon="-0.679480">
        <ele>158.391</ele>
        <time>2020-08-10T09:00:16Z</time>
      </trkpt>
      <trkpt lat="39.495590" lon="-0.679504">
        <ele>157.731</ele>
        <time>2020-08-10T09:00:20Z</time>
      </trkpt>
      <trkpt lat="39.495401" lon="-0.679518">
        <ele>157.042</ele>
        <time>2020-08-10T09:00:24Z</time>
      </trkpt>
      <trkpt lat="39.495220" lon="-0.679529">
        <ele>156.333</ele>
        <time>2020-08-10T09:00:28Z</time>
      </trkpt>
      <trkpt lat="39.495036" lon="-0.679552">
        <ele>156.344</ele>
        <time>2020-08-10T09:00:32Z</time>
      </trkpt>
      <trkpt lat="39.494853" lon="-0.679580">
        <ele>156.967</ele>
        <time>2020-08-10T09:00:36Z</time>
      </trkpt>
      <trkpt lat="39.494665" lon="-0.679614">
        <ele>157.781</ele>
        <time>2020-08-10T09:00:40Z</time>
      </trkpt>
      <trkpt lat="39.494483" lon="-0.679654">
        <ele>157.719</ele>
        <time>2020-08-10T09:00:44Z</time>
      </trkpt>
      <trkpt lat="39.494264" lon="-0.679696">
        <ele>157.708</ele>
        <time>2020-08-10T09:00:49Z</time>
      </trkpt>
      <trkpt lat="39.494050" lon="-0.679763">
        <ele>156.351</ele>
        <time>2020-08-10T09:00:54Z</time>
      </trkpt>
      <trkpt lat="39.493849" lon="-0.679817">
        <ele>157.560</ele>
        <time>2020-08-10T09:00:59Z</time>
      </trkpt>
      <trkpt lat="39.493662" lon="-0.679942">
        <ele>157.525</ele>
        <time>2020-08-10T09:01:04Z</time>
      </trkpt>
      <trkpt lat="39.493456" lon="-0.679991">
        <ele>156.524</ele>
        <time>2020-08-10T09:01:09Z</time>
      </trkpt>
      <trkpt lat="39.493294" lon="-0.679796">
        <ele>156.934</ele>
        <time>2020-08-10T09:01:14Z</time>
      </trkpt>
      <trkpt lat="39.493184" lon="-0.679557">
        <ele>156.075</ele>
        <time>2020-08-10T09:01:19Z</time>
      </trkpt>
      <trkpt lat="39.493003" lon="-0.679379">
        <ele>155.136</ele>
        <time>2020-08-10T09:01:24Z</time>
      </trkpt>
      <trkpt lat="39.492833" lon="-0.679213">
        <ele>154.047</ele>
        <time>2020-08-10T09:01:28Z</time>
      </trkpt>
      <trkpt lat="39.492690" lon="-0.679062">
        <ele>153.664</ele>
        <time>2020-08-10T09:01:31Z</time>
      </trkpt>
      <trkpt lat="39.492524" lon="-0.678887">
        <ele>152.306</ele>
        <time>2020-08-10T09:01:34Z</time>
      </trkpt>
      <trkpt lat="39.492332" lon="-0.678682">
        <ele>150.716</ele>
        <time>2020-08-10T09:01:37Z</time>
      </trkpt>
      <trkpt lat="39.492188" lon="-0.678542">
        <ele>149.308</ele>
        <time>2020-08-10T09:01:39Z</time>
      </trkpt>
      <trkpt lat="39.492028" lon="-0.678434">
        <ele>149.331</ele>
        <time>2020-08-10T09:01:41Z</time>
      </trkpt>
      <trkpt lat="39.491773" lon="-0.678430">
        <ele>149.040</ele>
        <time>2020-08-10T09:01:44Z</time>
      </trkpt>
      <trkpt lat="39.491537" lon="-0.678512">
        <ele>147.455</ele>
        <time>2020-08-10T09:01:47Z</time>
      </trkpt>
      <trkpt lat="39.491367" lon="-0.678723">
        <ele>146.794</ele>
        <time>2020-08-10T09:01:50Z</time>
      </trkpt>
      <trkpt lat="39.491247" lon="-0.678981">
        <ele>147.694</ele>
        <time>2020-08-10T09:01:53Z</time>
      </trkpt>
      <trkpt lat="39.491151" lon="-0.679238">
        <ele>147.955</ele>
        <time>2020-08-10T09:01:56Z</time>
      </trkpt>
      <trkpt lat="39.491077" lon="-0.679479">
        <ele>148.586</ele>
        <time>2020-08-10T09:01:59Z</time>
      </trkpt>
      <trkpt lat="39.491012" lon="-0.679707">
        <ele>148.977</ele>
        <time>2020-08-10T09:02:02Z</time>
      </trkpt>
      <trkpt lat="39.490928" lon="-0.679978">
        <ele>149.351</ele>
        <time>2020-08-10T09:02:06Z</time>
      </trkpt>
      <trkpt lat="39.490846" lon="-0.680232">
        <ele>149.501</ele>
        <time>2020-08-10T09:02:10Z</time>
      </trkpt>
      <trkpt lat="39.490771" lon="-0.680471">
        <ele>149.811</ele>
        <time>2020-08-10T09:02:14Z</time>
      </trkpt>
      <trkpt lat="39.490699" lon="-0.680712">
        <ele>150.008</ele>
        <time>2020-08-10T09:02:18Z</time>
      </trkpt>
      <trkpt lat="39.490627" lon="-0.680952">
        <ele>150.490</ele>
        <time>2020-08-10T09:02:22Z</time>
      </trkpt>
      <trkpt lat="39.490560" lon="-0.681202">
        <ele>149.379</ele>
        <time>2020-08-10T09:02:26Z</time>
      </trkpt>
      <trkpt lat="39.490482" lon="-0.681450">
        <ele>149.654</ele>
        <time>2020-08-10T09:02:30Z</time>
      </trkpt>
      <trkpt lat="39.490409" lon="-0.681687">
        <ele>150.193</ele>
        <time>2020-08-10T09:02:34Z</time>
      </trkpt>
      <trkpt lat="39.490337" lon="-0.681915">
        <ele>151.273</ele>
        <time>2020-08-10T09:02:38Z</time>
      </trkpt>
      <trkpt lat="39.490265" lon="-0.682135">
        <ele>153.354</ele>
        <time>2020-08-10T09:02:42Z</time>
      </trkpt>
      <trkpt lat="39.490200" lon="-0.682360">
        <ele>153.425</ele>
        <time>2020-08-10T09:02:46Z</time>
      </trkpt>
      <trkpt lat="39.490134" lon="-0.682583">
        <ele>153.196</ele>
        <time>2020-08-10T09:02:50Z</time>
      </trkpt>
      <trkpt lat="39.490065" lon="-0.682801">
        <ele>153.421</ele>
        <time>2020-08-10T09:02:54Z</time>
      </trkpt>
      <trkpt lat="39.489982" lon="-0.683061">
        <ele>153.141</ele>
        <time>2020-08-10T09:02:59Z</time>
      </trkpt>
      <trkpt lat="39.489902" lon="-0.683327">
        <ele>153.105</ele>
        <time>2020-08-10T09:03:04Z</time>
      </trkpt>
      <trkpt lat="39.489819" lon="-0.683592">
        <ele>153.008</ele>
        <time>2020-08-10T09:03:09Z</time>
      </trkpt>
      <trkpt lat="39.489739" lon="-0.683857">
        <ele>153.397</ele>
        <time>2020-08-10T09:03:14Z</time>
      </trkpt>
      <trkpt lat="39.489665" lon="-0.684079">
        <ele>153.836</ele>
        <time>2020-08-10T09:03:18Z</time>
      </trkpt>
      <trkpt lat="39.489587" lon="-0.684312">
        <ele>153.461</ele>
        <time>2020-08-10T09:03:22Z</time>
      </trkpt>
      <trkpt lat="39.489482" lon="-0.684532">
        <ele>153.710</ele>
        <time>2020-08-10T09:03:26Z</time>
      </trkpt>
      <trkpt lat="39.489367" lon="-0.684727">
        <ele>153.120</ele>
        <time>2020-08-10T09:03:30Z</time>
      </trkpt>
      <trkpt lat="39.489351" lon="-0.684997">
        <ele>153.381</ele>
        <time>2020-08-10T09:03:35Z</time>
      </trkpt>
      <trkpt lat="39.489313" lon="-0.685244">
        <ele>155.872</ele>
        <time>2020-08-10T09:03:40Z</time>
      </trkpt>
      <trkpt lat="39.489143" lon="-0.685378">
        <ele>157.233</ele>
        <time>2020-08-10T09:03:45Z</time>
      </trkpt>
      <trkpt lat="39.488963" lon="-0.685529">
        <ele>155.999</ele>
        <time>2020-08-10T09:03:50Z</time>
      </trkpt>
      <trkpt lat="39.488876" lon="-0.685733">
        <ele>156.207</ele>
        <time>2020-08-10T09:03:54Z</time>
      </trkpt>
      <trkpt lat="39.488784" lon="-0.685992">
        <ele>157.127</ele>
        <time>2020-08-10T09:03:59Z</time>
      </trkpt>
      <trkpt lat="39.488714" lon="-0.686250">
        <ele>158.008</ele>
        <time>2020-08-10T09:04:04Z</time>
      </trkpt>
      <trkpt lat="39.488658" lon="-0.686502">
        <ele>158.954</ele>
        <time>2020-08-10T09:04:09Z</time>
      </trkpt>
      <trkpt lat="39.488629" lon="-0.686741">
        <ele>160.013</ele>
        <time>2020-08-10T09:04:14Z</time>
      </trkpt>
      <trkpt lat="39.488613" lon="-0.687020">
        <ele>161.088</ele>
        <time>2020-08-10T09:04:20Z</time>
      </trkpt>
      <trkpt lat="39.488612" lon="-0.687283">
        <ele>161.627</ele>
        <time>2020-08-10T09:04:26Z</time>
      </trkpt>
      <trkpt lat="39.488625" lon="-0.687556">
        <ele>164.627</ele>
        <time>2020-08-10T09:04:32Z</time>
      </trkpt>
      <trkpt lat="39.488637" lon="-0.687825">
        <ele>164.488</ele>
        <time>2020-08-10T09:04:38Z</time>
      </trkpt>
      <trkpt lat="39.488646" lon="-0.688059">
        <ele>163.859</ele>
        <time>2020-08-10T09:04:43Z</time>
      </trkpt>
      <trkpt lat="39.488672" lon="-0.688335">
        <ele>164.610</ele>
        <time>2020-08-10T09:04:49Z</time>
      </trkpt>
      <trkpt lat="39.488698" lon="-0.688574">
        <ele>166.327</ele>
        <time>2020-08-10T09:04:55Z</time>
      </trkpt>
      <trkpt lat="39.488731" lon="-0.688821">
        <ele>168.668</ele>
        <time>2020-08-10T09:05:02Z</time>
      </trkpt>
      <trkpt lat="39.488878" lon="-0.688983">
        <ele>166.914</ele>
        <time>2020-08-10T09:05:09Z</time>
      </trkpt>
      <trkpt lat="39.489046" lon="-0.689099">
        <ele>165.208</ele>
        <time>2020-08-10T09:05:14Z</time>
      </trkpt>
      <trkpt lat="39.489143" lon="-0.689339">
        <ele>165.237</ele>
        <time>2020-08-10T09:05:19Z</time>
      </trkpt>
      <trkpt lat="39.489086" lon="-0.689568">
        <ele>165.666</ele>
        <time>2020-08-10T09:05:23Z</time>
      </trkpt>
      <trkpt lat="39.488892" lon="-0.689680">
        <ele>165.891</ele>
        <time>2020-08-10T09:05:27Z</time>
      </trkpt>
      <trkpt lat="39.488673" lon="-0.689589">
        <ele>166.010</ele>
        <time>2020-08-10T09:05:31Z</time>
      </trkpt>
      <trkpt lat="39.488490" lon="-0.689549">
        <ele>165.750</ele>
        <time>2020-08-10T09:05:34Z</time>
      </trkpt>
      <trkpt lat="39.488287" lon="-0.689612">
        <ele>165.481</ele>
        <time>2020-08-10T09:05:37Z</time>
      </trkpt>
      <trkpt lat="39.488087" lon="-0.689705">
        <ele>165.162</ele>
        <time>2020-08-10T09:05:40Z</time>
      </trkpt>
      <trkpt lat="39.487887" lon="-0.689821">
        <ele>165.273</ele>
        <time>2020-08-10T09:05:43Z</time>
      </trkpt>
      <trkpt lat="39.487684" lon="-0.689940">
        <ele>164.614</ele>
        <time>2020-08-10T09:05:46Z</time>
      </trkpt>
      <trkpt lat="39.487470" lon="-0.690054">
        <ele>165.254</ele>
        <time>2020-08-10T09:05:49Z</time>
      </trkpt>
      <trkpt lat="39.487259" lon="-0.690177">
        <ele>164.909</ele>
        <time>2020-08-10T09:05:52Z</time>
      </trkpt>
      <trkpt lat="39.487047" lon="-0.690303">
        <ele>164.008</ele>
        <time>2020-08-10T09:05:55Z</time>
      </trkpt>
      <trkpt lat="39.486837" lon="-0.690428">
        <ele>162.926</ele>
        <time>2020-08-10T09:05:58Z</time>
      </trkpt>
      <trkpt lat="39.486622" lon="-0.690556">
        <ele>162.545</ele>
        <time>2020-08-10T09:06:01Z</time>
      </trkpt>
      <trkpt lat="39.486421" lon="-0.690678">
        <ele>162.880</ele>
        <time>2020-08-10T09:06:04Z</time>
      </trkpt>
      <trkpt lat="39.486228" lon="-0.690791">
        <ele>163.179</ele>
        <time>2020-08-10T09:06:07Z</time>
      </trkpt>
      <trkpt lat="39.486043" lon="-0.690891">
        <ele>162.959</ele>
        <time>2020-08-10T09:06:10Z</time>
      </trkpt>
      <trkpt lat="39.485868" lon="-0.690995">
        <ele>163.320</ele>
        <time>2020-08-10T09:06:13Z</time>
      </trkpt>
      <trkpt lat="39.485702" lon="-0.691091">
        <ele>163.811</ele>
        <time>2020-08-10T09:06:16Z</time>
      </trkpt>
      <trkpt lat="39.485501" lon="-0.691212">
        <ele>164.142</ele>
        <time>2020-08-10T09:06:20Z</time>
      </trkpt>
      <trkpt lat="39.485324" lon="-0.691320">
        <ele>164.916</ele>
        <time>2020-08-10T09:06:24Z</time>
      </trkpt>
      <trkpt lat="39.485121" lon="-0.691443">
        <ele>165.976</ele>
        <time>2020-08-10T09:06:29Z</time>
      </trkpt>
      <trkpt lat="39.484923" lon="-0.691561">
        <ele>165.713</ele>
        <time>2020-08-10T09:06:34Z</time>
      </trkpt>
      <trkpt lat="39.484729" lon="-0.691677">
        <ele>166.108</ele>
        <time>2020-08-10T09:06:39Z</time>
      </trkpt>
      <trkpt lat="39.484526" lon="-0.691800">
        <ele>165.976</ele>
        <time>2020-08-10T09:06:44Z</time>
      </trkpt>
      <trkpt lat="39.484344" lon="-0.691907">
        <ele>165.195</ele>
        <time>2020-08-10T09:06:48Z</time>
      </trkpt>
      <trkpt lat="39.484153" lon="-0.692021">
        <ele>164.910</ele>
        <time>2020-08-10T09:06:52Z</time>
      </trkpt>
      <trkpt lat="39.483955" lon="-0.692149">
        <ele>164.969</ele>
        <time>2020-08-10T09:06:56Z</time>
      </trkpt>
      <trkpt lat="39.483782" lon="-0.692308">
        <ele>165.949</ele>
        <time>2020-08-10T09:07:00Z</time>
      </trkpt>
      <trkpt lat="39.483654" lon="-0.692493">
        <ele>167.160</ele>
        <time>2020-08-10T09:07:04Z</time>
      </trkpt>
      <trkpt lat="39.483612" lon="-0.692756">
        <ele>166.541</ele>
        <time>2020-08-10T09:07:08Z</time>
      </trkpt>
      <trkpt lat="39.483562" lon="-0.693039">
        <ele>166.882</ele>
        <time>2020-08-10T09:07:12Z</time>
      </trkpt>
      <trkpt lat="39.483507" lon="-0.693316">
        <ele>166.951</ele>
        <time>2020-08-10T09:07:16Z</time>
      </trkpt>
      <trkpt lat="39.483458" lon="-0.693607">
        <ele>167.801</ele>
        <time>2020-08-10T09:07:20Z</time>
      </trkpt>
      <trkpt lat="39.483405" lon="-0.693897">
        <ele>168.711</ele>
        <time>2020-08-10T09:07:24Z</time>
      </trkpt>
      <trkpt lat="39.483351" lon="-0.694171">
        <ele>169.008</ele>
        <time>2020-08-10T09:07:28Z</time>
      </trkpt>
      <trkpt lat="39.483286" lon="-0.694425">
        <ele>168.580</ele>
        <time>2020-08-10T09:07:32Z</time>
      </trkpt>
      <trkpt lat="39.483205" lon="-0.694654">
        <ele>168.019</ele>
        <time>2020-08-10T09:07:36Z</time>
      </trkpt>
      <trkpt lat="39.483115" lon="-0.694884">
        <ele>167.864</ele>
        <time>2020-08-10T09:07:40Z</time>
      </trkpt>
      <trkpt lat="39.483023" lon="-0.695118">
        <ele>167.633</ele>
        <time>2020-08-10T09:07:44Z</time>
      </trkpt>
      <trkpt lat="39.482925" lon="-0.695353">
        <ele>167.483</ele>
        <time>2020-08-10T09:07:48Z</time>
      </trkpt>
      <trkpt lat="39.482838" lon="-0.695584">
        <ele>168.244</ele>
        <time>2020-08-10T09:07:52Z</time>
      </trkpt>
      <trkpt lat="39.482749" lon="-0.695823">
        <ele>168.465</ele>
        <time>2020-08-10T09:07:56Z</time>
      </trkpt>
      <trkpt lat="39.482658" lon="-0.696063">
        <ele>168.046</ele>
        <time>2020-08-10T09:08:00Z</time>
      </trkpt>
      <trkpt lat="39.482568" lon="-0.696296">
        <ele>168.776</ele>
        <time>2020-08-10T09:08:04Z</time>
      </trkpt>
      <trkpt lat="39.482475" lon="-0.696529">
        <ele>170.090</ele>
        <time>2020-08-10T09:08:08Z</time>
      </trkpt>
      <trkpt lat="39.482382" lon="-0.696755">
        <ele>170.819</ele>
        <time>2020-08-10T09:08:12Z</time>
      </trkpt>
      <trkpt lat="39.482285" lon="-0.696974">
        <ele>172.008</ele>
        <time>2020-08-10T09:08:16Z</time>
      </trkpt>
      <trkpt lat="39.482171" lon="-0.697186">
        <ele>172.442</ele>
        <time>2020-08-10T09:08:20Z</time>
      </trkpt>
      <trkpt lat="39.482048" lon="-0.697401">
        <ele>171.951</ele>
        <time>2020-08-10T09:08:24Z</time>
      </trkpt>
      <trkpt lat="39.481924" lon="-0.697613">
        <ele>171.616</ele>
        <time>2020-08-10T09:08:28Z</time>
      </trkpt>
      <trkpt lat="39.481805" lon="-0.697821">
        <ele>171.885</ele>
        <time>2020-08-10T09:08:32Z</time>
      </trkpt>
      <trkpt lat="39.481681" lon="-0.698020">
        <ele>172.645</ele>
        <time>2020-08-10T09:08:36Z</time>
      </trkpt>
      <trkpt lat="39.481563" lon="-0.698224">
        <ele>172.826</ele>
        <time>2020-08-10T09:08:40Z</time>
      </trkpt>
      <trkpt lat="39.481452" lon="-0.698438">
        <ele>174.067</ele>
        <time>2020-08-10T09:08:44Z</time>
      </trkpt>
      <trkpt lat="39.481351" lon="-0.698652">
        <ele>174.988</ele>
        <time>2020-08-10T09:08:48Z</time>
      </trkpt>
      <trkpt lat="39.481260" lon="-0.698878">
        <ele>175.036</ele>
        <time>2020-08-10T09:08:52Z</time>
      </trkpt>
      <trkpt lat="39.481159" lon="-0.699082">
        <ele>174.317</ele>
        <time>2020-08-10T09:08:56Z</time>
      </trkpt>
      <trkpt lat="39.481018" lon="-0.699309">
        <ele>174.618</ele>
        <time>2020-08-10T09:09:01Z</time>
      </trkpt>
      <trkpt lat="39.480894" lon="-0.699484">
        <ele>174.308</ele>
        <time>2020-08-10T09:09:05Z</time>
      </trkpt>
      <trkpt lat="39.480757" lon="-0.699644">
        <ele>174.318</ele>
        <time>2020-08-10T09:09:09Z</time>
      </trkpt>
      <trkpt lat="39.480609" lon="-0.699782">
        <ele>174.797</ele>
        <time>2020-08-10T09:09:13Z</time>
      </trkpt>
      <trkpt lat="39.480440" lon="-0.699959">
        <ele>174.252</ele>
        <time>2020-08-10T09:09:18Z</time>
      </trkpt>
      <trkpt lat="39.480288" lon="-0.700107">
        <ele>173.661</ele>
        <time>2020-08-10T09:09:23Z</time>
      </trkpt>
      <trkpt lat="39.480120" lon="-0.700272">
        <ele>174.531</ele>
        <time>2020-08-10T09:09:29Z</time>
      </trkpt>
      <trkpt lat="39.479971" lon="-0.700430">
        <ele>175.532</ele>
        <time>2020-08-10T09:09:35Z</time>
      </trkpt>
      <trkpt lat="39.479827" lon="-0.700610">
        <ele>177.033</ele>
        <time>2020-08-10T09:09:41Z</time>
      </trkpt>
      <trkpt lat="39.479694" lon="-0.700815">
        <ele>178.614</ele>
        <time>2020-08-10T09:09:48Z</time>
      </trkpt>
      <trkpt lat="39.479582" lon="-0.701008">
        <ele>180.538</ele>
        <time>2020-08-10T09:09:54Z</time>
      </trkpt>
      <trkpt lat="39.479488" lon="-0.701207">
        <ele>181.270</ele>
        <time>2020-08-10T09:10:00Z</time>
      </trkpt>
      <trkpt lat="39.479374" lon="-0.701424">
        <ele>181.417</ele>
        <time>2020-08-10T09:10:07Z</time>
      </trkpt>
      <trkpt lat="39.479255" lon="-0.701644">
        <ele>181.808</ele>
        <time>2020-08-10T09:10:14Z</time>
      </trkpt>
      <trkpt lat="39.479141" lon="-0.701869">
        <ele>183.288</ele>
        <time>2020-08-10T09:10:21Z</time>
      </trkpt>
      <trkpt lat="39.479035" lon="-0.702083">
        <ele>185.447</ele>
        <time>2020-08-10T09:10:28Z</time>
      </trkpt>
      <trkpt lat="39.478928" lon="-0.702304">
        <ele>185.942</ele>
        <time>2020-08-10T09:10:35Z</time>
      </trkpt>
      <trkpt lat="39.478799" lon="-0.702518">
        <ele>186.591</ele>
        <time>2020-08-10T09:10:42Z</time>
      </trkpt>
      <trkpt lat="39.478674" lon="-0.702693">
        <ele>186.181</ele>
        <time>2020-08-10T09:10:48Z</time>
      </trkpt>
      <trkpt lat="39.478538" lon="-0.702865">
        <ele>187.412</ele>
        <time>2020-08-10T09:10:54Z</time>
      </trkpt>
      <trkpt lat="39.478411" lon="-0.703032">
        <ele>188.993</ele>
        <time>2020-08-10T09:11:00Z</time>
      </trkpt>
      <trkpt lat="39.478284" lon="-0.703203">
        <ele>189.694</ele>
        <time>2020-08-10T09:11:06Z</time>
      </trkpt>
      <trkpt lat="39.478152" lon="-0.703403">
        <ele>191.127</ele>
        <time>2020-08-10T09:11:12Z</time>
      </trkpt>
      <trkpt lat="39.478022" lon="-0.703603">
        <ele>191.868</ele>
        <time>2020-08-10T09:11:18Z</time>
      </trkpt>
      <trkpt lat="39.477892" lon="-0.703810">
        <ele>193.214</ele>
        <time>2020-08-10T09:11:24Z</time>
      </trkpt>
      <trkpt lat="39.477751" lon="-0.704010">
        <ele>194.708</ele>
        <time>2020-08-10T09:11:30Z</time>
      </trkpt>
      <trkpt lat="39.477623" lon="-0.704222">
        <ele>195.957</ele>
        <time>2020-08-10T09:11:36Z</time>
      </trkpt>
      <trkpt lat="39.477502" lon="-0.704425">
        <ele>196.496</ele>
        <time>2020-08-10T09:11:42Z</time>
      </trkpt>
      <trkpt lat="39.477382" lon="-0.704645">
        <ele>195.371</ele>
        <time>2020-08-10T09:11:48Z</time>
      </trkpt>
      <trkpt lat="39.477258" lon="-0.704851">
        <ele>197.060</ele>
        <time>2020-08-10T09:11:54Z</time>
      </trkpt>
      <trkpt lat="39.477123" lon="-0.705045">
        <ele>199.350</ele>
        <time>2020-08-10T09:12:00Z</time>
      </trkpt>
      <trkpt lat="39.476998" lon="-0.705238">
        <ele>202.991</ele>
        <time>2020-08-10T09:12:06Z</time>
      </trkpt>
      <trkpt lat="39.476884" lon="-0.705420">
        <ele>203.192</ele>
        <time>2020-08-10T09:12:11Z</time>
      </trkpt>
      <trkpt lat="39.476761" lon="-0.705629">
        <ele>201.213</ele>
        <time>2020-08-10T09:12:16Z</time>
      </trkpt>
      <trkpt lat="39.476636" lon="-0.705818">
        <ele>201.677</ele>
        <time>2020-08-10T09:12:20Z</time>
      </trkpt>
      <trkpt lat="39.476505" lon="-0.706012">
        <ele>201.361</ele>
        <time>2020-08-10T09:12:24Z</time>
      </trkpt>
      <trkpt lat="39.476388" lon="-0.706212">
        <ele>200.327</ele>
        <time>2020-08-10T09:12:28Z</time>
      </trkpt>
      <trkpt lat="39.476256" lon="-0.706425">
        <ele>199.308</ele>
        <time>2020-08-10T09:12:32Z</time>
      </trkpt>
      <trkpt lat="39.476128" lon="-0.706654">
        <ele>197.582</ele>
        <time>2020-08-10T09:12:36Z</time>
      </trkpt>
      <trkpt lat="39.476000" lon="-0.706879">
        <ele>197.241</ele>
        <time>2020-08-10T09:12:40Z</time>
      </trkpt>
      <trkpt lat="39.475863" lon="-0.707100">
        <ele>197.786</ele>
        <time>2020-08-10T09:12:44Z</time>
      </trkpt>
      <trkpt lat="39.475749" lon="-0.707343">
        <ele>197.075</ele>
        <time>2020-08-10T09:12:48Z</time>
      </trkpt>
      <trkpt lat="39.475644" lon="-0.707594">
        <ele>196.725</ele>
        <time>2020-08-10T09:12:52Z</time>
      </trkpt>
      <trkpt lat="39.475534" lon="-0.707845">
        <ele>196.566</ele>
        <time>2020-08-10T09:12:56Z</time>
      </trkpt>
      <trkpt lat="39.475424" lon="-0.708102">
        <ele>196.647</ele>
        <time>2020-08-10T09:13:00Z</time>
      </trkpt>
      <trkpt lat="39.475320" lon="-0.708362">
        <ele>197.388</ele>
        <time>2020-08-10T09:13:04Z</time>
      </trkpt>
      <trkpt lat="39.475225" lon="-0.708613">
        <ele>196.982</ele>
        <time>2020-08-10T09:13:08Z</time>
      </trkpt>
      <trkpt lat="39.475111" lon="-0.708846">
        <ele>195.543</ele>
        <time>2020-08-10T09:13:12Z</time>
      </trkpt>
      <trkpt lat="39.475027" lon="-0.709106">
        <ele>195.517</ele>
        <time>2020-08-10T09:13:16Z</time>
      </trkpt>
      <trkpt lat="39.474930" lon="-0.709360">
        <ele>197.608</ele>
        <time>2020-08-10T09:13:20Z</time>
      </trkpt>
      <trkpt lat="39.474831" lon="-0.709611">
        <ele>198.863</ele>
        <time>2020-08-10T09:13:24Z</time>
      </trkpt>
      <trkpt lat="39.474736" lon="-0.709867">
        <ele>199.472</ele>
        <time>2020-08-10T09:13:28Z</time>
      </trkpt>
      <trkpt lat="39.474634" lon="-0.710125">
        <ele>199.577</ele>
        <time>2020-08-10T09:13:32Z</time>
      </trkpt>
      <trkpt lat="39.474535" lon="-0.710384">
        <ele>200.336</ele>
        <time>2020-08-10T09:13:36Z</time>
      </trkpt>
      <trkpt lat="39.474437" lon="-0.710638">
        <ele>200.126</ele>
        <time>2020-08-10T09:13:40Z</time>
      </trkpt>
      <trkpt lat="39.474342" lon="-0.710890">
        <ele>198.837</ele>
        <time>2020-08-10T09:13:44Z</time>
      </trkpt>
      <trkpt lat="39.474255" lon="-0.711112">
        <ele>198.478</ele>
        <time>2020-08-10T09:13:48Z</time>
      </trkpt>
      <trkpt lat="39.474184" lon="-0.711374">
        <ele>200.749</ele>
        <time>2020-08-10T09:13:53Z</time>
      </trkpt>
      <trkpt lat="39.474149" lon="-0.711646">
        <ele>202.526</ele>
        <time>2020-08-10T09:13:58Z</time>
      </trkpt>
      <trkpt lat="39.474144" lon="-0.711900">
        <ele>202.447</ele>
        <time>2020-08-10T09:14:03Z</time>
      </trkpt>
      <trkpt lat="39.474100" lon="-0.712155">
        <ele>202.111</ele>
        <time>2020-08-10T09:14:09Z</time>
      </trkpt>
      <trkpt lat="39.474073" lon="-0.712440">
        <ele>200.108</ele>
        <time>2020-08-10T09:14:14Z</time>
      </trkpt>
      <trkpt lat="39.474064" lon="-0.712685">
        <ele>198.137</ele>
        <time>2020-08-10T09:14:18Z</time>
      </trkpt>
      <trkpt lat="39.474037" lon="-0.712920">
        <ele>197.136</ele>
        <time>2020-08-10T09:14:22Z</time>
      </trkpt>
      <trkpt lat="39.474009" lon="-0.713177">
        <ele>198.671</ele>
        <time>2020-08-10T09:14:27Z</time>
      </trkpt>
      <trkpt lat="39.473969" lon="-0.713410">
        <ele>199.870</ele>
        <time>2020-08-10T09:14:32Z</time>
      </trkpt>
      <trkpt lat="39.473928" lon="-0.713644">
        <ele>205.330</ele>
        <time>2020-08-10T09:14:38Z</time>
      </trkpt>
      <trkpt lat="39.473894" lon="-0.713894">
        <ele>208.821</ele>
        <time>2020-08-10T09:14:44Z</time>
      </trkpt>
      <trkpt lat="39.473830" lon="-0.714117">
        <ele>211.512</ele>
        <time>2020-08-10T09:14:50Z</time>
      </trkpt>
      <trkpt lat="39.473686" lon="-0.714311">
        <ele>211.783</ele>
        <time>2020-08-10T09:14:56Z</time>
      </trkpt>
      <trkpt lat="39.473509" lon="-0.714424">
        <ele>209.813</ele>
        <time>2020-08-10T09:15:01Z</time>
      </trkpt>
      <trkpt lat="39.473335" lon="-0.714515">
        <ele>210.243</ele>
        <time>2020-08-10T09:15:07Z</time>
      </trkpt>
      <trkpt lat="39.473149" lon="-0.714614">
        <ele>209.207</ele>
        <time>2020-08-10T09:15:14Z</time>
      </trkpt>
      <trkpt lat="39.472967" lon="-0.714718">
        <ele>208.108</ele>
        <time>2020-08-10T09:15:21Z</time>
      </trkpt>
      <trkpt lat="39.472770" lon="-0.714794">
        <ele>209.866</ele>
        <time>2020-08-10T09:15:28Z</time>
      </trkpt>
      <trkpt lat="39.472590" lon="-0.714844">
        <ele>215.955</ele>
        <time>2020-08-10T09:15:36Z</time>
      </trkpt>
      <trkpt lat="39.472418" lon="-0.714981">
        <ele>220.170</ele>
        <time>2020-08-10T09:15:42Z</time>
      </trkpt>
      <trkpt lat="39.472239" lon="-0.715078">
        <ele>224.899</ele>
        <time>2020-08-10T09:15:51Z</time>
      </trkpt>
      <trkpt lat="39.472061" lon="-0.715155">
        <ele>225.269</ele>
        <time>2020-08-10T09:15:56Z</time>
      </trkpt>
      <trkpt lat="39.471896" lon="-0.715250">
        <ele>225.880</ele>
        <time>2020-08-10T09:16:02Z</time>
      </trkpt>
      <trkpt lat="39.471717" lon="-0.715336">
        <ele>229.631</ele>
        <time>2020-08-10T09:16:10Z</time>
      </trkpt>
      <trkpt lat="39.471538" lon="-0.715443">
        <ele>234.552</ele>
        <time>2020-08-10T09:16:18Z</time>
      </trkpt>
      <trkpt lat="39.471342" lon="-0.715525">
        <ele>230.374</ele>
        <time>2020-08-10T09:16:24Z</time>
      </trkpt>
      <trkpt lat="39.471170" lon="-0.715637">
        <ele>225.956</ele>
        <time>2020-08-10T09:16:31Z</time>
      </trkpt>
      <trkpt lat="39.470997" lon="-0.715724">
        <ele>224.221</ele>
        <time>2020-08-10T09:16:39Z</time>
      </trkpt>
      <trkpt lat="39.470835" lon="-0.715840">
        <ele>219.808</ele>
        <time>2020-08-10T09:16:46Z</time>
      </trkpt>
      <trkpt lat="39.470651" lon="-0.715961">
        <ele>220.282</ele>
        <time>2020-08-10T09:17:38Z</time>
      </trkpt>
      <trkpt lat="39.470714" lon="-0.716224">
        <ele>223.881</ele>
        <time>2020-08-10T09:17:46Z</time>
      </trkpt>
      <trkpt lat="39.470820" lon="-0.716434">
        <ele>225.196</ele>
        <time>2020-08-10T09:17:52Z</time>
      </trkpt>
      <trkpt lat="39.470935" lon="-0.716647">
        <ele>221.935</ele>
        <time>2020-08-10T09:17:58Z</time>
      </trkpt>
      <trkpt lat="39.471018" lon="-0.716864">
        <ele>215.265</ele>
        <time>2020-08-10T09:18:06Z</time>
      </trkpt>
      <trkpt lat="39.470828" lon="-0.716884">
        <ele>216.396</ele>
        <time>2020-08-10T09:18:12Z</time>
      </trkpt>
      <trkpt lat="39.470675" lon="-0.716748">
        <ele>221.877</ele>
        <time>2020-08-10T09:18:20Z</time>
      </trkpt>
      <trkpt lat="39.470846" lon="-0.716869">
        <ele>234.698</ele>
        <time>2020-08-10T09:19:38Z</time>
      </trkpt>
      <trkpt lat="39.471015" lon="-0.716993">
        <ele>233.467</ele>
        <time>2020-08-10T09:19:59Z</time>
      </trkpt>
      <trkpt lat="39.471186" lon="-0.717076">
        <ele>234.381</ele>
        <time>2020-08-10T09:20:04Z</time>
      </trkpt>
      <trkpt lat="39.471368" lon="-0.717104">
        <ele>236.919</ele>
        <time>2020-08-10T09:20:10Z</time>
      </trkpt>
      <trkpt lat="39.471581" lon="-0.717102">
        <ele>236.708</ele>
        <time>2020-08-10T09:20:16Z</time>
      </trkpt>
      <trkpt lat="39.471773" lon="-0.717178">
        <ele>238.651</ele>
        <time>2020-08-10T09:20:22Z</time>
      </trkpt>
      <trkpt lat="39.471949" lon="-0.717252">
        <ele>240.790</ele>
        <time>2020-08-10T09:20:27Z</time>
      </trkpt>
      <trkpt lat="39.472121" lon="-0.717350">
        <ele>242.185</ele>
        <time>2020-08-10T09:20:33Z</time>
      </trkpt>
      <trkpt lat="39.472298" lon="-0.717438">
        <ele>243.694</ele>
        <time>2020-08-10T09:20:39Z</time>
      </trkpt>
      <trkpt lat="39.472485" lon="-0.717541">
        <ele>245.714</ele>
        <time>2020-08-10T09:20:45Z</time>
      </trkpt>
      <trkpt lat="39.472669" lon="-0.717678">
        <ele>238.335</ele>
        <time>2020-08-10T09:20:50Z</time>
      </trkpt>
      <trkpt lat="39.472816" lon="-0.717876">
        <ele>228.936</ele>
        <time>2020-08-10T09:20:56Z</time>
      </trkpt>
      <trkpt lat="39.472896" lon="-0.718111">
        <ele>225.957</ele>
        <time>2020-08-10T09:21:02Z</time>
      </trkpt>
      <trkpt lat="39.472836" lon="-0.718373">
        <ele>226.328</ele>
        <time>2020-08-10T09:21:09Z</time>
      </trkpt>
      <trkpt lat="39.472758" lon="-0.718588">
        <ele>230.289</ele>
        <time>2020-08-10T09:21:14Z</time>
      </trkpt>
      <trkpt lat="39.472677" lon="-0.718825">
        <ele>234.517</ele>
        <time>2020-08-10T09:21:19Z</time>
      </trkpt>
      <trkpt lat="39.472595" lon="-0.719080">
        <ele>236.608</ele>
        <time>2020-08-10T09:21:25Z</time>
      </trkpt>
      <trkpt lat="39.472629" lon="-0.719310">
        <ele>233.247</ele>
        <time>2020-08-10T09:22:03Z</time>
      </trkpt>
      <trkpt lat="39.472653" lon="-0.719571">
        <ele>231.856</ele>
        <time>2020-08-10T09:22:08Z</time>
      </trkpt>
      <trkpt lat="39.472593" lon="-0.719810">
        <ele>228.361</ele>
        <time>2020-08-10T09:22:13Z</time>
      </trkpt>
      <trkpt lat="39.472451" lon="-0.720000">
        <ele>228.760</ele>
        <time>2020-08-10T09:22:19Z</time>
      </trkpt>
      <trkpt lat="39.472304" lon="-0.720161">
        <ele>230.130</ele>
        <time>2020-08-10T09:22:25Z</time>
      </trkpt>
      <trkpt lat="39.472168" lon="-0.720336">
        <ele>233.981</ele>
        <time>2020-08-10T09:22:32Z</time>
      </trkpt>
      <trkpt lat="39.472011" lon="-0.720509">
        <ele>237.682</ele>
        <time>2020-08-10T09:22:39Z</time>
      </trkpt>
      <trkpt lat="39.471854" lon="-0.720633">
        <ele>241.743</ele>
        <time>2020-08-10T09:22:45Z</time>
      </trkpt>
      <trkpt lat="39.471684" lon="-0.720758">
        <ele>244.527</ele>
        <time>2020-08-10T09:22:51Z</time>
      </trkpt>
      <trkpt lat="39.471528" lon="-0.720935">
        <ele>245.568</ele>
        <time>2020-08-10T09:22:58Z</time>
      </trkpt>
      <trkpt lat="39.471409" lon="-0.721150">
        <ele>246.814</ele>
        <time>2020-08-10T09:23:05Z</time>
      </trkpt>
      <trkpt lat="39.471265" lon="-0.721328">
        <ele>249.108</ele>
        <time>2020-08-10T09:23:12Z</time>
      </trkpt>
      <trkpt lat="39.471083" lon="-0.721454">
        <ele>250.177</ele>
        <time>2020-08-10T09:23:20Z</time>
      </trkpt>
      <trkpt lat="39.470929" lon="-0.721596">
        <ele>252.246</ele>
        <time>2020-08-10T09:23:27Z</time>
      </trkpt>
      <trkpt lat="39.470763" lon="-0.721709">
        <ele>253.851</ele>
        <time>2020-08-10T09:23:34Z</time>
      </trkpt>
      <trkpt lat="39.470579" lon="-0.721815">
        <ele>252.120</ele>
        <time>2020-08-10T09:23:39Z</time>
      </trkpt>
      <trkpt lat="39.470405" lon="-0.721926">
        <ele>251.640</ele>
        <time>2020-08-10T09:23:43Z</time>
      </trkpt>
      <trkpt lat="39.470212" lon="-0.722017">
        <ele>253.751</ele>
        <time>2020-08-10T09:23:48Z</time>
      </trkpt>
      <trkpt lat="39.470020" lon="-0.722129">
        <ele>253.422</ele>
        <time>2020-08-10T09:23:53Z</time>
      </trkpt>
      <trkpt lat="39.469824" lon="-0.722233">
        <ele>252.983</ele>
        <time>2020-08-10T09:23:58Z</time>
      </trkpt>
      <trkpt lat="39.469644" lon="-0.722358">
        <ele>248.944</ele>
        <time>2020-08-10T09:24:03Z</time>
      </trkpt>
      <trkpt lat="39.469463" lon="-0.722481">
        <ele>246.105</ele>
        <time>2020-08-10T09:24:08Z</time>
      </trkpt>
      <trkpt lat="39.469282" lon="-0.722596">
        <ele>245.415</ele>
        <time>2020-08-10T09:24:13Z</time>
      </trkpt>
      <trkpt lat="39.469112" lon="-0.722691">
        <ele>247.208</ele>
        <time>2020-08-10T09:24:18Z</time>
      </trkpt>
      <trkpt lat="39.468937" lon="-0.722789">
        <ele>249.269</ele>
        <time>2020-08-10T09:24:23Z</time>
      </trkpt>
      <trkpt lat="39.468736" lon="-0.722874">
        <ele>250.748</ele>
        <time>2020-08-10T09:24:29Z</time>
      </trkpt>
      <trkpt lat="39.468546" lon="-0.722978">
        <ele>249.993</ele>
        <time>2020-08-10T09:24:34Z</time>
      </trkpt>
      <trkpt lat="39.468342" lon="-0.723063">
        <ele>248.142</ele>
        <time>2020-08-10T09:24:39Z</time>
      </trkpt>
      <trkpt lat="39.468142" lon="-0.723130">
        <ele>245.422</ele>
        <time>2020-08-10T09:24:44Z</time>
      </trkpt>
      <trkpt lat="39.467938" lon="-0.723169">
        <ele>244.193</ele>
        <time>2020-08-10T09:24:49Z</time>
      </trkpt>
      <trkpt lat="39.467733" lon="-0.723194">
        <ele>243.434</ele>
        <time>2020-08-10T09:24:54Z</time>
      </trkpt>
      <trkpt lat="39.467526" lon="-0.723218">
        <ele>243.385</ele>
        <time>2020-08-10T09:24:59Z</time>
      </trkpt>
      <trkpt lat="39.467345" lon="-0.723243">
        <ele>244.898</ele>
        <time>2020-08-10T09:25:03Z</time>
      </trkpt>
      <trkpt lat="39.467133" lon="-0.723298">
        <ele>245.715</ele>
        <time>2020-08-10T09:25:08Z</time>
      </trkpt>
      <trkpt lat="39.466936" lon="-0.723358">
        <ele>245.026</ele>
        <time>2020-08-10T09:25:13Z</time>
      </trkpt>
      <trkpt lat="39.466737" lon="-0.723446">
        <ele>245.308</ele>
        <time>2020-08-10T09:25:18Z</time>
      </trkpt>
      <trkpt lat="39.466542" lon="-0.723544">
        <ele>245.084</ele>
        <time>2020-08-10T09:25:23Z</time>
      </trkpt>
      <trkpt lat="39.466348" lon="-0.723641">
        <ele>245.643</ele>
        <time>2020-08-10T09:25:28Z</time>
      </trkpt>
      <trkpt lat="39.466161" lon="-0.723759">
        <ele>245.398</ele>
        <time>2020-08-10T09:25:33Z</time>
      </trkpt>
      <trkpt lat="39.465980" lon="-0.723872">
        <ele>245.187</ele>
        <time>2020-08-10T09:25:38Z</time>
      </trkpt>
      <trkpt lat="39.465800" lon="-0.723983">
        <ele>245.887</ele>
        <time>2020-08-10T09:25:43Z</time>
      </trkpt>
      <trkpt lat="39.465617" lon="-0.724093">
        <ele>246.288</ele>
        <time>2020-08-10T09:25:48Z</time>
      </trkpt>
      <trkpt lat="39.465439" lon="-0.724192">
        <ele>247.449</ele>
        <time>2020-08-10T09:25:53Z</time>
      </trkpt>
      <trkpt lat="39.465262" lon="-0.724294">
        <ele>247.960</ele>
        <time>2020-08-10T09:25:58Z</time>
      </trkpt>
      <trkpt lat="39.465082" lon="-0.724393">
        <ele>250.135</ele>
        <time>2020-08-10T09:26:04Z</time>
      </trkpt>
      <trkpt lat="39.464908" lon="-0.724456">
        <ele>249.886</ele>
        <time>2020-08-10T09:26:10Z</time>
      </trkpt>
      <trkpt lat="39.464715" lon="-0.724521">
        <ele>251.914</ele>
        <time>2020-08-10T09:26:17Z</time>
      </trkpt>
      <trkpt lat="39.464531" lon="-0.724574">
        <ele>252.308</ele>
        <time>2020-08-10T09:26:24Z</time>
      </trkpt>
      <trkpt lat="39.464356" lon="-0.724632">
        <ele>253.728</ele>
        <time>2020-08-10T09:26:31Z</time>
      </trkpt>
      <trkpt lat="39.464181" lon="-0.724695">
        <ele>254.657</ele>
        <time>2020-08-10T09:26:38Z</time>
      </trkpt>
      <trkpt lat="39.464025" lon="-0.724847">
        <ele>257.852</ele>
        <time>2020-08-10T09:26:48Z</time>
      </trkpt>
      <trkpt lat="39.463958" lon="-0.725106">
        <ele>261.791</ele>
        <time>2020-08-10T09:26:55Z</time>
      </trkpt>
      <trkpt lat="39.463869" lon="-0.725359">
        <ele>262.021</ele>
        <time>2020-08-10T09:27:01Z</time>
      </trkpt>
      <trkpt lat="39.463790" lon="-0.725598">
        <ele>261.272</ele>
        <time>2020-08-10T09:27:06Z</time>
      </trkpt>
      <trkpt lat="39.463694" lon="-0.725805">
        <ele>261.973</ele>
        <time>2020-08-10T09:27:10Z</time>
      </trkpt>
      <trkpt lat="39.463576" lon="-0.726025">
        <ele>261.544</ele>
        <time>2020-08-10T09:27:14Z</time>
      </trkpt>
      <trkpt lat="39.463438" lon="-0.726226">
        <ele>260.592</ele>
        <time>2020-08-10T09:27:18Z</time>
      </trkpt>
      <trkpt lat="39.463258" lon="-0.726414">
        <ele>259.573</ele>
        <time>2020-08-10T09:27:22Z</time>
      </trkpt>
      <trkpt lat="39.463095" lon="-0.726557">
        <ele>257.620</ele>
        <time>2020-08-10T09:27:26Z</time>
      </trkpt>
      <trkpt lat="39.462979" lon="-0.726771">
        <ele>255.808</ele>
        <time>2020-08-10T09:27:33Z</time>
      </trkpt>
      <trkpt lat="39.462810" lon="-0.726882">
        <ele>255.244</ele>
        <time>2020-08-10T09:27:37Z</time>
      </trkpt>
      <trkpt lat="39.462590" lon="-0.726929">
        <ele>254.283</ele>
        <time>2020-08-10T09:27:41Z</time>
      </trkpt>
      <trkpt lat="39.462391" lon="-0.727050">
        <ele>256.118</ele>
        <time>2020-08-10T09:27:45Z</time>
      </trkpt>
      <trkpt lat="39.462211" lon="-0.727175">
        <ele>257.847</ele>
        <time>2020-08-10T09:27:49Z</time>
      </trkpt>
      <trkpt lat="39.462022" lon="-0.727307">
        <ele>258.577</ele>
        <time>2020-08-10T09:27:53Z</time>
      </trkpt>
      <trkpt lat="39.461832" lon="-0.727437">
        <ele>259.048</ele>
        <time>2020-08-10T09:27:57Z</time>
      </trkpt>
      <trkpt lat="39.461659" lon="-0.727557">
        <ele>259.079</ele>
        <time>2020-08-10T09:28:01Z</time>
      </trkpt>
      <trkpt lat="39.461479" lon="-0.727679">
        <ele>258.320</ele>
        <time>2020-08-10T09:28:05Z</time>
      </trkpt>
      <trkpt lat="39.461291" lon="-0.727811">
        <ele>257.326</ele>
        <time>2020-08-10T09:28:09Z</time>
      </trkpt>
      <trkpt lat="39.461103" lon="-0.727944">
        <ele>255.947</ele>
        <time>2020-08-10T09:28:13Z</time>
      </trkpt>
      <trkpt lat="39.460907" lon="-0.728079">
        <ele>255.611</ele>
        <time>2020-08-10T09:28:17Z</time>
      </trkpt>
      <trkpt lat="39.460710" lon="-0.728211">
        <ele>255.608</ele>
        <time>2020-08-10T09:28:21Z</time>
      </trkpt>
      <trkpt lat="39.460521" lon="-0.728340">
        <ele>254.687</ele>
        <time>2020-08-10T09:28:25Z</time>
      </trkpt>
      <trkpt lat="39.460331" lon="-0.728467">
        <ele>254.626</ele>
        <time>2020-08-10T09:28:29Z</time>
      </trkpt>
      <trkpt lat="39.460142" lon="-0.728592">
        <ele>255.931</ele>
        <time>2020-08-10T09:28:33Z</time>
      </trkpt>
      <trkpt lat="39.459978" lon="-0.728701">
        <ele>255.610</ele>
        <time>2020-08-10T09:28:37Z</time>
      </trkpt>
      <trkpt lat="39.459788" lon="-0.728831">
        <ele>255.680</ele>
        <time>2020-08-10T09:28:42Z</time>
      </trkpt>
      <trkpt lat="39.459625" lon="-0.728957">
        <ele>255.011</ele>
        <time>2020-08-10T09:28:46Z</time>
      </trkpt>
      <trkpt lat="39.459448" lon="-0.729082">
        <ele>254.922</ele>
        <time>2020-08-10T09:28:50Z</time>
      </trkpt>
      <trkpt lat="39.459265" lon="-0.729214">
        <ele>254.453</ele>
        <time>2020-08-10T09:28:54Z</time>
      </trkpt>
      <trkpt lat="39.459070" lon="-0.729351">
        <ele>253.829</ele>
        <time>2020-08-10T09:28:58Z</time>
      </trkpt>
      <trkpt lat="39.458869" lon="-0.729493">
        <ele>253.900</ele>
        <time>2020-08-10T09:29:02Z</time>
      </trkpt>
      <trkpt lat="39.458675" lon="-0.729637">
        <ele>255.420</ele>
        <time>2020-08-10T09:29:06Z</time>
      </trkpt>
      <trkpt lat="39.458490" lon="-0.729784">
        <ele>255.108</ele>
        <time>2020-08-10T09:29:10Z</time>
      </trkpt>
      <trkpt lat="39.458304" lon="-0.729921">
        <ele>255.077</ele>
        <time>2020-08-10T09:29:14Z</time>
      </trkpt>
      <trkpt lat="39.458137" lon="-0.730056">
        <ele>255.156</ele>
        <time>2020-08-10T09:29:18Z</time>
      </trkpt>
      <trkpt lat="39.457975" lon="-0.730172">
        <ele>255.691</ele>
        <time>2020-08-10T09:29:22Z</time>
      </trkpt>
      <trkpt lat="39.457813" lon="-0.730286">
        <ele>256.060</ele>
        <time>2020-08-10T09:29:26Z</time>
      </trkpt>
      <trkpt lat="39.457652" lon="-0.730402">
        <ele>255.290</ele>
        <time>2020-08-10T09:29:30Z</time>
      </trkpt>
      <trkpt lat="39.457464" lon="-0.730532">
        <ele>254.471</ele>
        <time>2020-08-10T09:29:35Z</time>
      </trkpt>
      <trkpt lat="39.457275" lon="-0.730664">
        <ele>253.892</ele>
        <time>2020-08-10T09:29:40Z</time>
      </trkpt>
      <trkpt lat="39.457080" lon="-0.730792">
        <ele>254.063</ele>
        <time>2020-08-10T09:29:45Z</time>
      </trkpt>
      <trkpt lat="39.456891" lon="-0.730924">
        <ele>254.783</ele>
        <time>2020-08-10T09:29:50Z</time>
      </trkpt>
      <trkpt lat="39.456704" lon="-0.731082">
        <ele>255.325</ele>
        <time>2020-08-10T09:29:55Z</time>
      </trkpt>
      <trkpt lat="39.456544" lon="-0.731199">
        <ele>255.417</ele>
        <time>2020-08-10T09:29:59Z</time>
      </trkpt>
      <trkpt lat="39.456347" lon="-0.731332">
        <ele>256.308</ele>
        <time>2020-08-10T09:30:04Z</time>
      </trkpt>
      <trkpt lat="39.456154" lon="-0.731453">
        <ele>256.353</ele>
        <time>2020-08-10T09:30:09Z</time>
      </trkpt>
      <trkpt lat="39.455957" lon="-0.731578">
        <ele>256.382</ele>
        <time>2020-08-10T09:30:14Z</time>
      </trkpt>
      <trkpt lat="39.455760" lon="-0.731709">
        <ele>256.577</ele>
        <time>2020-08-10T09:30:19Z</time>
      </trkpt>
      <trkpt lat="39.455570" lon="-0.731829">
        <ele>257.156</ele>
        <time>2020-08-10T09:30:24Z</time>
      </trkpt>
      <trkpt lat="39.455377" lon="-0.731942">
        <ele>258.186</ele>
        <time>2020-08-10T09:30:29Z</time>
      </trkpt>
      <trkpt lat="39.455185" lon="-0.732060">
        <ele>258.717</ele>
        <time>2020-08-10T09:30:34Z</time>
      </trkpt>
      <trkpt lat="39.454996" lon="-0.732189">
        <ele>258.878</ele>
        <time>2020-08-10T09:30:39Z</time>
      </trkpt>
      <trkpt lat="39.454806" lon="-0.732318">
        <ele>258.459</ele>
        <time>2020-08-10T09:30:44Z</time>
      </trkpt>
      <trkpt lat="39.454621" lon="-0.732439">
        <ele>259.721</ele>
        <time>2020-08-10T09:30:49Z</time>
      </trkpt>
      <trkpt lat="39.454434" lon="-0.732573">
        <ele>260.941</ele>
        <time>2020-08-10T09:30:54Z</time>
      </trkpt>
      <trkpt lat="39.454246" lon="-0.732702">
        <ele>261.105</ele>
        <time>2020-08-10T09:30:59Z</time>
      </trkpt>
      <trkpt lat="39.454071" lon="-0.732825">
        <ele>262.008</ele>
        <time>2020-08-10T09:31:04Z</time>
      </trkpt>
      <trkpt lat="39.453899" lon="-0.732955">
        <ele>262.027</ele>
        <time>2020-08-10T09:31:09Z</time>
      </trkpt>
      <trkpt lat="39.453721" lon="-0.733078">
        <ele>263.266</ele>
        <time>2020-08-10T09:31:14Z</time>
      </trkpt>
      <trkpt lat="39.453529" lon="-0.733207">
        <ele>263.661</ele>
        <time>2020-08-10T09:31:20Z</time>
      </trkpt>
      <trkpt lat="39.453379" lon="-0.733338">
        <ele>264.260</ele>
        <time>2020-08-10T09:31:25Z</time>
      </trkpt>
      <trkpt lat="39.453206" lon="-0.733505">
        <ele>264.350</ele>
        <time>2020-08-10T09:31:31Z</time>
      </trkpt>
      <trkpt lat="39.453122" lon="-0.733738">
        <ele>263.721</ele>
        <time>2020-08-10T09:31:37Z</time>
      </trkpt>
      <trkpt lat="39.453197" lon="-0.733957">
        <ele>263.282</ele>
        <time>2020-08-10T09:31:42Z</time>
      </trkpt>
      <trkpt lat="39.453224" lon="-0.734188">
        <ele>264.743</ele>
        <time>2020-08-10T09:31:46Z</time>
      </trkpt>
      <trkpt lat="39.453106" lon="-0.734423">
        <ele>265.396</ele>
        <time>2020-08-10T09:31:51Z</time>
      </trkpt>
      <trkpt lat="39.452925" lon="-0.734454">
        <ele>265.831</ele>
        <time>2020-08-10T09:31:55Z</time>
      </trkpt>
      <trkpt lat="39.452725" lon="-0.734484">
        <ele>265.924</ele>
        <time>2020-08-10T09:32:00Z</time>
      </trkpt>
      <trkpt lat="39.452561" lon="-0.734613">
        <ele>266.008</ele>
        <time>2020-08-10T09:32:05Z</time>
      </trkpt>
      <trkpt lat="39.452423" lon="-0.734799">
        <ele>265.944</ele>
        <time>2020-08-10T09:32:10Z</time>
      </trkpt>
      <trkpt lat="39.452294" lon="-0.734962">
        <ele>266.593</ele>
        <time>2020-08-10T09:32:14Z</time>
      </trkpt>
      <trkpt lat="39.452164" lon="-0.735126">
        <ele>267.828</ele>
        <time>2020-08-10T09:32:18Z</time>
      </trkpt>
      <trkpt lat="39.452028" lon="-0.735301">
        <ele>269.097</ele>
        <time>2020-08-10T09:32:22Z</time>
      </trkpt>
      <trkpt lat="39.451883" lon="-0.735477">
        <ele>269.677</ele>
        <time>2020-08-10T09:32:26Z</time>
      </trkpt>
      <trkpt lat="39.451750" lon="-0.735656">
        <ele>269.868</ele>
        <time>2020-08-10T09:32:30Z</time>
      </trkpt>
      <trkpt lat="39.451605" lon="-0.735846">
        <ele>269.679</ele>
        <time>2020-08-10T09:32:34Z</time>
      </trkpt>
      <trkpt lat="39.451470" lon="-0.736037">
        <ele>269.690</ele>
        <time>2020-08-10T09:32:38Z</time>
      </trkpt>
      <trkpt lat="39.451331" lon="-0.736235">
        <ele>269.282</ele>
        <time>2020-08-10T09:32:42Z</time>
      </trkpt>
      <trkpt lat="39.451194" lon="-0.736442">
        <ele>268.943</ele>
        <time>2020-08-10T09:32:46Z</time>
      </trkpt>
      <trkpt lat="39.451058" lon="-0.736651">
        <ele>269.117</ele>
        <time>2020-08-10T09:32:50Z</time>
      </trkpt>
      <trkpt lat="39.450927" lon="-0.736874">
        <ele>269.808</ele>
        <time>2020-08-10T09:32:54Z</time>
      </trkpt>
      <trkpt lat="39.450811" lon="-0.737108">
        <ele>269.973</ele>
        <time>2020-08-10T09:32:58Z</time>
      </trkpt>
      <trkpt lat="39.450719" lon="-0.737349">
        <ele>269.582</ele>
        <time>2020-08-10T09:33:02Z</time>
      </trkpt>
      <trkpt lat="39.450629" lon="-0.737610">
        <ele>270.847</ele>
        <time>2020-08-10T09:33:06Z</time>
      </trkpt>
      <trkpt lat="39.450533" lon="-0.737862">
        <ele>271.096</ele>
        <time>2020-08-10T09:33:10Z</time>
      </trkpt>
      <trkpt lat="39.450454" lon="-0.738114">
        <ele>270.336</ele>
        <time>2020-08-10T09:33:14Z</time>
      </trkpt>
      <trkpt lat="39.450380" lon="-0.738352">
        <ele>270.317</ele>
        <time>2020-08-10T09:33:18Z</time>
      </trkpt>
      <trkpt lat="39.450302" lon="-0.738568">
        <ele>272.698</ele>
        <time>2020-08-10T09:33:22Z</time>
      </trkpt>
      <trkpt lat="39.450210" lon="-0.738814">
        <ele>274.619</ele>
        <time>2020-08-10T09:33:27Z</time>
      </trkpt>
      <trkpt lat="39.450126" lon="-0.739050">
        <ele>274.761</ele>
        <time>2020-08-10T09:33:32Z</time>
      </trkpt>
      <trkpt lat="39.450041" lon="-0.739285">
        <ele>275.321</ele>
        <time>2020-08-10T09:33:37Z</time>
      </trkpt>
      <trkpt lat="39.449964" lon="-0.739515">
        <ele>274.513</ele>
        <time>2020-08-10T09:33:42Z</time>
      </trkpt>
      <trkpt lat="39.449883" lon="-0.739727">
        <ele>275.608</ele>
        <time>2020-08-10T09:33:47Z</time>
      </trkpt>
      <trkpt lat="39.449828" lon="-0.739953">
        <ele>274.951</ele>
        <time>2020-08-10T09:33:52Z</time>
      </trkpt>
      <trkpt lat="39.449753" lon="-0.740175">
        <ele>274.880</ele>
        <time>2020-08-10T09:33:57Z</time>
      </trkpt>
      <trkpt lat="39.449667" lon="-0.740426">
        <ele>275.525</ele>
        <time>2020-08-10T09:34:03Z</time>
      </trkpt>
      <trkpt lat="39.449596" lon="-0.740673">
        <ele>275.454</ele>
        <time>2020-08-10T09:34:09Z</time>
      </trkpt>
      <trkpt lat="39.449524" lon="-0.740918">
        <ele>276.684</ele>
        <time>2020-08-10T09:34:15Z</time>
      </trkpt>
      <trkpt lat="39.449448" lon="-0.741162">
        <ele>276.495</ele>
        <time>2020-08-10T09:34:21Z</time>
      </trkpt>
      <trkpt lat="39.449374" lon="-0.741394">
        <ele>278.296</ele>
        <time>2020-08-10T09:34:27Z</time>
      </trkpt>
      <trkpt lat="39.449302" lon="-0.741624">
        <ele>279.467</ele>
        <time>2020-08-10T09:34:33Z</time>
      </trkpt>
      <trkpt lat="39.449237" lon="-0.741877">
        <ele>280.323</ele>
        <time>2020-08-10T09:34:39Z</time>
      </trkpt>
      <trkpt lat="39.449160" lon="-0.742109">
        <ele>279.983</ele>
        <time>2020-08-10T09:34:45Z</time>
      </trkpt>
      <trkpt lat="39.449068" lon="-0.742343">
        <ele>280.711</ele>
        <time>2020-08-10T09:34:51Z</time>
      </trkpt>
      <trkpt lat="39.448962" lon="-0.742569">
        <ele>281.708</ele>
        <time>2020-08-10T09:34:57Z</time>
      </trkpt>
      <trkpt lat="39.448858" lon="-0.742794">
        <ele>282.267</ele>
        <time>2020-08-10T09:35:03Z</time>
      </trkpt>
      <trkpt lat="39.448754" lon="-0.743019">
        <ele>283.456</ele>
        <time>2020-08-10T09:35:09Z</time>
      </trkpt>
      <trkpt lat="39.448622" lon="-0.743220">
        <ele>284.441</ele>
        <time>2020-08-10T09:35:15Z</time>
      </trkpt>
      <trkpt lat="39.448505" lon="-0.743414">
        <ele>284.860</ele>
        <time>2020-08-10T09:35:21Z</time>
      </trkpt>
      <trkpt lat="39.448382" lon="-0.743592">
        <ele>286.860</ele>
        <time>2020-08-10T09:37:08Z</time>
      </trkpt>
      <trkpt lat="39.448254" lon="-0.743773">
        <ele>283.791</ele>
        <time>2020-08-10T09:37:14Z</time>
      </trkpt>
      <trkpt lat="39.448129" lon="-0.743953">
        <ele>282.622</ele>
        <time>2020-08-10T09:37:19Z</time>
      </trkpt>
      <trkpt lat="39.447987" lon="-0.744147">
        <ele>283.033</ele>
        <time>2020-08-10T09:37:24Z</time>
      </trkpt>
      <trkpt lat="39.447863" lon="-0.744339">
        <ele>283.562</ele>
        <time>2020-08-10T09:37:29Z</time>
      </trkpt>
      <trkpt lat="39.447741" lon="-0.744538">
        <ele>283.783</ele>
        <time>2020-08-10T09:37:34Z</time>
      </trkpt>
      <trkpt lat="39.447624" lon="-0.744747">
        <ele>283.911</ele>
        <time>2020-08-10T09:37:39Z</time>
      </trkpt>
      <trkpt lat="39.447518" lon="-0.744963">
        <ele>284.908</ele>
        <time>2020-08-10T09:37:44Z</time>
      </trkpt>
      <trkpt lat="39.447425" lon="-0.745192">
        <ele>285.631</ele>
        <time>2020-08-10T09:37:49Z</time>
      </trkpt>
      <trkpt lat="39.447343" lon="-0.745407">
        <ele>286.610</ele>
        <time>2020-08-10T09:37:54Z</time>
      </trkpt>
      <trkpt lat="39.447264" lon="-0.745616">
        <ele>287.935</ele>
        <time>2020-08-10T09:37:59Z</time>
      </trkpt>
      <trkpt lat="39.447203" lon="-0.745863">
        <ele>290.124</ele>
        <time>2020-08-10T09:38:05Z</time>
      </trkpt>
      <trkpt lat="39.447138" lon="-0.746104">
        <ele>294.434</ele>
        <time>2020-08-10T09:38:15Z</time>
      </trkpt>
      <trkpt lat="39.447071" lon="-0.746321">
        <ele>295.945</ele>
        <time>2020-08-10T09:38:24Z</time>
      </trkpt>
      <trkpt lat="39.446979" lon="-0.746530">
        <ele>295.846</ele>
        <time>2020-08-10T09:38:32Z</time>
      </trkpt>
      <trkpt lat="39.446899" lon="-0.746745">
        <ele>295.657</ele>
        <time>2020-08-10T09:38:38Z</time>
      </trkpt>
      <trkpt lat="39.446813" lon="-0.746975">
        <ele>295.827</ele>
        <time>2020-08-10T09:38:44Z</time>
      </trkpt>
      <trkpt lat="39.446726" lon="-0.747205">
        <ele>296.868</ele>
        <time>2020-08-10T09:38:50Z</time>
      </trkpt>
      <trkpt lat="39.446648" lon="-0.747429">
        <ele>294.714</ele>
        <time>2020-08-10T09:39:08Z</time>
      </trkpt>
      <trkpt lat="39.446548" lon="-0.747677">
        <ele>294.808</ele>
        <time>2020-08-10T09:39:14Z</time>
      </trkpt>
      <trkpt lat="39.446434" lon="-0.747884">
        <ele>294.587</ele>
        <time>2020-08-10T09:39:19Z</time>
      </trkpt>
      <trkpt lat="39.446310" lon="-0.748086">
        <ele>294.796</ele>
        <time>2020-08-10T09:39:26Z</time>
      </trkpt>
      <trkpt lat="39.446255" lon="-0.748326">
        <ele>296.631</ele>
        <time>2020-08-10T09:39:31Z</time>
      </trkpt>
      <trkpt lat="39.446189" lon="-0.748594">
        <ele>297.540</ele>
        <time>2020-08-10T09:39:36Z</time>
      </trkpt>
      <trkpt lat="39.446134" lon="-0.748820">
        <ele>297.860</ele>
        <time>2020-08-10T09:39:40Z</time>
      </trkpt>
      <trkpt lat="39.446082" lon="-0.749050">
        <ele>297.831</ele>
        <time>2020-08-10T09:39:44Z</time>
      </trkpt>
      <trkpt lat="39.446025" lon="-0.749273">
        <ele>297.592</ele>
        <time>2020-08-10T09:39:48Z</time>
      </trkpt>
      <trkpt lat="39.445974" lon="-0.749501">
        <ele>297.733</ele>
        <time>2020-08-10T09:39:52Z</time>
      </trkpt>
      <trkpt lat="39.445907" lon="-0.749770">
        <ele>298.688</ele>
        <time>2020-08-10T09:39:57Z</time>
      </trkpt>
      <trkpt lat="39.445839" lon="-0.750021">
        <ele>299.824</ele>
        <time>2020-08-10T09:40:02Z</time>
      </trkpt>
      <trkpt lat="39.445762" lon="-0.750286">
        <ele>299.626</ele>
        <time>2020-08-10T09:40:07Z</time>
      </trkpt>
      <trkpt lat="39.445706" lon="-0.750510">
        <ele>300.808</ele>
        <time>2020-08-10T09:40:11Z</time>
      </trkpt>
      <trkpt lat="39.445647" lon="-0.750747">
        <ele>300.353</ele>
        <time>2020-08-10T09:40:15Z</time>
      </trkpt>
      <trkpt lat="39.445586" lon="-0.750989">
        <ele>300.592</ele>
        <time>2020-08-10T09:40:19Z</time>
      </trkpt>
      <trkpt lat="39.445525" lon="-0.751238">
        <ele>300.157</ele>
        <time>2020-08-10T09:40:23Z</time>
      </trkpt>
      <trkpt lat="39.445455" lon="-0.751492">
        <ele>301.086</ele>
        <time>2020-08-10T09:40:27Z</time>
      </trkpt>
      <trkpt lat="39.445387" lon="-0.751745">
        <ele>301.966</ele>
        <time>2020-08-10T09:40:31Z</time>
      </trkpt>
      <trkpt lat="39.445325" lon="-0.751991">
        <ele>303.047</ele>
        <time>2020-08-10T09:40:35Z</time>
      </trkpt>
      <trkpt lat="39.445267" lon="-0.752246">
        <ele>305.098</ele>
        <time>2020-08-10T09:40:39Z</time>
      </trkpt>
      <trkpt lat="39.445196" lon="-0.752500">
        <ele>306.379</ele>
        <time>2020-08-10T09:40:43Z</time>
      </trkpt>
      <trkpt lat="39.445146" lon="-0.752752">
        <ele>303.838</ele>
        <time>2020-08-10T09:40:47Z</time>
      </trkpt>
      <trkpt lat="39.445083" lon="-0.752999">
        <ele>303.970</ele>
        <time>2020-08-10T09:40:51Z</time>
      </trkpt>
      <trkpt lat="39.445024" lon="-0.753245">
        <ele>303.917</ele>
        <time>2020-08-10T09:40:55Z</time>
      </trkpt>
      <trkpt lat="39.444974" lon="-0.753489">
        <ele>303.808</ele>
        <time>2020-08-10T09:40:59Z</time>
      </trkpt>
      <trkpt lat="39.444917" lon="-0.753726">
        <ele>304.678</ele>
        <time>2020-08-10T09:41:03Z</time>
      </trkpt>
      <trkpt lat="39.444865" lon="-0.753956">
        <ele>304.837</ele>
        <time>2020-08-10T09:41:07Z</time>
      </trkpt>
      <trkpt lat="39.444805" lon="-0.754186">
        <ele>304.532</ele>
        <time>2020-08-10T09:41:11Z</time>
      </trkpt>
      <trkpt lat="39.444745" lon="-0.754422">
        <ele>304.841</ele>
        <time>2020-08-10T09:41:15Z</time>
      </trkpt>
      <trkpt lat="39.444686" lon="-0.754654">
        <ele>305.761</ele>
        <time>2020-08-10T09:41:19Z</time>
      </trkpt>
      <trkpt lat="39.444630" lon="-0.754886">
        <ele>305.362</ele>
        <time>2020-08-10T09:41:23Z</time>
      </trkpt>
      <trkpt lat="39.444574" lon="-0.755118">
        <ele>304.963</ele>
        <time>2020-08-10T09:41:27Z</time>
      </trkpt>
      <trkpt lat="39.444509" lon="-0.755394">
        <ele>304.844</ele>
        <time>2020-08-10T09:41:32Z</time>
      </trkpt>
      <trkpt lat="39.444461" lon="-0.755622">
        <ele>304.629</ele>
        <time>2020-08-10T09:41:37Z</time>
      </trkpt>
      <trkpt lat="39.444666" lon="-0.755696">
        <ele>305.300</ele>
        <time>2020-08-10T09:41:45Z</time>
      </trkpt>
      <trkpt lat="39.444801" lon="-0.755505">
        <ele>305.520</ele>
        <time>2020-08-10T09:41:51Z</time>
      </trkpt>
      <trkpt lat="39.444864" lon="-0.755266">
        <ele>304.408</ele>
        <time>2020-08-10T09:41:56Z</time>
      </trkpt>
      <trkpt lat="39.445057" lon="-0.755268">
        <ele>303.577</ele>
        <time>2020-08-10T09:43:30Z</time>
      </trkpt>
      <trkpt lat="39.444891" lon="-0.755360">
        <ele>302.996</ele>
        <time>2020-08-10T09:44:32Z</time>
      </trkpt>
      <trkpt lat="39.444992" lon="-0.755164">
        <ele>301.841</ele>
        <time>2020-08-10T09:51:12Z</time>
      </trkpt>
      <trkpt lat="39.444841" lon="-0.755321">
        <ele>304.580</ele>
        <time>2020-08-10T09:51:22Z</time>
      </trkpt>
      <trkpt lat="39.444778" lon="-0.755554">
        <ele>304.890</ele>
        <time>2020-08-10T09:51:27Z</time>
      </trkpt>
      <trkpt lat="39.444620" lon="-0.755707">
        <ele>305.491</ele>
        <time>2020-08-10T09:51:32Z</time>
      </trkpt>
      <trkpt lat="39.444424" lon="-0.755830">
        <ele>305.822</ele>
        <time>2020-08-10T09:51:37Z</time>
      </trkpt>
      <trkpt lat="39.444350" lon="-0.756080">
        <ele>305.313</ele>
        <time>2020-08-10T09:51:42Z</time>
      </trkpt>
      <trkpt lat="39.444288" lon="-0.756336">
        <ele>305.223</ele>
        <time>2020-08-10T09:51:47Z</time>
      </trkpt>
      <trkpt lat="39.444234" lon="-0.756597">
        <ele>304.583</ele>
        <time>2020-08-10T09:51:52Z</time>
      </trkpt>
      <trkpt lat="39.444167" lon="-0.756861">
        <ele>305.311</ele>
        <time>2020-08-10T09:51:57Z</time>
      </trkpt>
      <trkpt lat="39.444102" lon="-0.757112">
        <ele>306.008</ele>
        <time>2020-08-10T09:52:02Z</time>
      </trkpt>
      <trkpt lat="39.444039" lon="-0.757365">
        <ele>307.167</ele>
        <time>2020-08-10T09:52:07Z</time>
      </trkpt>
      <trkpt lat="39.443981" lon="-0.757604">
        <ele>307.926</ele>
        <time>2020-08-10T09:52:12Z</time>
      </trkpt>
      <trkpt lat="39.443916" lon="-0.757822">
        <ele>308.811</ele>
        <time>2020-08-10T09:52:17Z</time>
      </trkpt>
      <trkpt lat="39.443843" lon="-0.758073">
        <ele>309.040</ele>
        <time>2020-08-10T09:52:23Z</time>
      </trkpt>
      <trkpt lat="39.443779" lon="-0.758334">
        <ele>310.550</ele>
        <time>2020-08-10T09:52:29Z</time>
      </trkpt>
      <trkpt lat="39.443726" lon="-0.758584">
        <ele>311.941</ele>
        <time>2020-08-10T09:52:35Z</time>
      </trkpt>
      <trkpt lat="39.443660" lon="-0.758819">
        <ele>312.142</ele>
        <time>2020-08-10T09:52:41Z</time>
      </trkpt>
      <trkpt lat="39.443590" lon="-0.759061">
        <ele>312.233</ele>
        <time>2020-08-10T09:52:47Z</time>
      </trkpt>
      <trkpt lat="39.443512" lon="-0.759304">
        <ele>312.851</ele>
        <time>2020-08-10T09:52:53Z</time>
      </trkpt>
      <trkpt lat="39.443444" lon="-0.759547">
        <ele>313.301</ele>
        <time>2020-08-10T09:52:59Z</time>
      </trkpt>
      <trkpt lat="39.443367" lon="-0.759788">
        <ele>313.711</ele>
        <time>2020-08-10T09:53:05Z</time>
      </trkpt>
      <trkpt lat="39.443277" lon="-0.760021">
        <ele>314.708</ele>
        <time>2020-08-10T09:53:11Z</time>
      </trkpt>
      <trkpt lat="39.443183" lon="-0.760257">
        <ele>314.980</ele>
        <time>2020-08-10T09:53:17Z</time>
      </trkpt>
      <trkpt lat="39.443086" lon="-0.760500">
        <ele>315.379</ele>
        <time>2020-08-10T09:53:23Z</time>
      </trkpt>
      <trkpt lat="39.442991" lon="-0.760703">
        <ele>315.994</ele>
        <time>2020-08-10T09:53:28Z</time>
      </trkpt>
      <trkpt lat="39.442891" lon="-0.760903">
        <ele>315.983</ele>
        <time>2020-08-10T09:53:33Z</time>
      </trkpt>
      <trkpt lat="39.442777" lon="-0.761107">
        <ele>316.293</ele>
        <time>2020-08-10T09:53:38Z</time>
      </trkpt>
      <trkpt lat="39.442655" lon="-0.761323">
        <ele>317.074</ele>
        <time>2020-08-10T09:53:43Z</time>
      </trkpt>
      <trkpt lat="39.442517" lon="-0.761546">
        <ele>317.795</ele>
        <time>2020-08-10T09:53:48Z</time>
      </trkpt>
      <trkpt lat="39.442394" lon="-0.761720">
        <ele>317.946</ele>
        <time>2020-08-10T09:53:52Z</time>
      </trkpt>
      <trkpt lat="39.442263" lon="-0.761910">
        <ele>318.259</ele>
        <time>2020-08-10T09:53:56Z</time>
      </trkpt>
      <trkpt lat="39.442124" lon="-0.762103">
        <ele>318.403</ele>
        <time>2020-08-10T09:54:00Z</time>
      </trkpt>
      <trkpt lat="39.441979" lon="-0.762304">
        <ele>318.723</ele>
        <time>2020-08-10T09:54:04Z</time>
      </trkpt>
      <trkpt lat="39.441828" lon="-0.762508">
        <ele>319.208</ele>
        <time>2020-08-10T09:54:08Z</time>
      </trkpt>
      <trkpt lat="39.441676" lon="-0.762706">
        <ele>319.730</ele>
        <time>2020-08-10T09:54:12Z</time>
      </trkpt>
      <trkpt lat="39.441525" lon="-0.762902">
        <ele>319.759</ele>
        <time>2020-08-10T09:54:16Z</time>
      </trkpt>
      <trkpt lat="39.441380" lon="-0.763101">
        <ele>319.884</ele>
        <time>2020-08-10T09:54:20Z</time>
      </trkpt>
      <trkpt lat="39.441234" lon="-0.763288">
        <ele>320.233</ele>
        <time>2020-08-10T09:54:24Z</time>
      </trkpt>
      <trkpt lat="39.441108" lon="-0.763476">
        <ele>320.123</ele>
        <time>2020-08-10T09:54:28Z</time>
      </trkpt>
      <trkpt lat="39.440993" lon="-0.763674">
        <ele>320.184</ele>
        <time>2020-08-10T09:54:32Z</time>
      </trkpt>
      <trkpt lat="39.440873" lon="-0.763851">
        <ele>321.095</ele>
        <time>2020-08-10T09:54:36Z</time>
      </trkpt>
      <trkpt lat="39.440716" lon="-0.764060">
        <ele>322.456</ele>
        <time>2020-08-10T09:54:41Z</time>
      </trkpt>
      <trkpt lat="39.440568" lon="-0.764262">
        <ele>322.641</ele>
        <time>2020-08-10T09:54:46Z</time>
      </trkpt>
      <trkpt lat="39.440437" lon="-0.764427">
        <ele>323.581</ele>
        <time>2020-08-10T09:54:50Z</time>
      </trkpt>
      <trkpt lat="39.440303" lon="-0.764599">
        <ele>324.309</ele>
        <time>2020-08-10T09:54:54Z</time>
      </trkpt>
      <trkpt lat="39.440180" lon="-0.764772">
        <ele>324.508</ele>
        <time>2020-08-10T09:54:58Z</time>
      </trkpt>
      <trkpt lat="39.440050" lon="-0.764946">
        <ele>324.889</ele>
        <time>2020-08-10T09:55:02Z</time>
      </trkpt>
      <trkpt lat="39.439919" lon="-0.765118">
        <ele>326.228</ele>
        <time>2020-08-10T09:55:06Z</time>
      </trkpt>
      <trkpt lat="39.439787" lon="-0.765288">
        <ele>327.283</ele>
        <time>2020-08-10T09:55:10Z</time>
      </trkpt>
      <trkpt lat="39.439670" lon="-0.765464">
        <ele>327.392</ele>
        <time>2020-08-10T09:55:14Z</time>
      </trkpt>
      <trkpt lat="39.439545" lon="-0.765632">
        <ele>327.262</ele>
        <time>2020-08-10T09:55:18Z</time>
      </trkpt>
      <trkpt lat="39.439411" lon="-0.765793">
        <ele>327.253</ele>
        <time>2020-08-10T09:55:22Z</time>
      </trkpt>
      <trkpt lat="39.439271" lon="-0.765943">
        <ele>328.394</ele>
        <time>2020-08-10T09:55:26Z</time>
      </trkpt>
      <trkpt lat="39.439109" lon="-0.766146">
        <ele>329.485</ele>
        <time>2020-08-10T09:55:31Z</time>
      </trkpt>
      <trkpt lat="39.438956" lon="-0.766340">
        <ele>330.589</ele>
        <time>2020-08-10T09:55:36Z</time>
      </trkpt>
      <trkpt lat="39.438813" lon="-0.766527">
        <ele>330.806</ele>
        <time>2020-08-10T09:55:41Z</time>
      </trkpt>
      <trkpt lat="39.438675" lon="-0.766720">
        <ele>329.226</ele>
        <time>2020-08-10T09:55:46Z</time>
      </trkpt>
      <trkpt lat="39.438526" lon="-0.766920">
        <ele>328.708</ele>
        <time>2020-08-10T09:55:51Z</time>
      </trkpt>
      <trkpt lat="39.438389" lon="-0.767116">
        <ele>327.793</ele>
        <time>2020-08-10T09:55:56Z</time>
      </trkpt>
      <trkpt lat="39.438251" lon="-0.767328">
        <ele>326.892</ele>
        <time>2020-08-10T09:56:01Z</time>
      </trkpt>
      <trkpt lat="39.438105" lon="-0.767549">
        <ele>328.097</ele>
        <time>2020-08-10T09:56:06Z</time>
      </trkpt>
      <trkpt lat="39.437973" lon="-0.767720">
        <ele>328.996</ele>
        <time>2020-08-10T09:56:10Z</time>
      </trkpt>
      <trkpt lat="39.437839" lon="-0.767895">
        <ele>329.686</ele>
        <time>2020-08-10T09:56:14Z</time>
      </trkpt>
      <trkpt lat="39.437691" lon="-0.768106">
        <ele>329.417</ele>
        <time>2020-08-10T09:56:19Z</time>
      </trkpt>
      <trkpt lat="39.437559" lon="-0.768269">
        <ele>329.368</ele>
        <time>2020-08-10T09:56:23Z</time>
      </trkpt>
      <trkpt lat="39.437433" lon="-0.768440">
        <ele>329.299</ele>
        <time>2020-08-10T09:56:27Z</time>
      </trkpt>
      <trkpt lat="39.437303" lon="-0.768610">
        <ele>329.368</ele>
        <time>2020-08-10T09:56:31Z</time>
      </trkpt>
      <trkpt lat="39.437175" lon="-0.768782">
        <ele>330.442</ele>
        <time>2020-08-10T09:56:35Z</time>
      </trkpt>
      <trkpt lat="39.437050" lon="-0.768958">
        <ele>332.326</ele>
        <time>2020-08-10T09:56:39Z</time>
      </trkpt>
      <trkpt lat="39.436917" lon="-0.769123">
        <ele>332.908</ele>
        <time>2020-08-10T09:56:43Z</time>
      </trkpt>
      <trkpt lat="39.436763" lon="-0.769319">
        <ele>332.261</ele>
        <time>2020-08-10T09:56:48Z</time>
      </trkpt>
      <trkpt lat="39.436615" lon="-0.769517">
        <ele>331.930</ele>
        <time>2020-08-10T09:56:53Z</time>
      </trkpt>
      <trkpt lat="39.436480" lon="-0.769728">
        <ele>332.295</ele>
        <time>2020-08-10T09:56:58Z</time>
      </trkpt>
      <trkpt lat="39.436346" lon="-0.769953">
        <ele>332.824</ele>
        <time>2020-08-10T09:57:03Z</time>
      </trkpt>
      <trkpt lat="39.436225" lon="-0.770174">
        <ele>333.454</ele>
        <time>2020-08-10T09:57:08Z</time>
      </trkpt>
      <trkpt lat="39.436117" lon="-0.770378">
        <ele>333.915</ele>
        <time>2020-08-10T09:57:13Z</time>
      </trkpt>
      <trkpt lat="39.436007" lon="-0.770574">
        <ele>335.276</ele>
        <time>2020-08-10T09:57:18Z</time>
      </trkpt>
      <trkpt lat="39.435908" lon="-0.770775">
        <ele>335.937</ele>
        <time>2020-08-10T09:57:23Z</time>
      </trkpt>
      <trkpt lat="39.435808" lon="-0.771014">
        <ele>337.316</ele>
        <time>2020-08-10T09:57:29Z</time>
      </trkpt>
      <trkpt lat="39.435714" lon="-0.771261">
        <ele>337.476</ele>
        <time>2020-08-10T09:57:35Z</time>
      </trkpt>
      <trkpt lat="39.435642" lon="-0.771481">
        <ele>337.413</ele>
        <time>2020-08-10T09:57:40Z</time>
      </trkpt>
      <trkpt lat="39.435568" lon="-0.771725">
        <ele>338.108</ele>
        <time>2020-08-10T09:57:45Z</time>
      </trkpt>
      <trkpt lat="39.435495" lon="-0.771981">
        <ele>338.456</ele>
        <time>2020-08-10T09:57:50Z</time>
      </trkpt>
      <trkpt lat="39.435421" lon="-0.772250">
        <ele>337.665</ele>
        <time>2020-08-10T09:57:55Z</time>
      </trkpt>
      <trkpt lat="39.435356" lon="-0.772525">
        <ele>337.490</ele>
        <time>2020-08-10T09:58:00Z</time>
      </trkpt>
      <trkpt lat="39.435290" lon="-0.772755">
        <ele>338.769</ele>
        <time>2020-08-10T09:58:04Z</time>
      </trkpt>
      <trkpt lat="39.435225" lon="-0.772980">
        <ele>339.059</ele>
        <time>2020-08-10T09:58:08Z</time>
      </trkpt>
      <trkpt lat="39.435151" lon="-0.773243">
        <ele>338.780</ele>
        <time>2020-08-10T09:58:13Z</time>
      </trkpt>
      <trkpt lat="39.435080" lon="-0.773457">
        <ele>340.211</ele>
        <time>2020-08-10T09:58:17Z</time>
      </trkpt>
      <trkpt lat="39.435000" lon="-0.773717">
        <ele>338.672</ele>
        <time>2020-08-10T09:58:22Z</time>
      </trkpt>
      <trkpt lat="39.434925" lon="-0.773995">
        <ele>339.224</ele>
        <time>2020-08-10T09:58:27Z</time>
      </trkpt>
      <trkpt lat="39.434867" lon="-0.774228">
        <ele>340.004</ele>
        <time>2020-08-10T09:58:31Z</time>
      </trkpt>
      <trkpt lat="39.434804" lon="-0.774474">
        <ele>340.514</ele>
        <time>2020-08-10T09:58:35Z</time>
      </trkpt>
      <trkpt lat="39.434739" lon="-0.774718">
        <ele>340.608</ele>
        <time>2020-08-10T09:58:39Z</time>
      </trkpt>
      <trkpt lat="39.434682" lon="-0.774952">
        <ele>341.327</ele>
        <time>2020-08-10T09:58:43Z</time>
      </trkpt>
      <trkpt lat="39.434611" lon="-0.775208">
        <ele>342.476</ele>
        <time>2020-08-10T09:58:47Z</time>
      </trkpt>
      <trkpt lat="39.434545" lon="-0.775471">
        <ele>342.381</ele>
        <time>2020-08-10T09:58:51Z</time>
      </trkpt>
      <trkpt lat="39.434476" lon="-0.775749">
        <ele>341.660</ele>
        <time>2020-08-10T09:58:55Z</time>
      </trkpt>
      <trkpt lat="39.434406" lon="-0.776025">
        <ele>340.610</ele>
        <time>2020-08-10T09:58:59Z</time>
      </trkpt>
      <trkpt lat="39.434329" lon="-0.776302">
        <ele>340.811</ele>
        <time>2020-08-10T09:59:03Z</time>
      </trkpt>
      <trkpt lat="39.434247" lon="-0.776581">
        <ele>341.552</ele>
        <time>2020-08-10T09:59:07Z</time>
      </trkpt>
      <trkpt lat="39.434172" lon="-0.776857">
        <ele>341.253</ele>
        <time>2020-08-10T09:59:11Z</time>
      </trkpt>
      <trkpt lat="39.434097" lon="-0.777142">
        <ele>341.437</ele>
        <time>2020-08-10T09:59:15Z</time>
      </trkpt>
      <trkpt lat="39.434021" lon="-0.777412">
        <ele>340.849</ele>
        <time>2020-08-10T09:59:19Z</time>
      </trkpt>
      <trkpt lat="39.433952" lon="-0.777689">
        <ele>340.713</ele>
        <time>2020-08-10T09:59:23Z</time>
      </trkpt>
      <trkpt lat="39.433898" lon="-0.777967">
        <ele>341.108</ele>
        <time>2020-08-10T09:59:27Z</time>
      </trkpt>
      <trkpt lat="39.433881" lon="-0.778208">
        <ele>344.378</ele>
        <time>2020-08-10T09:59:31Z</time>
      </trkpt>
      <trkpt lat="39.433902" lon="-0.778444">
        <ele>346.437</ele>
        <time>2020-08-10T09:59:36Z</time>
      </trkpt>
      <trkpt lat="39.433966" lon="-0.778693">
        <ele>346.832</ele>
        <time>2020-08-10T09:59:42Z</time>
      </trkpt>
      <trkpt lat="39.434056" lon="-0.778936">
        <ele>347.521</ele>
        <time>2020-08-10T09:59:48Z</time>
      </trkpt>
      <trkpt lat="39.434152" lon="-0.779178">
        <ele>347.911</ele>
        <time>2020-08-10T09:59:54Z</time>
      </trkpt>
      <trkpt lat="39.434230" lon="-0.779438">
        <ele>347.882</ele>
        <time>2020-08-10T10:00:00Z</time>
      </trkpt>
      <trkpt lat="39.434261" lon="-0.779670">
        <ele>347.853</ele>
        <time>2020-08-10T10:00:05Z</time>
      </trkpt>
      <trkpt lat="39.434231" lon="-0.779905">
        <ele>348.684</ele>
        <time>2020-08-10T10:00:10Z</time>
      </trkpt>
      <trkpt lat="39.434138" lon="-0.780141">
        <ele>349.718</ele>
        <time>2020-08-10T10:00:15Z</time>
      </trkpt>
      <trkpt lat="39.434015" lon="-0.780371">
        <ele>347.998</ele>
        <time>2020-08-10T10:00:20Z</time>
      </trkpt>
      <trkpt lat="39.433884" lon="-0.780584">
        <ele>348.717</ele>
        <time>2020-08-10T10:00:25Z</time>
      </trkpt>
      <trkpt lat="39.433804" lon="-0.780813">
        <ele>350.408</ele>
        <time>2020-08-10T10:00:31Z</time>
      </trkpt>
      <trkpt lat="39.433569" lon="-0.781176">
        <ele>351.996</ele>
        <time>2020-08-10T10:00:40Z</time>
      </trkpt>
      <trkpt lat="39.433382" lon="-0.781282">
        <ele>352.875</ele>
        <time>2020-08-10T10:00:43Z</time>
      </trkpt>
      <trkpt lat="39.433230" lon="-0.781481">
        <ele>353.710</ele>
        <time>2020-08-10T10:00:47Z</time>
      </trkpt>
      <trkpt lat="39.433085" lon="-0.781682">
        <ele>354.229</ele>
        <time>2020-08-10T10:00:52Z</time>
      </trkpt>
      <trkpt lat="39.432954" lon="-0.781884">
        <ele>354.189</ele>
        <time>2020-08-10T10:00:57Z</time>
      </trkpt>
      <trkpt lat="39.432815" lon="-0.782096">
        <ele>353.690</ele>
        <time>2020-08-10T10:01:02Z</time>
      </trkpt>
      <trkpt lat="39.432670" lon="-0.782309">
        <ele>352.691</ele>
        <time>2020-08-10T10:01:07Z</time>
      </trkpt>
      <trkpt lat="39.432557" lon="-0.782491">
        <ele>352.892</ele>
        <time>2020-08-10T10:01:11Z</time>
      </trkpt>
      <trkpt lat="39.432430" lon="-0.782699">
        <ele>352.268</ele>
        <time>2020-08-10T10:01:16Z</time>
      </trkpt>
      <trkpt lat="39.432339" lon="-0.782906">
        <ele>352.742</ele>
        <time>2020-08-10T10:01:21Z</time>
      </trkpt>
      <trkpt lat="39.432237" lon="-0.783151">
        <ele>354.926</ele>
        <time>2020-08-10T10:01:27Z</time>
      </trkpt>
      <trkpt lat="39.432161" lon="-0.783392">
        <ele>356.208</ele>
        <time>2020-08-10T10:01:33Z</time>
      </trkpt>
      <trkpt lat="39.432083" lon="-0.783648">
        <ele>358.111</ele>
        <time>2020-08-10T10:01:39Z</time>
      </trkpt>
      <trkpt lat="39.432013" lon="-0.783910">
        <ele>359.130</ele>
        <time>2020-08-10T10:01:45Z</time>
      </trkpt>
      <trkpt lat="39.431953" lon="-0.784141">
        <ele>359.675</ele>
        <time>2020-08-10T10:01:50Z</time>
      </trkpt>
      <trkpt lat="39.431885" lon="-0.784368">
        <ele>359.274</ele>
        <time>2020-08-10T10:01:55Z</time>
      </trkpt>
      <trkpt lat="39.431822" lon="-0.784597">
        <ele>359.114</ele>
        <time>2020-08-10T10:02:00Z</time>
      </trkpt>
      <trkpt lat="39.431754" lon="-0.784821">
        <ele>359.565</ele>
        <time>2020-08-10T10:02:05Z</time>
      </trkpt>
      <trkpt lat="39.431702" lon="-0.785049">
        <ele>359.736</ele>
        <time>2020-08-10T10:02:10Z</time>
      </trkpt>
      <trkpt lat="39.431640" lon="-0.785269">
        <ele>360.397</ele>
        <time>2020-08-10T10:02:15Z</time>
      </trkpt>
      <trkpt lat="39.431562" lon="-0.785519">
        <ele>360.074</ele>
        <time>2020-08-10T10:02:21Z</time>
      </trkpt>
      <trkpt lat="39.431502" lon="-0.785780">
        <ele>360.456</ele>
        <time>2020-08-10T10:02:27Z</time>
      </trkpt>
      <trkpt lat="39.431443" lon="-0.786001">
        <ele>360.621</ele>
        <time>2020-08-10T10:02:32Z</time>
      </trkpt>
      <trkpt lat="39.431378" lon="-0.786227">
        <ele>361.508</ele>
        <time>2020-08-10T10:02:37Z</time>
      </trkpt>
      <trkpt lat="39.431317" lon="-0.786490">
        <ele>361.282</ele>
        <time>2020-08-10T10:02:43Z</time>
      </trkpt>
      <trkpt lat="39.431253" lon="-0.786721">
        <ele>361.551</ele>
        <time>2020-08-10T10:02:48Z</time>
      </trkpt>
      <trkpt lat="39.431191" lon="-0.786951">
        <ele>361.836</ele>
        <time>2020-08-10T10:02:53Z</time>
      </trkpt>
      <trkpt lat="39.431125" lon="-0.787172">
        <ele>362.695</ele>
        <time>2020-08-10T10:02:58Z</time>
      </trkpt>
      <trkpt lat="39.431058" lon="-0.787428">
        <ele>363.865</ele>
        <time>2020-08-10T10:03:04Z</time>
      </trkpt>
      <trkpt lat="39.430997" lon="-0.787670">
        <ele>364.816</ele>
        <time>2020-08-10T10:03:10Z</time>
      </trkpt>
      <trkpt lat="39.430931" lon="-0.787900">
        <ele>363.857</ele>
        <time>2020-08-10T10:03:16Z</time>
      </trkpt>
      <trkpt lat="39.430843" lon="-0.788117">
        <ele>363.358</ele>
        <time>2020-08-10T10:03:22Z</time>
      </trkpt>
      <trkpt lat="39.430706" lon="-0.788322">
        <ele>364.149</ele>
        <time>2020-08-10T10:03:28Z</time>
      </trkpt>
      <trkpt lat="39.430559" lon="-0.788484">
        <ele>365.602</ele>
        <time>2020-08-10T10:03:33Z</time>
      </trkpt>
      <trkpt lat="39.430410" lon="-0.788633">
        <ele>365.822</ele>
        <time>2020-08-10T10:03:38Z</time>
      </trkpt>
      <trkpt lat="39.430256" lon="-0.788786">
        <ele>366.208</ele>
        <time>2020-08-10T10:03:43Z</time>
      </trkpt>
      <trkpt lat="39.430113" lon="-0.788933">
        <ele>367.059</ele>
        <time>2020-08-10T10:03:48Z</time>
      </trkpt>
      <trkpt lat="39.430078" lon="-0.789203">
        <ele>368.048</ele>
        <time>2020-08-10T10:03:54Z</time>
      </trkpt>
      <trkpt lat="39.430121" lon="-0.789432">
        <ele>366.943</ele>
        <time>2020-08-10T10:04:00Z</time>
      </trkpt>
      <trkpt lat="39.430165" lon="-0.789671">
        <ele>367.962</ele>
        <time>2020-08-10T10:04:06Z</time>
      </trkpt>
      <trkpt lat="39.430252" lon="-0.789902">
        <ele>370.212</ele>
        <time>2020-08-10T10:04:12Z</time>
      </trkpt>
      <trkpt lat="39.430429" lon="-0.789961">
        <ele>371.623</ele>
        <time>2020-08-10T10:04:18Z</time>
      </trkpt>
      <trkpt lat="39.430641" lon="-0.789862">
        <ele>371.074</ele>
        <time>2020-08-10T10:04:23Z</time>
      </trkpt>
      <trkpt lat="39.430768" lon="-0.789649">
        <ele>368.495</ele>
        <time>2020-08-10T10:04:27Z</time>
      </trkpt>
      <trkpt lat="39.430817" lon="-0.789410">
        <ele>366.593</ele>
        <time>2020-08-10T10:04:31Z</time>
      </trkpt>
      <trkpt lat="39.430772" lon="-0.789149">
        <ele>365.165</ele>
        <time>2020-08-10T10:04:35Z</time>
      </trkpt>
      <trkpt lat="39.430697" lon="-0.788868">
        <ele>363.421</ele>
        <time>2020-08-10T10:04:38Z</time>
      </trkpt>
      <trkpt lat="39.430592" lon="-0.788549">
        <ele>361.008</ele>
        <time>2020-08-10T10:04:41Z</time>
      </trkpt>
      <trkpt lat="39.430502" lon="-0.788237">
        <ele>358.554</ele>
        <time>2020-08-10T10:04:44Z</time>
      </trkpt>
      <trkpt lat="39.430419" lon="-0.787953">
        <ele>354.863</ele>
        <time>2020-08-10T10:04:47Z</time>
      </trkpt>
      <trkpt lat="39.430326" lon="-0.787688">
        <ele>352.758</ele>
        <time>2020-08-10T10:04:50Z</time>
      </trkpt>
      <trkpt lat="39.430230" lon="-0.787463">
        <ele>351.927</ele>
        <time>2020-08-10T10:04:53Z</time>
      </trkpt>
      <trkpt lat="39.430144" lon="-0.787243">
        <ele>352.997</ele>
        <time>2020-08-10T10:04:56Z</time>
      </trkpt>
      <trkpt lat="39.430039" lon="-0.787045">
        <ele>352.938</ele>
        <time>2020-08-10T10:04:59Z</time>
      </trkpt>
      <trkpt lat="39.429863" lon="-0.786984">
        <ele>358.569</ele>
        <time>2020-08-10T10:05:03Z</time>
      </trkpt>
      <trkpt lat="39.429648" lon="-0.787073">
        <ele>359.940</ele>
        <time>2020-08-10T10:05:08Z</time>
      </trkpt>
      <trkpt lat="39.429462" lon="-0.787161">
        <ele>360.914</ele>
        <time>2020-08-10T10:05:12Z</time>
      </trkpt>
      <trkpt lat="39.429306" lon="-0.787315">
        <ele>359.754</ele>
        <time>2020-08-10T10:05:16Z</time>
      </trkpt>
      <trkpt lat="39.429171" lon="-0.787474">
        <ele>356.609</ele>
        <time>2020-08-10T10:05:20Z</time>
      </trkpt>
      <trkpt lat="39.429013" lon="-0.787590">
        <ele>353.908</ele>
        <time>2020-08-10T10:05:25Z</time>
      </trkpt>
      <trkpt lat="39.428801" lon="-0.787636">
        <ele>356.276</ele>
        <time>2020-08-10T10:05:31Z</time>
      </trkpt>
      <trkpt lat="39.428620" lon="-0.787613">
        <ele>361.075</ele>
        <time>2020-08-10T10:05:36Z</time>
      </trkpt>
      <trkpt lat="39.428436" lon="-0.787676">
        <ele>362.580</ele>
        <time>2020-08-10T10:05:41Z</time>
      </trkpt>
      <trkpt lat="39.428240" lon="-0.787774">
        <ele>359.519</ele>
        <time>2020-08-10T10:05:47Z</time>
      </trkpt>
      <trkpt lat="39.428066" lon="-0.787892">
        <ele>357.689</ele>
        <time>2020-08-10T10:05:52Z</time>
      </trkpt>
      <trkpt lat="39.427907" lon="-0.788009">
        <ele>359.480</ele>
        <time>2020-08-10T10:05:57Z</time>
      </trkpt>
      <trkpt lat="39.427739" lon="-0.788115">
        <ele>360.781</ele>
        <time>2020-08-10T10:06:03Z</time>
      </trkpt>
      <trkpt lat="39.427543" lon="-0.788196">
        <ele>360.282</ele>
        <time>2020-08-10T10:06:09Z</time>
      </trkpt>
      <trkpt lat="39.427321" lon="-0.788240">
        <ele>359.689</ele>
        <time>2020-08-10T10:06:14Z</time>
      </trkpt>
      <trkpt lat="39.427133" lon="-0.788286">
        <ele>360.506</ele>
        <time>2020-08-10T10:06:18Z</time>
      </trkpt>
      <trkpt lat="39.426943" lon="-0.788276">
        <ele>364.526</ele>
        <time>2020-08-10T10:06:23Z</time>
      </trkpt>
      <trkpt lat="39.426751" lon="-0.788227">
        <ele>367.308</ele>
        <time>2020-08-10T10:06:29Z</time>
      </trkpt>
      <trkpt lat="39.426569" lon="-0.788109">
        <ele>366.363</ele>
        <time>2020-08-10T10:06:35Z</time>
      </trkpt>
      <trkpt lat="39.426418" lon="-0.787946">
        <ele>365.292</ele>
        <time>2020-08-10T10:06:40Z</time>
      </trkpt>
      <trkpt lat="39.426283" lon="-0.787729">
        <ele>363.117</ele>
        <time>2020-08-10T10:06:44Z</time>
      </trkpt>
      <trkpt lat="39.426219" lon="-0.787453">
        <ele>361.536</ele>
        <time>2020-08-10T10:06:48Z</time>
      </trkpt>
      <trkpt lat="39.426180" lon="-0.787209">
        <ele>359.276</ele>
        <time>2020-08-10T10:06:52Z</time>
      </trkpt>
      <trkpt lat="39.425987" lon="-0.787163">
        <ele>353.537</ele>
        <time>2020-08-10T10:07:01Z</time>
      </trkpt>
      <trkpt lat="39.425788" lon="-0.787179">
        <ele>365.218</ele>
        <time>2020-08-10T11:28:44Z</time>
      </trkpt>
      <trkpt lat="39.425622" lon="-0.787066">
        <ele>362.119</ele>
        <time>2020-08-10T11:29:14Z</time>
      </trkpt>
      <trkpt lat="39.425801" lon="-0.787122">
        <ele>360.126</ele>
        <time>2020-08-10T11:32:23Z</time>
      </trkpt>
      <trkpt lat="39.425986" lon="-0.787179">
        <ele>361.347</ele>
        <time>2020-08-10T11:39:59Z</time>
      </trkpt>
      <trkpt lat="39.426170" lon="-0.787112">
        <ele>361.511</ele>
        <time>2020-08-10T11:40:12Z</time>
      </trkpt>
      <trkpt lat="39.426225" lon="-0.787345">
        <ele>363.608</ele>
        <time>2020-08-10T11:40:25Z</time>
      </trkpt>
      <trkpt lat="39.426265" lon="-0.787583">
        <ele>365.597</ele>
        <time>2020-08-10T11:40:38Z</time>
      </trkpt>
      <trkpt lat="39.426357" lon="-0.787802">
        <ele>368.276</ele>
        <time>2020-08-10T11:40:48Z</time>
      </trkpt>
      <trkpt lat="39.426494" lon="-0.787975">
        <ele>369.911</ele>
        <time>2020-08-10T11:40:58Z</time>
      </trkpt>
      <trkpt lat="39.426647" lon="-0.788110">
        <ele>369.030</ele>
        <time>2020-08-10T11:41:08Z</time>
      </trkpt>
      <trkpt lat="39.426829" lon="-0.788222">
        <ele>370.170</ele>
        <time>2020-08-10T11:41:16Z</time>
      </trkpt>
      <trkpt lat="39.427030" lon="-0.788226">
        <ele>369.171</ele>
        <time>2020-08-10T11:41:21Z</time>
      </trkpt>
      <trkpt lat="39.427240" lon="-0.788180">
        <ele>367.522</ele>
        <time>2020-08-10T11:41:25Z</time>
      </trkpt>
      <trkpt lat="39.427465" lon="-0.788157">
        <ele>366.983</ele>
        <time>2020-08-10T11:41:30Z</time>
      </trkpt>
      <trkpt lat="39.427673" lon="-0.788073">
        <ele>367.299</ele>
        <time>2020-08-10T11:41:35Z</time>
      </trkpt>
      <trkpt lat="39.427842" lon="-0.787965">
        <ele>367.207</ele>
        <time>2020-08-10T11:41:39Z</time>
      </trkpt>
      <trkpt lat="39.428063" lon="-0.787839">
        <ele>367.027</ele>
        <time>2020-08-10T11:41:43Z</time>
      </trkpt>
      <trkpt lat="39.428246" lon="-0.787744">
        <ele>366.208</ele>
        <time>2020-08-10T11:41:46Z</time>
      </trkpt>
      <trkpt lat="39.428425" lon="-0.787669">
        <ele>365.664</ele>
        <time>2020-08-10T11:41:49Z</time>
      </trkpt>
      <trkpt lat="39.428624" lon="-0.787592">
        <ele>365.763</ele>
        <time>2020-08-10T11:41:53Z</time>
      </trkpt>
      <trkpt lat="39.428809" lon="-0.787546">
        <ele>364.628</ele>
        <time>2020-08-10T11:41:57Z</time>
      </trkpt>
      <trkpt lat="39.428993" lon="-0.787486">
        <ele>365.827</ele>
        <time>2020-08-10T11:42:01Z</time>
      </trkpt>
      <trkpt lat="39.429169" lon="-0.787403">
        <ele>363.867</ele>
        <time>2020-08-10T11:42:04Z</time>
      </trkpt>
      <trkpt lat="39.429359" lon="-0.787246">
        <ele>360.978</ele>
        <time>2020-08-10T11:42:07Z</time>
      </trkpt>
      <trkpt lat="39.429521" lon="-0.787123">
        <ele>357.819</ele>
        <time>2020-08-10T11:42:10Z</time>
      </trkpt>
      <trkpt lat="39.429746" lon="-0.787074">
        <ele>355.640</ele>
        <time>2020-08-10T11:42:14Z</time>
      </trkpt>
      <trkpt lat="39.429949" lon="-0.787012">
        <ele>357.754</ele>
        <time>2020-08-10T11:42:18Z</time>
      </trkpt>
      <trkpt lat="39.430125" lon="-0.787080">
        <ele>359.256</ele>
        <time>2020-08-10T11:42:22Z</time>
      </trkpt>
      <trkpt lat="39.430221" lon="-0.787281">
        <ele>360.011</ele>
        <time>2020-08-10T11:42:26Z</time>
      </trkpt>
      <trkpt lat="39.430295" lon="-0.787499">
        <ele>360.308</ele>
        <time>2020-08-10T11:42:30Z</time>
      </trkpt>
      <trkpt lat="39.430377" lon="-0.787767">
        <ele>358.580</ele>
        <time>2020-08-10T11:42:35Z</time>
      </trkpt>
      <trkpt lat="39.430457" lon="-0.788032">
        <ele>357.839</ele>
        <time>2020-08-10T11:42:40Z</time>
      </trkpt>
      <trkpt lat="39.430525" lon="-0.788251">
        <ele>358.074</ele>
        <time>2020-08-10T11:42:44Z</time>
      </trkpt>
      <trkpt lat="39.430604" lon="-0.788522">
        <ele>359.793</ele>
        <time>2020-08-10T11:42:49Z</time>
      </trkpt>
      <trkpt lat="39.430700" lon="-0.788736">
        <ele>360.823</ele>
        <time>2020-08-10T11:42:53Z</time>
      </trkpt>
      <trkpt lat="39.430758" lon="-0.788961">
        <ele>362.634</ele>
        <time>2020-08-10T11:42:59Z</time>
      </trkpt>
      <trkpt lat="39.430787" lon="-0.789212">
        <ele>367.165</ele>
        <time>2020-08-10T11:43:08Z</time>
      </trkpt>
      <trkpt lat="39.430809" lon="-0.789451">
        <ele>368.946</ele>
        <time>2020-08-10T11:43:18Z</time>
      </trkpt>
      <trkpt lat="39.430775" lon="-0.789690">
        <ele>365.687</ele>
        <time>2020-08-10T11:44:50Z</time>
      </trkpt>
      <trkpt lat="39.430663" lon="-0.789896">
        <ele>367.242</ele>
        <time>2020-08-10T11:45:00Z</time>
      </trkpt>
      <trkpt lat="39.430496" lon="-0.789986">
        <ele>370.326</ele>
        <time>2020-08-10T11:45:08Z</time>
      </trkpt>
      <trkpt lat="39.430302" lon="-0.789979">
        <ele>371.208</ele>
        <time>2020-08-10T11:45:16Z</time>
      </trkpt>
      <trkpt lat="39.430157" lon="-0.789833">
        <ele>371.913</ele>
        <time>2020-08-10T11:45:25Z</time>
      </trkpt>
      <trkpt lat="39.430040" lon="-0.789645">
        <ele>372.122</ele>
        <time>2020-08-10T11:45:35Z</time>
      </trkpt>
      <trkpt lat="39.429890" lon="-0.789487">
        <ele>369.197</ele>
        <time>2020-08-10T11:45:42Z</time>
      </trkpt>
      <trkpt lat="39.429730" lon="-0.789362">
        <ele>367.566</ele>
        <time>2020-08-10T11:45:47Z</time>
      </trkpt>
      <trkpt lat="39.429518" lon="-0.789313">
        <ele>367.356</ele>
        <time>2020-08-10T11:45:53Z</time>
      </trkpt>
      <trkpt lat="39.429317" lon="-0.789239">
        <ele>369.047</ele>
        <time>2020-08-10T11:45:59Z</time>
      </trkpt>
      <trkpt lat="39.429136" lon="-0.789289">
        <ele>369.618</ele>
        <time>2020-08-10T11:46:06Z</time>
      </trkpt>
      <trkpt lat="39.428962" lon="-0.789370">
        <ele>368.919</ele>
        <time>2020-08-10T11:46:14Z</time>
      </trkpt>
      <trkpt lat="39.428794" lon="-0.789464">
        <ele>367.851</ele>
        <time>2020-08-10T11:46:21Z</time>
      </trkpt>
      <trkpt lat="39.428626" lon="-0.789590">
        <ele>368.201</ele>
        <time>2020-08-10T11:46:29Z</time>
      </trkpt>
      <trkpt lat="39.428473" lon="-0.789751">
        <ele>368.211</ele>
        <time>2020-08-10T11:46:36Z</time>
      </trkpt>
      <trkpt lat="39.428327" lon="-0.789933">
        <ele>369.708</ele>
        <time>2020-08-10T11:46:42Z</time>
      </trkpt>
      <trkpt lat="39.428187" lon="-0.790140">
        <ele>370.070</ele>
        <time>2020-08-10T11:46:48Z</time>
      </trkpt>
      <trkpt lat="39.428070" lon="-0.790365">
        <ele>371.069</ele>
        <time>2020-08-10T11:46:54Z</time>
      </trkpt>
      <trkpt lat="39.427965" lon="-0.790576">
        <ele>370.474</ele>
        <time>2020-08-10T11:47:00Z</time>
      </trkpt>
      <trkpt lat="39.427867" lon="-0.790798">
        <ele>367.573</ele>
        <time>2020-08-10T11:47:07Z</time>
      </trkpt>
      <trkpt lat="39.427767" lon="-0.790998">
        <ele>368.913</ele>
        <time>2020-08-10T11:47:14Z</time>
      </trkpt>
      <trkpt lat="39.427679" lon="-0.791219">
        <ele>371.194</ele>
        <time>2020-08-10T11:47:22Z</time>
      </trkpt>
      <trkpt lat="39.427620" lon="-0.791442">
        <ele>373.165</ele>
        <time>2020-08-10T11:47:30Z</time>
      </trkpt>
      <trkpt lat="39.427575" lon="-0.791676">
        <ele>376.156</ele>
        <time>2020-08-10T11:47:38Z</time>
      </trkpt>
      <trkpt lat="39.427548" lon="-0.791934">
        <ele>376.977</ele>
        <time>2020-08-10T11:47:47Z</time>
      </trkpt>
      <trkpt lat="39.427536" lon="-0.792193">
        <ele>378.161</ele>
        <time>2020-08-10T11:47:56Z</time>
      </trkpt>
      <trkpt lat="39.427546" lon="-0.792436">
        <ele>380.527</ele>
        <time>2020-08-10T11:48:05Z</time>
      </trkpt>
      <trkpt lat="39.427577" lon="-0.792675">
        <ele>381.108</ele>
        <time>2020-08-10T11:48:14Z</time>
      </trkpt>
      <trkpt lat="39.427639" lon="-0.792907">
        <ele>381.362</ele>
        <time>2020-08-10T11:48:23Z</time>
      </trkpt>
      <trkpt lat="39.427711" lon="-0.793124">
        <ele>383.231</ele>
        <time>2020-08-10T11:48:32Z</time>
      </trkpt>
      <trkpt lat="39.427793" lon="-0.793339">
        <ele>385.326</ele>
        <time>2020-08-10T11:48:41Z</time>
      </trkpt>
      <trkpt lat="39.427882" lon="-0.793556">
        <ele>386.425</ele>
        <time>2020-08-10T11:48:50Z</time>
      </trkpt>
      <trkpt lat="39.427980" lon="-0.793752">
        <ele>389.475</ele>
        <time>2020-08-10T11:48:58Z</time>
      </trkpt>
      <trkpt lat="39.428073" lon="-0.793972">
        <ele>391.766</ele>
        <time>2020-08-10T11:49:07Z</time>
      </trkpt>
      <trkpt lat="39.428163" lon="-0.794182">
        <ele>393.837</ele>
        <time>2020-08-10T11:49:16Z</time>
      </trkpt>
      <trkpt lat="39.428252" lon="-0.794411">
        <ele>395.518</ele>
        <time>2020-08-10T11:49:26Z</time>
      </trkpt>
      <trkpt lat="39.428361" lon="-0.794608">
        <ele>396.051</ele>
        <time>2020-08-10T11:49:35Z</time>
      </trkpt>
      <trkpt lat="39.428450" lon="-0.794832">
        <ele>398.701</ele>
        <time>2020-08-10T11:49:45Z</time>
      </trkpt>
      <trkpt lat="39.428532" lon="-0.795044">
        <ele>400.611</ele>
        <time>2020-08-10T11:49:54Z</time>
      </trkpt>
      <trkpt lat="39.428625" lon="-0.795267">
        <ele>402.108</ele>
        <time>2020-08-10T11:50:04Z</time>
      </trkpt>
      <trkpt lat="39.428696" lon="-0.795485">
        <ele>402.260</ele>
        <time>2020-08-10T11:50:13Z</time>
      </trkpt>
      <trkpt lat="39.428774" lon="-0.795695">
        <ele>403.729</ele>
        <time>2020-08-10T11:50:21Z</time>
      </trkpt>
      <trkpt lat="39.428850" lon="-0.795914">
        <ele>404.784</ele>
        <time>2020-08-10T11:50:30Z</time>
      </trkpt>
      <trkpt lat="39.428944" lon="-0.796129">
        <ele>405.283</ele>
        <time>2020-08-10T11:50:39Z</time>
      </trkpt>
      <trkpt lat="39.429048" lon="-0.796349">
        <ele>405.793</ele>
        <time>2020-08-10T11:50:48Z</time>
      </trkpt>
      <trkpt lat="39.429171" lon="-0.796564">
        <ele>409.544</ele>
        <time>2020-08-10T11:50:57Z</time>
      </trkpt>
      <trkpt lat="39.429268" lon="-0.796770">
        <ele>410.495</ele>
        <time>2020-08-10T11:51:06Z</time>
      </trkpt>
      <trkpt lat="39.429361" lon="-0.796997">
        <ele>411.096</ele>
        <time>2020-08-10T11:51:15Z</time>
      </trkpt>
      <trkpt lat="39.429477" lon="-0.797193">
        <ele>411.097</ele>
        <time>2020-08-10T11:51:23Z</time>
      </trkpt>
      <trkpt lat="39.429602" lon="-0.797386">
        <ele>412.023</ele>
        <time>2020-08-10T11:51:31Z</time>
      </trkpt>
      <trkpt lat="39.429703" lon="-0.797595">
        <ele>415.225</ele>
        <time>2020-08-10T11:51:41Z</time>
      </trkpt>
      <trkpt lat="39.429807" lon="-0.797798">
        <ele>413.308</ele>
        <time>2020-08-10T11:51:50Z</time>
      </trkpt>
      <trkpt lat="39.429863" lon="-0.798042">
        <ele>413.964</ele>
        <time>2020-08-10T11:51:58Z</time>
      </trkpt>
      <trkpt lat="39.429918" lon="-0.798289">
        <ele>416.013</ele>
        <time>2020-08-10T11:52:04Z</time>
      </trkpt>
      <trkpt lat="39.429899" lon="-0.798541">
        <ele>417.448</ele>
        <time>2020-08-10T11:52:12Z</time>
      </trkpt>
      <trkpt lat="39.429863" lon="-0.798795">
        <ele>418.887</ele>
        <time>2020-08-10T11:52:21Z</time>
      </trkpt>
      <trkpt lat="39.429796" lon="-0.799022">
        <ele>421.777</ele>
        <time>2020-08-10T11:52:29Z</time>
      </trkpt>
      <trkpt lat="39.429714" lon="-0.799230">
        <ele>424.058</ele>
        <time>2020-08-10T11:52:37Z</time>
      </trkpt>
      <trkpt lat="39.429640" lon="-0.799453">
        <ele>422.469</ele>
        <time>2020-08-10T11:52:45Z</time>
      </trkpt>
      <trkpt lat="39.429578" lon="-0.799678">
        <ele>423.140</ele>
        <time>2020-08-10T11:52:53Z</time>
      </trkpt>
      <trkpt lat="39.429518" lon="-0.799919">
        <ele>425.628</ele>
        <time>2020-08-10T11:53:02Z</time>
      </trkpt>
      <trkpt lat="39.429479" lon="-0.800153">
        <ele>426.389</ele>
        <time>2020-08-10T11:53:11Z</time>
      </trkpt>
      <trkpt lat="39.429453" lon="-0.800389">
        <ele>426.517</ele>
        <time>2020-08-10T11:53:20Z</time>
      </trkpt>
      <trkpt lat="39.429450" lon="-0.800629">
        <ele>426.608</ele>
        <time>2020-08-10T11:53:29Z</time>
      </trkpt>
      <trkpt lat="39.429457" lon="-0.800869">
        <ele>428.467</ele>
        <time>2020-08-10T11:53:38Z</time>
      </trkpt>
      <trkpt lat="39.429478" lon="-0.801115">
        <ele>429.066</ele>
        <time>2020-08-10T11:53:47Z</time>
      </trkpt>
      <trkpt lat="39.429507" lon="-0.801353">
        <ele>428.821</ele>
        <time>2020-08-10T11:53:56Z</time>
      </trkpt>
      <trkpt lat="39.429531" lon="-0.801585">
        <ele>428.960</ele>
        <time>2020-08-10T11:54:05Z</time>
      </trkpt>
      <trkpt lat="39.429563" lon="-0.801837">
        <ele>430.050</ele>
        <time>2020-08-10T11:54:15Z</time>
      </trkpt>
      <trkpt lat="39.429587" lon="-0.802079">
        <ele>430.831</ele>
        <time>2020-08-10T11:54:25Z</time>
      </trkpt>
      <trkpt lat="39.429610" lon="-0.802316">
        <ele>433.492</ele>
        <time>2020-08-10T11:54:35Z</time>
      </trkpt>
      <trkpt lat="39.429634" lon="-0.802554">
        <ele>436.563</ele>
        <time>2020-08-10T11:54:45Z</time>
      </trkpt>
      <trkpt lat="39.429664" lon="-0.802805">
        <ele>436.152</ele>
        <time>2020-08-10T11:54:55Z</time>
      </trkpt>
      <trkpt lat="39.429728" lon="-0.803041">
        <ele>437.553</ele>
        <time>2020-08-10T11:55:05Z</time>
      </trkpt>
      <trkpt lat="39.429821" lon="-0.803269">
        <ele>437.408</ele>
        <time>2020-08-10T11:55:15Z</time>
      </trkpt>
      <trkpt lat="39.429914" lon="-0.803498">
        <ele>439.408</ele>
        <time>2020-08-10T11:55:25Z</time>
      </trkpt>
      <trkpt lat="39.430009" lon="-0.803721">
        <ele>440.250</ele>
        <time>2020-08-10T11:55:35Z</time>
      </trkpt>
      <trkpt lat="39.430101" lon="-0.803943">
        <ele>440.929</ele>
        <time>2020-08-10T11:55:45Z</time>
      </trkpt>
      <trkpt lat="39.430185" lon="-0.804164">
        <ele>443.334</ele>
        <time>2020-08-10T11:55:55Z</time>
      </trkpt>
      <trkpt lat="39.430270" lon="-0.804381">
        <ele>445.043</ele>
        <time>2020-08-10T11:56:05Z</time>
      </trkpt>
      <trkpt lat="39.430374" lon="-0.804591">
        <ele>446.183</ele>
        <time>2020-08-10T11:56:15Z</time>
      </trkpt>
      <trkpt lat="39.430478" lon="-0.804783">
        <ele>446.864</ele>
        <time>2020-08-10T11:56:25Z</time>
      </trkpt>
      <trkpt lat="39.430592" lon="-0.804992">
        <ele>449.965</ele>
        <time>2020-08-10T11:56:36Z</time>
      </trkpt>
      <trkpt lat="39.430711" lon="-0.805181">
        <ele>450.746</ele>
        <time>2020-08-10T11:56:46Z</time>
      </trkpt>
      <trkpt lat="39.430851" lon="-0.805358">
        <ele>451.226</ele>
        <time>2020-08-10T11:56:56Z</time>
      </trkpt>
      <trkpt lat="39.430984" lon="-0.805520">
        <ele>453.547</ele>
        <time>2020-08-10T11:57:06Z</time>
      </trkpt>
      <trkpt lat="39.431129" lon="-0.805689">
        <ele>454.911</ele>
        <time>2020-08-10T11:57:16Z</time>
      </trkpt>
      <trkpt lat="39.431255" lon="-0.805872">
        <ele>454.308</ele>
        <time>2020-08-10T11:57:26Z</time>
      </trkpt>
      <trkpt lat="39.431366" lon="-0.806071">
        <ele>455.167</ele>
        <time>2020-08-10T11:57:36Z</time>
      </trkpt>
      <trkpt lat="39.431453" lon="-0.806293">
        <ele>455.926</ele>
        <time>2020-08-10T11:57:46Z</time>
      </trkpt>
      <trkpt lat="39.431514" lon="-0.806531">
        <ele>459.081</ele>
        <time>2020-08-10T11:57:55Z</time>
      </trkpt>
      <trkpt lat="39.431546" lon="-0.806772">
        <ele>461.330</ele>
        <time>2020-08-10T11:58:04Z</time>
      </trkpt>
      <trkpt lat="39.431543" lon="-0.807006">
        <ele>461.390</ele>
        <time>2020-08-10T11:58:12Z</time>
      </trkpt>
      <trkpt lat="39.431507" lon="-0.807256">
        <ele>463.751</ele>
        <time>2020-08-10T11:58:21Z</time>
      </trkpt>
      <trkpt lat="39.431440" lon="-0.807502">
        <ele>466.632</ele>
        <time>2020-08-10T11:58:30Z</time>
      </trkpt>
      <trkpt lat="39.431360" lon="-0.807722">
        <ele>467.593</ele>
        <time>2020-08-10T11:58:38Z</time>
      </trkpt>
      <trkpt lat="39.431277" lon="-0.807943">
        <ele>466.689</ele>
        <time>2020-08-10T11:58:46Z</time>
      </trkpt>
      <trkpt lat="39.431199" lon="-0.808164">
        <ele>466.106</ele>
        <time>2020-08-10T11:58:54Z</time>
      </trkpt>
      <trkpt lat="39.431098" lon="-0.808385">
        <ele>469.926</ele>
        <time>2020-08-10T11:59:03Z</time>
      </trkpt>
      <trkpt lat="39.431000" lon="-0.808589">
        <ele>471.908</ele>
        <time>2020-08-10T11:59:12Z</time>
      </trkpt>
      <trkpt lat="39.430920" lon="-0.808800">
        <ele>472.243</ele>
        <time>2020-08-10T11:59:20Z</time>
      </trkpt>
      <trkpt lat="39.430860" lon="-0.809030">
        <ele>472.092</ele>
        <time>2020-08-10T11:59:29Z</time>
      </trkpt>
      <trkpt lat="39.430821" lon="-0.809267">
        <ele>472.887</ele>
        <time>2020-08-10T11:59:38Z</time>
      </trkpt>
      <trkpt lat="39.430769" lon="-0.809511">
        <ele>474.656</ele>
        <time>2020-08-10T11:59:47Z</time>
      </trkpt>
      <trkpt lat="39.430723" lon="-0.809763">
        <ele>473.896</ele>
        <time>2020-08-10T11:59:56Z</time>
      </trkpt>
      <trkpt lat="39.430681" lon="-0.810014">
        <ele>474.417</ele>
        <time>2020-08-10T12:00:05Z</time>
      </trkpt>
      <trkpt lat="39.430644" lon="-0.810243">
        <ele>475.648</ele>
        <time>2020-08-10T12:00:13Z</time>
      </trkpt>
      <trkpt lat="39.430606" lon="-0.810484">
        <ele>476.389</ele>
        <time>2020-08-10T12:00:22Z</time>
      </trkpt>
      <trkpt lat="39.430552" lon="-0.810721">
        <ele>479.575</ele>
        <time>2020-08-10T12:00:31Z</time>
      </trkpt>
      <trkpt lat="39.430534" lon="-0.810971">
        <ele>480.828</ele>
        <time>2020-08-10T12:00:40Z</time>
      </trkpt>
      <trkpt lat="39.430555" lon="-0.811229">
        <ele>483.620</ele>
        <time>2020-08-10T12:00:50Z</time>
      </trkpt>
      <trkpt lat="39.430627" lon="-0.811454">
        <ele>485.008</ele>
        <time>2020-08-10T12:00:59Z</time>
      </trkpt>
      <trkpt lat="39.430730" lon="-0.811668">
        <ele>485.322</ele>
        <time>2020-08-10T12:01:08Z</time>
      </trkpt>
      <trkpt lat="39.430829" lon="-0.811873">
        <ele>486.811</ele>
        <time>2020-08-10T12:01:17Z</time>
      </trkpt>
      <trkpt lat="39.430929" lon="-0.812089">
        <ele>489.326</ele>
        <time>2020-08-10T12:01:26Z</time>
      </trkpt>
      <trkpt lat="39.431028" lon="-0.812302">
        <ele>491.595</ele>
        <time>2020-08-10T12:01:35Z</time>
      </trkpt>
      <trkpt lat="39.431131" lon="-0.812513">
        <ele>493.235</ele>
        <time>2020-08-10T12:01:44Z</time>
      </trkpt>
      <trkpt lat="39.431248" lon="-0.812705">
        <ele>492.726</ele>
        <time>2020-08-10T12:01:53Z</time>
      </trkpt>
      <trkpt lat="39.431351" lon="-0.812907">
        <ele>494.577</ele>
        <time>2020-08-10T12:02:02Z</time>
      </trkpt>
      <trkpt lat="39.431425" lon="-0.813136">
        <ele>499.578</ele>
        <time>2020-08-10T12:02:11Z</time>
      </trkpt>
      <trkpt lat="39.431531" lon="-0.813334">
        <ele>500.377</ele>
        <time>2020-08-10T12:02:20Z</time>
      </trkpt>
      <trkpt lat="39.431616" lon="-0.813541">
        <ele>500.261</ele>
        <time>2020-08-10T12:02:29Z</time>
      </trkpt>
      <trkpt lat="39.431658" lon="-0.813774">
        <ele>502.727</ele>
        <time>2020-08-10T12:02:38Z</time>
      </trkpt>
      <trkpt lat="39.431674" lon="-0.814024">
        <ele>504.508</ele>
        <time>2020-08-10T12:02:47Z</time>
      </trkpt>
      <trkpt lat="39.431675" lon="-0.814276">
        <ele>505.722</ele>
        <time>2020-08-10T12:02:56Z</time>
      </trkpt>
      <trkpt lat="39.431685" lon="-0.814528">
        <ele>505.711</ele>
        <time>2020-08-10T12:03:05Z</time>
      </trkpt>
      <trkpt lat="39.431695" lon="-0.814781">
        <ele>505.466</ele>
        <time>2020-08-10T12:03:14Z</time>
      </trkpt>
      <trkpt lat="39.431705" lon="-0.815022">
        <ele>506.715</ele>
        <time>2020-08-10T12:03:23Z</time>
      </trkpt>
      <trkpt lat="39.431707" lon="-0.815264">
        <ele>509.095</ele>
        <time>2020-08-10T12:03:32Z</time>
      </trkpt>
      <trkpt lat="39.431717" lon="-0.815529">
        <ele>509.656</ele>
        <time>2020-08-10T12:03:42Z</time>
      </trkpt>
      <trkpt lat="39.431716" lon="-0.815767">
        <ele>512.187</ele>
        <time>2020-08-10T12:03:51Z</time>
      </trkpt>
      <trkpt lat="39.431731" lon="-0.816015">
        <ele>512.928</ele>
        <time>2020-08-10T12:04:00Z</time>
      </trkpt>
      <trkpt lat="39.431737" lon="-0.816252">
        <ele>513.399</ele>
        <time>2020-08-10T12:04:09Z</time>
      </trkpt>
      <trkpt lat="39.431748" lon="-0.816496">
        <ele>515.107</ele>
        <time>2020-08-10T12:04:18Z</time>
      </trkpt>
      <trkpt lat="39.431763" lon="-0.816738">
        <ele>515.127</ele>
        <time>2020-08-10T12:04:27Z</time>
      </trkpt>
      <trkpt lat="39.431807" lon="-0.816987">
        <ele>516.308</ele>
        <time>2020-08-10T12:04:36Z</time>
      </trkpt>
      <trkpt lat="39.431868" lon="-0.817216">
        <ele>518.324</ele>
        <time>2020-08-10T12:04:45Z</time>
      </trkpt>
      <trkpt lat="39.431942" lon="-0.817435">
        <ele>519.353</ele>
        <time>2020-08-10T12:04:54Z</time>
      </trkpt>
      <trkpt lat="39.432038" lon="-0.817647">
        <ele>519.078</ele>
        <time>2020-08-10T12:05:03Z</time>
      </trkpt>
      <trkpt lat="39.432122" lon="-0.817879">
        <ele>520.857</ele>
        <time>2020-08-10T12:05:13Z</time>
      </trkpt>
      <trkpt lat="39.432185" lon="-0.818108">
        <ele>523.117</ele>
        <time>2020-08-10T12:05:22Z</time>
      </trkpt>
      <trkpt lat="39.432278" lon="-0.818326">
        <ele>524.018</ele>
        <time>2020-08-10T12:05:31Z</time>
      </trkpt>
      <trkpt lat="39.432397" lon="-0.818530">
        <ele>523.559</ele>
        <time>2020-08-10T12:05:40Z</time>
      </trkpt>
      <trkpt lat="39.432505" lon="-0.818726">
        <ele>523.760</ele>
        <time>2020-08-10T12:05:49Z</time>
      </trkpt>
      <trkpt lat="39.432624" lon="-0.818926">
        <ele>525.875</ele>
        <time>2020-08-10T12:05:59Z</time>
      </trkpt>
      <trkpt lat="39.432751" lon="-0.819106">
        <ele>528.428</ele>
        <time>2020-08-10T12:06:08Z</time>
      </trkpt>
      <trkpt lat="39.432892" lon="-0.819287">
        <ele>529.920</ele>
        <time>2020-08-10T12:06:18Z</time>
      </trkpt>
      <trkpt lat="39.433025" lon="-0.819445">
        <ele>531.808</ele>
        <time>2020-08-10T12:06:27Z</time>
      </trkpt>
      <trkpt lat="39.433185" lon="-0.819594">
        <ele>533.982</ele>
        <time>2020-08-10T12:06:37Z</time>
      </trkpt>
      <trkpt lat="39.433346" lon="-0.819704">
        <ele>533.741</ele>
        <time>2020-08-10T12:06:46Z</time>
      </trkpt>
      <trkpt lat="39.433524" lon="-0.819812">
        <ele>538.136</ele>
        <time>2020-08-10T12:06:56Z</time>
      </trkpt>
      <trkpt lat="39.433721" lon="-0.819831">
        <ele>538.945</ele>
        <time>2020-08-10T12:07:06Z</time>
      </trkpt>
      <trkpt lat="39.433917" lon="-0.819805">
        <ele>540.315</ele>
        <time>2020-08-10T12:07:16Z</time>
      </trkpt>
      <trkpt lat="39.434105" lon="-0.819819">
        <ele>544.396</ele>
        <time>2020-08-10T12:07:25Z</time>
      </trkpt>
      <trkpt lat="39.434279" lon="-0.819881">
        <ele>547.087</ele>
        <time>2020-08-10T12:07:34Z</time>
      </trkpt>
      <trkpt lat="39.434458" lon="-0.819966">
        <ele>547.358</ele>
        <time>2020-08-10T12:07:42Z</time>
      </trkpt>
      <trkpt lat="39.434618" lon="-0.820093">
        <ele>547.992</ele>
        <time>2020-08-10T12:07:49Z</time>
      </trkpt>
      <trkpt lat="39.434771" lon="-0.820244">
        <ele>547.073</ele>
        <time>2020-08-10T12:07:55Z</time>
      </trkpt>
      <trkpt lat="39.434919" lon="-0.820378">
        <ele>544.920</ele>
        <time>2020-08-10T12:08:00Z</time>
      </trkpt>
      <trkpt lat="39.435089" lon="-0.820542">
        <ele>543.508</ele>
        <time>2020-08-10T12:08:05Z</time>
      </trkpt>
      <trkpt lat="39.435234" lon="-0.820680">
        <ele>542.824</ele>
        <time>2020-08-10T12:08:09Z</time>
      </trkpt>
      <trkpt lat="39.435396" lon="-0.820835">
        <ele>541.793</ele>
        <time>2020-08-10T12:08:13Z</time>
      </trkpt>
      <trkpt lat="39.435552" lon="-0.820964">
        <ele>541.158</ele>
        <time>2020-08-10T12:08:16Z</time>
      </trkpt>
      <trkpt lat="39.435742" lon="-0.821104">
        <ele>540.717</ele>
        <time>2020-08-10T12:08:19Z</time>
      </trkpt>
      <trkpt lat="39.435956" lon="-0.821222">
        <ele>540.567</ele>
        <time>2020-08-10T12:08:22Z</time>
      </trkpt>
      <trkpt lat="39.436186" lon="-0.821304">
        <ele>540.198</ele>
        <time>2020-08-10T12:08:25Z</time>
      </trkpt>
      <trkpt lat="39.436417" lon="-0.821357">
        <ele>540.599</ele>
        <time>2020-08-10T12:08:28Z</time>
      </trkpt>
      <trkpt lat="39.436640" lon="-0.821405">
        <ele>540.710</ele>
        <time>2020-08-10T12:08:31Z</time>
      </trkpt>
      <trkpt lat="39.436850" lon="-0.821444">
        <ele>541.478</ele>
        <time>2020-08-10T12:08:34Z</time>
      </trkpt>
      <trkpt lat="39.437051" lon="-0.821493">
        <ele>541.033</ele>
        <time>2020-08-10T12:08:37Z</time>
      </trkpt>
      <trkpt lat="39.437237" lon="-0.821562">
        <ele>539.826</ele>
        <time>2020-08-10T12:08:40Z</time>
      </trkpt>
      <trkpt lat="39.437417" lon="-0.821648">
        <ele>538.608</ele>
        <time>2020-08-10T12:08:43Z</time>
      </trkpt>
      <trkpt lat="39.437590" lon="-0.821769">
        <ele>538.472</ele>
        <time>2020-08-10T12:08:46Z</time>
      </trkpt>
      <trkpt lat="39.437749" lon="-0.821913">
        <ele>538.061</ele>
        <time>2020-08-10T12:08:49Z</time>
      </trkpt>
      <trkpt lat="39.437932" lon="-0.822094">
        <ele>538.056</ele>
        <time>2020-08-10T12:08:53Z</time>
      </trkpt>
      <trkpt lat="39.438098" lon="-0.822286">
        <ele>538.255</ele>
        <time>2020-08-10T12:08:57Z</time>
      </trkpt>
      <trkpt lat="39.438249" lon="-0.822476">
        <ele>538.855</ele>
        <time>2020-08-10T12:09:01Z</time>
      </trkpt>
      <trkpt lat="39.438393" lon="-0.822660">
        <ele>539.316</ele>
        <time>2020-08-10T12:09:05Z</time>
      </trkpt>
      <trkpt lat="39.438546" lon="-0.822843">
        <ele>539.517</ele>
        <time>2020-08-10T12:09:09Z</time>
      </trkpt>
      <trkpt lat="39.438695" lon="-0.823023">
        <ele>539.718</ele>
        <time>2020-08-10T12:09:13Z</time>
      </trkpt>
      <trkpt lat="39.438832" lon="-0.823191">
        <ele>540.263</ele>
        <time>2020-08-10T12:09:17Z</time>
      </trkpt>
      <trkpt lat="39.438967" lon="-0.823352">
        <ele>540.844</ele>
        <time>2020-08-10T12:09:21Z</time>
      </trkpt>
      <trkpt lat="39.439130" lon="-0.823549">
        <ele>540.818</ele>
        <time>2020-08-10T12:09:26Z</time>
      </trkpt>
      <trkpt lat="39.439279" lon="-0.823694">
        <ele>540.608</ele>
        <time>2020-08-10T12:09:30Z</time>
      </trkpt>
      <trkpt lat="39.439429" lon="-0.823824">
        <ele>540.461</ele>
        <time>2020-08-10T12:09:34Z</time>
      </trkpt>
      <trkpt lat="39.439602" lon="-0.823987">
        <ele>540.750</ele>
        <time>2020-08-10T12:09:39Z</time>
      </trkpt>
      <trkpt lat="39.439764" lon="-0.824144">
        <ele>541.595</ele>
        <time>2020-08-10T12:09:44Z</time>
      </trkpt>
      <trkpt lat="39.439910" lon="-0.824307">
        <ele>542.454</ele>
        <time>2020-08-10T12:09:49Z</time>
      </trkpt>
      <trkpt lat="39.440065" lon="-0.824461">
        <ele>543.184</ele>
        <time>2020-08-10T12:09:54Z</time>
      </trkpt>
      <trkpt lat="39.440203" lon="-0.824622">
        <ele>544.335</ele>
        <time>2020-08-10T12:09:59Z</time>
      </trkpt>
      <trkpt lat="39.440332" lon="-0.824787">
        <ele>546.836</ele>
        <time>2020-08-10T12:10:04Z</time>
      </trkpt>
      <trkpt lat="39.440486" lon="-0.824980">
        <ele>547.527</ele>
        <time>2020-08-10T12:10:10Z</time>
      </trkpt>
      <trkpt lat="39.440610" lon="-0.825156">
        <ele>546.861</ele>
        <time>2020-08-10T12:10:15Z</time>
      </trkpt>
      <trkpt lat="39.440735" lon="-0.825327">
        <ele>546.621</ele>
        <time>2020-08-10T12:10:20Z</time>
      </trkpt>
      <trkpt lat="39.440878" lon="-0.825527">
        <ele>547.713</ele>
        <time>2020-08-10T12:10:26Z</time>
      </trkpt>
      <trkpt lat="39.441013" lon="-0.825725">
        <ele>547.808</ele>
        <time>2020-08-10T12:10:32Z</time>
      </trkpt>
      <trkpt lat="39.441134" lon="-0.825927">
        <ele>548.221</ele>
        <time>2020-08-10T12:10:38Z</time>
      </trkpt>
      <trkpt lat="39.441255" lon="-0.826131">
        <ele>549.510</ele>
        <time>2020-08-10T12:10:44Z</time>
      </trkpt>
      <trkpt lat="39.441369" lon="-0.826342">
        <ele>550.685</ele>
        <time>2020-08-10T12:10:50Z</time>
      </trkpt>
      <trkpt lat="39.441486" lon="-0.826568">
        <ele>551.564</ele>
        <time>2020-08-10T12:10:56Z</time>
      </trkpt>
      <trkpt lat="39.441585" lon="-0.826776">
        <ele>551.774</ele>
        <time>2020-08-10T12:11:01Z</time>
      </trkpt>
      <trkpt lat="39.441688" lon="-0.827001">
        <ele>551.815</ele>
        <time>2020-08-10T12:11:06Z</time>
      </trkpt>
      <trkpt lat="39.441783" lon="-0.827222">
        <ele>552.556</ele>
        <time>2020-08-10T12:11:11Z</time>
      </trkpt>
      <trkpt lat="39.441885" lon="-0.827467">
        <ele>552.987</ele>
        <time>2020-08-10T12:11:16Z</time>
      </trkpt>
      <trkpt lat="39.441973" lon="-0.827690">
        <ele>552.652</ele>
        <time>2020-08-10T12:11:20Z</time>
      </trkpt>
      <trkpt lat="39.442067" lon="-0.827956">
        <ele>551.153</ele>
        <time>2020-08-10T12:11:24Z</time>
      </trkpt>
      <trkpt lat="39.442135" lon="-0.828175">
        <ele>550.008</ele>
        <time>2020-08-10T12:11:27Z</time>
      </trkpt>
      <trkpt lat="39.442202" lon="-0.828402">
        <ele>549.808</ele>
        <time>2020-08-10T12:11:30Z</time>
      </trkpt>
      <trkpt lat="39.442270" lon="-0.828653">
        <ele>549.790</ele>
        <time>2020-08-10T12:11:33Z</time>
      </trkpt>
      <trkpt lat="39.442345" lon="-0.828911">
        <ele>549.319</ele>
        <time>2020-08-10T12:11:36Z</time>
      </trkpt>
      <trkpt lat="39.442410" lon="-0.829199">
        <ele>549.344</ele>
        <time>2020-08-10T12:11:39Z</time>
      </trkpt>
      <trkpt lat="39.442466" lon="-0.829497">
        <ele>548.543</ele>
        <time>2020-08-10T12:11:42Z</time>
      </trkpt>
      <trkpt lat="39.442544" lon="-0.829801">
        <ele>547.673</ele>
        <time>2020-08-10T12:11:45Z</time>
      </trkpt>
      <trkpt lat="39.442605" lon="-0.830122">
        <ele>546.414</ele>
        <time>2020-08-10T12:11:48Z</time>
      </trkpt>
      <trkpt lat="39.442672" lon="-0.830459">
        <ele>545.215</ele>
        <time>2020-08-10T12:11:51Z</time>
      </trkpt>
      <trkpt lat="39.442738" lon="-0.830788">
        <ele>545.246</ele>
        <time>2020-08-10T12:11:54Z</time>
      </trkpt>
      <trkpt lat="39.442805" lon="-0.831126">
        <ele>544.942</ele>
        <time>2020-08-10T12:11:57Z</time>
      </trkpt>
      <trkpt lat="39.442865" lon="-0.831466">
        <ele>543.922</ele>
        <time>2020-08-10T12:12:00Z</time>
      </trkpt>
      <trkpt lat="39.442922" lon="-0.831695">
        <ele>543.114</ele>
        <time>2020-08-10T12:12:02Z</time>
      </trkpt>
      <trkpt lat="39.442992" lon="-0.831919">
        <ele>542.008</ele>
        <time>2020-08-10T12:12:04Z</time>
      </trkpt>
      <trkpt lat="39.443047" lon="-0.832144">
        <ele>541.419</ele>
        <time>2020-08-10T12:12:06Z</time>
      </trkpt>
      <trkpt lat="39.443116" lon="-0.832379">
        <ele>540.528</ele>
        <time>2020-08-10T12:12:08Z</time>
      </trkpt>
      <trkpt lat="39.443174" lon="-0.832604">
        <ele>539.943</ele>
        <time>2020-08-10T12:12:10Z</time>
      </trkpt>
      <trkpt lat="39.443235" lon="-0.832829">
        <ele>539.242</ele>
        <time>2020-08-10T12:12:12Z</time>
      </trkpt>
      <trkpt lat="39.443295" lon="-0.833049">
        <ele>539.062</ele>
        <time>2020-08-10T12:12:14Z</time>
      </trkpt>
      <trkpt lat="39.443388" lon="-0.833362">
        <ele>537.223</ele>
        <time>2020-08-10T12:12:17Z</time>
      </trkpt>
      <trkpt lat="39.443452" lon="-0.833581">
        <ele>537.634</ele>
        <time>2020-08-10T12:12:19Z</time>
      </trkpt>
      <trkpt lat="39.443553" lon="-0.833900">
        <ele>537.415</ele>
        <time>2020-08-10T12:12:22Z</time>
      </trkpt>
      <trkpt lat="39.443621" lon="-0.834122">
        <ele>536.193</ele>
        <time>2020-08-10T12:12:24Z</time>
      </trkpt>
      <trkpt lat="39.443686" lon="-0.834350">
        <ele>535.865</ele>
        <time>2020-08-10T12:12:26Z</time>
      </trkpt>
      <trkpt lat="39.443808" lon="-0.834659">
        <ele>534.721</ele>
        <time>2020-08-10T12:12:29Z</time>
      </trkpt>
      <trkpt lat="39.443891" lon="-0.834873">
        <ele>534.908</ele>
        <time>2020-08-10T12:12:31Z</time>
      </trkpt>
      <trkpt lat="39.444006" lon="-0.835173">
        <ele>536.894</ele>
        <time>2020-08-10T12:12:34Z</time>
      </trkpt>
      <trkpt lat="39.444099" lon="-0.835479">
        <ele>538.063</ele>
        <time>2020-08-10T12:12:37Z</time>
      </trkpt>
      <trkpt lat="39.444158" lon="-0.835772">
        <ele>537.158</ele>
        <time>2020-08-10T12:12:40Z</time>
      </trkpt>
      <trkpt lat="39.444196" lon="-0.836067">
        <ele>536.857</ele>
        <time>2020-08-10T12:12:43Z</time>
      </trkpt>
      <trkpt lat="39.444212" lon="-0.836374">
        <ele>537.797</ele>
        <time>2020-08-10T12:12:46Z</time>
      </trkpt>
      <trkpt lat="39.444220" lon="-0.836669">
        <ele>539.158</ele>
        <time>2020-08-10T12:12:49Z</time>
      </trkpt>
      <trkpt lat="39.444238" lon="-0.836938">
        <ele>540.199</ele>
        <time>2020-08-10T12:12:52Z</time>
      </trkpt>
      <trkpt lat="39.444275" lon="-0.837225">
        <ele>541.750</ele>
        <time>2020-08-10T12:12:56Z</time>
      </trkpt>
      <trkpt lat="39.444319" lon="-0.837465">
        <ele>543.482</ele>
        <time>2020-08-10T12:13:01Z</time>
      </trkpt>
      <trkpt lat="39.444377" lon="-0.837711">
        <ele>545.143</ele>
        <time>2020-08-10T12:13:08Z</time>
      </trkpt>
      <trkpt lat="39.444444" lon="-0.837935">
        <ele>546.217</ele>
        <time>2020-08-10T12:13:16Z</time>
      </trkpt>
      <trkpt lat="39.444520" lon="-0.838172">
        <ele>548.108</ele>
        <time>2020-08-10T12:13:25Z</time>
      </trkpt>
      <trkpt lat="39.444596" lon="-0.838401">
        <ele>549.893</ele>
        <time>2020-08-10T12:13:34Z</time>
      </trkpt>
      <trkpt lat="39.444697" lon="-0.838624">
        <ele>549.852</ele>
        <time>2020-08-10T12:13:43Z</time>
      </trkpt>
      <trkpt lat="39.444795" lon="-0.838841">
        <ele>552.287</ele>
        <time>2020-08-10T12:13:52Z</time>
      </trkpt>
      <trkpt lat="39.444903" lon="-0.839045">
        <ele>553.786</ele>
        <time>2020-08-10T12:14:01Z</time>
      </trkpt>
      <trkpt lat="39.445016" lon="-0.839244">
        <ele>554.546</ele>
        <time>2020-08-10T12:14:10Z</time>
      </trkpt>
      <trkpt lat="39.445116" lon="-0.839452">
        <ele>555.087</ele>
        <time>2020-08-10T12:14:19Z</time>
      </trkpt>
      <trkpt lat="39.445214" lon="-0.839666">
        <ele>557.728</ele>
        <time>2020-08-10T12:14:27Z</time>
      </trkpt>
      <trkpt lat="39.445296" lon="-0.839908">
        <ele>556.899</ele>
        <time>2020-08-10T12:14:35Z</time>
      </trkpt>
      <trkpt lat="39.445360" lon="-0.840139">
        <ele>558.345</ele>
        <time>2020-08-10T12:14:42Z</time>
      </trkpt>
      <trkpt lat="39.445441" lon="-0.840360">
        <ele>557.947</ele>
        <time>2020-08-10T12:14:48Z</time>
      </trkpt>
      <trkpt lat="39.445518" lon="-0.840623">
        <ele>559.211</ele>
        <time>2020-08-10T12:14:54Z</time>
      </trkpt>
      <trkpt lat="39.445606" lon="-0.840867">
        <ele>558.808</ele>
        <time>2020-08-10T12:14:59Z</time>
      </trkpt>
      <trkpt lat="39.445721" lon="-0.841094">
        <ele>558.119</ele>
        <time>2020-08-10T12:15:03Z</time>
      </trkpt>
      <trkpt lat="39.445823" lon="-0.841295">
        <ele>557.348</ele>
        <time>2020-08-10T12:15:06Z</time>
      </trkpt>
      <trkpt lat="39.445945" lon="-0.841498">
        <ele>556.513</ele>
        <time>2020-08-10T12:15:09Z</time>
      </trkpt>
      <trkpt lat="39.446078" lon="-0.841689">
        <ele>556.612</ele>
        <time>2020-08-10T12:15:12Z</time>
      </trkpt>
      <trkpt lat="39.446224" lon="-0.841857">
        <ele>556.822</ele>
        <time>2020-08-10T12:15:15Z</time>
      </trkpt>
      <trkpt lat="39.446370" lon="-0.842015">
        <ele>556.683</ele>
        <time>2020-08-10T12:15:18Z</time>
      </trkpt>
      <trkpt lat="39.446508" lon="-0.842192">
        <ele>556.564</ele>
        <time>2020-08-10T12:15:21Z</time>
      </trkpt>
      <trkpt lat="39.446622" lon="-0.842395">
        <ele>556.345</ele>
        <time>2020-08-10T12:15:24Z</time>
      </trkpt>
      <trkpt lat="39.446724" lon="-0.842609">
        <ele>556.295</ele>
        <time>2020-08-10T12:15:27Z</time>
      </trkpt>
      <trkpt lat="39.446828" lon="-0.842825">
        <ele>555.949</ele>
        <time>2020-08-10T12:15:30Z</time>
      </trkpt>
      <trkpt lat="39.446937" lon="-0.843044">
        <ele>556.623</ele>
        <time>2020-08-10T12:15:33Z</time>
      </trkpt>
      <trkpt lat="39.447059" lon="-0.843254">
        <ele>555.708</ele>
        <time>2020-08-10T12:15:36Z</time>
      </trkpt>
      <trkpt lat="39.447193" lon="-0.843462">
        <ele>554.864</ele>
        <time>2020-08-10T12:15:39Z</time>
      </trkpt>
      <trkpt lat="39.447326" lon="-0.843678">
        <ele>554.343</ele>
        <time>2020-08-10T12:15:42Z</time>
      </trkpt>
      <trkpt lat="39.447482" lon="-0.843905">
        <ele>553.238</ele>
        <time>2020-08-10T12:15:45Z</time>
      </trkpt>
      <trkpt lat="39.447640" lon="-0.844156">
        <ele>551.687</ele>
        <time>2020-08-10T12:15:48Z</time>
      </trkpt>
      <trkpt lat="39.447797" lon="-0.844432">
        <ele>550.437</ele>
        <time>2020-08-10T12:15:51Z</time>
      </trkpt>
      <trkpt lat="39.447951" lon="-0.844695">
        <ele>550.448</ele>
        <time>2020-08-10T12:15:54Z</time>
      </trkpt>
      <trkpt lat="39.448098" lon="-0.844947">
        <ele>551.069</ele>
        <time>2020-08-10T12:15:57Z</time>
      </trkpt>
      <trkpt lat="39.448223" lon="-0.845175">
        <ele>551.210</ele>
        <time>2020-08-10T12:16:00Z</time>
      </trkpt>
      <trkpt lat="39.448333" lon="-0.845392">
        <ele>552.163</ele>
        <time>2020-08-10T12:16:03Z</time>
      </trkpt>
      <trkpt lat="39.448432" lon="-0.845594">
        <ele>552.744</ele>
        <time>2020-08-10T12:16:06Z</time>
      </trkpt>
      <trkpt lat="39.448521" lon="-0.845797">
        <ele>554.218</ele>
        <time>2020-08-10T12:16:09Z</time>
      </trkpt>
      <trkpt lat="39.448635" lon="-0.846037">
        <ele>555.508</ele>
        <time>2020-08-10T12:16:13Z</time>
      </trkpt>
      <trkpt lat="39.448728" lon="-0.846274">
        <ele>555.651</ele>
        <time>2020-08-10T12:16:17Z</time>
      </trkpt>
      <trkpt lat="39.448793" lon="-0.846521">
        <ele>556.080</ele>
        <time>2020-08-10T12:16:21Z</time>
      </trkpt>
      <trkpt lat="39.448851" lon="-0.846754">
        <ele>557.035</ele>
        <time>2020-08-10T12:16:25Z</time>
      </trkpt>
      <trkpt lat="39.448909" lon="-0.846986">
        <ele>556.974</ele>
        <time>2020-08-10T12:16:29Z</time>
      </trkpt>
      <trkpt lat="39.448963" lon="-0.847226">
        <ele>556.814</ele>
        <time>2020-08-10T12:16:33Z</time>
      </trkpt>
      <trkpt lat="39.449014" lon="-0.847450">
        <ele>558.065</ele>
        <time>2020-08-10T12:16:37Z</time>
      </trkpt>
      <trkpt lat="39.449079" lon="-0.847699">
        <ele>558.916</ele>
        <time>2020-08-10T12:16:42Z</time>
      </trkpt>
      <trkpt lat="39.449143" lon="-0.847919">
        <ele>560.217</ele>
        <time>2020-08-10T12:16:47Z</time>
      </trkpt>
      <trkpt lat="39.449219" lon="-0.848158">
        <ele>561.955</ele>
        <time>2020-08-10T12:16:53Z</time>
      </trkpt>
      <trkpt lat="39.449297" lon="-0.848387">
        <ele>562.107</ele>
        <time>2020-08-10T12:16:59Z</time>
      </trkpt>
      <trkpt lat="39.449377" lon="-0.848640">
        <ele>563.317</ele>
        <time>2020-08-10T12:17:05Z</time>
      </trkpt>
      <trkpt lat="39.449459" lon="-0.848849">
        <ele>564.408</ele>
        <time>2020-08-10T12:17:10Z</time>
      </trkpt>
      <trkpt lat="39.449550" lon="-0.849084">
        <ele>564.680</ele>
        <time>2020-08-10T12:17:15Z</time>
      </trkpt>
      <trkpt lat="39.449633" lon="-0.849355">
        <ele>564.979</ele>
        <time>2020-08-10T12:17:20Z</time>
      </trkpt>
      <trkpt lat="39.449700" lon="-0.849623">
        <ele>563.864</ele>
        <time>2020-08-10T12:17:24Z</time>
      </trkpt>
      <trkpt lat="39.449754" lon="-0.849858">
        <ele>562.193</ele>
        <time>2020-08-10T12:17:27Z</time>
      </trkpt>
      <trkpt lat="39.449812" lon="-0.850127">
        <ele>561.193</ele>
        <time>2020-08-10T12:17:30Z</time>
      </trkpt>
      <trkpt lat="39.449859" lon="-0.850435">
        <ele>559.174</ele>
        <time>2020-08-10T12:17:33Z</time>
      </trkpt>
      <trkpt lat="39.449902" lon="-0.850772">
        <ele>556.665</ele>
        <time>2020-08-10T12:17:36Z</time>
      </trkpt>
      <trkpt lat="39.449933" lon="-0.851025">
        <ele>556.186</ele>
        <time>2020-08-10T12:17:38Z</time>
      </trkpt>
      <trkpt lat="39.449956" lon="-0.851295">
        <ele>556.096</ele>
        <time>2020-08-10T12:17:40Z</time>
      </trkpt>
      <trkpt lat="39.449996" lon="-0.851568">
        <ele>553.731</ele>
        <time>2020-08-10T12:17:42Z</time>
      </trkpt>
      <trkpt lat="39.450039" lon="-0.851853">
        <ele>552.324</ele>
        <time>2020-08-10T12:17:44Z</time>
      </trkpt>
      <trkpt lat="39.450109" lon="-0.852131">
        <ele>551.508</ele>
        <time>2020-08-10T12:17:46Z</time>
      </trkpt>
      <trkpt lat="39.450177" lon="-0.852416">
        <ele>550.614</ele>
        <time>2020-08-10T12:17:48Z</time>
      </trkpt>
      <trkpt lat="39.450259" lon="-0.852704">
        <ele>548.743</ele>
        <time>2020-08-10T12:17:50Z</time>
      </trkpt>
      <trkpt lat="39.450370" lon="-0.852987">
        <ele>547.138</ele>
        <time>2020-08-10T12:17:52Z</time>
      </trkpt>
      <trkpt lat="39.450505" lon="-0.853271">
        <ele>544.217</ele>
        <time>2020-08-10T12:17:54Z</time>
      </trkpt>
      <trkpt lat="39.450650" lon="-0.853550">
        <ele>543.117</ele>
        <time>2020-08-10T12:17:56Z</time>
      </trkpt>
      <trkpt lat="39.450805" lon="-0.853807">
        <ele>542.418</ele>
        <time>2020-08-10T12:17:58Z</time>
      </trkpt>
      <trkpt lat="39.450988" lon="-0.854065">
        <ele>540.619</ele>
        <time>2020-08-10T12:18:00Z</time>
      </trkpt>
      <trkpt lat="39.451170" lon="-0.854333">
        <ele>538.550</ele>
        <time>2020-08-10T12:18:02Z</time>
      </trkpt>
      <trkpt lat="39.451342" lon="-0.854594">
        <ele>536.699</ele>
        <time>2020-08-10T12:18:04Z</time>
      </trkpt>
      <trkpt lat="39.451527" lon="-0.854866">
        <ele>535.607</ele>
        <time>2020-08-10T12:18:06Z</time>
      </trkpt>
      <trkpt lat="39.451715" lon="-0.855129">
        <ele>534.527</ele>
        <time>2020-08-10T12:18:08Z</time>
      </trkpt>
      <trkpt lat="39.451903" lon="-0.855393">
        <ele>533.008</ele>
        <time>2020-08-10T12:18:10Z</time>
      </trkpt>
      <trkpt lat="39.452085" lon="-0.855654">
        <ele>531.084</ele>
        <time>2020-08-10T12:18:12Z</time>
      </trkpt>
      <trkpt lat="39.452265" lon="-0.855916">
        <ele>530.373</ele>
        <time>2020-08-10T12:18:14Z</time>
      </trkpt>
      <trkpt lat="39.452450" lon="-0.856171">
        <ele>528.588</ele>
        <time>2020-08-10T12:18:16Z</time>
      </trkpt>
      <trkpt lat="39.452613" lon="-0.856427">
        <ele>527.017</ele>
        <time>2020-08-10T12:18:18Z</time>
      </trkpt>
      <trkpt lat="39.452768" lon="-0.856689">
        <ele>526.327</ele>
        <time>2020-08-10T12:18:20Z</time>
      </trkpt>
      <trkpt lat="39.452906" lon="-0.856945">
        <ele>525.378</ele>
        <time>2020-08-10T12:18:22Z</time>
      </trkpt>
      <trkpt lat="39.453035" lon="-0.857228">
        <ele>526.049</ele>
        <time>2020-08-10T12:18:24Z</time>
      </trkpt>
      <trkpt lat="39.453133" lon="-0.857493">
        <ele>525.750</ele>
        <time>2020-08-10T12:18:26Z</time>
      </trkpt>
      <trkpt lat="39.453214" lon="-0.857754">
        <ele>525.599</ele>
        <time>2020-08-10T12:18:28Z</time>
      </trkpt>
      <trkpt lat="39.453290" lon="-0.858029">
        <ele>525.207</ele>
        <time>2020-08-10T12:18:30Z</time>
      </trkpt>
      <trkpt lat="39.453349" lon="-0.858301">
        <ele>525.427</ele>
        <time>2020-08-10T12:18:32Z</time>
      </trkpt>
      <trkpt lat="39.453392" lon="-0.858571">
        <ele>524.808</ele>
        <time>2020-08-10T12:18:34Z</time>
      </trkpt>
      <trkpt lat="39.453418" lon="-0.858852">
        <ele>524.494</ele>
        <time>2020-08-10T12:18:36Z</time>
      </trkpt>
      <trkpt lat="39.453442" lon="-0.859128">
        <ele>524.563</ele>
        <time>2020-08-10T12:18:38Z</time>
      </trkpt>
      <trkpt lat="39.453467" lon="-0.859397">
        <ele>524.948</ele>
        <time>2020-08-10T12:18:40Z</time>
      </trkpt>
      <trkpt lat="39.453496" lon="-0.859668">
        <ele>526.297</ele>
        <time>2020-08-10T12:18:42Z</time>
      </trkpt>
      <trkpt lat="39.453542" lon="-0.859924">
        <ele>526.747</ele>
        <time>2020-08-10T12:18:44Z</time>
      </trkpt>
      <trkpt lat="39.453596" lon="-0.860169">
        <ele>527.038</ele>
        <time>2020-08-10T12:18:46Z</time>
      </trkpt>
      <trkpt lat="39.453664" lon="-0.860398">
        <ele>526.819</ele>
        <time>2020-08-10T12:18:48Z</time>
      </trkpt>
      <trkpt lat="39.453747" lon="-0.860616">
        <ele>527.290</ele>
        <time>2020-08-10T12:18:50Z</time>
      </trkpt>
      <trkpt lat="39.453826" lon="-0.860842">
        <ele>526.218</ele>
        <time>2020-08-10T12:18:52Z</time>
      </trkpt>
      <trkpt lat="39.453908" lon="-0.861050">
        <ele>524.898</ele>
        <time>2020-08-10T12:18:54Z</time>
      </trkpt>
      <trkpt lat="39.454021" lon="-0.861362">
        <ele>524.217</ele>
        <time>2020-08-10T12:18:57Z</time>
      </trkpt>
      <trkpt lat="39.454131" lon="-0.861675">
        <ele>524.408</ele>
        <time>2020-08-10T12:19:00Z</time>
      </trkpt>
      <trkpt lat="39.454248" lon="-0.861862">
        <ele>523.736</ele>
        <time>2020-08-10T12:19:02Z</time>
      </trkpt>
      <trkpt lat="39.454388" lon="-0.862030">
        <ele>523.315</ele>
        <time>2020-08-10T12:19:04Z</time>
      </trkpt>
      <trkpt lat="39.454592" lon="-0.862225">
        <ele>524.240</ele>
        <time>2020-08-10T12:19:07Z</time>
      </trkpt>
      <trkpt lat="39.454812" lon="-0.862413">
        <ele>524.679</ele>
        <time>2020-08-10T12:19:10Z</time>
      </trkpt>
      <trkpt lat="39.455026" lon="-0.862613">
        <ele>524.929</ele>
        <time>2020-08-10T12:19:13Z</time>
      </trkpt>
      <trkpt lat="39.455229" lon="-0.862799">
        <ele>524.130</ele>
        <time>2020-08-10T12:19:16Z</time>
      </trkpt>
      <trkpt lat="39.455418" lon="-0.862980">
        <ele>524.241</ele>
        <time>2020-08-10T12:19:19Z</time>
      </trkpt>
      <trkpt lat="39.455557" lon="-0.863190">
        <ele>524.672</ele>
        <time>2020-08-10T12:19:22Z</time>
      </trkpt>
      <trkpt lat="39.455665" lon="-0.863406">
        <ele>525.866</ele>
        <time>2020-08-10T12:19:25Z</time>
      </trkpt>
      <trkpt lat="39.455754" lon="-0.863688">
        <ele>526.329</ele>
        <time>2020-08-10T12:19:29Z</time>
      </trkpt>
      <trkpt lat="39.455811" lon="-0.863988">
        <ele>527.021</ele>
        <time>2020-08-10T12:19:33Z</time>
      </trkpt>
      <trkpt lat="39.455844" lon="-0.864281">
        <ele>528.208</ele>
        <time>2020-08-10T12:19:37Z</time>
      </trkpt>
      <trkpt lat="39.455868" lon="-0.864558">
        <ele>528.421</ele>
        <time>2020-08-10T12:19:41Z</time>
      </trkpt>
      <trkpt lat="39.455876" lon="-0.864846">
        <ele>529.330</ele>
        <time>2020-08-10T12:19:45Z</time>
      </trkpt>
      <trkpt lat="39.455855" lon="-0.865125">
        <ele>529.365</ele>
        <time>2020-08-10T12:19:49Z</time>
      </trkpt>
      <trkpt lat="39.455797" lon="-0.865393">
        <ele>529.194</ele>
        <time>2020-08-10T12:19:53Z</time>
      </trkpt>
      <trkpt lat="39.455716" lon="-0.865631">
        <ele>528.964</ele>
        <time>2020-08-10T12:19:57Z</time>
      </trkpt>
      <trkpt lat="39.455595" lon="-0.865851">
        <ele>529.215</ele>
        <time>2020-08-10T12:20:01Z</time>
      </trkpt>
      <trkpt lat="39.455431" lon="-0.866027">
        <ele>529.126</ele>
        <time>2020-08-10T12:20:05Z</time>
      </trkpt>
      <trkpt lat="39.455253" lon="-0.866163">
        <ele>529.597</ele>
        <time>2020-08-10T12:20:09Z</time>
      </trkpt>
      <trkpt lat="39.455063" lon="-0.866268">
        <ele>529.754</ele>
        <time>2020-08-10T12:20:13Z</time>
      </trkpt>
      <trkpt lat="39.454873" lon="-0.866353">
        <ele>530.056</ele>
        <time>2020-08-10T12:20:17Z</time>
      </trkpt>
      <trkpt lat="39.454699" lon="-0.866433">
        <ele>530.311</ele>
        <time>2020-08-10T12:20:21Z</time>
      </trkpt>
      <trkpt lat="39.454507" lon="-0.866515">
        <ele>531.708</ele>
        <time>2020-08-10T12:20:26Z</time>
      </trkpt>
      <trkpt lat="39.454308" lon="-0.866598">
        <ele>533.460</ele>
        <time>2020-08-10T12:20:32Z</time>
      </trkpt>
      <trkpt lat="39.454126" lon="-0.866729">
        <ele>533.729</ele>
        <time>2020-08-10T12:20:39Z</time>
      </trkpt>
      <trkpt lat="39.453942" lon="-0.866794">
        <ele>533.284</ele>
        <time>2020-08-10T12:20:44Z</time>
      </trkpt>
      <trkpt lat="39.453753" lon="-0.866834">
        <ele>533.573</ele>
        <time>2020-08-10T12:20:49Z</time>
      </trkpt>
      <trkpt lat="39.453559" lon="-0.866908">
        <ele>534.113</ele>
        <time>2020-08-10T12:20:54Z</time>
      </trkpt>
      <trkpt lat="39.453374" lon="-0.866986">
        <ele>534.184</ele>
        <time>2020-08-10T12:20:59Z</time>
      </trkpt>
      <trkpt lat="39.453195" lon="-0.867067">
        <ele>535.895</ele>
        <time>2020-08-10T12:21:04Z</time>
      </trkpt>
      <trkpt lat="39.453014" lon="-0.867186">
        <ele>535.956</ele>
        <time>2020-08-10T12:21:09Z</time>
      </trkpt>
      <trkpt lat="39.452868" lon="-0.867395">
        <ele>535.977</ele>
        <time>2020-08-10T12:21:14Z</time>
      </trkpt>
      <trkpt lat="39.452801" lon="-0.867640">
        <ele>535.461</ele>
        <time>2020-08-10T12:21:18Z</time>
      </trkpt>
      <trkpt lat="39.452782" lon="-0.867920">
        <ele>535.427</ele>
        <time>2020-08-10T12:21:22Z</time>
      </trkpt>
      <trkpt lat="39.452835" lon="-0.868188">
        <ele>535.408</ele>
        <time>2020-08-10T12:21:26Z</time>
      </trkpt>
      <trkpt lat="39.452942" lon="-0.868443">
        <ele>535.922</ele>
        <time>2020-08-10T12:21:30Z</time>
      </trkpt>
      <trkpt lat="39.453052" lon="-0.868701">
        <ele>535.831</ele>
        <time>2020-08-10T12:21:34Z</time>
      </trkpt>
      <trkpt lat="39.453167" lon="-0.868940">
        <ele>536.166</ele>
        <time>2020-08-10T12:21:38Z</time>
      </trkpt>
      <trkpt lat="39.453278" lon="-0.869157">
        <ele>535.715</ele>
        <time>2020-08-10T12:21:42Z</time>
      </trkpt>
      <trkpt lat="39.453375" lon="-0.869362">
        <ele>535.515</ele>
        <time>2020-08-10T12:21:46Z</time>
      </trkpt>
      <trkpt lat="39.453468" lon="-0.869565">
        <ele>536.376</ele>
        <time>2020-08-10T12:21:50Z</time>
      </trkpt>
      <trkpt lat="39.453556" lon="-0.869773">
        <ele>537.677</ele>
        <time>2020-08-10T12:21:54Z</time>
      </trkpt>
      <trkpt lat="39.453638" lon="-0.869981">
        <ele>537.978</ele>
        <time>2020-08-10T12:21:58Z</time>
      </trkpt>
      <trkpt lat="39.453744" lon="-0.870230">
        <ele>538.478</ele>
        <time>2020-08-10T12:22:03Z</time>
      </trkpt>
      <trkpt lat="39.453880" lon="-0.870441">
        <ele>538.233</ele>
        <time>2020-08-10T12:22:08Z</time>
      </trkpt>
      <trkpt lat="39.454024" lon="-0.870586">
        <ele>538.326</ele>
        <time>2020-08-10T12:22:12Z</time>
      </trkpt>
      <trkpt lat="39.454169" lon="-0.870731">
        <ele>538.108</ele>
        <time>2020-08-10T12:22:16Z</time>
      </trkpt>
      <trkpt lat="39.454317" lon="-0.870880">
        <ele>538.232</ele>
        <time>2020-08-10T12:22:20Z</time>
      </trkpt>
      <trkpt lat="39.454466" lon="-0.871020">
        <ele>538.511</ele>
        <time>2020-08-10T12:22:24Z</time>
      </trkpt>
      <trkpt lat="39.454617" lon="-0.871155">
        <ele>539.786</ele>
        <time>2020-08-10T12:22:28Z</time>
      </trkpt>
      <trkpt lat="39.454798" lon="-0.871268">
        <ele>540.125</ele>
        <time>2020-08-10T12:22:32Z</time>
      </trkpt>
      <trkpt lat="39.454998" lon="-0.871341">
        <ele>540.825</ele>
        <time>2020-08-10T12:22:36Z</time>
      </trkpt>
      <trkpt lat="39.455204" lon="-0.871412">
        <ele>541.456</ele>
        <time>2020-08-10T12:22:40Z</time>
      </trkpt>
      <trkpt lat="39.455413" lon="-0.871481">
        <ele>541.157</ele>
        <time>2020-08-10T12:22:44Z</time>
      </trkpt>
      <trkpt lat="39.455614" lon="-0.871539">
        <ele>541.358</ele>
        <time>2020-08-10T12:22:48Z</time>
      </trkpt>
      <trkpt lat="39.455804" lon="-0.871601">
        <ele>541.645</ele>
        <time>2020-08-10T12:22:52Z</time>
      </trkpt>
      <trkpt lat="39.455991" lon="-0.871694">
        <ele>542.647</ele>
        <time>2020-08-10T12:22:56Z</time>
      </trkpt>
      <trkpt lat="39.456166" lon="-0.871822">
        <ele>544.111</ele>
        <time>2020-08-10T12:23:00Z</time>
      </trkpt>
      <trkpt lat="39.456330" lon="-0.871966">
        <ele>546.808</ele>
        <time>2020-08-10T12:23:04Z</time>
      </trkpt>
      <trkpt lat="39.456501" lon="-0.872122">
        <ele>545.179</ele>
        <time>2020-08-10T12:23:08Z</time>
      </trkpt>
      <trkpt lat="39.456654" lon="-0.872302">
        <ele>544.028</ele>
        <time>2020-08-10T12:23:12Z</time>
      </trkpt>
      <trkpt lat="39.456780" lon="-0.872513">
        <ele>544.763</ele>
        <time>2020-08-10T12:23:16Z</time>
      </trkpt>
      <trkpt lat="39.456866" lon="-0.872759">
        <ele>546.762</ele>
        <time>2020-08-10T12:23:20Z</time>
      </trkpt>
      <trkpt lat="39.456941" lon="-0.873013">
        <ele>547.132</ele>
        <time>2020-08-10T12:23:24Z</time>
      </trkpt>
      <trkpt lat="39.457007" lon="-0.873246">
        <ele>547.363</ele>
        <time>2020-08-10T12:23:28Z</time>
      </trkpt>
      <trkpt lat="39.457048" lon="-0.873526">
        <ele>548.394</ele>
        <time>2020-08-10T12:23:33Z</time>
      </trkpt>
      <trkpt lat="39.457046" lon="-0.873783">
        <ele>548.985</ele>
        <time>2020-08-10T12:23:38Z</time>
      </trkpt>
      <trkpt lat="39.457003" lon="-0.874042">
        <ele>549.814</ele>
        <time>2020-08-10T12:23:43Z</time>
      </trkpt>
      <trkpt lat="39.456924" lon="-0.874305">
        <ele>549.754</ele>
        <time>2020-08-10T12:23:48Z</time>
      </trkpt>
      <trkpt lat="39.456862" lon="-0.874570">
        <ele>551.309</ele>
        <time>2020-08-10T12:23:53Z</time>
      </trkpt>
      <trkpt lat="39.456787" lon="-0.874841">
        <ele>551.908</ele>
        <time>2020-08-10T12:23:58Z</time>
      </trkpt>
      <trkpt lat="39.456731" lon="-0.875109">
        <ele>551.056</ele>
        <time>2020-08-10T12:24:03Z</time>
      </trkpt>
      <trkpt lat="39.456672" lon="-0.875374">
        <ele>549.555</ele>
        <time>2020-08-10T12:24:08Z</time>
      </trkpt>
      <trkpt lat="39.456594" lon="-0.875641">
        <ele>549.190</ele>
        <time>2020-08-10T12:24:13Z</time>
      </trkpt>
      <trkpt lat="39.456516" lon="-0.875902">
        <ele>549.249</ele>
        <time>2020-08-10T12:24:18Z</time>
      </trkpt>
      <trkpt lat="39.456467" lon="-0.876152">
        <ele>549.919</ele>
        <time>2020-08-10T12:24:23Z</time>
      </trkpt>
      <trkpt lat="39.456463" lon="-0.876412">
        <ele>551.850</ele>
        <time>2020-08-10T12:24:28Z</time>
      </trkpt>
      <trkpt lat="39.456511" lon="-0.876647">
        <ele>553.391</ele>
        <time>2020-08-10T12:24:33Z</time>
      </trkpt>
      <trkpt lat="39.456603" lon="-0.876853">
        <ele>552.612</ele>
        <time>2020-08-10T12:24:38Z</time>
      </trkpt>
      <trkpt lat="39.456693" lon="-0.877059">
        <ele>552.354</ele>
        <time>2020-08-10T12:24:43Z</time>
      </trkpt>
      <trkpt lat="39.456782" lon="-0.877298">
        <ele>553.656</ele>
        <time>2020-08-10T12:24:49Z</time>
      </trkpt>
      <trkpt lat="39.456849" lon="-0.877542">
        <ele>555.311</ele>
        <time>2020-08-10T12:24:55Z</time>
      </trkpt>
      <trkpt lat="39.456898" lon="-0.877796">
        <ele>555.308</ele>
        <time>2020-08-10T12:25:01Z</time>
      </trkpt>
      <trkpt lat="39.456908" lon="-0.878034">
        <ele>554.780</ele>
        <time>2020-08-10T12:25:06Z</time>
      </trkpt>
      <trkpt lat="39.456897" lon="-0.878283">
        <ele>554.879</ele>
        <time>2020-08-10T12:25:11Z</time>
      </trkpt>
      <trkpt lat="39.456870" lon="-0.878548">
        <ele>555.524</ele>
        <time>2020-08-10T12:25:16Z</time>
      </trkpt>
      <trkpt lat="39.456845" lon="-0.878818">
        <ele>556.993</ele>
        <time>2020-08-10T12:25:21Z</time>
      </trkpt>
      <trkpt lat="39.456816" lon="-0.879092">
        <ele>558.273</ele>
        <time>2020-08-10T12:25:26Z</time>
      </trkpt>
      <trkpt lat="39.456784" lon="-0.879329">
        <ele>558.374</ele>
        <time>2020-08-10T12:25:30Z</time>
      </trkpt>
      <trkpt lat="39.456758" lon="-0.879602">
        <ele>557.485</ele>
        <time>2020-08-10T12:25:34Z</time>
      </trkpt>
      <trkpt lat="39.456739" lon="-0.879834">
        <ele>556.566</ele>
        <time>2020-08-10T12:25:37Z</time>
      </trkpt>
      <trkpt lat="39.456733" lon="-0.880080">
        <ele>555.857</ele>
        <time>2020-08-10T12:25:40Z</time>
      </trkpt>
      <trkpt lat="39.456745" lon="-0.880332">
        <ele>554.800</ele>
        <time>2020-08-10T12:25:43Z</time>
      </trkpt>
      <trkpt lat="39.456764" lon="-0.880588">
        <ele>553.620</ele>
        <time>2020-08-10T12:25:46Z</time>
      </trkpt>
      <trkpt lat="39.456786" lon="-0.880848">
        <ele>554.208</ele>
        <time>2020-08-10T12:25:49Z</time>
      </trkpt>
      <trkpt lat="39.456816" lon="-0.881109">
        <ele>554.610</ele>
        <time>2020-08-10T12:25:52Z</time>
      </trkpt>
      <trkpt lat="39.456846" lon="-0.881375">
        <ele>554.859</ele>
        <time>2020-08-10T12:25:55Z</time>
      </trkpt>
      <trkpt lat="39.456877" lon="-0.881636">
        <ele>554.714</ele>
        <time>2020-08-10T12:25:58Z</time>
      </trkpt>
      <trkpt lat="39.456910" lon="-0.881902">
        <ele>554.473</ele>
        <time>2020-08-10T12:26:01Z</time>
      </trkpt>
      <trkpt lat="39.456951" lon="-0.882168">
        <ele>553.783</ele>
        <time>2020-08-10T12:26:04Z</time>
      </trkpt>
      <trkpt lat="39.456988" lon="-0.882424">
        <ele>553.354</ele>
        <time>2020-08-10T12:26:07Z</time>
      </trkpt>
      <trkpt lat="39.457019" lon="-0.882682">
        <ele>553.875</ele>
        <time>2020-08-10T12:26:10Z</time>
      </trkpt>
      <trkpt lat="39.457045" lon="-0.882938">
        <ele>553.826</ele>
        <time>2020-08-10T12:26:13Z</time>
      </trkpt>
      <trkpt lat="39.457075" lon="-0.883181">
        <ele>553.285</ele>
        <time>2020-08-10T12:26:16Z</time>
      </trkpt>
      <trkpt lat="39.457103" lon="-0.883418">
        <ele>552.989</ele>
        <time>2020-08-10T12:26:19Z</time>
      </trkpt>
      <trkpt lat="39.457132" lon="-0.883655">
        <ele>552.917</ele>
        <time>2020-08-10T12:26:22Z</time>
      </trkpt>
      <trkpt lat="39.457151" lon="-0.883893">
        <ele>552.808</ele>
        <time>2020-08-10T12:26:25Z</time>
      </trkpt>
      <trkpt lat="39.457176" lon="-0.884126">
        <ele>553.373</ele>
        <time>2020-08-10T12:26:28Z</time>
      </trkpt>
      <trkpt lat="39.457212" lon="-0.884430">
        <ele>553.882</ele>
        <time>2020-08-10T12:26:32Z</time>
      </trkpt>
      <trkpt lat="39.457243" lon="-0.884731">
        <ele>553.947</ele>
        <time>2020-08-10T12:26:36Z</time>
      </trkpt>
      <trkpt lat="39.457276" lon="-0.885027">
        <ele>554.536</ele>
        <time>2020-08-10T12:26:40Z</time>
      </trkpt>
      <trkpt lat="39.457303" lon="-0.885321">
        <ele>556.356</ele>
        <time>2020-08-10T12:26:44Z</time>
      </trkpt>
      <trkpt lat="39.457327" lon="-0.885593">
        <ele>557.397</ele>
        <time>2020-08-10T12:26:48Z</time>
      </trkpt>
      <trkpt lat="39.457333" lon="-0.885843">
        <ele>559.038</ele>
        <time>2020-08-10T12:26:52Z</time>
      </trkpt>
      <trkpt lat="39.457314" lon="-0.886076">
        <ele>560.779</ele>
        <time>2020-08-10T12:26:56Z</time>
      </trkpt>
      <trkpt lat="39.457273" lon="-0.886322">
        <ele>560.841</ele>
        <time>2020-08-10T12:27:00Z</time>
      </trkpt>
      <trkpt lat="39.457204" lon="-0.886578">
        <ele>560.081</ele>
        <time>2020-08-10T12:27:04Z</time>
      </trkpt>
      <trkpt lat="39.457105" lon="-0.886809">
        <ele>558.809</ele>
        <time>2020-08-10T12:27:08Z</time>
      </trkpt>
      <trkpt lat="39.456969" lon="-0.887018">
        <ele>557.908</ele>
        <time>2020-08-10T12:27:12Z</time>
      </trkpt>
      <trkpt lat="39.456809" lon="-0.887221">
        <ele>557.679</ele>
        <time>2020-08-10T12:27:16Z</time>
      </trkpt>
      <trkpt lat="39.456654" lon="-0.887425">
        <ele>557.058</ele>
        <time>2020-08-10T12:27:20Z</time>
      </trkpt>
      <trkpt lat="39.456487" lon="-0.887617">
        <ele>557.883</ele>
        <time>2020-08-10T12:27:24Z</time>
      </trkpt>
      <trkpt lat="39.456346" lon="-0.887802">
        <ele>558.762</ele>
        <time>2020-08-10T12:27:28Z</time>
      </trkpt>
      <trkpt lat="39.456244" lon="-0.887997">
        <ele>559.482</ele>
        <time>2020-08-10T12:27:32Z</time>
      </trkpt>
      <trkpt lat="39.456161" lon="-0.888238">
        <ele>559.763</ele>
        <time>2020-08-10T12:27:37Z</time>
      </trkpt>
      <trkpt lat="39.456151" lon="-0.888473">
        <ele>560.284</ele>
        <time>2020-08-10T12:27:42Z</time>
      </trkpt>
      <trkpt lat="39.456182" lon="-0.888702">
        <ele>562.155</ele>
        <time>2020-08-10T12:27:47Z</time>
      </trkpt>
      <trkpt lat="39.456281" lon="-0.888934">
        <ele>563.354</ele>
        <time>2020-08-10T12:27:52Z</time>
      </trkpt>
      <trkpt lat="39.456438" lon="-0.889137">
        <ele>562.856</ele>
        <time>2020-08-10T12:27:57Z</time>
      </trkpt>
      <trkpt lat="39.456591" lon="-0.889276">
        <ele>561.711</ele>
        <time>2020-08-10T12:28:01Z</time>
      </trkpt>
      <trkpt lat="39.456750" lon="-0.889411">
        <ele>561.308</ele>
        <time>2020-08-10T12:28:05Z</time>
      </trkpt>
      <trkpt lat="39.456914" lon="-0.889530">
        <ele>560.510</ele>
        <time>2020-08-10T12:28:09Z</time>
      </trkpt>
      <trkpt lat="39.457096" lon="-0.889689">
        <ele>560.829</ele>
        <time>2020-08-10T12:28:14Z</time>
      </trkpt>
      <trkpt lat="39.457234" lon="-0.889916">
        <ele>562.984</ele>
        <time>2020-08-10T12:28:19Z</time>
      </trkpt>
      <trkpt lat="39.457305" lon="-0.890136">
        <ele>564.533</ele>
        <time>2020-08-10T12:28:23Z</time>
      </trkpt>
      <trkpt lat="39.457350" lon="-0.890375">
        <ele>564.633</ele>
        <time>2020-08-10T12:28:27Z</time>
      </trkpt>
      <trkpt lat="39.457386" lon="-0.890630">
        <ele>564.524</ele>
        <time>2020-08-10T12:28:31Z</time>
      </trkpt>
      <trkpt lat="39.457412" lon="-0.890872">
        <ele>565.285</ele>
        <time>2020-08-10T12:28:35Z</time>
      </trkpt>
      <trkpt lat="39.457408" lon="-0.891108">
        <ele>566.036</ele>
        <time>2020-08-10T12:28:39Z</time>
      </trkpt>
      <trkpt lat="39.457369" lon="-0.891352">
        <ele>566.055</ele>
        <time>2020-08-10T12:28:43Z</time>
      </trkpt>
      <trkpt lat="39.457326" lon="-0.891605">
        <ele>565.707</ele>
        <time>2020-08-10T12:28:47Z</time>
      </trkpt>
      <trkpt lat="39.457270" lon="-0.891865">
        <ele>565.417</ele>
        <time>2020-08-10T12:28:51Z</time>
      </trkpt>
      <trkpt lat="39.457220" lon="-0.892118">
        <ele>565.408</ele>
        <time>2020-08-10T12:28:55Z</time>
      </trkpt>
      <trkpt lat="39.457176" lon="-0.892359">
        <ele>565.660</ele>
        <time>2020-08-10T12:28:59Z</time>
      </trkpt>
      <trkpt lat="39.457127" lon="-0.892639">
        <ele>565.969</ele>
        <time>2020-08-10T12:29:04Z</time>
      </trkpt>
      <trkpt lat="39.457068" lon="-0.892919">
        <ele>565.854</ele>
        <time>2020-08-10T12:29:09Z</time>
      </trkpt>
      <trkpt lat="39.457010" lon="-0.893199">
        <ele>566.213</ele>
        <time>2020-08-10T12:29:14Z</time>
      </trkpt>
      <trkpt lat="39.456959" lon="-0.893425">
        <ele>566.613</ele>
        <time>2020-08-10T12:29:18Z</time>
      </trkpt>
      <trkpt lat="39.456909" lon="-0.893649">
        <ele>567.654</ele>
        <time>2020-08-10T12:29:22Z</time>
      </trkpt>
      <trkpt lat="39.456853" lon="-0.893921">
        <ele>568.535</ele>
        <time>2020-08-10T12:29:27Z</time>
      </trkpt>
      <trkpt lat="39.456813" lon="-0.894157">
        <ele>569.676</ele>
        <time>2020-08-10T12:29:32Z</time>
      </trkpt>
      <trkpt lat="39.456765" lon="-0.894401">
        <ele>570.915</ele>
        <time>2020-08-10T12:29:38Z</time>
      </trkpt>
      <trkpt lat="39.456716" lon="-0.894626">
        <ele>571.865</ele>
        <time>2020-08-10T12:29:44Z</time>
      </trkpt>
      <trkpt lat="39.456658" lon="-0.894881">
        <ele>574.211</ele>
        <time>2020-08-10T12:29:51Z</time>
      </trkpt>
      <trkpt lat="39.456617" lon="-0.895140">
        <ele>575.108</ele>
        <time>2020-08-10T12:29:58Z</time>
      </trkpt>
      <trkpt lat="39.456572" lon="-0.895394">
        <ele>574.926</ele>
        <time>2020-08-10T12:30:05Z</time>
      </trkpt>
      <trkpt lat="39.456530" lon="-0.895625">
        <ele>575.525</ele>
        <time>2020-08-10T12:30:11Z</time>
      </trkpt>
      <trkpt lat="39.456490" lon="-0.895887">
        <ele>577.230</ele>
        <time>2020-08-10T12:30:18Z</time>
      </trkpt>
      <trkpt lat="39.456461" lon="-0.896145">
        <ele>579.249</ele>
        <time>2020-08-10T12:30:25Z</time>
      </trkpt>
      <trkpt lat="39.456419" lon="-0.896403">
        <ele>580.559</ele>
        <time>2020-08-10T12:30:32Z</time>
      </trkpt>
      <trkpt lat="39.456380" lon="-0.896662">
        <ele>581.440</ele>
        <time>2020-08-10T12:30:39Z</time>
      </trkpt>
      <trkpt lat="39.456349" lon="-0.896911">
        <ele>580.941</ele>
        <time>2020-08-10T12:30:45Z</time>
      </trkpt>
      <trkpt lat="39.456507" lon="-0.897111">
        <ele>579.242</ele>
        <time>2020-08-10T12:30:51Z</time>
      </trkpt>
      <trkpt lat="39.456679" lon="-0.897196">
        <ele>578.731</ele>
        <time>2020-08-10T12:30:55Z</time>
      </trkpt>
      <trkpt lat="39.456835" lon="-0.897356">
        <ele>579.161</ele>
        <time>2020-08-10T12:31:00Z</time>
      </trkpt>
      <trkpt lat="39.456895" lon="-0.897588">
        <ele>580.307</ele>
        <time>2020-08-10T12:31:05Z</time>
      </trkpt>
      <trkpt lat="39.456831" lon="-0.897824">
        <ele>579.708</ele>
        <time>2020-08-10T12:31:10Z</time>
      </trkpt>
      <trkpt lat="39.456688" lon="-0.897984">
        <ele>579.518</ele>
        <time>2020-08-10T12:31:15Z</time>
      </trkpt>
      <trkpt lat="39.456502" lon="-0.898033">
        <ele>578.417</ele>
        <time>2020-08-10T12:34:13Z</time>
      </trkpt>
      <trkpt lat="39.456320" lon="-0.898113">
        <ele>577.592</ele>
        <time>2020-08-10T12:34:19Z</time>
      </trkpt>
      <trkpt lat="39.456360" lon="-0.898356">
        <ele>579.721</ele>
        <time>2020-08-10T12:34:25Z</time>
      </trkpt>
      <trkpt lat="39.456388" lon="-0.898589">
        <ele>581.411</ele>
        <time>2020-08-10T12:34:33Z</time>
      </trkpt>
      <trkpt lat="39.456395" lon="-0.898842">
        <ele>583.142</ele>
        <time>2020-08-10T12:34:45Z</time>
      </trkpt>
      <trkpt lat="39.456403" lon="-0.899091">
        <ele>584.883</ele>
        <time>2020-08-10T12:34:52Z</time>
      </trkpt>
      <trkpt lat="39.456394" lon="-0.899330">
        <ele>585.494</ele>
        <time>2020-08-10T12:34:58Z</time>
      </trkpt>
      <trkpt lat="39.456378" lon="-0.899564">
        <ele>585.428</ele>
        <time>2020-08-10T12:35:04Z</time>
      </trkpt>
      <trkpt lat="39.456376" lon="-0.899831">
        <ele>586.089</ele>
        <time>2020-08-10T12:35:11Z</time>
      </trkpt>
      <trkpt lat="39.456385" lon="-0.900093">
        <ele>586.417</ele>
        <time>2020-08-10T12:35:32Z</time>
      </trkpt>
      <trkpt lat="39.456401" lon="-0.900347">
        <ele>586.708</ele>
        <time>2020-08-10T12:35:39Z</time>
      </trkpt>
      <trkpt lat="39.456408" lon="-0.900584">
        <ele>586.537</ele>
        <time>2020-08-10T12:35:46Z</time>
      </trkpt>
      <trkpt lat="39.456373" lon="-0.900825">
        <ele>586.066</ele>
        <time>2020-08-10T12:35:52Z</time>
      </trkpt>
      <trkpt lat="39.456281" lon="-0.901070">
        <ele>586.891</ele>
        <time>2020-08-10T12:35:58Z</time>
      </trkpt>
      <trkpt lat="39.456183" lon="-0.901273">
        <ele>587.210</ele>
        <time>2020-08-10T12:36:03Z</time>
      </trkpt>
      <trkpt lat="39.456071" lon="-0.901461">
        <ele>586.540</ele>
        <time>2020-08-10T12:36:08Z</time>
      </trkpt>
      <trkpt lat="39.455941" lon="-0.901655">
        <ele>586.551</ele>
        <time>2020-08-10T12:36:13Z</time>
      </trkpt>
      <trkpt lat="39.455810" lon="-0.901852">
        <ele>587.992</ele>
        <time>2020-08-10T12:36:18Z</time>
      </trkpt>
      <trkpt lat="39.455666" lon="-0.902061">
        <ele>588.573</ele>
        <time>2020-08-10T12:36:23Z</time>
      </trkpt>
      <trkpt lat="39.455534" lon="-0.902260">
        <ele>589.117</ele>
        <time>2020-08-10T12:36:28Z</time>
      </trkpt>
      <trkpt lat="39.455398" lon="-0.902448">
        <ele>589.087</ele>
        <time>2020-08-10T12:36:33Z</time>
      </trkpt>
      <trkpt lat="39.455285" lon="-0.902633">
        <ele>589.415</ele>
        <time>2020-08-10T12:36:38Z</time>
      </trkpt>
      <trkpt lat="39.455162" lon="-0.902831">
        <ele>589.908</ele>
        <time>2020-08-10T12:36:44Z</time>
      </trkpt>
      <trkpt lat="39.455034" lon="-0.903004">
        <ele>590.516</ele>
        <time>2020-08-10T12:36:50Z</time>
      </trkpt>
      <trkpt lat="39.454909" lon="-0.903196">
        <ele>591.825</ele>
        <time>2020-08-10T12:36:56Z</time>
      </trkpt>
      <trkpt lat="39.454787" lon="-0.903386">
        <ele>592.310</ele>
        <time>2020-08-10T12:37:01Z</time>
      </trkpt>
      <trkpt lat="39.454667" lon="-0.903573">
        <ele>592.229</ele>
        <time>2020-08-10T12:37:05Z</time>
      </trkpt>
      <trkpt lat="39.454550" lon="-0.903787">
        <ele>591.029</ele>
        <time>2020-08-10T12:37:09Z</time>
      </trkpt>
      <trkpt lat="39.454431" lon="-0.904023">
        <ele>589.230</ele>
        <time>2020-08-10T12:37:13Z</time>
      </trkpt>
      <trkpt lat="39.454307" lon="-0.904284">
        <ele>588.391</ele>
        <time>2020-08-10T12:37:17Z</time>
      </trkpt>
      <trkpt lat="39.454215" lon="-0.904509">
        <ele>588.552</ele>
        <time>2020-08-10T12:37:20Z</time>
      </trkpt>
      <trkpt lat="39.454141" lon="-0.904742">
        <ele>588.792</ele>
        <time>2020-08-10T12:37:23Z</time>
      </trkpt>
      <trkpt lat="39.454084" lon="-0.904987">
        <ele>588.973</ele>
        <time>2020-08-10T12:37:26Z</time>
      </trkpt>
      <trkpt lat="39.454056" lon="-0.905249">
        <ele>588.720</ele>
        <time>2020-08-10T12:37:29Z</time>
      </trkpt>
      <trkpt lat="39.454032" lon="-0.905525">
        <ele>588.308</ele>
        <time>2020-08-10T12:37:32Z</time>
      </trkpt>
      <trkpt lat="39.453970" lon="-0.905767">
        <ele>588.044</ele>
        <time>2020-08-10T12:37:35Z</time>
      </trkpt>
      <trkpt lat="39.453893" lon="-0.906032">
        <ele>588.683</ele>
        <time>2020-08-10T12:37:39Z</time>
      </trkpt>
      <trkpt lat="39.453862" lon="-0.906291">
        <ele>588.468</ele>
        <time>2020-08-10T12:37:43Z</time>
      </trkpt>
      <trkpt lat="39.453852" lon="-0.906537">
        <ele>588.817</ele>
        <time>2020-08-10T12:37:47Z</time>
      </trkpt>
      <trkpt lat="39.453850" lon="-0.906773">
        <ele>588.367</ele>
        <time>2020-08-10T12:37:51Z</time>
      </trkpt>
      <trkpt lat="39.453866" lon="-0.907048">
        <ele>589.338</ele>
        <time>2020-08-10T12:37:56Z</time>
      </trkpt>
      <trkpt lat="39.453887" lon="-0.907305">
        <ele>591.299</ele>
        <time>2020-08-10T12:38:01Z</time>
      </trkpt>
      <trkpt lat="39.453914" lon="-0.907540">
        <ele>593.330</ele>
        <time>2020-08-10T12:38:06Z</time>
      </trkpt>
      <trkpt lat="39.453943" lon="-0.907807">
        <ele>595.714</ele>
        <time>2020-08-10T12:38:12Z</time>
      </trkpt>
      <trkpt lat="39.453979" lon="-0.908074">
        <ele>596.154</ele>
        <time>2020-08-10T12:38:18Z</time>
      </trkpt>
      <trkpt lat="39.454003" lon="-0.908338">
        <ele>597.809</ele>
        <time>2020-08-10T12:38:24Z</time>
      </trkpt>
      <trkpt lat="39.454029" lon="-0.908608">
        <ele>597.608</ele>
        <time>2020-08-10T12:38:30Z</time>
      </trkpt>
      <trkpt lat="39.454052" lon="-0.908844">
        <ele>597.686</ele>
        <time>2020-08-10T12:38:35Z</time>
      </trkpt>
      <trkpt lat="39.454083" lon="-0.909077">
        <ele>597.855</ele>
        <time>2020-08-10T12:38:40Z</time>
      </trkpt>
      <trkpt lat="39.454110" lon="-0.909313">
        <ele>597.830</ele>
        <time>2020-08-10T12:38:45Z</time>
      </trkpt>
      <trkpt lat="39.454136" lon="-0.909585">
        <ele>598.639</ele>
        <time>2020-08-10T12:38:51Z</time>
      </trkpt>
      <trkpt lat="39.454171" lon="-0.909857">
        <ele>599.219</ele>
        <time>2020-08-10T12:38:57Z</time>
      </trkpt>
      <trkpt lat="39.454191" lon="-0.910093">
        <ele>599.720</ele>
        <time>2020-08-10T12:39:02Z</time>
      </trkpt>
      <trkpt lat="39.454221" lon="-0.910367">
        <ele>600.021</ele>
        <time>2020-08-10T12:39:08Z</time>
      </trkpt>
      <trkpt lat="39.454240" lon="-0.910607">
        <ele>601.792</ele>
        <time>2020-08-10T12:39:13Z</time>
      </trkpt>
      <trkpt lat="39.454269" lon="-0.910845">
        <ele>602.278</ele>
        <time>2020-08-10T12:39:18Z</time>
      </trkpt>
      <trkpt lat="39.454282" lon="-0.911123">
        <ele>602.333</ele>
        <time>2020-08-10T12:39:24Z</time>
      </trkpt>
      <trkpt lat="39.454286" lon="-0.911398">
        <ele>603.426</ele>
        <time>2020-08-10T12:39:30Z</time>
      </trkpt>
      <trkpt lat="39.454292" lon="-0.911636">
        <ele>603.308</ele>
        <time>2020-08-10T12:39:35Z</time>
      </trkpt>
      <trkpt lat="39.454284" lon="-0.911878">
        <ele>602.682</ele>
        <time>2020-08-10T12:39:40Z</time>
      </trkpt>
      <trkpt lat="39.454279" lon="-0.912120">
        <ele>602.781</ele>
        <time>2020-08-10T12:39:45Z</time>
      </trkpt>
      <trkpt lat="39.454274" lon="-0.912353">
        <ele>603.036</ele>
        <time>2020-08-10T12:39:50Z</time>
      </trkpt>
      <trkpt lat="39.454257" lon="-0.912629">
        <ele>604.155</ele>
        <time>2020-08-10T12:39:56Z</time>
      </trkpt>
      <trkpt lat="39.454239" lon="-0.912865">
        <ele>605.225</ele>
        <time>2020-08-10T12:40:01Z</time>
      </trkpt>
      <trkpt lat="39.454222" lon="-0.913139">
        <ele>605.456</ele>
        <time>2020-08-10T12:40:07Z</time>
      </trkpt>
      <trkpt lat="39.454199" lon="-0.913406">
        <ele>605.537</ele>
        <time>2020-08-10T12:40:13Z</time>
      </trkpt>
      <trkpt lat="39.454165" lon="-0.913664">
        <ele>606.518</ele>
        <time>2020-08-10T12:40:19Z</time>
      </trkpt>
      <trkpt lat="39.454123" lon="-0.913904">
        <ele>607.159</ele>
        <time>2020-08-10T12:40:25Z</time>
      </trkpt>
      <trkpt lat="39.454078" lon="-0.914135">
        <ele>608.103</ele>
        <time>2020-08-10T12:40:31Z</time>
      </trkpt>
      <trkpt lat="39.454028" lon="-0.914381">
        <ele>609.023</ele>
        <time>2020-08-10T12:40:37Z</time>
      </trkpt>
      <trkpt lat="39.453967" lon="-0.914637">
        <ele>610.908</ele>
        <time>2020-08-10T12:40:43Z</time>
      </trkpt>
      <trkpt lat="39.453904" lon="-0.914891">
        <ele>611.820</ele>
        <time>2020-08-10T12:40:49Z</time>
      </trkpt>
      <trkpt lat="39.453850" lon="-0.915149">
        <ele>612.719</ele>
        <time>2020-08-10T12:40:55Z</time>
      </trkpt>
      <trkpt lat="39.453785" lon="-0.915400">
        <ele>613.134</ele>
        <time>2020-08-10T12:41:01Z</time>
      </trkpt>
      <trkpt lat="39.453716" lon="-0.915662">
        <ele>613.883</ele>
        <time>2020-08-10T12:41:07Z</time>
      </trkpt>
      <trkpt lat="39.453642" lon="-0.915918">
        <ele>614.673</ele>
        <time>2020-08-10T12:41:13Z</time>
      </trkpt>
      <trkpt lat="39.453566" lon="-0.916158">
        <ele>614.684</ele>
        <time>2020-08-10T12:41:19Z</time>
      </trkpt>
      <trkpt lat="39.453479" lon="-0.916393">
        <ele>615.155</ele>
        <time>2020-08-10T12:41:25Z</time>
      </trkpt>
      <trkpt lat="39.453394" lon="-0.916630">
        <ele>616.956</ele>
        <time>2020-08-10T12:41:31Z</time>
      </trkpt>
      <trkpt lat="39.453307" lon="-0.916853">
        <ele>617.317</ele>
        <time>2020-08-10T12:41:37Z</time>
      </trkpt>
      <trkpt lat="39.453208" lon="-0.917073">
        <ele>617.587</ele>
        <time>2020-08-10T12:41:43Z</time>
      </trkpt>
      <trkpt lat="39.453109" lon="-0.917288">
        <ele>618.315</ele>
        <time>2020-08-10T12:41:49Z</time>
      </trkpt>
      <trkpt lat="39.453013" lon="-0.917507">
        <ele>620.008</ele>
        <time>2020-08-10T12:41:55Z</time>
      </trkpt>
      <trkpt lat="39.452935" lon="-0.917751">
        <ele>620.466</ele>
        <time>2020-08-10T12:42:01Z</time>
      </trkpt>
      <trkpt lat="39.452882" lon="-0.917991">
        <ele>622.565</ele>
        <time>2020-08-10T12:42:07Z</time>
      </trkpt>
      <trkpt lat="39.452844" lon="-0.918240">
        <ele>622.980</ele>
        <time>2020-08-10T12:42:13Z</time>
      </trkpt>
      <trkpt lat="39.452824" lon="-0.918485">
        <ele>622.129</ele>
        <time>2020-08-10T12:42:19Z</time>
      </trkpt>
      <trkpt lat="39.452817" lon="-0.918738">
        <ele>623.059</ele>
        <time>2020-08-10T12:42:25Z</time>
      </trkpt>
      <trkpt lat="39.452812" lon="-0.918985">
        <ele>623.030</ele>
        <time>2020-08-10T12:42:31Z</time>
      </trkpt>
      <trkpt lat="39.452811" lon="-0.919243">
        <ele>624.111</ele>
        <time>2020-08-10T12:42:37Z</time>
      </trkpt>
      <trkpt lat="39.452812" lon="-0.919505">
        <ele>624.882</ele>
        <time>2020-08-10T12:42:43Z</time>
      </trkpt>
      <trkpt lat="39.452815" lon="-0.919760">
        <ele>625.518</ele>
        <time>2020-08-10T12:42:49Z</time>
      </trkpt>
      <trkpt lat="39.452816" lon="-0.920007">
        <ele>627.098</ele>
        <time>2020-08-10T12:42:55Z</time>
      </trkpt>
      <trkpt lat="39.452804" lon="-0.920280">
        <ele>628.017</ele>
        <time>2020-08-10T12:43:02Z</time>
      </trkpt>
      <trkpt lat="39.452816" lon="-0.920514">
        <ele>626.508</ele>
        <time>2020-08-10T12:43:07Z</time>
      </trkpt>
      <trkpt lat="39.452822" lon="-0.920791">
        <ele>626.776</ele>
        <time>2020-08-10T12:43:13Z</time>
      </trkpt>
      <trkpt lat="39.452806" lon="-0.921029">
        <ele>626.645</ele>
        <time>2020-08-10T12:43:19Z</time>
      </trkpt>
      <trkpt lat="39.452825" lon="-0.921272">
        <ele>626.370</ele>
        <time>2020-08-10T12:43:25Z</time>
      </trkpt>
      <trkpt lat="39.452821" lon="-0.921525">
        <ele>626.259</ele>
        <time>2020-08-10T12:43:30Z</time>
      </trkpt>
      <trkpt lat="39.452790" lon="-0.921757">
        <ele>630.879</ele>
        <time>2020-08-10T12:43:39Z</time>
      </trkpt>
      <trkpt lat="39.452779" lon="-0.921992">
        <ele>633.050</ele>
        <time>2020-08-10T12:43:48Z</time>
      </trkpt>
      <trkpt lat="39.452758" lon="-0.922242">
        <ele>635.491</ele>
        <time>2020-08-10T12:43:58Z</time>
      </trkpt>
      <trkpt lat="39.452741" lon="-0.922488">
        <ele>637.752</ele>
        <time>2020-08-10T12:44:09Z</time>
      </trkpt>
      <trkpt lat="39.452640" lon="-0.922685">
        <ele>640.687</ele>
        <time>2020-08-10T12:44:20Z</time>
      </trkpt>
      <trkpt lat="39.452673" lon="-0.922947">
        <ele>644.942</ele>
        <time>2020-08-10T12:45:06Z</time>
      </trkpt>
      <trkpt lat="39.452653" lon="-0.923180">
        <ele>644.526</ele>
        <time>2020-08-10T12:45:24Z</time>
      </trkpt>
      <trkpt lat="39.452628" lon="-0.923411">
        <ele>648.008</ele>
        <time>2020-08-10T12:45:41Z</time>
      </trkpt>
      <trkpt lat="39.452636" lon="-0.923648">
        <ele>649.083</ele>
        <time>2020-08-10T12:45:56Z</time>
      </trkpt>
      <trkpt lat="39.452653" lon="-0.923898">
        <ele>646.582</ele>
        <time>2020-08-10T12:46:02Z</time>
      </trkpt>
      <trkpt lat="39.452660" lon="-0.924170">
        <ele>642.347</ele>
        <time>2020-08-10T12:46:09Z</time>
      </trkpt>
      <trkpt lat="39.452686" lon="-0.924430">
        <ele>639.456</ele>
        <time>2020-08-10T12:46:15Z</time>
      </trkpt>
      <trkpt lat="39.452714" lon="-0.924715">
        <ele>638.716</ele>
        <time>2020-08-10T12:46:19Z</time>
      </trkpt>
      <trkpt lat="39.452749" lon="-0.924977">
        <ele>639.237</ele>
        <time>2020-08-10T12:46:23Z</time>
      </trkpt>
      <trkpt lat="39.452688" lon="-0.924757">
        <ele>637.168</ele>
        <time>2020-08-10T12:46:44Z</time>
      </trkpt>
      <trkpt lat="39.452660" lon="-0.924505">
        <ele>636.739</ele>
        <time>2020-08-10T12:46:52Z</time>
      </trkpt>
      <trkpt lat="39.452715" lon="-0.924755">
        <ele>641.234</ele>
        <time>2020-08-10T12:52:05Z</time>
      </trkpt>
      <trkpt lat="39.452737" lon="-0.925024">
        <ele>641.155</ele>
        <time>2020-08-10T12:52:12Z</time>
      </trkpt>
      <trkpt lat="39.452747" lon="-0.925298">
        <ele>638.910</ele>
        <time>2020-08-10T12:52:17Z</time>
      </trkpt>
      <trkpt lat="39.452759" lon="-0.925548">
        <ele>637.608</ele>
        <time>2020-08-10T12:52:23Z</time>
      </trkpt>
      <trkpt lat="39.452717" lon="-0.925803">
        <ele>637.718</ele>
        <time>2020-08-10T12:52:30Z</time>
      </trkpt>
      <trkpt lat="39.452664" lon="-0.926047">
        <ele>638.427</ele>
        <time>2020-08-10T12:52:38Z</time>
      </trkpt>
      <trkpt lat="39.452620" lon="-0.926310">
        <ele>638.972</ele>
        <time>2020-08-10T12:52:45Z</time>
      </trkpt>
      <trkpt lat="39.452575" lon="-0.926550">
        <ele>637.551</ele>
        <time>2020-08-10T12:52:50Z</time>
      </trkpt>
      <trkpt lat="39.452529" lon="-0.926798">
        <ele>637.971</ele>
        <time>2020-08-10T12:52:56Z</time>
      </trkpt>
      <trkpt lat="39.452479" lon="-0.927025">
        <ele>638.692</ele>
        <time>2020-08-10T12:53:04Z</time>
      </trkpt>
      <trkpt lat="39.452423" lon="-0.927255">
        <ele>641.293</ele>
        <time>2020-08-10T12:53:14Z</time>
      </trkpt>
      <trkpt lat="39.452364" lon="-0.927491">
        <ele>647.494</ele>
        <time>2020-08-10T12:53:26Z</time>
      </trkpt>
      <trkpt lat="39.452298" lon="-0.927717">
        <ele>649.082</ele>
        <time>2020-08-10T12:53:35Z</time>
      </trkpt>
      <trkpt lat="39.452121" lon="-0.927869">
        <ele>646.343</ele>
        <time>2020-08-10T12:53:40Z</time>
      </trkpt>
      <trkpt lat="39.451927" lon="-0.927931">
        <ele>643.317</ele>
        <time>2020-08-10T12:53:44Z</time>
      </trkpt>
      <trkpt lat="39.451739" lon="-0.927986">
        <ele>639.308</ele>
        <time>2020-08-10T12:53:53Z</time>
      </trkpt>
      <trkpt lat="39.451574" lon="-0.927892">
        <ele>641.923</ele>
        <time>2020-08-10T12:54:00Z</time>
      </trkpt>
      <trkpt lat="39.451404" lon="-0.927796">
        <ele>645.632</ele>
        <time>2020-08-10T12:54:08Z</time>
      </trkpt>
      <trkpt lat="39.451319" lon="-0.928001">
        <ele>647.837</ele>
        <time>2020-08-10T12:54:22Z</time>
      </trkpt>
      <trkpt lat="39.451467" lon="-0.928164">
        <ele>648.146</ele>
        <time>2020-08-10T12:54:29Z</time>
      </trkpt>
      <trkpt lat="39.451649" lon="-0.928287">
        <ele>647.036</ele>
        <time>2020-08-10T12:54:34Z</time>
      </trkpt>
      <trkpt lat="39.451822" lon="-0.928370">
        <ele>645.597</ele>
        <time>2020-08-10T12:54:38Z</time>
      </trkpt>
      <trkpt lat="39.452033" lon="-0.928483">
        <ele>644.248</ele>
        <time>2020-08-10T12:54:42Z</time>
      </trkpt>
      <trkpt lat="39.452229" lon="-0.928575">
        <ele>641.499</ele>
        <time>2020-08-10T12:54:45Z</time>
      </trkpt>
      <trkpt lat="39.452416" lon="-0.928670">
        <ele>639.462</ele>
        <time>2020-08-10T12:54:48Z</time>
      </trkpt>
      <trkpt lat="39.452615" lon="-0.928829">
        <ele>637.283</ele>
        <time>2020-08-10T12:54:52Z</time>
      </trkpt>
      <trkpt lat="39.452694" lon="-0.929056">
        <ele>639.911</ele>
        <time>2020-08-10T12:55:46Z</time>
      </trkpt>
      <trkpt lat="39.452611" lon="-0.929287">
        <ele>640.708</ele>
        <time>2020-08-10T12:55:54Z</time>
      </trkpt>
      <trkpt lat="39.452517" lon="-0.929518">
        <ele>641.931</ele>
        <time>2020-08-10T12:56:01Z</time>
      </trkpt>
      <trkpt lat="39.452417" lon="-0.929750">
        <ele>641.070</ele>
        <time>2020-08-10T12:56:07Z</time>
      </trkpt>
      <trkpt lat="39.452326" lon="-0.929970">
        <ele>643.025</ele>
        <time>2020-08-10T12:56:13Z</time>
      </trkpt>
      <trkpt lat="39.452232" lon="-0.930171">
        <ele>645.574</ele>
        <time>2020-08-10T12:56:19Z</time>
      </trkpt>
      <trkpt lat="39.452164" lon="-0.930417">
        <ele>646.284</ele>
        <time>2020-08-10T12:56:36Z</time>
      </trkpt>
      <trkpt lat="39.452087" lon="-0.930638">
        <ele>645.445</ele>
        <time>2020-08-10T12:56:48Z</time>
      </trkpt>
      <trkpt lat="39.451998" lon="-0.930840">
        <ele>646.736</ele>
        <time>2020-08-10T12:58:15Z</time>
      </trkpt>
      <trkpt lat="39.451909" lon="-0.931070">
        <ele>648.257</ele>
        <time>2020-08-10T12:58:21Z</time>
      </trkpt>
      <trkpt lat="39.451820" lon="-0.931286">
        <ele>649.142</ele>
        <time>2020-08-10T12:58:26Z</time>
      </trkpt>
      <trkpt lat="39.451747" lon="-0.931526">
        <ele>649.122</ele>
        <time>2020-08-10T12:58:32Z</time>
      </trkpt>
      <trkpt lat="39.451696" lon="-0.931760">
        <ele>645.714</ele>
        <time>2020-08-10T12:58:38Z</time>
      </trkpt>
      <trkpt lat="39.451674" lon="-0.932020">
        <ele>646.508</ele>
        <time>2020-08-10T12:58:44Z</time>
      </trkpt>
      <trkpt lat="39.451651" lon="-0.932263">
        <ele>647.569</ele>
        <time>2020-08-10T12:58:50Z</time>
      </trkpt>
      <trkpt lat="39.451608" lon="-0.932495">
        <ele>648.318</ele>
        <time>2020-08-10T12:58:56Z</time>
      </trkpt>
      <trkpt lat="39.451600" lon="-0.932770">
        <ele>651.583</ele>
        <time>2020-08-10T12:59:03Z</time>
      </trkpt>
      <trkpt lat="39.451587" lon="-0.933018">
        <ele>653.042</ele>
        <time>2020-08-10T12:59:09Z</time>
      </trkpt>
      <trkpt lat="39.451566" lon="-0.933260">
        <ele>654.172</ele>
        <time>2020-08-10T12:59:15Z</time>
      </trkpt>
      <trkpt lat="39.451554" lon="-0.933501">
        <ele>654.973</ele>
        <time>2020-08-10T12:59:21Z</time>
      </trkpt>
      <trkpt lat="39.451557" lon="-0.933740">
        <ele>657.314</ele>
        <time>2020-08-10T12:59:27Z</time>
      </trkpt>
      <trkpt lat="39.451573" lon="-0.933989">
        <ele>658.365</ele>
        <time>2020-08-10T12:59:33Z</time>
      </trkpt>
      <trkpt lat="39.451600" lon="-0.934238">
        <ele>657.736</ele>
        <time>2020-08-10T12:59:39Z</time>
      </trkpt>
      <trkpt lat="39.451625" lon="-0.934483">
        <ele>657.717</ele>
        <time>2020-08-10T12:59:45Z</time>
      </trkpt>
      <trkpt lat="39.451654" lon="-0.934726">
        <ele>658.418</ele>
        <time>2020-08-10T12:59:51Z</time>
      </trkpt>
      <trkpt lat="39.451680" lon="-0.934982">
        <ele>659.308</ele>
        <time>2020-08-10T12:59:57Z</time>
      </trkpt>
      <trkpt lat="39.451716" lon="-0.935236">
        <ele>659.378</ele>
        <time>2020-08-10T13:00:03Z</time>
      </trkpt>
      <trkpt lat="39.451742" lon="-0.935501">
        <ele>661.087</ele>
        <time>2020-08-10T13:00:09Z</time>
      </trkpt>
      <trkpt lat="39.451775" lon="-0.935760">
        <ele>661.582</ele>
        <time>2020-08-10T13:00:15Z</time>
      </trkpt>
      <trkpt lat="39.451806" lon="-0.936025">
        <ele>661.891</ele>
        <time>2020-08-10T13:00:21Z</time>
      </trkpt>
      <trkpt lat="39.451839" lon="-0.936281">
        <ele>662.211</ele>
        <time>2020-08-10T13:00:27Z</time>
      </trkpt>
      <trkpt lat="39.451889" lon="-0.936522">
        <ele>661.572</ele>
        <time>2020-08-10T13:00:33Z</time>
      </trkpt>
      <trkpt lat="39.451960" lon="-0.936786">
        <ele>661.743</ele>
        <time>2020-08-10T13:00:39Z</time>
      </trkpt>
      <trkpt lat="39.452055" lon="-0.937034">
        <ele>662.984</ele>
        <time>2020-08-10T13:00:45Z</time>
      </trkpt>
      <trkpt lat="39.452152" lon="-0.937274">
        <ele>663.264</ele>
        <time>2020-08-10T13:00:51Z</time>
      </trkpt>
      <trkpt lat="39.452251" lon="-0.937507">
        <ele>662.806</ele>
        <time>2020-08-10T13:00:57Z</time>
      </trkpt>
      <trkpt lat="39.452349" lon="-0.937751">
        <ele>663.516</ele>
        <time>2020-08-10T13:01:03Z</time>
      </trkpt>
      <trkpt lat="39.452455" lon="-0.937991">
        <ele>663.508</ele>
        <time>2020-08-10T13:01:09Z</time>
      </trkpt>
      <trkpt lat="39.452561" lon="-0.938233">
        <ele>664.081</ele>
        <time>2020-08-10T13:01:15Z</time>
      </trkpt>
      <trkpt lat="39.452661" lon="-0.938482">
        <ele>664.830</ele>
        <time>2020-08-10T13:01:21Z</time>
      </trkpt>
      <trkpt lat="39.452751" lon="-0.938691">
        <ele>665.065</ele>
        <time>2020-08-10T13:01:26Z</time>
      </trkpt>
      <trkpt lat="39.452842" lon="-0.938893">
        <ele>664.594</ele>
        <time>2020-08-10T13:01:31Z</time>
      </trkpt>
      <trkpt lat="39.452933" lon="-0.939103">
        <ele>664.544</ele>
        <time>2020-08-10T13:01:36Z</time>
      </trkpt>
      <trkpt lat="39.453015" lon="-0.939325">
        <ele>666.075</ele>
        <time>2020-08-10T13:01:41Z</time>
      </trkpt>
      <trkpt lat="39.453112" lon="-0.939528">
        <ele>667.416</ele>
        <time>2020-08-10T13:01:46Z</time>
      </trkpt>
      <trkpt lat="39.453201" lon="-0.939734">
        <ele>668.567</ele>
        <time>2020-08-10T13:01:51Z</time>
      </trkpt>
      <trkpt lat="39.453290" lon="-0.939941">
        <ele>669.117</ele>
        <time>2020-08-10T13:01:56Z</time>
      </trkpt>
      <trkpt lat="39.453377" lon="-0.940152">
        <ele>669.087</ele>
        <time>2020-08-10T13:02:01Z</time>
      </trkpt>
      <trkpt lat="39.453461" lon="-0.940362">
        <ele>669.615</ele>
        <time>2020-08-10T13:02:06Z</time>
      </trkpt>
      <trkpt lat="39.453549" lon="-0.940566">
        <ele>669.608</ele>
        <time>2020-08-10T13:02:11Z</time>
      </trkpt>
      <trkpt lat="39.453638" lon="-0.940776">
        <ele>670.376</ele>
        <time>2020-08-10T13:02:16Z</time>
      </trkpt>
      <trkpt lat="39.453728" lon="-0.940984">
        <ele>671.125</ele>
        <time>2020-08-10T13:02:21Z</time>
      </trkpt>
      <trkpt lat="39.453818" lon="-0.941197">
        <ele>672.280</ele>
        <time>2020-08-10T13:02:26Z</time>
      </trkpt>
      <trkpt lat="39.453911" lon="-0.941416">
        <ele>672.879</ele>
        <time>2020-08-10T13:02:31Z</time>
      </trkpt>
      <trkpt lat="39.454011" lon="-0.941635">
        <ele>671.939</ele>
        <time>2020-08-10T13:02:36Z</time>
      </trkpt>
      <trkpt lat="39.454119" lon="-0.941861">
        <ele>672.680</ele>
        <time>2020-08-10T13:02:41Z</time>
      </trkpt>
      <trkpt lat="39.454243" lon="-0.942079">
        <ele>673.331</ele>
        <time>2020-08-10T13:02:46Z</time>
      </trkpt>
      <trkpt lat="39.454374" lon="-0.942301">
        <ele>672.662</ele>
        <time>2020-08-10T13:02:51Z</time>
      </trkpt>
      <trkpt lat="39.454515" lon="-0.942516">
        <ele>672.411</ele>
        <time>2020-08-10T13:02:56Z</time>
      </trkpt>
      <trkpt lat="39.454665" lon="-0.942724">
        <ele>672.821</ele>
        <time>2020-08-10T13:03:01Z</time>
      </trkpt>
      <trkpt lat="39.454792" lon="-0.942895">
        <ele>673.303</ele>
        <time>2020-08-10T13:03:05Z</time>
      </trkpt>
      <trkpt lat="39.454912" lon="-0.943069">
        <ele>672.708</ele>
        <time>2020-08-10T13:03:09Z</time>
      </trkpt>
      <trkpt lat="39.455060" lon="-0.943279">
        <ele>672.496</ele>
        <time>2020-08-10T13:03:14Z</time>
      </trkpt>
      <trkpt lat="39.455188" lon="-0.943455">
        <ele>672.525</ele>
        <time>2020-08-10T13:03:18Z</time>
      </trkpt>
      <trkpt lat="39.455312" lon="-0.943643">
        <ele>672.440</ele>
        <time>2020-08-10T13:03:22Z</time>
      </trkpt>
      <trkpt lat="39.455457" lon="-0.943849">
        <ele>671.479</ele>
        <time>2020-08-10T13:03:26Z</time>
      </trkpt>
      <trkpt lat="39.455607" lon="-0.944080">
        <ele>671.159</ele>
        <time>2020-08-10T13:03:30Z</time>
      </trkpt>
      <trkpt lat="39.455722" lon="-0.944263">
        <ele>671.030</ele>
        <time>2020-08-10T13:03:33Z</time>
      </trkpt>
      <trkpt lat="39.455823" lon="-0.944463">
        <ele>670.321</ele>
        <time>2020-08-10T13:03:36Z</time>
      </trkpt>
      <trkpt lat="39.455923" lon="-0.944698">
        <ele>669.812</ele>
        <time>2020-08-10T13:03:39Z</time>
      </trkpt>
      <trkpt lat="39.456011" lon="-0.944954">
        <ele>668.415</ele>
        <time>2020-08-10T13:03:42Z</time>
      </trkpt>
      <trkpt lat="39.456104" lon="-0.945235">
        <ele>667.365</ele>
        <time>2020-08-10T13:03:45Z</time>
      </trkpt>
      <trkpt lat="39.456210" lon="-0.945537">
        <ele>666.011</ele>
        <time>2020-08-10T13:03:48Z</time>
      </trkpt>
      <trkpt lat="39.456301" lon="-0.945743">
        <ele>665.508</ele>
        <time>2020-08-10T13:03:50Z</time>
      </trkpt>
      <trkpt lat="39.456413" lon="-0.945947">
        <ele>665.526</ele>
        <time>2020-08-10T13:03:52Z</time>
      </trkpt>
      <trkpt lat="39.456538" lon="-0.946153">
        <ele>664.965</ele>
        <time>2020-08-10T13:03:54Z</time>
      </trkpt>
      <trkpt lat="39.456665" lon="-0.946365">
        <ele>663.370</ele>
        <time>2020-08-10T13:03:56Z</time>
      </trkpt>
      <trkpt lat="39.456788" lon="-0.946588">
        <ele>660.959</ele>
        <time>2020-08-10T13:03:58Z</time>
      </trkpt>
      <trkpt lat="39.456929" lon="-0.946820">
        <ele>659.469</ele>
        <time>2020-08-10T13:04:00Z</time>
      </trkpt>
      <trkpt lat="39.457071" lon="-0.947043">
        <ele>657.970</ele>
        <time>2020-08-10T13:04:02Z</time>
      </trkpt>
      <trkpt lat="39.457217" lon="-0.947274">
        <ele>655.751</ele>
        <time>2020-08-10T13:04:04Z</time>
      </trkpt>
      <trkpt lat="39.457359" lon="-0.947544">
        <ele>653.172</ele>
        <time>2020-08-10T13:04:06Z</time>
      </trkpt>
      <trkpt lat="39.457504" lon="-0.947814">
        <ele>650.162</ele>
        <time>2020-08-10T13:04:08Z</time>
      </trkpt>
      <trkpt lat="39.457647" lon="-0.948093">
        <ele>647.983</ele>
        <time>2020-08-10T13:04:10Z</time>
      </trkpt>
      <trkpt lat="39.457798" lon="-0.948361">
        <ele>645.511</ele>
        <time>2020-08-10T13:04:12Z</time>
      </trkpt>
      <trkpt lat="39.457959" lon="-0.948612">
        <ele>645.008</ele>
        <time>2020-08-10T13:04:14Z</time>
      </trkpt>
      <trkpt lat="39.458122" lon="-0.948868">
        <ele>645.131</ele>
        <time>2020-08-10T13:04:16Z</time>
      </trkpt>
      <trkpt lat="39.458265" lon="-0.949111">
        <ele>644.440</ele>
        <time>2020-08-10T13:04:18Z</time>
      </trkpt>
      <trkpt lat="39.458415" lon="-0.949332">
        <ele>645.095</ele>
        <time>2020-08-10T13:04:20Z</time>
      </trkpt>
      <trkpt lat="39.458535" lon="-0.949554">
        <ele>644.814</ele>
        <time>2020-08-10T13:04:22Z</time>
      </trkpt>
      <trkpt lat="39.458646" lon="-0.949772">
        <ele>643.534</ele>
        <time>2020-08-10T13:04:24Z</time>
      </trkpt>
      <trkpt lat="39.458761" lon="-0.949984">
        <ele>644.015</ele>
        <time>2020-08-10T13:04:26Z</time>
      </trkpt>
      <trkpt lat="39.458880" lon="-0.950174">
        <ele>643.946</ele>
        <time>2020-08-10T13:04:28Z</time>
      </trkpt>
      <trkpt lat="39.459012" lon="-0.950336">
        <ele>642.747</ele>
        <time>2020-08-10T13:04:30Z</time>
      </trkpt>
      <trkpt lat="39.459253" lon="-0.950447">
        <ele>644.877</ele>
        <time>2020-08-10T13:04:33Z</time>
      </trkpt>
      <trkpt lat="39.459470" lon="-0.950360">
        <ele>645.661</ele>
        <time>2020-08-10T13:04:36Z</time>
      </trkpt>
      <trkpt lat="39.459615" lon="-0.950158">
        <ele>647.627</ele>
        <time>2020-08-10T13:04:39Z</time>
      </trkpt>
      <trkpt lat="39.459707" lon="-0.949957">
        <ele>650.708</ele>
        <time>2020-08-10T13:04:42Z</time>
      </trkpt>
      <trkpt lat="39.459817" lon="-0.949752">
        <ele>651.952</ele>
        <time>2020-08-10T13:04:46Z</time>
      </trkpt>
      <trkpt lat="39.459907" lon="-0.949549">
        <ele>651.851</ele>
        <time>2020-08-10T13:04:51Z</time>
      </trkpt>
      <trkpt lat="39.460034" lon="-0.949347">
        <ele>651.056</ele>
        <time>2020-08-10T13:04:58Z</time>
      </trkpt>
      <trkpt lat="39.460138" lon="-0.949552">
        <ele>651.395</ele>
        <time>2020-08-10T13:05:06Z</time>
      </trkpt>
      <trkpt lat="39.460025" lon="-0.949793">
        <ele>652.235</ele>
        <time>2020-08-10T13:05:12Z</time>
      </trkpt>
      <trkpt lat="39.459925" lon="-0.950021">
        <ele>652.856</ele>
        <time>2020-08-10T13:05:17Z</time>
      </trkpt>
      <trkpt lat="39.459799" lon="-0.950244">
        <ele>653.057</ele>
        <time>2020-08-10T13:05:22Z</time>
      </trkpt>
      <trkpt lat="39.459677" lon="-0.950480">
        <ele>652.958</ele>
        <time>2020-08-10T13:05:27Z</time>
      </trkpt>
      <trkpt lat="39.459556" lon="-0.950708">
        <ele>653.333</ele>
        <time>2020-08-10T13:05:32Z</time>
      </trkpt>
      <trkpt lat="39.459428" lon="-0.950927">
        <ele>654.723</ele>
        <time>2020-08-10T13:05:37Z</time>
      </trkpt>
      <trkpt lat="39.459304" lon="-0.951164">
        <ele>656.215</ele>
        <time>2020-08-10T13:05:42Z</time>
      </trkpt>
      <trkpt lat="39.459195" lon="-0.951360">
        <ele>655.608</ele>
        <time>2020-08-10T13:05:46Z</time>
      </trkpt>
      <trkpt lat="39.459073" lon="-0.951559">
        <ele>655.518</ele>
        <time>2020-08-10T13:05:50Z</time>
      </trkpt>
      <trkpt lat="39.458943" lon="-0.951770">
        <ele>654.597</ele>
        <time>2020-08-10T13:05:54Z</time>
      </trkpt>
      <trkpt lat="39.458797" lon="-0.951974">
        <ele>653.592</ele>
        <time>2020-08-10T13:05:58Z</time>
      </trkpt>
      <trkpt lat="39.458640" lon="-0.952171">
        <ele>653.191</ele>
        <time>2020-08-10T13:06:02Z</time>
      </trkpt>
      <trkpt lat="39.458478" lon="-0.952377">
        <ele>651.811</ele>
        <time>2020-08-10T13:06:06Z</time>
      </trkpt>
      <trkpt lat="39.458365" lon="-0.952643">
        <ele>650.172</ele>
        <time>2020-08-10T13:06:10Z</time>
      </trkpt>
      <trkpt lat="39.458278" lon="-0.952883">
        <ele>649.153</ele>
        <time>2020-08-10T13:06:13Z</time>
      </trkpt>
      <trkpt lat="39.458093" lon="-0.953048">
        <ele>652.064</ele>
        <time>2020-08-10T13:06:17Z</time>
      </trkpt>
      <trkpt lat="39.458030" lon="-0.953314">
        <ele>649.536</ele>
        <time>2020-08-10T13:06:22Z</time>
      </trkpt>
      <trkpt lat="39.458131" lon="-0.953591">
        <ele>647.117</ele>
        <time>2020-08-10T13:06:26Z</time>
      </trkpt>
      <trkpt lat="39.458209" lon="-0.953880">
        <ele>647.718</ele>
        <time>2020-08-10T13:06:30Z</time>
      </trkpt>
      <trkpt lat="39.458300" lon="-0.954094">
        <ele>647.508</ele>
        <time>2020-08-10T13:06:33Z</time>
      </trkpt>
      <trkpt lat="39.458426" lon="-0.954284">
        <ele>648.038</ele>
        <time>2020-08-10T13:06:36Z</time>
      </trkpt>
      <trkpt lat="39.458558" lon="-0.954469">
        <ele>648.227</ele>
        <time>2020-08-10T13:06:39Z</time>
      </trkpt>
      <trkpt lat="39.458673" lon="-0.954657">
        <ele>647.712</ele>
        <time>2020-08-10T13:06:42Z</time>
      </trkpt>
      <trkpt lat="39.458793" lon="-0.954851">
        <ele>646.821</ele>
        <time>2020-08-10T13:06:45Z</time>
      </trkpt>
      <trkpt lat="39.458898" lon="-0.955072">
        <ele>645.441</ele>
        <time>2020-08-10T13:06:48Z</time>
      </trkpt>
      <trkpt lat="39.459002" lon="-0.955314">
        <ele>644.962</ele>
        <time>2020-08-10T13:06:51Z</time>
      </trkpt>
      <trkpt lat="39.459093" lon="-0.955549">
        <ele>643.953</ele>
        <time>2020-08-10T13:06:54Z</time>
      </trkpt>
      <trkpt lat="39.459168" lon="-0.955795">
        <ele>643.844</ele>
        <time>2020-08-10T13:06:57Z</time>
      </trkpt>
      <trkpt lat="39.459218" lon="-0.956037">
        <ele>644.164</ele>
        <time>2020-08-10T13:07:00Z</time>
      </trkpt>
      <trkpt lat="39.459259" lon="-0.956282">
        <ele>645.006</ele>
        <time>2020-08-10T13:07:03Z</time>
      </trkpt>
      <trkpt lat="39.459301" lon="-0.956522">
        <ele>645.216</ele>
        <time>2020-08-10T13:07:06Z</time>
      </trkpt>
      <trkpt lat="39.459338" lon="-0.956768">
        <ele>646.508</ele>
        <time>2020-08-10T13:07:09Z</time>
      </trkpt>
      <trkpt lat="39.459369" lon="-0.956998">
        <ele>646.761</ele>
        <time>2020-08-10T13:07:12Z</time>
      </trkpt>
      <trkpt lat="39.459412" lon="-0.957292">
        <ele>646.970</ele>
        <time>2020-08-10T13:07:16Z</time>
      </trkpt>
      <trkpt lat="39.459452" lon="-0.957573">
        <ele>647.995</ele>
        <time>2020-08-10T13:07:20Z</time>
      </trkpt>
      <trkpt lat="39.459488" lon="-0.957836">
        <ele>647.644</ele>
        <time>2020-08-10T13:07:24Z</time>
      </trkpt>
      <trkpt lat="39.459536" lon="-0.958075">
        <ele>647.514</ele>
        <time>2020-08-10T13:07:28Z</time>
      </trkpt>
      <trkpt lat="39.459571" lon="-0.958318">
        <ele>648.075</ele>
        <time>2020-08-10T13:07:32Z</time>
      </trkpt>
      <trkpt lat="39.459600" lon="-0.958570">
        <ele>648.466</ele>
        <time>2020-08-10T13:07:36Z</time>
      </trkpt>
      <trkpt lat="39.459630" lon="-0.958814">
        <ele>648.737</ele>
        <time>2020-08-10T13:07:40Z</time>
      </trkpt>
      <trkpt lat="39.459658" lon="-0.959064">
        <ele>648.242</ele>
        <time>2020-08-10T13:07:44Z</time>
      </trkpt>
      <trkpt lat="39.459693" lon="-0.959308">
        <ele>649.222</ele>
        <time>2020-08-10T13:07:48Z</time>
      </trkpt>
      <trkpt lat="39.459729" lon="-0.959553">
        <ele>649.814</ele>
        <time>2020-08-10T13:07:52Z</time>
      </trkpt>
      <trkpt lat="39.459767" lon="-0.959793">
        <ele>649.708</ele>
        <time>2020-08-10T13:07:56Z</time>
      </trkpt>
      <trkpt lat="39.459799" lon="-0.960027">
        <ele>650.369</ele>
        <time>2020-08-10T13:08:00Z</time>
      </trkpt>
      <trkpt lat="39.459824" lon="-0.960260">
        <ele>650.188</ele>
        <time>2020-08-10T13:08:04Z</time>
      </trkpt>
      <trkpt lat="39.459856" lon="-0.960500">
        <ele>649.433</ele>
        <time>2020-08-10T13:08:08Z</time>
      </trkpt>
      <trkpt lat="39.459886" lon="-0.960743">
        <ele>649.952</ele>
        <time>2020-08-10T13:08:12Z</time>
      </trkpt>
      <trkpt lat="39.459921" lon="-0.960975">
        <ele>650.842</ele>
        <time>2020-08-10T13:08:16Z</time>
      </trkpt>
      <trkpt lat="39.459962" lon="-0.961258">
        <ele>651.623</ele>
        <time>2020-08-10T13:08:21Z</time>
      </trkpt>
      <trkpt lat="39.459997" lon="-0.961532">
        <ele>651.384</ele>
        <time>2020-08-10T13:08:26Z</time>
      </trkpt>
      <trkpt lat="39.460036" lon="-0.961807">
        <ele>651.825</ele>
        <time>2020-08-10T13:08:31Z</time>
      </trkpt>
      <trkpt lat="39.460083" lon="-0.962083">
        <ele>653.249</ele>
        <time>2020-08-10T13:08:36Z</time>
      </trkpt>
      <trkpt lat="39.460121" lon="-0.962360">
        <ele>653.902</ele>
        <time>2020-08-10T13:08:41Z</time>
      </trkpt>
      <trkpt lat="39.460154" lon="-0.962634">
        <ele>653.022</ele>
        <time>2020-08-10T13:08:46Z</time>
      </trkpt>
      <trkpt lat="39.460191" lon="-0.962920">
        <ele>652.908</ele>
        <time>2020-08-10T13:08:51Z</time>
      </trkpt>
      <trkpt lat="39.460243" lon="-0.963191">
        <ele>653.479</ele>
        <time>2020-08-10T13:08:56Z</time>
      </trkpt>
      <trkpt lat="39.460282" lon="-0.963473">
        <ele>653.958</ele>
        <time>2020-08-10T13:09:01Z</time>
      </trkpt>
      <trkpt lat="39.460311" lon="-0.963706">
        <ele>654.613</ele>
        <time>2020-08-10T13:09:05Z</time>
      </trkpt>
      <trkpt lat="39.460346" lon="-0.963940">
        <ele>655.472</ele>
        <time>2020-08-10T13:09:09Z</time>
      </trkpt>
      <trkpt lat="39.460380" lon="-0.964169">
        <ele>656.332</ele>
        <time>2020-08-10T13:09:13Z</time>
      </trkpt>
      <trkpt lat="39.460415" lon="-0.964403">
        <ele>656.823</ele>
        <time>2020-08-10T13:09:17Z</time>
      </trkpt>
      <trkpt lat="39.460456" lon="-0.964635">
        <ele>657.374</ele>
        <time>2020-08-10T13:09:21Z</time>
      </trkpt>
      <trkpt lat="39.460491" lon="-0.964870">
        <ele>656.985</ele>
        <time>2020-08-10T13:09:25Z</time>
      </trkpt>
      <trkpt lat="39.460522" lon="-0.965113">
        <ele>655.679</ele>
        <time>2020-08-10T13:09:29Z</time>
      </trkpt>
      <trkpt lat="39.460556" lon="-0.965357">
        <ele>655.605</ele>
        <time>2020-08-10T13:09:33Z</time>
      </trkpt>
      <trkpt lat="39.460590" lon="-0.965593">
        <ele>655.425</ele>
        <time>2020-08-10T13:09:37Z</time>
      </trkpt>
      <trkpt lat="39.460624" lon="-0.965832">
        <ele>655.608</ele>
        <time>2020-08-10T13:09:41Z</time>
      </trkpt>
      <trkpt lat="39.460654" lon="-0.966072">
        <ele>656.312</ele>
        <time>2020-08-10T13:09:45Z</time>
      </trkpt>
      <trkpt lat="39.460688" lon="-0.966314">
        <ele>656.071</ele>
        <time>2020-08-10T13:09:49Z</time>
      </trkpt>
      <trkpt lat="39.460727" lon="-0.966558">
        <ele>655.566</ele>
        <time>2020-08-10T13:09:53Z</time>
      </trkpt>
      <trkpt lat="39.460767" lon="-0.966804">
        <ele>655.155</ele>
        <time>2020-08-10T13:09:57Z</time>
      </trkpt>
      <trkpt lat="39.460807" lon="-0.967044">
        <ele>655.575</ele>
        <time>2020-08-10T13:10:01Z</time>
      </trkpt>
      <trkpt lat="39.460842" lon="-0.967302">
        <ele>655.976</ele>
        <time>2020-08-10T13:10:05Z</time>
      </trkpt>
      <trkpt lat="39.460876" lon="-0.967568">
        <ele>655.717</ele>
        <time>2020-08-10T13:10:09Z</time>
      </trkpt>
      <trkpt lat="39.460913" lon="-0.967818">
        <ele>655.058</ele>
        <time>2020-08-10T13:10:13Z</time>
      </trkpt>
      <trkpt lat="39.460955" lon="-0.968064">
        <ele>653.899</ele>
        <time>2020-08-10T13:10:17Z</time>
      </trkpt>
      <trkpt lat="39.460983" lon="-0.968315">
        <ele>653.607</ele>
        <time>2020-08-10T13:10:21Z</time>
      </trkpt>
      <trkpt lat="39.461013" lon="-0.968566">
        <ele>654.427</ele>
        <time>2020-08-10T13:10:25Z</time>
      </trkpt>
      <trkpt lat="39.461044" lon="-0.968814">
        <ele>654.208</ele>
        <time>2020-08-10T13:10:29Z</time>
      </trkpt>
      <trkpt lat="39.461075" lon="-0.969078">
        <ele>654.644</ele>
        <time>2020-08-10T13:10:33Z</time>
      </trkpt>
      <trkpt lat="39.461107" lon="-0.969338">
        <ele>655.383</ele>
        <time>2020-08-10T13:10:37Z</time>
      </trkpt>
      <trkpt lat="39.461154" lon="-0.969599">
        <ele>655.828</ele>
        <time>2020-08-10T13:10:41Z</time>
      </trkpt>
      <trkpt lat="39.461198" lon="-0.969859">
        <ele>655.947</ele>
        <time>2020-08-10T13:10:45Z</time>
      </trkpt>
      <trkpt lat="39.461244" lon="-0.970117">
        <ele>656.347</ele>
        <time>2020-08-10T13:10:49Z</time>
      </trkpt>
      <trkpt lat="39.461302" lon="-0.970366">
        <ele>656.128</ele>
        <time>2020-08-10T13:10:53Z</time>
      </trkpt>
      <trkpt lat="39.461354" lon="-0.970618">
        <ele>656.639</ele>
        <time>2020-08-10T13:10:57Z</time>
      </trkpt>
      <trkpt lat="39.461407" lon="-0.970886">
        <ele>657.980</ele>
        <time>2020-08-10T13:11:02Z</time>
      </trkpt>
      <trkpt lat="39.461454" lon="-0.971113">
        <ele>660.428</ele>
        <time>2020-08-10T13:11:07Z</time>
      </trkpt>
      <trkpt lat="39.461489" lon="-0.971344">
        <ele>660.189</ele>
        <time>2020-08-10T13:11:13Z</time>
      </trkpt>
      <trkpt lat="39.461540" lon="-0.971594">
        <ele>662.117</ele>
        <time>2020-08-10T13:11:20Z</time>
      </trkpt>
      <trkpt lat="39.461594" lon="-0.971854">
        <ele>663.608</ele>
        <time>2020-08-10T13:11:27Z</time>
      </trkpt>
      <trkpt lat="39.461638" lon="-0.972109">
        <ele>664.577</ele>
        <time>2020-08-10T13:11:34Z</time>
      </trkpt>
      <trkpt lat="39.461678" lon="-0.972341">
        <ele>665.786</ele>
        <time>2020-08-10T13:11:40Z</time>
      </trkpt>
      <trkpt lat="39.461717" lon="-0.972578">
        <ele>665.421</ele>
        <time>2020-08-10T13:11:46Z</time>
      </trkpt>
      <trkpt lat="39.461760" lon="-0.972809">
        <ele>663.750</ele>
        <time>2020-08-10T13:11:52Z</time>
      </trkpt>
      <trkpt lat="39.461814" lon="-0.973039">
        <ele>665.010</ele>
        <time>2020-08-10T13:11:58Z</time>
      </trkpt>
      <trkpt lat="39.461869" lon="-0.973299">
        <ele>666.811</ele>
        <time>2020-08-10T13:12:05Z</time>
      </trkpt>
      <trkpt lat="39.461921" lon="-0.973523">
        <ele>667.262</ele>
        <time>2020-08-10T13:12:11Z</time>
      </trkpt>
      <trkpt lat="39.461974" lon="-0.973756">
        <ele>667.073</ele>
        <time>2020-08-10T13:12:17Z</time>
      </trkpt>
      <trkpt lat="39.462029" lon="-0.973979">
        <ele>665.666</ele>
        <time>2020-08-10T13:12:22Z</time>
      </trkpt>
      <trkpt lat="39.462095" lon="-0.974225">
        <ele>665.629</ele>
        <time>2020-08-10T13:12:27Z</time>
      </trkpt>
      <trkpt lat="39.462157" lon="-0.974456">
        <ele>664.921</ele>
        <time>2020-08-10T13:12:31Z</time>
      </trkpt>
      <trkpt lat="39.462233" lon="-0.974720">
        <ele>663.208</ele>
        <time>2020-08-10T13:12:35Z</time>
      </trkpt>
      <trkpt lat="39.462316" lon="-0.975006">
        <ele>661.611</ele>
        <time>2020-08-10T13:12:39Z</time>
      </trkpt>
      <trkpt lat="39.462382" lon="-0.975240">
        <ele>659.960</ele>
        <time>2020-08-10T13:12:42Z</time>
      </trkpt>
      <trkpt lat="39.462453" lon="-0.975496">
        <ele>657.565</ele>
        <time>2020-08-10T13:12:45Z</time>
      </trkpt>
      <trkpt lat="39.462536" lon="-0.975778">
        <ele>655.414</ele>
        <time>2020-08-10T13:12:48Z</time>
      </trkpt>
      <trkpt lat="39.462633" lon="-0.976099">
        <ele>654.584</ele>
        <time>2020-08-10T13:12:51Z</time>
      </trkpt>
      <trkpt lat="39.462700" lon="-0.976327">
        <ele>652.745</ele>
        <time>2020-08-10T13:12:53Z</time>
      </trkpt>
      <trkpt lat="39.462762" lon="-0.976570">
        <ele>651.286</ele>
        <time>2020-08-10T13:12:55Z</time>
      </trkpt>
      <trkpt lat="39.462826" lon="-0.976824">
        <ele>649.867</ele>
        <time>2020-08-10T13:12:57Z</time>
      </trkpt>
      <trkpt lat="39.462892" lon="-0.977061">
        <ele>649.256</ele>
        <time>2020-08-10T13:12:59Z</time>
      </trkpt>
      <trkpt lat="39.462968" lon="-0.977295">
        <ele>648.759</ele>
        <time>2020-08-10T13:13:01Z</time>
      </trkpt>
      <trkpt lat="39.463029" lon="-0.977529">
        <ele>648.414</ele>
        <time>2020-08-10T13:13:03Z</time>
      </trkpt>
      <trkpt lat="39.463093" lon="-0.977763">
        <ele>649.508</ele>
        <time>2020-08-10T13:13:05Z</time>
      </trkpt>
      <trkpt lat="39.463147" lon="-0.977994">
        <ele>648.170</ele>
        <time>2020-08-10T13:13:07Z</time>
      </trkpt>
      <trkpt lat="39.463246" lon="-0.978313">
        <ele>647.529</ele>
        <time>2020-08-10T13:13:10Z</time>
      </trkpt>
      <trkpt lat="39.463325" lon="-0.978645">
        <ele>647.334</ele>
        <time>2020-08-10T13:13:13Z</time>
      </trkpt>
      <trkpt lat="39.463404" lon="-0.978952">
        <ele>647.153</ele>
        <time>2020-08-10T13:13:16Z</time>
      </trkpt>
      <trkpt lat="39.463473" lon="-0.979246">
        <ele>647.593</ele>
        <time>2020-08-10T13:13:19Z</time>
      </trkpt>
      <trkpt lat="39.463537" lon="-0.979514">
        <ele>648.614</ele>
        <time>2020-08-10T13:13:22Z</time>
      </trkpt>
      <trkpt lat="39.463592" lon="-0.979757">
        <ele>651.085</ele>
        <time>2020-08-10T13:13:25Z</time>
      </trkpt>
      <trkpt lat="39.463647" lon="-0.980033">
        <ele>654.666</ele>
        <time>2020-08-10T13:13:29Z</time>
      </trkpt>
      <trkpt lat="39.463693" lon="-0.980297">
        <ele>656.434</ele>
        <time>2020-08-10T13:13:34Z</time>
      </trkpt>
      <trkpt lat="39.463730" lon="-0.980537">
        <ele>656.755</ele>
        <time>2020-08-10T13:13:39Z</time>
      </trkpt>
      <trkpt lat="39.463773" lon="-0.980795">
        <ele>660.210</ele>
        <time>2020-08-10T13:13:45Z</time>
      </trkpt>
      <trkpt lat="39.463830" lon="-0.981060">
        <ele>659.408</ele>
        <time>2020-08-10T13:13:51Z</time>
      </trkpt>
      <trkpt lat="39.463892" lon="-0.981293">
        <ele>656.228</ele>
        <time>2020-08-10T13:13:56Z</time>
      </trkpt>
      <trkpt lat="39.463953" lon="-0.981524">
        <ele>654.457</ele>
        <time>2020-08-10T13:14:00Z</time>
      </trkpt>
      <trkpt lat="39.463988" lon="-0.981763">
        <ele>654.532</ele>
        <time>2020-08-10T13:14:03Z</time>
      </trkpt>
      <trkpt lat="39.464000" lon="-0.982068">
        <ele>652.111</ele>
        <time>2020-08-10T13:14:06Z</time>
      </trkpt>
      <trkpt lat="39.464006" lon="-0.982308">
        <ele>649.041</ele>
        <time>2020-08-10T13:14:08Z</time>
      </trkpt>
      <trkpt lat="39.464019" lon="-0.982557">
        <ele>646.922</ele>
        <time>2020-08-10T13:14:10Z</time>
      </trkpt>
      <trkpt lat="39.464051" lon="-0.982820">
        <ele>644.883</ele>
        <time>2020-08-10T13:14:12Z</time>
      </trkpt>
      <trkpt lat="39.464147" lon="-0.983071">
        <ele>643.234</ele>
        <time>2020-08-10T13:14:14Z</time>
      </trkpt>
      <trkpt lat="39.464255" lon="-0.983287">
        <ele>642.364</ele>
        <time>2020-08-10T13:14:16Z</time>
      </trkpt>
      <trkpt lat="39.464394" lon="-0.983567">
        <ele>642.606</ele>
        <time>2020-08-10T13:14:19Z</time>
      </trkpt>
      <trkpt lat="39.464514" lon="-0.983821">
        <ele>643.316</ele>
        <time>2020-08-10T13:14:22Z</time>
      </trkpt>
      <trkpt lat="39.464600" lon="-0.984065">
        <ele>644.608</ele>
        <time>2020-08-10T13:14:25Z</time>
      </trkpt>
      <trkpt lat="39.464658" lon="-0.984292">
        <ele>646.061</ele>
        <time>2020-08-10T13:14:28Z</time>
      </trkpt>
      <trkpt lat="39.464731" lon="-0.984563">
        <ele>648.370</ele>
        <time>2020-08-10T13:14:32Z</time>
      </trkpt>
      <trkpt lat="39.464790" lon="-0.984809">
        <ele>650.225</ele>
        <time>2020-08-10T13:14:36Z</time>
      </trkpt>
      <trkpt lat="39.464861" lon="-0.985081">
        <ele>652.064</ele>
        <time>2020-08-10T13:14:41Z</time>
      </trkpt>
      <trkpt lat="39.464917" lon="-0.985329">
        <ele>652.824</ele>
        <time>2020-08-10T13:14:46Z</time>
      </trkpt>
      <trkpt lat="39.464976" lon="-0.985581">
        <ele>653.215</ele>
        <time>2020-08-10T13:14:51Z</time>
      </trkpt>
      <trkpt lat="39.465030" lon="-0.985837">
        <ele>652.396</ele>
        <time>2020-08-10T13:14:56Z</time>
      </trkpt>
      <trkpt lat="39.465086" lon="-0.986063">
        <ele>652.147</ele>
        <time>2020-08-10T13:15:00Z</time>
      </trkpt>
      <trkpt lat="39.465146" lon="-0.986298">
        <ele>652.053</ele>
        <time>2020-08-10T13:15:04Z</time>
      </trkpt>
      <trkpt lat="39.465204" lon="-0.986546">
        <ele>651.804</ele>
        <time>2020-08-10T13:15:08Z</time>
      </trkpt>
      <trkpt lat="39.465266" lon="-0.986779">
        <ele>652.514</ele>
        <time>2020-08-10T13:15:12Z</time>
      </trkpt>
      <trkpt lat="39.465330" lon="-0.987057">
        <ele>652.908</ele>
        <time>2020-08-10T13:15:17Z</time>
      </trkpt>
      <trkpt lat="39.465386" lon="-0.987320">
        <ele>653.410</ele>
        <time>2020-08-10T13:15:22Z</time>
      </trkpt>
      <trkpt lat="39.465447" lon="-0.987544">
        <ele>654.439</ele>
        <time>2020-08-10T13:15:27Z</time>
      </trkpt>
      <trkpt lat="39.465508" lon="-0.987799">
        <ele>656.464</ele>
        <time>2020-08-10T13:15:33Z</time>
      </trkpt>
      <trkpt lat="39.465569" lon="-0.988052">
        <ele>657.553</ele>
        <time>2020-08-10T13:15:39Z</time>
      </trkpt>
      <trkpt lat="39.465632" lon="-0.988303">
        <ele>658.323</ele>
        <time>2020-08-10T13:15:45Z</time>
      </trkpt>
      <trkpt lat="39.465696" lon="-0.988546">
        <ele>659.164</ele>
        <time>2020-08-10T13:15:51Z</time>
      </trkpt>
      <trkpt lat="39.465758" lon="-0.988798">
        <ele>660.325</ele>
        <time>2020-08-10T13:15:57Z</time>
      </trkpt>
      <trkpt lat="39.465817" lon="-0.989047">
        <ele>659.976</ele>
        <time>2020-08-10T13:16:03Z</time>
      </trkpt>
      <trkpt lat="39.465868" lon="-0.989291">
        <ele>660.836</ele>
        <time>2020-08-10T13:16:09Z</time>
      </trkpt>
      <trkpt lat="39.465925" lon="-0.989534">
        <ele>661.717</ele>
        <time>2020-08-10T13:16:15Z</time>
      </trkpt>
      <trkpt lat="39.465981" lon="-0.989782">
        <ele>662.518</ele>
        <time>2020-08-10T13:16:21Z</time>
      </trkpt>
      <trkpt lat="39.466031" lon="-0.990022">
        <ele>663.108</ele>
        <time>2020-08-10T13:16:27Z</time>
      </trkpt>
      <trkpt lat="39.466059" lon="-0.990268">
        <ele>663.298</ele>
        <time>2020-08-10T13:16:33Z</time>
      </trkpt>
      <trkpt lat="39.466071" lon="-0.990515">
        <ele>663.567</ele>
        <time>2020-08-10T13:16:39Z</time>
      </trkpt>
      <trkpt lat="39.466092" lon="-0.990778">
        <ele>663.062</ele>
        <time>2020-08-10T13:16:46Z</time>
      </trkpt>
      <trkpt lat="39.466111" lon="-0.991041">
        <ele>663.531</ele>
        <time>2020-08-10T13:16:54Z</time>
      </trkpt>
      <trkpt lat="39.466142" lon="-0.991286">
        <ele>664.391</ele>
        <time>2020-08-10T13:17:01Z</time>
      </trkpt>
      <trkpt lat="39.466187" lon="-0.991540">
        <ele>666.382</ele>
        <time>2020-08-10T13:17:09Z</time>
      </trkpt>
      <trkpt lat="39.466219" lon="-0.991776">
        <ele>667.423</ele>
        <time>2020-08-10T13:17:16Z</time>
      </trkpt>
      <trkpt lat="39.466280" lon="-0.992013">
        <ele>667.314</ele>
        <time>2020-08-10T13:17:23Z</time>
      </trkpt>
      <trkpt lat="39.466330" lon="-0.992250">
        <ele>667.385</ele>
        <time>2020-08-10T13:17:29Z</time>
      </trkpt>
      <trkpt lat="39.466392" lon="-0.992481">
        <ele>666.289</ele>
        <time>2020-08-10T13:17:34Z</time>
      </trkpt>
      <trkpt lat="39.466474" lon="-0.992723">
        <ele>665.017</ele>
        <time>2020-08-10T13:17:38Z</time>
      </trkpt>
      <trkpt lat="39.466563" lon="-0.992942">
        <ele>662.808</ele>
        <time>2020-08-10T13:17:41Z</time>
      </trkpt>
      <trkpt lat="39.466682" lon="-0.993186">
        <ele>661.363</ele>
        <time>2020-08-10T13:17:44Z</time>
      </trkpt>
      <trkpt lat="39.466809" lon="-0.993465">
        <ele>660.712</ele>
        <time>2020-08-10T13:17:47Z</time>
      </trkpt>
      <trkpt lat="39.466916" lon="-0.993761">
        <ele>659.147</ele>
        <time>2020-08-10T13:17:50Z</time>
      </trkpt>
      <trkpt lat="39.467006" lon="-0.994049">
        <ele>658.896</ele>
        <time>2020-08-10T13:17:53Z</time>
      </trkpt>
      <trkpt lat="39.467076" lon="-0.994311">
        <ele>658.226</ele>
        <time>2020-08-10T13:17:56Z</time>
      </trkpt>
      <trkpt lat="39.467135" lon="-0.994553">
        <ele>659.317</ele>
        <time>2020-08-10T13:17:59Z</time>
      </trkpt>
      <trkpt lat="39.467211" lon="-0.994847">
        <ele>661.128</ele>
        <time>2020-08-10T13:18:03Z</time>
      </trkpt>
      <trkpt lat="39.467277" lon="-0.995123">
        <ele>663.229</ele>
        <time>2020-08-10T13:18:07Z</time>
      </trkpt>
      <trkpt lat="39.467343" lon="-0.995375">
        <ele>664.781</ele>
        <time>2020-08-10T13:18:11Z</time>
      </trkpt>
      <trkpt lat="39.467390" lon="-0.995648">
        <ele>662.761</ele>
        <time>2020-08-10T13:18:16Z</time>
      </trkpt>
      <trkpt lat="39.467446" lon="-0.995909">
        <ele>662.017</ele>
        <time>2020-08-10T13:18:21Z</time>
      </trkpt>
      <trkpt lat="39.467506" lon="-0.996161">
        <ele>661.708</ele>
        <time>2020-08-10T13:18:26Z</time>
      </trkpt>
      <trkpt lat="39.467566" lon="-0.996427">
        <ele>662.413</ele>
        <time>2020-08-10T13:18:31Z</time>
      </trkpt>
      <trkpt lat="39.467634" lon="-0.996698">
        <ele>662.122</ele>
        <time>2020-08-10T13:18:36Z</time>
      </trkpt>
      <trkpt lat="39.467696" lon="-0.996976">
        <ele>662.357</ele>
        <time>2020-08-10T13:18:41Z</time>
      </trkpt>
      <trkpt lat="39.467750" lon="-0.997244">
        <ele>661.136</ele>
        <time>2020-08-10T13:18:46Z</time>
      </trkpt>
      <trkpt lat="39.467818" lon="-0.997521">
        <ele>663.566</ele>
        <time>2020-08-10T13:18:51Z</time>
      </trkpt>
      <trkpt lat="39.467871" lon="-0.997786">
        <ele>662.257</ele>
        <time>2020-08-10T13:18:56Z</time>
      </trkpt>
      <trkpt lat="39.467938" lon="-0.998054">
        <ele>661.358</ele>
        <time>2020-08-10T13:19:01Z</time>
      </trkpt>
      <trkpt lat="39.467996" lon="-0.998278">
        <ele>663.599</ele>
        <time>2020-08-10T13:19:05Z</time>
      </trkpt>
      <trkpt lat="39.468065" lon="-0.998503">
        <ele>665.637</ele>
        <time>2020-08-10T13:19:09Z</time>
      </trkpt>
      <trkpt lat="39.468121" lon="-0.998729">
        <ele>666.049</ele>
        <time>2020-08-10T13:19:13Z</time>
      </trkpt>
      <trkpt lat="39.468179" lon="-0.998956">
        <ele>666.013</ele>
        <time>2020-08-10T13:19:17Z</time>
      </trkpt>
      <trkpt lat="39.468227" lon="-0.999186">
        <ele>665.908</ele>
        <time>2020-08-10T13:19:21Z</time>
      </trkpt>
      <trkpt lat="39.468288" lon="-0.999420">
        <ele>666.948</ele>
        <time>2020-08-10T13:19:25Z</time>
      </trkpt>
      <trkpt lat="39.468345" lon="-0.999651">
        <ele>668.017</ele>
        <time>2020-08-10T13:19:29Z</time>
      </trkpt>
      <trkpt lat="39.468402" lon="-0.999885">
        <ele>668.422</ele>
        <time>2020-08-10T13:19:33Z</time>
      </trkpt>
      <trkpt lat="39.468447" lon="-1.000117">
        <ele>667.621</ele>
        <time>2020-08-10T13:19:37Z</time>
      </trkpt>
      <trkpt lat="39.468503" lon="-1.000355">
        <ele>668.241</ele>
        <time>2020-08-10T13:19:41Z</time>
      </trkpt>
      <trkpt lat="39.468555" lon="-1.000585">
        <ele>668.162</ele>
        <time>2020-08-10T13:19:45Z</time>
      </trkpt>
      <trkpt lat="39.468609" lon="-1.000813">
        <ele>668.923</ele>
        <time>2020-08-10T13:19:49Z</time>
      </trkpt>
      <trkpt lat="39.468661" lon="-1.001042">
        <ele>667.864</ele>
        <time>2020-08-10T13:19:53Z</time>
      </trkpt>
      <trkpt lat="39.468716" lon="-1.001281">
        <ele>667.686</ele>
        <time>2020-08-10T13:19:57Z</time>
      </trkpt>
      <trkpt lat="39.468770" lon="-1.001526">
        <ele>667.460</ele>
        <time>2020-08-10T13:20:01Z</time>
      </trkpt>
      <trkpt lat="39.468828" lon="-1.001792">
        <ele>666.726</ele>
        <time>2020-08-10T13:20:05Z</time>
      </trkpt>
      <trkpt lat="39.468890" lon="-1.002081">
        <ele>666.108</ele>
        <time>2020-08-10T13:20:09Z</time>
      </trkpt>
      <trkpt lat="39.468965" lon="-1.002363">
        <ele>665.593</ele>
        <time>2020-08-10T13:20:13Z</time>
      </trkpt>
      <trkpt lat="39.469029" lon="-1.002635">
        <ele>665.242</ele>
        <time>2020-08-10T13:20:17Z</time>
      </trkpt>
      <trkpt lat="39.469091" lon="-1.002925">
        <ele>665.467</ele>
        <time>2020-08-10T13:20:21Z</time>
      </trkpt>
      <trkpt lat="39.469163" lon="-1.003213">
        <ele>665.366</ele>
        <time>2020-08-10T13:20:25Z</time>
      </trkpt>
      <trkpt lat="39.469237" lon="-1.003500">
        <ele>665.366</ele>
        <time>2020-08-10T13:20:29Z</time>
      </trkpt>
      <trkpt lat="39.469326" lon="-1.003780">
        <ele>665.337</ele>
        <time>2020-08-10T13:20:33Z</time>
      </trkpt>
      <trkpt lat="39.469425" lon="-1.004041">
        <ele>665.398</ele>
        <time>2020-08-10T13:20:37Z</time>
      </trkpt>
      <trkpt lat="39.469534" lon="-1.004363">
        <ele>665.619</ele>
        <time>2020-08-10T13:20:42Z</time>
      </trkpt>
      <trkpt lat="39.469622" lon="-1.004607">
        <ele>665.453</ele>
        <time>2020-08-10T13:20:46Z</time>
      </trkpt>
      <trkpt lat="39.469716" lon="-1.004860">
        <ele>666.004</ele>
        <time>2020-08-10T13:20:50Z</time>
      </trkpt>
      <trkpt lat="39.469803" lon="-1.005112">
        <ele>667.014</ele>
        <time>2020-08-10T13:20:54Z</time>
      </trkpt>
      <trkpt lat="39.469877" lon="-1.005372">
        <ele>667.308</ele>
        <time>2020-08-10T13:20:58Z</time>
      </trkpt>
      <trkpt lat="39.469938" lon="-1.005646">
        <ele>667.090</ele>
        <time>2020-08-10T13:21:02Z</time>
      </trkpt>
      <trkpt lat="39.470005" lon="-1.005910">
        <ele>667.219</ele>
        <time>2020-08-10T13:21:06Z</time>
      </trkpt>
      <trkpt lat="39.470070" lon="-1.006180">
        <ele>667.444</ele>
        <time>2020-08-10T13:21:10Z</time>
      </trkpt>
      <trkpt lat="39.470141" lon="-1.006446">
        <ele>667.573</ele>
        <time>2020-08-10T13:21:14Z</time>
      </trkpt>
      <trkpt lat="39.470209" lon="-1.006705">
        <ele>668.253</ele>
        <time>2020-08-10T13:21:18Z</time>
      </trkpt>
      <trkpt lat="39.470265" lon="-1.006959">
        <ele>668.824</ele>
        <time>2020-08-10T13:21:22Z</time>
      </trkpt>
      <trkpt lat="39.470326" lon="-1.007208">
        <ele>668.665</ele>
        <time>2020-08-10T13:21:26Z</time>
      </trkpt>
      <trkpt lat="39.470384" lon="-1.007458">
        <ele>668.086</ele>
        <time>2020-08-10T13:21:30Z</time>
      </trkpt>
      <trkpt lat="39.470440" lon="-1.007702">
        <ele>666.669</ele>
        <time>2020-08-10T13:21:34Z</time>
      </trkpt>
      <trkpt lat="39.470492" lon="-1.007957">
        <ele>666.404</ele>
        <time>2020-08-10T13:21:38Z</time>
      </trkpt>
      <trkpt lat="39.470558" lon="-1.008211">
        <ele>666.324</ele>
        <time>2020-08-10T13:21:42Z</time>
      </trkpt>
      <trkpt lat="39.470613" lon="-1.008471">
        <ele>666.208</ele>
        <time>2020-08-10T13:21:46Z</time>
      </trkpt>
      <trkpt lat="39.470672" lon="-1.008734">
        <ele>666.251</ele>
        <time>2020-08-10T13:21:50Z</time>
      </trkpt>
      <trkpt lat="39.470737" lon="-1.009007">
        <ele>666.560</ele>
        <time>2020-08-10T13:21:54Z</time>
      </trkpt>
      <trkpt lat="39.470797" lon="-1.009278">
        <ele>666.345</ele>
        <time>2020-08-10T13:21:58Z</time>
      </trkpt>
      <trkpt lat="39.470861" lon="-1.009544">
        <ele>666.294</ele>
        <time>2020-08-10T13:22:02Z</time>
      </trkpt>
      <trkpt lat="39.470924" lon="-1.009800">
        <ele>665.894</ele>
        <time>2020-08-10T13:22:06Z</time>
      </trkpt>
      <trkpt lat="39.470974" lon="-1.010056">
        <ele>665.295</ele>
        <time>2020-08-10T13:22:10Z</time>
      </trkpt>
      <trkpt lat="39.471038" lon="-1.010312">
        <ele>665.276</ele>
        <time>2020-08-10T13:22:14Z</time>
      </trkpt>
      <trkpt lat="39.471099" lon="-1.010550">
        <ele>664.987</ele>
        <time>2020-08-10T13:22:18Z</time>
      </trkpt>
      <trkpt lat="39.471120" lon="-1.010786">
        <ele>664.456</ele>
        <time>2020-08-10T13:22:22Z</time>
      </trkpt>
      <trkpt lat="39.470999" lon="-1.011024">
        <ele>662.159</ele>
        <time>2020-08-10T13:22:27Z</time>
      </trkpt>
      <trkpt lat="39.470804" lon="-1.011130">
        <ele>662.514</ele>
        <time>2020-08-10T13:22:31Z</time>
      </trkpt>
      <trkpt lat="39.470622" lon="-1.011135">
        <ele>662.708</ele>
        <time>2020-08-10T13:22:34Z</time>
      </trkpt>
      <trkpt lat="39.470434" lon="-1.011177">
        <ele>661.860</ele>
        <time>2020-08-10T13:22:37Z</time>
      </trkpt>
      <trkpt lat="39.470250" lon="-1.011223">
        <ele>661.049</ele>
        <time>2020-08-10T13:22:40Z</time>
      </trkpt>
      <trkpt lat="39.470063" lon="-1.011254">
        <ele>661.644</ele>
        <time>2020-08-10T13:22:43Z</time>
      </trkpt>
      <trkpt lat="39.469875" lon="-1.011283">
        <ele>662.933</ele>
        <time>2020-08-10T13:22:46Z</time>
      </trkpt>
      <trkpt lat="39.469677" lon="-1.011310">
        <ele>664.333</ele>
        <time>2020-08-10T13:22:49Z</time>
      </trkpt>
      <trkpt lat="39.469489" lon="-1.011347">
        <ele>663.554</ele>
        <time>2020-08-10T13:22:52Z</time>
      </trkpt>
      <trkpt lat="39.469261" lon="-1.011381">
        <ele>663.215</ele>
        <time>2020-08-10T13:22:56Z</time>
      </trkpt>
      <trkpt lat="39.469156" lon="-1.011571">
        <ele>660.876</ele>
        <time>2020-08-10T13:23:02Z</time>
      </trkpt>
      <trkpt lat="39.469192" lon="-1.011808">
        <ele>657.849</ele>
        <time>2020-08-10T13:23:08Z</time>
      </trkpt>
      <trkpt lat="39.468999" lon="-1.011871">
        <ele>657.402</ele>
        <time>2020-08-10T13:23:13Z</time>
      </trkpt>
      <trkpt lat="39.468787" lon="-1.011873">
        <ele>658.022</ele>
        <time>2020-08-10T13:23:18Z</time>
      </trkpt>
      <trkpt lat="39.468967" lon="-1.011894">
        <ele>660.408</ele>
        <time>2020-08-10T13:41:34Z</time>
      </trkpt>
      <trkpt lat="39.469157" lon="-1.011873">
        <ele>663.869</ele>
        <time>2020-08-10T13:41:43Z</time>
      </trkpt>
      <trkpt lat="39.469339" lon="-1.011836">
        <ele>661.668</ele>
        <time>2020-08-10T13:41:53Z</time>
      </trkpt>
      <trkpt lat="39.469521" lon="-1.011754">
        <ele>665.533</ele>
        <time>2020-08-10T13:42:31Z</time>
      </trkpt>
      <trkpt lat="39.469705" lon="-1.011723">
        <ele>668.172</ele>
        <time>2020-08-10T13:42:38Z</time>
      </trkpt>
      <trkpt lat="39.469900" lon="-1.011701">
        <ele>665.342</ele>
        <time>2020-08-10T13:42:45Z</time>
      </trkpt>
      <trkpt lat="39.470086" lon="-1.011688">
        <ele>664.133</ele>
        <time>2020-08-10T13:42:57Z</time>
      </trkpt>
      <trkpt lat="39.470034" lon="-1.011935">
        <ele>657.434</ele>
        <time>2020-08-10T13:43:18Z</time>
      </trkpt>
      <trkpt lat="39.470022" lon="-1.012171">
        <ele>657.385</ele>
        <time>2020-08-10T13:43:23Z</time>
      </trkpt>
      <trkpt lat="39.469994" lon="-1.012405">
        <ele>656.125</ele>
        <time>2020-08-10T13:43:28Z</time>
      </trkpt>
      <trkpt lat="39.469947" lon="-1.012644">
        <ele>656.926</ele>
        <time>2020-08-10T13:43:33Z</time>
      </trkpt>
      <trkpt lat="39.469911" lon="-1.012913">
        <ele>656.608</ele>
        <time>2020-08-10T13:43:38Z</time>
      </trkpt>
      <trkpt lat="39.469932" lon="-1.013189">
        <ele>654.708</ele>
        <time>2020-08-10T13:43:43Z</time>
      </trkpt>
      <trkpt lat="39.469988" lon="-1.013429">
        <ele>653.917</ele>
        <time>2020-08-10T13:43:48Z</time>
      </trkpt>
      <trkpt lat="39.470095" lon="-1.013651">
        <ele>654.396</ele>
        <time>2020-08-10T13:43:53Z</time>
      </trkpt>
      <trkpt lat="39.470258" lon="-1.013839">
        <ele>652.921</ele>
        <time>2020-08-10T13:43:58Z</time>
      </trkpt>
      <trkpt lat="39.470434" lon="-1.014013">
        <ele>651.910</ele>
        <time>2020-08-10T13:44:03Z</time>
      </trkpt>
      <trkpt lat="39.470637" lon="-1.014136">
        <ele>649.650</ele>
        <time>2020-08-10T13:44:08Z</time>
      </trkpt>
      <trkpt lat="39.470850" lon="-1.014212">
        <ele>649.131</ele>
        <time>2020-08-10T13:44:13Z</time>
      </trkpt>
      <trkpt lat="39.471053" lon="-1.014230">
        <ele>649.132</ele>
        <time>2020-08-10T13:44:18Z</time>
      </trkpt>
      <trkpt lat="39.471246" lon="-1.014192">
        <ele>649.353</ele>
        <time>2020-08-10T13:44:23Z</time>
      </trkpt>
      <trkpt lat="39.471435" lon="-1.014150">
        <ele>651.934</ele>
        <time>2020-08-10T13:44:29Z</time>
      </trkpt>
      <trkpt lat="39.471625" lon="-1.014128">
        <ele>652.955</ele>
        <time>2020-08-10T13:44:36Z</time>
      </trkpt>
      <trkpt lat="39.471799" lon="-1.014227">
        <ele>655.210</ele>
        <time>2020-08-10T13:44:43Z</time>
      </trkpt>
      <trkpt lat="39.471955" lon="-1.014368">
        <ele>656.108</ele>
        <time>2020-08-10T13:44:50Z</time>
      </trkpt>
      <trkpt lat="39.472054" lon="-1.014569">
        <ele>655.778</ele>
        <time>2020-08-10T13:44:57Z</time>
      </trkpt>
      <trkpt lat="39.472123" lon="-1.014820">
        <ele>655.967</ele>
        <time>2020-08-10T13:45:04Z</time>
      </trkpt>
      <trkpt lat="39.472189" lon="-1.015080">
        <ele>657.462</ele>
        <time>2020-08-10T13:45:10Z</time>
      </trkpt>
      <trkpt lat="39.472235" lon="-1.015338">
        <ele>658.051</ele>
        <time>2020-08-10T13:45:15Z</time>
      </trkpt>
      <trkpt lat="39.472291" lon="-1.015611">
        <ele>657.611</ele>
        <time>2020-08-10T13:45:20Z</time>
      </trkpt>
      <trkpt lat="39.472351" lon="-1.015892">
        <ele>657.152</ele>
        <time>2020-08-10T13:45:25Z</time>
      </trkpt>
      <trkpt lat="39.472407" lon="-1.016170">
        <ele>656.053</ele>
        <time>2020-08-10T13:45:30Z</time>
      </trkpt>
      <trkpt lat="39.472464" lon="-1.016442">
        <ele>656.434</ele>
        <time>2020-08-10T13:45:35Z</time>
      </trkpt>
      <trkpt lat="39.472508" lon="-1.016682">
        <ele>656.011</ele>
        <time>2020-08-10T13:45:39Z</time>
      </trkpt>
      <trkpt lat="39.472559" lon="-1.016920">
        <ele>656.221</ele>
        <time>2020-08-10T13:45:43Z</time>
      </trkpt>
      <trkpt lat="39.472609" lon="-1.017155">
        <ele>656.203</ele>
        <time>2020-08-10T13:45:47Z</time>
      </trkpt>
      <trkpt lat="39.472652" lon="-1.017399">
        <ele>656.008</ele>
        <time>2020-08-10T13:45:51Z</time>
      </trkpt>
      <trkpt lat="39.472694" lon="-1.017627">
        <ele>655.756</ele>
        <time>2020-08-10T13:45:55Z</time>
      </trkpt>
      <trkpt lat="39.472733" lon="-1.017868">
        <ele>655.855</ele>
        <time>2020-08-10T13:45:59Z</time>
      </trkpt>
      <trkpt lat="39.472773" lon="-1.018110">
        <ele>655.750</ele>
        <time>2020-08-10T13:46:03Z</time>
      </trkpt>
      <trkpt lat="39.472812" lon="-1.018340">
        <ele>655.989</ele>
        <time>2020-08-10T13:46:07Z</time>
      </trkpt>
      <trkpt lat="39.472861" lon="-1.018566">
        <ele>655.869</ele>
        <time>2020-08-10T13:46:11Z</time>
      </trkpt>
      <trkpt lat="39.472905" lon="-1.018799">
        <ele>656.390</ele>
        <time>2020-08-10T13:46:15Z</time>
      </trkpt>
      <trkpt lat="39.472959" lon="-1.019024">
        <ele>656.891</ele>
        <time>2020-08-10T13:46:19Z</time>
      </trkpt>
      <trkpt lat="39.473016" lon="-1.019303">
        <ele>656.672</ele>
        <time>2020-08-10T13:46:24Z</time>
      </trkpt>
      <trkpt lat="39.473076" lon="-1.019570">
        <ele>657.437</ele>
        <time>2020-08-10T13:46:29Z</time>
      </trkpt>
      <trkpt lat="39.473129" lon="-1.019825">
        <ele>656.549</ele>
        <time>2020-08-10T13:46:34Z</time>
      </trkpt>
      <trkpt lat="39.473194" lon="-1.020087">
        <ele>656.713</ele>
        <time>2020-08-10T13:46:39Z</time>
      </trkpt>
      <trkpt lat="39.473253" lon="-1.020339">
        <ele>655.808</ele>
        <time>2020-08-10T13:46:44Z</time>
      </trkpt>
      <trkpt lat="39.473314" lon="-1.020608">
        <ele>654.628</ele>
        <time>2020-08-10T13:46:49Z</time>
      </trkpt>
      <trkpt lat="39.473379" lon="-1.020883">
        <ele>655.697</ele>
        <time>2020-08-10T13:46:54Z</time>
      </trkpt>
      <trkpt lat="39.473439" lon="-1.021145">
        <ele>656.922</ele>
        <time>2020-08-10T13:46:59Z</time>
      </trkpt>
      <trkpt lat="39.473500" lon="-1.021408">
        <ele>657.151</ele>
        <time>2020-08-10T13:47:04Z</time>
      </trkpt>
      <trkpt lat="39.473570" lon="-1.021678">
        <ele>657.581</ele>
        <time>2020-08-10T13:47:09Z</time>
      </trkpt>
      <trkpt lat="39.473619" lon="-1.021937">
        <ele>656.922</ele>
        <time>2020-08-10T13:47:14Z</time>
      </trkpt>
      <trkpt lat="39.473684" lon="-1.022201">
        <ele>657.723</ele>
        <time>2020-08-10T13:47:19Z</time>
      </trkpt>
      <trkpt lat="39.473746" lon="-1.022452">
        <ele>657.724</ele>
        <time>2020-08-10T13:47:24Z</time>
      </trkpt>
      <trkpt lat="39.473793" lon="-1.022686">
        <ele>657.618</ele>
        <time>2020-08-10T13:47:29Z</time>
      </trkpt>
      <trkpt lat="39.473854" lon="-1.022916">
        <ele>658.398</ele>
        <time>2020-08-10T13:47:34Z</time>
      </trkpt>
      <trkpt lat="39.473907" lon="-1.023180">
        <ele>657.717</ele>
        <time>2020-08-10T13:47:40Z</time>
      </trkpt>
      <trkpt lat="39.473965" lon="-1.023442">
        <ele>657.608</ele>
        <time>2020-08-10T13:47:46Z</time>
      </trkpt>
      <trkpt lat="39.474037" lon="-1.023702">
        <ele>658.246</ele>
        <time>2020-08-10T13:47:52Z</time>
      </trkpt>
      <trkpt lat="39.474101" lon="-1.023963">
        <ele>658.585</ele>
        <time>2020-08-10T13:47:58Z</time>
      </trkpt>
      <trkpt lat="39.474150" lon="-1.024212">
        <ele>658.840</ele>
        <time>2020-08-10T13:48:04Z</time>
      </trkpt>
      <trkpt lat="39.474200" lon="-1.024453">
        <ele>658.859</ele>
        <time>2020-08-10T13:48:10Z</time>
      </trkpt>
      <trkpt lat="39.474251" lon="-1.024708">
        <ele>658.879</ele>
        <time>2020-08-10T13:48:16Z</time>
      </trkpt>
      <trkpt lat="39.474309" lon="-1.024970">
        <ele>659.210</ele>
        <time>2020-08-10T13:48:22Z</time>
      </trkpt>
      <trkpt lat="39.474369" lon="-1.025227">
        <ele>659.161</ele>
        <time>2020-08-10T13:48:28Z</time>
      </trkpt>
      <trkpt lat="39.474433" lon="-1.025454">
        <ele>658.742</ele>
        <time>2020-08-10T13:48:33Z</time>
      </trkpt>
      <trkpt lat="39.474496" lon="-1.025720">
        <ele>658.238</ele>
        <time>2020-08-10T13:48:39Z</time>
      </trkpt>
      <trkpt lat="39.474557" lon="-1.025953">
        <ele>658.170</ele>
        <time>2020-08-10T13:48:44Z</time>
      </trkpt>
      <trkpt lat="39.474612" lon="-1.026193">
        <ele>658.517</ele>
        <time>2020-08-10T13:48:49Z</time>
      </trkpt>
      <trkpt lat="39.474667" lon="-1.026432">
        <ele>658.008</ele>
        <time>2020-08-10T13:48:54Z</time>
      </trkpt>
      <trkpt lat="39.474721" lon="-1.026664">
        <ele>657.788</ele>
        <time>2020-08-10T13:48:59Z</time>
      </trkpt>
      <trkpt lat="39.474768" lon="-1.026912">
        <ele>658.437</ele>
        <time>2020-08-10T13:49:04Z</time>
      </trkpt>
      <trkpt lat="39.474831" lon="-1.027150">
        <ele>657.522</ele>
        <time>2020-08-10T13:49:09Z</time>
      </trkpt>
      <trkpt lat="39.474888" lon="-1.027378">
        <ele>657.771</ele>
        <time>2020-08-10T13:49:14Z</time>
      </trkpt>
      <trkpt lat="39.474948" lon="-1.027608">
        <ele>657.491</ele>
        <time>2020-08-10T13:49:19Z</time>
      </trkpt>
      <trkpt lat="39.475005" lon="-1.027875">
        <ele>657.552</ele>
        <time>2020-08-10T13:49:25Z</time>
      </trkpt>
      <trkpt lat="39.475068" lon="-1.028137">
        <ele>657.493</ele>
        <time>2020-08-10T13:49:31Z</time>
      </trkpt>
      <trkpt lat="39.475130" lon="-1.028383">
        <ele>657.264</ele>
        <time>2020-08-10T13:49:37Z</time>
      </trkpt>
      <trkpt lat="39.475187" lon="-1.028623">
        <ele>657.284</ele>
        <time>2020-08-10T13:49:43Z</time>
      </trkpt>
      <trkpt lat="39.475240" lon="-1.028856">
        <ele>659.007</ele>
        <time>2020-08-10T13:49:49Z</time>
      </trkpt>
      <trkpt lat="39.475300" lon="-1.029109">
        <ele>661.117</ele>
        <time>2020-08-10T13:49:56Z</time>
      </trkpt>
      <trkpt lat="39.475347" lon="-1.029335">
        <ele>661.308</ele>
        <time>2020-08-10T13:50:02Z</time>
      </trkpt>
      <trkpt lat="39.475370" lon="-1.029592">
        <ele>662.313</ele>
        <time>2020-08-10T13:50:09Z</time>
      </trkpt>
      <trkpt lat="39.475340" lon="-1.029843">
        <ele>663.922</ele>
        <time>2020-08-10T13:50:16Z</time>
      </trkpt>
      <trkpt lat="39.475274" lon="-1.030084">
        <ele>664.717</ele>
        <time>2020-08-10T13:50:23Z</time>
      </trkpt>
      <trkpt lat="39.475174" lon="-1.030295">
        <ele>665.416</ele>
        <time>2020-08-10T13:50:30Z</time>
      </trkpt>
      <trkpt lat="39.475135" lon="-1.030530">
        <ele>666.116</ele>
        <time>2020-08-10T13:50:37Z</time>
      </trkpt>
      <trkpt lat="39.475246" lon="-1.030741">
        <ele>666.757</ele>
        <time>2020-08-10T13:50:44Z</time>
      </trkpt>
      <trkpt lat="39.475449" lon="-1.030703">
        <ele>667.758</ele>
        <time>2020-08-10T13:50:51Z</time>
      </trkpt>
      <trkpt lat="39.475628" lon="-1.030647">
        <ele>668.279</ele>
        <time>2020-08-10T13:50:57Z</time>
      </trkpt>
      <trkpt lat="39.475827" lon="-1.030566">
        <ele>668.965</ele>
        <time>2020-08-10T13:51:03Z</time>
      </trkpt>
      <trkpt lat="39.476036" lon="-1.030487">
        <ele>669.668</ele>
        <time>2020-08-10T13:51:09Z</time>
      </trkpt>
      <trkpt lat="39.476229" lon="-1.030413">
        <ele>668.814</ele>
        <time>2020-08-10T13:51:14Z</time>
      </trkpt>
      <trkpt lat="39.476434" lon="-1.030357">
        <ele>667.808</ele>
        <time>2020-08-10T13:51:19Z</time>
      </trkpt>
      <trkpt lat="39.476587" lon="-1.030480">
        <ele>666.651</ele>
        <time>2020-08-10T13:51:23Z</time>
      </trkpt>
      <trkpt lat="39.476617" lon="-1.030725">
        <ele>666.030</ele>
        <time>2020-08-10T13:51:27Z</time>
      </trkpt>
      <trkpt lat="39.476591" lon="-1.030999">
        <ele>664.575</ele>
        <time>2020-08-10T13:51:31Z</time>
      </trkpt>
      <trkpt lat="39.476578" lon="-1.031299">
        <ele>663.934</ele>
        <time>2020-08-10T13:51:35Z</time>
      </trkpt>
      <trkpt lat="39.476569" lon="-1.031545">
        <ele>663.844</ele>
        <time>2020-08-10T13:51:38Z</time>
      </trkpt>
      <trkpt lat="39.476570" lon="-1.031808">
        <ele>663.675</ele>
        <time>2020-08-10T13:51:41Z</time>
      </trkpt>
      <trkpt lat="39.476573" lon="-1.032071">
        <ele>662.966</ele>
        <time>2020-08-10T13:51:44Z</time>
      </trkpt>
      <trkpt lat="39.476584" lon="-1.032311">
        <ele>662.027</ele>
        <time>2020-08-10T13:51:47Z</time>
      </trkpt>
      <trkpt lat="39.476606" lon="-1.032594">
        <ele>660.033</ele>
        <time>2020-08-10T13:51:51Z</time>
      </trkpt>
      <trkpt lat="39.476649" lon="-1.032856">
        <ele>659.623</ele>
        <time>2020-08-10T13:51:55Z</time>
      </trkpt>
      <trkpt lat="39.476695" lon="-1.033129">
        <ele>660.015</ele>
        <time>2020-08-10T13:51:59Z</time>
      </trkpt>
      <trkpt lat="39.476769" lon="-1.033392">
        <ele>661.108</ele>
        <time>2020-08-10T13:52:03Z</time>
      </trkpt>
      <trkpt lat="39.476827" lon="-1.033640">
        <ele>661.588</ele>
        <time>2020-08-10T13:52:07Z</time>
      </trkpt>
      <trkpt lat="39.476888" lon="-1.033887">
        <ele>662.167</ele>
        <time>2020-08-10T13:52:11Z</time>
      </trkpt>
      <trkpt lat="39.476951" lon="-1.034127">
        <ele>662.322</ele>
        <time>2020-08-10T13:52:15Z</time>
      </trkpt>
      <trkpt lat="39.477002" lon="-1.034403">
        <ele>664.161</ele>
        <time>2020-08-10T13:52:20Z</time>
      </trkpt>
      <trkpt lat="39.477078" lon="-1.034654">
        <ele>664.651</ele>
        <time>2020-08-10T13:52:25Z</time>
      </trkpt>
      <trkpt lat="39.477142" lon="-1.034905">
        <ele>664.682</ele>
        <time>2020-08-10T13:52:30Z</time>
      </trkpt>
      <trkpt lat="39.477196" lon="-1.035156">
        <ele>664.623</ele>
        <time>2020-08-10T13:52:35Z</time>
      </trkpt>
      <trkpt lat="39.477247" lon="-1.035411">
        <ele>665.244</ele>
        <time>2020-08-10T13:52:40Z</time>
      </trkpt>
      <trkpt lat="39.477308" lon="-1.035662">
        <ele>665.527</ele>
        <time>2020-08-10T13:52:45Z</time>
      </trkpt>
      <trkpt lat="39.477369" lon="-1.035905">
        <ele>666.168</ele>
        <time>2020-08-10T13:52:50Z</time>
      </trkpt>
      <trkpt lat="39.477436" lon="-1.036155">
        <ele>666.914</ele>
        <time>2020-08-10T13:52:55Z</time>
      </trkpt>
      <trkpt lat="39.477508" lon="-1.036406">
        <ele>666.808</ele>
        <time>2020-08-10T13:53:00Z</time>
      </trkpt>
      <trkpt lat="39.477580" lon="-1.036666">
        <ele>666.327</ele>
        <time>2020-08-10T13:53:05Z</time>
      </trkpt>
      <trkpt lat="39.477633" lon="-1.036890">
        <ele>666.656</ele>
        <time>2020-08-10T13:53:09Z</time>
      </trkpt>
      <trkpt lat="39.477696" lon="-1.037167">
        <ele>666.191</ele>
        <time>2020-08-10T13:53:14Z</time>
      </trkpt>
      <trkpt lat="39.477757" lon="-1.037394">
        <ele>665.760</ele>
        <time>2020-08-10T13:53:18Z</time>
      </trkpt>
      <trkpt lat="39.477814" lon="-1.037629">
        <ele>665.580</ele>
        <time>2020-08-10T13:53:22Z</time>
      </trkpt>
      <trkpt lat="39.477878" lon="-1.037877">
        <ele>666.651</ele>
        <time>2020-08-10T13:53:26Z</time>
      </trkpt>
      <trkpt lat="39.477943" lon="-1.038125">
        <ele>667.282</ele>
        <time>2020-08-10T13:53:30Z</time>
      </trkpt>
      <trkpt lat="39.478015" lon="-1.038370">
        <ele>666.763</ele>
        <time>2020-08-10T13:53:34Z</time>
      </trkpt>
      <trkpt lat="39.478086" lon="-1.038611">
        <ele>666.069</ele>
        <time>2020-08-10T13:53:38Z</time>
      </trkpt>
      <trkpt lat="39.478155" lon="-1.038864">
        <ele>665.204</ele>
        <time>2020-08-10T13:53:42Z</time>
      </trkpt>
      <trkpt lat="39.478236" lon="-1.039141">
        <ele>663.324</ele>
        <time>2020-08-10T13:53:46Z</time>
      </trkpt>
      <trkpt lat="39.478313" lon="-1.039386">
        <ele>661.208</ele>
        <time>2020-08-10T13:53:49Z</time>
      </trkpt>
      <trkpt lat="39.478401" lon="-1.039662">
        <ele>659.271</ele>
        <time>2020-08-10T13:53:52Z</time>
      </trkpt>
      <trkpt lat="39.478502" lon="-1.039975">
        <ele>657.510</ele>
        <time>2020-08-10T13:53:55Z</time>
      </trkpt>
      <trkpt lat="39.478610" lon="-1.040303">
        <ele>651.165</ele>
        <time>2020-08-10T13:53:58Z</time>
      </trkpt>
      <trkpt lat="39.478684" lon="-1.040542">
        <ele>649.694</ele>
        <time>2020-08-10T13:54:00Z</time>
      </trkpt>
      <trkpt lat="39.478769" lon="-1.040786">
        <ele>647.354</ele>
        <time>2020-08-10T13:54:02Z</time>
      </trkpt>
      <trkpt lat="39.478864" lon="-1.041035">
        <ele>646.345</ele>
        <time>2020-08-10T13:54:04Z</time>
      </trkpt>
      <trkpt lat="39.478968" lon="-1.041296">
        <ele>645.146</ele>
        <time>2020-08-10T13:54:06Z</time>
      </trkpt>
      <trkpt lat="39.479068" lon="-1.041562">
        <ele>644.157</ele>
        <time>2020-08-10T13:54:08Z</time>
      </trkpt>
      <trkpt lat="39.479157" lon="-1.041837">
        <ele>641.617</ele>
        <time>2020-08-10T13:54:10Z</time>
      </trkpt>
      <trkpt lat="39.479251" lon="-1.042123">
        <ele>639.587</ele>
        <time>2020-08-10T13:54:12Z</time>
      </trkpt>
      <trkpt lat="39.479340" lon="-1.042399">
        <ele>638.415</ele>
        <time>2020-08-10T13:54:14Z</time>
      </trkpt>
      <trkpt lat="39.479426" lon="-1.042662">
        <ele>637.208</ele>
        <time>2020-08-10T13:54:16Z</time>
      </trkpt>
      <trkpt lat="39.479543" lon="-1.042906">
        <ele>636.546</ele>
        <time>2020-08-10T13:54:18Z</time>
      </trkpt>
      <trkpt lat="39.479707" lon="-1.043083">
        <ele>635.225</ele>
        <time>2020-08-10T13:54:20Z</time>
      </trkpt>
      <trkpt lat="39.479850" lon="-1.043269">
        <ele>636.640</ele>
        <time>2020-08-10T13:54:22Z</time>
      </trkpt>
      <trkpt lat="39.479888" lon="-1.043557">
        <ele>640.379</ele>
        <time>2020-08-10T13:54:25Z</time>
      </trkpt>
      <trkpt lat="39.479894" lon="-1.043812">
        <ele>644.049</ele>
        <time>2020-08-10T13:54:29Z</time>
      </trkpt>
      <trkpt lat="39.479894" lon="-1.044068">
        <ele>646.730</ele>
        <time>2020-08-10T13:54:35Z</time>
      </trkpt>
      <trkpt lat="39.479910" lon="-1.044315">
        <ele>646.491</ele>
        <time>2020-08-10T13:54:39Z</time>
      </trkpt>
      <trkpt lat="39.479939" lon="-1.044602">
        <ele>645.582</ele>
        <time>2020-08-10T13:54:43Z</time>
      </trkpt>
      <trkpt lat="39.479961" lon="-1.044853">
        <ele>643.958</ele>
        <time>2020-08-10T13:54:46Z</time>
      </trkpt>
      <trkpt lat="39.479960" lon="-1.045154">
        <ele>642.552</ele>
        <time>2020-08-10T13:54:49Z</time>
      </trkpt>
      <trkpt lat="39.479957" lon="-1.045489">
        <ele>640.617</ele>
        <time>2020-08-10T13:54:52Z</time>
      </trkpt>
      <trkpt lat="39.479955" lon="-1.045840">
        <ele>638.908</ele>
        <time>2020-08-10T13:54:55Z</time>
      </trkpt>
      <trkpt lat="39.479964" lon="-1.046084">
        <ele>637.240</ele>
        <time>2020-08-10T13:54:57Z</time>
      </trkpt>
      <trkpt lat="39.479949" lon="-1.046428">
        <ele>635.559</ele>
        <time>2020-08-10T13:55:00Z</time>
      </trkpt>
      <trkpt lat="39.479930" lon="-1.046760">
        <ele>634.884</ele>
        <time>2020-08-10T13:55:03Z</time>
      </trkpt>
      <trkpt lat="39.479885" lon="-1.047072">
        <ele>633.793</ele>
        <time>2020-08-10T13:55:06Z</time>
      </trkpt>
      <trkpt lat="39.479834" lon="-1.047373">
        <ele>631.913</ele>
        <time>2020-08-10T13:55:09Z</time>
      </trkpt>
      <trkpt lat="39.479782" lon="-1.047678">
        <ele>629.674</ele>
        <time>2020-08-10T13:55:12Z</time>
      </trkpt>
      <trkpt lat="39.479750" lon="-1.047909">
        <ele>627.335</ele>
        <time>2020-08-10T13:55:14Z</time>
      </trkpt>
      <trkpt lat="39.479718" lon="-1.048146">
        <ele>624.686</ele>
        <time>2020-08-10T13:55:16Z</time>
      </trkpt>
      <trkpt lat="39.479684" lon="-1.048389">
        <ele>621.235</ele>
        <time>2020-08-10T13:55:18Z</time>
      </trkpt>
      <trkpt lat="39.479637" lon="-1.048711">
        <ele>618.086</ele>
        <time>2020-08-10T13:55:21Z</time>
      </trkpt>
      <trkpt lat="39.479563" lon="-1.048947">
        <ele>619.014</ele>
        <time>2020-08-10T13:55:24Z</time>
      </trkpt>
      <trkpt lat="39.479363" lon="-1.048923">
        <ele>619.608</ele>
        <time>2020-08-10T13:55:29Z</time>
      </trkpt>
      <trkpt lat="39.479180" lon="-1.048813">
        <ele>618.228</ele>
        <time>2020-08-10T13:55:34Z</time>
      </trkpt>
      <trkpt lat="39.479022" lon="-1.048968">
        <ele>618.897</ele>
        <time>2020-08-10T13:55:48Z</time>
      </trkpt>
      <trkpt lat="39.479018" lon="-1.049208">
        <ele>625.192</ele>
        <time>2020-08-10T13:56:00Z</time>
      </trkpt>
      <trkpt lat="39.478994" lon="-1.049463">
        <ele>628.751</ele>
        <time>2020-08-10T13:56:12Z</time>
      </trkpt>
      <trkpt lat="39.478981" lon="-1.049704">
        <ele>629.051</ele>
        <time>2020-08-10T13:56:21Z</time>
      </trkpt>
      <trkpt lat="39.478944" lon="-1.049955">
        <ele>630.912</ele>
        <time>2020-08-10T13:56:31Z</time>
      </trkpt>
      <trkpt lat="39.478914" lon="-1.050196">
        <ele>631.963</ele>
        <time>2020-08-10T13:56:41Z</time>
      </trkpt>
      <trkpt lat="39.478919" lon="-1.050448">
        <ele>632.264</ele>
        <time>2020-08-10T13:56:50Z</time>
      </trkpt>
      <trkpt lat="39.478927" lon="-1.050698">
        <ele>633.143</ele>
        <time>2020-08-10T13:56:58Z</time>
      </trkpt>
      <trkpt lat="39.478944" lon="-1.050930">
        <ele>634.264</ele>
        <time>2020-08-10T13:57:06Z</time>
      </trkpt>
      <trkpt lat="39.478966" lon="-1.051181">
        <ele>633.710</ele>
        <time>2020-08-10T13:57:15Z</time>
      </trkpt>
      <trkpt lat="39.478984" lon="-1.051421">
        <ele>636.108</ele>
        <time>2020-08-10T13:57:24Z</time>
      </trkpt>
      <trkpt lat="39.479010" lon="-1.051653">
        <ele>637.629</ele>
        <time>2020-08-10T13:57:32Z</time>
      </trkpt>
      <trkpt lat="39.479048" lon="-1.051884">
        <ele>638.448</ele>
        <time>2020-08-10T13:57:40Z</time>
      </trkpt>
      <trkpt lat="39.479094" lon="-1.052123">
        <ele>640.063</ele>
        <time>2020-08-10T13:57:49Z</time>
      </trkpt>
      <trkpt lat="39.479141" lon="-1.052366">
        <ele>641.852</ele>
        <time>2020-08-10T13:57:59Z</time>
      </trkpt>
      <trkpt lat="39.479215" lon="-1.052593">
        <ele>642.292</ele>
        <time>2020-08-10T13:58:09Z</time>
      </trkpt>
      <trkpt lat="39.479305" lon="-1.052823">
        <ele>642.773</ele>
        <time>2020-08-10T13:58:17Z</time>
      </trkpt>
      <trkpt lat="39.479398" lon="-1.053050">
        <ele>643.824</ele>
        <time>2020-08-10T13:58:25Z</time>
      </trkpt>
      <trkpt lat="39.479502" lon="-1.053281">
        <ele>644.225</ele>
        <time>2020-08-10T13:58:33Z</time>
      </trkpt>
      <trkpt lat="39.479596" lon="-1.053493">
        <ele>644.166</ele>
        <time>2020-08-10T13:58:40Z</time>
      </trkpt>
      <trkpt lat="39.479683" lon="-1.053719">
        <ele>645.029</ele>
        <time>2020-08-10T13:58:47Z</time>
      </trkpt>
      <trkpt lat="39.479780" lon="-1.053940">
        <ele>647.121</ele>
        <time>2020-08-10T13:58:54Z</time>
      </trkpt>
      <trkpt lat="39.479888" lon="-1.054146">
        <ele>647.108</ele>
        <time>2020-08-10T13:59:01Z</time>
      </trkpt>
      <trkpt lat="39.479984" lon="-1.054358">
        <ele>646.971</ele>
        <time>2020-08-10T13:59:07Z</time>
      </trkpt>
      <trkpt lat="39.480081" lon="-1.054577">
        <ele>647.060</ele>
        <time>2020-08-10T13:59:13Z</time>
      </trkpt>
      <trkpt lat="39.480182" lon="-1.054806">
        <ele>647.445</ele>
        <time>2020-08-10T13:59:20Z</time>
      </trkpt>
      <trkpt lat="39.480281" lon="-1.055033">
        <ele>648.384</ele>
        <time>2020-08-10T13:59:28Z</time>
      </trkpt>
      <trkpt lat="39.480376" lon="-1.055268">
        <ele>649.764</ele>
        <time>2020-08-10T13:59:36Z</time>
      </trkpt>
      <trkpt lat="39.480470" lon="-1.055473">
        <ele>650.585</ele>
        <time>2020-08-10T13:59:43Z</time>
      </trkpt>
      <trkpt lat="39.480557" lon="-1.055689">
        <ele>650.856</ele>
        <time>2020-08-10T13:59:51Z</time>
      </trkpt>
      <trkpt lat="39.480677" lon="-1.055881">
        <ele>651.887</ele>
        <time>2020-08-10T13:59:59Z</time>
      </trkpt>
      <trkpt lat="39.480788" lon="-1.056086">
        <ele>653.011</ele>
        <time>2020-08-10T14:00:06Z</time>
      </trkpt>
      <trkpt lat="39.480878" lon="-1.056311">
        <ele>654.921</ele>
        <time>2020-08-10T14:00:14Z</time>
      </trkpt>
      <trkpt lat="39.480973" lon="-1.056528">
        <ele>656.403</ele>
        <time>2020-08-10T14:00:22Z</time>
      </trkpt>
      <trkpt lat="39.481075" lon="-1.056749">
        <ele>657.808</ele>
        <time>2020-08-10T14:00:30Z</time>
      </trkpt>
      <trkpt lat="39.481160" lon="-1.056984">
        <ele>658.866</ele>
        <time>2020-08-10T14:00:38Z</time>
      </trkpt>
      <trkpt lat="39.481249" lon="-1.057203">
        <ele>659.515</ele>
        <time>2020-08-10T14:00:46Z</time>
      </trkpt>
      <trkpt lat="39.481325" lon="-1.057440">
        <ele>660.290</ele>
        <time>2020-08-10T14:00:54Z</time>
      </trkpt>
      <trkpt lat="39.481398" lon="-1.057672">
        <ele>661.769</ele>
        <time>2020-08-10T14:01:02Z</time>
      </trkpt>
      <trkpt lat="39.481479" lon="-1.057888">
        <ele>663.229</ele>
        <time>2020-08-10T14:01:10Z</time>
      </trkpt>
      <trkpt lat="39.481552" lon="-1.058116">
        <ele>664.780</ele>
        <time>2020-08-10T14:01:18Z</time>
      </trkpt>
      <trkpt lat="39.481634" lon="-1.058347">
        <ele>665.271</ele>
        <time>2020-08-10T14:01:26Z</time>
      </trkpt>
      <trkpt lat="39.481733" lon="-1.058550">
        <ele>666.732</ele>
        <time>2020-08-10T14:01:34Z</time>
      </trkpt>
      <trkpt lat="39.481847" lon="-1.058745">
        <ele>667.133</ele>
        <time>2020-08-10T14:01:42Z</time>
      </trkpt>
      <trkpt lat="39.481964" lon="-1.058942">
        <ele>667.723</ele>
        <time>2020-08-10T14:01:50Z</time>
      </trkpt>
      <trkpt lat="39.482066" lon="-1.059150">
        <ele>668.615</ele>
        <time>2020-08-10T14:01:58Z</time>
      </trkpt>
      <trkpt lat="39.482150" lon="-1.059370">
        <ele>668.508</ele>
        <time>2020-08-10T14:02:06Z</time>
      </trkpt>
      <trkpt lat="39.482252" lon="-1.059594">
        <ele>670.278</ele>
        <time>2020-08-10T14:02:14Z</time>
      </trkpt>
      <trkpt lat="39.482336" lon="-1.059801">
        <ele>671.157</ele>
        <time>2020-08-10T14:02:21Z</time>
      </trkpt>
      <trkpt lat="39.482433" lon="-1.060037">
        <ele>672.912</ele>
        <time>2020-08-10T14:02:29Z</time>
      </trkpt>
      <trkpt lat="39.482523" lon="-1.060251">
        <ele>674.141</ele>
        <time>2020-08-10T14:02:36Z</time>
      </trkpt>
      <trkpt lat="39.482613" lon="-1.060475">
        <ele>674.471</ele>
        <time>2020-08-10T14:02:43Z</time>
      </trkpt>
      <trkpt lat="39.482698" lon="-1.060686">
        <ele>674.082</ele>
        <time>2020-08-10T14:02:49Z</time>
      </trkpt>
      <trkpt lat="39.482787" lon="-1.060910">
        <ele>674.893</ele>
        <time>2020-08-10T14:02:56Z</time>
      </trkpt>
      <trkpt lat="39.482876" lon="-1.061125">
        <ele>675.784</ele>
        <time>2020-08-10T14:03:03Z</time>
      </trkpt>
      <trkpt lat="39.482960" lon="-1.061356">
        <ele>676.116</ele>
        <time>2020-08-10T14:03:09Z</time>
      </trkpt>
      <trkpt lat="39.483034" lon="-1.061595">
        <ele>676.876</ele>
        <time>2020-08-10T14:03:16Z</time>
      </trkpt>
      <trkpt lat="39.483125" lon="-1.061833">
        <ele>676.413</ele>
        <time>2020-08-10T14:03:23Z</time>
      </trkpt>
      <trkpt lat="39.483225" lon="-1.062071">
        <ele>676.708</ele>
        <time>2020-08-10T14:03:30Z</time>
      </trkpt>
      <trkpt lat="39.483317" lon="-1.062316">
        <ele>678.676</ele>
        <time>2020-08-10T14:03:37Z</time>
      </trkpt>
      <trkpt lat="39.483400" lon="-1.062538">
        <ele>679.125</ele>
        <time>2020-08-10T14:03:44Z</time>
      </trkpt>
      <trkpt lat="39.483482" lon="-1.062751">
        <ele>680.360</ele>
        <time>2020-08-10T14:03:51Z</time>
      </trkpt>
      <trkpt lat="39.483572" lon="-1.062958">
        <ele>679.019</ele>
        <time>2020-08-10T14:03:57Z</time>
      </trkpt>
      <trkpt lat="39.483668" lon="-1.063174">
        <ele>678.579</ele>
        <time>2020-08-10T14:04:01Z</time>
      </trkpt>
      <trkpt lat="39.483790" lon="-1.063454">
        <ele>676.070</ele>
        <time>2020-08-10T14:04:05Z</time>
      </trkpt>
      <trkpt lat="39.483901" lon="-1.063768">
        <ele>672.811</ele>
        <time>2020-08-10T14:04:08Z</time>
      </trkpt>
      <trkpt lat="39.483980" lon="-1.064020">
        <ele>670.062</ele>
        <time>2020-08-10T14:04:10Z</time>
      </trkpt>
      <trkpt lat="39.484074" lon="-1.064281">
        <ele>668.293</ele>
        <time>2020-08-10T14:04:12Z</time>
      </trkpt>
      <trkpt lat="39.484161" lon="-1.064526">
        <ele>667.265</ele>
        <time>2020-08-10T14:04:14Z</time>
      </trkpt>
      <trkpt lat="39.484237" lon="-1.064751">
        <ele>666.521</ele>
        <time>2020-08-10T14:04:16Z</time>
      </trkpt>
      <trkpt lat="39.484328" lon="-1.065061">
        <ele>667.308</ele>
        <time>2020-08-10T14:04:19Z</time>
      </trkpt>
      <trkpt lat="39.484400" lon="-1.065284">
        <ele>668.844</ele>
        <time>2020-08-10T14:04:22Z</time>
      </trkpt>
      <trkpt lat="39.484462" lon="-1.065515">
        <ele>671.433</ele>
        <time>2020-08-10T14:04:27Z</time>
      </trkpt>
      <trkpt lat="39.484497" lon="-1.065752">
        <ele>674.958</ele>
        <time>2020-08-10T14:04:36Z</time>
      </trkpt>
      <trkpt lat="39.484517" lon="-1.066002">
        <ele>677.767</ele>
        <time>2020-08-10T14:04:47Z</time>
      </trkpt>
      <trkpt lat="39.484515" lon="-1.066249">
        <ele>680.637</ele>
        <time>2020-08-10T14:04:57Z</time>
      </trkpt>
      <trkpt lat="39.484512" lon="-1.066513">
        <ele>680.658</ele>
        <time>2020-08-10T14:05:05Z</time>
      </trkpt>
      <trkpt lat="39.484505" lon="-1.066784">
        <ele>679.769</ele>
        <time>2020-08-10T14:05:11Z</time>
      </trkpt>
      <trkpt lat="39.484504" lon="-1.067032">
        <ele>678.030</ele>
        <time>2020-08-10T14:05:15Z</time>
      </trkpt>
      <trkpt lat="39.484502" lon="-1.067320">
        <ele>676.145</ele>
        <time>2020-08-10T14:05:19Z</time>
      </trkpt>
      <trkpt lat="39.484502" lon="-1.067586">
        <ele>674.447</ele>
        <time>2020-08-10T14:05:22Z</time>
      </trkpt>
      <trkpt lat="39.484496" lon="-1.067852">
        <ele>673.211</ele>
        <time>2020-08-10T14:05:25Z</time>
      </trkpt>
      <trkpt lat="39.484480" lon="-1.068124">
        <ele>672.308</ele>
        <time>2020-08-10T14:05:28Z</time>
      </trkpt>
      <trkpt lat="39.484451" lon="-1.068390">
        <ele>671.949</ele>
        <time>2020-08-10T14:05:31Z</time>
      </trkpt>
      <trkpt lat="39.484429" lon="-1.068653">
        <ele>671.338</ele>
        <time>2020-08-10T14:05:34Z</time>
      </trkpt>
      <trkpt lat="39.484421" lon="-1.068914">
        <ele>670.953</ele>
        <time>2020-08-10T14:05:37Z</time>
      </trkpt>
      <trkpt lat="39.484404" lon="-1.069170">
        <ele>669.962</ele>
        <time>2020-08-10T14:05:40Z</time>
      </trkpt>
      <trkpt lat="39.484379" lon="-1.069428">
        <ele>669.152</ele>
        <time>2020-08-10T14:05:43Z</time>
      </trkpt>
      <trkpt lat="39.484375" lon="-1.069683">
        <ele>667.693</ele>
        <time>2020-08-10T14:05:46Z</time>
      </trkpt>
      <trkpt lat="39.484372" lon="-1.069929">
        <ele>666.784</ele>
        <time>2020-08-10T14:05:49Z</time>
      </trkpt>
      <trkpt lat="39.484347" lon="-1.070197">
        <ele>666.725</ele>
        <time>2020-08-10T14:05:52Z</time>
      </trkpt>
      <trkpt lat="39.484337" lon="-1.070442">
        <ele>666.337</ele>
        <time>2020-08-10T14:05:55Z</time>
      </trkpt>
      <trkpt lat="39.484484" lon="-1.070631">
        <ele>667.249</ele>
        <time>2020-08-10T14:06:00Z</time>
      </trkpt>
      <trkpt lat="39.484538" lon="-1.070889">
        <ele>666.013</ele>
        <time>2020-08-10T14:06:05Z</time>
      </trkpt>
      <trkpt lat="39.484522" lon="-1.071168">
        <ele>664.708</ele>
        <time>2020-08-10T14:06:09Z</time>
      </trkpt>
      <trkpt lat="39.484509" lon="-1.071460">
        <ele>663.068</ele>
        <time>2020-08-10T14:06:13Z</time>
      </trkpt>
      <trkpt lat="39.484502" lon="-1.071769">
        <ele>662.657</ele>
        <time>2020-08-10T14:06:17Z</time>
      </trkpt>
      <trkpt lat="39.484490" lon="-1.072007">
        <ele>662.012</ele>
        <time>2020-08-10T14:06:20Z</time>
      </trkpt>
      <trkpt lat="39.484481" lon="-1.072247">
        <ele>661.681</ele>
        <time>2020-08-10T14:06:23Z</time>
      </trkpt>
      <trkpt lat="39.484475" lon="-1.072495">
        <ele>660.981</ele>
        <time>2020-08-10T14:06:26Z</time>
      </trkpt>
      <trkpt lat="39.484462" lon="-1.072737">
        <ele>659.752</ele>
        <time>2020-08-10T14:06:29Z</time>
      </trkpt>
      <trkpt lat="39.484459" lon="-1.072972">
        <ele>658.673</ele>
        <time>2020-08-10T14:06:32Z</time>
      </trkpt>
      <trkpt lat="39.484457" lon="-1.073268">
        <ele>657.974</ele>
        <time>2020-08-10T14:06:36Z</time>
      </trkpt>
      <trkpt lat="39.484461" lon="-1.073537">
        <ele>657.921</ele>
        <time>2020-08-10T14:06:40Z</time>
      </trkpt>
      <trkpt lat="39.484471" lon="-1.073800">
        <ele>658.141</ele>
        <time>2020-08-10T14:06:44Z</time>
      </trkpt>
      <trkpt lat="39.484491" lon="-1.074056">
        <ele>658.105</ele>
        <time>2020-08-10T14:06:48Z</time>
      </trkpt>
      <trkpt lat="39.484516" lon="-1.074299">
        <ele>658.908</ele>
        <time>2020-08-10T14:06:52Z</time>
      </trkpt>
      <trkpt lat="39.484539" lon="-1.074554">
        <ele>659.457</ele>
        <time>2020-08-10T14:06:57Z</time>
      </trkpt>
      <trkpt lat="39.484562" lon="-1.074788">
        <ele>660.216</ele>
        <time>2020-08-10T14:07:02Z</time>
      </trkpt>
      <trkpt lat="39.484578" lon="-1.075047">
        <ele>661.641</ele>
        <time>2020-08-10T14:07:08Z</time>
      </trkpt>
      <trkpt lat="39.484601" lon="-1.075308">
        <ele>662.210</ele>
        <time>2020-08-10T14:07:14Z</time>
      </trkpt>
      <trkpt lat="39.484625" lon="-1.075561">
        <ele>662.670</ele>
        <time>2020-08-10T14:07:20Z</time>
      </trkpt>
      <trkpt lat="39.484653" lon="-1.075814">
        <ele>662.741</ele>
        <time>2020-08-10T14:07:26Z</time>
      </trkpt>
      <trkpt lat="39.484684" lon="-1.076086">
        <ele>662.832</ele>
        <time>2020-08-10T14:07:32Z</time>
      </trkpt>
      <trkpt lat="39.484696" lon="-1.076320">
        <ele>663.113</ele>
        <time>2020-08-10T14:07:37Z</time>
      </trkpt>
      <trkpt lat="39.484718" lon="-1.076567">
        <ele>661.728</ele>
        <time>2020-08-10T14:07:42Z</time>
      </trkpt>
      <trkpt lat="39.484735" lon="-1.076812">
        <ele>661.189</ele>
        <time>2020-08-10T14:07:47Z</time>
      </trkpt>
      <trkpt lat="39.484752" lon="-1.077069">
        <ele>661.317</ele>
        <time>2020-08-10T14:07:53Z</time>
      </trkpt>
      <trkpt lat="39.484775" lon="-1.077331">
        <ele>662.008</ele>
        <time>2020-08-10T14:07:58Z</time>
      </trkpt>
      <trkpt lat="39.484802" lon="-1.077612">
        <ele>663.137</ele>
        <time>2020-08-10T14:08:03Z</time>
      </trkpt>
      <trkpt lat="39.484828" lon="-1.077872">
        <ele>664.186</ele>
        <time>2020-08-10T14:08:07Z</time>
      </trkpt>
      <trkpt lat="39.484847" lon="-1.078143">
        <ele>663.171</ele>
        <time>2020-08-10T14:08:11Z</time>
      </trkpt>
      <trkpt lat="39.484862" lon="-1.078447">
        <ele>662.560</ele>
        <time>2020-08-10T14:08:15Z</time>
      </trkpt>
      <trkpt lat="39.484866" lon="-1.078682">
        <ele>660.670</ele>
        <time>2020-08-10T14:08:18Z</time>
      </trkpt>
      <trkpt lat="39.484881" lon="-1.078930">
        <ele>658.471</ele>
        <time>2020-08-10T14:08:21Z</time>
      </trkpt>
      <trkpt lat="39.484896" lon="-1.079197">
        <ele>658.132</ele>
        <time>2020-08-10T14:08:24Z</time>
      </trkpt>
      <trkpt lat="39.484915" lon="-1.079484">
        <ele>658.093</ele>
        <time>2020-08-10T14:08:27Z</time>
      </trkpt>
      <trkpt lat="39.484934" lon="-1.079770">
        <ele>658.057</ele>
        <time>2020-08-10T14:08:30Z</time>
      </trkpt>
      <trkpt lat="39.484954" lon="-1.080074">
        <ele>656.900</ele>
        <time>2020-08-10T14:08:33Z</time>
      </trkpt>
      <trkpt lat="39.484965" lon="-1.080362">
        <ele>656.220</ele>
        <time>2020-08-10T14:08:36Z</time>
      </trkpt>
      <trkpt lat="39.484979" lon="-1.080661">
        <ele>655.508</ele>
        <time>2020-08-10T14:08:39Z</time>
      </trkpt>
      <trkpt lat="39.484988" lon="-1.080950">
        <ele>654.910</ele>
        <time>2020-08-10T14:08:42Z</time>
      </trkpt>
      <trkpt lat="39.485014" lon="-1.081241">
        <ele>654.869</ele>
        <time>2020-08-10T14:08:45Z</time>
      </trkpt>
      <trkpt lat="39.485039" lon="-1.081518">
        <ele>654.094</ele>
        <time>2020-08-10T14:08:48Z</time>
      </trkpt>
      <trkpt lat="39.485052" lon="-1.081799">
        <ele>652.673</ele>
        <time>2020-08-10T14:08:51Z</time>
      </trkpt>
      <trkpt lat="39.485066" lon="-1.082060">
        <ele>651.673</ele>
        <time>2020-08-10T14:08:54Z</time>
      </trkpt>
      <trkpt lat="39.485086" lon="-1.082324">
        <ele>651.614</ele>
        <time>2020-08-10T14:08:57Z</time>
      </trkpt>
      <trkpt lat="39.485099" lon="-1.082569">
        <ele>650.995</ele>
        <time>2020-08-10T14:09:00Z</time>
      </trkpt>
      <trkpt lat="39.485119" lon="-1.082813">
        <ele>651.096</ele>
        <time>2020-08-10T14:09:03Z</time>
      </trkpt>
      <trkpt lat="39.485132" lon="-1.083115">
        <ele>650.575</ele>
        <time>2020-08-10T14:09:07Z</time>
      </trkpt>
      <trkpt lat="39.485151" lon="-1.083417">
        <ele>650.328</ele>
        <time>2020-08-10T14:09:11Z</time>
      </trkpt>
      <trkpt lat="39.485163" lon="-1.083715">
        <ele>649.320</ele>
        <time>2020-08-10T14:09:15Z</time>
      </trkpt>
      <trkpt lat="39.485173" lon="-1.084010">
        <ele>648.408</ele>
        <time>2020-08-10T14:09:19Z</time>
      </trkpt>
      <trkpt lat="39.485196" lon="-1.084241">
        <ele>647.852</ele>
        <time>2020-08-10T14:09:22Z</time>
      </trkpt>
      <trkpt lat="39.485300" lon="-1.084516">
        <ele>647.681</ele>
        <time>2020-08-10T14:09:26Z</time>
      </trkpt>
      <trkpt lat="39.485398" lon="-1.084785">
        <ele>647.846</ele>
        <time>2020-08-10T14:09:30Z</time>
      </trkpt>
      <trkpt lat="39.485316" lon="-1.085061">
        <ele>648.825</ele>
        <time>2020-08-10T14:09:34Z</time>
      </trkpt>
      <trkpt lat="39.485230" lon="-1.085321">
        <ele>649.295</ele>
        <time>2020-08-10T14:09:38Z</time>
      </trkpt>
      <trkpt lat="39.485253" lon="-1.085600">
        <ele>648.656</ele>
        <time>2020-08-10T14:09:42Z</time>
      </trkpt>
      <trkpt lat="39.485280" lon="-1.085884">
        <ele>648.297</ele>
        <time>2020-08-10T14:09:46Z</time>
      </trkpt>
      <trkpt lat="39.485321" lon="-1.086165">
        <ele>646.828</ele>
        <time>2020-08-10T14:09:50Z</time>
      </trkpt>
      <trkpt lat="39.485361" lon="-1.086434">
        <ele>646.999</ele>
        <time>2020-08-10T14:09:54Z</time>
      </trkpt>
      <trkpt lat="39.485389" lon="-1.086695">
        <ele>647.207</ele>
        <time>2020-08-10T14:09:58Z</time>
      </trkpt>
      <trkpt lat="39.485391" lon="-1.086955">
        <ele>648.127</ele>
        <time>2020-08-10T14:10:02Z</time>
      </trkpt>
      <trkpt lat="39.485398" lon="-1.087221">
        <ele>648.408</ele>
        <time>2020-08-10T14:10:06Z</time>
      </trkpt>
      <trkpt lat="39.485415" lon="-1.087474">
        <ele>648.134</ele>
        <time>2020-08-10T14:10:10Z</time>
      </trkpt>
      <trkpt lat="39.485435" lon="-1.087729">
        <ele>648.073</ele>
        <time>2020-08-10T14:10:14Z</time>
      </trkpt>
      <trkpt lat="39.485449" lon="-1.087994">
        <ele>647.918</ele>
        <time>2020-08-10T14:10:18Z</time>
      </trkpt>
      <trkpt lat="39.485471" lon="-1.088266">
        <ele>647.117</ele>
        <time>2020-08-10T14:10:22Z</time>
      </trkpt>
      <trkpt lat="39.485519" lon="-1.088523">
        <ele>646.187</ele>
        <time>2020-08-10T14:10:26Z</time>
      </trkpt>
      <trkpt lat="39.485463" lon="-1.088782">
        <ele>645.438</ele>
        <time>2020-08-10T14:10:30Z</time>
      </trkpt>
      <trkpt lat="39.485460" lon="-1.089063">
        <ele>646.159</ele>
        <time>2020-08-10T14:10:34Z</time>
      </trkpt>
      <trkpt lat="39.485476" lon="-1.089320">
        <ele>645.990</ele>
        <time>2020-08-10T14:10:38Z</time>
      </trkpt>
      <trkpt lat="39.485499" lon="-1.089567">
        <ele>645.175</ele>
        <time>2020-08-10T14:10:42Z</time>
      </trkpt>
      <trkpt lat="39.485517" lon="-1.089826">
        <ele>644.728</ele>
        <time>2020-08-10T14:10:46Z</time>
      </trkpt>
      <trkpt lat="39.485526" lon="-1.090097">
        <ele>645.620</ele>
        <time>2020-08-10T14:10:50Z</time>
      </trkpt>
      <trkpt lat="39.485539" lon="-1.090397">
        <ele>645.408</ele>
        <time>2020-08-10T14:10:54Z</time>
      </trkpt>
      <trkpt lat="39.485548" lon="-1.090643">
        <ele>644.022</ele>
        <time>2020-08-10T14:10:57Z</time>
      </trkpt>
      <trkpt lat="39.485567" lon="-1.090899">
        <ele>642.761</ele>
        <time>2020-08-10T14:11:00Z</time>
      </trkpt>
      <trkpt lat="39.485583" lon="-1.091173">
        <ele>640.636</ele>
        <time>2020-08-10T14:11:03Z</time>
      </trkpt>
      <trkpt lat="39.485608" lon="-1.091452">
        <ele>638.815</ele>
        <time>2020-08-10T14:11:06Z</time>
      </trkpt>
      <trkpt lat="39.485633" lon="-1.091754">
        <ele>637.945</ele>
        <time>2020-08-10T14:11:09Z</time>
      </trkpt>
      <trkpt lat="39.485683" lon="-1.092048">
        <ele>636.156</ele>
        <time>2020-08-10T14:11:12Z</time>
      </trkpt>
      <trkpt lat="39.485794" lon="-1.092338">
        <ele>634.867</ele>
        <time>2020-08-10T14:11:15Z</time>
      </trkpt>
      <trkpt lat="39.485924" lon="-1.092625">
        <ele>633.538</ele>
        <time>2020-08-10T14:11:18Z</time>
      </trkpt>
      <trkpt lat="39.486068" lon="-1.092919">
        <ele>632.268</ele>
        <time>2020-08-10T14:11:21Z</time>
      </trkpt>
      <trkpt lat="39.486199" lon="-1.093220">
        <ele>630.542</ele>
        <time>2020-08-10T14:11:24Z</time>
      </trkpt>
      <trkpt lat="39.486313" lon="-1.093504">
        <ele>632.026</ele>
        <time>2020-08-10T14:11:27Z</time>
      </trkpt>
      <trkpt lat="39.486425" lon="-1.093750">
        <ele>634.008</ele>
        <time>2020-08-10T14:11:30Z</time>
      </trkpt>
      <trkpt lat="39.486518" lon="-1.093980">
        <ele>634.161</ele>
        <time>2020-08-10T14:11:33Z</time>
      </trkpt>
      <trkpt lat="39.486614" lon="-1.094188">
        <ele>633.820</ele>
        <time>2020-08-10T14:11:36Z</time>
      </trkpt>
      <trkpt lat="39.486743" lon="-1.094442">
        <ele>633.995</ele>
        <time>2020-08-10T14:11:40Z</time>
      </trkpt>
      <trkpt lat="39.486848" lon="-1.094675">
        <ele>635.394</ele>
        <time>2020-08-10T14:11:44Z</time>
      </trkpt>
      <trkpt lat="39.486960" lon="-1.094864">
        <ele>636.964</ele>
        <time>2020-08-10T14:11:49Z</time>
      </trkpt>
      <trkpt lat="39.487052" lon="-1.095079">
        <ele>637.345</ele>
        <time>2020-08-10T14:11:55Z</time>
      </trkpt>
      <trkpt lat="39.487157" lon="-1.095277">
        <ele>638.276</ele>
        <time>2020-08-10T14:12:02Z</time>
      </trkpt>
      <trkpt lat="39.487253" lon="-1.095492">
        <ele>636.247</ele>
        <time>2020-08-10T14:12:09Z</time>
      </trkpt>
      <trkpt lat="39.487347" lon="-1.095725">
        <ele>637.137</ele>
        <time>2020-08-10T14:12:17Z</time>
      </trkpt>
      <trkpt lat="39.487447" lon="-1.095948">
        <ele>641.749</ele>
        <time>2020-08-10T14:12:26Z</time>
      </trkpt>
      <trkpt lat="39.487511" lon="-1.096171">
        <ele>644.413</ele>
        <time>2020-08-10T14:12:34Z</time>
      </trkpt>
      <trkpt lat="39.487580" lon="-1.096390">
        <ele>643.408</ele>
        <time>2020-08-10T14:12:40Z</time>
      </trkpt>
      <trkpt lat="39.487695" lon="-1.096582">
        <ele>644.188</ele>
        <time>2020-08-10T14:12:47Z</time>
      </trkpt>
      <trkpt lat="39.487809" lon="-1.096782">
        <ele>644.767</ele>
        <time>2020-08-10T14:12:54Z</time>
      </trkpt>
      <trkpt lat="39.487894" lon="-1.096989">
        <ele>644.692</ele>
        <time>2020-08-10T14:13:00Z</time>
      </trkpt>
      <trkpt lat="39.488002" lon="-1.097220">
        <ele>642.761</ele>
        <time>2020-08-10T14:13:06Z</time>
      </trkpt>
      <trkpt lat="39.488098" lon="-1.097422">
        <ele>644.581</ele>
        <time>2020-08-10T14:13:11Z</time>
      </trkpt>
      <trkpt lat="39.488183" lon="-1.097682">
        <ele>645.772</ele>
        <time>2020-08-10T14:13:16Z</time>
      </trkpt>
      <trkpt lat="39.488263" lon="-1.097940">
        <ele>644.593</ele>
        <time>2020-08-10T14:13:21Z</time>
      </trkpt>
      <trkpt lat="39.488362" lon="-1.098174">
        <ele>645.564</ele>
        <time>2020-08-10T14:13:27Z</time>
      </trkpt>
      <trkpt lat="39.488461" lon="-1.098401">
        <ele>647.772</ele>
        <time>2020-08-10T14:13:33Z</time>
      </trkpt>
      <trkpt lat="39.488539" lon="-1.098619">
        <ele>647.713</ele>
        <time>2020-08-10T14:13:38Z</time>
      </trkpt>
      <trkpt lat="39.488629" lon="-1.098849">
        <ele>649.914</ele>
        <time>2020-08-10T14:13:44Z</time>
      </trkpt>
      <trkpt lat="39.488523" lon="-1.099059">
        <ele>648.108</ele>
        <time>2020-08-10T14:13:52Z</time>
      </trkpt>
      <trkpt lat="39.488397" lon="-1.099250">
        <ele>649.752</ele>
        <time>2020-08-10T14:13:58Z</time>
      </trkpt>
      <trkpt lat="39.488448" lon="-1.099486">
        <ele>650.521</ele>
        <time>2020-08-10T14:14:04Z</time>
      </trkpt>
      <trkpt lat="39.488429" lon="-1.099722">
        <ele>652.976</ele>
        <time>2020-08-10T14:14:13Z</time>
      </trkpt>
      <trkpt lat="39.488270" lon="-1.099898">
        <ele>655.285</ele>
        <time>2020-08-10T14:14:20Z</time>
      </trkpt>
      <trkpt lat="39.488171" lon="-1.100095">
        <ele>653.155</ele>
        <time>2020-08-10T14:14:28Z</time>
      </trkpt>
      <trkpt lat="39.488235" lon="-1.100333">
        <ele>647.086</ele>
        <time>2020-08-10T14:14:41Z</time>
      </trkpt>
      <trkpt lat="39.488350" lon="-1.100560">
        <ele>643.827</ele>
        <time>2020-08-10T14:15:15Z</time>
      </trkpt>
      <trkpt lat="39.525435" lon="-0.467254">
        <ele>83.033</ele>
        <time>2022-06-15T19:50:27Z</time>
      </trkpt>
      <trkpt lat="39.524640" lon="-0.468821">
        <ele>73.323</ele>
        <time>2022-06-15T19:50:47Z</time>
      </trkpt>
      <trkpt lat="39.523606" lon="-0.469850">
        <ele>70.115</ele>
        <time>2022-06-15T19:51:07Z</time>
      </trkpt>
      <trkpt lat="39.522902" lon="-0.470644">
        <ele>66.509</ele>
        <time>2022-06-15T19:51:27Z</time>
      </trkpt>
      <trkpt lat="39.522124" lon="-0.471524">
        <ele>70.174</ele>
        <time>2022-06-15T19:51:47Z</time>
      </trkpt>
      <trkpt lat="39.522993" lon="-0.472994">
        <ele>77.693</ele>
        <time>2022-06-15T19:52:07Z</time>
      </trkpt>
      <trkpt lat="39.524044" lon="-0.474646">
        <ele>72.418</ele>
        <time>2022-06-15T19:52:27Z</time>
      </trkpt>
      <trkpt lat="39.523415" lon="-0.475612">
        <ele>71.838</ele>
        <time>2022-06-15T19:52:47Z</time>
      </trkpt>
      <trkpt lat="39.523655" lon="-0.476148">
        <ele>81.677</ele>
        <time>2022-06-15T19:53:07Z</time>
      </trkpt>
      <trkpt lat="39.522662" lon="-0.477511">
        <ele>87.121</ele>
        <time>2022-06-15T19:53:27Z</time>
      </trkpt>
      <trkpt lat="39.523084" lon="-0.479022">
        <ele>96.538</ele>
        <time>2022-06-15T19:53:47Z</time>
      </trkpt>
      <trkpt lat="39.523712" lon="-0.480329">
        <ele>96.436</ele>
        <time>2022-06-15T19:54:07Z</time>
      </trkpt>
      <trkpt lat="39.524172" lon="-0.481208">
        <ele>96.323</ele>
        <time>2022-06-15T19:54:27Z</time>
      </trkpt>
      <trkpt lat="39.524487" lon="-0.481056">
        <ele>95.677</ele>
        <time>2022-06-15T19:54:47Z</time>
      </trkpt>
      <trkpt lat="39.524934" lon="-0.481748">
        <ele>98.061</ele>
        <time>2022-06-15T19:55:07Z</time>
      </trkpt>
      <trkpt lat="39.523207" lon="-0.483392">
        <ele>104.227</ele>
        <time>2022-06-15T19:55:27Z</time>
      </trkpt>
      <trkpt lat="39.521848" lon="-0.484900">
        <ele>102.609</ele>
        <time>2022-06-15T19:55:47Z</time>
      </trkpt>
      <trkpt lat="39.521186" lon="-0.486005">
        <ele>100.448</ele>
        <time>2022-06-15T19:56:07Z</time>
      </trkpt>
      <trkpt lat="39.521526" lon="-0.487045">
        <ele>98.027</ele>
        <time>2022-06-15T19:56:27Z</time>
      </trkpt>
      <trkpt lat="39.520404" lon="-0.489299">
        <ele>99.212</ele>
        <time>2022-06-15T19:56:47Z</time>
      </trkpt>
      <trkpt lat="39.519643" lon="-0.490834">
        <ele>87.622</ele>
        <time>2022-06-15T19:57:07Z</time>
      </trkpt>
      <trkpt lat="39.520090" lon="-0.491274">
        <ele>85.991</ele>
        <time>2022-06-15T19:57:27Z</time>
      </trkpt>
      <trkpt lat="39.520115" lon="-0.491467">
        <ele>87.265</ele>
        <time>2022-06-15T19:57:47Z</time>
      </trkpt>
      <trkpt lat="39.519063" lon="-0.491435">
        <ele>82.962</ele>
        <time>2022-06-15T19:58:07Z</time>
      </trkpt>
      <trkpt lat="39.517921" lon="-0.491842">
        <ele>83.250</ele>
        <time>2022-06-15T19:58:27Z</time>
      </trkpt>
      <trkpt lat="39.517623" lon="-0.491520">
        <ele>83.727</ele>
        <time>2022-06-15T19:58:47Z</time>
      </trkpt>
      <trkpt lat="39.515683" lon="-0.492682">
        <ele>72.545</ele>
        <time>2022-06-15T19:59:07Z</time>
      </trkpt>
      <trkpt lat="39.513900" lon="-0.493863">
        <ele>65.047</ele>
        <time>2022-06-15T19:59:27Z</time>
      </trkpt>
      <trkpt lat="39.513751" lon="-0.495119">
        <ele>64.311</ele>
        <time>2022-06-15T19:59:47Z</time>
      </trkpt>
      <trkpt lat="39.514049" lon="-0.495655">
        <ele>66.009</ele>
        <time>2022-06-15T20:00:07Z</time>
      </trkpt>
      <trkpt lat="39.514240" lon="-0.497554">
        <ele>59.985</ele>
        <time>2022-06-15T20:00:27Z</time>
      </trkpt>
      <trkpt lat="39.513117" lon="-0.498309">
        <ele>55.194</ele>
        <time>2022-06-15T20:00:47Z</time>
      </trkpt>
      <trkpt lat="39.513250" lon="-0.501152">
        <ele>54.899</ele>
        <time>2022-06-15T20:01:07Z</time>
      </trkpt>
      <trkpt lat="39.513837" lon="-0.502107">
        <ele>51.289</ele>
        <time>2022-06-15T20:01:27Z</time>
      </trkpt>
      <trkpt lat="39.515253" lon="-0.503577">
        <ele>50.088</ele>
        <time>2022-06-15T20:01:47Z</time>
      </trkpt>
      <trkpt lat="39.517156" lon="-0.503952">
        <ele>57.312</ele>
        <time>2022-06-15T20:02:07Z</time>
      </trkpt>
      <trkpt lat="39.517707" lon="-0.504018">
        <ele>54.029</ele>
        <time>2022-06-15T20:02:27Z</time>
      </trkpt>
      <trkpt lat="39.518137" lon="-0.504469">
        <ele>51.077</ele>
        <time>2022-06-15T20:02:47Z</time>
      </trkpt>
      <trkpt lat="39.517723" lon="-0.505230">
        <ele>56.874</ele>
        <time>2022-06-15T20:03:07Z</time>
      </trkpt>
      <trkpt lat="39.517169" lon="-0.505424">
        <ele>53.974</ele>
        <time>2022-06-15T20:03:27Z</time>
      </trkpt>
      <trkpt lat="39.516987" lon="-0.506014">
        <ele>54.556</ele>
        <time>2022-06-15T20:03:47Z</time>
      </trkpt>
      <trkpt lat="39.516407" lon="-0.506303">
        <ele>54.321</ele>
        <time>2022-06-15T20:04:07Z</time>
      </trkpt>
      <trkpt lat="39.516567" lon="-0.507607">
        <ele>65.309</ele>
        <time>2022-06-15T20:04:27Z</time>
      </trkpt>
      <trkpt lat="39.516318" lon="-0.507950">
        <ele>66.028</ele>
        <time>2022-06-15T20:04:47Z</time>
      </trkpt>
      <trkpt lat="39.515333" lon="-0.507961">
        <ele>63.987</ele>
        <time>2022-06-15T20:05:07Z</time>
      </trkpt>
      <trkpt lat="39.514663" lon="-0.508046">
        <ele>62.442</ele>
        <time>2022-06-15T20:05:27Z</time>
      </trkpt>
      <trkpt lat="39.514067" lon="-0.507671">
        <ele>67.382</ele>
        <time>2022-06-15T20:05:47Z</time>
      </trkpt>
      <trkpt lat="39.513717" lon="-0.507946">
        <ele>72.941</ele>
        <time>2022-06-15T20:06:07Z</time>
      </trkpt>
      <trkpt lat="39.513241" lon="-0.507795">
        <ele>77.025</ele>
        <time>2022-06-15T20:06:27Z</time>
      </trkpt>
      <trkpt lat="39.512902" lon="-0.508176">
        <ele>82.222</ele>
        <time>2022-06-15T20:06:47Z</time>
      </trkpt>
      <trkpt lat="39.512525" lon="-0.508273">
        <ele>83.260</ele>
        <time>2022-06-15T20:07:07Z</time>
      </trkpt>
      <trkpt lat="39.511549" lon="-0.508198">
        <ele>79.957</ele>
        <time>2022-06-15T20:07:27Z</time>
      </trkpt>
      <trkpt lat="39.509875" lon="-0.509079">
        <ele>84.055</ele>
        <time>2022-06-15T20:07:47Z</time>
      </trkpt>
      <trkpt lat="39.508714" lon="-0.509931">
        <ele>83.007</ele>
        <time>2022-06-15T20:08:07Z</time>
      </trkpt>
      <trkpt lat="39.509744" lon="-0.512463">
        <ele>92.317</ele>
        <time>2022-06-15T20:08:27Z</time>
      </trkpt>
      <trkpt lat="39.509890" lon="-0.512728">
        <ele>91.609</ele>
        <time>2022-06-15T20:08:47Z</time>
      </trkpt>
      <trkpt lat="39.509314" lon="-0.514123">
        <ele>90.216</ele>
        <time>2022-06-15T20:09:07Z</time>
      </trkpt>
      <trkpt lat="39.508162" lon="-0.514937">
        <ele>93.755</ele>
        <time>2022-06-15T20:09:27Z</time>
      </trkpt>
      <trkpt lat="39.507215" lon="-0.516085">
        <ele>95.010</ele>
        <time>2022-06-15T20:09:47Z</time>
      </trkpt>
      <trkpt lat="39.507633" lon="-0.518879">
        <ele>101.910</ele>
        <time>2022-06-15T20:10:07Z</time>
      </trkpt>
      <trkpt lat="39.507791" lon="-0.519485">
        <ele>104.429</ele>
        <time>2022-06-15T20:10:27Z</time>
      </trkpt>
      <trkpt lat="39.508341" lon="-0.519356">
        <ele>102.773</ele>
        <time>2022-06-15T20:10:47Z</time>
      </trkpt>
      <trkpt lat="39.508511" lon="-0.519560">
        <ele>102.930</ele>
        <time>2022-06-15T20:11:07Z</time>
      </trkpt>
      <trkpt lat="39.508762" lon="-0.521324">
        <ele>110.268</ele>
        <time>2022-06-15T20:11:27Z</time>
      </trkpt>
      <trkpt lat="39.508721" lon="-0.522354">
        <ele>110.265</ele>
        <time>2022-06-15T20:11:47Z</time>
      </trkpt>
      <trkpt lat="39.508361" lon="-0.523255">
        <ele>111.471</ele>
        <time>2022-06-15T20:12:07Z</time>
      </trkpt>
      <trkpt lat="39.508493" lon="-0.523507">
        <ele>111.041</ele>
        <time>2022-06-15T20:12:27Z</time>
      </trkpt>
      <trkpt lat="39.508431" lon="-0.523942">
        <ele>108.015</ele>
        <time>2022-06-15T20:12:47Z</time>
      </trkpt>
      <trkpt lat="39.508985" lon="-0.526672">
        <ele>105.409</ele>
        <time>2022-06-15T20:13:07Z</time>
      </trkpt>
      <trkpt lat="39.509343" lon="-0.529376">
        <ele>102.458</ele>
        <time>2022-06-15T20:13:27Z</time>
      </trkpt>
      <trkpt lat="39.509840" lon="-0.532101">
        <ele>104.687</ele>
        <time>2022-06-15T20:13:47Z</time>
      </trkpt>
      <trkpt lat="39.509749" lon="-0.532710">
        <ele>105.862</ele>
        <time>2022-06-15T20:14:07Z</time>
      </trkpt>
      <trkpt lat="39.509944" lon="-0.534953">
        <ele>113.672</ele>
        <time>2022-06-15T20:14:27Z</time>
      </trkpt>
      <trkpt lat="39.508342" lon="-0.535730">
        <ele>114.641</ele>
        <time>2022-06-15T20:14:47Z</time>
      </trkpt>
      <trkpt lat="39.508390" lon="-0.537135">
        <ele>114.825</ele>
        <time>2022-06-15T20:15:07Z</time>
      </trkpt>
      <trkpt lat="39.507798" lon="-0.537886">
        <ele>117.142</ele>
        <time>2022-06-15T20:15:27Z</time>
      </trkpt>
      <trkpt lat="39.506280" lon="-0.538541">
        <ele>116.760</ele>
        <time>2022-06-15T20:15:47Z</time>
      </trkpt>
      <trkpt lat="39.505684" lon="-0.538488">
        <ele>118.237</ele>
        <time>2022-06-15T20:16:07Z</time>
      </trkpt>
      <trkpt lat="39.504103" lon="-0.538638">
        <ele>117.218</ele>
        <time>2022-06-15T20:16:27Z</time>
      </trkpt>
      <trkpt lat="39.502222" lon="-0.539714">
        <ele>112.098</ele>
        <time>2022-06-15T20:16:47Z</time>
      </trkpt>
      <trkpt lat="39.500947" lon="-0.541538">
        <ele>114.917</ele>
        <time>2022-06-15T20:17:07Z</time>
      </trkpt>
      <trkpt lat="39.500715" lon="-0.542976">
        <ele>113.309</ele>
        <time>2022-06-15T20:17:27Z</time>
      </trkpt>
      <trkpt lat="39.500923" lon="-0.545808">
        <ele>119.062</ele>
        <time>2022-06-15T20:17:47Z</time>
      </trkpt>
      <trkpt lat="39.501122" lon="-0.547911">
        <ele>128.011</ele>
        <time>2022-06-15T20:18:07Z</time>
      </trkpt>
      <trkpt lat="39.501287" lon="-0.550657">
        <ele>132.456</ele>
        <time>2022-06-15T20:18:27Z</time>
      </trkpt>
      <trkpt lat="39.501403" lon="-0.551859">
        <ele>127.076</ele>
        <time>2022-06-15T20:18:47Z</time>
      </trkpt>
      <trkpt lat="39.502330" lon="-0.554348">
        <ele>123.525</ele>
        <time>2022-06-15T20:19:07Z</time>
      </trkpt>
      <trkpt lat="39.503175" lon="-0.556343">
        <ele>127.789</ele>
        <time>2022-06-15T20:19:27Z</time>
      </trkpt>
      <trkpt lat="39.503986" lon="-0.557524">
        <ele>131.446</ele>
        <time>2022-06-15T20:19:47Z</time>
      </trkpt>
      <trkpt lat="39.502186" lon="-0.557793">
        <ele>119.754</ele>
        <time>2022-06-15T20:20:07Z</time>
      </trkpt>
      <trkpt lat="39.501548" lon="-0.557911">
        <ele>117.851</ele>
        <time>2022-06-15T20:20:27Z</time>
      </trkpt>
      <trkpt lat="39.502798" lon="-0.560261">
        <ele>124.864</ele>
        <time>2022-06-15T20:20:47Z</time>
      </trkpt>
      <trkpt lat="39.504413" lon="-0.562181">
        <ele>128.106</ele>
        <time>2022-06-15T20:21:07Z</time>
      </trkpt>
      <trkpt lat="39.504827" lon="-0.562664">
        <ele>128.316</ele>
        <time>2022-06-15T20:21:27Z</time>
      </trkpt>
      <trkpt lat="39.505000" lon="-0.565218">
        <ele>136.209</ele>
        <time>2022-06-15T20:21:47Z</time>
      </trkpt>
      <trkpt lat="39.502824" lon="-0.565062">
        <ele>137.237</ele>
        <time>2022-06-15T20:22:07Z</time>
      </trkpt>
      <trkpt lat="39.501715" lon="-0.565309">
        <ele>136.786</ele>
        <time>2022-06-15T20:22:27Z</time>
      </trkpt>
      <trkpt lat="39.499687" lon="-0.566285">
        <ele>129.551</ele>
        <time>2022-06-15T20:22:47Z</time>
      </trkpt>
      <trkpt lat="39.497675" lon="-0.567309">
        <ele>122.681</ele>
        <time>2022-06-15T20:23:07Z</time>
      </trkpt>
      <trkpt lat="39.495688" lon="-0.568253">
        <ele>120.680</ele>
        <time>2022-06-15T20:23:27Z</time>
      </trkpt>
      <trkpt lat="39.495365" lon="-0.568532">
        <ele>119.874</ele>
        <time>2022-06-15T20:23:47Z</time>
      </trkpt>
      <trkpt lat="39.495158" lon="-0.568628">
        <ele>118.171</ele>
        <time>2022-06-15T20:24:07Z</time>
      </trkpt>
      <trkpt lat="39.494669" lon="-0.568371">
        <ele>117.539</ele>
        <time>2022-06-15T20:24:27Z</time>
      </trkpt>
      <trkpt lat="39.492599" lon="-0.568017">
        <ele>110.466</ele>
        <time>2022-06-15T20:24:47Z</time>
      </trkpt>
      <trkpt lat="39.490445" lon="-0.567709">
        <ele>109.658</ele>
        <time>2022-06-15T20:25:07Z</time>
      </trkpt>
      <trkpt lat="39.489095" lon="-0.567559">
        <ele>105.052</ele>
        <time>2022-06-15T20:25:27Z</time>
      </trkpt>
      <trkpt lat="39.488772" lon="-0.567773">
        <ele>105.417</ele>
        <time>2022-06-15T20:25:47Z</time>
      </trkpt>
      <trkpt lat="39.488657" lon="-0.568406">
        <ele>108.009</ele>
        <time>2022-06-15T20:26:07Z</time>
      </trkpt>
      <trkpt lat="39.488088" lon="-0.568321">
        <ele>105.246</ele>
        <time>2022-06-15T20:26:27Z</time>
      </trkpt>
      <trkpt lat="39.486316" lon="-0.568085">
        <ele>104.675</ele>
        <time>2022-06-15T20:26:47Z</time>
      </trkpt>
      <trkpt lat="39.486316" lon="-0.567087">
        <ele>103.570</ele>
        <time>2022-06-15T20:27:07Z</time>
      </trkpt>
      <trkpt lat="39.485298" lon="-0.567130">
        <ele>102.890</ele>
        <time>2022-06-15T20:27:27Z</time>
      </trkpt>
      <trkpt lat="39.485182" lon="-0.567409">
        <ele>103.789</ele>
        <time>2022-06-15T20:27:47Z</time>
      </trkpt>
      <trkpt lat="39.485536" lon="-0.570132">
        <ele>104.013</ele>
        <time>2022-06-15T20:28:07Z</time>
      </trkpt>
      <trkpt lat="39.485503" lon="-0.572954">
        <ele>107.670</ele>
        <time>2022-06-15T20:28:27Z</time>
      </trkpt>
      <trkpt lat="39.483539" lon="-1.106584">
        <ele>670.565</ele>
        <time>2022-02-22T10:53:52Z</time>
      </trkpt>
      <trkpt lat="39.482650" lon="-1.108972">
        <ele>662.668</ele>
        <time>2022-02-22T10:54:32Z</time>
      </trkpt>
      <trkpt lat="39.481541" lon="-1.111140">
        <ele>655.514</ele>
        <time>2022-02-22T10:55:12Z</time>
      </trkpt>
      <trkpt lat="39.480332" lon="-1.113543">
        <ele>653.808</ele>
        <time>2022-02-22T10:55:52Z</time>
      </trkpt>
      <trkpt lat="39.479272" lon="-1.115474">
        <ele>653.345</ele>
        <time>2022-02-22T10:56:32Z</time>
      </trkpt>
      <trkpt lat="39.477649" lon="-1.117362">
        <ele>656.391</ele>
        <time>2022-02-22T10:57:12Z</time>
      </trkpt>
      <trkpt lat="39.476721" lon="-1.118328">
        <ele>662.355</ele>
        <time>2022-02-22T10:57:52Z</time>
      </trkpt>
      <trkpt lat="39.475711" lon="-1.120710">
        <ele>665.911</ele>
        <time>2022-02-22T10:58:32Z</time>
      </trkpt>
      <trkpt lat="39.476230" lon="-1.123238">
        <ele>666.532</ele>
        <time>2022-02-22T10:59:12Z</time>
      </trkpt>
      <trkpt lat="39.476793" lon="-1.125685">
        <ele>661.892</ele>
        <time>2022-02-22T10:59:52Z</time>
      </trkpt>
      <trkpt lat="39.477191" lon="-1.128259">
        <ele>669.299</ele>
        <time>2022-02-22T11:00:32Z</time>
      </trkpt>
      <trkpt lat="39.477787" lon="-1.130663">
        <ele>668.853</ele>
        <time>2022-02-22T11:01:12Z</time>
      </trkpt>
      <trkpt lat="39.478317" lon="-1.133452">
        <ele>673.682</ele>
        <time>2022-02-22T11:01:52Z</time>
      </trkpt>
      <trkpt lat="39.478946" lon="-1.136027">
        <ele>680.443</ele>
        <time>2022-02-22T11:02:32Z</time>
      </trkpt>
      <trkpt lat="39.479543" lon="-1.138902">
        <ele>682.317</ele>
        <time>2022-02-22T11:03:12Z</time>
      </trkpt>
      <trkpt lat="39.481431" lon="-1.140018">
        <ele>685.908</ele>
        <time>2022-02-22T11:03:52Z</time>
      </trkpt>
      <trkpt lat="39.482789" lon="-1.140834">
        <ele>684.067</ele>
        <time>2022-02-22T11:04:32Z</time>
      </trkpt>
      <trkpt lat="39.484472" lon="-1.142197">
        <ele>684.893</ele>
        <time>2022-02-22T11:05:12Z</time>
      </trkpt>
      <trkpt lat="39.483843" lon="-1.144128">
        <ele>689.977</ele>
        <time>2022-02-22T11:05:52Z</time>
      </trkpt>
      <trkpt lat="39.483185" lon="-1.146676">
        <ele>694.073</ele>
        <time>2022-02-22T11:06:32Z</time>
      </trkpt>
      <trkpt lat="39.482821" lon="-1.148178">
        <ele>692.094</ele>
        <time>2022-02-22T11:07:12Z</time>
      </trkpt>
      <trkpt lat="39.481629" lon="-1.149336">
        <ele>691.324</ele>
        <time>2022-02-22T11:07:52Z</time>
      </trkpt>
      <trkpt lat="39.480337" lon="-1.150195">
        <ele>688.471</ele>
        <time>2022-02-22T11:08:32Z</time>
      </trkpt>
      <trkpt lat="39.479277" lon="-1.152512">
        <ele>678.635</ele>
        <time>2022-02-22T11:09:12Z</time>
      </trkpt>
      <trkpt lat="39.478647" lon="-1.154872">
        <ele>681.638</ele>
        <time>2022-02-22T11:09:52Z</time>
      </trkpt>
      <trkpt lat="39.477534" lon="-1.156881">
        <ele>682.370</ele>
        <time>2022-02-22T11:10:32Z</time>
      </trkpt>
      <trkpt lat="39.476971" lon="-1.159328">
        <ele>675.817</ele>
        <time>2022-02-22T11:11:12Z</time>
      </trkpt>
      <trkpt lat="39.476276" lon="-1.161602">
        <ele>669.908</ele>
        <time>2022-02-22T11:11:52Z</time>
      </trkpt>
      <trkpt lat="39.475282" lon="-1.164048">
        <ele>666.412</ele>
        <time>2022-02-22T11:12:32Z</time>
      </trkpt>
      <trkpt lat="39.474950" lon="-1.166924">
        <ele>659.068</ele>
        <time>2022-02-22T11:13:12Z</time>
      </trkpt>
      <trkpt lat="39.474785" lon="-1.168812">
        <ele>656.232</ele>
        <time>2022-02-22T11:13:52Z</time>
      </trkpt>
      <trkpt lat="39.474719" lon="-1.170786">
        <ele>656.378</ele>
        <time>2022-02-22T11:14:32Z</time>
      </trkpt>
      <trkpt lat="39.473857" lon="-1.173232">
        <ele>658.079</ele>
        <time>2022-02-22T11:15:12Z</time>
      </trkpt>
      <trkpt lat="39.473360" lon="-1.175893">
        <ele>655.519</ele>
        <time>2022-02-22T11:15:52Z</time>
      </trkpt>
      <trkpt lat="39.472562" lon="-1.178355">
        <ele>643.936</ele>
        <time>2022-02-22T11:16:32Z</time>
      </trkpt>
      <trkpt lat="39.471933" lon="-1.180758">
        <ele>642.870</ele>
        <time>2022-02-22T11:17:12Z</time>
      </trkpt>
      <trkpt lat="39.471800" lon="-1.183676">
        <ele>644.874</ele>
        <time>2022-02-22T11:17:52Z</time>
      </trkpt>
      <trkpt lat="39.471568" lon="-1.186123">
        <ele>648.856</ele>
        <time>2022-02-22T11:18:32Z</time>
      </trkpt>
      <trkpt lat="39.471999" lon="-1.188397">
        <ele>656.021</ele>
        <time>2022-02-22T11:19:12Z</time>
      </trkpt>
      <trkpt lat="39.471635" lon="-1.191144">
        <ele>664.108</ele>
        <time>2022-02-22T11:19:52Z</time>
      </trkpt>
      <trkpt lat="39.471701" lon="-1.193933">
        <ele>668.756</ele>
        <time>2022-02-22T11:20:32Z</time>
      </trkpt>
      <trkpt lat="39.472529" lon="-1.196294">
        <ele>663.672</ele>
        <time>2022-02-22T11:21:12Z</time>
      </trkpt>
      <trkpt lat="39.472728" lon="-1.199040">
        <ele>655.886</ele>
        <time>2022-02-22T11:21:52Z</time>
      </trkpt>
      <trkpt lat="39.472363" lon="-1.201787">
        <ele>643.532</ele>
        <time>2022-02-22T11:22:32Z</time>
      </trkpt>
      <trkpt lat="39.471189" lon="-1.203129">
        <ele>645.193</ele>
        <time>2022-02-22T11:23:12Z</time>
      </trkpt>
      <trkpt lat="39.470132" lon="-1.204499">
        <ele>645.983</ele>
        <time>2022-02-22T11:23:52Z</time>
      </trkpt>
      <trkpt lat="39.469867" lon="-1.206860">
        <ele>640.230</ele>
        <time>2022-02-22T11:24:32Z</time>
      </trkpt>
      <trkpt lat="39.469470" lon="-1.208491">
        <ele>642.844</ele>
        <time>2022-02-22T11:25:12Z</time>
      </trkpt>
      <trkpt lat="39.468708" lon="-1.210808">
        <ele>633.686</ele>
        <time>2022-02-22T11:25:52Z</time>
      </trkpt>
      <trkpt lat="39.468310" lon="-1.213125">
        <ele>638.360</ele>
        <time>2022-02-22T11:26:32Z</time>
      </trkpt>
      <trkpt lat="39.467813" lon="-1.215615">
        <ele>642.226</ele>
        <time>2022-02-22T11:27:12Z</time>
      </trkpt>
      <trkpt lat="39.468012" lon="-1.217031">
        <ele>644.908</ele>
        <time>2022-02-22T11:27:52Z</time>
      </trkpt>
      <trkpt lat="39.469536" lon="-1.218704">
        <ele>626.927</ele>
        <time>2022-02-22T11:28:32Z</time>
      </trkpt>
      <trkpt lat="39.470464" lon="-1.219949">
        <ele>616.463</ele>
        <time>2022-02-22T11:29:12Z</time>
      </trkpt>
      <trkpt lat="39.470563" lon="-1.222095">
        <ele>632.617</ele>
        <time>2022-02-22T11:29:52Z</time>
      </trkpt>
      <trkpt lat="39.469205" lon="-1.224069">
        <ele>633.763</ele>
        <time>2022-02-22T11:30:32Z</time>
      </trkpt>
      <trkpt lat="39.468178" lon="-1.226343">
        <ele>639.464</ele>
        <time>2022-02-22T11:31:12Z</time>
      </trkpt>
      <trkpt lat="39.468940" lon="-1.228961">
        <ele>631.444</ele>
        <time>2022-02-22T11:31:52Z</time>
      </trkpt>
      <trkpt lat="39.469779" lon="-1.231499">
        <ele>632.171</ele>
        <time>2022-02-22T11:32:32Z</time>
      </trkpt>
      <trkpt lat="39.470363" lon="-1.233668">
        <ele>630.065</ele>
        <time>2022-02-22T11:33:12Z</time>
      </trkpt>
      <trkpt lat="39.470661" lon="-1.236414">
        <ele>626.754</ele>
        <time>2022-02-22T11:33:52Z</time>
      </trkpt>
      <trkpt lat="39.470793" lon="-1.239161">
        <ele>626.056</ele>
        <time>2022-02-22T11:34:32Z</time>
      </trkpt>
      <trkpt lat="39.470860" lon="-1.241993">
        <ele>628.611</ele>
        <time>2022-02-22T11:35:12Z</time>
      </trkpt>
      <trkpt lat="39.470098" lon="-1.244268">
        <ele>626.008</ele>
        <time>2022-02-22T11:35:52Z</time>
      </trkpt>
      <trkpt lat="39.471158" lon="-1.246499">
        <ele>630.054</ele>
        <time>2022-02-22T11:36:32Z</time>
      </trkpt>
      <trkpt lat="39.472417" lon="-1.248860">
        <ele>636.580</ele>
        <time>2022-02-22T11:37:12Z</time>
      </trkpt>
      <trkpt lat="39.473543" lon="-1.251021">
        <ele>640.364</ele>
        <time>2022-02-22T11:37:52Z</time>
      </trkpt>
      <trkpt lat="39.474272" lon="-1.252480">
        <ele>642.660</ele>
        <time>2022-02-22T11:38:32Z</time>
      </trkpt>
      <trkpt lat="39.474221" lon="-1.255110">
        <ele>641.251</ele>
        <time>2022-02-22T11:39:12Z</time>
      </trkpt>
      <trkpt lat="39.474321" lon="-1.257857">
        <ele>639.291</ele>
        <time>2022-02-22T11:39:52Z</time>
      </trkpt>
      <trkpt lat="39.474354" lon="-1.260689">
        <ele>640.858</ele>
        <time>2022-02-22T11:40:32Z</time>
      </trkpt>
      <trkpt lat="39.474486" lon="-1.263436">
        <ele>646.042</ele>
        <time>2022-02-22T11:41:12Z</time>
      </trkpt>
      <trkpt lat="39.474553" lon="-1.265668">
        <ele>649.054</ele>
        <time>2022-02-22T11:41:52Z</time>
      </trkpt>
      <trkpt lat="39.475348" lon="-1.268200">
        <ele>652.356</ele>
        <time>2022-02-22T11:42:32Z</time>
      </trkpt>
      <trkpt lat="39.476308" lon="-1.270817">
        <ele>661.311</ele>
        <time>2022-02-22T11:43:12Z</time>
      </trkpt>
      <trkpt lat="39.477070" lon="-1.273264">
        <ele>673.708</ele>
        <time>2022-02-22T11:43:52Z</time>
      </trkpt>
      <trkpt lat="39.477607" lon="-1.276041">
        <ele>677.554</ele>
        <time>2022-02-22T11:44:32Z</time>
      </trkpt>
      <trkpt lat="39.478104" lon="-1.278702">
        <ele>689.420</ele>
        <time>2022-02-22T11:45:12Z</time>
      </trkpt>
      <trkpt lat="39.478369" lon="-1.281148">
        <ele>699.714</ele>
        <time>2022-02-22T11:45:52Z</time>
      </trkpt>
      <trkpt lat="39.478667" lon="-1.282436">
        <ele>698.420</ele>
        <time>2022-02-22T11:46:32Z</time>
      </trkpt>
      <trkpt lat="39.479826" lon="-1.284882">
        <ele>699.481</ele>
        <time>2022-02-22T11:47:12Z</time>
      </trkpt>
      <trkpt lat="39.480422" lon="-1.287414">
        <ele>699.371</ele>
        <time>2022-02-22T11:47:52Z</time>
      </trkpt>
      <trkpt lat="39.480886" lon="-1.289860">
        <ele>686.638</ele>
        <time>2022-02-22T11:48:32Z</time>
      </trkpt>
      <trkpt lat="39.481409" lon="-1.292116">
        <ele>691.692</ele>
        <time>2022-02-22T11:49:12Z</time>
      </trkpt>
      <trkpt lat="39.481906" lon="-1.294734">
        <ele>690.031</ele>
        <time>2022-02-22T11:49:52Z</time>
      </trkpt>
      <trkpt lat="39.482370" lon="-1.297480">
        <ele>693.961</ele>
        <time>2022-02-22T11:50:32Z</time>
      </trkpt>
      <trkpt lat="39.482933" lon="-1.300098">
        <ele>698.007</ele>
        <time>2022-02-22T11:51:12Z</time>
      </trkpt>
      <trkpt lat="39.483695" lon="-1.302630">
        <ele>701.308</ele>
        <time>2022-02-22T11:51:52Z</time>
      </trkpt>
      <trkpt lat="39.484324" lon="-1.305162">
        <ele>705.342</ele>
        <time>2022-02-22T11:52:32Z</time>
      </trkpt>
      <trkpt lat="39.484659" lon="-1.307845">
        <ele>702.128</ele>
        <time>2022-02-22T11:53:12Z</time>
      </trkpt>
      <trkpt lat="39.484891" lon="-1.310206">
        <ele>702.042</ele>
        <time>2022-02-22T11:53:52Z</time>
      </trkpt>
      <trkpt lat="39.485289" lon="-1.312952">
        <ele>705.888</ele>
        <time>2022-02-22T11:54:32Z</time>
      </trkpt>
      <trkpt lat="39.485984" lon="-1.315570">
        <ele>702.549</ele>
        <time>2022-02-22T11:55:12Z</time>
      </trkpt>
      <trkpt lat="39.486382" lon="-1.318059">
        <ele>705.059</ele>
        <time>2022-02-22T11:55:52Z</time>
      </trkpt>
      <trkpt lat="39.486911" lon="-1.320763">
        <ele>705.256</ele>
        <time>2022-02-22T11:56:32Z</time>
      </trkpt>
      <trkpt lat="39.487541" lon="-1.323509">
        <ele>704.110</ele>
        <time>2022-02-22T11:57:12Z</time>
      </trkpt>
      <trkpt lat="39.488004" lon="-1.326170">
        <ele>711.781</ele>
        <time>2022-02-22T11:57:52Z</time>
      </trkpt>
      <trkpt lat="39.488389" lon="-1.328681">
        <ele>712.361</ele>
        <time>2022-02-22T11:58:32Z</time>
      </trkpt>
      <trkpt lat="39.488621" lon="-1.331256">
        <ele>721.117</ele>
        <time>2022-02-22T11:59:12Z</time>
      </trkpt>
      <trkpt lat="39.488687" lon="-1.333659">
        <ele>729.408</ele>
        <time>2022-02-22T11:59:52Z</time>
      </trkpt>
      <trkpt lat="39.488687" lon="-1.336105">
        <ele>737.057</ele>
        <time>2022-02-22T12:00:32Z</time>
      </trkpt>
      <trkpt lat="39.488323" lon="-1.338809">
        <ele>745.183</ele>
        <time>2022-02-22T12:01:12Z</time>
      </trkpt>
      <trkpt lat="39.487958" lon="-1.341427">
        <ele>765.197</ele>
        <time>2022-02-22T12:01:52Z</time>
      </trkpt>
      <trkpt lat="39.487362" lon="-1.344259">
        <ele>763.023</ele>
        <time>2022-02-22T12:02:32Z</time>
      </trkpt>
      <trkpt lat="39.487428" lon="-1.346748">
        <ele>764.214</ele>
        <time>2022-02-22T12:03:12Z</time>
      </trkpt>
      <trkpt lat="39.487395" lon="-1.348122">
        <ele>762.234</ele>
        <time>2022-02-22T12:03:52Z</time>
      </trkpt>
      <trkpt lat="39.486600" lon="-1.350396">
        <ele>753.541</ele>
        <time>2022-02-22T12:04:32Z</time>
      </trkpt>
      <trkpt lat="39.485971" lon="-1.352370">
        <ele>751.975</ele>
        <time>2022-02-22T12:05:12Z</time>
      </trkpt>
      <trkpt lat="39.485574" lon="-1.355246">
        <ele>741.169</ele>
        <time>2022-02-22T12:05:52Z</time>
      </trkpt>
      <trkpt lat="39.485546" lon="-1.356437">
        <ele>735.104</ele>
        <time>2022-02-22T12:06:32Z</time>
      </trkpt>
      <trkpt lat="39.485446" lon="-1.358326">
        <ele>733.724</ele>
        <time>2022-02-22T12:07:12Z</time>
      </trkpt>
      <trkpt lat="39.485115" lon="-1.360858">
        <ele>717.808</ele>
        <time>2022-02-22T12:07:52Z</time>
      </trkpt>
      <trkpt lat="39.485115" lon="-1.360858">
        <ele>717.815</ele>
        <time>2022-02-22T12:08:32Z</time>
      </trkpt>
      <trkpt lat="39.485454" lon="-1.363491">
        <ele>720.341</ele>
        <time>2022-02-22T12:09:12Z</time>
      </trkpt>
      <trkpt lat="39.486771" lon="-1.365793">
        <ele>730.345</ele>
        <time>2022-02-22T12:09:52Z</time>
      </trkpt>
      <trkpt lat="39.487507" lon="-1.368592">
        <ele>736.991</ele>
        <time>2022-02-22T12:10:32Z</time>
      </trkpt>
      <trkpt lat="39.488103" lon="-1.371253">
        <ele>743.912</ele>
        <time>2022-02-22T12:11:12Z</time>
      </trkpt>
      <trkpt lat="39.489196" lon="-1.373270">
        <ele>748.282</ele>
        <time>2022-02-22T12:11:52Z</time>
      </trkpt>
      <trkpt lat="39.489030" lon="-1.375973">
        <ele>755.549</ele>
        <time>2022-02-22T12:12:32Z</time>
      </trkpt>
      <trkpt lat="39.488898" lon="-1.378548">
        <ele>766.883</ele>
        <time>2022-02-22T12:13:12Z</time>
      </trkpt>
      <trkpt lat="39.488699" lon="-1.381037">
        <ele>762.172</ele>
        <time>2022-02-22T12:13:52Z</time>
      </trkpt>
      <trkpt lat="39.488742" lon="-1.383741">
        <ele>761.913</ele>
        <time>2022-02-22T12:14:32Z</time>
      </trkpt>
      <trkpt lat="39.489007" lon="-1.385886">
        <ele>762.114</ele>
        <time>2022-02-22T12:15:12Z</time>
      </trkpt>
      <trkpt lat="39.489338" lon="-1.388161">
        <ele>762.408</ele>
        <time>2022-02-22T12:15:52Z</time>
      </trkpt>
      <trkpt lat="39.490033" lon="-1.389277">
        <ele>763.976</ele>
        <time>2022-02-22T12:16:32Z</time>
      </trkpt>
      <trkpt lat="39.491954" lon="-1.390307">
        <ele>776.072</ele>
        <time>2022-02-22T12:17:12Z</time>
      </trkpt>
      <trkpt lat="39.493760" lon="-1.391809">
        <ele>781.086</ele>
        <time>2022-02-22T12:17:52Z</time>
      </trkpt>
      <trkpt lat="39.495349" lon="-1.393654">
        <ele>784.782</ele>
        <time>2022-02-22T12:18:32Z</time>
      </trkpt>
      <trkpt lat="39.497038" lon="-1.395499">
        <ele>795.353</ele>
        <time>2022-02-22T12:19:12Z</time>
      </trkpt>
      <trkpt lat="39.498661" lon="-1.396615">
        <ele>800.783</ele>
        <time>2022-02-22T12:19:52Z</time>
      </trkpt>
      <trkpt lat="39.499985" lon="-1.398804">
        <ele>802.520</ele>
        <time>2022-02-22T12:20:32Z</time>
      </trkpt>
      <trkpt lat="39.501451" lon="-1.400355">
        <ele>806.244</ele>
        <time>2022-02-22T12:21:12Z</time>
      </trkpt>
      <trkpt lat="39.503603" lon="-1.400526">
        <ele>809.077</ele>
        <time>2022-02-22T12:21:52Z</time>
      </trkpt>
      <trkpt lat="39.505457" lon="-1.401814">
        <ele>817.661</ele>
        <time>2022-02-22T12:22:32Z</time>
      </trkpt>
      <trkpt lat="39.507444" lon="-1.403015">
        <ele>827.927</ele>
        <time>2022-02-22T12:23:12Z</time>
      </trkpt>
      <trkpt lat="39.509563" lon="-1.403702">
        <ele>834.108</ele>
        <time>2022-02-22T12:23:52Z</time>
      </trkpt>
      <trkpt lat="39.511549" lon="-1.403101">
        <ele>837.046</ele>
        <time>2022-02-22T12:24:32Z</time>
      </trkpt>
      <trkpt lat="39.513645" lon="-1.403312">
        <ele>841.112</ele>
        <time>2022-02-22T12:25:12Z</time>
      </trkpt>
      <trkpt lat="39.515764" lon="-1.403398">
        <ele>855.786</ele>
        <time>2022-02-22T12:25:52Z</time>
      </trkpt>
      <trkpt lat="39.517651" lon="-1.402668">
        <ele>864.292</ele>
        <time>2022-02-22T12:26:32Z</time>
      </trkpt>
      <trkpt lat="39.519273" lon="-1.402668">
        <ele>869.083</ele>
        <time>2022-02-22T12:27:12Z</time>
      </trkpt>
      <trkpt lat="39.520432" lon="-1.404857">
        <ele>863.463</ele>
        <time>2022-02-22T12:27:52Z</time>
      </trkpt>
      <trkpt lat="39.521326" lon="-1.407303">
        <ele>860.610</ele>
        <time>2022-02-22T12:28:32Z</time>
      </trkpt>
      <trkpt lat="39.521458" lon="-1.409363">
        <ele>858.594</ele>
        <time>2022-02-22T12:29:12Z</time>
      </trkpt>
      <trkpt lat="39.522551" lon="-1.411681">
        <ele>857.796</ele>
        <time>2022-02-22T12:29:52Z</time>
      </trkpt>
      <trkpt lat="39.522551" lon="-1.411681">
        <ele>857.731</ele>
        <time>2022-02-22T12:30:32Z</time>
      </trkpt>
      <trkpt lat="39.523748" lon="-1.413992">
        <ele>858.624</ele>
        <time>2022-02-22T12:31:12Z</time>
      </trkpt>
      <trkpt lat="39.524841" lon="-1.416138">
        <ele>862.708</ele>
        <time>2022-02-22T12:31:52Z</time>
      </trkpt>
      <trkpt lat="39.525768" lon="-1.418456">
        <ele>860.888</ele>
        <time>2022-02-22T12:32:32Z</time>
      </trkpt>
      <trkpt lat="39.526165" lon="-1.419571">
        <ele>860.294</ele>
        <time>2022-02-22T12:33:12Z</time>
      </trkpt>
      <trkpt lat="39.527555" lon="-1.420215">
        <ele>859.438</ele>
        <time>2022-02-22T12:33:52Z</time>
      </trkpt>
      <trkpt lat="39.528350" lon="-1.421674">
        <ele>858.924</ele>
        <time>2022-02-22T12:34:32Z</time>
      </trkpt>
      <trkpt lat="39.529541" lon="-1.423005">
        <ele>862.545</ele>
        <time>2022-02-22T12:35:12Z</time>
      </trkpt>
      <trkpt lat="39.530501" lon="-1.425494">
        <ele>865.265</ele>
        <time>2022-02-22T12:35:52Z</time>
      </trkpt>
      <trkpt lat="39.531637" lon="-1.427813">
        <ele>860.122</ele>
        <time>2022-02-22T12:36:32Z</time>
      </trkpt>
      <trkpt lat="39.532134" lon="-1.430603">
        <ele>856.316</ele>
        <time>2022-02-22T12:37:12Z</time>
      </trkpt>
      <trkpt lat="39.533160" lon="-1.432577">
        <ele>854.548</ele>
        <time>2022-02-22T12:37:52Z</time>
      </trkpt>
      <trkpt lat="39.534020" lon="-1.434894">
        <ele>850.761</ele>
        <time>2022-02-22T12:38:32Z</time>
      </trkpt>
      <trkpt lat="39.533226" lon="-1.435924">
        <ele>852.717</ele>
        <time>2022-02-22T12:39:12Z</time>
      </trkpt>
      <trkpt lat="39.533921" lon="-1.437169">
        <ele>849.308</ele>
        <time>2022-02-22T12:39:52Z</time>
      </trkpt>
      <trkpt lat="39.533065" lon="-1.439485">
        <ele>844.973</ele>
        <time>2022-02-22T12:40:32Z</time>
      </trkpt>
      <trkpt lat="39.531774" lon="-1.441416">
        <ele>841.399</ele>
        <time>2022-02-22T12:41:12Z</time>
      </trkpt>
      <trkpt lat="39.530616" lon="-1.443605">
        <ele>841.073</ele>
        <time>2022-02-22T12:41:52Z</time>
      </trkpt>
      <trkpt lat="39.529623" lon="-1.445965">
        <ele>852.329</ele>
        <time>2022-02-22T12:42:32Z</time>
      </trkpt>
      <trkpt lat="39.528927" lon="-1.448239">
        <ele>853.770</ele>
        <time>2022-02-22T12:43:12Z</time>
      </trkpt>
      <trkpt lat="39.528961" lon="-1.450986">
        <ele>845.480</ele>
        <time>2022-02-22T12:43:52Z</time>
      </trkpt>
      <trkpt lat="39.529523" lon="-1.453518">
        <ele>839.067</ele>
        <time>2022-02-22T12:44:32Z</time>
      </trkpt>
      <trkpt lat="39.530450" lon="-1.455835">
        <ele>831.471</ele>
        <time>2022-02-22T12:45:12Z</time>
      </trkpt>
      <trkpt lat="39.531807" lon="-1.457895">
        <ele>817.913</ele>
        <time>2022-02-22T12:45:52Z</time>
      </trkpt>
      <trkpt lat="39.533131" lon="-1.460041">
        <ele>820.343</ele>
        <time>2022-02-22T12:46:32Z</time>
      </trkpt>
      <trkpt lat="39.533821" lon="-1.462353">
        <ele>820.307</ele>
        <time>2022-02-22T12:47:12Z</time>
      </trkpt>
      <trkpt lat="39.533291" lon="-1.464842">
        <ele>814.308</ele>
        <time>2022-02-22T12:47:52Z</time>
      </trkpt>
      <trkpt lat="39.533092" lon="-1.466902">
        <ele>820.430</ele>
        <time>2022-02-22T12:48:32Z</time>
      </trkpt>
      <trkpt lat="39.533291" lon="-1.469306">
        <ele>818.686</ele>
        <time>2022-02-22T12:49:12Z</time>
      </trkpt>
      <trkpt lat="39.534549" lon="-1.471323">
        <ele>812.640</ele>
        <time>2022-02-22T12:49:52Z</time>
      </trkpt>
      <trkpt lat="39.536237" lon="-1.473039">
        <ele>809.576</ele>
        <time>2022-02-22T12:50:32Z</time>
      </trkpt>
      <trkpt lat="39.537395" lon="-1.475357">
        <ele>812.497</ele>
        <time>2022-02-22T12:51:12Z</time>
      </trkpt>
      <trkpt lat="39.537660" lon="-1.478146">
        <ele>809.977</ele>
        <time>2022-02-22T12:51:52Z</time>
      </trkpt>
      <trkpt lat="39.536866" lon="-1.480635">
        <ele>814.054</ele>
        <time>2022-02-22T12:52:32Z</time>
      </trkpt>
      <trkpt lat="39.535773" lon="-1.482438">
        <ele>792.628</ele>
        <time>2022-02-22T12:53:12Z</time>
      </trkpt>
      <trkpt lat="39.536038" lon="-1.484498">
        <ele>793.728</ele>
        <time>2022-02-22T12:53:52Z</time>
      </trkpt>
      <trkpt lat="39.537693" lon="-1.486300">
        <ele>772.489</ele>
        <time>2022-02-22T12:54:32Z</time>
      </trkpt>
      <trkpt lat="39.538777" lon="-1.488573">
        <ele>758.617</ele>
        <time>2022-02-22T12:55:12Z</time>
      </trkpt>
      <trkpt lat="39.539870" lon="-1.490805">
        <ele>740.808</ele>
        <time>2022-02-22T12:55:52Z</time>
      </trkpt>
      <trkpt lat="39.540796" lon="-1.493208">
        <ele>736.581</ele>
        <time>2022-02-22T12:56:32Z</time>
      </trkpt>
      <trkpt lat="39.542087" lon="-1.495268">
        <ele>722.627</ele>
        <time>2022-02-22T12:57:12Z</time>
      </trkpt>
      <trkpt lat="39.542815" lon="-1.497242">
        <ele>705.381</ele>
        <time>2022-02-22T12:57:52Z</time>
      </trkpt>
      <trkpt lat="39.542749" lon="-1.499817">
        <ele>716.387</ele>
        <time>2022-02-22T12:58:32Z</time>
      </trkpt>
      <trkpt lat="39.542749" lon="-1.501662">
        <ele>689.588</ele>
        <time>2022-02-22T12:59:12Z</time>
      </trkpt>
      <trkpt lat="39.544006" lon="-1.503937">
        <ele>643.718</ele>
        <time>2022-02-22T12:59:52Z</time>
      </trkpt>
      <trkpt lat="39.543808" lon="-1.506683">
        <ele>727.015</ele>
        <time>2022-02-22T13:00:32Z</time>
      </trkpt>
      <trkpt lat="39.543375" lon="-1.509217">
        <ele>674.279</ele>
        <time>2022-02-22T13:01:12Z</time>
      </trkpt>
      <trkpt lat="39.543309" lon="-1.510290">
        <ele>658.946</ele>
        <time>2022-02-22T13:01:52Z</time>
      </trkpt>
      <trkpt lat="39.543905" lon="-1.512607">
        <ele>693.088</ele>
        <time>2022-02-22T13:02:32Z</time>
      </trkpt>
      <trkpt lat="39.544236" lon="-1.515225">
        <ele>696.016</ele>
        <time>2022-02-22T13:03:12Z</time>
      </trkpt>
      <trkpt lat="39.543342" lon="-1.517585">
        <ele>709.908</ele>
        <time>2022-02-22T13:03:52Z</time>
      </trkpt>
      <trkpt lat="39.542988" lon="-1.520107">
        <ele>709.863</ele>
        <time>2022-02-22T13:04:32Z</time>
      </trkpt>
      <trkpt lat="39.543021" lon="-1.522553">
        <ele>728.289</ele>
        <time>2022-02-22T13:05:12Z</time>
      </trkpt>
      <trkpt lat="39.542326" lon="-1.524870">
        <ele>753.623</ele>
        <time>2022-02-22T13:05:52Z</time>
      </trkpt>
      <trkpt lat="39.541234" lon="-1.527102">
        <ele>760.819</ele>
        <time>2022-02-22T13:06:32Z</time>
      </trkpt>
      <trkpt lat="39.540704" lon="-1.528733">
        <ele>771.620</ele>
        <time>2022-02-22T13:07:12Z</time>
      </trkpt>
      <trkpt lat="39.540804" lon="-1.531436">
        <ele>781.380</ele>
        <time>2022-02-22T13:07:52Z</time>
      </trkpt>
      <trkpt lat="39.540009" lon="-1.533968">
        <ele>786.327</ele>
        <time>2022-02-22T13:08:32Z</time>
      </trkpt>
      <trkpt lat="39.538785" lon="-1.535943">
        <ele>800.271</ele>
        <time>2022-02-22T13:09:12Z</time>
      </trkpt>
      <trkpt lat="39.537394" lon="-1.538015">
        <ele>797.161</ele>
        <time>2022-02-22T13:09:52Z</time>
      </trkpt>
      <trkpt lat="39.535970" lon="-1.539903">
        <ele>804.921</ele>
        <time>2022-02-22T13:10:32Z</time>
      </trkpt>
      <trkpt lat="39.534415" lon="-1.541620">
        <ele>803.013</ele>
        <time>2022-02-22T13:11:12Z</time>
      </trkpt>
      <trkpt lat="39.532760" lon="-1.543079">
        <ele>796.008</ele>
        <time>2022-02-22T13:11:52Z</time>
      </trkpt>
      <trkpt lat="39.531171" lon="-1.544882">
        <ele>798.065</ele>
        <time>2022-02-22T13:12:32Z</time>
      </trkpt>
      <trkpt lat="39.529781" lon="-1.546427">
        <ele>808.641</ele>
        <time>2022-02-22T13:13:12Z</time>
      </trkpt>
      <trkpt lat="39.528887" lon="-1.548744">
        <ele>805.595</ele>
        <time>2022-02-22T13:13:52Z</time>
      </trkpt>
      <trkpt lat="39.528689" lon="-1.550890">
        <ele>797.261</ele>
        <time>2022-02-22T13:14:32Z</time>
      </trkpt>
      <trkpt lat="39.528953" lon="-1.553679">
        <ele>796.912</ele>
        <time>2022-02-22T13:15:12Z</time>
      </trkpt>
      <trkpt lat="39.529447" lon="-1.556201">
        <ele>806.332</ele>
        <time>2022-02-22T13:15:52Z</time>
      </trkpt>
      <trkpt lat="39.529811" lon="-1.558390">
        <ele>800.859</ele>
        <time>2022-02-22T13:16:32Z</time>
      </trkpt>
      <trkpt lat="39.530307" lon="-1.561222">
        <ele>794.223</ele>
        <time>2022-02-22T13:17:12Z</time>
      </trkpt>
      <trkpt lat="39.530771" lon="-1.564054">
        <ele>797.628</ele>
        <time>2022-02-22T13:17:52Z</time>
      </trkpt>
      <trkpt lat="39.531135" lon="-1.566586">
        <ele>802.989</ele>
        <time>2022-02-22T13:18:32Z</time>
      </trkpt>
      <trkpt lat="39.531565" lon="-1.569247">
        <ele>807.917</ele>
        <time>2022-02-22T13:19:12Z</time>
      </trkpt>
      <trkpt lat="39.532014" lon="-1.571905">
        <ele>817.608</ele>
        <time>2022-02-22T13:19:52Z</time>
      </trkpt>
      <trkpt lat="39.532477" lon="-1.574523">
        <ele>818.011</ele>
        <time>2022-02-22T13:20:32Z</time>
      </trkpt>
      <trkpt lat="39.532775" lon="-1.576969">
        <ele>819.147</ele>
        <time>2022-02-22T13:21:12Z</time>
      </trkpt>
      <trkpt lat="39.532345" lon="-1.579759">
        <ele>826.691</ele>
        <time>2022-02-22T13:21:52Z</time>
      </trkpt>
      <trkpt lat="39.531650" lon="-1.581990">
        <ele>827.957</ele>
        <time>2022-02-22T13:22:32Z</time>
      </trkpt>
      <trkpt lat="39.530690" lon="-1.584265">
        <ele>824.418</ele>
        <time>2022-02-22T13:23:12Z</time>
      </trkpt>
      <trkpt lat="39.529664" lon="-1.586883">
        <ele>823.078</ele>
        <time>2022-02-22T13:23:52Z</time>
      </trkpt>
      <trkpt lat="39.529035" lon="-1.589500">
        <ele>827.835</ele>
        <time>2022-02-22T13:24:32Z</time>
      </trkpt>
      <trkpt lat="39.529201" lon="-1.591260">
        <ele>836.469</ele>
        <time>2022-02-22T13:25:12Z</time>
      </trkpt>
      <trkpt lat="39.530491" lon="-1.593191">
        <ele>831.242</ele>
        <time>2022-02-22T13:25:52Z</time>
      </trkpt>
      <trkpt lat="39.531997" lon="-1.595199">
        <ele>830.722</ele>
        <time>2022-02-22T13:26:32Z</time>
      </trkpt>
      <trkpt lat="39.533553" lon="-1.597259">
        <ele>811.814</ele>
        <time>2022-02-22T13:27:12Z</time>
      </trkpt>
      <trkpt lat="39.534016" lon="-1.598675">
        <ele>808.908</ele>
        <time>2022-02-22T13:27:52Z</time>
      </trkpt>
      <trkpt lat="39.532759" lon="-1.600821">
        <ele>801.963</ele>
        <time>2022-02-22T13:28:32Z</time>
      </trkpt>
      <trkpt lat="39.532063" lon="-1.602108">
        <ele>801.839</ele>
        <time>2022-02-22T13:29:12Z</time>
      </trkpt>
      <trkpt lat="39.531699" lon="-1.604683">
        <ele>802.333</ele>
        <time>2022-02-22T13:29:52Z</time>
      </trkpt>
      <trkpt lat="39.531236" lon="-1.607172">
        <ele>790.949</ele>
        <time>2022-02-22T13:30:32Z</time>
      </trkpt>
      <trkpt lat="39.530276" lon="-1.609704">
        <ele>806.760</ele>
        <time>2022-02-22T13:31:12Z</time>
      </trkpt>
      <trkpt lat="39.529515" lon="-1.611936">
        <ele>822.420</ele>
        <time>2022-02-22T13:31:52Z</time>
      </trkpt>
      <trkpt lat="39.529240" lon="-1.614697">
        <ele>824.127</ele>
        <time>2022-02-22T13:32:32Z</time>
      </trkpt>
      <trkpt lat="39.529041" lon="-1.617272">
        <ele>824.761</ele>
        <time>2022-02-22T13:33:12Z</time>
      </trkpt>
      <trkpt lat="39.528445" lon="-1.619932">
        <ele>831.216</ele>
        <time>2022-02-22T13:33:52Z</time>
      </trkpt>
      <trkpt lat="39.527651" lon="-1.622464">
        <ele>841.876</ele>
        <time>2022-02-22T13:34:32Z</time>
      </trkpt>
      <trkpt lat="39.526989" lon="-1.624953">
        <ele>845.013</ele>
        <time>2022-02-22T13:35:12Z</time>
      </trkpt>
      <trkpt lat="39.526294" lon="-1.627400">
        <ele>847.308</ele>
        <time>2022-02-22T13:35:52Z</time>
      </trkpt>
      <trkpt lat="39.525567" lon="-1.629874">
        <ele>853.050</ele>
        <time>2022-02-22T13:36:32Z</time>
      </trkpt>
      <trkpt lat="39.524806" lon="-1.632363">
        <ele>862.796</ele>
        <time>2022-02-22T13:37:12Z</time>
      </trkpt>
      <trkpt lat="39.524044" lon="-1.635067">
        <ele>859.360</ele>
        <time>2022-02-22T13:37:52Z</time>
      </trkpt>
      <trkpt lat="39.523250" lon="-1.637685">
        <ele>854.526</ele>
        <time>2022-02-22T13:38:32Z</time>
      </trkpt>
      <trkpt lat="39.522555" lon="-1.640388">
        <ele>855.767</ele>
        <time>2022-02-22T13:39:12Z</time>
      </trkpt>
      <trkpt lat="39.521826" lon="-1.642791">
        <ele>853.487</ele>
        <time>2022-02-22T13:39:52Z</time>
      </trkpt>
      <trkpt lat="39.521065" lon="-1.645281">
        <ele>857.054</ele>
        <time>2022-02-22T13:40:32Z</time>
      </trkpt>
      <trkpt lat="39.520270" lon="-1.647813">
        <ele>854.388</ele>
        <time>2022-02-22T13:41:12Z</time>
      </trkpt>
      <trkpt lat="39.519608" lon="-1.650259">
        <ele>856.082</ele>
        <time>2022-02-22T13:41:52Z</time>
      </trkpt>
      <trkpt lat="39.519112" lon="-1.652962">
        <ele>858.143</ele>
        <time>2022-02-22T13:42:32Z</time>
      </trkpt>
      <trkpt lat="39.518752" lon="-1.655515">
        <ele>855.917</ele>
        <time>2022-02-22T13:43:12Z</time>
      </trkpt>
      <trkpt lat="39.518421" lon="-1.658176">
        <ele>846.908</ele>
        <time>2022-02-22T13:43:52Z</time>
      </trkpt>
      <trkpt lat="39.518024" lon="-1.660922">
        <ele>842.927</ele>
        <time>2022-02-22T13:44:32Z</time>
      </trkpt>
      <trkpt lat="39.517593" lon="-1.663497">
        <ele>840.143</ele>
        <time>2022-02-22T13:45:12Z</time>
      </trkpt>
      <trkpt lat="39.517395" lon="-1.665858">
        <ele>837.667</ele>
        <time>2022-02-22T13:45:52Z</time>
      </trkpt>
      <trkpt lat="39.516998" lon="-1.668604">
        <ele>835.813</ele>
        <time>2022-02-22T13:46:32Z</time>
      </trkpt>
      <trkpt lat="39.516468" lon="-1.670965">
        <ele>841.344</ele>
        <time>2022-02-22T13:47:12Z</time>
      </trkpt>
      <trkpt lat="39.516435" lon="-1.673754">
        <ele>826.764</ele>
        <time>2022-02-22T13:47:52Z</time>
      </trkpt>
      <trkpt lat="39.517031" lon="-1.676286">
        <ele>819.131</ele>
        <time>2022-02-22T13:48:32Z</time>
      </trkpt>
      <trkpt lat="39.518057" lon="-1.678818">
        <ele>806.335</ele>
        <time>2022-02-22T13:49:12Z</time>
      </trkpt>
      <trkpt lat="39.518644" lon="-1.681143">
        <ele>811.059</ele>
        <time>2022-02-22T13:49:52Z</time>
      </trkpt>
      <trkpt lat="39.519009" lon="-1.683847">
        <ele>815.503</ele>
        <time>2022-02-22T13:50:32Z</time>
      </trkpt>
      <trkpt lat="39.519307" lon="-1.686508">
        <ele>825.823</ele>
        <time>2022-02-22T13:51:12Z</time>
      </trkpt>
      <trkpt lat="39.519638" lon="-1.689168">
        <ele>829.708</ele>
        <time>2022-02-22T13:51:52Z</time>
      </trkpt>
      <trkpt lat="39.520101" lon="-1.691786">
        <ele>837.834</ele>
        <time>2022-02-22T13:52:32Z</time>
      </trkpt>
      <trkpt lat="39.520565" lon="-1.694361">
        <ele>834.770</ele>
        <time>2022-02-22T13:53:12Z</time>
      </trkpt>
      <trkpt lat="39.520896" lon="-1.696936">
        <ele>838.244</ele>
        <time>2022-02-22T13:53:52Z</time>
      </trkpt>
      <trkpt lat="39.521356" lon="-1.699610">
        <ele>848.960</ele>
        <time>2022-02-22T13:54:32Z</time>
      </trkpt>
      <trkpt lat="39.521787" lon="-1.702400">
        <ele>850.921</ele>
        <time>2022-02-22T13:55:12Z</time>
      </trkpt>
      <trkpt lat="39.522051" lon="-1.705060">
        <ele>845.441</ele>
        <time>2022-02-22T13:55:52Z</time>
      </trkpt>
      <trkpt lat="39.522217" lon="-1.707764">
        <ele>839.168</ele>
        <time>2022-02-22T13:56:32Z</time>
      </trkpt>
      <trkpt lat="39.522283" lon="-1.710210">
        <ele>831.532</ele>
        <time>2022-02-22T13:57:12Z</time>
      </trkpt>
      <trkpt lat="39.522482" lon="-1.712957">
        <ele>828.281</ele>
        <time>2022-02-22T13:57:52Z</time>
      </trkpt>
      <trkpt lat="39.522587" lon="-1.715935">
        <ele>832.961</ele>
        <time>2022-02-22T13:58:32Z</time>
      </trkpt>
      <trkpt lat="39.522786" lon="-1.718595">
        <ele>827.117</ele>
        <time>2022-02-22T13:59:12Z</time>
      </trkpt>
      <trkpt lat="39.522952" lon="-1.721385">
        <ele>831.208</ele>
        <time>2022-02-22T13:59:52Z</time>
      </trkpt>
      <trkpt lat="39.523117" lon="-1.724046">
        <ele>828.537</ele>
        <time>2022-02-22T14:00:32Z</time>
      </trkpt>
      <trkpt lat="39.523283" lon="-1.726878">
        <ele>830.713</ele>
        <time>2022-02-22T14:01:12Z</time>
      </trkpt>
      <trkpt lat="39.523548" lon="-1.729582">
        <ele>829.397</ele>
        <time>2022-02-22T14:01:52Z</time>
      </trkpt>
      <trkpt lat="39.523653" lon="-1.732362">
        <ele>831.963</ele>
        <time>2022-02-22T14:02:32Z</time>
      </trkpt>
      <trkpt lat="39.523852" lon="-1.735023">
        <ele>834.714</ele>
        <time>2022-02-22T14:03:12Z</time>
      </trkpt>
      <trkpt lat="39.524017" lon="-1.737855">
        <ele>842.574</ele>
        <time>2022-02-22T14:03:52Z</time>
      </trkpt>
      <trkpt lat="39.524117" lon="-1.740430">
        <ele>843.291</ele>
        <time>2022-02-22T14:04:32Z</time>
      </trkpt>
      <trkpt lat="39.524282" lon="-1.743091">
        <ele>843.845</ele>
        <time>2022-02-22T14:05:12Z</time>
      </trkpt>
      <trkpt lat="39.524448" lon="-1.745751">
        <ele>849.022</ele>
        <time>2022-02-22T14:05:52Z</time>
      </trkpt>
      <trkpt lat="39.524623" lon="-1.748674">
        <ele>858.262</ele>
        <time>2022-02-22T14:06:32Z</time>
      </trkpt>
      <trkpt lat="39.524723" lon="-1.751292">
        <ele>863.308</ele>
        <time>2022-02-22T14:07:12Z</time>
      </trkpt>
      <trkpt lat="39.524921" lon="-1.753867">
        <ele>851.208</ele>
        <time>2022-02-22T14:07:52Z</time>
      </trkpt>
      <trkpt lat="39.525087" lon="-1.756184">
        <ele>838.691</ele>
        <time>2022-02-22T14:08:32Z</time>
      </trkpt>
      <trkpt lat="39.525484" lon="-1.758330">
        <ele>828.637</ele>
        <time>2022-02-22T14:09:12Z</time>
      </trkpt>
      <trkpt lat="39.526543" lon="-1.760605">
        <ele>824.481</ele>
        <time>2022-02-22T14:09:52Z</time>
      </trkpt>
      <trkpt lat="39.526284" lon="-1.763111">
        <ele>817.297</ele>
        <time>2022-02-22T14:10:32Z</time>
      </trkpt>
      <trkpt lat="39.526152" lon="-1.765772">
        <ele>804.158</ele>
        <time>2022-02-22T14:11:12Z</time>
      </trkpt>
      <trkpt lat="39.526483" lon="-1.768390">
        <ele>801.738</ele>
        <time>2022-02-22T14:11:52Z</time>
      </trkpt>
      <trkpt lat="39.527046" lon="-1.770922">
        <ele>818.965</ele>
        <time>2022-02-22T14:12:32Z</time>
      </trkpt>
      <trkpt lat="39.527807" lon="-1.773325">
        <ele>822.119</ele>
        <time>2022-02-22T14:13:12Z</time>
      </trkpt>
      <trkpt lat="39.528469" lon="-1.776029">
        <ele>827.914</ele>
        <time>2022-02-22T14:13:52Z</time>
      </trkpt>
      <trkpt lat="39.529032" lon="-1.777574">
        <ele>835.454</ele>
        <time>2022-02-22T14:14:32Z</time>
      </trkpt>
      <trkpt lat="39.530223" lon="-1.779076">
        <ele>849.709</ele>
        <time>2022-02-22T14:15:12Z</time>
      </trkpt>
      <trkpt lat="39.530786" lon="-1.781479">
        <ele>852.008</ele>
        <time>2022-02-22T14:15:52Z</time>
      </trkpt>
      <trkpt lat="39.531051" lon="-1.784183">
        <ele>849.920</ele>
        <time>2022-02-22T14:16:32Z</time>
      </trkpt>
      <trkpt lat="39.531349" lon="-1.787058">
        <ele>847.436</ele>
        <time>2022-02-22T14:17:12Z</time>
      </trkpt>
      <trkpt lat="39.531746" lon="-1.789847">
        <ele>853.670</ele>
        <time>2022-02-22T14:17:52Z</time>
      </trkpt>
      <trkpt lat="39.532044" lon="-1.792637">
        <ele>858.766</ele>
        <time>2022-02-22T14:18:32Z</time>
      </trkpt>
      <trkpt lat="39.532402" lon="-1.795373">
        <ele>854.787</ele>
        <time>2022-02-22T14:19:12Z</time>
      </trkpt>
      <trkpt lat="39.532667" lon="-1.798205">
        <ele>863.817</ele>
        <time>2022-02-22T14:19:52Z</time>
      </trkpt>
      <trkpt lat="39.532998" lon="-1.801037">
        <ele>869.124</ele>
        <time>2022-02-22T14:20:32Z</time>
      </trkpt>
      <trkpt lat="39.533362" lon="-1.803784">
        <ele>872.158</ele>
        <time>2022-02-22T14:21:12Z</time>
      </trkpt>
      <trkpt lat="39.533726" lon="-1.806531">
        <ele>876.094</ele>
        <time>2022-02-22T14:21:52Z</time>
      </trkpt>
      <trkpt lat="39.534057" lon="-1.808805">
        <ele>881.757</ele>
        <time>2022-02-22T14:22:32Z</time>
      </trkpt>
      <trkpt lat="39.534719" lon="-1.811509">
        <ele>882.522</ele>
        <time>2022-02-22T14:23:12Z</time>
      </trkpt>
      <trkpt lat="39.535547" lon="-1.814170">
        <ele>883.008</ele>
        <time>2022-02-22T14:23:52Z</time>
      </trkpt>
      <trkpt lat="39.536308" lon="-1.816744">
        <ele>885.968</ele>
        <time>2022-02-22T14:24:32Z</time>
      </trkpt>
      <trkpt lat="39.536937" lon="-1.819448">
        <ele>885.024</ele>
        <time>2022-02-22T14:25:12Z</time>
      </trkpt>
      <trkpt lat="39.537665" lon="-1.822023">
        <ele>873.818</ele>
        <time>2022-02-22T14:25:52Z</time>
      </trkpt>
      <trkpt lat="39.538412" lon="-1.824620">
        <ele>875.994</ele>
        <time>2022-02-22T14:26:32Z</time>
      </trkpt>
      <trkpt lat="39.539007" lon="-1.827023">
        <ele>872.425</ele>
        <time>2022-02-22T14:27:12Z</time>
      </trkpt>
      <trkpt lat="39.539702" lon="-1.829470">
        <ele>868.995</ele>
        <time>2022-02-22T14:27:52Z</time>
      </trkpt>
      <trkpt lat="39.540398" lon="-1.832216">
        <ele>861.422</ele>
        <time>2022-02-22T14:28:32Z</time>
      </trkpt>
      <trkpt lat="39.541192" lon="-1.834877">
        <ele>858.966</ele>
        <time>2022-02-22T14:29:12Z</time>
      </trkpt>
      <trkpt lat="39.541953" lon="-1.837666">
        <ele>856.013</ele>
        <time>2022-02-22T14:29:52Z</time>
      </trkpt>
      <trkpt lat="39.542714" lon="-1.840370">
        <ele>854.843</ele>
        <time>2022-02-22T14:30:32Z</time>
      </trkpt>
      <trkpt lat="39.543384" lon="-1.842959">
        <ele>859.007</ele>
        <time>2022-02-22T14:31:12Z</time>
      </trkpt>
      <trkpt lat="39.544079" lon="-1.845576">
        <ele>853.908</ele>
        <time>2022-02-22T14:31:52Z</time>
      </trkpt>
      <trkpt lat="39.544807" lon="-1.848194">
        <ele>842.660</ele>
        <time>2022-02-22T14:32:32Z</time>
      </trkpt>
      <trkpt lat="39.545535" lon="-1.850769">
        <ele>837.016</ele>
        <time>2022-02-22T14:33:12Z</time>
      </trkpt>
      <trkpt lat="39.546230" lon="-1.853602">
        <ele>828.140</ele>
        <time>2022-02-22T14:33:52Z</time>
      </trkpt>
      <trkpt lat="39.546958" lon="-1.856176">
        <ele>825.416</ele>
        <time>2022-02-22T14:34:32Z</time>
      </trkpt>
      <trkpt lat="39.547752" lon="-1.858923">
        <ele>831.537</ele>
        <time>2022-02-22T14:35:12Z</time>
      </trkpt>
      <trkpt lat="39.548580" lon="-1.861541">
        <ele>838.567</ele>
        <time>2022-02-22T14:35:52Z</time>
      </trkpt>
      <trkpt lat="39.549274" lon="-1.864202">
        <ele>843.434</ele>
        <time>2022-02-22T14:36:32Z</time>
      </trkpt>
      <trkpt lat="39.550013" lon="-1.866819">
        <ele>848.178</ele>
        <time>2022-02-22T14:37:12Z</time>
      </trkpt>
      <trkpt lat="39.550641" lon="-1.869351">
        <ele>854.224</ele>
        <time>2022-02-22T14:37:52Z</time>
      </trkpt>
      <trkpt lat="39.551171" lon="-1.872054">
        <ele>862.504</ele>
        <time>2022-02-22T14:38:32Z</time>
      </trkpt>
      <trkpt lat="39.551800" lon="-1.874672">
        <ele>863.414</ele>
        <time>2022-02-22T14:39:12Z</time>
      </trkpt>
      <trkpt lat="39.552263" lon="-1.877247">
        <ele>861.808</ele>
        <time>2022-02-22T14:39:52Z</time>
      </trkpt>
      <trkpt lat="39.552693" lon="-1.879736">
        <ele>867.621</ele>
        <time>2022-02-22T14:40:32Z</time>
      </trkpt>
      <trkpt lat="39.553289" lon="-1.882354">
        <ele>867.317</ele>
        <time>2022-02-22T14:41:12Z</time>
      </trkpt>
      <trkpt lat="39.553686" lon="-1.884800">
        <ele>868.331</ele>
        <time>2022-02-22T14:41:52Z</time>
      </trkpt>
      <trkpt lat="39.554215" lon="-1.887161">
        <ele>866.787</ele>
        <time>2022-02-22T14:42:32Z</time>
      </trkpt>
      <trkpt lat="39.554543" lon="-1.889591">
        <ele>868.558</ele>
        <time>2022-02-22T14:43:12Z</time>
      </trkpt>
      <trkpt lat="39.555139" lon="-1.892080">
        <ele>867.798</ele>
        <time>2022-02-22T14:43:52Z</time>
      </trkpt>
      <trkpt lat="39.555734" lon="-1.894826">
        <ele>862.835</ele>
        <time>2022-02-22T14:44:32Z</time>
      </trkpt>
      <trkpt lat="39.555734" lon="-1.894826">
        <ele>862.889</ele>
        <time>2022-02-22T14:45:12Z</time>
      </trkpt>
      <trkpt lat="39.556285" lon="-1.897473">
        <ele>852.987</ele>
        <time>2022-02-22T14:45:52Z</time>
      </trkpt>
      <trkpt lat="39.556867" lon="-1.900111">
        <ele>848.642</ele>
        <time>2022-02-22T14:46:32Z</time>
      </trkpt>
      <trkpt lat="39.557363" lon="-1.902428">
        <ele>837.826</ele>
        <time>2022-02-22T14:47:12Z</time>
      </trkpt>
      <trkpt lat="39.558918" lon="-1.904230">
        <ele>834.008</ele>
        <time>2022-02-22T14:47:52Z</time>
      </trkpt>
      <trkpt lat="39.560540" lon="-1.905990">
        <ele>835.577</ele>
        <time>2022-02-22T14:48:32Z</time>
      </trkpt>
      <trkpt lat="39.562227" lon="-1.907964">
        <ele>834.083</ele>
        <time>2022-02-22T14:49:12Z</time>
      </trkpt>
      <trkpt lat="39.563947" lon="-1.909767">
        <ele>835.027</ele>
        <time>2022-02-22T14:49:52Z</time>
      </trkpt>
      <trkpt lat="39.565436" lon="-1.911483">
        <ele>837.663</ele>
        <time>2022-02-22T14:50:32Z</time>
      </trkpt>
      <trkpt lat="39.565668" lon="-1.913157">
        <ele>837.884</ele>
        <time>2022-02-22T14:51:12Z</time>
      </trkpt>
      <trkpt lat="39.564973" lon="-1.915818">
        <ele>839.084</ele>
        <time>2022-02-22T14:51:52Z</time>
      </trkpt>
      <trkpt lat="39.564543" lon="-1.918307">
        <ele>842.141</ele>
        <time>2022-02-22T14:52:32Z</time>
      </trkpt>
      <trkpt lat="39.563914" lon="-1.920839">
        <ele>846.015</ele>
        <time>2022-02-22T14:53:12Z</time>
      </trkpt>
      <trkpt lat="39.563517" lon="-1.922641">
        <ele>847.232</ele>
        <time>2022-02-22T14:53:52Z</time>
      </trkpt>
      <trkpt lat="39.563804" lon="-1.925420">
        <ele>850.892</ele>
        <time>2022-02-22T14:54:32Z</time>
      </trkpt>
      <trkpt lat="39.563903" lon="-1.927995">
        <ele>854.211</ele>
        <time>2022-02-22T14:55:12Z</time>
      </trkpt>
      <trkpt lat="39.563969" lon="-1.930398">
        <ele>850.608</ele>
        <time>2022-02-22T14:55:52Z</time>
      </trkpt>
      <trkpt lat="39.564036" lon="-1.932973">
        <ele>849.642</ele>
        <time>2022-02-22T14:56:32Z</time>
      </trkpt>
      <trkpt lat="39.564036" lon="-1.935548">
        <ele>846.078</ele>
        <time>2022-02-22T14:57:12Z</time>
      </trkpt>
      <trkpt lat="39.564036" lon="-1.937994">
        <ele>844.052</ele>
        <time>2022-02-22T14:57:52Z</time>
      </trkpt>
      <trkpt lat="39.564036" lon="-1.940784">
        <ele>848.138</ele>
        <time>2022-02-22T14:58:32Z</time>
      </trkpt>
      <trkpt lat="39.564036" lon="-1.943487">
        <ele>843.889</ele>
        <time>2022-02-22T14:59:12Z</time>
      </trkpt>
      <trkpt lat="39.564069" lon="-1.946320">
        <ele>845.449</ele>
        <time>2022-02-22T14:59:52Z</time>
      </trkpt>
      <trkpt lat="39.564102" lon="-1.949152">
        <ele>849.036</ele>
        <time>2022-02-22T15:00:32Z</time>
      </trkpt>
      <trkpt lat="39.564069" lon="-1.952028">
        <ele>855.990</ele>
        <time>2022-02-22T15:01:12Z</time>
      </trkpt>
      <trkpt lat="39.564135" lon="-1.954946">
        <ele>859.969</ele>
        <time>2022-02-22T15:01:52Z</time>
      </trkpt>
      <trkpt lat="39.564168" lon="-1.957907">
        <ele>862.504</ele>
        <time>2022-02-22T15:02:32Z</time>
      </trkpt>
      <trkpt lat="39.564267" lon="-1.960568">
        <ele>860.224</ele>
        <time>2022-02-22T15:03:12Z</time>
      </trkpt>
      <trkpt lat="39.564499" lon="-1.963186">
        <ele>854.608</ele>
        <time>2022-02-22T15:03:52Z</time>
      </trkpt>
      <trkpt lat="39.564631" lon="-1.965803">
        <ele>850.355</ele>
        <time>2022-02-22T15:04:32Z</time>
      </trkpt>
      <trkpt lat="39.564862" lon="-1.968640">
        <ele>854.441</ele>
        <time>2022-02-22T15:05:12Z</time>
      </trkpt>
      <trkpt lat="39.564981" lon="-1.971415">
        <ele>847.185</ele>
        <time>2022-02-22T15:05:52Z</time>
      </trkpt>
      <trkpt lat="39.564981" lon="-1.974161">
        <ele>844.071</ele>
        <time>2022-02-22T15:06:32Z</time>
      </trkpt>
      <trkpt lat="39.565179" lon="-1.976908">
        <ele>836.922</ele>
        <time>2022-02-22T15:07:12Z</time>
      </trkpt>
      <trkpt lat="39.565411" lon="-1.979569">
        <ele>824.122</ele>
        <time>2022-02-22T15:07:52Z</time>
      </trkpt>
      <trkpt lat="39.565444" lon="-1.982444">
        <ele>817.189</ele>
        <time>2022-02-22T15:08:32Z</time>
      </trkpt>
      <trkpt lat="39.565675" lon="-1.985405">
        <ele>810.383</ele>
        <time>2022-02-22T15:09:12Z</time>
      </trkpt>
      <trkpt lat="39.565675" lon="-1.988238">
        <ele>800.867</ele>
        <time>2022-02-22T15:09:52Z</time>
      </trkpt>
      <trkpt lat="39.565841" lon="-1.990984">
        <ele>795.081</ele>
        <time>2022-02-22T15:10:32Z</time>
      </trkpt>
      <trkpt lat="39.565806" lon="-1.993632">
        <ele>793.019</ele>
        <time>2022-02-22T15:11:12Z</time>
      </trkpt>
      <trkpt lat="39.565972" lon="-1.996079">
        <ele>804.108</ele>
        <time>2022-02-22T15:11:52Z</time>
      </trkpt>
      <trkpt lat="39.566071" lon="-1.998868">
        <ele>816.185</ele>
        <time>2022-02-22T15:12:32Z</time>
      </trkpt>
      <trkpt lat="39.566137" lon="-2.001615">
        <ele>821.521</ele>
        <time>2022-02-22T15:13:12Z</time>
      </trkpt>
      <trkpt lat="39.566270" lon="-2.004404">
        <ele>820.625</ele>
        <time>2022-02-22T15:13:52Z</time>
      </trkpt>
      <trkpt lat="39.566336" lon="-2.007194">
        <ele>818.361</ele>
        <time>2022-02-22T15:14:32Z</time>
      </trkpt>
      <trkpt lat="39.566402" lon="-2.009940">
        <ele>829.962</ele>
        <time>2022-02-22T15:15:12Z</time>
      </trkpt>
      <trkpt lat="39.566468" lon="-2.012644">
        <ele>825.662</ele>
        <time>2022-02-22T15:15:52Z</time>
      </trkpt>
      <trkpt lat="39.566534" lon="-2.015391">
        <ele>826.269</ele>
        <time>2022-02-22T15:16:32Z</time>
      </trkpt>
      <trkpt lat="39.566633" lon="-2.018309">
        <ele>827.263</ele>
        <time>2022-02-22T15:17:12Z</time>
      </trkpt>
      <trkpt lat="39.566766" lon="-2.020970">
        <ele>818.926</ele>
        <time>2022-02-22T15:17:52Z</time>
      </trkpt>
      <trkpt lat="39.566529" lon="-2.023298">
        <ele>812.347</ele>
        <time>2022-02-22T15:18:32Z</time>
      </trkpt>
      <trkpt lat="39.566132" lon="-2.026173">
        <ele>813.011</ele>
        <time>2022-02-22T15:19:12Z</time>
      </trkpt>
      <trkpt lat="39.565901" lon="-2.028662">
        <ele>808.508</ele>
        <time>2022-02-22T15:19:52Z</time>
      </trkpt>
      <trkpt lat="39.566232" lon="-2.031323">
        <ele>803.641</ele>
        <time>2022-02-22T15:20:32Z</time>
      </trkpt>
      <trkpt lat="39.566860" lon="-2.034070">
        <ele>810.077</ele>
        <time>2022-02-22T15:21:12Z</time>
      </trkpt>
      <trkpt lat="39.567191" lon="-2.036902">
        <ele>810.921</ele>
        <time>2022-02-22T15:21:52Z</time>
      </trkpt>
      <trkpt lat="39.567224" lon="-2.039606">
        <ele>811.227</ele>
        <time>2022-02-22T15:22:32Z</time>
      </trkpt>
      <trkpt lat="39.567356" lon="-2.042310">
        <ele>818.238</ele>
        <time>2022-02-22T15:23:12Z</time>
      </trkpt>
      <trkpt lat="39.567423" lon="-2.045185">
        <ele>820.438</ele>
        <time>2022-02-22T15:23:52Z</time>
      </trkpt>
      <trkpt lat="39.567522" lon="-2.048017">
        <ele>827.715</ele>
        <time>2022-02-22T15:24:32Z</time>
      </trkpt>
      <trkpt lat="39.567588" lon="-2.050764">
        <ele>835.599</ele>
        <time>2022-02-22T15:25:12Z</time>
      </trkpt>
      <trkpt lat="39.567654" lon="-2.053553">
        <ele>836.732</ele>
        <time>2022-02-22T15:25:52Z</time>
      </trkpt>
      <trkpt lat="39.567169" lon="-2.056187">
        <ele>834.292</ele>
        <time>2022-02-22T15:26:32Z</time>
      </trkpt>
      <trkpt lat="39.567169" lon="-2.056187">
        <ele>834.211</ele>
        <time>2022-02-22T15:27:12Z</time>
      </trkpt>
      <trkpt lat="39.566915" lon="-2.059006">
        <ele>828.608</ele>
        <time>2022-02-22T15:27:52Z</time>
      </trkpt>
      <trkpt lat="39.566617" lon="-2.061924">
        <ele>821.052</ele>
        <time>2022-02-22T15:28:32Z</time>
      </trkpt>
      <trkpt lat="39.566022" lon="-2.064585">
        <ele>825.858</ele>
        <time>2022-02-22T15:29:12Z</time>
      </trkpt>
      <trkpt lat="39.565658" lon="-2.067203">
        <ele>828.772</ele>
        <time>2022-02-22T15:29:52Z</time>
      </trkpt>
      <trkpt lat="39.565261" lon="-2.070035">
        <ele>829.188</ele>
        <time>2022-02-22T15:30:32Z</time>
      </trkpt>
      <trkpt lat="39.564798" lon="-2.072439">
        <ele>825.959</ele>
        <time>2022-02-22T15:31:12Z</time>
      </trkpt>
      <trkpt lat="39.564467" lon="-2.075185">
        <ele>830.119</ele>
        <time>2022-02-22T15:31:52Z</time>
      </trkpt>
      <trkpt lat="39.564051" lon="-2.077734">
        <ele>831.066</ele>
        <time>2022-02-22T15:32:32Z</time>
      </trkpt>
      <trkpt lat="39.563852" lon="-2.080137">
        <ele>828.120</ele>
        <time>2022-02-22T15:33:12Z</time>
      </trkpt>
      <trkpt lat="39.564018" lon="-2.082712">
        <ele>829.191</ele>
        <time>2022-02-22T15:33:52Z</time>
      </trkpt>
      <trkpt lat="39.564249" lon="-2.085244">
        <ele>830.481</ele>
        <time>2022-02-22T15:34:32Z</time>
      </trkpt>
      <trkpt lat="39.564613" lon="-2.087862">
        <ele>825.119</ele>
        <time>2022-02-22T15:35:12Z</time>
      </trkpt>
      <trkpt lat="39.564845" lon="-2.090523">
        <ele>819.108</ele>
        <time>2022-02-22T15:35:52Z</time>
      </trkpt>
      <trkpt lat="39.565176" lon="-2.093269">
        <ele>821.628</ele>
        <time>2022-02-22T15:36:32Z</time>
      </trkpt>
      <trkpt lat="39.565639" lon="-2.096188">
        <ele>816.724</ele>
        <time>2022-02-22T15:37:12Z</time>
      </trkpt>
      <trkpt lat="39.565110" lon="-2.098591">
        <ele>821.338</ele>
        <time>2022-02-22T15:37:52Z</time>
      </trkpt>
      <trkpt lat="39.564051" lon="-2.100951">
        <ele>827.254</ele>
        <time>2022-02-22T15:38:32Z</time>
      </trkpt>
      <trkpt lat="39.562893" lon="-2.103097">
        <ele>831.215</ele>
        <time>2022-02-22T15:39:12Z</time>
      </trkpt>
      <trkpt lat="39.561867" lon="-2.105028">
        <ele>836.265</ele>
        <time>2022-02-22T15:39:52Z</time>
      </trkpt>
      <trkpt lat="39.561503" lon="-2.107775">
        <ele>829.572</ele>
        <time>2022-02-22T15:40:32Z</time>
      </trkpt>
      <trkpt lat="39.561987" lon="-2.109708">
        <ele>832.086</ele>
        <time>2022-02-22T15:41:12Z</time>
      </trkpt>
      <trkpt lat="39.563674" lon="-2.111382">
        <ele>805.434</ele>
        <time>2022-02-22T15:41:52Z</time>
      </trkpt>
      <trkpt lat="39.565229" lon="-2.113313">
        <ele>799.355</ele>
        <time>2022-02-22T15:42:32Z</time>
      </trkpt>
      <trkpt lat="39.565659" lon="-2.114343">
        <ele>820.510</ele>
        <time>2022-02-22T15:43:12Z</time>
      </trkpt>
      <trkpt lat="39.564600" lon="-2.116661">
        <ele>829.208</ele>
        <time>2022-02-22T15:43:52Z</time>
      </trkpt>
      <trkpt lat="39.564005" lon="-2.117948">
        <ele>833.972</ele>
        <time>2022-02-22T15:44:32Z</time>
      </trkpt>
      <trkpt lat="39.564468" lon="-2.120394">
        <ele>841.748</ele>
        <time>2022-02-22T15:45:12Z</time>
      </trkpt>
      <trkpt lat="39.564152" lon="-2.122345">
        <ele>845.112</ele>
        <time>2022-02-22T15:45:52Z</time>
      </trkpt>
      <trkpt lat="39.563358" lon="-2.124877">
        <ele>852.988</ele>
        <time>2022-02-22T15:46:32Z</time>
      </trkpt>
      <trkpt lat="39.562465" lon="-2.127494">
        <ele>862.089</ele>
        <time>2022-02-22T15:47:12Z</time>
      </trkpt>
      <trkpt lat="39.561837" lon="-2.129254">
        <ele>861.539</ele>
        <time>2022-02-22T15:47:52Z</time>
      </trkpt>
      <trkpt lat="39.562035" lon="-2.132172">
        <ele>850.576</ele>
        <time>2022-02-22T15:48:32Z</time>
      </trkpt>
      <trkpt lat="39.562068" lon="-2.134876">
        <ele>857.720</ele>
        <time>2022-02-22T15:49:12Z</time>
      </trkpt>
      <trkpt lat="39.562234" lon="-2.137580">
        <ele>867.016</ele>
        <time>2022-02-22T15:49:52Z</time>
      </trkpt>
      <trkpt lat="39.562465" lon="-2.140455">
        <ele>873.176</ele>
        <time>2022-02-22T15:50:32Z</time>
      </trkpt>
      <trkpt lat="39.562631" lon="-2.143202">
        <ele>873.213</ele>
        <time>2022-02-22T15:51:12Z</time>
      </trkpt>
      <trkpt lat="39.562796" lon="-2.145948">
        <ele>879.308</ele>
        <time>2022-02-22T15:51:52Z</time>
      </trkpt>
      <trkpt lat="39.563051" lon="-2.148707">
        <ele>881.040</ele>
        <time>2022-02-22T15:52:32Z</time>
      </trkpt>
      <trkpt lat="39.563217" lon="-2.151325">
        <ele>874.036</ele>
        <time>2022-02-22T15:53:12Z</time>
      </trkpt>
      <trkpt lat="39.563283" lon="-2.153900">
        <ele>873.850</ele>
        <time>2022-02-22T15:53:52Z</time>
      </trkpt>
      <trkpt lat="39.563514" lon="-2.156690">
        <ele>865.056</ele>
        <time>2022-02-22T15:54:32Z</time>
      </trkpt>
      <trkpt lat="39.563779" lon="-2.159393">
        <ele>865.217</ele>
        <time>2022-02-22T15:55:12Z</time>
      </trkpt>
      <trkpt lat="39.564772" lon="-2.161839">
        <ele>873.917</ele>
        <time>2022-02-22T15:55:52Z</time>
      </trkpt>
      <trkpt lat="39.565698" lon="-2.164328">
        <ele>873.434</ele>
        <time>2022-02-22T15:56:32Z</time>
      </trkpt>
      <trkpt lat="39.566757" lon="-2.166492">
        <ele>876.538</ele>
        <time>2022-02-22T15:57:12Z</time>
      </trkpt>
      <trkpt lat="39.567485" lon="-2.168724">
        <ele>874.752</ele>
        <time>2022-02-22T15:57:52Z</time>
      </trkpt>
      <trkpt lat="39.567584" lon="-2.171427">
        <ele>875.553</ele>
        <time>2022-02-22T15:58:32Z</time>
      </trkpt>
      <trkpt lat="39.567849" lon="-2.174088">
        <ele>870.808</ele>
        <time>2022-02-22T15:59:12Z</time>
      </trkpt>
      <trkpt lat="39.568047" lon="-2.175976">
        <ele>873.508</ele>
        <time>2022-02-22T15:59:52Z</time>
      </trkpt>
      <trkpt lat="39.569407" lon="-2.178040">
        <ele>872.494</ele>
        <time>2022-02-22T16:00:32Z</time>
      </trkpt>
      <trkpt lat="39.570896" lon="-2.180271">
        <ele>862.050</ele>
        <time>2022-02-22T16:01:12Z</time>
      </trkpt>
      <trkpt lat="39.572484" lon="-2.182245">
        <ele>864.054</ele>
        <time>2022-02-22T16:01:52Z</time>
      </trkpt>
      <trkpt lat="39.574039" lon="-2.184262">
        <ele>855.340</ele>
        <time>2022-02-22T16:02:32Z</time>
      </trkpt>
      <trkpt lat="39.575626" lon="-2.186236">
        <ele>857.581</ele>
        <time>2022-02-22T16:03:12Z</time>
      </trkpt>
      <trkpt lat="39.577115" lon="-2.188168">
        <ele>862.051</ele>
        <time>2022-02-22T16:03:52Z</time>
      </trkpt>
      <trkpt lat="39.578636" lon="-2.190399">
        <ele>860.018</ele>
        <time>2022-02-22T16:04:32Z</time>
      </trkpt>
      <trkpt lat="39.580290" lon="-2.192416">
        <ele>862.452</ele>
        <time>2022-02-22T16:05:12Z</time>
      </trkpt>
      <trkpt lat="39.581646" lon="-2.194219">
        <ele>861.144</ele>
        <time>2022-02-22T16:05:52Z</time>
      </trkpt>
      <trkpt lat="39.582560" lon="-2.196274">
        <ele>861.505</ele>
        <time>2022-02-22T16:06:32Z</time>
      </trkpt>
      <trkpt lat="39.583155" lon="-2.198720">
        <ele>857.015</ele>
        <time>2022-02-22T16:07:12Z</time>
      </trkpt>
      <trkpt lat="39.583817" lon="-2.201081">
        <ele>860.808</ele>
        <time>2022-02-22T16:07:52Z</time>
      </trkpt>
      <trkpt lat="39.584545" lon="-2.203784">
        <ele>859.883</ele>
        <time>2022-02-22T16:08:32Z</time>
      </trkpt>
      <trkpt lat="39.585244" lon="-2.206466">
        <ele>863.329</ele>
        <time>2022-02-22T16:09:12Z</time>
      </trkpt>
      <trkpt lat="39.585872" lon="-2.209127">
        <ele>864.763</ele>
        <time>2022-02-22T16:09:52Z</time>
      </trkpt>
      <trkpt lat="39.586732" lon="-2.211788">
        <ele>864.179</ele>
        <time>2022-02-22T16:10:32Z</time>
      </trkpt>
      <trkpt lat="39.587427" lon="-2.214491">
        <ele>865.740</ele>
        <time>2022-02-22T16:11:12Z</time>
      </trkpt>
      <trkpt lat="39.588055" lon="-2.217109">
        <ele>862.440</ele>
        <time>2022-02-22T16:11:52Z</time>
      </trkpt>
      <trkpt lat="39.588750" lon="-2.219856">
        <ele>864.527</ele>
        <time>2022-02-22T16:12:32Z</time>
      </trkpt>
      <trkpt lat="39.589508" lon="-2.222389">
        <ele>861.411</ele>
        <time>2022-02-22T16:13:12Z</time>
      </trkpt>
      <trkpt lat="39.590136" lon="-2.225178">
        <ele>862.879</ele>
        <time>2022-02-22T16:13:52Z</time>
      </trkpt>
      <trkpt lat="39.590864" lon="-2.227667">
        <ele>863.205</ele>
        <time>2022-02-22T16:14:32Z</time>
      </trkpt>
      <trkpt lat="39.591459" lon="-2.230285">
        <ele>858.025</ele>
        <time>2022-02-22T16:15:12Z</time>
      </trkpt>
      <trkpt lat="39.592141" lon="-2.232819">
        <ele>856.408</ele>
        <time>2022-02-22T16:15:52Z</time>
      </trkpt>
      <trkpt lat="39.592803" lon="-2.235394">
        <ele>859.626</ele>
        <time>2022-02-22T16:16:32Z</time>
      </trkpt>
      <trkpt lat="39.593431" lon="-2.238141">
        <ele>865.762</ele>
        <time>2022-02-22T16:17:12Z</time>
      </trkpt>
      <trkpt lat="39.594324" lon="-2.240544">
        <ele>865.296</ele>
        <time>2022-02-22T16:17:52Z</time>
      </trkpt>
      <trkpt lat="39.594952" lon="-2.243205">
        <ele>869.492</ele>
        <time>2022-02-22T16:18:32Z</time>
      </trkpt>
      <trkpt lat="39.595647" lon="-2.245823">
        <ele>867.023</ele>
        <time>2022-02-22T16:19:12Z</time>
      </trkpt>
      <trkpt lat="39.596341" lon="-2.248526">
        <ele>866.193</ele>
        <time>2022-02-22T16:19:52Z</time>
      </trkpt>
      <trkpt lat="39.597021" lon="-2.251161">
        <ele>865.270</ele>
        <time>2022-02-22T16:20:32Z</time>
      </trkpt>
      <trkpt lat="39.597748" lon="-2.253865">
        <ele>865.084</ele>
        <time>2022-02-22T16:21:12Z</time>
      </trkpt>
      <trkpt lat="39.598509" lon="-2.256397">
        <ele>862.339</ele>
        <time>2022-02-22T16:21:52Z</time>
      </trkpt>
      <trkpt lat="39.599071" lon="-2.259058">
        <ele>861.501</ele>
        <time>2022-02-22T16:22:32Z</time>
      </trkpt>
      <trkpt lat="39.599799" lon="-2.261590">
        <ele>858.121</ele>
        <time>2022-02-22T16:23:12Z</time>
      </trkpt>
      <trkpt lat="39.600559" lon="-2.264036">
        <ele>856.508</ele>
        <time>2022-02-22T16:23:52Z</time>
      </trkpt>
      <trkpt lat="39.601088" lon="-2.266568">
        <ele>848.672</ele>
        <time>2022-02-22T16:24:32Z</time>
      </trkpt>
      <trkpt lat="39.602179" lon="-2.268885">
        <ele>835.368</ele>
        <time>2022-02-22T16:25:12Z</time>
      </trkpt>
      <trkpt lat="39.603142" lon="-2.271276">
        <ele>829.762</ele>
        <time>2022-02-22T16:25:52Z</time>
      </trkpt>
      <trkpt lat="39.604333" lon="-2.273679">
        <ele>820.558</ele>
        <time>2022-02-22T16:26:32Z</time>
      </trkpt>
      <trkpt lat="39.605424" lon="-2.276168">
        <ele>820.459</ele>
        <time>2022-02-22T16:27:12Z</time>
      </trkpt>
      <trkpt lat="39.606064" lon="-2.277813">
        <ele>820.099</ele>
        <time>2022-02-22T16:27:52Z</time>
      </trkpt>
      <trkpt lat="39.607452" lon="-2.279358">
        <ele>819.476</ele>
        <time>2022-02-22T16:28:32Z</time>
      </trkpt>
      <trkpt lat="39.608642" lon="-2.280646">
        <ele>817.080</ele>
        <time>2022-02-22T16:29:12Z</time>
      </trkpt>
      <trkpt lat="39.610031" lon="-2.282105">
        <ele>815.818</ele>
        <time>2022-02-22T16:29:52Z</time>
      </trkpt>
      <trkpt lat="39.610791" lon="-2.283006">
        <ele>813.198</ele>
        <time>2022-02-22T16:30:32Z</time>
      </trkpt>
      <trkpt lat="39.613061" lon="-2.281594">
        <ele>816.044</ele>
        <time>2022-02-22T13:10:20Z</time>
      </trkpt>
      <trkpt lat="39.614317" lon="-2.283976">
        <ele>813.505</ele>
        <time>2022-02-22T13:11:00Z</time>
      </trkpt>
      <trkpt lat="39.615789" lon="-2.286208">
        <ele>809.415</ele>
        <time>2022-02-22T13:11:40Z</time>
      </trkpt>
      <trkpt lat="39.616995" lon="-2.288504">
        <ele>804.808</ele>
        <time>2022-02-22T13:12:20Z</time>
      </trkpt>
      <trkpt lat="39.617376" lon="-2.290357">
        <ele>803.683</ele>
        <time>2022-02-22T13:13:00Z</time>
      </trkpt>
      <trkpt lat="39.618583" lon="-2.292760">
        <ele>801.039</ele>
        <time>2022-02-22T13:13:40Z</time>
      </trkpt>
      <trkpt lat="39.619145" lon="-2.293769">
        <ele>802.533</ele>
        <time>2022-02-22T13:14:20Z</time>
      </trkpt>
      <trkpt lat="39.620417" lon="-2.296022">
        <ele>801.280</ele>
        <time>2022-02-22T13:15:00Z</time>
      </trkpt>
      <trkpt lat="39.621525" lon="-2.298511">
        <ele>800.530</ele>
        <time>2022-02-22T13:15:40Z</time>
      </trkpt>
      <trkpt lat="39.622764" lon="-2.300742">
        <ele>805.187</ele>
        <time>2022-02-22T13:16:20Z</time>
      </trkpt>
      <trkpt lat="39.623861" lon="-2.303154">
        <ele>802.173</ele>
        <time>2022-02-22T13:17:00Z</time>
      </trkpt>
      <trkpt lat="39.625018" lon="-2.305535">
        <ele>806.036</ele>
        <time>2022-02-22T13:17:40Z</time>
      </trkpt>
      <trkpt lat="39.626224" lon="-2.307896">
        <ele>804.627</ele>
        <time>2022-02-22T13:18:20Z</time>
      </trkpt>
      <trkpt lat="39.627365" lon="-2.310320">
        <ele>806.768</ele>
        <time>2022-02-22T13:19:00Z</time>
      </trkpt>
      <trkpt lat="39.628290" lon="-2.311780">
        <ele>809.014</ele>
        <time>2022-02-22T13:19:40Z</time>
      </trkpt>
      <trkpt lat="39.629249" lon="-2.314183">
        <ele>804.308</ele>
        <time>2022-02-22T13:20:20Z</time>
      </trkpt>
      <trkpt lat="39.630455" lon="-2.316636">
        <ele>807.241</ele>
        <time>2022-02-22T13:21:00Z</time>
      </trkpt>
      <trkpt lat="39.631644" lon="-2.318953">
        <ele>808.027</ele>
        <time>2022-02-22T13:21:40Z</time>
      </trkpt>
      <trkpt lat="39.632735" lon="-2.321099">
        <ele>811.791</ele>
        <time>2022-02-22T13:22:20Z</time>
      </trkpt>
      <trkpt lat="39.634123" lon="-2.323116">
        <ele>806.368</ele>
        <time>2022-02-22T13:23:00Z</time>
      </trkpt>
      <trkpt lat="39.635578" lon="-2.325004">
        <ele>804.168</ele>
        <time>2022-02-22T13:23:40Z</time>
      </trkpt>
      <trkpt lat="39.637230" lon="-2.326807">
        <ele>806.535</ele>
        <time>2022-02-22T13:24:20Z</time>
      </trkpt>
      <trkpt lat="39.638651" lon="-2.327064">
        <ele>805.711</ele>
        <time>2022-02-22T13:25:00Z</time>
      </trkpt>
      <trkpt lat="39.640072" lon="-2.328180">
        <ele>806.924</ele>
        <time>2022-02-22T13:25:40Z</time>
      </trkpt>
      <trkpt lat="39.640171" lon="-2.330583">
        <ele>805.477</ele>
        <time>2022-02-22T13:26:20Z</time>
      </trkpt>
      <trkpt lat="39.641658" lon="-2.332643">
        <ele>805.561</ele>
        <time>2022-02-22T13:27:00Z</time>
      </trkpt>
      <trkpt lat="39.643346" lon="-2.334393">
        <ele>811.127</ele>
        <time>2022-02-22T13:27:40Z</time>
      </trkpt>
      <trkpt lat="39.644899" lon="-2.336110">
        <ele>811.408</ele>
        <time>2022-02-22T13:28:20Z</time>
      </trkpt>
      <trkpt lat="39.646089" lon="-2.337311">
        <ele>811.646</ele>
        <time>2022-02-22T13:29:00Z</time>
      </trkpt>
      <trkpt lat="39.647609" lon="-2.336281">
        <ele>811.072</ele>
        <time>2022-02-22T13:29:40Z</time>
      </trkpt>
      <trkpt lat="39.646717" lon="-2.338127">
        <ele>810.176</ele>
        <time>2022-02-22T13:30:20Z</time>
      </trkpt>
      <trkpt lat="39.648005" lon="-2.340315">
        <ele>810.313</ele>
        <time>2022-02-22T13:31:00Z</time>
      </trkpt>
      <trkpt lat="39.648765" lon="-2.342890">
        <ele>812.643</ele>
        <time>2022-02-22T13:31:40Z</time>
      </trkpt>
      <trkpt lat="39.649360" lon="-2.345336">
        <ele>812.020</ele>
        <time>2022-02-22T13:32:20Z</time>
      </trkpt>
      <trkpt lat="39.649988" lon="-2.347783">
        <ele>815.026</ele>
        <time>2022-02-22T13:33:00Z</time>
      </trkpt>
      <trkpt lat="39.651012" lon="-2.349885">
        <ele>818.419</ele>
        <time>2022-02-22T13:33:40Z</time>
      </trkpt>
      <trkpt lat="39.651078" lon="-2.350701">
        <ele>819.446</ele>
        <time>2022-02-22T13:34:20Z</time>
      </trkpt>
      <trkpt lat="39.651559" lon="-2.352740">
        <ele>822.088</ele>
        <time>2022-02-22T13:35:00Z</time>
      </trkpt>
      <trkpt lat="39.651658" lon="-2.353469">
        <ele>822.016</ele>
        <time>2022-02-22T13:35:40Z</time>
      </trkpt>
      <trkpt lat="39.652220" lon="-2.354156">
        <ele>822.008</ele>
        <time>2022-02-22T13:36:20Z</time>
      </trkpt>
      <trkpt lat="39.652484" lon="-2.355400">
        <ele>822.533</ele>
        <time>2022-02-22T13:37:00Z</time>
      </trkpt>
      <trkpt lat="39.653674" lon="-2.357761">
        <ele>824.289</ele>
        <time>2022-02-22T13:37:40Z</time>
      </trkpt>
      <trkpt lat="39.654698" lon="-2.360336">
        <ele>827.123</ele>
        <time>2022-02-22T13:38:20Z</time>
      </trkpt>
      <trkpt lat="39.655755" lon="-2.362610">
        <ele>831.080</ele>
        <time>2022-02-22T13:39:00Z</time>
      </trkpt>
      <trkpt lat="39.656602" lon="-2.364097">
        <ele>833.770</ele>
        <time>2022-02-22T13:39:40Z</time>
      </trkpt>
      <trkpt lat="39.657395" lon="-2.363282">
        <ele>834.387</ele>
        <time>2022-02-22T13:40:20Z</time>
      </trkpt>
      <trkpt lat="39.657362" lon="-2.365514">
        <ele>840.483</ele>
        <time>2022-02-22T13:41:00Z</time>
      </trkpt>
      <trkpt lat="39.658518" lon="-2.367702">
        <ele>845.396</ele>
        <time>2022-02-22T13:41:40Z</time>
      </trkpt>
      <trkpt lat="39.660005" lon="-2.369548">
        <ele>853.883</ele>
        <time>2022-02-22T13:42:20Z</time>
      </trkpt>
      <trkpt lat="39.661558" lon="-2.371307">
        <ele>863.725</ele>
        <time>2022-02-22T13:43:00Z</time>
      </trkpt>
      <trkpt lat="39.663342" lon="-2.372680">
        <ele>870.417</ele>
        <time>2022-02-22T13:43:40Z</time>
      </trkpt>
      <trkpt lat="39.665234" lon="-2.373626">
        <ele>873.208</ele>
        <time>2022-02-22T13:44:20Z</time>
      </trkpt>
      <trkpt lat="39.667117" lon="-2.373669">
        <ele>875.197</ele>
        <time>2022-02-22T13:45:00Z</time>
      </trkpt>
      <trkpt lat="39.667456" lon="-2.371585">
        <ele>867.553</ele>
        <time>2022-02-22T13:45:40Z</time>
      </trkpt>
      <trkpt lat="39.667952" lon="-2.373946">
        <ele>874.347</ele>
        <time>2022-02-22T13:46:20Z</time>
      </trkpt>
      <trkpt lat="39.669835" lon="-2.375233">
        <ele>874.624</ele>
        <time>2022-02-22T13:47:00Z</time>
      </trkpt>
      <trkpt lat="39.671817" lon="-2.375920">
        <ele>866.254</ele>
        <time>2022-02-22T13:47:40Z</time>
      </trkpt>
      <trkpt lat="39.673865" lon="-2.376306">
        <ele>860.871</ele>
        <time>2022-02-22T13:48:20Z</time>
      </trkpt>
      <trkpt lat="39.675747" lon="-2.377121">
        <ele>863.347</ele>
        <time>2022-02-22T13:49:00Z</time>
      </trkpt>
      <trkpt lat="39.677696" lon="-2.378151">
        <ele>860.860</ele>
        <time>2022-02-22T13:49:40Z</time>
      </trkpt>
      <trkpt lat="39.679414" lon="-2.379482">
        <ele>859.163</ele>
        <time>2022-02-22T13:50:20Z</time>
      </trkpt>
      <trkpt lat="39.680999" lon="-2.381241">
        <ele>863.944</ele>
        <time>2022-02-22T13:51:00Z</time>
      </trkpt>
      <trkpt lat="39.682622" lon="-2.382854">
        <ele>868.118</ele>
        <time>2022-02-22T13:51:40Z</time>
      </trkpt>
      <trkpt lat="39.683382" lon="-2.383584">
        <ele>866.208</ele>
        <time>2022-02-22T13:52:20Z</time>
      </trkpt>
      <trkpt lat="39.685231" lon="-2.384571">
        <ele>860.765</ele>
        <time>2022-02-22T13:53:00Z</time>
      </trkpt>
      <trkpt lat="39.687510" lon="-2.385000">
        <ele>859.021</ele>
        <time>2022-02-22T13:53:40Z</time>
      </trkpt>
      <trkpt lat="39.686684" lon="-2.387703">
        <ele>865.725</ele>
        <time>2022-02-22T13:54:20Z</time>
      </trkpt>
      <trkpt lat="39.686552" lon="-2.390278">
        <ele>874.092</ele>
        <time>2022-02-22T13:55:00Z</time>
      </trkpt>
      <trkpt lat="39.685495" lon="-2.392510">
        <ele>872.082</ele>
        <time>2022-02-22T13:55:40Z</time>
      </trkpt>
      <trkpt lat="39.684967" lon="-2.394613">
        <ele>870.119</ele>
        <time>2022-02-22T13:56:20Z</time>
      </trkpt>
      <trkpt lat="39.684943" lon="-2.397403">
        <ele>871.415</ele>
        <time>2022-02-22T13:57:00Z</time>
      </trkpt>
      <trkpt lat="39.684943" lon="-2.400064">
        <ele>883.498</ele>
        <time>2022-02-22T13:57:40Z</time>
      </trkpt>
      <trkpt lat="39.684910" lon="-2.402381">
        <ele>890.223</ele>
        <time>2022-02-22T13:58:20Z</time>
      </trkpt>
      <trkpt lat="39.684711" lon="-2.404999">
        <ele>892.183</ele>
        <time>2022-02-22T13:59:00Z</time>
      </trkpt>
      <trkpt lat="39.684546" lon="-2.407359">
        <ele>904.111</ele>
        <time>2022-02-22T13:59:40Z</time>
      </trkpt>
      <trkpt lat="39.684315" lon="-2.409934">
        <ele>908.708</ele>
        <time>2022-02-22T14:00:20Z</time>
      </trkpt>
      <trkpt lat="39.684084" lon="-2.412509">
        <ele>925.941</ele>
        <time>2022-02-22T14:01:00Z</time>
      </trkpt>
      <trkpt lat="39.684117" lon="-2.415170">
        <ele>934.357</ele>
        <time>2022-02-22T14:01:40Z</time>
      </trkpt>
      <trkpt lat="39.684480" lon="-2.418002">
        <ele>949.071</ele>
        <time>2022-02-22T14:02:20Z</time>
      </trkpt>
      <trkpt lat="39.684843" lon="-2.420749">
        <ele>960.718</ele>
        <time>2022-02-22T14:03:00Z</time>
      </trkpt>
      <trkpt lat="39.684980" lon="-2.423365">
        <ele>976.218</ele>
        <time>2022-02-22T14:03:40Z</time>
      </trkpt>
      <trkpt lat="39.684419" lon="-2.425768">
        <ele>971.225</ele>
        <time>2022-02-22T14:04:20Z</time>
      </trkpt>
      <trkpt lat="39.683692" lon="-2.428043">
        <ele>975.071</ele>
        <time>2022-02-22T14:05:00Z</time>
      </trkpt>
      <trkpt lat="39.683064" lon="-2.430660">
        <ele>970.754</ele>
        <time>2022-02-22T14:05:40Z</time>
      </trkpt>
      <trkpt lat="39.682536" lon="-2.432978">
        <ele>967.963</ele>
        <time>2022-02-22T14:06:20Z</time>
      </trkpt>
      <trkpt lat="39.682041" lon="-2.435467">
        <ele>969.144</ele>
        <time>2022-02-22T14:07:00Z</time>
      </trkpt>
      <trkpt lat="39.681545" lon="-2.438042">
        <ele>968.118</ele>
        <time>2022-02-22T14:07:40Z</time>
      </trkpt>
      <trkpt lat="39.681017" lon="-2.440703">
        <ele>969.308</ele>
        <time>2022-02-22T14:08:20Z</time>
      </trkpt>
      <trkpt lat="39.680323" lon="-2.443192">
        <ele>956.615</ele>
        <time>2022-02-22T14:09:00Z</time>
      </trkpt>
      <trkpt lat="39.680092" lon="-2.445166">
        <ele>952.431</ele>
        <time>2022-02-22T14:09:40Z</time>
      </trkpt>
      <trkpt lat="39.680389" lon="-2.447869">
        <ele>950.555</ele>
        <time>2022-02-22T14:10:20Z</time>
      </trkpt>
      <trkpt lat="39.680838" lon="-2.450721">
        <ele>954.442</ele>
        <time>2022-02-22T14:11:00Z</time>
      </trkpt>
      <trkpt lat="39.681235" lon="-2.453338">
        <ele>957.452</ele>
        <time>2022-02-22T14:11:40Z</time>
      </trkpt>
      <trkpt lat="39.681697" lon="-2.455699">
        <ele>952.649</ele>
        <time>2022-02-22T14:12:20Z</time>
      </trkpt>
      <trkpt lat="39.682093" lon="-2.458360">
        <ele>959.975</ele>
        <time>2022-02-22T14:13:00Z</time>
      </trkpt>
      <trkpt lat="39.682919" lon="-2.461063">
        <ele>954.238</ele>
        <time>2022-02-22T14:13:40Z</time>
      </trkpt>
      <trkpt lat="39.683679" lon="-2.463552">
        <ele>952.797</ele>
        <time>2022-02-22T14:14:20Z</time>
      </trkpt>
      <trkpt lat="39.684207" lon="-2.466127">
        <ele>954.123</ele>
        <time>2022-02-22T14:15:00Z</time>
      </trkpt>
      <trkpt lat="39.684695" lon="-2.468709">
        <ele>955.925</ele>
        <time>2022-02-22T14:15:40Z</time>
      </trkpt>
      <trkpt lat="39.685190" lon="-2.471198">
        <ele>959.708</ele>
        <time>2022-02-22T14:16:20Z</time>
      </trkpt>
      <trkpt lat="39.685454" lon="-2.473859">
        <ele>965.068</ele>
        <time>2022-02-22T14:17:00Z</time>
      </trkpt>
      <trkpt lat="39.685421" lon="-2.476648">
        <ele>962.544</ele>
        <time>2022-02-22T14:17:40Z</time>
      </trkpt>
      <trkpt lat="39.685554" lon="-2.479309">
        <ele>957.968</ele>
        <time>2022-02-22T14:18:20Z</time>
      </trkpt>
      <trkpt lat="39.686115" lon="-2.482141">
        <ele>938.695</ele>
        <time>2022-02-22T14:19:00Z</time>
      </trkpt>
      <trkpt lat="39.686775" lon="-2.484630">
        <ele>924.325</ele>
        <time>2022-02-22T14:19:40Z</time>
      </trkpt>
      <trkpt lat="39.687403" lon="-2.487034">
        <ele>911.722</ele>
        <time>2022-02-22T14:20:20Z</time>
      </trkpt>
      <trkpt lat="39.687832" lon="-2.489737">
        <ele>898.668</ele>
        <time>2022-02-22T14:21:00Z</time>
      </trkpt>
      <trkpt lat="39.687469" lon="-2.492355">
        <ele>889.611</ele>
        <time>2022-02-22T14:21:40Z</time>
      </trkpt>
      <trkpt lat="39.686650" lon="-2.495066">
        <ele>879.861</ele>
        <time>2022-02-22T14:22:20Z</time>
      </trkpt>
      <trkpt lat="39.685197" lon="-2.496911">
        <ele>874.121</ele>
        <time>2022-02-22T14:23:00Z</time>
      </trkpt>
      <trkpt lat="39.683678" lon="-2.498800">
        <ele>877.613</ele>
        <time>2022-02-22T14:23:40Z</time>
      </trkpt>
      <trkpt lat="39.682191" lon="-2.500774">
        <ele>874.008</ele>
        <time>2022-02-22T14:24:20Z</time>
      </trkpt>
      <trkpt lat="39.682191" lon="-2.500774">
        <ele>874.085</ele>
        <time>2022-02-22T14:25:00Z</time>
      </trkpt>
      <trkpt lat="39.680770" lon="-2.502742">
        <ele>866.921</ele>
        <time>2022-02-22T14:25:40Z</time>
      </trkpt>
      <trkpt lat="39.680209" lon="-2.503665">
        <ele>865.375</ele>
        <time>2022-02-22T14:26:20Z</time>
      </trkpt>
      <trkpt lat="39.681661" lon="-2.505269">
        <ele>870.952</ele>
        <time>2022-02-22T14:27:00Z</time>
      </trkpt>
      <trkpt lat="39.682421" lon="-2.506385">
        <ele>863.942</ele>
        <time>2022-02-22T14:27:40Z</time>
      </trkpt>
      <trkpt lat="39.682454" lon="-2.507844">
        <ele>857.389</ele>
        <time>2022-02-22T14:28:20Z</time>
      </trkpt>
      <trkpt lat="39.684204" lon="-2.509346">
        <ele>855.525</ele>
        <time>2022-02-22T14:29:00Z</time>
      </trkpt>
      <trkpt lat="39.683912" lon="-2.511998">
        <ele>845.598</ele>
        <time>2022-02-22T14:29:40Z</time>
      </trkpt>
      <trkpt lat="39.683912" lon="-2.511998">
        <ele>845.517</ele>
        <time>2022-02-22T14:30:20Z</time>
      </trkpt>
      <trkpt lat="39.683761" lon="-2.514577">
        <ele>839.287</ele>
        <time>2022-02-22T14:31:00Z</time>
      </trkpt>
      <trkpt lat="39.684190" lon="-2.517195">
        <ele>838.115</ele>
        <time>2022-02-22T14:31:40Z</time>
      </trkpt>
      <trkpt lat="39.684619" lon="-2.519255">
        <ele>839.308</ele>
        <time>2022-02-22T14:32:20Z</time>
      </trkpt>
      <trkpt lat="39.685907" lon="-2.521530">
        <ele>850.650</ele>
        <time>2022-02-22T14:33:00Z</time>
      </trkpt>
      <trkpt lat="39.687129" lon="-2.523933">
        <ele>851.916</ele>
        <time>2022-02-22T14:33:40Z</time>
      </trkpt>
      <trkpt lat="39.688153" lon="-2.526336">
        <ele>848.010</ele>
        <time>2022-02-22T14:34:20Z</time>
      </trkpt>
      <trkpt lat="39.689309" lon="-2.528611">
        <ele>854.027</ele>
        <time>2022-02-22T14:35:00Z</time>
      </trkpt>
      <trkpt lat="39.690399" lon="-2.531014">
        <ele>861.237</ele>
        <time>2022-02-22T14:35:40Z</time>
      </trkpt>
      <trkpt lat="39.691653" lon="-2.533367">
        <ele>866.044</ele>
        <time>2022-02-22T14:36:20Z</time>
      </trkpt>
      <trkpt lat="39.692709" lon="-2.535685">
        <ele>868.090</ele>
        <time>2022-02-22T14:37:00Z</time>
      </trkpt>
      <trkpt lat="39.693865" lon="-2.537873">
        <ele>877.423</ele>
        <time>2022-02-22T14:37:40Z</time>
      </trkpt>
      <trkpt lat="39.695153" lon="-2.540062">
        <ele>879.794</ele>
        <time>2022-02-22T14:38:20Z</time>
      </trkpt>
      <trkpt lat="39.695780" lon="-2.541307">
        <ele>875.657</ele>
        <time>2022-02-22T14:39:00Z</time>
      </trkpt>
      <trkpt lat="39.695913" lon="-2.543452">
        <ele>873.722</ele>
        <time>2022-02-22T14:39:40Z</time>
      </trkpt>
      <trkpt lat="39.696837" lon="-2.545856">
        <ele>878.108</ele>
        <time>2022-02-22T14:40:20Z</time>
      </trkpt>
      <trkpt lat="39.698026" lon="-2.547873">
        <ele>879.778</ele>
        <time>2022-02-22T14:41:00Z</time>
      </trkpt>
      <trkpt lat="39.699677" lon="-2.549375">
        <ele>867.794</ele>
        <time>2022-02-22T14:41:40Z</time>
      </trkpt>
      <trkpt lat="39.701528" lon="-2.550603">
        <ele>865.568</ele>
        <time>2022-02-22T14:42:20Z</time>
      </trkpt>
      <trkpt lat="39.703476" lon="-2.551676">
        <ele>864.025</ele>
        <time>2022-02-22T14:43:00Z</time>
      </trkpt>
      <trkpt lat="39.705424" lon="-2.552964">
        <ele>864.665</ele>
        <time>2022-02-22T14:43:40Z</time>
      </trkpt>
      <trkpt lat="39.707042" lon="-2.554852">
        <ele>866.592</ele>
        <time>2022-02-22T14:44:20Z</time>
      </trkpt>
      <trkpt lat="39.708693" lon="-2.556740">
        <ele>867.138</ele>
        <time>2022-02-22T14:45:00Z</time>
      </trkpt>
      <trkpt lat="39.710145" lon="-2.558629">
        <ele>860.531</ele>
        <time>2022-02-22T14:45:40Z</time>
      </trkpt>
      <trkpt lat="39.711707" lon="-2.560530">
        <ele>856.994</ele>
        <time>2022-02-22T14:46:20Z</time>
      </trkpt>
      <trkpt lat="39.713215" lon="-2.562554">
        <ele>850.657</ele>
        <time>2022-02-22T14:47:00Z</time>
      </trkpt>
      <trkpt lat="39.714701" lon="-2.564443">
        <ele>845.922</ele>
        <time>2022-02-22T14:47:40Z</time>
      </trkpt>
      <trkpt lat="39.715889" lon="-2.566717">
        <ele>843.808</ele>
        <time>2022-02-22T14:48:20Z</time>
      </trkpt>
      <trkpt lat="39.717143" lon="-2.569120">
        <ele>839.658</ele>
        <time>2022-02-22T14:49:00Z</time>
      </trkpt>
      <trkpt lat="39.718068" lon="-2.570708">
        <ele>837.594</ele>
        <time>2022-02-22T14:49:40Z</time>
      </trkpt>
      <trkpt lat="39.719091" lon="-2.571567">
        <ele>834.448</ele>
        <time>2022-02-22T14:50:20Z</time>
      </trkpt>
      <trkpt lat="39.720114" lon="-2.573326">
        <ele>828.695</ele>
        <time>2022-02-22T14:51:00Z</time>
      </trkpt>
      <trkpt lat="39.721765" lon="-2.575129">
        <ele>820.165</ele>
        <time>2022-02-22T14:51:40Z</time>
      </trkpt>
      <trkpt lat="39.722921" lon="-2.577392">
        <ele>812.172</ele>
        <time>2022-02-22T14:52:20Z</time>
      </trkpt>
      <trkpt lat="39.723317" lon="-2.579924">
        <ele>805.958</ele>
        <time>2022-02-22T14:53:00Z</time>
      </trkpt>
      <trkpt lat="39.724175" lon="-2.582242">
        <ele>798.951</ele>
        <time>2022-02-22T14:53:40Z</time>
      </trkpt>
      <trkpt lat="39.724935" lon="-2.584645">
        <ele>796.496</ele>
        <time>2022-02-22T14:54:20Z</time>
      </trkpt>
      <trkpt lat="39.725760" lon="-2.587005">
        <ele>802.931</ele>
        <time>2022-02-22T14:55:00Z</time>
      </trkpt>
      <trkpt lat="39.726882" lon="-2.589366">
        <ele>808.524</ele>
        <time>2022-02-22T14:55:40Z</time>
      </trkpt>
      <trkpt lat="39.728334" lon="-2.591469">
        <ele>809.008</ele>
        <time>2022-02-22T14:56:20Z</time>
      </trkpt>
      <trkpt lat="39.730018" lon="-2.593314">
        <ele>817.178</ele>
        <time>2022-02-22T14:57:00Z</time>
      </trkpt>
      <trkpt lat="39.731701" lon="-2.594902">
        <ele>819.654</ele>
        <time>2022-02-22T14:57:40Z</time>
      </trkpt>
      <trkpt lat="39.733516" lon="-2.596533">
        <ele>820.238</ele>
        <time>2022-02-22T14:58:20Z</time>
      </trkpt>
      <trkpt lat="39.735300" lon="-2.598132">
        <ele>821.625</ele>
        <time>2022-02-22T14:59:00Z</time>
      </trkpt>
      <trkpt lat="39.736950" lon="-2.599849">
        <ele>823.545</ele>
        <time>2022-02-22T14:59:40Z</time>
      </trkpt>
      <trkpt lat="39.738699" lon="-2.601608">
        <ele>830.022</ele>
        <time>2022-02-22T15:00:20Z</time>
      </trkpt>
      <trkpt lat="39.740382" lon="-2.603282">
        <ele>824.878</ele>
        <time>2022-02-22T15:01:00Z</time>
      </trkpt>
      <trkpt lat="39.742164" lon="-2.604999">
        <ele>823.671</ele>
        <time>2022-02-22T15:01:40Z</time>
      </trkpt>
      <trkpt lat="39.743946" lon="-2.606630">
        <ele>820.692</ele>
        <time>2022-02-22T15:02:20Z</time>
      </trkpt>
      <trkpt lat="39.745563" lon="-2.608460">
        <ele>814.573</ele>
        <time>2022-02-22T15:03:00Z</time>
      </trkpt>
      <trkpt lat="39.747213" lon="-2.610134">
        <ele>813.520</ele>
        <time>2022-02-22T15:03:40Z</time>
      </trkpt>
      <trkpt lat="39.748566" lon="-2.611936">
        <ele>809.408</ele>
        <time>2022-02-22T15:04:20Z</time>
      </trkpt>
      <trkpt lat="39.750216" lon="-2.613910">
        <ele>808.918</ele>
        <time>2022-02-22T15:05:00Z</time>
      </trkpt>
      <trkpt lat="39.751568" lon="-2.616271">
        <ele>802.184</ele>
        <time>2022-02-22T15:05:40Z</time>
      </trkpt>
      <trkpt lat="39.752882" lon="-2.618209">
        <ele>800.158</ele>
        <time>2022-02-22T15:06:20Z</time>
      </trkpt>
      <trkpt lat="39.754663" lon="-2.619282">
        <ele>794.135</ele>
        <time>2022-02-22T15:07:00Z</time>
      </trkpt>
      <trkpt lat="39.756577" lon="-2.620398">
        <ele>795.015</ele>
        <time>2022-02-22T15:07:40Z</time>
      </trkpt>
      <trkpt lat="39.757204" lon="-2.621214">
        <ele>796.812</ele>
        <time>2022-02-22T15:08:20Z</time>
      </trkpt>
      <trkpt lat="39.756742" lon="-2.623746">
        <ele>798.468</ele>
        <time>2022-02-22T15:09:00Z</time>
      </trkpt>
      <trkpt lat="39.755389" lon="-2.625806">
        <ele>792.351</ele>
        <time>2022-02-22T15:09:40Z</time>
      </trkpt>
      <trkpt lat="39.754037" lon="-2.627994">
        <ele>793.322</ele>
        <time>2022-02-22T15:10:20Z</time>
      </trkpt>
      <trkpt lat="39.752717" lon="-2.630054">
        <ele>794.362</ele>
        <time>2022-02-22T15:11:00Z</time>
      </trkpt>
      <trkpt lat="39.751265" lon="-2.631985">
        <ele>792.508</ele>
        <time>2022-02-22T15:11:40Z</time>
      </trkpt>
      <trkpt lat="39.749461" lon="-2.632576">
        <ele>792.608</ele>
        <time>2022-02-22T15:12:20Z</time>
      </trkpt>
      <trkpt lat="39.747350" lon="-2.632447">
        <ele>789.811</ele>
        <time>2022-02-22T15:13:00Z</time>
      </trkpt>
      <trkpt lat="39.745997" lon="-2.633305">
        <ele>786.247</ele>
        <time>2022-02-22T15:13:40Z</time>
      </trkpt>
      <trkpt lat="39.744941" lon="-2.634850">
        <ele>787.731</ele>
        <time>2022-02-22T15:14:20Z</time>
      </trkpt>
      <trkpt lat="39.743885" lon="-2.636524">
        <ele>792.548</ele>
        <time>2022-02-22T15:15:00Z</time>
      </trkpt>
      <trkpt lat="39.745568" lon="-2.638197">
        <ele>797.098</ele>
        <time>2022-02-22T15:15:40Z</time>
      </trkpt>
      <trkpt lat="39.746690" lon="-2.639871">
        <ele>796.695</ele>
        <time>2022-02-22T15:16:20Z</time>
      </trkpt>
      <trkpt lat="39.748356" lon="-2.640572">
        <ele>798.091</ele>
        <time>2022-02-22T15:17:00Z</time>
      </trkpt>
      <trkpt lat="39.749808" lon="-2.642503">
        <ele>803.094</ele>
        <time>2022-02-22T15:17:40Z</time>
      </trkpt>
      <trkpt lat="39.750204" lon="-2.645078">
        <ele>805.375</ele>
        <time>2022-02-22T15:18:20Z</time>
      </trkpt>
      <trkpt lat="39.751424" lon="-2.647138">
        <ele>808.628</ele>
        <time>2022-02-22T15:19:00Z</time>
      </trkpt>
      <trkpt lat="39.752785" lon="-2.649160">
        <ele>818.020</ele>
        <time>2022-02-22T15:19:40Z</time>
      </trkpt>
      <trkpt lat="39.753576" lon="-2.650705">
        <ele>821.008</ele>
        <time>2022-02-22T15:20:20Z</time>
      </trkpt>
      <trkpt lat="39.755259" lon="-2.652550">
        <ele>826.046</ele>
        <time>2022-02-22T15:21:00Z</time>
      </trkpt>
      <trkpt lat="39.756975" lon="-2.654310">
        <ele>822.232</ele>
        <time>2022-02-22T15:21:40Z</time>
      </trkpt>
      <trkpt lat="39.758657" lon="-2.655855">
        <ele>821.816</ele>
        <time>2022-02-22T15:22:20Z</time>
      </trkpt>
      <trkpt lat="39.760307" lon="-2.657400">
        <ele>819.563</ele>
        <time>2022-02-22T15:23:00Z</time>
      </trkpt>
      <trkpt lat="39.762121" lon="-2.659030">
        <ele>817.713</ele>
        <time>2022-02-22T15:23:40Z</time>
      </trkpt>
      <trkpt lat="39.763870" lon="-2.660962">
        <ele>810.510</ele>
        <time>2022-02-22T15:24:20Z</time>
      </trkpt>
      <trkpt lat="39.765519" lon="-2.662507">
        <ele>817.916</ele>
        <time>2022-02-22T15:25:00Z</time>
      </trkpt>
      <trkpt lat="39.767243" lon="-2.664060">
        <ele>822.919</ele>
        <time>2022-02-22T15:25:40Z</time>
      </trkpt>
      <trkpt lat="39.768662" lon="-2.666163">
        <ele>824.274</ele>
        <time>2022-02-22T15:26:20Z</time>
      </trkpt>
      <trkpt lat="39.769990" lon="-2.668561">
        <ele>820.256</ele>
        <time>2022-02-22T15:27:00Z</time>
      </trkpt>
      <trkpt lat="39.771178" lon="-2.670836">
        <ele>825.321</ele>
        <time>2022-02-22T15:27:40Z</time>
      </trkpt>
      <trkpt lat="39.772299" lon="-2.673325">
        <ele>827.408</ele>
        <time>2022-02-22T15:28:20Z</time>
      </trkpt>
      <trkpt lat="39.773586" lon="-2.675642">
        <ele>834.276</ele>
        <time>2022-02-22T15:29:00Z</time>
      </trkpt>
      <trkpt lat="39.774674" lon="-2.678003">
        <ele>834.012</ele>
        <time>2022-02-22T15:29:40Z</time>
      </trkpt>
      <trkpt lat="39.775933" lon="-2.680397">
        <ele>836.986</ele>
        <time>2022-02-22T15:30:20Z</time>
      </trkpt>
      <trkpt lat="39.777088" lon="-2.682758">
        <ele>839.653</ele>
        <time>2022-02-22T15:31:00Z</time>
      </trkpt>
      <trkpt lat="39.778341" lon="-2.685161">
        <ele>851.633</ele>
        <time>2022-02-22T15:31:40Z</time>
      </trkpt>
      <trkpt lat="39.778902" lon="-2.687779">
        <ele>857.020</ele>
        <time>2022-02-22T15:32:20Z</time>
      </trkpt>
      <trkpt lat="39.780016" lon="-2.689810">
        <ele>854.776</ele>
        <time>2022-02-22T15:33:00Z</time>
      </trkpt>
      <trkpt lat="39.781698" lon="-2.691441">
        <ele>854.759</ele>
        <time>2022-02-22T15:33:40Z</time>
      </trkpt>
      <trkpt lat="39.783512" lon="-2.693157">
        <ele>854.613</ele>
        <time>2022-02-22T15:34:20Z</time>
      </trkpt>
      <trkpt lat="39.785194" lon="-2.694745">
        <ele>860.243</ele>
        <time>2022-02-22T15:35:00Z</time>
      </trkpt>
      <trkpt lat="39.785919" lon="-2.695518">
        <ele>862.107</ele>
        <time>2022-02-22T15:35:40Z</time>
      </trkpt>
      <trkpt lat="39.786645" lon="-2.698093">
        <ele>872.208</ele>
        <time>2022-02-22T15:36:20Z</time>
      </trkpt>
      <trkpt lat="39.787337" lon="-2.700753">
        <ele>872.830</ele>
        <time>2022-02-22T15:37:00Z</time>
      </trkpt>
      <trkpt lat="39.788593" lon="-2.702402">
        <ele>876.746</ele>
        <time>2022-02-22T15:37:40Z</time>
      </trkpt>
      <trkpt lat="39.789483" lon="-2.704848">
        <ele>878.080</ele>
        <time>2022-02-22T15:38:20Z</time>
      </trkpt>
      <trkpt lat="39.790736" lon="-2.707123">
        <ele>886.677</ele>
        <time>2022-02-22T15:39:00Z</time>
      </trkpt>
      <trkpt lat="39.791857" lon="-2.709140">
        <ele>893.987</ele>
        <time>2022-02-22T15:39:40Z</time>
      </trkpt>
      <trkpt lat="39.793803" lon="-2.710599">
        <ele>904.864</ele>
        <time>2022-02-22T15:40:20Z</time>
      </trkpt>
      <trkpt lat="39.795682" lon="-2.712144">
        <ele>920.020</ele>
        <time>2022-02-22T15:41:00Z</time>
      </trkpt>
      <trkpt lat="39.797430" lon="-2.713903">
        <ele>934.013</ele>
        <time>2022-02-22T15:41:40Z</time>
      </trkpt>
      <trkpt lat="39.798815" lon="-2.715834">
        <ele>929.798</ele>
        <time>2022-02-22T15:42:20Z</time>
      </trkpt>
      <trkpt lat="39.800568" lon="-2.717733">
        <ele>936.115</ele>
        <time>2022-02-22T15:43:00Z</time>
      </trkpt>
      <trkpt lat="39.801557" lon="-2.719621">
        <ele>924.826</ele>
        <time>2022-02-22T15:43:40Z</time>
      </trkpt>
      <trkpt lat="39.801656" lon="-2.722411">
        <ele>910.408</ele>
        <time>2022-02-22T15:44:20Z</time>
      </trkpt>
      <trkpt lat="39.801689" lon="-2.725071">
        <ele>905.458</ele>
        <time>2022-02-22T15:45:00Z</time>
      </trkpt>
      <trkpt lat="39.801063" lon="-2.726359">
        <ele>904.374</ele>
        <time>2022-02-22T15:45:40Z</time>
      </trkpt>
      <trkpt lat="39.800898" lon="-2.727904">
        <ele>898.838</ele>
        <time>2022-02-22T15:46:20Z</time>
      </trkpt>
      <trkpt lat="39.799711" lon="-2.729706">
        <ele>889.235</ele>
        <time>2022-02-22T15:47:00Z</time>
      </trkpt>
      <trkpt lat="39.799152" lon="-2.731995">
        <ele>880.915</ele>
        <time>2022-02-22T15:47:40Z</time>
      </trkpt>
      <trkpt lat="39.799251" lon="-2.734914">
        <ele>870.442</ele>
        <time>2022-02-22T15:48:20Z</time>
      </trkpt>
      <trkpt lat="39.800174" lon="-2.737660">
        <ele>863.028</ele>
        <time>2022-02-22T15:49:00Z</time>
      </trkpt>
      <trkpt lat="39.801526" lon="-2.740063">
        <ele>862.421</ele>
        <time>2022-02-22T15:49:40Z</time>
      </trkpt>
      <trkpt lat="39.802680" lon="-2.742510">
        <ele>858.587</ele>
        <time>2022-02-22T15:50:20Z</time>
      </trkpt>
      <trkpt lat="39.803932" lon="-2.744827">
        <ele>861.642</ele>
        <time>2022-02-22T15:51:00Z</time>
      </trkpt>
      <trkpt lat="39.805086" lon="-2.747445">
        <ele>869.926</ele>
        <time>2022-02-22T15:51:40Z</time>
      </trkpt>
      <trkpt lat="39.806462" lon="-2.749612">
        <ele>879.308</ele>
        <time>2022-02-22T15:52:20Z</time>
      </trkpt>
      <trkpt lat="39.808242" lon="-2.751242">
        <ele>898.187</ele>
        <time>2022-02-22T15:53:00Z</time>
      </trkpt>
      <trkpt lat="39.809990" lon="-2.752873">
        <ele>909.523</ele>
        <time>2022-02-22T15:53:40Z</time>
      </trkpt>
      <trkpt lat="39.811242" lon="-2.755405">
        <ele>908.267</ele>
        <time>2022-02-22T15:54:20Z</time>
      </trkpt>
      <trkpt lat="39.812956" lon="-2.757165">
        <ele>916.494</ele>
        <time>2022-02-22T15:55:00Z</time>
      </trkpt>
      <trkpt lat="39.815033" lon="-2.758323">
        <ele>916.754</ele>
        <time>2022-02-22T15:55:40Z</time>
      </trkpt>
      <trkpt lat="39.816253" lon="-2.760469">
        <ele>910.521</ele>
        <time>2022-02-22T15:56:20Z</time>
      </trkpt>
      <trkpt lat="39.817886" lon="-2.762261">
        <ele>897.787</ele>
        <time>2022-02-22T15:57:00Z</time>
      </trkpt>
      <trkpt lat="39.819435" lon="-2.763935">
        <ele>894.780</ele>
        <time>2022-02-22T15:57:40Z</time>
      </trkpt>
      <trkpt lat="39.821281" lon="-2.765394">
        <ele>894.627</ele>
        <time>2022-02-22T15:58:20Z</time>
      </trkpt>
      <trkpt lat="39.821458" lon="-2.767954">
        <ele>883.968</ele>
        <time>2022-02-22T15:59:00Z</time>
      </trkpt>
      <trkpt lat="39.820799" lon="-2.768812">
        <ele>880.914</ele>
        <time>2022-02-22T15:59:40Z</time>
      </trkpt>
      <trkpt lat="39.819678" lon="-2.770443">
        <ele>882.708</ele>
        <time>2022-02-22T16:00:20Z</time>
      </trkpt>
      <trkpt lat="39.819480" lon="-2.772760">
        <ele>893.811</ele>
        <time>2022-02-22T16:01:00Z</time>
      </trkpt>
      <trkpt lat="39.819414" lon="-2.775249">
        <ele>889.117</ele>
        <time>2022-02-22T16:01:40Z</time>
      </trkpt>
      <trkpt lat="39.818228" lon="-2.777138">
        <ele>880.051</ele>
        <time>2022-02-22T16:02:20Z</time>
      </trkpt>
      <trkpt lat="39.816843" lon="-2.779026">
        <ele>879.848</ele>
        <time>2022-02-22T16:03:00Z</time>
      </trkpt>
      <trkpt lat="39.815063" lon="-2.779884">
        <ele>873.388</ele>
        <time>2022-02-22T16:03:40Z</time>
      </trkpt>
      <trkpt lat="39.813349" lon="-2.780571">
        <ele>863.095</ele>
        <time>2022-02-22T16:04:20Z</time>
      </trkpt>
      <trkpt lat="39.812294" lon="-2.782116">
        <ele>856.511</ele>
        <time>2022-02-22T16:05:00Z</time>
      </trkpt>
      <trkpt lat="39.810316" lon="-2.783489">
        <ele>870.334</ele>
        <time>2022-02-22T16:05:40Z</time>
      </trkpt>
      <trkpt lat="39.808602" lon="-2.784348">
        <ele>853.458</ele>
        <time>2022-02-22T16:06:20Z</time>
      </trkpt>
      <trkpt lat="39.807085" lon="-2.786150">
        <ele>849.552</ele>
        <time>2022-02-22T16:07:00Z</time>
      </trkpt>
      <trkpt lat="39.805635" lon="-2.788124">
        <ele>842.117</ele>
        <time>2022-02-22T16:07:40Z</time>
      </trkpt>
      <trkpt lat="39.804514" lon="-2.789927">
        <ele>835.708</ele>
        <time>2022-02-22T16:08:20Z</time>
      </trkpt>
      <trkpt lat="39.803393" lon="-2.791729">
        <ele>835.254</ele>
        <time>2022-02-22T16:09:00Z</time>
      </trkpt>
      <trkpt lat="39.802008" lon="-2.793531">
        <ele>841.180</ele>
        <time>2022-02-22T16:09:40Z</time>
      </trkpt>
      <trkpt lat="39.801217" lon="-2.794476">
        <ele>839.474</ele>
        <time>2022-02-22T16:10:20Z</time>
      </trkpt>
      <trkpt lat="39.800623" lon="-2.796450">
        <ele>827.551</ele>
        <time>2022-02-22T16:11:00Z</time>
      </trkpt>
      <trkpt lat="39.799568" lon="-2.798681">
        <ele>824.071</ele>
        <time>2022-02-22T16:11:40Z</time>
      </trkpt>
      <trkpt lat="39.799173" lon="-2.800570">
        <ele>821.158</ele>
        <time>2022-02-22T16:12:20Z</time>
      </trkpt>
      <trkpt lat="39.798118" lon="-2.802544">
        <ele>828.844</ele>
        <time>2022-02-22T16:13:00Z</time>
      </trkpt>
      <trkpt lat="39.796826" lon="-2.804565">
        <ele>830.897</ele>
        <time>2022-02-22T16:13:40Z</time>
      </trkpt>
      <trkpt lat="39.795573" lon="-2.806110">
        <ele>830.055</ele>
        <time>2022-02-22T16:14:20Z</time>
      </trkpt>
      <trkpt lat="39.793991" lon="-2.807140">
        <ele>831.007</ele>
        <time>2022-02-22T16:15:00Z</time>
      </trkpt>
      <trkpt lat="39.792738" lon="-2.808427">
        <ele>831.917</ele>
        <time>2022-02-22T16:15:40Z</time>
      </trkpt>
      <trkpt lat="39.792012" lon="-2.809543">
        <ele>839.808</ele>
        <time>2022-02-22T16:16:20Z</time>
      </trkpt>
      <trkpt lat="39.790429" lon="-2.810144">
        <ele>844.284</ele>
        <time>2022-02-22T16:17:00Z</time>
      </trkpt>
      <trkpt lat="39.788583" lon="-2.811174">
        <ele>848.050</ele>
        <time>2022-02-22T16:17:40Z</time>
      </trkpt>
      <trkpt lat="39.786868" lon="-2.812032">
        <ele>848.984</ele>
        <time>2022-02-22T16:18:20Z</time>
      </trkpt>
      <trkpt lat="39.786274" lon="-2.813663">
        <ele>852.431</ele>
        <time>2022-02-22T16:19:00Z</time>
      </trkpt>
      <trkpt lat="39.786208" lon="-2.816581">
        <ele>854.731</ele>
        <time>2022-02-22T16:19:40Z</time>
      </trkpt>
      <trkpt lat="39.785944" lon="-2.819499">
        <ele>866.898</ele>
        <time>2022-02-22T16:20:20Z</time>
      </trkpt>
      <trkpt lat="39.785681" lon="-2.821817">
        <ele>875.374</ele>
        <time>2022-02-22T16:21:00Z</time>
      </trkpt>
      <trkpt lat="39.786142" lon="-2.824220">
        <ele>891.257</ele>
        <time>2022-02-22T16:21:40Z</time>
      </trkpt>
      <trkpt lat="39.786274" lon="-2.826881">
        <ele>907.569</ele>
        <time>2022-02-22T16:22:20Z</time>
      </trkpt>
      <trkpt lat="39.786208" lon="-2.829370">
        <ele>910.404</ele>
        <time>2022-02-22T16:23:00Z</time>
      </trkpt>
      <trkpt lat="39.785813" lon="-2.832031">
        <ele>924.524</ele>
        <time>2022-02-22T16:23:40Z</time>
      </trkpt>
      <trkpt lat="39.785483" lon="-2.834434">
        <ele>942.708</ele>
        <time>2022-02-22T16:24:20Z</time>
      </trkpt>
      <trkpt lat="39.785285" lon="-2.836065">
        <ele>947.995</ele>
        <time>2022-02-22T16:25:00Z</time>
      </trkpt>
      <trkpt lat="39.784164" lon="-2.837867">
        <ele>961.041</ele>
        <time>2022-02-22T16:25:40Z</time>
      </trkpt>
      <trkpt lat="39.783570" lon="-2.840528">
        <ele>967.745</ele>
        <time>2022-02-22T16:26:20Z</time>
      </trkpt>
      <trkpt lat="39.783240" lon="-2.841386">
        <ele>964.042</ele>
        <time>2022-02-22T16:27:00Z</time>
      </trkpt>
      <trkpt lat="39.782022" lon="-2.842654">
        <ele>950.992</ele>
        <time>2022-02-22T16:27:40Z</time>
      </trkpt>
      <trkpt lat="39.781165" lon="-2.845229">
        <ele>937.639</ele>
        <time>2022-02-22T16:28:20Z</time>
      </trkpt>
      <trkpt lat="39.779846" lon="-2.847375">
        <ele>943.255</ele>
        <time>2022-02-22T16:29:00Z</time>
      </trkpt>
      <trkpt lat="39.779252" lon="-2.849435">
        <ele>927.568</ele>
        <time>2022-02-22T16:29:40Z</time>
      </trkpt>
      <trkpt lat="39.779780" lon="-2.851237">
        <ele>914.378</ele>
        <time>2022-02-22T16:30:20Z</time>
      </trkpt>
      <trkpt lat="39.780307" lon="-2.853040">
        <ele>904.233</ele>
        <time>2022-02-22T16:31:00Z</time>
      </trkpt>
      <trkpt lat="39.780901" lon="-2.854671">
        <ele>896.426</ele>
        <time>2022-02-22T16:31:40Z</time>
      </trkpt>
      <trkpt lat="39.781231" lon="-2.857589">
        <ele>887.108</ele>
        <time>2022-02-22T16:32:20Z</time>
      </trkpt>
      <trkpt lat="39.781758" lon="-2.860164">
        <ele>879.916</ele>
        <time>2022-02-22T16:33:00Z</time>
      </trkpt>
      <trkpt lat="39.782484" lon="-2.862739">
        <ele>872.242</ele>
        <time>2022-02-22T16:33:40Z</time>
      </trkpt>
      <trkpt lat="39.783473" lon="-2.865400">
        <ele>867.976</ele>
        <time>2022-02-22T16:34:20Z</time>
      </trkpt>
      <trkpt lat="39.784727" lon="-2.867631">
        <ele>867.913</ele>
        <time>2022-02-22T16:35:00Z</time>
      </trkpt>
      <trkpt lat="39.785650" lon="-2.869949">
        <ele>857.753</ele>
        <time>2022-02-22T16:35:40Z</time>
      </trkpt>
      <trkpt lat="39.786529" lon="-2.872434">
        <ele>854.110</ele>
        <time>2022-02-22T16:36:20Z</time>
      </trkpt>
      <trkpt lat="39.787188" lon="-2.874923">
        <ele>851.486</ele>
        <time>2022-02-22T16:37:00Z</time>
      </trkpt>
      <trkpt lat="39.787650" lon="-2.877412">
        <ele>841.939</ele>
        <time>2022-02-22T16:37:40Z</time>
      </trkpt>
      <trkpt lat="39.787584" lon="-2.880073">
        <ele>840.625</ele>
        <time>2022-02-22T16:38:20Z</time>
      </trkpt>
      <trkpt lat="39.787386" lon="-2.882476">
        <ele>838.626</ele>
        <time>2022-02-22T16:39:00Z</time>
      </trkpt>
      <trkpt lat="39.787518" lon="-2.885480">
        <ele>838.008</ele>
        <time>2022-02-22T16:39:40Z</time>
      </trkpt>
      <trkpt lat="39.787386" lon="-2.887797">
        <ele>830.908</ele>
        <time>2022-02-22T16:40:20Z</time>
      </trkpt>
      <trkpt lat="39.787188" lon="-2.890372">
        <ele>828.361</ele>
        <time>2022-02-22T16:41:00Z</time>
      </trkpt>
      <trkpt lat="39.786742" lon="-2.893295">
        <ele>818.537</ele>
        <time>2022-02-22T16:41:40Z</time>
      </trkpt>
      <trkpt lat="39.786940" lon="-2.895870">
        <ele>816.021</ele>
        <time>2022-02-22T16:42:20Z</time>
      </trkpt>
      <trkpt lat="39.787204" lon="-2.898531">
        <ele>817.448</ele>
        <time>2022-02-22T16:43:00Z</time>
      </trkpt>
      <trkpt lat="39.787336" lon="-2.899646">
        <ele>812.718</ele>
        <time>2022-02-22T16:43:40Z</time>
      </trkpt>
      <trkpt lat="39.788655" lon="-2.901620">
        <ele>810.245</ele>
        <time>2022-02-22T16:44:20Z</time>
      </trkpt>
      <trkpt lat="39.789051" lon="-2.904539">
        <ele>805.281</ele>
        <time>2022-02-22T16:45:00Z</time>
      </trkpt>
      <trkpt lat="39.788721" lon="-2.907543">
        <ele>803.824</ele>
        <time>2022-02-22T16:45:40Z</time>
      </trkpt>
      <trkpt lat="39.788061" lon="-2.909174">
        <ele>802.098</ele>
        <time>2022-02-22T16:46:20Z</time>
      </trkpt>
      <trkpt lat="39.787600" lon="-2.912178">
        <ele>798.815</ele>
        <time>2022-02-22T16:47:00Z</time>
      </trkpt>
      <trkpt lat="39.788391" lon="-2.914753">
        <ele>793.626</ele>
        <time>2022-02-22T16:47:40Z</time>
      </trkpt>
      <trkpt lat="39.789248" lon="-2.917070">
        <ele>780.508</ele>
        <time>2022-02-22T16:48:20Z</time>
      </trkpt>
      <trkpt lat="39.790633" lon="-2.919387">
        <ele>785.798</ele>
        <time>2022-02-22T16:49:00Z</time>
      </trkpt>
      <trkpt lat="39.792216" lon="-2.921533">
        <ele>781.684</ele>
        <time>2022-02-22T16:49:40Z</time>
      </trkpt>
      <trkpt lat="39.793271" lon="-2.923936">
        <ele>779.078</ele>
        <time>2022-02-22T16:50:20Z</time>
      </trkpt>
      <trkpt lat="39.794975" lon="-2.926021">
        <ele>768.945</ele>
        <time>2022-02-22T16:51:00Z</time>
      </trkpt>
      <trkpt lat="39.796426" lon="-2.928339">
        <ele>749.275</ele>
        <time>2022-02-22T16:51:40Z</time>
      </trkpt>
      <trkpt lat="39.797811" lon="-2.930571">
        <ele>743.262</ele>
        <time>2022-02-22T16:52:20Z</time>
      </trkpt>
      <trkpt lat="39.798800" lon="-2.932373">
        <ele>745.348</ele>
        <time>2022-02-22T16:53:00Z</time>
      </trkpt>
      <trkpt lat="39.799789" lon="-2.934776">
        <ele>740.811</ele>
        <time>2022-02-22T16:53:40Z</time>
      </trkpt>
      <trkpt lat="39.799987" lon="-2.936579">
        <ele>738.092</ele>
        <time>2022-02-22T16:54:20Z</time>
      </trkpt>
      <trkpt lat="39.798998" lon="-2.937780">
        <ele>738.273</ele>
        <time>2022-02-22T16:55:00Z</time>
      </trkpt>
      <trkpt lat="39.798470" lon="-2.938639">
        <ele>739.820</ele>
        <time>2022-02-22T16:55:40Z</time>
      </trkpt>
      <trkpt lat="39.800503" lon="-2.938784">
        <ele>737.008</ele>
        <time>2022-02-22T16:56:20Z</time>
      </trkpt>
      <trkpt lat="39.802646" lon="-2.939127">
        <ele>736.798</ele>
        <time>2022-02-22T16:57:00Z</time>
      </trkpt>
      <trkpt lat="39.804591" lon="-2.940114">
        <ele>746.024</ele>
        <time>2022-02-22T16:57:40Z</time>
      </trkpt>
      <trkpt lat="39.806569" lon="-2.941230">
        <ele>754.968</ele>
        <time>2022-02-22T16:58:20Z</time>
      </trkpt>
      <trkpt lat="39.808416" lon="-2.942775">
        <ele>761.345</ele>
        <time>2022-02-22T16:59:00Z</time>
      </trkpt>
      <trkpt lat="39.810223" lon="-2.944451">
        <ele>761.495</ele>
        <time>2022-02-22T16:59:40Z</time>
      </trkpt>
      <trkpt lat="39.811707" lon="-2.945867">
        <ele>767.482</ele>
        <time>2022-02-22T17:00:20Z</time>
      </trkpt>
      <trkpt lat="39.813553" lon="-2.947541">
        <ele>776.118</ele>
        <time>2022-02-22T17:01:00Z</time>
      </trkpt>
      <trkpt lat="39.815069" lon="-2.949300">
        <ele>779.511</ele>
        <time>2022-02-22T17:01:40Z</time>
      </trkpt>
      <trkpt lat="39.817146" lon="-2.950287">
        <ele>788.023</ele>
        <time>2022-02-22T17:02:20Z</time>
      </trkpt>
      <trkpt lat="39.818003" lon="-2.950802">
        <ele>786.283</ele>
        <time>2022-02-22T17:03:00Z</time>
      </trkpt>
      <trkpt lat="39.819140" lon="-2.953246">
        <ele>782.211</ele>
        <time>2022-02-22T17:03:40Z</time>
      </trkpt>
      <trkpt lat="39.820426" lon="-2.955478">
        <ele>778.108</ele>
        <time>2022-02-22T17:04:20Z</time>
      </trkpt>
      <trkpt lat="39.821580" lon="-2.957838">
        <ele>780.071</ele>
        <time>2022-02-22T17:05:00Z</time>
      </trkpt>
      <trkpt lat="39.822799" lon="-2.960070">
        <ele>780.217</ele>
        <time>2022-02-22T17:05:40Z</time>
      </trkpt>
      <trkpt lat="39.824084" lon="-2.962396">
        <ele>783.691</ele>
        <time>2022-02-22T17:06:20Z</time>
      </trkpt>
      <trkpt lat="39.825237" lon="-2.964671">
        <ele>778.948</ele>
        <time>2022-02-22T17:07:00Z</time>
      </trkpt>
      <trkpt lat="39.826523" lon="-2.967074">
        <ele>775.578</ele>
        <time>2022-02-22T17:07:40Z</time>
      </trkpt>
      <trkpt lat="39.827775" lon="-2.969434">
        <ele>782.045</ele>
        <time>2022-02-22T17:08:20Z</time>
      </trkpt>
      <trkpt lat="39.828962" lon="-2.971666">
        <ele>782.311</ele>
        <time>2022-02-22T17:09:00Z</time>
      </trkpt>
      <trkpt lat="39.830169" lon="-2.974035">
        <ele>780.524</ele>
        <time>2022-02-22T17:09:40Z</time>
      </trkpt>
      <trkpt lat="39.831257" lon="-2.976396">
        <ele>781.592</ele>
        <time>2022-02-22T17:10:20Z</time>
      </trkpt>
      <trkpt lat="39.832476" lon="-2.978799">
        <ele>781.273</ele>
        <time>2022-02-22T17:11:00Z</time>
      </trkpt>
      <trkpt lat="39.833762" lon="-2.981202">
        <ele>777.420</ele>
        <time>2022-02-22T17:11:40Z</time>
      </trkpt>
      <trkpt lat="39.834985" lon="-2.983383">
        <ele>773.608</ele>
        <time>2022-02-22T17:12:20Z</time>
      </trkpt>
      <trkpt lat="39.836205" lon="-2.985744">
        <ele>776.788</ele>
        <time>2022-02-22T17:13:00Z</time>
      </trkpt>
      <trkpt lat="39.837358" lon="-2.988104">
        <ele>778.044</ele>
        <time>2022-02-22T17:13:40Z</time>
      </trkpt>
      <trkpt lat="39.838577" lon="-2.990336">
        <ele>772.628</ele>
        <time>2022-02-22T17:14:20Z</time>
      </trkpt>
      <trkpt lat="39.839994" lon="-2.992396">
        <ele>763.735</ele>
        <time>2022-02-22T17:15:00Z</time>
      </trkpt>
      <trkpt lat="39.840192" lon="-2.993383">
        <ele>765.535</ele>
        <time>2022-02-22T17:15:40Z</time>
      </trkpt>
      <trkpt lat="39.839434" lon="-2.994670">
        <ele>761.622</ele>
        <time>2022-02-22T17:16:20Z</time>
      </trkpt>
      <trkpt lat="39.839071" lon="-2.996601">
        <ele>751.728</ele>
        <time>2022-02-22T17:17:00Z</time>
      </trkpt>
      <trkpt lat="39.840027" lon="-2.998833">
        <ele>751.361</ele>
        <time>2022-02-22T17:17:40Z</time>
      </trkpt>
      <trkpt lat="39.841082" lon="-2.999734">
        <ele>751.897</ele>
        <time>2022-02-22T17:18:20Z</time>
      </trkpt>
      <trkpt lat="39.841773" lon="-3.000764">
        <ele>750.223</ele>
        <time>2022-02-22T17:19:00Z</time>
      </trkpt>
      <trkpt lat="39.840983" lon="-3.003339">
        <ele>753.025</ele>
        <time>2022-02-22T17:19:40Z</time>
      </trkpt>
      <trkpt lat="39.839961" lon="-3.005828">
        <ele>753.208</ele>
        <time>2022-02-22T17:20:20Z</time>
      </trkpt>
      <trkpt lat="39.839467" lon="-3.007244">
        <ele>751.218</ele>
        <time>2022-02-22T17:21:00Z</time>
      </trkpt>
      <trkpt lat="39.838873" lon="-3.009836">
        <ele>754.454</ele>
        <time>2022-02-22T17:21:40Z</time>
      </trkpt>
      <trkpt lat="39.838148" lon="-3.012411">
        <ele>752.758</ele>
        <time>2022-02-22T17:22:20Z</time>
      </trkpt>
      <trkpt lat="39.837522" lon="-3.015115">
        <ele>760.425</ele>
        <time>2022-02-22T17:23:00Z</time>
      </trkpt>
      <trkpt lat="39.836797" lon="-3.017776">
        <ele>757.985</ele>
        <time>2022-02-22T17:23:40Z</time>
      </trkpt>
      <trkpt lat="39.836072" lon="-3.020351">
        <ele>757.442</ele>
        <time>2022-02-22T17:24:20Z</time>
      </trkpt>
      <trkpt lat="39.835413" lon="-3.022968">
        <ele>753.938</ele>
        <time>2022-02-22T17:25:00Z</time>
      </trkpt>
      <trkpt lat="39.834754" lon="-3.025586">
        <ele>746.041</ele>
        <time>2022-02-22T17:25:40Z</time>
      </trkpt>
      <trkpt lat="39.834067" lon="-3.028329">
        <ele>747.981</ele>
        <time>2022-02-22T17:26:20Z</time>
      </trkpt>
      <trkpt lat="39.833375" lon="-3.031032">
        <ele>741.661</ele>
        <time>2022-02-22T17:27:00Z</time>
      </trkpt>
      <trkpt lat="39.832650" lon="-3.033779">
        <ele>742.417</ele>
        <time>2022-02-22T17:27:40Z</time>
      </trkpt>
      <trkpt lat="39.831793" lon="-3.036311">
        <ele>741.008</ele>
        <time>2022-02-22T17:28:20Z</time>
      </trkpt>
      <trkpt lat="39.831233" lon="-3.038972">
        <ele>739.347</ele>
        <time>2022-02-22T17:29:00Z</time>
      </trkpt>
      <trkpt lat="39.830706" lon="-3.041375">
        <ele>734.633</ele>
        <time>2022-02-22T17:29:40Z</time>
      </trkpt>
      <trkpt lat="39.829882" lon="-3.044036">
        <ele>738.157</ele>
        <time>2022-02-22T17:30:20Z</time>
      </trkpt>
      <trkpt lat="39.829190" lon="-3.046739">
        <ele>738.194</ele>
        <time>2022-02-22T17:31:00Z</time>
      </trkpt>
      <trkpt lat="39.828498" lon="-3.049529">
        <ele>737.484</ele>
        <time>2022-02-22T17:31:40Z</time>
      </trkpt>
      <trkpt lat="39.827871" lon="-3.052018">
        <ele>739.361</ele>
        <time>2022-02-22T17:32:20Z</time>
      </trkpt>
      <trkpt lat="39.826966" lon="-3.054609">
        <ele>741.787</ele>
        <time>2022-02-22T17:33:00Z</time>
      </trkpt>
      <trkpt lat="39.826438" lon="-3.057398">
        <ele>737.780</ele>
        <time>2022-02-22T17:33:40Z</time>
      </trkpt>
      <trkpt lat="39.825680" lon="-3.059802">
        <ele>737.682</ele>
        <time>2022-02-22T17:34:20Z</time>
      </trkpt>
      <trkpt lat="39.825087" lon="-3.062548">
        <ele>742.243</ele>
        <time>2022-02-22T17:35:00Z</time>
      </trkpt>
      <trkpt lat="39.824362" lon="-3.065252">
        <ele>736.817</ele>
        <time>2022-02-22T17:35:40Z</time>
      </trkpt>
      <trkpt lat="39.823571" lon="-3.067870">
        <ele>745.208</ele>
        <time>2022-02-22T17:36:20Z</time>
      </trkpt>
      <trkpt lat="39.822945" lon="-3.070230">
        <ele>747.547</ele>
        <time>2022-02-22T17:37:00Z</time>
      </trkpt>
      <trkpt lat="39.822351" lon="-3.073062">
        <ele>741.573</ele>
        <time>2022-02-22T17:37:40Z</time>
      </trkpt>
      <trkpt lat="39.821539" lon="-3.075617">
        <ele>740.957</ele>
        <time>2022-02-22T17:38:20Z</time>
      </trkpt>
      <trkpt lat="39.820945" lon="-3.078449">
        <ele>740.434</ele>
        <time>2022-02-22T17:39:00Z</time>
      </trkpt>
      <trkpt lat="39.820286" lon="-3.080938">
        <ele>736.674</ele>
        <time>2022-02-22T17:39:40Z</time>
      </trkpt>
      <trkpt lat="39.819495" lon="-3.083513">
        <ele>733.871</ele>
        <time>2022-02-22T17:40:20Z</time>
      </trkpt>
      <trkpt lat="39.818704" lon="-3.086217">
        <ele>738.467</ele>
        <time>2022-02-22T17:41:00Z</time>
      </trkpt>
      <trkpt lat="39.818210" lon="-3.088320">
        <ele>739.960</ele>
        <time>2022-02-22T17:41:40Z</time>
      </trkpt>
      <trkpt lat="39.817508" lon="-3.090968">
        <ele>738.067</ele>
        <time>2022-02-22T17:42:20Z</time>
      </trkpt>
      <trkpt lat="39.816981" lon="-3.093414">
        <ele>740.881</ele>
        <time>2022-02-22T17:43:00Z</time>
      </trkpt>
      <trkpt lat="39.816289" lon="-3.095989">
        <ele>734.219</ele>
        <time>2022-02-22T17:43:40Z</time>
      </trkpt>
      <trkpt lat="39.816025" lon="-3.096890">
        <ele>734.308</ele>
        <time>2022-02-22T17:44:20Z</time>
      </trkpt>
      <trkpt lat="39.817739" lon="-3.098264">
        <ele>731.265</ele>
        <time>2022-02-22T17:45:00Z</time>
      </trkpt>
      <trkpt lat="39.819552" lon="-3.099766">
        <ele>723.691</ele>
        <time>2022-02-22T17:45:40Z</time>
      </trkpt>
      <trkpt lat="39.818167" lon="-3.101654">
        <ele>727.675</ele>
        <time>2022-02-22T17:46:20Z</time>
      </trkpt>
      <trkpt lat="39.818036" lon="-3.103800">
        <ele>728.222</ele>
        <time>2022-02-22T17:47:00Z</time>
      </trkpt>
      <trkpt lat="39.819651" lon="-3.105774">
        <ele>718.392</ele>
        <time>2022-02-22T17:47:40Z</time>
      </trkpt>
      <trkpt lat="39.821167" lon="-3.107104">
        <ele>719.839</ele>
        <time>2022-02-22T17:48:20Z</time>
      </trkpt>
      <trkpt lat="39.820345" lon="-3.109780">
        <ele>716.855</ele>
        <time>2022-02-22T17:49:00Z</time>
      </trkpt>
      <trkpt lat="39.819422" lon="-3.112484">
        <ele>717.928</ele>
        <time>2022-02-22T17:49:40Z</time>
      </trkpt>
      <trkpt lat="39.818565" lon="-3.115145">
        <ele>719.064</ele>
        <time>2022-02-22T17:50:20Z</time>
      </trkpt>
      <trkpt lat="39.818532" lon="-3.115703">
        <ele>719.306</ele>
        <time>2022-02-22T17:51:00Z</time>
      </trkpt>
      <trkpt lat="39.819718" lon="-3.118063">
        <ele>722.016</ele>
        <time>2022-02-22T17:51:40Z</time>
      </trkpt>
      <trkpt lat="39.821004" lon="-3.120466">
        <ele>722.608</ele>
        <time>2022-02-22T17:52:20Z</time>
      </trkpt>
      <trkpt lat="39.822223" lon="-3.122698">
        <ele>722.015</ele>
        <time>2022-02-22T17:53:00Z</time>
      </trkpt>
      <trkpt lat="39.822885" lon="-3.125211">
        <ele>725.531</ele>
        <time>2022-02-22T17:53:40Z</time>
      </trkpt>
      <trkpt lat="39.823478" lon="-3.127958">
        <ele>725.455</ele>
        <time>2022-02-22T17:54:20Z</time>
      </trkpt>
      <trkpt lat="39.824665" lon="-3.130190">
        <ele>724.992</ele>
        <time>2022-02-22T17:55:00Z</time>
      </trkpt>
      <trkpt lat="39.825884" lon="-3.132035">
        <ele>725.042</ele>
        <time>2022-02-22T17:55:40Z</time>
      </trkpt>
      <trkpt lat="39.826972" lon="-3.134309">
        <ele>727.959</ele>
        <time>2022-02-22T17:56:20Z</time>
      </trkpt>
      <trkpt lat="39.828154" lon="-3.136786">
        <ele>729.475</ele>
        <time>2022-02-22T17:57:00Z</time>
      </trkpt>
      <trkpt lat="39.829242" lon="-3.139146">
        <ele>729.148</ele>
        <time>2022-02-22T17:57:40Z</time>
      </trkpt>
      <trkpt lat="39.830297" lon="-3.141635">
        <ele>729.241</ele>
        <time>2022-02-22T17:58:20Z</time>
      </trkpt>
      <trkpt lat="39.830791" lon="-3.142708">
        <ele>731.981</ele>
        <time>2022-02-22T17:59:00Z</time>
      </trkpt>
      <trkpt lat="39.832307" lon="-3.144596">
        <ele>731.109</ele>
        <time>2022-02-22T17:59:40Z</time>
      </trkpt>
      <trkpt lat="39.833889" lon="-3.146442">
        <ele>732.808</ele>
        <time>2022-02-22T18:00:20Z</time>
      </trkpt>
      <trkpt lat="39.835413" lon="-3.148465">
        <ele>737.523</ele>
        <time>2022-02-22T18:01:00Z</time>
      </trkpt>
      <trkpt lat="39.836896" lon="-3.150267">
        <ele>738.899</ele>
        <time>2022-02-22T18:01:40Z</time>
      </trkpt>
      <trkpt lat="39.838247" lon="-3.152027">
        <ele>739.983</ele>
        <time>2022-02-22T18:02:20Z</time>
      </trkpt>
      <trkpt lat="39.839466" lon="-3.154087">
        <ele>741.070</ele>
        <time>2022-02-22T18:03:00Z</time>
      </trkpt>
      <trkpt lat="39.839960" lon="-3.154988">
        <ele>743.020</ele>
        <time>2022-02-22T18:03:40Z</time>
      </trkpt>
      <trkpt lat="39.841410" lon="-3.157005">
        <ele>745.227</ele>
        <time>2022-02-22T18:04:20Z</time>
      </trkpt>
      <trkpt lat="39.841509" lon="-3.159708">
        <ele>746.983</ele>
        <time>2022-02-22T18:05:00Z</time>
      </trkpt>
      <trkpt lat="39.841443" lon="-3.162326">
        <ele>751.526</ele>
        <time>2022-02-22T18:05:40Z</time>
      </trkpt>
      <trkpt lat="39.841638" lon="-3.165103">
        <ele>754.131</ele>
        <time>2022-02-22T18:06:20Z</time>
      </trkpt>
      <trkpt lat="39.841414" lon="-3.167775">
        <ele>759.161</ele>
        <time>2022-02-22T18:07:00Z</time>
      </trkpt>
      <trkpt lat="39.841150" lon="-3.170522">
        <ele>758.007</ele>
        <time>2022-02-22T18:07:40Z</time>
      </trkpt>
      <trkpt lat="39.841908" lon="-3.172753">
        <ele>754.908</ele>
        <time>2022-02-22T18:08:20Z</time>
      </trkpt>
      <trkpt lat="39.842109" lon="-3.175614">
        <ele>755.852</ele>
        <time>2022-02-22T18:09:00Z</time>
      </trkpt>
      <trkpt lat="39.842307" lon="-3.178403">
        <ele>764.378</ele>
        <time>2022-02-22T18:09:40Z</time>
      </trkpt>
      <trkpt lat="39.842571" lon="-3.180763">
        <ele>765.112</ele>
        <time>2022-02-22T18:10:20Z</time>
      </trkpt>
      <trkpt lat="39.843757" lon="-3.181064">
        <ele>770.989</ele>
        <time>2022-02-22T18:11:00Z</time>
      </trkpt>
      <trkpt lat="39.843658" lon="-3.182609">
        <ele>770.239</ele>
        <time>2022-02-22T18:11:40Z</time>
      </trkpt>
      <trkpt lat="39.842472" lon="-3.184669">
        <ele>764.966</ele>
        <time>2022-02-22T18:12:20Z</time>
      </trkpt>
      <trkpt lat="39.841170" lon="-3.186752">
        <ele>764.922</ele>
        <time>2022-02-22T18:13:00Z</time>
      </trkpt>
      <trkpt lat="39.840017" lon="-3.188940">
        <ele>764.495</ele>
        <time>2022-02-22T18:13:40Z</time>
      </trkpt>
      <trkpt lat="39.838468" lon="-3.190872">
        <ele>768.068</ele>
        <time>2022-02-22T18:14:20Z</time>
      </trkpt>
      <trkpt lat="39.837150" lon="-3.192846">
        <ele>770.442</ele>
        <time>2022-02-22T18:15:00Z</time>
      </trkpt>
      <trkpt lat="39.835996" lon="-3.195077">
        <ele>764.426</ele>
        <time>2022-02-22T18:15:40Z</time>
      </trkpt>
      <trkpt lat="39.835107" lon="-3.197438">
        <ele>769.908</ele>
        <time>2022-02-22T18:16:20Z</time>
      </trkpt>
      <trkpt lat="39.834283" lon="-3.200098">
        <ele>765.865</ele>
        <time>2022-02-22T18:17:00Z</time>
      </trkpt>
      <trkpt lat="39.833658" lon="-3.201736">
        <ele>767.041</ele>
        <time>2022-02-22T18:17:40Z</time>
      </trkpt>
      <trkpt lat="39.833427" lon="-3.204440">
        <ele>760.475</ele>
        <time>2022-02-22T18:18:20Z</time>
      </trkpt>
      <trkpt lat="39.833130" lon="-3.206328">
        <ele>756.482</ele>
        <time>2022-02-22T18:19:00Z</time>
      </trkpt>
      <trkpt lat="39.831977" lon="-3.207745">
        <ele>761.472</ele>
        <time>2022-02-22T18:19:40Z</time>
      </trkpt>
      <trkpt lat="39.830626" lon="-3.209933">
        <ele>768.149</ele>
        <time>2022-02-22T18:20:20Z</time>
      </trkpt>
      <trkpt lat="39.829044" lon="-3.211478">
        <ele>766.365</ele>
        <time>2022-02-22T18:21:00Z</time>
      </trkpt>
      <trkpt lat="39.828681" lon="-3.213753">
        <ele>762.198</ele>
        <time>2022-02-22T18:21:40Z</time>
      </trkpt>
      <trkpt lat="39.828516" lon="-3.215638">
        <ele>756.918</ele>
        <time>2022-02-22T18:22:20Z</time>
      </trkpt>
      <trkpt lat="39.829768" lon="-3.217998">
        <ele>756.098</ele>
        <time>2022-02-22T18:23:00Z</time>
      </trkpt>
      <trkpt lat="39.830988" lon="-3.220359">
        <ele>757.917</ele>
        <time>2022-02-22T18:23:40Z</time>
      </trkpt>
      <trkpt lat="39.832009" lon="-3.222977">
        <ele>755.008</ele>
        <time>2022-02-22T18:24:20Z</time>
      </trkpt>
      <trkpt lat="39.833196" lon="-3.225380">
        <ele>757.740</ele>
        <time>2022-02-22T18:25:00Z</time>
      </trkpt>
      <trkpt lat="39.833855" lon="-3.227225">
        <ele>750.136</ele>
        <time>2022-02-22T18:25:40Z</time>
      </trkpt>
      <trkpt lat="39.833822" lon="-3.228727">
        <ele>745.290</ele>
        <time>2022-02-22T18:26:20Z</time>
      </trkpt>
      <trkpt lat="39.832075" lon="-3.230272">
        <ele>745.067</ele>
        <time>2022-02-22T18:27:00Z</time>
      </trkpt>
      <trkpt lat="39.830814" lon="-3.232275">
        <ele>753.187</ele>
        <time>2022-02-22T18:27:40Z</time>
      </trkpt>
      <trkpt lat="39.829232" lon="-3.233863">
        <ele>753.454</ele>
        <time>2022-02-22T18:28:20Z</time>
      </trkpt>
      <trkpt lat="39.827914" lon="-3.235708">
        <ele>755.940</ele>
        <time>2022-02-22T18:29:00Z</time>
      </trkpt>
      <trkpt lat="39.826431" lon="-3.237296">
        <ele>753.063</ele>
        <time>2022-02-22T18:29:40Z</time>
      </trkpt>
      <trkpt lat="39.824948" lon="-3.239227">
        <ele>747.874</ele>
        <time>2022-02-22T18:30:20Z</time>
      </trkpt>
      <trkpt lat="39.823497" lon="-3.241030">
        <ele>746.456</ele>
        <time>2022-02-22T18:31:00Z</time>
      </trkpt>
      <trkpt lat="39.822047" lon="-3.242875">
        <ele>742.221</ele>
        <time>2022-02-22T18:31:40Z</time>
      </trkpt>
      <trkpt lat="39.821124" lon="-3.244034">
        <ele>741.008</ele>
        <time>2022-02-22T18:32:20Z</time>
      </trkpt>
      <trkpt lat="39.822453" lon="-3.246181">
        <ele>748.146</ele>
        <time>2022-02-22T18:33:00Z</time>
      </trkpt>
      <trkpt lat="39.824048" lon="-3.248080">
        <ele>747.012</ele>
        <time>2022-02-22T18:33:40Z</time>
      </trkpt>
      <trkpt lat="39.825749" lon="-3.249528">
        <ele>742.536</ele>
        <time>2022-02-22T18:34:20Z</time>
      </trkpt>
      <trkpt lat="39.827579" lon="-3.251311">
        <ele>735.783</ele>
        <time>2022-02-22T18:35:00Z</time>
      </trkpt>
      <trkpt lat="39.829623" lon="-3.252598">
        <ele>730.813</ele>
        <time>2022-02-22T18:35:40Z</time>
      </trkpt>
      <trkpt lat="39.831501" lon="-3.254143">
        <ele>725.560</ele>
        <time>2022-02-22T18:36:20Z</time>
      </trkpt>
      <trkpt lat="39.833182" lon="-3.255903">
        <ele>721.016</ele>
        <time>2022-02-22T18:37:00Z</time>
      </trkpt>
      <trkpt lat="39.835126" lon="-3.257362">
        <ele>713.579</ele>
        <time>2022-02-22T18:37:40Z</time>
      </trkpt>
      <trkpt lat="39.836972" lon="-3.259079">
        <ele>717.885</ele>
        <time>2022-02-22T18:38:20Z</time>
      </trkpt>
      <trkpt lat="39.838685" lon="-3.260581">
        <ele>730.689</ele>
        <time>2022-02-22T18:39:00Z</time>
      </trkpt>
      <trkpt lat="39.840366" lon="-3.262254">
        <ele>731.217</ele>
        <time>2022-02-22T18:39:40Z</time>
      </trkpt>
      <trkpt lat="39.842112" lon="-3.264057">
        <ele>737.008</ele>
        <time>2022-02-22T18:40:20Z</time>
      </trkpt>
      <trkpt lat="39.843859" lon="-3.265773">
        <ele>738.147</ele>
        <time>2022-02-22T18:41:00Z</time>
      </trkpt>
      <trkpt lat="39.845745" lon="-3.267482">
        <ele>745.643</ele>
        <time>2022-02-22T18:41:40Z</time>
      </trkpt>
      <trkpt lat="39.847161" lon="-3.269542">
        <ele>751.717</ele>
        <time>2022-02-22T18:42:20Z</time>
      </trkpt>
      <trkpt lat="39.848354" lon="-3.271860">
        <ele>749.984</ele>
        <time>2022-02-22T18:43:00Z</time>
      </trkpt>
      <trkpt lat="39.849540" lon="-3.274177">
        <ele>750.624</ele>
        <time>2022-02-22T18:43:40Z</time>
      </trkpt>
      <trkpt lat="39.850726" lon="-3.276580">
        <ele>739.671</ele>
        <time>2022-02-22T18:44:20Z</time>
      </trkpt>
      <trkpt lat="39.851945" lon="-3.278855">
        <ele>731.297</ele>
        <time>2022-02-22T18:45:00Z</time>
      </trkpt>
      <trkpt lat="39.853132" lon="-3.281001">
        <ele>725.160</ele>
        <time>2022-02-22T18:45:40Z</time>
      </trkpt>
      <trkpt lat="39.854687" lon="-3.282933">
        <ele>713.382</ele>
        <time>2022-02-22T18:46:20Z</time>
      </trkpt>
      <trkpt lat="39.856268" lon="-3.284778">
        <ele>710.043</ele>
        <time>2022-02-22T18:47:00Z</time>
      </trkpt>
      <trkpt lat="39.857849" lon="-3.286709">
        <ele>721.817</ele>
        <time>2022-02-22T18:47:40Z</time>
      </trkpt>
      <trkpt lat="39.859332" lon="-3.288555">
        <ele>731.408</ele>
        <time>2022-02-22T18:48:20Z</time>
      </trkpt>
      <trkpt lat="39.860913" lon="-3.290314">
        <ele>740.787</ele>
        <time>2022-02-22T18:49:00Z</time>
      </trkpt>
      <trkpt lat="39.862560" lon="-3.292159">
        <ele>743.193</ele>
        <time>2022-02-22T18:49:40Z</time>
      </trkpt>
      <trkpt lat="39.864079" lon="-3.294323">
        <ele>744.297</ele>
        <time>2022-02-22T18:50:20Z</time>
      </trkpt>
      <trkpt lat="39.865759" lon="-3.296083">
        <ele>750.034</ele>
        <time>2022-02-22T18:51:00Z</time>
      </trkpt>
      <trkpt lat="39.867439" lon="-3.297885">
        <ele>746.264</ele>
        <time>2022-02-22T18:51:40Z</time>
      </trkpt>
      <trkpt lat="39.868954" lon="-3.299859">
        <ele>747.641</ele>
        <time>2022-02-22T18:52:20Z</time>
      </trkpt>
      <trkpt lat="39.870469" lon="-3.301576">
        <ele>739.497</ele>
        <time>2022-02-22T18:53:00Z</time>
      </trkpt>
      <trkpt lat="39.872651" lon="-3.302498">
        <ele>725.950</ele>
        <time>2022-02-22T18:53:40Z</time>
      </trkpt>
      <trkpt lat="39.874627" lon="-3.303829">
        <ele>716.348</ele>
        <time>2022-02-22T18:54:20Z</time>
      </trkpt>
      <trkpt lat="39.876603" lon="-3.305159">
        <ele>725.261</ele>
        <time>2022-02-22T18:55:00Z</time>
      </trkpt>
      <trkpt lat="39.878447" lon="-3.306447">
        <ele>732.617</ele>
        <time>2022-02-22T18:55:40Z</time>
      </trkpt>
      <trkpt lat="39.880364" lon="-3.307954">
        <ele>740.608</ele>
        <time>2022-02-22T18:56:20Z</time>
      </trkpt>
      <trkpt lat="39.882208" lon="-3.309327">
        <ele>745.613</ele>
        <time>2022-02-22T18:57:00Z</time>
      </trkpt>
      <trkpt lat="39.884184" lon="-3.310529">
        <ele>751.099</ele>
        <time>2022-02-22T18:57:40Z</time>
      </trkpt>
      <trkpt lat="39.886127" lon="-3.311988">
        <ele>746.323</ele>
        <time>2022-02-22T18:58:20Z</time>
      </trkpt>
      <trkpt lat="39.887872" lon="-3.313276">
        <ele>748.780</ele>
        <time>2022-02-22T18:59:00Z</time>
      </trkpt>
      <trkpt lat="39.889681" lon="-3.314950">
        <ele>747.880</ele>
        <time>2022-02-22T18:59:40Z</time>
      </trkpt>
      <trkpt lat="39.890438" lon="-3.315637">
        <ele>745.737</ele>
        <time>2022-02-22T19:00:20Z</time>
      </trkpt>
      <trkpt lat="39.891887" lon="-3.316195">
        <ele>739.333</ele>
        <time>2022-02-22T19:01:00Z</time>
      </trkpt>
      <trkpt lat="39.893731" lon="-3.317697">
        <ele>737.136</ele>
        <time>2022-02-22T19:01:40Z</time>
      </trkpt>
      <trkpt lat="39.895377" lon="-3.319027">
        <ele>733.935</ele>
        <time>2022-02-22T19:02:20Z</time>
      </trkpt>
      <trkpt lat="39.896958" lon="-3.320572">
        <ele>733.086</ele>
        <time>2022-02-22T19:03:00Z</time>
      </trkpt>
      <trkpt lat="39.898785" lon="-3.322063">
        <ele>728.414</ele>
        <time>2022-02-22T19:03:40Z</time>
      </trkpt>
      <trkpt lat="39.843722" lon="-2.998794">
        <ele>750.365</ele>
        <time>2022-02-24T10:03:50Z</time>
      </trkpt>
      <trkpt lat="39.843780" lon="-2.998860">
        <ele>750.368</ele>
        <time>2022-02-24T10:04:30Z</time>
      </trkpt>
      <trkpt lat="39.843920" lon="-2.999010">
        <ele>750.414</ele>
        <time>2022-02-24T10:05:10Z</time>
      </trkpt>
      <trkpt lat="39.843915" lon="-2.999008">
        <ele>750.408</ele>
        <time>2022-02-24T10:05:50Z</time>
      </trkpt>
      <trkpt lat="39.843730" lon="-2.999220">
        <ele>750.945</ele>
        <time>2022-02-24T10:06:30Z</time>
      </trkpt>
      <trkpt lat="39.843590" lon="-2.999370">
        <ele>750.362</ele>
        <time>2022-02-24T10:07:10Z</time>
      </trkpt>
      <trkpt lat="39.843450" lon="-2.999530">
        <ele>749.746</ele>
        <time>2022-02-24T10:07:50Z</time>
      </trkpt>
      <trkpt lat="39.843320" lon="-2.999680">
        <ele>749.255</ele>
        <time>2022-02-24T10:08:30Z</time>
      </trkpt>
      <trkpt lat="39.842700" lon="-3.000120">
        <ele>750.295</ele>
        <time>2022-02-24T10:09:10Z</time>
      </trkpt>
      <trkpt lat="39.842270" lon="-3.000410">
        <ele>751.897</ele>
        <time>2022-02-24T10:09:50Z</time>
      </trkpt>
      <trkpt lat="39.842250" lon="-3.000420">
        <ele>751.856</ele>
        <time>2022-02-24T10:10:30Z</time>
      </trkpt>
      <trkpt lat="39.841740" lon="-3.000750">
        <ele>750.096</ele>
        <time>2022-02-24T10:11:10Z</time>
      </trkpt>
      <trkpt lat="39.841738" lon="-3.000745">
        <ele>750.192</ele>
        <time>2022-02-24T10:11:50Z</time>
      </trkpt>
      <trkpt lat="39.841900" lon="-3.001210">
        <ele>749.873</ele>
        <time>2022-02-24T10:12:30Z</time>
      </trkpt>
      <trkpt lat="39.841630" lon="-3.001500">
        <ele>749.420</ele>
        <time>2022-02-24T10:13:10Z</time>
      </trkpt>
      <trkpt lat="39.841430" lon="-3.001740">
        <ele>750.308</ele>
        <time>2022-02-24T10:13:50Z</time>
      </trkpt>
      <trkpt lat="39.841230" lon="-3.002040">
        <ele>751.348</ele>
        <time>2022-02-24T10:14:30Z</time>
      </trkpt>
      <trkpt lat="39.841200" lon="-3.002190">
        <ele>751.915</ele>
        <time>2022-02-24T10:15:10Z</time>
      </trkpt>
      <trkpt lat="39.841160" lon="-3.002400">
        <ele>752.519</ele>
        <time>2022-02-24T10:15:50Z</time>
      </trkpt>
      <trkpt lat="39.841110" lon="-3.002870">
        <ele>752.058</ele>
        <time>2022-02-24T10:16:30Z</time>
      </trkpt>
      <trkpt lat="39.840980" lon="-3.003230">
        <ele>752.838</ele>
        <time>2022-02-24T10:17:10Z</time>
      </trkpt>
      <trkpt lat="39.840980" lon="-3.003240">
        <ele>752.810</ele>
        <time>2022-02-24T10:17:50Z</time>
      </trkpt>
      <trkpt lat="39.840820" lon="-3.003610">
        <ele>753.019</ele>
        <time>2022-02-24T10:18:30Z</time>
      </trkpt>
      <trkpt lat="39.840790" lon="-3.003700">
        <ele>753.039</ele>
        <time>2022-02-24T10:19:10Z</time>
      </trkpt>
      <trkpt lat="39.840380" lon="-3.004580">
        <ele>753.568</ele>
        <time>2022-02-24T10:19:50Z</time>
      </trkpt>
      <trkpt lat="39.840340" lon="-3.004670">
        <ele>753.342</ele>
        <time>2022-02-24T10:20:30Z</time>
      </trkpt>
      <trkpt lat="39.840150" lon="-3.005140">
        <ele>753.726</ele>
        <time>2022-02-24T10:21:10Z</time>
      </trkpt>
      <trkpt lat="39.839810" lon="-3.005860">
        <ele>753.608</ele>
        <time>2022-02-24T10:21:50Z</time>
      </trkpt>
      <trkpt lat="39.839790" lon="-3.005920">
        <ele>753.585</ele>
        <time>2022-02-24T10:22:30Z</time>
      </trkpt>
      <trkpt lat="39.839740" lon="-3.006080">
        <ele>753.192</ele>
        <time>2022-02-24T10:23:10Z</time>
      </trkpt>
      <trkpt lat="39.839610" lon="-3.006550">
        <ele>750.456</ele>
        <time>2022-02-24T10:23:50Z</time>
      </trkpt>
      <trkpt lat="39.839560" lon="-3.006710">
        <ele>749.915</ele>
        <time>2022-02-24T10:24:30Z</time>
      </trkpt>
      <trkpt lat="39.839330" lon="-3.007570">
        <ele>753.125</ele>
        <time>2022-02-24T10:25:10Z</time>
      </trkpt>
      <trkpt lat="39.839350" lon="-3.007890">
        <ele>753.587</ele>
        <time>2022-02-24T10:25:50Z</time>
      </trkpt>
      <trkpt lat="39.839351" lon="-3.007891">
        <ele>753.556</ele>
        <time>2022-02-24T10:26:30Z</time>
      </trkpt>
      <trkpt lat="39.839380" lon="-3.007930">
        <ele>753.536</ele>
        <time>2022-02-24T10:27:10Z</time>
      </trkpt>
      <trkpt lat="39.839390" lon="-3.007960">
        <ele>753.683</ele>
        <time>2022-02-24T10:27:50Z</time>
      </trkpt>
      <trkpt lat="39.839400" lon="-3.007980">
        <ele>753.725</ele>
        <time>2022-02-24T10:28:30Z</time>
      </trkpt>
      <trkpt lat="39.839400" lon="-3.008000">
        <ele>753.717</ele>
        <time>2022-02-24T10:29:10Z</time>
      </trkpt>
      <trkpt lat="39.839410" lon="-3.008030">
        <ele>753.808</ele>
        <time>2022-02-24T10:29:50Z</time>
      </trkpt>
      <trkpt lat="39.839420" lon="-3.008060">
        <ele>753.917</ele>
        <time>2022-02-24T10:30:30Z</time>
      </trkpt>
      <trkpt lat="39.839420" lon="-3.008090">
        <ele>753.974</ele>
        <time>2022-02-24T10:31:10Z</time>
      </trkpt>
      <trkpt lat="39.839420" lon="-3.008120">
        <ele>753.938</ele>
        <time>2022-02-24T10:31:50Z</time>
      </trkpt>
      <trkpt lat="39.839410" lon="-3.008150">
        <ele>753.917</ele>
        <time>2022-02-24T10:32:30Z</time>
      </trkpt>
      <trkpt lat="39.839410" lon="-3.008180">
        <ele>753.917</ele>
        <time>2022-02-24T10:33:10Z</time>
      </trkpt>
      <trkpt lat="39.839400" lon="-3.008220">
        <ele>753.849</ele>
        <time>2022-02-24T10:33:50Z</time>
      </trkpt>
      <trkpt lat="39.839380" lon="-3.008250">
        <ele>753.868</ele>
        <time>2022-02-24T10:34:30Z</time>
      </trkpt>
      <trkpt lat="39.839370" lon="-3.008290">
        <ele>753.798</ele>
        <time>2022-02-24T10:35:10Z</time>
      </trkpt>
      <trkpt lat="39.839350" lon="-3.008310">
        <ele>753.787</ele>
        <time>2022-02-24T10:35:50Z</time>
      </trkpt>
      <trkpt lat="39.839330" lon="-3.008320">
        <ele>753.642</ele>
        <time>2022-02-24T10:36:30Z</time>
      </trkpt>
      <trkpt lat="39.839300" lon="-3.008340">
        <ele>753.526</ele>
        <time>2022-02-24T10:37:10Z</time>
      </trkpt>
      <trkpt lat="39.839280" lon="-3.008350">
        <ele>753.508</ele>
        <time>2022-02-24T10:37:50Z</time>
      </trkpt>
      <trkpt lat="39.839260" lon="-3.008350">
        <ele>753.417</ele>
        <time>2022-02-24T10:38:30Z</time>
      </trkpt>
      <trkpt lat="39.839080" lon="-3.008670">
        <ele>753.954</ele>
        <time>2022-02-24T10:39:10Z</time>
      </trkpt>
      <trkpt lat="39.839010" lon="-3.008910">
        <ele>754.548</ele>
        <time>2022-02-24T10:39:50Z</time>
      </trkpt>
      <trkpt lat="39.838910" lon="-3.009270">
        <ele>755.057</ele>
        <time>2022-02-24T10:40:30Z</time>
      </trkpt>
      <trkpt lat="39.838860" lon="-3.009480">
        <ele>754.847</ele>
        <time>2022-02-24T10:41:10Z</time>
      </trkpt>
      <trkpt lat="39.838800" lon="-3.009700">
        <ele>753.819</ele>
        <time>2022-02-24T10:41:50Z</time>
      </trkpt>
      <trkpt lat="39.838750" lon="-3.009910">
        <ele>754.258</ele>
        <time>2022-02-24T10:42:30Z</time>
      </trkpt>
      <trkpt lat="39.838740" lon="-3.009910">
        <ele>754.178</ele>
        <time>2022-02-24T10:43:10Z</time>
      </trkpt>
      <trkpt lat="39.838740" lon="-3.009930">
        <ele>754.256</ele>
        <time>2022-02-24T10:43:50Z</time>
      </trkpt>
      <trkpt lat="39.838690" lon="-3.010130">
        <ele>755.259</ele>
        <time>2022-02-24T10:44:30Z</time>
      </trkpt>
      <trkpt lat="39.838640" lon="-3.010350">
        <ele>756.414</ele>
        <time>2022-02-24T10:45:10Z</time>
      </trkpt>
      <trkpt lat="39.838580" lon="-3.010570">
        <ele>756.608</ele>
        <time>2022-02-24T10:45:50Z</time>
      </trkpt>
      <trkpt lat="39.838520" lon="-3.010800">
        <ele>755.474</ele>
        <time>2022-02-24T10:46:30Z</time>
      </trkpt>
      <trkpt lat="39.838480" lon="-3.010970">
        <ele>754.351</ele>
        <time>2022-02-24T10:47:10Z</time>
      </trkpt>
      <trkpt lat="39.838460" lon="-3.011020">
        <ele>753.925</ele>
        <time>2022-02-24T10:47:50Z</time>
      </trkpt>
      <trkpt lat="39.838380" lon="-3.011290">
        <ele>753.144</ele>
        <time>2022-02-24T10:48:30Z</time>
      </trkpt>
      <trkpt lat="39.838270" lon="-3.011770">
        <ele>752.454</ele>
        <time>2022-02-24T10:49:10Z</time>
      </trkpt>
      <trkpt lat="39.838260" lon="-3.012100">
        <ele>751.986</ele>
        <time>2022-02-24T10:49:50Z</time>
      </trkpt>
      <trkpt lat="39.838259" lon="-3.012099">
        <ele>751.935</ele>
        <time>2022-02-24T10:50:30Z</time>
      </trkpt>
      <trkpt lat="39.838270" lon="-3.012110">
        <ele>751.915</ele>
        <time>2022-02-24T10:51:10Z</time>
      </trkpt>
      <trkpt lat="39.838280" lon="-3.012140">
        <ele>751.977</ele>
        <time>2022-02-24T10:51:50Z</time>
      </trkpt>
      <trkpt lat="39.838290" lon="-3.012160">
        <ele>752.061</ele>
        <time>2022-02-24T10:52:30Z</time>
      </trkpt>
      <trkpt lat="39.838300" lon="-3.012190">
        <ele>752.027</ele>
        <time>2022-02-24T10:53:10Z</time>
      </trkpt>
      <trkpt lat="39.838310" lon="-3.012220">
        <ele>752.008</ele>
        <time>2022-02-24T10:53:50Z</time>
      </trkpt>
      <trkpt lat="39.838320" lon="-3.012250">
        <ele>752.196</ele>
        <time>2022-02-24T10:54:30Z</time>
      </trkpt>
      <trkpt lat="39.838330" lon="-3.012280">
        <ele>752.233</ele>
        <time>2022-02-24T10:55:10Z</time>
      </trkpt>
      <trkpt lat="39.838330" lon="-3.012300">
        <ele>752.397</ele>
        <time>2022-02-24T10:55:50Z</time>
      </trkpt>
      <trkpt lat="39.838330" lon="-3.012320">
        <ele>752.436</ele>
        <time>2022-02-24T10:56:30Z</time>
      </trkpt>
      <trkpt lat="39.838330" lon="-3.012350">
        <ele>752.576</ele>
        <time>2022-02-24T10:57:10Z</time>
      </trkpt>
      <trkpt lat="39.838330" lon="-3.012380">
        <ele>752.618</ele>
        <time>2022-02-24T10:57:50Z</time>
      </trkpt>
      <trkpt lat="39.838320" lon="-3.012410">
        <ele>752.727</ele>
        <time>2022-02-24T10:58:30Z</time>
      </trkpt>
      <trkpt lat="39.838310" lon="-3.012420">
        <ele>752.757</ele>
        <time>2022-02-24T10:59:10Z</time>
      </trkpt>
      <trkpt lat="39.838300" lon="-3.012440">
        <ele>752.825</ele>
        <time>2022-02-24T10:59:50Z</time>
      </trkpt>
      <trkpt lat="39.838280" lon="-3.012470">
        <ele>752.926</ele>
        <time>2022-02-24T11:00:30Z</time>
      </trkpt>
      <trkpt lat="39.838260" lon="-3.012490">
        <ele>753.008</ele>
        <time>2022-02-24T11:01:10Z</time>
      </trkpt>
      <trkpt lat="39.838240" lon="-3.012520">
        <ele>753.208</ele>
        <time>2022-02-24T11:01:50Z</time>
      </trkpt>
      <trkpt lat="39.838220" lon="-3.012530">
        <ele>753.381</ele>
        <time>2022-02-24T11:02:30Z</time>
      </trkpt>
      <trkpt lat="39.838190" lon="-3.012550">
        <ele>753.478</ele>
        <time>2022-02-24T11:03:10Z</time>
      </trkpt>
      <trkpt lat="39.838170" lon="-3.012560">
        <ele>753.552</ele>
        <time>2022-02-24T11:03:50Z</time>
      </trkpt>
      <trkpt lat="39.838150" lon="-3.012570">
        <ele>753.631</ele>
        <time>2022-02-24T11:04:30Z</time>
      </trkpt>
      <trkpt lat="39.837990" lon="-3.012840">
        <ele>755.421</ele>
        <time>2022-02-24T11:05:10Z</time>
      </trkpt>
      <trkpt lat="39.837860" lon="-3.013330">
        <ele>756.363</ele>
        <time>2022-02-24T11:05:50Z</time>
      </trkpt>
      <trkpt lat="39.837760" lon="-3.013740">
        <ele>755.012</ele>
        <time>2022-02-24T11:06:30Z</time>
      </trkpt>
      <trkpt lat="39.837740" lon="-3.013790">
        <ele>754.912</ele>
        <time>2022-02-24T11:07:10Z</time>
      </trkpt>
      <trkpt lat="39.837700" lon="-3.013970">
        <ele>755.075</ele>
        <time>2022-02-24T11:07:50Z</time>
      </trkpt>
      <trkpt lat="39.837680" lon="-3.014020">
        <ele>755.128</ele>
        <time>2022-02-24T11:08:30Z</time>
      </trkpt>
      <trkpt lat="39.837520" lon="-3.014660">
        <ele>758.620</ele>
        <time>2022-02-24T11:09:10Z</time>
      </trkpt>
      <trkpt lat="39.837500" lon="-3.014710">
        <ele>758.908</ele>
        <time>2022-02-24T11:09:50Z</time>
      </trkpt>
      <trkpt lat="39.837460" lon="-3.014890">
        <ele>759.746</ele>
        <time>2022-02-24T11:10:30Z</time>
      </trkpt>
      <trkpt lat="39.837340" lon="-3.015360">
        <ele>760.573</ele>
        <time>2022-02-24T11:11:10Z</time>
      </trkpt>
      <trkpt lat="39.837330" lon="-3.015400">
        <ele>760.677</ele>
        <time>2022-02-24T11:11:50Z</time>
      </trkpt>
      <trkpt lat="39.837280" lon="-3.015590">
        <ele>760.386</ele>
        <time>2022-02-24T11:12:30Z</time>
      </trkpt>
      <trkpt lat="39.837260" lon="-3.015640">
        <ele>760.086</ele>
        <time>2022-02-24T11:13:10Z</time>
      </trkpt>
      <trkpt lat="39.837220" lon="-3.015800">
        <ele>759.118</ele>
        <time>2022-02-24T11:13:50Z</time>
      </trkpt>
      <trkpt lat="39.837170" lon="-3.016000">
        <ele>758.837</ele>
        <time>2022-02-24T11:14:30Z</time>
      </trkpt>
      <trkpt lat="39.837120" lon="-3.016200">
        <ele>758.687</ele>
        <time>2022-02-24T11:15:10Z</time>
      </trkpt>
      <trkpt lat="39.836880" lon="-3.017110">
        <ele>759.247</ele>
        <time>2022-02-24T11:15:50Z</time>
      </trkpt>
      <trkpt lat="39.836850" lon="-3.017220">
        <ele>759.329</ele>
        <time>2022-02-24T11:16:30Z</time>
      </trkpt>
      <trkpt lat="39.836840" lon="-3.017270">
        <ele>759.321</ele>
        <time>2022-02-24T11:17:10Z</time>
      </trkpt>
      <trkpt lat="39.836730" lon="-3.017660">
        <ele>758.108</ele>
        <time>2022-02-24T11:17:50Z</time>
      </trkpt>
      <trkpt lat="39.836670" lon="-3.017880">
        <ele>756.723</ele>
        <time>2022-02-24T11:18:30Z</time>
      </trkpt>
      <trkpt lat="39.836370" lon="-3.019040">
        <ele>756.960</ele>
        <time>2022-02-24T11:19:10Z</time>
      </trkpt>
      <trkpt lat="39.836310" lon="-3.019260">
        <ele>756.514</ele>
        <time>2022-02-24T11:19:50Z</time>
      </trkpt>
      <trkpt lat="39.836120" lon="-3.019990">
        <ele>758.043</ele>
        <time>2022-02-24T11:20:30Z</time>
      </trkpt>
      <trkpt lat="39.836090" lon="-3.020100">
        <ele>758.093</ele>
        <time>2022-02-24T11:21:10Z</time>
      </trkpt>
      <trkpt lat="39.836040" lon="-3.020320">
        <ele>757.525</ele>
        <time>2022-02-24T11:21:50Z</time>
      </trkpt>
      <trkpt lat="39.836010" lon="-3.020430">
        <ele>756.794</ele>
        <time>2022-02-24T11:22:30Z</time>
      </trkpt>
      <trkpt lat="39.835900" lon="-3.020840">
        <ele>755.044</ele>
        <time>2022-02-24T11:23:10Z</time>
      </trkpt>
      <trkpt lat="39.835850" lon="-3.021040">
        <ele>755.061</ele>
        <time>2022-02-24T11:23:50Z</time>
      </trkpt>
      <trkpt lat="39.835780" lon="-3.021320">
        <ele>756.621</ele>
        <time>2022-02-24T11:24:30Z</time>
      </trkpt>
      <trkpt lat="39.835690" lon="-3.021650">
        <ele>757.013</ele>
        <time>2022-02-24T11:25:10Z</time>
      </trkpt>
      <trkpt lat="39.835400" lon="-3.022760">
        <ele>754.908</ele>
        <time>2022-02-24T11:25:50Z</time>
      </trkpt>
      <trkpt lat="39.835390" lon="-3.022830">
        <ele>754.595</ele>
        <time>2022-02-24T11:26:30Z</time>
      </trkpt>
      <trkpt lat="39.835000" lon="-3.024310">
        <ele>751.542</ele>
        <time>2022-02-24T11:27:10Z</time>
      </trkpt>
      <trkpt lat="39.834360" lon="-3.026740">
        <ele>746.496</ele>
        <time>2022-02-24T11:27:50Z</time>
      </trkpt>
      <trkpt lat="39.834050" lon="-3.027950">
        <ele>747.275</ele>
        <time>2022-02-24T11:28:30Z</time>
      </trkpt>
      <trkpt lat="39.833990" lon="-3.028170">
        <ele>746.985</ele>
        <time>2022-02-24T11:29:10Z</time>
      </trkpt>
      <trkpt lat="39.833760" lon="-3.029060">
        <ele>746.637</ele>
        <time>2022-02-24T11:29:50Z</time>
      </trkpt>
      <trkpt lat="39.833660" lon="-3.029460">
        <ele>745.946</ele>
        <time>2022-02-24T11:30:30Z</time>
      </trkpt>
      <trkpt lat="39.833520" lon="-3.030000">
        <ele>743.396</ele>
        <time>2022-02-24T11:31:10Z</time>
      </trkpt>
      <trkpt lat="39.832720" lon="-3.033030">
        <ele>742.279</ele>
        <time>2022-02-24T11:31:50Z</time>
      </trkpt>
      <trkpt lat="39.832720" lon="-3.033050">
        <ele>742.205</ele>
        <time>2022-02-24T11:32:30Z</time>
      </trkpt>
      <trkpt lat="39.832700" lon="-3.033120">
        <ele>742.425</ele>
        <time>2022-02-24T11:33:10Z</time>
      </trkpt>
      <trkpt lat="39.831850" lon="-3.036450">
        <ele>741.008</ele>
        <time>2022-02-24T11:33:50Z</time>
      </trkpt>
      <trkpt lat="39.831820" lon="-3.036540">
        <ele>741.086</ele>
        <time>2022-02-24T11:34:30Z</time>
      </trkpt>
      <trkpt lat="39.830100" lon="-3.043100">
        <ele>737.453</ele>
        <time>2022-02-24T11:35:10Z</time>
      </trkpt>
      <trkpt lat="39.829320" lon="-3.045970">
        <ele>738.467</ele>
        <time>2022-02-24T11:35:50Z</time>
      </trkpt>
      <trkpt lat="39.829230" lon="-3.046320">
        <ele>738.176</ele>
        <time>2022-02-24T11:36:30Z</time>
      </trkpt>
      <trkpt lat="39.829170" lon="-3.046540">
        <ele>738.036</ele>
        <time>2022-02-24T11:37:10Z</time>
      </trkpt>
      <trkpt lat="39.828920" lon="-3.047540">
        <ele>737.118</ele>
        <time>2022-02-24T11:37:50Z</time>
      </trkpt>
      <trkpt lat="39.828830" lon="-3.047870">
        <ele>738.217</ele>
        <time>2022-02-24T11:38:30Z</time>
      </trkpt>
      <trkpt lat="39.828790" lon="-3.048030">
        <ele>738.447</ele>
        <time>2022-02-24T11:39:10Z</time>
      </trkpt>
      <trkpt lat="39.828770" lon="-3.048090">
        <ele>738.478</ele>
        <time>2022-02-24T11:39:50Z</time>
      </trkpt>
      <trkpt lat="39.828360" lon="-3.049640">
        <ele>737.933</ele>
        <time>2022-02-24T11:40:30Z</time>
      </trkpt>
      <trkpt lat="39.828310" lon="-3.049870">
        <ele>738.026</ele>
        <time>2022-02-24T11:41:10Z</time>
      </trkpt>
      <trkpt lat="39.828180" lon="-3.050330">
        <ele>737.108</ele>
        <time>2022-02-24T11:41:50Z</time>
      </trkpt>
      <trkpt lat="39.827630" lon="-3.052420">
        <ele>741.716</ele>
        <time>2022-02-24T11:42:30Z</time>
      </trkpt>
      <trkpt lat="39.827600" lon="-3.052520">
        <ele>742.043</ele>
        <time>2022-02-24T11:43:10Z</time>
      </trkpt>
      <trkpt lat="39.827550" lon="-3.052740">
        <ele>742.077</ele>
        <time>2022-02-24T11:43:50Z</time>
      </trkpt>
      <trkpt lat="39.827260" lon="-3.053850">
        <ele>742.076</ele>
        <time>2022-02-24T11:44:30Z</time>
      </trkpt>
      <trkpt lat="39.827200" lon="-3.054070">
        <ele>742.016</ele>
        <time>2022-02-24T11:45:10Z</time>
      </trkpt>
      <trkpt lat="39.827180" lon="-3.054150">
        <ele>742.048</ele>
        <time>2022-02-24T11:45:50Z</time>
      </trkpt>
      <trkpt lat="39.827140" lon="-3.054300">
        <ele>741.997</ele>
        <time>2022-02-24T11:46:30Z</time>
      </trkpt>
      <trkpt lat="39.827020" lon="-3.054740">
        <ele>742.337</ele>
        <time>2022-02-24T11:47:10Z</time>
      </trkpt>
      <trkpt lat="39.826970" lon="-3.054960">
        <ele>742.275</ele>
        <time>2022-02-24T11:47:50Z</time>
      </trkpt>
      <trkpt lat="39.826740" lon="-3.055850">
        <ele>744.828</ele>
        <time>2022-02-24T11:48:30Z</time>
      </trkpt>
      <trkpt lat="39.826700" lon="-3.056010">
        <ele>745.420</ele>
        <time>2022-02-24T11:49:10Z</time>
      </trkpt>
      <trkpt lat="39.826340" lon="-3.057340">
        <ele>738.208</ele>
        <time>2022-02-24T11:49:50Z</time>
      </trkpt>
      <trkpt lat="39.826310" lon="-3.057480">
        <ele>737.426</ele>
        <time>2022-02-24T11:50:30Z</time>
      </trkpt>
      <trkpt lat="39.826000" lon="-3.058590">
        <ele>739.243</ele>
        <time>2022-02-24T11:51:10Z</time>
      </trkpt>
      <trkpt lat="39.825990" lon="-3.058640">
        <ele>739.547</ele>
        <time>2022-02-24T11:51:50Z</time>
      </trkpt>
      <trkpt lat="39.825990" lon="-3.058670">
        <ele>739.646</ele>
        <time>2022-02-24T11:52:30Z</time>
      </trkpt>
      <trkpt lat="39.825810" lon="-3.059330">
        <ele>738.456</ele>
        <time>2022-02-24T11:53:10Z</time>
      </trkpt>
      <trkpt lat="39.825690" lon="-3.059790">
        <ele>737.538</ele>
        <time>2022-02-24T11:53:50Z</time>
      </trkpt>
      <trkpt lat="39.824880" lon="-3.062830">
        <ele>740.847</ele>
        <time>2022-02-24T11:54:30Z</time>
      </trkpt>
      <trkpt lat="39.824810" lon="-3.063100">
        <ele>738.467</ele>
        <time>2022-02-24T11:55:10Z</time>
      </trkpt>
      <trkpt lat="39.824530" lon="-3.064180">
        <ele>739.731</ele>
        <time>2022-02-24T11:55:50Z</time>
      </trkpt>
      <trkpt lat="39.824130" lon="-3.065680">
        <ele>738.861</ele>
        <time>2022-02-24T11:56:30Z</time>
      </trkpt>
      <trkpt lat="39.824090" lon="-3.065810">
        <ele>739.707</ele>
        <time>2022-02-24T11:57:10Z</time>
      </trkpt>
      <trkpt lat="39.823860" lon="-3.066700">
        <ele>743.008</ele>
        <time>2022-02-24T11:57:50Z</time>
      </trkpt>
      <trkpt lat="39.823670" lon="-3.067440">
        <ele>745.492</ele>
        <time>2022-02-24T11:58:30Z</time>
      </trkpt>
      <trkpt lat="39.823530" lon="-3.067980">
        <ele>745.279</ele>
        <time>2022-02-24T11:59:10Z</time>
      </trkpt>
      <trkpt lat="39.823520" lon="-3.068030">
        <ele>745.143</ele>
        <time>2022-02-24T11:59:50Z</time>
      </trkpt>
      <trkpt lat="39.823420" lon="-3.068440">
        <ele>744.382</ele>
        <time>2022-02-24T12:00:30Z</time>
      </trkpt>
      <trkpt lat="39.823200" lon="-3.069180">
        <ele>747.542</ele>
        <time>2022-02-24T12:01:10Z</time>
      </trkpt>
      <trkpt lat="39.823160" lon="-3.069350">
        <ele>747.244</ele>
        <time>2022-02-24T12:01:50Z</time>
      </trkpt>
      <trkpt lat="39.823080" lon="-3.069700">
        <ele>747.923</ele>
        <time>2022-02-24T12:02:30Z</time>
      </trkpt>
      <trkpt lat="39.823030" lon="-3.069910">
        <ele>747.873</ele>
        <time>2022-02-24T12:03:10Z</time>
      </trkpt>
      <trkpt lat="39.822950" lon="-3.070250">
        <ele>747.661</ele>
        <time>2022-02-24T12:03:50Z</time>
      </trkpt>
      <trkpt lat="39.822720" lon="-3.071160">
        <ele>744.821</ele>
        <time>2022-02-24T12:04:30Z</time>
      </trkpt>
      <trkpt lat="39.821930" lon="-3.074130">
        <ele>740.813</ele>
        <time>2022-02-24T12:05:10Z</time>
      </trkpt>
      <trkpt lat="39.821900" lon="-3.074240">
        <ele>740.708</ele>
        <time>2022-02-24T12:05:50Z</time>
      </trkpt>
      <trkpt lat="39.821310" lon="-3.076500">
        <ele>739.345</ele>
        <time>2022-02-24T12:06:30Z</time>
      </trkpt>
      <trkpt lat="39.821140" lon="-3.077120">
        <ele>737.912</ele>
        <time>2022-02-24T12:07:10Z</time>
      </trkpt>
      <trkpt lat="39.820690" lon="-3.078830">
        <ele>739.556</ele>
        <time>2022-02-24T12:07:50Z</time>
      </trkpt>
      <trkpt lat="39.820560" lon="-3.079330">
        <ele>737.885</ele>
        <time>2022-02-24T12:08:30Z</time>
      </trkpt>
      <trkpt lat="39.820190" lon="-3.080770">
        <ele>737.185</ele>
        <time>2022-02-24T12:09:10Z</time>
      </trkpt>
      <trkpt lat="39.820090" lon="-3.081100">
        <ele>736.777</ele>
        <time>2022-02-24T12:09:50Z</time>
      </trkpt>
      <trkpt lat="39.820090" lon="-3.081110">
        <ele>736.736</ele>
        <time>2022-02-24T12:10:30Z</time>
      </trkpt>
      <trkpt lat="39.819900" lon="-3.081880">
        <ele>735.516</ele>
        <time>2022-02-24T12:11:10Z</time>
      </trkpt>
      <trkpt lat="39.819890" lon="-3.081890">
        <ele>735.545</ele>
        <time>2022-02-24T12:11:50Z</time>
      </trkpt>
      <trkpt lat="39.819780" lon="-3.082330">
        <ele>737.447</ele>
        <time>2022-02-24T12:12:30Z</time>
      </trkpt>
      <trkpt lat="39.819730" lon="-3.082550">
        <ele>737.611</ele>
        <time>2022-02-24T12:13:10Z</time>
      </trkpt>
      <trkpt lat="39.819720" lon="-3.082550">
        <ele>737.608</ele>
        <time>2022-02-24T12:13:50Z</time>
      </trkpt>
      <trkpt lat="39.819540" lon="-3.083280">
        <ele>733.263</ele>
        <time>2022-02-24T12:14:30Z</time>
      </trkpt>
      <trkpt lat="39.819020" lon="-3.085220">
        <ele>738.530</ele>
        <time>2022-02-24T12:15:10Z</time>
      </trkpt>
      <trkpt lat="39.818900" lon="-3.085650">
        <ele>737.034</ele>
        <time>2022-02-24T12:15:50Z</time>
      </trkpt>
      <trkpt lat="39.818840" lon="-3.085870">
        <ele>736.913</ele>
        <time>2022-02-24T12:16:30Z</time>
      </trkpt>
      <trkpt lat="39.818590" lon="-3.086850">
        <ele>741.653</ele>
        <time>2022-02-24T12:17:10Z</time>
      </trkpt>
      <trkpt lat="39.818440" lon="-3.087420">
        <ele>739.865</ele>
        <time>2022-02-24T12:17:50Z</time>
      </trkpt>
      <trkpt lat="39.818240" lon="-3.088170">
        <ele>739.264</ele>
        <time>2022-02-24T12:18:30Z</time>
      </trkpt>
      <trkpt lat="39.818210" lon="-3.088310">
        <ele>739.984</ele>
        <time>2022-02-24T12:19:10Z</time>
      </trkpt>
      <trkpt lat="39.817860" lon="-3.089640">
        <ele>739.146</ele>
        <time>2022-02-24T12:19:50Z</time>
      </trkpt>
      <trkpt lat="39.817800" lon="-3.089860">
        <ele>738.488</ele>
        <time>2022-02-24T12:20:30Z</time>
      </trkpt>
      <trkpt lat="39.817730" lon="-3.090120">
        <ele>738.216</ele>
        <time>2022-02-24T12:21:10Z</time>
      </trkpt>
      <trkpt lat="39.817680" lon="-3.090310">
        <ele>738.308</ele>
        <time>2022-02-24T12:21:50Z</time>
      </trkpt>
      <trkpt lat="39.817570" lon="-3.090740">
        <ele>738.093</ele>
        <time>2022-02-24T12:22:30Z</time>
      </trkpt>
      <trkpt lat="39.817450" lon="-3.091190">
        <ele>738.010</ele>
        <time>2022-02-24T12:23:10Z</time>
      </trkpt>
      <trkpt lat="39.817270" lon="-3.091830">
        <ele>737.124</ele>
        <time>2022-02-24T12:23:50Z</time>
      </trkpt>
      <trkpt lat="39.817260" lon="-3.091900">
        <ele>737.093</ele>
        <time>2022-02-24T12:24:30Z</time>
      </trkpt>
      <trkpt lat="39.817210" lon="-3.092070">
        <ele>736.913</ele>
        <time>2022-02-24T12:25:10Z</time>
      </trkpt>
      <trkpt lat="39.817150" lon="-3.092290">
        <ele>737.085</ele>
        <time>2022-02-24T12:25:50Z</time>
      </trkpt>
      <trkpt lat="39.816910" lon="-3.093170">
        <ele>740.484</ele>
        <time>2022-02-24T12:26:30Z</time>
      </trkpt>
      <trkpt lat="39.816860" lon="-3.093400">
        <ele>741.064</ele>
        <time>2022-02-24T12:27:10Z</time>
      </trkpt>
      <trkpt lat="39.816820" lon="-3.093570">
        <ele>741.047</ele>
        <time>2022-02-24T12:27:50Z</time>
      </trkpt>
      <trkpt lat="39.816800" lon="-3.093630">
        <ele>741.029</ele>
        <time>2022-02-24T12:28:30Z</time>
      </trkpt>
      <trkpt lat="39.816790" lon="-3.093670">
        <ele>741.021</ele>
        <time>2022-02-24T12:29:10Z</time>
      </trkpt>
      <trkpt lat="39.816630" lon="-3.094230">
        <ele>740.508</ele>
        <time>2022-02-24T12:29:50Z</time>
      </trkpt>
      <trkpt lat="39.816570" lon="-3.094520">
        <ele>739.343</ele>
        <time>2022-02-24T12:30:30Z</time>
      </trkpt>
      <trkpt lat="39.816550" lon="-3.094590">
        <ele>739.030</ele>
        <time>2022-02-24T12:31:10Z</time>
      </trkpt>
      <trkpt lat="39.816510" lon="-3.094740">
        <ele>738.564</ele>
        <time>2022-02-24T12:31:50Z</time>
      </trkpt>
      <trkpt lat="39.816480" lon="-3.094860">
        <ele>738.033</ele>
        <time>2022-02-24T12:32:30Z</time>
      </trkpt>
      <trkpt lat="39.816440" lon="-3.095000">
        <ele>737.653</ele>
        <time>2022-02-24T12:33:10Z</time>
      </trkpt>
      <trkpt lat="39.816400" lon="-3.095160">
        <ele>737.445</ele>
        <time>2022-02-24T12:33:50Z</time>
      </trkpt>
      <trkpt lat="39.816350" lon="-3.095360">
        <ele>736.474</ele>
        <time>2022-02-24T12:34:30Z</time>
      </trkpt>
      <trkpt lat="39.816290" lon="-3.095570">
        <ele>735.034</ele>
        <time>2022-02-24T12:35:10Z</time>
      </trkpt>
      <trkpt lat="39.816240" lon="-3.095770">
        <ele>734.615</ele>
        <time>2022-02-24T12:35:50Z</time>
      </trkpt>
      <trkpt lat="39.816190" lon="-3.095970">
        <ele>734.465</ele>
        <time>2022-02-24T12:36:30Z</time>
      </trkpt>
      <trkpt lat="39.816020" lon="-3.096580">
        <ele>734.011</ele>
        <time>2022-02-24T12:37:10Z</time>
      </trkpt>
      <trkpt lat="39.816020" lon="-3.096600">
        <ele>734.108</ele>
        <time>2022-02-24T12:37:50Z</time>
      </trkpt>
      <trkpt lat="39.815910" lon="-3.097000">
        <ele>734.780</ele>
        <time>2022-02-24T12:38:30Z</time>
      </trkpt>
      <trkpt lat="39.815820" lon="-3.097370">
        <ele>735.087</ele>
        <time>2022-02-24T12:39:10Z</time>
      </trkpt>
      <trkpt lat="39.815730" lon="-3.097710">
        <ele>735.491</ele>
        <time>2022-02-24T12:39:50Z</time>
      </trkpt>
      <trkpt lat="39.815690" lon="-3.097860">
        <ele>735.740</ele>
        <time>2022-02-24T12:40:30Z</time>
      </trkpt>
      <trkpt lat="39.815610" lon="-3.098200">
        <ele>736.030</ele>
        <time>2022-02-24T12:41:10Z</time>
      </trkpt>
      <trkpt lat="39.815590" lon="-3.098260">
        <ele>736.052</ele>
        <time>2022-02-24T12:41:50Z</time>
      </trkpt>
      <trkpt lat="39.815530" lon="-3.098470">
        <ele>736.551</ele>
        <time>2022-02-24T12:42:30Z</time>
      </trkpt>
      <trkpt lat="39.815480" lon="-3.098660">
        <ele>737.291</ele>
        <time>2022-02-24T12:43:10Z</time>
      </trkpt>
      <trkpt lat="39.815400" lon="-3.098960">
        <ele>738.816</ele>
        <time>2022-02-24T12:43:50Z</time>
      </trkpt>
      <trkpt lat="39.815330" lon="-3.099210">
        <ele>739.776</ele>
        <time>2022-02-24T12:44:30Z</time>
      </trkpt>
      <trkpt lat="39.815280" lon="-3.099420">
        <ele>739.113</ele>
        <time>2022-02-24T12:45:10Z</time>
      </trkpt>
      <trkpt lat="39.815210" lon="-3.099650">
        <ele>738.308</ele>
        <time>2022-02-24T12:45:50Z</time>
      </trkpt>
      <trkpt lat="39.815210" lon="-3.099660">
        <ele>738.260</ele>
        <time>2022-02-24T12:46:30Z</time>
      </trkpt>
      <trkpt lat="39.815180" lon="-3.099750">
        <ele>737.957</ele>
        <time>2022-02-24T12:47:10Z</time>
      </trkpt>
      <trkpt lat="39.815080" lon="-3.099940">
        <ele>737.221</ele>
        <time>2022-02-24T12:47:50Z</time>
      </trkpt>
      <trkpt lat="39.815000" lon="-3.100080">
        <ele>737.030</ele>
        <time>2022-02-24T12:48:30Z</time>
      </trkpt>
      <trkpt lat="39.814980" lon="-3.100120">
        <ele>737.020</ele>
        <time>2022-02-24T12:49:10Z</time>
      </trkpt>
      <trkpt lat="39.814880" lon="-3.100280">
        <ele>737.042</ele>
        <time>2022-02-24T12:49:50Z</time>
      </trkpt>
      <trkpt lat="39.814820" lon="-3.100380">
        <ele>736.931</ele>
        <time>2022-02-24T12:50:30Z</time>
      </trkpt>
      <trkpt lat="39.814790" lon="-3.100440">
        <ele>736.941</ele>
        <time>2022-02-24T12:51:10Z</time>
      </trkpt>
      <trkpt lat="39.814780" lon="-3.100460">
        <ele>736.935</ele>
        <time>2022-02-24T12:51:50Z</time>
      </trkpt>
      <trkpt lat="39.814740" lon="-3.100540">
        <ele>736.986</ele>
        <time>2022-02-24T12:52:30Z</time>
      </trkpt>
      <trkpt lat="39.814650" lon="-3.100680">
        <ele>737.414</ele>
        <time>2022-02-24T12:53:10Z</time>
      </trkpt>
      <trkpt lat="39.814580" lon="-3.100810">
        <ele>738.008</ele>
        <time>2022-02-24T12:53:50Z</time>
      </trkpt>
      <trkpt lat="39.814540" lon="-3.100880">
        <ele>738.532</ele>
        <time>2022-02-24T12:54:30Z</time>
      </trkpt>
      <trkpt lat="39.814280" lon="-3.101320">
        <ele>740.059</ele>
        <time>2022-02-24T12:55:10Z</time>
      </trkpt>
      <trkpt lat="39.814200" lon="-3.101480">
        <ele>740.333</ele>
        <time>2022-02-24T12:55:50Z</time>
      </trkpt>
      <trkpt lat="39.814170" lon="-3.101520">
        <ele>740.512</ele>
        <time>2022-02-24T12:56:30Z</time>
      </trkpt>
      <trkpt lat="39.814160" lon="-3.101560">
        <ele>740.692</ele>
        <time>2022-02-24T12:57:10Z</time>
      </trkpt>
      <trkpt lat="39.814110" lon="-3.101650">
        <ele>740.984</ele>
        <time>2022-02-24T12:57:50Z</time>
      </trkpt>
      <trkpt lat="39.814070" lon="-3.101720">
        <ele>741.253</ele>
        <time>2022-02-24T12:58:30Z</time>
      </trkpt>
      <trkpt lat="39.814040" lon="-3.101800">
        <ele>741.573</ele>
        <time>2022-02-24T12:59:10Z</time>
      </trkpt>
      <trkpt lat="39.814020" lon="-3.101860">
        <ele>741.716</ele>
        <time>2022-02-24T12:59:50Z</time>
      </trkpt>
      <trkpt lat="39.814000" lon="-3.101920">
        <ele>741.976</ele>
        <time>2022-02-24T13:00:30Z</time>
      </trkpt>
      <trkpt lat="39.813990" lon="-3.102030">
        <ele>742.913</ele>
        <time>2022-02-24T13:01:10Z</time>
      </trkpt>
      <trkpt lat="39.813970" lon="-3.102150">
        <ele>744.208</ele>
        <time>2022-02-24T13:01:50Z</time>
      </trkpt>
      <trkpt lat="39.813970" lon="-3.102220">
        <ele>745.010</ele>
        <time>2022-02-24T13:02:30Z</time>
      </trkpt>
      <trkpt lat="39.813970" lon="-3.102290">
        <ele>745.117</ele>
        <time>2022-02-24T13:03:10Z</time>
      </trkpt>
      <trkpt lat="39.813970" lon="-3.102360">
        <ele>745.151</ele>
        <time>2022-02-24T13:03:50Z</time>
      </trkpt>
      <trkpt lat="39.813970" lon="-3.102400">
        <ele>745.220</ele>
        <time>2022-02-24T13:04:30Z</time>
      </trkpt>
      <trkpt lat="39.813970" lon="-3.102460">
        <ele>745.230</ele>
        <time>2022-02-24T13:05:10Z</time>
      </trkpt>
      <trkpt lat="39.813970" lon="-3.102550">
        <ele>745.182</ele>
        <time>2022-02-24T13:05:50Z</time>
      </trkpt>
      <trkpt lat="39.813980" lon="-3.102710">
        <ele>744.631</ele>
        <time>2022-02-24T13:06:30Z</time>
      </trkpt>
      <trkpt lat="39.813990" lon="-3.102860">
        <ele>743.781</ele>
        <time>2022-02-24T13:07:10Z</time>
      </trkpt>
      <trkpt lat="39.813970" lon="-3.102950">
        <ele>742.939</ele>
        <time>2022-02-24T13:07:50Z</time>
      </trkpt>
      <trkpt lat="39.813970" lon="-3.103100">
        <ele>741.801</ele>
        <time>2022-02-24T13:08:30Z</time>
      </trkpt>
      <trkpt lat="39.813930" lon="-3.103240">
        <ele>741.221</ele>
        <time>2022-02-24T13:09:10Z</time>
      </trkpt>
      <trkpt lat="39.813890" lon="-3.103370">
        <ele>740.908</ele>
        <time>2022-02-24T13:09:50Z</time>
      </trkpt>
      <trkpt lat="39.813890" lon="-3.103390">
        <ele>740.822</ele>
        <time>2022-02-24T13:10:30Z</time>
      </trkpt>
      <trkpt lat="39.813770" lon="-3.103710">
        <ele>739.299</ele>
        <time>2022-02-24T13:11:10Z</time>
      </trkpt>
      <trkpt lat="39.813690" lon="-3.103940">
        <ele>738.183</ele>
        <time>2022-02-24T13:11:50Z</time>
      </trkpt>
      <trkpt lat="39.813650" lon="-3.104050">
        <ele>737.662</ele>
        <time>2022-02-24T13:12:30Z</time>
      </trkpt>
      <trkpt lat="39.813610" lon="-3.104170">
        <ele>737.062</ele>
        <time>2022-02-24T13:13:10Z</time>
      </trkpt>
      <trkpt lat="39.813330" lon="-3.104910">
        <ele>735.074</ele>
        <time>2022-02-24T13:13:50Z</time>
      </trkpt>
      <trkpt lat="39.813250" lon="-3.105120">
        <ele>734.633</ele>
        <time>2022-02-24T13:14:30Z</time>
      </trkpt>
      <trkpt lat="39.813140" lon="-3.105390">
        <ele>733.613</ele>
        <time>2022-02-24T13:15:10Z</time>
      </trkpt>
      <trkpt lat="39.813070" lon="-3.105520">
        <ele>733.172</ele>
        <time>2022-02-24T13:15:50Z</time>
      </trkpt>
      <trkpt lat="39.812980" lon="-3.105700">
        <ele>732.913</ele>
        <time>2022-02-24T13:16:30Z</time>
      </trkpt>
      <trkpt lat="39.812880" lon="-3.105840">
        <ele>732.414</ele>
        <time>2022-02-24T13:17:10Z</time>
      </trkpt>
      <trkpt lat="39.812850" lon="-3.105880">
        <ele>732.408</ele>
        <time>2022-02-24T13:17:50Z</time>
      </trkpt>
      <trkpt lat="39.812810" lon="-3.105940">
        <ele>732.576</ele>
        <time>2022-02-24T13:18:30Z</time>
      </trkpt>
      <trkpt lat="39.812630" lon="-3.106170">
        <ele>733.123</ele>
        <time>2022-02-24T13:19:10Z</time>
      </trkpt>
      <trkpt lat="39.812530" lon="-3.106280">
        <ele>733.127</ele>
        <time>2022-02-24T13:19:50Z</time>
      </trkpt>
      <trkpt lat="39.812390" lon="-3.106450">
        <ele>733.096</ele>
        <time>2022-02-24T13:20:30Z</time>
      </trkpt>
      <trkpt lat="39.811800" lon="-3.107070">
        <ele>734.866</ele>
        <time>2022-02-24T13:21:10Z</time>
      </trkpt>
      <trkpt lat="39.811690" lon="-3.107190">
        <ele>735.058</ele>
        <time>2022-02-24T13:21:50Z</time>
      </trkpt>
      <trkpt lat="39.811340" lon="-3.107570">
        <ele>735.227</ele>
        <time>2022-02-24T13:22:30Z</time>
      </trkpt>
      <trkpt lat="39.810880" lon="-3.108050">
        <ele>736.037</ele>
        <time>2022-02-24T13:23:10Z</time>
      </trkpt>
      <trkpt lat="39.810440" lon="-3.108520">
        <ele>735.939</ele>
        <time>2022-02-24T13:23:50Z</time>
      </trkpt>
      <trkpt lat="39.809560" lon="-3.109430">
        <ele>734.401</ele>
        <time>2022-02-24T13:24:30Z</time>
      </trkpt>
      <trkpt lat="39.809020" lon="-3.110030">
        <ele>732.421</ele>
        <time>2022-02-24T13:25:10Z</time>
      </trkpt>
      <trkpt lat="39.808900" lon="-3.110150">
        <ele>731.108</ele>
        <time>2022-02-24T13:25:50Z</time>
      </trkpt>
      <trkpt lat="39.808240" lon="-3.110830">
        <ele>729.722</ele>
        <time>2022-02-24T13:26:30Z</time>
      </trkpt>
      <trkpt lat="39.807920" lon="-3.111190">
        <ele>731.829</ele>
        <time>2022-02-24T13:27:10Z</time>
      </trkpt>
      <trkpt lat="39.807230" lon="-3.111940">
        <ele>730.093</ele>
        <time>2022-02-24T13:27:50Z</time>
      </trkpt>
      <trkpt lat="39.806830" lon="-3.112380">
        <ele>728.672</ele>
        <time>2022-02-24T13:28:30Z</time>
      </trkpt>
      <trkpt lat="39.806400" lon="-3.112810">
        <ele>728.062</ele>
        <time>2022-02-24T13:29:10Z</time>
      </trkpt>
      <trkpt lat="39.805890" lon="-3.113350">
        <ele>726.294</ele>
        <time>2022-02-24T13:29:50Z</time>
      </trkpt>
      <trkpt lat="39.805380" lon="-3.113890">
        <ele>725.023</ele>
        <time>2022-02-24T13:30:30Z</time>
      </trkpt>
      <trkpt lat="39.804970" lon="-3.114330">
        <ele>722.593</ele>
        <time>2022-02-24T13:31:10Z</time>
      </trkpt>
      <trkpt lat="39.804570" lon="-3.114760">
        <ele>724.149</ele>
        <time>2022-02-24T13:31:50Z</time>
      </trkpt>
      <trkpt lat="39.804450" lon="-3.114900">
        <ele>725.002</ele>
        <time>2022-02-24T13:32:30Z</time>
      </trkpt>
      <trkpt lat="39.804260" lon="-3.115090">
        <ele>725.822</ele>
        <time>2022-02-24T13:33:10Z</time>
      </trkpt>
      <trkpt lat="39.803810" lon="-3.115560">
        <ele>725.008</ele>
        <time>2022-02-24T13:33:50Z</time>
      </trkpt>
      <trkpt lat="39.803240" lon="-3.116170">
        <ele>725.123</ele>
        <time>2022-02-24T13:34:30Z</time>
      </trkpt>
      <trkpt lat="39.802740" lon="-3.116730">
        <ele>721.930</ele>
        <time>2022-02-24T13:35:10Z</time>
      </trkpt>
      <trkpt lat="39.802340" lon="-3.117140">
        <ele>720.324</ele>
        <time>2022-02-24T13:35:50Z</time>
      </trkpt>
      <trkpt lat="39.802050" lon="-3.117460">
        <ele>721.263</ele>
        <time>2022-02-24T13:36:30Z</time>
      </trkpt>
      <trkpt lat="39.801780" lon="-3.117750">
        <ele>723.523</ele>
        <time>2022-02-24T13:37:10Z</time>
      </trkpt>
      <trkpt lat="39.801260" lon="-3.118310">
        <ele>722.975</ele>
        <time>2022-02-24T13:37:50Z</time>
      </trkpt>
      <trkpt lat="39.800930" lon="-3.118650">
        <ele>723.164</ele>
        <time>2022-02-24T13:38:30Z</time>
      </trkpt>
      <trkpt lat="39.800810" lon="-3.118780">
        <ele>723.634</ele>
        <time>2022-02-24T13:39:10Z</time>
      </trkpt>
      <trkpt lat="39.800800" lon="-3.118790">
        <ele>723.639</ele>
        <time>2022-02-24T13:39:50Z</time>
      </trkpt>
      <trkpt lat="39.800200" lon="-3.119420">
        <ele>721.201</ele>
        <time>2022-02-24T13:40:30Z</time>
      </trkpt>
      <trkpt lat="39.798930" lon="-3.120800">
        <ele>724.621</ele>
        <time>2022-02-24T13:41:10Z</time>
      </trkpt>
      <trkpt lat="39.797790" lon="-3.121990">
        <ele>718.008</ele>
        <time>2022-02-24T13:41:50Z</time>
      </trkpt>
      <trkpt lat="39.797130" lon="-3.122710">
        <ele>718.732</ele>
        <time>2022-02-24T13:42:30Z</time>
      </trkpt>
      <trkpt lat="39.796900" lon="-3.122950">
        <ele>719.829</ele>
        <time>2022-02-24T13:43:10Z</time>
      </trkpt>
      <trkpt lat="39.796540" lon="-3.123340">
        <ele>721.013</ele>
        <time>2022-02-24T13:43:50Z</time>
      </trkpt>
      <trkpt lat="39.795980" lon="-3.123930">
        <ele>719.372</ele>
        <time>2022-02-24T13:44:30Z</time>
      </trkpt>
      <trkpt lat="39.795930" lon="-3.123990">
        <ele>719.362</ele>
        <time>2022-02-24T13:45:10Z</time>
      </trkpt>
      <trkpt lat="39.795240" lon="-3.124720">
        <ele>725.084</ele>
        <time>2022-02-24T13:45:50Z</time>
      </trkpt>
      <trkpt lat="39.794670" lon="-3.125320">
        <ele>724.753</ele>
        <time>2022-02-24T13:46:30Z</time>
      </trkpt>
      <trkpt lat="39.794130" lon="-3.125890">
        <ele>724.363</ele>
        <time>2022-02-24T13:47:10Z</time>
      </trkpt>
      <trkpt lat="39.793630" lon="-3.126410">
        <ele>724.149</ele>
        <time>2022-02-24T13:47:50Z</time>
      </trkpt>
      <trkpt lat="39.793280" lon="-3.126800">
        <ele>723.602</ele>
        <time>2022-02-24T13:48:30Z</time>
      </trkpt>
      <trkpt lat="39.793200" lon="-3.126880">
        <ele>723.922</ele>
        <time>2022-02-24T13:49:10Z</time>
      </trkpt>
      <trkpt lat="39.792150" lon="-3.128010">
        <ele>723.608</ele>
        <time>2022-02-24T13:49:50Z</time>
      </trkpt>
      <trkpt lat="39.792010" lon="-3.128160">
        <ele>722.933</ele>
        <time>2022-02-24T13:50:30Z</time>
      </trkpt>
      <trkpt lat="39.791420" lon="-3.128790">
        <ele>723.540</ele>
        <time>2022-02-24T13:51:10Z</time>
      </trkpt>
      <trkpt lat="39.790640" lon="-3.129630">
        <ele>720.854</ele>
        <time>2022-02-24T13:51:50Z</time>
      </trkpt>
      <trkpt lat="39.790480" lon="-3.129790">
        <ele>721.363</ele>
        <time>2022-02-24T13:52:30Z</time>
      </trkpt>
      <trkpt lat="39.788990" lon="-3.131350">
        <ele>718.723</ele>
        <time>2022-02-24T13:53:10Z</time>
      </trkpt>
      <trkpt lat="39.788450" lon="-3.131920">
        <ele>721.935</ele>
        <time>2022-02-24T13:53:50Z</time>
      </trkpt>
      <trkpt lat="39.788130" lon="-3.132290">
        <ele>720.464</ele>
        <time>2022-02-24T13:54:30Z</time>
      </trkpt>
      <trkpt lat="39.788110" lon="-3.132310">
        <ele>720.334</ele>
        <time>2022-02-24T13:55:10Z</time>
      </trkpt>
      <trkpt lat="39.788000" lon="-3.132430">
        <ele>719.368</ele>
        <time>2022-02-24T13:55:50Z</time>
      </trkpt>
      <trkpt lat="39.787980" lon="-3.132460">
        <ele>719.042</ele>
        <time>2022-02-24T13:56:30Z</time>
      </trkpt>
      <trkpt lat="39.787420" lon="-3.133050">
        <ele>717.926</ele>
        <time>2022-02-24T13:57:10Z</time>
      </trkpt>
      <trkpt lat="39.787300" lon="-3.133180">
        <ele>719.308</ele>
        <time>2022-02-24T13:57:50Z</time>
      </trkpt>
      <trkpt lat="39.787140" lon="-3.133350">
        <ele>720.995</ele>
        <time>2022-02-24T13:58:30Z</time>
      </trkpt>
      <trkpt lat="39.786890" lon="-3.133620">
        <ele>723.482</ele>
        <time>2022-02-24T13:59:10Z</time>
      </trkpt>
      <trkpt lat="39.786160" lon="-3.134380">
        <ele>721.046</ele>
        <time>2022-02-24T13:59:50Z</time>
      </trkpt>
      <trkpt lat="39.786040" lon="-3.134510">
        <ele>721.585</ele>
        <time>2022-02-24T14:00:30Z</time>
      </trkpt>
      <trkpt lat="39.786020" lon="-3.134530">
        <ele>721.675</ele>
        <time>2022-02-24T14:01:10Z</time>
      </trkpt>
      <trkpt lat="39.785620" lon="-3.134950">
        <ele>721.247</ele>
        <time>2022-02-24T14:01:50Z</time>
      </trkpt>
      <trkpt lat="39.785600" lon="-3.134970">
        <ele>721.146</ele>
        <time>2022-02-24T14:02:30Z</time>
      </trkpt>
      <trkpt lat="39.785580" lon="-3.135000">
        <ele>721.026</ele>
        <time>2022-02-24T14:03:10Z</time>
      </trkpt>
      <trkpt lat="39.785200" lon="-3.135400">
        <ele>721.088</ele>
        <time>2022-02-24T14:03:50Z</time>
      </trkpt>
      <trkpt lat="39.783330" lon="-3.137390">
        <ele>718.024</ele>
        <time>2022-02-24T14:04:30Z</time>
      </trkpt>
      <trkpt lat="39.782680" lon="-3.138080">
        <ele>715.426</ele>
        <time>2022-02-24T14:05:10Z</time>
      </trkpt>
      <trkpt lat="39.782140" lon="-3.138660">
        <ele>716.708</ele>
        <time>2022-02-24T14:05:50Z</time>
      </trkpt>
      <trkpt lat="39.782120" lon="-3.138680">
        <ele>716.677</ele>
        <time>2022-02-24T14:06:30Z</time>
      </trkpt>
      <trkpt lat="39.781840" lon="-3.138970">
        <ele>715.564</ele>
        <time>2022-02-24T14:07:10Z</time>
      </trkpt>
      <trkpt lat="39.781720" lon="-3.139100">
        <ele>715.178</ele>
        <time>2022-02-24T14:07:50Z</time>
      </trkpt>
      <trkpt lat="39.781570" lon="-3.139270">
        <ele>714.427</ele>
        <time>2022-02-24T14:08:30Z</time>
      </trkpt>
      <trkpt lat="39.781430" lon="-3.139420">
        <ele>714.197</ele>
        <time>2022-02-24T14:09:10Z</time>
      </trkpt>
      <trkpt lat="39.781340" lon="-3.139510">
        <ele>714.079</ele>
        <time>2022-02-24T14:09:50Z</time>
      </trkpt>
      <trkpt lat="39.779750" lon="-3.141190">
        <ele>714.168</ele>
        <time>2022-02-24T14:10:30Z</time>
      </trkpt>
      <trkpt lat="39.779630" lon="-3.141320">
        <ele>713.478</ele>
        <time>2022-02-24T14:11:10Z</time>
      </trkpt>
      <trkpt lat="39.779610" lon="-3.141340">
        <ele>713.389</ele>
        <time>2022-02-24T14:11:50Z</time>
      </trkpt>
      <trkpt lat="39.779380" lon="-3.141580">
        <ele>711.906</ele>
        <time>2022-02-24T14:12:30Z</time>
      </trkpt>
      <trkpt lat="39.778930" lon="-3.142050">
        <ele>713.226</ele>
        <time>2022-02-24T14:13:10Z</time>
      </trkpt>
      <trkpt lat="39.778910" lon="-3.142070">
        <ele>713.408</ele>
        <time>2022-02-24T14:13:50Z</time>
      </trkpt>
      <trkpt lat="39.778350" lon="-3.142670">
        <ele>712.887</ele>
        <time>2022-02-24T14:14:30Z</time>
      </trkpt>
      <trkpt lat="39.777550" lon="-3.143540">
        <ele>710.434</ele>
        <time>2022-02-24T14:15:10Z</time>
      </trkpt>
      <trkpt lat="39.777530" lon="-3.143560">
        <ele>710.388</ele>
        <time>2022-02-24T14:15:50Z</time>
      </trkpt>
      <trkpt lat="39.777390" lon="-3.143710">
        <ele>709.887</ele>
        <time>2022-02-24T14:16:30Z</time>
      </trkpt>
      <trkpt lat="39.777360" lon="-3.143750">
        <ele>709.827</ele>
        <time>2022-02-24T14:17:10Z</time>
      </trkpt>
      <trkpt lat="39.776540" lon="-3.144620">
        <ele>711.749</ele>
        <time>2022-02-24T14:17:50Z</time>
      </trkpt>
      <trkpt lat="39.776480" lon="-3.144680">
        <ele>711.418</ele>
        <time>2022-02-24T14:18:30Z</time>
      </trkpt>
      <trkpt lat="39.776410" lon="-3.144750">
        <ele>710.948</ele>
        <time>2022-02-24T14:19:10Z</time>
      </trkpt>
      <trkpt lat="39.776360" lon="-3.144810">
        <ele>710.353</ele>
        <time>2022-02-24T14:19:50Z</time>
      </trkpt>
      <trkpt lat="39.776000" lon="-3.145180">
        <ele>707.604</ele>
        <time>2022-02-24T14:20:30Z</time>
      </trkpt>
      <trkpt lat="39.775790" lon="-3.145400">
        <ele>707.914</ele>
        <time>2022-02-24T14:21:10Z</time>
      </trkpt>
      <trkpt lat="39.775650" lon="-3.145550">
        <ele>708.008</ele>
        <time>2022-02-24T14:21:50Z</time>
      </trkpt>
      <trkpt lat="39.775590" lon="-3.145620">
        <ele>708.064</ele>
        <time>2022-02-24T14:22:30Z</time>
      </trkpt>
      <trkpt lat="39.775510" lon="-3.145700">
        <ele>707.911</ele>
        <time>2022-02-24T14:23:10Z</time>
      </trkpt>
      <trkpt lat="39.775100" lon="-3.146150">
        <ele>708.385</ele>
        <time>2022-02-24T14:23:50Z</time>
      </trkpt>
      <trkpt lat="39.774740" lon="-3.146520">
        <ele>709.574</ele>
        <time>2022-02-24T14:24:30Z</time>
      </trkpt>
      <trkpt lat="39.774680" lon="-3.146590">
        <ele>709.194</ele>
        <time>2022-02-24T14:25:10Z</time>
      </trkpt>
      <trkpt lat="39.774560" lon="-3.146720">
        <ele>708.426</ele>
        <time>2022-02-24T14:25:50Z</time>
      </trkpt>
      <trkpt lat="39.774480" lon="-3.146800">
        <ele>708.195</ele>
        <time>2022-02-24T14:26:30Z</time>
      </trkpt>
      <trkpt lat="39.774390" lon="-3.146900">
        <ele>707.815</ele>
        <time>2022-02-24T14:27:10Z</time>
      </trkpt>
      <trkpt lat="39.774290" lon="-3.147010">
        <ele>707.424</ele>
        <time>2022-02-24T14:27:50Z</time>
      </trkpt>
      <trkpt lat="39.773950" lon="-3.147370">
        <ele>705.304</ele>
        <time>2022-02-24T14:28:30Z</time>
      </trkpt>
      <trkpt lat="39.773790" lon="-3.147540">
        <ele>704.114</ele>
        <time>2022-02-24T14:29:10Z</time>
      </trkpt>
      <trkpt lat="39.773530" lon="-3.147810">
        <ele>703.308</ele>
        <time>2022-02-24T14:29:50Z</time>
      </trkpt>
      <trkpt lat="39.773290" lon="-3.148060">
        <ele>704.351</ele>
        <time>2022-02-24T14:30:30Z</time>
      </trkpt>
      <trkpt lat="39.772410" lon="-3.149000">
        <ele>708.948</ele>
        <time>2022-02-24T14:31:10Z</time>
      </trkpt>
      <trkpt lat="39.772360" lon="-3.149060">
        <ele>708.792</ele>
        <time>2022-02-24T14:31:50Z</time>
      </trkpt>
      <trkpt lat="39.772000" lon="-3.149440">
        <ele>706.811</ele>
        <time>2022-02-24T14:32:30Z</time>
      </trkpt>
      <trkpt lat="39.771970" lon="-3.149470">
        <ele>706.881</ele>
        <time>2022-02-24T14:33:10Z</time>
      </trkpt>
      <trkpt lat="39.771780" lon="-3.149680">
        <ele>706.783</ele>
        <time>2022-02-24T14:33:50Z</time>
      </trkpt>
      <trkpt lat="39.771670" lon="-3.149800">
        <ele>706.772</ele>
        <time>2022-02-24T14:34:30Z</time>
      </trkpt>
      <trkpt lat="39.771650" lon="-3.149820">
        <ele>706.732</ele>
        <time>2022-02-24T14:35:10Z</time>
      </trkpt>
      <trkpt lat="39.771300" lon="-3.150180">
        <ele>705.989</ele>
        <time>2022-02-24T14:35:50Z</time>
      </trkpt>
      <trkpt lat="39.771270" lon="-3.150220">
        <ele>705.806</ele>
        <time>2022-02-24T14:36:30Z</time>
      </trkpt>
      <trkpt lat="39.770910" lon="-3.150590">
        <ele>704.026</ele>
        <time>2022-02-24T14:37:10Z</time>
      </trkpt>
      <trkpt lat="39.770790" lon="-3.150710">
        <ele>704.108</ele>
        <time>2022-02-24T14:37:50Z</time>
      </trkpt>
      <trkpt lat="39.770310" lon="-3.151180">
        <ele>703.617</ele>
        <time>2022-02-24T14:38:30Z</time>
      </trkpt>
      <trkpt lat="39.769360" lon="-3.152130">
        <ele>702.784</ele>
        <time>2022-02-24T14:39:10Z</time>
      </trkpt>
      <trkpt lat="39.769310" lon="-3.152190">
        <ele>703.028</ele>
        <time>2022-02-24T14:39:50Z</time>
      </trkpt>
      <trkpt lat="39.769080" lon="-3.152430">
        <ele>703.997</ele>
        <time>2022-02-24T14:40:30Z</time>
      </trkpt>
      <trkpt lat="39.768300" lon="-3.153250">
        <ele>704.967</ele>
        <time>2022-02-24T14:41:10Z</time>
      </trkpt>
      <trkpt lat="39.767540" lon="-3.154040">
        <ele>704.999</ele>
        <time>2022-02-24T14:41:50Z</time>
      </trkpt>
      <trkpt lat="39.767360" lon="-3.154220">
        <ele>705.518</ele>
        <time>2022-02-24T14:42:30Z</time>
      </trkpt>
      <trkpt lat="39.767020" lon="-3.154590">
        <ele>706.078</ele>
        <time>2022-02-24T14:43:10Z</time>
      </trkpt>
      <trkpt lat="39.767010" lon="-3.154600">
        <ele>706.056</ele>
        <time>2022-02-24T14:43:50Z</time>
      </trkpt>
      <trkpt lat="39.766610" lon="-3.155020">
        <ele>704.859</ele>
        <time>2022-02-24T14:44:30Z</time>
      </trkpt>
      <trkpt lat="39.766250" lon="-3.155390">
        <ele>705.214</ele>
        <time>2022-02-24T14:45:10Z</time>
      </trkpt>
      <trkpt lat="39.766220" lon="-3.155430">
        <ele>705.308</ele>
        <time>2022-02-24T14:45:50Z</time>
      </trkpt>
      <trkpt lat="39.766080" lon="-3.155570">
        <ele>706.014</ele>
        <time>2022-02-24T14:46:30Z</time>
      </trkpt>
      <trkpt lat="39.765810" lon="-3.155870">
        <ele>705.911</ele>
        <time>2022-02-24T14:47:10Z</time>
      </trkpt>
      <trkpt lat="39.765640" lon="-3.156060">
        <ele>705.215</ele>
        <time>2022-02-24T14:47:50Z</time>
      </trkpt>
      <trkpt lat="39.765590" lon="-3.156120">
        <ele>705.054</ele>
        <time>2022-02-24T14:48:30Z</time>
      </trkpt>
      <trkpt lat="39.765030" lon="-3.156690">
        <ele>703.844</ele>
        <time>2022-02-24T14:49:10Z</time>
      </trkpt>
      <trkpt lat="39.765020" lon="-3.156690">
        <ele>703.996</ele>
        <time>2022-02-24T14:49:50Z</time>
      </trkpt>
      <trkpt lat="39.764980" lon="-3.156730">
        <ele>704.195</ele>
        <time>2022-02-24T14:50:30Z</time>
      </trkpt>
      <trkpt lat="39.764670" lon="-3.157080">
        <ele>705.435</ele>
        <time>2022-02-24T14:51:10Z</time>
      </trkpt>
      <trkpt lat="39.764630" lon="-3.157120">
        <ele>705.238</ele>
        <time>2022-02-24T14:51:50Z</time>
      </trkpt>
      <trkpt lat="39.764440" lon="-3.157350">
        <ele>703.170</ele>
        <time>2022-02-24T14:52:30Z</time>
      </trkpt>
      <trkpt lat="39.764160" lon="-3.157650">
        <ele>701.017</ele>
        <time>2022-02-24T14:53:10Z</time>
      </trkpt>
      <trkpt lat="39.763880" lon="-3.157940">
        <ele>700.608</ele>
        <time>2022-02-24T14:53:50Z</time>
      </trkpt>
      <trkpt lat="39.763330" lon="-3.158510">
        <ele>704.432</ele>
        <time>2022-02-24T14:54:30Z</time>
      </trkpt>
      <trkpt lat="39.763160" lon="-3.158700">
        <ele>704.199</ele>
        <time>2022-02-24T14:55:10Z</time>
      </trkpt>
      <trkpt lat="39.762890" lon="-3.158970">
        <ele>703.083</ele>
        <time>2022-02-24T14:55:50Z</time>
      </trkpt>
      <trkpt lat="39.762500" lon="-3.159400">
        <ele>703.052</ele>
        <time>2022-02-24T14:56:30Z</time>
      </trkpt>
      <trkpt lat="39.762470" lon="-3.159440">
        <ele>703.092</ele>
        <time>2022-02-24T14:57:10Z</time>
      </trkpt>
      <trkpt lat="39.762160" lon="-3.159750">
        <ele>703.244</ele>
        <time>2022-02-24T14:57:50Z</time>
      </trkpt>
      <trkpt lat="39.762110" lon="-3.159800">
        <ele>703.453</ele>
        <time>2022-02-24T14:58:30Z</time>
      </trkpt>
      <trkpt lat="39.761960" lon="-3.159970">
        <ele>703.913</ele>
        <time>2022-02-24T14:59:10Z</time>
      </trkpt>
      <trkpt lat="39.761830" lon="-3.160160">
        <ele>704.834</ele>
        <time>2022-02-24T14:59:50Z</time>
      </trkpt>
      <trkpt lat="39.761790" lon="-3.160250">
        <ele>705.055</ele>
        <time>2022-02-24T15:00:30Z</time>
      </trkpt>
      <trkpt lat="39.761680" lon="-3.160420">
        <ele>705.510</ele>
        <time>2022-02-24T15:01:10Z</time>
      </trkpt>
      <trkpt lat="39.761640" lon="-3.160490">
        <ele>705.708</ele>
        <time>2022-02-24T15:01:50Z</time>
      </trkpt>
      <trkpt lat="39.761600" lon="-3.160650">
        <ele>705.562</ele>
        <time>2022-02-24T15:02:30Z</time>
      </trkpt>
      <trkpt lat="39.761560" lon="-3.160840">
        <ele>705.049</ele>
        <time>2022-02-24T15:03:10Z</time>
      </trkpt>
      <trkpt lat="39.761540" lon="-3.161170">
        <ele>704.543</ele>
        <time>2022-02-24T15:03:50Z</time>
      </trkpt>
      <trkpt lat="39.761520" lon="-3.161590">
        <ele>704.922</ele>
        <time>2022-02-24T15:04:30Z</time>
      </trkpt>
      <trkpt lat="39.761510" lon="-3.162180">
        <ele>703.732</ele>
        <time>2022-02-24T15:05:10Z</time>
      </trkpt>
      <trkpt lat="39.761510" lon="-3.162330">
        <ele>703.684</ele>
        <time>2022-02-24T15:05:50Z</time>
      </trkpt>
      <trkpt lat="39.761510" lon="-3.162390">
        <ele>703.653</ele>
        <time>2022-02-24T15:06:30Z</time>
      </trkpt>
      <trkpt lat="39.761540" lon="-3.162630">
        <ele>703.973</ele>
        <time>2022-02-24T15:07:10Z</time>
      </trkpt>
      <trkpt lat="39.761542" lon="-3.162633">
        <ele>703.929</ele>
        <time>2022-02-24T15:07:50Z</time>
      </trkpt>
      <trkpt lat="39.761550" lon="-3.162630">
        <ele>703.900</ele>
        <time>2022-02-24T15:08:30Z</time>
      </trkpt>
      <trkpt lat="39.761560" lon="-3.162630">
        <ele>703.920</ele>
        <time>2022-02-24T15:09:10Z</time>
      </trkpt>
      <trkpt lat="39.761560" lon="-3.162640">
        <ele>703.908</ele>
        <time>2022-02-24T15:09:50Z</time>
      </trkpt>
      <trkpt lat="39.761570" lon="-3.162640">
        <ele>703.931</ele>
        <time>2022-02-24T15:10:30Z</time>
      </trkpt>
      <trkpt lat="39.761580" lon="-3.162640">
        <ele>703.888</ele>
        <time>2022-02-24T15:11:10Z</time>
      </trkpt>
      <trkpt lat="39.761580" lon="-3.162650">
        <ele>703.992</ele>
        <time>2022-02-24T15:11:50Z</time>
      </trkpt>
      <trkpt lat="39.761590" lon="-3.162650">
        <ele>703.841</ele>
        <time>2022-02-24T15:12:30Z</time>
      </trkpt>
      <trkpt lat="39.761590" lon="-3.162660">
        <ele>703.981</ele>
        <time>2022-02-24T15:13:10Z</time>
      </trkpt>
      <trkpt lat="39.761600" lon="-3.162670">
        <ele>703.943</ele>
        <time>2022-02-24T15:13:50Z</time>
      </trkpt>
      <trkpt lat="39.761600" lon="-3.162680">
        <ele>703.982</ele>
        <time>2022-02-24T15:14:30Z</time>
      </trkpt>
      <trkpt lat="39.761600" lon="-3.162690">
        <ele>703.952</ele>
        <time>2022-02-24T15:15:10Z</time>
      </trkpt>
      <trkpt lat="39.761610" lon="-3.162690">
        <ele>703.945</ele>
        <time>2022-02-24T15:15:50Z</time>
      </trkpt>
      <trkpt lat="39.761610" lon="-3.162700">
        <ele>703.947</ele>
        <time>2022-02-24T15:16:30Z</time>
      </trkpt>
      <trkpt lat="39.761610" lon="-3.162710">
        <ele>704.011</ele>
        <time>2022-02-24T15:17:10Z</time>
      </trkpt>
      <trkpt lat="39.761610" lon="-3.162720">
        <ele>704.008</ele>
        <time>2022-02-24T15:17:50Z</time>
      </trkpt>
      <trkpt lat="39.761610" lon="-3.162730">
        <ele>704.083</ele>
        <time>2022-02-24T15:18:30Z</time>
      </trkpt>
      <trkpt lat="39.761610" lon="-3.162740">
        <ele>704.170</ele>
        <time>2022-02-24T15:19:10Z</time>
      </trkpt>
      <trkpt lat="39.761610" lon="-3.162750">
        <ele>704.154</ele>
        <time>2022-02-24T15:19:50Z</time>
      </trkpt>
      <trkpt lat="39.761600" lon="-3.162750">
        <ele>704.163</ele>
        <time>2022-02-24T15:20:30Z</time>
      </trkpt>
      <trkpt lat="39.761600" lon="-3.162760">
        <ele>704.243</ele>
        <time>2022-02-24T15:21:10Z</time>
      </trkpt>
      <trkpt lat="39.761600" lon="-3.162770">
        <ele>704.225</ele>
        <time>2022-02-24T15:21:50Z</time>
      </trkpt>
      <trkpt lat="39.761590" lon="-3.162770">
        <ele>704.224</ele>
        <time>2022-02-24T15:22:30Z</time>
      </trkpt>
      <trkpt lat="39.761590" lon="-3.162780">
        <ele>704.354</ele>
        <time>2022-02-24T15:23:10Z</time>
      </trkpt>
      <trkpt lat="39.761580" lon="-3.162790">
        <ele>704.354</ele>
        <time>2022-02-24T15:23:50Z</time>
      </trkpt>
      <trkpt lat="39.761640" lon="-3.162880">
        <ele>704.156</ele>
        <time>2022-02-24T15:24:30Z</time>
      </trkpt>
      <trkpt lat="39.761860" lon="-3.163210">
        <ele>703.411</ele>
        <time>2022-02-24T15:25:10Z</time>
      </trkpt>
      <trkpt lat="39.761858" lon="-3.163208">
        <ele>703.508</ele>
        <time>2022-02-24T15:25:50Z</time>
      </trkpt>
      <trkpt lat="39.762100" lon="-3.163320">
        <ele>703.024</ele>
        <time>2022-02-24T15:26:30Z</time>
      </trkpt>
      <trkpt lat="39.762320" lon="-3.163400">
        <ele>703.441</ele>
        <time>2022-02-24T15:27:10Z</time>
      </trkpt>
      <trkpt lat="39.762370" lon="-3.163430">
        <ele>703.585</ele>
        <time>2022-02-24T15:27:50Z</time>
      </trkpt>
      <trkpt lat="39.762620" lon="-3.163460">
        <ele>704.424</ele>
        <time>2022-02-24T15:28:30Z</time>
      </trkpt>
      <trkpt lat="39.762950" lon="-3.163530">
        <ele>704.654</ele>
        <time>2022-02-24T15:29:10Z</time>
      </trkpt>
      <trkpt lat="39.763050" lon="-3.163590">
        <ele>704.166</ele>
        <time>2022-02-24T15:29:50Z</time>
      </trkpt>
      <trkpt lat="39.763200" lon="-3.163680">
        <ele>703.295</ele>
        <time>2022-02-24T15:30:30Z</time>
      </trkpt>
      <trkpt lat="39.763270" lon="-3.163720">
        <ele>702.875</ele>
        <time>2022-02-24T15:31:10Z</time>
      </trkpt>
      <trkpt lat="39.763650" lon="-3.163940">
        <ele>700.341</ele>
        <time>2022-02-24T15:31:50Z</time>
      </trkpt>
      <trkpt lat="39.763740" lon="-3.164000">
        <ele>700.781</ele>
        <time>2022-02-24T15:32:30Z</time>
      </trkpt>
      <trkpt lat="39.763830" lon="-3.164050">
        <ele>700.909</ele>
        <time>2022-02-24T15:33:10Z</time>
      </trkpt>
      <trkpt lat="39.764100" lon="-3.164180">
        <ele>702.608</ele>
        <time>2022-02-24T15:33:50Z</time>
      </trkpt>
      <trkpt lat="39.764430" lon="-3.164380">
        <ele>704.933</ele>
        <time>2022-02-24T15:34:30Z</time>
      </trkpt>
      <trkpt lat="39.764580" lon="-3.164560">
        <ele>705.340</ele>
        <time>2022-02-24T15:35:10Z</time>
      </trkpt>
      <trkpt lat="39.764920" lon="-3.164630">
        <ele>705.144</ele>
        <time>2022-02-24T15:35:50Z</time>
      </trkpt>
      <trkpt lat="39.765330" lon="-3.164840">
        <ele>706.063</ele>
        <time>2022-02-24T15:36:30Z</time>
      </trkpt>
      <trkpt lat="39.765600" lon="-3.164970">
        <ele>707.193</ele>
        <time>2022-02-24T15:37:10Z</time>
      </trkpt>
      <trkpt lat="39.765601" lon="-3.164965">
        <ele>707.125</ele>
        <time>2022-02-24T15:37:50Z</time>
      </trkpt>
      <trkpt lat="39.765400" lon="-3.165350">
        <ele>703.964</ele>
        <time>2022-02-24T15:38:30Z</time>
      </trkpt>
      <trkpt lat="39.765380" lon="-3.165400">
        <ele>703.934</ele>
        <time>2022-02-24T15:39:10Z</time>
      </trkpt>
      <trkpt lat="39.765200" lon="-3.165740">
        <ele>704.466</ele>
        <time>2022-02-24T15:39:50Z</time>
      </trkpt>
      <trkpt lat="39.765170" lon="-3.165940">
        <ele>704.929</ele>
        <time>2022-02-24T15:40:30Z</time>
      </trkpt>
      <trkpt lat="39.765020" lon="-3.166170">
        <ele>705.921</ele>
        <time>2022-02-24T15:41:10Z</time>
      </trkpt>
      <trkpt lat="39.764940" lon="-3.166270">
        <ele>705.908</ele>
        <time>2022-02-24T15:41:50Z</time>
      </trkpt>
      <trkpt lat="39.764850" lon="-3.166370">
        <ele>706.035</ele>
        <time>2022-02-24T15:42:30Z</time>
      </trkpt>
      <trkpt lat="39.764650" lon="-3.166550">
        <ele>706.652</ele>
        <time>2022-02-24T15:43:10Z</time>
      </trkpt>
      <trkpt lat="39.764530" lon="-3.166680">
        <ele>707.056</ele>
        <time>2022-02-24T15:43:50Z</time>
      </trkpt>
      <trkpt lat="39.764460" lon="-3.166800">
        <ele>707.585</ele>
        <time>2022-02-24T15:44:30Z</time>
      </trkpt>
      <trkpt lat="39.764400" lon="-3.166890">
        <ele>707.885</ele>
        <time>2022-02-24T15:45:10Z</time>
      </trkpt>
      <trkpt lat="39.764340" lon="-3.167040">
        <ele>708.017</ele>
        <time>2022-02-24T15:45:50Z</time>
      </trkpt>
      <trkpt lat="39.764140" lon="-3.167380">
        <ele>708.046</ele>
        <time>2022-02-24T15:46:30Z</time>
      </trkpt>
      <trkpt lat="39.763900" lon="-3.167990">
        <ele>708.036</ele>
        <time>2022-02-24T15:47:10Z</time>
      </trkpt>
      <trkpt lat="39.763810" lon="-3.168130">
        <ele>708.078</ele>
        <time>2022-02-24T15:47:50Z</time>
      </trkpt>
      <trkpt lat="39.763620" lon="-3.168300">
        <ele>708.033</ele>
        <time>2022-02-24T15:48:30Z</time>
      </trkpt>
      <trkpt lat="39.763600" lon="-3.168340">
        <ele>708.026</ele>
        <time>2022-02-24T15:49:10Z</time>
      </trkpt>
      <trkpt lat="39.763340" lon="-3.168770">
        <ele>708.608</ele>
        <time>2022-02-24T15:49:50Z</time>
      </trkpt>
      <trkpt lat="39.763290" lon="-3.168830">
        <ele>708.636</ele>
        <time>2022-02-24T15:50:30Z</time>
      </trkpt>
      <trkpt lat="39.763290" lon="-3.168840">
        <ele>708.733</ele>
        <time>2022-02-24T15:51:10Z</time>
      </trkpt>
      <trkpt lat="39.763210" lon="-3.169140">
        <ele>709.077</ele>
        <time>2022-02-24T15:51:50Z</time>
      </trkpt>
      <trkpt lat="39.763190" lon="-3.169210">
        <ele>709.036</ele>
        <time>2022-02-24T15:52:30Z</time>
      </trkpt>
      <trkpt lat="39.763130" lon="-3.169340">
        <ele>709.096</ele>
        <time>2022-02-24T15:53:10Z</time>
      </trkpt>
      <trkpt lat="39.763080" lon="-3.169420">
        <ele>709.098</ele>
        <time>2022-02-24T15:53:50Z</time>
      </trkpt>
      <trkpt lat="39.763030" lon="-3.169510">
        <ele>708.727</ele>
        <time>2022-02-24T15:54:30Z</time>
      </trkpt>
      <trkpt lat="39.762970" lon="-3.169620">
        <ele>708.327</ele>
        <time>2022-02-24T15:55:10Z</time>
      </trkpt>
      <trkpt lat="39.762950" lon="-3.169640">
        <ele>708.216</ele>
        <time>2022-02-24T15:55:50Z</time>
      </trkpt>
      <trkpt lat="39.762940" lon="-3.169660">
        <ele>708.176</ele>
        <time>2022-02-24T15:56:30Z</time>
      </trkpt>
      <trkpt lat="39.762920" lon="-3.169680">
        <ele>708.113</ele>
        <time>2022-02-24T15:57:10Z</time>
      </trkpt>
      <trkpt lat="39.762900" lon="-3.169690">
        <ele>708.108</ele>
        <time>2022-02-24T15:57:50Z</time>
      </trkpt>
      <trkpt lat="39.762840" lon="-3.169760">
        <ele>708.070</ele>
        <time>2022-02-24T15:58:30Z</time>
      </trkpt>
      <trkpt lat="39.762841" lon="-3.169757">
        <ele>708.077</ele>
        <time>2022-02-24T15:59:10Z</time>
      </trkpt>
      <trkpt lat="39.762940" lon="-3.169940">
        <ele>708.021</ele>
        <time>2022-02-24T15:59:50Z</time>
      </trkpt>
      <trkpt lat="39.762970" lon="-3.170000">
        <ele>708.020</ele>
        <time>2022-02-24T16:00:30Z</time>
      </trkpt>
      <trkpt lat="39.762973" lon="-3.170003">
        <ele>708.050</ele>
        <time>2022-02-24T16:01:10Z</time>
      </trkpt>
      <trkpt lat="39.763080" lon="-3.170130">
        <ele>708.092</ele>
        <time>2022-02-24T16:01:50Z</time>
      </trkpt>
      <trkpt lat="39.763140" lon="-3.170190">
        <ele>708.181</ele>
        <time>2022-02-24T16:02:30Z</time>
      </trkpt>
      <trkpt lat="39.763340" lon="-3.170380">
        <ele>708.051</ele>
        <time>2022-02-24T16:03:10Z</time>
      </trkpt>
      <trkpt lat="39.764200" lon="-3.171180">
        <ele>709.898</ele>
        <time>2022-02-24T16:03:50Z</time>
      </trkpt>
      <trkpt lat="39.764890" lon="-3.171840">
        <ele>710.615</ele>
        <time>2022-02-24T16:04:30Z</time>
      </trkpt>
      <trkpt lat="39.765010" lon="-3.171940">
        <ele>711.126</ele>
        <time>2022-02-24T16:05:10Z</time>
      </trkpt>
      <trkpt lat="39.765150" lon="-3.172070">
        <ele>711.808</ele>
        <time>2022-02-24T16:05:50Z</time>
      </trkpt>
      <trkpt lat="39.765290" lon="-3.172200">
        <ele>712.118</ele>
        <time>2022-02-24T16:06:30Z</time>
      </trkpt>
      <trkpt lat="39.765400" lon="-3.172310">
        <ele>711.565</ele>
        <time>2022-02-24T16:07:10Z</time>
      </trkpt>
      <trkpt lat="39.765470" lon="-3.172370">
        <ele>711.319</ele>
        <time>2022-02-24T16:07:50Z</time>
      </trkpt>
      <trkpt lat="39.765570" lon="-3.172450">
        <ele>711.298</ele>
        <time>2022-02-24T16:08:30Z</time>
      </trkpt>
      <trkpt lat="39.765830" lon="-3.172620">
        <ele>710.688</ele>
        <time>2022-02-24T16:09:10Z</time>
      </trkpt>
      <trkpt lat="39.766110" lon="-3.172920">
        <ele>709.560</ele>
        <time>2022-02-24T16:09:50Z</time>
      </trkpt>
      <trkpt lat="39.766180" lon="-3.172960">
        <ele>709.519</ele>
        <time>2022-02-24T16:10:30Z</time>
      </trkpt>
      <trkpt lat="39.766280" lon="-3.173030">
        <ele>709.659</ele>
        <time>2022-02-24T16:11:10Z</time>
      </trkpt>
      <trkpt lat="39.766430" lon="-3.173250">
        <ele>709.395</ele>
        <time>2022-02-24T16:11:50Z</time>
      </trkpt>
      <trkpt lat="39.766490" lon="-3.173320">
        <ele>709.149</ele>
        <time>2022-02-24T16:12:30Z</time>
      </trkpt>
      <trkpt lat="39.766650" lon="-3.173520">
        <ele>708.323</ele>
        <time>2022-02-24T16:13:10Z</time>
      </trkpt>
      <trkpt lat="39.766990" lon="-3.173910">
        <ele>708.908</ele>
        <time>2022-02-24T16:13:50Z</time>
      </trkpt>
      <trkpt lat="39.767160" lon="-3.174120">
        <ele>708.838</ele>
        <time>2022-02-24T16:14:30Z</time>
      </trkpt>
      <trkpt lat="39.767240" lon="-3.174240">
        <ele>709.225</ele>
        <time>2022-02-24T16:15:10Z</time>
      </trkpt>
      <trkpt lat="39.767270" lon="-3.174290">
        <ele>709.349</ele>
        <time>2022-02-24T16:15:50Z</time>
      </trkpt>
      <trkpt lat="39.767290" lon="-3.174350">
        <ele>709.678</ele>
        <time>2022-02-24T16:16:30Z</time>
      </trkpt>
      <trkpt lat="39.767320" lon="-3.174410">
        <ele>709.848</ele>
        <time>2022-02-24T16:17:10Z</time>
      </trkpt>
      <trkpt lat="39.767350" lon="-3.174480">
        <ele>710.110</ele>
        <time>2022-02-24T16:17:50Z</time>
      </trkpt>
      <trkpt lat="39.767348" lon="-3.174482">
        <ele>710.179</ele>
        <time>2022-02-24T16:18:30Z</time>
      </trkpt>
      <trkpt lat="39.767800" lon="-3.175110">
        <ele>712.369</ele>
        <time>2022-02-24T16:19:10Z</time>
      </trkpt>
      <trkpt lat="39.767960" lon="-3.175360">
        <ele>712.417</ele>
        <time>2022-02-24T16:19:50Z</time>
      </trkpt>
      <trkpt lat="39.768190" lon="-3.175660">
        <ele>712.787</ele>
        <time>2022-02-24T16:20:30Z</time>
      </trkpt>
      <trkpt lat="39.768260" lon="-3.175750">
        <ele>712.815</ele>
        <time>2022-02-24T16:21:10Z</time>
      </trkpt>
      <trkpt lat="39.768650" lon="-3.176260">
        <ele>710.808</ele>
        <time>2022-02-24T16:21:50Z</time>
      </trkpt>
      <trkpt lat="39.768740" lon="-3.176380">
        <ele>710.180</ele>
        <time>2022-02-24T16:22:30Z</time>
      </trkpt>
      <trkpt lat="39.769480" lon="-3.177340">
        <ele>711.857</ele>
        <time>2022-02-24T16:23:10Z</time>
      </trkpt>
      <trkpt lat="39.769920" lon="-3.177910">
        <ele>712.211</ele>
        <time>2022-02-24T16:23:50Z</time>
      </trkpt>
      <trkpt lat="39.770270" lon="-3.178360">
        <ele>710.880</ele>
        <time>2022-02-24T16:24:30Z</time>
      </trkpt>
      <trkpt lat="39.770620" lon="-3.178810">
        <ele>711.420</ele>
        <time>2022-02-24T16:25:10Z</time>
      </trkpt>
      <trkpt lat="39.771070" lon="-3.179390">
        <ele>711.132</ele>
        <time>2022-02-24T16:25:50Z</time>
      </trkpt>
      <trkpt lat="39.771200" lon="-3.179560">
        <ele>711.111</ele>
        <time>2022-02-24T16:26:30Z</time>
      </trkpt>
      <trkpt lat="39.771960" lon="-3.180550">
        <ele>712.221</ele>
        <time>2022-02-24T16:27:10Z</time>
      </trkpt>
      <trkpt lat="39.772850" lon="-3.181700">
        <ele>713.075</ele>
        <time>2022-02-24T16:27:50Z</time>
      </trkpt>
      <trkpt lat="39.773240" lon="-3.182200">
        <ele>713.328</ele>
        <time>2022-02-24T16:28:30Z</time>
      </trkpt>
      <trkpt lat="39.773300" lon="-3.182290">
        <ele>713.120</ele>
        <time>2022-02-24T16:29:10Z</time>
      </trkpt>
      <trkpt lat="39.773600" lon="-3.182670">
        <ele>711.608</ele>
        <time>2022-02-24T16:29:50Z</time>
      </trkpt>
      <trkpt lat="39.773720" lon="-3.182830">
        <ele>711.696</ele>
        <time>2022-02-24T16:30:30Z</time>
      </trkpt>
      <trkpt lat="39.773870" lon="-3.183020">
        <ele>711.883</ele>
        <time>2022-02-24T16:31:10Z</time>
      </trkpt>
      <trkpt lat="39.773920" lon="-3.183080">
        <ele>712.337</ele>
        <time>2022-02-24T16:31:50Z</time>
      </trkpt>
      <trkpt lat="39.774020" lon="-3.183220">
        <ele>713.036</ele>
        <time>2022-02-24T16:32:30Z</time>
      </trkpt>
      <trkpt lat="39.774070" lon="-3.183280">
        <ele>713.136</ele>
        <time>2022-02-24T16:33:10Z</time>
      </trkpt>
      <trkpt lat="39.774190" lon="-3.183440">
        <ele>713.328</ele>
        <time>2022-02-24T16:33:50Z</time>
      </trkpt>
      <trkpt lat="39.774300" lon="-3.183580">
        <ele>713.077</ele>
        <time>2022-02-24T16:34:30Z</time>
      </trkpt>
      <trkpt lat="39.774350" lon="-3.183650">
        <ele>712.857</ele>
        <time>2022-02-24T16:35:10Z</time>
      </trkpt>
      <trkpt lat="39.774590" lon="-3.183960">
        <ele>712.718</ele>
        <time>2022-02-24T16:35:50Z</time>
      </trkpt>
      <trkpt lat="39.774650" lon="-3.184030">
        <ele>712.898</ele>
        <time>2022-02-24T16:36:30Z</time>
      </trkpt>
      <trkpt lat="39.774700" lon="-3.184110">
        <ele>712.917</ele>
        <time>2022-02-24T16:37:10Z</time>
      </trkpt>
      <trkpt lat="39.774800" lon="-3.184240">
        <ele>712.708</ele>
        <time>2022-02-24T16:37:50Z</time>
      </trkpt>
      <trkpt lat="39.775010" lon="-3.184500">
        <ele>712.070</ele>
        <time>2022-02-24T16:38:30Z</time>
      </trkpt>
      <trkpt lat="39.775120" lon="-3.184640">
        <ele>711.617</ele>
        <time>2022-02-24T16:39:10Z</time>
      </trkpt>
      <trkpt lat="39.775190" lon="-3.184740">
        <ele>711.321</ele>
        <time>2022-02-24T16:39:50Z</time>
      </trkpt>
      <trkpt lat="39.775220" lon="-3.184780">
        <ele>711.070</ele>
        <time>2022-02-24T16:40:30Z</time>
      </trkpt>
      <trkpt lat="39.775240" lon="-3.184810">
        <ele>710.830</ele>
        <time>2022-02-24T16:41:10Z</time>
      </trkpt>
      <trkpt lat="39.775460" lon="-3.185090">
        <ele>708.662</ele>
        <time>2022-02-24T16:41:50Z</time>
      </trkpt>
      <trkpt lat="39.775590" lon="-3.185260">
        <ele>707.451</ele>
        <time>2022-02-24T16:42:30Z</time>
      </trkpt>
      <trkpt lat="39.775620" lon="-3.185300">
        <ele>707.521</ele>
        <time>2022-02-24T16:43:10Z</time>
      </trkpt>
      <trkpt lat="39.775790" lon="-3.185510">
        <ele>708.867</ele>
        <time>2022-02-24T16:43:50Z</time>
      </trkpt>
      <trkpt lat="39.775830" lon="-3.185560">
        <ele>709.081</ele>
        <time>2022-02-24T16:44:30Z</time>
      </trkpt>
      <trkpt lat="39.775880" lon="-3.185630">
        <ele>709.719</ele>
        <time>2022-02-24T16:45:10Z</time>
      </trkpt>
      <trkpt lat="39.776980" lon="-3.187050">
        <ele>713.008</ele>
        <time>2022-02-24T16:45:50Z</time>
      </trkpt>
      <trkpt lat="39.777030" lon="-3.187120">
        <ele>713.095</ele>
        <time>2022-02-24T16:46:30Z</time>
      </trkpt>
      <trkpt lat="39.777920" lon="-3.188260">
        <ele>713.662</ele>
        <time>2022-02-24T16:47:10Z</time>
      </trkpt>
      <trkpt lat="39.778250" lon="-3.188700">
        <ele>710.496</ele>
        <time>2022-02-24T16:47:50Z</time>
      </trkpt>
      <trkpt lat="39.778300" lon="-3.188770">
        <ele>709.735</ele>
        <time>2022-02-24T16:48:30Z</time>
      </trkpt>
      <trkpt lat="39.778420" lon="-3.188920">
        <ele>709.695</ele>
        <time>2022-02-24T16:49:10Z</time>
      </trkpt>
      <trkpt lat="39.779120" lon="-3.189810">
        <ele>715.057</ele>
        <time>2022-02-24T16:49:50Z</time>
      </trkpt>
      <trkpt lat="39.779400" lon="-3.190180">
        <ele>716.576</ele>
        <time>2022-02-24T16:50:30Z</time>
      </trkpt>
      <trkpt lat="39.780150" lon="-3.191140">
        <ele>720.646</ele>
        <time>2022-02-24T16:51:10Z</time>
      </trkpt>
      <trkpt lat="39.780460" lon="-3.191550">
        <ele>722.582</ele>
        <time>2022-02-24T16:51:50Z</time>
      </trkpt>
      <trkpt lat="39.780520" lon="-3.191620">
        <ele>722.843</ele>
        <time>2022-02-24T16:52:30Z</time>
      </trkpt>
      <trkpt lat="39.780900" lon="-3.192120">
        <ele>722.117</ele>
        <time>2022-02-24T16:53:10Z</time>
      </trkpt>
      <trkpt lat="39.780990" lon="-3.192240">
        <ele>721.308</ele>
        <time>2022-02-24T16:53:50Z</time>
      </trkpt>
      <trkpt lat="39.781070" lon="-3.192350">
        <ele>720.697</ele>
        <time>2022-02-24T16:54:30Z</time>
      </trkpt>
      <trkpt lat="39.781190" lon="-3.192500">
        <ele>719.764</ele>
        <time>2022-02-24T16:55:10Z</time>
      </trkpt>
      <trkpt lat="39.781410" lon="-3.192780">
        <ele>719.158</ele>
        <time>2022-02-24T16:55:50Z</time>
      </trkpt>
      <trkpt lat="39.781530" lon="-3.192950">
        <ele>719.847</ele>
        <time>2022-02-24T16:56:30Z</time>
      </trkpt>
      <trkpt lat="39.781840" lon="-3.193350">
        <ele>719.937</ele>
        <time>2022-02-24T16:57:10Z</time>
      </trkpt>
      <trkpt lat="39.782050" lon="-3.193620">
        <ele>718.369</ele>
        <time>2022-02-24T16:57:50Z</time>
      </trkpt>
      <trkpt lat="39.782170" lon="-3.193770">
        <ele>717.648</ele>
        <time>2022-02-24T16:58:30Z</time>
      </trkpt>
      <trkpt lat="39.782260" lon="-3.193880">
        <ele>717.238</ele>
        <time>2022-02-24T16:59:10Z</time>
      </trkpt>
      <trkpt lat="39.782430" lon="-3.194100">
        <ele>716.456</ele>
        <time>2022-02-24T16:59:50Z</time>
      </trkpt>
      <trkpt lat="39.782480" lon="-3.194170">
        <ele>716.059</ele>
        <time>2022-02-24T17:00:30Z</time>
      </trkpt>
      <trkpt lat="39.782720" lon="-3.194480">
        <ele>714.114</ele>
        <time>2022-02-24T17:01:10Z</time>
      </trkpt>
      <trkpt lat="39.782810" lon="-3.194600">
        <ele>714.208</ele>
        <time>2022-02-24T17:01:50Z</time>
      </trkpt>
      <trkpt lat="39.783020" lon="-3.194860">
        <ele>715.914</ele>
        <time>2022-02-24T17:02:30Z</time>
      </trkpt>
      <trkpt lat="39.783190" lon="-3.195090">
        <ele>717.541</ele>
        <time>2022-02-24T17:03:10Z</time>
      </trkpt>
      <trkpt lat="39.783370" lon="-3.195320">
        <ele>718.955</ele>
        <time>2022-02-24T17:03:50Z</time>
      </trkpt>
      <trkpt lat="39.783450" lon="-3.195420">
        <ele>718.644</ele>
        <time>2022-02-24T17:04:30Z</time>
      </trkpt>
      <trkpt lat="39.783690" lon="-3.195730">
        <ele>717.374</ele>
        <time>2022-02-24T17:05:10Z</time>
      </trkpt>
      <trkpt lat="39.783840" lon="-3.195930">
        <ele>716.996</ele>
        <time>2022-02-24T17:05:50Z</time>
      </trkpt>
      <trkpt lat="39.783960" lon="-3.196080">
        <ele>717.075</ele>
        <time>2022-02-24T17:06:30Z</time>
      </trkpt>
      <trkpt lat="39.784360" lon="-3.196600">
        <ele>717.945</ele>
        <time>2022-02-24T17:07:10Z</time>
      </trkpt>
      <trkpt lat="39.784740" lon="-3.197100">
        <ele>717.093</ele>
        <time>2022-02-24T17:07:50Z</time>
      </trkpt>
      <trkpt lat="39.785020" lon="-3.197460">
        <ele>716.165</ele>
        <time>2022-02-24T17:08:30Z</time>
      </trkpt>
      <trkpt lat="39.785290" lon="-3.197820">
        <ele>713.921</ele>
        <time>2022-02-24T17:09:10Z</time>
      </trkpt>
      <trkpt lat="39.785450" lon="-3.198020">
        <ele>714.908</ele>
        <time>2022-02-24T17:09:50Z</time>
      </trkpt>
      <trkpt lat="39.785590" lon="-3.198190">
        <ele>716.278</ele>
        <time>2022-02-24T17:10:30Z</time>
      </trkpt>
      <trkpt lat="39.785770" lon="-3.198430">
        <ele>717.515</ele>
        <time>2022-02-24T17:11:10Z</time>
      </trkpt>
      <trkpt lat="39.786110" lon="-3.198880">
        <ele>720.099</ele>
        <time>2022-02-24T17:11:50Z</time>
      </trkpt>
      <trkpt lat="39.786410" lon="-3.199270">
        <ele>721.198</ele>
        <time>2022-02-24T17:12:30Z</time>
      </trkpt>
      <trkpt lat="39.786480" lon="-3.199350">
        <ele>721.378</ele>
        <time>2022-02-24T17:13:10Z</time>
      </trkpt>
      <trkpt lat="39.786920" lon="-3.199920">
        <ele>720.130</ele>
        <time>2022-02-24T17:13:50Z</time>
      </trkpt>
      <trkpt lat="39.787100" lon="-3.200150">
        <ele>719.949</ele>
        <time>2022-02-24T17:14:30Z</time>
      </trkpt>
      <trkpt lat="39.787430" lon="-3.200580">
        <ele>719.759</ele>
        <time>2022-02-24T17:15:10Z</time>
      </trkpt>
      <trkpt lat="39.787500" lon="-3.200670">
        <ele>719.621</ele>
        <time>2022-02-24T17:15:50Z</time>
      </trkpt>
      <trkpt lat="39.787750" lon="-3.201000">
        <ele>721.541</ele>
        <time>2022-02-24T17:16:30Z</time>
      </trkpt>
      <trkpt lat="39.788150" lon="-3.201520">
        <ele>721.805</ele>
        <time>2022-02-24T17:17:10Z</time>
      </trkpt>
      <trkpt lat="39.788230" lon="-3.201630">
        <ele>721.908</ele>
        <time>2022-02-24T17:17:50Z</time>
      </trkpt>
      <trkpt lat="39.788390" lon="-3.201830">
        <ele>722.681</ele>
        <time>2022-02-24T17:18:30Z</time>
      </trkpt>
      <trkpt lat="39.788510" lon="-3.201990">
        <ele>723.058</ele>
        <time>2022-02-24T17:19:10Z</time>
      </trkpt>
      <trkpt lat="39.788900" lon="-3.202490">
        <ele>722.092</ele>
        <time>2022-02-24T17:19:50Z</time>
      </trkpt>
      <trkpt lat="39.789040" lon="-3.202670">
        <ele>723.231</ele>
        <time>2022-02-24T17:20:30Z</time>
      </trkpt>
      <trkpt lat="39.789170" lon="-3.202840">
        <ele>724.211</ele>
        <time>2022-02-24T17:21:10Z</time>
      </trkpt>
      <trkpt lat="39.789280" lon="-3.202990">
        <ele>725.283</ele>
        <time>2022-02-24T17:21:50Z</time>
      </trkpt>
      <trkpt lat="39.789780" lon="-3.203630">
        <ele>726.222</ele>
        <time>2022-02-24T17:22:30Z</time>
      </trkpt>
      <trkpt lat="39.789790" lon="-3.203650">
        <ele>726.242</ele>
        <time>2022-02-24T17:23:10Z</time>
      </trkpt>
      <trkpt lat="39.789820" lon="-3.203680">
        <ele>726.467</ele>
        <time>2022-02-24T17:23:50Z</time>
      </trkpt>
      <trkpt lat="39.789980" lon="-3.203900">
        <ele>726.981</ele>
        <time>2022-02-24T17:24:30Z</time>
      </trkpt>
      <trkpt lat="39.790030" lon="-3.203960">
        <ele>727.019</ele>
        <time>2022-02-24T17:25:10Z</time>
      </trkpt>
      <trkpt lat="39.790420" lon="-3.204460">
        <ele>725.408</ele>
        <time>2022-02-24T17:25:50Z</time>
      </trkpt>
      <trkpt lat="39.790540" lon="-3.204620">
        <ele>723.855</ele>
        <time>2022-02-24T17:26:30Z</time>
      </trkpt>
      <trkpt lat="39.790570" lon="-3.204650">
        <ele>723.552</ele>
        <time>2022-02-24T17:27:10Z</time>
      </trkpt>
      <trkpt lat="39.790950" lon="-3.205150">
        <ele>721.356</ele>
        <time>2022-02-24T17:27:50Z</time>
      </trkpt>
      <trkpt lat="39.791110" lon="-3.205380">
        <ele>721.475</ele>
        <time>2022-02-24T17:28:30Z</time>
      </trkpt>
      <trkpt lat="39.791690" lon="-3.206110">
        <ele>720.035</ele>
        <time>2022-02-24T17:29:10Z</time>
      </trkpt>
      <trkpt lat="39.791780" lon="-3.206230">
        <ele>719.687</ele>
        <time>2022-02-24T17:29:50Z</time>
      </trkpt>
      <trkpt lat="39.792020" lon="-3.206530">
        <ele>719.116</ele>
        <time>2022-02-24T17:30:30Z</time>
      </trkpt>
      <trkpt lat="39.792030" lon="-3.206550">
        <ele>719.216</ele>
        <time>2022-02-24T17:31:10Z</time>
      </trkpt>
      <trkpt lat="39.792240" lon="-3.206820">
        <ele>720.123</ele>
        <time>2022-02-24T17:31:50Z</time>
      </trkpt>
      <trkpt lat="39.792590" lon="-3.207270">
        <ele>722.683</ele>
        <time>2022-02-24T17:32:30Z</time>
      </trkpt>
      <trkpt lat="39.793080" lon="-3.207920">
        <ele>722.511</ele>
        <time>2022-02-24T17:33:10Z</time>
      </trkpt>
      <trkpt lat="39.793350" lon="-3.208260">
        <ele>723.108</ele>
        <time>2022-02-24T17:33:50Z</time>
      </trkpt>
      <trkpt lat="39.793630" lon="-3.208620">
        <ele>725.061</ele>
        <time>2022-02-24T17:34:30Z</time>
      </trkpt>
      <trkpt lat="39.793730" lon="-3.208750">
        <ele>724.568</ele>
        <time>2022-02-24T17:35:10Z</time>
      </trkpt>
      <trkpt lat="39.794440" lon="-3.209670">
        <ele>726.082</ele>
        <time>2022-02-24T17:35:50Z</time>
      </trkpt>
      <trkpt lat="39.794460" lon="-3.209690">
        <ele>726.091</ele>
        <time>2022-02-24T17:36:30Z</time>
      </trkpt>
      <trkpt lat="39.794680" lon="-3.209980">
        <ele>725.291</ele>
        <time>2022-02-24T17:37:10Z</time>
      </trkpt>
      <trkpt lat="39.795060" lon="-3.210480">
        <ele>723.823</ele>
        <time>2022-02-24T17:37:50Z</time>
      </trkpt>
      <trkpt lat="39.795110" lon="-3.210540">
        <ele>723.622</ele>
        <time>2022-02-24T17:38:30Z</time>
      </trkpt>
      <trkpt lat="39.795190" lon="-3.210640">
        <ele>723.542</ele>
        <time>2022-02-24T17:39:10Z</time>
      </trkpt>
      <trkpt lat="39.795240" lon="-3.210700">
        <ele>723.643</ele>
        <time>2022-02-24T17:39:50Z</time>
      </trkpt>
      <trkpt lat="39.795870" lon="-3.211520">
        <ele>723.964</ele>
        <time>2022-02-24T17:40:30Z</time>
      </trkpt>
      <trkpt lat="39.795880" lon="-3.211520">
        <ele>723.910</ele>
        <time>2022-02-24T17:41:10Z</time>
      </trkpt>
      <trkpt lat="39.796250" lon="-3.212010">
        <ele>725.208</ele>
        <time>2022-02-24T17:41:50Z</time>
      </trkpt>
      <trkpt lat="39.796260" lon="-3.212020">
        <ele>725.343</ele>
        <time>2022-02-24T17:42:30Z</time>
      </trkpt>
      <trkpt lat="39.796410" lon="-3.212210">
        <ele>726.050</ele>
        <time>2022-02-24T17:43:10Z</time>
      </trkpt>
      <trkpt lat="39.796730" lon="-3.212640">
        <ele>727.194</ele>
        <time>2022-02-24T17:43:50Z</time>
      </trkpt>
      <trkpt lat="39.796840" lon="-3.212770">
        <ele>727.053</ele>
        <time>2022-02-24T17:44:30Z</time>
      </trkpt>
      <trkpt lat="39.797190" lon="-3.213220">
        <ele>726.093</ele>
        <time>2022-02-24T17:45:10Z</time>
      </trkpt>
      <trkpt lat="39.797510" lon="-3.213640">
        <ele>728.025</ele>
        <time>2022-02-24T17:45:50Z</time>
      </trkpt>
      <trkpt lat="39.797590" lon="-3.213750">
        <ele>728.234</ele>
        <time>2022-02-24T17:46:30Z</time>
      </trkpt>
      <trkpt lat="39.797960" lon="-3.214230">
        <ele>727.734</ele>
        <time>2022-02-24T17:47:10Z</time>
      </trkpt>
      <trkpt lat="39.798160" lon="-3.214490">
        <ele>728.272</ele>
        <time>2022-02-24T17:47:50Z</time>
      </trkpt>
      <trkpt lat="39.798260" lon="-3.214610">
        <ele>728.613</ele>
        <time>2022-02-24T17:48:30Z</time>
      </trkpt>
      <trkpt lat="39.799260" lon="-3.215930">
        <ele>729.014</ele>
        <time>2022-02-24T17:49:10Z</time>
      </trkpt>
      <trkpt lat="39.799660" lon="-3.216450">
        <ele>729.008</ele>
        <time>2022-02-24T17:49:50Z</time>
      </trkpt>
      <trkpt lat="39.799770" lon="-3.216600">
        <ele>729.276</ele>
        <time>2022-02-24T17:50:30Z</time>
      </trkpt>
      <trkpt lat="39.800060" lon="-3.216980">
        <ele>731.963</ele>
        <time>2022-02-24T17:51:10Z</time>
      </trkpt>
      <trkpt lat="39.800280" lon="-3.217260">
        <ele>731.057</ele>
        <time>2022-02-24T17:51:50Z</time>
      </trkpt>
      <trkpt lat="39.800530" lon="-3.217590">
        <ele>731.066</ele>
        <time>2022-02-24T17:52:30Z</time>
      </trkpt>
      <trkpt lat="39.800600" lon="-3.217670">
        <ele>731.376</ele>
        <time>2022-02-24T17:53:10Z</time>
      </trkpt>
      <trkpt lat="39.801010" lon="-3.218220">
        <ele>734.948</ele>
        <time>2022-02-24T17:53:50Z</time>
      </trkpt>
      <trkpt lat="39.801040" lon="-3.218250">
        <ele>734.967</ele>
        <time>2022-02-24T17:54:30Z</time>
      </trkpt>
      <trkpt lat="39.801730" lon="-3.219150">
        <ele>737.037</ele>
        <time>2022-02-24T17:55:10Z</time>
      </trkpt>
      <trkpt lat="39.801930" lon="-3.219410">
        <ele>738.851</ele>
        <time>2022-02-24T17:55:50Z</time>
      </trkpt>
      <trkpt lat="39.802400" lon="-3.220010">
        <ele>740.001</ele>
        <time>2022-02-24T17:56:30Z</time>
      </trkpt>
      <trkpt lat="39.802680" lon="-3.220390">
        <ele>741.311</ele>
        <time>2022-02-24T17:57:10Z</time>
      </trkpt>
      <trkpt lat="39.802800" lon="-3.220530">
        <ele>742.008</ele>
        <time>2022-02-24T17:57:50Z</time>
      </trkpt>
      <trkpt lat="39.802920" lon="-3.220690">
        <ele>742.894</ele>
        <time>2022-02-24T17:58:30Z</time>
      </trkpt>
      <trkpt lat="39.803070" lon="-3.220890">
        <ele>744.151</ele>
        <time>2022-02-24T17:59:10Z</time>
      </trkpt>
      <trkpt lat="39.803180" lon="-3.221030">
        <ele>744.985</ele>
        <time>2022-02-24T17:59:50Z</time>
      </trkpt>
      <trkpt lat="39.803750" lon="-3.221760">
        <ele>741.814</ele>
        <time>2022-02-24T18:00:30Z</time>
      </trkpt>
      <trkpt lat="39.804450" lon="-3.222660">
        <ele>743.084</ele>
        <time>2022-02-24T18:01:10Z</time>
      </trkpt>
      <trkpt lat="39.804810" lon="-3.223140">
        <ele>744.826</ele>
        <time>2022-02-24T18:01:50Z</time>
      </trkpt>
      <trkpt lat="39.805150" lon="-3.223590">
        <ele>744.575</ele>
        <time>2022-02-24T18:02:30Z</time>
      </trkpt>
      <trkpt lat="39.805220" lon="-3.223670">
        <ele>743.885</ele>
        <time>2022-02-24T18:03:10Z</time>
      </trkpt>
      <trkpt lat="39.805600" lon="-3.224170">
        <ele>742.032</ele>
        <time>2022-02-24T18:03:50Z</time>
      </trkpt>
      <trkpt lat="39.805840" lon="-3.224470">
        <ele>742.092</ele>
        <time>2022-02-24T18:04:30Z</time>
      </trkpt>
      <trkpt lat="39.805860" lon="-3.224500">
        <ele>741.911</ele>
        <time>2022-02-24T18:05:10Z</time>
      </trkpt>
      <trkpt lat="39.806100" lon="-3.224810">
        <ele>740.108</ele>
        <time>2022-02-24T18:05:50Z</time>
      </trkpt>
      <trkpt lat="39.806410" lon="-3.225220">
        <ele>737.142</ele>
        <time>2022-02-24T18:06:30Z</time>
      </trkpt>
      <trkpt lat="39.806620" lon="-3.225490">
        <ele>735.379</ele>
        <time>2022-02-24T18:07:10Z</time>
      </trkpt>
      <trkpt lat="39.806640" lon="-3.225520">
        <ele>735.123</ele>
        <time>2022-02-24T18:07:50Z</time>
      </trkpt>
      <trkpt lat="39.806920" lon="-3.225870">
        <ele>733.622</ele>
        <time>2022-02-24T18:08:30Z</time>
      </trkpt>
      <trkpt lat="39.807010" lon="-3.225980">
        <ele>732.932</ele>
        <time>2022-02-24T18:09:10Z</time>
      </trkpt>
      <trkpt lat="39.807130" lon="-3.226150">
        <ele>731.884</ele>
        <time>2022-02-24T18:09:50Z</time>
      </trkpt>
      <trkpt lat="39.807260" lon="-3.226310">
        <ele>730.473</ele>
        <time>2022-02-24T18:10:30Z</time>
      </trkpt>
      <trkpt lat="39.807400" lon="-3.226490">
        <ele>729.423</ele>
        <time>2022-02-24T18:11:10Z</time>
      </trkpt>
      <trkpt lat="39.807770" lon="-3.226970">
        <ele>729.193</ele>
        <time>2022-02-24T18:11:50Z</time>
      </trkpt>
      <trkpt lat="39.807810" lon="-3.227030">
        <ele>729.365</ele>
        <time>2022-02-24T18:12:30Z</time>
      </trkpt>
      <trkpt lat="39.808020" lon="-3.227300">
        <ele>730.221</ele>
        <time>2022-02-24T18:13:10Z</time>
      </trkpt>
      <trkpt lat="39.808120" lon="-3.227430">
        <ele>731.008</ele>
        <time>2022-02-24T18:13:50Z</time>
      </trkpt>
      <trkpt lat="39.808500" lon="-3.227930">
        <ele>732.058</ele>
        <time>2022-02-24T18:14:30Z</time>
      </trkpt>
      <trkpt lat="39.808530" lon="-3.227970">
        <ele>732.075</ele>
        <time>2022-02-24T18:15:10Z</time>
      </trkpt>
      <trkpt lat="39.808790" lon="-3.228300">
        <ele>733.879</ele>
        <time>2022-02-24T18:15:50Z</time>
      </trkpt>
      <trkpt lat="39.809220" lon="-3.228850">
        <ele>736.248</ele>
        <time>2022-02-24T18:16:30Z</time>
      </trkpt>
      <trkpt lat="39.809810" lon="-3.229620">
        <ele>733.148</ele>
        <time>2022-02-24T18:17:10Z</time>
      </trkpt>
      <trkpt lat="39.809860" lon="-3.229680">
        <ele>733.170</ele>
        <time>2022-02-24T18:17:50Z</time>
      </trkpt>
      <trkpt lat="39.809940" lon="-3.229780">
        <ele>733.029</ele>
        <time>2022-02-24T18:18:30Z</time>
      </trkpt>
      <trkpt lat="39.810320" lon="-3.230280">
        <ele>735.239</ele>
        <time>2022-02-24T18:19:10Z</time>
      </trkpt>
      <trkpt lat="39.810450" lon="-3.230440">
        <ele>735.353</ele>
        <time>2022-02-24T18:19:50Z</time>
      </trkpt>
      <trkpt lat="39.810520" lon="-3.230540">
        <ele>735.004</ele>
        <time>2022-02-24T18:20:30Z</time>
      </trkpt>
      <trkpt lat="39.810850" lon="-3.230970">
        <ele>733.614</ele>
        <time>2022-02-24T18:21:10Z</time>
      </trkpt>
      <trkpt lat="39.810950" lon="-3.231110">
        <ele>733.408</ele>
        <time>2022-02-24T18:21:50Z</time>
      </trkpt>
      <trkpt lat="39.811190" lon="-3.231410">
        <ele>733.064</ele>
        <time>2022-02-24T18:22:30Z</time>
      </trkpt>
      <trkpt lat="39.811660" lon="-3.232030">
        <ele>736.371</ele>
        <time>2022-02-24T18:23:10Z</time>
      </trkpt>
      <trkpt lat="39.811920" lon="-3.232360">
        <ele>738.485</ele>
        <time>2022-02-24T18:23:50Z</time>
      </trkpt>
      <trkpt lat="39.812610" lon="-3.233260">
        <ele>736.464</ele>
        <time>2022-02-24T18:24:30Z</time>
      </trkpt>
      <trkpt lat="39.812660" lon="-3.233320">
        <ele>736.114</ele>
        <time>2022-02-24T18:25:10Z</time>
      </trkpt>
      <trkpt lat="39.812700" lon="-3.233380">
        <ele>735.826</ele>
        <time>2022-02-24T18:25:50Z</time>
      </trkpt>
      <trkpt lat="39.812770" lon="-3.233480">
        <ele>735.595</ele>
        <time>2022-02-24T18:26:30Z</time>
      </trkpt>
      <trkpt lat="39.812900" lon="-3.233650">
        <ele>735.565</ele>
        <time>2022-02-24T18:27:10Z</time>
      </trkpt>
      <trkpt lat="39.813160" lon="-3.233980">
        <ele>736.815</ele>
        <time>2022-02-24T18:27:50Z</time>
      </trkpt>
      <trkpt lat="39.813230" lon="-3.234070">
        <ele>736.665</ele>
        <time>2022-02-24T18:28:30Z</time>
      </trkpt>
      <trkpt lat="39.813340" lon="-3.234210">
        <ele>736.011</ele>
        <time>2022-02-24T18:29:10Z</time>
      </trkpt>
      <trkpt lat="39.813370" lon="-3.234250">
        <ele>736.008</ele>
        <time>2022-02-24T18:29:50Z</time>
      </trkpt>
      <trkpt lat="39.813530" lon="-3.234460">
        <ele>736.770</ele>
        <time>2022-02-24T18:30:30Z</time>
      </trkpt>
      <trkpt lat="39.813880" lon="-3.234910">
        <ele>737.017</ele>
        <time>2022-02-24T18:31:10Z</time>
      </trkpt>
      <trkpt lat="39.813990" lon="-3.235060">
        <ele>737.941</ele>
        <time>2022-02-24T18:31:50Z</time>
      </trkpt>
      <trkpt lat="39.814070" lon="-3.235160">
        <ele>738.590</ele>
        <time>2022-02-24T18:32:30Z</time>
      </trkpt>
      <trkpt lat="39.814720" lon="-3.236000">
        <ele>743.060</ele>
        <time>2022-02-24T18:33:10Z</time>
      </trkpt>
      <trkpt lat="39.814770" lon="-3.236070">
        <ele>742.922</ele>
        <time>2022-02-24T18:33:50Z</time>
      </trkpt>
      <trkpt lat="39.815250" lon="-3.236690">
        <ele>742.021</ele>
        <time>2022-02-24T18:34:30Z</time>
      </trkpt>
      <trkpt lat="39.815410" lon="-3.236900">
        <ele>742.621</ele>
        <time>2022-02-24T18:35:10Z</time>
      </trkpt>
      <trkpt lat="39.815500" lon="-3.237010">
        <ele>742.521</ele>
        <time>2022-02-24T18:35:50Z</time>
      </trkpt>
      <trkpt lat="39.815920" lon="-3.237550">
        <ele>744.541</ele>
        <time>2022-02-24T18:36:30Z</time>
      </trkpt>
      <trkpt lat="39.816050" lon="-3.237720">
        <ele>745.605</ele>
        <time>2022-02-24T18:37:10Z</time>
      </trkpt>
      <trkpt lat="39.816250" lon="-3.237980">
        <ele>745.908</ele>
        <time>2022-02-24T18:37:50Z</time>
      </trkpt>
      <trkpt lat="39.816550" lon="-3.238370">
        <ele>744.221</ele>
        <time>2022-02-24T18:38:30Z</time>
      </trkpt>
      <trkpt lat="39.816730" lon="-3.238610">
        <ele>744.598</ele>
        <time>2022-02-24T18:39:10Z</time>
      </trkpt>
      <trkpt lat="39.817200" lon="-3.239210">
        <ele>743.222</ele>
        <time>2022-02-24T18:39:50Z</time>
      </trkpt>
      <trkpt lat="39.817510" lon="-3.239610">
        <ele>741.021</ele>
        <time>2022-02-24T18:40:30Z</time>
      </trkpt>
      <trkpt lat="39.817940" lon="-3.240170">
        <ele>741.071</ele>
        <time>2022-02-24T18:41:10Z</time>
      </trkpt>
      <trkpt lat="39.817970" lon="-3.240210">
        <ele>741.033</ele>
        <time>2022-02-24T18:41:50Z</time>
      </trkpt>
      <trkpt lat="39.818450" lon="-3.240840">
        <ele>738.842</ele>
        <time>2022-02-24T18:42:30Z</time>
      </trkpt>
      <trkpt lat="39.818720" lon="-3.241190">
        <ele>739.462</ele>
        <time>2022-02-24T18:43:10Z</time>
      </trkpt>
      <trkpt lat="39.818960" lon="-3.241500">
        <ele>738.057</ele>
        <time>2022-02-24T18:43:50Z</time>
      </trkpt>
      <trkpt lat="39.819000" lon="-3.241560">
        <ele>738.000</ele>
        <time>2022-02-24T18:44:30Z</time>
      </trkpt>
      <trkpt lat="39.819110" lon="-3.241690">
        <ele>738.620</ele>
        <time>2022-02-24T18:45:10Z</time>
      </trkpt>
      <trkpt lat="39.819180" lon="-3.241790">
        <ele>739.108</ele>
        <time>2022-02-24T18:45:50Z</time>
      </trkpt>
      <trkpt lat="39.819420" lon="-3.242100">
        <ele>740.834</ele>
        <time>2022-02-24T18:46:30Z</time>
      </trkpt>
      <trkpt lat="39.819720" lon="-3.242490">
        <ele>741.151</ele>
        <time>2022-02-24T18:47:10Z</time>
      </trkpt>
      <trkpt lat="39.819740" lon="-3.242520">
        <ele>740.915</ele>
        <time>2022-02-24T18:47:50Z</time>
      </trkpt>
      <trkpt lat="39.820260" lon="-3.243180">
        <ele>741.444</ele>
        <time>2022-02-24T18:48:30Z</time>
      </trkpt>
      <trkpt lat="39.820620" lon="-3.243650">
        <ele>742.724</ele>
        <time>2022-02-24T18:49:10Z</time>
      </trkpt>
      <trkpt lat="39.820830" lon="-3.243920">
        <ele>742.036</ele>
        <time>2022-02-24T18:49:50Z</time>
      </trkpt>
      <trkpt lat="39.821000" lon="-3.244150">
        <ele>741.475</ele>
        <time>2022-02-24T18:50:30Z</time>
      </trkpt>
      <trkpt lat="39.821450" lon="-3.244730">
        <ele>741.415</ele>
        <time>2022-02-24T18:51:10Z</time>
      </trkpt>
      <trkpt lat="39.821660" lon="-3.245000">
        <ele>743.075</ele>
        <time>2022-02-24T18:51:50Z</time>
      </trkpt>
      <trkpt lat="39.821940" lon="-3.245360">
        <ele>745.028</ele>
        <time>2022-02-24T18:52:30Z</time>
      </trkpt>
      <trkpt lat="39.822440" lon="-3.246020">
        <ele>747.820</ele>
        <time>2022-02-24T18:53:10Z</time>
      </trkpt>
      <trkpt lat="39.822450" lon="-3.246030">
        <ele>747.808</ele>
        <time>2022-02-24T18:53:50Z</time>
      </trkpt>
      <trkpt lat="39.822570" lon="-3.246190">
        <ele>748.596</ele>
        <time>2022-02-24T18:54:30Z</time>
      </trkpt>
      <trkpt lat="39.822830" lon="-3.246520">
        <ele>749.513</ele>
        <time>2022-02-24T18:55:10Z</time>
      </trkpt>
      <trkpt lat="39.822890" lon="-3.246600">
        <ele>749.567</ele>
        <time>2022-02-24T18:55:50Z</time>
      </trkpt>
      <trkpt lat="39.823060" lon="-3.246820">
        <ele>749.586</ele>
        <time>2022-02-24T18:56:30Z</time>
      </trkpt>
      <trkpt lat="39.823080" lon="-3.246850">
        <ele>749.676</ele>
        <time>2022-02-24T18:57:10Z</time>
      </trkpt>
      <trkpt lat="39.823270" lon="-3.247100">
        <ele>749.898</ele>
        <time>2022-02-24T18:57:50Z</time>
      </trkpt>
      <trkpt lat="39.823550" lon="-3.247460">
        <ele>750.197</ele>
        <time>2022-02-24T18:58:30Z</time>
      </trkpt>
      <trkpt lat="39.823720" lon="-3.247680">
        <ele>748.887</ele>
        <time>2022-02-24T18:59:10Z</time>
      </trkpt>
      <trkpt lat="39.824100" lon="-3.248160">
        <ele>746.735</ele>
        <time>2022-02-24T18:59:50Z</time>
      </trkpt>
      <trkpt lat="39.824370" lon="-3.248490">
        <ele>746.386</ele>
        <time>2022-02-24T19:00:30Z</time>
      </trkpt>
      <trkpt lat="39.824380" lon="-3.248500">
        <ele>746.314</ele>
        <time>2022-02-24T19:01:10Z</time>
      </trkpt>
      <trkpt lat="39.824580" lon="-3.248730">
        <ele>746.008</ele>
        <time>2022-02-24T19:01:50Z</time>
      </trkpt>
      <trkpt lat="39.824750" lon="-3.248900">
        <ele>746.072</ele>
        <time>2022-02-24T19:02:30Z</time>
      </trkpt>
      <trkpt lat="39.824880" lon="-3.249030">
        <ele>746.079</ele>
        <time>2022-02-24T19:03:10Z</time>
      </trkpt>
      <trkpt lat="39.825080" lon="-3.249200">
        <ele>745.343</ele>
        <time>2022-02-24T19:03:50Z</time>
      </trkpt>
      <trkpt lat="39.825120" lon="-3.249240">
        <ele>745.052</ele>
        <time>2022-02-24T19:04:30Z</time>
      </trkpt>
      <trkpt lat="39.825680" lon="-3.249710">
        <ele>742.632</ele>
        <time>2022-02-24T19:05:10Z</time>
      </trkpt>
      <trkpt lat="39.825950" lon="-3.249930">
        <ele>741.254</ele>
        <time>2022-02-24T19:05:50Z</time>
      </trkpt>
      <trkpt lat="39.826550" lon="-3.250440">
        <ele>738.443</ele>
        <time>2022-02-24T19:06:30Z</time>
      </trkpt>
      <trkpt lat="39.826900" lon="-3.250720">
        <ele>738.043</ele>
        <time>2022-02-24T19:07:10Z</time>
      </trkpt>
      <trkpt lat="39.826990" lon="-3.250800">
        <ele>738.083</ele>
        <time>2022-02-24T19:07:50Z</time>
      </trkpt>
      <trkpt lat="39.827030" lon="-3.250830">
        <ele>738.025</ele>
        <time>2022-02-24T19:08:30Z</time>
      </trkpt>
      <trkpt lat="39.827050" lon="-3.250850">
        <ele>738.017</ele>
        <time>2022-02-24T19:09:10Z</time>
      </trkpt>
      <trkpt lat="39.827140" lon="-3.250920">
        <ele>738.108</ele>
        <time>2022-02-24T19:09:50Z</time>
      </trkpt>
      <trkpt lat="39.827430" lon="-3.251160">
        <ele>736.567</ele>
        <time>2022-02-24T19:10:30Z</time>
      </trkpt>
      <trkpt lat="39.827690" lon="-3.251380">
        <ele>735.394</ele>
        <time>2022-02-24T19:11:10Z</time>
      </trkpt>
      <trkpt lat="39.828090" lon="-3.251710">
        <ele>732.628</ele>
        <time>2022-02-24T19:11:50Z</time>
      </trkpt>
      <trkpt lat="39.828350" lon="-3.251920">
        <ele>729.297</ele>
        <time>2022-02-24T19:12:30Z</time>
      </trkpt>
      <trkpt lat="39.828460" lon="-3.252010">
        <ele>729.757</ele>
        <time>2022-02-24T19:13:10Z</time>
      </trkpt>
      <trkpt lat="39.828950" lon="-3.252410">
        <ele>731.349</ele>
        <time>2022-02-24T19:13:50Z</time>
      </trkpt>
      <trkpt lat="39.829330" lon="-3.252720">
        <ele>733.518</ele>
        <time>2022-02-24T19:14:30Z</time>
      </trkpt>
      <trkpt lat="39.829700" lon="-3.253030">
        <ele>731.258</ele>
        <time>2022-02-24T19:15:10Z</time>
      </trkpt>
      <trkpt lat="39.830070" lon="-3.253330">
        <ele>729.276</ele>
        <time>2022-02-24T19:15:50Z</time>
      </trkpt>
      <trkpt lat="39.830310" lon="-3.253530">
        <ele>727.590</ele>
        <time>2022-02-24T19:16:30Z</time>
      </trkpt>
      <trkpt lat="39.830750" lon="-3.253890">
        <ele>726.319</ele>
        <time>2022-02-24T19:17:10Z</time>
      </trkpt>
      <trkpt lat="39.830790" lon="-3.253920">
        <ele>726.208</ele>
        <time>2022-02-24T19:17:50Z</time>
      </trkpt>
      <trkpt lat="39.831040" lon="-3.254120">
        <ele>725.436</ele>
        <time>2022-02-24T19:18:30Z</time>
      </trkpt>
      <trkpt lat="39.831240" lon="-3.254280">
        <ele>725.243</ele>
        <time>2022-02-24T19:19:10Z</time>
      </trkpt>
      <trkpt lat="39.831400" lon="-3.254410">
        <ele>725.827</ele>
        <time>2022-02-24T19:19:50Z</time>
      </trkpt>
      <trkpt lat="39.831900" lon="-3.254820">
        <ele>723.796</ele>
        <time>2022-02-24T19:20:30Z</time>
      </trkpt>
      <trkpt lat="39.832180" lon="-3.255050">
        <ele>722.786</ele>
        <time>2022-02-24T19:21:10Z</time>
      </trkpt>
      <trkpt lat="39.832460" lon="-3.255280">
        <ele>723.218</ele>
        <time>2022-02-24T19:21:50Z</time>
      </trkpt>
      <trkpt lat="39.832470" lon="-3.255280">
        <ele>723.177</ele>
        <time>2022-02-24T19:22:30Z</time>
      </trkpt>
      <trkpt lat="39.832830" lon="-3.255570">
        <ele>723.637</ele>
        <time>2022-02-24T19:23:10Z</time>
      </trkpt>
      <trkpt lat="39.833060" lon="-3.255770">
        <ele>722.014</ele>
        <time>2022-02-24T19:23:50Z</time>
      </trkpt>
      <trkpt lat="39.833250" lon="-3.255920">
        <ele>720.554</ele>
        <time>2022-02-24T19:24:30Z</time>
      </trkpt>
      <trkpt lat="39.833490" lon="-3.256110">
        <ele>719.409</ele>
        <time>2022-02-24T19:25:10Z</time>
      </trkpt>
      <trkpt lat="39.833530" lon="-3.256150">
        <ele>719.308</ele>
        <time>2022-02-24T19:25:50Z</time>
      </trkpt>
      <trkpt lat="39.833680" lon="-3.256270">
        <ele>718.540</ele>
        <time>2022-02-24T19:26:30Z</time>
      </trkpt>
      <trkpt lat="39.833990" lon="-3.256530">
        <ele>716.687</ele>
        <time>2022-02-24T19:27:10Z</time>
      </trkpt>
      <trkpt lat="39.834150" lon="-3.256650">
        <ele>716.141</ele>
        <time>2022-02-24T19:27:50Z</time>
      </trkpt>
      <trkpt lat="39.834450" lon="-3.256910">
        <ele>715.140</ele>
        <time>2022-02-24T19:28:30Z</time>
      </trkpt>
      <trkpt lat="39.834830" lon="-3.257210">
        <ele>714.690</ele>
        <time>2022-02-24T19:29:10Z</time>
      </trkpt>
      <trkpt lat="39.834910" lon="-3.257280">
        <ele>714.272</ele>
        <time>2022-02-24T19:29:50Z</time>
      </trkpt>
      <trkpt lat="39.835520" lon="-3.257780">
        <ele>712.351</ele>
        <time>2022-02-24T19:30:30Z</time>
      </trkpt>
      <trkpt lat="39.835690" lon="-3.257920">
        <ele>711.521</ele>
        <time>2022-02-24T19:31:10Z</time>
      </trkpt>
      <trkpt lat="39.835870" lon="-3.258070">
        <ele>711.159</ele>
        <time>2022-02-24T19:31:50Z</time>
      </trkpt>
      <trkpt lat="39.836050" lon="-3.258210">
        <ele>711.803</ele>
        <time>2022-02-24T19:32:30Z</time>
      </trkpt>
      <trkpt lat="39.836230" lon="-3.258360">
        <ele>712.523</ele>
        <time>2022-02-24T19:33:10Z</time>
      </trkpt>
      <trkpt lat="39.836690" lon="-3.258740">
        <ele>715.608</ele>
        <time>2022-02-24T19:33:50Z</time>
      </trkpt>
      <trkpt lat="39.836780" lon="-3.258800">
        <ele>716.244</ele>
        <time>2022-02-24T19:34:30Z</time>
      </trkpt>
      <trkpt lat="39.837000" lon="-3.258980">
        <ele>717.511</ele>
        <time>2022-02-24T19:35:10Z</time>
      </trkpt>
      <trkpt lat="39.837150" lon="-3.259100">
        <ele>718.515</ele>
        <time>2022-02-24T19:35:50Z</time>
      </trkpt>
      <trkpt lat="39.837650" lon="-3.259570">
        <ele>723.274</ele>
        <time>2022-02-24T19:36:30Z</time>
      </trkpt>
      <trkpt lat="39.837880" lon="-3.259800">
        <ele>724.964</ele>
        <time>2022-02-24T19:37:10Z</time>
      </trkpt>
      <trkpt lat="39.838180" lon="-3.260100">
        <ele>726.986</ele>
        <time>2022-02-24T19:37:50Z</time>
      </trkpt>
      <trkpt lat="39.838300" lon="-3.260230">
        <ele>727.855</ele>
        <time>2022-02-24T19:38:30Z</time>
      </trkpt>
      <trkpt lat="39.838570" lon="-3.260510">
        <ele>729.875</ele>
        <time>2022-02-24T19:39:10Z</time>
      </trkpt>
      <trkpt lat="39.839240" lon="-3.261190">
        <ele>728.936</ele>
        <time>2022-02-24T19:39:50Z</time>
      </trkpt>
      <trkpt lat="39.839480" lon="-3.261440">
        <ele>728.317</ele>
        <time>2022-02-24T19:40:30Z</time>
      </trkpt>
      <trkpt lat="39.839700" lon="-3.261650">
        <ele>729.018</ele>
        <time>2022-02-24T19:41:10Z</time>
      </trkpt>
      <trkpt lat="39.839720" lon="-3.261670">
        <ele>729.008</ele>
        <time>2022-02-24T19:41:50Z</time>
      </trkpt>
      <trkpt lat="39.840250" lon="-3.262200">
        <ele>730.822</ele>
        <time>2022-02-24T19:42:30Z</time>
      </trkpt>
      <trkpt lat="39.840680" lon="-3.262620">
        <ele>732.889</ele>
        <time>2022-02-24T19:43:10Z</time>
      </trkpt>
      <trkpt lat="39.840720" lon="-3.262670">
        <ele>732.693</ele>
        <time>2022-02-24T19:43:50Z</time>
      </trkpt>
      <trkpt lat="39.841130" lon="-3.263070">
        <ele>733.022</ele>
        <time>2022-02-24T19:44:30Z</time>
      </trkpt>
      <trkpt lat="39.841190" lon="-3.263130">
        <ele>733.262</ele>
        <time>2022-02-24T19:45:10Z</time>
      </trkpt>
      <trkpt lat="39.842130" lon="-3.264040">
        <ele>737.184</ele>
        <time>2022-02-24T19:45:50Z</time>
      </trkpt>
      <trkpt lat="39.842360" lon="-3.264300">
        <ele>737.523</ele>
        <time>2022-02-24T19:46:30Z</time>
      </trkpt>
      <trkpt lat="39.842800" lon="-3.264700">
        <ele>737.343</ele>
        <time>2022-02-24T19:47:10Z</time>
      </trkpt>
      <trkpt lat="39.843200" lon="-3.265080">
        <ele>739.542</ele>
        <time>2022-02-24T19:47:50Z</time>
      </trkpt>
      <trkpt lat="39.843670" lon="-3.265530">
        <ele>739.122</ele>
        <time>2022-02-24T19:48:30Z</time>
      </trkpt>
      <trkpt lat="39.843810" lon="-3.265670">
        <ele>738.514</ele>
        <time>2022-02-24T19:49:10Z</time>
      </trkpt>
      <trkpt lat="39.844000" lon="-3.265860">
        <ele>737.908</ele>
        <time>2022-02-24T19:49:50Z</time>
      </trkpt>
      <trkpt lat="39.844100" lon="-3.265950">
        <ele>737.613</ele>
        <time>2022-02-24T19:50:30Z</time>
      </trkpt>
      <trkpt lat="39.844530" lon="-3.266370">
        <ele>737.610</ele>
        <time>2022-02-24T19:51:10Z</time>
      </trkpt>
      <trkpt lat="39.844820" lon="-3.266650">
        <ele>738.954</ele>
        <time>2022-02-24T19:51:50Z</time>
      </trkpt>
      <trkpt lat="39.845200" lon="-3.267010">
        <ele>741.523</ele>
        <time>2022-02-24T19:52:30Z</time>
      </trkpt>
      <trkpt lat="39.845260" lon="-3.267070">
        <ele>741.953</ele>
        <time>2022-02-24T19:53:10Z</time>
      </trkpt>
      <trkpt lat="39.845600" lon="-3.267410">
        <ele>744.895</ele>
        <time>2022-02-24T19:53:50Z</time>
      </trkpt>
      <trkpt lat="39.845860" lon="-3.267650">
        <ele>746.174</ele>
        <time>2022-02-24T19:54:30Z</time>
      </trkpt>
      <trkpt lat="39.846030" lon="-3.267820">
        <ele>746.964</ele>
        <time>2022-02-24T19:55:10Z</time>
      </trkpt>
      <trkpt lat="39.846120" lon="-3.267920">
        <ele>747.624</ele>
        <time>2022-02-24T19:55:50Z</time>
      </trkpt>
      <trkpt lat="39.846160" lon="-3.267960">
        <ele>748.104</ele>
        <time>2022-02-24T19:56:30Z</time>
      </trkpt>
      <trkpt lat="39.846280" lon="-3.268100">
        <ele>749.314</ele>
        <time>2022-02-24T19:57:10Z</time>
      </trkpt>
      <trkpt lat="39.846340" lon="-3.268180">
        <ele>749.708</ele>
        <time>2022-02-24T19:57:50Z</time>
      </trkpt>
      <trkpt lat="39.846430" lon="-3.268290">
        <ele>750.091</ele>
        <time>2022-02-24T19:58:30Z</time>
      </trkpt>
      <trkpt lat="39.846500" lon="-3.268410">
        <ele>750.168</ele>
        <time>2022-02-24T19:59:10Z</time>
      </trkpt>
      <trkpt lat="39.846610" lon="-3.268590">
        <ele>750.762</ele>
        <time>2022-02-24T19:59:50Z</time>
      </trkpt>
      <trkpt lat="39.846750" lon="-3.268850">
        <ele>751.691</ele>
        <time>2022-02-24T20:00:30Z</time>
      </trkpt>
      <trkpt lat="39.847090" lon="-3.269490">
        <ele>752.091</ele>
        <time>2022-02-24T20:01:10Z</time>
      </trkpt>
      <trkpt lat="39.847320" lon="-3.269940">
        <ele>751.123</ele>
        <time>2022-02-24T20:01:50Z</time>
      </trkpt>
      <trkpt lat="39.847770" lon="-3.270820">
        <ele>749.042</ele>
        <time>2022-02-24T20:02:30Z</time>
      </trkpt>
      <trkpt lat="39.848100" lon="-3.271440">
        <ele>750.892</ele>
        <time>2022-02-24T20:03:10Z</time>
      </trkpt>
      <trkpt lat="39.848490" lon="-3.272200">
        <ele>750.068</ele>
        <time>2022-02-24T20:03:50Z</time>
      </trkpt>
      <trkpt lat="39.848560" lon="-3.272330">
        <ele>750.042</ele>
        <time>2022-02-24T20:04:30Z</time>
      </trkpt>
      <trkpt lat="39.849190" lon="-3.273560">
        <ele>751.226</ele>
        <time>2022-02-24T20:05:10Z</time>
      </trkpt>
      <trkpt lat="39.849600" lon="-3.274330">
        <ele>749.308</ele>
        <time>2022-02-24T20:05:50Z</time>
      </trkpt>
      <trkpt lat="39.849800" lon="-3.274720">
        <ele>746.315</ele>
        <time>2022-02-24T20:06:30Z</time>
      </trkpt>
      <trkpt lat="39.850100" lon="-3.275300">
        <ele>744.522</ele>
        <time>2022-02-24T20:07:10Z</time>
      </trkpt>
      <trkpt lat="39.850400" lon="-3.275890">
        <ele>740.436</ele>
        <time>2022-02-24T20:07:50Z</time>
      </trkpt>
      <trkpt lat="39.850750" lon="-3.276580">
        <ele>739.535</ele>
        <time>2022-02-24T20:08:30Z</time>
      </trkpt>
      <trkpt lat="39.850770" lon="-3.276620">
        <ele>739.415</ele>
        <time>2022-02-24T20:09:10Z</time>
      </trkpt>
      <trkpt lat="39.850800" lon="-3.276680">
        <ele>739.167</ele>
        <time>2022-02-24T20:09:50Z</time>
      </trkpt>
      <trkpt lat="39.850820" lon="-3.276710">
        <ele>738.996</ele>
        <time>2022-02-24T20:10:30Z</time>
      </trkpt>
      <trkpt lat="39.851220" lon="-3.277490">
        <ele>737.426</ele>
        <time>2022-02-24T20:11:10Z</time>
      </trkpt>
      <trkpt lat="39.851330" lon="-3.277690">
        <ele>737.234</ele>
        <time>2022-02-24T20:11:50Z</time>
      </trkpt>
      <trkpt lat="39.851930" lon="-3.278850">
        <ele>731.255</ele>
        <time>2022-02-24T20:12:30Z</time>
      </trkpt>
      <trkpt lat="39.852140" lon="-3.279270">
        <ele>730.110</ele>
        <time>2022-02-24T20:13:10Z</time>
      </trkpt>
      <trkpt lat="39.852200" lon="-3.279380">
        <ele>729.408</ele>
        <time>2022-02-24T20:13:50Z</time>
      </trkpt>
      <trkpt lat="39.852290" lon="-3.279560">
        <ele>728.632</ele>
        <time>2022-02-24T20:14:30Z</time>
      </trkpt>
      <trkpt lat="39.852490" lon="-3.279940">
        <ele>727.229</ele>
        <time>2022-02-24T20:15:10Z</time>
      </trkpt>
      <trkpt lat="39.852500" lon="-3.279960">
        <ele>727.163</ele>
        <time>2022-02-24T20:15:50Z</time>
      </trkpt>
      <trkpt lat="39.852600" lon="-3.280160">
        <ele>727.432</ele>
        <time>2022-02-24T20:16:30Z</time>
      </trkpt>
      <trkpt lat="39.852740" lon="-3.280420">
        <ele>727.442</ele>
        <time>2022-02-24T20:17:10Z</time>
      </trkpt>
      <trkpt lat="39.852860" lon="-3.280650">
        <ele>726.794</ele>
        <time>2022-02-24T20:17:50Z</time>
      </trkpt>
      <trkpt lat="39.853030" lon="-3.280970">
        <ele>725.093</ele>
        <time>2022-02-24T20:18:30Z</time>
      </trkpt>
      <trkpt lat="39.853120" lon="-3.281110">
        <ele>724.223</ele>
        <time>2022-02-24T20:19:10Z</time>
      </trkpt>
      <trkpt lat="39.853150" lon="-3.281150">
        <ele>724.227</ele>
        <time>2022-02-24T20:19:50Z</time>
      </trkpt>
      <trkpt lat="39.853220" lon="-3.281250">
        <ele>723.868</ele>
        <time>2022-02-24T20:20:30Z</time>
      </trkpt>
      <trkpt lat="39.853240" lon="-3.281280">
        <ele>723.714</ele>
        <time>2022-02-24T20:21:10Z</time>
      </trkpt>
      <trkpt lat="39.853380" lon="-3.281450">
        <ele>723.108</ele>
        <time>2022-02-24T20:21:50Z</time>
      </trkpt>
      <trkpt lat="39.853560" lon="-3.281680">
        <ele>722.121</ele>
        <time>2022-02-24T20:22:30Z</time>
      </trkpt>
      <trkpt lat="39.853900" lon="-3.282080">
        <ele>718.028</ele>
        <time>2022-02-24T20:23:10Z</time>
      </trkpt>
      <trkpt lat="39.853970" lon="-3.282160">
        <ele>717.562</ele>
        <time>2022-02-24T20:23:50Z</time>
      </trkpt>
      <trkpt lat="39.854030" lon="-3.282240">
        <ele>717.021</ele>
        <time>2022-02-24T20:24:30Z</time>
      </trkpt>
      <trkpt lat="39.854270" lon="-3.282510">
        <ele>715.671</ele>
        <time>2022-02-24T20:25:10Z</time>
      </trkpt>
      <trkpt lat="39.854300" lon="-3.282550">
        <ele>715.543</ele>
        <time>2022-02-24T20:25:50Z</time>
      </trkpt>
      <trkpt lat="39.854560" lon="-3.282850">
        <ele>714.312</ele>
        <time>2022-02-24T20:26:30Z</time>
      </trkpt>
      <trkpt lat="39.854570" lon="-3.282870">
        <ele>714.342</ele>
        <time>2022-02-24T20:27:10Z</time>
      </trkpt>
      <trkpt lat="39.854700" lon="-3.283020">
        <ele>713.277</ele>
        <time>2022-02-24T20:27:50Z</time>
      </trkpt>
      <trkpt lat="39.854760" lon="-3.283090">
        <ele>712.661</ele>
        <time>2022-02-24T20:28:30Z</time>
      </trkpt>
      <trkpt lat="39.854830" lon="-3.283180">
        <ele>711.927</ele>
        <time>2022-02-24T20:29:10Z</time>
      </trkpt>
      <trkpt lat="39.854970" lon="-3.283340">
        <ele>710.508</ele>
        <time>2022-02-24T20:29:50Z</time>
      </trkpt>
      <trkpt lat="39.855230" lon="-3.283650">
        <ele>709.626</ele>
        <time>2022-02-24T20:30:30Z</time>
      </trkpt>
      <trkpt lat="39.855390" lon="-3.283840">
        <ele>710.263</ele>
        <time>2022-02-24T20:31:10Z</time>
      </trkpt>
      <trkpt lat="39.855500" lon="-3.283970">
        <ele>710.587</ele>
        <time>2022-02-24T20:31:50Z</time>
      </trkpt>
      <trkpt lat="39.855630" lon="-3.284130">
        <ele>710.356</ele>
        <time>2022-02-24T20:32:30Z</time>
      </trkpt>
      <trkpt lat="39.855660" lon="-3.284160">
        <ele>710.236</ele>
        <time>2022-02-24T20:33:10Z</time>
      </trkpt>
      <trkpt lat="39.855770" lon="-3.284280">
        <ele>709.978</ele>
        <time>2022-02-24T20:33:50Z</time>
      </trkpt>
      <trkpt lat="39.855900" lon="-3.284440">
        <ele>709.597</ele>
        <time>2022-02-24T20:34:30Z</time>
      </trkpt>
      <trkpt lat="39.855930" lon="-3.284480">
        <ele>709.397</ele>
        <time>2022-02-24T20:35:10Z</time>
      </trkpt>
      <trkpt lat="39.856030" lon="-3.284600">
        <ele>708.822</ele>
        <time>2022-02-24T20:35:50Z</time>
      </trkpt>
      <trkpt lat="39.856200" lon="-3.284790">
        <ele>709.662</ele>
        <time>2022-02-24T20:36:30Z</time>
      </trkpt>
      <trkpt lat="39.856300" lon="-3.284910">
        <ele>709.908</ele>
        <time>2022-02-24T20:37:10Z</time>
      </trkpt>
      <trkpt lat="39.856490" lon="-3.285130">
        <ele>710.308</ele>
        <time>2022-02-24T20:37:50Z</time>
      </trkpt>
      <trkpt lat="39.856570" lon="-3.285230">
        <ele>710.521</ele>
        <time>2022-02-24T20:38:30Z</time>
      </trkpt>
      <trkpt lat="39.856740" lon="-3.285440">
        <ele>710.568</ele>
        <time>2022-02-24T20:39:10Z</time>
      </trkpt>
      <trkpt lat="39.856970" lon="-3.285700">
        <ele>712.262</ele>
        <time>2022-02-24T20:39:50Z</time>
      </trkpt>
      <trkpt lat="39.857010" lon="-3.285750">
        <ele>712.651</ele>
        <time>2022-02-24T20:40:30Z</time>
      </trkpt>
      <trkpt lat="39.857260" lon="-3.286040">
        <ele>716.891</ele>
        <time>2022-02-24T20:41:10Z</time>
      </trkpt>
      <trkpt lat="39.857370" lon="-3.286170">
        <ele>718.533</ele>
        <time>2022-02-24T20:41:50Z</time>
      </trkpt>
      <trkpt lat="39.857530" lon="-3.286360">
        <ele>720.882</ele>
        <time>2022-02-24T20:42:30Z</time>
      </trkpt>
      <trkpt lat="39.857630" lon="-3.286480">
        <ele>721.262</ele>
        <time>2022-02-24T20:43:10Z</time>
      </trkpt>
      <trkpt lat="39.857960" lon="-3.286860">
        <ele>721.872</ele>
        <time>2022-02-24T20:43:50Z</time>
      </trkpt>
      <trkpt lat="39.858290" lon="-3.287250">
        <ele>722.513</ele>
        <time>2022-02-24T20:44:30Z</time>
      </trkpt>
      <trkpt lat="39.858570" lon="-3.287580">
        <ele>724.614</ele>
        <time>2022-02-24T20:45:10Z</time>
      </trkpt>
      <trkpt lat="39.858590" lon="-3.287610">
        <ele>724.808</ele>
        <time>2022-02-24T20:45:50Z</time>
      </trkpt>
      <trkpt lat="39.858700" lon="-3.287740">
        <ele>725.716</ele>
        <time>2022-02-24T20:46:30Z</time>
      </trkpt>
      <trkpt lat="39.858820" lon="-3.287890">
        <ele>726.973</ele>
        <time>2022-02-24T20:47:10Z</time>
      </trkpt>
      <trkpt lat="39.858830" lon="-3.287900">
        <ele>727.097</ele>
        <time>2022-02-24T20:47:50Z</time>
      </trkpt>
      <trkpt lat="39.859080" lon="-3.288190">
        <ele>728.836</ele>
        <time>2022-02-24T20:48:30Z</time>
      </trkpt>
      <trkpt lat="39.859360" lon="-3.288520">
        <ele>731.456</ele>
        <time>2022-02-24T20:49:10Z</time>
      </trkpt>
      <trkpt lat="39.859500" lon="-3.288680">
        <ele>731.778</ele>
        <time>2022-02-24T20:49:50Z</time>
      </trkpt>
      <trkpt lat="39.859580" lon="-3.288760">
        <ele>731.217</ele>
        <time>2022-02-24T20:50:30Z</time>
      </trkpt>
      <trkpt lat="39.859640" lon="-3.288840">
        <ele>730.667</ele>
        <time>2022-02-24T20:51:10Z</time>
      </trkpt>
      <trkpt lat="39.859770" lon="-3.289000">
        <ele>729.933</ele>
        <time>2022-02-24T20:51:50Z</time>
      </trkpt>
      <trkpt lat="39.859790" lon="-3.289020">
        <ele>730.023</ele>
        <time>2022-02-24T20:52:30Z</time>
      </trkpt>
      <trkpt lat="39.860020" lon="-3.289290">
        <ele>733.115</ele>
        <time>2022-02-24T20:53:10Z</time>
      </trkpt>
      <trkpt lat="39.860260" lon="-3.289590">
        <ele>736.908</ele>
        <time>2022-02-24T20:53:50Z</time>
      </trkpt>
      <trkpt lat="39.860510" lon="-3.289880">
        <ele>738.452</ele>
        <time>2022-02-24T20:54:30Z</time>
      </trkpt>
      <trkpt lat="39.860560" lon="-3.289950">
        <ele>738.819</ele>
        <time>2022-02-24T20:55:10Z</time>
      </trkpt>
      <trkpt lat="39.860700" lon="-3.290110">
        <ele>739.623</ele>
        <time>2022-02-24T20:55:50Z</time>
      </trkpt>
      <trkpt lat="39.860710" lon="-3.290130">
        <ele>739.792</ele>
        <time>2022-02-24T20:56:30Z</time>
      </trkpt>
      <trkpt lat="39.861000" lon="-3.290470">
        <ele>741.592</ele>
        <time>2022-02-24T20:57:10Z</time>
      </trkpt>
      <trkpt lat="39.861090" lon="-3.290580">
        <ele>741.984</ele>
        <time>2022-02-24T20:57:50Z</time>
      </trkpt>
      <trkpt lat="39.861210" lon="-3.290730">
        <ele>742.593</ele>
        <time>2022-02-24T20:58:30Z</time>
      </trkpt>
      <trkpt lat="39.861360" lon="-3.290900">
        <ele>742.963</ele>
        <time>2022-02-24T20:59:10Z</time>
      </trkpt>
      <trkpt lat="39.861540" lon="-3.291110">
        <ele>742.573</ele>
        <time>2022-02-24T20:59:50Z</time>
      </trkpt>
      <trkpt lat="39.861760" lon="-3.291370">
        <ele>740.485</ele>
        <time>2022-02-24T21:00:30Z</time>
      </trkpt>
      <trkpt lat="39.861860" lon="-3.291490">
        <ele>740.713</ele>
        <time>2022-02-24T21:01:10Z</time>
      </trkpt>
      <trkpt lat="39.861890" lon="-3.291530">
        <ele>740.808</ele>
        <time>2022-02-24T21:01:50Z</time>
      </trkpt>
      <trkpt lat="39.862200" lon="-3.291890">
        <ele>740.966</ele>
        <time>2022-02-24T21:02:30Z</time>
      </trkpt>
      <trkpt lat="39.862740" lon="-3.292540">
        <ele>743.673</ele>
        <time>2022-02-24T21:03:10Z</time>
      </trkpt>
      <trkpt lat="39.862950" lon="-3.292790">
        <ele>741.327</ele>
        <time>2022-02-24T21:03:50Z</time>
      </trkpt>
      <trkpt lat="39.863070" lon="-3.292930">
        <ele>740.946</ele>
        <time>2022-02-24T21:04:30Z</time>
      </trkpt>
      <trkpt lat="39.863090" lon="-3.292950">
        <ele>740.996</ele>
        <time>2022-02-24T21:05:10Z</time>
      </trkpt>
      <trkpt lat="39.863350" lon="-3.293270">
        <ele>740.838</ele>
        <time>2022-02-24T21:05:50Z</time>
      </trkpt>
      <trkpt lat="39.863480" lon="-3.293420">
        <ele>741.297</ele>
        <time>2022-02-24T21:06:30Z</time>
      </trkpt>
      <trkpt lat="39.863500" lon="-3.293440">
        <ele>741.297</ele>
        <time>2022-02-24T21:07:10Z</time>
      </trkpt>
      <trkpt lat="39.864150" lon="-3.294210">
        <ele>744.031</ele>
        <time>2022-02-24T21:07:50Z</time>
      </trkpt>
      <trkpt lat="39.864800" lon="-3.294980">
        <ele>746.361</ele>
        <time>2022-02-24T21:08:30Z</time>
      </trkpt>
      <trkpt lat="39.865160" lon="-3.295420">
        <ele>747.907</ele>
        <time>2022-02-24T21:09:10Z</time>
      </trkpt>
      <trkpt lat="39.865520" lon="-3.295840">
        <ele>749.008</ele>
        <time>2022-02-24T21:09:50Z</time>
      </trkpt>
      <trkpt lat="39.865700" lon="-3.296050">
        <ele>750.062</ele>
        <time>2022-02-24T21:10:30Z</time>
      </trkpt>
      <trkpt lat="39.866550" lon="-3.297080">
        <ele>748.739</ele>
        <time>2022-02-24T21:11:10Z</time>
      </trkpt>
      <trkpt lat="39.867020" lon="-3.297640">
        <ele>746.633</ele>
        <time>2022-02-24T21:11:50Z</time>
      </trkpt>
      <trkpt lat="39.867460" lon="-3.298180">
        <ele>746.862</ele>
        <time>2022-02-24T21:12:30Z</time>
      </trkpt>
      <trkpt lat="39.867810" lon="-3.298590">
        <ele>748.582</ele>
        <time>2022-02-24T21:13:10Z</time>
      </trkpt>
      <trkpt lat="39.868100" lon="-3.298930">
        <ele>747.374</ele>
        <time>2022-02-24T21:13:50Z</time>
      </trkpt>
      <trkpt lat="39.868430" lon="-3.299300">
        <ele>748.863</ele>
        <time>2022-02-24T21:14:30Z</time>
      </trkpt>
      <trkpt lat="39.868490" lon="-3.299370">
        <ele>748.633</ele>
        <time>2022-02-24T21:15:10Z</time>
      </trkpt>
      <trkpt lat="39.868720" lon="-3.299640">
        <ele>747.944</ele>
        <time>2022-02-24T21:15:50Z</time>
      </trkpt>
      <trkpt lat="39.869030" lon="-3.299990">
        <ele>747.905</ele>
        <time>2022-02-24T21:16:30Z</time>
      </trkpt>
      <trkpt lat="39.869100" lon="-3.300070">
        <ele>747.315</ele>
        <time>2022-02-24T21:17:10Z</time>
      </trkpt>
      <trkpt lat="39.869650" lon="-3.300710">
        <ele>740.008</ele>
        <time>2022-02-24T21:17:50Z</time>
      </trkpt>
      <trkpt lat="39.869730" lon="-3.300770">
        <ele>739.213</ele>
        <time>2022-02-24T21:18:30Z</time>
      </trkpt>
      <trkpt lat="39.869760" lon="-3.300800">
        <ele>739.020</ele>
        <time>2022-02-24T21:19:10Z</time>
      </trkpt>
      <trkpt lat="39.869860" lon="-3.300910">
        <ele>738.884</ele>
        <time>2022-02-24T21:19:50Z</time>
      </trkpt>
      <trkpt lat="39.870070" lon="-3.301130">
        <ele>738.633</ele>
        <time>2022-02-24T21:20:30Z</time>
      </trkpt>
      <trkpt lat="39.870220" lon="-3.301270">
        <ele>738.613</ele>
        <time>2022-02-24T21:21:10Z</time>
      </trkpt>
      <trkpt lat="39.870290" lon="-3.301340">
        <ele>738.665</ele>
        <time>2022-02-24T21:21:50Z</time>
      </trkpt>
      <trkpt lat="39.870490" lon="-3.301520">
        <ele>738.824</ele>
        <time>2022-02-24T21:22:30Z</time>
      </trkpt>
      <trkpt lat="39.870620" lon="-3.301610">
        <ele>739.274</ele>
        <time>2022-02-24T21:23:10Z</time>
      </trkpt>
      <trkpt lat="39.870930" lon="-3.301810">
        <ele>739.845</ele>
        <time>2022-02-24T21:23:50Z</time>
      </trkpt>
      <trkpt lat="39.871270" lon="-3.302000">
        <ele>737.347</ele>
        <time>2022-02-24T21:24:30Z</time>
      </trkpt>
      <trkpt lat="39.871520" lon="-3.302120">
        <ele>733.811</ele>
        <time>2022-02-24T21:25:10Z</time>
      </trkpt>
      <trkpt lat="39.871810" lon="-3.302230">
        <ele>731.008</ele>
        <time>2022-02-24T21:25:50Z</time>
      </trkpt>
      <trkpt lat="39.872130" lon="-3.302350">
        <ele>729.543</ele>
        <time>2022-02-24T21:26:30Z</time>
      </trkpt>
      <trkpt lat="39.872690" lon="-3.302560">
        <ele>725.630</ele>
        <time>2022-02-24T21:27:10Z</time>
      </trkpt>
      <trkpt lat="39.872830" lon="-3.302600">
        <ele>724.754</ele>
        <time>2022-02-24T21:27:50Z</time>
      </trkpt>
      <trkpt lat="39.872860" lon="-3.302620">
        <ele>724.553</ele>
        <time>2022-02-24T21:28:30Z</time>
      </trkpt>
      <trkpt lat="39.873010" lon="-3.302690">
        <ele>723.983</ele>
        <time>2022-02-24T21:29:10Z</time>
      </trkpt>
      <trkpt lat="39.873240" lon="-3.302800">
        <ele>722.865</ele>
        <time>2022-02-24T21:29:50Z</time>
      </trkpt>
      <trkpt lat="39.873430" lon="-3.302900">
        <ele>722.444</ele>
        <time>2022-02-24T21:30:30Z</time>
      </trkpt>
      <trkpt lat="39.873670" lon="-3.303050">
        <ele>720.664</ele>
        <time>2022-02-24T21:31:10Z</time>
      </trkpt>
      <trkpt lat="39.873700" lon="-3.303070">
        <ele>720.399</ele>
        <time>2022-02-24T21:31:50Z</time>
      </trkpt>
      <trkpt lat="39.874110" lon="-3.303360">
        <ele>717.007</ele>
        <time>2022-02-24T21:32:30Z</time>
      </trkpt>
      <trkpt lat="39.874280" lon="-3.303490">
        <ele>717.027</ele>
        <time>2022-02-24T21:33:10Z</time>
      </trkpt>
      <trkpt lat="39.874310" lon="-3.303520">
        <ele>717.008</ele>
        <time>2022-02-24T21:33:50Z</time>
      </trkpt>
      <trkpt lat="39.874350" lon="-3.303550">
        <ele>717.088</ele>
        <time>2022-02-24T21:34:30Z</time>
      </trkpt>
      <trkpt lat="39.874970" lon="-3.304010">
        <ele>716.985</ele>
        <time>2022-02-24T21:35:10Z</time>
      </trkpt>
      <trkpt lat="39.875280" lon="-3.304230">
        <ele>719.239</ele>
        <time>2022-02-24T21:35:50Z</time>
      </trkpt>
      <trkpt lat="39.875600" lon="-3.304460">
        <ele>722.158</ele>
        <time>2022-02-24T21:36:30Z</time>
      </trkpt>
      <trkpt lat="39.875940" lon="-3.304700">
        <ele>725.258</ele>
        <time>2022-02-24T21:37:10Z</time>
      </trkpt>
      <trkpt lat="39.876020" lon="-3.304760">
        <ele>725.920</ele>
        <time>2022-02-24T21:37:50Z</time>
      </trkpt>
      <trkpt lat="39.876350" lon="-3.304990">
        <ele>726.249</ele>
        <time>2022-02-24T21:38:30Z</time>
      </trkpt>
      <trkpt lat="39.876840" lon="-3.305340">
        <ele>724.589</ele>
        <time>2022-02-24T21:39:10Z</time>
      </trkpt>
      <trkpt lat="39.877300" lon="-3.305660">
        <ele>727.982</ele>
        <time>2022-02-24T21:39:50Z</time>
      </trkpt>
      <trkpt lat="39.877460" lon="-3.305770">
        <ele>729.543</ele>
        <time>2022-02-24T21:40:30Z</time>
      </trkpt>
      <trkpt lat="39.877490" lon="-3.305790">
        <ele>729.817</ele>
        <time>2022-02-24T21:41:10Z</time>
      </trkpt>
      <trkpt lat="39.877750" lon="-3.305970">
        <ele>730.508</ele>
        <time>2022-02-24T21:41:50Z</time>
      </trkpt>
      <trkpt lat="39.877780" lon="-3.305990">
        <ele>730.637</ele>
        <time>2022-02-24T21:42:30Z</time>
      </trkpt>
      <trkpt lat="39.878090" lon="-3.306210">
        <ele>731.424</ele>
        <time>2022-02-24T21:43:10Z</time>
      </trkpt>
      <trkpt lat="39.878440" lon="-3.306460">
        <ele>732.668</ele>
        <time>2022-02-24T21:43:50Z</time>
      </trkpt>
      <trkpt lat="39.878720" lon="-3.306660">
        <ele>734.427</ele>
        <time>2022-02-24T21:44:30Z</time>
      </trkpt>
      <trkpt lat="39.878800" lon="-3.306720">
        <ele>734.747</ele>
        <time>2022-02-24T21:45:10Z</time>
      </trkpt>
      <trkpt lat="39.878880" lon="-3.306770">
        <ele>735.059</ele>
        <time>2022-02-24T21:45:50Z</time>
      </trkpt>
      <trkpt lat="39.879200" lon="-3.306990">
        <ele>735.018</ele>
        <time>2022-02-24T21:46:30Z</time>
      </trkpt>
      <trkpt lat="39.880150" lon="-3.307670">
        <ele>739.398</ele>
        <time>2022-02-24T21:47:10Z</time>
      </trkpt>
      <trkpt lat="39.880940" lon="-3.308240">
        <ele>744.054</ele>
        <time>2022-02-24T21:47:50Z</time>
      </trkpt>
      <trkpt lat="39.881190" lon="-3.308430">
        <ele>743.956</ele>
        <time>2022-02-24T21:48:30Z</time>
      </trkpt>
      <trkpt lat="39.882090" lon="-3.309080">
        <ele>745.211</ele>
        <time>2022-02-24T21:49:10Z</time>
      </trkpt>
      <trkpt lat="39.882110" lon="-3.309090">
        <ele>745.208</ele>
        <time>2022-02-24T21:49:50Z</time>
      </trkpt>
      <trkpt lat="39.882170" lon="-3.309130">
        <ele>745.144</ele>
        <time>2022-02-24T21:50:30Z</time>
      </trkpt>
      <trkpt lat="39.882200" lon="-3.309150">
        <ele>745.151</ele>
        <time>2022-02-24T21:51:10Z</time>
      </trkpt>
      <trkpt lat="39.882430" lon="-3.309320">
        <ele>745.175</ele>
        <time>2022-02-24T21:51:50Z</time>
      </trkpt>
      <trkpt lat="39.882520" lon="-3.309380">
        <ele>744.924</ele>
        <time>2022-02-24T21:52:30Z</time>
      </trkpt>
      <trkpt lat="39.882570" lon="-3.309420">
        <ele>744.874</ele>
        <time>2022-02-24T21:53:10Z</time>
      </trkpt>
      <trkpt lat="39.882590" lon="-3.309430">
        <ele>744.726</ele>
        <time>2022-02-24T21:53:50Z</time>
      </trkpt>
      <trkpt lat="39.882990" lon="-3.309730">
        <ele>745.815</ele>
        <time>2022-02-24T21:54:30Z</time>
      </trkpt>
      <trkpt lat="39.883030" lon="-3.309760">
        <ele>746.095</ele>
        <time>2022-02-24T21:55:10Z</time>
      </trkpt>
      <trkpt lat="39.883470" lon="-3.310070">
        <ele>750.915</ele>
        <time>2022-02-24T21:55:50Z</time>
      </trkpt>
      <trkpt lat="39.883670" lon="-3.310210">
        <ele>751.265</ele>
        <time>2022-02-24T21:56:30Z</time>
      </trkpt>
      <trkpt lat="39.883740" lon="-3.310270">
        <ele>751.011</ele>
        <time>2022-02-24T21:57:10Z</time>
      </trkpt>
      <trkpt lat="39.883820" lon="-3.310330">
        <ele>750.808</ele>
        <time>2022-02-24T21:57:50Z</time>
      </trkpt>
      <trkpt lat="39.883960" lon="-3.310430">
        <ele>750.620</ele>
        <time>2022-02-24T21:58:30Z</time>
      </trkpt>
      <trkpt lat="39.884200" lon="-3.310590">
        <ele>751.067</ele>
        <time>2022-02-24T21:59:10Z</time>
      </trkpt>
      <trkpt lat="39.884600" lon="-3.310890">
        <ele>751.461</ele>
        <time>2022-02-24T21:59:50Z</time>
      </trkpt>
      <trkpt lat="39.884940" lon="-3.311130">
        <ele>749.490</ele>
        <time>2022-02-24T22:00:30Z</time>
      </trkpt>
      <trkpt lat="39.885190" lon="-3.311310">
        <ele>746.420</ele>
        <time>2022-02-24T22:01:10Z</time>
      </trkpt>
      <trkpt lat="39.885330" lon="-3.311410">
        <ele>744.632</ele>
        <time>2022-02-24T22:01:50Z</time>
      </trkpt>
      <trkpt lat="39.885540" lon="-3.311570">
        <ele>742.591</ele>
        <time>2022-02-24T22:02:30Z</time>
      </trkpt>
      <trkpt lat="39.885680" lon="-3.311660">
        <ele>742.581</ele>
        <time>2022-02-24T22:03:10Z</time>
      </trkpt>
      <trkpt lat="39.885700" lon="-3.311680">
        <ele>742.651</ele>
        <time>2022-02-24T22:03:50Z</time>
      </trkpt>
      <trkpt lat="39.885730" lon="-3.311700">
        <ele>742.801</ele>
        <time>2022-02-24T22:04:30Z</time>
      </trkpt>
      <trkpt lat="39.885860" lon="-3.311790">
        <ele>743.611</ele>
        <time>2022-02-24T22:05:10Z</time>
      </trkpt>
      <trkpt lat="39.886010" lon="-3.311910">
        <ele>745.108</ele>
        <time>2022-02-24T22:05:50Z</time>
      </trkpt>
      <trkpt lat="39.886240" lon="-3.312070">
        <ele>747.084</ele>
        <time>2022-02-24T22:06:30Z</time>
      </trkpt>
      <trkpt lat="39.886330" lon="-3.312130">
        <ele>747.221</ele>
        <time>2022-02-24T22:07:10Z</time>
      </trkpt>
      <trkpt lat="39.886490" lon="-3.312250">
        <ele>747.395</ele>
        <time>2022-02-24T22:07:50Z</time>
      </trkpt>
      <trkpt lat="39.886780" lon="-3.312460">
        <ele>747.584</ele>
        <time>2022-02-24T22:08:30Z</time>
      </trkpt>
      <trkpt lat="39.886930" lon="-3.312560">
        <ele>747.924</ele>
        <time>2022-02-24T22:09:10Z</time>
      </trkpt>
      <trkpt lat="39.886960" lon="-3.312590">
        <ele>748.126</ele>
        <time>2022-02-24T22:09:50Z</time>
      </trkpt>
      <trkpt lat="39.887120" lon="-3.312700">
        <ele>748.675</ele>
        <time>2022-02-24T22:10:30Z</time>
      </trkpt>
      <trkpt lat="39.887400" lon="-3.312900">
        <ele>748.515</ele>
        <time>2022-02-24T22:11:10Z</time>
      </trkpt>
      <trkpt lat="39.887590" lon="-3.313040">
        <ele>749.075</ele>
        <time>2022-02-24T22:11:50Z</time>
      </trkpt>
      <trkpt lat="39.887720" lon="-3.313140">
        <ele>749.028</ele>
        <time>2022-02-24T22:12:30Z</time>
      </trkpt>
      <trkpt lat="39.887870" lon="-3.313240">
        <ele>748.720</ele>
        <time>2022-02-24T22:13:10Z</time>
      </trkpt>
      <trkpt lat="39.888120" lon="-3.313440">
        <ele>747.608</ele>
        <time>2022-02-24T22:13:50Z</time>
      </trkpt>
      <trkpt lat="39.888190" lon="-3.313500">
        <ele>747.356</ele>
        <time>2022-02-24T22:14:30Z</time>
      </trkpt>
      <trkpt lat="39.888340" lon="-3.313620">
        <ele>747.023</ele>
        <time>2022-02-24T22:15:10Z</time>
      </trkpt>
      <trkpt lat="39.888370" lon="-3.313640">
        <ele>746.997</ele>
        <time>2022-02-24T22:15:50Z</time>
      </trkpt>
      <trkpt lat="39.888490" lon="-3.313750">
        <ele>746.446</ele>
        <time>2022-02-24T22:16:30Z</time>
      </trkpt>
      <trkpt lat="39.888640" lon="-3.313880">
        <ele>746.016</ele>
        <time>2022-02-24T22:17:10Z</time>
      </trkpt>
      <trkpt lat="39.888690" lon="-3.313920">
        <ele>746.028</ele>
        <time>2022-02-24T22:17:50Z</time>
      </trkpt>
      <trkpt lat="39.888790" lon="-3.314010">
        <ele>746.097</ele>
        <time>2022-02-24T22:18:30Z</time>
      </trkpt>
      <trkpt lat="39.888940" lon="-3.314150">
        <ele>745.847</ele>
        <time>2022-02-24T22:19:10Z</time>
      </trkpt>
      <trkpt lat="39.888940" lon="-3.314160">
        <ele>745.815</ele>
        <time>2022-02-24T22:19:50Z</time>
      </trkpt>
      <trkpt lat="39.889070" lon="-3.314300">
        <ele>746.165</ele>
        <time>2022-02-24T22:20:30Z</time>
      </trkpt>
      <trkpt lat="39.889140" lon="-3.314380">
        <ele>746.611</ele>
        <time>2022-02-24T22:21:10Z</time>
      </trkpt>
      <trkpt lat="39.889210" lon="-3.314450">
        <ele>746.908</ele>
        <time>2022-02-24T22:21:50Z</time>
      </trkpt>
      <trkpt lat="39.889340" lon="-3.314610">
        <ele>747.380</ele>
        <time>2022-02-24T22:22:30Z</time>
      </trkpt>
      <trkpt lat="39.889370" lon="-3.314630">
        <ele>747.447</ele>
        <time>2022-02-24T22:23:10Z</time>
      </trkpt>
      <trkpt lat="39.889480" lon="-3.314770">
        <ele>747.961</ele>
        <time>2022-02-24T22:23:50Z</time>
      </trkpt>
      <trkpt lat="39.889640" lon="-3.314970">
        <ele>747.990</ele>
        <time>2022-02-24T22:24:30Z</time>
      </trkpt>
      <trkpt lat="39.889680" lon="-3.315020">
        <ele>748.020</ele>
        <time>2022-02-24T22:25:10Z</time>
      </trkpt>
      <trkpt lat="39.889900" lon="-3.315330">
        <ele>747.952</ele>
        <time>2022-02-24T22:25:50Z</time>
      </trkpt>
      <trkpt lat="39.889990" lon="-3.315470">
        <ele>747.441</ele>
        <time>2022-02-24T22:26:30Z</time>
      </trkpt>
      <trkpt lat="39.890120" lon="-3.315680">
        <ele>746.841</ele>
        <time>2022-02-24T22:27:10Z</time>
      </trkpt>
      <trkpt lat="39.890310" lon="-3.316050">
        <ele>747.618</ele>
        <time>2022-02-24T22:27:50Z</time>
      </trkpt>
      <trkpt lat="39.890480" lon="-3.316390">
        <ele>746.398</ele>
        <time>2022-02-24T22:28:30Z</time>
      </trkpt>
      <trkpt lat="39.890610" lon="-3.316720">
        <ele>744.217</ele>
        <time>2022-02-24T22:29:10Z</time>
      </trkpt>
      <trkpt lat="39.890700" lon="-3.316930">
        <ele>744.908</ele>
        <time>2022-02-24T22:29:50Z</time>
      </trkpt>
      <trkpt lat="39.890840" lon="-3.317360">
        <ele>743.580</ele>
        <time>2022-02-24T22:30:30Z</time>
      </trkpt>
      <trkpt lat="39.890960" lon="-3.317760">
        <ele>740.137</ele>
        <time>2022-02-24T22:31:10Z</time>
      </trkpt>
      <trkpt lat="39.891040" lon="-3.318090">
        <ele>739.841</ele>
        <time>2022-02-24T22:31:50Z</time>
      </trkpt>
      <trkpt lat="39.891100" lon="-3.318350">
        <ele>740.980</ele>
        <time>2022-02-24T22:32:30Z</time>
      </trkpt>
      <trkpt lat="39.891140" lon="-3.318550">
        <ele>741.110</ele>
        <time>2022-02-24T22:33:10Z</time>
      </trkpt>
      <trkpt lat="39.891160" lon="-3.318690">
        <ele>741.292</ele>
        <time>2022-02-24T22:33:50Z</time>
      </trkpt>
      <trkpt lat="39.891240" lon="-3.319150">
        <ele>741.021</ele>
        <time>2022-02-24T22:34:30Z</time>
      </trkpt>
      <trkpt lat="39.891290" lon="-3.319470">
        <ele>740.311</ele>
        <time>2022-02-24T22:35:10Z</time>
      </trkpt>
      <trkpt lat="39.891300" lon="-3.319520">
        <ele>740.193</ele>
        <time>2022-02-24T22:35:50Z</time>
      </trkpt>
      <trkpt lat="39.891320" lon="-3.319700">
        <ele>739.665</ele>
        <time>2022-02-24T22:36:30Z</time>
      </trkpt>
      <trkpt lat="39.891360" lon="-3.320070">
        <ele>739.221</ele>
        <time>2022-02-24T22:37:10Z</time>
      </trkpt>
      <trkpt lat="39.891410" lon="-3.320580">
        <ele>739.008</ele>
        <time>2022-02-24T22:37:50Z</time>
      </trkpt>
      <trkpt lat="39.891460" lon="-3.321140">
        <ele>740.068</ele>
        <time>2022-02-24T22:38:30Z</time>
      </trkpt>
      <trkpt lat="39.891470" lon="-3.321400">
        <ele>740.375</ele>
        <time>2022-02-24T22:39:10Z</time>
      </trkpt>
      <trkpt lat="39.891520" lon="-3.321960">
        <ele>742.549</ele>
        <time>2022-02-24T22:39:50Z</time>
      </trkpt>
      <trkpt lat="39.891580" lon="-3.322600">
        <ele>744.038</ele>
        <time>2022-02-24T22:40:30Z</time>
      </trkpt>
      <trkpt lat="39.891620" lon="-3.323010">
        <ele>744.038</ele>
        <time>2022-02-24T22:41:10Z</time>
      </trkpt>
      <trkpt lat="39.891630" lon="-3.323220">
        <ele>744.080</ele>
        <time>2022-02-24T22:41:50Z</time>
      </trkpt>
      <trkpt lat="39.891700" lon="-3.323740">
        <ele>745.429</ele>
        <time>2022-02-24T22:42:30Z</time>
      </trkpt>
      <trkpt lat="39.891720" lon="-3.323930">
        <ele>745.899</ele>
        <time>2022-02-24T22:43:10Z</time>
      </trkpt>
      <trkpt lat="39.891760" lon="-3.324180">
        <ele>745.768</ele>
        <time>2022-02-24T22:43:50Z</time>
      </trkpt>
      <trkpt lat="39.891800" lon="-3.324470">
        <ele>745.542</ele>
        <time>2022-02-24T22:44:30Z</time>
      </trkpt>
      <trkpt lat="39.891870" lon="-3.324850">
        <ele>744.326</ele>
        <time>2022-02-24T22:45:10Z</time>
      </trkpt>
      <trkpt lat="39.891960" lon="-3.325290">
        <ele>740.208</ele>
        <time>2022-02-24T22:45:50Z</time>
      </trkpt>
      <trkpt lat="39.891990" lon="-3.325420">
        <ele>740.065</ele>
        <time>2022-02-24T22:46:30Z</time>
      </trkpt>
      <trkpt lat="39.892060" lon="-3.325680">
        <ele>739.282</ele>
        <time>2022-02-24T22:47:10Z</time>
      </trkpt>
      <trkpt lat="39.892100" lon="-3.325860">
        <ele>738.586</ele>
        <time>2022-02-24T22:47:50Z</time>
      </trkpt>
      <trkpt lat="39.892180" lon="-3.326110">
        <ele>737.995</ele>
        <time>2022-02-24T22:48:30Z</time>
      </trkpt>
      <trkpt lat="39.892260" lon="-3.326340">
        <ele>738.455</ele>
        <time>2022-02-24T22:49:10Z</time>
      </trkpt>
      <trkpt lat="39.892310" lon="-3.326490">
        <ele>738.867</ele>
        <time>2022-02-24T22:49:50Z</time>
      </trkpt>
      <trkpt lat="39.892410" lon="-3.326800">
        <ele>738.956</ele>
        <time>2022-02-24T22:50:30Z</time>
      </trkpt>
      <trkpt lat="39.892570" lon="-3.327170">
        <ele>736.816</ele>
        <time>2022-02-24T22:51:10Z</time>
      </trkpt>
      <trkpt lat="39.892670" lon="-3.327380">
        <ele>735.138</ele>
        <time>2022-02-24T22:51:50Z</time>
      </trkpt>
      <trkpt lat="39.892700" lon="-3.327440">
        <ele>734.670</ele>
        <time>2022-02-24T22:52:30Z</time>
      </trkpt>
      <trkpt lat="39.892850" lon="-3.327730">
        <ele>732.317</ele>
        <time>2022-02-24T22:53:10Z</time>
      </trkpt>
      <trkpt lat="39.892980" lon="-3.327960">
        <ele>731.308</ele>
        <time>2022-02-24T22:53:50Z</time>
      </trkpt>
      <trkpt lat="39.893080" lon="-3.328130">
        <ele>731.192</ele>
        <time>2022-02-24T22:54:30Z</time>
      </trkpt>
      <trkpt lat="39.893260" lon="-3.328420">
        <ele>730.879</ele>
        <time>2022-02-24T22:55:10Z</time>
      </trkpt>
      <trkpt lat="39.893520" lon="-3.328790">
        <ele>729.463</ele>
        <time>2022-02-24T22:55:50Z</time>
      </trkpt>
      <trkpt lat="39.893600" lon="-3.328890">
        <ele>729.082</ele>
        <time>2022-02-24T22:56:30Z</time>
      </trkpt>
      <trkpt lat="39.893730" lon="-3.329050">
        <ele>728.492</ele>
        <time>2022-02-24T22:57:10Z</time>
      </trkpt>
      <trkpt lat="39.893880" lon="-3.329230">
        <ele>727.814</ele>
        <time>2022-02-24T22:57:50Z</time>
      </trkpt>
      <trkpt lat="39.894000" lon="-3.329360">
        <ele>727.373</ele>
        <time>2022-02-24T22:58:30Z</time>
      </trkpt>
      <trkpt lat="39.894140" lon="-3.329510">
        <ele>726.823</ele>
        <time>2022-02-24T22:59:10Z</time>
      </trkpt>
      <trkpt lat="39.894170" lon="-3.329530">
        <ele>726.728</ele>
        <time>2022-02-24T22:59:50Z</time>
      </trkpt>
      <trkpt lat="39.894280" lon="-3.329650">
        <ele>725.589</ele>
        <time>2022-02-24T23:00:30Z</time>
      </trkpt>
      <trkpt lat="39.894560" lon="-3.329910">
        <ele>724.017</ele>
        <time>2022-02-24T23:01:10Z</time>
      </trkpt>
      <trkpt lat="39.894710" lon="-3.330040">
        <ele>723.908</ele>
        <time>2022-02-24T23:01:50Z</time>
      </trkpt>
      <trkpt lat="39.894720" lon="-3.330050">
        <ele>723.851</ele>
        <time>2022-02-24T23:02:30Z</time>
      </trkpt>
      <trkpt lat="39.895010" lon="-3.330280">
        <ele>723.098</ele>
        <time>2022-02-24T23:03:10Z</time>
      </trkpt>
      <trkpt lat="39.895340" lon="-3.330530">
        <ele>721.822</ele>
        <time>2022-02-24T23:03:50Z</time>
      </trkpt>
      <trkpt lat="39.895450" lon="-3.330600">
        <ele>721.421</ele>
        <time>2022-02-24T23:04:30Z</time>
      </trkpt>
      <trkpt lat="39.895560" lon="-3.330670">
        <ele>721.411</ele>
        <time>2022-02-24T23:05:10Z</time>
      </trkpt>
      <trkpt lat="39.895930" lon="-3.330910">
        <ele>721.433</ele>
        <time>2022-02-24T23:05:50Z</time>
      </trkpt>
      <trkpt lat="39.896700" lon="-3.331380">
        <ele>723.042</ele>
        <time>2022-02-24T23:06:30Z</time>
      </trkpt>
      <trkpt lat="39.896790" lon="-3.331430">
        <ele>722.962</ele>
        <time>2022-02-24T23:07:10Z</time>
      </trkpt>
      <trkpt lat="39.896890" lon="-3.331480">
        <ele>722.738</ele>
        <time>2022-02-24T23:07:50Z</time>
      </trkpt>
      <trkpt lat="39.896930" lon="-3.331510">
        <ele>722.670</ele>
        <time>2022-02-24T23:08:30Z</time>
      </trkpt>
      <trkpt lat="39.897120" lon="-3.331620">
        <ele>721.317</ele>
        <time>2022-02-24T23:09:10Z</time>
      </trkpt>
      <trkpt lat="39.897690" lon="-3.331940">
        <ele>725.008</ele>
        <time>2022-02-24T23:09:50Z</time>
      </trkpt>
      <trkpt lat="39.897760" lon="-3.331990">
        <ele>725.592</ele>
        <time>2022-02-24T23:10:30Z</time>
      </trkpt>
      <trkpt lat="39.897880" lon="-3.332050">
        <ele>725.269</ele>
        <time>2022-02-24T23:11:10Z</time>
      </trkpt>
      <trkpt lat="39.897930" lon="-3.332080">
        <ele>725.093</ele>
        <time>2022-02-24T23:11:50Z</time>
      </trkpt>
      <trkpt lat="39.898090" lon="-3.332180">
        <ele>724.262</ele>
        <time>2022-02-24T23:12:30Z</time>
      </trkpt>
      <trkpt lat="39.898340" lon="-3.332310">
        <ele>723.092</ele>
        <time>2022-02-24T23:13:10Z</time>
      </trkpt>
      <trkpt lat="39.898850" lon="-3.332600">
        <ele>727.014</ele>
        <time>2022-02-24T23:13:50Z</time>
      </trkpt>
      <trkpt lat="39.899220" lon="-3.332810">
        <ele>728.813</ele>
        <time>2022-02-24T23:14:30Z</time>
      </trkpt>
      <trkpt lat="39.899760" lon="-3.333130">
        <ele>729.333</ele>
        <time>2022-02-24T23:15:10Z</time>
      </trkpt>
      <trkpt lat="39.900270" lon="-3.333410">
        <ele>731.336</ele>
        <time>2022-02-24T23:15:50Z</time>
      </trkpt>
      <trkpt lat="39.900830" lon="-3.333730">
        <ele>729.017</ele>
        <time>2022-02-24T23:16:30Z</time>
      </trkpt>
      <trkpt lat="39.901220" lon="-3.333950">
        <ele>730.818</ele>
        <time>2022-02-24T23:17:10Z</time>
      </trkpt>
      <trkpt lat="39.901910" lon="-3.334350">
        <ele>728.008</ele>
        <time>2022-02-24T23:17:50Z</time>
      </trkpt>
      <trkpt lat="39.902640" lon="-3.334770">
        <ele>728.872</ele>
        <time>2022-02-24T23:18:30Z</time>
      </trkpt>
      <trkpt lat="39.902840" lon="-3.334870">
        <ele>730.219</ele>
        <time>2022-02-24T23:19:10Z</time>
      </trkpt>
      <trkpt lat="39.903340" lon="-3.335180">
        <ele>731.373</ele>
        <time>2022-02-24T23:19:50Z</time>
      </trkpt>
      <trkpt lat="39.904020" lon="-3.335620">
        <ele>734.072</ele>
        <time>2022-02-24T23:20:30Z</time>
      </trkpt>
      <trkpt lat="39.904090" lon="-3.335650">
        <ele>734.042</ele>
        <time>2022-02-24T23:21:10Z</time>
      </trkpt>
      <trkpt lat="39.904140" lon="-3.335680">
        <ele>734.014</ele>
        <time>2022-02-24T23:21:50Z</time>
      </trkpt>
      <trkpt lat="39.904320" lon="-3.335820">
        <ele>734.913</ele>
        <time>2022-02-24T23:22:30Z</time>
      </trkpt>
      <trkpt lat="39.904640" lon="-3.336070">
        <ele>734.013</ele>
        <time>2022-02-24T23:23:10Z</time>
      </trkpt>
      <trkpt lat="39.904890" lon="-3.336280">
        <ele>732.854</ele>
        <time>2022-02-24T23:23:50Z</time>
      </trkpt>
      <trkpt lat="39.905030" lon="-3.336420">
        <ele>732.256</ele>
        <time>2022-02-24T23:24:30Z</time>
      </trkpt>
      <trkpt lat="39.905230" lon="-3.336590">
        <ele>733.011</ele>
        <time>2022-02-24T23:25:10Z</time>
      </trkpt>
      <trkpt lat="39.905280" lon="-3.336660">
        <ele>733.008</ele>
        <time>2022-02-24T23:25:50Z</time>
      </trkpt>
      <trkpt lat="39.905690" lon="-3.337180">
        <ele>733.524</ele>
        <time>2022-02-24T23:26:30Z</time>
      </trkpt>
      <trkpt lat="39.905720" lon="-3.337210">
        <ele>733.431</ele>
        <time>2022-02-24T23:27:10Z</time>
      </trkpt>
      <trkpt lat="39.905740" lon="-3.337240">
        <ele>733.455</ele>
        <time>2022-02-24T23:27:50Z</time>
      </trkpt>
      <trkpt lat="39.905810" lon="-3.337340">
        <ele>733.594</ele>
        <time>2022-02-24T23:28:30Z</time>
      </trkpt>
      <trkpt lat="39.905860" lon="-3.337410">
        <ele>733.694</ele>
        <time>2022-02-24T23:29:10Z</time>
      </trkpt>
      <trkpt lat="39.906030" lon="-3.337630">
        <ele>734.166</ele>
        <time>2022-02-24T23:29:50Z</time>
      </trkpt>
      <trkpt lat="39.906190" lon="-3.337870">
        <ele>735.535</ele>
        <time>2022-02-24T23:30:30Z</time>
      </trkpt>
      <trkpt lat="39.906310" lon="-3.338070">
        <ele>736.185</ele>
        <time>2022-02-24T23:31:10Z</time>
      </trkpt>
      <trkpt lat="39.906390" lon="-3.338190">
        <ele>736.565</ele>
        <time>2022-02-24T23:31:50Z</time>
      </trkpt>
      <trkpt lat="39.906590" lon="-3.338600">
        <ele>735.668</ele>
        <time>2022-02-24T23:32:30Z</time>
      </trkpt>
      <trkpt lat="39.906710" lon="-3.338840">
        <ele>735.114</ele>
        <time>2022-02-24T23:33:10Z</time>
      </trkpt>
      <trkpt lat="39.906960" lon="-3.339430">
        <ele>736.108</ele>
        <time>2022-02-24T23:33:50Z</time>
      </trkpt>
      <trkpt lat="39.907000" lon="-3.339560">
        <ele>736.275</ele>
        <time>2022-02-24T23:34:30Z</time>
      </trkpt>
      <trkpt lat="39.907110" lon="-3.339840">
        <ele>736.812</ele>
        <time>2022-02-24T23:35:10Z</time>
      </trkpt>
      <trkpt lat="39.907190" lon="-3.340060">
        <ele>737.086</ele>
        <time>2022-02-24T23:35:50Z</time>
      </trkpt>
      <trkpt lat="39.907310" lon="-3.340400">
        <ele>737.015</ele>
        <time>2022-02-24T23:36:30Z</time>
      </trkpt>
      <trkpt lat="39.907440" lon="-3.340780">
        <ele>736.475</ele>
        <time>2022-02-24T23:37:10Z</time>
      </trkpt>
      <trkpt lat="39.907460" lon="-3.340830">
        <ele>736.237</ele>
        <time>2022-02-24T23:37:50Z</time>
      </trkpt>
      <trkpt lat="39.907610" lon="-3.341310">
        <ele>734.316</ele>
        <time>2022-02-24T23:38:30Z</time>
      </trkpt>
      <trkpt lat="39.907890" lon="-3.342190">
        <ele>735.666</ele>
        <time>2022-02-24T23:39:10Z</time>
      </trkpt>
      <trkpt lat="39.907990" lon="-3.342560">
        <ele>735.849</ele>
        <time>2022-02-24T23:39:50Z</time>
      </trkpt>
      <trkpt lat="39.908050" lon="-3.342790">
        <ele>738.102</ele>
        <time>2022-02-24T23:40:30Z</time>
      </trkpt>
      <trkpt lat="39.908060" lon="-3.342830">
        <ele>738.322</ele>
        <time>2022-02-24T23:41:10Z</time>
      </trkpt>
      <trkpt lat="39.908130" lon="-3.343130">
        <ele>740.008</ele>
        <time>2022-02-24T23:41:50Z</time>
      </trkpt>
      <trkpt lat="39.908180" lon="-3.343390">
        <ele>740.283</ele>
        <time>2022-02-24T23:42:30Z</time>
      </trkpt>
      <trkpt lat="39.908220" lon="-3.343570">
        <ele>739.280</ele>
        <time>2022-02-24T23:43:10Z</time>
      </trkpt>
      <trkpt lat="39.908250" lon="-3.343810">
        <ele>736.964</ele>
        <time>2022-02-24T23:43:50Z</time>
      </trkpt>
      <trkpt lat="39.908310" lon="-3.344210">
        <ele>736.143</ele>
        <time>2022-02-24T23:44:30Z</time>
      </trkpt>
      <trkpt lat="39.908340" lon="-3.344470">
        <ele>737.213</ele>
        <time>2022-02-24T23:45:10Z</time>
      </trkpt>
      <trkpt lat="39.908370" lon="-3.344790">
        <ele>739.475</ele>
        <time>2022-02-24T23:45:50Z</time>
      </trkpt>
      <trkpt lat="39.908390" lon="-3.345100">
        <ele>740.954</ele>
        <time>2022-02-24T23:46:30Z</time>
      </trkpt>
      <trkpt lat="39.908420" lon="-3.345550">
        <ele>743.084</ele>
        <time>2022-02-24T23:47:10Z</time>
      </trkpt>
      <trkpt lat="39.908450" lon="-3.346220">
        <ele>741.228</ele>
        <time>2022-02-24T23:47:50Z</time>
      </trkpt>
      <trkpt lat="39.908450" lon="-3.346430">
        <ele>740.989</ele>
        <time>2022-02-24T23:48:30Z</time>
      </trkpt>
      <trkpt lat="39.908500" lon="-3.347190">
        <ele>743.117</ele>
        <time>2022-02-24T23:49:10Z</time>
      </trkpt>
      <trkpt lat="39.908500" lon="-3.347320">
        <ele>743.008</ele>
        <time>2022-02-24T23:49:50Z</time>
      </trkpt>
      <trkpt lat="39.908540" lon="-3.347740">
        <ele>741.921</ele>
        <time>2022-02-24T23:50:30Z</time>
      </trkpt>
      <trkpt lat="39.908590" lon="-3.348150">
        <ele>741.028</ele>
        <time>2022-02-24T23:51:10Z</time>
      </trkpt>
      <trkpt lat="39.908650" lon="-3.348550">
        <ele>741.122</ele>
        <time>2022-02-24T23:51:50Z</time>
      </trkpt>
      <trkpt lat="39.908650" lon="-3.348580">
        <ele>741.181</ele>
        <time>2022-02-24T23:52:30Z</time>
      </trkpt>
      <trkpt lat="39.908710" lon="-3.348900">
        <ele>741.411</ele>
        <time>2022-02-24T23:53:10Z</time>
      </trkpt>
      <trkpt lat="39.908750" lon="-3.349080">
        <ele>742.253</ele>
        <time>2022-02-24T23:53:50Z</time>
      </trkpt>
      <trkpt lat="39.908850" lon="-3.349480">
        <ele>744.922</ele>
        <time>2022-02-24T23:54:30Z</time>
      </trkpt>
      <trkpt lat="39.908860" lon="-3.349490">
        <ele>744.992</ele>
        <time>2022-02-24T23:55:10Z</time>
      </trkpt>
      <trkpt lat="39.909080" lon="-3.350240">
        <ele>745.037</ele>
        <time>2022-02-24T23:55:50Z</time>
      </trkpt>
      <trkpt lat="39.909330" lon="-3.351070">
        <ele>744.649</ele>
        <time>2022-02-24T23:56:30Z</time>
      </trkpt>
      <trkpt lat="39.909380" lon="-3.351220">
        <ele>744.713</ele>
        <time>2022-02-24T23:57:10Z</time>
      </trkpt>
      <trkpt lat="39.909450" lon="-3.351440">
        <ele>745.008</ele>
        <time>2022-02-24T23:57:50Z</time>
      </trkpt>
      <trkpt lat="39.909560" lon="-3.351810">
        <ele>745.392</ele>
        <time>2022-02-24T23:58:30Z</time>
      </trkpt>
      <trkpt lat="39.909720" lon="-3.352310">
        <ele>746.319</ele>
        <time>2022-02-24T23:59:10Z</time>
      </trkpt>
      <trkpt lat="39.909860" lon="-3.352750">
        <ele>747.493</ele>
        <time>2022-02-24T23:59:50Z</time>
      </trkpt>
      <trkpt lat="39.910000" lon="-3.353190">
        <ele>747.592</ele>
        <time>2022-02-25T00:00:30Z</time>
      </trkpt>
      <trkpt lat="39.910040" lon="-3.353320">
        <ele>746.952</ele>
        <time>2022-02-25T00:01:10Z</time>
      </trkpt>
      <trkpt lat="39.910270" lon="-3.354020">
        <ele>745.584</ele>
        <time>2022-02-25T00:01:50Z</time>
      </trkpt>
      <trkpt lat="39.910700" lon="-3.355370">
        <ele>746.873</ele>
        <time>2022-02-25T00:02:30Z</time>
      </trkpt>
      <trkpt lat="39.911320" lon="-3.357250">
        <ele>746.353</ele>
        <time>2022-02-25T00:03:10Z</time>
      </trkpt>
      <trkpt lat="39.911440" lon="-3.357640">
        <ele>747.442</ele>
        <time>2022-02-25T00:03:50Z</time>
      </trkpt>
      <trkpt lat="39.911510" lon="-3.357850">
        <ele>748.122</ele>
        <time>2022-02-25T00:04:30Z</time>
      </trkpt>
      <trkpt lat="39.911770" lon="-3.358640">
        <ele>747.914</ele>
        <time>2022-02-25T00:05:10Z</time>
      </trkpt>
      <trkpt lat="39.911940" lon="-3.359150">
        <ele>746.108</ele>
        <time>2022-02-25T00:05:50Z</time>
      </trkpt>
      <trkpt lat="39.912010" lon="-3.359370">
        <ele>744.663</ele>
        <time>2022-02-25T00:06:30Z</time>
      </trkpt>
      <trkpt lat="39.912710" lon="-3.361520">
        <ele>743.230</ele>
        <time>2022-02-25T00:07:10Z</time>
      </trkpt>
      <trkpt lat="39.912720" lon="-3.361580">
        <ele>743.264</ele>
        <time>2022-02-25T00:07:50Z</time>
      </trkpt>
      <trkpt lat="39.913340" lon="-3.363470">
        <ele>745.083</ele>
        <time>2022-02-25T00:08:30Z</time>
      </trkpt>
      <trkpt lat="39.913970" lon="-3.365410">
        <ele>747.533</ele>
        <time>2022-02-25T00:09:10Z</time>
      </trkpt>
      <trkpt lat="39.914390" lon="-3.366710">
        <ele>744.135</ele>
        <time>2022-02-25T00:09:50Z</time>
      </trkpt>
      <trkpt lat="39.914480" lon="-3.366980">
        <ele>744.884</ele>
        <time>2022-02-25T00:10:30Z</time>
      </trkpt>
      <trkpt lat="39.914740" lon="-3.367780">
        <ele>744.094</ele>
        <time>2022-02-25T00:11:10Z</time>
      </trkpt>
      <trkpt lat="39.914810" lon="-3.368000">
        <ele>744.087</ele>
        <time>2022-02-25T00:11:50Z</time>
      </trkpt>
      <trkpt lat="39.916150" lon="-3.372100">
        <ele>743.742</ele>
        <time>2022-02-25T00:12:30Z</time>
      </trkpt>
      <trkpt lat="39.916220" lon="-3.372320">
        <ele>745.026</ele>
        <time>2022-02-25T00:13:10Z</time>
      </trkpt>
      <trkpt lat="39.916570" lon="-3.373400">
        <ele>745.908</ele>
        <time>2022-02-25T00:13:50Z</time>
      </trkpt>
      <trkpt lat="39.916640" lon="-3.373620">
        <ele>745.847</ele>
        <time>2022-02-25T00:14:30Z</time>
      </trkpt>
      <trkpt lat="39.917010" lon="-3.374770">
        <ele>742.564</ele>
        <time>2022-02-25T00:15:10Z</time>
      </trkpt>
      <trkpt lat="39.917340" lon="-3.375770">
        <ele>743.198</ele>
        <time>2022-02-25T00:15:50Z</time>
      </trkpt>
      <trkpt lat="39.917900" lon="-3.377500">
        <ele>743.667</ele>
        <time>2022-02-25T00:16:30Z</time>
      </trkpt>
      <trkpt lat="39.917970" lon="-3.377720">
        <ele>743.197</ele>
        <time>2022-02-25T00:17:10Z</time>
      </trkpt>
      <trkpt lat="39.918320" lon="-3.378800">
        <ele>744.049</ele>
        <time>2022-02-25T00:17:50Z</time>
      </trkpt>
      <trkpt lat="39.918350" lon="-3.378870">
        <ele>743.918</ele>
        <time>2022-02-25T00:18:30Z</time>
      </trkpt>
      <trkpt lat="39.918390" lon="-3.379010">
        <ele>743.848</ele>
        <time>2022-02-25T00:19:10Z</time>
      </trkpt>
      <trkpt lat="39.918960" lon="-3.380740">
        <ele>742.531</ele>
        <time>2022-02-25T00:19:50Z</time>
      </trkpt>
      <trkpt lat="39.919030" lon="-3.380950">
        <ele>742.261</ele>
        <time>2022-02-25T00:20:30Z</time>
      </trkpt>
      <trkpt lat="39.919100" lon="-3.381180">
        <ele>742.207</ele>
        <time>2022-02-25T00:21:10Z</time>
      </trkpt>
      <trkpt lat="39.919520" lon="-3.382460">
        <ele>736.408</ele>
        <time>2022-02-25T00:21:50Z</time>
      </trkpt>
      <trkpt lat="39.919600" lon="-3.382680">
        <ele>735.712</ele>
        <time>2022-02-25T00:22:30Z</time>
      </trkpt>
      <trkpt lat="39.919780" lon="-3.383230">
        <ele>737.169</ele>
        <time>2022-02-25T00:23:10Z</time>
      </trkpt>
      <trkpt lat="39.920160" lon="-3.384410">
        <ele>738.473</ele>
        <time>2022-02-25T00:23:50Z</time>
      </trkpt>
      <trkpt lat="39.920580" lon="-3.385700">
        <ele>736.652</ele>
        <time>2022-02-25T00:24:30Z</time>
      </trkpt>
      <trkpt lat="39.920960" lon="-3.386860">
        <ele>738.062</ele>
        <time>2022-02-25T00:25:10Z</time>
      </trkpt>
      <trkpt lat="39.921040" lon="-3.387120">
        <ele>736.064</ele>
        <time>2022-02-25T00:25:50Z</time>
      </trkpt>
      <trkpt lat="39.921260" lon="-3.387790">
        <ele>736.583</ele>
        <time>2022-02-25T00:26:30Z</time>
      </trkpt>
      <trkpt lat="39.921480" lon="-3.388460">
        <ele>738.033</ele>
        <time>2022-02-25T00:27:10Z</time>
      </trkpt>
      <trkpt lat="39.921590" lon="-3.388800">
        <ele>738.078</ele>
        <time>2022-02-25T00:27:50Z</time>
      </trkpt>
      <trkpt lat="39.921680" lon="-3.389070">
        <ele>738.633</ele>
        <time>2022-02-25T00:28:30Z</time>
      </trkpt>
      <trkpt lat="39.921920" lon="-3.389810">
        <ele>737.126</ele>
        <time>2022-02-25T00:29:10Z</time>
      </trkpt>
      <trkpt lat="39.922150" lon="-3.390510">
        <ele>736.908</ele>
        <time>2022-02-25T00:29:50Z</time>
      </trkpt>
      <trkpt lat="39.922160" lon="-3.390520">
        <ele>736.966</ele>
        <time>2022-02-25T00:30:30Z</time>
      </trkpt>
      <trkpt lat="39.922810" lon="-3.392540">
        <ele>735.093</ele>
        <time>2022-02-25T00:31:10Z</time>
      </trkpt>
      <trkpt lat="39.922860" lon="-3.392680">
        <ele>735.427</ele>
        <time>2022-02-25T00:31:50Z</time>
      </trkpt>
      <trkpt lat="39.923350" lon="-3.394190">
        <ele>733.966</ele>
        <time>2022-02-25T00:32:30Z</time>
      </trkpt>
      <trkpt lat="39.923780" lon="-3.395490">
        <ele>729.376</ele>
        <time>2022-02-25T00:33:10Z</time>
      </trkpt>
      <trkpt lat="39.924130" lon="-3.396560">
        <ele>731.758</ele>
        <time>2022-02-25T00:33:50Z</time>
      </trkpt>
      <trkpt lat="39.924620" lon="-3.398070">
        <ele>733.057</ele>
        <time>2022-02-25T00:34:30Z</time>
      </trkpt>
      <trkpt lat="39.924970" lon="-3.399150">
        <ele>733.157</ele>
        <time>2022-02-25T00:35:10Z</time>
      </trkpt>
      <trkpt lat="39.925150" lon="-3.399690">
        <ele>734.918</ele>
        <time>2022-02-25T00:35:50Z</time>
      </trkpt>
      <trkpt lat="39.925470" lon="-3.400650">
        <ele>735.798</ele>
        <time>2022-02-25T00:36:30Z</time>
      </trkpt>
      <trkpt lat="39.925670" lon="-3.401260">
        <ele>735.517</ele>
        <time>2022-02-25T00:37:10Z</time>
      </trkpt>
      <trkpt lat="39.926030" lon="-3.402370">
        <ele>736.108</ele>
        <time>2022-02-25T00:37:50Z</time>
      </trkpt>
      <trkpt lat="39.926340" lon="-3.403310">
        <ele>736.170</ele>
        <time>2022-02-25T00:38:30Z</time>
      </trkpt>
      <trkpt lat="39.926450" lon="-3.403670">
        <ele>736.417</ele>
        <time>2022-02-25T00:39:10Z</time>
      </trkpt>
      <trkpt lat="39.926880" lon="-3.404960">
        <ele>736.021</ele>
        <time>2022-02-25T00:39:50Z</time>
      </trkpt>
      <trkpt lat="39.926950" lon="-3.405180">
        <ele>736.070</ele>
        <time>2022-02-25T00:40:30Z</time>
      </trkpt>
      <trkpt lat="39.927450" lon="-3.406690">
        <ele>734.960</ele>
        <time>2022-02-25T00:41:10Z</time>
      </trkpt>
      <trkpt lat="39.927490" lon="-3.406810">
        <ele>735.592</ele>
        <time>2022-02-25T00:41:50Z</time>
      </trkpt>
      <trkpt lat="39.927520" lon="-3.406900">
        <ele>735.831</ele>
        <time>2022-02-25T00:42:30Z</time>
      </trkpt>
      <trkpt lat="39.927860" lon="-3.407970">
        <ele>734.161</ele>
        <time>2022-02-25T00:43:10Z</time>
      </trkpt>
      <trkpt lat="39.928080" lon="-3.408630">
        <ele>732.168</ele>
        <time>2022-02-25T00:43:50Z</time>
      </trkpt>
      <trkpt lat="39.928150" lon="-3.408840">
        <ele>732.342</ele>
        <time>2022-02-25T00:44:30Z</time>
      </trkpt>
      <trkpt lat="39.928360" lon="-3.409490">
        <ele>736.126</ele>
        <time>2022-02-25T00:45:10Z</time>
      </trkpt>
      <trkpt lat="39.928520" lon="-3.409980">
        <ele>736.008</ele>
        <time>2022-02-25T00:45:50Z</time>
      </trkpt>
      <trkpt lat="39.929140" lon="-3.411860">
        <ele>736.765</ele>
        <time>2022-02-25T00:46:30Z</time>
      </trkpt>
      <trkpt lat="39.929210" lon="-3.412080">
        <ele>737.392</ele>
        <time>2022-02-25T00:47:10Z</time>
      </trkpt>
      <trkpt lat="39.929990" lon="-3.414450">
        <ele>737.046</ele>
        <time>2022-02-25T00:47:50Z</time>
      </trkpt>
      <trkpt lat="39.930190" lon="-3.415050">
        <ele>737.985</ele>
        <time>2022-02-25T00:48:30Z</time>
      </trkpt>
      <trkpt lat="39.930280" lon="-3.415310">
        <ele>737.065</ele>
        <time>2022-02-25T00:49:10Z</time>
      </trkpt>
      <trkpt lat="39.930510" lon="-3.416020">
        <ele>738.617</ele>
        <time>2022-02-25T00:49:50Z</time>
      </trkpt>
      <trkpt lat="39.930580" lon="-3.416250">
        <ele>739.556</ele>
        <time>2022-02-25T00:50:30Z</time>
      </trkpt>
      <trkpt lat="39.930960" lon="-3.417380">
        <ele>739.016</ele>
        <time>2022-02-25T00:51:10Z</time>
      </trkpt>
      <trkpt lat="39.931220" lon="-3.418180">
        <ele>739.428</ele>
        <time>2022-02-25T00:51:50Z</time>
      </trkpt>
      <trkpt lat="39.931250" lon="-3.418290">
        <ele>739.889</ele>
        <time>2022-02-25T00:52:30Z</time>
      </trkpt>
      <trkpt lat="39.931300" lon="-3.418450">
        <ele>740.017</ele>
        <time>2022-02-25T00:53:10Z</time>
      </trkpt>
      <trkpt lat="39.932020" lon="-3.420620">
        <ele>738.208</ele>
        <time>2022-02-25T00:53:50Z</time>
      </trkpt>
      <trkpt lat="39.932440" lon="-3.421900">
        <ele>738.861</ele>
        <time>2022-02-25T00:54:30Z</time>
      </trkpt>
      <trkpt lat="39.932440" lon="-3.421910">
        <ele>738.818</ele>
        <time>2022-02-25T00:55:10Z</time>
      </trkpt>
      <trkpt lat="39.932510" lon="-3.422130">
        <ele>738.452</ele>
        <time>2022-02-25T00:55:50Z</time>
      </trkpt>
      <trkpt lat="39.932830" lon="-3.423090">
        <ele>741.651</ele>
        <time>2022-02-25T00:56:30Z</time>
      </trkpt>
      <trkpt lat="39.933010" lon="-3.423640">
        <ele>741.061</ele>
        <time>2022-02-25T00:57:10Z</time>
      </trkpt>
      <trkpt lat="39.933080" lon="-3.423850">
        <ele>740.943</ele>
        <time>2022-02-25T00:57:50Z</time>
      </trkpt>
      <trkpt lat="39.933090" lon="-3.423880">
        <ele>740.932</ele>
        <time>2022-02-25T00:58:30Z</time>
      </trkpt>
      <trkpt lat="39.933440" lon="-3.424960">
        <ele>739.462</ele>
        <time>2022-02-25T00:59:10Z</time>
      </trkpt>
      <trkpt lat="39.933660" lon="-3.425630">
        <ele>739.446</ele>
        <time>2022-02-25T00:59:50Z</time>
      </trkpt>
      <trkpt lat="39.933810" lon="-3.426080">
        <ele>740.788</ele>
        <time>2022-02-25T01:00:30Z</time>
      </trkpt>
      <trkpt lat="39.933860" lon="-3.426230">
        <ele>740.116</ele>
        <time>2022-02-25T01:01:10Z</time>
      </trkpt>
      <trkpt lat="39.934070" lon="-3.426880">
        <ele>738.708</ele>
        <time>2022-02-25T01:01:50Z</time>
      </trkpt>
      <trkpt lat="39.934410" lon="-3.427910">
        <ele>739.133</ele>
        <time>2022-02-25T01:02:30Z</time>
      </trkpt>
      <trkpt lat="39.934710" lon="-3.428830">
        <ele>738.010</ele>
        <time>2022-02-25T01:03:10Z</time>
      </trkpt>
      <trkpt lat="39.935130" lon="-3.430130">
        <ele>736.694</ele>
        <time>2022-02-25T01:03:50Z</time>
      </trkpt>
      <trkpt lat="39.935180" lon="-3.430310">
        <ele>735.663</ele>
        <time>2022-02-25T01:04:30Z</time>
      </trkpt>
      <trkpt lat="39.935380" lon="-3.430900">
        <ele>733.733</ele>
        <time>2022-02-25T01:05:10Z</time>
      </trkpt>
      <trkpt lat="39.935490" lon="-3.431240">
        <ele>734.995</ele>
        <time>2022-02-25T01:05:50Z</time>
      </trkpt>
      <trkpt lat="39.935690" lon="-3.431870">
        <ele>737.244</ele>
        <time>2022-02-25T01:06:30Z</time>
      </trkpt>
      <trkpt lat="39.935870" lon="-3.432420">
        <ele>737.814</ele>
        <time>2022-02-25T01:07:10Z</time>
      </trkpt>
      <trkpt lat="39.935970" lon="-3.432700">
        <ele>738.285</ele>
        <time>2022-02-25T01:07:50Z</time>
      </trkpt>
      <trkpt lat="39.935970" lon="-3.432720">
        <ele>738.389</ele>
        <time>2022-02-25T01:08:30Z</time>
      </trkpt>
      <trkpt lat="39.936060" lon="-3.432970">
        <ele>738.217</ele>
        <time>2022-02-25T01:09:10Z</time>
      </trkpt>
      <trkpt lat="39.936090" lon="-3.433070">
        <ele>738.008</ele>
        <time>2022-02-25T01:09:50Z</time>
      </trkpt>
      <trkpt lat="39.936140" lon="-3.433180">
        <ele>737.147</ele>
        <time>2022-02-25T01:10:30Z</time>
      </trkpt>
      <trkpt lat="39.936200" lon="-3.433340">
        <ele>735.794</ele>
        <time>2022-02-25T01:11:10Z</time>
      </trkpt>
      <trkpt lat="39.936230" lon="-3.433420">
        <ele>735.178</ele>
        <time>2022-02-25T01:11:50Z</time>
      </trkpt>
      <trkpt lat="39.936310" lon="-3.433620">
        <ele>734.327</ele>
        <time>2022-02-25T01:12:30Z</time>
      </trkpt>
      <trkpt lat="39.936420" lon="-3.433860">
        <ele>733.757</ele>
        <time>2022-02-25T01:13:10Z</time>
      </trkpt>
      <trkpt lat="39.936480" lon="-3.434000">
        <ele>732.529</ele>
        <time>2022-02-25T01:13:50Z</time>
      </trkpt>
      <trkpt lat="39.936620" lon="-3.434290">
        <ele>730.798</ele>
        <time>2022-02-25T01:14:30Z</time>
      </trkpt>
      <trkpt lat="39.936680" lon="-3.434410">
        <ele>730.138</ele>
        <time>2022-02-25T01:15:10Z</time>
      </trkpt>
      <trkpt lat="39.936740" lon="-3.434530">
        <ele>729.524</ele>
        <time>2022-02-25T01:15:50Z</time>
      </trkpt>
      <trkpt lat="39.936750" lon="-3.434540">
        <ele>729.504</ele>
        <time>2022-02-25T01:16:30Z</time>
      </trkpt>
      <trkpt lat="39.936850" lon="-3.434730">
        <ele>729.014</ele>
        <time>2022-02-25T01:17:10Z</time>
      </trkpt>
      <trkpt lat="39.936930" lon="-3.434870">
        <ele>729.508</ele>
        <time>2022-02-25T01:17:50Z</time>
      </trkpt>
      <trkpt lat="39.936950" lon="-3.434900">
        <ele>729.691</ele>
        <time>2022-02-25T01:18:30Z</time>
      </trkpt>
      <trkpt lat="39.937090" lon="-3.435130">
        <ele>729.728</ele>
        <time>2022-02-25T01:19:10Z</time>
      </trkpt>
      <trkpt lat="39.937220" lon="-3.435300">
        <ele>730.192</ele>
        <time>2022-02-25T01:19:50Z</time>
      </trkpt>
      <trkpt lat="39.937310" lon="-3.435430">
        <ele>730.221</ele>
        <time>2022-02-25T01:20:30Z</time>
      </trkpt>
      <trkpt lat="39.937330" lon="-3.435460">
        <ele>730.381</ele>
        <time>2022-02-25T01:21:10Z</time>
      </trkpt>
      <trkpt lat="39.937420" lon="-3.435560">
        <ele>730.313</ele>
        <time>2022-02-25T01:21:50Z</time>
      </trkpt>
      <trkpt lat="39.937540" lon="-3.435690">
        <ele>730.982</ele>
        <time>2022-02-25T01:22:30Z</time>
      </trkpt>
      <trkpt lat="39.937580" lon="-3.435740">
        <ele>731.192</ele>
        <time>2022-02-25T01:23:10Z</time>
      </trkpt>
      <trkpt lat="39.937800" lon="-3.435960">
        <ele>731.125</ele>
        <time>2022-02-25T01:23:50Z</time>
      </trkpt>
      <trkpt lat="39.937970" lon="-3.436120">
        <ele>732.426</ele>
        <time>2022-02-25T01:24:30Z</time>
      </trkpt>
      <trkpt lat="39.938170" lon="-3.436310">
        <ele>733.708</ele>
        <time>2022-02-25T01:25:10Z</time>
      </trkpt>
      <trkpt lat="39.938300" lon="-3.436450">
        <ele>735.008</ele>
        <time>2022-02-25T01:25:50Z</time>
      </trkpt>
      <trkpt lat="39.938370" lon="-3.436510">
        <ele>735.421</ele>
        <time>2022-02-25T01:26:30Z</time>
      </trkpt>
      <trkpt lat="39.938420" lon="-3.436570">
        <ele>735.788</ele>
        <time>2022-02-25T01:27:10Z</time>
      </trkpt>
      <trkpt lat="39.938470" lon="-3.436630">
        <ele>735.982</ele>
        <time>2022-02-25T01:27:50Z</time>
      </trkpt>
      <trkpt lat="39.938550" lon="-3.436720">
        <ele>736.261</ele>
        <time>2022-02-25T01:28:30Z</time>
      </trkpt>
      <trkpt lat="39.938620" lon="-3.436810">
        <ele>736.511</ele>
        <time>2022-02-25T01:29:10Z</time>
      </trkpt>
      <trkpt lat="39.938740" lon="-3.436960">
        <ele>736.593</ele>
        <time>2022-02-25T01:29:50Z</time>
      </trkpt>
      <trkpt lat="39.938830" lon="-3.437090">
        <ele>736.212</ele>
        <time>2022-02-25T01:30:30Z</time>
      </trkpt>
      <trkpt lat="39.938880" lon="-3.437170">
        <ele>736.072</ele>
        <time>2022-02-25T01:31:10Z</time>
      </trkpt>
      <trkpt lat="39.939030" lon="-3.437410">
        <ele>737.057</ele>
        <time>2022-02-25T01:31:50Z</time>
      </trkpt>
      <trkpt lat="39.939140" lon="-3.437620">
        <ele>736.600</ele>
        <time>2022-02-25T01:32:30Z</time>
      </trkpt>
      <trkpt lat="39.939210" lon="-3.437770">
        <ele>736.320</ele>
        <time>2022-02-25T01:33:10Z</time>
      </trkpt>
      <trkpt lat="39.939230" lon="-3.437800">
        <ele>736.508</ele>
        <time>2022-02-25T01:33:50Z</time>
      </trkpt>
      <trkpt lat="39.939320" lon="-3.438000">
        <ele>737.074</ele>
        <time>2022-02-25T01:34:30Z</time>
      </trkpt>
      <trkpt lat="39.939390" lon="-3.438210">
        <ele>737.081</ele>
        <time>2022-02-25T01:35:10Z</time>
      </trkpt>
      <trkpt lat="39.939390" lon="-3.438220">
        <ele>737.035</ele>
        <time>2022-02-25T01:35:50Z</time>
      </trkpt>
      <trkpt lat="39.939460" lon="-3.438430">
        <ele>737.314</ele>
        <time>2022-02-25T01:36:30Z</time>
      </trkpt>
      <trkpt lat="39.939490" lon="-3.438510">
        <ele>737.594</ele>
        <time>2022-02-25T01:37:10Z</time>
      </trkpt>
      <trkpt lat="39.939530" lon="-3.438650">
        <ele>737.716</ele>
        <time>2022-02-25T01:37:50Z</time>
      </trkpt>
      <trkpt lat="39.939540" lon="-3.438720">
        <ele>737.825</ele>
        <time>2022-02-25T01:38:30Z</time>
      </trkpt>
      <trkpt lat="39.939590" lon="-3.438930">
        <ele>737.975</ele>
        <time>2022-02-25T01:39:10Z</time>
      </trkpt>
      <trkpt lat="39.939630" lon="-3.439100">
        <ele>737.584</ele>
        <time>2022-02-25T01:39:50Z</time>
      </trkpt>
      <trkpt lat="39.939630" lon="-3.439130">
        <ele>737.407</ele>
        <time>2022-02-25T01:40:30Z</time>
      </trkpt>
      <trkpt lat="39.939670" lon="-3.439350">
        <ele>737.117</ele>
        <time>2022-02-25T01:41:10Z</time>
      </trkpt>
      <trkpt lat="39.939690" lon="-3.439530">
        <ele>736.708</ele>
        <time>2022-02-25T01:41:50Z</time>
      </trkpt>
      <trkpt lat="39.939700" lon="-3.439690">
        <ele>736.217</ele>
        <time>2022-02-25T01:42:30Z</time>
      </trkpt>
      <trkpt lat="39.939720" lon="-3.439850">
        <ele>736.084</ele>
        <time>2022-02-25T01:43:10Z</time>
      </trkpt>
      <trkpt lat="39.939720" lon="-3.440030">
        <ele>736.148</ele>
        <time>2022-02-25T01:43:50Z</time>
      </trkpt>
      <trkpt lat="39.939720" lon="-3.440090">
        <ele>736.347</ele>
        <time>2022-02-25T01:44:30Z</time>
      </trkpt>
      <trkpt lat="39.939720" lon="-3.440260">
        <ele>736.937</ele>
        <time>2022-02-25T01:45:10Z</time>
      </trkpt>
      <trkpt lat="39.939720" lon="-3.440380">
        <ele>737.429</ele>
        <time>2022-02-25T01:45:50Z</time>
      </trkpt>
      <trkpt lat="39.939720" lon="-3.440430">
        <ele>737.588</ele>
        <time>2022-02-25T01:46:30Z</time>
      </trkpt>
      <trkpt lat="39.939720" lon="-3.440500">
        <ele>737.898</ele>
        <time>2022-02-25T01:47:10Z</time>
      </trkpt>
      <trkpt lat="39.939710" lon="-3.440640">
        <ele>738.027</ele>
        <time>2022-02-25T01:47:50Z</time>
      </trkpt>
      <trkpt lat="39.939690" lon="-3.440800">
        <ele>737.968</ele>
        <time>2022-02-25T01:48:30Z</time>
      </trkpt>
      <trkpt lat="39.939660" lon="-3.441080">
        <ele>737.814</ele>
        <time>2022-02-25T01:49:10Z</time>
      </trkpt>
      <trkpt lat="39.939630" lon="-3.441350">
        <ele>738.508</ele>
        <time>2022-02-25T01:49:50Z</time>
      </trkpt>
      <trkpt lat="39.939620" lon="-3.441420">
        <ele>738.851</ele>
        <time>2022-02-25T01:50:30Z</time>
      </trkpt>
      <trkpt lat="39.939570" lon="-3.441860">
        <ele>740.098</ele>
        <time>2022-02-25T01:51:10Z</time>
      </trkpt>
      <trkpt lat="39.939540" lon="-3.442110">
        <ele>739.452</ele>
        <time>2022-02-25T01:51:50Z</time>
      </trkpt>
      <trkpt lat="39.939530" lon="-3.442250">
        <ele>738.831</ele>
        <time>2022-02-25T01:52:30Z</time>
      </trkpt>
      <trkpt lat="39.939530" lon="-3.442350">
        <ele>738.151</ele>
        <time>2022-02-25T01:53:10Z</time>
      </trkpt>
      <trkpt lat="39.939530" lon="-3.442490">
        <ele>737.113</ele>
        <time>2022-02-25T01:53:50Z</time>
      </trkpt>
      <trkpt lat="39.939520" lon="-3.442630">
        <ele>736.582</ele>
        <time>2022-02-25T01:54:30Z</time>
      </trkpt>
      <trkpt lat="39.939530" lon="-3.442870">
        <ele>736.182</ele>
        <time>2022-02-25T01:55:10Z</time>
      </trkpt>
      <trkpt lat="39.939530" lon="-3.443030">
        <ele>736.345</ele>
        <time>2022-02-25T01:55:50Z</time>
      </trkpt>
      <trkpt lat="39.939540" lon="-3.443140">
        <ele>736.347</ele>
        <time>2022-02-25T01:56:30Z</time>
      </trkpt>
      <trkpt lat="39.939550" lon="-3.443320">
        <ele>736.411</ele>
        <time>2022-02-25T01:57:10Z</time>
      </trkpt>
      <trkpt lat="39.939590" lon="-3.443540">
        <ele>737.308</ele>
        <time>2022-02-25T01:57:50Z</time>
      </trkpt>
      <trkpt lat="39.939620" lon="-3.443730">
        <ele>738.283</ele>
        <time>2022-02-25T01:58:30Z</time>
      </trkpt>
      <trkpt lat="39.939650" lon="-3.443920">
        <ele>739.110</ele>
        <time>2022-02-25T01:59:10Z</time>
      </trkpt>
      <trkpt lat="39.939690" lon="-3.444080">
        <ele>739.784</ele>
        <time>2022-02-25T01:59:50Z</time>
      </trkpt>
      <trkpt lat="39.939740" lon="-3.444280">
        <ele>739.693</ele>
        <time>2022-02-25T02:00:30Z</time>
      </trkpt>
      <trkpt lat="39.939770" lon="-3.444370">
        <ele>739.283</ele>
        <time>2022-02-25T02:01:10Z</time>
      </trkpt>
      <trkpt lat="39.939790" lon="-3.444470">
        <ele>738.915</ele>
        <time>2022-02-25T02:01:50Z</time>
      </trkpt>
      <trkpt lat="39.939830" lon="-3.444570">
        <ele>738.474</ele>
        <time>2022-02-25T02:02:30Z</time>
      </trkpt>
      <trkpt lat="39.939830" lon="-3.444590">
        <ele>738.374</ele>
        <time>2022-02-25T02:03:10Z</time>
      </trkpt>
      <trkpt lat="39.939850" lon="-3.444630">
        <ele>738.099</ele>
        <time>2022-02-25T02:03:50Z</time>
      </trkpt>
      <trkpt lat="39.939860" lon="-3.444660">
        <ele>737.807</ele>
        <time>2022-02-25T02:04:30Z</time>
      </trkpt>
      <trkpt lat="39.939910" lon="-3.444830">
        <ele>736.527</ele>
        <time>2022-02-25T02:05:10Z</time>
      </trkpt>
      <trkpt lat="39.940000" lon="-3.445110">
        <ele>735.008</ele>
        <time>2022-02-25T02:05:50Z</time>
      </trkpt>
      <trkpt lat="39.940110" lon="-3.445450">
        <ele>735.668</ele>
        <time>2022-02-25T02:06:30Z</time>
      </trkpt>
      <trkpt lat="39.940210" lon="-3.445750">
        <ele>736.725</ele>
        <time>2022-02-25T02:07:10Z</time>
      </trkpt>
      <trkpt lat="39.940320" lon="-3.446100">
        <ele>737.289</ele>
        <time>2022-02-25T02:07:50Z</time>
      </trkpt>
      <trkpt lat="39.940530" lon="-3.446740">
        <ele>736.148</ele>
        <time>2022-02-25T02:08:30Z</time>
      </trkpt>
      <trkpt lat="39.940680" lon="-3.447210">
        <ele>737.548</ele>
        <time>2022-02-25T02:09:10Z</time>
      </trkpt>
      <trkpt lat="39.940830" lon="-3.447670">
        <ele>738.680</ele>
        <time>2022-02-25T02:09:50Z</time>
      </trkpt>
      <trkpt lat="39.941100" lon="-3.448500">
        <ele>738.059</ele>
        <time>2022-02-25T02:10:30Z</time>
      </trkpt>
      <trkpt lat="39.941150" lon="-3.448640">
        <ele>738.079</ele>
        <time>2022-02-25T02:11:10Z</time>
      </trkpt>
      <trkpt lat="39.941170" lon="-3.448710">
        <ele>737.918</ele>
        <time>2022-02-25T02:11:50Z</time>
      </trkpt>
      <trkpt lat="39.941610" lon="-3.450050">
        <ele>736.298</ele>
        <time>2022-02-25T02:12:30Z</time>
      </trkpt>
      <trkpt lat="39.941800" lon="-3.450660">
        <ele>736.817</ele>
        <time>2022-02-25T02:13:10Z</time>
      </trkpt>
      <trkpt lat="39.941870" lon="-3.450870">
        <ele>737.608</ele>
        <time>2022-02-25T02:13:50Z</time>
      </trkpt>
      <trkpt lat="39.942290" lon="-3.452170">
        <ele>738.720</ele>
        <time>2022-02-25T02:14:30Z</time>
      </trkpt>
      <trkpt lat="39.942400" lon="-3.452530">
        <ele>740.087</ele>
        <time>2022-02-25T02:15:10Z</time>
      </trkpt>
      <trkpt lat="39.942620" lon="-3.453180">
        <ele>739.381</ele>
        <time>2022-02-25T02:15:50Z</time>
      </trkpt>
      <trkpt lat="39.942650" lon="-3.453270">
        <ele>739.180</ele>
        <time>2022-02-25T02:16:30Z</time>
      </trkpt>
      <trkpt lat="39.942740" lon="-3.453560">
        <ele>738.380</ele>
        <time>2022-02-25T02:17:10Z</time>
      </trkpt>
      <trkpt lat="39.942910" lon="-3.454080">
        <ele>740.152</ele>
        <time>2022-02-25T02:17:50Z</time>
      </trkpt>
      <trkpt lat="39.942990" lon="-3.454310">
        <ele>739.731</ele>
        <time>2022-02-25T02:18:30Z</time>
      </trkpt>
      <trkpt lat="39.943100" lon="-3.454670">
        <ele>739.011</ele>
        <time>2022-02-25T02:19:10Z</time>
      </trkpt>
      <trkpt lat="39.943270" lon="-3.455180">
        <ele>738.156</ele>
        <time>2022-02-25T02:19:50Z</time>
      </trkpt>
      <trkpt lat="39.943310" lon="-3.455320">
        <ele>738.459</ele>
        <time>2022-02-25T02:20:30Z</time>
      </trkpt>
      <trkpt lat="39.943600" lon="-3.456200">
        <ele>740.114</ele>
        <time>2022-02-25T02:21:10Z</time>
      </trkpt>
      <trkpt lat="39.943610" lon="-3.456250">
        <ele>740.008</ele>
        <time>2022-02-25T02:21:50Z</time>
      </trkpt>
      <trkpt lat="39.943750" lon="-3.456680">
        <ele>739.054</ele>
        <time>2022-02-25T02:22:30Z</time>
      </trkpt>
      <trkpt lat="39.943830" lon="-3.456920">
        <ele>739.231</ele>
        <time>2022-02-25T02:23:10Z</time>
      </trkpt>
      <trkpt lat="39.943960" lon="-3.457330">
        <ele>740.585</ele>
        <time>2022-02-25T02:23:50Z</time>
      </trkpt>
      <trkpt lat="39.944060" lon="-3.457620">
        <ele>741.284</ele>
        <time>2022-02-25T02:24:30Z</time>
      </trkpt>
      <trkpt lat="39.944100" lon="-3.457760">
        <ele>741.274</ele>
        <time>2022-02-25T02:25:10Z</time>
      </trkpt>
      <trkpt lat="39.944380" lon="-3.458630">
        <ele>739.556</ele>
        <time>2022-02-25T02:25:50Z</time>
      </trkpt>
      <trkpt lat="39.944520" lon="-3.459060">
        <ele>739.095</ele>
        <time>2022-02-25T02:26:30Z</time>
      </trkpt>
      <trkpt lat="39.944670" lon="-3.459520">
        <ele>738.265</ele>
        <time>2022-02-25T02:27:10Z</time>
      </trkpt>
      <trkpt lat="39.944950" lon="-3.460350">
        <ele>737.331</ele>
        <time>2022-02-25T02:27:50Z</time>
      </trkpt>
      <trkpt lat="39.945120" lon="-3.460880">
        <ele>737.661</ele>
        <time>2022-02-25T02:28:30Z</time>
      </trkpt>
      <trkpt lat="39.945170" lon="-3.461050">
        <ele>737.407</ele>
        <time>2022-02-25T02:29:10Z</time>
      </trkpt>
      <trkpt lat="39.945280" lon="-3.461380">
        <ele>737.008</ele>
        <time>2022-02-25T02:29:50Z</time>
      </trkpt>
      <trkpt lat="39.945320" lon="-3.461500">
        <ele>738.332</ele>
        <time>2022-02-25T02:30:30Z</time>
      </trkpt>
      <trkpt lat="39.945510" lon="-3.462110">
        <ele>742.259</ele>
        <time>2022-02-25T02:31:10Z</time>
      </trkpt>
      <trkpt lat="39.945600" lon="-3.462360">
        <ele>740.913</ele>
        <time>2022-02-25T02:31:50Z</time>
      </trkpt>
      <trkpt lat="39.945640" lon="-3.462480">
        <ele>739.932</ele>
        <time>2022-02-25T02:32:30Z</time>
      </trkpt>
      <trkpt lat="39.945900" lon="-3.463290">
        <ele>732.922</ele>
        <time>2022-02-25T02:33:10Z</time>
      </trkpt>
      <trkpt lat="39.945960" lon="-3.463460">
        <ele>732.864</ele>
        <time>2022-02-25T02:33:50Z</time>
      </trkpt>
      <trkpt lat="39.945970" lon="-3.463510">
        <ele>732.843</ele>
        <time>2022-02-25T02:34:30Z</time>
      </trkpt>
      <trkpt lat="39.946070" lon="-3.463810">
        <ele>733.283</ele>
        <time>2022-02-25T02:35:10Z</time>
      </trkpt>
      <trkpt lat="39.946250" lon="-3.464360">
        <ele>736.719</ele>
        <time>2022-02-25T02:35:50Z</time>
      </trkpt>
      <trkpt lat="39.946390" lon="-3.464760">
        <ele>739.109</ele>
        <time>2022-02-25T02:36:30Z</time>
      </trkpt>
      <trkpt lat="39.946470" lon="-3.465000">
        <ele>740.019</ele>
        <time>2022-02-25T02:37:10Z</time>
      </trkpt>
      <trkpt lat="39.946470" lon="-3.465010">
        <ele>740.008</ele>
        <time>2022-02-25T02:37:50Z</time>
      </trkpt>
      <trkpt lat="39.946630" lon="-3.465480">
        <ele>739.080</ele>
        <time>2022-02-25T02:38:30Z</time>
      </trkpt>
      <trkpt lat="39.946900" lon="-3.466310">
        <ele>741.877</ele>
        <time>2022-02-25T02:39:10Z</time>
      </trkpt>
      <trkpt lat="39.946903" lon="-3.466306">
        <ele>741.771</ele>
        <time>2022-02-25T02:39:50Z</time>
      </trkpt>
      <trkpt lat="39.946970" lon="-3.466550">
        <ele>741.210</ele>
        <time>2022-02-25T02:40:30Z</time>
      </trkpt>
      <trkpt lat="39.947010" lon="-3.466660">
        <ele>740.580</ele>
        <time>2022-02-25T02:41:10Z</time>
      </trkpt>
      <trkpt lat="39.947040" lon="-3.466770">
        <ele>739.742</ele>
        <time>2022-02-25T02:41:50Z</time>
      </trkpt>
      <trkpt lat="39.947370" lon="-3.467790">
        <ele>738.571</ele>
        <time>2022-02-25T02:42:30Z</time>
      </trkpt>
      <trkpt lat="39.947640" lon="-3.468630">
        <ele>735.011</ele>
        <time>2022-02-25T02:43:10Z</time>
      </trkpt>
      <trkpt lat="39.947800" lon="-3.469120">
        <ele>734.093</ele>
        <time>2022-02-25T02:43:50Z</time>
      </trkpt>
      <trkpt lat="39.948090" lon="-3.470020">
        <ele>733.965</ele>
        <time>2022-02-25T02:44:30Z</time>
      </trkpt>
      <trkpt lat="39.948280" lon="-3.470600">
        <ele>733.021</ele>
        <time>2022-02-25T02:45:10Z</time>
      </trkpt>
      <trkpt lat="39.948500" lon="-3.471280">
        <ele>736.008</ele>
        <time>2022-02-25T02:45:50Z</time>
      </trkpt>
      <trkpt lat="39.948760" lon="-3.472080">
        <ele>735.528</ele>
        <time>2022-02-25T02:46:30Z</time>
      </trkpt>
      <trkpt lat="39.948970" lon="-3.472730">
        <ele>736.345</ele>
        <time>2022-02-25T02:47:10Z</time>
      </trkpt>
      <trkpt lat="39.949280" lon="-3.473720">
        <ele>732.969</ele>
        <time>2022-02-25T02:47:50Z</time>
      </trkpt>
      <trkpt lat="39.949350" lon="-3.473940">
        <ele>733.168</ele>
        <time>2022-02-25T02:48:30Z</time>
      </trkpt>
      <trkpt lat="39.949560" lon="-3.474590">
        <ele>734.638</ele>
        <time>2022-02-25T02:49:10Z</time>
      </trkpt>
      <trkpt lat="39.949620" lon="-3.474800">
        <ele>733.790</ele>
        <time>2022-02-25T02:49:50Z</time>
      </trkpt>
      <trkpt lat="39.949630" lon="-3.474810">
        <ele>733.719</ele>
        <time>2022-02-25T02:50:30Z</time>
      </trkpt>
      <trkpt lat="39.949690" lon="-3.475000">
        <ele>733.259</ele>
        <time>2022-02-25T02:51:10Z</time>
      </trkpt>
      <trkpt lat="39.949700" lon="-3.475020">
        <ele>733.264</ele>
        <time>2022-02-25T02:51:50Z</time>
      </trkpt>
      <trkpt lat="39.949720" lon="-3.475090">
        <ele>733.306</ele>
        <time>2022-02-25T02:52:30Z</time>
      </trkpt>
      <trkpt lat="39.949760" lon="-3.475220">
        <ele>733.816</ele>
        <time>2022-02-25T02:53:10Z</time>
      </trkpt>
      <trkpt lat="39.949860" lon="-3.475520">
        <ele>735.708</ele>
        <time>2022-02-25T02:53:50Z</time>
      </trkpt>
      <trkpt lat="39.949970" lon="-3.475850">
        <ele>739.015</ele>
        <time>2022-02-25T02:54:30Z</time>
      </trkpt>
      <trkpt lat="39.950050" lon="-3.476110">
        <ele>739.682</ele>
        <time>2022-02-25T02:55:10Z</time>
      </trkpt>
      <trkpt lat="39.950260" lon="-3.476760">
        <ele>735.216</ele>
        <time>2022-02-25T02:55:50Z</time>
      </trkpt>
      <trkpt lat="39.950390" lon="-3.477170">
        <ele>733.385</ele>
        <time>2022-02-25T02:56:30Z</time>
      </trkpt>
      <trkpt lat="39.950530" lon="-3.477600">
        <ele>731.025</ele>
        <time>2022-02-25T02:57:10Z</time>
      </trkpt>
      <trkpt lat="39.950670" lon="-3.478030">
        <ele>731.917</ele>
        <time>2022-02-25T02:57:50Z</time>
      </trkpt>
      <trkpt lat="39.950690" lon="-3.478090">
        <ele>732.266</ele>
        <time>2022-02-25T02:58:30Z</time>
      </trkpt>
      <trkpt lat="39.950700" lon="-3.478120">
        <ele>732.586</ele>
        <time>2022-02-25T02:59:10Z</time>
      </trkpt>
      <trkpt lat="39.950900" lon="-3.478730">
        <ele>735.122</ele>
        <time>2022-02-25T02:59:50Z</time>
      </trkpt>
      <trkpt lat="39.951570" lon="-3.480810">
        <ele>737.762</ele>
        <time>2022-02-25T03:00:30Z</time>
      </trkpt>
      <trkpt lat="39.951850" lon="-3.481690">
        <ele>736.008</ele>
        <time>2022-02-25T03:01:10Z</time>
      </trkpt>
      <trkpt lat="39.952070" lon="-3.482380">
        <ele>734.508</ele>
        <time>2022-02-25T03:01:50Z</time>
      </trkpt>
      <trkpt lat="39.952130" lon="-3.482560">
        <ele>733.851</ele>
        <time>2022-02-25T03:02:30Z</time>
      </trkpt>
      <trkpt lat="39.952180" lon="-3.482740">
        <ele>734.018</ele>
        <time>2022-02-25T03:03:10Z</time>
      </trkpt>
      <trkpt lat="39.952210" lon="-3.482880">
        <ele>734.452</ele>
        <time>2022-02-25T03:03:50Z</time>
      </trkpt>
      <trkpt lat="39.952240" lon="-3.483020">
        <ele>734.951</ele>
        <time>2022-02-25T03:04:30Z</time>
      </trkpt>
      <trkpt lat="39.952260" lon="-3.483170">
        <ele>735.051</ele>
        <time>2022-02-25T03:05:10Z</time>
      </trkpt>
      <trkpt lat="39.952300" lon="-3.483410">
        <ele>734.993</ele>
        <time>2022-02-25T03:05:50Z</time>
      </trkpt>
      <trkpt lat="39.952340" lon="-3.483640">
        <ele>735.172</ele>
        <time>2022-02-25T03:06:30Z</time>
      </trkpt>
      <trkpt lat="39.952370" lon="-3.483820">
        <ele>736.652</ele>
        <time>2022-02-25T03:07:10Z</time>
      </trkpt>
      <trkpt lat="39.952390" lon="-3.484010">
        <ele>737.434</ele>
        <time>2022-02-25T03:07:50Z</time>
      </trkpt>
      <trkpt lat="39.952450" lon="-3.484110">
        <ele>737.855</ele>
        <time>2022-02-25T03:08:30Z</time>
      </trkpt>
      <trkpt lat="39.952449" lon="-3.484115">
        <ele>737.810</ele>
        <time>2022-02-25T03:09:10Z</time>
      </trkpt>
      <trkpt lat="39.952460" lon="-3.484160">
        <ele>737.908</ele>
        <time>2022-02-25T03:09:50Z</time>
      </trkpt>
      <trkpt lat="39.952470" lon="-3.484250">
        <ele>737.632</ele>
        <time>2022-02-25T03:10:30Z</time>
      </trkpt>
      <trkpt lat="39.952490" lon="-3.484330">
        <ele>737.419</ele>
        <time>2022-02-25T03:11:10Z</time>
      </trkpt>
      <trkpt lat="39.952500" lon="-3.484370">
        <ele>737.313</ele>
        <time>2022-02-25T03:11:50Z</time>
      </trkpt>
      <trkpt lat="39.952510" lon="-3.484420">
        <ele>737.172</ele>
        <time>2022-02-25T03:12:30Z</time>
      </trkpt>
      <trkpt lat="39.952530" lon="-3.484490">
        <ele>736.992</ele>
        <time>2022-02-25T03:13:10Z</time>
      </trkpt>
      <trkpt lat="39.952540" lon="-3.484580">
        <ele>736.744</ele>
        <time>2022-02-25T03:13:50Z</time>
      </trkpt>
      <trkpt lat="39.952540" lon="-3.484577">
        <ele>736.793</ele>
        <time>2022-02-25T03:14:30Z</time>
      </trkpt>
      <trkpt lat="39.952560" lon="-3.484590">
        <ele>736.743</ele>
        <time>2022-02-25T03:15:10Z</time>
      </trkpt>
      <trkpt lat="39.952580" lon="-3.484600">
        <ele>736.779</ele>
        <time>2022-02-25T03:15:50Z</time>
      </trkpt>
      <trkpt lat="39.952590" lon="-3.484610">
        <ele>736.705</ele>
        <time>2022-02-25T03:16:30Z</time>
      </trkpt>
      <trkpt lat="39.952610" lon="-3.484620">
        <ele>736.825</ele>
        <time>2022-02-25T03:17:10Z</time>
      </trkpt>
      <trkpt lat="39.952620" lon="-3.484640">
        <ele>736.708</ele>
        <time>2022-02-25T03:17:50Z</time>
      </trkpt>
      <trkpt lat="39.952630" lon="-3.484660">
        <ele>736.786</ele>
        <time>2022-02-25T03:18:30Z</time>
      </trkpt>
      <trkpt lat="39.952650" lon="-3.484680">
        <ele>736.743</ele>
        <time>2022-02-25T03:19:10Z</time>
      </trkpt>
      <trkpt lat="39.952660" lon="-3.484700">
        <ele>736.737</ele>
        <time>2022-02-25T03:19:50Z</time>
      </trkpt>
      <trkpt lat="39.952670" lon="-3.484720">
        <ele>736.646</ele>
        <time>2022-02-25T03:20:30Z</time>
      </trkpt>
      <trkpt lat="39.952680" lon="-3.484740">
        <ele>736.686</ele>
        <time>2022-02-25T03:21:10Z</time>
      </trkpt>
      <trkpt lat="39.952680" lon="-3.484760">
        <ele>736.678</ele>
        <time>2022-02-25T03:21:50Z</time>
      </trkpt>
      <trkpt lat="39.952690" lon="-3.484780">
        <ele>736.567</ele>
        <time>2022-02-25T03:22:30Z</time>
      </trkpt>
      <trkpt lat="39.952690" lon="-3.484810">
        <ele>736.587</ele>
        <time>2022-02-25T03:23:10Z</time>
      </trkpt>
      <trkpt lat="39.952700" lon="-3.484830">
        <ele>736.445</ele>
        <time>2022-02-25T03:23:50Z</time>
      </trkpt>
      <trkpt lat="39.952700" lon="-3.484860">
        <ele>736.447</ele>
        <time>2022-02-25T03:24:30Z</time>
      </trkpt>
      <trkpt lat="39.952700" lon="-3.484890">
        <ele>736.311</ele>
        <time>2022-02-25T03:25:10Z</time>
      </trkpt>
      <trkpt lat="39.952690" lon="-3.484910">
        <ele>736.208</ele>
        <time>2022-02-25T03:25:50Z</time>
      </trkpt>
      <trkpt lat="39.952690" lon="-3.484930">
        <ele>736.273</ele>
        <time>2022-02-25T03:26:30Z</time>
      </trkpt>
      <trkpt lat="39.952690" lon="-3.484950">
        <ele>736.180</ele>
        <time>2022-02-25T03:27:10Z</time>
      </trkpt>
      <trkpt lat="39.952680" lon="-3.484980">
        <ele>736.084</ele>
        <time>2022-02-25T03:27:50Z</time>
      </trkpt>
      <trkpt lat="39.952670" lon="-3.485000">
        <ele>736.063</ele>
        <time>2022-02-25T03:28:30Z</time>
      </trkpt>
      <trkpt lat="39.952660" lon="-3.485020">
        <ele>736.093</ele>
        <time>2022-02-25T03:29:10Z</time>
      </trkpt>
      <trkpt lat="39.952640" lon="-3.485040">
        <ele>736.185</ele>
        <time>2022-02-25T03:29:50Z</time>
      </trkpt>
      <trkpt lat="39.952630" lon="-3.485060">
        <ele>736.194</ele>
        <time>2022-02-25T03:30:30Z</time>
      </trkpt>
      <trkpt lat="39.952610" lon="-3.485070">
        <ele>736.254</ele>
        <time>2022-02-25T03:31:10Z</time>
      </trkpt>
      <trkpt lat="39.952600" lon="-3.485090">
        <ele>736.235</ele>
        <time>2022-02-25T03:31:50Z</time>
      </trkpt>
      <trkpt lat="39.952580" lon="-3.485100">
        <ele>736.386</ele>
        <time>2022-02-25T03:32:30Z</time>
      </trkpt>
      <trkpt lat="39.952560" lon="-3.485110">
        <ele>736.314</ele>
        <time>2022-02-25T03:33:10Z</time>
      </trkpt>
      <trkpt lat="39.952550" lon="-3.485120">
        <ele>736.408</ele>
        <time>2022-02-25T03:33:50Z</time>
      </trkpt>
      <trkpt lat="39.952530" lon="-3.485120">
        <ele>736.422</ele>
        <time>2022-02-25T03:34:30Z</time>
      </trkpt>
      <trkpt lat="39.952510" lon="-3.485120">
        <ele>736.489</ele>
        <time>2022-02-25T03:35:10Z</time>
      </trkpt>
      <trkpt lat="39.952490" lon="-3.485130">
        <ele>736.483</ele>
        <time>2022-02-25T03:35:50Z</time>
      </trkpt>
      <trkpt lat="39.952470" lon="-3.485130">
        <ele>736.422</ele>
        <time>2022-02-25T03:36:30Z</time>
      </trkpt>
      <trkpt lat="39.952460" lon="-3.485120">
        <ele>736.432</ele>
        <time>2022-02-25T03:37:10Z</time>
      </trkpt>
      <trkpt lat="39.952440" lon="-3.485120">
        <ele>736.354</ele>
        <time>2022-02-25T03:37:50Z</time>
      </trkpt>
      <trkpt lat="39.952420" lon="-3.485110">
        <ele>736.213</ele>
        <time>2022-02-25T03:38:30Z</time>
      </trkpt>
      <trkpt lat="39.952400" lon="-3.485110">
        <ele>736.263</ele>
        <time>2022-02-25T03:39:10Z</time>
      </trkpt>
      <trkpt lat="39.952390" lon="-3.485100">
        <ele>736.177</ele>
        <time>2022-02-25T03:39:50Z</time>
      </trkpt>
      <trkpt lat="39.952300" lon="-3.485150">
        <ele>736.261</ele>
        <time>2022-02-25T03:40:30Z</time>
      </trkpt>
      <trkpt lat="39.952130" lon="-3.485250">
        <ele>735.827</ele>
        <time>2022-02-25T03:41:10Z</time>
      </trkpt>
      <trkpt lat="39.952010" lon="-3.485330">
        <ele>734.908</ele>
        <time>2022-02-25T03:41:50Z</time>
      </trkpt>
      <trkpt lat="39.951610" lon="-3.485760">
        <ele>732.586</ele>
        <time>2022-02-25T03:42:30Z</time>
      </trkpt>
      <trkpt lat="39.951510" lon="-3.485880">
        <ele>732.423</ele>
        <time>2022-02-25T03:43:10Z</time>
      </trkpt>
      <trkpt lat="39.951440" lon="-3.485970">
        <ele>732.277</ele>
        <time>2022-02-25T03:43:50Z</time>
      </trkpt>
      <trkpt lat="39.951080" lon="-3.486430">
        <ele>735.196</ele>
        <time>2022-02-25T03:44:30Z</time>
      </trkpt>
      <trkpt lat="39.951030" lon="-3.486480">
        <ele>735.326</ele>
        <time>2022-02-25T03:45:10Z</time>
      </trkpt>
      <trkpt lat="39.950200" lon="-3.487460">
        <ele>732.958</ele>
        <time>2022-02-25T03:45:50Z</time>
      </trkpt>
      <trkpt lat="39.950070" lon="-3.487620">
        <ele>732.627</ele>
        <time>2022-02-25T03:46:30Z</time>
      </trkpt>
      <trkpt lat="39.949850" lon="-3.487890">
        <ele>733.227</ele>
        <time>2022-02-25T03:47:10Z</time>
      </trkpt>
      <trkpt lat="39.949430" lon="-3.488390">
        <ele>735.064</ele>
        <time>2022-02-25T03:47:50Z</time>
      </trkpt>
      <trkpt lat="39.948960" lon="-3.489000">
        <ele>732.506</ele>
        <time>2022-02-25T03:48:30Z</time>
      </trkpt>
      <trkpt lat="39.948590" lon="-3.489440">
        <ele>732.216</ele>
        <time>2022-02-25T03:49:10Z</time>
      </trkpt>
      <trkpt lat="39.948580" lon="-3.489460">
        <ele>732.208</ele>
        <time>2022-02-25T03:49:50Z</time>
      </trkpt>
      <trkpt lat="39.948440" lon="-3.489660">
        <ele>732.875</ele>
        <time>2022-02-25T03:50:30Z</time>
      </trkpt>
      <trkpt lat="39.948400" lon="-3.489710">
        <ele>732.852</ele>
        <time>2022-02-25T03:51:10Z</time>
      </trkpt>
      <trkpt lat="39.948340" lon="-3.489800">
        <ele>732.716</ele>
        <time>2022-02-25T03:51:50Z</time>
      </trkpt>
      <trkpt lat="39.948290" lon="-3.489890">
        <ele>732.165</ele>
        <time>2022-02-25T03:52:30Z</time>
      </trkpt>
      <trkpt lat="39.948260" lon="-3.489930">
        <ele>731.895</ele>
        <time>2022-02-25T03:53:10Z</time>
      </trkpt>
      <trkpt lat="39.948180" lon="-3.490080">
        <ele>730.837</ele>
        <time>2022-02-25T03:53:50Z</time>
      </trkpt>
      <trkpt lat="39.948183" lon="-3.490085">
        <ele>730.866</ele>
        <time>2022-02-25T03:54:30Z</time>
      </trkpt>
      <trkpt lat="39.948170" lon="-3.490080">
        <ele>730.716</ele>
        <time>2022-02-25T03:55:10Z</time>
      </trkpt>
      <trkpt lat="39.948150" lon="-3.490080">
        <ele>730.674</ele>
        <time>2022-02-25T03:55:50Z</time>
      </trkpt>
      <trkpt lat="39.948140" lon="-3.490080">
        <ele>730.556</ele>
        <time>2022-02-25T03:56:30Z</time>
      </trkpt>
      <trkpt lat="39.948140" lon="-3.490090">
        <ele>730.521</ele>
        <time>2022-02-25T03:57:10Z</time>
      </trkpt>
      <trkpt lat="39.948130" lon="-3.490090">
        <ele>730.408</ele>
        <time>2022-02-25T03:57:50Z</time>
      </trkpt>
      <trkpt lat="39.948110" lon="-3.490110">
        <ele>730.376</ele>
        <time>2022-02-25T03:58:30Z</time>
      </trkpt>
      <trkpt lat="39.948080" lon="-3.490150">
        <ele>730.133</ele>
        <time>2022-02-25T03:59:10Z</time>
      </trkpt>
      <trkpt lat="39.948030" lon="-3.490220">
        <ele>729.917</ele>
        <time>2022-02-25T03:59:50Z</time>
      </trkpt>
      <trkpt lat="39.948010" lon="-3.490260">
        <ele>729.826</ele>
        <time>2022-02-25T04:00:30Z</time>
      </trkpt>
      <trkpt lat="39.947980" lon="-3.490310">
        <ele>729.926</ele>
        <time>2022-02-25T04:01:10Z</time>
      </trkpt>
      <trkpt lat="39.947920" lon="-3.490440">
        <ele>730.448</ele>
        <time>2022-02-25T04:01:50Z</time>
      </trkpt>
      <trkpt lat="39.947880" lon="-3.490530">
        <ele>730.927</ele>
        <time>2022-02-25T04:02:30Z</time>
      </trkpt>
      <trkpt lat="39.947830" lon="-3.490650">
        <ele>732.067</ele>
        <time>2022-02-25T04:03:10Z</time>
      </trkpt>
      <trkpt lat="39.947770" lon="-3.490820">
        <ele>733.857</ele>
        <time>2022-02-25T04:03:50Z</time>
      </trkpt>
      <trkpt lat="39.947710" lon="-3.490960">
        <ele>733.900</ele>
        <time>2022-02-25T04:04:30Z</time>
      </trkpt>
      <trkpt lat="39.947640" lon="-3.491160">
        <ele>734.020</ele>
        <time>2022-02-25T04:05:10Z</time>
      </trkpt>
      <trkpt lat="39.947620" lon="-3.491190">
        <ele>734.008</ele>
        <time>2022-02-25T04:05:50Z</time>
      </trkpt>
      <trkpt lat="39.947390" lon="-3.491930">
        <ele>731.364</ele>
        <time>2022-02-25T04:06:30Z</time>
      </trkpt>
      <trkpt lat="39.947260" lon="-3.492560">
        <ele>732.131</ele>
        <time>2022-02-25T04:07:10Z</time>
      </trkpt>
      <trkpt lat="39.947170" lon="-3.493300">
        <ele>732.975</ele>
        <time>2022-02-25T04:07:50Z</time>
      </trkpt>
      <trkpt lat="39.947170" lon="-3.493850">
        <ele>731.244</ele>
        <time>2022-02-25T04:08:30Z</time>
      </trkpt>
      <trkpt lat="39.947250" lon="-3.494830">
        <ele>735.374</ele>
        <time>2022-02-25T04:09:10Z</time>
      </trkpt>
      <trkpt lat="39.947260" lon="-3.494990">
        <ele>735.866</ele>
        <time>2022-02-25T04:09:50Z</time>
      </trkpt>
      <trkpt lat="39.947264" lon="-3.494991">
        <ele>735.855</ele>
        <time>2022-02-25T04:10:30Z</time>
      </trkpt>
      <trkpt lat="39.947270" lon="-3.495010">
        <ele>735.825</ele>
        <time>2022-02-25T04:11:10Z</time>
      </trkpt>
      <trkpt lat="39.947280" lon="-3.495140">
        <ele>735.735</ele>
        <time>2022-02-25T04:11:50Z</time>
      </trkpt>
      <trkpt lat="39.947290" lon="-3.495210">
        <ele>735.686</ele>
        <time>2022-02-25T04:12:30Z</time>
      </trkpt>
      <trkpt lat="39.947290" lon="-3.495290">
        <ele>735.514</ele>
        <time>2022-02-25T04:13:10Z</time>
      </trkpt>
      <trkpt lat="39.947300" lon="-3.495380">
        <ele>735.608</ele>
        <time>2022-02-25T04:13:50Z</time>
      </trkpt>
      <trkpt lat="39.947320" lon="-3.495480">
        <ele>735.552</ele>
        <time>2022-02-25T04:14:30Z</time>
      </trkpt>
      <trkpt lat="39.947330" lon="-3.495500">
        <ele>735.469</ele>
        <time>2022-02-25T04:15:10Z</time>
      </trkpt>
      <trkpt lat="39.947350" lon="-3.495530">
        <ele>735.293</ele>
        <time>2022-02-25T04:15:50Z</time>
      </trkpt>
      <trkpt lat="39.947360" lon="-3.495550">
        <ele>735.032</ele>
        <time>2022-02-25T04:16:30Z</time>
      </trkpt>
      <trkpt lat="39.947370" lon="-3.495580">
        <ele>734.952</ele>
        <time>2022-02-25T04:17:10Z</time>
      </trkpt>
      <trkpt lat="39.947380" lon="-3.495610">
        <ele>734.814</ele>
        <time>2022-02-25T04:17:50Z</time>
      </trkpt>
      <trkpt lat="39.947390" lon="-3.495650">
        <ele>734.873</ele>
        <time>2022-02-25T04:18:30Z</time>
      </trkpt>
      <trkpt lat="39.947390" lon="-3.495680">
        <ele>734.953</ele>
        <time>2022-02-25T04:19:10Z</time>
      </trkpt>
      <trkpt lat="39.947390" lon="-3.495710">
        <ele>734.977</ele>
        <time>2022-02-25T04:19:50Z</time>
      </trkpt>
      <trkpt lat="39.947390" lon="-3.495750">
        <ele>735.061</ele>
        <time>2022-02-25T04:20:30Z</time>
      </trkpt>
      <trkpt lat="39.947390" lon="-3.495780">
        <ele>735.127</ele>
        <time>2022-02-25T04:21:10Z</time>
      </trkpt>
      <trkpt lat="39.947380" lon="-3.495810">
        <ele>735.208</ele>
        <time>2022-02-25T04:21:50Z</time>
      </trkpt>
      <trkpt lat="39.947370" lon="-3.495840">
        <ele>735.496</ele>
        <time>2022-02-25T04:22:30Z</time>
      </trkpt>
      <trkpt lat="39.947360" lon="-3.495870">
        <ele>735.453</ele>
        <time>2022-02-25T04:23:10Z</time>
      </trkpt>
      <trkpt lat="39.947350" lon="-3.495900">
        <ele>735.457</ele>
        <time>2022-02-25T04:23:50Z</time>
      </trkpt>
      <trkpt lat="39.947330" lon="-3.495930">
        <ele>735.586</ele>
        <time>2022-02-25T04:24:30Z</time>
      </trkpt>
      <trkpt lat="39.947310" lon="-3.495950">
        <ele>735.616</ele>
        <time>2022-02-25T04:25:10Z</time>
      </trkpt>
      <trkpt lat="39.947310" lon="-3.495960">
        <ele>735.658</ele>
        <time>2022-02-25T04:25:50Z</time>
      </trkpt>
      <trkpt lat="39.947300" lon="-3.495960">
        <ele>735.717</ele>
        <time>2022-02-25T04:26:30Z</time>
      </trkpt>
      <trkpt lat="39.947300" lon="-3.495970">
        <ele>735.797</ele>
        <time>2022-02-25T04:27:10Z</time>
      </trkpt>
      <trkpt lat="39.947290" lon="-3.495970">
        <ele>735.877</ele>
        <time>2022-02-25T04:27:50Z</time>
      </trkpt>
      <trkpt lat="39.947290" lon="-3.495980">
        <ele>735.761</ele>
        <time>2022-02-25T04:28:30Z</time>
      </trkpt>
      <trkpt lat="39.947280" lon="-3.495980">
        <ele>735.827</ele>
        <time>2022-02-25T04:29:10Z</time>
      </trkpt>
      <trkpt lat="39.947280" lon="-3.495990">
        <ele>735.808</ele>
        <time>2022-02-25T04:29:50Z</time>
      </trkpt>
      <trkpt lat="39.947270" lon="-3.495990">
        <ele>735.956</ele>
        <time>2022-02-25T04:30:30Z</time>
      </trkpt>
      <trkpt lat="39.947280" lon="-3.496150">
        <ele>735.023</ele>
        <time>2022-02-25T04:31:10Z</time>
      </trkpt>
      <trkpt lat="39.947300" lon="-3.496280">
        <ele>733.867</ele>
        <time>2022-02-25T04:31:50Z</time>
      </trkpt>
      <trkpt lat="39.947310" lon="-3.496350">
        <ele>733.326</ele>
        <time>2022-02-25T04:32:30Z</time>
      </trkpt>
      <trkpt lat="39.947330" lon="-3.496450">
        <ele>732.926</ele>
        <time>2022-02-25T04:33:10Z</time>
      </trkpt>
      <trkpt lat="39.947340" lon="-3.496530">
        <ele>732.718</ele>
        <time>2022-02-25T04:33:50Z</time>
      </trkpt>
      <trkpt lat="39.947580" lon="-3.497050">
        <ele>737.587</ele>
        <time>2022-02-25T04:34:30Z</time>
      </trkpt>
      <trkpt lat="39.947800" lon="-3.497440">
        <ele>738.957</ele>
        <time>2022-02-25T04:35:10Z</time>
      </trkpt>
      <trkpt lat="39.948100" lon="-3.497920">
        <ele>734.378</ele>
        <time>2022-02-25T04:35:50Z</time>
      </trkpt>
      <trkpt lat="39.948550" lon="-3.498720">
        <ele>734.533</ele>
        <time>2022-02-25T04:36:30Z</time>
      </trkpt>
      <trkpt lat="39.948810" lon="-3.499250">
        <ele>734.426</ele>
        <time>2022-02-25T04:37:10Z</time>
      </trkpt>
      <trkpt lat="39.948830" lon="-3.499300">
        <ele>734.308</ele>
        <time>2022-02-25T04:37:50Z</time>
      </trkpt>
      <trkpt lat="39.949000" lon="-3.499760">
        <ele>733.946</ele>
        <time>2022-02-25T04:38:30Z</time>
      </trkpt>
      <trkpt lat="39.949210" lon="-3.500360">
        <ele>734.693</ele>
        <time>2022-02-25T04:39:10Z</time>
      </trkpt>
      <trkpt lat="39.949210" lon="-3.500359">
        <ele>734.627</ele>
        <time>2022-02-25T04:39:50Z</time>
      </trkpt>
      <trkpt lat="39.949380" lon="-3.500680">
        <ele>735.486</ele>
        <time>2022-02-25T04:40:30Z</time>
      </trkpt>
      <trkpt lat="39.949450" lon="-3.500810">
        <ele>735.156</ele>
        <time>2022-02-25T04:41:10Z</time>
      </trkpt>
      <trkpt lat="39.949530" lon="-3.500950">
        <ele>734.458</ele>
        <time>2022-02-25T04:41:50Z</time>
      </trkpt>
      <trkpt lat="39.949690" lon="-3.501230">
        <ele>733.597</ele>
        <time>2022-02-25T04:42:30Z</time>
      </trkpt>
      <trkpt lat="39.949730" lon="-3.501310">
        <ele>733.367</ele>
        <time>2022-02-25T04:43:10Z</time>
      </trkpt>
      <trkpt lat="39.949830" lon="-3.501490">
        <ele>732.099</ele>
        <time>2022-02-25T04:43:50Z</time>
      </trkpt>
      <trkpt lat="39.949840" lon="-3.501500">
        <ele>732.007</ele>
        <time>2022-02-25T04:44:30Z</time>
      </trkpt>
      <trkpt lat="39.949880" lon="-3.501590">
        <ele>731.227</ele>
        <time>2022-02-25T04:45:10Z</time>
      </trkpt>
      <trkpt lat="39.950100" lon="-3.501970">
        <ele>731.808</ele>
        <time>2022-02-25T04:45:50Z</time>
      </trkpt>
      <trkpt lat="39.950400" lon="-3.502480">
        <ele>732.688</ele>
        <time>2022-02-25T04:46:30Z</time>
      </trkpt>
      <trkpt lat="39.950760" lon="-3.503100">
        <ele>730.315</ele>
        <time>2022-02-25T04:47:10Z</time>
      </trkpt>
      <trkpt lat="39.950950" lon="-3.503430">
        <ele>730.689</ele>
        <time>2022-02-25T04:47:50Z</time>
      </trkpt>
      <trkpt lat="39.951110" lon="-3.503700">
        <ele>734.028</ele>
        <time>2022-02-25T04:48:30Z</time>
      </trkpt>
      <trkpt lat="39.951160" lon="-3.503780">
        <ele>735.138</ele>
        <time>2022-02-25T04:49:10Z</time>
      </trkpt>
      <trkpt lat="39.951590" lon="-3.504560">
        <ele>732.010</ele>
        <time>2022-02-25T04:49:50Z</time>
      </trkpt>
      <trkpt lat="39.951660" lon="-3.504690">
        <ele>731.139</ele>
        <time>2022-02-25T04:50:30Z</time>
      </trkpt>
      <trkpt lat="39.951780" lon="-3.504890">
        <ele>730.039</ele>
        <time>2022-02-25T04:51:10Z</time>
      </trkpt>
      <trkpt lat="39.951930" lon="-3.505120">
        <ele>730.492</ele>
        <time>2022-02-25T04:51:50Z</time>
      </trkpt>
      <trkpt lat="39.952050" lon="-3.505280">
        <ele>731.873</ele>
        <time>2022-02-25T04:52:30Z</time>
      </trkpt>
      <trkpt lat="39.952130" lon="-3.505390">
        <ele>732.620</ele>
        <time>2022-02-25T04:53:10Z</time>
      </trkpt>
      <trkpt lat="39.952170" lon="-3.505460">
        <ele>732.908</ele>
        <time>2022-02-25T04:53:50Z</time>
      </trkpt>
      <trkpt lat="39.952290" lon="-3.505640">
        <ele>733.348</ele>
        <time>2022-02-25T04:54:30Z</time>
      </trkpt>
      <trkpt lat="39.952310" lon="-3.505680">
        <ele>733.395</ele>
        <time>2022-02-25T04:55:10Z</time>
      </trkpt>
      <trkpt lat="39.952340" lon="-3.505720">
        <ele>733.359</ele>
        <time>2022-02-25T04:55:50Z</time>
      </trkpt>
      <trkpt lat="39.952540" lon="-3.505970">
        <ele>730.968</ele>
        <time>2022-02-25T04:56:30Z</time>
      </trkpt>
      <trkpt lat="39.952580" lon="-3.506010">
        <ele>730.578</ele>
        <time>2022-02-25T04:57:10Z</time>
      </trkpt>
      <trkpt lat="39.952710" lon="-3.506180">
        <ele>729.020</ele>
        <time>2022-02-25T04:57:50Z</time>
      </trkpt>
      <trkpt lat="39.952707" lon="-3.506177">
        <ele>729.019</ele>
        <time>2022-02-25T04:58:30Z</time>
      </trkpt>
      <trkpt lat="39.952720" lon="-3.506160">
        <ele>729.079</ele>
        <time>2022-02-25T04:59:10Z</time>
      </trkpt>
      <trkpt lat="39.952730" lon="-3.506150">
        <ele>729.066</ele>
        <time>2022-02-25T04:59:50Z</time>
      </trkpt>
      <trkpt lat="39.952740" lon="-3.506150">
        <ele>729.029</ele>
        <time>2022-02-25T05:00:30Z</time>
      </trkpt>
      <trkpt lat="39.952750" lon="-3.506140">
        <ele>729.021</ele>
        <time>2022-02-25T05:01:10Z</time>
      </trkpt>
      <trkpt lat="39.952760" lon="-3.506130">
        <ele>729.008</ele>
        <time>2022-02-25T05:01:50Z</time>
      </trkpt>
      <trkpt lat="39.952770" lon="-3.506130">
        <ele>729.095</ele>
        <time>2022-02-25T05:02:30Z</time>
      </trkpt>
      <trkpt lat="39.952780" lon="-3.506120">
        <ele>729.032</ele>
        <time>2022-02-25T05:03:10Z</time>
      </trkpt>
      <trkpt lat="39.952790" lon="-3.506120">
        <ele>729.066</ele>
        <time>2022-02-25T05:03:50Z</time>
      </trkpt>
      <trkpt lat="39.952800" lon="-3.506110">
        <ele>729.055</ele>
        <time>2022-02-25T05:04:30Z</time>
      </trkpt>
      <trkpt lat="39.952820" lon="-3.506110">
        <ele>729.065</ele>
        <time>2022-02-25T05:05:10Z</time>
      </trkpt>
      <trkpt lat="39.952830" lon="-3.506110">
        <ele>729.017</ele>
        <time>2022-02-25T05:05:50Z</time>
      </trkpt>
      <trkpt lat="39.952840" lon="-3.506110">
        <ele>729.096</ele>
        <time>2022-02-25T05:06:30Z</time>
      </trkpt>
      <trkpt lat="39.952850" lon="-3.506120">
        <ele>729.096</ele>
        <time>2022-02-25T05:07:10Z</time>
      </trkpt>
      <trkpt lat="39.952860" lon="-3.506120">
        <ele>729.039</ele>
        <time>2022-02-25T05:07:50Z</time>
      </trkpt>
      <trkpt lat="39.952880" lon="-3.506120">
        <ele>729.001</ele>
        <time>2022-02-25T05:08:30Z</time>
      </trkpt>
      <trkpt lat="39.952890" lon="-3.506130">
        <ele>729.021</ele>
        <time>2022-02-25T05:09:10Z</time>
      </trkpt>
      <trkpt lat="39.952900" lon="-3.506130">
        <ele>729.008</ele>
        <time>2022-02-25T05:09:50Z</time>
      </trkpt>
      <trkpt lat="39.952910" lon="-3.506140">
        <ele>728.942</ele>
        <time>2022-02-25T05:10:30Z</time>
      </trkpt>
      <trkpt lat="39.952920" lon="-3.506150">
        <ele>728.959</ele>
        <time>2022-02-25T05:11:10Z</time>
      </trkpt>
      <trkpt lat="39.952930" lon="-3.506160">
        <ele>728.983</ele>
        <time>2022-02-25T05:11:50Z</time>
      </trkpt>
      <trkpt lat="39.952940" lon="-3.506170">
        <ele>728.982</ele>
        <time>2022-02-25T05:12:30Z</time>
      </trkpt>
      <trkpt lat="39.952950" lon="-3.506180">
        <ele>728.942</ele>
        <time>2022-02-25T05:13:10Z</time>
      </trkpt>
      <trkpt lat="39.952960" lon="-3.506200">
        <ele>728.964</ele>
        <time>2022-02-25T05:13:50Z</time>
      </trkpt>
      <trkpt lat="39.952970" lon="-3.506220">
        <ele>728.943</ele>
        <time>2022-02-25T05:14:30Z</time>
      </trkpt>
      <trkpt lat="39.952970" lon="-3.506230">
        <ele>728.993</ele>
        <time>2022-02-25T05:15:10Z</time>
      </trkpt>
      <trkpt lat="39.952980" lon="-3.506240">
        <ele>728.921</ele>
        <time>2022-02-25T05:15:50Z</time>
      </trkpt>
      <trkpt lat="39.952980" lon="-3.506260">
        <ele>728.941</ele>
        <time>2022-02-25T05:16:30Z</time>
      </trkpt>
      <trkpt lat="39.952980" lon="-3.506270">
        <ele>728.805</ele>
        <time>2022-02-25T05:17:10Z</time>
      </trkpt>
      <trkpt lat="39.952990" lon="-3.506290">
        <ele>728.808</ele>
        <time>2022-02-25T05:17:50Z</time>
      </trkpt>
      <trkpt lat="39.952990" lon="-3.506310">
        <ele>728.861</ele>
        <time>2022-02-25T05:18:30Z</time>
      </trkpt>
      <trkpt lat="39.952990" lon="-3.506320">
        <ele>728.898</ele>
        <time>2022-02-25T05:19:10Z</time>
      </trkpt>
      <trkpt lat="39.952990" lon="-3.506340">
        <ele>728.832</ele>
        <time>2022-02-25T05:19:50Z</time>
      </trkpt>
      <trkpt lat="39.952990" lon="-3.506350">
        <ele>728.891</ele>
        <time>2022-02-25T05:20:30Z</time>
      </trkpt>
      <trkpt lat="39.952990" lon="-3.506370">
        <ele>728.871</ele>
        <time>2022-02-25T05:21:10Z</time>
      </trkpt>
      <trkpt lat="39.952980" lon="-3.506380">
        <ele>728.723</ele>
        <time>2022-02-25T05:21:50Z</time>
      </trkpt>
      <trkpt lat="39.952980" lon="-3.506400">
        <ele>728.842</ele>
        <time>2022-02-25T05:22:30Z</time>
      </trkpt>
      <trkpt lat="39.952980" lon="-3.506410">
        <ele>728.872</ele>
        <time>2022-02-25T05:23:10Z</time>
      </trkpt>
      <trkpt lat="39.952970" lon="-3.506430">
        <ele>728.829</ele>
        <time>2022-02-25T05:23:50Z</time>
      </trkpt>
      <trkpt lat="39.952960" lon="-3.506440">
        <ele>728.800</ele>
        <time>2022-02-25T05:24:30Z</time>
      </trkpt>
      <trkpt lat="39.952960" lon="-3.506450">
        <ele>728.920</ele>
        <time>2022-02-25T05:25:10Z</time>
      </trkpt>
      <trkpt lat="39.952950" lon="-3.506460">
        <ele>728.908</ele>
        <time>2022-02-25T05:25:50Z</time>
      </trkpt>
      <trkpt lat="39.952940" lon="-3.506480">
        <ele>728.951</ele>
        <time>2022-02-25T05:26:30Z</time>
      </trkpt>
      <trkpt lat="39.952930" lon="-3.506490">
        <ele>728.928</ele>
        <time>2022-02-25T05:27:10Z</time>
      </trkpt>
      <trkpt lat="39.952920" lon="-3.506500">
        <ele>728.922</ele>
        <time>2022-02-25T05:27:50Z</time>
      </trkpt>
      <trkpt lat="39.952910" lon="-3.506510">
        <ele>728.981</ele>
        <time>2022-02-25T05:28:30Z</time>
      </trkpt>
      <trkpt lat="39.952900" lon="-3.506510">
        <ele>728.961</ele>
        <time>2022-02-25T05:29:10Z</time>
      </trkpt>
      <trkpt lat="39.952890" lon="-3.506520">
        <ele>728.983</ele>
        <time>2022-02-25T05:29:50Z</time>
      </trkpt>
      <trkpt lat="39.952880" lon="-3.506530">
        <ele>728.922</ele>
        <time>2022-02-25T05:30:30Z</time>
      </trkpt>
      <trkpt lat="39.952870" lon="-3.506530">
        <ele>728.852</ele>
        <time>2022-02-25T05:31:10Z</time>
      </trkpt>
      <trkpt lat="39.952850" lon="-3.506540">
        <ele>728.817</ele>
        <time>2022-02-25T05:31:50Z</time>
      </trkpt>
      <trkpt lat="39.952840" lon="-3.506540">
        <ele>728.887</ele>
        <time>2022-02-25T05:32:30Z</time>
      </trkpt>
      <trkpt lat="39.952830" lon="-3.506540">
        <ele>728.715</ele>
        <time>2022-02-25T05:33:10Z</time>
      </trkpt>
      <trkpt lat="39.952820" lon="-3.506540">
        <ele>728.708</ele>
        <time>2022-02-25T05:33:50Z</time>
      </trkpt>
      <trkpt lat="39.952810" lon="-3.506540">
        <ele>728.760</ele>
        <time>2022-02-25T05:34:30Z</time>
      </trkpt>
      <trkpt lat="39.952790" lon="-3.506540">
        <ele>728.617</ele>
        <time>2022-02-25T05:35:10Z</time>
      </trkpt>
      <trkpt lat="39.952780" lon="-3.506530">
        <ele>728.561</ele>
        <time>2022-02-25T05:35:50Z</time>
      </trkpt>
      <trkpt lat="39.952770" lon="-3.506530">
        <ele>728.550</ele>
        <time>2022-02-25T05:36:30Z</time>
      </trkpt>
      <trkpt lat="39.952760" lon="-3.506520">
        <ele>728.560</ele>
        <time>2022-02-25T05:37:10Z</time>
      </trkpt>
      <trkpt lat="39.952750" lon="-3.506520">
        <ele>728.632</ele>
        <time>2022-02-25T05:37:50Z</time>
      </trkpt>
      <trkpt lat="39.952740" lon="-3.506510">
        <ele>728.671</ele>
        <time>2022-02-25T05:38:30Z</time>
      </trkpt>
      <trkpt lat="39.952730" lon="-3.506500">
        <ele>728.651</ele>
        <time>2022-02-25T05:39:10Z</time>
      </trkpt>
      <trkpt lat="39.952710" lon="-3.506490">
        <ele>728.613</ele>
        <time>2022-02-25T05:39:50Z</time>
      </trkpt>
      <trkpt lat="39.952600" lon="-3.506590">
        <ele>729.443</ele>
        <time>2022-02-25T05:40:30Z</time>
      </trkpt>
      <trkpt lat="39.952430" lon="-3.506770">
        <ele>730.607</ele>
        <time>2022-02-25T05:41:10Z</time>
      </trkpt>
      <trkpt lat="39.952080" lon="-3.507130">
        <ele>733.508</ele>
        <time>2022-02-25T05:41:50Z</time>
      </trkpt>
      <trkpt lat="39.952077" lon="-3.507132">
        <ele>733.650</ele>
        <time>2022-02-25T05:42:30Z</time>
      </trkpt>
      <trkpt lat="39.951910" lon="-3.507270">
        <ele>735.457</ele>
        <time>2022-02-25T05:43:10Z</time>
      </trkpt>
      <trkpt lat="39.951880" lon="-3.507290">
        <ele>735.711</ele>
        <time>2022-02-25T05:43:50Z</time>
      </trkpt>
      <trkpt lat="39.951840" lon="-3.507320">
        <ele>736.090</ele>
        <time>2022-02-25T05:44:30Z</time>
      </trkpt>
      <trkpt lat="39.951770" lon="-3.507370">
        <ele>736.550</ele>
        <time>2022-02-25T05:45:10Z</time>
      </trkpt>
      <trkpt lat="39.951720" lon="-3.507390">
        <ele>736.772</ele>
        <time>2022-02-25T05:45:50Z</time>
      </trkpt>
      <trkpt lat="39.951670" lon="-3.507430">
        <ele>737.031</ele>
        <time>2022-02-25T05:46:30Z</time>
      </trkpt>
      <trkpt lat="39.951560" lon="-3.507480">
        <ele>736.651</ele>
        <time>2022-02-25T05:47:10Z</time>
      </trkpt>
      <trkpt lat="39.951390" lon="-3.507560">
        <ele>735.863</ele>
        <time>2022-02-25T05:47:50Z</time>
      </trkpt>
      <trkpt lat="39.951320" lon="-3.507590">
        <ele>734.944</ele>
        <time>2022-02-25T05:48:30Z</time>
      </trkpt>
      <trkpt lat="39.951080" lon="-3.507700">
        <ele>732.318</ele>
        <time>2022-02-25T05:49:10Z</time>
      </trkpt>
      <trkpt lat="39.950710" lon="-3.507850">
        <ele>734.008</ele>
        <time>2022-02-25T05:49:50Z</time>
      </trkpt>
      <trkpt lat="39.950670" lon="-3.507900">
        <ele>734.595</ele>
        <time>2022-02-25T05:50:30Z</time>
      </trkpt>
      <trkpt lat="39.950580" lon="-3.507970">
        <ele>735.362</ele>
        <time>2022-02-25T05:51:10Z</time>
      </trkpt>
      <trkpt lat="39.950550" lon="-3.507990">
        <ele>735.546</ele>
        <time>2022-02-25T05:51:50Z</time>
      </trkpt>
      <trkpt lat="39.950520" lon="-3.508020">
        <ele>735.675</ele>
        <time>2022-02-25T05:52:30Z</time>
      </trkpt>
      <trkpt lat="39.950490" lon="-3.508050">
        <ele>735.755</ele>
        <time>2022-02-25T05:53:10Z</time>
      </trkpt>
      <trkpt lat="39.950460" lon="-3.508090">
        <ele>735.747</ele>
        <time>2022-02-25T05:53:50Z</time>
      </trkpt>
      <trkpt lat="39.950440" lon="-3.508140">
        <ele>735.666</ele>
        <time>2022-02-25T05:54:30Z</time>
      </trkpt>
      <trkpt lat="39.950410" lon="-3.508180">
        <ele>735.566</ele>
        <time>2022-02-25T05:55:10Z</time>
      </trkpt>
      <trkpt lat="39.950390" lon="-3.508240">
        <ele>735.483</ele>
        <time>2022-02-25T05:55:50Z</time>
      </trkpt>
      <trkpt lat="39.950380" lon="-3.508300">
        <ele>735.425</ele>
        <time>2022-02-25T05:56:30Z</time>
      </trkpt>
      <trkpt lat="39.950370" lon="-3.508310">
        <ele>735.317</ele>
        <time>2022-02-25T05:57:10Z</time>
      </trkpt>
      <trkpt lat="39.950350" lon="-3.508380">
        <ele>735.008</ele>
        <time>2022-02-25T05:57:50Z</time>
      </trkpt>
      <trkpt lat="39.950330" lon="-3.508520">
        <ele>734.437</ele>
        <time>2022-02-25T05:58:30Z</time>
      </trkpt>
      <trkpt lat="39.950325" lon="-3.508521">
        <ele>734.434</ele>
        <time>2022-02-25T05:59:10Z</time>
      </trkpt>
      <trkpt lat="39.950330" lon="-3.508530">
        <ele>734.398</ele>
        <time>2022-02-25T05:59:50Z</time>
      </trkpt>
      <trkpt lat="39.950330" lon="-3.508550">
        <ele>734.317</ele>
        <time>2022-02-25T06:00:30Z</time>
      </trkpt>
      <trkpt lat="39.950330" lon="-3.508560">
        <ele>734.237</ele>
        <time>2022-02-25T06:01:10Z</time>
      </trkpt>
      <trkpt lat="39.950330" lon="-3.508570">
        <ele>734.289</ele>
        <time>2022-02-25T06:01:50Z</time>
      </trkpt>
      <trkpt lat="39.950340" lon="-3.508580">
        <ele>734.128</ele>
        <time>2022-02-25T06:02:30Z</time>
      </trkpt>
      <trkpt lat="39.950340" lon="-3.508600">
        <ele>734.078</ele>
        <time>2022-02-25T06:03:10Z</time>
      </trkpt>
      <trkpt lat="39.950340" lon="-3.508610">
        <ele>734.062</ele>
        <time>2022-02-25T06:03:50Z</time>
      </trkpt>
      <trkpt lat="39.950340" lon="-3.508620">
        <ele>733.983</ele>
        <time>2022-02-25T06:04:30Z</time>
      </trkpt>
      <trkpt lat="39.950340" lon="-3.508630">
        <ele>733.911</ele>
        <time>2022-02-25T06:05:10Z</time>
      </trkpt>
      <trkpt lat="39.950340" lon="-3.508640">
        <ele>733.808</ele>
        <time>2022-02-25T06:05:50Z</time>
      </trkpt>
      <trkpt lat="39.950340" lon="-3.508660">
        <ele>733.635</ele>
        <time>2022-02-25T06:06:30Z</time>
      </trkpt>
      <trkpt lat="39.950340" lon="-3.508670">
        <ele>733.642</ele>
        <time>2022-02-25T06:07:10Z</time>
      </trkpt>
      <trkpt lat="39.950350" lon="-3.508680">
        <ele>733.566</ele>
        <time>2022-02-25T06:07:50Z</time>
      </trkpt>
      <trkpt lat="39.950350" lon="-3.508690">
        <ele>733.455</ele>
        <time>2022-02-25T06:08:30Z</time>
      </trkpt>
      <trkpt lat="39.950350" lon="-3.508700">
        <ele>733.415</ele>
        <time>2022-02-25T06:09:10Z</time>
      </trkpt>
      <trkpt lat="39.950350" lon="-3.508710">
        <ele>733.397</ele>
        <time>2022-02-25T06:09:50Z</time>
      </trkpt>
      <trkpt lat="39.950350" lon="-3.508730">
        <ele>733.186</ele>
        <time>2022-02-25T06:10:30Z</time>
      </trkpt>
      <trkpt lat="39.950340" lon="-3.508750">
        <ele>733.076</ele>
        <time>2022-02-25T06:11:10Z</time>
      </trkpt>
      <trkpt lat="39.950340" lon="-3.508780">
        <ele>732.819</ele>
        <time>2022-02-25T06:11:50Z</time>
      </trkpt>
      <trkpt lat="39.950340" lon="-3.508800">
        <ele>732.609</ele>
        <time>2022-02-25T06:12:30Z</time>
      </trkpt>
      <trkpt lat="39.950340" lon="-3.508820">
        <ele>732.519</ele>
        <time>2022-02-25T06:13:10Z</time>
      </trkpt>
      <trkpt lat="39.950330" lon="-3.508840">
        <ele>732.408</ele>
        <time>2022-02-25T06:13:50Z</time>
      </trkpt>
      <trkpt lat="39.950330" lon="-3.508860">
        <ele>732.230</ele>
        <time>2022-02-25T06:14:30Z</time>
      </trkpt>
      <trkpt lat="39.950330" lon="-3.508890">
        <ele>732.047</ele>
        <time>2022-02-25T06:15:10Z</time>
      </trkpt>
      <trkpt lat="39.950320" lon="-3.508900">
        <ele>731.941</ele>
        <time>2022-02-25T06:15:50Z</time>
      </trkpt>
      <trkpt lat="39.950320" lon="-3.508920">
        <ele>731.690</ele>
        <time>2022-02-25T06:16:30Z</time>
      </trkpt>
      <trkpt lat="39.950310" lon="-3.508940">
        <ele>731.440</ele>
        <time>2022-02-25T06:17:10Z</time>
      </trkpt>
      <trkpt lat="39.950310" lon="-3.508960">
        <ele>731.242</ele>
        <time>2022-02-25T06:17:50Z</time>
      </trkpt>
      <trkpt lat="39.950300" lon="-3.508980">
        <ele>731.081</ele>
        <time>2022-02-25T06:18:30Z</time>
      </trkpt>
      <trkpt lat="39.950300" lon="-3.508990">
        <ele>730.921</ele>
        <time>2022-02-25T06:19:10Z</time>
      </trkpt>
      <trkpt lat="39.950290" lon="-3.509010">
        <ele>730.731</ele>
        <time>2022-02-25T06:19:50Z</time>
      </trkpt>
      <trkpt lat="39.950280" lon="-3.509030">
        <ele>730.561</ele>
        <time>2022-02-25T06:20:30Z</time>
      </trkpt>
      <trkpt lat="39.950270" lon="-3.509040">
        <ele>730.307</ele>
        <time>2022-02-25T06:21:10Z</time>
      </trkpt>
      <trkpt lat="39.950270" lon="-3.509050">
        <ele>730.208</ele>
        <time>2022-02-25T06:21:50Z</time>
      </trkpt>
      <trkpt lat="39.950260" lon="-3.509050">
        <ele>730.242</ele>
        <time>2022-02-25T06:22:30Z</time>
      </trkpt>
      <trkpt lat="39.950260" lon="-3.509060">
        <ele>730.129</ele>
        <time>2022-02-25T06:23:10Z</time>
      </trkpt>
      <trkpt lat="39.950250" lon="-3.509060">
        <ele>730.013</ele>
        <time>2022-02-25T06:23:50Z</time>
      </trkpt>
      <trkpt lat="39.950250" lon="-3.509070">
        <ele>729.962</ele>
        <time>2022-02-25T06:24:30Z</time>
      </trkpt>
      <trkpt lat="39.950240" lon="-3.509070">
        <ele>729.962</ele>
        <time>2022-02-25T06:25:10Z</time>
      </trkpt>
      <trkpt lat="39.950240" lon="-3.509210">
        <ele>728.674</ele>
        <time>2022-02-25T06:25:50Z</time>
      </trkpt>
      <trkpt lat="39.950240" lon="-3.509250">
        <ele>728.383</ele>
        <time>2022-02-25T06:26:30Z</time>
      </trkpt>
      <trkpt lat="39.950240" lon="-3.509290">
        <ele>728.053</ele>
        <time>2022-02-25T06:27:10Z</time>
      </trkpt>
      <trkpt lat="39.950250" lon="-3.509310">
        <ele>727.996</ele>
        <time>2022-02-25T06:27:50Z</time>
      </trkpt>
      <trkpt lat="39.950260" lon="-3.509410">
        <ele>727.231</ele>
        <time>2022-02-25T06:28:30Z</time>
      </trkpt>
      <trkpt lat="39.950380" lon="-3.509780">
        <ele>725.924</ele>
        <time>2022-02-25T06:29:10Z</time>
      </trkpt>
      <trkpt lat="39.950400" lon="-3.509850">
        <ele>726.108</ele>
        <time>2022-02-25T06:29:50Z</time>
      </trkpt>
      <trkpt lat="39.950430" lon="-3.509930">
        <ele>726.148</ele>
        <time>2022-02-25T06:30:30Z</time>
      </trkpt>
      <trkpt lat="39.950490" lon="-3.510150">
        <ele>727.655</ele>
        <time>2022-02-25T06:31:10Z</time>
      </trkpt>
      <trkpt lat="39.950530" lon="-3.510280">
        <ele>729.179</ele>
        <time>2022-02-25T06:31:50Z</time>
      </trkpt>
      <trkpt lat="39.950590" lon="-3.510490">
        <ele>731.348</ele>
        <time>2022-02-25T06:32:30Z</time>
      </trkpt>
      <trkpt lat="39.950650" lon="-3.510710">
        <ele>732.458</ele>
        <time>2022-02-25T06:33:10Z</time>
      </trkpt>
      <trkpt lat="39.950700" lon="-3.510900">
        <ele>732.290</ele>
        <time>2022-02-25T06:33:50Z</time>
      </trkpt>
      <trkpt lat="39.950730" lon="-3.511060">
        <ele>731.699</ele>
        <time>2022-02-25T06:34:30Z</time>
      </trkpt>
      <trkpt lat="39.950770" lon="-3.511270">
        <ele>730.589</ele>
        <time>2022-02-25T06:35:10Z</time>
      </trkpt>
      <trkpt lat="39.950790" lon="-3.511420">
        <ele>729.999</ele>
        <time>2022-02-25T06:35:50Z</time>
      </trkpt>
      <trkpt lat="39.950810" lon="-3.511600">
        <ele>729.207</ele>
        <time>2022-02-25T06:36:30Z</time>
      </trkpt>
      <trkpt lat="39.950820" lon="-3.511840">
        <ele>728.427</ele>
        <time>2022-02-25T06:37:10Z</time>
      </trkpt>
      <trkpt lat="39.950830" lon="-3.512020">
        <ele>728.008</ele>
        <time>2022-02-25T06:37:50Z</time>
      </trkpt>
      <trkpt lat="39.950830" lon="-3.512270">
        <ele>728.088</ele>
        <time>2022-02-25T06:38:30Z</time>
      </trkpt>
      <trkpt lat="39.950830" lon="-3.513090">
        <ele>729.045</ele>
        <time>2022-02-25T06:39:10Z</time>
      </trkpt>
      <trkpt lat="39.950810" lon="-3.516660">
        <ele>727.029</ele>
        <time>2022-02-25T06:39:50Z</time>
      </trkpt>
      <trkpt lat="39.950820" lon="-3.517140">
        <ele>727.918</ele>
        <time>2022-02-25T06:40:30Z</time>
      </trkpt>
      <trkpt lat="39.950830" lon="-3.517370">
        <ele>728.088</ele>
        <time>2022-02-25T06:41:10Z</time>
      </trkpt>
      <trkpt lat="39.950840" lon="-3.517530">
        <ele>727.820</ele>
        <time>2022-02-25T06:41:50Z</time>
      </trkpt>
      <trkpt lat="39.950860" lon="-3.517670">
        <ele>726.979</ele>
        <time>2022-02-25T06:42:30Z</time>
      </trkpt>
      <trkpt lat="39.950860" lon="-3.517730">
        <ele>726.489</ele>
        <time>2022-02-25T06:43:10Z</time>
      </trkpt>
      <trkpt lat="39.950970" lon="-3.518400">
        <ele>726.275</ele>
        <time>2022-02-25T06:43:50Z</time>
      </trkpt>
      <trkpt lat="39.950980" lon="-3.518460">
        <ele>726.928</ele>
        <time>2022-02-25T06:44:30Z</time>
      </trkpt>
      <trkpt lat="39.951050" lon="-3.518840">
        <ele>729.720</ele>
        <time>2022-02-25T06:45:10Z</time>
      </trkpt>
      <trkpt lat="39.951110" lon="-3.519270">
        <ele>729.608</ele>
        <time>2022-02-25T06:45:50Z</time>
      </trkpt>
      <trkpt lat="39.951140" lon="-3.519610">
        <ele>728.426</ele>
        <time>2022-02-25T06:46:30Z</time>
      </trkpt>
      <trkpt lat="39.951140" lon="-3.519990">
        <ele>728.083</ele>
        <time>2022-02-25T06:47:10Z</time>
      </trkpt>
      <trkpt lat="39.951130" lon="-3.520290">
        <ele>728.197</ele>
        <time>2022-02-25T06:47:50Z</time>
      </trkpt>
      <trkpt lat="39.951080" lon="-3.520710">
        <ele>727.316</ele>
        <time>2022-02-25T06:48:30Z</time>
      </trkpt>
      <trkpt lat="39.951020" lon="-3.521040">
        <ele>726.276</ele>
        <time>2022-02-25T06:49:10Z</time>
      </trkpt>
      <trkpt lat="39.950940" lon="-3.521390">
        <ele>726.468</ele>
        <time>2022-02-25T06:49:50Z</time>
      </trkpt>
      <trkpt lat="39.950940" lon="-3.521400">
        <ele>726.467</ele>
        <time>2022-02-25T06:50:30Z</time>
      </trkpt>
      <trkpt lat="39.950850" lon="-3.521690">
        <ele>726.037</ele>
        <time>2022-02-25T06:51:10Z</time>
      </trkpt>
      <trkpt lat="39.950750" lon="-3.521940">
        <ele>725.673</ele>
        <time>2022-02-25T06:51:50Z</time>
      </trkpt>
      <trkpt lat="39.950690" lon="-3.522070">
        <ele>725.885</ele>
        <time>2022-02-25T06:52:30Z</time>
      </trkpt>
      <trkpt lat="39.950590" lon="-3.522250">
        <ele>725.913</ele>
        <time>2022-02-25T06:53:10Z</time>
      </trkpt>
      <trkpt lat="39.950560" lon="-3.522310">
        <ele>726.008</ele>
        <time>2022-02-25T06:53:50Z</time>
      </trkpt>
      <trkpt lat="39.950380" lon="-3.522590">
        <ele>727.386</ele>
        <time>2022-02-25T06:54:30Z</time>
      </trkpt>
      <trkpt lat="39.950370" lon="-3.522590">
        <ele>727.373</ele>
        <time>2022-02-25T06:55:10Z</time>
      </trkpt>
      <trkpt lat="39.950230" lon="-3.522810">
        <ele>728.037</ele>
        <time>2022-02-25T06:55:50Z</time>
      </trkpt>
      <trkpt lat="39.950000" lon="-3.523050">
        <ele>727.026</ele>
        <time>2022-02-25T06:56:30Z</time>
      </trkpt>
      <trkpt lat="39.949980" lon="-3.523070">
        <ele>726.866</ele>
        <time>2022-02-25T06:57:10Z</time>
      </trkpt>
      <trkpt lat="39.949720" lon="-3.523320">
        <ele>724.198</ele>
        <time>2022-02-25T06:57:50Z</time>
      </trkpt>
      <trkpt lat="39.949660" lon="-3.523370">
        <ele>724.237</ele>
        <time>2022-02-25T06:58:30Z</time>
      </trkpt>
      <trkpt lat="39.949490" lon="-3.523490">
        <ele>724.497</ele>
        <time>2022-02-25T06:59:10Z</time>
      </trkpt>
      <trkpt lat="39.949460" lon="-3.523520">
        <ele>724.365</ele>
        <time>2022-02-25T06:59:50Z</time>
      </trkpt>
      <trkpt lat="39.949420" lon="-3.523540">
        <ele>724.368</ele>
        <time>2022-02-25T07:00:30Z</time>
      </trkpt>
      <trkpt lat="39.949370" lon="-3.523610">
        <ele>724.014</ele>
        <time>2022-02-25T07:01:10Z</time>
      </trkpt>
      <trkpt lat="39.949330" lon="-3.523650">
        <ele>723.908</ele>
        <time>2022-02-25T07:01:50Z</time>
      </trkpt>
      <trkpt lat="39.949300" lon="-3.523690">
        <ele>723.945</ele>
        <time>2022-02-25T07:02:30Z</time>
      </trkpt>
      <trkpt lat="39.949280" lon="-3.523740">
        <ele>723.832</ele>
        <time>2022-02-25T07:03:10Z</time>
      </trkpt>
      <trkpt lat="39.949230" lon="-3.523880">
        <ele>723.886</ele>
        <time>2022-02-25T07:03:50Z</time>
      </trkpt>
      <trkpt lat="39.949227" lon="-3.523884">
        <ele>723.885</ele>
        <time>2022-02-25T07:04:30Z</time>
      </trkpt>
      <trkpt lat="39.949230" lon="-3.523910">
        <ele>723.775</ele>
        <time>2022-02-25T07:05:10Z</time>
      </trkpt>
      <trkpt lat="39.949220" lon="-3.523940">
        <ele>723.797</ele>
        <time>2022-02-25T07:05:50Z</time>
      </trkpt>
      <trkpt lat="39.949220" lon="-3.523970">
        <ele>723.656</ele>
        <time>2022-02-25T07:06:30Z</time>
      </trkpt>
      <trkpt lat="39.949210" lon="-3.523990">
        <ele>723.566</ele>
        <time>2022-02-25T07:07:10Z</time>
      </trkpt>
      <trkpt lat="39.949210" lon="-3.524020">
        <ele>723.439</ele>
        <time>2022-02-25T07:07:50Z</time>
      </trkpt>
      <trkpt lat="39.949200" lon="-3.524040">
        <ele>723.401</ele>
        <time>2022-02-25T07:08:30Z</time>
      </trkpt>
      <trkpt lat="39.949190" lon="-3.524060">
        <ele>723.421</ele>
        <time>2022-02-25T07:09:10Z</time>
      </trkpt>
      <trkpt lat="39.949170" lon="-3.524090">
        <ele>723.308</ele>
        <time>2022-02-25T07:09:50Z</time>
      </trkpt>
      <trkpt lat="39.949160" lon="-3.524110">
        <ele>723.282</ele>
        <time>2022-02-25T07:10:30Z</time>
      </trkpt>
      <trkpt lat="39.949140" lon="-3.524130">
        <ele>723.229</ele>
        <time>2022-02-25T07:11:10Z</time>
      </trkpt>
      <trkpt lat="39.949130" lon="-3.524150">
        <ele>723.263</ele>
        <time>2022-02-25T07:11:50Z</time>
      </trkpt>
      <trkpt lat="39.949110" lon="-3.524170">
        <ele>723.292</ele>
        <time>2022-02-25T07:12:30Z</time>
      </trkpt>
      <trkpt lat="39.949090" lon="-3.524180">
        <ele>723.372</ele>
        <time>2022-02-25T07:13:10Z</time>
      </trkpt>
      <trkpt lat="39.949070" lon="-3.524200">
        <ele>723.334</ele>
        <time>2022-02-25T07:13:50Z</time>
      </trkpt>
      <trkpt lat="39.949050" lon="-3.524210">
        <ele>723.423</ele>
        <time>2022-02-25T07:14:30Z</time>
      </trkpt>
      <trkpt lat="39.949030" lon="-3.524210">
        <ele>723.543</ele>
        <time>2022-02-25T07:15:10Z</time>
      </trkpt>
      <trkpt lat="39.949010" lon="-3.524220">
        <ele>723.688</ele>
        <time>2022-02-25T07:15:50Z</time>
      </trkpt>
      <trkpt lat="39.949000" lon="-3.524220">
        <ele>723.624</ele>
        <time>2022-02-25T07:16:30Z</time>
      </trkpt>
      <trkpt lat="39.948980" lon="-3.524220">
        <ele>723.726</ele>
        <time>2022-02-25T07:17:10Z</time>
      </trkpt>
      <trkpt lat="39.948960" lon="-3.524220">
        <ele>723.708</ele>
        <time>2022-02-25T07:17:50Z</time>
      </trkpt>
      <trkpt lat="39.948950" lon="-3.524220">
        <ele>723.887</ele>
        <time>2022-02-25T07:18:30Z</time>
      </trkpt>
      <trkpt lat="39.948930" lon="-3.524220">
        <ele>723.914</ele>
        <time>2022-02-25T07:19:10Z</time>
      </trkpt>
      <trkpt lat="39.948910" lon="-3.524220">
        <ele>723.988</ele>
        <time>2022-02-25T07:19:50Z</time>
      </trkpt>
      <trkpt lat="39.948900" lon="-3.524210">
        <ele>724.027</ele>
        <time>2022-02-25T07:20:30Z</time>
      </trkpt>
      <trkpt lat="39.948880" lon="-3.524200">
        <ele>724.057</ele>
        <time>2022-02-25T07:21:10Z</time>
      </trkpt>
      <trkpt lat="39.948860" lon="-3.524190">
        <ele>724.019</ele>
        <time>2022-02-25T07:21:50Z</time>
      </trkpt>
      <trkpt lat="39.948840" lon="-3.524180">
        <ele>724.048</ele>
        <time>2022-02-25T07:22:30Z</time>
      </trkpt>
      <trkpt lat="39.948820" lon="-3.524160">
        <ele>724.028</ele>
        <time>2022-02-25T07:23:10Z</time>
      </trkpt>
      <trkpt lat="39.948800" lon="-3.524150">
        <ele>724.019</ele>
        <time>2022-02-25T07:23:50Z</time>
      </trkpt>
      <trkpt lat="39.948780" lon="-3.524130">
        <ele>724.009</ele>
        <time>2022-02-25T07:24:30Z</time>
      </trkpt>
      <trkpt lat="39.948770" lon="-3.524110">
        <ele>724.019</ele>
        <time>2022-02-25T07:25:10Z</time>
      </trkpt>
      <trkpt lat="39.948750" lon="-3.524080">
        <ele>724.008</ele>
        <time>2022-02-25T07:25:50Z</time>
      </trkpt>
      <trkpt lat="39.948590" lon="-3.524040">
        <ele>724.140</ele>
        <time>2022-02-25T07:26:30Z</time>
      </trkpt>
      <trkpt lat="39.948540" lon="-3.524040">
        <ele>724.317</ele>
        <time>2022-02-25T07:27:10Z</time>
      </trkpt>
      <trkpt lat="39.948450" lon="-3.524050">
        <ele>724.651</ele>
        <time>2022-02-25T07:27:50Z</time>
      </trkpt>
      <trkpt lat="39.948350" lon="-3.524060">
        <ele>724.930</ele>
        <time>2022-02-25T07:28:30Z</time>
      </trkpt>
      <trkpt lat="39.948340" lon="-3.524060">
        <ele>725.010</ele>
        <time>2022-02-25T07:29:10Z</time>
      </trkpt>
      <trkpt lat="39.948250" lon="-3.524110">
        <ele>725.192</ele>
        <time>2022-02-25T07:29:50Z</time>
      </trkpt>
      <trkpt lat="39.948090" lon="-3.524200">
        <ele>724.971</ele>
        <time>2022-02-25T07:30:30Z</time>
      </trkpt>
      <trkpt lat="39.947800" lon="-3.524420">
        <ele>724.131</ele>
        <time>2022-02-25T07:31:10Z</time>
      </trkpt>
      <trkpt lat="39.947530" lon="-3.524690">
        <ele>723.012</ele>
        <time>2022-02-25T07:31:50Z</time>
      </trkpt>
      <trkpt lat="39.947460" lon="-3.524780">
        <ele>722.732</ele>
        <time>2022-02-25T07:32:30Z</time>
      </trkpt>
      <trkpt lat="39.947380" lon="-3.524900">
        <ele>722.105</ele>
        <time>2022-02-25T07:33:10Z</time>
      </trkpt>
      <trkpt lat="39.947290" lon="-3.525040">
        <ele>721.608</ele>
        <time>2022-02-25T07:33:50Z</time>
      </trkpt>
      <trkpt lat="39.947220" lon="-3.525160">
        <ele>721.650</ele>
        <time>2022-02-25T07:34:30Z</time>
      </trkpt>
      <trkpt lat="39.947070" lon="-3.525410">
        <ele>723.557</ele>
        <time>2022-02-25T07:35:10Z</time>
      </trkpt>
      <trkpt lat="39.947030" lon="-3.525480">
        <ele>724.171</ele>
        <time>2022-02-25T07:35:50Z</time>
      </trkpt>
      <trkpt lat="39.946150" lon="-3.527070">
        <ele>726.080</ele>
        <time>2022-02-25T07:36:30Z</time>
      </trkpt>
      <trkpt lat="39.945570" lon="-3.528130">
        <ele>722.580</ele>
        <time>2022-02-25T07:37:10Z</time>
      </trkpt>
      <trkpt lat="39.945320" lon="-3.528580">
        <ele>721.092</ele>
        <time>2022-02-25T07:37:50Z</time>
      </trkpt>
      <trkpt lat="39.944900" lon="-3.529330">
        <ele>725.361</ele>
        <time>2022-02-25T07:38:30Z</time>
      </trkpt>
      <trkpt lat="39.943940" lon="-3.531050">
        <ele>727.421</ele>
        <time>2022-02-25T07:39:10Z</time>
      </trkpt>
      <trkpt lat="39.943540" lon="-3.531790">
        <ele>728.258</ele>
        <time>2022-02-25T07:39:50Z</time>
      </trkpt>
      <trkpt lat="39.943020" lon="-3.532720">
        <ele>724.252</ele>
        <time>2022-02-25T07:40:30Z</time>
      </trkpt>
      <trkpt lat="39.942120" lon="-3.534340">
        <ele>723.917</ele>
        <time>2022-02-25T07:41:10Z</time>
      </trkpt>
      <trkpt lat="39.942080" lon="-3.534420">
        <ele>723.608</ele>
        <time>2022-02-25T07:41:50Z</time>
      </trkpt>
      <trkpt lat="39.941960" lon="-3.534630">
        <ele>723.144</ele>
        <time>2022-02-25T07:42:30Z</time>
      </trkpt>
      <trkpt lat="39.941900" lon="-3.534740">
        <ele>722.821</ele>
        <time>2022-02-25T07:43:10Z</time>
      </trkpt>
      <trkpt lat="39.941830" lon="-3.534980">
        <ele>722.665</ele>
        <time>2022-02-25T07:43:50Z</time>
      </trkpt>
      <trkpt lat="39.941835" lon="-3.534981">
        <ele>722.624</ele>
        <time>2022-02-25T07:44:30Z</time>
      </trkpt>
      <trkpt lat="39.941840" lon="-3.534990">
        <ele>722.634</ele>
        <time>2022-02-25T07:45:10Z</time>
      </trkpt>
      <trkpt lat="39.941850" lon="-3.535010">
        <ele>722.796</ele>
        <time>2022-02-25T07:45:50Z</time>
      </trkpt>
      <trkpt lat="39.941850" lon="-3.535020">
        <ele>722.735</ele>
        <time>2022-02-25T07:46:30Z</time>
      </trkpt>
      <trkpt lat="39.941860" lon="-3.535040">
        <ele>722.735</ele>
        <time>2022-02-25T07:47:10Z</time>
      </trkpt>
      <trkpt lat="39.941860" lon="-3.535050">
        <ele>722.845</ele>
        <time>2022-02-25T07:47:50Z</time>
      </trkpt>
      <trkpt lat="39.941860" lon="-3.535070">
        <ele>722.847</ele>
        <time>2022-02-25T07:48:30Z</time>
      </trkpt>
      <trkpt lat="39.941870" lon="-3.535090">
        <ele>722.811</ele>
        <time>2022-02-25T07:49:10Z</time>
      </trkpt>
      <trkpt lat="39.941870" lon="-3.535100">
        <ele>722.808</ele>
        <time>2022-02-25T07:49:50Z</time>
      </trkpt>
      <trkpt lat="39.941870" lon="-3.535120">
        <ele>722.863</ele>
        <time>2022-02-25T07:50:30Z</time>
      </trkpt>
      <trkpt lat="39.941870" lon="-3.535140">
        <ele>722.960</ele>
        <time>2022-02-25T07:51:10Z</time>
      </trkpt>
      <trkpt lat="39.941860" lon="-3.535150">
        <ele>722.934</ele>
        <time>2022-02-25T07:51:50Z</time>
      </trkpt>
      <trkpt lat="39.941860" lon="-3.535170">
        <ele>722.933</ele>
        <time>2022-02-25T07:52:30Z</time>
      </trkpt>
      <trkpt lat="39.941860" lon="-3.535180">
        <ele>722.993</ele>
        <time>2022-02-25T07:53:10Z</time>
      </trkpt>
      <trkpt lat="39.941850" lon="-3.535200">
        <ele>722.915</ele>
        <time>2022-02-25T07:53:50Z</time>
      </trkpt>
      <trkpt lat="39.941850" lon="-3.535210">
        <ele>722.964</ele>
        <time>2022-02-25T07:54:30Z</time>
      </trkpt>
      <trkpt lat="39.941840" lon="-3.535230">
        <ele>722.944</ele>
        <time>2022-02-25T07:55:10Z</time>
      </trkpt>
      <trkpt lat="39.941840" lon="-3.535240">
        <ele>722.931</ele>
        <time>2022-02-25T07:55:50Z</time>
      </trkpt>
      <trkpt lat="39.941830" lon="-3.535250">
        <ele>723.061</ele>
        <time>2022-02-25T07:56:30Z</time>
      </trkpt>
      <trkpt lat="39.941820" lon="-3.535260">
        <ele>723.007</ele>
        <time>2022-02-25T07:57:10Z</time>
      </trkpt>
      <trkpt lat="39.941810" lon="-3.535280">
        <ele>723.008</ele>
        <time>2022-02-25T07:57:50Z</time>
      </trkpt>
      <trkpt lat="39.941800" lon="-3.535290">
        <ele>723.092</ele>
        <time>2022-02-25T07:58:30Z</time>
      </trkpt>
      <trkpt lat="39.941790" lon="-3.535290">
        <ele>723.069</ele>
        <time>2022-02-25T07:59:10Z</time>
      </trkpt>
      <trkpt lat="39.941780" lon="-3.535300">
        <ele>723.013</ele>
        <time>2022-02-25T07:59:50Z</time>
      </trkpt>
      <trkpt lat="39.941770" lon="-3.535310">
        <ele>723.092</ele>
        <time>2022-02-25T08:00:30Z</time>
      </trkpt>
      <trkpt lat="39.941760" lon="-3.535320">
        <ele>723.032</ele>
        <time>2022-02-25T08:01:10Z</time>
      </trkpt>
      <trkpt lat="39.941750" lon="-3.535320">
        <ele>723.074</ele>
        <time>2022-02-25T08:01:50Z</time>
      </trkpt>
      <trkpt lat="39.941740" lon="-3.535320">
        <ele>723.023</ele>
        <time>2022-02-25T08:02:30Z</time>
      </trkpt>
      <trkpt lat="39.941720" lon="-3.535330">
        <ele>723.083</ele>
        <time>2022-02-25T08:03:10Z</time>
      </trkpt>
      <trkpt lat="39.941710" lon="-3.535330">
        <ele>723.061</ele>
        <time>2022-02-25T08:03:50Z</time>
      </trkpt>
      <trkpt lat="39.941700" lon="-3.535330">
        <ele>723.021</ele>
        <time>2022-02-25T08:04:30Z</time>
      </trkpt>
      <trkpt lat="39.941680" lon="-3.535330">
        <ele>723.013</ele>
        <time>2022-02-25T08:05:10Z</time>
      </trkpt>
      <trkpt lat="39.941660" lon="-3.535330">
        <ele>723.008</ele>
        <time>2022-02-25T08:05:50Z</time>
      </trkpt>
      <trkpt lat="39.941640" lon="-3.535320">
        <ele>723.085</ele>
        <time>2022-02-25T08:06:30Z</time>
      </trkpt>
      <trkpt lat="39.941500" lon="-3.535480">
        <ele>723.032</ele>
        <time>2022-02-25T08:07:10Z</time>
      </trkpt>
      <trkpt lat="39.941440" lon="-3.535580">
        <ele>722.946</ele>
        <time>2022-02-25T08:07:50Z</time>
      </trkpt>
      <trkpt lat="39.941330" lon="-3.535790">
        <ele>722.285</ele>
        <time>2022-02-25T08:08:30Z</time>
      </trkpt>
      <trkpt lat="39.941250" lon="-3.535930">
        <ele>721.725</ele>
        <time>2022-02-25T08:09:10Z</time>
      </trkpt>
      <trkpt lat="39.941150" lon="-3.536120">
        <ele>721.017</ele>
        <time>2022-02-25T08:09:50Z</time>
      </trkpt>
      <trkpt lat="39.940780" lon="-3.536830">
        <ele>722.626</ele>
        <time>2022-02-25T08:10:30Z</time>
      </trkpt>
      <trkpt lat="39.940710" lon="-3.536950">
        <ele>723.056</ele>
        <time>2022-02-25T08:11:10Z</time>
      </trkpt>
      <trkpt lat="39.940690" lon="-3.537000">
        <ele>722.978</ele>
        <time>2022-02-25T08:11:50Z</time>
      </trkpt>
      <trkpt lat="39.940660" lon="-3.537030">
        <ele>722.933</ele>
        <time>2022-02-25T08:12:30Z</time>
      </trkpt>
      <trkpt lat="39.940490" lon="-3.537320">
        <ele>722.726</ele>
        <time>2022-02-25T08:13:10Z</time>
      </trkpt>
      <trkpt lat="39.940370" lon="-3.537540">
        <ele>722.508</ele>
        <time>2022-02-25T08:13:50Z</time>
      </trkpt>
      <trkpt lat="39.940190" lon="-3.537850">
        <ele>722.136</ele>
        <time>2022-02-25T08:14:30Z</time>
      </trkpt>
      <trkpt lat="39.940130" lon="-3.537930">
        <ele>722.063</ele>
        <time>2022-02-25T08:15:10Z</time>
      </trkpt>
      <trkpt lat="39.939560" lon="-3.538960">
        <ele>721.057</ele>
        <time>2022-02-25T08:15:50Z</time>
      </trkpt>
      <trkpt lat="39.938460" lon="-3.540950">
        <ele>719.876</ele>
        <time>2022-02-25T08:16:30Z</time>
      </trkpt>
      <trkpt lat="39.938420" lon="-3.541020">
        <ele>719.496</ele>
        <time>2022-02-25T08:17:10Z</time>
      </trkpt>
      <trkpt lat="39.937660" lon="-3.542380">
        <ele>720.468</ele>
        <time>2022-02-25T08:17:50Z</time>
      </trkpt>
      <trkpt lat="39.937280" lon="-3.543070">
        <ele>719.067</ele>
        <time>2022-02-25T08:18:30Z</time>
      </trkpt>
      <trkpt lat="39.936950" lon="-3.543660">
        <ele>720.087</ele>
        <time>2022-02-25T08:19:10Z</time>
      </trkpt>
      <trkpt lat="39.936790" lon="-3.543960">
        <ele>720.443</ele>
        <time>2022-02-25T08:19:50Z</time>
      </trkpt>
      <trkpt lat="39.935930" lon="-3.545520">
        <ele>721.364</ele>
        <time>2022-02-25T08:20:30Z</time>
      </trkpt>
      <trkpt lat="39.935580" lon="-3.546140">
        <ele>718.210</ele>
        <time>2022-02-25T08:21:10Z</time>
      </trkpt>
      <trkpt lat="39.935560" lon="-3.546170">
        <ele>718.208</ele>
        <time>2022-02-25T08:21:50Z</time>
      </trkpt>
      <trkpt lat="39.935560" lon="-3.546180">
        <ele>718.353</ele>
        <time>2022-02-25T08:22:30Z</time>
      </trkpt>
      <trkpt lat="39.934940" lon="-3.547280">
        <ele>715.530</ele>
        <time>2022-02-25T08:23:10Z</time>
      </trkpt>
      <trkpt lat="39.934840" lon="-3.547470">
        <ele>717.314</ele>
        <time>2022-02-25T08:23:50Z</time>
      </trkpt>
      <trkpt lat="39.934460" lon="-3.548150">
        <ele>719.323</ele>
        <time>2022-02-25T08:24:30Z</time>
      </trkpt>
      <trkpt lat="39.934150" lon="-3.548720">
        <ele>715.433</ele>
        <time>2022-02-25T08:25:10Z</time>
      </trkpt>
      <trkpt lat="39.933910" lon="-3.549150">
        <ele>715.195</ele>
        <time>2022-02-25T08:25:50Z</time>
      </trkpt>
      <trkpt lat="39.933800" lon="-3.549330">
        <ele>715.014</ele>
        <time>2022-02-25T08:26:30Z</time>
      </trkpt>
      <trkpt lat="39.933700" lon="-3.549520">
        <ele>715.344</ele>
        <time>2022-02-25T08:27:10Z</time>
      </trkpt>
      <trkpt lat="39.933640" lon="-3.549630">
        <ele>715.769</ele>
        <time>2022-02-25T08:27:50Z</time>
      </trkpt>
      <trkpt lat="39.932860" lon="-3.551050">
        <ele>716.704</ele>
        <time>2022-02-25T08:28:30Z</time>
      </trkpt>
      <trkpt lat="39.932810" lon="-3.551140">
        <ele>716.024</ele>
        <time>2022-02-25T08:29:10Z</time>
      </trkpt>
      <trkpt lat="39.932200" lon="-3.552230">
        <ele>712.108</ele>
        <time>2022-02-25T08:29:50Z</time>
      </trkpt>
      <trkpt lat="39.932150" lon="-3.552320">
        <ele>712.235</ele>
        <time>2022-02-25T08:30:30Z</time>
      </trkpt>
      <trkpt lat="39.931940" lon="-3.552700">
        <ele>712.722</ele>
        <time>2022-02-25T08:31:10Z</time>
      </trkpt>
      <trkpt lat="39.931510" lon="-3.553490">
        <ele>716.766</ele>
        <time>2022-02-25T08:31:50Z</time>
      </trkpt>
      <trkpt lat="39.931200" lon="-3.554030">
        <ele>713.045</ele>
        <time>2022-02-25T08:32:30Z</time>
      </trkpt>
      <trkpt lat="39.931060" lon="-3.554280">
        <ele>711.155</ele>
        <time>2022-02-25T08:33:10Z</time>
      </trkpt>
      <trkpt lat="39.930560" lon="-3.555190">
        <ele>715.657</ele>
        <time>2022-02-25T08:33:50Z</time>
      </trkpt>
      <trkpt lat="39.930360" lon="-3.555550">
        <ele>716.026</ele>
        <time>2022-02-25T08:34:30Z</time>
      </trkpt>
      <trkpt lat="39.930150" lon="-3.555930">
        <ele>715.286</ele>
        <time>2022-02-25T08:35:10Z</time>
      </trkpt>
      <trkpt lat="39.929930" lon="-3.556330">
        <ele>717.141</ele>
        <time>2022-02-25T08:35:50Z</time>
      </trkpt>
      <trkpt lat="39.929570" lon="-3.556960">
        <ele>716.981</ele>
        <time>2022-02-25T08:36:30Z</time>
      </trkpt>
      <trkpt lat="39.929240" lon="-3.557560">
        <ele>714.109</ele>
        <time>2022-02-25T08:37:10Z</time>
      </trkpt>
      <trkpt lat="39.928860" lon="-3.558240">
        <ele>714.208</ele>
        <time>2022-02-25T08:37:50Z</time>
      </trkpt>
      <trkpt lat="39.928400" lon="-3.559060">
        <ele>715.973</ele>
        <time>2022-02-25T08:38:30Z</time>
      </trkpt>
      <trkpt lat="39.928120" lon="-3.559560">
        <ele>715.720</ele>
        <time>2022-02-25T08:39:10Z</time>
      </trkpt>
      <trkpt lat="39.927720" lon="-3.560270">
        <ele>715.044</ele>
        <time>2022-02-25T08:39:50Z</time>
      </trkpt>
      <trkpt lat="39.927580" lon="-3.560500">
        <ele>713.473</ele>
        <time>2022-02-25T08:40:30Z</time>
      </trkpt>
      <trkpt lat="39.927060" lon="-3.561280">
        <ele>713.053</ele>
        <time>2022-02-25T08:41:10Z</time>
      </trkpt>
      <trkpt lat="39.926710" lon="-3.561790">
        <ele>712.315</ele>
        <time>2022-02-25T08:41:50Z</time>
      </trkpt>
      <trkpt lat="39.926550" lon="-3.562010">
        <ele>713.034</ele>
        <time>2022-02-25T08:42:30Z</time>
      </trkpt>
      <trkpt lat="39.926530" lon="-3.562050">
        <ele>713.094</ele>
        <time>2022-02-25T08:43:10Z</time>
      </trkpt>
      <trkpt lat="39.926200" lon="-3.562570">
        <ele>713.074</ele>
        <time>2022-02-25T08:43:50Z</time>
      </trkpt>
      <trkpt lat="39.926090" lon="-3.562730">
        <ele>713.056</ele>
        <time>2022-02-25T08:44:30Z</time>
      </trkpt>
      <trkpt lat="39.925970" lon="-3.562940">
        <ele>713.621</ele>
        <time>2022-02-25T08:45:10Z</time>
      </trkpt>
      <trkpt lat="39.925440" lon="-3.563920">
        <ele>708.808</ele>
        <time>2022-02-25T08:45:50Z</time>
      </trkpt>
      <trkpt lat="39.925420" lon="-3.563960">
        <ele>708.546</ele>
        <time>2022-02-25T08:46:30Z</time>
      </trkpt>
      <trkpt lat="39.925340" lon="-3.564110">
        <ele>707.423</ele>
        <time>2022-02-25T08:47:10Z</time>
      </trkpt>
      <trkpt lat="39.925030" lon="-3.564740">
        <ele>708.797</ele>
        <time>2022-02-25T08:47:50Z</time>
      </trkpt>
      <trkpt lat="39.924620" lon="-3.565590">
        <ele>709.576</ele>
        <time>2022-02-25T08:48:30Z</time>
      </trkpt>
      <trkpt lat="39.924570" lon="-3.565690">
        <ele>710.046</ele>
        <time>2022-02-25T08:49:10Z</time>
      </trkpt>
      <trkpt lat="39.924280" lon="-3.566410">
        <ele>710.568</ele>
        <time>2022-02-25T08:49:50Z</time>
      </trkpt>
      <trkpt lat="39.924230" lon="-3.566520">
        <ele>710.637</ele>
        <time>2022-02-25T08:50:30Z</time>
      </trkpt>
      <trkpt lat="39.924110" lon="-3.566830">
        <ele>710.397</ele>
        <time>2022-02-25T08:51:10Z</time>
      </trkpt>
      <trkpt lat="39.923970" lon="-3.567170">
        <ele>709.421</ele>
        <time>2022-02-25T08:51:50Z</time>
      </trkpt>
      <trkpt lat="39.923320" lon="-3.568740">
        <ele>708.041</ele>
        <time>2022-02-25T08:52:30Z</time>
      </trkpt>
      <trkpt lat="39.922690" lon="-3.570340">
        <ele>707.805</ele>
        <time>2022-02-25T08:53:10Z</time>
      </trkpt>
      <trkpt lat="39.922050" lon="-3.571860">
        <ele>709.108</ele>
        <time>2022-02-25T08:53:50Z</time>
      </trkpt>
      <trkpt lat="39.921600" lon="-3.572990">
        <ele>709.261</ele>
        <time>2022-02-25T08:54:30Z</time>
      </trkpt>
      <trkpt lat="39.921580" lon="-3.573050">
        <ele>709.088</ele>
        <time>2022-02-25T08:55:10Z</time>
      </trkpt>
      <trkpt lat="39.921480" lon="-3.573300">
        <ele>709.052</ele>
        <time>2022-02-25T08:55:50Z</time>
      </trkpt>
      <trkpt lat="39.921330" lon="-3.573660">
        <ele>710.061</ele>
        <time>2022-02-25T08:56:30Z</time>
      </trkpt>
      <trkpt lat="39.920810" lon="-3.574900">
        <ele>709.621</ele>
        <time>2022-02-25T08:57:10Z</time>
      </trkpt>
      <trkpt lat="39.920290" lon="-3.576210">
        <ele>707.683</ele>
        <time>2022-02-25T08:57:50Z</time>
      </trkpt>
      <trkpt lat="39.920060" lon="-3.576760">
        <ele>706.772</ele>
        <time>2022-02-25T08:58:30Z</time>
      </trkpt>
      <trkpt lat="39.919750" lon="-3.577540">
        <ele>709.772</ele>
        <time>2022-02-25T08:59:10Z</time>
      </trkpt>
      <trkpt lat="39.919610" lon="-3.577890">
        <ele>709.644</ele>
        <time>2022-02-25T08:59:50Z</time>
      </trkpt>
      <trkpt lat="39.919220" lon="-3.578870">
        <ele>708.205</ele>
        <time>2022-02-25T09:00:30Z</time>
      </trkpt>
      <trkpt lat="39.918660" lon="-3.580260">
        <ele>705.515</ele>
        <time>2022-02-25T09:01:10Z</time>
      </trkpt>
      <trkpt lat="39.918090" lon="-3.581590">
        <ele>708.708</ele>
        <time>2022-02-25T09:01:50Z</time>
      </trkpt>
      <trkpt lat="39.917620" lon="-3.582760">
        <ele>706.663</ele>
        <time>2022-02-25T09:02:30Z</time>
      </trkpt>
      <trkpt lat="39.917610" lon="-3.582790">
        <ele>706.680</ele>
        <time>2022-02-25T09:03:10Z</time>
      </trkpt>
      <trkpt lat="39.917530" lon="-3.582980">
        <ele>706.224</ele>
        <time>2022-02-25T09:03:50Z</time>
      </trkpt>
      <trkpt lat="39.916960" lon="-3.584380">
        <ele>708.243</ele>
        <time>2022-02-25T09:04:30Z</time>
      </trkpt>
      <trkpt lat="39.916830" lon="-3.584700">
        <ele>707.533</ele>
        <time>2022-02-25T09:05:10Z</time>
      </trkpt>
      <trkpt lat="39.916590" lon="-3.585270">
        <ele>707.015</ele>
        <time>2022-02-25T09:05:50Z</time>
      </trkpt>
      <trkpt lat="39.916380" lon="-3.585800">
        <ele>706.054</ele>
        <time>2022-02-25T09:06:30Z</time>
      </trkpt>
      <trkpt lat="39.916110" lon="-3.586490">
        <ele>705.074</ele>
        <time>2022-02-25T09:07:10Z</time>
      </trkpt>
      <trkpt lat="39.916090" lon="-3.586520">
        <ele>705.111</ele>
        <time>2022-02-25T09:07:50Z</time>
      </trkpt>
      <trkpt lat="39.915830" lon="-3.587190">
        <ele>707.021</ele>
        <time>2022-02-25T09:08:30Z</time>
      </trkpt>
      <trkpt lat="39.915820" lon="-3.587210">
        <ele>707.103</ele>
        <time>2022-02-25T09:09:10Z</time>
      </trkpt>
      <trkpt lat="39.915730" lon="-3.587430">
        <ele>707.808</ele>
        <time>2022-02-25T09:09:50Z</time>
      </trkpt>
      <trkpt lat="39.915720" lon="-3.587440">
        <ele>707.930</ele>
        <time>2022-02-25T09:10:30Z</time>
      </trkpt>
      <trkpt lat="39.915260" lon="-3.588560">
        <ele>707.897</ele>
        <time>2022-02-25T09:11:10Z</time>
      </trkpt>
      <trkpt lat="39.914970" lon="-3.589290">
        <ele>709.091</ele>
        <time>2022-02-25T09:11:50Z</time>
      </trkpt>
      <trkpt lat="39.914820" lon="-3.589660">
        <ele>708.250</ele>
        <time>2022-02-25T09:12:30Z</time>
      </trkpt>
      <trkpt lat="39.914800" lon="-3.589710">
        <ele>708.040</ele>
        <time>2022-02-25T09:13:10Z</time>
      </trkpt>
      <trkpt lat="39.914700" lon="-3.589960">
        <ele>707.112</ele>
        <time>2022-02-25T09:13:50Z</time>
      </trkpt>
      <trkpt lat="39.913880" lon="-3.591960">
        <ele>707.171</ele>
        <time>2022-02-25T09:14:30Z</time>
      </trkpt>
      <trkpt lat="39.913570" lon="-3.592710">
        <ele>707.171</ele>
        <time>2022-02-25T09:15:10Z</time>
      </trkpt>
      <trkpt lat="39.913000" lon="-3.594120">
        <ele>707.095</ele>
        <time>2022-02-25T09:15:50Z</time>
      </trkpt>
      <trkpt lat="39.912410" lon="-3.595560">
        <ele>706.049</ele>
        <time>2022-02-25T09:16:30Z</time>
      </trkpt>
      <trkpt lat="39.911890" lon="-3.596840">
        <ele>705.523</ele>
        <time>2022-02-25T09:17:10Z</time>
      </trkpt>
      <trkpt lat="39.911820" lon="-3.597000">
        <ele>705.108</ele>
        <time>2022-02-25T09:17:50Z</time>
      </trkpt>
      <trkpt lat="39.911240" lon="-3.598400">
        <ele>706.938</ele>
        <time>2022-02-25T09:18:30Z</time>
      </trkpt>
      <trkpt lat="39.910680" lon="-3.599840">
        <ele>706.815</ele>
        <time>2022-02-25T09:19:10Z</time>
      </trkpt>
      <trkpt lat="39.910510" lon="-3.600240">
        <ele>705.179</ele>
        <time>2022-02-25T09:19:50Z</time>
      </trkpt>
      <trkpt lat="39.910480" lon="-3.600290">
        <ele>705.038</ele>
        <time>2022-02-25T09:20:30Z</time>
      </trkpt>
      <trkpt lat="39.910060" lon="-3.601290">
        <ele>705.768</ele>
        <time>2022-02-25T09:21:10Z</time>
      </trkpt>
      <trkpt lat="39.909470" lon="-3.602770">
        <ele>704.280</ele>
        <time>2022-02-25T09:21:50Z</time>
      </trkpt>
      <trkpt lat="39.908860" lon="-3.604250">
        <ele>704.369</ele>
        <time>2022-02-25T09:22:30Z</time>
      </trkpt>
      <trkpt lat="39.908790" lon="-3.604420">
        <ele>704.639</ele>
        <time>2022-02-25T09:23:10Z</time>
      </trkpt>
      <trkpt lat="39.908370" lon="-3.605490">
        <ele>703.425</ele>
        <time>2022-02-25T09:23:50Z</time>
      </trkpt>
      <trkpt lat="39.908280" lon="-3.605710">
        <ele>702.426</ele>
        <time>2022-02-25T09:24:30Z</time>
      </trkpt>
      <trkpt lat="39.908200" lon="-3.605900">
        <ele>702.008</ele>
        <time>2022-02-25T09:25:10Z</time>
      </trkpt>
      <trkpt lat="39.907840" lon="-3.606750">
        <ele>701.008</ele>
        <time>2022-02-25T09:25:50Z</time>
      </trkpt>
      <trkpt lat="39.907670" lon="-3.607180">
        <ele>700.821</ele>
        <time>2022-02-25T09:26:30Z</time>
      </trkpt>
      <trkpt lat="39.907400" lon="-3.607890">
        <ele>702.188</ele>
        <time>2022-02-25T09:27:10Z</time>
      </trkpt>
      <trkpt lat="39.906950" lon="-3.608980">
        <ele>702.042</ele>
        <time>2022-02-25T09:27:50Z</time>
      </trkpt>
      <trkpt lat="39.906900" lon="-3.609100">
        <ele>702.261</ele>
        <time>2022-02-25T09:28:30Z</time>
      </trkpt>
      <trkpt lat="39.906480" lon="-3.610090">
        <ele>701.081</ele>
        <time>2022-02-25T09:29:10Z</time>
      </trkpt>
      <trkpt lat="39.906420" lon="-3.610270">
        <ele>700.133</ele>
        <time>2022-02-25T09:29:50Z</time>
      </trkpt>
      <trkpt lat="39.906300" lon="-3.610580">
        <ele>700.182</ele>
        <time>2022-02-25T09:30:30Z</time>
      </trkpt>
      <trkpt lat="39.906080" lon="-3.611130">
        <ele>702.012</ele>
        <time>2022-02-25T09:31:10Z</time>
      </trkpt>
      <trkpt lat="39.905960" lon="-3.611410">
        <ele>702.558</ele>
        <time>2022-02-25T09:31:50Z</time>
      </trkpt>
      <trkpt lat="39.905750" lon="-3.611930">
        <ele>702.052</ele>
        <time>2022-02-25T09:32:30Z</time>
      </trkpt>
      <trkpt lat="39.905720" lon="-3.611990">
        <ele>702.117</ele>
        <time>2022-02-25T09:33:10Z</time>
      </trkpt>
      <trkpt lat="39.905570" lon="-3.612350">
        <ele>703.808</ele>
        <time>2022-02-25T09:33:50Z</time>
      </trkpt>
      <trkpt lat="39.905010" lon="-3.613710">
        <ele>703.074</ele>
        <time>2022-02-25T09:34:30Z</time>
      </trkpt>
      <trkpt lat="39.904970" lon="-3.613810">
        <ele>702.971</ele>
        <time>2022-02-25T09:35:10Z</time>
      </trkpt>
      <trkpt lat="39.904850" lon="-3.614120">
        <ele>702.515</ele>
        <time>2022-02-25T09:35:50Z</time>
      </trkpt>
      <trkpt lat="39.904690" lon="-3.614500">
        <ele>702.254</ele>
        <time>2022-02-25T09:36:30Z</time>
      </trkpt>
      <trkpt lat="39.904670" lon="-3.614570">
        <ele>702.474</ele>
        <time>2022-02-25T09:37:10Z</time>
      </trkpt>
      <trkpt lat="39.904460" lon="-3.615100">
        <ele>703.496</ele>
        <time>2022-02-25T09:37:50Z</time>
      </trkpt>
      <trkpt lat="39.904440" lon="-3.615130">
        <ele>703.485</ele>
        <time>2022-02-25T09:38:30Z</time>
      </trkpt>
      <trkpt lat="39.904260" lon="-3.615580">
        <ele>702.685</ele>
        <time>2022-02-25T09:39:10Z</time>
      </trkpt>
      <trkpt lat="39.904190" lon="-3.615750">
        <ele>702.128</ele>
        <time>2022-02-25T09:39:50Z</time>
      </trkpt>
      <trkpt lat="39.904160" lon="-3.615810">
        <ele>702.089</ele>
        <time>2022-02-25T09:40:30Z</time>
      </trkpt>
      <trkpt lat="39.904020" lon="-3.616210">
        <ele>700.517</ele>
        <time>2022-02-25T09:41:10Z</time>
      </trkpt>
      <trkpt lat="39.903910" lon="-3.616610">
        <ele>700.108</ele>
        <time>2022-02-25T09:41:50Z</time>
      </trkpt>
      <trkpt lat="39.903880" lon="-3.616770">
        <ele>699.611</ele>
        <time>2022-02-25T09:42:30Z</time>
      </trkpt>
      <trkpt lat="39.903850" lon="-3.616890">
        <ele>698.818</ele>
        <time>2022-02-25T09:43:10Z</time>
      </trkpt>
      <trkpt lat="39.903820" lon="-3.617110">
        <ele>698.322</ele>
        <time>2022-02-25T09:43:50Z</time>
      </trkpt>
      <trkpt lat="39.903840" lon="-3.617210">
        <ele>698.571</ele>
        <time>2022-02-25T09:44:30Z</time>
      </trkpt>
      <trkpt lat="39.903850" lon="-3.617460">
        <ele>697.871</ele>
        <time>2022-02-25T09:45:10Z</time>
      </trkpt>
      <trkpt lat="39.903852" lon="-3.617463">
        <ele>697.983</ele>
        <time>2022-02-25T09:45:50Z</time>
      </trkpt>
      <trkpt lat="39.903870" lon="-3.617480">
        <ele>697.932</ele>
        <time>2022-02-25T09:46:30Z</time>
      </trkpt>
      <trkpt lat="39.903880" lon="-3.617490">
        <ele>698.042</ele>
        <time>2022-02-25T09:47:10Z</time>
      </trkpt>
      <trkpt lat="39.903880" lon="-3.617500">
        <ele>697.986</ele>
        <time>2022-02-25T09:47:50Z</time>
      </trkpt>
      <trkpt lat="39.903890" lon="-3.617510">
        <ele>698.060</ele>
        <time>2022-02-25T09:48:30Z</time>
      </trkpt>
      <trkpt lat="39.903900" lon="-3.617520">
        <ele>698.026</ele>
        <time>2022-02-25T09:49:10Z</time>
      </trkpt>
      <trkpt lat="39.903900" lon="-3.617530">
        <ele>698.008</ele>
        <time>2022-02-25T09:49:50Z</time>
      </trkpt>
      <trkpt lat="39.903910" lon="-3.617540">
        <ele>698.017</ele>
        <time>2022-02-25T09:50:30Z</time>
      </trkpt>
      <trkpt lat="39.903910" lon="-3.617560">
        <ele>697.944</ele>
        <time>2022-02-25T09:51:10Z</time>
      </trkpt>
      <trkpt lat="39.903920" lon="-3.617570">
        <ele>697.938</ele>
        <time>2022-02-25T09:51:50Z</time>
      </trkpt>
      <trkpt lat="39.903920" lon="-3.617580">
        <ele>697.997</ele>
        <time>2022-02-25T09:52:30Z</time>
      </trkpt>
      <trkpt lat="39.903920" lon="-3.617600">
        <ele>697.897</ele>
        <time>2022-02-25T09:53:10Z</time>
      </trkpt>
      <trkpt lat="39.903930" lon="-3.617610">
        <ele>697.879</ele>
        <time>2022-02-25T09:53:50Z</time>
      </trkpt>
      <trkpt lat="39.903930" lon="-3.617640">
        <ele>697.778</ele>
        <time>2022-02-25T09:54:30Z</time>
      </trkpt>
      <trkpt lat="39.903930" lon="-3.617650">
        <ele>697.768</ele>
        <time>2022-02-25T09:55:10Z</time>
      </trkpt>
      <trkpt lat="39.903930" lon="-3.617660">
        <ele>697.633</ele>
        <time>2022-02-25T09:55:50Z</time>
      </trkpt>
      <trkpt lat="39.903920" lon="-3.617680">
        <ele>697.523</ele>
        <time>2022-02-25T09:56:30Z</time>
      </trkpt>
      <trkpt lat="39.903920" lon="-3.617690">
        <ele>697.515</ele>
        <time>2022-02-25T09:57:10Z</time>
      </trkpt>
      <trkpt lat="39.903920" lon="-3.617710">
        <ele>697.408</ele>
        <time>2022-02-25T09:57:50Z</time>
      </trkpt>
      <trkpt lat="39.903920" lon="-3.617720">
        <ele>697.362</ele>
        <time>2022-02-25T09:58:30Z</time>
      </trkpt>
      <trkpt lat="39.903910" lon="-3.617730">
        <ele>697.319</ele>
        <time>2022-02-25T09:59:10Z</time>
      </trkpt>
      <trkpt lat="39.903910" lon="-3.617740">
        <ele>697.283</ele>
        <time>2022-02-25T09:59:50Z</time>
      </trkpt>
      <trkpt lat="39.903900" lon="-3.617760">
        <ele>697.122</ele>
        <time>2022-02-25T10:00:30Z</time>
      </trkpt>
      <trkpt lat="39.903890" lon="-3.617770">
        <ele>697.062</ele>
        <time>2022-02-25T10:01:10Z</time>
      </trkpt>
      <trkpt lat="39.903880" lon="-3.617780">
        <ele>697.034</ele>
        <time>2022-02-25T10:01:50Z</time>
      </trkpt>
      <trkpt lat="39.903880" lon="-3.617790">
        <ele>697.073</ele>
        <time>2022-02-25T10:02:30Z</time>
      </trkpt>
      <trkpt lat="39.903870" lon="-3.617800">
        <ele>696.963</ele>
        <time>2022-02-25T10:03:10Z</time>
      </trkpt>
      <trkpt lat="39.903860" lon="-3.617810">
        <ele>696.956</ele>
        <time>2022-02-25T10:03:50Z</time>
      </trkpt>
      <trkpt lat="39.903850" lon="-3.617810">
        <ele>696.959</ele>
        <time>2022-02-25T10:04:30Z</time>
      </trkpt>
      <trkpt lat="39.903840" lon="-3.617820">
        <ele>696.914</ele>
        <time>2022-02-25T10:05:10Z</time>
      </trkpt>
      <trkpt lat="39.903830" lon="-3.617830">
        <ele>696.908</ele>
        <time>2022-02-25T10:05:50Z</time>
      </trkpt>
      <trkpt lat="39.903830" lon="-3.617850">
        <ele>696.864</ele>
        <time>2022-02-25T10:06:30Z</time>
      </trkpt>
      <trkpt lat="39.903780" lon="-3.618080">
        <ele>696.431</ele>
        <time>2022-02-25T10:07:10Z</time>
      </trkpt>
      <trkpt lat="39.903750" lon="-3.618160">
        <ele>696.715</ele>
        <time>2022-02-25T10:07:50Z</time>
      </trkpt>
      <trkpt lat="39.903740" lon="-3.618210">
        <ele>696.814</ele>
        <time>2022-02-25T10:08:30Z</time>
      </trkpt>
      <trkpt lat="39.903720" lon="-3.618560">
        <ele>698.124</ele>
        <time>2022-02-25T10:09:10Z</time>
      </trkpt>
      <trkpt lat="39.903710" lon="-3.618660">
        <ele>698.536</ele>
        <time>2022-02-25T10:09:50Z</time>
      </trkpt>
      <trkpt lat="39.903710" lon="-3.618730">
        <ele>698.815</ele>
        <time>2022-02-25T10:10:30Z</time>
      </trkpt>
      <trkpt lat="39.903690" lon="-3.618970">
        <ele>699.415</ele>
        <time>2022-02-25T10:11:10Z</time>
      </trkpt>
      <trkpt lat="39.903660" lon="-3.619430">
        <ele>700.395</ele>
        <time>2022-02-25T10:11:50Z</time>
      </trkpt>
      <trkpt lat="39.903630" lon="-3.619930">
        <ele>700.849</ele>
        <time>2022-02-25T10:12:30Z</time>
      </trkpt>
      <trkpt lat="39.903610" lon="-3.620240">
        <ele>701.923</ele>
        <time>2022-02-25T10:13:10Z</time>
      </trkpt>
      <trkpt lat="39.903590" lon="-3.620440">
        <ele>701.308</ele>
        <time>2022-02-25T10:13:50Z</time>
      </trkpt>
      <trkpt lat="39.903580" lon="-3.620520">
        <ele>701.048</ele>
        <time>2022-02-25T10:14:30Z</time>
      </trkpt>
      <trkpt lat="39.903560" lon="-3.620650">
        <ele>700.275</ele>
        <time>2022-02-25T10:15:10Z</time>
      </trkpt>
      <trkpt lat="39.903490" lon="-3.620980">
        <ele>698.829</ele>
        <time>2022-02-25T10:15:50Z</time>
      </trkpt>
      <trkpt lat="39.903410" lon="-3.621310">
        <ele>698.338</ele>
        <time>2022-02-25T10:16:30Z</time>
      </trkpt>
      <trkpt lat="39.903390" lon="-3.621440">
        <ele>698.428</ele>
        <time>2022-02-25T10:17:10Z</time>
      </trkpt>
      <trkpt lat="39.903230" lon="-3.622170">
        <ele>698.180</ele>
        <time>2022-02-25T10:17:50Z</time>
      </trkpt>
      <trkpt lat="39.903180" lon="-3.622370">
        <ele>698.019</ele>
        <time>2022-02-25T10:18:30Z</time>
      </trkpt>
      <trkpt lat="39.903070" lon="-3.622900">
        <ele>697.659</ele>
        <time>2022-02-25T10:19:10Z</time>
      </trkpt>
      <trkpt lat="39.902900" lon="-3.623650">
        <ele>697.042</ele>
        <time>2022-02-25T10:19:50Z</time>
      </trkpt>
      <trkpt lat="39.902790" lon="-3.624180">
        <ele>698.022</ele>
        <time>2022-02-25T10:20:30Z</time>
      </trkpt>
      <trkpt lat="39.902730" lon="-3.624450">
        <ele>699.214</ele>
        <time>2022-02-25T10:21:10Z</time>
      </trkpt>
      <trkpt lat="39.902600" lon="-3.625080">
        <ele>700.808</ele>
        <time>2022-02-25T10:21:50Z</time>
      </trkpt>
      <trkpt lat="39.902460" lon="-3.625700">
        <ele>699.963</ele>
        <time>2022-02-25T10:22:30Z</time>
      </trkpt>
      <trkpt lat="39.902420" lon="-3.625890">
        <ele>699.740</ele>
        <time>2022-02-25T10:23:10Z</time>
      </trkpt>
      <trkpt lat="39.902340" lon="-3.626240">
        <ele>699.434</ele>
        <time>2022-02-25T10:23:50Z</time>
      </trkpt>
      <trkpt lat="39.902310" lon="-3.626400">
        <ele>699.353</ele>
        <time>2022-02-25T10:24:30Z</time>
      </trkpt>
      <trkpt lat="39.902270" lon="-3.626550">
        <ele>698.633</ele>
        <time>2022-02-25T10:25:10Z</time>
      </trkpt>
      <trkpt lat="39.902170" lon="-3.627050">
        <ele>698.015</ele>
        <time>2022-02-25T10:25:50Z</time>
      </trkpt>
      <trkpt lat="39.902140" lon="-3.627250">
        <ele>698.084</ele>
        <time>2022-02-25T10:26:30Z</time>
      </trkpt>
      <trkpt lat="39.902120" lon="-3.627360">
        <ele>698.294</ele>
        <time>2022-02-25T10:27:10Z</time>
      </trkpt>
      <trkpt lat="39.902110" lon="-3.627440">
        <ele>698.395</ele>
        <time>2022-02-25T10:27:50Z</time>
      </trkpt>
      <trkpt lat="39.902090" lon="-3.627550">
        <ele>698.549</ele>
        <time>2022-02-25T10:28:30Z</time>
      </trkpt>
      <trkpt lat="39.902090" lon="-3.627630">
        <ele>698.523</ele>
        <time>2022-02-25T10:29:10Z</time>
      </trkpt>
      <trkpt lat="39.902090" lon="-3.627710">
        <ele>698.508</ele>
        <time>2022-02-25T10:29:50Z</time>
      </trkpt>
      <trkpt lat="39.902090" lon="-3.627820">
        <ele>698.478</ele>
        <time>2022-02-25T10:30:30Z</time>
      </trkpt>
      <trkpt lat="39.902100" lon="-3.627870">
        <ele>698.355</ele>
        <time>2022-02-25T10:31:10Z</time>
      </trkpt>
      <trkpt lat="39.902230" lon="-3.628490">
        <ele>697.029</ele>
        <time>2022-02-25T10:31:50Z</time>
      </trkpt>
      <trkpt lat="39.902240" lon="-3.628540">
        <ele>697.178</ele>
        <time>2022-02-25T10:32:30Z</time>
      </trkpt>
      <trkpt lat="39.902280" lon="-3.628770">
        <ele>697.758</ele>
        <time>2022-02-25T10:33:10Z</time>
      </trkpt>
      <trkpt lat="39.902410" lon="-3.629340">
        <ele>698.770</ele>
        <time>2022-02-25T10:33:50Z</time>
      </trkpt>
      <trkpt lat="39.902480" lon="-3.629680">
        <ele>698.189</ele>
        <time>2022-02-25T10:34:30Z</time>
      </trkpt>
      <trkpt lat="39.902630" lon="-3.630470">
        <ele>695.859</ele>
        <time>2022-02-25T10:35:10Z</time>
      </trkpt>
      <trkpt lat="39.902670" lon="-3.630630">
        <ele>695.251</ele>
        <time>2022-02-25T10:35:50Z</time>
      </trkpt>
      <trkpt lat="39.902710" lon="-3.630800">
        <ele>694.701</ele>
        <time>2022-02-25T10:36:30Z</time>
      </trkpt>
      <trkpt lat="39.902780" lon="-3.631140">
        <ele>694.011</ele>
        <time>2022-02-25T10:37:10Z</time>
      </trkpt>
      <trkpt lat="39.902890" lon="-3.631660">
        <ele>694.408</ele>
        <time>2022-02-25T10:37:50Z</time>
      </trkpt>
      <trkpt lat="39.902900" lon="-3.631690">
        <ele>694.424</ele>
        <time>2022-02-25T10:38:30Z</time>
      </trkpt>
      <trkpt lat="39.903000" lon="-3.632120">
        <ele>694.861</ele>
        <time>2022-02-25T10:39:10Z</time>
      </trkpt>
      <trkpt lat="39.903080" lon="-3.632490">
        <ele>695.245</ele>
        <time>2022-02-25T10:39:50Z</time>
      </trkpt>
      <trkpt lat="39.903230" lon="-3.632970">
        <ele>695.124</ele>
        <time>2022-02-25T10:40:30Z</time>
      </trkpt>
      <trkpt lat="39.903380" lon="-3.633290">
        <ele>695.184</ele>
        <time>2022-02-25T10:41:10Z</time>
      </trkpt>
      <trkpt lat="39.903640" lon="-3.633700">
        <ele>695.336</ele>
        <time>2022-02-25T10:41:50Z</time>
      </trkpt>
      <trkpt lat="39.903670" lon="-3.633760">
        <ele>695.575</ele>
        <time>2022-02-25T10:42:30Z</time>
      </trkpt>
      <trkpt lat="39.903680" lon="-3.633770">
        <ele>695.635</ele>
        <time>2022-02-25T10:43:10Z</time>
      </trkpt>
      <trkpt lat="39.903960" lon="-3.634240">
        <ele>696.953</ele>
        <time>2022-02-25T10:43:50Z</time>
      </trkpt>
      <trkpt lat="39.904180" lon="-3.634620">
        <ele>697.404</ele>
        <time>2022-02-25T10:44:30Z</time>
      </trkpt>
      <trkpt lat="39.904220" lon="-3.634690">
        <ele>697.114</ele>
        <time>2022-02-25T10:45:10Z</time>
      </trkpt>
      <trkpt lat="39.904380" lon="-3.634970">
        <ele>696.108</ele>
        <time>2022-02-25T10:45:50Z</time>
      </trkpt>
      <trkpt lat="39.904660" lon="-3.635430">
        <ele>694.974</ele>
        <time>2022-02-25T10:46:30Z</time>
      </trkpt>
      <trkpt lat="39.905170" lon="-3.636270">
        <ele>695.691</ele>
        <time>2022-02-25T10:47:10Z</time>
      </trkpt>
      <trkpt lat="39.905200" lon="-3.636320">
        <ele>695.585</ele>
        <time>2022-02-25T10:47:50Z</time>
      </trkpt>
      <trkpt lat="39.905210" lon="-3.636330">
        <ele>695.474</ele>
        <time>2022-02-25T10:48:30Z</time>
      </trkpt>
      <trkpt lat="39.906060" lon="-3.637720">
        <ele>696.264</ele>
        <time>2022-02-25T10:49:10Z</time>
      </trkpt>
      <trkpt lat="39.906520" lon="-3.638480">
        <ele>693.586</ele>
        <time>2022-02-25T10:49:50Z</time>
      </trkpt>
      <trkpt lat="39.906630" lon="-3.638660">
        <ele>694.025</ele>
        <time>2022-02-25T10:50:30Z</time>
      </trkpt>
      <trkpt lat="39.906750" lon="-3.638870">
        <ele>694.335</ele>
        <time>2022-02-25T10:51:10Z</time>
      </trkpt>
      <trkpt lat="39.906860" lon="-3.639060">
        <ele>695.152</ele>
        <time>2022-02-25T10:51:50Z</time>
      </trkpt>
      <trkpt lat="39.907690" lon="-3.640440">
        <ele>695.353</ele>
        <time>2022-02-25T10:52:30Z</time>
      </trkpt>
      <trkpt lat="39.907740" lon="-3.640510">
        <ele>695.108</ele>
        <time>2022-02-25T10:53:10Z</time>
      </trkpt>
      <trkpt lat="39.907960" lon="-3.640890">
        <ele>695.108</ele>
        <time>2022-02-25T10:53:50Z</time>
      </trkpt>
      <trkpt lat="39.908240" lon="-3.641370">
        <ele>693.754</ele>
        <time>2022-02-25T10:54:30Z</time>
      </trkpt>
      <trkpt lat="39.908490" lon="-3.641740">
        <ele>691.411</ele>
        <time>2022-02-25T10:55:10Z</time>
      </trkpt>
      <trkpt lat="39.908620" lon="-3.641950">
        <ele>692.065</ele>
        <time>2022-02-25T10:55:50Z</time>
      </trkpt>
      <trkpt lat="39.908650" lon="-3.641980">
        <ele>692.384</ele>
        <time>2022-02-25T10:56:30Z</time>
      </trkpt>
      <trkpt lat="39.908880" lon="-3.642350">
        <ele>694.574</ele>
        <time>2022-02-25T10:57:10Z</time>
      </trkpt>
      <trkpt lat="39.908970" lon="-3.642500">
        <ele>694.776</ele>
        <time>2022-02-25T10:57:50Z</time>
      </trkpt>
      <trkpt lat="39.909080" lon="-3.642680">
        <ele>694.815</ele>
        <time>2022-02-25T10:58:30Z</time>
      </trkpt>
      <trkpt lat="39.909200" lon="-3.642890">
        <ele>694.965</ele>
        <time>2022-02-25T10:59:10Z</time>
      </trkpt>
      <trkpt lat="39.909300" lon="-3.643060">
        <ele>694.582</ele>
        <time>2022-02-25T10:59:50Z</time>
      </trkpt>
      <trkpt lat="39.909600" lon="-3.643550">
        <ele>693.443</ele>
        <time>2022-02-25T11:00:30Z</time>
      </trkpt>
      <trkpt lat="39.909850" lon="-3.643970">
        <ele>692.517</ele>
        <time>2022-02-25T11:01:10Z</time>
      </trkpt>
      <trkpt lat="39.909860" lon="-3.643980">
        <ele>692.508</ele>
        <time>2022-02-25T11:01:50Z</time>
      </trkpt>
      <trkpt lat="39.909980" lon="-3.644160">
        <ele>692.127</ele>
        <time>2022-02-25T11:02:30Z</time>
      </trkpt>
      <trkpt lat="39.910170" lon="-3.644480">
        <ele>690.944</ele>
        <time>2022-02-25T11:03:10Z</time>
      </trkpt>
      <trkpt lat="39.910260" lon="-3.644630">
        <ele>690.328</ele>
        <time>2022-02-25T11:03:50Z</time>
      </trkpt>
      <trkpt lat="39.910370" lon="-3.644820">
        <ele>689.867</ele>
        <time>2022-02-25T11:04:30Z</time>
      </trkpt>
      <trkpt lat="39.910580" lon="-3.645160">
        <ele>690.037</ele>
        <time>2022-02-25T11:05:10Z</time>
      </trkpt>
      <trkpt lat="39.910690" lon="-3.645350">
        <ele>689.929</ele>
        <time>2022-02-25T11:05:50Z</time>
      </trkpt>
      <trkpt lat="39.910840" lon="-3.645590">
        <ele>688.898</ele>
        <time>2022-02-25T11:06:30Z</time>
      </trkpt>
      <trkpt lat="39.911030" lon="-3.645900">
        <ele>686.898</ele>
        <time>2022-02-25T11:07:10Z</time>
      </trkpt>
      <trkpt lat="39.911160" lon="-3.646120">
        <ele>687.491</ele>
        <time>2022-02-25T11:07:50Z</time>
      </trkpt>
      <trkpt lat="39.911250" lon="-3.646270">
        <ele>688.381</ele>
        <time>2022-02-25T11:08:30Z</time>
      </trkpt>
      <trkpt lat="39.911610" lon="-3.646860">
        <ele>690.019</ele>
        <time>2022-02-25T11:09:10Z</time>
      </trkpt>
      <trkpt lat="39.911800" lon="-3.647160">
        <ele>689.708</ele>
        <time>2022-02-25T11:09:50Z</time>
      </trkpt>
      <trkpt lat="39.911810" lon="-3.647190">
        <ele>689.638</ele>
        <time>2022-02-25T11:10:30Z</time>
      </trkpt>
      <trkpt lat="39.911820" lon="-3.647200">
        <ele>689.625</ele>
        <time>2022-02-25T11:11:10Z</time>
      </trkpt>
      <trkpt lat="39.911820" lon="-3.647240">
        <ele>689.599</ele>
        <time>2022-02-25T11:11:50Z</time>
      </trkpt>
      <trkpt lat="39.911850" lon="-3.647280">
        <ele>689.538</ele>
        <time>2022-02-25T11:12:30Z</time>
      </trkpt>
      <trkpt lat="39.911870" lon="-3.647320">
        <ele>689.538</ele>
        <time>2022-02-25T11:13:10Z</time>
      </trkpt>
      <trkpt lat="39.912120" lon="-3.647750">
        <ele>689.670</ele>
        <time>2022-02-25T11:13:50Z</time>
      </trkpt>
      <trkpt lat="39.912700" lon="-3.648690">
        <ele>691.729</ele>
        <time>2022-02-25T11:14:30Z</time>
      </trkpt>
      <trkpt lat="39.912880" lon="-3.648990">
        <ele>691.569</ele>
        <time>2022-02-25T11:15:10Z</time>
      </trkpt>
      <trkpt lat="39.912990" lon="-3.649180">
        <ele>692.512</ele>
        <time>2022-02-25T11:15:50Z</time>
      </trkpt>
      <trkpt lat="39.913730" lon="-3.650450">
        <ele>692.132</ele>
        <time>2022-02-25T11:16:30Z</time>
      </trkpt>
      <trkpt lat="39.913970" lon="-3.650830">
        <ele>692.005</ele>
        <time>2022-02-25T11:17:10Z</time>
      </trkpt>
      <trkpt lat="39.914080" lon="-3.651010">
        <ele>692.008</ele>
        <time>2022-02-25T11:17:50Z</time>
      </trkpt>
      <trkpt lat="39.914630" lon="-3.651870">
        <ele>692.770</ele>
        <time>2022-02-25T11:18:30Z</time>
      </trkpt>
      <trkpt lat="39.915250" lon="-3.652910">
        <ele>692.297</ele>
        <time>2022-02-25T11:19:10Z</time>
      </trkpt>
      <trkpt lat="39.915980" lon="-3.654140">
        <ele>691.041</ele>
        <time>2022-02-25T11:19:50Z</time>
      </trkpt>
      <trkpt lat="39.916000" lon="-3.654180">
        <ele>691.090</ele>
        <time>2022-02-25T11:20:30Z</time>
      </trkpt>
      <trkpt lat="39.916280" lon="-3.654630">
        <ele>691.630</ele>
        <time>2022-02-25T11:21:10Z</time>
      </trkpt>
      <trkpt lat="39.916350" lon="-3.654740">
        <ele>691.192</ele>
        <time>2022-02-25T11:21:50Z</time>
      </trkpt>
      <trkpt lat="39.916360" lon="-3.654750">
        <ele>691.121</ele>
        <time>2022-02-25T11:22:30Z</time>
      </trkpt>
      <trkpt lat="39.916760" lon="-3.655420">
        <ele>689.041</ele>
        <time>2022-02-25T11:23:10Z</time>
      </trkpt>
      <trkpt lat="39.917160" lon="-3.656080">
        <ele>690.933</ele>
        <time>2022-02-25T11:23:50Z</time>
      </trkpt>
      <trkpt lat="39.917190" lon="-3.656120">
        <ele>691.023</ele>
        <time>2022-02-25T11:24:30Z</time>
      </trkpt>
      <trkpt lat="39.917940" lon="-3.657400">
        <ele>689.615</ele>
        <time>2022-02-25T11:25:10Z</time>
      </trkpt>
      <trkpt lat="39.918370" lon="-3.658140">
        <ele>687.908</ele>
        <time>2022-02-25T11:25:50Z</time>
      </trkpt>
      <trkpt lat="39.918600" lon="-3.658540">
        <ele>688.262</ele>
        <time>2022-02-25T11:26:30Z</time>
      </trkpt>
      <trkpt lat="39.918780" lon="-3.658890">
        <ele>687.099</ele>
        <time>2022-02-25T11:27:10Z</time>
      </trkpt>
      <trkpt lat="39.918820" lon="-3.658970">
        <ele>687.083</ele>
        <time>2022-02-25T11:27:50Z</time>
      </trkpt>
      <trkpt lat="39.918830" lon="-3.658980">
        <ele>687.072</ele>
        <time>2022-02-25T11:28:30Z</time>
      </trkpt>
      <trkpt lat="39.918880" lon="-3.659070">
        <ele>687.062</ele>
        <time>2022-02-25T11:29:10Z</time>
      </trkpt>
      <trkpt lat="39.919190" lon="-3.659670">
        <ele>689.084</ele>
        <time>2022-02-25T11:29:50Z</time>
      </trkpt>
      <trkpt lat="39.919200" lon="-3.659680">
        <ele>689.043</ele>
        <time>2022-02-25T11:30:30Z</time>
      </trkpt>
      <trkpt lat="39.919720" lon="-3.660900">
        <ele>689.043</ele>
        <time>2022-02-25T11:31:10Z</time>
      </trkpt>
      <trkpt lat="39.920350" lon="-3.662380">
        <ele>689.355</ele>
        <time>2022-02-25T11:31:50Z</time>
      </trkpt>
      <trkpt lat="39.921310" lon="-3.664590">
        <ele>687.307</ele>
        <time>2022-02-25T11:32:30Z</time>
      </trkpt>
      <trkpt lat="39.921500" lon="-3.665030">
        <ele>686.017</ele>
        <time>2022-02-25T11:33:10Z</time>
      </trkpt>
      <trkpt lat="39.921820" lon="-3.665740">
        <ele>686.108</ele>
        <time>2022-02-25T11:33:50Z</time>
      </trkpt>
      <trkpt lat="39.922090" lon="-3.666370">
        <ele>685.614</ele>
        <time>2022-02-25T11:34:30Z</time>
      </trkpt>
      <trkpt lat="39.922140" lon="-3.666500">
        <ele>685.261</ele>
        <time>2022-02-25T11:35:10Z</time>
      </trkpt>
      <trkpt lat="39.922300" lon="-3.666960">
        <ele>684.355</ele>
        <time>2022-02-25T11:35:50Z</time>
      </trkpt>
      <trkpt lat="39.922340" lon="-3.667090">
        <ele>684.414</ele>
        <time>2022-02-25T11:36:30Z</time>
      </trkpt>
      <trkpt lat="39.922470" lon="-3.667530">
        <ele>684.874</ele>
        <time>2022-02-25T11:37:10Z</time>
      </trkpt>
      <trkpt lat="39.922630" lon="-3.668300">
        <ele>685.386</ele>
        <time>2022-02-25T11:37:50Z</time>
      </trkpt>
      <trkpt lat="39.922810" lon="-3.669350">
        <ele>687.345</ele>
        <time>2022-02-25T11:38:30Z</time>
      </trkpt>
      <trkpt lat="39.922890" lon="-3.669860">
        <ele>686.695</ele>
        <time>2022-02-25T11:39:10Z</time>
      </trkpt>
      <trkpt lat="39.922960" lon="-3.670390">
        <ele>686.653</ele>
        <time>2022-02-25T11:39:50Z</time>
      </trkpt>
      <trkpt lat="39.922970" lon="-3.670500">
        <ele>686.304</ele>
        <time>2022-02-25T11:40:30Z</time>
      </trkpt>
      <trkpt lat="39.923000" lon="-3.670930">
        <ele>686.114</ele>
        <time>2022-02-25T11:41:10Z</time>
      </trkpt>
      <trkpt lat="39.923000" lon="-3.671010">
        <ele>686.408</ele>
        <time>2022-02-25T11:41:50Z</time>
      </trkpt>
      <trkpt lat="39.922990" lon="-3.671220">
        <ele>687.144</ele>
        <time>2022-02-25T11:42:30Z</time>
      </trkpt>
      <trkpt lat="39.922970" lon="-3.671590">
        <ele>687.441</ele>
        <time>2022-02-25T11:43:10Z</time>
      </trkpt>
      <trkpt lat="39.922870" lon="-3.672220">
        <ele>687.325</ele>
        <time>2022-02-25T11:43:50Z</time>
      </trkpt>
      <trkpt lat="39.922780" lon="-3.672680">
        <ele>685.694</ele>
        <time>2022-02-25T11:44:30Z</time>
      </trkpt>
      <trkpt lat="39.922470" lon="-3.673760">
        <ele>686.584</ele>
        <time>2022-02-25T11:45:10Z</time>
      </trkpt>
      <trkpt lat="39.922420" lon="-3.673900">
        <ele>687.056</ele>
        <time>2022-02-25T11:45:50Z</time>
      </trkpt>
      <trkpt lat="39.922130" lon="-3.674760">
        <ele>690.055</ele>
        <time>2022-02-25T11:46:30Z</time>
      </trkpt>
      <trkpt lat="39.921880" lon="-3.675460">
        <ele>688.855</ele>
        <time>2022-02-25T11:47:10Z</time>
      </trkpt>
      <trkpt lat="39.921590" lon="-3.676180">
        <ele>687.596</ele>
        <time>2022-02-25T11:47:50Z</time>
      </trkpt>
      <trkpt lat="39.921500" lon="-3.676360">
        <ele>688.031</ele>
        <time>2022-02-25T11:48:30Z</time>
      </trkpt>
      <trkpt lat="39.920930" lon="-3.677560">
        <ele>687.824</ele>
        <time>2022-02-25T11:49:10Z</time>
      </trkpt>
      <trkpt lat="39.920330" lon="-3.678800">
        <ele>687.608</ele>
        <time>2022-02-25T11:49:50Z</time>
      </trkpt>
      <trkpt lat="39.920150" lon="-3.679210">
        <ele>686.768</ele>
        <time>2022-02-25T11:50:30Z</time>
      </trkpt>
      <trkpt lat="39.920050" lon="-3.679420">
        <ele>687.195</ele>
        <time>2022-02-25T11:51:10Z</time>
      </trkpt>
      <trkpt lat="39.919860" lon="-3.679840">
        <ele>687.089</ele>
        <time>2022-02-25T11:51:50Z</time>
      </trkpt>
      <trkpt lat="39.919770" lon="-3.680060">
        <ele>686.578</ele>
        <time>2022-02-25T11:52:30Z</time>
      </trkpt>
      <trkpt lat="39.919700" lon="-3.680240">
        <ele>686.728</ele>
        <time>2022-02-25T11:53:10Z</time>
      </trkpt>
      <trkpt lat="39.919650" lon="-3.680410">
        <ele>687.050</ele>
        <time>2022-02-25T11:53:50Z</time>
      </trkpt>
      <trkpt lat="39.919600" lon="-3.680660">
        <ele>687.379</ele>
        <time>2022-02-25T11:54:30Z</time>
      </trkpt>
      <trkpt lat="39.919580" lon="-3.680720">
        <ele>687.319</ele>
        <time>2022-02-25T11:55:10Z</time>
      </trkpt>
      <trkpt lat="39.919560" lon="-3.680810">
        <ele>687.219</ele>
        <time>2022-02-25T11:55:50Z</time>
      </trkpt>
      <trkpt lat="39.919540" lon="-3.681000">
        <ele>686.209</ele>
        <time>2022-02-25T11:56:30Z</time>
      </trkpt>
      <trkpt lat="39.919510" lon="-3.681250">
        <ele>684.919</ele>
        <time>2022-02-25T11:57:10Z</time>
      </trkpt>
      <trkpt lat="39.919490" lon="-3.681460">
        <ele>684.108</ele>
        <time>2022-02-25T11:57:50Z</time>
      </trkpt>
      <trkpt lat="39.919500" lon="-3.681730">
        <ele>684.140</ele>
        <time>2022-02-25T11:58:30Z</time>
      </trkpt>
      <trkpt lat="39.919500" lon="-3.681860">
        <ele>684.817</ele>
        <time>2022-02-25T11:59:10Z</time>
      </trkpt>
      <trkpt lat="39.919510" lon="-3.682010">
        <ele>684.911</ele>
        <time>2022-02-25T11:59:50Z</time>
      </trkpt>
      <trkpt lat="39.919530" lon="-3.682250">
        <ele>684.090</ele>
        <time>2022-02-25T12:00:30Z</time>
      </trkpt>
      <trkpt lat="39.919550" lon="-3.682350">
        <ele>683.630</ele>
        <time>2022-02-25T12:01:10Z</time>
      </trkpt>
      <trkpt lat="39.919580" lon="-3.682480">
        <ele>683.192</ele>
        <time>2022-02-25T12:01:50Z</time>
      </trkpt>
      <trkpt lat="39.919600" lon="-3.682570">
        <ele>682.931</ele>
        <time>2022-02-25T12:02:30Z</time>
      </trkpt>
      <trkpt lat="39.919720" lon="-3.683000">
        <ele>681.451</ele>
        <time>2022-02-25T12:03:10Z</time>
      </trkpt>
      <trkpt lat="39.919720" lon="-3.683010">
        <ele>681.328</ele>
        <time>2022-02-25T12:03:50Z</time>
      </trkpt>
      <trkpt lat="39.919790" lon="-3.683230">
        <ele>679.189</ele>
        <time>2022-02-25T12:04:30Z</time>
      </trkpt>
      <trkpt lat="39.919870" lon="-3.683440">
        <ele>677.717</ele>
        <time>2022-02-25T12:05:10Z</time>
      </trkpt>
      <trkpt lat="39.919930" lon="-3.683590">
        <ele>677.608</ele>
        <time>2022-02-25T12:05:50Z</time>
      </trkpt>
      <trkpt lat="39.919960" lon="-3.683640">
        <ele>677.581</ele>
        <time>2022-02-25T12:06:30Z</time>
      </trkpt>
      <trkpt lat="39.920060" lon="-3.683810">
        <ele>676.788</ele>
        <time>2022-02-25T12:07:10Z</time>
      </trkpt>
      <trkpt lat="39.920310" lon="-3.684180">
        <ele>676.212</ele>
        <time>2022-02-25T12:07:50Z</time>
      </trkpt>
      <trkpt lat="39.920550" lon="-3.684530">
        <ele>673.041</ele>
        <time>2022-02-25T12:08:30Z</time>
      </trkpt>
      <trkpt lat="39.920670" lon="-3.684700">
        <ele>671.881</ele>
        <time>2022-02-25T12:09:10Z</time>
      </trkpt>
      <trkpt lat="39.920820" lon="-3.684910">
        <ele>670.453</ele>
        <time>2022-02-25T12:09:50Z</time>
      </trkpt>
      <trkpt lat="39.920980" lon="-3.685100">
        <ele>669.172</ele>
        <time>2022-02-25T12:10:30Z</time>
      </trkpt>
      <trkpt lat="39.921200" lon="-3.685340">
        <ele>667.322</ele>
        <time>2022-02-25T12:11:10Z</time>
      </trkpt>
      <trkpt lat="39.921290" lon="-3.685460">
        <ele>667.058</ele>
        <time>2022-02-25T12:11:50Z</time>
      </trkpt>
      <trkpt lat="39.921360" lon="-3.685550">
        <ele>666.552</ele>
        <time>2022-02-25T12:12:30Z</time>
      </trkpt>
      <trkpt lat="39.921430" lon="-3.685640">
        <ele>665.517</ele>
        <time>2022-02-25T12:13:10Z</time>
      </trkpt>
      <trkpt lat="39.921490" lon="-3.685720">
        <ele>664.508</ele>
        <time>2022-02-25T12:13:50Z</time>
      </trkpt>
      <trkpt lat="39.921540" lon="-3.685790">
        <ele>663.894</ele>
        <time>2022-02-25T12:14:30Z</time>
      </trkpt>
      <trkpt lat="39.921580" lon="-3.685870">
        <ele>663.751</ele>
        <time>2022-02-25T12:15:10Z</time>
      </trkpt>
      <trkpt lat="39.921660" lon="-3.685980">
        <ele>663.315</ele>
        <time>2022-02-25T12:15:50Z</time>
      </trkpt>
      <trkpt lat="39.921740" lon="-3.686120">
        <ele>662.774</ele>
        <time>2022-02-25T12:16:30Z</time>
      </trkpt>
      <trkpt lat="39.921800" lon="-3.686230">
        <ele>661.334</ele>
        <time>2022-02-25T12:17:10Z</time>
      </trkpt>
      <trkpt lat="39.921870" lon="-3.686390">
        <ele>659.736</ele>
        <time>2022-02-25T12:17:50Z</time>
      </trkpt>
      <trkpt lat="39.922030" lon="-3.686750">
        <ele>655.775</ele>
        <time>2022-02-25T12:18:30Z</time>
      </trkpt>
      <trkpt lat="39.922270" lon="-3.687450">
        <ele>652.195</ele>
        <time>2022-02-25T12:19:10Z</time>
      </trkpt>
      <trkpt lat="39.922470" lon="-3.688130">
        <ele>646.825</ele>
        <time>2022-02-25T12:19:50Z</time>
      </trkpt>
      <trkpt lat="39.922800" lon="-3.689220">
        <ele>641.626</ele>
        <time>2022-02-25T12:20:30Z</time>
      </trkpt>
      <trkpt lat="39.922910" lon="-3.689570">
        <ele>640.308</ele>
        <time>2022-02-25T12:21:10Z</time>
      </trkpt>
      <trkpt lat="39.923060" lon="-3.689990">
        <ele>637.908</ele>
        <time>2022-02-25T12:21:50Z</time>
      </trkpt>
      <trkpt lat="39.923120" lon="-3.690120">
        <ele>636.551</ele>
        <time>2022-02-25T12:22:30Z</time>
      </trkpt>
      <trkpt lat="39.923160" lon="-3.690200">
        <ele>635.558</ele>
        <time>2022-02-25T12:23:10Z</time>
      </trkpt>
      <trkpt lat="39.923260" lon="-3.690410">
        <ele>633.342</ele>
        <time>2022-02-25T12:23:50Z</time>
      </trkpt>
      <trkpt lat="39.923320" lon="-3.690510">
        <ele>632.271</ele>
        <time>2022-02-25T12:24:30Z</time>
      </trkpt>
      <trkpt lat="39.923370" lon="-3.690600">
        <ele>631.891</ele>
        <time>2022-02-25T12:25:10Z</time>
      </trkpt>
      <trkpt lat="39.923470" lon="-3.690750">
        <ele>631.683</ele>
        <time>2022-02-25T12:25:50Z</time>
      </trkpt>
      <trkpt lat="39.923610" lon="-3.690950">
        <ele>631.432</ele>
        <time>2022-02-25T12:26:30Z</time>
      </trkpt>
      <trkpt lat="39.923770" lon="-3.691150">
        <ele>632.292</ele>
        <time>2022-02-25T12:27:10Z</time>
      </trkpt>
      <trkpt lat="39.924020" lon="-3.691430">
        <ele>632.057</ele>
        <time>2022-02-25T12:27:50Z</time>
      </trkpt>
      <trkpt lat="39.924340" lon="-3.691770">
        <ele>629.000</ele>
        <time>2022-02-25T12:28:30Z</time>
      </trkpt>
      <trkpt lat="39.924670" lon="-3.692120">
        <ele>627.520</ele>
        <time>2022-02-25T12:29:10Z</time>
      </trkpt>
      <trkpt lat="39.924680" lon="-3.692130">
        <ele>627.508</ele>
        <time>2022-02-25T12:29:50Z</time>
      </trkpt>
      <trkpt lat="39.924940" lon="-3.692440">
        <ele>626.644</ele>
        <time>2022-02-25T12:30:30Z</time>
      </trkpt>
      <trkpt lat="39.925170" lon="-3.692780">
        <ele>622.971</ele>
        <time>2022-02-25T12:31:10Z</time>
      </trkpt>
      <trkpt lat="39.925180" lon="-3.692790">
        <ele>622.735</ele>
        <time>2022-02-25T12:31:50Z</time>
      </trkpt>
      <trkpt lat="39.925330" lon="-3.693060">
        <ele>619.434</ele>
        <time>2022-02-25T12:32:30Z</time>
      </trkpt>
      <trkpt lat="39.925510" lon="-3.693410">
        <ele>618.494</ele>
        <time>2022-02-25T12:33:10Z</time>
      </trkpt>
      <trkpt lat="39.925790" lon="-3.693970">
        <ele>618.266</ele>
        <time>2022-02-25T12:33:50Z</time>
      </trkpt>
      <trkpt lat="39.925940" lon="-3.694260">
        <ele>618.225</ele>
        <time>2022-02-25T12:34:30Z</time>
      </trkpt>
      <trkpt lat="39.926490" lon="-3.695350">
        <ele>614.355</ele>
        <time>2022-02-25T12:35:10Z</time>
      </trkpt>
      <trkpt lat="39.926730" lon="-3.695780">
        <ele>613.068</ele>
        <time>2022-02-25T12:35:50Z</time>
      </trkpt>
      <trkpt lat="39.927220" lon="-3.696520">
        <ele>605.642</ele>
        <time>2022-02-25T12:36:30Z</time>
      </trkpt>
      <trkpt lat="39.927580" lon="-3.697020">
        <ele>601.926</ele>
        <time>2022-02-25T12:37:10Z</time>
      </trkpt>
      <trkpt lat="39.927780" lon="-3.697290">
        <ele>600.708</ele>
        <time>2022-02-25T12:37:50Z</time>
      </trkpt>
      <trkpt lat="39.927830" lon="-3.697360">
        <ele>600.195</ele>
        <time>2022-02-25T12:38:30Z</time>
      </trkpt>
      <trkpt lat="39.928150" lon="-3.697800">
        <ele>597.782</ele>
        <time>2022-02-25T12:39:10Z</time>
      </trkpt>
      <trkpt lat="39.928280" lon="-3.697970">
        <ele>597.326</ele>
        <time>2022-02-25T12:39:50Z</time>
      </trkpt>
      <trkpt lat="39.928710" lon="-3.698580">
        <ele>597.725</ele>
        <time>2022-02-25T12:40:30Z</time>
      </trkpt>
      <trkpt lat="39.929060" lon="-3.699140">
        <ele>598.245</ele>
        <time>2022-02-25T12:41:10Z</time>
      </trkpt>
      <trkpt lat="39.929250" lon="-3.699480">
        <ele>594.277</ele>
        <time>2022-02-25T12:41:50Z</time>
      </trkpt>
      <trkpt lat="39.929310" lon="-3.699590">
        <ele>593.276</ele>
        <time>2022-02-25T12:42:30Z</time>
      </trkpt>
      <trkpt lat="39.929350" lon="-3.699650">
        <ele>592.776</ele>
        <time>2022-02-25T12:43:10Z</time>
      </trkpt>
      <trkpt lat="39.929500" lon="-3.699930">
        <ele>591.349</ele>
        <time>2022-02-25T12:43:50Z</time>
      </trkpt>
      <trkpt lat="39.929750" lon="-3.700430">
        <ele>592.002</ele>
        <time>2022-02-25T12:44:30Z</time>
      </trkpt>
      <trkpt lat="39.929910" lon="-3.700740">
        <ele>591.622</ele>
        <time>2022-02-25T12:45:10Z</time>
      </trkpt>
      <trkpt lat="39.929950" lon="-3.700820">
        <ele>591.208</ele>
        <time>2022-02-25T12:45:50Z</time>
      </trkpt>
      <trkpt lat="39.930160" lon="-3.701210">
        <ele>588.943</ele>
        <time>2022-02-25T12:46:30Z</time>
      </trkpt>
      <trkpt lat="39.930260" lon="-3.701400">
        <ele>587.290</ele>
        <time>2022-02-25T12:47:10Z</time>
      </trkpt>
      <trkpt lat="39.930320" lon="-3.701520">
        <ele>587.694</ele>
        <time>2022-02-25T12:47:50Z</time>
      </trkpt>
      <trkpt lat="39.930670" lon="-3.702020">
        <ele>591.453</ele>
        <time>2022-02-25T12:48:30Z</time>
      </trkpt>
      <trkpt lat="39.930850" lon="-3.702230">
        <ele>592.743</ele>
        <time>2022-02-25T12:49:10Z</time>
      </trkpt>
      <trkpt lat="39.931000" lon="-3.702380">
        <ele>591.155</ele>
        <time>2022-02-25T12:49:50Z</time>
      </trkpt>
      <trkpt lat="39.931290" lon="-3.702640">
        <ele>589.464</ele>
        <time>2022-02-25T12:50:30Z</time>
      </trkpt>
      <trkpt lat="39.931520" lon="-3.702820">
        <ele>589.854</ele>
        <time>2022-02-25T12:51:10Z</time>
      </trkpt>
      <trkpt lat="39.931870" lon="-3.703090">
        <ele>592.625</ele>
        <time>2022-02-25T12:51:50Z</time>
      </trkpt>
      <trkpt lat="39.931940" lon="-3.703150">
        <ele>593.026</ele>
        <time>2022-02-25T12:52:30Z</time>
      </trkpt>
      <trkpt lat="39.932040" lon="-3.703230">
        <ele>592.508</ele>
        <time>2022-02-25T12:53:10Z</time>
      </trkpt>
      <trkpt lat="39.932080" lon="-3.703280">
        <ele>592.308</ele>
        <time>2022-02-25T12:53:50Z</time>
      </trkpt>
      <trkpt lat="39.932190" lon="-3.703390">
        <ele>590.611</ele>
        <time>2022-02-25T12:54:30Z</time>
      </trkpt>
      <trkpt lat="39.932220" lon="-3.703420">
        <ele>590.068</ele>
        <time>2022-02-25T12:55:10Z</time>
      </trkpt>
      <trkpt lat="39.932330" lon="-3.703530">
        <ele>588.882</ele>
        <time>2022-02-25T12:55:50Z</time>
      </trkpt>
      <trkpt lat="39.932400" lon="-3.703620">
        <ele>588.111</ele>
        <time>2022-02-25T12:56:30Z</time>
      </trkpt>
      <trkpt lat="39.932500" lon="-3.703740">
        <ele>587.091</ele>
        <time>2022-02-25T12:57:10Z</time>
      </trkpt>
      <trkpt lat="39.932560" lon="-3.703840">
        <ele>586.743</ele>
        <time>2022-02-25T12:57:50Z</time>
      </trkpt>
      <trkpt lat="39.932630" lon="-3.703940">
        <ele>586.772</ele>
        <time>2022-02-25T12:58:30Z</time>
      </trkpt>
      <trkpt lat="39.932720" lon="-3.704090">
        <ele>586.972</ele>
        <time>2022-02-25T12:59:10Z</time>
      </trkpt>
      <trkpt lat="39.932920" lon="-3.704420">
        <ele>588.349</ele>
        <time>2022-02-25T12:59:50Z</time>
      </trkpt>
      <trkpt lat="39.933460" lon="-3.705370">
        <ele>584.202</ele>
        <time>2022-02-25T13:00:30Z</time>
      </trkpt>
      <trkpt lat="39.933700" lon="-3.705780">
        <ele>583.022</ele>
        <time>2022-02-25T13:01:10Z</time>
      </trkpt>
      <trkpt lat="39.933800" lon="-3.705960">
        <ele>583.008</ele>
        <time>2022-02-25T13:01:50Z</time>
      </trkpt>
      <trkpt lat="39.933820" lon="-3.705990">
        <ele>583.093</ele>
        <time>2022-02-25T13:02:30Z</time>
      </trkpt>
      <trkpt lat="39.933920" lon="-3.706150">
        <ele>582.750</ele>
        <time>2022-02-25T13:03:10Z</time>
      </trkpt>
      <trkpt lat="39.934300" lon="-3.706740">
        <ele>581.574</ele>
        <time>2022-02-25T13:03:50Z</time>
      </trkpt>
      <trkpt lat="39.934690" lon="-3.707340">
        <ele>580.113</ele>
        <time>2022-02-25T13:04:30Z</time>
      </trkpt>
      <trkpt lat="39.935270" lon="-3.708200">
        <ele>579.513</ele>
        <time>2022-02-25T13:05:10Z</time>
      </trkpt>
      <trkpt lat="39.936000" lon="-3.709280">
        <ele>574.295</ele>
        <time>2022-02-25T13:05:50Z</time>
      </trkpt>
      <trkpt lat="39.936120" lon="-3.709450">
        <ele>573.944</ele>
        <time>2022-02-25T13:06:30Z</time>
      </trkpt>
      <trkpt lat="39.936120" lon="-3.709460">
        <ele>573.934</ele>
        <time>2022-02-25T13:07:10Z</time>
      </trkpt>
      <trkpt lat="39.936240" lon="-3.709630">
        <ele>572.293</ele>
        <time>2022-02-25T13:07:50Z</time>
      </trkpt>
      <trkpt lat="39.936360" lon="-3.709800">
        <ele>571.565</ele>
        <time>2022-02-25T13:08:30Z</time>
      </trkpt>
      <trkpt lat="39.936690" lon="-3.710290">
        <ele>570.021</ele>
        <time>2022-02-25T13:09:10Z</time>
      </trkpt>
      <trkpt lat="39.936840" lon="-3.710500">
        <ele>571.208</ele>
        <time>2022-02-25T13:09:50Z</time>
      </trkpt>
      <trkpt lat="39.937600" lon="-3.711630">
        <ele>572.158</ele>
        <time>2022-02-25T13:10:30Z</time>
      </trkpt>
      <trkpt lat="39.937640" lon="-3.711690">
        <ele>572.185</ele>
        <time>2022-02-25T13:11:10Z</time>
      </trkpt>
      <trkpt lat="39.938120" lon="-3.712410">
        <ele>571.789</ele>
        <time>2022-02-25T13:11:50Z</time>
      </trkpt>
      <trkpt lat="39.938180" lon="-3.712510">
        <ele>572.058</ele>
        <time>2022-02-25T13:12:30Z</time>
      </trkpt>
      <trkpt lat="39.938230" lon="-3.712580">
        <ele>572.358</ele>
        <time>2022-02-25T13:13:10Z</time>
      </trkpt>
      <trkpt lat="39.938310" lon="-3.712670">
        <ele>572.650</ele>
        <time>2022-02-25T13:13:50Z</time>
      </trkpt>
      <trkpt lat="39.938450" lon="-3.712910">
        <ele>573.069</ele>
        <time>2022-02-25T13:14:30Z</time>
      </trkpt>
      <trkpt lat="39.939130" lon="-3.714110">
        <ele>568.459</ele>
        <time>2022-02-25T13:15:10Z</time>
      </trkpt>
      <trkpt lat="39.939410" lon="-3.714550">
        <ele>566.783</ele>
        <time>2022-02-25T13:15:50Z</time>
      </trkpt>
      <trkpt lat="39.939610" lon="-3.714900">
        <ele>565.425</ele>
        <time>2022-02-25T13:16:30Z</time>
      </trkpt>
      <trkpt lat="39.939730" lon="-3.715110">
        <ele>565.417</ele>
        <time>2022-02-25T13:17:10Z</time>
      </trkpt>
      <trkpt lat="39.940000" lon="-3.715580">
        <ele>566.908</ele>
        <time>2022-02-25T13:17:50Z</time>
      </trkpt>
      <trkpt lat="39.940010" lon="-3.715600">
        <ele>566.887</ele>
        <time>2022-02-25T13:18:30Z</time>
      </trkpt>
      <trkpt lat="39.940720" lon="-3.716890">
        <ele>564.644</ele>
        <time>2022-02-25T13:19:10Z</time>
      </trkpt>
      <trkpt lat="39.940790" lon="-3.717070">
        <ele>564.558</ele>
        <time>2022-02-25T13:19:50Z</time>
      </trkpt>
      <trkpt lat="39.940830" lon="-3.717140">
        <ele>564.347</ele>
        <time>2022-02-25T13:20:30Z</time>
      </trkpt>
      <trkpt lat="39.940870" lon="-3.717210">
        <ele>564.267</ele>
        <time>2022-02-25T13:21:10Z</time>
      </trkpt>
      <trkpt lat="39.940960" lon="-3.717370">
        <ele>564.539</ele>
        <time>2022-02-25T13:21:50Z</time>
      </trkpt>
      <trkpt lat="39.941570" lon="-3.718430">
        <ele>562.678</ele>
        <time>2022-02-25T13:22:30Z</time>
      </trkpt>
      <trkpt lat="39.941730" lon="-3.718720">
        <ele>562.918</ele>
        <time>2022-02-25T13:23:10Z</time>
      </trkpt>
      <trkpt lat="39.941860" lon="-3.718960">
        <ele>562.257</ele>
        <time>2022-02-25T13:23:50Z</time>
      </trkpt>
      <trkpt lat="39.942070" lon="-3.719330">
        <ele>562.300</ele>
        <time>2022-02-25T13:24:30Z</time>
      </trkpt>
      <trkpt lat="39.942420" lon="-3.719960">
        <ele>563.320</ele>
        <time>2022-02-25T13:25:10Z</time>
      </trkpt>
      <trkpt lat="39.942790" lon="-3.720620">
        <ele>560.208</ele>
        <time>2022-02-25T13:25:50Z</time>
      </trkpt>
      <trkpt lat="39.943000" lon="-3.721000">
        <ele>561.684</ele>
        <time>2022-02-25T13:26:30Z</time>
      </trkpt>
      <trkpt lat="39.943020" lon="-3.721040">
        <ele>561.751</ele>
        <time>2022-02-25T13:27:10Z</time>
      </trkpt>
      <trkpt lat="39.943020" lon="-3.721050">
        <ele>561.885</ele>
        <time>2022-02-25T13:27:50Z</time>
      </trkpt>
      <trkpt lat="39.943130" lon="-3.721240">
        <ele>561.474</ele>
        <time>2022-02-25T13:28:30Z</time>
      </trkpt>
      <trkpt lat="39.943520" lon="-3.721950">
        <ele>558.694</ele>
        <time>2022-02-25T13:29:10Z</time>
      </trkpt>
      <trkpt lat="39.943540" lon="-3.721990">
        <ele>558.346</ele>
        <time>2022-02-25T13:29:50Z</time>
      </trkpt>
      <trkpt lat="39.943550" lon="-3.722000">
        <ele>558.225</ele>
        <time>2022-02-25T13:30:30Z</time>
      </trkpt>
      <trkpt lat="39.943570" lon="-3.722040">
        <ele>558.055</ele>
        <time>2022-02-25T13:31:10Z</time>
      </trkpt>
      <trkpt lat="39.943740" lon="-3.722330">
        <ele>556.321</ele>
        <time>2022-02-25T13:31:50Z</time>
      </trkpt>
      <trkpt lat="39.944380" lon="-3.723470">
        <ele>554.841</ele>
        <time>2022-02-25T13:32:30Z</time>
      </trkpt>
      <trkpt lat="39.944400" lon="-3.723500">
        <ele>554.805</ele>
        <time>2022-02-25T13:33:10Z</time>
      </trkpt>
      <trkpt lat="39.944400" lon="-3.723510">
        <ele>554.908</ele>
        <time>2022-02-25T13:33:50Z</time>
      </trkpt>
      <trkpt lat="39.944910" lon="-3.724410">
        <ele>551.311</ele>
        <time>2022-02-25T13:34:30Z</time>
      </trkpt>
      <trkpt lat="39.944910" lon="-3.724420">
        <ele>551.348</ele>
        <time>2022-02-25T13:35:10Z</time>
      </trkpt>
      <trkpt lat="39.944930" lon="-3.724450">
        <ele>551.052</ele>
        <time>2022-02-25T13:35:50Z</time>
      </trkpt>
      <trkpt lat="39.944940" lon="-3.724460">
        <ele>551.011</ele>
        <time>2022-02-25T13:36:30Z</time>
      </trkpt>
      <trkpt lat="39.945080" lon="-3.724710">
        <ele>551.681</ele>
        <time>2022-02-25T13:37:10Z</time>
      </trkpt>
      <trkpt lat="39.945230" lon="-3.724940">
        <ele>552.773</ele>
        <time>2022-02-25T13:37:50Z</time>
      </trkpt>
      <trkpt lat="39.945280" lon="-3.725010">
        <ele>553.122</ele>
        <time>2022-02-25T13:38:30Z</time>
      </trkpt>
      <trkpt lat="39.945330" lon="-3.725100">
        <ele>553.582</ele>
        <time>2022-02-25T13:39:10Z</time>
      </trkpt>
      <trkpt lat="39.945380" lon="-3.725170">
        <ele>553.968</ele>
        <time>2022-02-25T13:39:50Z</time>
      </trkpt>
      <trkpt lat="39.945390" lon="-3.725170">
        <ele>553.842</ele>
        <time>2022-02-25T13:40:30Z</time>
      </trkpt>
      <trkpt lat="39.945400" lon="-3.725190">
        <ele>553.926</ele>
        <time>2022-02-25T13:41:10Z</time>
      </trkpt>
      <trkpt lat="39.945440" lon="-3.725240">
        <ele>554.108</ele>
        <time>2022-02-25T13:41:50Z</time>
      </trkpt>
      <trkpt lat="39.945480" lon="-3.725290">
        <ele>554.365</ele>
        <time>2022-02-25T13:42:30Z</time>
      </trkpt>
      <trkpt lat="39.945530" lon="-3.725340">
        <ele>554.392</ele>
        <time>2022-02-25T13:43:10Z</time>
      </trkpt>
      <trkpt lat="39.945610" lon="-3.725430">
        <ele>554.556</ele>
        <time>2022-02-25T13:43:50Z</time>
      </trkpt>
      <trkpt lat="39.945690" lon="-3.725510">
        <ele>554.885</ele>
        <time>2022-02-25T13:44:30Z</time>
      </trkpt>
      <trkpt lat="39.945830" lon="-3.725640">
        <ele>555.075</ele>
        <time>2022-02-25T13:45:10Z</time>
      </trkpt>
      <trkpt lat="39.945960" lon="-3.725760">
        <ele>555.277</ele>
        <time>2022-02-25T13:45:50Z</time>
      </trkpt>
      <trkpt lat="39.946110" lon="-3.725890">
        <ele>556.266</ele>
        <time>2022-02-25T13:46:30Z</time>
      </trkpt>
      <trkpt lat="39.946200" lon="-3.725970">
        <ele>556.346</ele>
        <time>2022-02-25T13:47:10Z</time>
      </trkpt>
      <trkpt lat="39.946260" lon="-3.726030">
        <ele>556.395</ele>
        <time>2022-02-25T13:47:50Z</time>
      </trkpt>
      <trkpt lat="39.946300" lon="-3.726070">
        <ele>556.349</ele>
        <time>2022-02-25T13:48:30Z</time>
      </trkpt>
      <trkpt lat="39.946360" lon="-3.726140">
        <ele>556.223</ele>
        <time>2022-02-25T13:49:10Z</time>
      </trkpt>
      <trkpt lat="39.946380" lon="-3.726170">
        <ele>556.208</ele>
        <time>2022-02-25T13:49:50Z</time>
      </trkpt>
      <trkpt lat="39.946440" lon="-3.726210">
        <ele>556.288</ele>
        <time>2022-02-25T13:50:30Z</time>
      </trkpt>
      <trkpt lat="39.946440" lon="-3.726220">
        <ele>556.265</ele>
        <time>2022-02-25T13:51:10Z</time>
      </trkpt>
      <trkpt lat="39.946470" lon="-3.726230">
        <ele>556.169</ele>
        <time>2022-02-25T13:51:50Z</time>
      </trkpt>
      <trkpt lat="39.946490" lon="-3.726260">
        <ele>556.248</ele>
        <time>2022-02-25T13:52:30Z</time>
      </trkpt>
      <trkpt lat="39.946540" lon="-3.726330">
        <ele>556.218</ele>
        <time>2022-02-25T13:53:10Z</time>
      </trkpt>
      <trkpt lat="39.946740" lon="-3.726460">
        <ele>555.740</ele>
        <time>2022-02-25T13:53:50Z</time>
      </trkpt>
      <trkpt lat="39.946840" lon="-3.726530">
        <ele>555.329</ele>
        <time>2022-02-25T13:54:30Z</time>
      </trkpt>
      <trkpt lat="39.946880" lon="-3.726570">
        <ele>555.139</ele>
        <time>2022-02-25T13:55:10Z</time>
      </trkpt>
      <trkpt lat="39.946900" lon="-3.726580">
        <ele>555.017</ele>
        <time>2022-02-25T13:55:50Z</time>
      </trkpt>
      <trkpt lat="39.946910" lon="-3.726600">
        <ele>555.087</ele>
        <time>2022-02-25T13:56:30Z</time>
      </trkpt>
      <trkpt lat="39.946930" lon="-3.726630">
        <ele>555.015</ele>
        <time>2022-02-25T13:57:10Z</time>
      </trkpt>
      <trkpt lat="39.946940" lon="-3.726660">
        <ele>555.008</ele>
        <time>2022-02-25T13:57:50Z</time>
      </trkpt>
      <trkpt lat="39.946970" lon="-3.726750">
        <ele>555.130</ele>
        <time>2022-02-25T13:58:30Z</time>
      </trkpt>
      <trkpt lat="39.947000" lon="-3.726860">
        <ele>555.367</ele>
        <time>2022-02-25T13:59:10Z</time>
      </trkpt>
      <trkpt lat="39.947090" lon="-3.727060">
        <ele>555.011</ele>
        <time>2022-02-25T13:59:50Z</time>
      </trkpt>
      <trkpt lat="39.947170" lon="-3.727240">
        <ele>555.030</ele>
        <time>2022-02-25T14:00:30Z</time>
      </trkpt>
      <trkpt lat="39.947250" lon="-3.727320">
        <ele>554.940</ele>
        <time>2022-02-25T14:01:10Z</time>
      </trkpt>
      <trkpt lat="39.947290" lon="-3.727380">
        <ele>554.882</ele>
        <time>2022-02-25T14:01:50Z</time>
      </trkpt>
      <trkpt lat="39.947300" lon="-3.727390">
        <ele>554.781</ele>
        <time>2022-02-25T14:02:30Z</time>
      </trkpt>
      <trkpt lat="39.947390" lon="-3.727470">
        <ele>554.421</ele>
        <time>2022-02-25T14:03:10Z</time>
      </trkpt>
      <trkpt lat="39.947390" lon="-3.727480">
        <ele>554.416</ele>
        <time>2022-02-25T14:03:50Z</time>
      </trkpt>
      <trkpt lat="39.947470" lon="-3.727540">
        <ele>554.176</ele>
        <time>2022-02-25T14:04:30Z</time>
      </trkpt>
      <trkpt lat="39.947700" lon="-3.727720">
        <ele>553.413</ele>
        <time>2022-02-25T14:05:10Z</time>
      </trkpt>
      <trkpt lat="39.947730" lon="-3.727740">
        <ele>553.308</ele>
        <time>2022-02-25T14:05:50Z</time>
      </trkpt>
      <trkpt lat="39.947780" lon="-3.727780">
        <ele>553.030</ele>
        <time>2022-02-25T14:06:30Z</time>
      </trkpt>
      <trkpt lat="39.948350" lon="-3.728180">
        <ele>550.077</ele>
        <time>2022-02-25T14:07:10Z</time>
      </trkpt>
      <trkpt lat="39.948370" lon="-3.728190">
        <ele>549.831</ele>
        <time>2022-02-25T14:07:50Z</time>
      </trkpt>
      <trkpt lat="39.948520" lon="-3.728310">
        <ele>547.920</ele>
        <time>2022-02-25T14:08:30Z</time>
      </trkpt>
      <trkpt lat="39.948720" lon="-3.728500">
        <ele>546.440</ele>
        <time>2022-02-25T14:09:10Z</time>
      </trkpt>
      <trkpt lat="39.948730" lon="-3.728520">
        <ele>546.382</ele>
        <time>2022-02-25T14:09:50Z</time>
      </trkpt>
      <trkpt lat="39.948780" lon="-3.728560">
        <ele>545.951</ele>
        <time>2022-02-25T14:10:30Z</time>
      </trkpt>
      <trkpt lat="39.949260" lon="-3.729030">
        <ele>545.731</ele>
        <time>2022-02-25T14:11:10Z</time>
      </trkpt>
      <trkpt lat="39.949520" lon="-3.729290">
        <ele>543.382</ele>
        <time>2022-02-25T14:11:50Z</time>
      </trkpt>
      <trkpt lat="39.949550" lon="-3.729310">
        <ele>542.943</ele>
        <time>2022-02-25T14:12:30Z</time>
      </trkpt>
      <trkpt lat="39.949930" lon="-3.729700">
        <ele>537.417</ele>
        <time>2022-02-25T14:13:10Z</time>
      </trkpt>
      <trkpt lat="39.950420" lon="-3.730190">
        <ele>531.608</ele>
        <time>2022-02-25T14:13:50Z</time>
      </trkpt>
      <trkpt lat="39.950770" lon="-3.730540">
        <ele>530.117</ele>
        <time>2022-02-25T14:14:30Z</time>
      </trkpt>
      <trkpt lat="39.951110" lon="-3.730890">
        <ele>526.824</ele>
        <time>2022-02-25T14:15:10Z</time>
      </trkpt>
      <trkpt lat="39.951240" lon="-3.731020">
        <ele>526.078</ele>
        <time>2022-02-25T14:15:50Z</time>
      </trkpt>
      <trkpt lat="39.951260" lon="-3.731040">
        <ele>525.967</ele>
        <time>2022-02-25T14:16:30Z</time>
      </trkpt>
      <trkpt lat="39.951280" lon="-3.731060">
        <ele>525.777</ele>
        <time>2022-02-25T14:17:10Z</time>
      </trkpt>
      <trkpt lat="39.951540" lon="-3.731330">
        <ele>523.919</ele>
        <time>2022-02-25T14:17:50Z</time>
      </trkpt>
      <trkpt lat="39.951710" lon="-3.731500">
        <ele>523.488</ele>
        <time>2022-02-25T14:18:30Z</time>
      </trkpt>
      <trkpt lat="39.951820" lon="-3.731620">
        <ele>522.958</ele>
        <time>2022-02-25T14:19:10Z</time>
      </trkpt>
      <trkpt lat="39.951860" lon="-3.731660">
        <ele>522.793</ele>
        <time>2022-02-25T14:19:50Z</time>
      </trkpt>
      <trkpt lat="39.951950" lon="-3.731760">
        <ele>522.365</ele>
        <time>2022-02-25T14:20:30Z</time>
      </trkpt>
      <trkpt lat="39.951960" lon="-3.731770">
        <ele>522.321</ele>
        <time>2022-02-25T14:21:10Z</time>
      </trkpt>
      <trkpt lat="39.951970" lon="-3.731780">
        <ele>522.208</ele>
        <time>2022-02-25T14:21:50Z</time>
      </trkpt>
      <trkpt lat="39.952130" lon="-3.731970">
        <ele>520.818</ele>
        <time>2022-02-25T14:22:30Z</time>
      </trkpt>
      <trkpt lat="39.952410" lon="-3.732280">
        <ele>518.885</ele>
        <time>2022-02-25T14:23:10Z</time>
      </trkpt>
      <trkpt lat="39.952500" lon="-3.732380">
        <ele>518.479</ele>
        <time>2022-02-25T14:23:50Z</time>
      </trkpt>
      <trkpt lat="39.952870" lon="-3.732810">
        <ele>519.338</ele>
        <time>2022-02-25T14:24:30Z</time>
      </trkpt>
      <trkpt lat="39.953120" lon="-3.733110">
        <ele>517.248</ele>
        <time>2022-02-25T14:25:10Z</time>
      </trkpt>
      <trkpt lat="39.953170" lon="-3.733170">
        <ele>516.560</ele>
        <time>2022-02-25T14:25:50Z</time>
      </trkpt>
      <trkpt lat="39.953300" lon="-3.733330">
        <ele>515.279</ele>
        <time>2022-02-25T14:26:30Z</time>
      </trkpt>
      <trkpt lat="39.953350" lon="-3.733400">
        <ele>514.499</ele>
        <time>2022-02-25T14:27:10Z</time>
      </trkpt>
      <trkpt lat="39.953380" lon="-3.733430">
        <ele>514.013</ele>
        <time>2022-02-25T14:27:50Z</time>
      </trkpt>
      <trkpt lat="39.953400" lon="-3.733470">
        <ele>513.643</ele>
        <time>2022-02-25T14:28:30Z</time>
      </trkpt>
      <trkpt lat="39.953610" lon="-3.733720">
        <ele>512.607</ele>
        <time>2022-02-25T14:29:10Z</time>
      </trkpt>
      <trkpt lat="39.953780" lon="-3.733940">
        <ele>511.408</ele>
        <time>2022-02-25T14:29:50Z</time>
      </trkpt>
      <trkpt lat="39.953780" lon="-3.733950">
        <ele>511.420</ele>
        <time>2022-02-25T14:30:30Z</time>
      </trkpt>
      <trkpt lat="39.953990" lon="-3.734200">
        <ele>511.787</ele>
        <time>2022-02-25T14:31:10Z</time>
      </trkpt>
      <trkpt lat="39.954180" lon="-3.734430">
        <ele>511.881</ele>
        <time>2022-02-25T14:31:50Z</time>
      </trkpt>
      <trkpt lat="39.954220" lon="-3.734480">
        <ele>511.360</ele>
        <time>2022-02-25T14:32:30Z</time>
      </trkpt>
      <trkpt lat="39.954310" lon="-3.734590">
        <ele>510.250</ele>
        <time>2022-02-25T14:33:10Z</time>
      </trkpt>
      <trkpt lat="39.954780" lon="-3.735170">
        <ele>505.772</ele>
        <time>2022-02-25T14:33:50Z</time>
      </trkpt>
      <trkpt lat="39.955230" lon="-3.735720">
        <ele>503.611</ele>
        <time>2022-02-25T14:34:30Z</time>
      </trkpt>
      <trkpt lat="39.955230" lon="-3.735730">
        <ele>503.581</ele>
        <time>2022-02-25T14:35:10Z</time>
      </trkpt>
      <trkpt lat="39.955310" lon="-3.735820">
        <ele>502.871</ele>
        <time>2022-02-25T14:35:50Z</time>
      </trkpt>
      <trkpt lat="39.955510" lon="-3.736070">
        <ele>500.341</ele>
        <time>2022-02-25T14:36:30Z</time>
      </trkpt>
      <trkpt lat="39.955740" lon="-3.736350">
        <ele>498.515</ele>
        <time>2022-02-25T14:37:10Z</time>
      </trkpt>
      <trkpt lat="39.956070" lon="-3.736730">
        <ele>496.308</ele>
        <time>2022-02-25T14:37:50Z</time>
      </trkpt>
      <trkpt lat="39.956220" lon="-3.736920">
        <ele>495.616</ele>
        <time>2022-02-25T14:38:30Z</time>
      </trkpt>
      <trkpt lat="39.956490" lon="-3.737260">
        <ele>495.613</ele>
        <time>2022-02-25T14:39:10Z</time>
      </trkpt>
      <trkpt lat="39.956800" lon="-3.737640">
        <ele>495.057</ele>
        <time>2022-02-25T14:39:50Z</time>
      </trkpt>
      <trkpt lat="39.956830" lon="-3.737680">
        <ele>494.946</ele>
        <time>2022-02-25T14:40:30Z</time>
      </trkpt>
      <trkpt lat="39.956870" lon="-3.737720">
        <ele>494.626</ele>
        <time>2022-02-25T14:41:10Z</time>
      </trkpt>
      <trkpt lat="39.956940" lon="-3.737790">
        <ele>494.178</ele>
        <time>2022-02-25T14:41:50Z</time>
      </trkpt>
      <trkpt lat="39.957020" lon="-3.737880">
        <ele>494.017</ele>
        <time>2022-02-25T14:42:30Z</time>
      </trkpt>
      <trkpt lat="39.957270" lon="-3.738110">
        <ele>493.297</ele>
        <time>2022-02-25T14:43:10Z</time>
      </trkpt>
      <trkpt lat="39.957430" lon="-3.738270">
        <ele>493.861</ele>
        <time>2022-02-25T14:43:50Z</time>
      </trkpt>
      <trkpt lat="39.957640" lon="-3.738440">
        <ele>494.421</ele>
        <time>2022-02-25T14:44:30Z</time>
      </trkpt>
      <trkpt lat="39.957670" lon="-3.738460">
        <ele>494.513</ele>
        <time>2022-02-25T14:45:10Z</time>
      </trkpt>
      <trkpt lat="39.957820" lon="-3.738570">
        <ele>494.708</ele>
        <time>2022-02-25T14:45:50Z</time>
      </trkpt>
      <trkpt lat="39.957830" lon="-3.738580">
        <ele>494.785</ele>
        <time>2022-02-25T14:46:30Z</time>
      </trkpt>
      <trkpt lat="39.958020" lon="-3.738700">
        <ele>494.422</ele>
        <time>2022-02-25T14:47:10Z</time>
      </trkpt>
      <trkpt lat="39.958080" lon="-3.738730">
        <ele>494.386</ele>
        <time>2022-02-25T14:47:50Z</time>
      </trkpt>
      <trkpt lat="39.958160" lon="-3.738770">
        <ele>494.215</ele>
        <time>2022-02-25T14:48:30Z</time>
      </trkpt>
      <trkpt lat="39.958210" lon="-3.738800">
        <ele>494.195</ele>
        <time>2022-02-25T14:49:10Z</time>
      </trkpt>
      <trkpt lat="39.958380" lon="-3.738880">
        <ele>493.617</ele>
        <time>2022-02-25T14:49:50Z</time>
      </trkpt>
      <trkpt lat="39.958500" lon="-3.738930">
        <ele>492.856</ele>
        <time>2022-02-25T14:50:30Z</time>
      </trkpt>
      <trkpt lat="39.958540" lon="-3.738940">
        <ele>492.586</ele>
        <time>2022-02-25T14:51:10Z</time>
      </trkpt>
      <trkpt lat="39.958700" lon="-3.739010">
        <ele>491.753</ele>
        <time>2022-02-25T14:51:50Z</time>
      </trkpt>
      <trkpt lat="39.958790" lon="-3.739030">
        <ele>491.404</ele>
        <time>2022-02-25T14:52:30Z</time>
      </trkpt>
      <trkpt lat="39.958920" lon="-3.739070">
        <ele>490.914</ele>
        <time>2022-02-25T14:53:10Z</time>
      </trkpt>
      <trkpt lat="39.959160" lon="-3.739130">
        <ele>490.008</ele>
        <time>2022-02-25T14:53:50Z</time>
      </trkpt>
      <trkpt lat="39.959400" lon="-3.739190">
        <ele>490.124</ele>
        <time>2022-02-25T14:54:30Z</time>
      </trkpt>
      <trkpt lat="39.959550" lon="-3.739210">
        <ele>490.041</ele>
        <time>2022-02-25T14:55:10Z</time>
      </trkpt>
      <trkpt lat="39.959650" lon="-3.739220">
        <ele>489.965</ele>
        <time>2022-02-25T14:55:50Z</time>
      </trkpt>
      <trkpt lat="39.959680" lon="-3.739230">
        <ele>489.834</ele>
        <time>2022-02-25T14:56:30Z</time>
      </trkpt>
      <trkpt lat="39.959690" lon="-3.739230">
        <ele>489.884</ele>
        <time>2022-02-25T14:57:10Z</time>
      </trkpt>
      <trkpt lat="39.959730" lon="-3.739230">
        <ele>489.686</ele>
        <time>2022-02-25T14:57:50Z</time>
      </trkpt>
      <trkpt lat="39.960060" lon="-3.739270">
        <ele>483.985</ele>
        <time>2022-02-25T14:58:30Z</time>
      </trkpt>
      <trkpt lat="39.960280" lon="-3.739290">
        <ele>480.075</ele>
        <time>2022-02-25T14:59:10Z</time>
      </trkpt>
      <trkpt lat="39.960340" lon="-3.739300">
        <ele>479.675</ele>
        <time>2022-02-25T14:59:50Z</time>
      </trkpt>
      <trkpt lat="39.960700" lon="-3.739330">
        <ele>476.728</ele>
        <time>2022-02-25T15:00:30Z</time>
      </trkpt>
      <trkpt lat="39.960880" lon="-3.739350">
        <ele>474.820</ele>
        <time>2022-02-25T15:01:10Z</time>
      </trkpt>
      <trkpt lat="39.961060" lon="-3.739370">
        <ele>471.708</ele>
        <time>2022-02-25T15:01:50Z</time>
      </trkpt>
      <trkpt lat="39.961410" lon="-3.739410">
        <ele>469.426</ele>
        <time>2022-02-25T15:02:30Z</time>
      </trkpt>
      <trkpt lat="39.961910" lon="-3.739470">
        <ele>474.693</ele>
        <time>2022-02-25T15:03:10Z</time>
      </trkpt>
      <trkpt lat="39.962250" lon="-3.739500">
        <ele>476.817</ele>
        <time>2022-02-25T15:03:50Z</time>
      </trkpt>
      <trkpt lat="39.962530" lon="-3.739520">
        <ele>476.876</ele>
        <time>2022-02-25T15:04:30Z</time>
      </trkpt>
      <trkpt lat="39.962540" lon="-3.739520">
        <ele>476.856</ele>
        <time>2022-02-25T15:05:10Z</time>
      </trkpt>
      <trkpt lat="39.962710" lon="-3.739550">
        <ele>477.148</ele>
        <time>2022-02-25T15:05:50Z</time>
      </trkpt>
      <trkpt lat="39.962960" lon="-3.739590">
        <ele>476.337</ele>
        <time>2022-02-25T15:06:30Z</time>
      </trkpt>
      <trkpt lat="39.963250" lon="-3.739660">
        <ele>475.337</ele>
        <time>2022-02-25T15:07:10Z</time>
      </trkpt>
      <trkpt lat="39.963290" lon="-3.739670">
        <ele>475.243</ele>
        <time>2022-02-25T15:07:50Z</time>
      </trkpt>
      <trkpt lat="39.963310" lon="-3.739680">
        <ele>475.264</ele>
        <time>2022-02-25T15:08:30Z</time>
      </trkpt>
      <trkpt lat="39.963590" lon="-3.739800">
        <ele>475.610</ele>
        <time>2022-02-25T15:09:10Z</time>
      </trkpt>
      <trkpt lat="39.963630" lon="-3.739820">
        <ele>475.608</ele>
        <time>2022-02-25T15:09:50Z</time>
      </trkpt>
      <trkpt lat="39.963820" lon="-3.739940">
        <ele>475.133</ele>
        <time>2022-02-25T15:10:30Z</time>
      </trkpt>
      <trkpt lat="39.963830" lon="-3.739940">
        <ele>475.040</ele>
        <time>2022-02-25T15:11:10Z</time>
      </trkpt>
      <trkpt lat="39.963900" lon="-3.740000">
        <ele>474.914</ele>
        <time>2022-02-25T15:11:50Z</time>
      </trkpt>
      <trkpt lat="39.964090" lon="-3.740160">
        <ele>473.473</ele>
        <time>2022-02-25T15:12:30Z</time>
      </trkpt>
      <trkpt lat="39.964120" lon="-3.740190">
        <ele>473.263</ele>
        <time>2022-02-25T15:13:10Z</time>
      </trkpt>
      <trkpt lat="39.964740" lon="-3.740730">
        <ele>474.045</ele>
        <time>2022-02-25T15:13:50Z</time>
      </trkpt>
      <trkpt lat="39.964840" lon="-3.740810">
        <ele>474.014</ele>
        <time>2022-02-25T15:14:30Z</time>
      </trkpt>
      <trkpt lat="39.965160" lon="-3.741100">
        <ele>474.094</ele>
        <time>2022-02-25T15:15:10Z</time>
      </trkpt>
      <trkpt lat="39.965170" lon="-3.741120">
        <ele>474.078</ele>
        <time>2022-02-25T15:15:50Z</time>
      </trkpt>
      <trkpt lat="39.965300" lon="-3.741240">
        <ele>474.033</ele>
        <time>2022-02-25T15:16:30Z</time>
      </trkpt>
      <trkpt lat="39.965990" lon="-3.741860">
        <ele>471.626</ele>
        <time>2022-02-25T15:17:10Z</time>
      </trkpt>
      <trkpt lat="39.966650" lon="-3.742460">
        <ele>474.808</ele>
        <time>2022-02-25T15:17:50Z</time>
      </trkpt>
      <trkpt lat="39.967060" lon="-3.742820">
        <ele>475.066</ele>
        <time>2022-02-25T15:18:30Z</time>
      </trkpt>
      <trkpt lat="39.967390" lon="-3.743120">
        <ele>475.683</ele>
        <time>2022-02-25T15:19:10Z</time>
      </trkpt>
      <trkpt lat="39.967420" lon="-3.743160">
        <ele>475.727</ele>
        <time>2022-02-25T15:19:50Z</time>
      </trkpt>
      <trkpt lat="39.967670" lon="-3.743490">
        <ele>476.016</ele>
        <time>2022-02-25T15:20:30Z</time>
      </trkpt>
      <trkpt lat="39.967690" lon="-3.743520">
        <ele>476.086</ele>
        <time>2022-02-25T15:21:10Z</time>
      </trkpt>
      <trkpt lat="39.968150" lon="-3.743950">
        <ele>474.078</ele>
        <time>2022-02-25T15:21:50Z</time>
      </trkpt>
      <trkpt lat="39.968800" lon="-3.744530">
        <ele>474.977</ele>
        <time>2022-02-25T15:22:30Z</time>
      </trkpt>
      <trkpt lat="39.969550" lon="-3.745220">
        <ele>474.097</ele>
        <time>2022-02-25T15:23:10Z</time>
      </trkpt>
      <trkpt lat="39.969580" lon="-3.745250">
        <ele>474.099</ele>
        <time>2022-02-25T15:23:50Z</time>
      </trkpt>
      <trkpt lat="39.969730" lon="-3.745390">
        <ele>474.407</ele>
        <time>2022-02-25T15:24:30Z</time>
      </trkpt>
      <trkpt lat="39.969830" lon="-3.745480">
        <ele>474.427</ele>
        <time>2022-02-25T15:25:10Z</time>
      </trkpt>
      <trkpt lat="39.969870" lon="-3.745530">
        <ele>474.408</ele>
        <time>2022-02-25T15:25:50Z</time>
      </trkpt>
      <trkpt lat="39.969970" lon="-3.745620">
        <ele>474.328</ele>
        <time>2022-02-25T15:26:30Z</time>
      </trkpt>
      <trkpt lat="39.970330" lon="-3.745950">
        <ele>474.015</ele>
        <time>2022-02-25T15:27:10Z</time>
      </trkpt>
      <trkpt lat="39.970930" lon="-3.746480">
        <ele>474.059</ele>
        <time>2022-02-25T15:27:50Z</time>
      </trkpt>
      <trkpt lat="39.971030" lon="-3.746580">
        <ele>474.068</ele>
        <time>2022-02-25T15:28:30Z</time>
      </trkpt>
      <trkpt lat="39.971630" lon="-3.747120">
        <ele>475.828</ele>
        <time>2022-02-25T15:29:10Z</time>
      </trkpt>
      <trkpt lat="39.971650" lon="-3.747140">
        <ele>475.660</ele>
        <time>2022-02-25T15:29:50Z</time>
      </trkpt>
      <trkpt lat="39.971740" lon="-3.747220">
        <ele>475.049</ele>
        <time>2022-02-25T15:30:30Z</time>
      </trkpt>
      <trkpt lat="39.971940" lon="-3.747400">
        <ele>474.419</ele>
        <time>2022-02-25T15:31:10Z</time>
      </trkpt>
      <trkpt lat="39.972390" lon="-3.747800">
        <ele>473.864</ele>
        <time>2022-02-25T15:31:50Z</time>
      </trkpt>
      <trkpt lat="39.972530" lon="-3.747930">
        <ele>473.506</ele>
        <time>2022-02-25T15:32:30Z</time>
      </trkpt>
      <trkpt lat="39.974060" lon="-3.749300">
        <ele>473.016</ele>
        <time>2022-02-25T15:33:10Z</time>
      </trkpt>
      <trkpt lat="39.974790" lon="-3.750000">
        <ele>474.208</ele>
        <time>2022-02-25T15:33:50Z</time>
      </trkpt>
      <trkpt lat="39.975230" lon="-3.750430">
        <ele>475.095</ele>
        <time>2022-02-25T15:34:30Z</time>
      </trkpt>
      <trkpt lat="39.975330" lon="-3.750510">
        <ele>474.832</ele>
        <time>2022-02-25T15:35:10Z</time>
      </trkpt>
      <trkpt lat="39.975560" lon="-3.750740">
        <ele>473.326</ele>
        <time>2022-02-25T15:35:50Z</time>
      </trkpt>
      <trkpt lat="39.975770" lon="-3.750920">
        <ele>473.285</ele>
        <time>2022-02-25T15:36:30Z</time>
      </trkpt>
      <trkpt lat="39.976250" lon="-3.751350">
        <ele>474.445</ele>
        <time>2022-02-25T15:37:10Z</time>
      </trkpt>
      <trkpt lat="39.976350" lon="-3.751440">
        <ele>474.187</ele>
        <time>2022-02-25T15:37:50Z</time>
      </trkpt>
      <trkpt lat="39.976450" lon="-3.751520">
        <ele>473.826</ele>
        <time>2022-02-25T15:38:30Z</time>
      </trkpt>
      <trkpt lat="39.976830" lon="-3.751860">
        <ele>473.456</ele>
        <time>2022-02-25T15:39:10Z</time>
      </trkpt>
      <trkpt lat="39.977250" lon="-3.752240">
        <ele>475.127</ele>
        <time>2022-02-25T15:39:50Z</time>
      </trkpt>
      <trkpt lat="39.977850" lon="-3.752760">
        <ele>478.668</ele>
        <time>2022-02-25T15:40:30Z</time>
      </trkpt>
      <trkpt lat="39.978150" lon="-3.753030">
        <ele>477.114</ele>
        <time>2022-02-25T15:41:10Z</time>
      </trkpt>
      <trkpt lat="39.978210" lon="-3.753080">
        <ele>476.908</ele>
        <time>2022-02-25T15:41:50Z</time>
      </trkpt>
      <trkpt lat="39.978410" lon="-3.753270">
        <ele>476.431</ele>
        <time>2022-02-25T15:42:30Z</time>
      </trkpt>
      <trkpt lat="39.978750" lon="-3.753590">
        <ele>478.038</ele>
        <time>2022-02-25T15:43:10Z</time>
      </trkpt>
      <trkpt lat="39.978830" lon="-3.753670">
        <ele>478.622</ele>
        <time>2022-02-25T15:43:50Z</time>
      </trkpt>
      <trkpt lat="39.979100" lon="-3.753920">
        <ele>478.311</ele>
        <time>2022-02-25T15:44:30Z</time>
      </trkpt>
      <trkpt lat="39.979410" lon="-3.754210">
        <ele>479.111</ele>
        <time>2022-02-25T15:45:10Z</time>
      </trkpt>
      <trkpt lat="39.979490" lon="-3.754290">
        <ele>480.083</ele>
        <time>2022-02-25T15:45:50Z</time>
      </trkpt>
      <trkpt lat="39.979800" lon="-3.754570">
        <ele>482.242</ele>
        <time>2022-02-25T15:46:30Z</time>
      </trkpt>
      <trkpt lat="39.979870" lon="-3.754630">
        <ele>482.872</ele>
        <time>2022-02-25T15:47:10Z</time>
      </trkpt>
      <trkpt lat="39.979910" lon="-3.754660">
        <ele>483.252</ele>
        <time>2022-02-25T15:47:50Z</time>
      </trkpt>
      <trkpt lat="39.980360" lon="-3.755080">
        <ele>486.253</ele>
        <time>2022-02-25T15:48:30Z</time>
      </trkpt>
      <trkpt lat="39.980620" lon="-3.755320">
        <ele>486.208</ele>
        <time>2022-02-25T15:49:10Z</time>
      </trkpt>
      <trkpt lat="39.980890" lon="-3.755540">
        <ele>487.008</ele>
        <time>2022-02-25T15:49:50Z</time>
      </trkpt>
      <trkpt lat="39.981030" lon="-3.755680">
        <ele>487.094</ele>
        <time>2022-02-25T15:50:30Z</time>
      </trkpt>
      <trkpt lat="39.981280" lon="-3.755820">
        <ele>487.691</ele>
        <time>2022-02-25T15:51:10Z</time>
      </trkpt>
      <trkpt lat="39.981290" lon="-3.755820">
        <ele>487.665</ele>
        <time>2022-02-25T15:51:50Z</time>
      </trkpt>
      <trkpt lat="39.981290" lon="-3.755810">
        <ele>487.694</ele>
        <time>2022-02-25T15:52:30Z</time>
      </trkpt>
      <trkpt lat="39.981300" lon="-3.755800">
        <ele>487.614</ele>
        <time>2022-02-25T15:53:10Z</time>
      </trkpt>
      <trkpt lat="39.981310" lon="-3.755800">
        <ele>487.656</ele>
        <time>2022-02-25T15:53:50Z</time>
      </trkpt>
      <trkpt lat="39.981320" lon="-3.755790">
        <ele>487.615</ele>
        <time>2022-02-25T15:54:30Z</time>
      </trkpt>
      <trkpt lat="39.981330" lon="-3.755790">
        <ele>487.715</ele>
        <time>2022-02-25T15:55:10Z</time>
      </trkpt>
      <trkpt lat="39.981340" lon="-3.755790">
        <ele>487.752</ele>
        <time>2022-02-25T15:55:50Z</time>
      </trkpt>
      <trkpt lat="39.981350" lon="-3.755790">
        <ele>487.753</ele>
        <time>2022-02-25T15:56:30Z</time>
      </trkpt>
      <trkpt lat="39.981360" lon="-3.755790">
        <ele>487.808</ele>
        <time>2022-02-25T15:57:10Z</time>
      </trkpt>
      <trkpt lat="39.981370" lon="-3.755790">
        <ele>487.808</ele>
        <time>2022-02-25T15:57:50Z</time>
      </trkpt>
      <trkpt lat="39.981390" lon="-3.755790">
        <ele>487.844</ele>
        <time>2022-02-25T15:58:30Z</time>
      </trkpt>
      <trkpt lat="39.981400" lon="-3.755790">
        <ele>487.941</ele>
        <time>2022-02-25T15:59:10Z</time>
      </trkpt>
      <trkpt lat="39.981410" lon="-3.755790">
        <ele>487.945</ele>
        <time>2022-02-25T15:59:50Z</time>
      </trkpt>
      <trkpt lat="39.981420" lon="-3.755800">
        <ele>488.064</ele>
        <time>2022-02-25T16:00:30Z</time>
      </trkpt>
      <trkpt lat="39.981430" lon="-3.755800">
        <ele>488.014</ele>
        <time>2022-02-25T16:01:10Z</time>
      </trkpt>
      <trkpt lat="39.981440" lon="-3.755810">
        <ele>488.126</ele>
        <time>2022-02-25T16:01:50Z</time>
      </trkpt>
      <trkpt lat="39.981470" lon="-3.755830">
        <ele>488.355</ele>
        <time>2022-02-25T16:02:30Z</time>
      </trkpt>
      <trkpt lat="39.981510" lon="-3.755850">
        <ele>488.535</ele>
        <time>2022-02-25T16:03:10Z</time>
      </trkpt>
      <trkpt lat="39.981510" lon="-3.755860">
        <ele>488.628</ele>
        <time>2022-02-25T16:03:50Z</time>
      </trkpt>
      <trkpt lat="39.981520" lon="-3.755870">
        <ele>488.789</ele>
        <time>2022-02-25T16:04:30Z</time>
      </trkpt>
      <trkpt lat="39.981530" lon="-3.755880">
        <ele>488.817</ele>
        <time>2022-02-25T16:05:10Z</time>
      </trkpt>
      <trkpt lat="39.981530" lon="-3.755890">
        <ele>488.808</ele>
        <time>2022-02-25T16:05:50Z</time>
      </trkpt>
      <trkpt lat="39.981540" lon="-3.755900">
        <ele>488.941</ele>
        <time>2022-02-25T16:06:30Z</time>
      </trkpt>
      <trkpt lat="39.981540" lon="-3.755910">
        <ele>488.978</ele>
        <time>2022-02-25T16:07:10Z</time>
      </trkpt>
      <trkpt lat="39.981550" lon="-3.755920">
        <ele>489.032</ele>
        <time>2022-02-25T16:07:50Z</time>
      </trkpt>
      <trkpt lat="39.981550" lon="-3.755930">
        <ele>489.171</ele>
        <time>2022-02-25T16:08:30Z</time>
      </trkpt>
      <trkpt lat="39.981550" lon="-3.755940">
        <ele>489.121</ele>
        <time>2022-02-25T16:09:10Z</time>
      </trkpt>
      <trkpt lat="39.981550" lon="-3.755960">
        <ele>489.293</ele>
        <time>2022-02-25T16:09:50Z</time>
      </trkpt>
      <trkpt lat="39.981550" lon="-3.755970">
        <ele>489.382</ele>
        <time>2022-02-25T16:10:30Z</time>
      </trkpt>
      <trkpt lat="39.981550" lon="-3.755980">
        <ele>489.312</ele>
        <time>2022-02-25T16:11:10Z</time>
      </trkpt>
      <trkpt lat="39.981550" lon="-3.755990">
        <ele>489.419</ele>
        <time>2022-02-25T16:11:50Z</time>
      </trkpt>
      <trkpt lat="39.981550" lon="-3.756010">
        <ele>489.509</ele>
        <time>2022-02-25T16:12:30Z</time>
      </trkpt>
      <trkpt lat="39.981550" lon="-3.756020">
        <ele>489.519</ele>
        <time>2022-02-25T16:13:10Z</time>
      </trkpt>
      <trkpt lat="39.981540" lon="-3.756030">
        <ele>489.608</ele>
        <time>2022-02-25T16:13:50Z</time>
      </trkpt>
      <trkpt lat="39.981540" lon="-3.756040">
        <ele>489.620</ele>
        <time>2022-02-25T16:14:30Z</time>
      </trkpt>
      <trkpt lat="39.981760" lon="-3.756280">
        <ele>489.987</ele>
        <time>2022-02-25T16:15:10Z</time>
      </trkpt>
      <trkpt lat="39.981800" lon="-3.756320">
        <ele>489.911</ele>
        <time>2022-02-25T16:15:50Z</time>
      </trkpt>
      <trkpt lat="39.981820" lon="-3.756340">
        <ele>489.980</ele>
        <time>2022-02-25T16:16:30Z</time>
      </trkpt>
      <trkpt lat="39.981910" lon="-3.756390">
        <ele>490.010</ele>
        <time>2022-02-25T16:17:10Z</time>
      </trkpt>
      <trkpt lat="39.982040" lon="-3.756420">
        <ele>490.392</ele>
        <time>2022-02-25T16:17:50Z</time>
      </trkpt>
      <trkpt lat="39.982100" lon="-3.756430">
        <ele>490.641</ele>
        <time>2022-02-25T16:18:30Z</time>
      </trkpt>
      <trkpt lat="39.982140" lon="-3.756420">
        <ele>490.751</ele>
        <time>2022-02-25T16:19:10Z</time>
      </trkpt>
      <trkpt lat="39.982180" lon="-3.756420">
        <ele>490.891</ele>
        <time>2022-02-25T16:19:50Z</time>
      </trkpt>
      <trkpt lat="39.982240" lon="-3.756410">
        <ele>491.181</ele>
        <time>2022-02-25T16:20:30Z</time>
      </trkpt>
      <trkpt lat="39.982450" lon="-3.756350">
        <ele>492.619</ele>
        <time>2022-02-25T16:21:10Z</time>
      </trkpt>
      <trkpt lat="39.982640" lon="-3.756280">
        <ele>493.508</ele>
        <time>2022-02-25T16:21:50Z</time>
      </trkpt>
      <trkpt lat="39.982930" lon="-3.756120">
        <ele>494.568</ele>
        <time>2022-02-25T16:22:30Z</time>
      </trkpt>
      <trkpt lat="39.983120" lon="-3.756040">
        <ele>494.955</ele>
        <time>2022-02-25T16:23:10Z</time>
      </trkpt>
      <trkpt lat="39.983270" lon="-3.755970">
        <ele>494.919</ele>
        <time>2022-02-25T16:23:50Z</time>
      </trkpt>
      <trkpt lat="39.983410" lon="-3.755900">
        <ele>494.718</ele>
        <time>2022-02-25T16:24:30Z</time>
      </trkpt>
      <trkpt lat="39.983440" lon="-3.755890">
        <ele>494.748</ele>
        <time>2022-02-25T16:25:10Z</time>
      </trkpt>
      <trkpt lat="39.984100" lon="-3.755550">
        <ele>495.790</ele>
        <time>2022-02-25T16:25:50Z</time>
      </trkpt>
      <trkpt lat="39.984110" lon="-3.755540">
        <ele>495.789</ele>
        <time>2022-02-25T16:26:30Z</time>
      </trkpt>
      <trkpt lat="39.984190" lon="-3.755510">
        <ele>495.899</ele>
        <time>2022-02-25T16:27:10Z</time>
      </trkpt>
      <trkpt lat="39.984240" lon="-3.755480">
        <ele>495.948</ele>
        <time>2022-02-25T16:27:50Z</time>
      </trkpt>
      <trkpt lat="39.984600" lon="-3.755280">
        <ele>498.161</ele>
        <time>2022-02-25T16:28:30Z</time>
      </trkpt>
      <trkpt lat="39.984740" lon="-3.755210">
        <ele>498.617</ele>
        <time>2022-02-25T16:29:10Z</time>
      </trkpt>
      <trkpt lat="39.984970" lon="-3.755100">
        <ele>498.608</ele>
        <time>2022-02-25T16:29:50Z</time>
      </trkpt>
      <trkpt lat="39.985030" lon="-3.755070">
        <ele>498.693</ele>
        <time>2022-02-25T16:30:30Z</time>
      </trkpt>
      <trkpt lat="39.985150" lon="-3.755010">
        <ele>498.690</ele>
        <time>2022-02-25T16:31:10Z</time>
      </trkpt>
      <trkpt lat="39.985490" lon="-3.754840">
        <ele>499.854</ele>
        <time>2022-02-25T16:31:50Z</time>
      </trkpt>
      <trkpt lat="39.985830" lon="-3.754680">
        <ele>501.543</ele>
        <time>2022-02-25T16:32:30Z</time>
      </trkpt>
      <trkpt lat="39.986000" lon="-3.754600">
        <ele>503.483</ele>
        <time>2022-02-25T16:33:10Z</time>
      </trkpt>
      <trkpt lat="39.986330" lon="-3.754440">
        <ele>504.585</ele>
        <time>2022-02-25T16:33:50Z</time>
      </trkpt>
      <trkpt lat="39.986620" lon="-3.754300">
        <ele>503.884</ele>
        <time>2022-02-25T16:34:30Z</time>
      </trkpt>
      <trkpt lat="39.986720" lon="-3.754260">
        <ele>503.954</ele>
        <time>2022-02-25T16:35:10Z</time>
      </trkpt>
      <trkpt lat="39.986840" lon="-3.754210">
        <ele>504.454</ele>
        <time>2022-02-25T16:35:50Z</time>
      </trkpt>
      <trkpt lat="39.987020" lon="-3.754130">
        <ele>505.656</ele>
        <time>2022-02-25T16:36:30Z</time>
      </trkpt>
      <trkpt lat="39.987240" lon="-3.754080">
        <ele>507.911</ele>
        <time>2022-02-25T16:37:10Z</time>
      </trkpt>
      <trkpt lat="39.987380" lon="-3.754090">
        <ele>509.208</ele>
        <time>2022-02-25T16:37:50Z</time>
      </trkpt>
      <trkpt lat="39.987500" lon="-3.754100">
        <ele>510.354</ele>
        <time>2022-02-25T16:38:30Z</time>
      </trkpt>
      <trkpt lat="39.987550" lon="-3.754120">
        <ele>510.641</ele>
        <time>2022-02-25T16:39:10Z</time>
      </trkpt>
      <trkpt lat="39.987640" lon="-3.754150">
        <ele>510.985</ele>
        <time>2022-02-25T16:39:50Z</time>
      </trkpt>
      <trkpt lat="39.987760" lon="-3.754230">
        <ele>511.284</ele>
        <time>2022-02-25T16:40:30Z</time>
      </trkpt>
      <trkpt lat="39.987980" lon="-3.754370">
        <ele>512.174</ele>
        <time>2022-02-25T16:41:10Z</time>
      </trkpt>
      <trkpt lat="39.988200" lon="-3.754510">
        <ele>513.396</ele>
        <time>2022-02-25T16:41:50Z</time>
      </trkpt>
      <trkpt lat="39.988360" lon="-3.754620">
        <ele>515.295</ele>
        <time>2022-02-25T16:42:30Z</time>
      </trkpt>
      <trkpt lat="39.988370" lon="-3.754630">
        <ele>515.385</ele>
        <time>2022-02-25T16:43:10Z</time>
      </trkpt>
      <trkpt lat="39.988930" lon="-3.755000">
        <ele>520.075</ele>
        <time>2022-02-25T16:43:50Z</time>
      </trkpt>
      <trkpt lat="39.989290" lon="-3.755340">
        <ele>524.028</ele>
        <time>2022-02-25T16:44:30Z</time>
      </trkpt>
      <trkpt lat="39.989510" lon="-3.755690">
        <ele>524.520</ele>
        <time>2022-02-25T16:45:10Z</time>
      </trkpt>
      <trkpt lat="39.989800" lon="-3.756270">
        <ele>528.208</ele>
        <time>2022-02-25T16:45:50Z</time>
      </trkpt>
      <trkpt lat="39.989890" lon="-3.756450">
        <ele>530.756</ele>
        <time>2022-02-25T16:46:30Z</time>
      </trkpt>
      <trkpt lat="39.989900" lon="-3.756470">
        <ele>530.963</ele>
        <time>2022-02-25T16:47:10Z</time>
      </trkpt>
      <trkpt lat="39.990010" lon="-3.756690">
        <ele>533.057</ele>
        <time>2022-02-25T16:47:50Z</time>
      </trkpt>
      <trkpt lat="39.990130" lon="-3.756860">
        <ele>533.256</ele>
        <time>2022-02-25T16:48:30Z</time>
      </trkpt>
      <trkpt lat="39.990220" lon="-3.756960">
        <ele>533.396</ele>
        <time>2022-02-25T16:49:10Z</time>
      </trkpt>
      <trkpt lat="39.990250" lon="-3.757000">
        <ele>533.368</ele>
        <time>2022-02-25T16:49:50Z</time>
      </trkpt>
      <trkpt lat="39.990310" lon="-3.757080">
        <ele>533.647</ele>
        <time>2022-02-25T16:50:30Z</time>
      </trkpt>
      <trkpt lat="39.990410" lon="-3.757180">
        <ele>534.717</ele>
        <time>2022-02-25T16:51:10Z</time>
      </trkpt>
      <trkpt lat="39.990520" lon="-3.757310">
        <ele>537.358</ele>
        <time>2022-02-25T16:51:50Z</time>
      </trkpt>
      <trkpt lat="39.990810" lon="-3.757580">
        <ele>543.752</ele>
        <time>2022-02-25T16:52:30Z</time>
      </trkpt>
      <trkpt lat="39.990920" lon="-3.757680">
        <ele>546.717</ele>
        <time>2022-02-25T16:53:10Z</time>
      </trkpt>
      <trkpt lat="39.991100" lon="-3.757860">
        <ele>551.408</ele>
        <time>2022-02-25T16:53:50Z</time>
      </trkpt>
      <trkpt lat="39.991250" lon="-3.758000">
        <ele>552.394</ele>
        <time>2022-02-25T16:54:30Z</time>
      </trkpt>
      <trkpt lat="39.991520" lon="-3.758260">
        <ele>552.181</ele>
        <time>2022-02-25T16:55:10Z</time>
      </trkpt>
      <trkpt lat="39.991720" lon="-3.758410">
        <ele>552.495</ele>
        <time>2022-02-25T16:55:50Z</time>
      </trkpt>
      <trkpt lat="39.991860" lon="-3.758500">
        <ele>554.434</ele>
        <time>2022-02-25T16:56:30Z</time>
      </trkpt>
      <trkpt lat="39.991960" lon="-3.758550">
        <ele>555.514</ele>
        <time>2022-02-25T16:57:10Z</time>
      </trkpt>
      <trkpt lat="39.992040" lon="-3.758570">
        <ele>556.326</ele>
        <time>2022-02-25T16:57:50Z</time>
      </trkpt>
      <trkpt lat="39.992150" lon="-3.758570">
        <ele>557.325</ele>
        <time>2022-02-25T16:58:30Z</time>
      </trkpt>
      <trkpt lat="39.992250" lon="-3.758550">
        <ele>558.245</ele>
        <time>2022-02-25T16:59:10Z</time>
      </trkpt>
      <trkpt lat="39.992430" lon="-3.758500">
        <ele>560.376</ele>
        <time>2022-02-25T16:59:50Z</time>
      </trkpt>
      <trkpt lat="39.992580" lon="-3.758430">
        <ele>561.790</ele>
        <time>2022-02-25T17:00:30Z</time>
      </trkpt>
      <trkpt lat="39.992790" lon="-3.758340">
        <ele>563.119</ele>
        <time>2022-02-25T17:01:10Z</time>
      </trkpt>
      <trkpt lat="39.992900" lon="-3.758310">
        <ele>563.208</ele>
        <time>2022-02-25T17:01:50Z</time>
      </trkpt>
      <trkpt lat="39.992990" lon="-3.758280">
        <ele>563.266</ele>
        <time>2022-02-25T17:02:30Z</time>
      </trkpt>
      <trkpt lat="39.993180" lon="-3.758270">
        <ele>564.653</ele>
        <time>2022-02-25T17:03:10Z</time>
      </trkpt>
      <trkpt lat="39.993310" lon="-3.758290">
        <ele>566.187</ele>
        <time>2022-02-25T17:03:50Z</time>
      </trkpt>
      <trkpt lat="39.993460" lon="-3.758340">
        <ele>566.716</ele>
        <time>2022-02-25T17:04:30Z</time>
      </trkpt>
      <trkpt lat="39.993590" lon="-3.758400">
        <ele>567.376</ele>
        <time>2022-02-25T17:05:10Z</time>
      </trkpt>
      <trkpt lat="39.993680" lon="-3.758450">
        <ele>567.628</ele>
        <time>2022-02-25T17:05:50Z</time>
      </trkpt>
      <trkpt lat="39.993810" lon="-3.758590">
        <ele>569.297</ele>
        <time>2022-02-25T17:06:30Z</time>
      </trkpt>
      <trkpt lat="39.993870" lon="-3.758690">
        <ele>570.957</ele>
        <time>2022-02-25T17:07:10Z</time>
      </trkpt>
      <trkpt lat="39.993880" lon="-3.758700">
        <ele>571.073</ele>
        <time>2022-02-25T17:07:50Z</time>
      </trkpt>
      <trkpt lat="39.993930" lon="-3.758780">
        <ele>571.885</ele>
        <time>2022-02-25T17:08:30Z</time>
      </trkpt>
      <trkpt lat="39.993940" lon="-3.758800">
        <ele>572.013</ele>
        <time>2022-02-25T17:09:10Z</time>
      </trkpt>
      <trkpt lat="39.994000" lon="-3.758940">
        <ele>573.508</ele>
        <time>2022-02-25T17:09:50Z</time>
      </trkpt>
      <trkpt lat="39.994020" lon="-3.758990">
        <ele>574.046</ele>
        <time>2022-02-25T17:10:30Z</time>
      </trkpt>
      <trkpt lat="39.994110" lon="-3.759270">
        <ele>576.923</ele>
        <time>2022-02-25T17:11:10Z</time>
      </trkpt>
      <trkpt lat="39.994210" lon="-3.759600">
        <ele>580.137</ele>
        <time>2022-02-25T17:11:50Z</time>
      </trkpt>
      <trkpt lat="39.994360" lon="-3.760070">
        <ele>580.266</ele>
        <time>2022-02-25T17:12:30Z</time>
      </trkpt>
      <trkpt lat="39.994420" lon="-3.760300">
        <ele>580.096</ele>
        <time>2022-02-25T17:13:10Z</time>
      </trkpt>
      <trkpt lat="39.994450" lon="-3.760520">
        <ele>582.548</ele>
        <time>2022-02-25T17:13:50Z</time>
      </trkpt>
      <trkpt lat="39.994460" lon="-3.760670">
        <ele>584.177</ele>
        <time>2022-02-25T17:14:30Z</time>
      </trkpt>
      <trkpt lat="39.994460" lon="-3.760710">
        <ele>584.527</ele>
        <time>2022-02-25T17:15:10Z</time>
      </trkpt>
      <trkpt lat="39.994440" lon="-3.760840">
        <ele>586.121</ele>
        <time>2022-02-25T17:15:50Z</time>
      </trkpt>
      <trkpt lat="39.994420" lon="-3.760940">
        <ele>586.941</ele>
        <time>2022-02-25T17:16:30Z</time>
      </trkpt>
      <trkpt lat="39.994420" lon="-3.760970">
        <ele>587.005</ele>
        <time>2022-02-25T17:17:10Z</time>
      </trkpt>
      <trkpt lat="39.994380" lon="-3.761080">
        <ele>587.908</ele>
        <time>2022-02-25T17:17:50Z</time>
      </trkpt>
      <trkpt lat="39.994330" lon="-3.761190">
        <ele>588.781</ele>
        <time>2022-02-25T17:18:30Z</time>
      </trkpt>
      <trkpt lat="39.994310" lon="-3.761220">
        <ele>588.978</ele>
        <time>2022-02-25T17:19:10Z</time>
      </trkpt>
      <trkpt lat="39.994250" lon="-3.761350">
        <ele>589.542</ele>
        <time>2022-02-25T17:19:50Z</time>
      </trkpt>
      <trkpt lat="39.994230" lon="-3.761390">
        <ele>589.561</ele>
        <time>2022-02-25T17:20:30Z</time>
      </trkpt>
      <trkpt lat="39.994110" lon="-3.761570">
        <ele>590.091</ele>
        <time>2022-02-25T17:21:10Z</time>
      </trkpt>
      <trkpt lat="39.993960" lon="-3.761780">
        <ele>590.143</ele>
        <time>2022-02-25T17:21:50Z</time>
      </trkpt>
      <trkpt lat="39.993840" lon="-3.761960">
        <ele>590.512</ele>
        <time>2022-02-25T17:22:30Z</time>
      </trkpt>
      <trkpt lat="39.993760" lon="-3.762120">
        <ele>591.972</ele>
        <time>2022-02-25T17:23:10Z</time>
      </trkpt>
      <trkpt lat="39.993720" lon="-3.762220">
        <ele>592.624</ele>
        <time>2022-02-25T17:23:50Z</time>
      </trkpt>
      <trkpt lat="39.993690" lon="-3.762330">
        <ele>593.604</ele>
        <time>2022-02-25T17:24:30Z</time>
      </trkpt>
      <trkpt lat="39.993660" lon="-3.762500">
        <ele>595.014</ele>
        <time>2022-02-25T17:25:10Z</time>
      </trkpt>
      <trkpt lat="39.993640" lon="-3.762650">
        <ele>595.508</ele>
        <time>2022-02-25T17:25:50Z</time>
      </trkpt>
      <trkpt lat="39.993590" lon="-3.762980">
        <ele>596.251</ele>
        <time>2022-02-25T17:26:30Z</time>
      </trkpt>
      <trkpt lat="39.993550" lon="-3.763330">
        <ele>596.228</ele>
        <time>2022-02-25T17:27:10Z</time>
      </trkpt>
      <trkpt lat="39.993500" lon="-3.763710">
        <ele>596.142</ele>
        <time>2022-02-25T17:27:50Z</time>
      </trkpt>
      <trkpt lat="39.993470" lon="-3.763900">
        <ele>596.581</ele>
        <time>2022-02-25T17:28:30Z</time>
      </trkpt>
      <trkpt lat="39.993390" lon="-3.764380">
        <ele>597.031</ele>
        <time>2022-02-25T17:29:10Z</time>
      </trkpt>
      <trkpt lat="39.993360" lon="-3.764590">
        <ele>597.073</ele>
        <time>2022-02-25T17:29:50Z</time>
      </trkpt>
      <trkpt lat="39.993350" lon="-3.764730">
        <ele>597.062</ele>
        <time>2022-02-25T17:30:30Z</time>
      </trkpt>
      <trkpt lat="39.993330" lon="-3.764830">
        <ele>597.092</ele>
        <time>2022-02-25T17:31:10Z</time>
      </trkpt>
      <trkpt lat="39.993290" lon="-3.765130">
        <ele>597.433</ele>
        <time>2022-02-25T17:31:50Z</time>
      </trkpt>
      <trkpt lat="39.993230" lon="-3.765670">
        <ele>597.623</ele>
        <time>2022-02-25T17:32:30Z</time>
      </trkpt>
      <trkpt lat="39.993200" lon="-3.765840">
        <ele>597.515</ele>
        <time>2022-02-25T17:33:10Z</time>
      </trkpt>
      <trkpt lat="39.993160" lon="-3.766210">
        <ele>598.408</ele>
        <time>2022-02-25T17:33:50Z</time>
      </trkpt>
      <trkpt lat="39.993130" lon="-3.766460">
        <ele>599.282</ele>
        <time>2022-02-25T17:34:30Z</time>
      </trkpt>
      <trkpt lat="39.993010" lon="-3.767470">
        <ele>598.919</ele>
        <time>2022-02-25T17:35:10Z</time>
      </trkpt>
      <trkpt lat="39.993000" lon="-3.767530">
        <ele>598.863</ele>
        <time>2022-02-25T17:35:50Z</time>
      </trkpt>
      <trkpt lat="39.992920" lon="-3.768220">
        <ele>598.712</ele>
        <time>2022-02-25T17:36:30Z</time>
      </trkpt>
      <trkpt lat="39.992916" lon="-3.768224">
        <ele>598.792</ele>
        <time>2022-02-25T17:37:10Z</time>
      </trkpt>
      <trkpt lat="39.992920" lon="-3.768230">
        <ele>598.774</ele>
        <time>2022-02-25T17:37:50Z</time>
      </trkpt>
      <trkpt lat="39.992930" lon="-3.768240">
        <ele>598.793</ele>
        <time>2022-02-25T17:38:30Z</time>
      </trkpt>
      <trkpt lat="39.992940" lon="-3.768320">
        <ele>598.693</ele>
        <time>2022-02-25T17:39:10Z</time>
      </trkpt>
      <trkpt lat="39.992950" lon="-3.768390">
        <ele>598.433</ele>
        <time>2022-02-25T17:39:50Z</time>
      </trkpt>
      <trkpt lat="39.992960" lon="-3.768440">
        <ele>598.323</ele>
        <time>2022-02-25T17:40:30Z</time>
      </trkpt>
      <trkpt lat="39.992970" lon="-3.768490">
        <ele>598.115</ele>
        <time>2022-02-25T17:41:10Z</time>
      </trkpt>
      <trkpt lat="39.992990" lon="-3.768550">
        <ele>598.008</ele>
        <time>2022-02-25T17:41:50Z</time>
      </trkpt>
      <trkpt lat="39.993010" lon="-3.768600">
        <ele>597.972</ele>
        <time>2022-02-25T17:42:30Z</time>
      </trkpt>
      <trkpt lat="39.993020" lon="-3.768640">
        <ele>597.989</ele>
        <time>2022-02-25T17:43:10Z</time>
      </trkpt>
      <trkpt lat="39.993030" lon="-3.768660">
        <ele>597.943</ele>
        <time>2022-02-25T17:43:50Z</time>
      </trkpt>
      <trkpt lat="39.993040" lon="-3.768680">
        <ele>597.932</ele>
        <time>2022-02-25T17:44:30Z</time>
      </trkpt>
      <trkpt lat="39.993040" lon="-3.768700">
        <ele>597.932</ele>
        <time>2022-02-25T17:45:10Z</time>
      </trkpt>
      <trkpt lat="39.993050" lon="-3.768730">
        <ele>598.044</ele>
        <time>2022-02-25T17:45:50Z</time>
      </trkpt>
      <trkpt lat="39.993050" lon="-3.768750">
        <ele>598.033</ele>
        <time>2022-02-25T17:46:30Z</time>
      </trkpt>
      <trkpt lat="39.993050" lon="-3.768770">
        <ele>598.083</ele>
        <time>2022-02-25T17:47:10Z</time>
      </trkpt>
      <trkpt lat="39.993050" lon="-3.768800">
        <ele>598.093</ele>
        <time>2022-02-25T17:47:50Z</time>
      </trkpt>
      <trkpt lat="39.993048" lon="-3.768802">
        <ele>598.065</ele>
        <time>2022-02-25T17:48:30Z</time>
      </trkpt>
      <trkpt lat="39.993040" lon="-3.768820">
        <ele>597.921</ele>
        <time>2022-02-25T17:49:10Z</time>
      </trkpt>
      <trkpt lat="39.993040" lon="-3.768840">
        <ele>597.908</ele>
        <time>2022-02-25T17:49:50Z</time>
      </trkpt>
      <trkpt lat="39.993040" lon="-3.768860">
        <ele>597.948</ele>
        <time>2022-02-25T17:50:30Z</time>
      </trkpt>
      <trkpt lat="39.993030" lon="-3.768880">
        <ele>597.835</ele>
        <time>2022-02-25T17:51:10Z</time>
      </trkpt>
      <trkpt lat="39.993020" lon="-3.768900">
        <ele>597.729</ele>
        <time>2022-02-25T17:51:50Z</time>
      </trkpt>
      <trkpt lat="39.993020" lon="-3.768920">
        <ele>597.718</ele>
        <time>2022-02-25T17:52:30Z</time>
      </trkpt>
      <trkpt lat="39.993010" lon="-3.768940">
        <ele>597.718</ele>
        <time>2022-02-25T17:53:10Z</time>
      </trkpt>
      <trkpt lat="39.993000" lon="-3.768970">
        <ele>597.660</ele>
        <time>2022-02-25T17:53:50Z</time>
      </trkpt>
      <trkpt lat="39.993004" lon="-3.768966">
        <ele>597.689</ele>
        <time>2022-02-25T17:54:30Z</time>
      </trkpt>
      <trkpt lat="39.993000" lon="-3.769230">
        <ele>597.649</ele>
        <time>2022-02-25T17:55:10Z</time>
      </trkpt>
      <trkpt lat="39.993040" lon="-3.769350">
        <ele>597.965</ele>
        <time>2022-02-25T17:55:50Z</time>
      </trkpt>
      <trkpt lat="39.993100" lon="-3.769440">
        <ele>598.268</ele>
        <time>2022-02-25T17:56:30Z</time>
      </trkpt>
      <trkpt lat="39.993330" lon="-3.769800">
        <ele>598.014</ele>
        <time>2022-02-25T17:57:10Z</time>
      </trkpt>
      <trkpt lat="39.993390" lon="-3.769880">
        <ele>598.008</ele>
        <time>2022-02-25T17:57:50Z</time>
      </trkpt>
      <trkpt lat="39.993650" lon="-3.770240">
        <ele>598.985</ele>
        <time>2022-02-25T17:58:30Z</time>
      </trkpt>
      <trkpt lat="39.994020" lon="-3.770730">
        <ele>602.172</ele>
        <time>2022-02-25T17:59:10Z</time>
      </trkpt>
      <trkpt lat="39.994120" lon="-3.770870">
        <ele>602.776</ele>
        <time>2022-02-25T17:59:50Z</time>
      </trkpt>
      <trkpt lat="39.994640" lon="-3.771570">
        <ele>601.975</ele>
        <time>2022-02-25T18:00:30Z</time>
      </trkpt>
      <trkpt lat="39.994840" lon="-3.771830">
        <ele>602.265</ele>
        <time>2022-02-25T18:01:10Z</time>
      </trkpt>
      <trkpt lat="39.994970" lon="-3.771990">
        <ele>602.397</ele>
        <time>2022-02-25T18:01:50Z</time>
      </trkpt>
      <trkpt lat="39.995140" lon="-3.772230">
        <ele>603.186</ele>
        <time>2022-02-25T18:02:30Z</time>
      </trkpt>
      <trkpt lat="39.995370" lon="-3.772540">
        <ele>604.356</ele>
        <time>2022-02-25T18:03:10Z</time>
      </trkpt>
      <trkpt lat="39.995500" lon="-3.772710">
        <ele>603.421</ele>
        <time>2022-02-25T18:03:50Z</time>
      </trkpt>
      <trkpt lat="39.995530" lon="-3.772750">
        <ele>603.241</ele>
        <time>2022-02-25T18:04:30Z</time>
      </trkpt>
      <trkpt lat="39.995950" lon="-3.773320">
        <ele>606.405</ele>
        <time>2022-02-25T18:05:10Z</time>
      </trkpt>
      <trkpt lat="39.996020" lon="-3.773410">
        <ele>606.808</ele>
        <time>2022-02-25T18:05:50Z</time>
      </trkpt>
      <trkpt lat="39.996500" lon="-3.774070">
        <ele>610.391</ele>
        <time>2022-02-25T18:06:30Z</time>
      </trkpt>
      <trkpt lat="39.996600" lon="-3.774200">
        <ele>611.338</ele>
        <time>2022-02-25T18:07:10Z</time>
      </trkpt>
      <trkpt lat="39.996750" lon="-3.774390">
        <ele>611.812</ele>
        <time>2022-02-25T18:07:50Z</time>
      </trkpt>
      <trkpt lat="39.996900" lon="-3.774600">
        <ele>610.521</ele>
        <time>2022-02-25T18:08:30Z</time>
      </trkpt>
      <trkpt lat="39.996950" lon="-3.774660">
        <ele>610.211</ele>
        <time>2022-02-25T18:09:10Z</time>
      </trkpt>
      <trkpt lat="39.997190" lon="-3.774980">
        <ele>608.193</ele>
        <time>2022-02-25T18:09:50Z</time>
      </trkpt>
      <trkpt lat="39.997230" lon="-3.775030">
        <ele>607.952</ele>
        <time>2022-02-25T18:10:30Z</time>
      </trkpt>
      <trkpt lat="39.997290" lon="-3.775110">
        <ele>607.922</ele>
        <time>2022-02-25T18:11:10Z</time>
      </trkpt>
      <trkpt lat="39.997630" lon="-3.775560">
        <ele>610.515</ele>
        <time>2022-02-25T18:11:50Z</time>
      </trkpt>
      <trkpt lat="39.997750" lon="-3.775730">
        <ele>611.065</ele>
        <time>2022-02-25T18:12:30Z</time>
      </trkpt>
      <trkpt lat="39.997860" lon="-3.775870">
        <ele>611.411</ele>
        <time>2022-02-25T18:13:10Z</time>
      </trkpt>
      <trkpt lat="39.997930" lon="-3.775960">
        <ele>612.008</ele>
        <time>2022-02-25T18:13:50Z</time>
      </trkpt>
      <trkpt lat="39.998030" lon="-3.776090">
        <ele>612.890</ele>
        <time>2022-02-25T18:14:30Z</time>
      </trkpt>
      <trkpt lat="39.998210" lon="-3.776330">
        <ele>612.237</ele>
        <time>2022-02-25T18:15:10Z</time>
      </trkpt>
      <trkpt lat="39.998390" lon="-3.776560">
        <ele>611.591</ele>
        <time>2022-02-25T18:15:50Z</time>
      </trkpt>
      <trkpt lat="39.998770" lon="-3.777080">
        <ele>610.540</ele>
        <time>2022-02-25T18:16:30Z</time>
      </trkpt>
      <trkpt lat="39.999210" lon="-3.777690">
        <ele>612.990</ele>
        <time>2022-02-25T18:17:10Z</time>
      </trkpt>
      <trkpt lat="39.999950" lon="-3.778670">
        <ele>620.042</ele>
        <time>2022-02-25T18:17:50Z</time>
      </trkpt>
      <trkpt lat="40.000020" lon="-3.778770">
        <ele>621.141</ele>
        <time>2022-02-25T18:18:30Z</time>
      </trkpt>
      <trkpt lat="40.000140" lon="-3.778920">
        <ele>621.511</ele>
        <time>2022-02-25T18:19:10Z</time>
      </trkpt>
      <trkpt lat="40.000150" lon="-3.778930">
        <ele>621.588</ele>
        <time>2022-02-25T18:19:50Z</time>
      </trkpt>
      <trkpt lat="40.000190" lon="-3.778980">
        <ele>621.724</ele>
        <time>2022-02-25T18:20:30Z</time>
      </trkpt>
      <trkpt lat="40.000340" lon="-3.779190">
        <ele>622.026</ele>
        <time>2022-02-25T18:21:10Z</time>
      </trkpt>
      <trkpt lat="40.000530" lon="-3.779430">
        <ele>622.008</ele>
        <time>2022-02-25T18:21:50Z</time>
      </trkpt>
      <trkpt lat="40.000640" lon="-3.779590">
        <ele>622.097</ele>
        <time>2022-02-25T18:22:30Z</time>
      </trkpt>
      <trkpt lat="40.000940" lon="-3.779980">
        <ele>622.034</ele>
        <time>2022-02-25T18:23:10Z</time>
      </trkpt>
      <trkpt lat="40.001050" lon="-3.780150">
        <ele>622.028</ele>
        <time>2022-02-25T18:23:50Z</time>
      </trkpt>
      <trkpt lat="40.001070" lon="-3.780170">
        <ele>622.057</ele>
        <time>2022-02-25T18:24:30Z</time>
      </trkpt>
      <trkpt lat="40.001170" lon="-3.780320">
        <ele>622.247</ele>
        <time>2022-02-25T18:25:10Z</time>
      </trkpt>
      <trkpt lat="40.001380" lon="-3.780630">
        <ele>622.019</ele>
        <time>2022-02-25T18:25:50Z</time>
      </trkpt>
      <trkpt lat="40.001410" lon="-3.780670">
        <ele>622.118</ele>
        <time>2022-02-25T18:26:30Z</time>
      </trkpt>
      <trkpt lat="40.001450" lon="-3.780710">
        <ele>622.298</ele>
        <time>2022-02-25T18:27:10Z</time>
      </trkpt>
      <trkpt lat="40.001500" lon="-3.780810">
        <ele>622.418</ele>
        <time>2022-02-25T18:27:50Z</time>
      </trkpt>
      <trkpt lat="40.001540" lon="-3.780900">
        <ele>622.498</ele>
        <time>2022-02-25T18:28:30Z</time>
      </trkpt>
      <trkpt lat="40.001570" lon="-3.780960">
        <ele>622.417</ele>
        <time>2022-02-25T18:29:10Z</time>
      </trkpt>
      <trkpt lat="40.001590" lon="-3.780980">
        <ele>622.308</ele>
        <time>2022-02-25T18:29:50Z</time>
      </trkpt>
      <trkpt lat="40.001690" lon="-3.781220">
        <ele>622.170</ele>
        <time>2022-02-25T18:30:30Z</time>
      </trkpt>
      <trkpt lat="40.001694" lon="-3.781215">
        <ele>622.177</ele>
        <time>2022-02-25T18:31:10Z</time>
      </trkpt>
      <trkpt lat="40.001720" lon="-3.781210">
        <ele>622.241</ele>
        <time>2022-02-25T18:31:50Z</time>
      </trkpt>
      <trkpt lat="40.001750" lon="-3.781210">
        <ele>622.320</ele>
        <time>2022-02-25T18:32:30Z</time>
      </trkpt>
      <trkpt lat="40.001770" lon="-3.781220">
        <ele>622.450</ele>
        <time>2022-02-25T18:33:10Z</time>
      </trkpt>
      <trkpt lat="40.001800" lon="-3.781230">
        <ele>622.512</ele>
        <time>2022-02-25T18:33:50Z</time>
      </trkpt>
      <trkpt lat="40.001830" lon="-3.781240">
        <ele>622.691</ele>
        <time>2022-02-25T18:34:30Z</time>
      </trkpt>
      <trkpt lat="40.001850" lon="-3.781260">
        <ele>622.781</ele>
        <time>2022-02-25T18:35:10Z</time>
      </trkpt>
      <trkpt lat="40.001880" lon="-3.781280">
        <ele>622.884</ele>
        <time>2022-02-25T18:35:50Z</time>
      </trkpt>
      <trkpt lat="40.001900" lon="-3.781310">
        <ele>622.807</ele>
        <time>2022-02-25T18:36:30Z</time>
      </trkpt>
      <trkpt lat="40.001920" lon="-3.781340">
        <ele>622.917</ele>
        <time>2022-02-25T18:37:10Z</time>
      </trkpt>
      <trkpt lat="40.001940" lon="-3.781370">
        <ele>623.008</ele>
        <time>2022-02-25T18:37:50Z</time>
      </trkpt>
      <trkpt lat="40.001950" lon="-3.781410">
        <ele>623.087</ele>
        <time>2022-02-25T18:38:30Z</time>
      </trkpt>
      <trkpt lat="40.001960" lon="-3.781450">
        <ele>622.934</ele>
        <time>2022-02-25T18:39:10Z</time>
      </trkpt>
      <trkpt lat="40.001970" lon="-3.781490">
        <ele>622.828</ele>
        <time>2022-02-25T18:39:50Z</time>
      </trkpt>
      <trkpt lat="40.001980" lon="-3.781530">
        <ele>622.717</ele>
        <time>2022-02-25T18:40:30Z</time>
      </trkpt>
      <trkpt lat="40.001980" lon="-3.781570">
        <ele>622.637</ele>
        <time>2022-02-25T18:41:10Z</time>
      </trkpt>
      <trkpt lat="40.001980" lon="-3.781620">
        <ele>622.419</ele>
        <time>2022-02-25T18:41:50Z</time>
      </trkpt>
      <trkpt lat="40.002270" lon="-3.781920">
        <ele>623.428</ele>
        <time>2022-02-25T18:42:30Z</time>
      </trkpt>
      <trkpt lat="40.002360" lon="-3.782020">
        <ele>623.948</ele>
        <time>2022-02-25T18:43:10Z</time>
      </trkpt>
      <trkpt lat="40.002470" lon="-3.782140">
        <ele>624.213</ele>
        <time>2022-02-25T18:43:50Z</time>
      </trkpt>
      <trkpt lat="40.002670" lon="-3.782340">
        <ele>623.643</ele>
        <time>2022-02-25T18:44:30Z</time>
      </trkpt>
      <trkpt lat="40.002750" lon="-3.782440">
        <ele>623.207</ele>
        <time>2022-02-25T18:45:10Z</time>
      </trkpt>
      <trkpt lat="40.002810" lon="-3.782530">
        <ele>622.708</ele>
        <time>2022-02-25T18:45:50Z</time>
      </trkpt>
      <trkpt lat="40.003010" lon="-3.782800">
        <ele>620.370</ele>
        <time>2022-02-25T18:46:30Z</time>
      </trkpt>
      <trkpt lat="40.003140" lon="-3.782970">
        <ele>619.537</ele>
        <time>2022-02-25T18:47:10Z</time>
      </trkpt>
      <trkpt lat="40.003560" lon="-3.783540">
        <ele>617.361</ele>
        <time>2022-02-25T18:47:50Z</time>
      </trkpt>
      <trkpt lat="40.003640" lon="-3.783640">
        <ele>617.140</ele>
        <time>2022-02-25T18:48:30Z</time>
      </trkpt>
      <trkpt lat="40.003800" lon="-3.783860">
        <ele>617.130</ele>
        <time>2022-02-25T18:49:10Z</time>
      </trkpt>
      <trkpt lat="40.003820" lon="-3.783880">
        <ele>617.092</ele>
        <time>2022-02-25T18:49:50Z</time>
      </trkpt>
      <trkpt lat="40.004010" lon="-3.784150">
        <ele>617.091</ele>
        <time>2022-02-25T18:50:30Z</time>
      </trkpt>
      <trkpt lat="40.004320" lon="-3.784560">
        <ele>616.341</ele>
        <time>2022-02-25T18:51:10Z</time>
      </trkpt>
      <trkpt lat="40.004920" lon="-3.785420">
        <ele>615.593</ele>
        <time>2022-02-25T18:51:50Z</time>
      </trkpt>
      <trkpt lat="40.004990" lon="-3.785520">
        <ele>615.165</ele>
        <time>2022-02-25T18:52:30Z</time>
      </trkpt>
      <trkpt lat="40.005460" lon="-3.786180">
        <ele>614.521</ele>
        <time>2022-02-25T18:53:10Z</time>
      </trkpt>
      <trkpt lat="40.005860" lon="-3.786710">
        <ele>614.108</ele>
        <time>2022-02-25T18:53:50Z</time>
      </trkpt>
      <trkpt lat="40.006040" lon="-3.786950">
        <ele>614.028</ele>
        <time>2022-02-25T18:54:30Z</time>
      </trkpt>
      <trkpt lat="40.006240" lon="-3.787210">
        <ele>614.575</ele>
        <time>2022-02-25T18:55:10Z</time>
      </trkpt>
      <trkpt lat="40.006650" lon="-3.787750">
        <ele>614.199</ele>
        <time>2022-02-25T18:55:50Z</time>
      </trkpt>
      <trkpt lat="40.006710" lon="-3.787840">
        <ele>614.238</ele>
        <time>2022-02-25T18:56:30Z</time>
      </trkpt>
      <trkpt lat="40.007100" lon="-3.788350">
        <ele>614.658</ele>
        <time>2022-02-25T18:57:10Z</time>
      </trkpt>
      <trkpt lat="40.007270" lon="-3.788580">
        <ele>615.070</ele>
        <time>2022-02-25T18:57:50Z</time>
      </trkpt>
      <trkpt lat="40.007610" lon="-3.789040">
        <ele>614.799</ele>
        <time>2022-02-25T18:58:30Z</time>
      </trkpt>
      <trkpt lat="40.007900" lon="-3.789420">
        <ele>614.529</ele>
        <time>2022-02-25T18:59:10Z</time>
      </trkpt>
      <trkpt lat="40.008060" lon="-3.789640">
        <ele>615.015</ele>
        <time>2022-02-25T18:59:50Z</time>
      </trkpt>
      <trkpt lat="40.008120" lon="-3.789730">
        <ele>614.565</ele>
        <time>2022-02-25T19:00:30Z</time>
      </trkpt>
      <trkpt lat="40.008370" lon="-3.790070">
        <ele>612.911</ele>
        <time>2022-02-25T19:01:10Z</time>
      </trkpt>
      <trkpt lat="40.008720" lon="-3.790540">
        <ele>611.208</ele>
        <time>2022-02-25T19:01:50Z</time>
      </trkpt>
      <trkpt lat="40.009970" lon="-3.792240">
        <ele>609.040</ele>
        <time>2022-02-25T19:02:30Z</time>
      </trkpt>
      <trkpt lat="40.010020" lon="-3.792320">
        <ele>609.067</ele>
        <time>2022-02-25T19:03:10Z</time>
      </trkpt>
      <trkpt lat="40.010190" lon="-3.792540">
        <ele>608.311</ele>
        <time>2022-02-25T19:03:50Z</time>
      </trkpt>
      <trkpt lat="40.010490" lon="-3.792950">
        <ele>608.070</ele>
        <time>2022-02-25T19:04:30Z</time>
      </trkpt>
      <trkpt lat="40.010800" lon="-3.793380">
        <ele>606.110</ele>
        <time>2022-02-25T19:05:10Z</time>
      </trkpt>
      <trkpt lat="40.010870" lon="-3.793470">
        <ele>606.082</ele>
        <time>2022-02-25T19:05:50Z</time>
      </trkpt>
      <trkpt lat="40.011010" lon="-3.793660">
        <ele>605.961</ele>
        <time>2022-02-25T19:06:30Z</time>
      </trkpt>
      <trkpt lat="40.011150" lon="-3.793850">
        <ele>605.051</ele>
        <time>2022-02-25T19:07:10Z</time>
      </trkpt>
      <trkpt lat="40.011260" lon="-3.794000">
        <ele>604.546</ele>
        <time>2022-02-25T19:07:50Z</time>
      </trkpt>
      <trkpt lat="40.011330" lon="-3.794110">
        <ele>604.288</ele>
        <time>2022-02-25T19:08:30Z</time>
      </trkpt>
      <trkpt lat="40.011730" lon="-3.794700">
        <ele>601.816</ele>
        <time>2022-02-25T19:09:10Z</time>
      </trkpt>
      <trkpt lat="40.011840" lon="-3.794860">
        <ele>601.408</ele>
        <time>2022-02-25T19:09:50Z</time>
      </trkpt>
      <trkpt lat="40.011910" lon="-3.795070">
        <ele>600.983</ele>
        <time>2022-02-25T19:10:30Z</time>
      </trkpt>
      <trkpt lat="40.011950" lon="-3.795230">
        <ele>600.290</ele>
        <time>2022-02-25T19:11:10Z</time>
      </trkpt>
      <trkpt lat="40.012020" lon="-3.795700">
        <ele>600.094</ele>
        <time>2022-02-25T19:11:50Z</time>
      </trkpt>
      <trkpt lat="40.012040" lon="-3.795880">
        <ele>599.963</ele>
        <time>2022-02-25T19:12:30Z</time>
      </trkpt>
      <trkpt lat="40.012100" lon="-3.796130">
        <ele>599.423</ele>
        <time>2022-02-25T19:13:10Z</time>
      </trkpt>
      <trkpt lat="40.012100" lon="-3.796120">
        <ele>599.425</ele>
        <time>2022-02-25T19:13:50Z</time>
      </trkpt>
      <trkpt lat="40.012110" lon="-3.796120">
        <ele>599.444</ele>
        <time>2022-02-25T19:14:30Z</time>
      </trkpt>
      <trkpt lat="40.012120" lon="-3.796120">
        <ele>599.434</ele>
        <time>2022-02-25T19:15:10Z</time>
      </trkpt>
      <trkpt lat="40.012130" lon="-3.796120">
        <ele>599.317</ele>
        <time>2022-02-25T19:15:50Z</time>
      </trkpt>
      <trkpt lat="40.012140" lon="-3.796120">
        <ele>599.387</ele>
        <time>2022-02-25T19:16:30Z</time>
      </trkpt>
      <trkpt lat="40.012150" lon="-3.796120">
        <ele>599.315</ele>
        <time>2022-02-25T19:17:10Z</time>
      </trkpt>
      <trkpt lat="40.012160" lon="-3.796120">
        <ele>599.208</ele>
        <time>2022-02-25T19:17:50Z</time>
      </trkpt>
      <trkpt lat="40.012170" lon="-3.796130">
        <ele>599.210</ele>
        <time>2022-02-25T19:18:30Z</time>
      </trkpt>
      <trkpt lat="40.012180" lon="-3.796130">
        <ele>599.257</ele>
        <time>2022-02-25T19:19:10Z</time>
      </trkpt>
      <trkpt lat="40.012190" lon="-3.796130">
        <ele>599.191</ele>
        <time>2022-02-25T19:19:50Z</time>
      </trkpt>
      <trkpt lat="40.012190" lon="-3.796140">
        <ele>599.110</ele>
        <time>2022-02-25T19:20:30Z</time>
      </trkpt>
      <trkpt lat="40.012210" lon="-3.796160">
        <ele>599.020</ele>
        <time>2022-02-25T19:21:10Z</time>
      </trkpt>
      <trkpt lat="40.012230" lon="-3.796180">
        <ele>599.072</ele>
        <time>2022-02-25T19:21:50Z</time>
      </trkpt>
      <trkpt lat="40.012230" lon="-3.796190">
        <ele>599.081</ele>
        <time>2022-02-25T19:22:30Z</time>
      </trkpt>
      <trkpt lat="40.012230" lon="-3.796200">
        <ele>599.091</ele>
        <time>2022-02-25T19:23:10Z</time>
      </trkpt>
      <trkpt lat="40.012240" lon="-3.796200">
        <ele>599.086</ele>
        <time>2022-02-25T19:23:50Z</time>
      </trkpt>
      <trkpt lat="40.012240" lon="-3.796210">
        <ele>599.060</ele>
        <time>2022-02-25T19:24:30Z</time>
      </trkpt>
      <trkpt lat="40.012240" lon="-3.796220">
        <ele>599.026</ele>
        <time>2022-02-25T19:25:10Z</time>
      </trkpt>
      <trkpt lat="40.012250" lon="-3.796230">
        <ele>599.108</ele>
        <time>2022-02-25T19:25:50Z</time>
      </trkpt>
      <trkpt lat="40.012250" lon="-3.796240">
        <ele>599.197</ele>
        <time>2022-02-25T19:26:30Z</time>
      </trkpt>
      <trkpt lat="40.012250" lon="-3.796250">
        <ele>599.034</ele>
        <time>2022-02-25T19:27:10Z</time>
      </trkpt>
      <trkpt lat="40.012250" lon="-3.796260">
        <ele>599.048</ele>
        <time>2022-02-25T19:27:50Z</time>
      </trkpt>
      <trkpt lat="40.012250" lon="-3.796270">
        <ele>599.077</ele>
        <time>2022-02-25T19:28:30Z</time>
      </trkpt>
      <trkpt lat="40.012250" lon="-3.796280">
        <ele>599.037</ele>
        <time>2022-02-25T19:29:10Z</time>
      </trkpt>
      <trkpt lat="40.012250" lon="-3.796290">
        <ele>599.089</ele>
        <time>2022-02-25T19:29:50Z</time>
      </trkpt>
      <trkpt lat="40.012250" lon="-3.796300">
        <ele>599.078</ele>
        <time>2022-02-25T19:30:30Z</time>
      </trkpt>
      <trkpt lat="40.012240" lon="-3.796310">
        <ele>599.098</ele>
        <time>2022-02-25T19:31:10Z</time>
      </trkpt>
      <trkpt lat="40.012240" lon="-3.796320">
        <ele>599.084</ele>
        <time>2022-02-25T19:31:50Z</time>
      </trkpt>
      <trkpt lat="40.012240" lon="-3.796330">
        <ele>599.007</ele>
        <time>2022-02-25T19:32:30Z</time>
      </trkpt>
      <trkpt lat="40.012240" lon="-3.796340">
        <ele>599.017</ele>
        <time>2022-02-25T19:33:10Z</time>
      </trkpt>
      <trkpt lat="40.012230" lon="-3.796340">
        <ele>599.008</ele>
        <time>2022-02-25T19:33:50Z</time>
      </trkpt>
      <trkpt lat="40.012230" lon="-3.796350">
        <ele>599.017</ele>
        <time>2022-02-25T19:34:30Z</time>
      </trkpt>
      <trkpt lat="40.012230" lon="-3.796360">
        <ele>599.064</ele>
        <time>2022-02-25T19:35:10Z</time>
      </trkpt>
      <trkpt lat="40.012220" lon="-3.796360">
        <ele>599.058</ele>
        <time>2022-02-25T19:35:50Z</time>
      </trkpt>
      <trkpt lat="40.012220" lon="-3.796370">
        <ele>599.057</ele>
        <time>2022-02-25T19:36:30Z</time>
      </trkpt>
      <trkpt lat="40.012210" lon="-3.796380">
        <ele>599.097</ele>
        <time>2022-02-25T19:37:10Z</time>
      </trkpt>
      <trkpt lat="40.012200" lon="-3.796390">
        <ele>599.159</ele>
        <time>2022-02-25T19:37:50Z</time>
      </trkpt>
      <trkpt lat="40.012190" lon="-3.796400">
        <ele>599.158</ele>
        <time>2022-02-25T19:38:30Z</time>
      </trkpt>
      <trkpt lat="40.012192" lon="-3.796396">
        <ele>599.148</ele>
        <time>2022-02-25T19:39:10Z</time>
      </trkpt>
      <trkpt lat="40.012440" lon="-3.796860">
        <ele>598.396</ele>
        <time>2022-02-25T19:39:50Z</time>
      </trkpt>
      <trkpt lat="40.012450" lon="-3.796880">
        <ele>598.231</ele>
        <time>2022-02-25T19:40:30Z</time>
      </trkpt>
      <trkpt lat="40.012560" lon="-3.797130">
        <ele>597.324</ele>
        <time>2022-02-25T19:41:10Z</time>
      </trkpt>
      <trkpt lat="40.012610" lon="-3.797340">
        <ele>596.808</ele>
        <time>2022-02-25T19:41:50Z</time>
      </trkpt>
      <trkpt lat="40.012630" lon="-3.797550">
        <ele>596.458</ele>
        <time>2022-02-25T19:42:30Z</time>
      </trkpt>
      <trkpt lat="40.012630" lon="-3.797560">
        <ele>596.355</ele>
        <time>2022-02-25T19:43:10Z</time>
      </trkpt>
      <trkpt lat="40.012730" lon="-3.798050">
        <ele>594.289</ele>
        <time>2022-02-25T19:43:50Z</time>
      </trkpt>
      <trkpt lat="40.012780" lon="-3.798280">
        <ele>593.218</ele>
        <time>2022-02-25T19:44:30Z</time>
      </trkpt>
      <trkpt lat="40.012800" lon="-3.798430">
        <ele>592.438</ele>
        <time>2022-02-25T19:45:10Z</time>
      </trkpt>
      <trkpt lat="40.012810" lon="-3.798460">
        <ele>592.230</ele>
        <time>2022-02-25T19:45:50Z</time>
      </trkpt>
      <trkpt lat="40.012910" lon="-3.798900">
        <ele>590.539</ele>
        <time>2022-02-25T19:46:30Z</time>
      </trkpt>
      <trkpt lat="40.012980" lon="-3.799080">
        <ele>590.569</ele>
        <time>2022-02-25T19:47:10Z</time>
      </trkpt>
      <trkpt lat="40.013040" lon="-3.799160">
        <ele>590.129</ele>
        <time>2022-02-25T19:47:50Z</time>
      </trkpt>
      <trkpt lat="40.013130" lon="-3.799270">
        <ele>589.600</ele>
        <time>2022-02-25T19:48:30Z</time>
      </trkpt>
      <trkpt lat="40.013380" lon="-3.799520">
        <ele>587.720</ele>
        <time>2022-02-25T19:49:10Z</time>
      </trkpt>
      <trkpt lat="40.013520" lon="-3.799670">
        <ele>585.708</ele>
        <time>2022-02-25T19:49:50Z</time>
      </trkpt>
      <trkpt lat="40.013620" lon="-3.799790">
        <ele>583.671</ele>
        <time>2022-02-25T19:50:30Z</time>
      </trkpt>
      <trkpt lat="40.013760" lon="-3.800040">
        <ele>580.338</ele>
        <time>2022-02-25T19:51:10Z</time>
      </trkpt>
      <trkpt lat="40.013810" lon="-3.800190">
        <ele>579.252</ele>
        <time>2022-02-25T19:51:50Z</time>
      </trkpt>
      <trkpt lat="40.013860" lon="-3.800360">
        <ele>578.161</ele>
        <time>2022-02-25T19:52:30Z</time>
      </trkpt>
      <trkpt lat="40.013860" lon="-3.800380">
        <ele>578.061</ele>
        <time>2022-02-25T19:53:10Z</time>
      </trkpt>
      <trkpt lat="40.013890" lon="-3.800530">
        <ele>577.143</ele>
        <time>2022-02-25T19:53:50Z</time>
      </trkpt>
      <trkpt lat="40.013990" lon="-3.801140">
        <ele>576.992</ele>
        <time>2022-02-25T19:54:30Z</time>
      </trkpt>
      <trkpt lat="40.014080" lon="-3.801510">
        <ele>575.992</ele>
        <time>2022-02-25T19:55:10Z</time>
      </trkpt>
      <trkpt lat="40.014170" lon="-3.801770">
        <ele>575.089</ele>
        <time>2022-02-25T19:55:50Z</time>
      </trkpt>
      <trkpt lat="40.014380" lon="-3.802200">
        <ele>572.706</ele>
        <time>2022-02-25T19:56:30Z</time>
      </trkpt>
      <trkpt lat="40.014410" lon="-3.802260">
        <ele>572.426</ele>
        <time>2022-02-25T19:57:10Z</time>
      </trkpt>
      <trkpt lat="40.014530" lon="-3.802470">
        <ele>571.408</ele>
        <time>2022-02-25T19:57:50Z</time>
      </trkpt>
      <trkpt lat="40.014630" lon="-3.802600">
        <ele>570.787</ele>
        <time>2022-02-25T19:58:30Z</time>
      </trkpt>
      <trkpt lat="40.014700" lon="-3.802670">
        <ele>570.254</ele>
        <time>2022-02-25T19:59:10Z</time>
      </trkpt>
      <trkpt lat="40.014750" lon="-3.802740">
        <ele>569.858</ele>
        <time>2022-02-25T19:59:50Z</time>
      </trkpt>
      <trkpt lat="40.014770" lon="-3.802780">
        <ele>569.687</ele>
        <time>2022-02-25T20:00:30Z</time>
      </trkpt>
      <trkpt lat="40.014770" lon="-3.802770">
        <ele>569.797</ele>
        <time>2022-02-25T20:01:10Z</time>
      </trkpt>
      <trkpt lat="40.014780" lon="-3.802770">
        <ele>569.639</ele>
        <time>2022-02-25T20:01:50Z</time>
      </trkpt>
      <trkpt lat="40.014790" lon="-3.802770">
        <ele>569.548</ele>
        <time>2022-02-25T20:02:30Z</time>
      </trkpt>
      <trkpt lat="40.014790" lon="-3.802780">
        <ele>569.528</ele>
        <time>2022-02-25T20:03:10Z</time>
      </trkpt>
      <trkpt lat="40.014800" lon="-3.802780">
        <ele>569.493</ele>
        <time>2022-02-25T20:03:50Z</time>
      </trkpt>
      <trkpt lat="40.014810" lon="-3.802780">
        <ele>569.465</ele>
        <time>2022-02-25T20:04:30Z</time>
      </trkpt>
      <trkpt lat="40.014820" lon="-3.802780">
        <ele>569.321</ele>
        <time>2022-02-25T20:05:10Z</time>
      </trkpt>
      <trkpt lat="40.014820" lon="-3.802790">
        <ele>569.308</ele>
        <time>2022-02-25T20:05:50Z</time>
      </trkpt>
      <trkpt lat="40.014830" lon="-3.802790">
        <ele>569.268</ele>
        <time>2022-02-25T20:06:30Z</time>
      </trkpt>
      <trkpt lat="40.014840" lon="-3.802800">
        <ele>569.135</ele>
        <time>2022-02-25T20:07:10Z</time>
      </trkpt>
      <trkpt lat="40.014840" lon="-3.802810">
        <ele>569.029</ele>
        <time>2022-02-25T20:07:50Z</time>
      </trkpt>
      <trkpt lat="40.014850" lon="-3.802810">
        <ele>569.058</ele>
        <time>2022-02-25T20:08:30Z</time>
      </trkpt>
      <trkpt lat="40.014850" lon="-3.802820">
        <ele>568.978</ele>
        <time>2022-02-25T20:09:10Z</time>
      </trkpt>
      <trkpt lat="40.014860" lon="-3.802820">
        <ele>568.960</ele>
        <time>2022-02-25T20:09:50Z</time>
      </trkpt>
      <trkpt lat="40.014860" lon="-3.802830">
        <ele>568.829</ele>
        <time>2022-02-25T20:10:30Z</time>
      </trkpt>
      <trkpt lat="40.014860" lon="-3.802840">
        <ele>568.819</ele>
        <time>2022-02-25T20:11:10Z</time>
      </trkpt>
      <trkpt lat="40.014870" lon="-3.802840">
        <ele>568.721</ele>
        <time>2022-02-25T20:11:50Z</time>
      </trkpt>
      <trkpt lat="40.014870" lon="-3.802860">
        <ele>568.641</ele>
        <time>2022-02-25T20:12:30Z</time>
      </trkpt>
      <trkpt lat="40.014870" lon="-3.802870">
        <ele>568.605</ele>
        <time>2022-02-25T20:13:10Z</time>
      </trkpt>
      <trkpt lat="40.014870" lon="-3.802880">
        <ele>568.608</ele>
        <time>2022-02-25T20:13:50Z</time>
      </trkpt>
      <trkpt lat="40.014880" lon="-3.802880">
        <ele>568.581</ele>
        <time>2022-02-25T20:14:30Z</time>
      </trkpt>
      <trkpt lat="40.014880" lon="-3.802890">
        <ele>568.568</ele>
        <time>2022-02-25T20:15:10Z</time>
      </trkpt>
      <trkpt lat="40.014880" lon="-3.802900">
        <ele>568.432</ele>
        <time>2022-02-25T20:15:50Z</time>
      </trkpt>
      <trkpt lat="40.014880" lon="-3.802910">
        <ele>568.471</ele>
        <time>2022-02-25T20:16:30Z</time>
      </trkpt>
      <trkpt lat="40.014870" lon="-3.802920">
        <ele>568.481</ele>
        <time>2022-02-25T20:17:10Z</time>
      </trkpt>
      <trkpt lat="40.014870" lon="-3.802930">
        <ele>568.493</ele>
        <time>2022-02-25T20:17:50Z</time>
      </trkpt>
      <trkpt lat="40.014870" lon="-3.802940">
        <ele>568.432</ele>
        <time>2022-02-25T20:18:30Z</time>
      </trkpt>
      <trkpt lat="40.014870" lon="-3.802950">
        <ele>568.352</ele>
        <time>2022-02-25T20:19:10Z</time>
      </trkpt>
      <trkpt lat="40.014860" lon="-3.802960">
        <ele>568.428</ele>
        <time>2022-02-25T20:19:50Z</time>
      </trkpt>
      <trkpt lat="40.014860" lon="-3.802970">
        <ele>568.389</ele>
        <time>2022-02-25T20:20:30Z</time>
      </trkpt>
      <trkpt lat="40.014870" lon="-3.803000">
        <ele>568.117</ele>
        <time>2022-02-25T20:21:10Z</time>
      </trkpt>
      <trkpt lat="40.014890" lon="-3.803090">
        <ele>567.608</ele>
        <time>2022-02-25T20:21:50Z</time>
      </trkpt>
      <trkpt lat="40.014900" lon="-3.803180">
        <ele>567.151</ele>
        <time>2022-02-25T20:22:30Z</time>
      </trkpt>
      <trkpt lat="40.014920" lon="-3.803210">
        <ele>566.888</ele>
        <time>2022-02-25T20:23:10Z</time>
      </trkpt>
      <trkpt lat="40.014980" lon="-3.803450">
        <ele>564.952</ele>
        <time>2022-02-25T20:23:50Z</time>
      </trkpt>
      <trkpt lat="40.014990" lon="-3.803520">
        <ele>564.571</ele>
        <time>2022-02-25T20:24:30Z</time>
      </trkpt>
      <trkpt lat="40.015020" lon="-3.803780">
        <ele>563.071</ele>
        <time>2022-02-25T20:25:10Z</time>
      </trkpt>
      <trkpt lat="40.015020" lon="-3.803820">
        <ele>562.983</ele>
        <time>2022-02-25T20:25:50Z</time>
      </trkpt>
      <trkpt lat="40.015030" lon="-3.804030">
        <ele>562.062</ele>
        <time>2022-02-25T20:26:30Z</time>
      </trkpt>
      <trkpt lat="40.015020" lon="-3.804460">
        <ele>561.692</ele>
        <time>2022-02-25T20:27:10Z</time>
      </trkpt>
      <trkpt lat="40.015020" lon="-3.804560">
        <ele>561.375</ele>
        <time>2022-02-25T20:27:50Z</time>
      </trkpt>
      <trkpt lat="40.014970" lon="-3.804980">
        <ele>560.428</ele>
        <time>2022-02-25T20:28:30Z</time>
      </trkpt>
      <trkpt lat="40.014970" lon="-3.805050">
        <ele>560.120</ele>
        <time>2022-02-25T20:29:10Z</time>
      </trkpt>
      <trkpt lat="40.014960" lon="-3.805120">
        <ele>559.908</ele>
        <time>2022-02-25T20:29:50Z</time>
      </trkpt>
      <trkpt lat="40.014940" lon="-3.805210">
        <ele>559.716</ele>
        <time>2022-02-25T20:30:30Z</time>
      </trkpt>
      <trkpt lat="40.014920" lon="-3.805350">
        <ele>559.373</ele>
        <time>2022-02-25T20:31:10Z</time>
      </trkpt>
      <trkpt lat="40.014870" lon="-3.805670">
        <ele>558.547</ele>
        <time>2022-02-25T20:31:50Z</time>
      </trkpt>
      <trkpt lat="40.014850" lon="-3.805890">
        <ele>557.976</ele>
        <time>2022-02-25T20:32:30Z</time>
      </trkpt>
      <trkpt lat="40.014860" lon="-3.806020">
        <ele>557.326</ele>
        <time>2022-02-25T20:33:10Z</time>
      </trkpt>
      <trkpt lat="40.014880" lon="-3.806140">
        <ele>556.858</ele>
        <time>2022-02-25T20:33:50Z</time>
      </trkpt>
      <trkpt lat="40.014880" lon="-3.806150">
        <ele>556.747</ele>
        <time>2022-02-25T20:34:30Z</time>
      </trkpt>
      <trkpt lat="40.014950" lon="-3.806310">
        <ele>555.677</ele>
        <time>2022-02-25T20:35:10Z</time>
      </trkpt>
      <trkpt lat="40.015030" lon="-3.806450">
        <ele>554.611</ele>
        <time>2022-02-25T20:35:50Z</time>
      </trkpt>
      <trkpt lat="40.015130" lon="-3.806630">
        <ele>553.221</ele>
        <time>2022-02-25T20:36:30Z</time>
      </trkpt>
      <trkpt lat="40.015340" lon="-3.806980">
        <ele>551.903</ele>
        <time>2022-02-25T20:37:10Z</time>
      </trkpt>
      <trkpt lat="40.015350" lon="-3.806990">
        <ele>551.808</ele>
        <time>2022-02-25T20:37:50Z</time>
      </trkpt>
      <trkpt lat="40.015400" lon="-3.807080">
        <ele>551.590</ele>
        <time>2022-02-25T20:38:30Z</time>
      </trkpt>
      <trkpt lat="40.015510" lon="-3.807260">
        <ele>551.077</ele>
        <time>2022-02-25T20:39:10Z</time>
      </trkpt>
      <trkpt lat="40.015520" lon="-3.807280">
        <ele>551.091</ele>
        <time>2022-02-25T20:39:50Z</time>
      </trkpt>
      <trkpt lat="40.015730" lon="-3.807640">
        <ele>549.630</ele>
        <time>2022-02-25T20:40:30Z</time>
      </trkpt>
      <trkpt lat="40.015940" lon="-3.808020">
        <ele>548.640</ele>
        <time>2022-02-25T20:41:10Z</time>
      </trkpt>
      <trkpt lat="40.016050" lon="-3.808210">
        <ele>547.772</ele>
        <time>2022-02-25T20:41:50Z</time>
      </trkpt>
      <trkpt lat="40.016100" lon="-3.808290">
        <ele>547.291</ele>
        <time>2022-02-25T20:42:30Z</time>
      </trkpt>
      <trkpt lat="40.016100" lon="-3.808300">
        <ele>547.211</ele>
        <time>2022-02-25T20:43:10Z</time>
      </trkpt>
      <trkpt lat="40.016140" lon="-3.808360">
        <ele>546.981</ele>
        <time>2022-02-25T20:43:50Z</time>
      </trkpt>
      <trkpt lat="40.016250" lon="-3.808550">
        <ele>546.261</ele>
        <time>2022-02-25T20:44:30Z</time>
      </trkpt>
      <trkpt lat="40.016320" lon="-3.808660">
        <ele>545.917</ele>
        <time>2022-02-25T20:45:10Z</time>
      </trkpt>
      <trkpt lat="40.016370" lon="-3.808750">
        <ele>545.508</ele>
        <time>2022-02-25T20:45:50Z</time>
      </trkpt>
      <trkpt lat="40.016480" lon="-3.808950">
        <ele>545.037</ele>
        <time>2022-02-25T20:46:30Z</time>
      </trkpt>
      <trkpt lat="40.016860" lon="-3.809600">
        <ele>543.314</ele>
        <time>2022-02-25T20:47:10Z</time>
      </trkpt>
      <trkpt lat="40.016910" lon="-3.809680">
        <ele>543.198</ele>
        <time>2022-02-25T20:47:50Z</time>
      </trkpt>
      <trkpt lat="40.017180" lon="-3.810150">
        <ele>541.547</ele>
        <time>2022-02-25T20:48:30Z</time>
      </trkpt>
      <trkpt lat="40.017310" lon="-3.810390">
        <ele>540.697</ele>
        <time>2022-02-25T20:49:10Z</time>
      </trkpt>
      <trkpt lat="40.017820" lon="-3.811280">
        <ele>536.499</ele>
        <time>2022-02-25T20:49:50Z</time>
      </trkpt>
      <trkpt lat="40.018630" lon="-3.812700">
        <ele>535.348</ele>
        <time>2022-02-25T20:50:30Z</time>
      </trkpt>
      <trkpt lat="40.019160" lon="-3.813630">
        <ele>535.978</ele>
        <time>2022-02-25T20:51:10Z</time>
      </trkpt>
      <trkpt lat="40.019170" lon="-3.813640">
        <ele>535.975</ele>
        <time>2022-02-25T20:51:50Z</time>
      </trkpt>
      <trkpt lat="40.019700" lon="-3.814580">
        <ele>535.928</ele>
        <time>2022-02-25T20:52:30Z</time>
      </trkpt>
      <trkpt lat="40.019730" lon="-3.814620">
        <ele>536.020</ele>
        <time>2022-02-25T20:53:10Z</time>
      </trkpt>
      <trkpt lat="40.019810" lon="-3.814760">
        <ele>536.308</ele>
        <time>2022-02-25T20:53:50Z</time>
      </trkpt>
      <trkpt lat="40.020090" lon="-3.815230">
        <ele>537.346</ele>
        <time>2022-02-25T20:54:30Z</time>
      </trkpt>
      <trkpt lat="40.020110" lon="-3.815280">
        <ele>537.413</ele>
        <time>2022-02-25T20:55:10Z</time>
      </trkpt>
      <trkpt lat="40.020140" lon="-3.815320">
        <ele>537.547</ele>
        <time>2022-02-25T20:55:50Z</time>
      </trkpt>
      <trkpt lat="40.020190" lon="-3.815400">
        <ele>537.796</ele>
        <time>2022-02-25T20:56:30Z</time>
      </trkpt>
      <trkpt lat="40.020210" lon="-3.815440">
        <ele>537.836</ele>
        <time>2022-02-25T20:57:10Z</time>
      </trkpt>
      <trkpt lat="40.020250" lon="-3.815510">
        <ele>537.978</ele>
        <time>2022-02-25T20:57:50Z</time>
      </trkpt>
      <trkpt lat="40.020280" lon="-3.815560">
        <ele>538.097</ele>
        <time>2022-02-25T20:58:30Z</time>
      </trkpt>
      <trkpt lat="40.020320" lon="-3.815630">
        <ele>538.087</ele>
        <time>2022-02-25T20:59:10Z</time>
      </trkpt>
      <trkpt lat="40.020380" lon="-3.815710">
        <ele>538.085</ele>
        <time>2022-02-25T20:59:50Z</time>
      </trkpt>
      <trkpt lat="40.020430" lon="-3.815780">
        <ele>538.089</ele>
        <time>2022-02-25T21:00:30Z</time>
      </trkpt>
      <trkpt lat="40.020480" lon="-3.815830">
        <ele>538.017</ele>
        <time>2022-02-25T21:01:10Z</time>
      </trkpt>
      <trkpt lat="40.020540" lon="-3.815890">
        <ele>537.808</ele>
        <time>2022-02-25T21:01:50Z</time>
      </trkpt>
      <trkpt lat="40.020570" lon="-3.815930">
        <ele>537.717</ele>
        <time>2022-02-25T21:02:30Z</time>
      </trkpt>
      <trkpt lat="40.020610" lon="-3.815960">
        <ele>537.814</ele>
        <time>2022-02-25T21:03:10Z</time>
      </trkpt>
      <trkpt lat="40.020660" lon="-3.815970">
        <ele>537.998</ele>
        <time>2022-02-25T21:03:50Z</time>
      </trkpt>
      <trkpt lat="40.020670" lon="-3.815970">
        <ele>537.927</ele>
        <time>2022-02-25T21:04:30Z</time>
      </trkpt>
      <trkpt lat="40.020850" lon="-3.815970">
        <ele>538.677</ele>
        <time>2022-02-25T21:05:10Z</time>
      </trkpt>
      <trkpt lat="40.020860" lon="-3.815970">
        <ele>538.789</ele>
        <time>2022-02-25T21:05:50Z</time>
      </trkpt>
      <trkpt lat="40.020890" lon="-3.815970">
        <ele>538.848</ele>
        <time>2022-02-25T21:06:30Z</time>
      </trkpt>
      <trkpt lat="40.021020" lon="-3.815950">
        <ele>539.658</ele>
        <time>2022-02-25T21:07:10Z</time>
      </trkpt>
      <trkpt lat="40.021030" lon="-3.815950">
        <ele>539.649</ele>
        <time>2022-02-25T21:07:50Z</time>
      </trkpt>
      <trkpt lat="40.021090" lon="-3.815950">
        <ele>539.902</ele>
        <time>2022-02-25T21:08:30Z</time>
      </trkpt>
      <trkpt lat="40.021085" lon="-3.815952">
        <ele>539.922</ele>
        <time>2022-02-25T21:09:10Z</time>
      </trkpt>
      <trkpt lat="40.021100" lon="-3.815920">
        <ele>540.008</ele>
        <time>2022-02-25T21:09:50Z</time>
      </trkpt>
      <trkpt lat="40.021120" lon="-3.815890">
        <ele>540.043</ele>
        <time>2022-02-25T21:10:30Z</time>
      </trkpt>
      <trkpt lat="40.021150" lon="-3.815860">
        <ele>540.040</ele>
        <time>2022-02-25T21:11:10Z</time>
      </trkpt>
      <trkpt lat="40.021170" lon="-3.815840">
        <ele>540.044</ele>
        <time>2022-02-25T21:11:50Z</time>
      </trkpt>
      <trkpt lat="40.021200" lon="-3.815820">
        <ele>540.043</ele>
        <time>2022-02-25T21:12:30Z</time>
      </trkpt>
      <trkpt lat="40.021230" lon="-3.815800">
        <ele>540.063</ele>
        <time>2022-02-25T21:13:10Z</time>
      </trkpt>
      <trkpt lat="40.021250" lon="-3.815790">
        <ele>540.045</ele>
        <time>2022-02-25T21:13:50Z</time>
      </trkpt>
      <trkpt lat="40.021280" lon="-3.815780">
        <ele>540.084</ele>
        <time>2022-02-25T21:14:30Z</time>
      </trkpt>
      <trkpt lat="40.021310" lon="-3.815780">
        <ele>540.014</ele>
        <time>2022-02-25T21:15:10Z</time>
      </trkpt>
      <trkpt lat="40.021340" lon="-3.815780">
        <ele>540.039</ele>
        <time>2022-02-25T21:15:50Z</time>
      </trkpt>
      <trkpt lat="40.021370" lon="-3.815790">
        <ele>540.001</ele>
        <time>2022-02-25T21:16:30Z</time>
      </trkpt>
      <trkpt lat="40.021400" lon="-3.815800">
        <ele>540.021</ele>
        <time>2022-02-25T21:17:10Z</time>
      </trkpt>
      <trkpt lat="40.021430" lon="-3.815820">
        <ele>540.008</ele>
        <time>2022-02-25T21:17:50Z</time>
      </trkpt>
      <trkpt lat="40.021450" lon="-3.815830">
        <ele>540.022</ele>
        <time>2022-02-25T21:18:30Z</time>
      </trkpt>
      <trkpt lat="40.021480" lon="-3.815860">
        <ele>539.939</ele>
        <time>2022-02-25T21:19:10Z</time>
      </trkpt>
      <trkpt lat="40.021500" lon="-3.815890">
        <ele>539.873</ele>
        <time>2022-02-25T21:19:50Z</time>
      </trkpt>
      <trkpt lat="40.021520" lon="-3.815930">
        <ele>539.512</ele>
        <time>2022-02-25T21:20:30Z</time>
      </trkpt>
      <trkpt lat="40.021530" lon="-3.815970">
        <ele>539.222</ele>
        <time>2022-02-25T21:21:10Z</time>
      </trkpt>
      <trkpt lat="40.021540" lon="-3.816010">
        <ele>539.064</ele>
        <time>2022-02-25T21:21:50Z</time>
      </trkpt>
      <trkpt lat="40.021550" lon="-3.816050">
        <ele>538.643</ele>
        <time>2022-02-25T21:22:30Z</time>
      </trkpt>
      <trkpt lat="40.021560" lon="-3.816070">
        <ele>538.413</ele>
        <time>2022-02-25T21:23:10Z</time>
      </trkpt>
      <trkpt lat="40.021560" lon="-3.816090">
        <ele>538.312</ele>
        <time>2022-02-25T21:23:50Z</time>
      </trkpt>
      <trkpt lat="40.021560" lon="-3.816130">
        <ele>538.032</ele>
        <time>2022-02-25T21:24:30Z</time>
      </trkpt>
      <trkpt lat="40.021560" lon="-3.816170">
        <ele>537.605</ele>
        <time>2022-02-25T21:25:10Z</time>
      </trkpt>
      <trkpt lat="40.021550" lon="-3.816210">
        <ele>537.308</ele>
        <time>2022-02-25T21:25:50Z</time>
      </trkpt>
      <trkpt lat="40.021540" lon="-3.816250">
        <ele>537.120</ele>
        <time>2022-02-25T21:26:30Z</time>
      </trkpt>
      <trkpt lat="40.021520" lon="-3.816320">
        <ele>536.797</ele>
        <time>2022-02-25T21:27:10Z</time>
      </trkpt>
      <trkpt lat="40.021680" lon="-3.816550">
        <ele>532.121</ele>
        <time>2022-02-25T21:27:50Z</time>
      </trkpt>
      <trkpt lat="40.021720" lon="-3.816610">
        <ele>531.170</ele>
        <time>2022-02-25T21:28:30Z</time>
      </trkpt>
      <trkpt lat="40.021760" lon="-3.816660">
        <ele>530.430</ele>
        <time>2022-02-25T21:29:10Z</time>
      </trkpt>
      <trkpt lat="40.021800" lon="-3.816720">
        <ele>529.842</ele>
        <time>2022-02-25T21:29:50Z</time>
      </trkpt>
      <trkpt lat="40.021880" lon="-3.816830">
        <ele>529.291</ele>
        <time>2022-02-25T21:30:30Z</time>
      </trkpt>
      <trkpt lat="40.022050" lon="-3.817060">
        <ele>528.611</ele>
        <time>2022-02-25T21:31:10Z</time>
      </trkpt>
      <trkpt lat="40.022047" lon="-3.817064">
        <ele>528.614</ele>
        <time>2022-02-25T21:31:50Z</time>
      </trkpt>
      <trkpt lat="40.022090" lon="-3.817030">
        <ele>528.554</ele>
        <time>2022-02-25T21:32:30Z</time>
      </trkpt>
      <trkpt lat="40.022130" lon="-3.817010">
        <ele>528.309</ele>
        <time>2022-02-25T21:33:10Z</time>
      </trkpt>
      <trkpt lat="40.022180" lon="-3.817010">
        <ele>528.208</ele>
        <time>2022-02-25T21:33:50Z</time>
      </trkpt>
      <trkpt lat="40.022220" lon="-3.817010">
        <ele>528.050</ele>
        <time>2022-02-25T21:34:30Z</time>
      </trkpt>
      <trkpt lat="40.022270" lon="-3.817030">
        <ele>527.927</ele>
        <time>2022-02-25T21:35:10Z</time>
      </trkpt>
      <trkpt lat="40.022300" lon="-3.817050">
        <ele>527.971</ele>
        <time>2022-02-25T21:35:50Z</time>
      </trkpt>
      <trkpt lat="40.022330" lon="-3.817070">
        <ele>527.840</ele>
        <time>2022-02-25T21:36:30Z</time>
      </trkpt>
      <trkpt lat="40.022360" lon="-3.817100">
        <ele>527.730</ele>
        <time>2022-02-25T21:37:10Z</time>
      </trkpt>
      <trkpt lat="40.022390" lon="-3.817130">
        <ele>527.652</ele>
        <time>2022-02-25T21:37:50Z</time>
      </trkpt>
      <trkpt lat="40.022420" lon="-3.817170">
        <ele>527.431</ele>
        <time>2022-02-25T21:38:30Z</time>
      </trkpt>
      <trkpt lat="40.022440" lon="-3.817210">
        <ele>527.271</ele>
        <time>2022-02-25T21:39:10Z</time>
      </trkpt>
      <trkpt lat="40.022460" lon="-3.817260">
        <ele>527.193</ele>
        <time>2022-02-25T21:39:50Z</time>
      </trkpt>
      <trkpt lat="40.022470" lon="-3.817320">
        <ele>527.165</ele>
        <time>2022-02-25T21:40:30Z</time>
      </trkpt>
      <trkpt lat="40.022480" lon="-3.817390">
        <ele>527.121</ele>
        <time>2022-02-25T21:41:10Z</time>
      </trkpt>
      <trkpt lat="40.022480" lon="-3.817460">
        <ele>527.108</ele>
        <time>2022-02-25T21:41:50Z</time>
      </trkpt>
      <trkpt lat="40.022470" lon="-3.817520">
        <ele>527.198</ele>
        <time>2022-02-25T21:42:30Z</time>
      </trkpt>
      <trkpt lat="40.022440" lon="-3.817580">
        <ele>527.295</ele>
        <time>2022-02-25T21:43:10Z</time>
      </trkpt>
      <trkpt lat="40.022410" lon="-3.817630">
        <ele>527.269</ele>
        <time>2022-02-25T21:43:50Z</time>
      </trkpt>
      <trkpt lat="40.022360" lon="-3.817690">
        <ele>527.298</ele>
        <time>2022-02-25T21:44:30Z</time>
      </trkpt>
      <trkpt lat="40.022330" lon="-3.817720">
        <ele>527.128</ele>
        <time>2022-02-25T21:45:10Z</time>
      </trkpt>
      <trkpt lat="40.022320" lon="-3.817720">
        <ele>527.150</ele>
        <time>2022-02-25T21:45:50Z</time>
      </trkpt>
      <trkpt lat="40.022320" lon="-3.817780">
        <ele>527.069</ele>
        <time>2022-02-25T21:46:30Z</time>
      </trkpt>
      <trkpt lat="40.022310" lon="-3.817920">
        <ele>527.099</ele>
        <time>2022-02-25T21:47:10Z</time>
      </trkpt>
      <trkpt lat="40.022300" lon="-3.817940">
        <ele>527.059</ele>
        <time>2022-02-25T21:47:50Z</time>
      </trkpt>
      <trkpt lat="40.022280" lon="-3.818070">
        <ele>527.003</ele>
        <time>2022-02-25T21:48:30Z</time>
      </trkpt>
      <trkpt lat="40.022290" lon="-3.818160">
        <ele>526.923</ele>
        <time>2022-02-25T21:49:10Z</time>
      </trkpt>
      <trkpt lat="40.022310" lon="-3.818370">
        <ele>526.708</ele>
        <time>2022-02-25T21:49:50Z</time>
      </trkpt>
      <trkpt lat="40.022320" lon="-3.818420">
        <ele>526.664</ele>
        <time>2022-02-25T21:50:30Z</time>
      </trkpt>
      <trkpt lat="40.022340" lon="-3.818560">
        <ele>526.611</ele>
        <time>2022-02-25T21:51:10Z</time>
      </trkpt>
      <trkpt lat="40.022380" lon="-3.818750">
        <ele>526.245</ele>
        <time>2022-02-25T21:51:50Z</time>
      </trkpt>
      <trkpt lat="40.022460" lon="-3.819130">
        <ele>526.074</ele>
        <time>2022-02-25T21:52:30Z</time>
      </trkpt>
      <trkpt lat="40.022590" lon="-3.819500">
        <ele>525.914</ele>
        <time>2022-02-25T21:53:10Z</time>
      </trkpt>
      <trkpt lat="40.022920" lon="-3.820090">
        <ele>524.546</ele>
        <time>2022-02-25T21:53:50Z</time>
      </trkpt>
      <trkpt lat="40.023020" lon="-3.820250">
        <ele>524.115</ele>
        <time>2022-02-25T21:54:30Z</time>
      </trkpt>
      <trkpt lat="40.023040" lon="-3.820280">
        <ele>524.115</ele>
        <time>2022-02-25T21:55:10Z</time>
      </trkpt>
      <trkpt lat="40.023050" lon="-3.820300">
        <ele>524.097</ele>
        <time>2022-02-25T21:55:50Z</time>
      </trkpt>
      <trkpt lat="40.023420" lon="-3.820970">
        <ele>522.823</ele>
        <time>2022-02-25T21:56:30Z</time>
      </trkpt>
      <trkpt lat="40.023560" lon="-3.821190">
        <ele>522.225</ele>
        <time>2022-02-25T21:57:10Z</time>
      </trkpt>
      <trkpt lat="40.023600" lon="-3.821260">
        <ele>522.008</ele>
        <time>2022-02-25T21:57:50Z</time>
      </trkpt>
      <trkpt lat="40.023680" lon="-3.821390">
        <ele>522.088</ele>
        <time>2022-02-25T21:58:30Z</time>
      </trkpt>
      <trkpt lat="40.023950" lon="-3.821710">
        <ele>521.755</ele>
        <time>2022-02-25T21:59:10Z</time>
      </trkpt>
      <trkpt lat="40.024070" lon="-3.821850">
        <ele>521.179</ele>
        <time>2022-02-25T21:59:50Z</time>
      </trkpt>
      <trkpt lat="40.024140" lon="-3.821930">
        <ele>521.098</ele>
        <time>2022-02-25T22:00:30Z</time>
      </trkpt>
      <trkpt lat="40.024250" lon="-3.822060">
        <ele>521.048</ele>
        <time>2022-02-25T22:01:10Z</time>
      </trkpt>
      <trkpt lat="40.024290" lon="-3.822080">
        <ele>521.090</ele>
        <time>2022-02-25T22:01:50Z</time>
      </trkpt>
      <trkpt lat="40.024810" lon="-3.822510">
        <ele>519.739</ele>
        <time>2022-02-25T22:02:30Z</time>
      </trkpt>
      <trkpt lat="40.024930" lon="-3.822600">
        <ele>519.359</ele>
        <time>2022-02-25T22:03:10Z</time>
      </trkpt>
      <trkpt lat="40.024970" lon="-3.822640">
        <ele>519.161</ele>
        <time>2022-02-25T22:03:50Z</time>
      </trkpt>
      <trkpt lat="40.025870" lon="-3.823300">
        <ele>513.921</ele>
        <time>2022-02-25T22:04:30Z</time>
      </trkpt>
      <trkpt lat="40.025950" lon="-3.823360">
        <ele>513.613</ele>
        <time>2022-02-25T22:05:10Z</time>
      </trkpt>
      <trkpt lat="40.026050" lon="-3.823430">
        <ele>513.208</ele>
        <time>2022-02-25T22:05:50Z</time>
      </trkpt>
      <trkpt lat="40.026340" lon="-3.823650">
        <ele>512.015</ele>
        <time>2022-02-25T22:06:30Z</time>
      </trkpt>
      <trkpt lat="40.026430" lon="-3.823710">
        <ele>511.582</ele>
        <time>2022-02-25T22:07:10Z</time>
      </trkpt>
      <trkpt lat="40.026450" lon="-3.823720">
        <ele>511.446</ele>
        <time>2022-02-25T22:07:50Z</time>
      </trkpt>
      <trkpt lat="40.026470" lon="-3.823730">
        <ele>511.335</ele>
        <time>2022-02-25T22:08:30Z</time>
      </trkpt>
      <trkpt lat="40.026780" lon="-3.823960">
        <ele>510.025</ele>
        <time>2022-02-25T22:09:10Z</time>
      </trkpt>
      <trkpt lat="40.026780" lon="-3.823970">
        <ele>510.027</ele>
        <time>2022-02-25T22:09:50Z</time>
      </trkpt>
      <trkpt lat="40.026810" lon="-3.823980">
        <ele>510.066</ele>
        <time>2022-02-25T22:10:30Z</time>
      </trkpt>
      <trkpt lat="40.026890" lon="-3.824030">
        <ele>510.056</ele>
        <time>2022-02-25T22:11:10Z</time>
      </trkpt>
      <trkpt lat="40.027290" lon="-3.824300">
        <ele>510.011</ele>
        <time>2022-02-25T22:11:50Z</time>
      </trkpt>
      <trkpt lat="40.027330" lon="-3.824330">
        <ele>510.021</ele>
        <time>2022-02-25T22:12:30Z</time>
      </trkpt>
      <trkpt lat="40.027570" lon="-3.824480">
        <ele>509.903</ele>
        <time>2022-02-25T22:13:10Z</time>
      </trkpt>
      <trkpt lat="40.027810" lon="-3.824660">
        <ele>509.908</ele>
        <time>2022-02-25T22:13:50Z</time>
      </trkpt>
      <trkpt lat="40.027990" lon="-3.824800">
        <ele>509.290</ele>
        <time>2022-02-25T22:14:30Z</time>
      </trkpt>
      <trkpt lat="40.028290" lon="-3.825030">
        <ele>508.917</ele>
        <time>2022-02-25T22:15:10Z</time>
      </trkpt>
      <trkpt lat="40.028430" lon="-3.825130">
        <ele>508.341</ele>
        <time>2022-02-25T22:15:50Z</time>
      </trkpt>
      <trkpt lat="40.028560" lon="-3.825230">
        <ele>508.010</ele>
        <time>2022-02-25T22:16:30Z</time>
      </trkpt>
      <trkpt lat="40.028860" lon="-3.825460">
        <ele>507.050</ele>
        <time>2022-02-25T22:17:10Z</time>
      </trkpt>
      <trkpt lat="40.030090" lon="-3.826390">
        <ele>506.022</ele>
        <time>2022-02-25T22:17:50Z</time>
      </trkpt>
      <trkpt lat="40.030250" lon="-3.826500">
        <ele>505.651</ele>
        <time>2022-02-25T22:18:30Z</time>
      </trkpt>
      <trkpt lat="40.030360" lon="-3.826540">
        <ele>505.561</ele>
        <time>2022-02-25T22:19:10Z</time>
      </trkpt>
      <trkpt lat="40.030410" lon="-3.826560">
        <ele>505.489</ele>
        <time>2022-02-25T22:19:50Z</time>
      </trkpt>
      <trkpt lat="40.030430" lon="-3.826570">
        <ele>505.306</ele>
        <time>2022-02-25T22:20:30Z</time>
      </trkpt>
      <trkpt lat="40.030470" lon="-3.826590">
        <ele>505.326</ele>
        <time>2022-02-25T22:21:10Z</time>
      </trkpt>
      <trkpt lat="40.030580" lon="-3.826650">
        <ele>505.108</ele>
        <time>2022-02-25T22:21:50Z</time>
      </trkpt>
      <trkpt lat="40.030660" lon="-3.826690">
        <ele>505.347</ele>
        <time>2022-02-25T22:22:30Z</time>
      </trkpt>
      <trkpt lat="40.030665" lon="-3.826692">
        <ele>505.434</ele>
        <time>2022-02-25T22:23:10Z</time>
      </trkpt>
      <trkpt lat="40.030690" lon="-3.826670">
        <ele>505.588</ele>
        <time>2022-02-25T22:23:50Z</time>
      </trkpt>
      <trkpt lat="40.030710" lon="-3.826650">
        <ele>505.657</ele>
        <time>2022-02-25T22:24:30Z</time>
      </trkpt>
      <trkpt lat="40.030730" lon="-3.826640">
        <ele>505.787</ele>
        <time>2022-02-25T22:25:10Z</time>
      </trkpt>
      <trkpt lat="40.030760" lon="-3.826630">
        <ele>505.859</ele>
        <time>2022-02-25T22:25:50Z</time>
      </trkpt>
      <trkpt lat="40.030780" lon="-3.826620">
        <ele>505.868</ele>
        <time>2022-02-25T22:26:30Z</time>
      </trkpt>
      <trkpt lat="40.030810" lon="-3.826620">
        <ele>505.988</ele>
        <time>2022-02-25T22:27:10Z</time>
      </trkpt>
      <trkpt lat="40.030840" lon="-3.826620">
        <ele>506.013</ele>
        <time>2022-02-25T22:27:50Z</time>
      </trkpt>
      <trkpt lat="40.030860" lon="-3.826630">
        <ele>505.943</ele>
        <time>2022-02-25T22:28:30Z</time>
      </trkpt>
      <trkpt lat="40.030880" lon="-3.826630">
        <ele>505.907</ele>
        <time>2022-02-25T22:29:10Z</time>
      </trkpt>
      <trkpt lat="40.030890" lon="-3.826630">
        <ele>505.808</ele>
        <time>2022-02-25T22:29:50Z</time>
      </trkpt>
      <trkpt lat="40.030910" lon="-3.826640">
        <ele>505.830</ele>
        <time>2022-02-25T22:30:30Z</time>
      </trkpt>
      <trkpt lat="40.030920" lon="-3.826640">
        <ele>505.797</ele>
        <time>2022-02-25T22:31:10Z</time>
      </trkpt>
      <trkpt lat="40.030940" lon="-3.826650">
        <ele>505.651</ele>
        <time>2022-02-25T22:31:50Z</time>
      </trkpt>
      <trkpt lat="40.030950" lon="-3.826660">
        <ele>505.640</ele>
        <time>2022-02-25T22:32:30Z</time>
      </trkpt>
      <trkpt lat="40.030960" lon="-3.826670">
        <ele>505.510</ele>
        <time>2022-02-25T22:33:10Z</time>
      </trkpt>
      <trkpt lat="40.030980" lon="-3.826680">
        <ele>505.432</ele>
        <time>2022-02-25T22:33:50Z</time>
      </trkpt>
      <trkpt lat="40.030990" lon="-3.826690">
        <ele>505.411</ele>
        <time>2022-02-25T22:34:30Z</time>
      </trkpt>
      <trkpt lat="40.031000" lon="-3.826700">
        <ele>505.481</ele>
        <time>2022-02-25T22:35:10Z</time>
      </trkpt>
      <trkpt lat="40.031010" lon="-3.826720">
        <ele>505.367</ele>
        <time>2022-02-25T22:35:50Z</time>
      </trkpt>
      <trkpt lat="40.031020" lon="-3.826730">
        <ele>505.381</ele>
        <time>2022-02-25T22:36:30Z</time>
      </trkpt>
      <trkpt lat="40.031030" lon="-3.826740">
        <ele>505.219</ele>
        <time>2022-02-25T22:37:10Z</time>
      </trkpt>
      <trkpt lat="40.031030" lon="-3.826750">
        <ele>505.208</ele>
        <time>2022-02-25T22:37:50Z</time>
      </trkpt>
      <trkpt lat="40.031040" lon="-3.826770">
        <ele>505.265</ele>
        <time>2022-02-25T22:38:30Z</time>
      </trkpt>
      <trkpt lat="40.031050" lon="-3.826790">
        <ele>505.172</ele>
        <time>2022-02-25T22:39:10Z</time>
      </trkpt>
      <trkpt lat="40.031060" lon="-3.826820">
        <ele>505.116</ele>
        <time>2022-02-25T22:39:50Z</time>
      </trkpt>
      <trkpt lat="40.031060" lon="-3.826850">
        <ele>505.165</ele>
        <time>2022-02-25T22:40:30Z</time>
      </trkpt>
      <trkpt lat="40.031070" lon="-3.826880">
        <ele>505.075</ele>
        <time>2022-02-25T22:41:10Z</time>
      </trkpt>
      <trkpt lat="40.031070" lon="-3.826910">
        <ele>505.077</ele>
        <time>2022-02-25T22:41:50Z</time>
      </trkpt>
      <trkpt lat="40.031070" lon="-3.826930">
        <ele>505.046</ele>
        <time>2022-02-25T22:42:30Z</time>
      </trkpt>
      <trkpt lat="40.031060" lon="-3.826960">
        <ele>505.036</ele>
        <time>2022-02-25T22:43:10Z</time>
      </trkpt>
      <trkpt lat="40.031050" lon="-3.826990">
        <ele>504.943</ele>
        <time>2022-02-25T22:43:50Z</time>
      </trkpt>
      <trkpt lat="40.031050" lon="-3.827010">
        <ele>504.864</ele>
        <time>2022-02-25T22:44:30Z</time>
      </trkpt>
      <trkpt lat="40.031340" lon="-3.827290">
        <ele>504.610</ele>
        <time>2022-02-25T22:45:10Z</time>
      </trkpt>
      <trkpt lat="40.033550" lon="-3.828870">
        <ele>503.808</ele>
        <time>2022-02-25T22:45:50Z</time>
      </trkpt>
      <trkpt lat="40.033551" lon="-3.828865">
        <ele>503.853</ele>
        <time>2022-02-25T22:46:30Z</time>
      </trkpt>
      <trkpt lat="40.033570" lon="-3.828850">
        <ele>503.820</ele>
        <time>2022-02-25T22:47:10Z</time>
      </trkpt>
      <trkpt lat="40.033580" lon="-3.828840">
        <ele>503.954</ele>
        <time>2022-02-25T22:47:50Z</time>
      </trkpt>
      <trkpt lat="40.033590" lon="-3.828830">
        <ele>503.913</ele>
        <time>2022-02-25T22:48:30Z</time>
      </trkpt>
      <trkpt lat="40.033600" lon="-3.828820">
        <ele>503.973</ele>
        <time>2022-02-25T22:49:10Z</time>
      </trkpt>
      <trkpt lat="40.033610" lon="-3.828820">
        <ele>504.075</ele>
        <time>2022-02-25T22:49:50Z</time>
      </trkpt>
      <trkpt lat="40.033620" lon="-3.828810">
        <ele>504.044</ele>
        <time>2022-02-25T22:50:30Z</time>
      </trkpt>
      <trkpt lat="40.033630" lon="-3.828810">
        <ele>504.194</ele>
        <time>2022-02-25T22:51:10Z</time>
      </trkpt>
      <trkpt lat="40.033640" lon="-3.828800">
        <ele>504.157</ele>
        <time>2022-02-25T22:51:50Z</time>
      </trkpt>
      <trkpt lat="40.033650" lon="-3.828800">
        <ele>504.100</ele>
        <time>2022-02-25T22:52:30Z</time>
      </trkpt>
      <trkpt lat="40.033660" lon="-3.828800">
        <ele>504.220</ele>
        <time>2022-02-25T22:53:10Z</time>
      </trkpt>
      <trkpt lat="40.033680" lon="-3.828800">
        <ele>504.208</ele>
        <time>2022-02-25T22:53:50Z</time>
      </trkpt>
      <trkpt lat="40.033690" lon="-3.828800">
        <ele>504.314</ele>
        <time>2022-02-25T22:54:30Z</time>
      </trkpt>
      <trkpt lat="40.033700" lon="-3.828800">
        <ele>504.321</ele>
        <time>2022-02-25T22:55:10Z</time>
      </trkpt>
      <trkpt lat="40.033710" lon="-3.828810">
        <ele>504.475</ele>
        <time>2022-02-25T22:55:50Z</time>
      </trkpt>
      <trkpt lat="40.033730" lon="-3.828810">
        <ele>504.424</ele>
        <time>2022-02-25T22:56:30Z</time>
      </trkpt>
      <trkpt lat="40.033740" lon="-3.828820">
        <ele>504.514</ele>
        <time>2022-02-25T22:57:10Z</time>
      </trkpt>
      <trkpt lat="40.033750" lon="-3.828830">
        <ele>504.526</ele>
        <time>2022-02-25T22:57:50Z</time>
      </trkpt>
      <trkpt lat="40.033760" lon="-3.828830">
        <ele>504.595</ele>
        <time>2022-02-25T22:58:30Z</time>
      </trkpt>
      <trkpt lat="40.033770" lon="-3.828840">
        <ele>504.625</ele>
        <time>2022-02-25T22:59:10Z</time>
      </trkpt>
      <trkpt lat="40.033780" lon="-3.828850">
        <ele>504.682</ele>
        <time>2022-02-25T22:59:50Z</time>
      </trkpt>
      <trkpt lat="40.033790" lon="-3.828870">
        <ele>504.643</ele>
        <time>2022-02-25T23:00:30Z</time>
      </trkpt>
      <trkpt lat="40.033800" lon="-3.828880">
        <ele>504.717</ele>
        <time>2022-02-25T23:01:10Z</time>
      </trkpt>
      <trkpt lat="40.033810" lon="-3.828890">
        <ele>504.708</ele>
        <time>2022-02-25T23:01:50Z</time>
      </trkpt>
      <trkpt lat="40.033820" lon="-3.828900">
        <ele>504.897</ele>
        <time>2022-02-25T23:02:30Z</time>
      </trkpt>
      <trkpt lat="40.033830" lon="-3.828920">
        <ele>504.954</ele>
        <time>2022-02-25T23:03:10Z</time>
      </trkpt>
      <trkpt lat="40.033830" lon="-3.828930">
        <ele>504.998</ele>
        <time>2022-02-25T23:03:50Z</time>
      </trkpt>
      <trkpt lat="40.033840" lon="-3.828950">
        <ele>505.047</ele>
        <time>2022-02-25T23:04:30Z</time>
      </trkpt>
      <trkpt lat="40.033840" lon="-3.828960">
        <ele>505.187</ele>
        <time>2022-02-25T23:05:10Z</time>
      </trkpt>
      <trkpt lat="40.033850" lon="-3.828980">
        <ele>505.299</ele>
        <time>2022-02-25T23:05:50Z</time>
      </trkpt>
      <trkpt lat="40.033850" lon="-3.829000">
        <ele>505.338</ele>
        <time>2022-02-25T23:06:30Z</time>
      </trkpt>
      <trkpt lat="40.033850" lon="-3.829020">
        <ele>505.338</ele>
        <time>2022-02-25T23:07:10Z</time>
      </trkpt>
      <trkpt lat="40.033860" lon="-3.829030">
        <ele>505.419</ele>
        <time>2022-02-25T23:07:50Z</time>
      </trkpt>
      <trkpt lat="40.033860" lon="-3.829050">
        <ele>505.509</ele>
        <time>2022-02-25T23:08:30Z</time>
      </trkpt>
      <trkpt lat="40.033860" lon="-3.829070">
        <ele>505.519</ele>
        <time>2022-02-25T23:09:10Z</time>
      </trkpt>
      <trkpt lat="40.033860" lon="-3.829090">
        <ele>505.608</ele>
        <time>2022-02-25T23:09:50Z</time>
      </trkpt>
      <trkpt lat="40.033860" lon="-3.829100">
        <ele>505.750</ele>
        <time>2022-02-25T23:10:30Z</time>
      </trkpt>
      <trkpt lat="40.034040" lon="-3.829260">
        <ele>506.537</ele>
        <time>2022-02-25T23:11:10Z</time>
      </trkpt>
      <trkpt lat="40.034070" lon="-3.829290">
        <ele>506.711</ele>
        <time>2022-02-25T23:11:50Z</time>
      </trkpt>
      <trkpt lat="40.034090" lon="-3.829350">
        <ele>506.710</ele>
        <time>2022-02-25T23:12:30Z</time>
      </trkpt>
      <trkpt lat="40.034280" lon="-3.829480">
        <ele>507.420</ele>
        <time>2022-02-25T23:13:10Z</time>
      </trkpt>
      <trkpt lat="40.034310" lon="-3.829500">
        <ele>507.532</ele>
        <time>2022-02-25T23:13:50Z</time>
      </trkpt>
      <trkpt lat="40.034660" lon="-3.829750">
        <ele>508.731</ele>
        <time>2022-02-25T23:14:30Z</time>
      </trkpt>
      <trkpt lat="40.035190" lon="-3.830110">
        <ele>510.071</ele>
        <time>2022-02-25T23:15:10Z</time>
      </trkpt>
      <trkpt lat="40.035880" lon="-3.830630">
        <ele>512.695</ele>
        <time>2022-02-25T23:15:50Z</time>
      </trkpt>
      <trkpt lat="40.036650" lon="-3.831170">
        <ele>520.049</ele>
        <time>2022-02-25T23:16:30Z</time>
      </trkpt>
      <trkpt lat="40.037120" lon="-3.831400">
        <ele>519.823</ele>
        <time>2022-02-25T23:17:10Z</time>
      </trkpt>
      <trkpt lat="40.037360" lon="-3.831500">
        <ele>519.808</ele>
        <time>2022-02-25T23:17:50Z</time>
      </trkpt>
      <trkpt lat="40.037460" lon="-3.831530">
        <ele>519.958</ele>
        <time>2022-02-25T23:18:30Z</time>
      </trkpt>
      <trkpt lat="40.038000" lon="-3.831680">
        <ele>520.835</ele>
        <time>2022-02-25T23:19:10Z</time>
      </trkpt>
      <trkpt lat="40.038950" lon="-3.831910">
        <ele>524.379</ele>
        <time>2022-02-25T23:19:50Z</time>
      </trkpt>
      <trkpt lat="40.039220" lon="-3.831970">
        <ele>525.058</ele>
        <time>2022-02-25T23:20:30Z</time>
      </trkpt>
      <trkpt lat="40.039580" lon="-3.832050">
        <ele>524.318</ele>
        <time>2022-02-25T23:21:10Z</time>
      </trkpt>
      <trkpt lat="40.039850" lon="-3.832100">
        <ele>523.770</ele>
        <time>2022-02-25T23:21:50Z</time>
      </trkpt>
      <trkpt lat="40.040030" lon="-3.832130">
        <ele>523.399</ele>
        <time>2022-02-25T23:22:30Z</time>
      </trkpt>
      <trkpt lat="40.040810" lon="-3.832280">
        <ele>521.199</ele>
        <time>2022-02-25T23:23:10Z</time>
      </trkpt>
      <trkpt lat="40.040820" lon="-3.832280">
        <ele>521.098</ele>
        <time>2022-02-25T23:23:50Z</time>
      </trkpt>
      <trkpt lat="40.041010" lon="-3.832350">
        <ele>520.715</ele>
        <time>2022-02-25T23:24:30Z</time>
      </trkpt>
      <trkpt lat="40.041100" lon="-3.832390">
        <ele>520.426</ele>
        <time>2022-02-25T23:25:10Z</time>
      </trkpt>
      <trkpt lat="40.041130" lon="-3.832400">
        <ele>520.308</ele>
        <time>2022-02-25T23:25:50Z</time>
      </trkpt>
      <trkpt lat="40.041160" lon="-3.832420">
        <ele>520.288</ele>
        <time>2022-02-25T23:26:30Z</time>
      </trkpt>
      <trkpt lat="40.041240" lon="-3.832470">
        <ele>520.135</ele>
        <time>2022-02-25T23:27:10Z</time>
      </trkpt>
      <trkpt lat="40.041270" lon="-3.832480">
        <ele>520.029</ele>
        <time>2022-02-25T23:27:50Z</time>
      </trkpt>
      <trkpt lat="40.041350" lon="-3.832530">
        <ele>520.098</ele>
        <time>2022-02-25T23:28:30Z</time>
      </trkpt>
      <trkpt lat="40.041490" lon="-3.832610">
        <ele>520.098</ele>
        <time>2022-02-25T23:29:10Z</time>
      </trkpt>
      <trkpt lat="40.041600" lon="-3.832670">
        <ele>520.090</ele>
        <time>2022-02-25T23:29:50Z</time>
      </trkpt>
      <trkpt lat="40.041660" lon="-3.832710">
        <ele>520.089</ele>
        <time>2022-02-25T23:30:30Z</time>
      </trkpt>
      <trkpt lat="40.041760" lon="-3.832760">
        <ele>520.049</ele>
        <time>2022-02-25T23:31:10Z</time>
      </trkpt>
      <trkpt lat="40.041880" lon="-3.832830">
        <ele>520.031</ele>
        <time>2022-02-25T23:31:50Z</time>
      </trkpt>
      <trkpt lat="40.042050" lon="-3.832910">
        <ele>520.061</ele>
        <time>2022-02-25T23:32:30Z</time>
      </trkpt>
      <trkpt lat="40.042220" lon="-3.832990">
        <ele>520.007</ele>
        <time>2022-02-25T23:33:10Z</time>
      </trkpt>
      <trkpt lat="40.042390" lon="-3.833070">
        <ele>520.008</ele>
        <time>2022-02-25T23:33:50Z</time>
      </trkpt>
      <trkpt lat="40.042450" lon="-3.833100">
        <ele>520.012</ele>
        <time>2022-02-25T23:34:30Z</time>
      </trkpt>
      <trkpt lat="40.042520" lon="-3.833140">
        <ele>520.049</ele>
        <time>2022-02-25T23:35:10Z</time>
      </trkpt>
      <trkpt lat="40.042780" lon="-3.833260">
        <ele>520.093</ele>
        <time>2022-02-25T23:35:50Z</time>
      </trkpt>
      <trkpt lat="40.042940" lon="-3.833350">
        <ele>519.492</ele>
        <time>2022-02-25T23:36:30Z</time>
      </trkpt>
      <trkpt lat="40.043190" lon="-3.833490">
        <ele>518.482</ele>
        <time>2022-02-25T23:37:10Z</time>
      </trkpt>
      <trkpt lat="40.043240" lon="-3.833530">
        <ele>518.384</ele>
        <time>2022-02-25T23:37:50Z</time>
      </trkpt>
      <trkpt lat="40.043520" lon="-3.833690">
        <ele>519.363</ele>
        <time>2022-02-25T23:38:30Z</time>
      </trkpt>
      <trkpt lat="40.043610" lon="-3.833750">
        <ele>520.033</ele>
        <time>2022-02-25T23:39:10Z</time>
      </trkpt>
      <trkpt lat="40.043820" lon="-3.833870">
        <ele>520.069</ele>
        <time>2022-02-25T23:39:50Z</time>
      </trkpt>
      <trkpt lat="40.044140" lon="-3.834060">
        <ele>520.004</ele>
        <time>2022-02-25T23:40:30Z</time>
      </trkpt>
      <trkpt lat="40.044330" lon="-3.834170">
        <ele>520.024</ele>
        <time>2022-02-25T23:41:10Z</time>
      </trkpt>
      <trkpt lat="40.044430" lon="-3.834240">
        <ele>520.008</ele>
        <time>2022-02-25T23:41:50Z</time>
      </trkpt>
      <trkpt lat="40.044530" lon="-3.834300">
        <ele>520.165</ele>
        <time>2022-02-25T23:42:30Z</time>
      </trkpt>
      <trkpt lat="40.044740" lon="-3.834420">
        <ele>521.092</ele>
        <time>2022-02-25T23:43:10Z</time>
      </trkpt>
      <trkpt lat="40.045000" lon="-3.834560">
        <ele>522.086</ele>
        <time>2022-02-25T23:43:50Z</time>
      </trkpt>
      <trkpt lat="40.045090" lon="-3.834620">
        <ele>522.225</ele>
        <time>2022-02-25T23:44:30Z</time>
      </trkpt>
      <trkpt lat="40.045760" lon="-3.834980">
        <ele>524.725</ele>
        <time>2022-02-25T23:45:10Z</time>
      </trkpt>
      <trkpt lat="40.045920" lon="-3.835070">
        <ele>525.567</ele>
        <time>2022-02-25T23:45:50Z</time>
      </trkpt>
      <trkpt lat="40.046270" lon="-3.835200">
        <ele>526.626</ele>
        <time>2022-02-25T23:46:30Z</time>
      </trkpt>
      <trkpt lat="40.046370" lon="-3.835240">
        <ele>526.966</ele>
        <time>2022-02-25T23:47:10Z</time>
      </trkpt>
      <trkpt lat="40.046750" lon="-3.835340">
        <ele>528.268</ele>
        <time>2022-02-25T23:47:50Z</time>
      </trkpt>
      <trkpt lat="40.047340" lon="-3.835580">
        <ele>530.042</ele>
        <time>2022-02-25T23:48:30Z</time>
      </trkpt>
      <trkpt lat="40.047410" lon="-3.835600">
        <ele>530.026</ele>
        <time>2022-02-25T23:49:10Z</time>
      </trkpt>
      <trkpt lat="40.047730" lon="-3.835720">
        <ele>530.008</ele>
        <time>2022-02-25T23:49:50Z</time>
      </trkpt>
      <trkpt lat="40.047760" lon="-3.835740">
        <ele>530.035</ele>
        <time>2022-02-25T23:50:30Z</time>
      </trkpt>
      <trkpt lat="40.047880" lon="-3.835790">
        <ele>530.092</ele>
        <time>2022-02-25T23:51:10Z</time>
      </trkpt>
      <trkpt lat="40.048040" lon="-3.835860">
        <ele>530.096</ele>
        <time>2022-02-25T23:51:50Z</time>
      </trkpt>
      <trkpt lat="40.048230" lon="-3.835940">
        <ele>530.035</ele>
        <time>2022-02-25T23:52:30Z</time>
      </trkpt>
      <trkpt lat="40.048340" lon="-3.835980">
        <ele>530.085</ele>
        <time>2022-02-25T23:53:10Z</time>
      </trkpt>
      <trkpt lat="40.048640" lon="-3.836120">
        <ele>530.067</ele>
        <time>2022-02-25T23:53:50Z</time>
      </trkpt>
      <trkpt lat="40.048960" lon="-3.836240">
        <ele>530.036</ele>
        <time>2022-02-25T23:54:30Z</time>
      </trkpt>
      <trkpt lat="40.049280" lon="-3.836410">
        <ele>530.086</ele>
        <time>2022-02-25T23:55:10Z</time>
      </trkpt>
      <trkpt lat="40.049380" lon="-3.836460">
        <ele>530.052</ele>
        <time>2022-02-25T23:55:50Z</time>
      </trkpt>
      <trkpt lat="40.049780" lon="-3.836630">
        <ele>530.053</ele>
        <time>2022-02-25T23:56:30Z</time>
      </trkpt>
      <trkpt lat="40.049850" lon="-3.836670">
        <ele>530.008</ele>
        <time>2022-02-25T23:57:10Z</time>
      </trkpt>
      <trkpt lat="40.049920" lon="-3.836700">
        <ele>530.008</ele>
        <time>2022-02-25T23:57:50Z</time>
      </trkpt>
      <trkpt lat="40.050270" lon="-3.836840">
        <ele>530.084</ele>
        <time>2022-02-25T23:58:30Z</time>
      </trkpt>
      <trkpt lat="40.050360" lon="-3.836870">
        <ele>530.011</ele>
        <time>2022-02-25T23:59:10Z</time>
      </trkpt>
      <trkpt lat="40.050730" lon="-3.837010">
        <ele>530.635</ele>
        <time>2022-02-25T23:59:50Z</time>
      </trkpt>
      <trkpt lat="40.051030" lon="-3.837130">
        <ele>531.024</ele>
        <time>2022-02-26T00:00:30Z</time>
      </trkpt>
      <trkpt lat="40.051220" lon="-3.837210">
        <ele>531.024</ele>
        <time>2022-02-26T00:01:10Z</time>
      </trkpt>
      <trkpt lat="40.051360" lon="-3.837260">
        <ele>531.096</ele>
        <time>2022-02-26T00:01:50Z</time>
      </trkpt>
      <trkpt lat="40.051500" lon="-3.837310">
        <ele>531.085</ele>
        <time>2022-02-26T00:02:30Z</time>
      </trkpt>
      <trkpt lat="40.051700" lon="-3.837370">
        <ele>531.065</ele>
        <time>2022-02-26T00:03:10Z</time>
      </trkpt>
      <trkpt lat="40.051900" lon="-3.837460">
        <ele>531.042</ele>
        <time>2022-02-26T00:03:50Z</time>
      </trkpt>
      <trkpt lat="40.052210" lon="-3.837600">
        <ele>532.022</ele>
        <time>2022-02-26T00:04:30Z</time>
      </trkpt>
      <trkpt lat="40.052400" lon="-3.837680">
        <ele>532.014</ele>
        <time>2022-02-26T00:05:10Z</time>
      </trkpt>
      <trkpt lat="40.052730" lon="-3.837810">
        <ele>532.008</ele>
        <time>2022-02-26T00:05:50Z</time>
      </trkpt>
      <trkpt lat="40.053250" lon="-3.838030">
        <ele>533.033</ele>
        <time>2022-02-26T00:06:30Z</time>
      </trkpt>
      <trkpt lat="40.053640" lon="-3.838180">
        <ele>533.110</ele>
        <time>2022-02-26T00:07:10Z</time>
      </trkpt>
      <trkpt lat="40.053890" lon="-3.838280">
        <ele>534.074</ele>
        <time>2022-02-26T00:07:50Z</time>
      </trkpt>
      <trkpt lat="40.053910" lon="-3.838280">
        <ele>534.093</ele>
        <time>2022-02-26T00:08:30Z</time>
      </trkpt>
      <trkpt lat="40.053990" lon="-3.838290">
        <ele>534.073</ele>
        <time>2022-02-26T00:09:10Z</time>
      </trkpt>
      <trkpt lat="40.054060" lon="-3.838290">
        <ele>534.085</ele>
        <time>2022-02-26T00:09:50Z</time>
      </trkpt>
      <trkpt lat="40.054130" lon="-3.838270">
        <ele>534.024</ele>
        <time>2022-02-26T00:10:30Z</time>
      </trkpt>
      <trkpt lat="40.054180" lon="-3.838260">
        <ele>534.024</ele>
        <time>2022-02-26T00:11:10Z</time>
      </trkpt>
      <trkpt lat="40.054260" lon="-3.838250">
        <ele>534.366</ele>
        <time>2022-02-26T00:11:50Z</time>
      </trkpt>
      <trkpt lat="40.054261" lon="-3.838254">
        <ele>534.329</ele>
        <time>2022-02-26T00:12:30Z</time>
      </trkpt>
      <trkpt lat="40.054300" lon="-3.838190">
        <ele>534.521</ele>
        <time>2022-02-26T00:13:10Z</time>
      </trkpt>
      <trkpt lat="40.054350" lon="-3.838140">
        <ele>534.708</ele>
        <time>2022-02-26T00:13:50Z</time>
      </trkpt>
      <trkpt lat="40.054400" lon="-3.838100">
        <ele>534.865</ele>
        <time>2022-02-26T00:14:30Z</time>
      </trkpt>
      <trkpt lat="40.054460" lon="-3.838070">
        <ele>535.072</ele>
        <time>2022-02-26T00:15:10Z</time>
      </trkpt>
      <trkpt lat="40.054520" lon="-3.838060">
        <ele>535.086</ele>
        <time>2022-02-26T00:15:50Z</time>
      </trkpt>
      <trkpt lat="40.054580" lon="-3.838050">
        <ele>535.095</ele>
        <time>2022-02-26T00:16:30Z</time>
      </trkpt>
      <trkpt lat="40.054640" lon="-3.838060">
        <ele>535.045</ele>
        <time>2022-02-26T00:17:10Z</time>
      </trkpt>
      <trkpt lat="40.054700" lon="-3.838090">
        <ele>535.087</ele>
        <time>2022-02-26T00:17:50Z</time>
      </trkpt>
      <trkpt lat="40.054740" lon="-3.838100">
        <ele>535.076</ele>
        <time>2022-02-26T00:18:30Z</time>
      </trkpt>
      <trkpt lat="40.054780" lon="-3.838120">
        <ele>535.096</ele>
        <time>2022-02-26T00:19:10Z</time>
      </trkpt>
      <trkpt lat="40.054810" lon="-3.838150">
        <ele>535.029</ele>
        <time>2022-02-26T00:19:50Z</time>
      </trkpt>
      <trkpt lat="40.054840" lon="-3.838180">
        <ele>535.000</ele>
        <time>2022-02-26T00:20:30Z</time>
      </trkpt>
      <trkpt lat="40.054870" lon="-3.838220">
        <ele>535.020</ele>
        <time>2022-02-26T00:21:10Z</time>
      </trkpt>
      <trkpt lat="40.054890" lon="-3.838260">
        <ele>535.008</ele>
        <time>2022-02-26T00:21:50Z</time>
      </trkpt>
      <trkpt lat="40.054920" lon="-3.838300">
        <ele>535.091</ele>
        <time>2022-02-26T00:22:30Z</time>
      </trkpt>
      <trkpt lat="40.054940" lon="-3.838340">
        <ele>535.098</ele>
        <time>2022-02-26T00:23:10Z</time>
      </trkpt>
      <trkpt lat="40.054940" lon="-3.838370">
        <ele>535.062</ele>
        <time>2022-02-26T00:23:50Z</time>
      </trkpt>
      <trkpt lat="40.054950" lon="-3.838390">
        <ele>535.051</ele>
        <time>2022-02-26T00:24:30Z</time>
      </trkpt>
      <trkpt lat="40.054960" lon="-3.838420">
        <ele>535.021</ele>
        <time>2022-02-26T00:25:10Z</time>
      </trkpt>
      <trkpt lat="40.054970" lon="-3.838450">
        <ele>535.023</ele>
        <time>2022-02-26T00:25:50Z</time>
      </trkpt>
      <trkpt lat="40.054970" lon="-3.838480">
        <ele>535.012</ele>
        <time>2022-02-26T00:26:30Z</time>
      </trkpt>
      <trkpt lat="40.054970" lon="-3.838510">
        <ele>535.082</ele>
        <time>2022-02-26T00:27:10Z</time>
      </trkpt>
      <trkpt lat="40.054980" lon="-3.838540">
        <ele>535.069</ele>
        <time>2022-02-26T00:27:50Z</time>
      </trkpt>
      <trkpt lat="40.054980" lon="-3.838560">
        <ele>535.004</ele>
        <time>2022-02-26T00:28:30Z</time>
      </trkpt>
      <trkpt lat="40.055030" lon="-3.838600">
        <ele>535.124</ele>
        <time>2022-02-26T00:29:10Z</time>
      </trkpt>
      <trkpt lat="40.055060" lon="-3.838650">
        <ele>535.308</ele>
        <time>2022-02-26T00:29:50Z</time>
      </trkpt>
      <trkpt lat="40.055100" lon="-3.838680">
        <ele>535.585</ele>
        <time>2022-02-26T00:30:30Z</time>
      </trkpt>
      <trkpt lat="40.055120" lon="-3.838710">
        <ele>535.652</ele>
        <time>2022-02-26T00:31:10Z</time>
      </trkpt>
      <trkpt lat="40.055220" lon="-3.838770">
        <ele>535.996</ele>
        <time>2022-02-26T00:31:50Z</time>
      </trkpt>
      <trkpt lat="40.055280" lon="-3.838820">
        <ele>536.025</ele>
        <time>2022-02-26T00:32:30Z</time>
      </trkpt>
      <trkpt lat="40.055440" lon="-3.838880">
        <ele>536.075</ele>
        <time>2022-02-26T00:33:10Z</time>
      </trkpt>
      <trkpt lat="40.055680" lon="-3.838970">
        <ele>536.357</ele>
        <time>2022-02-26T00:33:50Z</time>
      </trkpt>
      <trkpt lat="40.055760" lon="-3.839000">
        <ele>536.426</ele>
        <time>2022-02-26T00:34:30Z</time>
      </trkpt>
      <trkpt lat="40.055770" lon="-3.839000">
        <ele>536.576</ele>
        <time>2022-02-26T00:35:10Z</time>
      </trkpt>
      <trkpt lat="40.056350" lon="-3.839240">
        <ele>536.732</ele>
        <time>2022-02-26T00:35:50Z</time>
      </trkpt>
      <trkpt lat="40.056420" lon="-3.839280">
        <ele>536.692</ele>
        <time>2022-02-26T00:36:30Z</time>
      </trkpt>
      <trkpt lat="40.056700" lon="-3.839410">
        <ele>537.111</ele>
        <time>2022-02-26T00:37:10Z</time>
      </trkpt>
      <trkpt lat="40.056860" lon="-3.839480">
        <ele>537.608</ele>
        <time>2022-02-26T00:37:50Z</time>
      </trkpt>
      <trkpt lat="40.056970" lon="-3.839550">
        <ele>537.772</ele>
        <time>2022-02-26T00:38:30Z</time>
      </trkpt>
      <trkpt lat="40.057110" lon="-3.839650">
        <ele>537.749</ele>
        <time>2022-02-26T00:39:10Z</time>
      </trkpt>
      <trkpt lat="40.057130" lon="-3.839670">
        <ele>537.773</ele>
        <time>2022-02-26T00:39:50Z</time>
      </trkpt>
      <trkpt lat="40.057240" lon="-3.839770">
        <ele>537.882</ele>
        <time>2022-02-26T00:40:30Z</time>
      </trkpt>
      <trkpt lat="40.057400" lon="-3.839920">
        <ele>537.762</ele>
        <time>2022-02-26T00:41:10Z</time>
      </trkpt>
      <trkpt lat="40.057480" lon="-3.840000">
        <ele>537.944</ele>
        <time>2022-02-26T00:41:50Z</time>
      </trkpt>
      <trkpt lat="40.057640" lon="-3.840150">
        <ele>538.513</ele>
        <time>2022-02-26T00:42:30Z</time>
      </trkpt>
      <trkpt lat="40.058210" lon="-3.840680">
        <ele>539.453</ele>
        <time>2022-02-26T00:43:10Z</time>
      </trkpt>
      <trkpt lat="40.058260" lon="-3.840730">
        <ele>539.365</ele>
        <time>2022-02-26T00:43:50Z</time>
      </trkpt>
      <trkpt lat="40.058770" lon="-3.841190">
        <ele>537.368</ele>
        <time>2022-02-26T00:44:30Z</time>
      </trkpt>
      <trkpt lat="40.058870" lon="-3.841280">
        <ele>536.214</ele>
        <time>2022-02-26T00:45:10Z</time>
      </trkpt>
      <trkpt lat="40.059080" lon="-3.841470">
        <ele>534.308</ele>
        <time>2022-02-26T00:45:50Z</time>
      </trkpt>
      <trkpt lat="40.059470" lon="-3.841820">
        <ele>531.355</ele>
        <time>2022-02-26T00:46:30Z</time>
      </trkpt>
      <trkpt lat="40.059530" lon="-3.841880">
        <ele>530.612</ele>
        <time>2022-02-26T00:47:10Z</time>
      </trkpt>
      <trkpt lat="40.059980" lon="-3.842280">
        <ele>528.036</ele>
        <time>2022-02-26T00:47:50Z</time>
      </trkpt>
      <trkpt lat="40.060570" lon="-3.842820">
        <ele>523.015</ele>
        <time>2022-02-26T00:48:30Z</time>
      </trkpt>
      <trkpt lat="40.060930" lon="-3.843170">
        <ele>521.245</ele>
        <time>2022-02-26T00:49:10Z</time>
      </trkpt>
      <trkpt lat="40.060960" lon="-3.843200">
        <ele>521.047</ele>
        <time>2022-02-26T00:49:50Z</time>
      </trkpt>
      <trkpt lat="40.061240" lon="-3.843470">
        <ele>520.066</ele>
        <time>2022-02-26T00:50:30Z</time>
      </trkpt>
      <trkpt lat="40.061520" lon="-3.843760">
        <ele>520.076</ele>
        <time>2022-02-26T00:51:10Z</time>
      </trkpt>
      <trkpt lat="40.061530" lon="-3.843760">
        <ele>520.092</ele>
        <time>2022-02-26T00:51:50Z</time>
      </trkpt>
      <trkpt lat="40.061670" lon="-3.843900">
        <ele>520.073</ele>
        <time>2022-02-26T00:52:30Z</time>
      </trkpt>
      <trkpt lat="40.061930" lon="-3.844160">
        <ele>520.020</ele>
        <time>2022-02-26T00:53:10Z</time>
      </trkpt>
      <trkpt lat="40.062230" lon="-3.844440">
        <ele>520.008</ele>
        <time>2022-02-26T00:53:50Z</time>
      </trkpt>
      <trkpt lat="40.062230" lon="-3.844450">
        <ele>520.068</ele>
        <time>2022-02-26T00:54:30Z</time>
      </trkpt>
      <trkpt lat="40.062850" lon="-3.845020">
        <ele>521.295</ele>
        <time>2022-02-26T00:55:10Z</time>
      </trkpt>
      <trkpt lat="40.062860" lon="-3.845030">
        <ele>521.249</ele>
        <time>2022-02-26T00:55:50Z</time>
      </trkpt>
      <trkpt lat="40.063490" lon="-3.845620">
        <ele>523.128</ele>
        <time>2022-02-26T00:56:30Z</time>
      </trkpt>
      <trkpt lat="40.063870" lon="-3.845980">
        <ele>525.358</ele>
        <time>2022-02-26T00:57:10Z</time>
      </trkpt>
      <trkpt lat="40.064000" lon="-3.846100">
        <ele>525.840</ele>
        <time>2022-02-26T00:57:50Z</time>
      </trkpt>
      <trkpt lat="40.064060" lon="-3.846100">
        <ele>526.379</ele>
        <time>2022-02-26T00:58:30Z</time>
      </trkpt>
      <trkpt lat="40.064290" lon="-3.846240">
        <ele>527.269</ele>
        <time>2022-02-26T00:59:10Z</time>
      </trkpt>
      <trkpt lat="40.064287" lon="-3.846244">
        <ele>527.181</ele>
        <time>2022-02-26T00:59:50Z</time>
      </trkpt>
      <trkpt lat="40.064300" lon="-3.846230">
        <ele>527.361</ele>
        <time>2022-02-26T01:00:30Z</time>
      </trkpt>
      <trkpt lat="40.064310" lon="-3.846220">
        <ele>527.517</ele>
        <time>2022-02-26T01:01:10Z</time>
      </trkpt>
      <trkpt lat="40.064320" lon="-3.846210">
        <ele>527.608</ele>
        <time>2022-02-26T01:01:50Z</time>
      </trkpt>
      <trkpt lat="40.064330" lon="-3.846210">
        <ele>527.797</ele>
        <time>2022-02-26T01:02:30Z</time>
      </trkpt>
      <trkpt lat="40.064340" lon="-3.846200">
        <ele>527.864</ele>
        <time>2022-02-26T01:03:10Z</time>
      </trkpt>
      <trkpt lat="40.064350" lon="-3.846190">
        <ele>527.948</ele>
        <time>2022-02-26T01:03:50Z</time>
      </trkpt>
      <trkpt lat="40.064360" lon="-3.846190">
        <ele>528.017</ele>
        <time>2022-02-26T01:04:30Z</time>
      </trkpt>
      <trkpt lat="40.064380" lon="-3.846180">
        <ele>528.227</ele>
        <time>2022-02-26T01:05:10Z</time>
      </trkpt>
      <trkpt lat="40.064390" lon="-3.846180">
        <ele>528.399</ele>
        <time>2022-02-26T01:05:50Z</time>
      </trkpt>
      <trkpt lat="40.064400" lon="-3.846180">
        <ele>528.498</ele>
        <time>2022-02-26T01:06:30Z</time>
      </trkpt>
      <trkpt lat="40.064410" lon="-3.846180">
        <ele>528.588</ele>
        <time>2022-02-26T01:07:10Z</time>
      </trkpt>
      <trkpt lat="40.064430" lon="-3.846180">
        <ele>528.646</ele>
        <time>2022-02-26T01:07:50Z</time>
      </trkpt>
      <trkpt lat="40.064440" lon="-3.846180">
        <ele>528.788</ele>
        <time>2022-02-26T01:08:30Z</time>
      </trkpt>
      <trkpt lat="40.064450" lon="-3.846180">
        <ele>528.816</ele>
        <time>2022-02-26T01:09:10Z</time>
      </trkpt>
      <trkpt lat="40.064470" lon="-3.846190">
        <ele>528.808</ele>
        <time>2022-02-26T01:09:50Z</time>
      </trkpt>
      <trkpt lat="40.064480" lon="-3.846190">
        <ele>528.833</ele>
        <time>2022-02-26T01:10:30Z</time>
      </trkpt>
      <trkpt lat="40.064490" lon="-3.846200">
        <ele>528.880</ele>
        <time>2022-02-26T01:11:10Z</time>
      </trkpt>
      <trkpt lat="40.064500" lon="-3.846210">
        <ele>528.854</ele>
        <time>2022-02-26T01:11:50Z</time>
      </trkpt>
      <trkpt lat="40.064510" lon="-3.846220">
        <ele>528.873</ele>
        <time>2022-02-26T01:12:30Z</time>
      </trkpt>
      <trkpt lat="40.064520" lon="-3.846230">
        <ele>528.823</ele>
        <time>2022-02-26T01:13:10Z</time>
      </trkpt>
      <trkpt lat="40.064530" lon="-3.846240">
        <ele>528.855</ele>
        <time>2022-02-26T01:13:50Z</time>
      </trkpt>
      <trkpt lat="40.064540" lon="-3.846250">
        <ele>528.854</ele>
        <time>2022-02-26T01:14:30Z</time>
      </trkpt>
      <trkpt lat="40.064550" lon="-3.846260">
        <ele>528.824</ele>
        <time>2022-02-26T01:15:10Z</time>
      </trkpt>
      <trkpt lat="40.064560" lon="-3.846280">
        <ele>528.875</ele>
        <time>2022-02-26T01:15:50Z</time>
      </trkpt>
      <trkpt lat="40.064560" lon="-3.846290">
        <ele>528.828</ele>
        <time>2022-02-26T01:16:30Z</time>
      </trkpt>
      <trkpt lat="40.064570" lon="-3.846300">
        <ele>528.820</ele>
        <time>2022-02-26T01:17:10Z</time>
      </trkpt>
      <trkpt lat="40.064570" lon="-3.846320">
        <ele>528.708</ele>
        <time>2022-02-26T01:17:50Z</time>
      </trkpt>
      <trkpt lat="40.064580" lon="-3.846340">
        <ele>528.736</ele>
        <time>2022-02-26T01:18:30Z</time>
      </trkpt>
      <trkpt lat="40.064580" lon="-3.846350">
        <ele>528.683</ele>
        <time>2022-02-26T01:19:10Z</time>
      </trkpt>
      <trkpt lat="40.064580" lon="-3.846370">
        <ele>528.637</ele>
        <time>2022-02-26T01:19:50Z</time>
      </trkpt>
      <trkpt lat="40.064580" lon="-3.846390">
        <ele>528.546</ele>
        <time>2022-02-26T01:20:30Z</time>
      </trkpt>
      <trkpt lat="40.064580" lon="-3.846400">
        <ele>528.446</ele>
        <time>2022-02-26T01:21:10Z</time>
      </trkpt>
      <trkpt lat="40.064580" lon="-3.846430">
        <ele>528.398</ele>
        <time>2022-02-26T01:21:50Z</time>
      </trkpt>
      <trkpt lat="40.064770" lon="-3.846560">
        <ele>528.297</ele>
        <time>2022-02-26T01:22:30Z</time>
      </trkpt>
      <trkpt lat="40.064790" lon="-3.846620">
        <ele>527.947</ele>
        <time>2022-02-26T01:23:10Z</time>
      </trkpt>
      <trkpt lat="40.065020" lon="-3.846720">
        <ele>526.512</ele>
        <time>2022-02-26T01:23:50Z</time>
      </trkpt>
      <trkpt lat="40.065400" lon="-3.846840">
        <ele>523.232</ele>
        <time>2022-02-26T01:24:30Z</time>
      </trkpt>
      <trkpt lat="40.065570" lon="-3.846870">
        <ele>523.305</ele>
        <time>2022-02-26T01:25:10Z</time>
      </trkpt>
      <trkpt lat="40.066400" lon="-3.847030">
        <ele>523.708</ele>
        <time>2022-02-26T01:25:50Z</time>
      </trkpt>
      <trkpt lat="40.066410" lon="-3.847030">
        <ele>523.720</ele>
        <time>2022-02-26T01:26:30Z</time>
      </trkpt>
      <trkpt lat="40.066780" lon="-3.847100">
        <ele>523.017</ele>
        <time>2022-02-26T01:27:10Z</time>
      </trkpt>
      <trkpt lat="40.066910" lon="-3.847120">
        <ele>522.541</ele>
        <time>2022-02-26T01:27:50Z</time>
      </trkpt>
      <trkpt lat="40.066910" lon="-3.847130">
        <ele>522.590</ele>
        <time>2022-02-26T01:28:30Z</time>
      </trkpt>
      <trkpt lat="40.067110" lon="-3.847160">
        <ele>522.210</ele>
        <time>2022-02-26T01:29:10Z</time>
      </trkpt>
      <trkpt lat="40.067580" lon="-3.847230">
        <ele>521.082</ele>
        <time>2022-02-26T01:29:50Z</time>
      </trkpt>
      <trkpt lat="40.067850" lon="-3.847270">
        <ele>520.831</ele>
        <time>2022-02-26T01:30:30Z</time>
      </trkpt>
      <trkpt lat="40.068040" lon="-3.847300">
        <ele>520.581</ele>
        <time>2022-02-26T01:31:10Z</time>
      </trkpt>
      <trkpt lat="40.068300" lon="-3.847330">
        <ele>519.791</ele>
        <time>2022-02-26T01:31:50Z</time>
      </trkpt>
      <trkpt lat="40.068630" lon="-3.847380">
        <ele>519.481</ele>
        <time>2022-02-26T01:32:30Z</time>
      </trkpt>
      <trkpt lat="40.068840" lon="-3.847410">
        <ele>519.119</ele>
        <time>2022-02-26T01:33:10Z</time>
      </trkpt>
      <trkpt lat="40.068890" lon="-3.847430">
        <ele>519.008</ele>
        <time>2022-02-26T01:33:50Z</time>
      </trkpt>
      <trkpt lat="40.069600" lon="-3.847570">
        <ele>519.018</ele>
        <time>2022-02-26T01:34:30Z</time>
      </trkpt>
      <trkpt lat="40.069670" lon="-3.847580">
        <ele>519.075</ele>
        <time>2022-02-26T01:35:10Z</time>
      </trkpt>
      <trkpt lat="40.069910" lon="-3.847630">
        <ele>519.079</ele>
        <time>2022-02-26T01:35:50Z</time>
      </trkpt>
      <trkpt lat="40.070000" lon="-3.847600">
        <ele>519.078</ele>
        <time>2022-02-26T01:36:30Z</time>
      </trkpt>
      <trkpt lat="40.070170" lon="-3.847590">
        <ele>519.058</ele>
        <time>2022-02-26T01:37:10Z</time>
      </trkpt>
      <trkpt lat="40.070167" lon="-3.847592">
        <ele>519.010</ele>
        <time>2022-02-26T01:37:50Z</time>
      </trkpt>
      <trkpt lat="40.070180" lon="-3.847560">
        <ele>519.079</ele>
        <time>2022-02-26T01:38:30Z</time>
      </trkpt>
      <trkpt lat="40.070200" lon="-3.847530">
        <ele>519.049</ele>
        <time>2022-02-26T01:39:10Z</time>
      </trkpt>
      <trkpt lat="40.070210" lon="-3.847510">
        <ele>519.033</ele>
        <time>2022-02-26T01:39:50Z</time>
      </trkpt>
      <trkpt lat="40.070230" lon="-3.847480">
        <ele>519.023</ele>
        <time>2022-02-26T01:40:30Z</time>
      </trkpt>
      <trkpt lat="40.070260" lon="-3.847460">
        <ele>519.015</ele>
        <time>2022-02-26T01:41:10Z</time>
      </trkpt>
      <trkpt lat="40.070280" lon="-3.847450">
        <ele>519.008</ele>
        <time>2022-02-26T01:41:50Z</time>
      </trkpt>
      <trkpt lat="40.070310" lon="-3.847430">
        <ele>519.152</ele>
        <time>2022-02-26T01:42:30Z</time>
      </trkpt>
      <trkpt lat="40.070330" lon="-3.847420">
        <ele>519.239</ele>
        <time>2022-02-26T01:43:10Z</time>
      </trkpt>
      <trkpt lat="40.070360" lon="-3.847420">
        <ele>519.333</ele>
        <time>2022-02-26T01:43:50Z</time>
      </trkpt>
      <trkpt lat="40.070390" lon="-3.847410">
        <ele>519.462</ele>
        <time>2022-02-26T01:44:30Z</time>
      </trkpt>
      <trkpt lat="40.070410" lon="-3.847410">
        <ele>519.522</ele>
        <time>2022-02-26T01:45:10Z</time>
      </trkpt>
      <trkpt lat="40.070420" lon="-3.847420">
        <ele>519.534</ele>
        <time>2022-02-26T01:45:50Z</time>
      </trkpt>
      <trkpt lat="40.070430" lon="-3.847420">
        <ele>519.583</ele>
        <time>2022-02-26T01:46:30Z</time>
      </trkpt>
      <trkpt lat="40.070450" lon="-3.847420">
        <ele>519.673</ele>
        <time>2022-02-26T01:47:10Z</time>
      </trkpt>
      <trkpt lat="40.070460" lon="-3.847430">
        <ele>519.714</ele>
        <time>2022-02-26T01:47:50Z</time>
      </trkpt>
      <trkpt lat="40.070470" lon="-3.847430">
        <ele>519.754</ele>
        <time>2022-02-26T01:48:30Z</time>
      </trkpt>
      <trkpt lat="40.070480" lon="-3.847440">
        <ele>519.709</ele>
        <time>2022-02-26T01:49:10Z</time>
      </trkpt>
      <trkpt lat="40.070500" lon="-3.847450">
        <ele>519.808</ele>
        <time>2022-02-26T01:49:50Z</time>
      </trkpt>
      <trkpt lat="40.070510" lon="-3.847450">
        <ele>519.880</ele>
        <time>2022-02-26T01:50:30Z</time>
      </trkpt>
      <trkpt lat="40.070530" lon="-3.847460">
        <ele>519.927</ele>
        <time>2022-02-26T01:51:10Z</time>
      </trkpt>
      <trkpt lat="40.070540" lon="-3.847480">
        <ele>519.941</ele>
        <time>2022-02-26T01:51:50Z</time>
      </trkpt>
      <trkpt lat="40.070550" lon="-3.847490">
        <ele>520.020</ele>
        <time>2022-02-26T01:52:30Z</time>
      </trkpt>
      <trkpt lat="40.070570" lon="-3.847500">
        <ele>520.030</ele>
        <time>2022-02-26T01:53:10Z</time>
      </trkpt>
      <trkpt lat="40.070580" lon="-3.847520">
        <ele>520.082</ele>
        <time>2022-02-26T01:53:50Z</time>
      </trkpt>
      <trkpt lat="40.070590" lon="-3.847540">
        <ele>520.071</ele>
        <time>2022-02-26T01:54:30Z</time>
      </trkpt>
      <trkpt lat="40.070600" lon="-3.847560">
        <ele>520.081</ele>
        <time>2022-02-26T01:55:10Z</time>
      </trkpt>
      <trkpt lat="40.070610" lon="-3.847580">
        <ele>520.053</ele>
        <time>2022-02-26T01:55:50Z</time>
      </trkpt>
      <trkpt lat="40.070610" lon="-3.847600">
        <ele>520.004</ele>
        <time>2022-02-26T01:56:30Z</time>
      </trkpt>
      <trkpt lat="40.070620" lon="-3.847620">
        <ele>520.014</ele>
        <time>2022-02-26T01:57:10Z</time>
      </trkpt>
      <trkpt lat="40.070620" lon="-3.847660">
        <ele>520.008</ele>
        <time>2022-02-26T01:57:50Z</time>
      </trkpt>
      <trkpt lat="40.070710" lon="-3.847710">
        <ele>520.094</ele>
        <time>2022-02-26T01:58:30Z</time>
      </trkpt>
      <trkpt lat="40.070750" lon="-3.847730">
        <ele>520.011</ele>
        <time>2022-02-26T01:59:10Z</time>
      </trkpt>
      <trkpt lat="40.070820" lon="-3.847790">
        <ele>520.085</ele>
        <time>2022-02-26T01:59:50Z</time>
      </trkpt>
      <trkpt lat="40.070970" lon="-3.847810">
        <ele>520.054</ele>
        <time>2022-02-26T02:00:30Z</time>
      </trkpt>
      <trkpt lat="40.070990" lon="-3.847810">
        <ele>520.034</ele>
        <time>2022-02-26T02:01:10Z</time>
      </trkpt>
      <trkpt lat="40.071130" lon="-3.847830">
        <ele>520.036</ele>
        <time>2022-02-26T02:01:50Z</time>
      </trkpt>
      <trkpt lat="40.071190" lon="-3.847840">
        <ele>520.095</ele>
        <time>2022-02-26T02:02:30Z</time>
      </trkpt>
      <trkpt lat="40.072070" lon="-3.847960">
        <ele>520.025</ele>
        <time>2022-02-26T02:03:10Z</time>
      </trkpt>
      <trkpt lat="40.072470" lon="-3.848010">
        <ele>520.099</ele>
        <time>2022-02-26T02:03:50Z</time>
      </trkpt>
      <trkpt lat="40.072490" lon="-3.848010">
        <ele>520.007</ele>
        <time>2022-02-26T02:04:30Z</time>
      </trkpt>
      <trkpt lat="40.072840" lon="-3.848060">
        <ele>520.027</ele>
        <time>2022-02-26T02:05:10Z</time>
      </trkpt>
      <trkpt lat="40.072900" lon="-3.848070">
        <ele>520.008</ele>
        <time>2022-02-26T02:05:50Z</time>
      </trkpt>
      <trkpt lat="40.072950" lon="-3.848050">
        <ele>520.048</ele>
        <time>2022-02-26T02:06:30Z</time>
      </trkpt>
      <trkpt lat="40.072980" lon="-3.848040">
        <ele>520.085</ele>
        <time>2022-02-26T02:07:10Z</time>
      </trkpt>
      <trkpt lat="40.073010" lon="-3.848040">
        <ele>520.069</ele>
        <time>2022-02-26T02:07:50Z</time>
      </trkpt>
      <trkpt lat="40.073080" lon="-3.848040">
        <ele>520.048</ele>
        <time>2022-02-26T02:08:30Z</time>
      </trkpt>
      <trkpt lat="40.073120" lon="-3.848040">
        <ele>520.098</ele>
        <time>2022-02-26T02:09:10Z</time>
      </trkpt>
      <trkpt lat="40.073290" lon="-3.848080">
        <ele>520.050</ele>
        <time>2022-02-26T02:09:50Z</time>
      </trkpt>
      <trkpt lat="40.073340" lon="-3.848100">
        <ele>520.029</ele>
        <time>2022-02-26T02:10:30Z</time>
      </trkpt>
      <trkpt lat="40.073470" lon="-3.848140">
        <ele>520.029</ele>
        <time>2022-02-26T02:11:10Z</time>
      </trkpt>
      <trkpt lat="40.073570" lon="-3.848180">
        <ele>520.081</ele>
        <time>2022-02-26T02:11:50Z</time>
      </trkpt>
      <trkpt lat="40.074160" lon="-3.848270">
        <ele>520.061</ele>
        <time>2022-02-26T02:12:30Z</time>
      </trkpt>
      <trkpt lat="40.074161" lon="-3.848267">
        <ele>520.017</ele>
        <time>2022-02-26T02:13:10Z</time>
      </trkpt>
      <trkpt lat="40.074170" lon="-3.848240">
        <ele>520.008</ele>
        <time>2022-02-26T02:13:50Z</time>
      </trkpt>
      <trkpt lat="40.074180" lon="-3.848220">
        <ele>520.037</ele>
        <time>2022-02-26T02:14:30Z</time>
      </trkpt>
      <trkpt lat="40.074190" lon="-3.848190">
        <ele>520.014</ele>
        <time>2022-02-26T02:15:10Z</time>
      </trkpt>
      <trkpt lat="40.074200" lon="-3.848170">
        <ele>520.098</ele>
        <time>2022-02-26T02:15:50Z</time>
      </trkpt>
      <trkpt lat="40.074210" lon="-3.848150">
        <ele>520.037</ele>
        <time>2022-02-26T02:16:30Z</time>
      </trkpt>
      <trkpt lat="40.074230" lon="-3.848140">
        <ele>520.077</ele>
        <time>2022-02-26T02:17:10Z</time>
      </trkpt>
      <trkpt lat="40.074240" lon="-3.848120">
        <ele>520.059</ele>
        <time>2022-02-26T02:17:50Z</time>
      </trkpt>
      <trkpt lat="40.074260" lon="-3.848110">
        <ele>520.038</ele>
        <time>2022-02-26T02:18:30Z</time>
      </trkpt>
      <trkpt lat="40.074280" lon="-3.848100">
        <ele>520.078</ele>
        <time>2022-02-26T02:19:10Z</time>
      </trkpt>
      <trkpt lat="40.074290" lon="-3.848090">
        <ele>520.043</ele>
        <time>2022-02-26T02:19:50Z</time>
      </trkpt>
      <trkpt lat="40.074310" lon="-3.848080">
        <ele>520.064</ele>
        <time>2022-02-26T02:20:30Z</time>
      </trkpt>
      <trkpt lat="40.074340" lon="-3.848080">
        <ele>520.010</ele>
        <time>2022-02-26T02:21:10Z</time>
      </trkpt>
      <trkpt lat="40.074360" lon="-3.848070">
        <ele>520.008</ele>
        <time>2022-02-26T02:21:50Z</time>
      </trkpt>
      <trkpt lat="40.074370" lon="-3.848070">
        <ele>520.083</ele>
        <time>2022-02-26T02:22:30Z</time>
      </trkpt>
      <trkpt lat="40.074390" lon="-3.848080">
        <ele>520.060</ele>
        <time>2022-02-26T02:23:10Z</time>
      </trkpt>
      <trkpt lat="40.074410" lon="-3.848080">
        <ele>520.094</ele>
        <time>2022-02-26T02:23:50Z</time>
      </trkpt>
      <trkpt lat="40.074420" lon="-3.848080">
        <ele>520.073</ele>
        <time>2022-02-26T02:24:30Z</time>
      </trkpt>
      <trkpt lat="40.074440" lon="-3.848090">
        <ele>520.073</ele>
        <time>2022-02-26T02:25:10Z</time>
      </trkpt>
      <trkpt lat="40.074460" lon="-3.848090">
        <ele>520.155</ele>
        <time>2022-02-26T02:25:50Z</time>
      </trkpt>
      <trkpt lat="40.074470" lon="-3.848100">
        <ele>520.224</ele>
        <time>2022-02-26T02:26:30Z</time>
      </trkpt>
      <trkpt lat="40.074490" lon="-3.848110">
        <ele>520.314</ele>
        <time>2022-02-26T02:27:10Z</time>
      </trkpt>
      <trkpt lat="40.074500" lon="-3.848130">
        <ele>520.473</ele>
        <time>2022-02-26T02:27:50Z</time>
      </trkpt>
      <trkpt lat="40.074510" lon="-3.848140">
        <ele>520.585</ele>
        <time>2022-02-26T02:28:30Z</time>
      </trkpt>
      <trkpt lat="40.074530" lon="-3.848160">
        <ele>520.613</ele>
        <time>2022-02-26T02:29:10Z</time>
      </trkpt>
      <trkpt lat="40.074540" lon="-3.848180">
        <ele>520.708</ele>
        <time>2022-02-26T02:29:50Z</time>
      </trkpt>
      <trkpt lat="40.074550" lon="-3.848200">
        <ele>520.886</ele>
        <time>2022-02-26T02:30:30Z</time>
      </trkpt>
      <trkpt lat="40.074560" lon="-3.848220">
        <ele>520.893</ele>
        <time>2022-02-26T02:31:10Z</time>
      </trkpt>
      <trkpt lat="40.074560" lon="-3.848240">
        <ele>520.837</ele>
        <time>2022-02-26T02:31:50Z</time>
      </trkpt>
      <trkpt lat="40.074570" lon="-3.848270">
        <ele>520.916</ele>
        <time>2022-02-26T02:32:30Z</time>
      </trkpt>
      <trkpt lat="40.074580" lon="-3.848300">
        <ele>521.046</ele>
        <time>2022-02-26T02:33:10Z</time>
      </trkpt>
      <trkpt lat="40.074660" lon="-3.848330">
        <ele>521.668</ele>
        <time>2022-02-26T02:33:50Z</time>
      </trkpt>
      <trkpt lat="40.074900" lon="-3.848420">
        <ele>521.727</ele>
        <time>2022-02-26T02:34:30Z</time>
      </trkpt>
      <trkpt lat="40.075000" lon="-3.848460">
        <ele>521.567</ele>
        <time>2022-02-26T02:35:10Z</time>
      </trkpt>
      <trkpt lat="40.075150" lon="-3.848480">
        <ele>521.815</ele>
        <time>2022-02-26T02:35:50Z</time>
      </trkpt>
      <trkpt lat="40.076260" lon="-3.848670">
        <ele>523.165</ele>
        <time>2022-02-26T02:36:30Z</time>
      </trkpt>
      <trkpt lat="40.076500" lon="-3.848720">
        <ele>523.611</ele>
        <time>2022-02-26T02:37:10Z</time>
      </trkpt>
      <trkpt lat="40.076520" lon="-3.848720">
        <ele>523.708</ele>
        <time>2022-02-26T02:37:50Z</time>
      </trkpt>
      <trkpt lat="40.076990" lon="-3.848790">
        <ele>525.080</ele>
        <time>2022-02-26T02:38:30Z</time>
      </trkpt>
      <trkpt lat="40.077530" lon="-3.848860">
        <ele>526.177</ele>
        <time>2022-02-26T02:39:10Z</time>
      </trkpt>
      <trkpt lat="40.077570" lon="-3.848870">
        <ele>526.391</ele>
        <time>2022-02-26T02:39:50Z</time>
      </trkpt>
      <trkpt lat="40.077580" lon="-3.848870">
        <ele>526.350</ele>
        <time>2022-02-26T02:40:30Z</time>
      </trkpt>
      <trkpt lat="40.077710" lon="-3.848890">
        <ele>526.880</ele>
        <time>2022-02-26T02:41:10Z</time>
      </trkpt>
      <trkpt lat="40.077750" lon="-3.848890">
        <ele>526.932</ele>
        <time>2022-02-26T02:41:50Z</time>
      </trkpt>
      <trkpt lat="40.077810" lon="-3.848900">
        <ele>527.071</ele>
        <time>2022-02-26T02:42:30Z</time>
      </trkpt>
      <trkpt lat="40.078130" lon="-3.848940">
        <ele>527.321</ele>
        <time>2022-02-26T02:43:10Z</time>
      </trkpt>
      <trkpt lat="40.078380" lon="-3.848990">
        <ele>528.079</ele>
        <time>2022-02-26T02:43:50Z</time>
      </trkpt>
      <trkpt lat="40.078560" lon="-3.849040">
        <ele>528.005</ele>
        <time>2022-02-26T02:44:30Z</time>
      </trkpt>
      <trkpt lat="40.078730" lon="-3.849080">
        <ele>528.425</ele>
        <time>2022-02-26T02:45:10Z</time>
      </trkpt>
      <trkpt lat="40.078880" lon="-3.849140">
        <ele>529.008</ele>
        <time>2022-02-26T02:45:50Z</time>
      </trkpt>
      <trkpt lat="40.079010" lon="-3.849190">
        <ele>529.496</ele>
        <time>2022-02-26T02:46:30Z</time>
      </trkpt>
      <trkpt lat="40.079110" lon="-3.849240">
        <ele>529.823</ele>
        <time>2022-02-26T02:47:10Z</time>
      </trkpt>
      <trkpt lat="40.079240" lon="-3.849310">
        <ele>530.097</ele>
        <time>2022-02-26T02:47:50Z</time>
      </trkpt>
      <trkpt lat="40.079360" lon="-3.849370">
        <ele>530.016</ele>
        <time>2022-02-26T02:48:30Z</time>
      </trkpt>
      <trkpt lat="40.079550" lon="-3.849510">
        <ele>530.066</ele>
        <time>2022-02-26T02:49:10Z</time>
      </trkpt>
      <trkpt lat="40.079810" lon="-3.849700">
        <ele>530.068</ele>
        <time>2022-02-26T02:49:50Z</time>
      </trkpt>
      <trkpt lat="40.079870" lon="-3.849750">
        <ele>530.017</ele>
        <time>2022-02-26T02:50:30Z</time>
      </trkpt>
      <trkpt lat="40.080020" lon="-3.849890">
        <ele>530.047</ele>
        <time>2022-02-26T02:51:10Z</time>
      </trkpt>
      <trkpt lat="40.080200" lon="-3.850040">
        <ele>530.053</ele>
        <time>2022-02-26T02:51:50Z</time>
      </trkpt>
      <trkpt lat="40.080390" lon="-3.850240">
        <ele>530.004</ele>
        <time>2022-02-26T02:52:30Z</time>
      </trkpt>
      <trkpt lat="40.080560" lon="-3.850450">
        <ele>530.014</ele>
        <time>2022-02-26T02:53:10Z</time>
      </trkpt>
      <trkpt lat="40.080830" lon="-3.850810">
        <ele>530.008</ele>
        <time>2022-02-26T02:53:50Z</time>
      </trkpt>
      <trkpt lat="40.080900" lon="-3.850900">
        <ele>530.054</ele>
        <time>2022-02-26T02:54:30Z</time>
      </trkpt>
      <trkpt lat="40.081110" lon="-3.851240">
        <ele>530.081</ele>
        <time>2022-02-26T02:55:10Z</time>
      </trkpt>
      <trkpt lat="40.081170" lon="-3.851350">
        <ele>530.035</ele>
        <time>2022-02-26T02:55:50Z</time>
      </trkpt>
      <trkpt lat="40.081360" lon="-3.851750">
        <ele>530.054</ele>
        <time>2022-02-26T02:56:30Z</time>
      </trkpt>
      <trkpt lat="40.081380" lon="-3.851810">
        <ele>530.034</ele>
        <time>2022-02-26T02:57:10Z</time>
      </trkpt>
      <trkpt lat="40.081440" lon="-3.851960">
        <ele>530.016</ele>
        <time>2022-02-26T02:57:50Z</time>
      </trkpt>
      <trkpt lat="40.081580" lon="-3.852390">
        <ele>530.085</ele>
        <time>2022-02-26T02:58:30Z</time>
      </trkpt>
      <trkpt lat="40.081610" lon="-3.852480">
        <ele>530.045</ele>
        <time>2022-02-26T02:59:10Z</time>
      </trkpt>
      <trkpt lat="40.081614" lon="-3.852483">
        <ele>530.048</ele>
        <time>2022-02-26T02:59:50Z</time>
      </trkpt>
      <trkpt lat="40.081630" lon="-3.852480">
        <ele>530.061</ele>
        <time>2022-02-26T03:00:30Z</time>
      </trkpt>
      <trkpt lat="40.081640" lon="-3.852480">
        <ele>530.017</ele>
        <time>2022-02-26T03:01:10Z</time>
      </trkpt>
      <trkpt lat="40.081650" lon="-3.852480">
        <ele>530.008</ele>
        <time>2022-02-26T03:01:50Z</time>
      </trkpt>
      <trkpt lat="40.081660" lon="-3.852480">
        <ele>530.023</ele>
        <time>2022-02-26T03:02:30Z</time>
      </trkpt>
      <trkpt lat="40.081670" lon="-3.852480">
        <ele>530.040</ele>
        <time>2022-02-26T03:03:10Z</time>
      </trkpt>
      <trkpt lat="40.081680" lon="-3.852480">
        <ele>530.064</ele>
        <time>2022-02-26T03:03:50Z</time>
      </trkpt>
      <trkpt lat="40.081680" lon="-3.852490">
        <ele>530.033</ele>
        <time>2022-02-26T03:04:30Z</time>
      </trkpt>
      <trkpt lat="40.081690" lon="-3.852490">
        <ele>530.093</ele>
        <time>2022-02-26T03:05:10Z</time>
      </trkpt>
      <trkpt lat="40.081700" lon="-3.852490">
        <ele>530.075</ele>
        <time>2022-02-26T03:05:50Z</time>
      </trkpt>
      <trkpt lat="40.081700" lon="-3.852500">
        <ele>530.094</ele>
        <time>2022-02-26T03:06:30Z</time>
      </trkpt>
      <trkpt lat="40.081710" lon="-3.852500">
        <ele>530.044</ele>
        <time>2022-02-26T03:07:10Z</time>
      </trkpt>
      <trkpt lat="40.081720" lon="-3.852510">
        <ele>530.062</ele>
        <time>2022-02-26T03:07:50Z</time>
      </trkpt>
      <trkpt lat="40.081730" lon="-3.852520">
        <ele>530.083</ele>
        <time>2022-02-26T03:08:30Z</time>
      </trkpt>
      <trkpt lat="40.081740" lon="-3.852530">
        <ele>530.011</ele>
        <time>2022-02-26T03:09:10Z</time>
      </trkpt>
      <trkpt lat="40.081750" lon="-3.852540">
        <ele>530.008</ele>
        <time>2022-02-26T03:09:50Z</time>
      </trkpt>
      <trkpt lat="40.081750" lon="-3.852550">
        <ele>530.035</ele>
        <time>2022-02-26T03:10:30Z</time>
      </trkpt>
      <trkpt lat="40.081760" lon="-3.852560">
        <ele>530.092</ele>
        <time>2022-02-26T03:11:10Z</time>
      </trkpt>
      <trkpt lat="40.081760" lon="-3.852570">
        <ele>530.036</ele>
        <time>2022-02-26T03:11:50Z</time>
      </trkpt>
      <trkpt lat="40.081760" lon="-3.852580">
        <ele>530.075</ele>
        <time>2022-02-26T03:12:30Z</time>
      </trkpt>
      <trkpt lat="40.081770" lon="-3.852590">
        <ele>530.095</ele>
        <time>2022-02-26T03:13:10Z</time>
      </trkpt>
      <trkpt lat="40.081770" lon="-3.852600">
        <ele>530.097</ele>
        <time>2022-02-26T03:13:50Z</time>
      </trkpt>
      <trkpt lat="40.081770" lon="-3.852610">
        <ele>530.086</ele>
        <time>2022-02-26T03:14:30Z</time>
      </trkpt>
      <trkpt lat="40.081770" lon="-3.852620">
        <ele>530.076</ele>
        <time>2022-02-26T03:15:10Z</time>
      </trkpt>
      <trkpt lat="40.081780" lon="-3.852630">
        <ele>530.042</ele>
        <time>2022-02-26T03:15:50Z</time>
      </trkpt>
      <trkpt lat="40.081780" lon="-3.852640">
        <ele>530.022</ele>
        <time>2022-02-26T03:16:30Z</time>
      </trkpt>
      <trkpt lat="40.081780" lon="-3.852650">
        <ele>530.014</ele>
        <time>2022-02-26T03:17:10Z</time>
      </trkpt>
      <trkpt lat="40.081780" lon="-3.852660">
        <ele>530.008</ele>
        <time>2022-02-26T03:17:50Z</time>
      </trkpt>
      <trkpt lat="40.081780" lon="-3.852670">
        <ele>530.013</ele>
        <time>2022-02-26T03:18:30Z</time>
      </trkpt>
      <trkpt lat="40.081780" lon="-3.852680">
        <ele>530.070</ele>
        <time>2022-02-26T03:19:10Z</time>
      </trkpt>
      <trkpt lat="40.081770" lon="-3.852690">
        <ele>530.054</ele>
        <time>2022-02-26T03:19:50Z</time>
      </trkpt>
      <trkpt lat="40.081770" lon="-3.852700">
        <ele>530.063</ele>
        <time>2022-02-26T03:20:30Z</time>
      </trkpt>
      <trkpt lat="40.081770" lon="-3.852710">
        <ele>530.063</ele>
        <time>2022-02-26T03:21:10Z</time>
      </trkpt>
      <trkpt lat="40.081770" lon="-3.852720">
        <ele>530.065</ele>
        <time>2022-02-26T03:21:50Z</time>
      </trkpt>
      <trkpt lat="40.081760" lon="-3.852730">
        <ele>530.084</ele>
        <time>2022-02-26T03:22:30Z</time>
      </trkpt>
      <trkpt lat="40.081760" lon="-3.852740">
        <ele>530.044</ele>
        <time>2022-02-26T03:23:10Z</time>
      </trkpt>
      <trkpt lat="40.081760" lon="-3.852750">
        <ele>530.053</ele>
        <time>2022-02-26T03:23:50Z</time>
      </trkpt>
      <trkpt lat="40.081750" lon="-3.852750">
        <ele>530.004</ele>
        <time>2022-02-26T03:24:30Z</time>
      </trkpt>
      <trkpt lat="40.081750" lon="-3.852760">
        <ele>530.014</ele>
        <time>2022-02-26T03:25:10Z</time>
      </trkpt>
      <trkpt lat="40.081740" lon="-3.852770">
        <ele>530.008</ele>
        <time>2022-02-26T03:25:50Z</time>
      </trkpt>
      <trkpt lat="40.081740" lon="-3.852780">
        <ele>530.074</ele>
        <time>2022-02-26T03:26:30Z</time>
      </trkpt>
      <trkpt lat="40.081730" lon="-3.852780">
        <ele>530.071</ele>
        <time>2022-02-26T03:27:10Z</time>
      </trkpt>
      <trkpt lat="40.081720" lon="-3.852800">
        <ele>530.065</ele>
        <time>2022-02-26T03:27:50Z</time>
      </trkpt>
      <trkpt lat="40.082010" lon="-3.853630">
        <ele>530.014</ele>
        <time>2022-02-26T03:28:30Z</time>
      </trkpt>
      <trkpt lat="40.082180" lon="-3.854080">
        <ele>530.054</ele>
        <time>2022-02-26T03:29:10Z</time>
      </trkpt>
      <trkpt lat="40.082510" lon="-3.855080">
        <ele>530.046</ele>
        <time>2022-02-26T03:29:50Z</time>
      </trkpt>
      <trkpt lat="40.082680" lon="-3.855710">
        <ele>530.055</ele>
        <time>2022-02-26T03:30:30Z</time>
      </trkpt>
      <trkpt lat="40.082710" lon="-3.855830">
        <ele>530.065</ele>
        <time>2022-02-26T03:31:10Z</time>
      </trkpt>
      <trkpt lat="40.082730" lon="-3.855950">
        <ele>530.034</ele>
        <time>2022-02-26T03:31:50Z</time>
      </trkpt>
      <trkpt lat="40.082760" lon="-3.856080">
        <ele>530.055</ele>
        <time>2022-02-26T03:32:30Z</time>
      </trkpt>
      <trkpt lat="40.082780" lon="-3.856240">
        <ele>530.010</ele>
        <time>2022-02-26T03:33:10Z</time>
      </trkpt>
      <trkpt lat="40.082800" lon="-3.856340">
        <ele>530.008</ele>
        <time>2022-02-26T03:33:50Z</time>
      </trkpt>
      <trkpt lat="40.082830" lon="-3.856570">
        <ele>530.052</ele>
        <time>2022-02-26T03:34:30Z</time>
      </trkpt>
      <trkpt lat="40.082850" lon="-3.856730">
        <ele>530.089</ele>
        <time>2022-02-26T03:35:10Z</time>
      </trkpt>
      <trkpt lat="40.082860" lon="-3.856900">
        <ele>530.093</ele>
        <time>2022-02-26T03:35:50Z</time>
      </trkpt>
      <trkpt lat="40.082870" lon="-3.856940">
        <ele>530.042</ele>
        <time>2022-02-26T03:36:30Z</time>
      </trkpt>
      <trkpt lat="40.082870" lon="-3.857000">
        <ele>530.092</ele>
        <time>2022-02-26T03:37:10Z</time>
      </trkpt>
      <trkpt lat="40.082880" lon="-3.857180">
        <ele>530.074</ele>
        <time>2022-02-26T03:37:50Z</time>
      </trkpt>
      <trkpt lat="40.082880" lon="-3.857240">
        <ele>530.093</ele>
        <time>2022-02-26T03:38:30Z</time>
      </trkpt>
      <trkpt lat="40.082880" lon="-3.857260">
        <ele>530.093</ele>
        <time>2022-02-26T03:39:10Z</time>
      </trkpt>
      <trkpt lat="40.082870" lon="-3.857760">
        <ele>530.078</ele>
        <time>2022-02-26T03:39:50Z</time>
      </trkpt>
      <trkpt lat="40.082870" lon="-3.857800">
        <ele>530.033</ele>
        <time>2022-02-26T03:40:30Z</time>
      </trkpt>
      <trkpt lat="40.082860" lon="-3.858030">
        <ele>530.026</ele>
        <time>2022-02-26T03:41:10Z</time>
      </trkpt>
      <trkpt lat="40.082850" lon="-3.858190">
        <ele>530.008</ele>
        <time>2022-02-26T03:41:50Z</time>
      </trkpt>
      <trkpt lat="40.082830" lon="-3.858390">
        <ele>530.056</ele>
        <time>2022-02-26T03:42:30Z</time>
      </trkpt>
      <trkpt lat="40.082790" lon="-3.858620">
        <ele>530.023</ele>
        <time>2022-02-26T03:43:10Z</time>
      </trkpt>
      <trkpt lat="40.082720" lon="-3.858980">
        <ele>530.087</ele>
        <time>2022-02-26T03:43:50Z</time>
      </trkpt>
      <trkpt lat="40.082660" lon="-3.859260">
        <ele>530.086</ele>
        <time>2022-02-26T03:44:30Z</time>
      </trkpt>
      <trkpt lat="40.082640" lon="-3.859330">
        <ele>530.036</ele>
        <time>2022-02-26T03:45:10Z</time>
      </trkpt>
      <trkpt lat="40.082520" lon="-3.859720">
        <ele>530.098</ele>
        <time>2022-02-26T03:45:50Z</time>
      </trkpt>
      <trkpt lat="40.082470" lon="-3.859900">
        <ele>530.667</ele>
        <time>2022-02-26T03:46:30Z</time>
      </trkpt>
      <trkpt lat="40.082450" lon="-3.860120">
        <ele>531.457</ele>
        <time>2022-02-26T03:47:10Z</time>
      </trkpt>
      <trkpt lat="40.082450" lon="-3.860240">
        <ele>531.919</ele>
        <time>2022-02-26T03:47:50Z</time>
      </trkpt>
      <trkpt lat="40.082440" lon="-3.860270">
        <ele>532.009</ele>
        <time>2022-02-26T03:48:30Z</time>
      </trkpt>
      <trkpt lat="40.082430" lon="-3.860300">
        <ele>532.119</ele>
        <time>2022-02-26T03:49:10Z</time>
      </trkpt>
      <trkpt lat="40.082410" lon="-3.860350">
        <ele>532.308</ele>
        <time>2022-02-26T03:49:50Z</time>
      </trkpt>
      <trkpt lat="40.082406" lon="-3.860347">
        <ele>532.390</ele>
        <time>2022-02-26T03:50:30Z</time>
      </trkpt>
      <trkpt lat="40.082420" lon="-3.860350">
        <ele>532.317</ele>
        <time>2022-02-26T03:51:10Z</time>
      </trkpt>
      <trkpt lat="40.082460" lon="-3.860360">
        <ele>532.321</ele>
        <time>2022-02-26T03:51:50Z</time>
      </trkpt>
      <trkpt lat="40.082500" lon="-3.860430">
        <ele>532.510</ele>
        <time>2022-02-26T03:52:30Z</time>
      </trkpt>
      <trkpt lat="40.082530" lon="-3.860510">
        <ele>532.810</ele>
        <time>2022-02-26T03:53:10Z</time>
      </trkpt>
      <trkpt lat="40.082540" lon="-3.860540">
        <ele>532.932</ele>
        <time>2022-02-26T03:53:50Z</time>
      </trkpt>
      <trkpt lat="40.082550" lon="-3.860580">
        <ele>533.271</ele>
        <time>2022-02-26T03:54:30Z</time>
      </trkpt>
      <trkpt lat="40.082540" lon="-3.860660">
        <ele>533.741</ele>
        <time>2022-02-26T03:55:10Z</time>
      </trkpt>
      <trkpt lat="40.082530" lon="-3.860710">
        <ele>534.119</ele>
        <time>2022-02-26T03:55:50Z</time>
      </trkpt>
      <trkpt lat="40.082500" lon="-3.860760">
        <ele>534.509</ele>
        <time>2022-02-26T03:56:30Z</time>
      </trkpt>
      <trkpt lat="40.082470" lon="-3.860830">
        <ele>535.019</ele>
        <time>2022-02-26T03:57:10Z</time>
      </trkpt>
      <trkpt lat="40.082400" lon="-3.860910">
        <ele>535.408</ele>
        <time>2022-02-26T03:57:50Z</time>
      </trkpt>
      <trkpt lat="40.082290" lon="-3.861020">
        <ele>536.240</ele>
        <time>2022-02-26T03:58:30Z</time>
      </trkpt>
      <trkpt lat="40.082230" lon="-3.861130">
        <ele>537.087</ele>
        <time>2022-02-26T03:59:10Z</time>
      </trkpt>
      <trkpt lat="40.082220" lon="-3.861180">
        <ele>537.251</ele>
        <time>2022-02-26T03:59:50Z</time>
      </trkpt>
      <trkpt lat="40.082200" lon="-3.861270">
        <ele>537.350</ele>
        <time>2022-02-26T04:00:30Z</time>
      </trkpt>
      <trkpt lat="40.082190" lon="-3.861360">
        <ele>537.590</ele>
        <time>2022-02-26T04:01:10Z</time>
      </trkpt>
      <trkpt lat="40.082190" lon="-3.861380">
        <ele>537.642</ele>
        <time>2022-02-26T04:01:50Z</time>
      </trkpt>
      <trkpt lat="40.082190" lon="-3.861500">
        <ele>538.151</ele>
        <time>2022-02-26T04:02:30Z</time>
      </trkpt>
      <trkpt lat="40.082190" lon="-3.861530">
        <ele>538.211</ele>
        <time>2022-02-26T04:03:10Z</time>
      </trkpt>
      <trkpt lat="40.082190" lon="-3.861630">
        <ele>538.567</ele>
        <time>2022-02-26T04:03:50Z</time>
      </trkpt>
      <trkpt lat="40.082190" lon="-3.861690">
        <ele>538.781</ele>
        <time>2022-02-26T04:04:30Z</time>
      </trkpt>
      <trkpt lat="40.082190" lon="-3.861760">
        <ele>539.019</ele>
        <time>2022-02-26T04:05:10Z</time>
      </trkpt>
      <trkpt lat="40.082200" lon="-3.861850">
        <ele>539.408</ele>
        <time>2022-02-26T04:05:50Z</time>
      </trkpt>
      <trkpt lat="40.082210" lon="-3.861890">
        <ele>539.745</ele>
        <time>2022-02-26T04:06:30Z</time>
      </trkpt>
      <trkpt lat="40.082220" lon="-3.861950">
        <ele>540.072</ele>
        <time>2022-02-26T04:07:10Z</time>
      </trkpt>
      <trkpt lat="40.082260" lon="-3.862060">
        <ele>540.046</ele>
        <time>2022-02-26T04:07:50Z</time>
      </trkpt>
      <trkpt lat="40.082264" lon="-3.862058">
        <ele>540.065</ele>
        <time>2022-02-26T04:08:30Z</time>
      </trkpt>
      <trkpt lat="40.082280" lon="-3.862060">
        <ele>540.075</ele>
        <time>2022-02-26T04:09:10Z</time>
      </trkpt>
      <trkpt lat="40.082290" lon="-3.862060">
        <ele>540.047</ele>
        <time>2022-02-26T04:09:50Z</time>
      </trkpt>
      <trkpt lat="40.082310" lon="-3.862070">
        <ele>540.026</ele>
        <time>2022-02-26T04:10:30Z</time>
      </trkpt>
      <trkpt lat="40.082320" lon="-3.862080">
        <ele>540.016</ele>
        <time>2022-02-26T04:11:10Z</time>
      </trkpt>
      <trkpt lat="40.082330" lon="-3.862080">
        <ele>540.011</ele>
        <time>2022-02-26T04:11:50Z</time>
      </trkpt>
      <trkpt lat="40.082340" lon="-3.862090">
        <ele>540.021</ele>
        <time>2022-02-26T04:12:30Z</time>
      </trkpt>
      <trkpt lat="40.082360" lon="-3.862100">
        <ele>540.003</ele>
        <time>2022-02-26T04:13:10Z</time>
      </trkpt>
      <trkpt lat="40.082370" lon="-3.862110">
        <ele>540.008</ele>
        <time>2022-02-26T04:13:50Z</time>
      </trkpt>
      <trkpt lat="40.082390" lon="-3.862140">
        <ele>540.050</ele>
        <time>2022-02-26T04:14:30Z</time>
      </trkpt>
      <trkpt lat="40.082400" lon="-3.862160">
        <ele>540.077</ele>
        <time>2022-02-26T04:15:10Z</time>
      </trkpt>
      <trkpt lat="40.082410" lon="-3.862180">
        <ele>540.041</ele>
        <time>2022-02-26T04:15:50Z</time>
      </trkpt>
      <trkpt lat="40.082410" lon="-3.862200">
        <ele>540.080</ele>
        <time>2022-02-26T04:16:30Z</time>
      </trkpt>
      <trkpt lat="40.082420" lon="-3.862230">
        <ele>540.090</ele>
        <time>2022-02-26T04:17:10Z</time>
      </trkpt>
      <trkpt lat="40.082420" lon="-3.862250">
        <ele>540.042</ele>
        <time>2022-02-26T04:17:50Z</time>
      </trkpt>
      <trkpt lat="40.082430" lon="-3.862270">
        <ele>540.091</ele>
        <time>2022-02-26T04:18:30Z</time>
      </trkpt>
      <trkpt lat="40.082430" lon="-3.862290">
        <ele>540.011</ele>
        <time>2022-02-26T04:19:10Z</time>
      </trkpt>
      <trkpt lat="40.082430" lon="-3.862310">
        <ele>540.052</ele>
        <time>2022-02-26T04:19:50Z</time>
      </trkpt>
      <trkpt lat="40.082430" lon="-3.862340">
        <ele>540.053</ele>
        <time>2022-02-26T04:20:30Z</time>
      </trkpt>
      <trkpt lat="40.082430" lon="-3.862360">
        <ele>540.008</ele>
        <time>2022-02-26T04:21:10Z</time>
      </trkpt>
      <trkpt lat="40.082420" lon="-3.862380">
        <ele>540.008</ele>
        <time>2022-02-26T04:21:50Z</time>
      </trkpt>
      <trkpt lat="40.082420" lon="-3.862390">
        <ele>540.064</ele>
        <time>2022-02-26T04:22:30Z</time>
      </trkpt>
      <trkpt lat="40.082410" lon="-3.862410">
        <ele>540.091</ele>
        <time>2022-02-26T04:23:10Z</time>
      </trkpt>
      <trkpt lat="40.082410" lon="-3.862420">
        <ele>540.075</ele>
        <time>2022-02-26T04:23:50Z</time>
      </trkpt>
      <trkpt lat="40.082400" lon="-3.862430">
        <ele>540.064</ele>
        <time>2022-02-26T04:24:30Z</time>
      </trkpt>
      <trkpt lat="40.082390" lon="-3.862450">
        <ele>540.024</ele>
        <time>2022-02-26T04:25:10Z</time>
      </trkpt>
      <trkpt lat="40.082390" lon="-3.862460">
        <ele>540.086</ele>
        <time>2022-02-26T04:25:50Z</time>
      </trkpt>
      <trkpt lat="40.082380" lon="-3.862470">
        <ele>540.035</ele>
        <time>2022-02-26T04:26:30Z</time>
      </trkpt>
      <trkpt lat="40.082370" lon="-3.862480">
        <ele>540.015</ele>
        <time>2022-02-26T04:27:10Z</time>
      </trkpt>
      <trkpt lat="40.082350" lon="-3.862580">
        <ele>540.071</ele>
        <time>2022-02-26T04:27:50Z</time>
      </trkpt>
      <trkpt lat="40.082350" lon="-3.862630">
        <ele>540.041</ele>
        <time>2022-02-26T04:28:30Z</time>
      </trkpt>
      <trkpt lat="40.082350" lon="-3.862810">
        <ele>540.015</ele>
        <time>2022-02-26T04:29:10Z</time>
      </trkpt>
      <trkpt lat="40.082450" lon="-3.863150">
        <ele>540.008</ele>
        <time>2022-02-26T04:29:50Z</time>
      </trkpt>
      <trkpt lat="40.082490" lon="-3.863260">
        <ele>540.046</ele>
        <time>2022-02-26T04:30:30Z</time>
      </trkpt>
      <trkpt lat="40.082510" lon="-3.863320">
        <ele>540.083</ele>
        <time>2022-02-26T04:31:10Z</time>
      </trkpt>
      <trkpt lat="40.082580" lon="-3.863510">
        <ele>540.097</ele>
        <time>2022-02-26T04:31:50Z</time>
      </trkpt>
      <trkpt lat="40.082630" lon="-3.863650">
        <ele>540.056</ele>
        <time>2022-02-26T04:32:30Z</time>
      </trkpt>
      <trkpt lat="40.082770" lon="-3.864030">
        <ele>540.016</ele>
        <time>2022-02-26T04:33:10Z</time>
      </trkpt>
      <trkpt lat="40.082900" lon="-3.864400">
        <ele>540.048</ele>
        <time>2022-02-26T04:33:50Z</time>
      </trkpt>
      <trkpt lat="40.083070" lon="-3.864890">
        <ele>540.177</ele>
        <time>2022-02-26T04:34:30Z</time>
      </trkpt>
      <trkpt lat="40.083140" lon="-3.865100">
        <ele>541.157</ele>
        <time>2022-02-26T04:35:10Z</time>
      </trkpt>
      <trkpt lat="40.083240" lon="-3.865360">
        <ele>543.774</ele>
        <time>2022-02-26T04:35:50Z</time>
      </trkpt>
      <trkpt lat="40.083360" lon="-3.865700">
        <ele>548.056</ele>
        <time>2022-02-26T04:36:30Z</time>
      </trkpt>
      <trkpt lat="40.083450" lon="-3.865920">
        <ele>548.421</ele>
        <time>2022-02-26T04:37:10Z</time>
      </trkpt>
      <trkpt lat="40.083570" lon="-3.866150">
        <ele>546.808</ele>
        <time>2022-02-26T04:37:50Z</time>
      </trkpt>
      <trkpt lat="40.083650" lon="-3.866360">
        <ele>546.566</ele>
        <time>2022-02-26T04:38:30Z</time>
      </trkpt>
      <trkpt lat="40.083800" lon="-3.866680">
        <ele>548.193</ele>
        <time>2022-02-26T04:39:10Z</time>
      </trkpt>
      <trkpt lat="40.083870" lon="-3.866810">
        <ele>548.897</ele>
        <time>2022-02-26T04:39:50Z</time>
      </trkpt>
      <trkpt lat="40.083910" lon="-3.866890">
        <ele>549.116</ele>
        <time>2022-02-26T04:40:30Z</time>
      </trkpt>
      <trkpt lat="40.084010" lon="-3.867080">
        <ele>549.436</ele>
        <time>2022-02-26T04:41:10Z</time>
      </trkpt>
      <trkpt lat="40.084060" lon="-3.867190">
        <ele>549.648</ele>
        <time>2022-02-26T04:41:50Z</time>
      </trkpt>
      <trkpt lat="40.084150" lon="-3.867370">
        <ele>549.987</ele>
        <time>2022-02-26T04:42:30Z</time>
      </trkpt>
      <trkpt lat="40.084180" lon="-3.867390">
        <ele>550.027</ele>
        <time>2022-02-26T04:43:10Z</time>
      </trkpt>
      <trkpt lat="40.084200" lon="-3.867410">
        <ele>550.021</ele>
        <time>2022-02-26T04:43:50Z</time>
      </trkpt>
      <trkpt lat="40.084230" lon="-3.867430">
        <ele>550.041</ele>
        <time>2022-02-26T04:44:30Z</time>
      </trkpt>
      <trkpt lat="40.084260" lon="-3.867480">
        <ele>550.005</ele>
        <time>2022-02-26T04:45:10Z</time>
      </trkpt>
      <trkpt lat="40.084360" lon="-3.867610">
        <ele>550.008</ele>
        <time>2022-02-26T04:45:50Z</time>
      </trkpt>
      <trkpt lat="40.084370" lon="-3.867610">
        <ele>550.081</ele>
        <time>2022-02-26T04:46:30Z</time>
      </trkpt>
      <trkpt lat="40.084380" lon="-3.867610">
        <ele>550.098</ele>
        <time>2022-02-26T04:47:10Z</time>
      </trkpt>
      <trkpt lat="40.084390" lon="-3.867610">
        <ele>550.022</ele>
        <time>2022-02-26T04:47:50Z</time>
      </trkpt>
      <trkpt lat="40.084400" lon="-3.867610">
        <ele>550.081</ele>
        <time>2022-02-26T04:48:30Z</time>
      </trkpt>
      <trkpt lat="40.084400" lon="-3.867620">
        <ele>550.061</ele>
        <time>2022-02-26T04:49:10Z</time>
      </trkpt>
      <trkpt lat="40.084410" lon="-3.867620">
        <ele>550.053</ele>
        <time>2022-02-26T04:49:50Z</time>
      </trkpt>
      <trkpt lat="40.084420" lon="-3.867620">
        <ele>550.052</ele>
        <time>2022-02-26T04:50:30Z</time>
      </trkpt>
      <trkpt lat="40.084420" lon="-3.867630">
        <ele>550.052</ele>
        <time>2022-02-26T04:51:10Z</time>
      </trkpt>
      <trkpt lat="40.084430" lon="-3.867630">
        <ele>550.076</ele>
        <time>2022-02-26T04:51:50Z</time>
      </trkpt>
      <trkpt lat="40.084430" lon="-3.867640">
        <ele>550.090</ele>
        <time>2022-02-26T04:52:30Z</time>
      </trkpt>
      <trkpt lat="40.084440" lon="-3.867640">
        <ele>550.019</ele>
        <time>2022-02-26T04:53:10Z</time>
      </trkpt>
      <trkpt lat="40.084440" lon="-3.867650">
        <ele>550.008</ele>
        <time>2022-02-26T04:53:50Z</time>
      </trkpt>
      <trkpt lat="40.084450" lon="-3.867660">
        <ele>550.066</ele>
        <time>2022-02-26T04:54:30Z</time>
      </trkpt>
      <trkpt lat="40.084450" lon="-3.867670">
        <ele>550.093</ele>
        <time>2022-02-26T04:55:10Z</time>
      </trkpt>
      <trkpt lat="40.084450" lon="-3.867680">
        <ele>550.057</ele>
        <time>2022-02-26T04:55:50Z</time>
      </trkpt>
      <trkpt lat="40.084450" lon="-3.867690">
        <ele>550.096</ele>
        <time>2022-02-26T04:56:30Z</time>
      </trkpt>
      <trkpt lat="40.084460" lon="-3.867700">
        <ele>550.076</ele>
        <time>2022-02-26T04:57:10Z</time>
      </trkpt>
      <trkpt lat="40.084460" lon="-3.867710">
        <ele>550.058</ele>
        <time>2022-02-26T04:57:50Z</time>
      </trkpt>
      <trkpt lat="40.084460" lon="-3.867720">
        <ele>550.057</ele>
        <time>2022-02-26T04:58:30Z</time>
      </trkpt>
      <trkpt lat="40.084460" lon="-3.867730">
        <ele>550.047</ele>
        <time>2022-02-26T04:59:10Z</time>
      </trkpt>
      <trkpt lat="40.084470" lon="-3.867740">
        <ele>550.058</ele>
        <time>2022-02-26T04:59:50Z</time>
      </trkpt>
      <trkpt lat="40.084470" lon="-3.867750">
        <ele>550.052</ele>
        <time>2022-02-26T05:00:30Z</time>
      </trkpt>
      <trkpt lat="40.084470" lon="-3.867760">
        <ele>550.017</ele>
        <time>2022-02-26T05:01:10Z</time>
      </trkpt>
      <trkpt lat="40.084470" lon="-3.867770">
        <ele>550.008</ele>
        <time>2022-02-26T05:01:50Z</time>
      </trkpt>
      <trkpt lat="40.084470" lon="-3.867780">
        <ele>550.074</ele>
        <time>2022-02-26T05:02:30Z</time>
      </trkpt>
      <trkpt lat="40.084470" lon="-3.867790">
        <ele>550.031</ele>
        <time>2022-02-26T05:03:10Z</time>
      </trkpt>
      <trkpt lat="40.084470" lon="-3.867800">
        <ele>550.095</ele>
        <time>2022-02-26T05:03:50Z</time>
      </trkpt>
      <trkpt lat="40.084460" lon="-3.867810">
        <ele>550.084</ele>
        <time>2022-02-26T05:04:30Z</time>
      </trkpt>
      <trkpt lat="40.084460" lon="-3.867820">
        <ele>550.044</ele>
        <time>2022-02-26T05:05:10Z</time>
      </trkpt>
      <trkpt lat="40.084460" lon="-3.867830">
        <ele>550.016</ele>
        <time>2022-02-26T05:05:50Z</time>
      </trkpt>
      <trkpt lat="40.084450" lon="-3.867830">
        <ele>550.055</ele>
        <time>2022-02-26T05:06:30Z</time>
      </trkpt>
      <trkpt lat="40.084450" lon="-3.867840">
        <ele>550.035</ele>
        <time>2022-02-26T05:07:10Z</time>
      </trkpt>
      <trkpt lat="40.084490" lon="-3.867980">
        <ele>550.041</ele>
        <time>2022-02-26T05:07:50Z</time>
      </trkpt>
      <trkpt lat="40.084510" lon="-3.868110">
        <ele>550.081</ele>
        <time>2022-02-26T05:08:30Z</time>
      </trkpt>
      <trkpt lat="40.084900" lon="-3.868910">
        <ele>550.009</ele>
        <time>2022-02-26T05:09:10Z</time>
      </trkpt>
      <trkpt lat="40.085130" lon="-3.869390">
        <ele>550.008</ele>
        <time>2022-02-26T05:09:50Z</time>
      </trkpt>
      <trkpt lat="40.085170" lon="-3.869490">
        <ele>550.013</ele>
        <time>2022-02-26T05:10:30Z</time>
      </trkpt>
      <trkpt lat="40.085190" lon="-3.869500">
        <ele>550.010</ele>
        <time>2022-02-26T05:11:10Z</time>
      </trkpt>
      <trkpt lat="40.085210" lon="-3.869510">
        <ele>550.074</ele>
        <time>2022-02-26T05:11:50Z</time>
      </trkpt>
      <trkpt lat="40.085230" lon="-3.869530">
        <ele>550.063</ele>
        <time>2022-02-26T05:12:30Z</time>
      </trkpt>
      <trkpt lat="40.085290" lon="-3.869610">
        <ele>550.043</ele>
        <time>2022-02-26T05:13:10Z</time>
      </trkpt>
      <trkpt lat="40.085320" lon="-3.869660">
        <ele>550.015</ele>
        <time>2022-02-26T05:13:50Z</time>
      </trkpt>
      <trkpt lat="40.085420" lon="-3.869800">
        <ele>550.014</ele>
        <time>2022-02-26T05:14:30Z</time>
      </trkpt>
      <trkpt lat="40.085430" lon="-3.869800">
        <ele>550.014</ele>
        <time>2022-02-26T05:15:10Z</time>
      </trkpt>
      <trkpt lat="40.085440" lon="-3.869800">
        <ele>550.044</ele>
        <time>2022-02-26T05:15:50Z</time>
      </trkpt>
      <trkpt lat="40.085450" lon="-3.869800">
        <ele>550.005</ele>
        <time>2022-02-26T05:16:30Z</time>
      </trkpt>
      <trkpt lat="40.085460" lon="-3.869800">
        <ele>550.015</ele>
        <time>2022-02-26T05:17:10Z</time>
      </trkpt>
      <trkpt lat="40.085470" lon="-3.869800">
        <ele>550.008</ele>
        <time>2022-02-26T05:17:50Z</time>
      </trkpt>
      <trkpt lat="40.085480" lon="-3.869800">
        <ele>550.083</ele>
        <time>2022-02-26T05:18:30Z</time>
      </trkpt>
      <trkpt lat="40.085480" lon="-3.869810">
        <ele>550.010</ele>
        <time>2022-02-26T05:19:10Z</time>
      </trkpt>
      <trkpt lat="40.085490" lon="-3.869810">
        <ele>550.054</ele>
        <time>2022-02-26T05:19:50Z</time>
      </trkpt>
      <trkpt lat="40.085500" lon="-3.869820">
        <ele>550.093</ele>
        <time>2022-02-26T05:20:30Z</time>
      </trkpt>
      <trkpt lat="40.085510" lon="-3.869820">
        <ele>550.083</ele>
        <time>2022-02-26T05:21:10Z</time>
      </trkpt>
      <trkpt lat="40.085510" lon="-3.869830">
        <ele>550.095</ele>
        <time>2022-02-26T05:21:50Z</time>
      </trkpt>
      <trkpt lat="40.085520" lon="-3.869830">
        <ele>550.034</ele>
        <time>2022-02-26T05:22:30Z</time>
      </trkpt>
      <trkpt lat="40.085520" lon="-3.869840">
        <ele>550.024</ele>
        <time>2022-02-26T05:23:10Z</time>
      </trkpt>
      <trkpt lat="40.085530" lon="-3.869840">
        <ele>550.023</ele>
        <time>2022-02-26T05:23:50Z</time>
      </trkpt>
      <trkpt lat="40.085530" lon="-3.869850">
        <ele>550.083</ele>
        <time>2022-02-26T05:24:30Z</time>
      </trkpt>
      <trkpt lat="40.085540" lon="-3.869860">
        <ele>550.011</ele>
        <time>2022-02-26T05:25:10Z</time>
      </trkpt>
      <trkpt lat="40.085540" lon="-3.869870">
        <ele>550.008</ele>
        <time>2022-02-26T05:25:50Z</time>
      </trkpt>
      <trkpt lat="40.085550" lon="-3.869880">
        <ele>550.031</ele>
        <time>2022-02-26T05:26:30Z</time>
      </trkpt>
      <trkpt lat="40.085550" lon="-3.869890">
        <ele>550.048</ele>
        <time>2022-02-26T05:27:10Z</time>
      </trkpt>
      <trkpt lat="40.085550" lon="-3.869900">
        <ele>550.072</ele>
        <time>2022-02-26T05:27:50Z</time>
      </trkpt>
      <trkpt lat="40.085550" lon="-3.869910">
        <ele>550.011</ele>
        <time>2022-02-26T05:28:30Z</time>
      </trkpt>
      <trkpt lat="40.085560" lon="-3.869910">
        <ele>550.071</ele>
        <time>2022-02-26T05:29:10Z</time>
      </trkpt>
      <trkpt lat="40.085560" lon="-3.869920">
        <ele>550.073</ele>
        <time>2022-02-26T05:29:50Z</time>
      </trkpt>
      <trkpt lat="40.085560" lon="-3.869930">
        <ele>550.092</ele>
        <time>2022-02-26T05:30:30Z</time>
      </trkpt>
      <trkpt lat="40.085560" lon="-3.869940">
        <ele>550.012</ele>
        <time>2022-02-26T05:31:10Z</time>
      </trkpt>
      <trkpt lat="40.085560" lon="-3.869950">
        <ele>550.023</ele>
        <time>2022-02-26T05:31:50Z</time>
      </trkpt>
      <trkpt lat="40.085560" lon="-3.869960">
        <ele>550.083</ele>
        <time>2022-02-26T05:32:30Z</time>
      </trkpt>
      <trkpt lat="40.085560" lon="-3.869970">
        <ele>550.011</ele>
        <time>2022-02-26T05:33:10Z</time>
      </trkpt>
      <trkpt lat="40.085550" lon="-3.869980">
        <ele>550.008</ele>
        <time>2022-02-26T05:33:50Z</time>
      </trkpt>
      <trkpt lat="40.085550" lon="-3.869990">
        <ele>550.071</ele>
        <time>2022-02-26T05:34:30Z</time>
      </trkpt>
      <trkpt lat="40.085540" lon="-3.870000">
        <ele>550.088</ele>
        <time>2022-02-26T05:35:10Z</time>
      </trkpt>
      <trkpt lat="40.085540" lon="-3.870010">
        <ele>550.072</ele>
        <time>2022-02-26T05:35:50Z</time>
      </trkpt>
      <trkpt lat="40.085530" lon="-3.870020">
        <ele>550.071</ele>
        <time>2022-02-26T05:36:30Z</time>
      </trkpt>
      <trkpt lat="40.085550" lon="-3.870260">
        <ele>550.021</ele>
        <time>2022-02-26T05:37:10Z</time>
      </trkpt>
      <trkpt lat="40.085580" lon="-3.870320">
        <ele>550.153</ele>
        <time>2022-02-26T05:37:50Z</time>
      </trkpt>
      <trkpt lat="40.085690" lon="-3.870580">
        <ele>550.532</ele>
        <time>2022-02-26T05:38:30Z</time>
      </trkpt>
      <trkpt lat="40.085810" lon="-3.870850">
        <ele>550.932</ele>
        <time>2022-02-26T05:39:10Z</time>
      </trkpt>
      <trkpt lat="40.085950" lon="-3.871120">
        <ele>550.499</ele>
        <time>2022-02-26T05:39:50Z</time>
      </trkpt>
      <trkpt lat="40.086040" lon="-3.871320">
        <ele>550.707</ele>
        <time>2022-02-26T05:40:30Z</time>
      </trkpt>
      <trkpt lat="40.086150" lon="-3.871540">
        <ele>551.127</ele>
        <time>2022-02-26T05:41:10Z</time>
      </trkpt>
      <trkpt lat="40.086190" lon="-3.871610">
        <ele>551.308</ele>
        <time>2022-02-26T05:41:50Z</time>
      </trkpt>
      <trkpt lat="40.086220" lon="-3.871660">
        <ele>551.498</ele>
        <time>2022-02-26T05:42:30Z</time>
      </trkpt>
      <trkpt lat="40.086310" lon="-3.871800">
        <ele>551.715</ele>
        <time>2022-02-26T05:43:10Z</time>
      </trkpt>
      <trkpt lat="40.086380" lon="-3.871880">
        <ele>552.099</ele>
        <time>2022-02-26T05:43:50Z</time>
      </trkpt>
      <trkpt lat="40.086500" lon="-3.872000">
        <ele>552.428</ele>
        <time>2022-02-26T05:44:30Z</time>
      </trkpt>
      <trkpt lat="40.086620" lon="-3.872120">
        <ele>552.848</ele>
        <time>2022-02-26T05:45:10Z</time>
      </trkpt>
      <trkpt lat="40.086710" lon="-3.872200">
        <ele>553.040</ele>
        <time>2022-02-26T05:45:50Z</time>
      </trkpt>
      <trkpt lat="40.086760" lon="-3.872250">
        <ele>553.069</ele>
        <time>2022-02-26T05:46:30Z</time>
      </trkpt>
      <trkpt lat="40.086910" lon="-3.872400">
        <ele>553.049</ele>
        <time>2022-02-26T05:47:10Z</time>
      </trkpt>
      <trkpt lat="40.087340" lon="-3.872840">
        <ele>554.471</ele>
        <time>2022-02-26T05:47:50Z</time>
      </trkpt>
      <trkpt lat="40.087390" lon="-3.872880">
        <ele>554.641</ele>
        <time>2022-02-26T05:48:30Z</time>
      </trkpt>
      <trkpt lat="40.087690" lon="-3.873140">
        <ele>555.215</ele>
        <time>2022-02-26T05:49:10Z</time>
      </trkpt>
      <trkpt lat="40.087800" lon="-3.873200">
        <ele>555.608</ele>
        <time>2022-02-26T05:49:50Z</time>
      </trkpt>
      <trkpt lat="40.087799" lon="-3.873199">
        <ele>555.676</ele>
        <time>2022-02-26T05:50:30Z</time>
      </trkpt>
      <trkpt lat="40.087800" lon="-3.873190">
        <ele>555.663</ele>
        <time>2022-02-26T05:51:10Z</time>
      </trkpt>
      <trkpt lat="40.087810" lon="-3.873180">
        <ele>555.637</ele>
        <time>2022-02-26T05:51:50Z</time>
      </trkpt>
      <trkpt lat="40.087810" lon="-3.873170">
        <ele>555.546</ele>
        <time>2022-02-26T05:52:30Z</time>
      </trkpt>
      <trkpt lat="40.087820" lon="-3.873170">
        <ele>555.676</ele>
        <time>2022-02-26T05:53:10Z</time>
      </trkpt>
      <trkpt lat="40.087820" lon="-3.873160">
        <ele>555.518</ele>
        <time>2022-02-26T05:53:50Z</time>
      </trkpt>
      <trkpt lat="40.087830" lon="-3.873150">
        <ele>555.517</ele>
        <time>2022-02-26T05:54:30Z</time>
      </trkpt>
      <trkpt lat="40.087840" lon="-3.873150">
        <ele>555.667</ele>
        <time>2022-02-26T05:55:10Z</time>
      </trkpt>
      <trkpt lat="40.087840" lon="-3.873140">
        <ele>555.548</ele>
        <time>2022-02-26T05:55:50Z</time>
      </trkpt>
      <trkpt lat="40.087850" lon="-3.873140">
        <ele>555.661</ele>
        <time>2022-02-26T05:56:30Z</time>
      </trkpt>
      <trkpt lat="40.087860" lon="-3.873140">
        <ele>555.617</ele>
        <time>2022-02-26T05:57:10Z</time>
      </trkpt>
      <trkpt lat="40.087870" lon="-3.873140">
        <ele>555.608</ele>
        <time>2022-02-26T05:57:50Z</time>
      </trkpt>
      <trkpt lat="40.087880" lon="-3.873140">
        <ele>555.753</ele>
        <time>2022-02-26T05:58:30Z</time>
      </trkpt>
      <trkpt lat="40.087890" lon="-3.873140">
        <ele>555.760</ele>
        <time>2022-02-26T05:59:10Z</time>
      </trkpt>
      <trkpt lat="40.087900" lon="-3.873140">
        <ele>555.794</ele>
        <time>2022-02-26T05:59:50Z</time>
      </trkpt>
      <trkpt lat="40.087900" lon="-3.873150">
        <ele>555.813</ele>
        <time>2022-02-26T06:00:30Z</time>
      </trkpt>
      <trkpt lat="40.087910" lon="-3.873150">
        <ele>555.863</ele>
        <time>2022-02-26T06:01:10Z</time>
      </trkpt>
      <trkpt lat="40.087910" lon="-3.873160">
        <ele>555.965</ele>
        <time>2022-02-26T06:01:50Z</time>
      </trkpt>
      <trkpt lat="40.087920" lon="-3.873160">
        <ele>555.924</ele>
        <time>2022-02-26T06:02:30Z</time>
      </trkpt>
      <trkpt lat="40.087920" lon="-3.873170">
        <ele>555.944</ele>
        <time>2022-02-26T06:03:10Z</time>
      </trkpt>
      <trkpt lat="40.087930" lon="-3.873180">
        <ele>556.087</ele>
        <time>2022-02-26T06:03:50Z</time>
      </trkpt>
      <trkpt lat="40.087930" lon="-3.873190">
        <ele>556.042</ele>
        <time>2022-02-26T06:04:30Z</time>
      </trkpt>
      <trkpt lat="40.087930" lon="-3.873200">
        <ele>556.126</ele>
        <time>2022-02-26T06:05:10Z</time>
      </trkpt>
      <trkpt lat="40.087940" lon="-3.873200">
        <ele>556.108</ele>
        <time>2022-02-26T06:05:50Z</time>
      </trkpt>
      <trkpt lat="40.087940" lon="-3.873210">
        <ele>556.187</ele>
        <time>2022-02-26T06:06:30Z</time>
      </trkpt>
      <trkpt lat="40.087940" lon="-3.873220">
        <ele>556.284</ele>
        <time>2022-02-26T06:07:10Z</time>
      </trkpt>
      <trkpt lat="40.087940" lon="-3.873230">
        <ele>556.288</ele>
        <time>2022-02-26T06:07:50Z</time>
      </trkpt>
      <trkpt lat="40.087940" lon="-3.873240">
        <ele>556.237</ele>
        <time>2022-02-26T06:08:30Z</time>
      </trkpt>
      <trkpt lat="40.087940" lon="-3.873250">
        <ele>556.327</ele>
        <time>2022-02-26T06:09:10Z</time>
      </trkpt>
      <trkpt lat="40.087930" lon="-3.873260">
        <ele>556.369</ele>
        <time>2022-02-26T06:09:50Z</time>
      </trkpt>
      <trkpt lat="40.087930" lon="-3.873270">
        <ele>556.368</ele>
        <time>2022-02-26T06:10:30Z</time>
      </trkpt>
      <trkpt lat="40.087930" lon="-3.873280">
        <ele>556.468</ele>
        <time>2022-02-26T06:11:10Z</time>
      </trkpt>
      <trkpt lat="40.087920" lon="-3.873280">
        <ele>556.359</ele>
        <time>2022-02-26T06:11:50Z</time>
      </trkpt>
      <trkpt lat="40.087920" lon="-3.873290">
        <ele>556.403</ele>
        <time>2022-02-26T06:12:30Z</time>
      </trkpt>
      <trkpt lat="40.087920" lon="-3.873300">
        <ele>556.423</ele>
        <time>2022-02-26T06:13:10Z</time>
      </trkpt>
      <trkpt lat="40.087940" lon="-3.873360">
        <ele>556.708</ele>
        <time>2022-02-26T06:13:50Z</time>
      </trkpt>
      <trkpt lat="40.087950" lon="-3.873390">
        <ele>556.854</ele>
        <time>2022-02-26T06:14:30Z</time>
      </trkpt>
      <trkpt lat="40.087980" lon="-3.873440">
        <ele>557.111</ele>
        <time>2022-02-26T06:15:10Z</time>
      </trkpt>
      <trkpt lat="40.088050" lon="-3.873530">
        <ele>557.725</ele>
        <time>2022-02-26T06:15:50Z</time>
      </trkpt>
      <trkpt lat="40.088400" lon="-3.873920">
        <ele>559.084</ele>
        <time>2022-02-26T06:16:30Z</time>
      </trkpt>
      <trkpt lat="40.088900" lon="-3.874420">
        <ele>562.014</ele>
        <time>2022-02-26T06:17:10Z</time>
      </trkpt>
      <trkpt lat="40.088960" lon="-3.874470">
        <ele>562.776</ele>
        <time>2022-02-26T06:17:50Z</time>
      </trkpt>
      <trkpt lat="40.089150" lon="-3.874660">
        <ele>565.445</ele>
        <time>2022-02-26T06:18:30Z</time>
      </trkpt>
      <trkpt lat="40.089160" lon="-3.874670">
        <ele>565.665</ele>
        <time>2022-02-26T06:19:10Z</time>
      </trkpt>
      <trkpt lat="40.089360" lon="-3.874880">
        <ele>567.334</ele>
        <time>2022-02-26T06:19:50Z</time>
      </trkpt>
      <trkpt lat="40.089680" lon="-3.875210">
        <ele>563.355</ele>
        <time>2022-02-26T06:20:30Z</time>
      </trkpt>
      <trkpt lat="40.089850" lon="-3.875380">
        <ele>562.510</ele>
        <time>2022-02-26T06:21:10Z</time>
      </trkpt>
      <trkpt lat="40.090150" lon="-3.875680">
        <ele>563.508</ele>
        <time>2022-02-26T06:21:50Z</time>
      </trkpt>
      <trkpt lat="40.090420" lon="-3.875940">
        <ele>564.752</ele>
        <time>2022-02-26T06:22:30Z</time>
      </trkpt>
      <trkpt lat="40.090580" lon="-3.876100">
        <ele>566.049</ele>
        <time>2022-02-26T06:23:10Z</time>
      </trkpt>
      <trkpt lat="40.090630" lon="-3.876150">
        <ele>566.043</ele>
        <time>2022-02-26T06:23:50Z</time>
      </trkpt>
      <trkpt lat="40.090820" lon="-3.876330">
        <ele>566.852</ele>
        <time>2022-02-26T06:24:30Z</time>
      </trkpt>
      <trkpt lat="40.091100" lon="-3.876620">
        <ele>568.882</ele>
        <time>2022-02-26T06:25:10Z</time>
      </trkpt>
      <trkpt lat="40.091250" lon="-3.876770">
        <ele>569.584</ele>
        <time>2022-02-26T06:25:50Z</time>
      </trkpt>
      <trkpt lat="40.091330" lon="-3.876850">
        <ele>569.893</ele>
        <time>2022-02-26T06:26:30Z</time>
      </trkpt>
      <trkpt lat="40.091700" lon="-3.877210">
        <ele>570.063</ele>
        <time>2022-02-26T06:27:10Z</time>
      </trkpt>
      <trkpt lat="40.091980" lon="-3.877480">
        <ele>570.037</ele>
        <time>2022-02-26T06:27:50Z</time>
      </trkpt>
      <trkpt lat="40.092740" lon="-3.878240">
        <ele>570.049</ele>
        <time>2022-02-26T06:28:30Z</time>
      </trkpt>
      <trkpt lat="40.092880" lon="-3.878380">
        <ele>570.013</ele>
        <time>2022-02-26T06:29:10Z</time>
      </trkpt>
      <trkpt lat="40.093070" lon="-3.878570">
        <ele>570.008</ele>
        <time>2022-02-26T06:29:50Z</time>
      </trkpt>
      <trkpt lat="40.093530" lon="-3.879040">
        <ele>570.012</ele>
        <time>2022-02-26T06:30:30Z</time>
      </trkpt>
      <trkpt lat="40.093570" lon="-3.879080">
        <ele>570.099</ele>
        <time>2022-02-26T06:31:10Z</time>
      </trkpt>
      <trkpt lat="40.093670" lon="-3.879180">
        <ele>570.033</ele>
        <time>2022-02-26T06:31:50Z</time>
      </trkpt>
      <trkpt lat="40.093820" lon="-3.879320">
        <ele>570.092</ele>
        <time>2022-02-26T06:32:30Z</time>
      </trkpt>
      <trkpt lat="40.093820" lon="-3.879330">
        <ele>570.012</ele>
        <time>2022-02-26T06:33:10Z</time>
      </trkpt>
      <trkpt lat="40.094100" lon="-3.879600">
        <ele>570.034</ele>
        <time>2022-02-26T06:33:50Z</time>
      </trkpt>
      <trkpt lat="40.094170" lon="-3.879670">
        <ele>570.013</ele>
        <time>2022-02-26T06:34:30Z</time>
      </trkpt>
      <trkpt lat="40.094260" lon="-3.879760">
        <ele>570.013</ele>
        <time>2022-02-26T06:35:10Z</time>
      </trkpt>
      <trkpt lat="40.094280" lon="-3.879780">
        <ele>570.092</ele>
        <time>2022-02-26T06:35:50Z</time>
      </trkpt>
      <trkpt lat="40.094570" lon="-3.880060">
        <ele>570.073</ele>
        <time>2022-02-26T06:36:30Z</time>
      </trkpt>
      <trkpt lat="40.094750" lon="-3.880240">
        <ele>570.320</ele>
        <time>2022-02-26T06:37:10Z</time>
      </trkpt>
      <trkpt lat="40.095220" lon="-3.880700">
        <ele>574.608</ele>
        <time>2022-02-26T06:37:50Z</time>
      </trkpt>
      <trkpt lat="40.095400" lon="-3.880880">
        <ele>576.438</ele>
        <time>2022-02-26T06:38:30Z</time>
      </trkpt>
      <trkpt lat="40.096070" lon="-3.881550">
        <ele>579.945</ele>
        <time>2022-02-26T06:39:10Z</time>
      </trkpt>
      <trkpt lat="40.096400" lon="-3.881890">
        <ele>582.029</ele>
        <time>2022-02-26T06:39:50Z</time>
      </trkpt>
      <trkpt lat="40.096980" lon="-3.882460">
        <ele>583.138</ele>
        <time>2022-02-26T06:40:30Z</time>
      </trkpt>
      <trkpt lat="40.097070" lon="-3.882550">
        <ele>583.648</ele>
        <time>2022-02-26T06:41:10Z</time>
      </trkpt>
      <trkpt lat="40.097550" lon="-3.883030">
        <ele>585.980</ele>
        <time>2022-02-26T06:41:50Z</time>
      </trkpt>
      <trkpt lat="40.097980" lon="-3.883450">
        <ele>588.159</ele>
        <time>2022-02-26T06:42:30Z</time>
      </trkpt>
      <trkpt lat="40.097980" lon="-3.883460">
        <ele>588.239</ele>
        <time>2022-02-26T06:43:10Z</time>
      </trkpt>
      <trkpt lat="40.098020" lon="-3.883490">
        <ele>588.413</ele>
        <time>2022-02-26T06:43:50Z</time>
      </trkpt>
      <trkpt lat="40.098040" lon="-3.883500">
        <ele>588.543</ele>
        <time>2022-02-26T06:44:30Z</time>
      </trkpt>
      <trkpt lat="40.098180" lon="-3.883640">
        <ele>589.107</ele>
        <time>2022-02-26T06:45:10Z</time>
      </trkpt>
      <trkpt lat="40.098630" lon="-3.884090">
        <ele>590.708</ele>
        <time>2022-02-26T06:45:50Z</time>
      </trkpt>
      <trkpt lat="40.098710" lon="-3.884190">
        <ele>591.020</ele>
        <time>2022-02-26T06:46:30Z</time>
      </trkpt>
      <trkpt lat="40.098840" lon="-3.884360">
        <ele>591.677</ele>
        <time>2022-02-26T06:47:10Z</time>
      </trkpt>
      <trkpt lat="40.098950" lon="-3.884500">
        <ele>592.451</ele>
        <time>2022-02-26T06:47:50Z</time>
      </trkpt>
      <trkpt lat="40.099000" lon="-3.884570">
        <ele>592.770</ele>
        <time>2022-02-26T06:48:30Z</time>
      </trkpt>
      <trkpt lat="40.099170" lon="-3.884840">
        <ele>593.460</ele>
        <time>2022-02-26T06:49:10Z</time>
      </trkpt>
      <trkpt lat="40.099290" lon="-3.885080">
        <ele>594.722</ele>
        <time>2022-02-26T06:49:50Z</time>
      </trkpt>
      <trkpt lat="40.099700" lon="-3.885960">
        <ele>598.031</ele>
        <time>2022-02-26T06:50:30Z</time>
      </trkpt>
      <trkpt lat="40.099720" lon="-3.886000">
        <ele>598.021</ele>
        <time>2022-02-26T06:51:10Z</time>
      </trkpt>
      <trkpt lat="40.099770" lon="-3.886100">
        <ele>598.276</ele>
        <time>2022-02-26T06:51:50Z</time>
      </trkpt>
      <trkpt lat="40.099840" lon="-3.886300">
        <ele>598.890</ele>
        <time>2022-02-26T06:52:30Z</time>
      </trkpt>
      <trkpt lat="40.100190" lon="-3.887170">
        <ele>600.019</ele>
        <time>2022-02-26T06:53:10Z</time>
      </trkpt>
      <trkpt lat="40.100200" lon="-3.887190">
        <ele>600.008</ele>
        <time>2022-02-26T06:53:50Z</time>
      </trkpt>
      <trkpt lat="40.100320" lon="-3.887510">
        <ele>600.056</ele>
        <time>2022-02-26T06:54:30Z</time>
      </trkpt>
      <trkpt lat="40.100480" lon="-3.887930">
        <ele>600.013</ele>
        <time>2022-02-26T06:55:10Z</time>
      </trkpt>
      <trkpt lat="40.100480" lon="-3.887940">
        <ele>600.017</ele>
        <time>2022-02-26T06:55:50Z</time>
      </trkpt>
      <trkpt lat="40.100650" lon="-3.888360">
        <ele>600.096</ele>
        <time>2022-02-26T06:56:30Z</time>
      </trkpt>
      <trkpt lat="40.100810" lon="-3.888770">
        <ele>600.076</ele>
        <time>2022-02-26T06:57:10Z</time>
      </trkpt>
      <trkpt lat="40.101100" lon="-3.889510">
        <ele>601.018</ele>
        <time>2022-02-26T06:57:50Z</time>
      </trkpt>
      <trkpt lat="40.101550" lon="-3.890640">
        <ele>603.847</ele>
        <time>2022-02-26T06:58:30Z</time>
      </trkpt>
      <trkpt lat="40.101630" lon="-3.890860">
        <ele>604.717</ele>
        <time>2022-02-26T06:59:10Z</time>
      </trkpt>
      <trkpt lat="40.101960" lon="-3.891690">
        <ele>608.149</ele>
        <time>2022-02-26T06:59:50Z</time>
      </trkpt>
      <trkpt lat="40.102010" lon="-3.891820">
        <ele>608.502</ele>
        <time>2022-02-26T07:00:30Z</time>
      </trkpt>
      <trkpt lat="40.102500" lon="-3.893000">
        <ele>611.022</ele>
        <time>2022-02-26T07:01:10Z</time>
      </trkpt>
      <trkpt lat="40.102530" lon="-3.893100">
        <ele>611.008</ele>
        <time>2022-02-26T07:01:50Z</time>
      </trkpt>
      <trkpt lat="40.102560" lon="-3.893180">
        <ele>611.083</ele>
        <time>2022-02-26T07:02:30Z</time>
      </trkpt>
      <trkpt lat="40.102650" lon="-3.893390">
        <ele>610.920</ele>
        <time>2022-02-26T07:03:10Z</time>
      </trkpt>
      <trkpt lat="40.102730" lon="-3.893600">
        <ele>610.894</ele>
        <time>2022-02-26T07:03:50Z</time>
      </trkpt>
      <trkpt lat="40.102780" lon="-3.893720">
        <ele>611.413</ele>
        <time>2022-02-26T07:04:30Z</time>
      </trkpt>
      <trkpt lat="40.102910" lon="-3.894070">
        <ele>611.563</ele>
        <time>2022-02-26T07:05:10Z</time>
      </trkpt>
      <trkpt lat="40.103040" lon="-3.894420">
        <ele>611.165</ele>
        <time>2022-02-26T07:05:50Z</time>
      </trkpt>
      <trkpt lat="40.103110" lon="-3.894580">
        <ele>611.014</ele>
        <time>2022-02-26T07:06:30Z</time>
      </trkpt>
      <trkpt lat="40.103230" lon="-3.894890">
        <ele>611.674</ele>
        <time>2022-02-26T07:07:10Z</time>
      </trkpt>
      <trkpt lat="40.103520" lon="-3.895600">
        <ele>612.038</ele>
        <time>2022-02-26T07:07:50Z</time>
      </trkpt>
      <trkpt lat="40.103870" lon="-3.896480">
        <ele>612.070</ele>
        <time>2022-02-26T07:08:30Z</time>
      </trkpt>
      <trkpt lat="40.103920" lon="-3.896600">
        <ele>611.917</ele>
        <time>2022-02-26T07:09:10Z</time>
      </trkpt>
      <trkpt lat="40.103970" lon="-3.896710">
        <ele>611.708</ele>
        <time>2022-02-26T07:09:50Z</time>
      </trkpt>
      <trkpt lat="40.104070" lon="-3.896990">
        <ele>611.462</ele>
        <time>2022-02-26T07:10:30Z</time>
      </trkpt>
      <trkpt lat="40.104210" lon="-3.897350">
        <ele>612.089</ele>
        <time>2022-02-26T07:11:10Z</time>
      </trkpt>
      <trkpt lat="40.104440" lon="-3.897980">
        <ele>613.043</ele>
        <time>2022-02-26T07:11:50Z</time>
      </trkpt>
      <trkpt lat="40.105000" lon="-3.899390">
        <ele>616.062</ele>
        <time>2022-02-26T07:12:30Z</time>
      </trkpt>
      <trkpt lat="40.105540" lon="-3.900680">
        <ele>617.062</ele>
        <time>2022-02-26T07:13:10Z</time>
      </trkpt>
      <trkpt lat="40.105590" lon="-3.900810">
        <ele>616.954</ele>
        <time>2022-02-26T07:13:50Z</time>
      </trkpt>
      <trkpt lat="40.106150" lon="-3.902240">
        <ele>614.053</ele>
        <time>2022-02-26T07:14:30Z</time>
      </trkpt>
      <trkpt lat="40.106240" lon="-3.902450">
        <ele>614.033</ele>
        <time>2022-02-26T07:15:10Z</time>
      </trkpt>
      <trkpt lat="40.106460" lon="-3.903030">
        <ele>613.345</ele>
        <time>2022-02-26T07:15:50Z</time>
      </trkpt>
      <trkpt lat="40.106650" lon="-3.903500">
        <ele>613.047</ele>
        <time>2022-02-26T07:16:30Z</time>
      </trkpt>
      <trkpt lat="40.106890" lon="-3.904140">
        <ele>613.011</ele>
        <time>2022-02-26T07:17:10Z</time>
      </trkpt>
      <trkpt lat="40.107010" lon="-3.904430">
        <ele>613.008</ele>
        <time>2022-02-26T07:17:50Z</time>
      </trkpt>
      <trkpt lat="40.107030" lon="-3.904470">
        <ele>613.083</ele>
        <time>2022-02-26T07:18:30Z</time>
      </trkpt>
      <trkpt lat="40.107200" lon="-3.904900">
        <ele>613.040</ele>
        <time>2022-02-26T07:19:10Z</time>
      </trkpt>
      <trkpt lat="40.107340" lon="-3.905270">
        <ele>613.474</ele>
        <time>2022-02-26T07:19:50Z</time>
      </trkpt>
      <trkpt lat="40.107400" lon="-3.905420">
        <ele>613.673</ele>
        <time>2022-02-26T07:20:30Z</time>
      </trkpt>
      <trkpt lat="40.107900" lon="-3.906630">
        <ele>615.053</ele>
        <time>2022-02-26T07:21:10Z</time>
      </trkpt>
      <trkpt lat="40.107920" lon="-3.906690">
        <ele>615.095</ele>
        <time>2022-02-26T07:21:50Z</time>
      </trkpt>
      <trkpt lat="40.108310" lon="-3.907680">
        <ele>617.044</ele>
        <time>2022-02-26T07:22:30Z</time>
      </trkpt>
      <trkpt lat="40.108420" lon="-3.908030">
        <ele>617.984</ele>
        <time>2022-02-26T07:23:10Z</time>
      </trkpt>
      <trkpt lat="40.108450" lon="-3.908120">
        <ele>618.173</ele>
        <time>2022-02-26T07:23:50Z</time>
      </trkpt>
      <trkpt lat="40.108460" lon="-3.908130">
        <ele>618.185</ele>
        <time>2022-02-26T07:24:30Z</time>
      </trkpt>
      <trkpt lat="40.108550" lon="-3.908360">
        <ele>618.813</ele>
        <time>2022-02-26T07:25:10Z</time>
      </trkpt>
      <trkpt lat="40.108590" lon="-3.908450">
        <ele>619.008</ele>
        <time>2022-02-26T07:25:50Z</time>
      </trkpt>
      <trkpt lat="40.108590" lon="-3.908460">
        <ele>619.026</ele>
        <time>2022-02-26T07:26:30Z</time>
      </trkpt>
      <trkpt lat="40.108620" lon="-3.908520">
        <ele>619.013</ele>
        <time>2022-02-26T07:27:10Z</time>
      </trkpt>
      <trkpt lat="40.108690" lon="-3.908640">
        <ele>619.377</ele>
        <time>2022-02-26T07:27:50Z</time>
      </trkpt>
      <trkpt lat="40.108720" lon="-3.908680">
        <ele>619.466</ele>
        <time>2022-02-26T07:28:30Z</time>
      </trkpt>
      <trkpt lat="40.108770" lon="-3.908730">
        <ele>619.626</ele>
        <time>2022-02-26T07:29:10Z</time>
      </trkpt>
      <trkpt lat="40.108840" lon="-3.908770">
        <ele>619.818</ele>
        <time>2022-02-26T07:29:50Z</time>
      </trkpt>
      <trkpt lat="40.108900" lon="-3.908770">
        <ele>620.087</ele>
        <time>2022-02-26T07:30:30Z</time>
      </trkpt>
      <trkpt lat="40.108980" lon="-3.908790">
        <ele>620.287</ele>
        <time>2022-02-26T07:31:10Z</time>
      </trkpt>
      <trkpt lat="40.109070" lon="-3.908820">
        <ele>620.563</ele>
        <time>2022-02-26T07:31:50Z</time>
      </trkpt>
      <trkpt lat="40.109067" lon="-3.908818">
        <ele>620.544</ele>
        <time>2022-02-26T07:32:30Z</time>
      </trkpt>
      <trkpt lat="40.109080" lon="-3.908790">
        <ele>620.418</ele>
        <time>2022-02-26T07:33:10Z</time>
      </trkpt>
      <trkpt lat="40.109100" lon="-3.908770">
        <ele>620.408</ele>
        <time>2022-02-26T07:33:50Z</time>
      </trkpt>
      <trkpt lat="40.109110" lon="-3.908750">
        <ele>620.415</ele>
        <time>2022-02-26T07:34:30Z</time>
      </trkpt>
      <trkpt lat="40.109130" lon="-3.908730">
        <ele>620.452</ele>
        <time>2022-02-26T07:35:10Z</time>
      </trkpt>
      <trkpt lat="40.109150" lon="-3.908710">
        <ele>620.316</ele>
        <time>2022-02-26T07:35:50Z</time>
      </trkpt>
      <trkpt lat="40.109170" lon="-3.908700">
        <ele>620.355</ele>
        <time>2022-02-26T07:36:30Z</time>
      </trkpt>
      <trkpt lat="40.109200" lon="-3.908690">
        <ele>620.475</ele>
        <time>2022-02-26T07:37:10Z</time>
      </trkpt>
      <trkpt lat="40.109220" lon="-3.908680">
        <ele>620.427</ele>
        <time>2022-02-26T07:37:50Z</time>
      </trkpt>
      <trkpt lat="40.109240" lon="-3.908680">
        <ele>620.596</ele>
        <time>2022-02-26T07:38:30Z</time>
      </trkpt>
      <trkpt lat="40.109270" lon="-3.908680">
        <ele>620.696</ele>
        <time>2022-02-26T07:39:10Z</time>
      </trkpt>
      <trkpt lat="40.109290" lon="-3.908680">
        <ele>620.753</ele>
        <time>2022-02-26T07:39:50Z</time>
      </trkpt>
      <trkpt lat="40.109310" lon="-3.908680">
        <ele>620.804</ele>
        <time>2022-02-26T07:40:30Z</time>
      </trkpt>
      <trkpt lat="40.109330" lon="-3.908690">
        <ele>620.914</ele>
        <time>2022-02-26T07:41:10Z</time>
      </trkpt>
      <trkpt lat="40.109370" lon="-3.908710">
        <ele>621.108</ele>
        <time>2022-02-26T07:41:50Z</time>
      </trkpt>
      <trkpt lat="40.109390" lon="-3.908730">
        <ele>621.224</ele>
        <time>2022-02-26T07:42:30Z</time>
      </trkpt>
      <trkpt lat="40.109410" lon="-3.908740">
        <ele>621.311</ele>
        <time>2022-02-26T07:43:10Z</time>
      </trkpt>
      <trkpt lat="40.109420" lon="-3.908760">
        <ele>621.435</ele>
        <time>2022-02-26T07:43:50Z</time>
      </trkpt>
      <trkpt lat="40.109440" lon="-3.908790">
        <ele>621.614</ele>
        <time>2022-02-26T07:44:30Z</time>
      </trkpt>
      <trkpt lat="40.109450" lon="-3.908810">
        <ele>621.814</ele>
        <time>2022-02-26T07:45:10Z</time>
      </trkpt>
      <trkpt lat="40.109470" lon="-3.908840">
        <ele>622.076</ele>
        <time>2022-02-26T07:45:50Z</time>
      </trkpt>
      <trkpt lat="40.109480" lon="-3.908870">
        <ele>622.285</ele>
        <time>2022-02-26T07:46:30Z</time>
      </trkpt>
      <trkpt lat="40.109480" lon="-3.908900">
        <ele>622.315</ele>
        <time>2022-02-26T07:47:10Z</time>
      </trkpt>
      <trkpt lat="40.109490" lon="-3.908930">
        <ele>622.493</ele>
        <time>2022-02-26T07:47:50Z</time>
      </trkpt>
      <trkpt lat="40.109490" lon="-3.908960">
        <ele>622.465</ele>
        <time>2022-02-26T07:48:30Z</time>
      </trkpt>
      <trkpt lat="40.109490" lon="-3.908990">
        <ele>622.421</ele>
        <time>2022-02-26T07:49:10Z</time>
      </trkpt>
      <trkpt lat="40.109490" lon="-3.909020">
        <ele>622.408</ele>
        <time>2022-02-26T07:49:50Z</time>
      </trkpt>
      <trkpt lat="40.109490" lon="-3.909050">
        <ele>622.438</ele>
        <time>2022-02-26T07:50:30Z</time>
      </trkpt>
      <trkpt lat="40.109480" lon="-3.909080">
        <ele>622.345</ele>
        <time>2022-02-26T07:51:10Z</time>
      </trkpt>
      <trkpt lat="40.109470" lon="-3.909110">
        <ele>622.359</ele>
        <time>2022-02-26T07:51:50Z</time>
      </trkpt>
      <trkpt lat="40.109620" lon="-3.909350">
        <ele>624.148</ele>
        <time>2022-02-26T07:52:30Z</time>
      </trkpt>
      <trkpt lat="40.109690" lon="-3.909400">
        <ele>624.788</ele>
        <time>2022-02-26T07:53:10Z</time>
      </trkpt>
      <trkpt lat="40.109740" lon="-3.909460">
        <ele>625.170</ele>
        <time>2022-02-26T07:53:50Z</time>
      </trkpt>
      <trkpt lat="40.109750" lon="-3.909480">
        <ele>625.279</ele>
        <time>2022-02-26T07:54:30Z</time>
      </trkpt>
      <trkpt lat="40.109820" lon="-3.909550">
        <ele>625.639</ele>
        <time>2022-02-26T07:55:10Z</time>
      </trkpt>
      <trkpt lat="40.109870" lon="-3.909600">
        <ele>625.813</ele>
        <time>2022-02-26T07:55:50Z</time>
      </trkpt>
      <trkpt lat="40.109880" lon="-3.909620">
        <ele>625.843</ele>
        <time>2022-02-26T07:56:30Z</time>
      </trkpt>
      <trkpt lat="40.109950" lon="-3.909700">
        <ele>626.007</ele>
        <time>2022-02-26T07:57:10Z</time>
      </trkpt>
      <trkpt lat="40.110080" lon="-3.909790">
        <ele>626.208</ele>
        <time>2022-02-26T07:57:50Z</time>
      </trkpt>
      <trkpt lat="40.110190" lon="-3.909850">
        <ele>626.560</ele>
        <time>2022-02-26T07:58:30Z</time>
      </trkpt>
      <trkpt lat="40.110191" lon="-3.909852">
        <ele>626.567</ele>
        <time>2022-02-26T07:59:10Z</time>
      </trkpt>
      <trkpt lat="40.110210" lon="-3.909840">
        <ele>626.481</ele>
        <time>2022-02-26T07:59:50Z</time>
      </trkpt>
      <trkpt lat="40.110220" lon="-3.909830">
        <ele>626.450</ele>
        <time>2022-02-26T08:00:30Z</time>
      </trkpt>
      <trkpt lat="40.110240" lon="-3.909820">
        <ele>626.470</ele>
        <time>2022-02-26T08:01:10Z</time>
      </trkpt>
      <trkpt lat="40.110250" lon="-3.909820">
        <ele>626.472</ele>
        <time>2022-02-26T08:01:50Z</time>
      </trkpt>
      <trkpt lat="40.110270" lon="-3.909810">
        <ele>626.391</ele>
        <time>2022-02-26T08:02:30Z</time>
      </trkpt>
      <trkpt lat="40.110280" lon="-3.909810">
        <ele>626.361</ele>
        <time>2022-02-26T08:03:10Z</time>
      </trkpt>
      <trkpt lat="40.110300" lon="-3.909810">
        <ele>626.371</ele>
        <time>2022-02-26T08:03:50Z</time>
      </trkpt>
      <trkpt lat="40.110310" lon="-3.909810">
        <ele>626.341</ele>
        <time>2022-02-26T08:04:30Z</time>
      </trkpt>
      <trkpt lat="40.110330" lon="-3.909810">
        <ele>626.315</ele>
        <time>2022-02-26T08:05:10Z</time>
      </trkpt>
      <trkpt lat="40.110340" lon="-3.909810">
        <ele>626.308</ele>
        <time>2022-02-26T08:05:50Z</time>
      </trkpt>
      <trkpt lat="40.110360" lon="-3.909820">
        <ele>626.446</ele>
        <time>2022-02-26T08:06:30Z</time>
      </trkpt>
      <trkpt lat="40.110380" lon="-3.909830">
        <ele>626.433</ele>
        <time>2022-02-26T08:07:10Z</time>
      </trkpt>
      <trkpt lat="40.110400" lon="-3.909830">
        <ele>626.477</ele>
        <time>2022-02-26T08:07:50Z</time>
      </trkpt>
      <trkpt lat="40.110420" lon="-3.909840">
        <ele>626.456</ele>
        <time>2022-02-26T08:08:30Z</time>
      </trkpt>
      <trkpt lat="40.110440" lon="-3.909860">
        <ele>626.556</ele>
        <time>2022-02-26T08:09:10Z</time>
      </trkpt>
      <trkpt lat="40.110460" lon="-3.909870">
        <ele>626.528</ele>
        <time>2022-02-26T08:09:50Z</time>
      </trkpt>
      <trkpt lat="40.110470" lon="-3.909890">
        <ele>626.647</ele>
        <time>2022-02-26T08:10:30Z</time>
      </trkpt>
      <trkpt lat="40.110490" lon="-3.909910">
        <ele>626.787</ele>
        <time>2022-02-26T08:11:10Z</time>
      </trkpt>
      <trkpt lat="40.110500" lon="-3.909930">
        <ele>626.716</ele>
        <time>2022-02-26T08:11:50Z</time>
      </trkpt>
      <trkpt lat="40.110510" lon="-3.909960">
        <ele>626.976</ele>
        <time>2022-02-26T08:12:30Z</time>
      </trkpt>
      <trkpt lat="40.110520" lon="-3.909980">
        <ele>626.913</ele>
        <time>2022-02-26T08:13:10Z</time>
      </trkpt>
      <trkpt lat="40.110530" lon="-3.910010">
        <ele>627.008</ele>
        <time>2022-02-26T08:13:50Z</time>
      </trkpt>
      <trkpt lat="40.110540" lon="-3.910040">
        <ele>627.070</ele>
        <time>2022-02-26T08:14:30Z</time>
      </trkpt>
      <trkpt lat="40.110540" lon="-3.910060">
        <ele>627.087</ele>
        <time>2022-02-26T08:15:10Z</time>
      </trkpt>
      <trkpt lat="40.110540" lon="-3.910090">
        <ele>627.091</ele>
        <time>2022-02-26T08:15:50Z</time>
      </trkpt>
      <trkpt lat="40.110540" lon="-3.910120">
        <ele>627.070</ele>
        <time>2022-02-26T08:16:30Z</time>
      </trkpt>
      <trkpt lat="40.110540" lon="-3.910150">
        <ele>627.030</ele>
        <time>2022-02-26T08:17:10Z</time>
      </trkpt>
      <trkpt lat="40.110540" lon="-3.910180">
        <ele>627.042</ele>
        <time>2022-02-26T08:17:50Z</time>
      </trkpt>
      <trkpt lat="40.110530" lon="-3.910200">
        <ele>627.021</ele>
        <time>2022-02-26T08:18:30Z</time>
      </trkpt>
      <trkpt lat="40.110520" lon="-3.910230">
        <ele>627.061</ele>
        <time>2022-02-26T08:19:10Z</time>
      </trkpt>
      <trkpt lat="40.110510" lon="-3.910260">
        <ele>627.071</ele>
        <time>2022-02-26T08:19:50Z</time>
      </trkpt>
      <trkpt lat="40.110500" lon="-3.910280">
        <ele>627.041</ele>
        <time>2022-02-26T08:20:30Z</time>
      </trkpt>
      <trkpt lat="40.110490" lon="-3.910300">
        <ele>627.115</ele>
        <time>2022-02-26T08:21:10Z</time>
      </trkpt>
      <trkpt lat="40.110470" lon="-3.910320">
        <ele>627.208</ele>
        <time>2022-02-26T08:21:50Z</time>
      </trkpt>
      <trkpt lat="40.110490" lon="-3.910450">
        <ele>627.666</ele>
        <time>2022-02-26T08:22:30Z</time>
      </trkpt>
      <trkpt lat="40.110500" lon="-3.910500">
        <ele>627.823</ele>
        <time>2022-02-26T08:23:10Z</time>
      </trkpt>
      <trkpt lat="40.110500" lon="-3.910670">
        <ele>628.047</ele>
        <time>2022-02-26T08:23:50Z</time>
      </trkpt>
      <trkpt lat="40.110500" lon="-3.910700">
        <ele>628.096</ele>
        <time>2022-02-26T08:24:30Z</time>
      </trkpt>
      <trkpt lat="40.110500" lon="-3.910850">
        <ele>628.136</ele>
        <time>2022-02-26T08:25:10Z</time>
      </trkpt>
      <trkpt lat="40.110500" lon="-3.910930">
        <ele>628.398</ele>
        <time>2022-02-26T08:25:50Z</time>
      </trkpt>
      <trkpt lat="40.110500" lon="-3.911000">
        <ele>628.617</ele>
        <time>2022-02-26T08:26:30Z</time>
      </trkpt>
      <trkpt lat="40.110490" lon="-3.911030">
        <ele>628.747</ele>
        <time>2022-02-26T08:27:10Z</time>
      </trkpt>
      <trkpt lat="40.110480" lon="-3.911100">
        <ele>629.023</ele>
        <time>2022-02-26T08:27:50Z</time>
      </trkpt>
      <trkpt lat="40.110470" lon="-3.911150">
        <ele>629.083</ele>
        <time>2022-02-26T08:28:30Z</time>
      </trkpt>
      <trkpt lat="40.110430" lon="-3.911320">
        <ele>629.011</ele>
        <time>2022-02-26T08:29:10Z</time>
      </trkpt>
      <trkpt lat="40.110420" lon="-3.911380">
        <ele>629.008</ele>
        <time>2022-02-26T08:29:50Z</time>
      </trkpt>
      <trkpt lat="40.110390" lon="-3.911480">
        <ele>629.341</ele>
        <time>2022-02-26T08:30:30Z</time>
      </trkpt>
      <trkpt lat="40.110380" lon="-3.911550">
        <ele>629.668</ele>
        <time>2022-02-26T08:31:10Z</time>
      </trkpt>
      <trkpt lat="40.110350" lon="-3.911650">
        <ele>629.962</ele>
        <time>2022-02-26T08:31:50Z</time>
      </trkpt>
      <trkpt lat="40.110320" lon="-3.911820">
        <ele>630.541</ele>
        <time>2022-02-26T08:32:30Z</time>
      </trkpt>
      <trkpt lat="40.110290" lon="-3.911990">
        <ele>631.141</ele>
        <time>2022-02-26T08:33:10Z</time>
      </trkpt>
      <trkpt lat="40.110280" lon="-3.912170">
        <ele>631.823</ele>
        <time>2022-02-26T08:33:50Z</time>
      </trkpt>
      <trkpt lat="40.110280" lon="-3.912340">
        <ele>632.462</ele>
        <time>2022-02-26T08:34:30Z</time>
      </trkpt>
      <trkpt lat="40.110300" lon="-3.912500">
        <ele>632.992</ele>
        <time>2022-02-26T08:35:10Z</time>
      </trkpt>
      <trkpt lat="40.110330" lon="-3.912720">
        <ele>633.681</ele>
        <time>2022-02-26T08:35:50Z</time>
      </trkpt>
      <trkpt lat="40.110410" lon="-3.912960">
        <ele>634.261</ele>
        <time>2022-02-26T08:36:30Z</time>
      </trkpt>
      <trkpt lat="40.110490" lon="-3.913170">
        <ele>634.617</ele>
        <time>2022-02-26T08:37:10Z</time>
      </trkpt>
      <trkpt lat="40.110570" lon="-3.913380">
        <ele>635.308</ele>
        <time>2022-02-26T08:37:50Z</time>
      </trkpt>
      <trkpt lat="40.110770" lon="-3.913890">
        <ele>637.257</ele>
        <time>2022-02-26T08:38:30Z</time>
      </trkpt>
      <trkpt lat="40.110860" lon="-3.914100">
        <ele>637.784</ele>
        <time>2022-02-26T08:39:10Z</time>
      </trkpt>
      <trkpt lat="40.111010" lon="-3.914500">
        <ele>638.458</ele>
        <time>2022-02-26T08:39:50Z</time>
      </trkpt>
      <trkpt lat="40.111230" lon="-3.915080">
        <ele>638.727</ele>
        <time>2022-02-26T08:40:30Z</time>
      </trkpt>
      <trkpt lat="40.111620" lon="-3.916070">
        <ele>639.037</ele>
        <time>2022-02-26T08:41:10Z</time>
      </trkpt>
      <trkpt lat="40.111690" lon="-3.916250">
        <ele>639.339</ele>
        <time>2022-02-26T08:41:50Z</time>
      </trkpt>
      <trkpt lat="40.111970" lon="-3.916920">
        <ele>639.618</ele>
        <time>2022-02-26T08:42:30Z</time>
      </trkpt>
      <trkpt lat="40.112190" lon="-3.917440">
        <ele>638.968</ele>
        <time>2022-02-26T08:43:10Z</time>
      </trkpt>
      <trkpt lat="40.112190" lon="-3.917460">
        <ele>639.053</ele>
        <time>2022-02-26T08:43:50Z</time>
      </trkpt>
      <trkpt lat="40.112230" lon="-3.917550">
        <ele>639.104</ele>
        <time>2022-02-26T08:44:30Z</time>
      </trkpt>
      <trkpt lat="40.112640" lon="-3.918650">
        <ele>639.614</ele>
        <time>2022-02-26T08:45:10Z</time>
      </trkpt>
      <trkpt lat="40.112660" lon="-3.918710">
        <ele>639.608</ele>
        <time>2022-02-26T08:45:50Z</time>
      </trkpt>
      <trkpt lat="40.112790" lon="-3.919030">
        <ele>640.034</ele>
        <time>2022-02-26T08:46:30Z</time>
      </trkpt>
      <trkpt lat="40.112840" lon="-3.919140">
        <ele>640.021</ele>
        <time>2022-02-26T08:47:10Z</time>
      </trkpt>
      <trkpt lat="40.112870" lon="-3.919220">
        <ele>640.045</ele>
        <time>2022-02-26T08:47:50Z</time>
      </trkpt>
      <trkpt lat="40.112890" lon="-3.919280">
        <ele>640.054</ele>
        <time>2022-02-26T08:48:30Z</time>
      </trkpt>
      <trkpt lat="40.112950" lon="-3.919430">
        <ele>640.084</ele>
        <time>2022-02-26T08:49:10Z</time>
      </trkpt>
      <trkpt lat="40.113040" lon="-3.919640">
        <ele>640.756</ele>
        <time>2022-02-26T08:49:50Z</time>
      </trkpt>
      <trkpt lat="40.113230" lon="-3.920120">
        <ele>641.375</ele>
        <time>2022-02-26T08:50:30Z</time>
      </trkpt>
      <trkpt lat="40.113430" lon="-3.920620">
        <ele>643.165</ele>
        <time>2022-02-26T08:51:10Z</time>
      </trkpt>
      <trkpt lat="40.113540" lon="-3.920890">
        <ele>643.999</ele>
        <time>2022-02-26T08:51:50Z</time>
      </trkpt>
      <trkpt lat="40.113580" lon="-3.921010">
        <ele>644.507</ele>
        <time>2022-02-26T08:52:30Z</time>
      </trkpt>
      <trkpt lat="40.113600" lon="-3.921070">
        <ele>644.827</ele>
        <time>2022-02-26T08:53:10Z</time>
      </trkpt>
      <trkpt lat="40.113620" lon="-3.921150">
        <ele>645.008</ele>
        <time>2022-02-26T08:53:50Z</time>
      </trkpt>
      <trkpt lat="40.113650" lon="-3.921240">
        <ele>645.268</ele>
        <time>2022-02-26T08:54:30Z</time>
      </trkpt>
      <trkpt lat="40.113680" lon="-3.921390">
        <ele>645.575</ele>
        <time>2022-02-26T08:55:10Z</time>
      </trkpt>
      <trkpt lat="40.113680" lon="-3.921890">
        <ele>648.189</ele>
        <time>2022-02-26T08:55:50Z</time>
      </trkpt>
      <trkpt lat="40.113650" lon="-3.922150">
        <ele>648.958</ele>
        <time>2022-02-26T08:56:30Z</time>
      </trkpt>
      <trkpt lat="40.113650" lon="-3.922590">
        <ele>650.028</ele>
        <time>2022-02-26T08:57:10Z</time>
      </trkpt>
      <trkpt lat="40.113610" lon="-3.923540">
        <ele>650.090</ele>
        <time>2022-02-26T08:57:50Z</time>
      </trkpt>
      <trkpt lat="40.113610" lon="-3.923580">
        <ele>650.049</ele>
        <time>2022-02-26T08:58:30Z</time>
      </trkpt>
      <trkpt lat="40.113590" lon="-3.923970">
        <ele>650.089</ele>
        <time>2022-02-26T08:59:10Z</time>
      </trkpt>
      <trkpt lat="40.113580" lon="-3.924220">
        <ele>650.048</ele>
        <time>2022-02-26T08:59:50Z</time>
      </trkpt>
      <trkpt lat="40.113590" lon="-3.924400">
        <ele>650.061</ele>
        <time>2022-02-26T09:00:30Z</time>
      </trkpt>
      <trkpt lat="40.113610" lon="-3.924610">
        <ele>650.017</ele>
        <time>2022-02-26T09:01:10Z</time>
      </trkpt>
      <trkpt lat="40.113620" lon="-3.924680">
        <ele>650.008</ele>
        <time>2022-02-26T09:01:50Z</time>
      </trkpt>
      <trkpt lat="40.113700" lon="-3.924930">
        <ele>650.053</ele>
        <time>2022-02-26T09:02:30Z</time>
      </trkpt>
      <trkpt lat="40.113870" lon="-3.925360">
        <ele>650.080</ele>
        <time>2022-02-26T09:03:10Z</time>
      </trkpt>
      <trkpt lat="40.114000" lon="-3.925630">
        <ele>650.064</ele>
        <time>2022-02-26T09:03:50Z</time>
      </trkpt>
      <trkpt lat="40.114010" lon="-3.925660">
        <ele>650.093</ele>
        <time>2022-02-26T09:04:30Z</time>
      </trkpt>
      <trkpt lat="40.114060" lon="-3.925800">
        <ele>650.013</ele>
        <time>2022-02-26T09:05:10Z</time>
      </trkpt>
      <trkpt lat="40.114100" lon="-3.925900">
        <ele>650.065</ele>
        <time>2022-02-26T09:05:50Z</time>
      </trkpt>
      <trkpt lat="40.114170" lon="-3.926030">
        <ele>650.064</ele>
        <time>2022-02-26T09:06:30Z</time>
      </trkpt>
      <trkpt lat="40.114230" lon="-3.926150">
        <ele>649.874</ele>
        <time>2022-02-26T09:07:10Z</time>
      </trkpt>
      <trkpt lat="40.114310" lon="-3.926280">
        <ele>649.572</ele>
        <time>2022-02-26T09:07:50Z</time>
      </trkpt>
      <trkpt lat="40.114360" lon="-3.926370">
        <ele>649.313</ele>
        <time>2022-02-26T09:08:30Z</time>
      </trkpt>
      <trkpt lat="40.114430" lon="-3.926460">
        <ele>649.314</ele>
        <time>2022-02-26T09:09:10Z</time>
      </trkpt>
      <trkpt lat="40.114530" lon="-3.926600">
        <ele>649.508</ele>
        <time>2022-02-26T09:09:50Z</time>
      </trkpt>
      <trkpt lat="40.114760" lon="-3.926910">
        <ele>649.816</ele>
        <time>2022-02-26T09:10:30Z</time>
      </trkpt>
      <trkpt lat="40.115070" lon="-3.927370">
        <ele>650.013</ele>
        <time>2022-02-26T09:11:10Z</time>
      </trkpt>
      <trkpt lat="40.115540" lon="-3.928090">
        <ele>650.997</ele>
        <time>2022-02-26T09:11:50Z</time>
      </trkpt>
      <trkpt lat="40.115590" lon="-3.928170">
        <ele>651.086</ele>
        <time>2022-02-26T09:12:30Z</time>
      </trkpt>
      <trkpt lat="40.116170" lon="-3.929150">
        <ele>651.066</ele>
        <time>2022-02-26T09:13:10Z</time>
      </trkpt>
      <trkpt lat="40.116570" lon="-3.929800">
        <ele>651.068</ele>
        <time>2022-02-26T09:13:50Z</time>
      </trkpt>
      <trkpt lat="40.116650" lon="-3.929940">
        <ele>651.097</ele>
        <time>2022-02-26T09:14:30Z</time>
      </trkpt>
      <trkpt lat="40.116750" lon="-3.930080">
        <ele>651.077</ele>
        <time>2022-02-26T09:15:10Z</time>
      </trkpt>
      <trkpt lat="40.116770" lon="-3.930100">
        <ele>651.019</ele>
        <time>2022-02-26T09:15:50Z</time>
      </trkpt>
      <trkpt lat="40.116900" lon="-3.930180">
        <ele>651.009</ele>
        <time>2022-02-26T09:16:30Z</time>
      </trkpt>
      <trkpt lat="40.116920" lon="-3.930200">
        <ele>651.019</ele>
        <time>2022-02-26T09:17:10Z</time>
      </trkpt>
      <trkpt lat="40.116970" lon="-3.930270">
        <ele>651.008</ele>
        <time>2022-02-26T09:17:50Z</time>
      </trkpt>
      <trkpt lat="40.116980" lon="-3.930270">
        <ele>651.040</ele>
        <time>2022-02-26T09:18:30Z</time>
      </trkpt>
      <trkpt lat="40.116990" lon="-3.930270">
        <ele>651.027</ele>
        <time>2022-02-26T09:19:10Z</time>
      </trkpt>
      <trkpt lat="40.117000" lon="-3.930280">
        <ele>651.021</ele>
        <time>2022-02-26T09:19:50Z</time>
      </trkpt>
      <trkpt lat="40.117010" lon="-3.930280">
        <ele>651.080</ele>
        <time>2022-02-26T09:20:30Z</time>
      </trkpt>
      <trkpt lat="40.117020" lon="-3.930280">
        <ele>651.010</ele>
        <time>2022-02-26T09:21:10Z</time>
      </trkpt>
      <trkpt lat="40.117030" lon="-3.930290">
        <ele>651.062</ele>
        <time>2022-02-26T09:21:50Z</time>
      </trkpt>
      <trkpt lat="40.117040" lon="-3.930290">
        <ele>651.011</ele>
        <time>2022-02-26T09:22:30Z</time>
      </trkpt>
      <trkpt lat="40.117050" lon="-3.930290">
        <ele>651.091</ele>
        <time>2022-02-26T09:23:10Z</time>
      </trkpt>
      <trkpt lat="40.117060" lon="-3.930300">
        <ele>651.069</ele>
        <time>2022-02-26T09:23:50Z</time>
      </trkpt>
      <trkpt lat="40.117070" lon="-3.930310">
        <ele>651.004</ele>
        <time>2022-02-26T09:24:30Z</time>
      </trkpt>
      <trkpt lat="40.117070" lon="-3.930320">
        <ele>651.024</ele>
        <time>2022-02-26T09:25:10Z</time>
      </trkpt>
      <trkpt lat="40.117080" lon="-3.930320">
        <ele>651.008</ele>
        <time>2022-02-26T09:25:50Z</time>
      </trkpt>
      <trkpt lat="40.117080" lon="-3.930330">
        <ele>651.075</ele>
        <time>2022-02-26T09:26:30Z</time>
      </trkpt>
      <trkpt lat="40.117090" lon="-3.930340">
        <ele>651.052</ele>
        <time>2022-02-26T09:27:10Z</time>
      </trkpt>
      <trkpt lat="40.117090" lon="-3.930350">
        <ele>651.016</ele>
        <time>2022-02-26T09:27:50Z</time>
      </trkpt>
      <trkpt lat="40.117090" lon="-3.930360">
        <ele>651.055</ele>
        <time>2022-02-26T09:28:30Z</time>
      </trkpt>
      <trkpt lat="40.117100" lon="-3.930360">
        <ele>651.055</ele>
        <time>2022-02-26T09:29:10Z</time>
      </trkpt>
      <trkpt lat="40.117100" lon="-3.930370">
        <ele>651.097</ele>
        <time>2022-02-26T09:29:50Z</time>
      </trkpt>
      <trkpt lat="40.117100" lon="-3.930380">
        <ele>651.076</ele>
        <time>2022-02-26T09:30:30Z</time>
      </trkpt>
      <trkpt lat="40.117100" lon="-3.930390">
        <ele>651.036</ele>
        <time>2022-02-26T09:31:10Z</time>
      </trkpt>
      <trkpt lat="40.117100" lon="-3.930400">
        <ele>651.023</ele>
        <time>2022-02-26T09:31:50Z</time>
      </trkpt>
      <trkpt lat="40.117110" lon="-3.930400">
        <ele>651.083</ele>
        <time>2022-02-26T09:32:30Z</time>
      </trkpt>
      <trkpt lat="40.117110" lon="-3.930410">
        <ele>651.011</ele>
        <time>2022-02-26T09:33:10Z</time>
      </trkpt>
      <trkpt lat="40.117110" lon="-3.930420">
        <ele>651.008</ele>
        <time>2022-02-26T09:33:50Z</time>
      </trkpt>
      <trkpt lat="40.117110" lon="-3.930430">
        <ele>651.021</ele>
        <time>2022-02-26T09:34:30Z</time>
      </trkpt>
      <trkpt lat="40.117110" lon="-3.930440">
        <ele>651.088</ele>
        <time>2022-02-26T09:35:10Z</time>
      </trkpt>
      <trkpt lat="40.117110" lon="-3.930450">
        <ele>651.072</ele>
        <time>2022-02-26T09:35:50Z</time>
      </trkpt>
      <trkpt lat="40.117110" lon="-3.930460">
        <ele>651.071</ele>
        <time>2022-02-26T09:36:30Z</time>
      </trkpt>
      <trkpt lat="40.117110" lon="-3.930470">
        <ele>651.011</ele>
        <time>2022-02-26T09:37:10Z</time>
      </trkpt>
      <trkpt lat="40.117100" lon="-3.930480">
        <ele>651.053</ele>
        <time>2022-02-26T09:37:50Z</time>
      </trkpt>
      <trkpt lat="40.117100" lon="-3.930490">
        <ele>651.012</ele>
        <time>2022-02-26T09:38:30Z</time>
      </trkpt>
      <trkpt lat="40.117100" lon="-3.930500">
        <ele>651.052</ele>
        <time>2022-02-26T09:39:10Z</time>
      </trkpt>
      <trkpt lat="40.117100" lon="-3.930510">
        <ele>651.048</ele>
        <time>2022-02-26T09:39:50Z</time>
      </trkpt>
      <trkpt lat="40.117100" lon="-3.930520">
        <ele>651.061</ele>
        <time>2022-02-26T09:40:30Z</time>
      </trkpt>
      <trkpt lat="40.117100" lon="-3.930530">
        <ele>651.017</ele>
        <time>2022-02-26T09:41:10Z</time>
      </trkpt>
      <trkpt lat="40.117110" lon="-3.930620">
        <ele>651.008</ele>
        <time>2022-02-26T09:41:50Z</time>
      </trkpt>
      <trkpt lat="40.117140" lon="-3.930750">
        <ele>651.023</ele>
        <time>2022-02-26T09:42:30Z</time>
      </trkpt>
      <trkpt lat="40.117200" lon="-3.930850">
        <ele>651.010</ele>
        <time>2022-02-26T09:43:10Z</time>
      </trkpt>
      <trkpt lat="40.117270" lon="-3.930970">
        <ele>651.014</ele>
        <time>2022-02-26T09:43:50Z</time>
      </trkpt>
      <trkpt lat="40.117460" lon="-3.931280">
        <ele>651.043</ele>
        <time>2022-02-26T09:44:30Z</time>
      </trkpt>
      <trkpt lat="40.118070" lon="-3.932250">
        <ele>651.083</ele>
        <time>2022-02-26T09:45:10Z</time>
      </trkpt>
      <trkpt lat="40.118160" lon="-3.932400">
        <ele>651.085</ele>
        <time>2022-02-26T09:45:50Z</time>
      </trkpt>
      <trkpt lat="40.118210" lon="-3.932410">
        <ele>651.044</ele>
        <time>2022-02-26T09:46:30Z</time>
      </trkpt>
      <trkpt lat="40.118360" lon="-3.932660">
        <ele>651.064</ele>
        <time>2022-02-26T09:47:10Z</time>
      </trkpt>
      <trkpt lat="40.118370" lon="-3.932660">
        <ele>651.084</ele>
        <time>2022-02-26T09:47:50Z</time>
      </trkpt>
      <trkpt lat="40.118380" lon="-3.932660">
        <ele>651.007</ele>
        <time>2022-02-26T09:48:30Z</time>
      </trkpt>
      <trkpt lat="40.118390" lon="-3.932660">
        <ele>651.017</ele>
        <time>2022-02-26T09:49:10Z</time>
      </trkpt>
      <trkpt lat="40.118400" lon="-3.932660">
        <ele>651.008</ele>
        <time>2022-02-26T09:49:50Z</time>
      </trkpt>
      <trkpt lat="40.118410" lon="-3.932670">
        <ele>651.027</ele>
        <time>2022-02-26T09:50:30Z</time>
      </trkpt>
      <trkpt lat="40.118420" lon="-3.932670">
        <ele>651.084</ele>
        <time>2022-02-26T09:51:10Z</time>
      </trkpt>
      <trkpt lat="40.118430" lon="-3.932680">
        <ele>651.088</ele>
        <time>2022-02-26T09:51:50Z</time>
      </trkpt>
      <trkpt lat="40.118440" lon="-3.932690">
        <ele>651.087</ele>
        <time>2022-02-26T09:52:30Z</time>
      </trkpt>
      <trkpt lat="40.118450" lon="-3.932700">
        <ele>651.087</ele>
        <time>2022-02-26T09:53:10Z</time>
      </trkpt>
      <trkpt lat="40.118460" lon="-3.932710">
        <ele>651.059</ele>
        <time>2022-02-26T09:53:50Z</time>
      </trkpt>
      <trkpt lat="40.118470" lon="-3.932720">
        <ele>651.068</ele>
        <time>2022-02-26T09:54:30Z</time>
      </trkpt>
      <trkpt lat="40.118480" lon="-3.932740">
        <ele>651.078</ele>
        <time>2022-02-26T09:55:10Z</time>
      </trkpt>
      <trkpt lat="40.118480" lon="-3.932760">
        <ele>651.068</ele>
        <time>2022-02-26T09:55:50Z</time>
      </trkpt>
      <trkpt lat="40.118490" lon="-3.932770">
        <ele>651.042</ele>
        <time>2022-02-26T09:56:30Z</time>
      </trkpt>
      <trkpt lat="40.118500" lon="-3.932780">
        <ele>651.026</ele>
        <time>2022-02-26T09:57:10Z</time>
      </trkpt>
      <trkpt lat="40.118500" lon="-3.932790">
        <ele>651.008</ele>
        <time>2022-02-26T09:57:50Z</time>
      </trkpt>
      <trkpt lat="40.118500" lon="-3.932800">
        <ele>651.065</ele>
        <time>2022-02-26T09:58:30Z</time>
      </trkpt>
      <trkpt lat="40.118510" lon="-3.932810">
        <ele>651.042</ele>
        <time>2022-02-26T09:59:10Z</time>
      </trkpt>
      <trkpt lat="40.118510" lon="-3.932830">
        <ele>651.066</ele>
        <time>2022-02-26T09:59:50Z</time>
      </trkpt>
      <trkpt lat="40.118510" lon="-3.932840">
        <ele>651.035</ele>
        <time>2022-02-26T10:00:30Z</time>
      </trkpt>
      <trkpt lat="40.118510" lon="-3.932850">
        <ele>651.015</ele>
        <time>2022-02-26T10:01:10Z</time>
      </trkpt>
      <trkpt lat="40.118510" lon="-3.932860">
        <ele>651.067</ele>
        <time>2022-02-26T10:01:50Z</time>
      </trkpt>
      <trkpt lat="40.118510" lon="-3.932880">
        <ele>651.046</ele>
        <time>2022-02-26T10:02:30Z</time>
      </trkpt>
      <trkpt lat="40.118510" lon="-3.932890">
        <ele>651.076</ele>
        <time>2022-02-26T10:03:10Z</time>
      </trkpt>
      <trkpt lat="40.118510" lon="-3.932900">
        <ele>651.072</ele>
        <time>2022-02-26T10:03:50Z</time>
      </trkpt>
      <trkpt lat="40.118510" lon="-3.932910">
        <ele>651.013</ele>
        <time>2022-02-26T10:04:30Z</time>
      </trkpt>
      <trkpt lat="40.118500" lon="-3.932920">
        <ele>651.014</ele>
        <time>2022-02-26T10:05:10Z</time>
      </trkpt>
      <trkpt lat="40.118490" lon="-3.932940">
        <ele>651.008</ele>
        <time>2022-02-26T10:05:50Z</time>
      </trkpt>
      <trkpt lat="40.118560" lon="-3.933050">
        <ele>651.056</ele>
        <time>2022-02-26T10:06:30Z</time>
      </trkpt>
      <trkpt lat="40.118640" lon="-3.933250">
        <ele>651.073</ele>
        <time>2022-02-26T10:07:10Z</time>
      </trkpt>
      <trkpt lat="40.118850" lon="-3.933580">
        <ele>651.087</ele>
        <time>2022-02-26T10:07:50Z</time>
      </trkpt>
      <trkpt lat="40.118890" lon="-3.933640">
        <ele>651.046</ele>
        <time>2022-02-26T10:08:30Z</time>
      </trkpt>
      <trkpt lat="40.118910" lon="-3.933690">
        <ele>651.026</ele>
        <time>2022-02-26T10:09:10Z</time>
      </trkpt>
      <trkpt lat="40.119010" lon="-3.933840">
        <ele>651.088</ele>
        <time>2022-02-26T10:09:50Z</time>
      </trkpt>
      <trkpt lat="40.119160" lon="-3.934110">
        <ele>651.017</ele>
        <time>2022-02-26T10:10:30Z</time>
      </trkpt>
      <trkpt lat="40.119640" lon="-3.934910">
        <ele>651.057</ele>
        <time>2022-02-26T10:11:10Z</time>
      </trkpt>
      <trkpt lat="40.120160" lon="-3.935770">
        <ele>651.069</ele>
        <time>2022-02-26T10:11:50Z</time>
      </trkpt>
      <trkpt lat="40.120180" lon="-3.935800">
        <ele>651.004</ele>
        <time>2022-02-26T10:12:30Z</time>
      </trkpt>
      <trkpt lat="40.120310" lon="-3.936020">
        <ele>651.024</ele>
        <time>2022-02-26T10:13:10Z</time>
      </trkpt>
      <trkpt lat="40.120690" lon="-3.936640">
        <ele>651.008</ele>
        <time>2022-02-26T10:13:50Z</time>
      </trkpt>
      <trkpt lat="40.120740" lon="-3.936730">
        <ele>650.955</ele>
        <time>2022-02-26T10:14:30Z</time>
      </trkpt>
      <trkpt lat="40.120840" lon="-3.936880">
        <ele>651.032</ele>
        <time>2022-02-26T10:15:10Z</time>
      </trkpt>
      <trkpt lat="40.121090" lon="-3.937290">
        <ele>650.016</ele>
        <time>2022-02-26T10:15:50Z</time>
      </trkpt>
      <trkpt lat="40.121670" lon="-3.938230">
        <ele>650.065</ele>
        <time>2022-02-26T10:16:30Z</time>
      </trkpt>
      <trkpt lat="40.121790" lon="-3.938430">
        <ele>650.035</ele>
        <time>2022-02-26T10:17:10Z</time>
      </trkpt>
      <trkpt lat="40.121980" lon="-3.938730">
        <ele>650.027</ele>
        <time>2022-02-26T10:17:50Z</time>
      </trkpt>
      <trkpt lat="40.122030" lon="-3.938830">
        <ele>650.016</ele>
        <time>2022-02-26T10:18:30Z</time>
      </trkpt>
      <trkpt lat="40.122290" lon="-3.939300">
        <ele>649.596</ele>
        <time>2022-02-26T10:19:10Z</time>
      </trkpt>
      <trkpt lat="40.122580" lon="-3.939890">
        <ele>646.451</ele>
        <time>2022-02-26T10:19:50Z</time>
      </trkpt>
      <trkpt lat="40.123370" lon="-3.941540">
        <ele>639.501</ele>
        <time>2022-02-26T10:20:30Z</time>
      </trkpt>
      <trkpt lat="40.123560" lon="-3.941950">
        <ele>639.211</ele>
        <time>2022-02-26T10:21:10Z</time>
      </trkpt>
      <trkpt lat="40.123660" lon="-3.942150">
        <ele>638.308</ele>
        <time>2022-02-26T10:21:50Z</time>
      </trkpt>
      <trkpt lat="40.124040" lon="-3.942950">
        <ele>637.094</ele>
        <time>2022-02-26T10:22:30Z</time>
      </trkpt>
      <trkpt lat="40.124990" lon="-3.944940">
        <ele>631.211</ele>
        <time>2022-02-26T10:23:10Z</time>
      </trkpt>
      <trkpt lat="40.125370" lon="-3.945740">
        <ele>630.175</ele>
        <time>2022-02-26T10:23:50Z</time>
      </trkpt>
      <trkpt lat="40.125470" lon="-3.945940">
        <ele>630.044</ele>
        <time>2022-02-26T10:24:30Z</time>
      </trkpt>
      <trkpt lat="40.125710" lon="-3.946440">
        <ele>629.834</ele>
        <time>2022-02-26T10:25:10Z</time>
      </trkpt>
      <trkpt lat="40.126350" lon="-3.947760">
        <ele>627.256</ele>
        <time>2022-02-26T10:25:50Z</time>
      </trkpt>
      <trkpt lat="40.126520" lon="-3.948130">
        <ele>626.795</ele>
        <time>2022-02-26T10:26:30Z</time>
      </trkpt>
      <trkpt lat="40.126620" lon="-3.948330">
        <ele>626.095</ele>
        <time>2022-02-26T10:27:10Z</time>
      </trkpt>
      <trkpt lat="40.126710" lon="-3.948540">
        <ele>625.342</ele>
        <time>2022-02-26T10:27:50Z</time>
      </trkpt>
      <trkpt lat="40.126900" lon="-3.948930">
        <ele>624.022</ele>
        <time>2022-02-26T10:28:30Z</time>
      </trkpt>
      <trkpt lat="40.127000" lon="-3.949130">
        <ele>623.814</ele>
        <time>2022-02-26T10:29:10Z</time>
      </trkpt>
      <trkpt lat="40.127470" lon="-3.950120">
        <ele>622.108</ele>
        <time>2022-02-26T10:29:50Z</time>
      </trkpt>
      <trkpt lat="40.127830" lon="-3.950860">
        <ele>621.753</ele>
        <time>2022-02-26T10:30:30Z</time>
      </trkpt>
      <trkpt lat="40.128250" lon="-3.951750">
        <ele>620.070</ele>
        <time>2022-02-26T10:31:10Z</time>
      </trkpt>
      <trkpt lat="40.128420" lon="-3.952110">
        <ele>620.014</ele>
        <time>2022-02-26T10:31:50Z</time>
      </trkpt>
      <trkpt lat="40.128480" lon="-3.952220">
        <ele>620.093</ele>
        <time>2022-02-26T10:32:30Z</time>
      </trkpt>
      <trkpt lat="40.128640" lon="-3.952560">
        <ele>620.093</ele>
        <time>2022-02-26T10:33:10Z</time>
      </trkpt>
      <trkpt lat="40.128740" lon="-3.952780">
        <ele>620.075</ele>
        <time>2022-02-26T10:33:50Z</time>
      </trkpt>
      <trkpt lat="40.128960" lon="-3.953240">
        <ele>620.074</ele>
        <time>2022-02-26T10:34:30Z</time>
      </trkpt>
      <trkpt lat="40.129020" lon="-3.953380">
        <ele>620.034</ele>
        <time>2022-02-26T10:35:10Z</time>
      </trkpt>
      <trkpt lat="40.129150" lon="-3.953710">
        <ele>620.034</ele>
        <time>2022-02-26T10:35:50Z</time>
      </trkpt>
      <trkpt lat="40.129230" lon="-3.953930">
        <ele>620.055</ele>
        <time>2022-02-26T10:36:30Z</time>
      </trkpt>
      <trkpt lat="40.129390" lon="-3.954490">
        <ele>620.010</ele>
        <time>2022-02-26T10:37:10Z</time>
      </trkpt>
      <trkpt lat="40.129510" lon="-3.955010">
        <ele>620.008</ele>
        <time>2022-02-26T10:37:50Z</time>
      </trkpt>
      <trkpt lat="40.129560" lon="-3.955250">
        <ele>620.092</ele>
        <time>2022-02-26T10:38:30Z</time>
      </trkpt>
      <trkpt lat="40.129860" lon="-3.956530">
        <ele>620.589</ele>
        <time>2022-02-26T10:39:10Z</time>
      </trkpt>
      <trkpt lat="40.130100" lon="-3.957620">
        <ele>622.453</ele>
        <time>2022-02-26T10:39:50Z</time>
      </trkpt>
      <trkpt lat="40.130200" lon="-3.958030">
        <ele>622.782</ele>
        <time>2022-02-26T10:40:30Z</time>
      </trkpt>
      <trkpt lat="40.130320" lon="-3.958490">
        <ele>623.022</ele>
        <time>2022-02-26T10:41:10Z</time>
      </trkpt>
      <trkpt lat="40.130390" lon="-3.958750">
        <ele>623.084</ele>
        <time>2022-02-26T10:41:50Z</time>
      </trkpt>
      <trkpt lat="40.130520" lon="-3.959150">
        <ele>623.023</ele>
        <time>2022-02-26T10:42:30Z</time>
      </trkpt>
      <trkpt lat="40.130590" lon="-3.959370">
        <ele>623.663</ele>
        <time>2022-02-26T10:43:10Z</time>
      </trkpt>
      <trkpt lat="40.131350" lon="-3.961820">
        <ele>621.488</ele>
        <time>2022-02-26T10:43:50Z</time>
      </trkpt>
      <trkpt lat="40.131550" lon="-3.962430">
        <ele>620.024</ele>
        <time>2022-02-26T10:44:30Z</time>
      </trkpt>
      <trkpt lat="40.131690" lon="-3.962850">
        <ele>620.226</ele>
        <time>2022-02-26T10:45:10Z</time>
      </trkpt>
      <trkpt lat="40.131870" lon="-3.963370">
        <ele>621.508</ele>
        <time>2022-02-26T10:45:50Z</time>
      </trkpt>
      <trkpt lat="40.131920" lon="-3.963490">
        <ele>621.837</ele>
        <time>2022-02-26T10:46:30Z</time>
      </trkpt>
      <trkpt lat="40.131970" lon="-3.963660">
        <ele>621.954</ele>
        <time>2022-02-26T10:47:10Z</time>
      </trkpt>
      <trkpt lat="40.132230" lon="-3.964420">
        <ele>621.058</ele>
        <time>2022-02-26T10:47:50Z</time>
      </trkpt>
      <trkpt lat="40.132520" lon="-3.965320">
        <ele>620.937</ele>
        <time>2022-02-26T10:48:30Z</time>
      </trkpt>
      <trkpt lat="40.132950" lon="-3.966650">
        <ele>617.837</ele>
        <time>2022-02-26T10:49:10Z</time>
      </trkpt>
      <trkpt lat="40.133040" lon="-3.966860">
        <ele>618.549</ele>
        <time>2022-02-26T10:49:50Z</time>
      </trkpt>
      <trkpt lat="40.133270" lon="-3.967480">
        <ele>620.028</ele>
        <time>2022-02-26T10:50:30Z</time>
      </trkpt>
      <trkpt lat="40.133360" lon="-3.967660">
        <ele>619.918</ele>
        <time>2022-02-26T10:51:10Z</time>
      </trkpt>
      <trkpt lat="40.133880" lon="-3.968530">
        <ele>614.321</ele>
        <time>2022-02-26T10:51:50Z</time>
      </trkpt>
      <trkpt lat="40.134090" lon="-3.968870">
        <ele>612.341</ele>
        <time>2022-02-26T10:52:30Z</time>
      </trkpt>
      <trkpt lat="40.134910" lon="-3.970190">
        <ele>610.005</ele>
        <time>2022-02-26T10:53:10Z</time>
      </trkpt>
      <trkpt lat="40.135310" lon="-3.970830">
        <ele>610.008</ele>
        <time>2022-02-26T10:53:50Z</time>
      </trkpt>
      <trkpt lat="40.135350" lon="-3.970900">
        <ele>610.081</ele>
        <time>2022-02-26T10:54:30Z</time>
      </trkpt>
      <trkpt lat="40.135410" lon="-3.970990">
        <ele>610.068</ele>
        <time>2022-02-26T10:55:10Z</time>
      </trkpt>
      <trkpt lat="40.135430" lon="-3.971010">
        <ele>610.072</ele>
        <time>2022-02-26T10:55:50Z</time>
      </trkpt>
      <trkpt lat="40.135600" lon="-3.971290">
        <ele>609.421</ele>
        <time>2022-02-26T10:56:30Z</time>
      </trkpt>
      <trkpt lat="40.135740" lon="-3.971540">
        <ele>606.831</ele>
        <time>2022-02-26T10:57:10Z</time>
      </trkpt>
      <trkpt lat="40.136040" lon="-3.972030">
        <ele>602.793</ele>
        <time>2022-02-26T10:57:50Z</time>
      </trkpt>
      <trkpt lat="40.136710" lon="-3.973090">
        <ele>600.092</ele>
        <time>2022-02-26T10:58:30Z</time>
      </trkpt>
      <trkpt lat="40.137160" lon="-3.973830">
        <ele>600.082</ele>
        <time>2022-02-26T10:59:10Z</time>
      </trkpt>
      <trkpt lat="40.137830" lon="-3.974910">
        <ele>600.099</ele>
        <time>2022-02-26T10:59:50Z</time>
      </trkpt>
      <trkpt lat="40.137890" lon="-3.974970">
        <ele>600.007</ele>
        <time>2022-02-26T11:00:30Z</time>
      </trkpt>
      <trkpt lat="40.138100" lon="-3.975300">
        <ele>600.027</ele>
        <time>2022-02-26T11:01:10Z</time>
      </trkpt>
      <trkpt lat="40.138440" lon="-3.975790">
        <ele>600.008</ele>
        <time>2022-02-26T11:01:50Z</time>
      </trkpt>
      <trkpt lat="40.138450" lon="-3.975800">
        <ele>600.038</ele>
        <time>2022-02-26T11:02:30Z</time>
      </trkpt>
      <trkpt lat="40.138510" lon="-3.975860">
        <ele>600.095</ele>
        <time>2022-02-26T11:03:10Z</time>
      </trkpt>
      <trkpt lat="40.138530" lon="-3.975880">
        <ele>600.069</ele>
        <time>2022-02-26T11:03:50Z</time>
      </trkpt>
      <trkpt lat="40.138710" lon="-3.976060">
        <ele>600.078</ele>
        <time>2022-02-26T11:04:30Z</time>
      </trkpt>
      <trkpt lat="40.138880" lon="-3.976210">
        <ele>600.058</ele>
        <time>2022-02-26T11:05:10Z</time>
      </trkpt>
      <trkpt lat="40.139140" lon="-3.976440">
        <ele>600.050</ele>
        <time>2022-02-26T11:05:50Z</time>
      </trkpt>
      <trkpt lat="40.139190" lon="-3.976470">
        <ele>600.069</ele>
        <time>2022-02-26T11:06:30Z</time>
      </trkpt>
      <trkpt lat="40.139500" lon="-3.976660">
        <ele>600.039</ele>
        <time>2022-02-26T11:07:10Z</time>
      </trkpt>
      <trkpt lat="40.139530" lon="-3.976680">
        <ele>600.065</ele>
        <time>2022-02-26T11:07:50Z</time>
      </trkpt>
      <trkpt lat="40.139840" lon="-3.976810">
        <ele>600.068</ele>
        <time>2022-02-26T11:08:30Z</time>
      </trkpt>
      <trkpt lat="40.139980" lon="-3.976880">
        <ele>600.014</ele>
        <time>2022-02-26T11:09:10Z</time>
      </trkpt>
      <trkpt lat="40.140020" lon="-3.976920">
        <ele>600.008</ele>
        <time>2022-02-26T11:09:50Z</time>
      </trkpt>
      <trkpt lat="40.140410" lon="-3.977020">
        <ele>599.625</ele>
        <time>2022-02-26T11:10:30Z</time>
      </trkpt>
      <trkpt lat="40.140780" lon="-3.977140">
        <ele>598.752</ele>
        <time>2022-02-26T11:11:10Z</time>
      </trkpt>
      <trkpt lat="40.141120" lon="-3.977310">
        <ele>595.716</ele>
        <time>2022-02-26T11:11:50Z</time>
      </trkpt>
      <trkpt lat="40.141350" lon="-3.977460">
        <ele>594.325</ele>
        <time>2022-02-26T11:12:30Z</time>
      </trkpt>
      <trkpt lat="40.141730" lon="-3.977770">
        <ele>591.835</ele>
        <time>2022-02-26T11:13:10Z</time>
      </trkpt>
      <trkpt lat="40.142010" lon="-3.978060">
        <ele>590.047</ele>
        <time>2022-02-26T11:13:50Z</time>
      </trkpt>
      <trkpt lat="40.142310" lon="-3.978470">
        <ele>587.046</ele>
        <time>2022-02-26T11:14:30Z</time>
      </trkpt>
      <trkpt lat="40.142480" lon="-3.978750">
        <ele>585.546</ele>
        <time>2022-02-26T11:15:10Z</time>
      </trkpt>
      <trkpt lat="40.142490" lon="-3.978780">
        <ele>585.482</ele>
        <time>2022-02-26T11:15:50Z</time>
      </trkpt>
      <trkpt lat="40.142570" lon="-3.978910">
        <ele>585.443</ele>
        <time>2022-02-26T11:16:30Z</time>
      </trkpt>
      <trkpt lat="40.142570" lon="-3.978920">
        <ele>585.317</ele>
        <time>2022-02-26T11:17:10Z</time>
      </trkpt>
      <trkpt lat="40.142650" lon="-3.979060">
        <ele>585.208</ele>
        <time>2022-02-26T11:17:50Z</time>
      </trkpt>
      <trkpt lat="40.142720" lon="-3.979240">
        <ele>585.117</ele>
        <time>2022-02-26T11:18:30Z</time>
      </trkpt>
      <trkpt lat="40.142760" lon="-3.979330">
        <ele>585.264</ele>
        <time>2022-02-26T11:19:10Z</time>
      </trkpt>
      <trkpt lat="40.142790" lon="-3.979420">
        <ele>585.238</ele>
        <time>2022-02-26T11:19:50Z</time>
      </trkpt>
      <trkpt lat="40.142910" lon="-3.979810">
        <ele>585.637</ele>
        <time>2022-02-26T11:20:30Z</time>
      </trkpt>
      <trkpt lat="40.142970" lon="-3.980090">
        <ele>585.177</ele>
        <time>2022-02-26T11:21:10Z</time>
      </trkpt>
      <trkpt lat="40.143040" lon="-3.980500">
        <ele>584.169</ele>
        <time>2022-02-26T11:21:50Z</time>
      </trkpt>
      <trkpt lat="40.143040" lon="-3.980550">
        <ele>583.938</ele>
        <time>2022-02-26T11:22:30Z</time>
      </trkpt>
      <trkpt lat="40.143070" lon="-3.980930">
        <ele>582.728</ele>
        <time>2022-02-26T11:23:10Z</time>
      </trkpt>
      <trkpt lat="40.143070" lon="-3.981290">
        <ele>581.499</ele>
        <time>2022-02-26T11:23:50Z</time>
      </trkpt>
      <trkpt lat="40.143050" lon="-3.981640">
        <ele>581.007</ele>
        <time>2022-02-26T11:24:30Z</time>
      </trkpt>
      <trkpt lat="40.143030" lon="-3.981720">
        <ele>580.627</ele>
        <time>2022-02-26T11:25:10Z</time>
      </trkpt>
      <trkpt lat="40.142990" lon="-3.982090">
        <ele>577.708</ele>
        <time>2022-02-26T11:25:50Z</time>
      </trkpt>
      <trkpt lat="40.142870" lon="-3.982570">
        <ele>571.278</ele>
        <time>2022-02-26T11:26:30Z</time>
      </trkpt>
      <trkpt lat="40.142750" lon="-3.982940">
        <ele>569.915</ele>
        <time>2022-02-26T11:27:10Z</time>
      </trkpt>
      <trkpt lat="40.142540" lon="-3.983480">
        <ele>569.669</ele>
        <time>2022-02-26T11:27:50Z</time>
      </trkpt>
      <trkpt lat="40.142360" lon="-3.983960">
        <ele>568.668</ele>
        <time>2022-02-26T11:28:30Z</time>
      </trkpt>
      <trkpt lat="40.142240" lon="-3.984330">
        <ele>568.798</ele>
        <time>2022-02-26T11:29:10Z</time>
      </trkpt>
      <trkpt lat="40.142230" lon="-3.984370">
        <ele>568.820</ele>
        <time>2022-02-26T11:29:50Z</time>
      </trkpt>
      <trkpt lat="40.142160" lon="-3.984710">
        <ele>568.169</ele>
        <time>2022-02-26T11:30:30Z</time>
      </trkpt>
      <trkpt lat="40.142110" lon="-3.985020">
        <ele>568.069</ele>
        <time>2022-02-26T11:31:10Z</time>
      </trkpt>
      <trkpt lat="40.142080" lon="-3.985240">
        <ele>567.447</ele>
        <time>2022-02-26T11:31:50Z</time>
      </trkpt>
      <trkpt lat="40.142080" lon="-3.985250">
        <ele>567.429</ele>
        <time>2022-02-26T11:32:30Z</time>
      </trkpt>
      <trkpt lat="40.142070" lon="-3.985870">
        <ele>565.621</ele>
        <time>2022-02-26T11:33:10Z</time>
      </trkpt>
      <trkpt lat="40.142080" lon="-3.986170">
        <ele>564.108</ele>
        <time>2022-02-26T11:33:50Z</time>
      </trkpt>
      <trkpt lat="40.142170" lon="-3.986610">
        <ele>558.153</ele>
        <time>2022-02-26T11:34:30Z</time>
      </trkpt>
      <trkpt lat="40.142250" lon="-3.986970">
        <ele>550.870</ele>
        <time>2022-02-26T11:35:10Z</time>
      </trkpt>
      <trkpt lat="40.142320" lon="-3.987240">
        <ele>544.494</ele>
        <time>2022-02-26T11:35:50Z</time>
      </trkpt>
      <trkpt lat="40.142480" lon="-3.987660">
        <ele>541.883</ele>
        <time>2022-02-26T11:36:30Z</time>
      </trkpt>
      <trkpt lat="40.142620" lon="-3.987920">
        <ele>546.383</ele>
        <time>2022-02-26T11:37:10Z</time>
      </trkpt>
      <trkpt lat="40.142680" lon="-3.988030">
        <ele>548.755</ele>
        <time>2022-02-26T11:37:50Z</time>
      </trkpt>
      <trkpt lat="40.142730" lon="-3.988110">
        <ele>549.494</ele>
        <time>2022-02-26T11:38:30Z</time>
      </trkpt>
      <trkpt lat="40.142950" lon="-3.988450">
        <ele>550.114</ele>
        <time>2022-02-26T11:39:10Z</time>
      </trkpt>
      <trkpt lat="40.143100" lon="-3.988620">
        <ele>551.349</ele>
        <time>2022-02-26T11:39:50Z</time>
      </trkpt>
      <trkpt lat="40.143250" lon="-3.988800">
        <ele>551.202</ele>
        <time>2022-02-26T11:40:30Z</time>
      </trkpt>
      <trkpt lat="40.143580" lon="-3.989140">
        <ele>543.022</ele>
        <time>2022-02-26T11:41:10Z</time>
      </trkpt>
      <trkpt lat="40.143620" lon="-3.989170">
        <ele>541.608</ele>
        <time>2022-02-26T11:41:50Z</time>
      </trkpt>
      <trkpt lat="40.143870" lon="-3.989370">
        <ele>530.283</ele>
        <time>2022-02-26T11:42:30Z</time>
      </trkpt>
      <trkpt lat="40.143890" lon="-3.989380">
        <ele>529.690</ele>
        <time>2022-02-26T11:43:10Z</time>
      </trkpt>
      <trkpt lat="40.143970" lon="-3.989430">
        <ele>526.674</ele>
        <time>2022-02-26T11:43:50Z</time>
      </trkpt>
      <trkpt lat="40.144060" lon="-3.989500">
        <ele>523.743</ele>
        <time>2022-02-26T11:44:30Z</time>
      </trkpt>
      <trkpt lat="40.144190" lon="-3.989580">
        <ele>520.993</ele>
        <time>2022-02-26T11:45:10Z</time>
      </trkpt>
      <trkpt lat="40.144400" lon="-3.989700">
        <ele>519.385</ele>
        <time>2022-02-26T11:45:50Z</time>
      </trkpt>
      <trkpt lat="40.144760" lon="-3.989920">
        <ele>518.954</ele>
        <time>2022-02-26T11:46:30Z</time>
      </trkpt>
      <trkpt lat="40.144840" lon="-3.989960">
        <ele>518.654</ele>
        <time>2022-02-26T11:47:10Z</time>
      </trkpt>
      <trkpt lat="40.144930" lon="-3.990020">
        <ele>518.258</ele>
        <time>2022-02-26T11:47:50Z</time>
      </trkpt>
      <trkpt lat="40.145090" lon="-3.990120">
        <ele>518.152</ele>
        <time>2022-02-26T11:48:30Z</time>
      </trkpt>
      <trkpt lat="40.145250" lon="-3.990210">
        <ele>518.717</ele>
        <time>2022-02-26T11:49:10Z</time>
      </trkpt>
      <trkpt lat="40.145500" lon="-3.990360">
        <ele>520.108</ele>
        <time>2022-02-26T11:49:50Z</time>
      </trkpt>
      <trkpt lat="40.145530" lon="-3.990380">
        <ele>520.334</ele>
        <time>2022-02-26T11:50:30Z</time>
      </trkpt>
      <trkpt lat="40.145580" lon="-3.990410">
        <ele>520.661</ele>
        <time>2022-02-26T11:51:10Z</time>
      </trkpt>
      <trkpt lat="40.145690" lon="-3.990480">
        <ele>521.275</ele>
        <time>2022-02-26T11:51:50Z</time>
      </trkpt>
      <trkpt lat="40.145710" lon="-3.990490">
        <ele>521.374</ele>
        <time>2022-02-26T11:52:30Z</time>
      </trkpt>
      <trkpt lat="40.145740" lon="-3.990510">
        <ele>521.514</ele>
        <time>2022-02-26T11:53:10Z</time>
      </trkpt>
      <trkpt lat="40.145850" lon="-3.990580">
        <ele>522.056</ele>
        <time>2022-02-26T11:53:50Z</time>
      </trkpt>
      <trkpt lat="40.145930" lon="-3.990620">
        <ele>522.175</ele>
        <time>2022-02-26T11:54:30Z</time>
      </trkpt>
      <trkpt lat="40.146060" lon="-3.990720">
        <ele>522.525</ele>
        <time>2022-02-26T11:55:10Z</time>
      </trkpt>
      <trkpt lat="40.146130" lon="-3.990760">
        <ele>522.847</ele>
        <time>2022-02-26T11:55:50Z</time>
      </trkpt>
      <trkpt lat="40.146200" lon="-3.990840">
        <ele>523.329</ele>
        <time>2022-02-26T11:56:30Z</time>
      </trkpt>
      <trkpt lat="40.146240" lon="-3.990860">
        <ele>523.521</ele>
        <time>2022-02-26T11:57:10Z</time>
      </trkpt>
      <trkpt lat="40.146300" lon="-3.990890">
        <ele>523.708</ele>
        <time>2022-02-26T11:57:50Z</time>
      </trkpt>
      <trkpt lat="40.146370" lon="-3.990950">
        <ele>523.933</ele>
        <time>2022-02-26T11:58:30Z</time>
      </trkpt>
      <trkpt lat="40.146470" lon="-3.991100">
        <ele>524.320</ele>
        <time>2022-02-26T11:59:10Z</time>
      </trkpt>
      <trkpt lat="40.146480" lon="-3.991090">
        <ele>524.324</ele>
        <time>2022-02-26T11:59:50Z</time>
      </trkpt>
      <trkpt lat="40.146490" lon="-3.991090">
        <ele>524.373</ele>
        <time>2022-02-26T12:00:30Z</time>
      </trkpt>
      <trkpt lat="40.146500" lon="-3.991090">
        <ele>524.483</ele>
        <time>2022-02-26T12:01:10Z</time>
      </trkpt>
      <trkpt lat="40.146510" lon="-3.991090">
        <ele>524.485</ele>
        <time>2022-02-26T12:01:50Z</time>
      </trkpt>
      <trkpt lat="40.146520" lon="-3.991090">
        <ele>524.464</ele>
        <time>2022-02-26T12:02:30Z</time>
      </trkpt>
      <trkpt lat="40.146530" lon="-3.991090">
        <ele>524.554</ele>
        <time>2022-02-26T12:03:10Z</time>
      </trkpt>
      <trkpt lat="40.146540" lon="-3.991090">
        <ele>524.591</ele>
        <time>2022-02-26T12:03:50Z</time>
      </trkpt>
      <trkpt lat="40.146550" lon="-3.991090">
        <ele>524.581</ele>
        <time>2022-02-26T12:04:30Z</time>
      </trkpt>
      <trkpt lat="40.146560" lon="-3.991090">
        <ele>524.619</ele>
        <time>2022-02-26T12:05:10Z</time>
      </trkpt>
      <trkpt lat="40.146570" lon="-3.991100">
        <ele>524.608</ele>
        <time>2022-02-26T12:05:50Z</time>
      </trkpt>
      <trkpt lat="40.146590" lon="-3.991100">
        <ele>524.758</ele>
        <time>2022-02-26T12:06:30Z</time>
      </trkpt>
      <trkpt lat="40.146600" lon="-3.991110">
        <ele>524.825</ele>
        <time>2022-02-26T12:07:10Z</time>
      </trkpt>
      <trkpt lat="40.146610" lon="-3.991110">
        <ele>524.899</ele>
        <time>2022-02-26T12:07:50Z</time>
      </trkpt>
      <trkpt lat="40.146620" lon="-3.991120">
        <ele>524.898</ele>
        <time>2022-02-26T12:08:30Z</time>
      </trkpt>
      <trkpt lat="40.146630" lon="-3.991130">
        <ele>524.958</ele>
        <time>2022-02-26T12:09:10Z</time>
      </trkpt>
      <trkpt lat="40.146640" lon="-3.991140">
        <ele>524.920</ele>
        <time>2022-02-26T12:09:50Z</time>
      </trkpt>
      <trkpt lat="40.146650" lon="-3.991150">
        <ele>524.959</ele>
        <time>2022-02-26T12:10:30Z</time>
      </trkpt>
      <trkpt lat="40.146660" lon="-3.991160">
        <ele>525.089</ele>
        <time>2022-02-26T12:11:10Z</time>
      </trkpt>
      <trkpt lat="40.146670" lon="-3.991180">
        <ele>525.017</ele>
        <time>2022-02-26T12:11:50Z</time>
      </trkpt>
      <trkpt lat="40.146680" lon="-3.991190">
        <ele>525.087</ele>
        <time>2022-02-26T12:12:30Z</time>
      </trkpt>
      <trkpt lat="40.146680" lon="-3.991200">
        <ele>525.015</ele>
        <time>2022-02-26T12:13:10Z</time>
      </trkpt>
      <trkpt lat="40.146690" lon="-3.991220">
        <ele>525.008</ele>
        <time>2022-02-26T12:13:50Z</time>
      </trkpt>
      <trkpt lat="40.146690" lon="-3.991230">
        <ele>525.030</ele>
        <time>2022-02-26T12:14:30Z</time>
      </trkpt>
      <trkpt lat="40.146690" lon="-3.991250">
        <ele>525.027</ele>
        <time>2022-02-26T12:15:10Z</time>
      </trkpt>
      <trkpt lat="40.146690" lon="-3.991270">
        <ele>525.071</ele>
        <time>2022-02-26T12:15:50Z</time>
      </trkpt>
      <trkpt lat="40.146700" lon="-3.991280">
        <ele>525.120</ele>
        <time>2022-02-26T12:16:30Z</time>
      </trkpt>
      <trkpt lat="40.146700" lon="-3.991290">
        <ele>525.190</ele>
        <time>2022-02-26T12:17:10Z</time>
      </trkpt>
      <trkpt lat="40.146700" lon="-3.991300">
        <ele>525.132</ele>
        <time>2022-02-26T12:17:50Z</time>
      </trkpt>
      <trkpt lat="40.146700" lon="-3.991310">
        <ele>525.121</ele>
        <time>2022-02-26T12:18:30Z</time>
      </trkpt>
      <trkpt lat="40.146700" lon="-3.991320">
        <ele>525.141</ele>
        <time>2022-02-26T12:19:10Z</time>
      </trkpt>
      <trkpt lat="40.146690" lon="-3.991330">
        <ele>525.189</ele>
        <time>2022-02-26T12:19:50Z</time>
      </trkpt>
      <trkpt lat="40.146690" lon="-3.991340">
        <ele>525.106</ele>
        <time>2022-02-26T12:20:30Z</time>
      </trkpt>
      <trkpt lat="40.146690" lon="-3.991350">
        <ele>525.126</ele>
        <time>2022-02-26T12:21:10Z</time>
      </trkpt>
      <trkpt lat="40.146840" lon="-3.991500">
        <ele>525.608</ele>
        <time>2022-02-26T12:21:50Z</time>
      </trkpt>
      <trkpt lat="40.146900" lon="-3.991580">
        <ele>525.867</ele>
        <time>2022-02-26T12:22:30Z</time>
      </trkpt>
      <trkpt lat="40.147000" lon="-3.991650">
        <ele>526.284</ele>
        <time>2022-02-26T12:23:10Z</time>
      </trkpt>
      <trkpt lat="40.147060" lon="-3.991700">
        <ele>526.528</ele>
        <time>2022-02-26T12:23:50Z</time>
      </trkpt>
      <trkpt lat="40.147280" lon="-3.991910">
        <ele>527.447</ele>
        <time>2022-02-26T12:24:30Z</time>
      </trkpt>
      <trkpt lat="40.147320" lon="-3.991950">
        <ele>527.767</ele>
        <time>2022-02-26T12:25:10Z</time>
      </trkpt>
      <trkpt lat="40.147470" lon="-3.992100">
        <ele>528.869</ele>
        <time>2022-02-26T12:25:50Z</time>
      </trkpt>
      <trkpt lat="40.147750" lon="-3.992400">
        <ele>529.698</ele>
        <time>2022-02-26T12:26:30Z</time>
      </trkpt>
      <trkpt lat="40.147960" lon="-3.992630">
        <ele>530.348</ele>
        <time>2022-02-26T12:27:10Z</time>
      </trkpt>
      <trkpt lat="40.148210" lon="-3.992920">
        <ele>532.184</ele>
        <time>2022-02-26T12:27:50Z</time>
      </trkpt>
      <trkpt lat="40.148330" lon="-3.993060">
        <ele>533.007</ele>
        <time>2022-02-26T12:28:30Z</time>
      </trkpt>
      <trkpt lat="40.148470" lon="-3.993230">
        <ele>534.617</ele>
        <time>2022-02-26T12:29:10Z</time>
      </trkpt>
      <trkpt lat="40.148920" lon="-3.993740">
        <ele>537.608</ele>
        <time>2022-02-26T12:29:50Z</time>
      </trkpt>
      <trkpt lat="40.149110" lon="-3.993960">
        <ele>539.187</ele>
        <time>2022-02-26T12:30:30Z</time>
      </trkpt>
      <trkpt lat="40.149450" lon="-3.994340">
        <ele>540.074</ele>
        <time>2022-02-26T12:31:10Z</time>
      </trkpt>
      <trkpt lat="40.149590" lon="-3.994500">
        <ele>540.528</ele>
        <time>2022-02-26T12:31:50Z</time>
      </trkpt>
      <trkpt lat="40.149720" lon="-3.994650">
        <ele>541.047</ele>
        <time>2022-02-26T12:32:30Z</time>
      </trkpt>
      <trkpt lat="40.149940" lon="-3.994900">
        <ele>541.847</ele>
        <time>2022-02-26T12:33:10Z</time>
      </trkpt>
      <trkpt lat="40.150130" lon="-3.995120">
        <ele>542.739</ele>
        <time>2022-02-26T12:33:50Z</time>
      </trkpt>
      <trkpt lat="40.151080" lon="-3.996200">
        <ele>548.318</ele>
        <time>2022-02-26T12:34:30Z</time>
      </trkpt>
      <trkpt lat="40.151260" lon="-3.996410">
        <ele>549.618</ele>
        <time>2022-02-26T12:35:10Z</time>
      </trkpt>
      <trkpt lat="40.152570" lon="-3.997900">
        <ele>558.311</ele>
        <time>2022-02-26T12:35:50Z</time>
      </trkpt>
      <trkpt lat="40.152760" lon="-3.998120">
        <ele>560.021</ele>
        <time>2022-02-26T12:36:30Z</time>
      </trkpt>
      <trkpt lat="40.152840" lon="-3.998210">
        <ele>559.903</ele>
        <time>2022-02-26T12:37:10Z</time>
      </trkpt>
      <trkpt lat="40.152970" lon="-3.998370">
        <ele>560.008</ele>
        <time>2022-02-26T12:37:50Z</time>
      </trkpt>
      <trkpt lat="40.153380" lon="-3.998840">
        <ele>560.010</ele>
        <time>2022-02-26T12:38:30Z</time>
      </trkpt>
      <trkpt lat="40.153530" lon="-3.999020">
        <ele>561.997</ele>
        <time>2022-02-26T12:39:10Z</time>
      </trkpt>
      <trkpt lat="40.154020" lon="-3.999570">
        <ele>565.551</ele>
        <time>2022-02-26T12:39:50Z</time>
      </trkpt>
      <trkpt lat="40.154190" lon="-3.999760">
        <ele>566.170</ele>
        <time>2022-02-26T12:40:30Z</time>
      </trkpt>
      <trkpt lat="40.154730" lon="-4.000390">
        <ele>563.470</ele>
        <time>2022-02-26T12:41:10Z</time>
      </trkpt>
      <trkpt lat="40.154860" lon="-4.000550">
        <ele>564.542</ele>
        <time>2022-02-26T12:41:50Z</time>
      </trkpt>
      <trkpt lat="40.154900" lon="-4.000590">
        <ele>564.781</ele>
        <time>2022-02-26T12:42:30Z</time>
      </trkpt>
      <trkpt lat="40.155270" lon="-4.001010">
        <ele>567.021</ele>
        <time>2022-02-26T12:43:10Z</time>
      </trkpt>
      <trkpt lat="40.155800" lon="-4.001620">
        <ele>568.875</ele>
        <time>2022-02-26T12:43:50Z</time>
      </trkpt>
      <trkpt lat="40.156080" lon="-4.001950">
        <ele>570.028</ele>
        <time>2022-02-26T12:44:30Z</time>
      </trkpt>
      <trkpt lat="40.156370" lon="-4.002290">
        <ele>572.320</ele>
        <time>2022-02-26T12:45:10Z</time>
      </trkpt>
      <trkpt lat="40.156590" lon="-4.002590">
        <ele>572.908</ele>
        <time>2022-02-26T12:45:50Z</time>
      </trkpt>
      <trkpt lat="40.156790" lon="-4.002880">
        <ele>574.166</ele>
        <time>2022-02-26T12:46:30Z</time>
      </trkpt>
      <trkpt lat="40.156830" lon="-4.002950">
        <ele>574.363</ele>
        <time>2022-02-26T12:47:10Z</time>
      </trkpt>
      <trkpt lat="40.156850" lon="-4.002990">
        <ele>574.417</ele>
        <time>2022-02-26T12:47:50Z</time>
      </trkpt>
      <trkpt lat="40.157160" lon="-4.003520">
        <ele>575.036</ele>
        <time>2022-02-26T12:48:30Z</time>
      </trkpt>
      <trkpt lat="40.157560" lon="-4.004290">
        <ele>575.486</ele>
        <time>2022-02-26T12:49:10Z</time>
      </trkpt>
      <trkpt lat="40.157730" lon="-4.004600">
        <ele>575.688</ele>
        <time>2022-02-26T12:49:50Z</time>
      </trkpt>
      <trkpt lat="40.157790" lon="-4.004700">
        <ele>575.847</ele>
        <time>2022-02-26T12:50:30Z</time>
      </trkpt>
      <trkpt lat="40.158060" lon="-4.005200">
        <ele>577.797</ele>
        <time>2022-02-26T12:51:10Z</time>
      </trkpt>
      <trkpt lat="40.158320" lon="-4.005680">
        <ele>579.543</ele>
        <time>2022-02-26T12:51:50Z</time>
      </trkpt>
      <trkpt lat="40.158380" lon="-4.005790">
        <ele>579.764</ele>
        <time>2022-02-26T12:52:30Z</time>
      </trkpt>
      <trkpt lat="40.159010" lon="-4.006950">
        <ele>581.610</ele>
        <time>2022-02-26T12:53:10Z</time>
      </trkpt>
      <trkpt lat="40.159160" lon="-4.007230">
        <ele>582.108</ele>
        <time>2022-02-26T12:53:50Z</time>
      </trkpt>
      <trkpt lat="40.159610" lon="-4.008070">
        <ele>587.643</ele>
        <time>2022-02-26T12:54:30Z</time>
      </trkpt>
      <trkpt lat="40.160360" lon="-4.009430">
        <ele>590.010</ele>
        <time>2022-02-26T12:55:10Z</time>
      </trkpt>
      <trkpt lat="40.160470" lon="-4.009630">
        <ele>590.054</ele>
        <time>2022-02-26T12:55:50Z</time>
      </trkpt>
      <trkpt lat="40.160590" lon="-4.009870">
        <ele>590.023</ele>
        <time>2022-02-26T12:56:30Z</time>
      </trkpt>
      <trkpt lat="40.160900" lon="-4.010390">
        <ele>590.073</ele>
        <time>2022-02-26T12:57:10Z</time>
      </trkpt>
      <trkpt lat="40.160960" lon="-4.010490">
        <ele>590.085</ele>
        <time>2022-02-26T12:57:50Z</time>
      </trkpt>
      <trkpt lat="40.161180" lon="-4.010790">
        <ele>590.084</ele>
        <time>2022-02-26T12:58:30Z</time>
      </trkpt>
      <trkpt lat="40.161470" lon="-4.011110">
        <ele>590.074</ele>
        <time>2022-02-26T12:59:10Z</time>
      </trkpt>
      <trkpt lat="40.162170" lon="-4.011760">
        <ele>590.518</ele>
        <time>2022-02-26T12:59:50Z</time>
      </trkpt>
      <trkpt lat="40.163230" lon="-4.012740">
        <ele>591.598</ele>
        <time>2022-02-26T13:00:30Z</time>
      </trkpt>
      <trkpt lat="40.163310" lon="-4.012820">
        <ele>591.517</ele>
        <time>2022-02-26T13:01:10Z</time>
      </trkpt>
      <trkpt lat="40.164100" lon="-4.013540">
        <ele>592.008</ele>
        <time>2022-02-26T13:01:50Z</time>
      </trkpt>
      <trkpt lat="40.164640" lon="-4.014030">
        <ele>591.380</ele>
        <time>2022-02-26T13:02:30Z</time>
      </trkpt>
      <trkpt lat="40.164830" lon="-4.014190">
        <ele>591.387</ele>
        <time>2022-02-26T13:03:10Z</time>
      </trkpt>
      <trkpt lat="40.166120" lon="-4.015380">
        <ele>593.091</ele>
        <time>2022-02-26T13:03:50Z</time>
      </trkpt>
      <trkpt lat="40.166370" lon="-4.015610">
        <ele>593.190</ele>
        <time>2022-02-26T13:04:30Z</time>
      </trkpt>
      <trkpt lat="40.166850" lon="-4.016040">
        <ele>591.260</ele>
        <time>2022-02-26T13:05:10Z</time>
      </trkpt>
      <trkpt lat="40.167440" lon="-4.016590">
        <ele>590.492</ele>
        <time>2022-02-26T13:05:50Z</time>
      </trkpt>
      <trkpt lat="40.167900" lon="-4.017010">
        <ele>590.861</ele>
        <time>2022-02-26T13:06:30Z</time>
      </trkpt>
      <trkpt lat="40.168520" lon="-4.017580">
        <ele>594.511</ele>
        <time>2022-02-26T13:07:10Z</time>
      </trkpt>
      <trkpt lat="40.168930" lon="-4.017920">
        <ele>596.824</ele>
        <time>2022-02-26T13:07:50Z</time>
      </trkpt>
      <trkpt lat="40.169020" lon="-4.018000">
        <ele>597.104</ele>
        <time>2022-02-26T13:08:30Z</time>
      </trkpt>
      <trkpt lat="40.169160" lon="-4.018100">
        <ele>597.614</ele>
        <time>2022-02-26T13:09:10Z</time>
      </trkpt>
      <trkpt lat="40.169410" lon="-4.018260">
        <ele>597.208</ele>
        <time>2022-02-26T13:09:50Z</time>
      </trkpt>
      <trkpt lat="40.169700" lon="-4.018440">
        <ele>597.051</ele>
        <time>2022-02-26T13:10:30Z</time>
      </trkpt>
      <trkpt lat="40.169730" lon="-4.018450">
        <ele>597.028</ele>
        <time>2022-02-26T13:11:10Z</time>
      </trkpt>
      <trkpt lat="40.170050" lon="-4.018630">
        <ele>598.122</ele>
        <time>2022-02-26T13:11:50Z</time>
      </trkpt>
      <trkpt lat="40.171010" lon="-4.019140">
        <ele>600.091</ele>
        <time>2022-02-26T13:12:30Z</time>
      </trkpt>
      <trkpt lat="40.171060" lon="-4.019170">
        <ele>600.091</ele>
        <time>2022-02-26T13:13:10Z</time>
      </trkpt>
      <trkpt lat="40.171460" lon="-4.019390">
        <ele>600.053</ele>
        <time>2022-02-26T13:13:50Z</time>
      </trkpt>
      <trkpt lat="40.171680" lon="-4.019530">
        <ele>600.042</ele>
        <time>2022-02-26T13:14:30Z</time>
      </trkpt>
      <trkpt lat="40.171800" lon="-4.019580">
        <ele>600.082</ele>
        <time>2022-02-26T13:15:10Z</time>
      </trkpt>
      <trkpt lat="40.171860" lon="-4.019610">
        <ele>600.051</ele>
        <time>2022-02-26T13:15:50Z</time>
      </trkpt>
      <trkpt lat="40.172070" lon="-4.019750">
        <ele>600.001</ele>
        <time>2022-02-26T13:16:30Z</time>
      </trkpt>
      <trkpt lat="40.172240" lon="-4.019900">
        <ele>600.011</ele>
        <time>2022-02-26T13:17:10Z</time>
      </trkpt>
      <trkpt lat="40.172420" lon="-4.020070">
        <ele>600.008</ele>
        <time>2022-02-26T13:17:50Z</time>
      </trkpt>
      <trkpt lat="40.172560" lon="-4.020210">
        <ele>600.684</ele>
        <time>2022-02-26T13:18:30Z</time>
      </trkpt>
      <trkpt lat="40.172690" lon="-4.020360">
        <ele>601.981</ele>
        <time>2022-02-26T13:19:10Z</time>
      </trkpt>
      <trkpt lat="40.172730" lon="-4.020400">
        <ele>602.145</ele>
        <time>2022-02-26T13:19:50Z</time>
      </trkpt>
      <trkpt lat="40.172830" lon="-4.020520">
        <ele>602.954</ele>
        <time>2022-02-26T13:20:30Z</time>
      </trkpt>
      <trkpt lat="40.172930" lon="-4.020640">
        <ele>604.044</ele>
        <time>2022-02-26T13:21:10Z</time>
      </trkpt>
      <trkpt lat="40.172960" lon="-4.020680">
        <ele>604.336</ele>
        <time>2022-02-26T13:21:50Z</time>
      </trkpt>
      <trkpt lat="40.173230" lon="-4.021000">
        <ele>605.915</ele>
        <time>2022-02-26T13:22:30Z</time>
      </trkpt>
      <trkpt lat="40.173240" lon="-4.021020">
        <ele>605.935</ele>
        <time>2022-02-26T13:23:10Z</time>
      </trkpt>
      <trkpt lat="40.173360" lon="-4.021160">
        <ele>605.932</ele>
        <time>2022-02-26T13:23:50Z</time>
      </trkpt>
      <trkpt lat="40.173530" lon="-4.021370">
        <ele>605.892</ele>
        <time>2022-02-26T13:24:30Z</time>
      </trkpt>
      <trkpt lat="40.173720" lon="-4.021590">
        <ele>605.711</ele>
        <time>2022-02-26T13:25:10Z</time>
      </trkpt>
      <trkpt lat="40.173750" lon="-4.021630">
        <ele>605.608</ele>
        <time>2022-02-26T13:25:50Z</time>
      </trkpt>
      <trkpt lat="40.173890" lon="-4.021790">
        <ele>605.622</ele>
        <time>2022-02-26T13:26:30Z</time>
      </trkpt>
      <trkpt lat="40.174140" lon="-4.022080">
        <ele>605.459</ele>
        <time>2022-02-26T13:27:10Z</time>
      </trkpt>
      <trkpt lat="40.174300" lon="-4.022280">
        <ele>606.153</ele>
        <time>2022-02-26T13:27:50Z</time>
      </trkpt>
      <trkpt lat="40.174500" lon="-4.022560">
        <ele>607.452</ele>
        <time>2022-02-26T13:28:30Z</time>
      </trkpt>
      <trkpt lat="40.174680" lon="-4.022780">
        <ele>608.832</ele>
        <time>2022-02-26T13:29:10Z</time>
      </trkpt>
      <trkpt lat="40.174870" lon="-4.023000">
        <ele>609.584</ele>
        <time>2022-02-26T13:29:50Z</time>
      </trkpt>
      <trkpt lat="40.175100" lon="-4.023280">
        <ele>610.063</ele>
        <time>2022-02-26T13:30:30Z</time>
      </trkpt>
      <trkpt lat="40.175350" lon="-4.023560">
        <ele>611.393</ele>
        <time>2022-02-26T13:31:10Z</time>
      </trkpt>
      <trkpt lat="40.175470" lon="-4.023710">
        <ele>613.533</ele>
        <time>2022-02-26T13:31:50Z</time>
      </trkpt>
      <trkpt lat="40.175510" lon="-4.023760">
        <ele>614.223</ele>
        <time>2022-02-26T13:32:30Z</time>
      </trkpt>
      <trkpt lat="40.175640" lon="-4.023940">
        <ele>615.515</ele>
        <time>2022-02-26T13:33:10Z</time>
      </trkpt>
      <trkpt lat="40.175950" lon="-4.024350">
        <ele>617.708</ele>
        <time>2022-02-26T13:33:50Z</time>
      </trkpt>
      <trkpt lat="40.176010" lon="-4.024430">
        <ele>618.292</ele>
        <time>2022-02-26T13:34:30Z</time>
      </trkpt>
      <trkpt lat="40.176120" lon="-4.024610">
        <ele>619.099</ele>
        <time>2022-02-26T13:35:10Z</time>
      </trkpt>
      <trkpt lat="40.176210" lon="-4.024750">
        <ele>618.783</ele>
        <time>2022-02-26T13:35:50Z</time>
      </trkpt>
      <trkpt lat="40.176240" lon="-4.024800">
        <ele>618.862</ele>
        <time>2022-02-26T13:36:30Z</time>
      </trkpt>
      <trkpt lat="40.176340" lon="-4.024990">
        <ele>619.182</ele>
        <time>2022-02-26T13:37:10Z</time>
      </trkpt>
      <trkpt lat="40.176450" lon="-4.025180">
        <ele>618.814</ele>
        <time>2022-02-26T13:37:50Z</time>
      </trkpt>
      <trkpt lat="40.176470" lon="-4.025210">
        <ele>618.693</ele>
        <time>2022-02-26T13:38:30Z</time>
      </trkpt>
      <trkpt lat="40.176750" lon="-4.025770">
        <ele>617.643</ele>
        <time>2022-02-26T13:39:10Z</time>
      </trkpt>
      <trkpt lat="40.176850" lon="-4.025960">
        <ele>616.478</ele>
        <time>2022-02-26T13:39:50Z</time>
      </trkpt>
      <trkpt lat="40.177160" lon="-4.026570">
        <ele>612.533</ele>
        <time>2022-02-26T13:40:30Z</time>
      </trkpt>
      <trkpt lat="40.177210" lon="-4.026630">
        <ele>612.026</ele>
        <time>2022-02-26T13:41:10Z</time>
      </trkpt>
      <trkpt lat="40.177230" lon="-4.026670">
        <ele>612.008</ele>
        <time>2022-02-26T13:41:50Z</time>
      </trkpt>
      <trkpt lat="40.177260" lon="-4.026720">
        <ele>611.946</ele>
        <time>2022-02-26T13:42:30Z</time>
      </trkpt>
      <trkpt lat="40.177300" lon="-4.026800">
        <ele>611.963</ele>
        <time>2022-02-26T13:43:10Z</time>
      </trkpt>
      <trkpt lat="40.177330" lon="-4.026860">
        <ele>611.967</ele>
        <time>2022-02-26T13:43:50Z</time>
      </trkpt>
      <trkpt lat="40.177460" lon="-4.027200">
        <ele>612.286</ele>
        <time>2022-02-26T13:44:30Z</time>
      </trkpt>
      <trkpt lat="40.177480" lon="-4.027240">
        <ele>612.266</ele>
        <time>2022-02-26T13:45:10Z</time>
      </trkpt>
      <trkpt lat="40.177610" lon="-4.027580">
        <ele>613.578</ele>
        <time>2022-02-26T13:45:50Z</time>
      </trkpt>
      <trkpt lat="40.177640" lon="-4.027660">
        <ele>613.927</ele>
        <time>2022-02-26T13:46:30Z</time>
      </trkpt>
      <trkpt lat="40.177720" lon="-4.027870">
        <ele>614.817</ele>
        <time>2022-02-26T13:47:10Z</time>
      </trkpt>
      <trkpt lat="40.177810" lon="-4.028080">
        <ele>615.932</ele>
        <time>2022-02-26T13:47:50Z</time>
      </trkpt>
      <trkpt lat="40.177820" lon="-4.028130">
        <ele>616.092</ele>
        <time>2022-02-26T13:48:30Z</time>
      </trkpt>
      <trkpt lat="40.177910" lon="-4.028420">
        <ele>616.411</ele>
        <time>2022-02-26T13:49:10Z</time>
      </trkpt>
      <trkpt lat="40.177920" lon="-4.028470">
        <ele>616.508</ele>
        <time>2022-02-26T13:49:50Z</time>
      </trkpt>
      <trkpt lat="40.177940" lon="-4.028520">
        <ele>616.582</ele>
        <time>2022-02-26T13:50:30Z</time>
      </trkpt>
      <trkpt lat="40.177940" lon="-4.028540">
        <ele>616.649</ele>
        <time>2022-02-26T13:51:10Z</time>
      </trkpt>
      <trkpt lat="40.177970" lon="-4.028650">
        <ele>616.843</ele>
        <time>2022-02-26T13:51:50Z</time>
      </trkpt>
      <trkpt lat="40.178100" lon="-4.029040">
        <ele>617.412</ele>
        <time>2022-02-26T13:52:30Z</time>
      </trkpt>
      <trkpt lat="40.178100" lon="-4.029080">
        <ele>617.522</ele>
        <time>2022-02-26T13:53:10Z</time>
      </trkpt>
      <trkpt lat="40.178200" lon="-4.029450">
        <ele>618.534</ele>
        <time>2022-02-26T13:53:50Z</time>
      </trkpt>
      <trkpt lat="40.178320" lon="-4.030090">
        <ele>617.753</ele>
        <time>2022-02-26T13:54:30Z</time>
      </trkpt>
      <trkpt lat="40.178360" lon="-4.030350">
        <ele>616.593</ele>
        <time>2022-02-26T13:55:10Z</time>
      </trkpt>
      <trkpt lat="40.178370" lon="-4.030600">
        <ele>615.647</ele>
        <time>2022-02-26T13:55:50Z</time>
      </trkpt>
      <trkpt lat="40.178390" lon="-4.030730">
        <ele>615.029</ele>
        <time>2022-02-26T13:56:30Z</time>
      </trkpt>
      <trkpt lat="40.178460" lon="-4.031100">
        <ele>613.121</ele>
        <time>2022-02-26T13:57:10Z</time>
      </trkpt>
      <trkpt lat="40.178490" lon="-4.031380">
        <ele>611.908</ele>
        <time>2022-02-26T13:57:50Z</time>
      </trkpt>
      <trkpt lat="40.178550" lon="-4.031890">
        <ele>611.633</ele>
        <time>2022-02-26T13:58:30Z</time>
      </trkpt>
      <trkpt lat="40.178630" lon="-4.033130">
        <ele>610.070</ele>
        <time>2022-02-26T13:59:10Z</time>
      </trkpt>
      <trkpt lat="40.178640" lon="-4.033340">
        <ele>610.024</ele>
        <time>2022-02-26T13:59:50Z</time>
      </trkpt>
      <trkpt lat="40.178670" lon="-4.033810">
        <ele>611.953</ele>
        <time>2022-02-26T14:00:30Z</time>
      </trkpt>
      <trkpt lat="40.178680" lon="-4.033830">
        <ele>612.153</ele>
        <time>2022-02-26T14:01:10Z</time>
      </trkpt>
      <trkpt lat="40.178710" lon="-4.034280">
        <ele>615.995</ele>
        <time>2022-02-26T14:01:50Z</time>
      </trkpt>
      <trkpt lat="40.178720" lon="-4.034520">
        <ele>618.444</ele>
        <time>2022-02-26T14:02:30Z</time>
      </trkpt>
      <trkpt lat="40.178720" lon="-4.034530">
        <ele>618.584</ele>
        <time>2022-02-26T14:03:10Z</time>
      </trkpt>
      <trkpt lat="40.178740" lon="-4.034750">
        <ele>620.015</ele>
        <time>2022-02-26T14:03:50Z</time>
      </trkpt>
      <trkpt lat="40.178740" lon="-4.034770">
        <ele>620.065</ele>
        <time>2022-02-26T14:04:30Z</time>
      </trkpt>
      <trkpt lat="40.178800" lon="-4.035690">
        <ele>620.011</ele>
        <time>2022-02-26T14:05:10Z</time>
      </trkpt>
      <trkpt lat="40.178800" lon="-4.035710">
        <ele>620.008</ele>
        <time>2022-02-26T14:05:50Z</time>
      </trkpt>
      <trkpt lat="40.178810" lon="-4.035900">
        <ele>620.020</ele>
        <time>2022-02-26T14:06:30Z</time>
      </trkpt>
      <trkpt lat="40.178830" lon="-4.036090">
        <ele>620.027</ele>
        <time>2022-02-26T14:07:10Z</time>
      </trkpt>
      <trkpt lat="40.178920" lon="-4.036850">
        <ele>619.931</ele>
        <time>2022-02-26T14:07:50Z</time>
      </trkpt>
      <trkpt lat="40.178950" lon="-4.037050">
        <ele>619.860</ele>
        <time>2022-02-26T14:08:30Z</time>
      </trkpt>
      <trkpt lat="40.178950" lon="-4.037060">
        <ele>619.840</ele>
        <time>2022-02-26T14:09:10Z</time>
      </trkpt>
      <trkpt lat="40.178970" lon="-4.037240">
        <ele>619.752</ele>
        <time>2022-02-26T14:09:50Z</time>
      </trkpt>
      <trkpt lat="40.179100" lon="-4.037970">
        <ele>618.561</ele>
        <time>2022-02-26T14:10:30Z</time>
      </trkpt>
      <trkpt lat="40.179120" lon="-4.038090">
        <ele>618.471</ele>
        <time>2022-02-26T14:11:10Z</time>
      </trkpt>
      <trkpt lat="40.179130" lon="-4.038110">
        <ele>618.433</ele>
        <time>2022-02-26T14:11:50Z</time>
      </trkpt>
      <trkpt lat="40.179250" lon="-4.038600">
        <ele>618.723</ele>
        <time>2022-02-26T14:12:30Z</time>
      </trkpt>
      <trkpt lat="40.179340" lon="-4.038940">
        <ele>619.115</ele>
        <time>2022-02-26T14:13:10Z</time>
      </trkpt>
      <trkpt lat="40.179610" lon="-4.039810">
        <ele>620.008</ele>
        <time>2022-02-26T14:13:50Z</time>
      </trkpt>
      <trkpt lat="40.179640" lon="-4.039890">
        <ele>620.082</ele>
        <time>2022-02-26T14:14:30Z</time>
      </trkpt>
      <trkpt lat="40.179760" lon="-4.040250">
        <ele>620.049</ele>
        <time>2022-02-26T14:15:10Z</time>
      </trkpt>
      <trkpt lat="40.179840" lon="-4.040460">
        <ele>620.093</ele>
        <time>2022-02-26T14:15:50Z</time>
      </trkpt>
      <trkpt lat="40.179940" lon="-4.040600">
        <ele>620.012</ele>
        <time>2022-02-26T14:16:30Z</time>
      </trkpt>
      <trkpt lat="40.179960" lon="-4.040630">
        <ele>620.072</ele>
        <time>2022-02-26T14:17:10Z</time>
      </trkpt>
      <trkpt lat="40.180050" lon="-4.040800">
        <ele>620.054</ele>
        <time>2022-02-26T14:17:50Z</time>
      </trkpt>
      <trkpt lat="40.180046" lon="-4.040804">
        <ele>620.073</ele>
        <time>2022-02-26T14:18:30Z</time>
      </trkpt>
      <trkpt lat="40.180060" lon="-4.040790">
        <ele>620.063</ele>
        <time>2022-02-26T14:19:10Z</time>
      </trkpt>
      <trkpt lat="40.180080" lon="-4.040780">
        <ele>620.047</ele>
        <time>2022-02-26T14:19:50Z</time>
      </trkpt>
      <trkpt lat="40.180100" lon="-4.040780">
        <ele>620.029</ele>
        <time>2022-02-26T14:20:30Z</time>
      </trkpt>
      <trkpt lat="40.180120" lon="-4.040780">
        <ele>620.021</ele>
        <time>2022-02-26T14:21:10Z</time>
      </trkpt>
      <trkpt lat="40.180140" lon="-4.040780">
        <ele>620.008</ele>
        <time>2022-02-26T14:21:50Z</time>
      </trkpt>
      <trkpt lat="40.180150" lon="-4.040780">
        <ele>620.023</ele>
        <time>2022-02-26T14:22:30Z</time>
      </trkpt>
      <trkpt lat="40.180170" lon="-4.040790">
        <ele>620.060</ele>
        <time>2022-02-26T14:23:10Z</time>
      </trkpt>
      <trkpt lat="40.180190" lon="-4.040800">
        <ele>620.024</ele>
        <time>2022-02-26T14:23:50Z</time>
      </trkpt>
      <trkpt lat="40.180210" lon="-4.040820">
        <ele>620.033</ele>
        <time>2022-02-26T14:24:30Z</time>
      </trkpt>
      <trkpt lat="40.180230" lon="-4.040830">
        <ele>620.033</ele>
        <time>2022-02-26T14:25:10Z</time>
      </trkpt>
      <trkpt lat="40.180240" lon="-4.040850">
        <ele>620.035</ele>
        <time>2022-02-26T14:25:50Z</time>
      </trkpt>
      <trkpt lat="40.180260" lon="-4.040870">
        <ele>620.024</ele>
        <time>2022-02-26T14:26:30Z</time>
      </trkpt>
      <trkpt lat="40.180280" lon="-4.040900">
        <ele>620.014</ele>
        <time>2022-02-26T14:27:10Z</time>
      </trkpt>
      <trkpt lat="40.180290" lon="-4.040920">
        <ele>620.048</ele>
        <time>2022-02-26T14:27:50Z</time>
      </trkpt>
      <trkpt lat="40.180300" lon="-4.040940">
        <ele>620.061</ele>
        <time>2022-02-26T14:28:30Z</time>
      </trkpt>
      <trkpt lat="40.180310" lon="-4.040960">
        <ele>620.017</ele>
        <time>2022-02-26T14:29:10Z</time>
      </trkpt>
      <trkpt lat="40.180320" lon="-4.040980">
        <ele>620.008</ele>
        <time>2022-02-26T14:29:50Z</time>
      </trkpt>
      <trkpt lat="40.180320" lon="-4.040990">
        <ele>620.043</ele>
        <time>2022-02-26T14:30:30Z</time>
      </trkpt>
      <trkpt lat="40.180330" lon="-4.041020">
        <ele>620.060</ele>
        <time>2022-02-26T14:31:10Z</time>
      </trkpt>
      <trkpt lat="40.180330" lon="-4.041060">
        <ele>620.054</ele>
        <time>2022-02-26T14:31:50Z</time>
      </trkpt>
      <trkpt lat="40.180330" lon="-4.041090">
        <ele>620.083</ele>
        <time>2022-02-26T14:32:30Z</time>
      </trkpt>
      <trkpt lat="40.180330" lon="-4.041130">
        <ele>620.083</ele>
        <time>2022-02-26T14:33:10Z</time>
      </trkpt>
      <trkpt lat="40.180320" lon="-4.041160">
        <ele>620.055</ele>
        <time>2022-02-26T14:33:50Z</time>
      </trkpt>
      <trkpt lat="40.180310" lon="-4.041190">
        <ele>620.074</ele>
        <time>2022-02-26T14:34:30Z</time>
      </trkpt>
      <trkpt lat="40.180300" lon="-4.041220">
        <ele>620.034</ele>
        <time>2022-02-26T14:35:10Z</time>
      </trkpt>
      <trkpt lat="40.180290" lon="-4.041250">
        <ele>620.062</ele>
        <time>2022-02-26T14:35:50Z</time>
      </trkpt>
      <trkpt lat="40.180280" lon="-4.041280">
        <ele>620.083</ele>
        <time>2022-02-26T14:36:30Z</time>
      </trkpt>
      <trkpt lat="40.180270" lon="-4.041290">
        <ele>620.011</ele>
        <time>2022-02-26T14:37:10Z</time>
      </trkpt>
      <trkpt lat="40.180330" lon="-4.041530">
        <ele>620.008</ele>
        <time>2022-02-26T14:37:50Z</time>
      </trkpt>
      <trkpt lat="40.180360" lon="-4.041650">
        <ele>620.075</ele>
        <time>2022-02-26T14:38:30Z</time>
      </trkpt>
      <trkpt lat="40.180380" lon="-4.041690">
        <ele>620.012</ele>
        <time>2022-02-26T14:39:10Z</time>
      </trkpt>
      <trkpt lat="40.180510" lon="-4.041940">
        <ele>620.046</ele>
        <time>2022-02-26T14:39:50Z</time>
      </trkpt>
      <trkpt lat="40.180840" lon="-4.042560">
        <ele>620.045</ele>
        <time>2022-02-26T14:40:30Z</time>
      </trkpt>
      <trkpt lat="40.181100" lon="-4.042980">
        <ele>620.015</ele>
        <time>2022-02-26T14:41:10Z</time>
      </trkpt>
      <trkpt lat="40.181310" lon="-4.043300">
        <ele>620.047</ele>
        <time>2022-02-26T14:41:50Z</time>
      </trkpt>
      <trkpt lat="40.181460" lon="-4.043540">
        <ele>620.036</ele>
        <time>2022-02-26T14:42:30Z</time>
      </trkpt>
      <trkpt lat="40.181590" lon="-4.043710">
        <ele>619.656</ele>
        <time>2022-02-26T14:43:10Z</time>
      </trkpt>
      <trkpt lat="40.181710" lon="-4.043870">
        <ele>618.594</ele>
        <time>2022-02-26T14:43:50Z</time>
      </trkpt>
      <trkpt lat="40.182230" lon="-4.044540">
        <ele>613.357</ele>
        <time>2022-02-26T14:44:30Z</time>
      </trkpt>
      <trkpt lat="40.182270" lon="-4.044580">
        <ele>613.122</ele>
        <time>2022-02-26T14:45:10Z</time>
      </trkpt>
      <trkpt lat="40.182300" lon="-4.044620">
        <ele>613.108</ele>
        <time>2022-02-26T14:45:50Z</time>
      </trkpt>
      <trkpt lat="40.182660" lon="-4.045010">
        <ele>613.038</ele>
        <time>2022-02-26T14:46:30Z</time>
      </trkpt>
      <trkpt lat="40.182730" lon="-4.045070">
        <ele>613.345</ele>
        <time>2022-02-26T14:47:10Z</time>
      </trkpt>
      <trkpt lat="40.182750" lon="-4.045090">
        <ele>613.349</ele>
        <time>2022-02-26T14:47:50Z</time>
      </trkpt>
      <trkpt lat="40.182830" lon="-4.045170">
        <ele>613.968</ele>
        <time>2022-02-26T14:48:30Z</time>
      </trkpt>
      <trkpt lat="40.183500" lon="-4.045790">
        <ele>620.088</ele>
        <time>2022-02-26T14:49:10Z</time>
      </trkpt>
      <trkpt lat="40.184010" lon="-4.046170">
        <ele>620.410</ele>
        <time>2022-02-26T14:49:50Z</time>
      </trkpt>
      <trkpt lat="40.184200" lon="-4.046300">
        <ele>621.469</ele>
        <time>2022-02-26T14:50:30Z</time>
      </trkpt>
      <trkpt lat="40.184360" lon="-4.046400">
        <ele>623.139</ele>
        <time>2022-02-26T14:51:10Z</time>
      </trkpt>
      <trkpt lat="40.184740" lon="-4.046660">
        <ele>629.022</ele>
        <time>2022-02-26T14:51:50Z</time>
      </trkpt>
      <trkpt lat="40.185520" lon="-4.047060">
        <ele>628.562</ele>
        <time>2022-02-26T14:52:30Z</time>
      </trkpt>
      <trkpt lat="40.185680" lon="-4.047150">
        <ele>627.808</ele>
        <time>2022-02-26T14:53:10Z</time>
      </trkpt>
      <trkpt lat="40.185690" lon="-4.047160">
        <ele>627.808</ele>
        <time>2022-02-26T14:53:50Z</time>
      </trkpt>
      <trkpt lat="40.186350" lon="-4.047420">
        <ele>627.781</ele>
        <time>2022-02-26T14:54:30Z</time>
      </trkpt>
      <trkpt lat="40.186730" lon="-4.047570">
        <ele>628.258</ele>
        <time>2022-02-26T14:55:10Z</time>
      </trkpt>
      <trkpt lat="40.186800" lon="-4.047600">
        <ele>628.222</ele>
        <time>2022-02-26T14:55:50Z</time>
      </trkpt>
      <trkpt lat="40.186900" lon="-4.047630">
        <ele>628.171</ele>
        <time>2022-02-26T14:56:30Z</time>
      </trkpt>
      <trkpt lat="40.187280" lon="-4.047770">
        <ele>631.061</ele>
        <time>2022-02-26T14:57:10Z</time>
      </trkpt>
      <trkpt lat="40.187730" lon="-4.047950">
        <ele>631.043</ele>
        <time>2022-02-26T14:57:50Z</time>
      </trkpt>
      <trkpt lat="40.188320" lon="-4.048220">
        <ele>629.622</ele>
        <time>2022-02-26T14:58:30Z</time>
      </trkpt>
      <trkpt lat="40.188440" lon="-4.048280">
        <ele>629.962</ele>
        <time>2022-02-26T14:59:10Z</time>
      </trkpt>
      <trkpt lat="40.188530" lon="-4.048290">
        <ele>630.079</ele>
        <time>2022-02-26T14:59:50Z</time>
      </trkpt>
      <trkpt lat="40.188710" lon="-4.048380">
        <ele>630.505</ele>
        <time>2022-02-26T15:00:30Z</time>
      </trkpt>
      <trkpt lat="40.189020" lon="-4.048570">
        <ele>630.025</ele>
        <time>2022-02-26T15:01:10Z</time>
      </trkpt>
      <trkpt lat="40.189520" lon="-4.048880">
        <ele>629.208</ele>
        <time>2022-02-26T15:01:50Z</time>
      </trkpt>
      <trkpt lat="40.189610" lon="-4.048940">
        <ele>629.626</ele>
        <time>2022-02-26T15:02:30Z</time>
      </trkpt>
      <trkpt lat="40.189850" lon="-4.049170">
        <ele>630.073</ele>
        <time>2022-02-26T15:03:10Z</time>
      </trkpt>
      <trkpt lat="40.189930" lon="-4.049220">
        <ele>630.077</ele>
        <time>2022-02-26T15:03:50Z</time>
      </trkpt>
      <trkpt lat="40.190210" lon="-4.049440">
        <ele>631.596</ele>
        <time>2022-02-26T15:04:30Z</time>
      </trkpt>
      <trkpt lat="40.190500" lon="-4.049700">
        <ele>633.596</ele>
        <time>2022-02-26T15:05:10Z</time>
      </trkpt>
      <trkpt lat="40.190990" lon="-4.050270">
        <ele>636.678</ele>
        <time>2022-02-26T15:05:50Z</time>
      </trkpt>
      <trkpt lat="40.191070" lon="-4.050380">
        <ele>637.277</ele>
        <time>2022-02-26T15:06:30Z</time>
      </trkpt>
      <trkpt lat="40.191130" lon="-4.050480">
        <ele>637.747</ele>
        <time>2022-02-26T15:07:10Z</time>
      </trkpt>
      <trkpt lat="40.191420" lon="-4.050850">
        <ele>637.729</ele>
        <time>2022-02-26T15:07:50Z</time>
      </trkpt>
      <trkpt lat="40.191810" lon="-4.051360">
        <ele>636.900</ele>
        <time>2022-02-26T15:08:30Z</time>
      </trkpt>
      <trkpt lat="40.192060" lon="-4.051750">
        <ele>638.720</ele>
        <time>2022-02-26T15:09:10Z</time>
      </trkpt>
      <trkpt lat="40.192170" lon="-4.051930">
        <ele>639.808</ele>
        <time>2022-02-26T15:09:50Z</time>
      </trkpt>
      <trkpt lat="40.192250" lon="-4.052070">
        <ele>640.021</ele>
        <time>2022-02-26T15:10:30Z</time>
      </trkpt>
      <trkpt lat="40.192290" lon="-4.052130">
        <ele>640.268</ele>
        <time>2022-02-26T15:11:10Z</time>
      </trkpt>
      <trkpt lat="40.192400" lon="-4.052330">
        <ele>641.042</ele>
        <time>2022-02-26T15:11:50Z</time>
      </trkpt>
      <trkpt lat="40.192580" lon="-4.052660">
        <ele>642.111</ele>
        <time>2022-02-26T15:12:30Z</time>
      </trkpt>
      <trkpt lat="40.192590" lon="-4.052690">
        <ele>642.141</ele>
        <time>2022-02-26T15:13:10Z</time>
      </trkpt>
      <trkpt lat="40.192710" lon="-4.052930">
        <ele>642.033</ele>
        <time>2022-02-26T15:13:50Z</time>
      </trkpt>
      <trkpt lat="40.192800" lon="-4.053130">
        <ele>642.292</ele>
        <time>2022-02-26T15:14:30Z</time>
      </trkpt>
      <trkpt lat="40.193180" lon="-4.054030">
        <ele>641.652</ele>
        <time>2022-02-26T15:15:10Z</time>
      </trkpt>
      <trkpt lat="40.193520" lon="-4.054950">
        <ele>645.048</ele>
        <time>2022-02-26T15:15:50Z</time>
      </trkpt>
      <trkpt lat="40.193560" lon="-4.055030">
        <ele>645.461</ele>
        <time>2022-02-26T15:16:30Z</time>
      </trkpt>
      <trkpt lat="40.193600" lon="-4.055150">
        <ele>646.117</ele>
        <time>2022-02-26T15:17:10Z</time>
      </trkpt>
      <trkpt lat="40.193620" lon="-4.055210">
        <ele>646.508</ele>
        <time>2022-02-26T15:17:50Z</time>
      </trkpt>
      <trkpt lat="40.193680" lon="-4.055340">
        <ele>647.063</ele>
        <time>2022-02-26T15:18:30Z</time>
      </trkpt>
      <trkpt lat="40.193760" lon="-4.055580">
        <ele>647.670</ele>
        <time>2022-02-26T15:19:10Z</time>
      </trkpt>
      <trkpt lat="40.193840" lon="-4.055790">
        <ele>648.964</ele>
        <time>2022-02-26T15:19:50Z</time>
      </trkpt>
      <trkpt lat="40.194010" lon="-4.056250">
        <ele>648.153</ele>
        <time>2022-02-26T15:20:30Z</time>
      </trkpt>
      <trkpt lat="40.194080" lon="-4.056420">
        <ele>647.613</ele>
        <time>2022-02-26T15:21:10Z</time>
      </trkpt>
      <trkpt lat="40.194160" lon="-4.056630">
        <ele>647.075</ele>
        <time>2022-02-26T15:21:50Z</time>
      </trkpt>
      <trkpt lat="40.194240" lon="-4.056840">
        <ele>646.024</ele>
        <time>2022-02-26T15:22:30Z</time>
      </trkpt>
      <trkpt lat="40.194350" lon="-4.057110">
        <ele>644.974</ele>
        <time>2022-02-26T15:23:10Z</time>
      </trkpt>
      <trkpt lat="40.194430" lon="-4.057220">
        <ele>644.125</ele>
        <time>2022-02-26T15:23:50Z</time>
      </trkpt>
      <trkpt lat="40.194520" lon="-4.057400">
        <ele>643.526</ele>
        <time>2022-02-26T15:24:30Z</time>
      </trkpt>
      <trkpt lat="40.194522" lon="-4.057403">
        <ele>643.408</ele>
        <time>2022-02-26T15:25:10Z</time>
      </trkpt>
      <trkpt lat="40.194540" lon="-4.057400">
        <ele>643.308</ele>
        <time>2022-02-26T15:25:50Z</time>
      </trkpt>
      <trkpt lat="40.194570" lon="-4.057390">
        <ele>643.131</ele>
        <time>2022-02-26T15:26:30Z</time>
      </trkpt>
      <trkpt lat="40.194590" lon="-4.057390">
        <ele>643.058</ele>
        <time>2022-02-26T15:27:10Z</time>
      </trkpt>
      <trkpt lat="40.194620" lon="-4.057400">
        <ele>642.742</ele>
        <time>2022-02-26T15:27:50Z</time>
      </trkpt>
      <trkpt lat="40.194640" lon="-4.057400">
        <ele>642.631</ele>
        <time>2022-02-26T15:28:30Z</time>
      </trkpt>
      <trkpt lat="40.194670" lon="-4.057410">
        <ele>642.421</ele>
        <time>2022-02-26T15:29:10Z</time>
      </trkpt>
      <trkpt lat="40.194690" lon="-4.057430">
        <ele>642.263</ele>
        <time>2022-02-26T15:29:50Z</time>
      </trkpt>
      <trkpt lat="40.194710" lon="-4.057440">
        <ele>642.152</ele>
        <time>2022-02-26T15:30:30Z</time>
      </trkpt>
      <trkpt lat="40.194740" lon="-4.057470">
        <ele>641.922</ele>
        <time>2022-02-26T15:31:10Z</time>
      </trkpt>
      <trkpt lat="40.194750" lon="-4.057490">
        <ele>641.956</ele>
        <time>2022-02-26T15:31:50Z</time>
      </trkpt>
      <trkpt lat="40.194770" lon="-4.057520">
        <ele>641.859</ele>
        <time>2022-02-26T15:32:30Z</time>
      </trkpt>
      <trkpt lat="40.194780" lon="-4.057550">
        <ele>641.814</ele>
        <time>2022-02-26T15:33:10Z</time>
      </trkpt>
      <trkpt lat="40.194790" lon="-4.057580">
        <ele>641.808</ele>
        <time>2022-02-26T15:33:50Z</time>
      </trkpt>
      <trkpt lat="40.194800" lon="-4.057610">
        <ele>641.774</ele>
        <time>2022-02-26T15:34:30Z</time>
      </trkpt>
      <trkpt lat="40.194810" lon="-4.057630">
        <ele>641.761</ele>
        <time>2022-02-26T15:35:10Z</time>
      </trkpt>
      <trkpt lat="40.194810" lon="-4.057640">
        <ele>641.775</ele>
        <time>2022-02-26T15:35:50Z</time>
      </trkpt>
      <trkpt lat="40.194810" lon="-4.057670">
        <ele>641.764</ele>
        <time>2022-02-26T15:36:30Z</time>
      </trkpt>
      <trkpt lat="40.194810" lon="-4.057700">
        <ele>641.794</ele>
        <time>2022-02-26T15:37:10Z</time>
      </trkpt>
      <trkpt lat="40.194810" lon="-4.057730">
        <ele>641.756</ele>
        <time>2022-02-26T15:37:50Z</time>
      </trkpt>
      <trkpt lat="40.194810" lon="-4.057760">
        <ele>641.745</ele>
        <time>2022-02-26T15:38:30Z</time>
      </trkpt>
      <trkpt lat="40.194800" lon="-4.057790">
        <ele>641.725</ele>
        <time>2022-02-26T15:39:10Z</time>
      </trkpt>
      <trkpt lat="40.194790" lon="-4.057820">
        <ele>641.892</ele>
        <time>2022-02-26T15:39:50Z</time>
      </trkpt>
      <trkpt lat="40.194780" lon="-4.057850">
        <ele>641.873</ele>
        <time>2022-02-26T15:40:30Z</time>
      </trkpt>
      <trkpt lat="40.194770" lon="-4.057870">
        <ele>641.820</ele>
        <time>2022-02-26T15:41:10Z</time>
      </trkpt>
      <trkpt lat="40.194750" lon="-4.057890">
        <ele>641.908</ele>
        <time>2022-02-26T15:41:50Z</time>
      </trkpt>
      <trkpt lat="40.194730" lon="-4.057920">
        <ele>642.048</ele>
        <time>2022-02-26T15:42:30Z</time>
      </trkpt>
      <trkpt lat="40.194770" lon="-4.058170">
        <ele>641.885</ele>
        <time>2022-02-26T15:43:10Z</time>
      </trkpt>
      <trkpt lat="40.194800" lon="-4.058310">
        <ele>641.559</ele>
        <time>2022-02-26T15:43:50Z</time>
      </trkpt>
      <trkpt lat="40.194940" lon="-4.058730">
        <ele>640.398</ele>
        <time>2022-02-26T15:44:30Z</time>
      </trkpt>
      <trkpt lat="40.195110" lon="-4.059220">
        <ele>640.018</ele>
        <time>2022-02-26T15:45:10Z</time>
      </trkpt>
      <trkpt lat="40.195130" lon="-4.059290">
        <ele>640.080</ele>
        <time>2022-02-26T15:45:50Z</time>
      </trkpt>
      <trkpt lat="40.195220" lon="-4.059600">
        <ele>640.049</ele>
        <time>2022-02-26T15:46:30Z</time>
      </trkpt>
      <trkpt lat="40.195330" lon="-4.059920">
        <ele>640.079</ele>
        <time>2022-02-26T15:47:10Z</time>
      </trkpt>
      <trkpt lat="40.195410" lon="-4.060130">
        <ele>640.067</ele>
        <time>2022-02-26T15:47:50Z</time>
      </trkpt>
      <trkpt lat="40.195450" lon="-4.060250">
        <ele>640.081</ele>
        <time>2022-02-26T15:48:30Z</time>
      </trkpt>
      <trkpt lat="40.195480" lon="-4.060340">
        <ele>640.019</ele>
        <time>2022-02-26T15:49:10Z</time>
      </trkpt>
      <trkpt lat="40.195490" lon="-4.060380">
        <ele>640.008</ele>
        <time>2022-02-26T15:49:50Z</time>
      </trkpt>
      <trkpt lat="40.195650" lon="-4.060790">
        <ele>640.075</ele>
        <time>2022-02-26T15:50:30Z</time>
      </trkpt>
      <trkpt lat="40.195820" lon="-4.061240">
        <ele>640.052</ele>
        <time>2022-02-26T15:51:10Z</time>
      </trkpt>
      <trkpt lat="40.196000" lon="-4.061780">
        <ele>640.066</ele>
        <time>2022-02-26T15:51:50Z</time>
      </trkpt>
      <trkpt lat="40.196160" lon="-4.062250">
        <ele>640.025</ele>
        <time>2022-02-26T15:52:30Z</time>
      </trkpt>
      <trkpt lat="40.196340" lon="-4.062750">
        <ele>640.085</ele>
        <time>2022-02-26T15:53:10Z</time>
      </trkpt>
      <trkpt lat="40.196500" lon="-4.063230">
        <ele>636.697</ele>
        <time>2022-02-26T15:53:50Z</time>
      </trkpt>
      <trkpt lat="40.196530" lon="-4.063320">
        <ele>635.656</ele>
        <time>2022-02-26T15:54:30Z</time>
      </trkpt>
      <trkpt lat="40.196830" lon="-4.064350">
        <ele>629.216</ele>
        <time>2022-02-26T15:55:10Z</time>
      </trkpt>
      <trkpt lat="40.196900" lon="-4.064570">
        <ele>629.028</ele>
        <time>2022-02-26T15:55:50Z</time>
      </trkpt>
      <trkpt lat="40.196920" lon="-4.064650">
        <ele>629.089</ele>
        <time>2022-02-26T15:56:30Z</time>
      </trkpt>
      <trkpt lat="40.197060" lon="-4.065240">
        <ele>628.117</ele>
        <time>2022-02-26T15:57:10Z</time>
      </trkpt>
      <trkpt lat="40.197110" lon="-4.065410">
        <ele>628.008</ele>
        <time>2022-02-26T15:57:50Z</time>
      </trkpt>
      <trkpt lat="40.197180" lon="-4.065680">
        <ele>627.631</ele>
        <time>2022-02-26T15:58:30Z</time>
      </trkpt>
      <trkpt lat="40.197240" lon="-4.065910">
        <ele>627.258</ele>
        <time>2022-02-26T15:59:10Z</time>
      </trkpt>
      <trkpt lat="40.197380" lon="-4.066460">
        <ele>628.062</ele>
        <time>2022-02-26T15:59:50Z</time>
      </trkpt>
      <trkpt lat="40.197440" lon="-4.066730">
        <ele>628.291</ele>
        <time>2022-02-26T16:00:30Z</time>
      </trkpt>
      <trkpt lat="40.197460" lon="-4.066800">
        <ele>628.221</ele>
        <time>2022-02-26T16:01:10Z</time>
      </trkpt>
      <trkpt lat="40.197510" lon="-4.067030">
        <ele>627.853</ele>
        <time>2022-02-26T16:01:50Z</time>
      </trkpt>
      <trkpt lat="40.197540" lon="-4.067140">
        <ele>627.882</ele>
        <time>2022-02-26T16:02:30Z</time>
      </trkpt>
      <trkpt lat="40.197570" lon="-4.067250">
        <ele>628.092</ele>
        <time>2022-02-26T16:03:10Z</time>
      </trkpt>
      <trkpt lat="40.197640" lon="-4.067540">
        <ele>628.939</ele>
        <time>2022-02-26T16:03:50Z</time>
      </trkpt>
      <trkpt lat="40.197710" lon="-4.067810">
        <ele>628.901</ele>
        <time>2022-02-26T16:04:30Z</time>
      </trkpt>
      <trkpt lat="40.197790" lon="-4.068090">
        <ele>629.021</ele>
        <time>2022-02-26T16:05:10Z</time>
      </trkpt>
      <trkpt lat="40.197810" lon="-4.068140">
        <ele>629.008</ele>
        <time>2022-02-26T16:05:50Z</time>
      </trkpt>
      <trkpt lat="40.197890" lon="-4.068350">
        <ele>629.222</ele>
        <time>2022-02-26T16:06:30Z</time>
      </trkpt>
      <trkpt lat="40.197960" lon="-4.068520">
        <ele>629.319</ele>
        <time>2022-02-26T16:07:10Z</time>
      </trkpt>
      <trkpt lat="40.197970" lon="-4.068560">
        <ele>629.373</ele>
        <time>2022-02-26T16:07:50Z</time>
      </trkpt>
      <trkpt lat="40.198020" lon="-4.068670">
        <ele>629.272</ele>
        <time>2022-02-26T16:08:30Z</time>
      </trkpt>
      <trkpt lat="40.198110" lon="-4.068850">
        <ele>628.812</ele>
        <time>2022-02-26T16:09:10Z</time>
      </trkpt>
      <trkpt lat="40.198160" lon="-4.068960">
        <ele>628.834</ele>
        <time>2022-02-26T16:09:50Z</time>
      </trkpt>
      <trkpt lat="40.198280" lon="-4.069170">
        <ele>628.613</ele>
        <time>2022-02-26T16:10:30Z</time>
      </trkpt>
      <trkpt lat="40.198510" lon="-4.069490">
        <ele>627.923</ele>
        <time>2022-02-26T16:11:10Z</time>
      </trkpt>
      <trkpt lat="40.198540" lon="-4.069530">
        <ele>627.947</ele>
        <time>2022-02-26T16:11:50Z</time>
      </trkpt>
      <trkpt lat="40.198650" lon="-4.069690">
        <ele>627.429</ele>
        <time>2022-02-26T16:12:30Z</time>
      </trkpt>
      <trkpt lat="40.198870" lon="-4.069950">
        <ele>626.321</ele>
        <time>2022-02-26T16:13:10Z</time>
      </trkpt>
      <trkpt lat="40.198900" lon="-4.069980">
        <ele>626.108</ele>
        <time>2022-02-26T16:13:50Z</time>
      </trkpt>
      <trkpt lat="40.199050" lon="-4.070120">
        <ele>625.443</ele>
        <time>2022-02-26T16:14:30Z</time>
      </trkpt>
      <trkpt lat="40.199190" lon="-4.070270">
        <ele>625.220</ele>
        <time>2022-02-26T16:15:10Z</time>
      </trkpt>
      <trkpt lat="40.199610" lon="-4.070700">
        <ele>625.724</ele>
        <time>2022-02-26T16:15:50Z</time>
      </trkpt>
      <trkpt lat="40.199660" lon="-4.070750">
        <ele>625.933</ele>
        <time>2022-02-26T16:16:30Z</time>
      </trkpt>
      <trkpt lat="40.199900" lon="-4.070980">
        <ele>624.643</ele>
        <time>2022-02-26T16:17:10Z</time>
      </trkpt>
      <trkpt lat="40.200030" lon="-4.071090">
        <ele>624.155</ele>
        <time>2022-02-26T16:17:50Z</time>
      </trkpt>
      <trkpt lat="40.200330" lon="-4.071410">
        <ele>623.084</ele>
        <time>2022-02-26T16:18:30Z</time>
      </trkpt>
      <trkpt lat="40.200720" lon="-4.071930">
        <ele>624.244</ele>
        <time>2022-02-26T16:19:10Z</time>
      </trkpt>
      <trkpt lat="40.200950" lon="-4.072290">
        <ele>625.084</ele>
        <time>2022-02-26T16:19:50Z</time>
      </trkpt>
      <trkpt lat="40.201030" lon="-4.072430">
        <ele>625.607</ele>
        <time>2022-02-26T16:20:30Z</time>
      </trkpt>
      <trkpt lat="40.201090" lon="-4.072530">
        <ele>626.017</ele>
        <time>2022-02-26T16:21:10Z</time>
      </trkpt>
      <trkpt lat="40.201190" lon="-4.072720">
        <ele>627.408</ele>
        <time>2022-02-26T16:21:50Z</time>
      </trkpt>
      <trkpt lat="40.201370" lon="-4.073070">
        <ele>629.057</ele>
        <time>2022-02-26T16:22:30Z</time>
      </trkpt>
      <trkpt lat="40.201510" lon="-4.073390">
        <ele>632.764</ele>
        <time>2022-02-26T16:23:10Z</time>
      </trkpt>
      <trkpt lat="40.201640" lon="-4.073760">
        <ele>636.348</ele>
        <time>2022-02-26T16:23:50Z</time>
      </trkpt>
      <trkpt lat="40.201840" lon="-4.074320">
        <ele>638.627</ele>
        <time>2022-02-26T16:24:30Z</time>
      </trkpt>
      <trkpt lat="40.201860" lon="-4.074380">
        <ele>638.867</ele>
        <time>2022-02-26T16:25:10Z</time>
      </trkpt>
      <trkpt lat="40.201900" lon="-4.074490">
        <ele>639.279</ele>
        <time>2022-02-26T16:25:50Z</time>
      </trkpt>
      <trkpt lat="40.201960" lon="-4.074710">
        <ele>640.018</ele>
        <time>2022-02-26T16:26:30Z</time>
      </trkpt>
      <trkpt lat="40.202030" lon="-4.074930">
        <ele>640.098</ele>
        <time>2022-02-26T16:27:10Z</time>
      </trkpt>
      <trkpt lat="40.202140" lon="-4.075240">
        <ele>640.034</ele>
        <time>2022-02-26T16:27:50Z</time>
      </trkpt>
      <trkpt lat="40.202420" lon="-4.076100">
        <ele>640.055</ele>
        <time>2022-02-26T16:28:30Z</time>
      </trkpt>
      <trkpt lat="40.202570" lon="-4.076540">
        <ele>640.010</ele>
        <time>2022-02-26T16:29:10Z</time>
      </trkpt>
      <trkpt lat="40.202630" lon="-4.076720">
        <ele>640.008</ele>
        <time>2022-02-26T16:29:50Z</time>
      </trkpt>
      <trkpt lat="40.202740" lon="-4.077080">
        <ele>640.022</ele>
        <time>2022-02-26T16:30:30Z</time>
      </trkpt>
      <trkpt lat="40.202900" lon="-4.077570">
        <ele>640.049</ele>
        <time>2022-02-26T16:31:10Z</time>
      </trkpt>
      <trkpt lat="40.203040" lon="-4.077830">
        <ele>640.063</ele>
        <time>2022-02-26T16:31:50Z</time>
      </trkpt>
      <trkpt lat="40.203060" lon="-4.077830">
        <ele>640.092</ele>
        <time>2022-02-26T16:32:30Z</time>
      </trkpt>
      <trkpt lat="40.203070" lon="-4.077830">
        <ele>640.152</ele>
        <time>2022-02-26T16:33:10Z</time>
      </trkpt>
      <trkpt lat="40.203080" lon="-4.077840">
        <ele>640.214</ele>
        <time>2022-02-26T16:33:50Z</time>
      </trkpt>
      <trkpt lat="40.203090" lon="-4.077840">
        <ele>640.293</ele>
        <time>2022-02-26T16:34:30Z</time>
      </trkpt>
      <trkpt lat="40.203100" lon="-4.077850">
        <ele>640.373</ele>
        <time>2022-02-26T16:35:10Z</time>
      </trkpt>
      <trkpt lat="40.203120" lon="-4.077860">
        <ele>640.514</ele>
        <time>2022-02-26T16:35:50Z</time>
      </trkpt>
      <trkpt lat="40.203130" lon="-4.077870">
        <ele>640.554</ele>
        <time>2022-02-26T16:36:30Z</time>
      </trkpt>
      <trkpt lat="40.203140" lon="-4.077880">
        <ele>640.609</ele>
        <time>2022-02-26T16:37:10Z</time>
      </trkpt>
      <trkpt lat="40.203150" lon="-4.077890">
        <ele>640.708</ele>
        <time>2022-02-26T16:37:50Z</time>
      </trkpt>
      <trkpt lat="40.203150" lon="-4.077900">
        <ele>640.760</ele>
        <time>2022-02-26T16:38:30Z</time>
      </trkpt>
      <trkpt lat="40.203160" lon="-4.077910">
        <ele>640.817</ele>
        <time>2022-02-26T16:39:10Z</time>
      </trkpt>
      <trkpt lat="40.203170" lon="-4.077930">
        <ele>640.831</ele>
        <time>2022-02-26T16:39:50Z</time>
      </trkpt>
      <trkpt lat="40.203180" lon="-4.077940">
        <ele>640.910</ele>
        <time>2022-02-26T16:40:30Z</time>
      </trkpt>
      <trkpt lat="40.203180" lon="-4.077960">
        <ele>640.930</ele>
        <time>2022-02-26T16:41:10Z</time>
      </trkpt>
      <trkpt lat="40.203190" lon="-4.077970">
        <ele>641.092</ele>
        <time>2022-02-26T16:41:50Z</time>
      </trkpt>
      <trkpt lat="40.203190" lon="-4.077990">
        <ele>641.031</ele>
        <time>2022-02-26T16:42:30Z</time>
      </trkpt>
      <trkpt lat="40.203190" lon="-4.078010">
        <ele>641.051</ele>
        <time>2022-02-26T16:43:10Z</time>
      </trkpt>
      <trkpt lat="40.203200" lon="-4.078020">
        <ele>641.096</ele>
        <time>2022-02-26T16:43:50Z</time>
      </trkpt>
      <trkpt lat="40.203200" lon="-4.078040">
        <ele>641.031</ele>
        <time>2022-02-26T16:44:30Z</time>
      </trkpt>
      <trkpt lat="40.203200" lon="-4.078050">
        <ele>641.024</ele>
        <time>2022-02-26T16:45:10Z</time>
      </trkpt>
      <trkpt lat="40.203200" lon="-4.078070">
        <ele>641.008</ele>
        <time>2022-02-26T16:45:50Z</time>
      </trkpt>
      <trkpt lat="40.203200" lon="-4.078080">
        <ele>641.068</ele>
        <time>2022-02-26T16:46:30Z</time>
      </trkpt>
      <trkpt lat="40.203190" lon="-4.078100">
        <ele>641.075</ele>
        <time>2022-02-26T16:47:10Z</time>
      </trkpt>
      <trkpt lat="40.203190" lon="-4.078110">
        <ele>641.079</ele>
        <time>2022-02-26T16:47:50Z</time>
      </trkpt>
      <trkpt lat="40.203190" lon="-4.078120">
        <ele>641.068</ele>
        <time>2022-02-26T16:48:30Z</time>
      </trkpt>
      <trkpt lat="40.203190" lon="-4.078130">
        <ele>641.018</ele>
        <time>2022-02-26T16:49:10Z</time>
      </trkpt>
      <trkpt lat="40.203180" lon="-4.078140">
        <ele>640.960</ele>
        <time>2022-02-26T16:49:50Z</time>
      </trkpt>
      <trkpt lat="40.203180" lon="-4.078150">
        <ele>640.969</ele>
        <time>2022-02-26T16:50:30Z</time>
      </trkpt>
      <trkpt lat="40.203170" lon="-4.078160">
        <ele>640.899</ele>
        <time>2022-02-26T16:51:10Z</time>
      </trkpt>
      <trkpt lat="40.203170" lon="-4.078170">
        <ele>640.884</ele>
        <time>2022-02-26T16:51:50Z</time>
      </trkpt>
      <trkpt lat="40.203160" lon="-4.078180">
        <ele>640.807</ele>
        <time>2022-02-26T16:52:30Z</time>
      </trkpt>
      <trkpt lat="40.203160" lon="-4.078190">
        <ele>640.817</ele>
        <time>2022-02-26T16:53:10Z</time>
      </trkpt>
      <trkpt lat="40.203210" lon="-4.078500">
        <ele>641.108</ele>
        <time>2022-02-26T16:53:50Z</time>
      </trkpt>
      <trkpt lat="40.203350" lon="-4.078900">
        <ele>642.237</ele>
        <time>2022-02-26T16:54:30Z</time>
      </trkpt>
      <trkpt lat="40.203650" lon="-4.079790">
        <ele>646.364</ele>
        <time>2022-02-26T16:55:10Z</time>
      </trkpt>
      <trkpt lat="40.203740" lon="-4.080050">
        <ele>647.098</ele>
        <time>2022-02-26T16:55:50Z</time>
      </trkpt>
      <trkpt lat="40.203780" lon="-4.080200">
        <ele>647.727</ele>
        <time>2022-02-26T16:56:30Z</time>
      </trkpt>
      <trkpt lat="40.203790" lon="-4.080230">
        <ele>647.827</ele>
        <time>2022-02-26T16:57:10Z</time>
      </trkpt>
      <trkpt lat="40.203890" lon="-4.080330">
        <ele>649.069</ele>
        <time>2022-02-26T16:57:50Z</time>
      </trkpt>
      <trkpt lat="40.203950" lon="-4.080400">
        <ele>649.278</ele>
        <time>2022-02-26T16:58:30Z</time>
      </trkpt>
      <trkpt lat="40.203951" lon="-4.080397">
        <ele>649.228</ele>
        <time>2022-02-26T16:59:10Z</time>
      </trkpt>
      <trkpt lat="40.203960" lon="-4.080400">
        <ele>649.316</ele>
        <time>2022-02-26T16:59:50Z</time>
      </trkpt>
      <trkpt lat="40.203980" lon="-4.080410">
        <ele>649.376</ele>
        <time>2022-02-26T17:00:30Z</time>
      </trkpt>
      <trkpt lat="40.203990" lon="-4.080410">
        <ele>649.413</ele>
        <time>2022-02-26T17:01:10Z</time>
      </trkpt>
      <trkpt lat="40.204000" lon="-4.080420">
        <ele>649.408</ele>
        <time>2022-02-26T17:01:50Z</time>
      </trkpt>
      <trkpt lat="40.204010" lon="-4.080430">
        <ele>649.450</ele>
        <time>2022-02-26T17:02:30Z</time>
      </trkpt>
      <trkpt lat="40.204030" lon="-4.080440">
        <ele>649.587</ele>
        <time>2022-02-26T17:03:10Z</time>
      </trkpt>
      <trkpt lat="40.204040" lon="-4.080450">
        <ele>649.511</ele>
        <time>2022-02-26T17:03:50Z</time>
      </trkpt>
      <trkpt lat="40.204050" lon="-4.080460">
        <ele>649.660</ele>
        <time>2022-02-26T17:04:30Z</time>
      </trkpt>
      <trkpt lat="40.204060" lon="-4.080470">
        <ele>649.630</ele>
        <time>2022-02-26T17:05:10Z</time>
      </trkpt>
      <trkpt lat="40.204070" lon="-4.080490">
        <ele>649.772</ele>
        <time>2022-02-26T17:05:50Z</time>
      </trkpt>
      <trkpt lat="40.204070" lon="-4.080500">
        <ele>649.761</ele>
        <time>2022-02-26T17:06:30Z</time>
      </trkpt>
      <trkpt lat="40.204080" lon="-4.080520">
        <ele>649.761</ele>
        <time>2022-02-26T17:07:10Z</time>
      </trkpt>
      <trkpt lat="40.204080" lon="-4.080530">
        <ele>649.786</ele>
        <time>2022-02-26T17:07:50Z</time>
      </trkpt>
      <trkpt lat="40.204090" lon="-4.080550">
        <ele>649.760</ele>
        <time>2022-02-26T17:08:30Z</time>
      </trkpt>
      <trkpt lat="40.204090" lon="-4.080570">
        <ele>649.726</ele>
        <time>2022-02-26T17:09:10Z</time>
      </trkpt>
      <trkpt lat="40.204100" lon="-4.080580">
        <ele>649.808</ele>
        <time>2022-02-26T17:09:50Z</time>
      </trkpt>
      <trkpt lat="40.204100" lon="-4.080600">
        <ele>649.877</ele>
        <time>2022-02-26T17:10:30Z</time>
      </trkpt>
      <trkpt lat="40.204100" lon="-4.080620">
        <ele>649.894</ele>
        <time>2022-02-26T17:11:10Z</time>
      </trkpt>
      <trkpt lat="40.204100" lon="-4.080640">
        <ele>649.858</ele>
        <time>2022-02-26T17:11:50Z</time>
      </trkpt>
      <trkpt lat="40.204100" lon="-4.080660">
        <ele>649.837</ele>
        <time>2022-02-26T17:12:30Z</time>
      </trkpt>
      <trkpt lat="40.204090" lon="-4.080670">
        <ele>649.767</ele>
        <time>2022-02-26T17:13:10Z</time>
      </trkpt>
      <trkpt lat="40.204090" lon="-4.080690">
        <ele>649.749</ele>
        <time>2022-02-26T17:13:50Z</time>
      </trkpt>
      <trkpt lat="40.204090" lon="-4.080700">
        <ele>649.798</ele>
        <time>2022-02-26T17:14:30Z</time>
      </trkpt>
      <trkpt lat="40.204090" lon="-4.080710">
        <ele>649.778</ele>
        <time>2022-02-26T17:15:10Z</time>
      </trkpt>
      <trkpt lat="40.204080" lon="-4.080720">
        <ele>649.719</ele>
        <time>2022-02-26T17:15:50Z</time>
      </trkpt>
      <trkpt lat="40.204080" lon="-4.080730">
        <ele>649.709</ele>
        <time>2022-02-26T17:16:30Z</time>
      </trkpt>
      <trkpt lat="40.204070" lon="-4.080740">
        <ele>649.719</ele>
        <time>2022-02-26T17:17:10Z</time>
      </trkpt>
      <trkpt lat="40.204070" lon="-4.080760">
        <ele>649.708</ele>
        <time>2022-02-26T17:17:50Z</time>
      </trkpt>
      <trkpt lat="40.204060" lon="-4.081020">
        <ele>649.910</ele>
        <time>2022-02-26T17:18:30Z</time>
      </trkpt>
      <trkpt lat="40.204230" lon="-4.081520">
        <ele>650.067</ele>
        <time>2022-02-26T17:19:10Z</time>
      </trkpt>
      <trkpt lat="40.204870" lon="-4.083470">
        <ele>647.851</ele>
        <time>2022-02-26T17:19:50Z</time>
      </trkpt>
      <trkpt lat="40.205260" lon="-4.084620">
        <ele>651.580</ele>
        <time>2022-02-26T17:20:30Z</time>
      </trkpt>
      <trkpt lat="40.205590" lon="-4.085530">
        <ele>653.110</ele>
        <time>2022-02-26T17:21:10Z</time>
      </trkpt>
      <trkpt lat="40.205690" lon="-4.085870">
        <ele>653.352</ele>
        <time>2022-02-26T17:21:50Z</time>
      </trkpt>
      <trkpt lat="40.205930" lon="-4.086590">
        <ele>652.421</ele>
        <time>2022-02-26T17:22:30Z</time>
      </trkpt>
      <trkpt lat="40.206210" lon="-4.087450">
        <ele>656.621</ele>
        <time>2022-02-26T17:23:10Z</time>
      </trkpt>
      <trkpt lat="40.206460" lon="-4.088210">
        <ele>657.011</ele>
        <time>2022-02-26T17:23:50Z</time>
      </trkpt>
      <trkpt lat="40.206750" lon="-4.089070">
        <ele>658.021</ele>
        <time>2022-02-26T17:24:30Z</time>
      </trkpt>
      <trkpt lat="40.206850" lon="-4.089760">
        <ele>659.003</ele>
        <time>2022-02-26T17:25:10Z</time>
      </trkpt>
      <trkpt lat="40.206970" lon="-4.090530">
        <ele>659.008</ele>
        <time>2022-02-26T17:25:50Z</time>
      </trkpt>
      <trkpt lat="40.206980" lon="-4.090640">
        <ele>659.350</ele>
        <time>2022-02-26T17:26:30Z</time>
      </trkpt>
      <trkpt lat="40.207100" lon="-4.091380">
        <ele>659.427</ele>
        <time>2022-02-26T17:27:10Z</time>
      </trkpt>
      <trkpt lat="40.207140" lon="-4.091610">
        <ele>659.351</ele>
        <time>2022-02-26T17:27:50Z</time>
      </trkpt>
      <trkpt lat="40.207230" lon="-4.091800">
        <ele>659.550</ele>
        <time>2022-02-26T17:28:30Z</time>
      </trkpt>
      <trkpt lat="40.207228" lon="-4.091805">
        <ele>659.540</ele>
        <time>2022-02-26T17:29:10Z</time>
      </trkpt>
      <trkpt lat="40.207230" lon="-4.091810">
        <ele>659.572</ele>
        <time>2022-02-26T17:29:50Z</time>
      </trkpt>
      <trkpt lat="40.207240" lon="-4.091800">
        <ele>659.491</ele>
        <time>2022-02-26T17:30:30Z</time>
      </trkpt>
      <trkpt lat="40.207250" lon="-4.091800">
        <ele>659.461</ele>
        <time>2022-02-26T17:31:10Z</time>
      </trkpt>
      <trkpt lat="40.207250" lon="-4.091810">
        <ele>659.569</ele>
        <time>2022-02-26T17:31:50Z</time>
      </trkpt>
      <trkpt lat="40.207260" lon="-4.091810">
        <ele>659.404</ele>
        <time>2022-02-26T17:32:30Z</time>
      </trkpt>
      <trkpt lat="40.207270" lon="-4.091810">
        <ele>659.424</ele>
        <time>2022-02-26T17:33:10Z</time>
      </trkpt>
      <trkpt lat="40.207280" lon="-4.091820">
        <ele>659.408</ele>
        <time>2022-02-26T17:33:50Z</time>
      </trkpt>
      <trkpt lat="40.207290" lon="-4.091830">
        <ele>659.495</ele>
        <time>2022-02-26T17:34:30Z</time>
      </trkpt>
      <trkpt lat="40.207300" lon="-4.091840">
        <ele>659.492</ele>
        <time>2022-02-26T17:35:10Z</time>
      </trkpt>
      <trkpt lat="40.207310" lon="-4.091850">
        <ele>659.566</ele>
        <time>2022-02-26T17:35:50Z</time>
      </trkpt>
      <trkpt lat="40.207310" lon="-4.091860">
        <ele>659.545</ele>
        <time>2022-02-26T17:36:30Z</time>
      </trkpt>
      <trkpt lat="40.207320" lon="-4.091870">
        <ele>659.575</ele>
        <time>2022-02-26T17:37:10Z</time>
      </trkpt>
      <trkpt lat="40.207320" lon="-4.091880">
        <ele>659.577</ele>
        <time>2022-02-26T17:37:50Z</time>
      </trkpt>
      <trkpt lat="40.207330" lon="-4.091880">
        <ele>659.556</ele>
        <time>2022-02-26T17:38:30Z</time>
      </trkpt>
      <trkpt lat="40.207330" lon="-4.091890">
        <ele>659.546</ele>
        <time>2022-02-26T17:39:10Z</time>
      </trkpt>
      <trkpt lat="40.207340" lon="-4.091900">
        <ele>659.564</ele>
        <time>2022-02-26T17:39:50Z</time>
      </trkpt>
      <trkpt lat="40.207340" lon="-4.091910">
        <ele>659.506</ele>
        <time>2022-02-26T17:40:30Z</time>
      </trkpt>
      <trkpt lat="40.207340" lon="-4.091920">
        <ele>659.516</ele>
        <time>2022-02-26T17:41:10Z</time>
      </trkpt>
      <trkpt lat="40.207350" lon="-4.091930">
        <ele>659.508</ele>
        <time>2022-02-26T17:41:50Z</time>
      </trkpt>
      <trkpt lat="40.207350" lon="-4.091940">
        <ele>659.595</ele>
        <time>2022-02-26T17:42:30Z</time>
      </trkpt>
      <trkpt lat="40.207350" lon="-4.091950">
        <ele>659.512</ele>
        <time>2022-02-26T17:43:10Z</time>
      </trkpt>
      <trkpt lat="40.207350" lon="-4.091960">
        <ele>659.626</ele>
        <time>2022-02-26T17:43:50Z</time>
      </trkpt>
      <trkpt lat="40.207360" lon="-4.091970">
        <ele>659.515</ele>
        <time>2022-02-26T17:44:30Z</time>
      </trkpt>
      <trkpt lat="40.207360" lon="-4.091980">
        <ele>659.675</ele>
        <time>2022-02-26T17:45:10Z</time>
      </trkpt>
      <trkpt lat="40.207360" lon="-4.091990">
        <ele>659.677</ele>
        <time>2022-02-26T17:45:50Z</time>
      </trkpt>
      <trkpt lat="40.207360" lon="-4.092000">
        <ele>659.686</ele>
        <time>2022-02-26T17:46:30Z</time>
      </trkpt>
      <trkpt lat="40.207360" lon="-4.092010">
        <ele>659.696</ele>
        <time>2022-02-26T17:47:10Z</time>
      </trkpt>
      <trkpt lat="40.207360" lon="-4.092020">
        <ele>659.648</ele>
        <time>2022-02-26T17:47:50Z</time>
      </trkpt>
      <trkpt lat="40.207360" lon="-4.092030">
        <ele>659.761</ele>
        <time>2022-02-26T17:48:30Z</time>
      </trkpt>
      <trkpt lat="40.207360" lon="-4.092040">
        <ele>659.717</ele>
        <time>2022-02-26T17:49:10Z</time>
      </trkpt>
      <trkpt lat="40.207360" lon="-4.092050">
        <ele>659.708</ele>
        <time>2022-02-26T17:49:50Z</time>
      </trkpt>
      <trkpt lat="40.207350" lon="-4.092060">
        <ele>659.793</ele>
        <time>2022-02-26T17:50:30Z</time>
      </trkpt>
      <trkpt lat="40.207350" lon="-4.092070">
        <ele>659.710</ele>
        <time>2022-02-26T17:51:10Z</time>
      </trkpt>
      <trkpt lat="40.207350" lon="-4.092080">
        <ele>659.814</ele>
        <time>2022-02-26T17:51:50Z</time>
      </trkpt>
      <trkpt lat="40.207340" lon="-4.092080">
        <ele>659.833</ele>
        <time>2022-02-26T17:52:30Z</time>
      </trkpt>
      <trkpt lat="40.207340" lon="-4.092090">
        <ele>659.853</ele>
        <time>2022-02-26T17:53:10Z</time>
      </trkpt>
      <trkpt lat="40.207330" lon="-4.092090">
        <ele>659.895</ele>
        <time>2022-02-26T17:53:50Z</time>
      </trkpt>
      <trkpt lat="40.207330" lon="-4.092100">
        <ele>659.834</ele>
        <time>2022-02-26T17:54:30Z</time>
      </trkpt>
      <trkpt lat="40.207320" lon="-4.092110">
        <ele>659.964</ele>
        <time>2022-02-26T17:55:10Z</time>
      </trkpt>
      <trkpt lat="40.207310" lon="-4.092120">
        <ele>659.947</ele>
        <time>2022-02-26T17:55:50Z</time>
      </trkpt>
      <trkpt lat="40.207300" lon="-4.092130">
        <ele>659.929</ele>
        <time>2022-02-26T17:56:30Z</time>
      </trkpt>
      <trkpt lat="40.207290" lon="-4.092130">
        <ele>659.921</ele>
        <time>2022-02-26T17:57:10Z</time>
      </trkpt>
      <trkpt lat="40.207290" lon="-4.092140">
        <ele>659.908</ele>
        <time>2022-02-26T17:57:50Z</time>
      </trkpt>
      <trkpt lat="40.207280" lon="-4.092140">
        <ele>659.983</ele>
        <time>2022-02-26T17:58:30Z</time>
      </trkpt>
      <trkpt lat="40.207270" lon="-4.092140">
        <ele>659.950</ele>
        <time>2022-02-26T17:59:10Z</time>
      </trkpt>
      <trkpt lat="40.207260" lon="-4.092150">
        <ele>660.074</ele>
        <time>2022-02-26T17:59:50Z</time>
      </trkpt>
      <trkpt lat="40.207250" lon="-4.092150">
        <ele>660.053</ele>
        <time>2022-02-26T18:00:30Z</time>
      </trkpt>
      <trkpt lat="40.207240" lon="-4.092150">
        <ele>660.033</ele>
        <time>2022-02-26T18:01:10Z</time>
      </trkpt>
      <trkpt lat="40.207230" lon="-4.092150">
        <ele>660.065</ele>
        <time>2022-02-26T18:01:50Z</time>
      </trkpt>
      <trkpt lat="40.207220" lon="-4.092150">
        <ele>660.014</ele>
        <time>2022-02-26T18:02:30Z</time>
      </trkpt>
      <trkpt lat="40.207210" lon="-4.092150">
        <ele>660.064</ele>
        <time>2022-02-26T18:03:10Z</time>
      </trkpt>
      <trkpt lat="40.207160" lon="-4.092260">
        <ele>659.728</ele>
        <time>2022-02-26T18:03:50Z</time>
      </trkpt>
      <trkpt lat="40.207090" lon="-4.092370">
        <ele>659.089</ele>
        <time>2022-02-26T18:04:30Z</time>
      </trkpt>
      <trkpt lat="40.207010" lon="-4.092480">
        <ele>657.817</ele>
        <time>2022-02-26T18:05:10Z</time>
      </trkpt>
      <trkpt lat="40.206890" lon="-4.092620">
        <ele>656.708</ele>
        <time>2022-02-26T18:05:50Z</time>
      </trkpt>
      <trkpt lat="40.206860" lon="-4.092650">
        <ele>656.631</ele>
        <time>2022-02-26T18:06:30Z</time>
      </trkpt>
      <trkpt lat="40.206810" lon="-4.092700">
        <ele>656.448</ele>
        <time>2022-02-26T18:07:10Z</time>
      </trkpt>
      <trkpt lat="40.206710" lon="-4.092830">
        <ele>655.892</ele>
        <time>2022-02-26T18:07:50Z</time>
      </trkpt>
      <trkpt lat="40.206160" lon="-4.093330">
        <ele>654.821</ele>
        <time>2022-02-26T18:08:30Z</time>
      </trkpt>
      <trkpt lat="40.206020" lon="-4.093470">
        <ele>654.011</ele>
        <time>2022-02-26T18:09:10Z</time>
      </trkpt>
      <trkpt lat="40.206018" lon="-4.093474">
        <ele>654.053</ele>
        <time>2022-02-26T18:09:50Z</time>
      </trkpt>
      <trkpt lat="40.206070" lon="-4.093820">
        <ele>651.662</ele>
        <time>2022-02-26T18:10:30Z</time>
      </trkpt>
      <trkpt lat="40.206130" lon="-4.094130">
        <ele>650.172</ele>
        <time>2022-02-26T18:11:10Z</time>
      </trkpt>
      <trkpt lat="40.206130" lon="-4.094190">
        <ele>649.775</ele>
        <time>2022-02-26T18:11:50Z</time>
      </trkpt>
      <trkpt lat="40.206130" lon="-4.094320">
        <ele>648.328</ele>
        <time>2022-02-26T18:12:30Z</time>
      </trkpt>
      <trkpt lat="40.206110" lon="-4.094420">
        <ele>647.320</ele>
        <time>2022-02-26T18:13:10Z</time>
      </trkpt>
      <trkpt lat="40.206100" lon="-4.094450">
        <ele>646.908</ele>
        <time>2022-02-26T18:13:50Z</time>
      </trkpt>
      <trkpt lat="40.206070" lon="-4.094500">
        <ele>646.416</ele>
        <time>2022-02-26T18:14:30Z</time>
      </trkpt>
      <trkpt lat="40.205980" lon="-4.094580">
        <ele>645.543</ele>
        <time>2022-02-26T18:15:10Z</time>
      </trkpt>
      <trkpt lat="40.205880" lon="-4.094670">
        <ele>644.637</ele>
        <time>2022-02-26T18:15:50Z</time>
      </trkpt>
      <trkpt lat="40.205810" lon="-4.094730">
        <ele>644.036</ele>
        <time>2022-02-26T18:16:30Z</time>
      </trkpt>
      <trkpt lat="40.205720" lon="-4.094810">
        <ele>643.536</ele>
        <time>2022-02-26T18:17:10Z</time>
      </trkpt>
      <trkpt lat="40.205580" lon="-4.094940">
        <ele>642.668</ele>
        <time>2022-02-26T18:17:50Z</time>
      </trkpt>
      <trkpt lat="40.205330" lon="-4.095180">
        <ele>642.397</ele>
        <time>2022-02-26T18:18:30Z</time>
      </trkpt>
      <trkpt lat="40.205310" lon="-4.095230">
        <ele>642.167</ele>
        <time>2022-02-26T18:19:10Z</time>
      </trkpt>
      <trkpt lat="40.205290" lon="-4.095280">
        <ele>641.962</ele>
        <time>2022-02-26T18:19:50Z</time>
      </trkpt>
      <trkpt lat="40.205280" lon="-4.095400">
        <ele>641.583</ele>
        <time>2022-02-26T18:20:30Z</time>
      </trkpt>
      <trkpt lat="40.205230" lon="-4.095670">
        <ele>640.911</ele>
        <time>2022-02-26T18:21:10Z</time>
      </trkpt>
      <trkpt lat="40.205200" lon="-4.095880">
        <ele>640.208</ele>
        <time>2022-02-26T18:21:50Z</time>
      </trkpt>
      <trkpt lat="40.205180" lon="-4.096020">
        <ele>640.165</ele>
        <time>2022-02-26T18:22:30Z</time>
      </trkpt>
      <trkpt lat="40.205190" lon="-4.096090">
        <ele>640.012</ele>
        <time>2022-02-26T18:23:10Z</time>
      </trkpt>
      <trkpt lat="40.205210" lon="-4.096290">
        <ele>640.016</ele>
        <time>2022-02-26T18:23:50Z</time>
      </trkpt>
      <trkpt lat="40.205220" lon="-4.096320">
        <ele>640.075</ele>
        <time>2022-02-26T18:24:30Z</time>
      </trkpt>
      <trkpt lat="40.205320" lon="-4.096770">
        <ele>640.055</ele>
        <time>2022-02-26T18:25:10Z</time>
      </trkpt>
      <trkpt lat="40.205360" lon="-4.096950">
        <ele>640.087</ele>
        <time>2022-02-26T18:25:50Z</time>
      </trkpt>
      <trkpt lat="40.205450" lon="-4.097360">
        <ele>640.076</ele>
        <time>2022-02-26T18:26:30Z</time>
      </trkpt>
      <trkpt lat="40.205720" lon="-4.098480">
        <ele>640.086</ele>
        <time>2022-02-26T18:27:10Z</time>
      </trkpt>
      <trkpt lat="40.205760" lon="-4.098670">
        <ele>640.141</ele>
        <time>2022-02-26T18:27:50Z</time>
      </trkpt>
      <trkpt lat="40.205870" lon="-4.099130">
        <ele>640.081</ele>
        <time>2022-02-26T18:28:30Z</time>
      </trkpt>
      <trkpt lat="40.205890" lon="-4.099240">
        <ele>640.209</ele>
        <time>2022-02-26T18:29:10Z</time>
      </trkpt>
      <trkpt lat="40.205920" lon="-4.099350">
        <ele>640.508</ele>
        <time>2022-02-26T18:29:50Z</time>
      </trkpt>
      <trkpt lat="40.205990" lon="-4.099580">
        <ele>640.923</ele>
        <time>2022-02-26T18:30:30Z</time>
      </trkpt>
      <trkpt lat="40.206010" lon="-4.099650">
        <ele>640.910</ele>
        <time>2022-02-26T18:31:10Z</time>
      </trkpt>
      <trkpt lat="40.206070" lon="-4.099850">
        <ele>640.934</ele>
        <time>2022-02-26T18:31:50Z</time>
      </trkpt>
      <trkpt lat="40.206120" lon="-4.099960">
        <ele>640.963</ele>
        <time>2022-02-26T18:32:30Z</time>
      </trkpt>
      <trkpt lat="40.206220" lon="-4.100140">
        <ele>642.243</ele>
        <time>2022-02-26T18:33:10Z</time>
      </trkpt>
      <trkpt lat="40.206420" lon="-4.100490">
        <ele>644.965</ele>
        <time>2022-02-26T18:33:50Z</time>
      </trkpt>
      <trkpt lat="40.206500" lon="-4.100650">
        <ele>646.494</ele>
        <time>2022-02-26T18:34:30Z</time>
      </trkpt>
      <trkpt lat="40.206540" lon="-4.100700">
        <ele>646.934</ele>
        <time>2022-02-26T18:35:10Z</time>
      </trkpt>
      <trkpt lat="40.206580" lon="-4.100780">
        <ele>647.389</ele>
        <time>2022-02-26T18:35:50Z</time>
      </trkpt>
      <trkpt lat="40.206730" lon="-4.100960">
        <ele>648.806</ele>
        <time>2022-02-26T18:36:30Z</time>
      </trkpt>
      <trkpt lat="40.206750" lon="-4.100960">
        <ele>648.926</ele>
        <time>2022-02-26T18:37:10Z</time>
      </trkpt>
      <trkpt lat="40.206760" lon="-4.100970">
        <ele>649.008</ele>
        <time>2022-02-26T18:37:50Z</time>
      </trkpt>
      <trkpt lat="40.206770" lon="-4.100970">
        <ele>649.117</ele>
        <time>2022-02-26T18:38:30Z</time>
      </trkpt>
      <trkpt lat="40.206780" lon="-4.100970">
        <ele>649.114</ele>
        <time>2022-02-26T18:39:10Z</time>
      </trkpt>
      <trkpt lat="40.206780" lon="-4.100980">
        <ele>649.178</ele>
        <time>2022-02-26T18:39:50Z</time>
      </trkpt>
      <trkpt lat="40.206790" lon="-4.100980">
        <ele>649.257</ele>
        <time>2022-02-26T18:40:30Z</time>
      </trkpt>
      <trkpt lat="40.206800" lon="-4.100990">
        <ele>649.397</ele>
        <time>2022-02-26T18:41:10Z</time>
      </trkpt>
      <trkpt lat="40.206810" lon="-4.100990">
        <ele>649.399</ele>
        <time>2022-02-26T18:41:50Z</time>
      </trkpt>
      <trkpt lat="40.206820" lon="-4.101000">
        <ele>649.448</ele>
        <time>2022-02-26T18:42:30Z</time>
      </trkpt>
      <trkpt lat="40.206820" lon="-4.101010">
        <ele>649.418</ele>
        <time>2022-02-26T18:43:10Z</time>
      </trkpt>
      <trkpt lat="40.206830" lon="-4.101010">
        <ele>649.461</ele>
        <time>2022-02-26T18:43:50Z</time>
      </trkpt>
      <trkpt lat="40.206830" lon="-4.101020">
        <ele>649.521</ele>
        <time>2022-02-26T18:44:30Z</time>
      </trkpt>
      <trkpt lat="40.206830" lon="-4.101030">
        <ele>649.513</ele>
        <time>2022-02-26T18:45:10Z</time>
      </trkpt>
      <trkpt lat="40.206840" lon="-4.101030">
        <ele>649.508</ele>
        <time>2022-02-26T18:45:50Z</time>
      </trkpt>
      <trkpt lat="40.206840" lon="-4.101040">
        <ele>649.575</ele>
        <time>2022-02-26T18:46:30Z</time>
      </trkpt>
      <trkpt lat="40.206850" lon="-4.101050">
        <ele>649.652</ele>
        <time>2022-02-26T18:47:10Z</time>
      </trkpt>
      <trkpt lat="40.206850" lon="-4.101060">
        <ele>649.686</ele>
        <time>2022-02-26T18:47:50Z</time>
      </trkpt>
      <trkpt lat="40.206850" lon="-4.101070">
        <ele>649.665</ele>
        <time>2022-02-26T18:48:30Z</time>
      </trkpt>
      <trkpt lat="40.206860" lon="-4.101080">
        <ele>649.745</ele>
        <time>2022-02-26T18:49:10Z</time>
      </trkpt>
      <trkpt lat="40.206860" lon="-4.101090">
        <ele>649.777</ele>
        <time>2022-02-26T18:49:50Z</time>
      </trkpt>
      <trkpt lat="40.206860" lon="-4.101100">
        <ele>649.776</ele>
        <time>2022-02-26T18:50:30Z</time>
      </trkpt>
      <trkpt lat="40.206860" lon="-4.101110">
        <ele>649.746</ele>
        <time>2022-02-26T18:51:10Z</time>
      </trkpt>
      <trkpt lat="40.206860" lon="-4.101120">
        <ele>649.714</ele>
        <time>2022-02-26T18:51:50Z</time>
      </trkpt>
      <trkpt lat="40.206860" lon="-4.101130">
        <ele>649.754</ele>
        <time>2022-02-26T18:52:30Z</time>
      </trkpt>
      <trkpt lat="40.206860" lon="-4.101140">
        <ele>649.709</ele>
        <time>2022-02-26T18:53:10Z</time>
      </trkpt>
      <trkpt lat="40.206860" lon="-4.101150">
        <ele>649.708</ele>
        <time>2022-02-26T18:53:50Z</time>
      </trkpt>
      <trkpt lat="40.206860" lon="-4.101160">
        <ele>649.890</ele>
        <time>2022-02-26T18:54:30Z</time>
      </trkpt>
      <trkpt lat="40.206860" lon="-4.101170">
        <ele>649.887</ele>
        <time>2022-02-26T18:55:10Z</time>
      </trkpt>
      <trkpt lat="40.206850" lon="-4.101180">
        <ele>649.711</ele>
        <time>2022-02-26T18:55:50Z</time>
      </trkpt>
      <trkpt lat="40.206850" lon="-4.101190">
        <ele>649.850</ele>
        <time>2022-02-26T18:56:30Z</time>
      </trkpt>
      <trkpt lat="40.206850" lon="-4.101200">
        <ele>649.860</ele>
        <time>2022-02-26T18:57:10Z</time>
      </trkpt>
      <trkpt lat="40.206850" lon="-4.101210">
        <ele>649.862</ele>
        <time>2022-02-26T18:57:50Z</time>
      </trkpt>
      <trkpt lat="40.206840" lon="-4.101210">
        <ele>649.821</ele>
        <time>2022-02-26T18:58:30Z</time>
      </trkpt>
      <trkpt lat="40.206840" lon="-4.101220">
        <ele>649.891</ele>
        <time>2022-02-26T18:59:10Z</time>
      </trkpt>
      <trkpt lat="40.206830" lon="-4.101230">
        <ele>649.825</ele>
        <time>2022-02-26T18:59:50Z</time>
      </trkpt>
      <trkpt lat="40.206830" lon="-4.101240">
        <ele>649.826</ele>
        <time>2022-02-26T19:00:30Z</time>
      </trkpt>
      <trkpt lat="40.206880" lon="-4.101480">
        <ele>650.008</ele>
        <time>2022-02-26T19:01:10Z</time>
      </trkpt>
      <trkpt lat="40.206900" lon="-4.101560">
        <ele>650.008</ele>
        <time>2022-02-26T19:01:50Z</time>
      </trkpt>
      <trkpt lat="40.206910" lon="-4.101580">
        <ele>650.011</ele>
        <time>2022-02-26T19:02:30Z</time>
      </trkpt>
      <trkpt lat="40.207030" lon="-4.102020">
        <ele>650.058</ele>
        <time>2022-02-26T19:03:10Z</time>
      </trkpt>
      <trkpt lat="40.207110" lon="-4.102200">
        <ele>650.042</ele>
        <time>2022-02-26T19:03:50Z</time>
      </trkpt>
      <trkpt lat="40.207120" lon="-4.102200">
        <ele>650.081</ele>
        <time>2022-02-26T19:04:30Z</time>
      </trkpt>
      <trkpt lat="40.207120" lon="-4.102210">
        <ele>650.041</ele>
        <time>2022-02-26T19:05:10Z</time>
      </trkpt>
      <trkpt lat="40.207130" lon="-4.102210">
        <ele>650.043</ele>
        <time>2022-02-26T19:05:50Z</time>
      </trkpt>
      <trkpt lat="40.207140" lon="-4.102220">
        <ele>650.042</ele>
        <time>2022-02-26T19:06:30Z</time>
      </trkpt>
      <trkpt lat="40.207150" lon="-4.102220">
        <ele>650.012</ele>
        <time>2022-02-26T19:07:10Z</time>
      </trkpt>
      <trkpt lat="40.207150" lon="-4.102230">
        <ele>650.024</ele>
        <time>2022-02-26T19:07:50Z</time>
      </trkpt>
      <trkpt lat="40.207160" lon="-4.102230">
        <ele>650.004</ele>
        <time>2022-02-26T19:08:30Z</time>
      </trkpt>
      <trkpt lat="40.207170" lon="-4.102240">
        <ele>650.014</ele>
        <time>2022-02-26T19:09:10Z</time>
      </trkpt>
      <trkpt lat="40.207170" lon="-4.102250">
        <ele>650.008</ele>
        <time>2022-02-26T19:09:50Z</time>
      </trkpt>
      <trkpt lat="40.207180" lon="-4.102250">
        <ele>650.061</ele>
        <time>2022-02-26T19:10:30Z</time>
      </trkpt>
      <trkpt lat="40.207180" lon="-4.102260">
        <ele>650.058</ele>
        <time>2022-02-26T19:11:10Z</time>
      </trkpt>
      <trkpt lat="40.207190" lon="-4.102260">
        <ele>650.042</ele>
        <time>2022-02-26T19:11:50Z</time>
      </trkpt>
      <trkpt lat="40.207190" lon="-4.102270">
        <ele>650.061</ele>
        <time>2022-02-26T19:12:30Z</time>
      </trkpt>
      <trkpt lat="40.207200" lon="-4.102280">
        <ele>650.071</ele>
        <time>2022-02-26T19:13:10Z</time>
      </trkpt>
      <trkpt lat="40.207200" lon="-4.102290">
        <ele>650.023</ele>
        <time>2022-02-26T19:13:50Z</time>
      </trkpt>
      <trkpt lat="40.207210" lon="-4.102290">
        <ele>650.092</ele>
        <time>2022-02-26T19:14:30Z</time>
      </trkpt>
      <trkpt lat="40.207210" lon="-4.102300">
        <ele>650.072</ele>
        <time>2022-02-26T19:15:10Z</time>
      </trkpt>
      <trkpt lat="40.207220" lon="-4.102310">
        <ele>650.089</ele>
        <time>2022-02-26T19:15:50Z</time>
      </trkpt>
      <trkpt lat="40.207220" lon="-4.102320">
        <ele>650.006</ele>
        <time>2022-02-26T19:16:30Z</time>
      </trkpt>
      <trkpt lat="40.207230" lon="-4.102330">
        <ele>650.026</ele>
        <time>2022-02-26T19:17:10Z</time>
      </trkpt>
      <trkpt lat="40.207230" lon="-4.102340">
        <ele>650.008</ele>
        <time>2022-02-26T19:17:50Z</time>
      </trkpt>
      <trkpt lat="40.207230" lon="-4.102350">
        <ele>650.057</ele>
        <time>2022-02-26T19:18:30Z</time>
      </trkpt>
      <trkpt lat="40.207240" lon="-4.102360">
        <ele>650.064</ele>
        <time>2022-02-26T19:19:10Z</time>
      </trkpt>
      <trkpt lat="40.207240" lon="-4.102370">
        <ele>650.058</ele>
        <time>2022-02-26T19:19:50Z</time>
      </trkpt>
      <trkpt lat="40.207240" lon="-4.102380">
        <ele>650.057</ele>
        <time>2022-02-26T19:20:30Z</time>
      </trkpt>
      <trkpt lat="40.207240" lon="-4.102390">
        <ele>650.097</ele>
        <time>2022-02-26T19:21:10Z</time>
      </trkpt>
      <trkpt lat="40.207240" lon="-4.102400">
        <ele>650.089</ele>
        <time>2022-02-26T19:21:50Z</time>
      </trkpt>
      <trkpt lat="40.207240" lon="-4.102410">
        <ele>650.088</ele>
        <time>2022-02-26T19:22:30Z</time>
      </trkpt>
      <trkpt lat="40.207240" lon="-4.102420">
        <ele>650.098</ele>
        <time>2022-02-26T19:23:10Z</time>
      </trkpt>
      <trkpt lat="40.207240" lon="-4.102430">
        <ele>650.044</ele>
        <time>2022-02-26T19:23:50Z</time>
      </trkpt>
      <trkpt lat="40.207230" lon="-4.102440">
        <ele>650.005</ele>
        <time>2022-02-26T19:24:30Z</time>
      </trkpt>
      <trkpt lat="40.207230" lon="-4.102450">
        <ele>650.015</ele>
        <time>2022-02-26T19:25:10Z</time>
      </trkpt>
      <trkpt lat="40.207230" lon="-4.102460">
        <ele>650.008</ele>
        <time>2022-02-26T19:25:50Z</time>
      </trkpt>
      <trkpt lat="40.207230" lon="-4.102470">
        <ele>650.083</ele>
        <time>2022-02-26T19:26:30Z</time>
      </trkpt>
      <trkpt lat="40.207220" lon="-4.102480">
        <ele>650.090</ele>
        <time>2022-02-26T19:27:10Z</time>
      </trkpt>
      <trkpt lat="40.207220" lon="-4.102490">
        <ele>650.034</ele>
        <time>2022-02-26T19:27:50Z</time>
      </trkpt>
      <trkpt lat="40.207220" lon="-4.102500">
        <ele>650.033</ele>
        <time>2022-02-26T19:28:30Z</time>
      </trkpt>
      <trkpt lat="40.207210" lon="-4.102500">
        <ele>650.063</ele>
        <time>2022-02-26T19:29:10Z</time>
      </trkpt>
      <trkpt lat="40.207210" lon="-4.102510">
        <ele>650.055</ele>
        <time>2022-02-26T19:29:50Z</time>
      </trkpt>
      <trkpt lat="40.207210" lon="-4.102520">
        <ele>650.024</ele>
        <time>2022-02-26T19:30:30Z</time>
      </trkpt>
      <trkpt lat="40.207200" lon="-4.102520">
        <ele>650.074</ele>
        <time>2022-02-26T19:31:10Z</time>
      </trkpt>
      <trkpt lat="40.207200" lon="-4.102530">
        <ele>650.067</ele>
        <time>2022-02-26T19:31:50Z</time>
      </trkpt>
      <trkpt lat="40.207190" lon="-4.102530">
        <ele>650.081</ele>
        <time>2022-02-26T19:32:30Z</time>
      </trkpt>
      <trkpt lat="40.207190" lon="-4.102540">
        <ele>650.019</ele>
        <time>2022-02-26T19:33:10Z</time>
      </trkpt>
      <trkpt lat="40.207180" lon="-4.102540">
        <ele>650.008</ele>
        <time>2022-02-26T19:33:50Z</time>
      </trkpt>
      <trkpt lat="40.207170" lon="-4.102550">
        <ele>650.095</ele>
        <time>2022-02-26T19:34:30Z</time>
      </trkpt>
      <trkpt lat="40.207180" lon="-4.102790">
        <ele>650.092</ele>
        <time>2022-02-26T19:35:10Z</time>
      </trkpt>
      <trkpt lat="40.207180" lon="-4.102820">
        <ele>650.096</ele>
        <time>2022-02-26T19:35:50Z</time>
      </trkpt>
      <trkpt lat="40.207200" lon="-4.102970">
        <ele>650.015</ele>
        <time>2022-02-26T19:36:30Z</time>
      </trkpt>
      <trkpt lat="40.207210" lon="-4.103160">
        <ele>650.045</ele>
        <time>2022-02-26T19:37:10Z</time>
      </trkpt>
      <trkpt lat="40.207210" lon="-4.103260">
        <ele>650.047</ele>
        <time>2022-02-26T19:37:50Z</time>
      </trkpt>
      <trkpt lat="40.207200" lon="-4.103470">
        <ele>648.446</ele>
        <time>2022-02-26T19:38:30Z</time>
      </trkpt>
      <trkpt lat="40.207190" lon="-4.103630">
        <ele>646.746</ele>
        <time>2022-02-26T19:39:10Z</time>
      </trkpt>
      <trkpt lat="40.207160" lon="-4.104050">
        <ele>643.643</ele>
        <time>2022-02-26T19:39:50Z</time>
      </trkpt>
      <trkpt lat="40.207130" lon="-4.104460">
        <ele>640.064</ele>
        <time>2022-02-26T19:40:30Z</time>
      </trkpt>
      <trkpt lat="40.207090" lon="-4.104850">
        <ele>640.010</ele>
        <time>2022-02-26T19:41:10Z</time>
      </trkpt>
      <trkpt lat="40.207090" lon="-4.104990">
        <ele>640.008</ele>
        <time>2022-02-26T19:41:50Z</time>
      </trkpt>
      <trkpt lat="40.207080" lon="-4.105450">
        <ele>640.083</ele>
        <time>2022-02-26T19:42:30Z</time>
      </trkpt>
      <trkpt lat="40.207080" lon="-4.105550">
        <ele>640.070</ele>
        <time>2022-02-26T19:43:10Z</time>
      </trkpt>
      <trkpt lat="40.207090" lon="-4.105920">
        <ele>640.264</ele>
        <time>2022-02-26T19:43:50Z</time>
      </trkpt>
      <trkpt lat="40.207100" lon="-4.105930">
        <ele>640.243</ele>
        <time>2022-02-26T19:44:30Z</time>
      </trkpt>
      <trkpt lat="40.207120" lon="-4.106130">
        <ele>640.743</ele>
        <time>2022-02-26T19:45:10Z</time>
      </trkpt>
      <trkpt lat="40.207160" lon="-4.106350">
        <ele>642.355</ele>
        <time>2022-02-26T19:45:50Z</time>
      </trkpt>
      <trkpt lat="40.207220" lon="-4.106620">
        <ele>644.624</ele>
        <time>2022-02-26T19:46:30Z</time>
      </trkpt>
      <trkpt lat="40.207220" lon="-4.106640">
        <ele>644.874</ele>
        <time>2022-02-26T19:47:10Z</time>
      </trkpt>
      <trkpt lat="40.207310" lon="-4.106930">
        <ele>646.692</ele>
        <time>2022-02-26T19:47:50Z</time>
      </trkpt>
      <trkpt lat="40.207430" lon="-4.107250">
        <ele>648.973</ele>
        <time>2022-02-26T19:48:30Z</time>
      </trkpt>
      <trkpt lat="40.207560" lon="-4.107590">
        <ele>650.020</ele>
        <time>2022-02-26T19:49:10Z</time>
      </trkpt>
      <trkpt lat="40.207690" lon="-4.107890">
        <ele>650.008</ele>
        <time>2022-02-26T19:49:50Z</time>
      </trkpt>
      <trkpt lat="40.207730" lon="-4.107980">
        <ele>650.078</ele>
        <time>2022-02-26T19:50:30Z</time>
      </trkpt>
      <trkpt lat="40.207870" lon="-4.108290">
        <ele>650.075</ele>
        <time>2022-02-26T19:51:10Z</time>
      </trkpt>
      <trkpt lat="40.207960" lon="-4.108500">
        <ele>650.099</ele>
        <time>2022-02-26T19:51:50Z</time>
      </trkpt>
      <trkpt lat="40.208060" lon="-4.108690">
        <ele>650.048</ele>
        <time>2022-02-26T19:52:30Z</time>
      </trkpt>
      <trkpt lat="40.208090" lon="-4.108740">
        <ele>649.918</ele>
        <time>2022-02-26T19:53:10Z</time>
      </trkpt>
      <trkpt lat="40.208410" lon="-4.109230">
        <ele>647.310</ele>
        <time>2022-02-26T19:53:50Z</time>
      </trkpt>
      <trkpt lat="40.208460" lon="-4.109290">
        <ele>647.389</ele>
        <time>2022-02-26T19:54:30Z</time>
      </trkpt>
      <trkpt lat="40.208620" lon="-4.109560">
        <ele>646.299</ele>
        <time>2022-02-26T19:55:10Z</time>
      </trkpt>
      <trkpt lat="40.208730" lon="-4.109810">
        <ele>645.212</ele>
        <time>2022-02-26T19:55:50Z</time>
      </trkpt>
      <trkpt lat="40.208780" lon="-4.110000">
        <ele>644.232</ele>
        <time>2022-02-26T19:56:30Z</time>
      </trkpt>
      <trkpt lat="40.208790" lon="-4.110020">
        <ele>644.105</ele>
        <time>2022-02-26T19:57:10Z</time>
      </trkpt>
      <trkpt lat="40.208840" lon="-4.110250">
        <ele>642.808</ele>
        <time>2022-02-26T19:57:50Z</time>
      </trkpt>
      <trkpt lat="40.208920" lon="-4.110630">
        <ele>640.950</ele>
        <time>2022-02-26T19:58:30Z</time>
      </trkpt>
      <trkpt lat="40.209030" lon="-4.111280">
        <ele>641.637</ele>
        <time>2022-02-26T19:59:10Z</time>
      </trkpt>
      <trkpt lat="40.209040" lon="-4.111310">
        <ele>641.761</ele>
        <time>2022-02-26T19:59:50Z</time>
      </trkpt>
      <trkpt lat="40.209060" lon="-4.111490">
        <ele>642.490</ele>
        <time>2022-02-26T20:00:30Z</time>
      </trkpt>
      <trkpt lat="40.209070" lon="-4.111660">
        <ele>643.070</ele>
        <time>2022-02-26T20:01:10Z</time>
      </trkpt>
      <trkpt lat="40.209090" lon="-4.111840">
        <ele>643.672</ele>
        <time>2022-02-26T20:01:50Z</time>
      </trkpt>
      <trkpt lat="40.209100" lon="-4.112010">
        <ele>644.281</ele>
        <time>2022-02-26T20:02:30Z</time>
      </trkpt>
      <trkpt lat="40.209100" lon="-4.112040">
        <ele>644.361</ele>
        <time>2022-02-26T20:03:10Z</time>
      </trkpt>
      <trkpt lat="40.209110" lon="-4.112320">
        <ele>645.024</ele>
        <time>2022-02-26T20:03:50Z</time>
      </trkpt>
      <trkpt lat="40.209130" lon="-4.112750">
        <ele>645.904</ele>
        <time>2022-02-26T20:04:30Z</time>
      </trkpt>
      <trkpt lat="40.209150" lon="-4.112980">
        <ele>646.714</ele>
        <time>2022-02-26T20:05:10Z</time>
      </trkpt>
      <trkpt lat="40.209190" lon="-4.113170">
        <ele>647.608</ele>
        <time>2022-02-26T20:05:50Z</time>
      </trkpt>
      <trkpt lat="40.209210" lon="-4.113320">
        <ele>648.391</ele>
        <time>2022-02-26T20:06:30Z</time>
      </trkpt>
      <trkpt lat="40.209250" lon="-4.113480">
        <ele>649.068</ele>
        <time>2022-02-26T20:07:10Z</time>
      </trkpt>
      <trkpt lat="40.209320" lon="-4.113730">
        <ele>649.722</ele>
        <time>2022-02-26T20:07:50Z</time>
      </trkpt>
      <trkpt lat="40.209380" lon="-4.113900">
        <ele>650.061</ele>
        <time>2022-02-26T20:08:30Z</time>
      </trkpt>
      <trkpt lat="40.209390" lon="-4.113910">
        <ele>650.091</ele>
        <time>2022-02-26T20:09:10Z</time>
      </trkpt>
      <trkpt lat="40.209460" lon="-4.114080">
        <ele>650.023</ele>
        <time>2022-02-26T20:09:50Z</time>
      </trkpt>
      <trkpt lat="40.209520" lon="-4.114220">
        <ele>650.082</ele>
        <time>2022-02-26T20:10:30Z</time>
      </trkpt>
      <trkpt lat="40.209610" lon="-4.114390">
        <ele>650.092</ele>
        <time>2022-02-26T20:11:10Z</time>
      </trkpt>
      <trkpt lat="40.209750" lon="-4.114670">
        <ele>650.028</ele>
        <time>2022-02-26T20:11:50Z</time>
      </trkpt>
      <trkpt lat="40.209960" lon="-4.115090">
        <ele>650.089</ele>
        <time>2022-02-26T20:12:30Z</time>
      </trkpt>
      <trkpt lat="40.210170" lon="-4.115490">
        <ele>650.017</ele>
        <time>2022-02-26T20:13:10Z</time>
      </trkpt>
      <trkpt lat="40.210360" lon="-4.115870">
        <ele>650.008</ele>
        <time>2022-02-26T20:13:50Z</time>
      </trkpt>
      <trkpt lat="40.210390" lon="-4.115930">
        <ele>650.051</ele>
        <time>2022-02-26T20:14:30Z</time>
      </trkpt>
      <trkpt lat="40.210520" lon="-4.116180">
        <ele>650.068</ele>
        <time>2022-02-26T20:15:10Z</time>
      </trkpt>
      <trkpt lat="40.210700" lon="-4.116520">
        <ele>650.042</ele>
        <time>2022-02-26T20:15:50Z</time>
      </trkpt>
      <trkpt lat="40.210700" lon="-4.116530">
        <ele>650.071</ele>
        <time>2022-02-26T20:16:30Z</time>
      </trkpt>
      <trkpt lat="40.210900" lon="-4.116910">
        <ele>650.071</ele>
        <time>2022-02-26T20:17:10Z</time>
      </trkpt>
      <trkpt lat="40.211000" lon="-4.117100">
        <ele>650.093</ele>
        <time>2022-02-26T20:17:50Z</time>
      </trkpt>
      <trkpt lat="40.211030" lon="-4.117170">
        <ele>650.032</ele>
        <time>2022-02-26T20:18:30Z</time>
      </trkpt>
      <trkpt lat="40.211120" lon="-4.117380">
        <ele>650.072</ele>
        <time>2022-02-26T20:19:10Z</time>
      </trkpt>
      <trkpt lat="40.211170" lon="-4.117520">
        <ele>650.021</ele>
        <time>2022-02-26T20:19:50Z</time>
      </trkpt>
      <trkpt lat="40.211180" lon="-4.117540">
        <ele>650.041</ele>
        <time>2022-02-26T20:20:30Z</time>
      </trkpt>
      <trkpt lat="40.211230" lon="-4.117690">
        <ele>650.005</ele>
        <time>2022-02-26T20:21:10Z</time>
      </trkpt>
      <trkpt lat="40.211320" lon="-4.117950">
        <ele>650.008</ele>
        <time>2022-02-26T20:21:50Z</time>
      </trkpt>
      <trkpt lat="40.211460" lon="-4.118380">
        <ele>650.021</ele>
        <time>2022-02-26T20:22:30Z</time>
      </trkpt>
      <trkpt lat="40.211540" lon="-4.118620">
        <ele>650.088</ele>
        <time>2022-02-26T20:23:10Z</time>
      </trkpt>
      <trkpt lat="40.211660" lon="-4.118930">
        <ele>650.042</ele>
        <time>2022-02-26T20:23:50Z</time>
      </trkpt>
      <trkpt lat="40.211670" lon="-4.118970">
        <ele>650.061</ele>
        <time>2022-02-26T20:24:30Z</time>
      </trkpt>
      <trkpt lat="40.211750" lon="-4.119160">
        <ele>650.011</ele>
        <time>2022-02-26T20:25:10Z</time>
      </trkpt>
      <trkpt lat="40.211870" lon="-4.119410">
        <ele>650.043</ele>
        <time>2022-02-26T20:25:50Z</time>
      </trkpt>
      <trkpt lat="40.211980" lon="-4.119620">
        <ele>650.022</ele>
        <time>2022-02-26T20:26:30Z</time>
      </trkpt>
      <trkpt lat="40.212110" lon="-4.119870">
        <ele>650.082</ele>
        <time>2022-02-26T20:27:10Z</time>
      </trkpt>
      <trkpt lat="40.212330" lon="-4.120250">
        <ele>650.082</ele>
        <time>2022-02-26T20:27:50Z</time>
      </trkpt>
      <trkpt lat="40.212670" lon="-4.120820">
        <ele>650.043</ele>
        <time>2022-02-26T20:28:30Z</time>
      </trkpt>
      <trkpt lat="40.212710" lon="-4.120890">
        <ele>650.017</ele>
        <time>2022-02-26T20:29:10Z</time>
      </trkpt>
      <trkpt lat="40.212800" lon="-4.121040">
        <ele>650.008</ele>
        <time>2022-02-26T20:29:50Z</time>
      </trkpt>
      <trkpt lat="40.213010" lon="-4.121410">
        <ele>650.037</ele>
        <time>2022-02-26T20:30:30Z</time>
      </trkpt>
      <trkpt lat="40.213300" lon="-4.121890">
        <ele>647.424</ele>
        <time>2022-02-26T20:31:10Z</time>
      </trkpt>
      <trkpt lat="40.213350" lon="-4.121980">
        <ele>646.898</ele>
        <time>2022-02-26T20:31:50Z</time>
      </trkpt>
      <trkpt lat="40.213710" lon="-4.122590">
        <ele>644.317</ele>
        <time>2022-02-26T20:32:30Z</time>
      </trkpt>
      <trkpt lat="40.214210" lon="-4.123420">
        <ele>640.747</ele>
        <time>2022-02-26T20:33:10Z</time>
      </trkpt>
      <trkpt lat="40.214450" lon="-4.123840">
        <ele>640.229</ele>
        <time>2022-02-26T20:33:50Z</time>
      </trkpt>
      <trkpt lat="40.214530" lon="-4.123980">
        <ele>640.228</ele>
        <time>2022-02-26T20:34:30Z</time>
      </trkpt>
      <trkpt lat="40.214750" lon="-4.124360">
        <ele>640.028</ele>
        <time>2022-02-26T20:35:10Z</time>
      </trkpt>
      <trkpt lat="40.214770" lon="-4.124400">
        <ele>640.027</ele>
        <time>2022-02-26T20:35:50Z</time>
      </trkpt>
      <trkpt lat="40.214870" lon="-4.124600">
        <ele>640.068</ele>
        <time>2022-02-26T20:36:30Z</time>
      </trkpt>
      <trkpt lat="40.214960" lon="-4.124820">
        <ele>636.514</ele>
        <time>2022-02-26T20:37:10Z</time>
      </trkpt>
      <trkpt lat="40.215040" lon="-4.125050">
        <ele>631.608</ele>
        <time>2022-02-26T20:37:50Z</time>
      </trkpt>
      <trkpt lat="40.215070" lon="-4.125140">
        <ele>634.511</ele>
        <time>2022-02-26T20:38:30Z</time>
      </trkpt>
      <trkpt lat="40.215110" lon="-4.125290">
        <ele>639.078</ele>
        <time>2022-02-26T20:39:10Z</time>
      </trkpt>
      <trkpt lat="40.215150" lon="-4.125470">
        <ele>639.472</ele>
        <time>2022-02-26T20:39:50Z</time>
      </trkpt>
      <trkpt lat="40.215260" lon="-4.126180">
        <ele>640.241</ele>
        <time>2022-02-26T20:40:30Z</time>
      </trkpt>
      <trkpt lat="40.215290" lon="-4.126470">
        <ele>641.061</ele>
        <time>2022-02-26T20:41:10Z</time>
      </trkpt>
      <trkpt lat="40.215310" lon="-4.126610">
        <ele>641.073</ele>
        <time>2022-02-26T20:41:50Z</time>
      </trkpt>
      <trkpt lat="40.215320" lon="-4.126690">
        <ele>641.032</ele>
        <time>2022-02-26T20:42:30Z</time>
      </trkpt>
      <trkpt lat="40.215320" lon="-4.126740">
        <ele>641.052</ele>
        <time>2022-02-26T20:43:10Z</time>
      </trkpt>
      <trkpt lat="40.215310" lon="-4.127070">
        <ele>641.043</ele>
        <time>2022-02-26T20:43:50Z</time>
      </trkpt>
      <trkpt lat="40.215280" lon="-4.127400">
        <ele>640.464</ele>
        <time>2022-02-26T20:44:30Z</time>
      </trkpt>
      <trkpt lat="40.215240" lon="-4.127720">
        <ele>640.010</ele>
        <time>2022-02-26T20:45:10Z</time>
      </trkpt>
      <trkpt lat="40.215220" lon="-4.127910">
        <ele>639.508</ele>
        <time>2022-02-26T20:45:50Z</time>
      </trkpt>
      <trkpt lat="40.215200" lon="-4.128130">
        <ele>639.043</ele>
        <time>2022-02-26T20:46:30Z</time>
      </trkpt>
      <trkpt lat="40.215190" lon="-4.128480">
        <ele>638.560</ele>
        <time>2022-02-26T20:47:10Z</time>
      </trkpt>
      <trkpt lat="40.215200" lon="-4.128760">
        <ele>638.044</ele>
        <time>2022-02-26T20:47:50Z</time>
      </trkpt>
      <trkpt lat="40.215250" lon="-4.128990">
        <ele>637.663</ele>
        <time>2022-02-26T20:48:30Z</time>
      </trkpt>
      <trkpt lat="40.215260" lon="-4.129060">
        <ele>637.463</ele>
        <time>2022-02-26T20:49:10Z</time>
      </trkpt>
      <trkpt lat="40.215350" lon="-4.129360">
        <ele>636.365</ele>
        <time>2022-02-26T20:49:50Z</time>
      </trkpt>
      <trkpt lat="40.215440" lon="-4.129610">
        <ele>635.774</ele>
        <time>2022-02-26T20:50:30Z</time>
      </trkpt>
      <trkpt lat="40.215570" lon="-4.129880">
        <ele>634.554</ele>
        <time>2022-02-26T20:51:10Z</time>
      </trkpt>
      <trkpt lat="40.215670" lon="-4.130080">
        <ele>634.198</ele>
        <time>2022-02-26T20:51:50Z</time>
      </trkpt>
      <trkpt lat="40.215770" lon="-4.130230">
        <ele>633.915</ele>
        <time>2022-02-26T20:52:30Z</time>
      </trkpt>
      <trkpt lat="40.216100" lon="-4.130760">
        <ele>632.026</ele>
        <time>2022-02-26T20:53:10Z</time>
      </trkpt>
      <trkpt lat="40.216310" lon="-4.131070">
        <ele>630.308</ele>
        <time>2022-02-26T20:53:50Z</time>
      </trkpt>
      <trkpt lat="40.216550" lon="-4.131460">
        <ele>630.048</ele>
        <time>2022-02-26T20:54:30Z</time>
      </trkpt>
      <trkpt lat="40.216870" lon="-4.131960">
        <ele>630.035</ele>
        <time>2022-02-26T20:55:10Z</time>
      </trkpt>
      <trkpt lat="40.217290" lon="-4.132620">
        <ele>630.029</ele>
        <time>2022-02-26T20:55:50Z</time>
      </trkpt>
      <trkpt lat="40.217620" lon="-4.133140">
        <ele>629.828</ele>
        <time>2022-02-26T20:56:30Z</time>
      </trkpt>
      <trkpt lat="40.217670" lon="-4.133230">
        <ele>629.888</ele>
        <time>2022-02-26T20:57:10Z</time>
      </trkpt>
      <trkpt lat="40.217950" lon="-4.133660">
        <ele>630.020</ele>
        <time>2022-02-26T20:57:50Z</time>
      </trkpt>
      <trkpt lat="40.218000" lon="-4.133750">
        <ele>630.049</ele>
        <time>2022-02-26T20:58:30Z</time>
      </trkpt>
      <trkpt lat="40.218130" lon="-4.133940">
        <ele>630.029</ele>
        <time>2022-02-26T20:59:10Z</time>
      </trkpt>
      <trkpt lat="40.218290" lon="-4.134270">
        <ele>629.913</ele>
        <time>2022-02-26T20:59:50Z</time>
      </trkpt>
      <trkpt lat="40.218370" lon="-4.134480">
        <ele>629.943</ele>
        <time>2022-02-26T21:00:30Z</time>
      </trkpt>
      <trkpt lat="40.218420" lon="-4.134650">
        <ele>629.507</ele>
        <time>2022-02-26T21:01:10Z</time>
      </trkpt>
      <trkpt lat="40.218450" lon="-4.134800">
        <ele>629.308</ele>
        <time>2022-02-26T21:01:50Z</time>
      </trkpt>
      <trkpt lat="40.218480" lon="-4.134970">
        <ele>629.160</ele>
        <time>2022-02-26T21:02:30Z</time>
      </trkpt>
      <trkpt lat="40.218490" lon="-4.135150">
        <ele>629.487</ele>
        <time>2022-02-26T21:03:10Z</time>
      </trkpt>
      <trkpt lat="40.218500" lon="-4.135380">
        <ele>629.711</ele>
        <time>2022-02-26T21:03:50Z</time>
      </trkpt>
      <trkpt lat="40.218470" lon="-4.135730">
        <ele>629.480</ele>
        <time>2022-02-26T21:04:30Z</time>
      </trkpt>
      <trkpt lat="40.218420" lon="-4.136090">
        <ele>629.060</ele>
        <time>2022-02-26T21:05:10Z</time>
      </trkpt>
      <trkpt lat="40.218380" lon="-4.136310">
        <ele>628.342</ele>
        <time>2022-02-26T21:05:50Z</time>
      </trkpt>
      <trkpt lat="40.218360" lon="-4.136560">
        <ele>628.051</ele>
        <time>2022-02-26T21:06:30Z</time>
      </trkpt>
      <trkpt lat="40.218360" lon="-4.136670">
        <ele>628.011</ele>
        <time>2022-02-26T21:07:10Z</time>
      </trkpt>
      <trkpt lat="40.218360" lon="-4.136800">
        <ele>627.614</ele>
        <time>2022-02-26T21:07:50Z</time>
      </trkpt>
      <trkpt lat="40.218370" lon="-4.137150">
        <ele>627.054</ele>
        <time>2022-02-26T21:08:30Z</time>
      </trkpt>
      <trkpt lat="40.218390" lon="-4.137490">
        <ele>626.209</ele>
        <time>2022-02-26T21:09:10Z</time>
      </trkpt>
      <trkpt lat="40.218400" lon="-4.137780">
        <ele>626.008</ele>
        <time>2022-02-26T21:09:50Z</time>
      </trkpt>
      <trkpt lat="40.218430" lon="-4.138240">
        <ele>625.170</ele>
        <time>2022-02-26T21:10:30Z</time>
      </trkpt>
      <trkpt lat="40.218460" lon="-4.138770">
        <ele>624.267</ele>
        <time>2022-02-26T21:11:10Z</time>
      </trkpt>
      <trkpt lat="40.218480" lon="-4.139180">
        <ele>623.561</ele>
        <time>2022-02-26T21:11:50Z</time>
      </trkpt>
      <trkpt lat="40.218500" lon="-4.139490">
        <ele>623.440</ele>
        <time>2022-02-26T21:12:30Z</time>
      </trkpt>
      <trkpt lat="40.218530" lon="-4.139730">
        <ele>622.780</ele>
        <time>2022-02-26T21:13:10Z</time>
      </trkpt>
      <trkpt lat="40.218550" lon="-4.139850">
        <ele>622.832</ele>
        <time>2022-02-26T21:13:50Z</time>
      </trkpt>
      <trkpt lat="40.218570" lon="-4.139950">
        <ele>622.931</ele>
        <time>2022-02-26T21:14:30Z</time>
      </trkpt>
      <trkpt lat="40.218590" lon="-4.140050">
        <ele>622.721</ele>
        <time>2022-02-26T21:15:10Z</time>
      </trkpt>
      <trkpt lat="40.218630" lon="-4.140170">
        <ele>622.389</ele>
        <time>2022-02-26T21:15:50Z</time>
      </trkpt>
      <trkpt lat="40.218680" lon="-4.140330">
        <ele>621.506</ele>
        <time>2022-02-26T21:16:30Z</time>
      </trkpt>
      <trkpt lat="40.218750" lon="-4.140490">
        <ele>621.026</ele>
        <time>2022-02-26T21:17:10Z</time>
      </trkpt>
      <trkpt lat="40.218820" lon="-4.140630">
        <ele>620.408</ele>
        <time>2022-02-26T21:17:50Z</time>
      </trkpt>
      <trkpt lat="40.218890" lon="-4.140750">
        <ele>620.097</ele>
        <time>2022-02-26T21:18:30Z</time>
      </trkpt>
      <trkpt lat="40.218990" lon="-4.140890">
        <ele>620.084</ele>
        <time>2022-02-26T21:19:10Z</time>
      </trkpt>
      <trkpt lat="40.219070" lon="-4.141010">
        <ele>620.078</ele>
        <time>2022-02-26T21:19:50Z</time>
      </trkpt>
      <trkpt lat="40.219740" lon="-4.141780">
        <ele>620.117</ele>
        <time>2022-02-26T21:20:30Z</time>
      </trkpt>
      <trkpt lat="40.219830" lon="-4.141870">
        <ele>620.717</ele>
        <time>2022-02-26T21:21:10Z</time>
      </trkpt>
      <trkpt lat="40.219940" lon="-4.142010">
        <ele>621.829</ele>
        <time>2022-02-26T21:21:50Z</time>
      </trkpt>
      <trkpt lat="40.219950" lon="-4.142030">
        <ele>621.988</ele>
        <time>2022-02-26T21:22:30Z</time>
      </trkpt>
      <trkpt lat="40.220200" lon="-4.142320">
        <ele>624.378</ele>
        <time>2022-02-26T21:23:10Z</time>
      </trkpt>
      <trkpt lat="40.220490" lon="-4.142650">
        <ele>621.526</ele>
        <time>2022-02-26T21:23:50Z</time>
      </trkpt>
      <trkpt lat="40.220650" lon="-4.142840">
        <ele>618.947</ele>
        <time>2022-02-26T21:24:30Z</time>
      </trkpt>
      <trkpt lat="40.220790" lon="-4.143010">
        <ele>616.611</ele>
        <time>2022-02-26T21:25:10Z</time>
      </trkpt>
      <trkpt lat="40.221020" lon="-4.143300">
        <ele>613.808</ele>
        <time>2022-02-26T21:25:50Z</time>
      </trkpt>
      <trkpt lat="40.221210" lon="-4.143600">
        <ele>613.691</ele>
        <time>2022-02-26T21:26:30Z</time>
      </trkpt>
      <trkpt lat="40.221390" lon="-4.143920">
        <ele>615.138</ele>
        <time>2022-02-26T21:27:10Z</time>
      </trkpt>
      <trkpt lat="40.221480" lon="-4.144080">
        <ele>615.172</ele>
        <time>2022-02-26T21:27:50Z</time>
      </trkpt>
      <trkpt lat="40.221580" lon="-4.144270">
        <ele>614.111</ele>
        <time>2022-02-26T21:28:30Z</time>
      </trkpt>
      <trkpt lat="40.221710" lon="-4.144500">
        <ele>612.531</ele>
        <time>2022-02-26T21:29:10Z</time>
      </trkpt>
      <trkpt lat="40.221730" lon="-4.144530">
        <ele>612.373</ele>
        <time>2022-02-26T21:29:50Z</time>
      </trkpt>
      <trkpt lat="40.222030" lon="-4.145080">
        <ele>610.782</ele>
        <time>2022-02-26T21:30:30Z</time>
      </trkpt>
      <trkpt lat="40.222040" lon="-4.145110">
        <ele>610.722</ele>
        <time>2022-02-26T21:31:10Z</time>
      </trkpt>
      <trkpt lat="40.222180" lon="-4.145370">
        <ele>610.283</ele>
        <time>2022-02-26T21:31:50Z</time>
      </trkpt>
      <trkpt lat="40.222250" lon="-4.145500">
        <ele>610.025</ele>
        <time>2022-02-26T21:32:30Z</time>
      </trkpt>
      <trkpt lat="40.222280" lon="-4.145560">
        <ele>610.017</ele>
        <time>2022-02-26T21:33:10Z</time>
      </trkpt>
      <trkpt lat="40.222350" lon="-4.145690">
        <ele>610.008</ele>
        <time>2022-02-26T21:33:50Z</time>
      </trkpt>
      <trkpt lat="40.222540" lon="-4.146070">
        <ele>610.037</ele>
        <time>2022-02-26T21:34:30Z</time>
      </trkpt>
      <trkpt lat="40.222780" lon="-4.146510">
        <ele>610.464</ele>
        <time>2022-02-26T21:35:10Z</time>
      </trkpt>
      <trkpt lat="40.223100" lon="-4.147110">
        <ele>611.888</ele>
        <time>2022-02-26T21:35:50Z</time>
      </trkpt>
      <trkpt lat="40.223380" lon="-4.147620">
        <ele>614.837</ele>
        <time>2022-02-26T21:36:30Z</time>
      </trkpt>
      <trkpt lat="40.223760" lon="-4.148330">
        <ele>618.917</ele>
        <time>2022-02-26T21:37:10Z</time>
      </trkpt>
      <trkpt lat="40.223990" lon="-4.148750">
        <ele>619.269</ele>
        <time>2022-02-26T21:37:50Z</time>
      </trkpt>
      <trkpt lat="40.224060" lon="-4.148910">
        <ele>619.128</ele>
        <time>2022-02-26T21:38:30Z</time>
      </trkpt>
      <trkpt lat="40.224090" lon="-4.148980">
        <ele>618.828</ele>
        <time>2022-02-26T21:39:10Z</time>
      </trkpt>
      <trkpt lat="40.224210" lon="-4.149270">
        <ele>617.753</ele>
        <time>2022-02-26T21:39:50Z</time>
      </trkpt>
      <trkpt lat="40.224320" lon="-4.149610">
        <ele>617.004</ele>
        <time>2022-02-26T21:40:30Z</time>
      </trkpt>
      <trkpt lat="40.224380" lon="-4.149850">
        <ele>616.614</ele>
        <time>2022-02-26T21:41:10Z</time>
      </trkpt>
      <trkpt lat="40.224420" lon="-4.149990">
        <ele>616.708</ele>
        <time>2022-02-26T21:41:50Z</time>
      </trkpt>
      <trkpt lat="40.224480" lon="-4.150210">
        <ele>616.284</ele>
        <time>2022-02-26T21:42:30Z</time>
      </trkpt>
      <trkpt lat="40.224510" lon="-4.150320">
        <ele>615.831</ele>
        <time>2022-02-26T21:43:10Z</time>
      </trkpt>
      <trkpt lat="40.224610" lon="-4.150630">
        <ele>614.795</ele>
        <time>2022-02-26T21:43:50Z</time>
      </trkpt>
      <trkpt lat="40.224680" lon="-4.150800">
        <ele>614.114</ele>
        <time>2022-02-26T21:44:30Z</time>
      </trkpt>
      <trkpt lat="40.224770" lon="-4.151010">
        <ele>612.624</ele>
        <time>2022-02-26T21:45:10Z</time>
      </trkpt>
      <trkpt lat="40.224890" lon="-4.151280">
        <ele>611.496</ele>
        <time>2022-02-26T21:45:50Z</time>
      </trkpt>
      <trkpt lat="40.224930" lon="-4.151360">
        <ele>611.175</ele>
        <time>2022-02-26T21:46:30Z</time>
      </trkpt>
      <trkpt lat="40.224970" lon="-4.151420">
        <ele>610.995</ele>
        <time>2022-02-26T21:47:10Z</time>
      </trkpt>
      <trkpt lat="40.225050" lon="-4.151580">
        <ele>610.341</ele>
        <time>2022-02-26T21:47:50Z</time>
      </trkpt>
      <trkpt lat="40.225330" lon="-4.152050">
        <ele>610.081</ele>
        <time>2022-02-26T21:48:30Z</time>
      </trkpt>
      <trkpt lat="40.225600" lon="-4.152550">
        <ele>610.009</ele>
        <time>2022-02-26T21:49:10Z</time>
      </trkpt>
      <trkpt lat="40.225750" lon="-4.152830">
        <ele>610.008</ele>
        <time>2022-02-26T21:49:50Z</time>
      </trkpt>
      <trkpt lat="40.225820" lon="-4.152980">
        <ele>610.033</ele>
        <time>2022-02-26T21:50:30Z</time>
      </trkpt>
      <trkpt lat="40.225900" lon="-4.153150">
        <ele>610.060</ele>
        <time>2022-02-26T21:51:10Z</time>
      </trkpt>
      <trkpt lat="40.225970" lon="-4.153330">
        <ele>610.044</ele>
        <time>2022-02-26T21:51:50Z</time>
      </trkpt>
      <trkpt lat="40.226000" lon="-4.153410">
        <ele>610.073</ele>
        <time>2022-02-26T21:52:30Z</time>
      </trkpt>
      <trkpt lat="40.226040" lon="-4.153540">
        <ele>610.073</ele>
        <time>2022-02-26T21:53:10Z</time>
      </trkpt>
      <trkpt lat="40.226120" lon="-4.153830">
        <ele>610.085</ele>
        <time>2022-02-26T21:53:50Z</time>
      </trkpt>
      <trkpt lat="40.226220" lon="-4.154260">
        <ele>610.044</ele>
        <time>2022-02-26T21:54:30Z</time>
      </trkpt>
      <trkpt lat="40.226330" lon="-4.154850">
        <ele>610.074</ele>
        <time>2022-02-26T21:55:10Z</time>
      </trkpt>
      <trkpt lat="40.226410" lon="-4.155270">
        <ele>609.967</ele>
        <time>2022-02-26T21:55:50Z</time>
      </trkpt>
      <trkpt lat="40.226480" lon="-4.155590">
        <ele>609.781</ele>
        <time>2022-02-26T21:56:30Z</time>
      </trkpt>
      <trkpt lat="40.226550" lon="-4.155870">
        <ele>610.019</ele>
        <time>2022-02-26T21:57:10Z</time>
      </trkpt>
      <trkpt lat="40.226600" lon="-4.156070">
        <ele>610.008</ele>
        <time>2022-02-26T21:57:50Z</time>
      </trkpt>
      <trkpt lat="40.226650" lon="-4.156230">
        <ele>610.025</ele>
        <time>2022-02-26T21:58:30Z</time>
      </trkpt>
      <trkpt lat="40.226720" lon="-4.156450">
        <ele>610.022</ele>
        <time>2022-02-26T21:59:10Z</time>
      </trkpt>
      <trkpt lat="40.226730" lon="-4.156460">
        <ele>610.096</ele>
        <time>2022-02-26T21:59:50Z</time>
      </trkpt>
      <trkpt lat="40.226910" lon="-4.156970">
        <ele>610.095</ele>
        <time>2022-02-26T22:00:30Z</time>
      </trkpt>
      <trkpt lat="40.227170" lon="-4.157630">
        <ele>610.065</ele>
        <time>2022-02-26T22:01:10Z</time>
      </trkpt>
      <trkpt lat="40.227400" lon="-4.158220">
        <ele>608.857</ele>
        <time>2022-02-26T22:01:50Z</time>
      </trkpt>
      <trkpt lat="40.227740" lon="-4.159100">
        <ele>605.936</ele>
        <time>2022-02-26T22:02:30Z</time>
      </trkpt>
      <trkpt lat="40.227830" lon="-4.159410">
        <ele>605.876</ele>
        <time>2022-02-26T22:03:10Z</time>
      </trkpt>
      <trkpt lat="40.227890" lon="-4.159640">
        <ele>605.278</ele>
        <time>2022-02-26T22:03:50Z</time>
      </trkpt>
      <trkpt lat="40.227930" lon="-4.159790">
        <ele>604.933</ele>
        <time>2022-02-26T22:04:30Z</time>
      </trkpt>
      <trkpt lat="40.227960" lon="-4.159970">
        <ele>604.426</ele>
        <time>2022-02-26T22:05:10Z</time>
      </trkpt>
      <trkpt lat="40.227990" lon="-4.160210">
        <ele>604.108</ele>
        <time>2022-02-26T22:05:50Z</time>
      </trkpt>
      <trkpt lat="40.228030" lon="-4.160690">
        <ele>604.096</ele>
        <time>2022-02-26T22:06:30Z</time>
      </trkpt>
      <trkpt lat="40.228040" lon="-4.160770">
        <ele>604.033</ele>
        <time>2022-02-26T22:07:10Z</time>
      </trkpt>
      <trkpt lat="40.228090" lon="-4.161400">
        <ele>603.027</ele>
        <time>2022-02-26T22:07:50Z</time>
      </trkpt>
      <trkpt lat="40.228150" lon="-4.161980">
        <ele>602.066</ele>
        <time>2022-02-26T22:08:30Z</time>
      </trkpt>
      <trkpt lat="40.228230" lon="-4.162880">
        <ele>601.436</ele>
        <time>2022-02-26T22:09:10Z</time>
      </trkpt>
      <trkpt lat="40.228270" lon="-4.163380">
        <ele>601.098</ele>
        <time>2022-02-26T22:09:50Z</time>
      </trkpt>
      <trkpt lat="40.228300" lon="-4.163710">
        <ele>600.987</ele>
        <time>2022-02-26T22:10:30Z</time>
      </trkpt>
      <trkpt lat="40.228310" lon="-4.163960">
        <ele>600.927</ele>
        <time>2022-02-26T22:11:10Z</time>
      </trkpt>
      <trkpt lat="40.228310" lon="-4.164150">
        <ele>600.914</ele>
        <time>2022-02-26T22:11:50Z</time>
      </trkpt>
      <trkpt lat="40.228310" lon="-4.164310">
        <ele>600.454</ele>
        <time>2022-02-26T22:12:30Z</time>
      </trkpt>
      <trkpt lat="40.228310" lon="-4.164440">
        <ele>600.009</ele>
        <time>2022-02-26T22:13:10Z</time>
      </trkpt>
      <trkpt lat="40.228310" lon="-4.164470">
        <ele>600.008</ele>
        <time>2022-02-26T22:13:50Z</time>
      </trkpt>
      <trkpt lat="40.228290" lon="-4.164660">
        <ele>600.050</ele>
        <time>2022-02-26T22:14:30Z</time>
      </trkpt>
      <trkpt lat="40.228290" lon="-4.164670">
        <ele>600.097</ele>
        <time>2022-02-26T22:15:10Z</time>
      </trkpt>
      <trkpt lat="40.228270" lon="-4.164910">
        <ele>600.231</ele>
        <time>2022-02-26T22:15:50Z</time>
      </trkpt>
      <trkpt lat="40.228260" lon="-4.164990">
        <ele>600.390</ele>
        <time>2022-02-26T22:16:30Z</time>
      </trkpt>
      <trkpt lat="40.228240" lon="-4.165140">
        <ele>600.360</ele>
        <time>2022-02-26T22:17:10Z</time>
      </trkpt>
      <trkpt lat="40.228170" lon="-4.165660">
        <ele>600.262</ele>
        <time>2022-02-26T22:17:50Z</time>
      </trkpt>
      <trkpt lat="40.228090" lon="-4.166220">
        <ele>600.851</ele>
        <time>2022-02-26T22:18:30Z</time>
      </trkpt>
      <trkpt lat="40.228090" lon="-4.166420">
        <ele>600.841</ele>
        <time>2022-02-26T22:19:10Z</time>
      </trkpt>
      <trkpt lat="40.228090" lon="-4.166570">
        <ele>600.341</ele>
        <time>2022-02-26T22:19:50Z</time>
      </trkpt>
      <trkpt lat="40.228100" lon="-4.166770">
        <ele>600.081</ele>
        <time>2022-02-26T22:20:30Z</time>
      </trkpt>
      <trkpt lat="40.228110" lon="-4.166780">
        <ele>600.009</ele>
        <time>2022-02-26T22:21:10Z</time>
      </trkpt>
      <trkpt lat="40.228130" lon="-4.166980">
        <ele>600.008</ele>
        <time>2022-02-26T22:21:50Z</time>
      </trkpt>
      <trkpt lat="40.228170" lon="-4.167180">
        <ele>600.063</ele>
        <time>2022-02-26T22:22:30Z</time>
      </trkpt>
      <trkpt lat="40.228220" lon="-4.167350">
        <ele>600.080</ele>
        <time>2022-02-26T22:23:10Z</time>
      </trkpt>
      <trkpt lat="40.228260" lon="-4.167480">
        <ele>600.044</ele>
        <time>2022-02-26T22:23:50Z</time>
      </trkpt>
      <trkpt lat="40.228310" lon="-4.167610">
        <ele>600.053</ele>
        <time>2022-02-26T22:24:30Z</time>
      </trkpt>
      <trkpt lat="40.228360" lon="-4.167730">
        <ele>600.083</ele>
        <time>2022-02-26T22:25:10Z</time>
      </trkpt>
      <trkpt lat="40.228420" lon="-4.167840">
        <ele>600.055</ele>
        <time>2022-02-26T22:25:50Z</time>
      </trkpt>
      <trkpt lat="40.228490" lon="-4.167940">
        <ele>600.074</ele>
        <time>2022-02-26T22:26:30Z</time>
      </trkpt>
      <trkpt lat="40.228560" lon="-4.168040">
        <ele>600.074</ele>
        <time>2022-02-26T22:27:10Z</time>
      </trkpt>
      <trkpt lat="40.228660" lon="-4.168150">
        <ele>599.985</ele>
        <time>2022-02-26T22:27:50Z</time>
      </trkpt>
      <trkpt lat="40.228830" lon="-4.168320">
        <ele>600.089</ele>
        <time>2022-02-26T22:28:30Z</time>
      </trkpt>
      <trkpt lat="40.229270" lon="-4.168740">
        <ele>600.017</ele>
        <time>2022-02-26T22:29:10Z</time>
      </trkpt>
      <trkpt lat="40.229310" lon="-4.168770">
        <ele>600.008</ele>
        <time>2022-02-26T22:29:50Z</time>
      </trkpt>
      <trkpt lat="40.230170" lon="-4.169570">
        <ele>596.597</ele>
        <time>2022-02-26T22:30:30Z</time>
      </trkpt>
      <trkpt lat="40.230580" lon="-4.169960">
        <ele>595.014</ele>
        <time>2022-02-26T22:31:10Z</time>
      </trkpt>
      <trkpt lat="40.230610" lon="-4.169960">
        <ele>594.768</ele>
        <time>2022-02-26T22:31:50Z</time>
      </trkpt>
      <trkpt lat="40.230620" lon="-4.169960">
        <ele>594.627</ele>
        <time>2022-02-26T22:32:30Z</time>
      </trkpt>
      <trkpt lat="40.230650" lon="-4.169980">
        <ele>594.477</ele>
        <time>2022-02-26T22:33:10Z</time>
      </trkpt>
      <trkpt lat="40.230750" lon="-4.170060">
        <ele>593.429</ele>
        <time>2022-02-26T22:33:50Z</time>
      </trkpt>
      <trkpt lat="40.230970" lon="-4.170290">
        <ele>591.088</ele>
        <time>2022-02-26T22:34:30Z</time>
      </trkpt>
      <trkpt lat="40.231190" lon="-4.170480">
        <ele>590.018</ele>
        <time>2022-02-26T22:35:10Z</time>
      </trkpt>
      <trkpt lat="40.231330" lon="-4.170640">
        <ele>590.031</ele>
        <time>2022-02-26T22:35:50Z</time>
      </trkpt>
      <trkpt lat="40.231370" lon="-4.170680">
        <ele>590.061</ele>
        <time>2022-02-26T22:36:30Z</time>
      </trkpt>
      <trkpt lat="40.231450" lon="-4.170780">
        <ele>590.007</ele>
        <time>2022-02-26T22:37:10Z</time>
      </trkpt>
      <trkpt lat="40.231560" lon="-4.170940">
        <ele>590.008</ele>
        <time>2022-02-26T22:37:50Z</time>
      </trkpt>
      <trkpt lat="40.231660" lon="-4.171080">
        <ele>590.092</ele>
        <time>2022-02-26T22:38:30Z</time>
      </trkpt>
      <trkpt lat="40.231720" lon="-4.171210">
        <ele>590.089</ele>
        <time>2022-02-26T22:39:10Z</time>
      </trkpt>
      <trkpt lat="40.231820" lon="-4.171420">
        <ele>590.013</ele>
        <time>2022-02-26T22:39:50Z</time>
      </trkpt>
      <trkpt lat="40.231960" lon="-4.171730">
        <ele>590.052</ele>
        <time>2022-02-26T22:40:30Z</time>
      </trkpt>
      <trkpt lat="40.231980" lon="-4.171800">
        <ele>590.012</ele>
        <time>2022-02-26T22:41:10Z</time>
      </trkpt>
      <trkpt lat="40.232220" lon="-4.172430">
        <ele>590.054</ele>
        <time>2022-02-26T22:41:50Z</time>
      </trkpt>
      <trkpt lat="40.232260" lon="-4.172530">
        <ele>589.823</ele>
        <time>2022-02-26T22:42:30Z</time>
      </trkpt>
      <trkpt lat="40.232520" lon="-4.173190">
        <ele>587.373</ele>
        <time>2022-02-26T22:43:10Z</time>
      </trkpt>
      <trkpt lat="40.232540" lon="-4.173240">
        <ele>586.965</ele>
        <time>2022-02-26T22:43:50Z</time>
      </trkpt>
      <trkpt lat="40.232560" lon="-4.173300">
        <ele>586.568</ele>
        <time>2022-02-26T22:44:30Z</time>
      </trkpt>
      <trkpt lat="40.232590" lon="-4.173370">
        <ele>585.914</ele>
        <time>2022-02-26T22:45:10Z</time>
      </trkpt>
      <trkpt lat="40.232800" lon="-4.173930">
        <ele>583.608</ele>
        <time>2022-02-26T22:45:50Z</time>
      </trkpt>
      <trkpt lat="40.233000" lon="-4.174450">
        <ele>581.445</ele>
        <time>2022-02-26T22:46:30Z</time>
      </trkpt>
      <trkpt lat="40.233080" lon="-4.174690">
        <ele>580.912</ele>
        <time>2022-02-26T22:47:10Z</time>
      </trkpt>
      <trkpt lat="40.233080" lon="-4.174700">
        <ele>580.946</ele>
        <time>2022-02-26T22:47:50Z</time>
      </trkpt>
      <trkpt lat="40.233140" lon="-4.174910">
        <ele>580.755</ele>
        <time>2022-02-26T22:48:30Z</time>
      </trkpt>
      <trkpt lat="40.233170" lon="-4.175070">
        <ele>580.695</ele>
        <time>2022-02-26T22:49:10Z</time>
      </trkpt>
      <trkpt lat="40.233180" lon="-4.175150">
        <ele>580.627</ele>
        <time>2022-02-26T22:49:50Z</time>
      </trkpt>
      <trkpt lat="40.233190" lon="-4.175250">
        <ele>580.576</ele>
        <time>2022-02-26T22:50:30Z</time>
      </trkpt>
      <trkpt lat="40.233200" lon="-4.175390">
        <ele>580.386</ele>
        <time>2022-02-26T22:51:10Z</time>
      </trkpt>
      <trkpt lat="40.233210" lon="-4.175490">
        <ele>580.114</ele>
        <time>2022-02-26T22:51:50Z</time>
      </trkpt>
      <trkpt lat="40.233190" lon="-4.175700">
        <ele>580.054</ele>
        <time>2022-02-26T22:52:30Z</time>
      </trkpt>
      <trkpt lat="40.233160" lon="-4.175920">
        <ele>580.009</ele>
        <time>2022-02-26T22:53:10Z</time>
      </trkpt>
      <trkpt lat="40.233120" lon="-4.176090">
        <ele>580.008</ele>
        <time>2022-02-26T22:53:50Z</time>
      </trkpt>
      <trkpt lat="40.233100" lon="-4.176140">
        <ele>580.030</ele>
        <time>2022-02-26T22:54:30Z</time>
      </trkpt>
      <trkpt lat="40.233100" lon="-4.176150">
        <ele>580.027</ele>
        <time>2022-02-26T22:55:10Z</time>
      </trkpt>
      <trkpt lat="40.233090" lon="-4.176160">
        <ele>580.091</ele>
        <time>2022-02-26T22:55:50Z</time>
      </trkpt>
      <trkpt lat="40.233020" lon="-4.176470">
        <ele>580.120</ele>
        <time>2022-02-26T22:56:30Z</time>
      </trkpt>
      <trkpt lat="40.233010" lon="-4.176540">
        <ele>580.110</ele>
        <time>2022-02-26T22:57:10Z</time>
      </trkpt>
      <trkpt lat="40.232950" lon="-4.176800">
        <ele>580.082</ele>
        <time>2022-02-26T22:57:50Z</time>
      </trkpt>
      <trkpt lat="40.232840" lon="-4.177250">
        <ele>579.941</ele>
        <time>2022-02-26T22:58:30Z</time>
      </trkpt>
      <trkpt lat="40.232820" lon="-4.177360">
        <ele>579.531</ele>
        <time>2022-02-26T22:59:10Z</time>
      </trkpt>
      <trkpt lat="40.232710" lon="-4.177850">
        <ele>578.854</ele>
        <time>2022-02-26T22:59:50Z</time>
      </trkpt>
      <trkpt lat="40.232700" lon="-4.177930">
        <ele>578.656</ele>
        <time>2022-02-26T23:00:30Z</time>
      </trkpt>
      <trkpt lat="40.232680" lon="-4.178050">
        <ele>578.411</ele>
        <time>2022-02-26T23:01:10Z</time>
      </trkpt>
      <trkpt lat="40.232670" lon="-4.178270">
        <ele>578.208</ele>
        <time>2022-02-26T23:01:50Z</time>
      </trkpt>
      <trkpt lat="40.232680" lon="-4.178480">
        <ele>578.714</ele>
        <time>2022-02-26T23:02:30Z</time>
      </trkpt>
      <trkpt lat="40.232700" lon="-4.178680">
        <ele>579.541</ele>
        <time>2022-02-26T23:03:10Z</time>
      </trkpt>
      <trkpt lat="40.232720" lon="-4.178810">
        <ele>579.845</ele>
        <time>2022-02-26T23:03:50Z</time>
      </trkpt>
      <trkpt lat="40.232760" lon="-4.178970">
        <ele>580.024</ele>
        <time>2022-02-26T23:04:30Z</time>
      </trkpt>
      <trkpt lat="40.232880" lon="-4.179340">
        <ele>579.684</ele>
        <time>2022-02-26T23:05:10Z</time>
      </trkpt>
      <trkpt lat="40.232980" lon="-4.179570">
        <ele>579.736</ele>
        <time>2022-02-26T23:05:50Z</time>
      </trkpt>
      <trkpt lat="40.233090" lon="-4.179810">
        <ele>579.985</ele>
        <time>2022-02-26T23:06:30Z</time>
      </trkpt>
      <trkpt lat="40.233170" lon="-4.180000">
        <ele>579.615</ele>
        <time>2022-02-26T23:07:10Z</time>
      </trkpt>
      <trkpt lat="40.233180" lon="-4.180010">
        <ele>579.557</ele>
        <time>2022-02-26T23:07:50Z</time>
      </trkpt>
      <trkpt lat="40.233220" lon="-4.180140">
        <ele>579.100</ele>
        <time>2022-02-26T23:08:30Z</time>
      </trkpt>
      <trkpt lat="40.233320" lon="-4.180460">
        <ele>577.420</ele>
        <time>2022-02-26T23:09:10Z</time>
      </trkpt>
      <trkpt lat="40.233360" lon="-4.180660">
        <ele>576.608</ele>
        <time>2022-02-26T23:09:50Z</time>
      </trkpt>
      <trkpt lat="40.233370" lon="-4.180700">
        <ele>576.424</ele>
        <time>2022-02-26T23:10:30Z</time>
      </trkpt>
      <trkpt lat="40.233380" lon="-4.181040">
        <ele>575.511</ele>
        <time>2022-02-26T23:11:10Z</time>
      </trkpt>
      <trkpt lat="40.233380" lon="-4.181090">
        <ele>575.425</ele>
        <time>2022-02-26T23:11:50Z</time>
      </trkpt>
      <trkpt lat="40.233370" lon="-4.181180">
        <ele>575.334</ele>
        <time>2022-02-26T23:12:30Z</time>
      </trkpt>
      <trkpt lat="40.233370" lon="-4.181220">
        <ele>575.154</ele>
        <time>2022-02-26T23:13:10Z</time>
      </trkpt>
      <trkpt lat="40.233370" lon="-4.181290">
        <ele>574.956</ele>
        <time>2022-02-26T23:13:50Z</time>
      </trkpt>
      <trkpt lat="40.233350" lon="-4.181450">
        <ele>574.635</ele>
        <time>2022-02-26T23:14:30Z</time>
      </trkpt>
      <trkpt lat="40.233350" lon="-4.181460">
        <ele>574.635</ele>
        <time>2022-02-26T23:15:10Z</time>
      </trkpt>
      <trkpt lat="40.233330" lon="-4.181580">
        <ele>574.397</ele>
        <time>2022-02-26T23:15:50Z</time>
      </trkpt>
      <trkpt lat="40.233310" lon="-4.181680">
        <ele>574.123</ele>
        <time>2022-02-26T23:16:30Z</time>
      </trkpt>
      <trkpt lat="40.233290" lon="-4.181740">
        <ele>574.025</ele>
        <time>2022-02-26T23:17:10Z</time>
      </trkpt>
      <trkpt lat="40.233250" lon="-4.181890">
        <ele>573.808</ele>
        <time>2022-02-26T23:17:50Z</time>
      </trkpt>
      <trkpt lat="40.233250" lon="-4.181910">
        <ele>573.718</ele>
        <time>2022-02-26T23:18:30Z</time>
      </trkpt>
      <trkpt lat="40.233020" lon="-4.182550">
        <ele>573.785</ele>
        <time>2022-02-26T23:19:10Z</time>
      </trkpt>
      <trkpt lat="40.233000" lon="-4.182600">
        <ele>573.529</ele>
        <time>2022-02-26T23:19:50Z</time>
      </trkpt>
      <trkpt lat="40.232940" lon="-4.182760">
        <ele>573.088</ele>
        <time>2022-02-26T23:20:30Z</time>
      </trkpt>
      <trkpt lat="40.232870" lon="-4.182970">
        <ele>571.488</ele>
        <time>2022-02-26T23:21:10Z</time>
      </trkpt>
      <trkpt lat="40.232770" lon="-4.183250">
        <ele>569.970</ele>
        <time>2022-02-26T23:21:50Z</time>
      </trkpt>
      <trkpt lat="40.232710" lon="-4.183430">
        <ele>569.259</ele>
        <time>2022-02-26T23:22:30Z</time>
      </trkpt>
      <trkpt lat="40.232600" lon="-4.183860">
        <ele>566.079</ele>
        <time>2022-02-26T23:23:10Z</time>
      </trkpt>
      <trkpt lat="40.232540" lon="-4.184230">
        <ele>562.345</ele>
        <time>2022-02-26T23:23:50Z</time>
      </trkpt>
      <trkpt lat="40.232530" lon="-4.184390">
        <ele>560.947</ele>
        <time>2022-02-26T23:24:30Z</time>
      </trkpt>
      <trkpt lat="40.232520" lon="-4.184500">
        <ele>560.311</ele>
        <time>2022-02-26T23:25:10Z</time>
      </trkpt>
      <trkpt lat="40.232520" lon="-4.184940">
        <ele>559.408</ele>
        <time>2022-02-26T23:25:50Z</time>
      </trkpt>
      <trkpt lat="40.232540" lon="-4.185050">
        <ele>558.933</ele>
        <time>2022-02-26T23:26:30Z</time>
      </trkpt>
      <trkpt lat="40.232560" lon="-4.185250">
        <ele>557.650</ele>
        <time>2022-02-26T23:27:10Z</time>
      </trkpt>
      <trkpt lat="40.232590" lon="-4.185410">
        <ele>556.264</ele>
        <time>2022-02-26T23:27:50Z</time>
      </trkpt>
      <trkpt lat="40.232650" lon="-4.185700">
        <ele>553.833</ele>
        <time>2022-02-26T23:28:30Z</time>
      </trkpt>
      <trkpt lat="40.232660" lon="-4.185760">
        <ele>553.343</ele>
        <time>2022-02-26T23:29:10Z</time>
      </trkpt>
      <trkpt lat="40.232710" lon="-4.185970">
        <ele>551.875</ele>
        <time>2022-02-26T23:29:50Z</time>
      </trkpt>
      <trkpt lat="40.232770" lon="-4.186140">
        <ele>550.864</ele>
        <time>2022-02-26T23:30:30Z</time>
      </trkpt>
      <trkpt lat="40.232860" lon="-4.186380">
        <ele>549.774</ele>
        <time>2022-02-26T23:31:10Z</time>
      </trkpt>
      <trkpt lat="40.232870" lon="-4.186410">
        <ele>549.668</ele>
        <time>2022-02-26T23:31:50Z</time>
      </trkpt>
      <trkpt lat="40.233080" lon="-4.186990">
        <ele>548.242</ele>
        <time>2022-02-26T23:32:30Z</time>
      </trkpt>
      <trkpt lat="40.233090" lon="-4.187030">
        <ele>548.126</ele>
        <time>2022-02-26T23:33:10Z</time>
      </trkpt>
      <trkpt lat="40.233140" lon="-4.187210">
        <ele>548.008</ele>
        <time>2022-02-26T23:33:50Z</time>
      </trkpt>
      <trkpt lat="40.233190" lon="-4.187360">
        <ele>548.045</ele>
        <time>2022-02-26T23:34:30Z</time>
      </trkpt>
      <trkpt lat="40.233250" lon="-4.187510">
        <ele>548.182</ele>
        <time>2022-02-26T23:35:10Z</time>
      </trkpt>
      <trkpt lat="40.233300" lon="-4.187550">
        <ele>548.556</ele>
        <time>2022-02-26T23:35:50Z</time>
      </trkpt>
      <trkpt lat="40.233360" lon="-4.187650">
        <ele>548.765</ele>
        <time>2022-02-26T23:36:30Z</time>
      </trkpt>
      <trkpt lat="40.233410" lon="-4.187710">
        <ele>548.875</ele>
        <time>2022-02-26T23:37:10Z</time>
      </trkpt>
      <trkpt lat="40.233540" lon="-4.187880">
        <ele>548.857</ele>
        <time>2022-02-26T23:37:50Z</time>
      </trkpt>
      <trkpt lat="40.233610" lon="-4.187960">
        <ele>548.756</ele>
        <time>2022-02-26T23:38:30Z</time>
      </trkpt>
      <trkpt lat="40.233680" lon="-4.188020">
        <ele>549.066</ele>
        <time>2022-02-26T23:39:10Z</time>
      </trkpt>
      <trkpt lat="40.233770" lon="-4.188090">
        <ele>549.577</ele>
        <time>2022-02-26T23:39:50Z</time>
      </trkpt>
      <trkpt lat="40.233860" lon="-4.188160">
        <ele>550.061</ele>
        <time>2022-02-26T23:40:30Z</time>
      </trkpt>
      <trkpt lat="40.233980" lon="-4.188230">
        <ele>550.227</ele>
        <time>2022-02-26T23:41:10Z</time>
      </trkpt>
      <trkpt lat="40.234080" lon="-4.188300">
        <ele>550.008</ele>
        <time>2022-02-26T23:41:50Z</time>
      </trkpt>
      <trkpt lat="40.234160" lon="-4.188350">
        <ele>549.916</ele>
        <time>2022-02-26T23:42:30Z</time>
      </trkpt>
      <trkpt lat="40.234400" lon="-4.188430">
        <ele>550.253</ele>
        <time>2022-02-26T23:43:10Z</time>
      </trkpt>
      <trkpt lat="40.234470" lon="-4.188450">
        <ele>550.737</ele>
        <time>2022-02-26T23:43:50Z</time>
      </trkpt>
      <trkpt lat="40.234560" lon="-4.188480">
        <ele>552.246</ele>
        <time>2022-02-26T23:44:30Z</time>
      </trkpt>
      <trkpt lat="40.234650" lon="-4.188480">
        <ele>554.096</ele>
        <time>2022-02-26T23:45:10Z</time>
      </trkpt>
      <trkpt lat="40.234648" lon="-4.188478">
        <ele>554.068</ele>
        <time>2022-02-26T23:45:50Z</time>
      </trkpt>
      <trkpt lat="40.234650" lon="-4.188470">
        <ele>554.167</ele>
        <time>2022-02-26T23:46:30Z</time>
      </trkpt>
      <trkpt lat="40.234660" lon="-4.188460">
        <ele>554.367</ele>
        <time>2022-02-26T23:47:10Z</time>
      </trkpt>
      <trkpt lat="40.234660" lon="-4.188450">
        <ele>554.433</ele>
        <time>2022-02-26T23:47:50Z</time>
      </trkpt>
      <trkpt lat="40.234670" lon="-4.188450">
        <ele>554.623</ele>
        <time>2022-02-26T23:48:30Z</time>
      </trkpt>
      <trkpt lat="40.234670" lon="-4.188440">
        <ele>554.615</ele>
        <time>2022-02-26T23:49:10Z</time>
      </trkpt>
      <trkpt lat="40.234680" lon="-4.188440">
        <ele>554.808</ele>
        <time>2022-02-26T23:49:50Z</time>
      </trkpt>
      <trkpt lat="40.234680" lon="-4.188430">
        <ele>554.852</ele>
        <time>2022-02-26T23:50:30Z</time>
      </trkpt>
      <trkpt lat="40.234690" lon="-4.188430">
        <ele>555.029</ele>
        <time>2022-02-26T23:51:10Z</time>
      </trkpt>
      <trkpt lat="40.234690" lon="-4.188420">
        <ele>555.153</ele>
        <time>2022-02-26T23:51:50Z</time>
      </trkpt>
      <trkpt lat="40.234700" lon="-4.188420">
        <ele>555.382</ele>
        <time>2022-02-26T23:52:30Z</time>
      </trkpt>
      <trkpt lat="40.234710" lon="-4.188420">
        <ele>555.512</ele>
        <time>2022-02-26T23:53:10Z</time>
      </trkpt>
      <trkpt lat="40.234720" lon="-4.188410">
        <ele>555.724</ele>
        <time>2022-02-26T23:53:50Z</time>
      </trkpt>
      <trkpt lat="40.234730" lon="-4.188410">
        <ele>555.733</ele>
        <time>2022-02-26T23:54:30Z</time>
      </trkpt>
      <trkpt lat="40.234740" lon="-4.188410">
        <ele>555.713</ele>
        <time>2022-02-26T23:55:10Z</time>
      </trkpt>
      <trkpt lat="40.234750" lon="-4.188410">
        <ele>555.753</ele>
        <time>2022-02-26T23:55:50Z</time>
      </trkpt>
      <trkpt lat="40.234760" lon="-4.188410">
        <ele>555.704</ele>
        <time>2022-02-26T23:56:30Z</time>
      </trkpt>
      <trkpt lat="40.234770" lon="-4.188420">
        <ele>555.714</ele>
        <time>2022-02-26T23:57:10Z</time>
      </trkpt>
      <trkpt lat="40.234780" lon="-4.188420">
        <ele>555.708</ele>
        <time>2022-02-26T23:57:50Z</time>
      </trkpt>
      <trkpt lat="40.234790" lon="-4.188430">
        <ele>555.754</ele>
        <time>2022-02-26T23:58:30Z</time>
      </trkpt>
      <trkpt lat="40.234970" lon="-4.188410">
        <ele>555.731</ele>
        <time>2022-02-26T23:59:10Z</time>
      </trkpt>
      <trkpt lat="40.235440" lon="-4.188160">
        <ele>548.065</ele>
        <time>2022-02-26T23:59:50Z</time>
      </trkpt>
      <trkpt lat="40.235570" lon="-4.188080">
        <ele>547.964</ele>
        <time>2022-02-27T00:00:30Z</time>
      </trkpt>
      <trkpt lat="40.235670" lon="-4.188030">
        <ele>547.734</ele>
        <time>2022-02-27T00:01:10Z</time>
      </trkpt>
      <trkpt lat="40.235800" lon="-4.187980">
        <ele>547.436</ele>
        <time>2022-02-27T00:01:50Z</time>
      </trkpt>
      <trkpt lat="40.235920" lon="-4.187940">
        <ele>547.115</ele>
        <time>2022-02-27T00:02:30Z</time>
      </trkpt>
      <trkpt lat="40.236040" lon="-4.187920">
        <ele>546.755</ele>
        <time>2022-02-27T00:03:10Z</time>
      </trkpt>
      <trkpt lat="40.236070" lon="-4.187920">
        <ele>546.618</ele>
        <time>2022-02-27T00:03:50Z</time>
      </trkpt>
      <trkpt lat="40.236170" lon="-4.187910">
        <ele>546.398</ele>
        <time>2022-02-27T00:04:30Z</time>
      </trkpt>
      <trkpt lat="40.236270" lon="-4.187910">
        <ele>546.017</ele>
        <time>2022-02-27T00:05:10Z</time>
      </trkpt>
      <trkpt lat="40.236400" lon="-4.187920">
        <ele>545.408</ele>
        <time>2022-02-27T00:05:50Z</time>
      </trkpt>
      <trkpt lat="40.236710" lon="-4.187950">
        <ele>543.820</ele>
        <time>2022-02-27T00:06:30Z</time>
      </trkpt>
      <trkpt lat="40.237000" lon="-4.187990">
        <ele>541.167</ele>
        <time>2022-02-27T00:07:10Z</time>
      </trkpt>
      <trkpt lat="40.237310" lon="-4.188020">
        <ele>537.781</ele>
        <time>2022-02-27T00:07:50Z</time>
      </trkpt>
      <trkpt lat="40.237430" lon="-4.188040">
        <ele>536.650</ele>
        <time>2022-02-27T00:08:30Z</time>
      </trkpt>
      <trkpt lat="40.237500" lon="-4.188050">
        <ele>536.020</ele>
        <time>2022-02-27T00:09:10Z</time>
      </trkpt>
      <trkpt lat="40.237610" lon="-4.188060">
        <ele>534.842</ele>
        <time>2022-02-27T00:09:50Z</time>
      </trkpt>
      <trkpt lat="40.237790" lon="-4.188090">
        <ele>532.631</ele>
        <time>2022-02-27T00:10:30Z</time>
      </trkpt>
      <trkpt lat="40.237910" lon="-4.188110">
        <ele>531.361</ele>
        <time>2022-02-27T00:11:10Z</time>
      </trkpt>
      <trkpt lat="40.238030" lon="-4.188150">
        <ele>529.945</ele>
        <time>2022-02-27T00:11:50Z</time>
      </trkpt>
      <trkpt lat="40.238120" lon="-4.188200">
        <ele>529.647</ele>
        <time>2022-02-27T00:12:30Z</time>
      </trkpt>
      <trkpt lat="40.238130" lon="-4.188210">
        <ele>529.611</ele>
        <time>2022-02-27T00:13:10Z</time>
      </trkpt>
      <trkpt lat="40.238240" lon="-4.188280">
        <ele>529.708</ele>
        <time>2022-02-27T00:13:50Z</time>
      </trkpt>
      <trkpt lat="40.238380" lon="-4.188380">
        <ele>530.393</ele>
        <time>2022-02-27T00:14:30Z</time>
      </trkpt>
      <trkpt lat="40.238550" lon="-4.188480">
        <ele>531.670</ele>
        <time>2022-02-27T00:15:10Z</time>
      </trkpt>
      <trkpt lat="40.238710" lon="-4.188590">
        <ele>532.714</ele>
        <time>2022-02-27T00:15:50Z</time>
      </trkpt>
      <trkpt lat="40.238850" lon="-4.188680">
        <ele>533.723</ele>
        <time>2022-02-27T00:16:30Z</time>
      </trkpt>
      <trkpt lat="40.239080" lon="-4.188820">
        <ele>535.493</ele>
        <time>2022-02-27T00:17:10Z</time>
      </trkpt>
      <trkpt lat="40.239400" lon="-4.188900">
        <ele>537.755</ele>
        <time>2022-02-27T00:17:50Z</time>
      </trkpt>
      <trkpt lat="40.239740" lon="-4.188980">
        <ele>540.084</ele>
        <time>2022-02-27T00:18:30Z</time>
      </trkpt>
      <trkpt lat="40.239770" lon="-4.188980">
        <ele>540.164</ele>
        <time>2022-02-27T00:19:10Z</time>
      </trkpt>
      <trkpt lat="40.240260" lon="-4.189100">
        <ele>542.626</ele>
        <time>2022-02-27T00:19:50Z</time>
      </trkpt>
      <trkpt lat="40.240630" lon="-4.189180">
        <ele>546.647</ele>
        <time>2022-02-27T00:20:30Z</time>
      </trkpt>
      <trkpt lat="40.240670" lon="-4.189190">
        <ele>547.011</ele>
        <time>2022-02-27T00:21:10Z</time>
      </trkpt>
      <trkpt lat="40.240830" lon="-4.189230">
        <ele>548.408</ele>
        <time>2022-02-27T00:21:50Z</time>
      </trkpt>
      <trkpt lat="40.240900" lon="-4.189240">
        <ele>548.931</ele>
        <time>2022-02-27T00:22:30Z</time>
      </trkpt>
      <trkpt lat="40.240960" lon="-4.189270">
        <ele>549.518</ele>
        <time>2022-02-27T00:23:10Z</time>
      </trkpt>
      <trkpt lat="40.240980" lon="-4.189280">
        <ele>549.782</ele>
        <time>2022-02-27T00:23:50Z</time>
      </trkpt>
      <trkpt lat="40.241000" lon="-4.189290">
        <ele>549.871</ele>
        <time>2022-02-27T00:24:30Z</time>
      </trkpt>
      <trkpt lat="40.241060" lon="-4.189340">
        <ele>550.411</ele>
        <time>2022-02-27T00:25:10Z</time>
      </trkpt>
      <trkpt lat="40.241090" lon="-4.189370">
        <ele>550.623</ele>
        <time>2022-02-27T00:25:50Z</time>
      </trkpt>
      <trkpt lat="40.241130" lon="-4.189400">
        <ele>551.022</ele>
        <time>2022-02-27T00:26:30Z</time>
      </trkpt>
      <trkpt lat="40.241220" lon="-4.189540">
        <ele>552.362</ele>
        <time>2022-02-27T00:27:10Z</time>
      </trkpt>
      <trkpt lat="40.241250" lon="-4.189610">
        <ele>552.997</ele>
        <time>2022-02-27T00:27:50Z</time>
      </trkpt>
      <trkpt lat="40.241300" lon="-4.189710">
        <ele>553.623</ele>
        <time>2022-02-27T00:28:30Z</time>
      </trkpt>
      <trkpt lat="40.241340" lon="-4.189760">
        <ele>553.725</ele>
        <time>2022-02-27T00:29:10Z</time>
      </trkpt>
      <trkpt lat="40.241360" lon="-4.189810">
        <ele>553.608</ele>
        <time>2022-02-27T00:29:50Z</time>
      </trkpt>
      <trkpt lat="40.241390" lon="-4.189850">
        <ele>553.578</ele>
        <time>2022-02-27T00:30:30Z</time>
      </trkpt>
      <trkpt lat="40.241410" lon="-4.189870">
        <ele>553.695</ele>
        <time>2022-02-27T00:31:10Z</time>
      </trkpt>
      <trkpt lat="40.241430" lon="-4.189890">
        <ele>553.639</ele>
        <time>2022-02-27T00:31:50Z</time>
      </trkpt>
      <trkpt lat="40.241460" lon="-4.189910">
        <ele>553.778</ele>
        <time>2022-02-27T00:32:30Z</time>
      </trkpt>
      <trkpt lat="40.241530" lon="-4.189930">
        <ele>553.938</ele>
        <time>2022-02-27T00:33:10Z</time>
      </trkpt>
      <trkpt lat="40.241550" lon="-4.189930">
        <ele>554.040</ele>
        <time>2022-02-27T00:33:50Z</time>
      </trkpt>
      <trkpt lat="40.241590" lon="-4.189930">
        <ele>554.259</ele>
        <time>2022-02-27T00:34:30Z</time>
      </trkpt>
      <trkpt lat="40.241640" lon="-4.189930">
        <ele>554.499</ele>
        <time>2022-02-27T00:35:10Z</time>
      </trkpt>
      <trkpt lat="40.241720" lon="-4.189910">
        <ele>554.869</ele>
        <time>2022-02-27T00:35:50Z</time>
      </trkpt>
      <trkpt lat="40.241780" lon="-4.189900">
        <ele>555.104</ele>
        <time>2022-02-27T00:36:30Z</time>
      </trkpt>
      <trkpt lat="40.241860" lon="-4.189860">
        <ele>555.724</ele>
        <time>2022-02-27T00:37:10Z</time>
      </trkpt>
      <trkpt lat="40.241930" lon="-4.189820">
        <ele>556.208</ele>
        <time>2022-02-27T00:37:50Z</time>
      </trkpt>
      <trkpt lat="40.241980" lon="-4.189790">
        <ele>556.735</ele>
        <time>2022-02-27T00:38:30Z</time>
      </trkpt>
      <trkpt lat="40.242030" lon="-4.189760">
        <ele>557.372</ele>
        <time>2022-02-27T00:39:10Z</time>
      </trkpt>
      <trkpt lat="40.242070" lon="-4.189720">
        <ele>557.916</ele>
        <time>2022-02-27T00:39:50Z</time>
      </trkpt>
      <trkpt lat="40.242320" lon="-4.189470">
        <ele>558.275</ele>
        <time>2022-02-27T00:40:30Z</time>
      </trkpt>
      <trkpt lat="40.242650" lon="-4.189250">
        <ele>560.055</ele>
        <time>2022-02-27T00:41:10Z</time>
      </trkpt>
      <trkpt lat="40.243330" lon="-4.188810">
        <ele>560.047</ele>
        <time>2022-02-27T00:41:50Z</time>
      </trkpt>
      <trkpt lat="40.243470" lon="-4.188720">
        <ele>560.056</ele>
        <time>2022-02-27T00:42:30Z</time>
      </trkpt>
      <trkpt lat="40.243660" lon="-4.188600">
        <ele>560.426</ele>
        <time>2022-02-27T00:43:10Z</time>
      </trkpt>
      <trkpt lat="40.244140" lon="-4.188300">
        <ele>566.885</ele>
        <time>2022-02-27T00:43:50Z</time>
      </trkpt>
      <trkpt lat="40.244320" lon="-4.188190">
        <ele>568.389</ele>
        <time>2022-02-27T00:44:30Z</time>
      </trkpt>
      <trkpt lat="40.244480" lon="-4.188090">
        <ele>569.617</ele>
        <time>2022-02-27T00:45:10Z</time>
      </trkpt>
      <trkpt lat="40.244600" lon="-4.188010">
        <ele>570.008</ele>
        <time>2022-02-27T00:45:50Z</time>
      </trkpt>
      <trkpt lat="40.244810" lon="-4.187890">
        <ele>569.917</ele>
        <time>2022-02-27T00:46:30Z</time>
      </trkpt>
      <trkpt lat="40.244970" lon="-4.187790">
        <ele>570.024</ele>
        <time>2022-02-27T00:47:10Z</time>
      </trkpt>
      <trkpt lat="40.245080" lon="-4.187730">
        <ele>570.068</ele>
        <time>2022-02-27T00:47:50Z</time>
      </trkpt>
      <trkpt lat="40.245160" lon="-4.187680">
        <ele>570.027</ele>
        <time>2022-02-27T00:48:30Z</time>
      </trkpt>
      <trkpt lat="40.245250" lon="-4.187640">
        <ele>570.047</ele>
        <time>2022-02-27T00:49:10Z</time>
      </trkpt>
      <trkpt lat="40.245370" lon="-4.187580">
        <ele>570.019</ele>
        <time>2022-02-27T00:49:50Z</time>
      </trkpt>
      <trkpt lat="40.245710" lon="-4.187460">
        <ele>570.058</ele>
        <time>2022-02-27T00:50:30Z</time>
      </trkpt>
      <trkpt lat="40.245910" lon="-4.187370">
        <ele>570.468</ele>
        <time>2022-02-27T00:51:10Z</time>
      </trkpt>
      <trkpt lat="40.246030" lon="-4.187310">
        <ele>571.284</ele>
        <time>2022-02-27T00:51:50Z</time>
      </trkpt>
      <trkpt lat="40.246080" lon="-4.187280">
        <ele>571.607</ele>
        <time>2022-02-27T00:52:30Z</time>
      </trkpt>
      <trkpt lat="40.246170" lon="-4.187210">
        <ele>572.217</ele>
        <time>2022-02-27T00:53:10Z</time>
      </trkpt>
      <trkpt lat="40.246300" lon="-4.187100">
        <ele>573.008</ele>
        <time>2022-02-27T00:53:50Z</time>
      </trkpt>
      <trkpt lat="40.246450" lon="-4.186950">
        <ele>574.487</ele>
        <time>2022-02-27T00:54:30Z</time>
      </trkpt>
      <trkpt lat="40.246600" lon="-4.186810">
        <ele>575.574</ele>
        <time>2022-02-27T00:55:10Z</time>
      </trkpt>
      <trkpt lat="40.246710" lon="-4.186740">
        <ele>576.218</ele>
        <time>2022-02-27T00:55:50Z</time>
      </trkpt>
      <trkpt lat="40.246820" lon="-4.186670">
        <ele>576.627</ele>
        <time>2022-02-27T00:56:30Z</time>
      </trkpt>
      <trkpt lat="40.246890" lon="-4.186640">
        <ele>576.717</ele>
        <time>2022-02-27T00:57:10Z</time>
      </trkpt>
      <trkpt lat="40.246990" lon="-4.186610">
        <ele>577.369</ele>
        <time>2022-02-27T00:57:50Z</time>
      </trkpt>
      <trkpt lat="40.247090" lon="-4.186590">
        <ele>578.388</ele>
        <time>2022-02-27T00:58:30Z</time>
      </trkpt>
      <trkpt lat="40.247140" lon="-4.186570">
        <ele>578.868</ele>
        <time>2022-02-27T00:59:10Z</time>
      </trkpt>
      <trkpt lat="40.247330" lon="-4.186540">
        <ele>579.735</ele>
        <time>2022-02-27T00:59:50Z</time>
      </trkpt>
      <trkpt lat="40.247480" lon="-4.186500">
        <ele>580.086</ele>
        <time>2022-02-27T01:00:30Z</time>
      </trkpt>
      <trkpt lat="40.247610" lon="-4.186460">
        <ele>580.714</ele>
        <time>2022-02-27T01:01:10Z</time>
      </trkpt>
      <trkpt lat="40.247720" lon="-4.186430">
        <ele>581.508</ele>
        <time>2022-02-27T01:01:50Z</time>
      </trkpt>
      <trkpt lat="40.247830" lon="-4.186390">
        <ele>582.212</ele>
        <time>2022-02-27T01:02:30Z</time>
      </trkpt>
      <trkpt lat="40.247960" lon="-4.186340">
        <ele>582.899</ele>
        <time>2022-02-27T01:03:10Z</time>
      </trkpt>
      <trkpt lat="40.247980" lon="-4.186330">
        <ele>582.963</ele>
        <time>2022-02-27T01:03:50Z</time>
      </trkpt>
      <trkpt lat="40.248150" lon="-4.186260">
        <ele>584.062</ele>
        <time>2022-02-27T01:04:30Z</time>
      </trkpt>
      <trkpt lat="40.248340" lon="-4.186170">
        <ele>585.682</ele>
        <time>2022-02-27T01:05:10Z</time>
      </trkpt>
      <trkpt lat="40.248410" lon="-4.186090">
        <ele>586.454</ele>
        <time>2022-02-27T01:05:50Z</time>
      </trkpt>
      <trkpt lat="40.248580" lon="-4.186020">
        <ele>587.193</ele>
        <time>2022-02-27T01:06:30Z</time>
      </trkpt>
      <trkpt lat="40.248860" lon="-4.185920">
        <ele>589.023</ele>
        <time>2022-02-27T01:07:10Z</time>
      </trkpt>
      <trkpt lat="40.249080" lon="-4.185830">
        <ele>589.795</ele>
        <time>2022-02-27T01:07:50Z</time>
      </trkpt>
      <trkpt lat="40.249120" lon="-4.185820">
        <ele>589.849</ele>
        <time>2022-02-27T01:08:30Z</time>
      </trkpt>
      <trkpt lat="40.249350" lon="-4.185770">
        <ele>587.323</ele>
        <time>2022-02-27T01:09:10Z</time>
      </trkpt>
      <trkpt lat="40.249380" lon="-4.185770">
        <ele>586.908</ele>
        <time>2022-02-27T01:09:50Z</time>
      </trkpt>
      <trkpt lat="40.249710" lon="-4.185710">
        <ele>588.378</ele>
        <time>2022-02-27T01:10:30Z</time>
      </trkpt>
      <trkpt lat="40.249840" lon="-4.185690">
        <ele>589.425</ele>
        <time>2022-02-27T01:11:10Z</time>
      </trkpt>
      <trkpt lat="40.249950" lon="-4.185680">
        <ele>590.279</ele>
        <time>2022-02-27T01:11:50Z</time>
      </trkpt>
      <trkpt lat="40.250250" lon="-4.185640">
        <ele>591.258</ele>
        <time>2022-02-27T01:12:30Z</time>
      </trkpt>
      <trkpt lat="40.250300" lon="-4.185630">
        <ele>591.348</ele>
        <time>2022-02-27T01:13:10Z</time>
      </trkpt>
      <trkpt lat="40.250390" lon="-4.185620">
        <ele>591.480</ele>
        <time>2022-02-27T01:13:50Z</time>
      </trkpt>
      <trkpt lat="40.250630" lon="-4.185570">
        <ele>590.979</ele>
        <time>2022-02-27T01:14:30Z</time>
      </trkpt>
      <trkpt lat="40.250740" lon="-4.185530">
        <ele>590.029</ele>
        <time>2022-02-27T01:15:10Z</time>
      </trkpt>
      <trkpt lat="40.250940" lon="-4.185470">
        <ele>587.477</ele>
        <time>2022-02-27T01:15:50Z</time>
      </trkpt>
      <trkpt lat="40.251000" lon="-4.185450">
        <ele>586.361</ele>
        <time>2022-02-27T01:16:30Z</time>
      </trkpt>
      <trkpt lat="40.251060" lon="-4.185460">
        <ele>585.427</ele>
        <time>2022-02-27T01:17:10Z</time>
      </trkpt>
      <trkpt lat="40.251090" lon="-4.185450">
        <ele>584.908</ele>
        <time>2022-02-27T01:17:50Z</time>
      </trkpt>
      <trkpt lat="40.251380" lon="-4.185360">
        <ele>582.166</ele>
        <time>2022-02-27T01:18:30Z</time>
      </trkpt>
      <trkpt lat="40.251920" lon="-4.185190">
        <ele>580.053</ele>
        <time>2022-02-27T01:19:10Z</time>
      </trkpt>
      <trkpt lat="40.251930" lon="-4.185180">
        <ele>580.027</ele>
        <time>2022-02-27T01:19:50Z</time>
      </trkpt>
      <trkpt lat="40.252110" lon="-4.185130">
        <ele>580.056</ele>
        <time>2022-02-27T01:20:30Z</time>
      </trkpt>
      <trkpt lat="40.252190" lon="-4.185100">
        <ele>580.016</ele>
        <time>2022-02-27T01:21:10Z</time>
      </trkpt>
      <trkpt lat="40.252280" lon="-4.185070">
        <ele>580.028</ele>
        <time>2022-02-27T01:21:50Z</time>
      </trkpt>
      <trkpt lat="40.252390" lon="-4.185020">
        <ele>580.097</ele>
        <time>2022-02-27T01:22:30Z</time>
      </trkpt>
      <trkpt lat="40.252400" lon="-4.185020">
        <ele>580.077</ele>
        <time>2022-02-27T01:23:10Z</time>
      </trkpt>
      <trkpt lat="40.252500" lon="-4.184980">
        <ele>580.054</ele>
        <time>2022-02-27T01:23:50Z</time>
      </trkpt>
      <trkpt lat="40.252510" lon="-4.184970">
        <ele>580.056</ele>
        <time>2022-02-27T01:24:30Z</time>
      </trkpt>
      <trkpt lat="40.252530" lon="-4.184960">
        <ele>580.011</ele>
        <time>2022-02-27T01:25:10Z</time>
      </trkpt>
      <trkpt lat="40.252610" lon="-4.184930">
        <ele>580.008</ele>
        <time>2022-02-27T01:25:50Z</time>
      </trkpt>
      <trkpt lat="40.252890" lon="-4.184770">
        <ele>580.014</ele>
        <time>2022-02-27T01:26:30Z</time>
      </trkpt>
      <trkpt lat="40.253260" lon="-4.184580">
        <ele>580.021</ele>
        <time>2022-02-27T01:27:10Z</time>
      </trkpt>
      <trkpt lat="40.253370" lon="-4.184520">
        <ele>580.035</ele>
        <time>2022-02-27T01:27:50Z</time>
      </trkpt>
      <trkpt lat="40.253400" lon="-4.184510">
        <ele>580.014</ele>
        <time>2022-02-27T01:28:30Z</time>
      </trkpt>
      <trkpt lat="40.253500" lon="-4.184460">
        <ele>580.084</ele>
        <time>2022-02-27T01:29:10Z</time>
      </trkpt>
      <trkpt lat="40.253530" lon="-4.184440">
        <ele>580.066</ele>
        <time>2022-02-27T01:29:50Z</time>
      </trkpt>
      <trkpt lat="40.253900" lon="-4.184250">
        <ele>579.055</ele>
        <time>2022-02-27T01:30:30Z</time>
      </trkpt>
      <trkpt lat="40.254270" lon="-4.184060">
        <ele>577.625</ele>
        <time>2022-02-27T01:31:10Z</time>
      </trkpt>
      <trkpt lat="40.254570" lon="-4.183900">
        <ele>576.127</ele>
        <time>2022-02-27T01:31:50Z</time>
      </trkpt>
      <trkpt lat="40.254670" lon="-4.183840">
        <ele>575.468</ele>
        <time>2022-02-27T01:32:30Z</time>
      </trkpt>
      <trkpt lat="40.254700" lon="-4.183820">
        <ele>575.214</ele>
        <time>2022-02-27T01:33:10Z</time>
      </trkpt>
      <trkpt lat="40.254730" lon="-4.183810">
        <ele>574.908</ele>
        <time>2022-02-27T01:33:50Z</time>
      </trkpt>
      <trkpt lat="40.254870" lon="-4.183740">
        <ele>573.951</ele>
        <time>2022-02-27T01:34:30Z</time>
      </trkpt>
      <trkpt lat="40.254900" lon="-4.183720">
        <ele>573.748</ele>
        <time>2022-02-27T01:35:10Z</time>
      </trkpt>
      <trkpt lat="40.255200" lon="-4.183560">
        <ele>572.382</ele>
        <time>2022-02-27T01:35:50Z</time>
      </trkpt>
      <trkpt lat="40.255230" lon="-4.183540">
        <ele>572.241</ele>
        <time>2022-02-27T01:36:30Z</time>
      </trkpt>
      <trkpt lat="40.255500" lon="-4.183400">
        <ele>570.441</ele>
        <time>2022-02-27T01:37:10Z</time>
      </trkpt>
      <trkpt lat="40.255540" lon="-4.183390">
        <ele>570.183</ele>
        <time>2022-02-27T01:37:50Z</time>
      </trkpt>
      <trkpt lat="40.255670" lon="-4.183320">
        <ele>570.072</ele>
        <time>2022-02-27T01:38:30Z</time>
      </trkpt>
      <trkpt lat="40.255840" lon="-4.183230">
        <ele>570.092</ele>
        <time>2022-02-27T01:39:10Z</time>
      </trkpt>
      <trkpt lat="40.256000" lon="-4.183140">
        <ele>569.639</ele>
        <time>2022-02-27T01:39:50Z</time>
      </trkpt>
      <trkpt lat="40.256170" lon="-4.183050">
        <ele>569.001</ele>
        <time>2022-02-27T01:40:30Z</time>
      </trkpt>
      <trkpt lat="40.256340" lon="-4.182960">
        <ele>569.121</ele>
        <time>2022-02-27T01:41:10Z</time>
      </trkpt>
      <trkpt lat="40.256500" lon="-4.182880">
        <ele>568.708</ele>
        <time>2022-02-27T01:41:50Z</time>
      </trkpt>
      <trkpt lat="40.256540" lon="-4.182860">
        <ele>568.642</ele>
        <time>2022-02-27T01:42:30Z</time>
      </trkpt>
      <trkpt lat="40.256570" lon="-4.182850">
        <ele>568.519</ele>
        <time>2022-02-27T01:43:10Z</time>
      </trkpt>
      <trkpt lat="40.256660" lon="-4.182800">
        <ele>568.123</ele>
        <time>2022-02-27T01:43:50Z</time>
      </trkpt>
      <trkpt lat="40.256830" lon="-4.182710">
        <ele>567.352</ele>
        <time>2022-02-27T01:44:30Z</time>
      </trkpt>
      <trkpt lat="40.256870" lon="-4.182690">
        <ele>567.062</ele>
        <time>2022-02-27T01:45:10Z</time>
      </trkpt>
      <trkpt lat="40.256990" lon="-4.182630">
        <ele>566.144</ele>
        <time>2022-02-27T01:45:50Z</time>
      </trkpt>
      <trkpt lat="40.257000" lon="-4.182630">
        <ele>566.133</ele>
        <time>2022-02-27T01:46:30Z</time>
      </trkpt>
      <trkpt lat="40.257040" lon="-4.182600">
        <ele>565.773</ele>
        <time>2022-02-27T01:47:10Z</time>
      </trkpt>
      <trkpt lat="40.257260" lon="-4.182490">
        <ele>563.889</ele>
        <time>2022-02-27T01:47:50Z</time>
      </trkpt>
      <trkpt lat="40.257380" lon="-4.182440">
        <ele>563.206</ele>
        <time>2022-02-27T01:48:30Z</time>
      </trkpt>
      <trkpt lat="40.257400" lon="-4.182430">
        <ele>563.126</ele>
        <time>2022-02-27T01:49:10Z</time>
      </trkpt>
      <trkpt lat="40.257470" lon="-4.182410">
        <ele>562.808</ele>
        <time>2022-02-27T01:49:50Z</time>
      </trkpt>
      <trkpt lat="40.257500" lon="-4.182410">
        <ele>562.777</ele>
        <time>2022-02-27T01:50:30Z</time>
      </trkpt>
      <trkpt lat="40.257560" lon="-4.182400">
        <ele>562.364</ele>
        <time>2022-02-27T01:51:10Z</time>
      </trkpt>
      <trkpt lat="40.257630" lon="-4.182400">
        <ele>561.968</ele>
        <time>2022-02-27T01:51:50Z</time>
      </trkpt>
      <trkpt lat="40.257670" lon="-4.182410">
        <ele>561.657</ele>
        <time>2022-02-27T01:52:30Z</time>
      </trkpt>
      <trkpt lat="40.257680" lon="-4.182420">
        <ele>561.687</ele>
        <time>2022-02-27T01:53:10Z</time>
      </trkpt>
      <trkpt lat="40.257720" lon="-4.182430">
        <ele>561.419</ele>
        <time>2022-02-27T01:53:50Z</time>
      </trkpt>
      <trkpt lat="40.257750" lon="-4.182450">
        <ele>561.258</ele>
        <time>2022-02-27T01:54:30Z</time>
      </trkpt>
      <trkpt lat="40.257790" lon="-4.182470">
        <ele>561.018</ele>
        <time>2022-02-27T01:55:10Z</time>
      </trkpt>
      <trkpt lat="40.257830" lon="-4.182500">
        <ele>561.033</ele>
        <time>2022-02-27T01:55:50Z</time>
      </trkpt>
      <trkpt lat="40.257910" lon="-4.182580">
        <ele>561.023</ele>
        <time>2022-02-27T01:56:30Z</time>
      </trkpt>
      <trkpt lat="40.258030" lon="-4.182700">
        <ele>561.015</ele>
        <time>2022-02-27T01:57:10Z</time>
      </trkpt>
      <trkpt lat="40.258070" lon="-4.182750">
        <ele>561.008</ele>
        <time>2022-02-27T01:57:50Z</time>
      </trkpt>
      <trkpt lat="40.258130" lon="-4.182810">
        <ele>561.292</ele>
        <time>2022-02-27T01:58:30Z</time>
      </trkpt>
      <trkpt lat="40.258160" lon="-4.182850">
        <ele>561.259</ele>
        <time>2022-02-27T01:59:10Z</time>
      </trkpt>
      <trkpt lat="40.258260" lon="-4.182960">
        <ele>561.683</ele>
        <time>2022-02-27T01:59:50Z</time>
      </trkpt>
      <trkpt lat="40.258300" lon="-4.183010">
        <ele>561.872</ele>
        <time>2022-02-27T02:00:30Z</time>
      </trkpt>
      <trkpt lat="40.258490" lon="-4.183220">
        <ele>562.652</ele>
        <time>2022-02-27T02:01:10Z</time>
      </trkpt>
      <trkpt lat="40.258530" lon="-4.183270">
        <ele>563.064</ele>
        <time>2022-02-27T02:01:50Z</time>
      </trkpt>
      <trkpt lat="40.258930" lon="-4.183730">
        <ele>568.993</ele>
        <time>2022-02-27T02:02:30Z</time>
      </trkpt>
      <trkpt lat="40.259150" lon="-4.184020">
        <ele>569.993</ele>
        <time>2022-02-27T02:03:10Z</time>
      </trkpt>
      <trkpt lat="40.259300" lon="-4.184290">
        <ele>569.383</ele>
        <time>2022-02-27T02:03:50Z</time>
      </trkpt>
      <trkpt lat="40.260180" lon="-4.185980">
        <ele>565.725</ele>
        <time>2022-02-27T02:04:30Z</time>
      </trkpt>
      <trkpt lat="40.260240" lon="-4.186090">
        <ele>564.917</ele>
        <time>2022-02-27T02:05:10Z</time>
      </trkpt>
      <trkpt lat="40.260280" lon="-4.186160">
        <ele>564.508</ele>
        <time>2022-02-27T02:05:50Z</time>
      </trkpt>
      <trkpt lat="40.260290" lon="-4.186170">
        <ele>564.477</ele>
        <time>2022-02-27T02:06:30Z</time>
      </trkpt>
      <trkpt lat="40.260430" lon="-4.186430">
        <ele>563.424</ele>
        <time>2022-02-27T02:07:10Z</time>
      </trkpt>
      <trkpt lat="40.260540" lon="-4.186630">
        <ele>563.958</ele>
        <time>2022-02-27T02:07:50Z</time>
      </trkpt>
      <trkpt lat="40.260670" lon="-4.186820">
        <ele>565.627</ele>
        <time>2022-02-27T02:08:30Z</time>
      </trkpt>
      <trkpt lat="40.260740" lon="-4.186910">
        <ele>566.727</ele>
        <time>2022-02-27T02:09:10Z</time>
      </trkpt>
      <trkpt lat="40.260760" lon="-4.186940">
        <ele>566.969</ele>
        <time>2022-02-27T02:09:50Z</time>
      </trkpt>
      <trkpt lat="40.260940" lon="-4.187170">
        <ele>565.178</ele>
        <time>2022-02-27T02:10:30Z</time>
      </trkpt>
      <trkpt lat="40.261110" lon="-4.187380">
        <ele>563.098</ele>
        <time>2022-02-27T02:11:10Z</time>
      </trkpt>
      <trkpt lat="40.261270" lon="-4.187570">
        <ele>564.438</ele>
        <time>2022-02-27T02:11:50Z</time>
      </trkpt>
      <trkpt lat="40.261380" lon="-4.187710">
        <ele>566.470</ele>
        <time>2022-02-27T02:12:30Z</time>
      </trkpt>
      <trkpt lat="40.261430" lon="-4.187780">
        <ele>567.417</ele>
        <time>2022-02-27T02:13:10Z</time>
      </trkpt>
      <trkpt lat="40.261480" lon="-4.187810">
        <ele>567.908</ele>
        <time>2022-02-27T02:13:50Z</time>
      </trkpt>
      <trkpt lat="40.261520" lon="-4.187860">
        <ele>568.352</ele>
        <time>2022-02-27T02:14:30Z</time>
      </trkpt>
      <trkpt lat="40.261560" lon="-4.187930">
        <ele>568.669</ele>
        <time>2022-02-27T02:15:10Z</time>
      </trkpt>
      <trkpt lat="40.261580" lon="-4.187970">
        <ele>568.853</ele>
        <time>2022-02-27T02:15:50Z</time>
      </trkpt>
      <trkpt lat="40.261650" lon="-4.188090">
        <ele>569.742</ele>
        <time>2022-02-27T02:16:30Z</time>
      </trkpt>
      <trkpt lat="40.261670" lon="-4.188130">
        <ele>570.042</ele>
        <time>2022-02-27T02:17:10Z</time>
      </trkpt>
      <trkpt lat="40.261710" lon="-4.188210">
        <ele>569.914</ele>
        <time>2022-02-27T02:17:50Z</time>
      </trkpt>
      <trkpt lat="40.261760" lon="-4.188330">
        <ele>570.093</ele>
        <time>2022-02-27T02:18:30Z</time>
      </trkpt>
      <trkpt lat="40.261790" lon="-4.188400">
        <ele>569.763</ele>
        <time>2022-02-27T02:19:10Z</time>
      </trkpt>
      <trkpt lat="40.261870" lon="-4.188620">
        <ele>569.465</ele>
        <time>2022-02-27T02:19:50Z</time>
      </trkpt>
      <trkpt lat="40.261890" lon="-4.188670">
        <ele>569.568</ele>
        <time>2022-02-27T02:20:30Z</time>
      </trkpt>
      <trkpt lat="40.261950" lon="-4.188830">
        <ele>570.014</ele>
        <time>2022-02-27T02:21:10Z</time>
      </trkpt>
      <trkpt lat="40.262100" lon="-4.189210">
        <ele>569.908</ele>
        <time>2022-02-27T02:21:50Z</time>
      </trkpt>
      <trkpt lat="40.262100" lon="-4.189220">
        <ele>569.915</ele>
        <time>2022-02-27T02:22:30Z</time>
      </trkpt>
      <trkpt lat="40.262170" lon="-4.189370">
        <ele>569.992</ele>
        <time>2022-02-27T02:23:10Z</time>
      </trkpt>
      <trkpt lat="40.262380" lon="-4.189910">
        <ele>571.086</ele>
        <time>2022-02-27T02:23:50Z</time>
      </trkpt>
      <trkpt lat="40.262470" lon="-4.190130">
        <ele>571.485</ele>
        <time>2022-02-27T02:24:30Z</time>
      </trkpt>
      <trkpt lat="40.262540" lon="-4.190310">
        <ele>570.955</ele>
        <time>2022-02-27T02:25:10Z</time>
      </trkpt>
      <trkpt lat="40.262550" lon="-4.190340">
        <ele>570.877</ele>
        <time>2022-02-27T02:25:50Z</time>
      </trkpt>
      <trkpt lat="40.262580" lon="-4.190410">
        <ele>570.736</ele>
        <time>2022-02-27T02:26:30Z</time>
      </trkpt>
      <trkpt lat="40.262630" lon="-4.190500">
        <ele>570.556</ele>
        <time>2022-02-27T02:27:10Z</time>
      </trkpt>
      <trkpt lat="40.262650" lon="-4.190540">
        <ele>570.595</ele>
        <time>2022-02-27T02:27:50Z</time>
      </trkpt>
      <trkpt lat="40.262700" lon="-4.190630">
        <ele>570.249</ele>
        <time>2022-02-27T02:28:30Z</time>
      </trkpt>
      <trkpt lat="40.262790" lon="-4.190770">
        <ele>570.023</ele>
        <time>2022-02-27T02:29:10Z</time>
      </trkpt>
      <trkpt lat="40.262850" lon="-4.190860">
        <ele>570.008</ele>
        <time>2022-02-27T02:29:50Z</time>
      </trkpt>
      <trkpt lat="40.262870" lon="-4.190930">
        <ele>570.038</ele>
        <time>2022-02-27T02:30:30Z</time>
      </trkpt>
      <trkpt lat="40.262980" lon="-4.191070">
        <ele>570.075</ele>
        <time>2022-02-27T02:31:10Z</time>
      </trkpt>
      <trkpt lat="40.263110" lon="-4.191240">
        <ele>570.079</ele>
        <time>2022-02-27T02:31:50Z</time>
      </trkpt>
      <trkpt lat="40.263170" lon="-4.191310">
        <ele>570.068</ele>
        <time>2022-02-27T02:32:30Z</time>
      </trkpt>
      <trkpt lat="40.263240" lon="-4.191400">
        <ele>569.968</ele>
        <time>2022-02-27T02:33:10Z</time>
      </trkpt>
      <trkpt lat="40.263500" lon="-4.191730">
        <ele>569.570</ele>
        <time>2022-02-27T02:33:50Z</time>
      </trkpt>
      <trkpt lat="40.263710" lon="-4.192010">
        <ele>569.799</ele>
        <time>2022-02-27T02:34:30Z</time>
      </trkpt>
      <trkpt lat="40.263770" lon="-4.192090">
        <ele>569.659</ele>
        <time>2022-02-27T02:35:10Z</time>
      </trkpt>
      <trkpt lat="40.263790" lon="-4.192120">
        <ele>569.564</ele>
        <time>2022-02-27T02:35:50Z</time>
      </trkpt>
      <trkpt lat="40.263850" lon="-4.192240">
        <ele>569.706</ele>
        <time>2022-02-27T02:36:30Z</time>
      </trkpt>
      <trkpt lat="40.263870" lon="-4.192280">
        <ele>569.816</ele>
        <time>2022-02-27T02:37:10Z</time>
      </trkpt>
      <trkpt lat="40.263880" lon="-4.192300">
        <ele>569.908</ele>
        <time>2022-02-27T02:37:50Z</time>
      </trkpt>
      <trkpt lat="40.263880" lon="-4.192320">
        <ele>569.995</ele>
        <time>2022-02-27T02:38:30Z</time>
      </trkpt>
      <trkpt lat="40.263910" lon="-4.192400">
        <ele>570.082</ele>
        <time>2022-02-27T02:39:10Z</time>
      </trkpt>
      <trkpt lat="40.263930" lon="-4.192470">
        <ele>570.076</ele>
        <time>2022-02-27T02:39:50Z</time>
      </trkpt>
      <trkpt lat="40.263950" lon="-4.192560">
        <ele>570.095</ele>
        <time>2022-02-27T02:40:30Z</time>
      </trkpt>
      <trkpt lat="40.263960" lon="-4.192620">
        <ele>570.085</ele>
        <time>2022-02-27T02:41:10Z</time>
      </trkpt>
      <trkpt lat="40.263970" lon="-4.192710">
        <ele>570.037</ele>
        <time>2022-02-27T02:41:50Z</time>
      </trkpt>
      <trkpt lat="40.263990" lon="-4.193120">
        <ele>570.056</ele>
        <time>2022-02-27T02:42:30Z</time>
      </trkpt>
      <trkpt lat="40.263990" lon="-4.193180">
        <ele>570.016</ele>
        <time>2022-02-27T02:43:10Z</time>
      </trkpt>
      <trkpt lat="40.263990" lon="-4.193200">
        <ele>570.047</ele>
        <time>2022-02-27T02:43:50Z</time>
      </trkpt>
      <trkpt lat="40.264000" lon="-4.193290">
        <ele>570.029</ele>
        <time>2022-02-27T02:44:30Z</time>
      </trkpt>
      <trkpt lat="40.264010" lon="-4.193410">
        <ele>570.021</ele>
        <time>2022-02-27T02:45:10Z</time>
      </trkpt>
      <trkpt lat="40.264010" lon="-4.193430">
        <ele>570.008</ele>
        <time>2022-02-27T02:45:50Z</time>
      </trkpt>
      <trkpt lat="40.264020" lon="-4.193470">
        <ele>570.033</ele>
        <time>2022-02-27T02:46:30Z</time>
      </trkpt>
      <trkpt lat="40.264030" lon="-4.193520">
        <ele>570.070</ele>
        <time>2022-02-27T02:47:10Z</time>
      </trkpt>
      <trkpt lat="40.264040" lon="-4.193570">
        <ele>570.084</ele>
        <time>2022-02-27T02:47:50Z</time>
      </trkpt>
      <trkpt lat="40.264050" lon="-4.193610">
        <ele>570.063</ele>
        <time>2022-02-27T02:48:30Z</time>
      </trkpt>
      <trkpt lat="40.264060" lon="-4.193660">
        <ele>570.093</ele>
        <time>2022-02-27T02:49:10Z</time>
      </trkpt>
      <trkpt lat="40.264070" lon="-4.193700">
        <ele>570.045</ele>
        <time>2022-02-27T02:49:50Z</time>
      </trkpt>
      <trkpt lat="40.264090" lon="-4.193760">
        <ele>570.094</ele>
        <time>2022-02-27T02:50:30Z</time>
      </trkpt>
      <trkpt lat="40.264120" lon="-4.193810">
        <ele>570.084</ele>
        <time>2022-02-27T02:51:10Z</time>
      </trkpt>
      <trkpt lat="40.264140" lon="-4.193850">
        <ele>570.048</ele>
        <time>2022-02-27T02:51:50Z</time>
      </trkpt>
      <trkpt lat="40.264260" lon="-4.194110">
        <ele>570.061</ele>
        <time>2022-02-27T02:52:30Z</time>
      </trkpt>
      <trkpt lat="40.264940" lon="-4.195450">
        <ele>566.617</ele>
        <time>2022-02-27T02:53:10Z</time>
      </trkpt>
      <trkpt lat="40.265040" lon="-4.195640">
        <ele>565.008</ele>
        <time>2022-02-27T02:53:50Z</time>
      </trkpt>
      <trkpt lat="40.265140" lon="-4.195830">
        <ele>563.513</ele>
        <time>2022-02-27T02:54:30Z</time>
      </trkpt>
      <trkpt lat="40.265230" lon="-4.196010">
        <ele>563.060</ele>
        <time>2022-02-27T02:55:10Z</time>
      </trkpt>
      <trkpt lat="40.265330" lon="-4.196210">
        <ele>562.474</ele>
        <time>2022-02-27T02:55:50Z</time>
      </trkpt>
      <trkpt lat="40.265630" lon="-4.196820">
        <ele>560.073</ele>
        <time>2022-02-27T02:56:30Z</time>
      </trkpt>
      <trkpt lat="40.265950" lon="-4.197460">
        <ele>560.033</ele>
        <time>2022-02-27T02:57:10Z</time>
      </trkpt>
      <trkpt lat="40.266510" lon="-4.198580">
        <ele>563.885</ele>
        <time>2022-02-27T02:57:50Z</time>
      </trkpt>
      <trkpt lat="40.266620" lon="-4.198800">
        <ele>565.364</ele>
        <time>2022-02-27T02:58:30Z</time>
      </trkpt>
      <trkpt lat="40.266680" lon="-4.198920">
        <ele>566.334</ele>
        <time>2022-02-27T02:59:10Z</time>
      </trkpt>
      <trkpt lat="40.266740" lon="-4.199000">
        <ele>567.012</ele>
        <time>2022-02-27T02:59:50Z</time>
      </trkpt>
      <trkpt lat="40.266790" lon="-4.199070">
        <ele>567.532</ele>
        <time>2022-02-27T03:00:30Z</time>
      </trkpt>
      <trkpt lat="40.266790" lon="-4.199080">
        <ele>567.505</ele>
        <time>2022-02-27T03:01:10Z</time>
      </trkpt>
      <trkpt lat="40.266860" lon="-4.199130">
        <ele>567.808</ele>
        <time>2022-02-27T03:01:50Z</time>
      </trkpt>
      <trkpt lat="40.266930" lon="-4.199200">
        <ele>568.280</ele>
        <time>2022-02-27T03:02:30Z</time>
      </trkpt>
      <trkpt lat="40.267010" lon="-4.199250">
        <ele>568.017</ele>
        <time>2022-02-27T03:03:10Z</time>
      </trkpt>
      <trkpt lat="40.267100" lon="-4.199300">
        <ele>567.541</ele>
        <time>2022-02-27T03:03:50Z</time>
      </trkpt>
      <trkpt lat="40.267200" lon="-4.199360">
        <ele>567.330</ele>
        <time>2022-02-27T03:04:30Z</time>
      </trkpt>
      <trkpt lat="40.267260" lon="-4.199400">
        <ele>567.390</ele>
        <time>2022-02-27T03:05:10Z</time>
      </trkpt>
      <trkpt lat="40.267270" lon="-4.199400">
        <ele>567.212</ele>
        <time>2022-02-27T03:05:50Z</time>
      </trkpt>
      <trkpt lat="40.267330" lon="-4.199430">
        <ele>567.141</ele>
        <time>2022-02-27T03:06:30Z</time>
      </trkpt>
      <trkpt lat="40.267380" lon="-4.199460">
        <ele>567.061</ele>
        <time>2022-02-27T03:07:10Z</time>
      </trkpt>
      <trkpt lat="40.267410" lon="-4.199470">
        <ele>566.812</ele>
        <time>2022-02-27T03:07:50Z</time>
      </trkpt>
      <trkpt lat="40.267420" lon="-4.199470">
        <ele>566.832</ele>
        <time>2022-02-27T03:08:30Z</time>
      </trkpt>
      <trkpt lat="40.267480" lon="-4.199480">
        <ele>566.405</ele>
        <time>2022-02-27T03:09:10Z</time>
      </trkpt>
      <trkpt lat="40.267520" lon="-4.199490">
        <ele>566.008</ele>
        <time>2022-02-27T03:09:50Z</time>
      </trkpt>
      <trkpt lat="40.267570" lon="-4.199490">
        <ele>565.370</ele>
        <time>2022-02-27T03:10:30Z</time>
      </trkpt>
      <trkpt lat="40.267620" lon="-4.199480">
        <ele>564.587</ele>
        <time>2022-02-27T03:11:10Z</time>
      </trkpt>
      <trkpt lat="40.267670" lon="-4.199470">
        <ele>563.771</ele>
        <time>2022-02-27T03:11:50Z</time>
      </trkpt>
      <trkpt lat="40.268010" lon="-4.199340">
        <ele>561.670</ele>
        <time>2022-02-27T03:12:30Z</time>
      </trkpt>
      <trkpt lat="40.268300" lon="-4.199210">
        <ele>561.090</ele>
        <time>2022-02-27T03:13:10Z</time>
      </trkpt>
      <trkpt lat="40.268470" lon="-4.199140">
        <ele>560.542</ele>
        <time>2022-02-27T03:13:50Z</time>
      </trkpt>
      <trkpt lat="40.268710" lon="-4.199040">
        <ele>560.041</ele>
        <time>2022-02-27T03:14:30Z</time>
      </trkpt>
      <trkpt lat="40.269390" lon="-4.198750">
        <ele>559.981</ele>
        <time>2022-02-27T03:15:10Z</time>
      </trkpt>
      <trkpt lat="40.269500" lon="-4.198710">
        <ele>560.091</ele>
        <time>2022-02-27T03:15:50Z</time>
      </trkpt>
      <trkpt lat="40.269670" lon="-4.198640">
        <ele>560.081</ele>
        <time>2022-02-27T03:16:30Z</time>
      </trkpt>
      <trkpt lat="40.269710" lon="-4.198630">
        <ele>560.019</ele>
        <time>2022-02-27T03:17:10Z</time>
      </trkpt>
      <trkpt lat="40.269780" lon="-4.198600">
        <ele>559.608</ele>
        <time>2022-02-27T03:17:50Z</time>
      </trkpt>
      <trkpt lat="40.269830" lon="-4.198580">
        <ele>559.378</ele>
        <time>2022-02-27T03:18:30Z</time>
      </trkpt>
      <trkpt lat="40.269880" lon="-4.198580">
        <ele>559.055</ele>
        <time>2022-02-27T03:19:10Z</time>
      </trkpt>
      <trkpt lat="40.269940" lon="-4.198570">
        <ele>558.719</ele>
        <time>2022-02-27T03:19:50Z</time>
      </trkpt>
      <trkpt lat="40.269980" lon="-4.198570">
        <ele>558.488</ele>
        <time>2022-02-27T03:20:30Z</time>
      </trkpt>
      <trkpt lat="40.270020" lon="-4.198580">
        <ele>558.138</ele>
        <time>2022-02-27T03:21:10Z</time>
      </trkpt>
      <trkpt lat="40.270030" lon="-4.198580">
        <ele>558.080</ele>
        <time>2022-02-27T03:21:50Z</time>
      </trkpt>
      <trkpt lat="40.270070" lon="-4.198590">
        <ele>557.739</ele>
        <time>2022-02-27T03:22:30Z</time>
      </trkpt>
      <trkpt lat="40.270120" lon="-4.198600">
        <ele>557.319</ele>
        <time>2022-02-27T03:23:10Z</time>
      </trkpt>
      <trkpt lat="40.270170" lon="-4.198610">
        <ele>556.847</ele>
        <time>2022-02-27T03:23:50Z</time>
      </trkpt>
      <trkpt lat="40.270200" lon="-4.198630">
        <ele>556.229</ele>
        <time>2022-02-27T03:24:30Z</time>
      </trkpt>
      <trkpt lat="40.270370" lon="-4.198690">
        <ele>554.321</ele>
        <time>2022-02-27T03:25:10Z</time>
      </trkpt>
      <trkpt lat="40.270490" lon="-4.198740">
        <ele>553.208</ele>
        <time>2022-02-27T03:25:50Z</time>
      </trkpt>
      <trkpt lat="40.270550" lon="-4.198770">
        <ele>552.663</ele>
        <time>2022-02-27T03:26:30Z</time>
      </trkpt>
      <trkpt lat="40.270580" lon="-4.198780">
        <ele>552.460</ele>
        <time>2022-02-27T03:27:10Z</time>
      </trkpt>
      <trkpt lat="40.270610" lon="-4.198780">
        <ele>552.494</ele>
        <time>2022-02-27T03:27:50Z</time>
      </trkpt>
      <trkpt lat="40.270640" lon="-4.198790">
        <ele>552.193</ele>
        <time>2022-02-27T03:28:30Z</time>
      </trkpt>
      <trkpt lat="40.270670" lon="-4.198790">
        <ele>552.123</ele>
        <time>2022-02-27T03:29:10Z</time>
      </trkpt>
      <trkpt lat="40.270710" lon="-4.198800">
        <ele>551.965</ele>
        <time>2022-02-27T03:29:50Z</time>
      </trkpt>
      <trkpt lat="40.270760" lon="-4.198800">
        <ele>551.964</ele>
        <time>2022-02-27T03:30:30Z</time>
      </trkpt>
      <trkpt lat="40.270800" lon="-4.198800">
        <ele>551.974</ele>
        <time>2022-02-27T03:31:10Z</time>
      </trkpt>
      <trkpt lat="40.270830" lon="-4.198800">
        <ele>551.944</ele>
        <time>2022-02-27T03:31:50Z</time>
      </trkpt>
      <trkpt lat="40.270870" lon="-4.198790">
        <ele>552.005</ele>
        <time>2022-02-27T03:32:30Z</time>
      </trkpt>
      <trkpt lat="40.270900" lon="-4.198780">
        <ele>552.115</ele>
        <time>2022-02-27T03:33:10Z</time>
      </trkpt>
      <trkpt lat="40.270940" lon="-4.198770">
        <ele>552.108</ele>
        <time>2022-02-27T03:33:50Z</time>
      </trkpt>
      <trkpt lat="40.271030" lon="-4.198730">
        <ele>552.273</ele>
        <time>2022-02-27T03:34:30Z</time>
      </trkpt>
      <trkpt lat="40.271090" lon="-4.198700">
        <ele>552.270</ele>
        <time>2022-02-27T03:35:10Z</time>
      </trkpt>
      <trkpt lat="40.271140" lon="-4.198680">
        <ele>552.294</ele>
        <time>2022-02-27T03:35:50Z</time>
      </trkpt>
      <trkpt lat="40.271180" lon="-4.198660">
        <ele>552.263</ele>
        <time>2022-02-27T03:36:30Z</time>
      </trkpt>
      <trkpt lat="40.271200" lon="-4.198640">
        <ele>552.473</ele>
        <time>2022-02-27T03:37:10Z</time>
      </trkpt>
      <trkpt lat="40.271220" lon="-4.198630">
        <ele>552.425</ele>
        <time>2022-02-27T03:37:50Z</time>
      </trkpt>
      <trkpt lat="40.271240" lon="-4.198610">
        <ele>552.514</ele>
        <time>2022-02-27T03:38:30Z</time>
      </trkpt>
      <trkpt lat="40.271290" lon="-4.198560">
        <ele>552.974</ele>
        <time>2022-02-27T03:39:10Z</time>
      </trkpt>
      <trkpt lat="40.271360" lon="-4.198480">
        <ele>553.129</ele>
        <time>2022-02-27T03:39:50Z</time>
      </trkpt>
      <trkpt lat="40.271810" lon="-4.197920">
        <ele>548.900</ele>
        <time>2022-02-27T03:40:30Z</time>
      </trkpt>
      <trkpt lat="40.272310" lon="-4.197280">
        <ele>544.620</ele>
        <time>2022-02-27T03:41:10Z</time>
      </trkpt>
      <trkpt lat="40.272600" lon="-4.196960">
        <ele>542.908</ele>
        <time>2022-02-27T03:41:50Z</time>
      </trkpt>
      <trkpt lat="40.272670" lon="-4.196890">
        <ele>542.181</ele>
        <time>2022-02-27T03:42:30Z</time>
      </trkpt>
      <trkpt lat="40.272730" lon="-4.196840">
        <ele>541.538</ele>
        <time>2022-02-27T03:43:10Z</time>
      </trkpt>
      <trkpt lat="40.272800" lon="-4.196800">
        <ele>540.882</ele>
        <time>2022-02-27T03:43:50Z</time>
      </trkpt>
      <trkpt lat="40.272850" lon="-4.196770">
        <ele>540.481</ele>
        <time>2022-02-27T03:44:30Z</time>
      </trkpt>
      <trkpt lat="40.272860" lon="-4.196760">
        <ele>540.361</ele>
        <time>2022-02-27T03:45:10Z</time>
      </trkpt>
      <trkpt lat="40.272900" lon="-4.196740">
        <ele>540.063</ele>
        <time>2022-02-27T03:45:50Z</time>
      </trkpt>
      <trkpt lat="40.272960" lon="-4.196730">
        <ele>539.582</ele>
        <time>2022-02-27T03:46:30Z</time>
      </trkpt>
      <trkpt lat="40.273010" lon="-4.196720">
        <ele>539.242</ele>
        <time>2022-02-27T03:47:10Z</time>
      </trkpt>
      <trkpt lat="40.273060" lon="-4.196710">
        <ele>538.851</ele>
        <time>2022-02-27T03:47:50Z</time>
      </trkpt>
      <trkpt lat="40.273120" lon="-4.196710">
        <ele>538.601</ele>
        <time>2022-02-27T03:48:30Z</time>
      </trkpt>
      <trkpt lat="40.273180" lon="-4.196720">
        <ele>538.311</ele>
        <time>2022-02-27T03:49:10Z</time>
      </trkpt>
      <trkpt lat="40.273250" lon="-4.196730">
        <ele>537.908</ele>
        <time>2022-02-27T03:49:50Z</time>
      </trkpt>
      <trkpt lat="40.273300" lon="-4.196740">
        <ele>537.694</ele>
        <time>2022-02-27T03:50:30Z</time>
      </trkpt>
      <trkpt lat="40.273340" lon="-4.196760">
        <ele>537.351</ele>
        <time>2022-02-27T03:51:10Z</time>
      </trkpt>
      <trkpt lat="40.273400" lon="-4.196780">
        <ele>536.955</ele>
        <time>2022-02-27T03:51:50Z</time>
      </trkpt>
      <trkpt lat="40.273470" lon="-4.196810">
        <ele>536.214</ele>
        <time>2022-02-27T03:52:30Z</time>
      </trkpt>
      <trkpt lat="40.273720" lon="-4.196930">
        <ele>534.414</ele>
        <time>2022-02-27T03:53:10Z</time>
      </trkpt>
      <trkpt lat="40.273940" lon="-4.197050">
        <ele>533.896</ele>
        <time>2022-02-27T03:53:50Z</time>
      </trkpt>
      <trkpt lat="40.273990" lon="-4.197080">
        <ele>533.245</ele>
        <time>2022-02-27T03:54:30Z</time>
      </trkpt>
      <trkpt lat="40.274060" lon="-4.197110">
        <ele>532.825</ele>
        <time>2022-02-27T03:55:10Z</time>
      </trkpt>
      <trkpt lat="40.274090" lon="-4.197130">
        <ele>532.531</ele>
        <time>2022-02-27T03:55:50Z</time>
      </trkpt>
      <trkpt lat="40.274160" lon="-4.197170">
        <ele>531.961</ele>
        <time>2022-02-27T03:56:30Z</time>
      </trkpt>
      <trkpt lat="40.274270" lon="-4.197220">
        <ele>531.007</ele>
        <time>2022-02-27T03:57:10Z</time>
      </trkpt>
      <trkpt lat="40.274330" lon="-4.197230">
        <ele>530.908</ele>
        <time>2022-02-27T03:57:50Z</time>
      </trkpt>
      <trkpt lat="40.274390" lon="-4.197240">
        <ele>530.942</ele>
        <time>2022-02-27T03:58:30Z</time>
      </trkpt>
      <trkpt lat="40.274470" lon="-4.197240">
        <ele>530.669</ele>
        <time>2022-02-27T03:59:10Z</time>
      </trkpt>
      <trkpt lat="40.274580" lon="-4.197220">
        <ele>529.663</ele>
        <time>2022-02-27T03:59:50Z</time>
      </trkpt>
      <trkpt lat="40.274690" lon="-4.197180">
        <ele>528.842</ele>
        <time>2022-02-27T04:00:30Z</time>
      </trkpt>
      <trkpt lat="40.274770" lon="-4.197150">
        <ele>528.212</ele>
        <time>2022-02-27T04:01:10Z</time>
      </trkpt>
      <trkpt lat="40.274860" lon="-4.197120">
        <ele>527.584</ele>
        <time>2022-02-27T04:01:50Z</time>
      </trkpt>
      <trkpt lat="40.274970" lon="-4.197080">
        <ele>526.953</ele>
        <time>2022-02-27T04:02:30Z</time>
      </trkpt>
      <trkpt lat="40.275170" lon="-4.197010">
        <ele>524.463</ele>
        <time>2022-02-27T04:03:10Z</time>
      </trkpt>
      <trkpt lat="40.275350" lon="-4.196940">
        <ele>522.042</ele>
        <time>2022-02-27T04:03:50Z</time>
      </trkpt>
      <trkpt lat="40.275380" lon="-4.196920">
        <ele>521.822</ele>
        <time>2022-02-27T04:04:30Z</time>
      </trkpt>
      <trkpt lat="40.275420" lon="-4.196900">
        <ele>521.514</ele>
        <time>2022-02-27T04:05:10Z</time>
      </trkpt>
      <trkpt lat="40.275440" lon="-4.196880">
        <ele>521.508</ele>
        <time>2022-02-27T04:05:50Z</time>
      </trkpt>
      <trkpt lat="40.275500" lon="-4.196830">
        <ele>521.153</ele>
        <time>2022-02-27T04:06:30Z</time>
      </trkpt>
      <trkpt lat="40.275600" lon="-4.196730">
        <ele>520.910</ele>
        <time>2022-02-27T04:07:10Z</time>
      </trkpt>
      <trkpt lat="40.275820" lon="-4.196520">
        <ele>520.214</ele>
        <time>2022-02-27T04:07:50Z</time>
      </trkpt>
      <trkpt lat="40.276140" lon="-4.196180">
        <ele>519.273</ele>
        <time>2022-02-27T04:08:30Z</time>
      </trkpt>
      <trkpt lat="40.276380" lon="-4.195950">
        <ele>517.783</ele>
        <time>2022-02-27T04:09:10Z</time>
      </trkpt>
      <trkpt lat="40.276440" lon="-4.195890">
        <ele>517.225</ele>
        <time>2022-02-27T04:09:50Z</time>
      </trkpt>
      <trkpt lat="40.276530" lon="-4.195800">
        <ele>516.764</ele>
        <time>2022-02-27T04:10:30Z</time>
      </trkpt>
      <trkpt lat="40.276580" lon="-4.195760">
        <ele>516.534</ele>
        <time>2022-02-27T04:11:10Z</time>
      </trkpt>
      <trkpt lat="40.276760" lon="-4.195610">
        <ele>515.359</ele>
        <time>2022-02-27T04:11:50Z</time>
      </trkpt>
      <trkpt lat="40.276930" lon="-4.195480">
        <ele>513.803</ele>
        <time>2022-02-27T04:12:30Z</time>
      </trkpt>
      <trkpt lat="40.277050" lon="-4.195380">
        <ele>513.123</ele>
        <time>2022-02-27T04:13:10Z</time>
      </trkpt>
      <trkpt lat="40.277080" lon="-4.195360">
        <ele>512.908</ele>
        <time>2022-02-27T04:13:50Z</time>
      </trkpt>
      <trkpt lat="40.277300" lon="-4.195150">
        <ele>512.034</ele>
        <time>2022-02-27T04:14:30Z</time>
      </trkpt>
      <trkpt lat="40.277490" lon="-4.194950">
        <ele>510.541</ele>
        <time>2022-02-27T04:15:10Z</time>
      </trkpt>
      <trkpt lat="40.277580" lon="-4.194880">
        <ele>510.355</ele>
        <time>2022-02-27T04:15:50Z</time>
      </trkpt>
      <trkpt lat="40.277590" lon="-4.194870">
        <ele>510.344</ele>
        <time>2022-02-27T04:16:30Z</time>
      </trkpt>
      <trkpt lat="40.277640" lon="-4.194840">
        <ele>510.194</ele>
        <time>2022-02-27T04:17:10Z</time>
      </trkpt>
      <trkpt lat="40.277720" lon="-4.194790">
        <ele>509.556</ele>
        <time>2022-02-27T04:17:50Z</time>
      </trkpt>
      <trkpt lat="40.277740" lon="-4.194780">
        <ele>509.455</ele>
        <time>2022-02-27T04:18:30Z</time>
      </trkpt>
      <trkpt lat="40.277970" lon="-4.194670">
        <ele>508.635</ele>
        <time>2022-02-27T04:19:10Z</time>
      </trkpt>
      <trkpt lat="40.278080" lon="-4.194620">
        <ele>508.117</ele>
        <time>2022-02-27T04:19:50Z</time>
      </trkpt>
      <trkpt lat="40.278290" lon="-4.194520">
        <ele>506.287</ele>
        <time>2022-02-27T04:20:30Z</time>
      </trkpt>
      <trkpt lat="40.278410" lon="-4.194460">
        <ele>505.115</ele>
        <time>2022-02-27T04:21:10Z</time>
      </trkpt>
      <trkpt lat="40.278420" lon="-4.194460">
        <ele>505.008</ele>
        <time>2022-02-27T04:21:50Z</time>
      </trkpt>
      <trkpt lat="40.278500" lon="-4.194410">
        <ele>504.470</ele>
        <time>2022-02-27T04:22:30Z</time>
      </trkpt>
      <trkpt lat="40.278580" lon="-4.194350">
        <ele>503.797</ele>
        <time>2022-02-27T04:23:10Z</time>
      </trkpt>
      <trkpt lat="40.278630" lon="-4.194300">
        <ele>503.321</ele>
        <time>2022-02-27T04:23:50Z</time>
      </trkpt>
      <trkpt lat="40.278670" lon="-4.194270">
        <ele>503.010</ele>
        <time>2022-02-27T04:24:30Z</time>
      </trkpt>
      <trkpt lat="40.279020" lon="-4.193950">
        <ele>500.930</ele>
        <time>2022-02-27T04:25:10Z</time>
      </trkpt>
      <trkpt lat="40.279080" lon="-4.193910">
        <ele>500.692</ele>
        <time>2022-02-27T04:25:50Z</time>
      </trkpt>
      <trkpt lat="40.279280" lon="-4.193780">
        <ele>499.461</ele>
        <time>2022-02-27T04:26:30Z</time>
      </trkpt>
      <trkpt lat="40.279340" lon="-4.193750">
        <ele>499.131</ele>
        <time>2022-02-27T04:27:10Z</time>
      </trkpt>
      <trkpt lat="40.279550" lon="-4.193620">
        <ele>497.646</ele>
        <time>2022-02-27T04:27:50Z</time>
      </trkpt>
      <trkpt lat="40.279830" lon="-4.193440">
        <ele>496.088</ele>
        <time>2022-02-27T04:28:30Z</time>
      </trkpt>
      <trkpt lat="40.280530" lon="-4.193000">
        <ele>492.916</ele>
        <time>2022-02-27T04:29:10Z</time>
      </trkpt>
      <trkpt lat="40.280680" lon="-4.192910">
        <ele>491.808</ele>
        <time>2022-02-27T04:29:50Z</time>
      </trkpt>
      <trkpt lat="40.280740" lon="-4.192870">
        <ele>491.493</ele>
        <time>2022-02-27T04:30:30Z</time>
      </trkpt>
      <trkpt lat="40.281180" lon="-4.192580">
        <ele>490.030</ele>
        <time>2022-02-27T04:31:10Z</time>
      </trkpt>
      <trkpt lat="40.281230" lon="-4.192550">
        <ele>490.094</ele>
        <time>2022-02-27T04:31:50Z</time>
      </trkpt>
      <trkpt lat="40.281380" lon="-4.192450">
        <ele>490.073</ele>
        <time>2022-02-27T04:32:30Z</time>
      </trkpt>
      <trkpt lat="40.281570" lon="-4.192330">
        <ele>493.773</ele>
        <time>2022-02-27T04:33:10Z</time>
      </trkpt>
      <trkpt lat="40.281580" lon="-4.192320">
        <ele>494.135</ele>
        <time>2022-02-27T04:33:50Z</time>
      </trkpt>
      <trkpt lat="40.281610" lon="-4.192310">
        <ele>494.914</ele>
        <time>2022-02-27T04:34:30Z</time>
      </trkpt>
      <trkpt lat="40.281640" lon="-4.192310">
        <ele>495.564</ele>
        <time>2022-02-27T04:35:10Z</time>
      </trkpt>
      <trkpt lat="40.281670" lon="-4.192320">
        <ele>495.938</ele>
        <time>2022-02-27T04:35:50Z</time>
      </trkpt>
      <trkpt lat="40.281680" lon="-4.192320">
        <ele>496.170</ele>
        <time>2022-02-27T04:36:30Z</time>
      </trkpt>
      <trkpt lat="40.281710" lon="-4.192330">
        <ele>496.317</ele>
        <time>2022-02-27T04:37:10Z</time>
      </trkpt>
      <trkpt lat="40.281730" lon="-4.192340">
        <ele>496.408</ele>
        <time>2022-02-27T04:37:50Z</time>
      </trkpt>
      <trkpt lat="40.281760" lon="-4.192350">
        <ele>496.792</ele>
        <time>2022-02-27T04:38:30Z</time>
      </trkpt>
      <trkpt lat="40.281780" lon="-4.192360">
        <ele>496.929</ele>
        <time>2022-02-27T04:39:10Z</time>
      </trkpt>
      <trkpt lat="40.281800" lon="-4.192370">
        <ele>497.073</ele>
        <time>2022-02-27T04:39:50Z</time>
      </trkpt>
      <trkpt lat="40.281820" lon="-4.192390">
        <ele>497.122</ele>
        <time>2022-02-27T04:40:30Z</time>
      </trkpt>
      <trkpt lat="40.281880" lon="-4.192450">
        <ele>497.872</ele>
        <time>2022-02-27T04:41:10Z</time>
      </trkpt>
      <trkpt lat="40.281970" lon="-4.192550">
        <ele>498.444</ele>
        <time>2022-02-27T04:41:50Z</time>
      </trkpt>
      <trkpt lat="40.282020" lon="-4.192600">
        <ele>497.793</ele>
        <time>2022-02-27T04:42:30Z</time>
      </trkpt>
      <trkpt lat="40.282040" lon="-4.192620">
        <ele>497.543</ele>
        <time>2022-02-27T04:43:10Z</time>
      </trkpt>
      <trkpt lat="40.282220" lon="-4.192840">
        <ele>495.665</ele>
        <time>2022-02-27T04:43:50Z</time>
      </trkpt>
      <trkpt lat="40.282340" lon="-4.192990">
        <ele>494.968</ele>
        <time>2022-02-27T04:44:30Z</time>
      </trkpt>
      <trkpt lat="40.282410" lon="-4.193090">
        <ele>494.314</ele>
        <time>2022-02-27T04:45:10Z</time>
      </trkpt>
      <trkpt lat="40.283000" lon="-4.193730">
        <ele>490.908</ele>
        <time>2022-02-27T04:45:50Z</time>
      </trkpt>
      <trkpt lat="40.283060" lon="-4.193790">
        <ele>490.895</ele>
        <time>2022-02-27T04:46:30Z</time>
      </trkpt>
      <trkpt lat="40.283240" lon="-4.193950">
        <ele>491.522</ele>
        <time>2022-02-27T04:47:10Z</time>
      </trkpt>
      <trkpt lat="40.283460" lon="-4.194100">
        <ele>492.096</ele>
        <time>2022-02-27T04:47:50Z</time>
      </trkpt>
      <trkpt lat="40.283660" lon="-4.194240">
        <ele>492.855</ele>
        <time>2022-02-27T04:48:30Z</time>
      </trkpt>
      <trkpt lat="40.283830" lon="-4.194330">
        <ele>493.465</ele>
        <time>2022-02-27T04:49:10Z</time>
      </trkpt>
      <trkpt lat="40.284050" lon="-4.194460">
        <ele>492.357</ele>
        <time>2022-02-27T04:49:50Z</time>
      </trkpt>
      <trkpt lat="40.284170" lon="-4.194530">
        <ele>491.726</ele>
        <time>2022-02-27T04:50:30Z</time>
      </trkpt>
      <trkpt lat="40.284240" lon="-4.194570">
        <ele>492.266</ele>
        <time>2022-02-27T04:51:10Z</time>
      </trkpt>
      <trkpt lat="40.284290" lon="-4.194610">
        <ele>492.542</ele>
        <time>2022-02-27T04:51:50Z</time>
      </trkpt>
      <trkpt lat="40.284330" lon="-4.194660">
        <ele>492.522</ele>
        <time>2022-02-27T04:52:30Z</time>
      </trkpt>
      <trkpt lat="40.284370" lon="-4.194700">
        <ele>492.614</ele>
        <time>2022-02-27T04:53:10Z</time>
      </trkpt>
      <trkpt lat="40.284400" lon="-4.194760">
        <ele>492.508</ele>
        <time>2022-02-27T04:53:50Z</time>
      </trkpt>
      <trkpt lat="40.284430" lon="-4.194820">
        <ele>492.573</ele>
        <time>2022-02-27T04:54:30Z</time>
      </trkpt>
      <trkpt lat="40.284460" lon="-4.194900">
        <ele>492.510</ele>
        <time>2022-02-27T04:55:10Z</time>
      </trkpt>
      <trkpt lat="40.284550" lon="-4.195140">
        <ele>491.864</ele>
        <time>2022-02-27T04:55:50Z</time>
      </trkpt>
      <trkpt lat="40.284630" lon="-4.195340">
        <ele>491.033</ele>
        <time>2022-02-27T04:56:30Z</time>
      </trkpt>
      <trkpt lat="40.284700" lon="-4.195570">
        <ele>489.973</ele>
        <time>2022-02-27T04:57:10Z</time>
      </trkpt>
      <trkpt lat="40.284740" lon="-4.195680">
        <ele>490.125</ele>
        <time>2022-02-27T04:57:50Z</time>
      </trkpt>
      <trkpt lat="40.284890" lon="-4.196050">
        <ele>491.054</ele>
        <time>2022-02-27T04:58:30Z</time>
      </trkpt>
      <trkpt lat="40.285060" lon="-4.196470">
        <ele>489.474</ele>
        <time>2022-02-27T04:59:10Z</time>
      </trkpt>
      <trkpt lat="40.285120" lon="-4.196610">
        <ele>489.239</ele>
        <time>2022-02-27T04:59:50Z</time>
      </trkpt>
      <trkpt lat="40.285220" lon="-4.196810">
        <ele>488.701</ele>
        <time>2022-02-27T05:00:30Z</time>
      </trkpt>
      <trkpt lat="40.285250" lon="-4.196870">
        <ele>488.421</ele>
        <time>2022-02-27T05:01:10Z</time>
      </trkpt>
      <trkpt lat="40.285340" lon="-4.197040">
        <ele>487.708</ele>
        <time>2022-02-27T05:01:50Z</time>
      </trkpt>
      <trkpt lat="40.285420" lon="-4.197210">
        <ele>487.542</ele>
        <time>2022-02-27T05:02:30Z</time>
      </trkpt>
      <trkpt lat="40.285540" lon="-4.197460">
        <ele>487.199</ele>
        <time>2022-02-27T05:03:10Z</time>
      </trkpt>
      <trkpt lat="40.285620" lon="-4.197650">
        <ele>487.613</ele>
        <time>2022-02-27T05:03:50Z</time>
      </trkpt>
      <trkpt lat="40.285710" lon="-4.197910">
        <ele>487.752</ele>
        <time>2022-02-27T05:04:30Z</time>
      </trkpt>
      <trkpt lat="40.285740" lon="-4.198040">
        <ele>487.732</ele>
        <time>2022-02-27T05:05:10Z</time>
      </trkpt>
      <trkpt lat="40.285910" lon="-4.198750">
        <ele>486.334</ele>
        <time>2022-02-27T05:05:50Z</time>
      </trkpt>
      <trkpt lat="40.286100" lon="-4.199590">
        <ele>484.463</ele>
        <time>2022-02-27T05:06:30Z</time>
      </trkpt>
      <trkpt lat="40.286350" lon="-4.200750">
        <ele>485.093</ele>
        <time>2022-02-27T05:07:10Z</time>
      </trkpt>
      <trkpt lat="40.286360" lon="-4.200790">
        <ele>484.947</ele>
        <time>2022-02-27T05:07:50Z</time>
      </trkpt>
      <trkpt lat="40.286410" lon="-4.200970">
        <ele>484.629</ele>
        <time>2022-02-27T05:08:30Z</time>
      </trkpt>
      <trkpt lat="40.286470" lon="-4.201240">
        <ele>484.121</ele>
        <time>2022-02-27T05:09:10Z</time>
      </trkpt>
      <trkpt lat="40.286530" lon="-4.201450">
        <ele>483.908</ele>
        <time>2022-02-27T05:09:50Z</time>
      </trkpt>
      <trkpt lat="40.286720" lon="-4.201880">
        <ele>483.473</ele>
        <time>2022-02-27T05:10:30Z</time>
      </trkpt>
      <trkpt lat="40.286790" lon="-4.202040">
        <ele>483.380</ele>
        <time>2022-02-27T05:11:10Z</time>
      </trkpt>
      <trkpt lat="40.287290" lon="-4.203190">
        <ele>483.264</ele>
        <time>2022-02-27T05:11:50Z</time>
      </trkpt>
      <trkpt lat="40.287410" lon="-4.203470">
        <ele>483.583</ele>
        <time>2022-02-27T05:12:30Z</time>
      </trkpt>
      <trkpt lat="40.287480" lon="-4.203670">
        <ele>483.833</ele>
        <time>2022-02-27T05:13:10Z</time>
      </trkpt>
      <trkpt lat="40.287481" lon="-4.203665">
        <ele>483.885</ele>
        <time>2022-02-27T05:13:50Z</time>
      </trkpt>
      <trkpt lat="40.287610" lon="-4.203960">
        <ele>483.394</ele>
        <time>2022-02-27T05:14:30Z</time>
      </trkpt>
      <trkpt lat="40.287720" lon="-4.204230">
        <ele>482.034</ele>
        <time>2022-02-27T05:15:10Z</time>
      </trkpt>
      <trkpt lat="40.287990" lon="-4.204830">
        <ele>481.634</ele>
        <time>2022-02-27T05:15:50Z</time>
      </trkpt>
      <trkpt lat="40.288180" lon="-4.205280">
        <ele>481.355</ele>
        <time>2022-02-27T05:16:30Z</time>
      </trkpt>
      <trkpt lat="40.288610" lon="-4.206250">
        <ele>483.010</ele>
        <time>2022-02-27T05:17:10Z</time>
      </trkpt>
      <trkpt lat="40.288980" lon="-4.207110">
        <ele>482.408</ele>
        <time>2022-02-27T05:17:50Z</time>
      </trkpt>
      <trkpt lat="40.288990" lon="-4.207120">
        <ele>482.412</ele>
        <time>2022-02-27T05:18:30Z</time>
      </trkpt>
      <trkpt lat="40.289070" lon="-4.207310">
        <ele>482.149</ele>
        <time>2022-02-27T05:19:10Z</time>
      </trkpt>
      <trkpt lat="40.289170" lon="-4.207510">
        <ele>482.073</ele>
        <time>2022-02-27T05:19:50Z</time>
      </trkpt>
      <trkpt lat="40.289260" lon="-4.207720">
        <ele>481.842</ele>
        <time>2022-02-27T05:20:30Z</time>
      </trkpt>
      <trkpt lat="40.289370" lon="-4.207960">
        <ele>481.822</ele>
        <time>2022-02-27T05:21:10Z</time>
      </trkpt>
      <trkpt lat="40.289440" lon="-4.208120">
        <ele>481.564</ele>
        <time>2022-02-27T05:21:50Z</time>
      </trkpt>
      <trkpt lat="40.289570" lon="-4.208420">
        <ele>480.893</ele>
        <time>2022-02-27T05:22:30Z</time>
      </trkpt>
      <trkpt lat="40.289850" lon="-4.209080">
        <ele>478.863</ele>
        <time>2022-02-27T05:23:10Z</time>
      </trkpt>
      <trkpt lat="40.289980" lon="-4.209370">
        <ele>478.218</ele>
        <time>2022-02-27T05:23:50Z</time>
      </trkpt>
      <trkpt lat="40.290120" lon="-4.209700">
        <ele>477.598</ele>
        <time>2022-02-27T05:24:30Z</time>
      </trkpt>
      <trkpt lat="40.290420" lon="-4.210390">
        <ele>476.317</ele>
        <time>2022-02-27T05:25:10Z</time>
      </trkpt>
      <trkpt lat="40.290780" lon="-4.211230">
        <ele>475.308</ele>
        <time>2022-02-27T05:25:50Z</time>
      </trkpt>
      <trkpt lat="40.290930" lon="-4.211570">
        <ele>475.090</ele>
        <time>2022-02-27T05:26:30Z</time>
      </trkpt>
      <trkpt lat="40.291090" lon="-4.211960">
        <ele>474.877</ele>
        <time>2022-02-27T05:27:10Z</time>
      </trkpt>
      <trkpt lat="40.291280" lon="-4.212360">
        <ele>474.121</ele>
        <time>2022-02-27T05:27:50Z</time>
      </trkpt>
      <trkpt lat="40.291350" lon="-4.212520">
        <ele>473.890</ele>
        <time>2022-02-27T05:28:30Z</time>
      </trkpt>
      <trkpt lat="40.291460" lon="-4.212770">
        <ele>473.580</ele>
        <time>2022-02-27T05:29:10Z</time>
      </trkpt>
      <trkpt lat="40.291550" lon="-4.212980">
        <ele>473.422</ele>
        <time>2022-02-27T05:29:50Z</time>
      </trkpt>
      <trkpt lat="40.291630" lon="-4.213180">
        <ele>473.351</ele>
        <time>2022-02-27T05:30:30Z</time>
      </trkpt>
      <trkpt lat="40.291670" lon="-4.213280">
        <ele>473.251</ele>
        <time>2022-02-27T05:31:10Z</time>
      </trkpt>
      <trkpt lat="40.291720" lon="-4.213390">
        <ele>473.265</ele>
        <time>2022-02-27T05:31:50Z</time>
      </trkpt>
      <trkpt lat="40.291810" lon="-4.213590">
        <ele>473.168</ele>
        <time>2022-02-27T05:32:30Z</time>
      </trkpt>
      <trkpt lat="40.291860" lon="-4.213720">
        <ele>473.014</ele>
        <time>2022-02-27T05:33:10Z</time>
      </trkpt>
      <trkpt lat="40.291900" lon="-4.213800">
        <ele>473.008</ele>
        <time>2022-02-27T05:33:50Z</time>
      </trkpt>
      <trkpt lat="40.292050" lon="-4.214140">
        <ele>473.425</ele>
        <time>2022-02-27T05:34:30Z</time>
      </trkpt>
      <trkpt lat="40.292280" lon="-4.214690">
        <ele>473.542</ele>
        <time>2022-02-27T05:35:10Z</time>
      </trkpt>
      <trkpt lat="40.292400" lon="-4.214910">
        <ele>474.376</ele>
        <time>2022-02-27T05:35:50Z</time>
      </trkpt>
      <trkpt lat="40.292780" lon="-4.215530">
        <ele>476.035</ele>
        <time>2022-02-27T05:36:30Z</time>
      </trkpt>
      <trkpt lat="40.293050" lon="-4.215890">
        <ele>476.815</ele>
        <time>2022-02-27T05:37:10Z</time>
      </trkpt>
      <trkpt lat="40.293290" lon="-4.216240">
        <ele>476.387</ele>
        <time>2022-02-27T05:37:50Z</time>
      </trkpt>
      <trkpt lat="40.293490" lon="-4.216530">
        <ele>476.926</ele>
        <time>2022-02-27T05:38:30Z</time>
      </trkpt>
      <trkpt lat="40.293610" lon="-4.216710">
        <ele>476.896</ele>
        <time>2022-02-27T05:39:10Z</time>
      </trkpt>
      <trkpt lat="40.293690" lon="-4.216830">
        <ele>477.318</ele>
        <time>2022-02-27T05:39:50Z</time>
      </trkpt>
      <trkpt lat="40.293730" lon="-4.216880">
        <ele>477.598</ele>
        <time>2022-02-27T05:40:30Z</time>
      </trkpt>
      <trkpt lat="40.294230" lon="-4.217630">
        <ele>477.717</ele>
        <time>2022-02-27T05:41:10Z</time>
      </trkpt>
      <trkpt lat="40.294320" lon="-4.217770">
        <ele>477.008</ele>
        <time>2022-02-27T05:41:50Z</time>
      </trkpt>
      <trkpt lat="40.294380" lon="-4.217850">
        <ele>476.720</ele>
        <time>2022-02-27T05:42:30Z</time>
      </trkpt>
      <trkpt lat="40.294420" lon="-4.217910">
        <ele>476.517</ele>
        <time>2022-02-27T05:43:10Z</time>
      </trkpt>
      <trkpt lat="40.294480" lon="-4.217980">
        <ele>476.371</ele>
        <time>2022-02-27T05:43:50Z</time>
      </trkpt>
      <trkpt lat="40.294580" lon="-4.218090">
        <ele>475.840</ele>
        <time>2022-02-27T05:44:30Z</time>
      </trkpt>
      <trkpt lat="40.294660" lon="-4.218170">
        <ele>475.590</ele>
        <time>2022-02-27T05:45:10Z</time>
      </trkpt>
      <trkpt lat="40.294750" lon="-4.218230">
        <ele>475.412</ele>
        <time>2022-02-27T05:45:50Z</time>
      </trkpt>
      <trkpt lat="40.294840" lon="-4.218270">
        <ele>475.381</ele>
        <time>2022-02-27T05:46:30Z</time>
      </trkpt>
      <trkpt lat="40.294970" lon="-4.218300">
        <ele>475.251</ele>
        <time>2022-02-27T05:47:10Z</time>
      </trkpt>
      <trkpt lat="40.295100" lon="-4.218320">
        <ele>475.129</ele>
        <time>2022-02-27T05:47:50Z</time>
      </trkpt>
      <trkpt lat="40.295190" lon="-4.218330">
        <ele>475.000</ele>
        <time>2022-02-27T05:48:30Z</time>
      </trkpt>
      <trkpt lat="40.295280" lon="-4.218320">
        <ele>475.120</ele>
        <time>2022-02-27T05:49:10Z</time>
      </trkpt>
      <trkpt lat="40.295320" lon="-4.218310">
        <ele>475.208</ele>
        <time>2022-02-27T05:49:50Z</time>
      </trkpt>
      <trkpt lat="40.296350" lon="-4.218140">
        <ele>475.471</ele>
        <time>2022-02-27T05:50:30Z</time>
      </trkpt>
      <trkpt lat="40.296890" lon="-4.218040">
        <ele>473.368</ele>
        <time>2022-02-27T05:51:10Z</time>
      </trkpt>
      <trkpt lat="40.297070" lon="-4.218010">
        <ele>472.732</ele>
        <time>2022-02-27T05:51:50Z</time>
      </trkpt>
      <trkpt lat="40.297250" lon="-4.217970">
        <ele>472.541</ele>
        <time>2022-02-27T05:52:30Z</time>
      </trkpt>
      <trkpt lat="40.297430" lon="-4.217930">
        <ele>473.961</ele>
        <time>2022-02-27T05:53:10Z</time>
      </trkpt>
      <trkpt lat="40.297540" lon="-4.217890">
        <ele>474.513</ele>
        <time>2022-02-27T05:53:50Z</time>
      </trkpt>
      <trkpt lat="40.297640" lon="-4.217840">
        <ele>474.792</ele>
        <time>2022-02-27T05:54:30Z</time>
      </trkpt>
      <trkpt lat="40.297830" lon="-4.217740">
        <ele>474.682</ele>
        <time>2022-02-27T05:55:10Z</time>
      </trkpt>
      <trkpt lat="40.297930" lon="-4.217690">
        <ele>473.836</ele>
        <time>2022-02-27T05:55:50Z</time>
      </trkpt>
      <trkpt lat="40.297980" lon="-4.217650">
        <ele>473.617</ele>
        <time>2022-02-27T05:56:30Z</time>
      </trkpt>
      <trkpt lat="40.298190" lon="-4.217520">
        <ele>471.518</ele>
        <time>2022-02-27T05:57:10Z</time>
      </trkpt>
      <trkpt lat="40.298270" lon="-4.217470">
        <ele>470.208</ele>
        <time>2022-02-27T05:57:50Z</time>
      </trkpt>
      <trkpt lat="40.298360" lon="-4.217420">
        <ele>468.962</ele>
        <time>2022-02-27T05:58:30Z</time>
      </trkpt>
      <trkpt lat="40.298520" lon="-4.217320">
        <ele>468.819</ele>
        <time>2022-02-27T05:59:10Z</time>
      </trkpt>
      <trkpt lat="40.298960" lon="-4.217060">
        <ele>468.423</ele>
        <time>2022-02-27T05:59:50Z</time>
      </trkpt>
      <trkpt lat="40.299010" lon="-4.217030">
        <ele>468.492</ele>
        <time>2022-02-27T06:00:30Z</time>
      </trkpt>
      <trkpt lat="40.299340" lon="-4.216830">
        <ele>468.482</ele>
        <time>2022-02-27T06:01:10Z</time>
      </trkpt>
      <trkpt lat="40.299440" lon="-4.216770">
        <ele>468.684</ele>
        <time>2022-02-27T06:01:50Z</time>
      </trkpt>
      <trkpt lat="40.300220" lon="-4.216290">
        <ele>468.553</ele>
        <time>2022-02-27T06:02:30Z</time>
      </trkpt>
      <trkpt lat="40.300240" lon="-4.216280">
        <ele>468.563</ele>
        <time>2022-02-27T06:03:10Z</time>
      </trkpt>
      <trkpt lat="40.300960" lon="-4.215850">
        <ele>468.062</ele>
        <time>2022-02-27T06:03:50Z</time>
      </trkpt>
      <trkpt lat="40.301160" lon="-4.215730">
        <ele>468.083</ele>
        <time>2022-02-27T06:04:30Z</time>
      </trkpt>
      <trkpt lat="40.301290" lon="-4.215650">
        <ele>468.011</ele>
        <time>2022-02-27T06:05:10Z</time>
      </trkpt>
      <trkpt lat="40.301450" lon="-4.215560">
        <ele>468.008</ele>
        <time>2022-02-27T06:05:50Z</time>
      </trkpt>
      <trkpt lat="40.301570" lon="-4.215480">
        <ele>468.015</ele>
        <time>2022-02-27T06:06:30Z</time>
      </trkpt>
      <trkpt lat="40.302100" lon="-4.215160">
        <ele>468.082</ele>
        <time>2022-02-27T06:07:10Z</time>
      </trkpt>
      <trkpt lat="40.302590" lon="-4.214870">
        <ele>468.566</ele>
        <time>2022-02-27T06:07:50Z</time>
      </trkpt>
      <trkpt lat="40.302750" lon="-4.214760">
        <ele>468.965</ele>
        <time>2022-02-27T06:08:30Z</time>
      </trkpt>
      <trkpt lat="40.302810" lon="-4.214730">
        <ele>469.075</ele>
        <time>2022-02-27T06:09:10Z</time>
      </trkpt>
      <trkpt lat="40.303130" lon="-4.214550">
        <ele>468.937</ele>
        <time>2022-02-27T06:09:50Z</time>
      </trkpt>
      <trkpt lat="40.303470" lon="-4.214360">
        <ele>469.236</ele>
        <time>2022-02-27T06:10:30Z</time>
      </trkpt>
      <trkpt lat="40.303640" lon="-4.214260">
        <ele>469.066</ele>
        <time>2022-02-27T06:11:10Z</time>
      </trkpt>
      <trkpt lat="40.303800" lon="-4.214160">
        <ele>469.061</ele>
        <time>2022-02-27T06:11:50Z</time>
      </trkpt>
      <trkpt lat="40.303960" lon="-4.214070">
        <ele>468.821</ele>
        <time>2022-02-27T06:12:30Z</time>
      </trkpt>
      <trkpt lat="40.304760" lon="-4.213610">
        <ele>466.913</ele>
        <time>2022-02-27T06:13:10Z</time>
      </trkpt>
      <trkpt lat="40.305980" lon="-4.212890">
        <ele>466.608</ele>
        <time>2022-02-27T06:13:50Z</time>
      </trkpt>
      <trkpt lat="40.306670" lon="-4.212500">
        <ele>465.075</ele>
        <time>2022-02-27T06:14:30Z</time>
      </trkpt>
      <trkpt lat="40.306800" lon="-4.212430">
        <ele>465.322</ele>
        <time>2022-02-27T06:15:10Z</time>
      </trkpt>
      <trkpt lat="40.306820" lon="-4.212410">
        <ele>465.346</ele>
        <time>2022-02-27T06:15:50Z</time>
      </trkpt>
      <trkpt lat="40.306860" lon="-4.212390">
        <ele>465.495</ele>
        <time>2022-02-27T06:16:30Z</time>
      </trkpt>
      <trkpt lat="40.307180" lon="-4.212210">
        <ele>465.265</ele>
        <time>2022-02-27T06:17:10Z</time>
      </trkpt>
      <trkpt lat="40.307360" lon="-4.212090">
        <ele>465.027</ele>
        <time>2022-02-27T06:17:50Z</time>
      </trkpt>
      <trkpt lat="40.308000" lon="-4.211720">
        <ele>465.736</ele>
        <time>2022-02-27T06:18:30Z</time>
      </trkpt>
      <trkpt lat="40.308090" lon="-4.211670">
        <ele>466.046</ele>
        <time>2022-02-27T06:19:10Z</time>
      </trkpt>
      <trkpt lat="40.308240" lon="-4.211580">
        <ele>466.363</ele>
        <time>2022-02-27T06:19:50Z</time>
      </trkpt>
      <trkpt lat="40.308430" lon="-4.211460">
        <ele>466.544</ele>
        <time>2022-02-27T06:20:30Z</time>
      </trkpt>
      <trkpt lat="40.308690" lon="-4.211280">
        <ele>466.418</ele>
        <time>2022-02-27T06:21:10Z</time>
      </trkpt>
      <trkpt lat="40.308730" lon="-4.211250">
        <ele>466.508</ele>
        <time>2022-02-27T06:21:50Z</time>
      </trkpt>
      <trkpt lat="40.308810" lon="-4.211200">
        <ele>466.755</ele>
        <time>2022-02-27T06:22:30Z</time>
      </trkpt>
      <trkpt lat="40.308860" lon="-4.211160">
        <ele>466.822</ele>
        <time>2022-02-27T06:23:10Z</time>
      </trkpt>
      <trkpt lat="40.308920" lon="-4.211110">
        <ele>466.926</ele>
        <time>2022-02-27T06:23:50Z</time>
      </trkpt>
      <trkpt lat="40.308990" lon="-4.211050">
        <ele>466.985</ele>
        <time>2022-02-27T06:24:30Z</time>
      </trkpt>
      <trkpt lat="40.309050" lon="-4.210990">
        <ele>466.925</ele>
        <time>2022-02-27T06:25:10Z</time>
      </trkpt>
      <trkpt lat="40.309140" lon="-4.210880">
        <ele>466.987</ele>
        <time>2022-02-27T06:25:50Z</time>
      </trkpt>
      <trkpt lat="40.309240" lon="-4.210770">
        <ele>466.846</ele>
        <time>2022-02-27T06:26:30Z</time>
      </trkpt>
      <trkpt lat="40.309350" lon="-4.210640">
        <ele>466.846</ele>
        <time>2022-02-27T06:27:10Z</time>
      </trkpt>
      <trkpt lat="40.309600" lon="-4.210350">
        <ele>466.877</ele>
        <time>2022-02-27T06:27:50Z</time>
      </trkpt>
      <trkpt lat="40.309870" lon="-4.210030">
        <ele>464.961</ele>
        <time>2022-02-27T06:28:30Z</time>
      </trkpt>
      <trkpt lat="40.309940" lon="-4.209960">
        <ele>464.027</ele>
        <time>2022-02-27T06:29:10Z</time>
      </trkpt>
      <trkpt lat="40.309970" lon="-4.209910">
        <ele>464.008</ele>
        <time>2022-02-27T06:29:50Z</time>
      </trkpt>
      <trkpt lat="40.310020" lon="-4.209840">
        <ele>463.666</ele>
        <time>2022-02-27T06:30:30Z</time>
      </trkpt>
      <trkpt lat="40.310050" lon="-4.209780">
        <ele>463.413</ele>
        <time>2022-02-27T06:31:10Z</time>
      </trkpt>
      <trkpt lat="40.310110" lon="-4.209630">
        <ele>463.097</ele>
        <time>2022-02-27T06:31:50Z</time>
      </trkpt>
      <trkpt lat="40.310110" lon="-4.209620">
        <ele>463.146</ele>
        <time>2022-02-27T06:32:30Z</time>
      </trkpt>
      <trkpt lat="40.310170" lon="-4.209520">
        <ele>461.566</ele>
        <time>2022-02-27T06:33:10Z</time>
      </trkpt>
      <trkpt lat="40.310220" lon="-4.209450">
        <ele>459.738</ele>
        <time>2022-02-27T06:33:50Z</time>
      </trkpt>
      <trkpt lat="40.310230" lon="-4.209440">
        <ele>459.367</ele>
        <time>2022-02-27T06:34:30Z</time>
      </trkpt>
      <trkpt lat="40.310290" lon="-4.209360">
        <ele>457.267</ele>
        <time>2022-02-27T06:35:10Z</time>
      </trkpt>
      <trkpt lat="40.310480" lon="-4.209170">
        <ele>458.041</ele>
        <time>2022-02-27T06:35:50Z</time>
      </trkpt>
      <trkpt lat="40.310650" lon="-4.209030">
        <ele>459.781</ele>
        <time>2022-02-27T06:36:30Z</time>
      </trkpt>
      <trkpt lat="40.310950" lon="-4.208690">
        <ele>462.009</ele>
        <time>2022-02-27T06:37:10Z</time>
      </trkpt>
      <trkpt lat="40.311090" lon="-4.208540">
        <ele>458.708</ele>
        <time>2022-02-27T06:37:50Z</time>
      </trkpt>
      <trkpt lat="40.311220" lon="-4.208390">
        <ele>458.693</ele>
        <time>2022-02-27T06:38:30Z</time>
      </trkpt>
      <trkpt lat="40.311320" lon="-4.208290">
        <ele>459.010</ele>
        <time>2022-02-27T06:39:10Z</time>
      </trkpt>
      <trkpt lat="40.311380" lon="-4.208240">
        <ele>459.134</ele>
        <time>2022-02-27T06:39:50Z</time>
      </trkpt>
      <trkpt lat="40.311480" lon="-4.208170">
        <ele>459.133</ele>
        <time>2022-02-27T06:40:30Z</time>
      </trkpt>
      <trkpt lat="40.311570" lon="-4.208120">
        <ele>459.053</ele>
        <time>2022-02-27T06:41:10Z</time>
      </trkpt>
      <trkpt lat="40.311660" lon="-4.208070">
        <ele>458.955</ele>
        <time>2022-02-27T06:41:50Z</time>
      </trkpt>
      <trkpt lat="40.311750" lon="-4.208020">
        <ele>460.054</ele>
        <time>2022-02-27T06:42:30Z</time>
      </trkpt>
      <trkpt lat="40.311910" lon="-4.207930">
        <ele>461.254</ele>
        <time>2022-02-27T06:43:10Z</time>
      </trkpt>
      <trkpt lat="40.311990" lon="-4.207890">
        <ele>461.133</ele>
        <time>2022-02-27T06:43:50Z</time>
      </trkpt>
      <trkpt lat="40.312050" lon="-4.207860">
        <ele>461.023</ele>
        <time>2022-02-27T06:44:30Z</time>
      </trkpt>
      <trkpt lat="40.312180" lon="-4.207800">
        <ele>460.315</ele>
        <time>2022-02-27T06:45:10Z</time>
      </trkpt>
      <trkpt lat="40.312250" lon="-4.207770">
        <ele>459.808</ele>
        <time>2022-02-27T06:45:50Z</time>
      </trkpt>
      <trkpt lat="40.312410" lon="-4.207690">
        <ele>458.892</ele>
        <time>2022-02-27T06:46:30Z</time>
      </trkpt>
      <trkpt lat="40.312500" lon="-4.207660">
        <ele>457.869</ele>
        <time>2022-02-27T06:47:10Z</time>
      </trkpt>
      <trkpt lat="40.312560" lon="-4.207640">
        <ele>457.643</ele>
        <time>2022-02-27T06:47:50Z</time>
      </trkpt>
      <trkpt lat="40.312630" lon="-4.207610">
        <ele>457.252</ele>
        <time>2022-02-27T06:48:30Z</time>
      </trkpt>
      <trkpt lat="40.312740" lon="-4.207580">
        <ele>456.382</ele>
        <time>2022-02-27T06:49:10Z</time>
      </trkpt>
      <trkpt lat="40.312780" lon="-4.207560">
        <ele>456.024</ele>
        <time>2022-02-27T06:49:50Z</time>
      </trkpt>
      <trkpt lat="40.312850" lon="-4.207540">
        <ele>456.253</ele>
        <time>2022-02-27T06:50:30Z</time>
      </trkpt>
      <trkpt lat="40.312950" lon="-4.207510">
        <ele>456.663</ele>
        <time>2022-02-27T06:51:10Z</time>
      </trkpt>
      <trkpt lat="40.313130" lon="-4.207460">
        <ele>457.895</ele>
        <time>2022-02-27T06:51:50Z</time>
      </trkpt>
      <trkpt lat="40.313200" lon="-4.207450">
        <ele>458.549</ele>
        <time>2022-02-27T06:52:30Z</time>
      </trkpt>
      <trkpt lat="40.313260" lon="-4.207430">
        <ele>459.323</ele>
        <time>2022-02-27T06:53:10Z</time>
      </trkpt>
      <trkpt lat="40.313320" lon="-4.207420">
        <ele>460.008</ele>
        <time>2022-02-27T06:53:50Z</time>
      </trkpt>
      <trkpt lat="40.313380" lon="-4.207410">
        <ele>460.068</ele>
        <time>2022-02-27T06:54:30Z</time>
      </trkpt>
      <trkpt lat="40.313530" lon="-4.207370">
        <ele>459.535</ele>
        <time>2022-02-27T06:55:10Z</time>
      </trkpt>
      <trkpt lat="40.313650" lon="-4.207360">
        <ele>458.989</ele>
        <time>2022-02-27T06:55:50Z</time>
      </trkpt>
      <trkpt lat="40.313800" lon="-4.207350">
        <ele>458.528</ele>
        <time>2022-02-27T06:56:30Z</time>
      </trkpt>
      <trkpt lat="40.313910" lon="-4.207340">
        <ele>458.398</ele>
        <time>2022-02-27T06:57:10Z</time>
      </trkpt>
      <trkpt lat="40.314440" lon="-4.207300">
        <ele>457.570</ele>
        <time>2022-02-27T06:57:50Z</time>
      </trkpt>
      <trkpt lat="40.314630" lon="-4.207290">
        <ele>458.269</ele>
        <time>2022-02-27T06:58:30Z</time>
      </trkpt>
      <trkpt lat="40.314700" lon="-4.207290">
        <ele>458.429</ele>
        <time>2022-02-27T06:59:10Z</time>
      </trkpt>
      <trkpt lat="40.314860" lon="-4.207270">
        <ele>458.718</ele>
        <time>2022-02-27T06:59:50Z</time>
      </trkpt>
      <trkpt lat="40.315050" lon="-4.207250">
        <ele>458.898</ele>
        <time>2022-02-27T07:00:30Z</time>
      </trkpt>
      <trkpt lat="40.315170" lon="-4.207230">
        <ele>458.917</ele>
        <time>2022-02-27T07:01:10Z</time>
      </trkpt>
      <trkpt lat="40.315520" lon="-4.207180">
        <ele>459.708</ele>
        <time>2022-02-27T07:01:50Z</time>
      </trkpt>
      <trkpt lat="40.315770" lon="-4.207110">
        <ele>459.810</ele>
        <time>2022-02-27T07:02:30Z</time>
      </trkpt>
      <trkpt lat="40.315940" lon="-4.207050">
        <ele>460.527</ele>
        <time>2022-02-27T07:03:10Z</time>
      </trkpt>
      <trkpt lat="40.315980" lon="-4.207010">
        <ele>461.161</ele>
        <time>2022-02-27T07:03:50Z</time>
      </trkpt>
      <trkpt lat="40.316030" lon="-4.206980">
        <ele>461.540</ele>
        <time>2022-02-27T07:04:30Z</time>
      </trkpt>
      <trkpt lat="40.316050" lon="-4.206970">
        <ele>461.650</ele>
        <time>2022-02-27T07:05:10Z</time>
      </trkpt>
      <trkpt lat="40.316150" lon="-4.206920">
        <ele>462.352</ele>
        <time>2022-02-27T07:05:50Z</time>
      </trkpt>
      <trkpt lat="40.316200" lon="-4.206900">
        <ele>462.571</ele>
        <time>2022-02-27T07:06:30Z</time>
      </trkpt>
      <trkpt lat="40.316199" lon="-4.206903">
        <ele>462.461</ele>
        <time>2022-02-27T07:07:10Z</time>
      </trkpt>
      <trkpt lat="40.316280" lon="-4.206800">
        <ele>464.069</ele>
        <time>2022-02-27T07:07:50Z</time>
      </trkpt>
      <trkpt lat="40.316350" lon="-4.206740">
        <ele>464.804</ele>
        <time>2022-02-27T07:08:30Z</time>
      </trkpt>
      <trkpt lat="40.316420" lon="-4.206690">
        <ele>465.424</ele>
        <time>2022-02-27T07:09:10Z</time>
      </trkpt>
      <trkpt lat="40.316490" lon="-4.206680">
        <ele>465.108</ele>
        <time>2022-02-27T07:09:50Z</time>
      </trkpt>
      <trkpt lat="40.316560" lon="-4.206620">
        <ele>465.515</ele>
        <time>2022-02-27T07:10:30Z</time>
      </trkpt>
      <trkpt lat="40.316620" lon="-4.206570">
        <ele>465.872</ele>
        <time>2022-02-27T07:11:10Z</time>
      </trkpt>
      <trkpt lat="40.316700" lon="-4.206530">
        <ele>465.856</ele>
        <time>2022-02-27T07:11:50Z</time>
      </trkpt>
      <trkpt lat="40.316820" lon="-4.206510">
        <ele>465.765</ele>
        <time>2022-02-27T07:12:30Z</time>
      </trkpt>
      <trkpt lat="40.316930" lon="-4.206500">
        <ele>465.535</ele>
        <time>2022-02-27T07:13:10Z</time>
      </trkpt>
      <trkpt lat="40.317060" lon="-4.206490">
        <ele>464.947</ele>
        <time>2022-02-27T07:13:50Z</time>
      </trkpt>
      <trkpt lat="40.317510" lon="-4.206470">
        <ele>464.146</ele>
        <time>2022-02-27T07:14:30Z</time>
      </trkpt>
      <trkpt lat="40.317580" lon="-4.206460">
        <ele>464.486</ele>
        <time>2022-02-27T07:15:10Z</time>
      </trkpt>
      <trkpt lat="40.317690" lon="-4.206440">
        <ele>464.995</ele>
        <time>2022-02-27T07:15:50Z</time>
      </trkpt>
      <trkpt lat="40.317870" lon="-4.206410">
        <ele>465.049</ele>
        <time>2022-02-27T07:16:30Z</time>
      </trkpt>
      <trkpt lat="40.317950" lon="-4.206390">
        <ele>464.723</ele>
        <time>2022-02-27T07:17:10Z</time>
      </trkpt>
      <trkpt lat="40.318000" lon="-4.206370">
        <ele>464.708</ele>
        <time>2022-02-27T07:17:50Z</time>
      </trkpt>
      <trkpt lat="40.318020" lon="-4.206370">
        <ele>464.678</ele>
        <time>2022-02-27T07:18:30Z</time>
      </trkpt>
      <trkpt lat="40.318210" lon="-4.206300">
        <ele>462.865</ele>
        <time>2022-02-27T07:19:10Z</time>
      </trkpt>
      <trkpt lat="40.318380" lon="-4.206210">
        <ele>461.139</ele>
        <time>2022-02-27T07:19:50Z</time>
      </trkpt>
      <trkpt lat="40.318590" lon="-4.206090">
        <ele>461.448</ele>
        <time>2022-02-27T07:20:30Z</time>
      </trkpt>
      <trkpt lat="40.319230" lon="-4.205710">
        <ele>463.548</ele>
        <time>2022-02-27T07:21:10Z</time>
      </trkpt>
      <trkpt lat="40.319600" lon="-4.205500">
        <ele>465.080</ele>
        <time>2022-02-27T07:21:50Z</time>
      </trkpt>
      <trkpt lat="40.319700" lon="-4.205470">
        <ele>465.019</ele>
        <time>2022-02-27T07:22:30Z</time>
      </trkpt>
      <trkpt lat="40.319810" lon="-4.205430">
        <ele>464.649</ele>
        <time>2022-02-27T07:23:10Z</time>
      </trkpt>
      <trkpt lat="40.319880" lon="-4.205430">
        <ele>464.058</ele>
        <time>2022-02-27T07:23:50Z</time>
      </trkpt>
      <trkpt lat="40.319970" lon="-4.205430">
        <ele>463.252</ele>
        <time>2022-02-27T07:24:30Z</time>
      </trkpt>
      <trkpt lat="40.320100" lon="-4.205450">
        <ele>466.117</ele>
        <time>2022-02-27T07:25:10Z</time>
      </trkpt>
      <trkpt lat="40.320230" lon="-4.205510">
        <ele>469.408</ele>
        <time>2022-02-27T07:25:50Z</time>
      </trkpt>
      <trkpt lat="40.320310" lon="-4.205540">
        <ele>470.974</ele>
        <time>2022-02-27T07:26:30Z</time>
      </trkpt>
      <trkpt lat="40.320400" lon="-4.205580">
        <ele>471.711</ele>
        <time>2022-02-27T07:27:10Z</time>
      </trkpt>
      <trkpt lat="40.320570" lon="-4.205670">
        <ele>472.385</ele>
        <time>2022-02-27T07:27:50Z</time>
      </trkpt>
      <trkpt lat="40.320690" lon="-4.205730">
        <ele>472.824</ele>
        <time>2022-02-27T07:28:30Z</time>
      </trkpt>
      <trkpt lat="40.320880" lon="-4.205820">
        <ele>473.884</ele>
        <time>2022-02-27T07:29:10Z</time>
      </trkpt>
      <trkpt lat="40.321220" lon="-4.205990">
        <ele>474.286</ele>
        <time>2022-02-27T07:29:50Z</time>
      </trkpt>
      <trkpt lat="40.321290" lon="-4.206030">
        <ele>474.355</ele>
        <time>2022-02-27T07:30:30Z</time>
      </trkpt>
      <trkpt lat="40.321350" lon="-4.206060">
        <ele>474.585</ele>
        <time>2022-02-27T07:31:10Z</time>
      </trkpt>
      <trkpt lat="40.321690" lon="-4.206220">
        <ele>475.461</ele>
        <time>2022-02-27T07:31:50Z</time>
      </trkpt>
      <trkpt lat="40.321890" lon="-4.206280">
        <ele>474.221</ele>
        <time>2022-02-27T07:32:30Z</time>
      </trkpt>
      <trkpt lat="40.321980" lon="-4.206280">
        <ele>474.913</ele>
        <time>2022-02-27T07:33:10Z</time>
      </trkpt>
      <trkpt lat="40.321990" lon="-4.206280">
        <ele>475.008</ele>
        <time>2022-02-27T07:33:50Z</time>
      </trkpt>
      <trkpt lat="40.322160" lon="-4.206290">
        <ele>476.785</ele>
        <time>2022-02-27T07:34:30Z</time>
      </trkpt>
      <trkpt lat="40.322310" lon="-4.206290">
        <ele>477.282</ele>
        <time>2022-02-27T07:35:10Z</time>
      </trkpt>
      <trkpt lat="40.322510" lon="-4.206300">
        <ele>476.516</ele>
        <time>2022-02-27T07:35:50Z</time>
      </trkpt>
      <trkpt lat="40.322740" lon="-4.206270">
        <ele>475.715</ele>
        <time>2022-02-27T07:36:30Z</time>
      </trkpt>
      <trkpt lat="40.322950" lon="-4.206210">
        <ele>476.755</ele>
        <time>2022-02-27T07:37:10Z</time>
      </trkpt>
      <trkpt lat="40.323260" lon="-4.206070">
        <ele>476.167</ele>
        <time>2022-02-27T07:37:50Z</time>
      </trkpt>
      <trkpt lat="40.323460" lon="-4.205930">
        <ele>475.086</ele>
        <time>2022-02-27T07:38:30Z</time>
      </trkpt>
      <trkpt lat="40.323540" lon="-4.205840">
        <ele>474.586</ele>
        <time>2022-02-27T07:39:10Z</time>
      </trkpt>
      <trkpt lat="40.323630" lon="-4.205690">
        <ele>473.868</ele>
        <time>2022-02-27T07:39:50Z</time>
      </trkpt>
      <trkpt lat="40.323640" lon="-4.205670">
        <ele>473.842</ele>
        <time>2022-02-27T07:40:30Z</time>
      </trkpt>
      <trkpt lat="40.323710" lon="-4.205490">
        <ele>474.126</ele>
        <time>2022-02-27T07:41:10Z</time>
      </trkpt>
      <trkpt lat="40.323820" lon="-4.205130">
        <ele>474.608</ele>
        <time>2022-02-27T07:41:50Z</time>
      </trkpt>
      <trkpt lat="40.323870" lon="-4.204860">
        <ele>474.915</ele>
        <time>2022-02-27T07:42:30Z</time>
      </trkpt>
      <trkpt lat="40.323890" lon="-4.204680">
        <ele>475.182</ele>
        <time>2022-02-27T07:43:10Z</time>
      </trkpt>
      <trkpt lat="40.323900" lon="-4.204100">
        <ele>477.186</ele>
        <time>2022-02-27T07:43:50Z</time>
      </trkpt>
      <trkpt lat="40.323910" lon="-4.203810">
        <ele>478.155</ele>
        <time>2022-02-27T07:44:30Z</time>
      </trkpt>
      <trkpt lat="40.323910" lon="-4.203770">
        <ele>478.235</ele>
        <time>2022-02-27T07:45:10Z</time>
      </trkpt>
      <trkpt lat="40.323940" lon="-4.203340">
        <ele>479.437</ele>
        <time>2022-02-27T07:45:50Z</time>
      </trkpt>
      <trkpt lat="40.323950" lon="-4.203190">
        <ele>479.536</ele>
        <time>2022-02-27T07:46:30Z</time>
      </trkpt>
      <trkpt lat="40.323950" lon="-4.203140">
        <ele>479.566</ele>
        <time>2022-02-27T07:47:10Z</time>
      </trkpt>
      <trkpt lat="40.323960" lon="-4.203060">
        <ele>479.535</ele>
        <time>2022-02-27T07:47:50Z</time>
      </trkpt>
      <trkpt lat="40.323970" lon="-4.202580">
        <ele>479.086</ele>
        <time>2022-02-27T07:48:30Z</time>
      </trkpt>
      <trkpt lat="40.323980" lon="-4.202240">
        <ele>478.714</ele>
        <time>2022-02-27T07:49:10Z</time>
      </trkpt>
      <trkpt lat="40.323980" lon="-4.201960">
        <ele>478.708</ele>
        <time>2022-02-27T07:49:50Z</time>
      </trkpt>
      <trkpt lat="40.323950" lon="-4.201770">
        <ele>478.262</ele>
        <time>2022-02-27T07:50:30Z</time>
      </trkpt>
      <trkpt lat="40.323950" lon="-4.201710">
        <ele>477.999</ele>
        <time>2022-02-27T07:51:10Z</time>
      </trkpt>
      <trkpt lat="40.323840" lon="-4.201370">
        <ele>478.623</ele>
        <time>2022-02-27T07:51:50Z</time>
      </trkpt>
      <trkpt lat="40.323700" lon="-4.201050">
        <ele>479.672</ele>
        <time>2022-02-27T07:52:30Z</time>
      </trkpt>
      <trkpt lat="40.323650" lon="-4.200920">
        <ele>479.832</ele>
        <time>2022-02-27T07:53:10Z</time>
      </trkpt>
      <trkpt lat="40.323570" lon="-4.200710">
        <ele>480.044</ele>
        <time>2022-02-27T07:53:50Z</time>
      </trkpt>
      <trkpt lat="40.323520" lon="-4.200580">
        <ele>480.113</ele>
        <time>2022-02-27T07:54:30Z</time>
      </trkpt>
      <trkpt lat="40.323410" lon="-4.200370">
        <ele>480.723</ele>
        <time>2022-02-27T07:55:10Z</time>
      </trkpt>
      <trkpt lat="40.323409" lon="-4.200367">
        <ele>480.746</ele>
        <time>2022-02-27T07:55:50Z</time>
      </trkpt>
      <trkpt lat="40.323380" lon="-4.200380">
        <ele>481.088</ele>
        <time>2022-02-27T07:56:30Z</time>
      </trkpt>
      <trkpt lat="40.323360" lon="-4.200380">
        <ele>481.116</ele>
        <time>2022-02-27T07:57:10Z</time>
      </trkpt>
      <trkpt lat="40.323330" lon="-4.200380">
        <ele>481.408</ele>
        <time>2022-02-27T07:57:50Z</time>
      </trkpt>
      <trkpt lat="40.323230" lon="-4.200380">
        <ele>483.213</ele>
        <time>2022-02-27T07:58:30Z</time>
      </trkpt>
      <trkpt lat="40.323220" lon="-4.200380">
        <ele>483.420</ele>
        <time>2022-02-27T07:59:10Z</time>
      </trkpt>
      <trkpt lat="40.323150" lon="-4.200380">
        <ele>484.764</ele>
        <time>2022-02-27T07:59:50Z</time>
      </trkpt>
      <trkpt lat="40.323110" lon="-4.200380">
        <ele>485.433</ele>
        <time>2022-02-27T08:00:30Z</time>
      </trkpt>
      <trkpt lat="40.323060" lon="-4.200400">
        <ele>486.433</ele>
        <time>2022-02-27T08:01:10Z</time>
      </trkpt>
      <trkpt lat="40.323030" lon="-4.200420">
        <ele>486.665</ele>
        <time>2022-02-27T08:01:50Z</time>
      </trkpt>
      <trkpt lat="40.322980" lon="-4.200460">
        <ele>486.974</ele>
        <time>2022-02-27T08:02:30Z</time>
      </trkpt>
      <trkpt lat="40.322976" lon="-4.200464">
        <ele>487.024</ele>
        <time>2022-02-27T08:03:10Z</time>
      </trkpt>
      <trkpt lat="40.322660" lon="-4.199820">
        <ele>486.891</ele>
        <time>2022-02-27T08:03:50Z</time>
      </trkpt>
      <trkpt lat="40.322330" lon="-4.199070">
        <ele>485.581</ele>
        <time>2022-02-27T08:04:30Z</time>
      </trkpt>
      <trkpt lat="40.322280" lon="-4.198960">
        <ele>485.619</ele>
        <time>2022-02-27T08:05:10Z</time>
      </trkpt>
      <trkpt lat="40.322010" lon="-4.198400">
        <ele>485.608</ele>
        <time>2022-02-27T08:05:50Z</time>
      </trkpt>
      <trkpt lat="40.322014" lon="-4.198402">
        <ele>485.688</ele>
        <time>2022-02-27T08:06:30Z</time>
      </trkpt>
      <trkpt lat="40.321830" lon="-4.198530">
        <ele>486.795</ele>
        <time>2022-02-27T08:07:10Z</time>
      </trkpt>
      <trkpt lat="40.321030" lon="-4.199110">
        <ele>492.519</ele>
        <time>2022-02-27T08:07:50Z</time>
      </trkpt>
      <trkpt lat="40.321031" lon="-4.199111">
        <ele>492.558</ele>
        <time>2022-02-27T08:08:30Z</time>
      </trkpt>
      <trkpt lat="40.327664" lon="-4.204862">
        <ele>469.633</ele>
        <time>2022-02-24T10:08:50Z</time>
      </trkpt>
      <trkpt lat="40.327880" lon="-4.205090">
        <ele>470.023</ele>
        <time>2022-02-24T10:09:30Z</time>
      </trkpt>
      <trkpt lat="40.327950" lon="-4.205180">
        <ele>470.015</ele>
        <time>2022-02-24T10:10:10Z</time>
      </trkpt>
      <trkpt lat="40.327990" lon="-4.205230">
        <ele>470.008</ele>
        <time>2022-02-24T10:10:50Z</time>
      </trkpt>
      <trkpt lat="40.328060" lon="-4.205340">
        <ele>470.142</ele>
        <time>2022-02-24T10:11:30Z</time>
      </trkpt>
      <trkpt lat="40.328070" lon="-4.205370">
        <ele>470.289</ele>
        <time>2022-02-24T10:12:10Z</time>
      </trkpt>
      <trkpt lat="40.328100" lon="-4.205420">
        <ele>470.583</ele>
        <time>2022-02-24T10:12:50Z</time>
      </trkpt>
      <trkpt lat="40.328310" lon="-4.205790">
        <ele>470.232</ele>
        <time>2022-02-24T10:13:30Z</time>
      </trkpt>
      <trkpt lat="40.328460" lon="-4.206180">
        <ele>471.082</ele>
        <time>2022-02-24T10:14:10Z</time>
      </trkpt>
      <trkpt lat="40.328490" lon="-4.206320">
        <ele>470.415</ele>
        <time>2022-02-24T10:14:50Z</time>
      </trkpt>
      <trkpt lat="40.328590" lon="-4.206720">
        <ele>470.070</ele>
        <time>2022-02-24T10:15:30Z</time>
      </trkpt>
      <trkpt lat="40.328610" lon="-4.206870">
        <ele>470.058</ele>
        <time>2022-02-24T10:16:10Z</time>
      </trkpt>
      <trkpt lat="40.328620" lon="-4.207020">
        <ele>470.063</ele>
        <time>2022-02-24T10:16:50Z</time>
      </trkpt>
      <trkpt lat="40.328630" lon="-4.207180">
        <ele>470.044</ele>
        <time>2022-02-24T10:17:30Z</time>
      </trkpt>
      <trkpt lat="40.328640" lon="-4.207390">
        <ele>471.818</ele>
        <time>2022-02-24T10:18:10Z</time>
      </trkpt>
      <trkpt lat="40.328650" lon="-4.208030">
        <ele>477.908</ele>
        <time>2022-02-24T10:18:50Z</time>
      </trkpt>
      <trkpt lat="40.328670" lon="-4.208410">
        <ele>480.785</ele>
        <time>2022-02-24T10:19:30Z</time>
      </trkpt>
      <trkpt lat="40.328670" lon="-4.208490">
        <ele>481.052</ele>
        <time>2022-02-24T10:20:10Z</time>
      </trkpt>
      <trkpt lat="40.328690" lon="-4.208650">
        <ele>481.686</ele>
        <time>2022-02-24T10:20:50Z</time>
      </trkpt>
      <trkpt lat="40.328710" lon="-4.208750">
        <ele>481.765</ele>
        <time>2022-02-24T10:21:30Z</time>
      </trkpt>
      <trkpt lat="40.328760" lon="-4.209070">
        <ele>482.715</ele>
        <time>2022-02-24T10:22:10Z</time>
      </trkpt>
      <trkpt lat="40.328770" lon="-4.209090">
        <ele>482.958</ele>
        <time>2022-02-24T10:22:50Z</time>
      </trkpt>
      <trkpt lat="40.328770" lon="-4.209110">
        <ele>482.933</ele>
        <time>2022-02-24T10:23:30Z</time>
      </trkpt>
      <trkpt lat="40.328820" lon="-4.209330">
        <ele>483.591</ele>
        <time>2022-02-24T10:24:10Z</time>
      </trkpt>
      <trkpt lat="40.328870" lon="-4.209520">
        <ele>483.977</ele>
        <time>2022-02-24T10:24:50Z</time>
      </trkpt>
      <trkpt lat="40.328890" lon="-4.209630">
        <ele>484.061</ele>
        <time>2022-02-24T10:25:30Z</time>
      </trkpt>
      <trkpt lat="40.328920" lon="-4.209750">
        <ele>484.427</ele>
        <time>2022-02-24T10:26:10Z</time>
      </trkpt>
      <trkpt lat="40.328960" lon="-4.209920">
        <ele>485.308</ele>
        <time>2022-02-24T10:26:50Z</time>
      </trkpt>
      <trkpt lat="40.328970" lon="-4.209970">
        <ele>485.596</ele>
        <time>2022-02-24T10:27:30Z</time>
      </trkpt>
      <trkpt lat="40.329010" lon="-4.210170">
        <ele>485.383</ele>
        <time>2022-02-24T10:28:10Z</time>
      </trkpt>
      <trkpt lat="40.329020" lon="-4.210200">
        <ele>485.277</ele>
        <time>2022-02-24T10:28:50Z</time>
      </trkpt>
      <trkpt lat="40.329120" lon="-4.210610">
        <ele>484.666</ele>
        <time>2022-02-24T10:29:30Z</time>
      </trkpt>
      <trkpt lat="40.329210" lon="-4.210860">
        <ele>484.286</ele>
        <time>2022-02-24T10:30:10Z</time>
      </trkpt>
      <trkpt lat="40.329290" lon="-4.211100">
        <ele>483.999</ele>
        <time>2022-02-24T10:30:50Z</time>
      </trkpt>
      <trkpt lat="40.329370" lon="-4.211280">
        <ele>483.934</ele>
        <time>2022-02-24T10:31:30Z</time>
      </trkpt>
      <trkpt lat="40.329420" lon="-4.211400">
        <ele>483.852</ele>
        <time>2022-02-24T10:32:10Z</time>
      </trkpt>
      <trkpt lat="40.329470" lon="-4.211480">
        <ele>483.719</ele>
        <time>2022-02-24T10:32:50Z</time>
      </trkpt>
      <trkpt lat="40.329580" lon="-4.211650">
        <ele>483.109</ele>
        <time>2022-02-24T10:33:30Z</time>
      </trkpt>
      <trkpt lat="40.329580" lon="-4.211660">
        <ele>483.019</ele>
        <time>2022-02-24T10:34:10Z</time>
      </trkpt>
      <trkpt lat="40.329830" lon="-4.211980">
        <ele>482.108</ele>
        <time>2022-02-24T10:34:50Z</time>
      </trkpt>
      <trkpt lat="40.330050" lon="-4.212260">
        <ele>481.020</ele>
        <time>2022-02-24T10:35:30Z</time>
      </trkpt>
      <trkpt lat="40.330230" lon="-4.212480">
        <ele>480.167</ele>
        <time>2022-02-24T10:36:10Z</time>
      </trkpt>
      <trkpt lat="40.330290" lon="-4.212570">
        <ele>479.861</ele>
        <time>2022-02-24T10:36:50Z</time>
      </trkpt>
      <trkpt lat="40.330520" lon="-4.212830">
        <ele>479.970</ele>
        <time>2022-02-24T10:37:30Z</time>
      </trkpt>
      <trkpt lat="40.330750" lon="-4.213120">
        <ele>480.090</ele>
        <time>2022-02-24T10:38:10Z</time>
      </trkpt>
      <trkpt lat="40.330900" lon="-4.213260">
        <ele>480.033</ele>
        <time>2022-02-24T10:38:50Z</time>
      </trkpt>
      <trkpt lat="40.331000" lon="-4.213320">
        <ele>480.018</ele>
        <time>2022-02-24T10:39:30Z</time>
      </trkpt>
      <trkpt lat="40.331180" lon="-4.213410">
        <ele>480.046</ele>
        <time>2022-02-24T10:40:10Z</time>
      </trkpt>
      <trkpt lat="40.331300" lon="-4.213470">
        <ele>480.033</ele>
        <time>2022-02-24T10:40:50Z</time>
      </trkpt>
      <trkpt lat="40.331860" lon="-4.213700">
        <ele>480.023</ele>
        <time>2022-02-24T10:41:30Z</time>
      </trkpt>
      <trkpt lat="40.332100" lon="-4.213770">
        <ele>480.015</ele>
        <time>2022-02-24T10:42:10Z</time>
      </trkpt>
      <trkpt lat="40.332210" lon="-4.213800">
        <ele>480.008</ele>
        <time>2022-02-24T10:42:50Z</time>
      </trkpt>
      <trkpt lat="40.332290" lon="-4.213820">
        <ele>480.052</ele>
        <time>2022-02-24T10:43:30Z</time>
      </trkpt>
      <trkpt lat="40.332570" lon="-4.213840">
        <ele>480.099</ele>
        <time>2022-02-24T10:44:10Z</time>
      </trkpt>
      <trkpt lat="40.332720" lon="-4.213810">
        <ele>480.063</ele>
        <time>2022-02-24T10:44:50Z</time>
      </trkpt>
      <trkpt lat="40.332800" lon="-4.213770">
        <ele>480.192</ele>
        <time>2022-02-24T10:45:30Z</time>
      </trkpt>
      <trkpt lat="40.332910" lon="-4.213700">
        <ele>480.592</ele>
        <time>2022-02-24T10:46:10Z</time>
      </trkpt>
      <trkpt lat="40.332990" lon="-4.213650">
        <ele>480.885</ele>
        <time>2022-02-24T10:46:50Z</time>
      </trkpt>
      <trkpt lat="40.333070" lon="-4.213600">
        <ele>481.470</ele>
        <time>2022-02-24T10:47:30Z</time>
      </trkpt>
      <trkpt lat="40.333270" lon="-4.213480">
        <ele>487.888</ele>
        <time>2022-02-24T10:48:10Z</time>
      </trkpt>
      <trkpt lat="40.333850" lon="-4.213020">
        <ele>490.031</ele>
        <time>2022-02-24T10:48:50Z</time>
      </trkpt>
      <trkpt lat="40.334200" lon="-4.212740">
        <ele>490.061</ele>
        <time>2022-02-24T10:49:30Z</time>
      </trkpt>
      <trkpt lat="40.334280" lon="-4.212680">
        <ele>490.007</ele>
        <time>2022-02-24T10:50:10Z</time>
      </trkpt>
      <trkpt lat="40.334440" lon="-4.212560">
        <ele>490.008</ele>
        <time>2022-02-24T10:50:50Z</time>
      </trkpt>
      <trkpt lat="40.334820" lon="-4.212260">
        <ele>490.192</ele>
        <time>2022-02-24T10:51:30Z</time>
      </trkpt>
      <trkpt lat="40.334960" lon="-4.212160">
        <ele>490.029</ele>
        <time>2022-02-24T10:52:10Z</time>
      </trkpt>
      <trkpt lat="40.335040" lon="-4.212120">
        <ele>490.633</ele>
        <time>2022-02-24T10:52:50Z</time>
      </trkpt>
      <trkpt lat="40.335070" lon="-4.212110">
        <ele>491.022</ele>
        <time>2022-02-24T10:53:30Z</time>
      </trkpt>
      <trkpt lat="40.335180" lon="-4.212070">
        <ele>492.252</ele>
        <time>2022-02-24T10:54:10Z</time>
      </trkpt>
      <trkpt lat="40.335240" lon="-4.212060">
        <ele>492.845</ele>
        <time>2022-02-24T10:54:50Z</time>
      </trkpt>
      <trkpt lat="40.335420" lon="-4.212020">
        <ele>493.780</ele>
        <time>2022-02-24T10:55:30Z</time>
      </trkpt>
      <trkpt lat="40.335630" lon="-4.212010">
        <ele>494.188</ele>
        <time>2022-02-24T10:56:10Z</time>
      </trkpt>
      <trkpt lat="40.335860" lon="-4.211990">
        <ele>493.086</ele>
        <time>2022-02-24T10:56:50Z</time>
      </trkpt>
      <trkpt lat="40.336050" lon="-4.211970">
        <ele>492.560</ele>
        <time>2022-02-24T10:57:30Z</time>
      </trkpt>
      <trkpt lat="40.336200" lon="-4.211910">
        <ele>492.626</ele>
        <time>2022-02-24T10:58:10Z</time>
      </trkpt>
      <trkpt lat="40.336500" lon="-4.211680">
        <ele>493.508</ele>
        <time>2022-02-24T10:58:50Z</time>
      </trkpt>
      <trkpt lat="40.336600" lon="-4.211600">
        <ele>494.897</ele>
        <time>2022-02-24T10:59:30Z</time>
      </trkpt>
      <trkpt lat="40.336670" lon="-4.211540">
        <ele>495.254</ele>
        <time>2022-02-24T11:00:10Z</time>
      </trkpt>
      <trkpt lat="40.336800" lon="-4.211440">
        <ele>496.498</ele>
        <time>2022-02-24T11:00:50Z</time>
      </trkpt>
      <trkpt lat="40.336910" lon="-4.211350">
        <ele>497.757</ele>
        <time>2022-02-24T11:01:30Z</time>
      </trkpt>
      <trkpt lat="40.337090" lon="-4.211290">
        <ele>498.747</ele>
        <time>2022-02-24T11:02:10Z</time>
      </trkpt>
      <trkpt lat="40.337230" lon="-4.211270">
        <ele>499.680</ele>
        <time>2022-02-24T11:02:50Z</time>
      </trkpt>
      <trkpt lat="40.337450" lon="-4.211280">
        <ele>499.995</ele>
        <time>2022-02-24T11:03:30Z</time>
      </trkpt>
      <trkpt lat="40.337620" lon="-4.211310">
        <ele>500.053</ele>
        <time>2022-02-24T11:04:10Z</time>
      </trkpt>
      <trkpt lat="40.337800" lon="-4.211330">
        <ele>500.027</ele>
        <time>2022-02-24T11:04:50Z</time>
      </trkpt>
      <trkpt lat="40.338000" lon="-4.211340">
        <ele>500.068</ele>
        <time>2022-02-24T11:05:30Z</time>
      </trkpt>
      <trkpt lat="40.338120" lon="-4.211320">
        <ele>500.514</ele>
        <time>2022-02-24T11:06:10Z</time>
      </trkpt>
      <trkpt lat="40.338230" lon="-4.211270">
        <ele>501.108</ele>
        <time>2022-02-24T11:06:50Z</time>
      </trkpt>
      <trkpt lat="40.338470" lon="-4.211070">
        <ele>500.891</ele>
        <time>2022-02-24T11:07:30Z</time>
      </trkpt>
      <trkpt lat="40.338610" lon="-4.210920">
        <ele>500.658</ele>
        <time>2022-02-24T11:08:10Z</time>
      </trkpt>
      <trkpt lat="40.338620" lon="-4.210910">
        <ele>500.742</ele>
        <time>2022-02-24T11:08:50Z</time>
      </trkpt>
      <trkpt lat="40.338770" lon="-4.210750">
        <ele>501.611</ele>
        <time>2022-02-24T11:09:30Z</time>
      </trkpt>
      <trkpt lat="40.338910" lon="-4.210600">
        <ele>501.271</ele>
        <time>2022-02-24T11:10:10Z</time>
      </trkpt>
      <trkpt lat="40.339090" lon="-4.210390">
        <ele>503.374</ele>
        <time>2022-02-24T11:10:50Z</time>
      </trkpt>
      <trkpt lat="40.339240" lon="-4.210200">
        <ele>503.539</ele>
        <time>2022-02-24T11:11:30Z</time>
      </trkpt>
      <trkpt lat="40.339380" lon="-4.210040">
        <ele>504.357</ele>
        <time>2022-02-24T11:12:10Z</time>
      </trkpt>
      <trkpt lat="40.339530" lon="-4.209830">
        <ele>504.767</ele>
        <time>2022-02-24T11:12:50Z</time>
      </trkpt>
      <trkpt lat="40.339720" lon="-4.209560">
        <ele>505.481</ele>
        <time>2022-02-24T11:13:30Z</time>
      </trkpt>
      <trkpt lat="40.339840" lon="-4.209330">
        <ele>506.019</ele>
        <time>2022-02-24T11:14:10Z</time>
      </trkpt>
      <trkpt lat="40.339860" lon="-4.209250">
        <ele>505.908</ele>
        <time>2022-02-24T11:14:50Z</time>
      </trkpt>
      <trkpt lat="40.339920" lon="-4.209070">
        <ele>506.755</ele>
        <time>2022-02-24T11:15:30Z</time>
      </trkpt>
      <trkpt lat="40.339930" lon="-4.209030">
        <ele>506.982</ele>
        <time>2022-02-24T11:16:10Z</time>
      </trkpt>
      <trkpt lat="40.339970" lon="-4.208820">
        <ele>507.696</ele>
        <time>2022-02-24T11:16:50Z</time>
      </trkpt>
      <trkpt lat="40.340050" lon="-4.208590">
        <ele>508.495</ele>
        <time>2022-02-24T11:17:30Z</time>
      </trkpt>
      <trkpt lat="40.340070" lon="-4.208530">
        <ele>508.855</ele>
        <time>2022-02-24T11:18:10Z</time>
      </trkpt>
      <trkpt lat="40.340150" lon="-4.208340">
        <ele>510.138</ele>
        <time>2022-02-24T11:18:50Z</time>
      </trkpt>
      <trkpt lat="40.340250" lon="-4.208170">
        <ele>510.333</ele>
        <time>2022-02-24T11:19:30Z</time>
      </trkpt>
      <trkpt lat="40.340330" lon="-4.208050">
        <ele>511.511</ele>
        <time>2022-02-24T11:20:10Z</time>
      </trkpt>
      <trkpt lat="40.340470" lon="-4.207890">
        <ele>514.313</ele>
        <time>2022-02-24T11:20:50Z</time>
      </trkpt>
      <trkpt lat="40.340660" lon="-4.207760">
        <ele>516.043</ele>
        <time>2022-02-24T11:21:30Z</time>
      </trkpt>
      <trkpt lat="40.340680" lon="-4.207750">
        <ele>516.107</ele>
        <time>2022-02-24T11:22:10Z</time>
      </trkpt>
      <trkpt lat="40.340920" lon="-4.207660">
        <ele>517.108</ele>
        <time>2022-02-24T11:22:50Z</time>
      </trkpt>
      <trkpt lat="40.341010" lon="-4.207640">
        <ele>517.250</ele>
        <time>2022-02-24T11:23:30Z</time>
      </trkpt>
      <trkpt lat="40.341030" lon="-4.207640">
        <ele>517.277</ele>
        <time>2022-02-24T11:24:10Z</time>
      </trkpt>
      <trkpt lat="40.341260" lon="-4.207610">
        <ele>517.391</ele>
        <time>2022-02-24T11:24:50Z</time>
      </trkpt>
      <trkpt lat="40.341390" lon="-4.207610">
        <ele>517.680</ele>
        <time>2022-02-24T11:25:30Z</time>
      </trkpt>
      <trkpt lat="40.341580" lon="-4.207550">
        <ele>518.010</ele>
        <time>2022-02-24T11:26:10Z</time>
      </trkpt>
      <trkpt lat="40.341690" lon="-4.207480">
        <ele>517.913</ele>
        <time>2022-02-24T11:26:50Z</time>
      </trkpt>
      <trkpt lat="40.341890" lon="-4.207330">
        <ele>517.588</ele>
        <time>2022-02-24T11:27:30Z</time>
      </trkpt>
      <trkpt lat="40.342100" lon="-4.207140">
        <ele>517.896</ele>
        <time>2022-02-24T11:28:10Z</time>
      </trkpt>
      <trkpt lat="40.342270" lon="-4.207000">
        <ele>518.549</ele>
        <time>2022-02-24T11:28:50Z</time>
      </trkpt>
      <trkpt lat="40.342440" lon="-4.206900">
        <ele>519.602</ele>
        <time>2022-02-24T11:29:30Z</time>
      </trkpt>
      <trkpt lat="40.342480" lon="-4.206880">
        <ele>519.922</ele>
        <time>2022-02-24T11:30:10Z</time>
      </trkpt>
      <trkpt lat="40.342550" lon="-4.206860">
        <ele>520.008</ele>
        <time>2022-02-24T11:30:50Z</time>
      </trkpt>
      <trkpt lat="40.342720" lon="-4.206840">
        <ele>520.063</ele>
        <time>2022-02-24T11:31:30Z</time>
      </trkpt>
      <trkpt lat="40.342830" lon="-4.206850">
        <ele>520.090</ele>
        <time>2022-02-24T11:32:10Z</time>
      </trkpt>
      <trkpt lat="40.342840" lon="-4.206850">
        <ele>520.014</ele>
        <time>2022-02-24T11:32:50Z</time>
      </trkpt>
      <trkpt lat="40.342960" lon="-4.206870">
        <ele>520.093</ele>
        <time>2022-02-24T11:33:30Z</time>
      </trkpt>
      <trkpt lat="40.343170" lon="-4.206940">
        <ele>520.423</ele>
        <time>2022-02-24T11:34:10Z</time>
      </trkpt>
      <trkpt lat="40.343340" lon="-4.207040">
        <ele>521.336</ele>
        <time>2022-02-24T11:34:50Z</time>
      </trkpt>
      <trkpt lat="40.343460" lon="-4.207120">
        <ele>521.591</ele>
        <time>2022-02-24T11:35:30Z</time>
      </trkpt>
      <trkpt lat="40.344340" lon="-4.207620">
        <ele>526.899</ele>
        <time>2022-02-24T11:36:10Z</time>
      </trkpt>
      <trkpt lat="40.344840" lon="-4.207900">
        <ele>529.381</ele>
        <time>2022-02-24T11:36:50Z</time>
      </trkpt>
      <trkpt lat="40.345170" lon="-4.208090">
        <ele>530.361</ele>
        <time>2022-02-24T11:37:30Z</time>
      </trkpt>
      <trkpt lat="40.345230" lon="-4.208130">
        <ele>530.517</ele>
        <time>2022-02-24T11:38:10Z</time>
      </trkpt>
      <trkpt lat="40.345740" lon="-4.208360">
        <ele>530.108</ele>
        <time>2022-02-24T11:38:50Z</time>
      </trkpt>
      <trkpt lat="40.346190" lon="-4.208550">
        <ele>530.067</ele>
        <time>2022-02-24T11:39:30Z</time>
      </trkpt>
      <trkpt lat="40.346540" lon="-4.208690">
        <ele>530.744</ele>
        <time>2022-02-24T11:40:10Z</time>
      </trkpt>
      <trkpt lat="40.346840" lon="-4.208800">
        <ele>531.428</ele>
        <time>2022-02-24T11:40:50Z</time>
      </trkpt>
      <trkpt lat="40.347040" lon="-4.208860">
        <ele>532.137</ele>
        <time>2022-02-24T11:41:30Z</time>
      </trkpt>
      <trkpt lat="40.347220" lon="-4.208920">
        <ele>533.317</ele>
        <time>2022-02-24T11:42:10Z</time>
      </trkpt>
      <trkpt lat="40.347890" lon="-4.209100">
        <ele>538.110</ele>
        <time>2022-02-24T11:42:50Z</time>
      </trkpt>
      <trkpt lat="40.347920" lon="-4.209100">
        <ele>538.345</ele>
        <time>2022-02-24T11:43:30Z</time>
      </trkpt>
      <trkpt lat="40.348270" lon="-4.209210">
        <ele>539.873</ele>
        <time>2022-02-24T11:44:10Z</time>
      </trkpt>
      <trkpt lat="40.348570" lon="-4.209310">
        <ele>540.423</ele>
        <time>2022-02-24T11:44:50Z</time>
      </trkpt>
      <trkpt lat="40.348740" lon="-4.209390">
        <ele>540.483</ele>
        <time>2022-02-24T11:45:30Z</time>
      </trkpt>
      <trkpt lat="40.349550" lon="-4.209720">
        <ele>542.011</ele>
        <time>2022-02-24T11:46:10Z</time>
      </trkpt>
      <trkpt lat="40.349590" lon="-4.209740">
        <ele>542.108</ele>
        <time>2022-02-24T11:46:50Z</time>
      </trkpt>
      <trkpt lat="40.349920" lon="-4.209920">
        <ele>543.611</ele>
        <time>2022-02-24T11:47:30Z</time>
      </trkpt>
      <trkpt lat="40.350220" lon="-4.210090">
        <ele>547.698</ele>
        <time>2022-02-24T11:48:10Z</time>
      </trkpt>
      <trkpt lat="40.350340" lon="-4.210150">
        <ele>548.992</ele>
        <time>2022-02-24T11:48:50Z</time>
      </trkpt>
      <trkpt lat="40.350860" lon="-4.210450">
        <ele>550.061</ele>
        <time>2022-02-24T11:49:30Z</time>
      </trkpt>
      <trkpt lat="40.351220" lon="-4.210660">
        <ele>550.051</ele>
        <time>2022-02-24T11:50:10Z</time>
      </trkpt>
      <trkpt lat="40.351330" lon="-4.210710">
        <ele>550.024</ele>
        <time>2022-02-24T11:50:50Z</time>
      </trkpt>
      <trkpt lat="40.351490" lon="-4.210780">
        <ele>550.079</ele>
        <time>2022-02-24T11:51:30Z</time>
      </trkpt>
      <trkpt lat="40.351720" lon="-4.210810">
        <ele>550.047</ele>
        <time>2022-02-24T11:52:10Z</time>
      </trkpt>
      <trkpt lat="40.351990" lon="-4.210780">
        <ele>550.321</ele>
        <time>2022-02-24T11:52:50Z</time>
      </trkpt>
      <trkpt lat="40.352190" lon="-4.210720">
        <ele>551.841</ele>
        <time>2022-02-24T11:53:30Z</time>
      </trkpt>
      <trkpt lat="40.352330" lon="-4.210640">
        <ele>552.805</ele>
        <time>2022-02-24T11:54:10Z</time>
      </trkpt>
      <trkpt lat="40.352670" lon="-4.210410">
        <ele>556.008</ele>
        <time>2022-02-24T11:54:50Z</time>
      </trkpt>
      <trkpt lat="40.353150" lon="-4.210020">
        <ele>558.711</ele>
        <time>2022-02-24T11:55:30Z</time>
      </trkpt>
      <trkpt lat="40.353390" lon="-4.209820">
        <ele>560.038</ele>
        <time>2022-02-24T11:56:10Z</time>
      </trkpt>
      <trkpt lat="40.353610" lon="-4.209610">
        <ele>560.032</ele>
        <time>2022-02-24T11:56:50Z</time>
      </trkpt>
      <trkpt lat="40.353970" lon="-4.209240">
        <ele>560.111</ele>
        <time>2022-02-24T11:57:30Z</time>
      </trkpt>
      <trkpt lat="40.354130" lon="-4.209090">
        <ele>560.041</ele>
        <time>2022-02-24T11:58:10Z</time>
      </trkpt>
      <trkpt lat="40.354180" lon="-4.209060">
        <ele>560.074</ele>
        <time>2022-02-24T11:58:50Z</time>
      </trkpt>
      <trkpt lat="40.354260" lon="-4.209020">
        <ele>560.359</ele>
        <time>2022-02-24T11:59:30Z</time>
      </trkpt>
      <trkpt lat="40.354370" lon="-4.208960">
        <ele>560.737</ele>
        <time>2022-02-24T12:00:10Z</time>
      </trkpt>
      <trkpt lat="40.354480" lon="-4.208920">
        <ele>561.179</ele>
        <time>2022-02-24T12:00:50Z</time>
      </trkpt>
      <trkpt lat="40.354670" lon="-4.208890">
        <ele>561.805</ele>
        <time>2022-02-24T12:01:30Z</time>
      </trkpt>
      <trkpt lat="40.354750" lon="-4.208890">
        <ele>562.225</ele>
        <time>2022-02-24T12:02:10Z</time>
      </trkpt>
      <trkpt lat="40.354810" lon="-4.208900">
        <ele>562.608</ele>
        <time>2022-02-24T12:02:50Z</time>
      </trkpt>
      <trkpt lat="40.354880" lon="-4.208910">
        <ele>563.136</ele>
        <time>2022-02-24T12:03:30Z</time>
      </trkpt>
      <trkpt lat="40.354980" lon="-4.208930">
        <ele>563.993</ele>
        <time>2022-02-24T12:04:10Z</time>
      </trkpt>
      <trkpt lat="40.355100" lon="-4.208980">
        <ele>564.767</ele>
        <time>2022-02-24T12:04:50Z</time>
      </trkpt>
      <trkpt lat="40.355280" lon="-4.209060">
        <ele>566.076</ele>
        <time>2022-02-24T12:05:30Z</time>
      </trkpt>
      <trkpt lat="40.355290" lon="-4.209060">
        <ele>566.186</ele>
        <time>2022-02-24T12:06:10Z</time>
      </trkpt>
      <trkpt lat="40.355760" lon="-4.209290">
        <ele>567.379</ele>
        <time>2022-02-24T12:06:50Z</time>
      </trkpt>
      <trkpt lat="40.355970" lon="-4.209350">
        <ele>567.794</ele>
        <time>2022-02-24T12:07:30Z</time>
      </trkpt>
      <trkpt lat="40.356110" lon="-4.209380">
        <ele>568.032</ele>
        <time>2022-02-24T12:08:10Z</time>
      </trkpt>
      <trkpt lat="40.356170" lon="-4.209380">
        <ele>568.265</ele>
        <time>2022-02-24T12:08:50Z</time>
      </trkpt>
      <trkpt lat="40.356300" lon="-4.209380">
        <ele>568.768</ele>
        <time>2022-02-24T12:09:30Z</time>
      </trkpt>
      <trkpt lat="40.356420" lon="-4.209350">
        <ele>569.114</ele>
        <time>2022-02-24T12:10:10Z</time>
      </trkpt>
      <trkpt lat="40.356510" lon="-4.209320">
        <ele>569.408</ele>
        <time>2022-02-24T12:10:50Z</time>
      </trkpt>
      <trkpt lat="40.356550" lon="-4.209300">
        <ele>569.675</ele>
        <time>2022-02-24T12:11:30Z</time>
      </trkpt>
      <trkpt lat="40.356810" lon="-4.209200">
        <ele>570.672</ele>
        <time>2022-02-24T12:12:10Z</time>
      </trkpt>
      <trkpt lat="40.356980" lon="-4.209130">
        <ele>571.076</ele>
        <time>2022-02-24T12:12:50Z</time>
      </trkpt>
      <trkpt lat="40.357040" lon="-4.209110">
        <ele>571.195</ele>
        <time>2022-02-24T12:13:30Z</time>
      </trkpt>
      <trkpt lat="40.357410" lon="-4.208970">
        <ele>572.655</ele>
        <time>2022-02-24T12:14:10Z</time>
      </trkpt>
      <trkpt lat="40.357680" lon="-4.208890">
        <ele>573.748</ele>
        <time>2022-02-24T12:14:50Z</time>
      </trkpt>
      <trkpt lat="40.358200" lon="-4.208730">
        <ele>576.773</ele>
        <time>2022-02-24T12:15:30Z</time>
      </trkpt>
      <trkpt lat="40.358730" lon="-4.208610">
        <ele>579.461</ele>
        <time>2022-02-24T12:16:10Z</time>
      </trkpt>
      <trkpt lat="40.359000" lon="-4.208580">
        <ele>580.435</ele>
        <time>2022-02-24T12:16:50Z</time>
      </trkpt>
      <trkpt lat="40.359100" lon="-4.208590">
        <ele>580.786</ele>
        <time>2022-02-24T12:17:30Z</time>
      </trkpt>
      <trkpt lat="40.359160" lon="-4.208600">
        <ele>580.914</ele>
        <time>2022-02-24T12:18:10Z</time>
      </trkpt>
      <trkpt lat="40.359270" lon="-4.208640">
        <ele>582.208</ele>
        <time>2022-02-24T12:18:50Z</time>
      </trkpt>
      <trkpt lat="40.359330" lon="-4.208660">
        <ele>582.812</ele>
        <time>2022-02-24T12:19:30Z</time>
      </trkpt>
      <trkpt lat="40.359440" lon="-4.208720">
        <ele>584.089</ele>
        <time>2022-02-24T12:20:10Z</time>
      </trkpt>
      <trkpt lat="40.359780" lon="-4.208910">
        <ele>586.413</ele>
        <time>2022-02-24T12:20:50Z</time>
      </trkpt>
      <trkpt lat="40.359900" lon="-4.208970">
        <ele>587.332</ele>
        <time>2022-02-24T12:21:30Z</time>
      </trkpt>
      <trkpt lat="40.360150" lon="-4.209110">
        <ele>588.552</ele>
        <time>2022-02-24T12:22:10Z</time>
      </trkpt>
      <trkpt lat="40.360260" lon="-4.209180">
        <ele>588.935</ele>
        <time>2022-02-24T12:22:50Z</time>
      </trkpt>
      <trkpt lat="40.360340" lon="-4.209220">
        <ele>589.210</ele>
        <time>2022-02-24T12:23:30Z</time>
      </trkpt>
      <trkpt lat="40.360500" lon="-4.209310">
        <ele>589.818</ele>
        <time>2022-02-24T12:24:10Z</time>
      </trkpt>
      <trkpt lat="40.360600" lon="-4.209350">
        <ele>590.374</ele>
        <time>2022-02-24T12:24:50Z</time>
      </trkpt>
      <trkpt lat="40.360690" lon="-4.209410">
        <ele>590.956</ele>
        <time>2022-02-24T12:25:30Z</time>
      </trkpt>
      <trkpt lat="40.361110" lon="-4.209680">
        <ele>595.521</ele>
        <time>2022-02-24T12:26:10Z</time>
      </trkpt>
      <trkpt lat="40.361370" lon="-4.209890">
        <ele>598.808</ele>
        <time>2022-02-24T12:26:50Z</time>
      </trkpt>
      <trkpt lat="40.361390" lon="-4.209910">
        <ele>599.086</ele>
        <time>2022-02-24T12:27:30Z</time>
      </trkpt>
      <trkpt lat="40.361540" lon="-4.210040">
        <ele>599.583</ele>
        <time>2022-02-24T12:28:10Z</time>
      </trkpt>
      <trkpt lat="40.361610" lon="-4.210100">
        <ele>599.787</ele>
        <time>2022-02-24T12:28:50Z</time>
      </trkpt>
      <trkpt lat="40.361850" lon="-4.210320">
        <ele>600.556</ele>
        <time>2022-02-24T12:29:30Z</time>
      </trkpt>
      <trkpt lat="40.361890" lon="-4.210360">
        <ele>600.566</ele>
        <time>2022-02-24T12:30:10Z</time>
      </trkpt>
      <trkpt lat="40.362060" lon="-4.210510">
        <ele>601.359</ele>
        <time>2022-02-24T12:30:50Z</time>
      </trkpt>
      <trkpt lat="40.362180" lon="-4.210630">
        <ele>601.854</ele>
        <time>2022-02-24T12:31:30Z</time>
      </trkpt>
      <trkpt lat="40.362460" lon="-4.210960">
        <ele>603.482</ele>
        <time>2022-02-24T12:32:10Z</time>
      </trkpt>
      <trkpt lat="40.362500" lon="-4.211010">
        <ele>603.725</ele>
        <time>2022-02-24T12:32:50Z</time>
      </trkpt>
      <trkpt lat="40.362580" lon="-4.211130">
        <ele>604.726</ele>
        <time>2022-02-24T12:33:30Z</time>
      </trkpt>
      <trkpt lat="40.362690" lon="-4.211270">
        <ele>606.308</ele>
        <time>2022-02-24T12:34:10Z</time>
      </trkpt>
      <trkpt lat="40.362710" lon="-4.211300">
        <ele>606.508</ele>
        <time>2022-02-24T12:34:50Z</time>
      </trkpt>
      <trkpt lat="40.362770" lon="-4.211390">
        <ele>606.941</ele>
        <time>2022-02-24T12:35:30Z</time>
      </trkpt>
      <trkpt lat="40.362930" lon="-4.211580">
        <ele>607.338</ele>
        <time>2022-02-24T12:36:10Z</time>
      </trkpt>
      <trkpt lat="40.363020" lon="-4.211700">
        <ele>607.462</ele>
        <time>2022-02-24T12:36:50Z</time>
      </trkpt>
      <trkpt lat="40.363050" lon="-4.211750">
        <ele>607.311</ele>
        <time>2022-02-24T12:37:30Z</time>
      </trkpt>
      <trkpt lat="40.363090" lon="-4.211810">
        <ele>607.871</ele>
        <time>2022-02-24T12:38:10Z</time>
      </trkpt>
      <trkpt lat="40.363130" lon="-4.211890">
        <ele>608.154</ele>
        <time>2022-02-24T12:38:50Z</time>
      </trkpt>
      <trkpt lat="40.363200" lon="-4.211980">
        <ele>608.939</ele>
        <time>2022-02-24T12:39:30Z</time>
      </trkpt>
      <trkpt lat="40.363260" lon="-4.212070">
        <ele>609.527</ele>
        <time>2022-02-24T12:40:10Z</time>
      </trkpt>
      <trkpt lat="40.363310" lon="-4.212200">
        <ele>609.752</ele>
        <time>2022-02-24T12:40:50Z</time>
      </trkpt>
      <trkpt lat="40.363470" lon="-4.212630">
        <ele>612.053</ele>
        <time>2022-02-24T12:41:30Z</time>
      </trkpt>
      <trkpt lat="40.363560" lon="-4.212870">
        <ele>612.208</ele>
        <time>2022-02-24T12:42:10Z</time>
      </trkpt>
      <trkpt lat="40.363660" lon="-4.213150">
        <ele>612.308</ele>
        <time>2022-02-24T12:42:50Z</time>
      </trkpt>
      <trkpt lat="40.363720" lon="-4.213280">
        <ele>612.774</ele>
        <time>2022-02-24T12:43:30Z</time>
      </trkpt>
      <trkpt lat="40.363760" lon="-4.213350">
        <ele>613.341</ele>
        <time>2022-02-24T12:44:10Z</time>
      </trkpt>
      <trkpt lat="40.363850" lon="-4.213520">
        <ele>615.995</ele>
        <time>2022-02-24T12:44:50Z</time>
      </trkpt>
      <trkpt lat="40.363860" lon="-4.213550">
        <ele>616.284</ele>
        <time>2022-02-24T12:45:30Z</time>
      </trkpt>
      <trkpt lat="40.363920" lon="-4.213660">
        <ele>617.654</ele>
        <time>2022-02-24T12:46:10Z</time>
      </trkpt>
      <trkpt lat="40.364270" lon="-4.214220">
        <ele>621.577</ele>
        <time>2022-02-24T12:46:50Z</time>
      </trkpt>
      <trkpt lat="40.364300" lon="-4.214270">
        <ele>621.522</ele>
        <time>2022-02-24T12:47:30Z</time>
      </trkpt>
      <trkpt lat="40.364310" lon="-4.214280">
        <ele>621.550</ele>
        <time>2022-02-24T12:48:10Z</time>
      </trkpt>
      <trkpt lat="40.364420" lon="-4.214430">
        <ele>620.297</ele>
        <time>2022-02-24T12:48:50Z</time>
      </trkpt>
      <trkpt lat="40.364580" lon="-4.214650">
        <ele>622.723</ele>
        <time>2022-02-24T12:49:30Z</time>
      </trkpt>
      <trkpt lat="40.364750" lon="-4.214910">
        <ele>624.525</ele>
        <time>2022-02-24T12:50:10Z</time>
      </trkpt>
      <trkpt lat="40.364790" lon="-4.214990">
        <ele>625.008</ele>
        <time>2022-02-24T12:50:50Z</time>
      </trkpt>
      <trkpt lat="40.364840" lon="-4.215110">
        <ele>626.588</ele>
        <time>2022-02-24T12:51:30Z</time>
      </trkpt>
      <trkpt lat="40.364850" lon="-4.215140">
        <ele>626.935</ele>
        <time>2022-02-24T12:52:10Z</time>
      </trkpt>
      <trkpt lat="40.364850" lon="-4.215170">
        <ele>627.199</ele>
        <time>2022-02-24T12:52:50Z</time>
      </trkpt>
      <trkpt lat="40.364860" lon="-4.215220">
        <ele>627.698</ele>
        <time>2022-02-24T12:53:30Z</time>
      </trkpt>
      <trkpt lat="40.364860" lon="-4.215270">
        <ele>627.958</ele>
        <time>2022-02-24T12:54:10Z</time>
      </trkpt>
      <trkpt lat="40.364860" lon="-4.215340">
        <ele>628.471</ele>
        <time>2022-02-24T12:54:50Z</time>
      </trkpt>
      <trkpt lat="40.364860" lon="-4.215360">
        <ele>628.666</ele>
        <time>2022-02-24T12:55:30Z</time>
      </trkpt>
      <trkpt lat="40.364850" lon="-4.215390">
        <ele>628.844</ele>
        <time>2022-02-24T12:56:10Z</time>
      </trkpt>
      <trkpt lat="40.364850" lon="-4.215410">
        <ele>628.952</ele>
        <time>2022-02-24T12:56:50Z</time>
      </trkpt>
      <trkpt lat="40.364840" lon="-4.215430">
        <ele>629.053</ele>
        <time>2022-02-24T12:57:30Z</time>
      </trkpt>
      <trkpt lat="40.364830" lon="-4.215460">
        <ele>629.208</ele>
        <time>2022-02-24T12:58:10Z</time>
      </trkpt>
      <trkpt lat="40.364760" lon="-4.215610">
        <ele>630.408</ele>
        <time>2022-02-24T12:58:50Z</time>
      </trkpt>
      <trkpt lat="40.364670" lon="-4.215750">
        <ele>630.824</ele>
        <time>2022-02-24T12:59:30Z</time>
      </trkpt>
      <trkpt lat="40.364660" lon="-4.215760">
        <ele>630.781</ele>
        <time>2022-02-24T13:00:10Z</time>
      </trkpt>
      <trkpt lat="40.364640" lon="-4.215790">
        <ele>630.835</ele>
        <time>2022-02-24T13:00:50Z</time>
      </trkpt>
      <trkpt lat="40.364630" lon="-4.215820">
        <ele>630.924</ele>
        <time>2022-02-24T13:01:30Z</time>
      </trkpt>
      <trkpt lat="40.364560" lon="-4.215940">
        <ele>631.154</ele>
        <time>2022-02-24T13:02:10Z</time>
      </trkpt>
      <trkpt lat="40.364520" lon="-4.216000">
        <ele>631.337</ele>
        <time>2022-02-24T13:02:50Z</time>
      </trkpt>
      <trkpt lat="40.364510" lon="-4.216020">
        <ele>631.442</ele>
        <time>2022-02-24T13:03:30Z</time>
      </trkpt>
      <trkpt lat="40.364470" lon="-4.216130">
        <ele>632.350</ele>
        <time>2022-02-24T13:04:10Z</time>
      </trkpt>
      <trkpt lat="40.364460" lon="-4.216170">
        <ele>632.712</ele>
        <time>2022-02-24T13:04:50Z</time>
      </trkpt>
      <trkpt lat="40.364450" lon="-4.216220">
        <ele>633.232</ele>
        <time>2022-02-24T13:05:30Z</time>
      </trkpt>
      <trkpt lat="40.364450" lon="-4.216270">
        <ele>633.705</ele>
        <time>2022-02-24T13:06:10Z</time>
      </trkpt>
      <trkpt lat="40.364450" lon="-4.216300">
        <ele>634.008</ele>
        <time>2022-02-24T13:06:50Z</time>
      </trkpt>
      <trkpt lat="40.364460" lon="-4.216350">
        <ele>634.660</ele>
        <time>2022-02-24T13:07:30Z</time>
      </trkpt>
      <trkpt lat="40.364470" lon="-4.216370">
        <ele>634.897</ele>
        <time>2022-02-24T13:08:10Z</time>
      </trkpt>
      <trkpt lat="40.364470" lon="-4.216400">
        <ele>635.151</ele>
        <time>2022-02-24T13:08:50Z</time>
      </trkpt>
      <trkpt lat="40.364480" lon="-4.216420">
        <ele>635.280</ele>
        <time>2022-02-24T13:09:30Z</time>
      </trkpt>
      <trkpt lat="40.364490" lon="-4.216450">
        <ele>635.440</ele>
        <time>2022-02-24T13:10:10Z</time>
      </trkpt>
      <trkpt lat="40.364530" lon="-4.216560">
        <ele>636.293</ele>
        <time>2022-02-24T13:10:50Z</time>
      </trkpt>
      <trkpt lat="40.364770" lon="-4.217060">
        <ele>639.628</ele>
        <time>2022-02-24T13:11:30Z</time>
      </trkpt>
      <trkpt lat="40.365060" lon="-4.217650">
        <ele>641.366</ele>
        <time>2022-02-24T13:12:10Z</time>
      </trkpt>
      <trkpt lat="40.365150" lon="-4.217820">
        <ele>641.759</ele>
        <time>2022-02-24T13:12:50Z</time>
      </trkpt>
      <trkpt lat="40.365160" lon="-4.217840">
        <ele>641.803</ele>
        <time>2022-02-24T13:13:30Z</time>
      </trkpt>
      <trkpt lat="40.365230" lon="-4.217980">
        <ele>642.523</ele>
        <time>2022-02-24T13:14:10Z</time>
      </trkpt>
      <trkpt lat="40.365250" lon="-4.218020">
        <ele>642.808</ele>
        <time>2022-02-24T13:14:50Z</time>
      </trkpt>
      <trkpt lat="40.365360" lon="-4.218240">
        <ele>644.084</ele>
        <time>2022-02-24T13:15:30Z</time>
      </trkpt>
      <trkpt lat="40.365420" lon="-4.218370">
        <ele>644.871</ele>
        <time>2022-02-24T13:16:10Z</time>
      </trkpt>
      <trkpt lat="40.365440" lon="-4.218410">
        <ele>645.115</ele>
        <time>2022-02-24T13:16:50Z</time>
      </trkpt>
      <trkpt lat="40.365460" lon="-4.218440">
        <ele>645.414</ele>
        <time>2022-02-24T13:17:30Z</time>
      </trkpt>
      <trkpt lat="40.365460" lon="-4.218450">
        <ele>645.594</ele>
        <time>2022-02-24T13:18:10Z</time>
      </trkpt>
      <trkpt lat="40.365520" lon="-4.218570">
        <ele>646.667</ele>
        <time>2022-02-24T13:18:50Z</time>
      </trkpt>
      <trkpt lat="40.365540" lon="-4.218610">
        <ele>646.912</ele>
        <time>2022-02-24T13:19:30Z</time>
      </trkpt>
      <trkpt lat="40.365620" lon="-4.218770">
        <ele>647.630</ele>
        <time>2022-02-24T13:20:10Z</time>
      </trkpt>
      <trkpt lat="40.365650" lon="-4.218830">
        <ele>647.838</ele>
        <time>2022-02-24T13:20:50Z</time>
      </trkpt>
      <trkpt lat="40.365710" lon="-4.218950">
        <ele>648.270</ele>
        <time>2022-02-24T13:21:30Z</time>
      </trkpt>
      <trkpt lat="40.365720" lon="-4.218960">
        <ele>648.317</ele>
        <time>2022-02-24T13:22:10Z</time>
      </trkpt>
      <trkpt lat="40.365750" lon="-4.219030">
        <ele>648.508</ele>
        <time>2022-02-24T13:22:50Z</time>
      </trkpt>
      <trkpt lat="40.365820" lon="-4.219090">
        <ele>648.772</ele>
        <time>2022-02-24T13:23:30Z</time>
      </trkpt>
      <trkpt lat="40.365910" lon="-4.219170">
        <ele>649.379</ele>
        <time>2022-02-24T13:24:10Z</time>
      </trkpt>
      <trkpt lat="40.366010" lon="-4.219240">
        <ele>649.793</ele>
        <time>2022-02-24T13:24:50Z</time>
      </trkpt>
      <trkpt lat="40.366030" lon="-4.219250">
        <ele>649.882</ele>
        <time>2022-02-24T13:25:30Z</time>
      </trkpt>
      <trkpt lat="40.366150" lon="-4.219330">
        <ele>650.132</ele>
        <time>2022-02-24T13:26:10Z</time>
      </trkpt>
      <trkpt lat="40.366250" lon="-4.219390">
        <ele>650.115</ele>
        <time>2022-02-24T13:26:50Z</time>
      </trkpt>
      <trkpt lat="40.366270" lon="-4.219410">
        <ele>650.160</ele>
        <time>2022-02-24T13:27:30Z</time>
      </trkpt>
      <trkpt lat="40.366380" lon="-4.219480">
        <ele>650.038</ele>
        <time>2022-02-24T13:28:10Z</time>
      </trkpt>
      <trkpt lat="40.366410" lon="-4.219500">
        <ele>650.123</ele>
        <time>2022-02-24T13:28:50Z</time>
      </trkpt>
      <trkpt lat="40.366730" lon="-4.219710">
        <ele>651.283</ele>
        <time>2022-02-24T13:29:30Z</time>
      </trkpt>
      <trkpt lat="40.366830" lon="-4.219770">
        <ele>651.611</ele>
        <time>2022-02-24T13:30:10Z</time>
      </trkpt>
      <trkpt lat="40.366890" lon="-4.219810">
        <ele>651.808</ele>
        <time>2022-02-24T13:30:50Z</time>
      </trkpt>
      <trkpt lat="40.367030" lon="-4.219900">
        <ele>652.351</ele>
        <time>2022-02-24T13:31:30Z</time>
      </trkpt>
      <trkpt lat="40.367060" lon="-4.219910">
        <ele>652.438</ele>
        <time>2022-02-24T13:32:10Z</time>
      </trkpt>
      <trkpt lat="40.367160" lon="-4.219980">
        <ele>652.862</ele>
        <time>2022-02-24T13:32:50Z</time>
      </trkpt>
      <trkpt lat="40.367250" lon="-4.220020">
        <ele>653.021</ele>
        <time>2022-02-24T13:33:30Z</time>
      </trkpt>
      <trkpt lat="40.367390" lon="-4.220060">
        <ele>653.521</ele>
        <time>2022-02-24T13:34:10Z</time>
      </trkpt>
      <trkpt lat="40.367440" lon="-4.220070">
        <ele>653.754</ele>
        <time>2022-02-24T13:34:50Z</time>
      </trkpt>
      <trkpt lat="40.367490" lon="-4.220070">
        <ele>654.059</ele>
        <time>2022-02-24T13:35:30Z</time>
      </trkpt>
      <trkpt lat="40.367560" lon="-4.220070">
        <ele>654.227</ele>
        <time>2022-02-24T13:36:10Z</time>
      </trkpt>
      <trkpt lat="40.367610" lon="-4.220060">
        <ele>654.337</ele>
        <time>2022-02-24T13:36:50Z</time>
      </trkpt>
      <trkpt lat="40.367680" lon="-4.220050">
        <ele>654.549</ele>
        <time>2022-02-24T13:37:30Z</time>
      </trkpt>
      <trkpt lat="40.367750" lon="-4.220030">
        <ele>654.813</ele>
        <time>2022-02-24T13:38:10Z</time>
      </trkpt>
      <trkpt lat="40.367840" lon="-4.220020">
        <ele>655.208</ele>
        <time>2022-02-24T13:38:50Z</time>
      </trkpt>
      <trkpt lat="40.368210" lon="-4.219930">
        <ele>657.492</ele>
        <time>2022-02-24T13:39:30Z</time>
      </trkpt>
      <trkpt lat="40.368590" lon="-4.219840">
        <ele>659.519</ele>
        <time>2022-02-24T13:40:10Z</time>
      </trkpt>
      <trkpt lat="40.368610" lon="-4.219840">
        <ele>659.633</ele>
        <time>2022-02-24T13:40:50Z</time>
      </trkpt>
      <trkpt lat="40.368640" lon="-4.219830">
        <ele>659.712</ele>
        <time>2022-02-24T13:41:30Z</time>
      </trkpt>
      <trkpt lat="40.368710" lon="-4.219820">
        <ele>659.822</ele>
        <time>2022-02-24T13:42:10Z</time>
      </trkpt>
      <trkpt lat="40.368990" lon="-4.219760">
        <ele>660.365</ele>
        <time>2022-02-24T13:42:50Z</time>
      </trkpt>
      <trkpt lat="40.369050" lon="-4.219750">
        <ele>660.540</ele>
        <time>2022-02-24T13:43:30Z</time>
      </trkpt>
      <trkpt lat="40.369170" lon="-4.219740">
        <ele>660.928</ele>
        <time>2022-02-24T13:44:10Z</time>
      </trkpt>
      <trkpt lat="40.369210" lon="-4.219740">
        <ele>660.982</ele>
        <time>2022-02-24T13:44:50Z</time>
      </trkpt>
      <trkpt lat="40.369250" lon="-4.219740">
        <ele>660.943</ele>
        <time>2022-02-24T13:45:30Z</time>
      </trkpt>
      <trkpt lat="40.369290" lon="-4.219750">
        <ele>660.917</ele>
        <time>2022-02-24T13:46:10Z</time>
      </trkpt>
      <trkpt lat="40.369320" lon="-4.219760">
        <ele>660.908</ele>
        <time>2022-02-24T13:46:50Z</time>
      </trkpt>
      <trkpt lat="40.369340" lon="-4.219760">
        <ele>660.957</ele>
        <time>2022-02-24T13:47:30Z</time>
      </trkpt>
      <trkpt lat="40.369510" lon="-4.219850">
        <ele>660.864</ele>
        <time>2022-02-24T13:48:10Z</time>
      </trkpt>
      <trkpt lat="40.369630" lon="-4.219910">
        <ele>661.048</ele>
        <time>2022-02-24T13:48:50Z</time>
      </trkpt>
      <trkpt lat="40.369680" lon="-4.219950">
        <ele>661.057</ele>
        <time>2022-02-24T13:49:30Z</time>
      </trkpt>
      <trkpt lat="40.369730" lon="-4.220000">
        <ele>661.067</ele>
        <time>2022-02-24T13:50:10Z</time>
      </trkpt>
      <trkpt lat="40.369770" lon="-4.220060">
        <ele>661.070</ele>
        <time>2022-02-24T13:50:50Z</time>
      </trkpt>
      <trkpt lat="40.369840" lon="-4.220210">
        <ele>660.745</ele>
        <time>2022-02-24T13:51:30Z</time>
      </trkpt>
      <trkpt lat="40.369880" lon="-4.220290">
        <ele>660.633</ele>
        <time>2022-02-24T13:52:10Z</time>
      </trkpt>
      <trkpt lat="40.369900" lon="-4.220320">
        <ele>660.736</ele>
        <time>2022-02-24T13:52:50Z</time>
      </trkpt>
      <trkpt lat="40.369940" lon="-4.220400">
        <ele>660.917</ele>
        <time>2022-02-24T13:53:30Z</time>
      </trkpt>
      <trkpt lat="40.370000" lon="-4.220520">
        <ele>661.018</ele>
        <time>2022-02-24T13:54:10Z</time>
      </trkpt>
      <trkpt lat="40.370020" lon="-4.220560">
        <ele>661.108</ele>
        <time>2022-02-24T13:54:50Z</time>
      </trkpt>
      <trkpt lat="40.370140" lon="-4.220780">
        <ele>661.522</ele>
        <time>2022-02-24T13:55:30Z</time>
      </trkpt>
      <trkpt lat="40.370170" lon="-4.220840">
        <ele>661.649</ele>
        <time>2022-02-24T13:56:10Z</time>
      </trkpt>
      <trkpt lat="40.370260" lon="-4.220930">
        <ele>661.983</ele>
        <time>2022-02-24T13:56:50Z</time>
      </trkpt>
      <trkpt lat="40.370300" lon="-4.220950">
        <ele>662.082</ele>
        <time>2022-02-24T13:57:30Z</time>
      </trkpt>
      <trkpt lat="40.370340" lon="-4.220970">
        <ele>662.032</ele>
        <time>2022-02-24T13:58:10Z</time>
      </trkpt>
      <trkpt lat="40.370410" lon="-4.220990">
        <ele>662.035</ele>
        <time>2022-02-24T13:58:50Z</time>
      </trkpt>
      <trkpt lat="40.370460" lon="-4.220990">
        <ele>662.040</ele>
        <time>2022-02-24T13:59:30Z</time>
      </trkpt>
      <trkpt lat="40.370530" lon="-4.221000">
        <ele>662.088</ele>
        <time>2022-02-24T14:00:10Z</time>
      </trkpt>
      <trkpt lat="40.370560" lon="-4.221000">
        <ele>662.031</ele>
        <time>2022-02-24T14:00:50Z</time>
      </trkpt>
      <trkpt lat="40.370610" lon="-4.221010">
        <ele>662.361</ele>
        <time>2022-02-24T14:01:30Z</time>
      </trkpt>
      <trkpt lat="40.370740" lon="-4.221010">
        <ele>662.907</ele>
        <time>2022-02-24T14:02:10Z</time>
      </trkpt>
      <trkpt lat="40.371100" lon="-4.221040">
        <ele>664.208</ele>
        <time>2022-02-24T14:02:50Z</time>
      </trkpt>
      <trkpt lat="40.371240" lon="-4.221040">
        <ele>664.792</ele>
        <time>2022-02-24T14:03:30Z</time>
      </trkpt>
      <trkpt lat="40.371430" lon="-4.221050">
        <ele>665.229</ele>
        <time>2022-02-24T14:04:10Z</time>
      </trkpt>
      <trkpt lat="40.371460" lon="-4.221050">
        <ele>665.293</ele>
        <time>2022-02-24T14:04:50Z</time>
      </trkpt>
      <trkpt lat="40.371550" lon="-4.221060">
        <ele>665.212</ele>
        <time>2022-02-24T14:05:30Z</time>
      </trkpt>
      <trkpt lat="40.371730" lon="-4.221070">
        <ele>665.452</ele>
        <time>2022-02-24T14:06:10Z</time>
      </trkpt>
      <trkpt lat="40.372530" lon="-4.221100">
        <ele>669.045</ele>
        <time>2022-02-24T14:06:50Z</time>
      </trkpt>
      <trkpt lat="40.372870" lon="-4.221120">
        <ele>669.340</ele>
        <time>2022-02-24T14:07:30Z</time>
      </trkpt>
      <trkpt lat="40.372990" lon="-4.221130">
        <ele>669.838</ele>
        <time>2022-02-24T14:08:10Z</time>
      </trkpt>
      <trkpt lat="40.373500" lon="-4.221150">
        <ele>671.387</ele>
        <time>2022-02-24T14:08:50Z</time>
      </trkpt>
      <trkpt lat="40.373920" lon="-4.221160">
        <ele>674.042</ele>
        <time>2022-02-24T14:09:30Z</time>
      </trkpt>
      <trkpt lat="40.374060" lon="-4.221160">
        <ele>675.126</ele>
        <time>2022-02-24T14:10:10Z</time>
      </trkpt>
      <trkpt lat="40.374130" lon="-4.221160">
        <ele>675.608</ele>
        <time>2022-02-24T14:10:50Z</time>
      </trkpt>
      <trkpt lat="40.374260" lon="-4.221130">
        <ele>675.917</ele>
        <time>2022-02-24T14:11:30Z</time>
      </trkpt>
      <trkpt lat="40.374760" lon="-4.221010">
        <ele>677.194</ele>
        <time>2022-02-24T14:12:10Z</time>
      </trkpt>
      <trkpt lat="40.375170" lon="-4.220890">
        <ele>678.078</ele>
        <time>2022-02-24T14:12:50Z</time>
      </trkpt>
      <trkpt lat="40.375180" lon="-4.220890">
        <ele>678.077</ele>
        <time>2022-02-24T14:13:30Z</time>
      </trkpt>
      <trkpt lat="40.375300" lon="-4.220850">
        <ele>678.167</ele>
        <time>2022-02-24T14:14:10Z</time>
      </trkpt>
      <trkpt lat="40.375520" lon="-4.220790">
        <ele>678.950</ele>
        <time>2022-02-24T14:14:50Z</time>
      </trkpt>
      <trkpt lat="40.375900" lon="-4.220690">
        <ele>680.075</ele>
        <time>2022-02-24T14:15:30Z</time>
      </trkpt>
      <trkpt lat="40.376000" lon="-4.220680">
        <ele>680.083</ele>
        <time>2022-02-24T14:16:10Z</time>
      </trkpt>
      <trkpt lat="40.376090" lon="-4.220680">
        <ele>680.017</ele>
        <time>2022-02-24T14:16:50Z</time>
      </trkpt>
      <trkpt lat="40.376200" lon="-4.220680">
        <ele>680.087</ele>
        <time>2022-02-24T14:17:30Z</time>
      </trkpt>
      <trkpt lat="40.376970" lon="-4.220830">
        <ele>683.215</ele>
        <time>2022-02-24T14:18:10Z</time>
      </trkpt>
      <trkpt lat="40.377030" lon="-4.220840">
        <ele>683.608</ele>
        <time>2022-02-24T14:18:50Z</time>
      </trkpt>
      <trkpt lat="40.377250" lon="-4.220880">
        <ele>685.360</ele>
        <time>2022-02-24T14:19:30Z</time>
      </trkpt>
      <trkpt lat="40.377960" lon="-4.221010">
        <ele>689.357</ele>
        <time>2022-02-24T14:20:10Z</time>
      </trkpt>
      <trkpt lat="40.378040" lon="-4.221020">
        <ele>689.681</ele>
        <time>2022-02-24T14:20:50Z</time>
      </trkpt>
      <trkpt lat="40.378100" lon="-4.221030">
        <ele>689.770</ele>
        <time>2022-02-24T14:21:30Z</time>
      </trkpt>
      <trkpt lat="40.378580" lon="-4.221120">
        <ele>690.010</ele>
        <time>2022-02-24T14:22:10Z</time>
      </trkpt>
      <trkpt lat="40.378680" lon="-4.221130">
        <ele>690.093</ele>
        <time>2022-02-24T14:22:50Z</time>
      </trkpt>
      <trkpt lat="40.378760" lon="-4.221150">
        <ele>690.078</ele>
        <time>2022-02-24T14:23:30Z</time>
      </trkpt>
      <trkpt lat="40.378810" lon="-4.221160">
        <ele>690.096</ele>
        <time>2022-02-24T14:24:10Z</time>
      </trkpt>
      <trkpt lat="40.379170" lon="-4.221210">
        <ele>690.096</ele>
        <time>2022-02-24T14:24:50Z</time>
      </trkpt>
      <trkpt lat="40.379165" lon="-4.221213">
        <ele>690.031</ele>
        <time>2022-02-24T14:25:30Z</time>
      </trkpt>
      <trkpt lat="40.379170" lon="-4.221190">
        <ele>690.024</ele>
        <time>2022-02-24T14:26:10Z</time>
      </trkpt>
      <trkpt lat="40.379180" lon="-4.221180">
        <ele>690.008</ele>
        <time>2022-02-24T14:26:50Z</time>
      </trkpt>
      <trkpt lat="40.379180" lon="-4.221160">
        <ele>690.058</ele>
        <time>2022-02-24T14:27:30Z</time>
      </trkpt>
      <trkpt lat="40.379190" lon="-4.221150">
        <ele>690.025</ele>
        <time>2022-02-24T14:28:10Z</time>
      </trkpt>
      <trkpt lat="40.379200" lon="-4.221130">
        <ele>690.049</ele>
        <time>2022-02-24T14:28:50Z</time>
      </trkpt>
      <trkpt lat="40.379210" lon="-4.221120">
        <ele>690.068</ele>
        <time>2022-02-24T14:29:30Z</time>
      </trkpt>
      <trkpt lat="40.379220" lon="-4.221110">
        <ele>690.098</ele>
        <time>2022-02-24T14:30:10Z</time>
      </trkpt>
      <trkpt lat="40.379230" lon="-4.221100">
        <ele>690.021</ele>
        <time>2022-02-24T14:30:50Z</time>
      </trkpt>
      <trkpt lat="40.379240" lon="-4.221090">
        <ele>690.056</ele>
        <time>2022-02-24T14:31:30Z</time>
      </trkpt>
      <trkpt lat="40.379250" lon="-4.221080">
        <ele>690.034</ele>
        <time>2022-02-24T14:32:10Z</time>
      </trkpt>
      <trkpt lat="40.379270" lon="-4.221070">
        <ele>690.039</ele>
        <time>2022-02-24T14:32:50Z</time>
      </trkpt>
      <trkpt lat="40.379280" lon="-4.221070">
        <ele>690.001</ele>
        <time>2022-02-24T14:33:30Z</time>
      </trkpt>
      <trkpt lat="40.379290" lon="-4.221060">
        <ele>690.021</ele>
        <time>2022-02-24T14:34:10Z</time>
      </trkpt>
      <trkpt lat="40.379310" lon="-4.221060">
        <ele>690.008</ele>
        <time>2022-02-24T14:34:50Z</time>
      </trkpt>
      <trkpt lat="40.379320" lon="-4.221060">
        <ele>690.082</ele>
        <time>2022-02-24T14:35:30Z</time>
      </trkpt>
      <trkpt lat="40.379330" lon="-4.221060">
        <ele>690.019</ele>
        <time>2022-02-24T14:36:10Z</time>
      </trkpt>
      <trkpt lat="40.379350" lon="-4.221060">
        <ele>690.053</ele>
        <time>2022-02-24T14:36:50Z</time>
      </trkpt>
      <trkpt lat="40.379370" lon="-4.221060">
        <ele>690.012</ele>
        <time>2022-02-24T14:37:30Z</time>
      </trkpt>
      <trkpt lat="40.379380" lon="-4.221060">
        <ele>690.062</ele>
        <time>2022-02-24T14:38:10Z</time>
      </trkpt>
      <trkpt lat="40.379390" lon="-4.221070">
        <ele>690.075</ele>
        <time>2022-02-24T14:38:50Z</time>
      </trkpt>
      <trkpt lat="40.379410" lon="-4.221080">
        <ele>690.080</ele>
        <time>2022-02-24T14:39:30Z</time>
      </trkpt>
      <trkpt lat="40.379420" lon="-4.221090">
        <ele>690.018</ele>
        <time>2022-02-24T14:40:10Z</time>
      </trkpt>
      <trkpt lat="40.379430" lon="-4.221090">
        <ele>690.075</ele>
        <time>2022-02-24T14:40:50Z</time>
      </trkpt>
      <trkpt lat="40.379440" lon="-4.221110">
        <ele>690.028</ele>
        <time>2022-02-24T14:41:30Z</time>
      </trkpt>
      <trkpt lat="40.379450" lon="-4.221120">
        <ele>690.020</ele>
        <time>2022-02-24T14:42:10Z</time>
      </trkpt>
      <trkpt lat="40.379460" lon="-4.221130">
        <ele>690.108</ele>
        <time>2022-02-24T14:42:50Z</time>
      </trkpt>
      <trkpt lat="40.379470" lon="-4.221140">
        <ele>690.266</ele>
        <time>2022-02-24T14:43:30Z</time>
      </trkpt>
      <trkpt lat="40.379480" lon="-4.221160">
        <ele>690.313</ele>
        <time>2022-02-24T14:44:10Z</time>
      </trkpt>
      <trkpt lat="40.379490" lon="-4.221170">
        <ele>690.477</ele>
        <time>2022-02-24T14:44:50Z</time>
      </trkpt>
      <trkpt lat="40.379490" lon="-4.221190">
        <ele>690.416</ele>
        <time>2022-02-24T14:45:30Z</time>
      </trkpt>
      <trkpt lat="40.379500" lon="-4.221210">
        <ele>690.536</ele>
        <time>2022-02-24T14:46:10Z</time>
      </trkpt>
      <trkpt lat="40.379500" lon="-4.221220">
        <ele>690.579</ele>
        <time>2022-02-24T14:46:50Z</time>
      </trkpt>
      <trkpt lat="40.379500" lon="-4.221240">
        <ele>690.514</ele>
        <time>2022-02-24T14:47:30Z</time>
      </trkpt>
      <trkpt lat="40.379510" lon="-4.221260">
        <ele>690.622</ele>
        <time>2022-02-24T14:48:10Z</time>
      </trkpt>
      <trkpt lat="40.379510" lon="-4.221280">
        <ele>690.698</ele>
        <time>2022-02-24T14:48:50Z</time>
      </trkpt>
      <trkpt lat="40.379510" lon="-4.221290">
        <ele>690.615</ele>
        <time>2022-02-24T14:49:30Z</time>
      </trkpt>
      <trkpt lat="40.379930" lon="-4.221380">
        <ele>693.726</ele>
        <time>2022-02-24T14:50:10Z</time>
      </trkpt>
      <trkpt lat="40.380080" lon="-4.221430">
        <ele>694.408</ele>
        <time>2022-02-24T14:50:50Z</time>
      </trkpt>
      <trkpt lat="40.380160" lon="-4.221460">
        <ele>694.868</ele>
        <time>2022-02-24T14:51:30Z</time>
      </trkpt>
      <trkpt lat="40.380280" lon="-4.221550">
        <ele>695.645</ele>
        <time>2022-02-24T14:52:10Z</time>
      </trkpt>
      <trkpt lat="40.380370" lon="-4.221620">
        <ele>696.249</ele>
        <time>2022-02-24T14:52:50Z</time>
      </trkpt>
      <trkpt lat="40.380460" lon="-4.221700">
        <ele>696.898</ele>
        <time>2022-02-24T14:53:30Z</time>
      </trkpt>
      <trkpt lat="40.380510" lon="-4.221770">
        <ele>697.268</ele>
        <time>2022-02-24T14:54:10Z</time>
      </trkpt>
      <trkpt lat="40.380540" lon="-4.221810">
        <ele>697.591</ele>
        <time>2022-02-24T14:54:50Z</time>
      </trkpt>
      <trkpt lat="40.380550" lon="-4.221820">
        <ele>697.596</ele>
        <time>2022-02-24T14:55:30Z</time>
      </trkpt>
      <trkpt lat="40.380570" lon="-4.221860">
        <ele>697.624</ele>
        <time>2022-02-24T14:56:10Z</time>
      </trkpt>
      <trkpt lat="40.380630" lon="-4.222040">
        <ele>698.123</ele>
        <time>2022-02-24T14:56:50Z</time>
      </trkpt>
      <trkpt lat="40.380640" lon="-4.222060">
        <ele>698.183</ele>
        <time>2022-02-24T14:57:30Z</time>
      </trkpt>
      <trkpt lat="40.380650" lon="-4.222210">
        <ele>698.611</ele>
        <time>2022-02-24T14:58:10Z</time>
      </trkpt>
      <trkpt lat="40.380640" lon="-4.222400">
        <ele>699.108</ele>
        <time>2022-02-24T14:58:50Z</time>
      </trkpt>
      <trkpt lat="40.380650" lon="-4.222640">
        <ele>699.521</ele>
        <time>2022-02-24T14:59:30Z</time>
      </trkpt>
      <trkpt lat="40.380670" lon="-4.222760">
        <ele>699.658</ele>
        <time>2022-02-24T15:00:10Z</time>
      </trkpt>
      <trkpt lat="40.380690" lon="-4.222830">
        <ele>699.632</ele>
        <time>2022-02-24T15:00:50Z</time>
      </trkpt>
      <trkpt lat="40.380730" lon="-4.222920">
        <ele>699.691</ele>
        <time>2022-02-24T15:01:30Z</time>
      </trkpt>
      <trkpt lat="40.380780" lon="-4.223000">
        <ele>699.321</ele>
        <time>2022-02-24T15:02:10Z</time>
      </trkpt>
      <trkpt lat="40.380810" lon="-4.223040">
        <ele>699.214</ele>
        <time>2022-02-24T15:02:50Z</time>
      </trkpt>
      <trkpt lat="40.380890" lon="-4.223130">
        <ele>699.569</ele>
        <time>2022-02-24T15:03:30Z</time>
      </trkpt>
      <trkpt lat="40.380920" lon="-4.223130">
        <ele>699.647</ele>
        <time>2022-02-24T15:04:10Z</time>
      </trkpt>
      <trkpt lat="40.380980" lon="-4.223160">
        <ele>699.974</ele>
        <time>2022-02-24T15:04:50Z</time>
      </trkpt>
      <trkpt lat="40.381060" lon="-4.223180">
        <ele>700.356</ele>
        <time>2022-02-24T15:05:30Z</time>
      </trkpt>
      <trkpt lat="40.381120" lon="-4.223190">
        <ele>700.521</ele>
        <time>2022-02-24T15:06:10Z</time>
      </trkpt>
      <trkpt lat="40.381150" lon="-4.223190">
        <ele>700.608</ele>
        <time>2022-02-24T15:06:50Z</time>
      </trkpt>
      <trkpt lat="40.381220" lon="-4.223170">
        <ele>700.836</ele>
        <time>2022-02-24T15:07:30Z</time>
      </trkpt>
      <trkpt lat="40.381224" lon="-4.223168">
        <ele>700.893</ele>
        <time>2022-02-24T15:08:10Z</time>
      </trkpt>
      <trkpt lat="40.381230" lon="-4.223140">
        <ele>700.747</ele>
        <time>2022-02-24T15:08:50Z</time>
      </trkpt>
      <trkpt lat="40.381250" lon="-4.223120">
        <ele>700.746</ele>
        <time>2022-02-24T15:09:30Z</time>
      </trkpt>
      <trkpt lat="40.381270" lon="-4.223100">
        <ele>700.776</ele>
        <time>2022-02-24T15:10:10Z</time>
      </trkpt>
      <trkpt lat="40.381290" lon="-4.223080">
        <ele>700.799</ele>
        <time>2022-02-24T15:10:50Z</time>
      </trkpt>
      <trkpt lat="40.381310" lon="-4.223070">
        <ele>700.864</ele>
        <time>2022-02-24T15:11:30Z</time>
      </trkpt>
      <trkpt lat="40.381400" lon="-4.223000">
        <ele>700.862</ele>
        <time>2022-02-24T15:12:10Z</time>
      </trkpt>
      <trkpt lat="40.381460" lon="-4.222980">
        <ele>701.065</ele>
        <time>2022-02-24T15:12:50Z</time>
      </trkpt>
      <trkpt lat="40.381510" lon="-4.222980">
        <ele>701.268</ele>
        <time>2022-02-24T15:13:30Z</time>
      </trkpt>
      <trkpt lat="40.381520" lon="-4.222970">
        <ele>701.214</ele>
        <time>2022-02-24T15:14:10Z</time>
      </trkpt>
      <trkpt lat="40.381570" lon="-4.222980">
        <ele>701.408</ele>
        <time>2022-02-24T15:14:50Z</time>
      </trkpt>
      <trkpt lat="40.381580" lon="-4.222980">
        <ele>701.465</ele>
        <time>2022-02-24T15:15:30Z</time>
      </trkpt>
      <trkpt lat="40.381630" lon="-4.222990">
        <ele>701.632</ele>
        <time>2022-02-24T15:16:10Z</time>
      </trkpt>
      <trkpt lat="40.381680" lon="-4.223020">
        <ele>701.996</ele>
        <time>2022-02-24T15:16:50Z</time>
      </trkpt>
      <trkpt lat="40.381720" lon="-4.223060">
        <ele>702.035</ele>
        <time>2022-02-24T15:17:30Z</time>
      </trkpt>
      <trkpt lat="40.381760" lon="-4.223110">
        <ele>702.225</ele>
        <time>2022-02-24T15:18:10Z</time>
      </trkpt>
      <trkpt lat="40.381790" lon="-4.223170">
        <ele>702.498</ele>
        <time>2022-02-24T15:18:50Z</time>
      </trkpt>
      <trkpt lat="40.381810" lon="-4.223200">
        <ele>702.533</ele>
        <time>2022-02-24T15:19:30Z</time>
      </trkpt>
      <trkpt lat="40.381820" lon="-4.223240">
        <ele>702.711</ele>
        <time>2022-02-24T15:20:10Z</time>
      </trkpt>
      <trkpt lat="40.381830" lon="-4.223280">
        <ele>702.865</ele>
        <time>2022-02-24T15:20:50Z</time>
      </trkpt>
      <trkpt lat="40.381850" lon="-4.223320">
        <ele>703.068</ele>
        <time>2022-02-24T15:21:30Z</time>
      </trkpt>
      <trkpt lat="40.381850" lon="-4.223360">
        <ele>703.114</ele>
        <time>2022-02-24T15:22:10Z</time>
      </trkpt>
      <trkpt lat="40.381860" lon="-4.223400">
        <ele>703.208</ele>
        <time>2022-02-24T15:22:50Z</time>
      </trkpt>
      <trkpt lat="40.381870" lon="-4.223440">
        <ele>703.345</ele>
        <time>2022-02-24T15:23:30Z</time>
      </trkpt>
      <trkpt lat="40.381870" lon="-4.223480">
        <ele>703.452</ele>
        <time>2022-02-24T15:24:10Z</time>
      </trkpt>
      <trkpt lat="40.381870" lon="-4.223530">
        <ele>703.516</ele>
        <time>2022-02-24T15:24:50Z</time>
      </trkpt>
      <trkpt lat="40.381860" lon="-4.223570">
        <ele>703.665</ele>
        <time>2022-02-24T15:25:30Z</time>
      </trkpt>
      <trkpt lat="40.381850" lon="-4.223610">
        <ele>703.745</ele>
        <time>2022-02-24T15:26:10Z</time>
      </trkpt>
      <trkpt lat="40.381840" lon="-4.223650">
        <ele>703.848</ele>
        <time>2022-02-24T15:26:50Z</time>
      </trkpt>
      <trkpt lat="40.381820" lon="-4.223680">
        <ele>703.813</ele>
        <time>2022-02-24T15:27:30Z</time>
      </trkpt>
      <trkpt lat="40.381800" lon="-4.223720">
        <ele>703.991</ele>
        <time>2022-02-24T15:28:10Z</time>
      </trkpt>
      <trkpt lat="40.381780" lon="-4.223750">
        <ele>703.982</ele>
        <time>2022-02-24T15:28:50Z</time>
      </trkpt>
      <trkpt lat="40.381750" lon="-4.223790">
        <ele>703.943</ele>
        <time>2022-02-24T15:29:30Z</time>
      </trkpt>
      <trkpt lat="40.381710" lon="-4.223840">
        <ele>704.017</ele>
        <time>2022-02-24T15:30:10Z</time>
      </trkpt>
      <trkpt lat="40.381660" lon="-4.223880">
        <ele>703.908</ele>
        <time>2022-02-24T15:30:50Z</time>
      </trkpt>
      <trkpt lat="40.381610" lon="-4.223910">
        <ele>703.957</ele>
        <time>2022-02-24T15:31:30Z</time>
      </trkpt>
      <trkpt lat="40.381600" lon="-4.223910">
        <ele>703.894</ele>
        <time>2022-02-24T15:32:10Z</time>
      </trkpt>
      <trkpt lat="40.381550" lon="-4.223930">
        <ele>703.748</ele>
        <time>2022-02-24T15:32:50Z</time>
      </trkpt>
      <trkpt lat="40.381500" lon="-4.223930">
        <ele>703.517</ele>
        <time>2022-02-24T15:33:30Z</time>
      </trkpt>
      <trkpt lat="40.381490" lon="-4.223930">
        <ele>703.567</ele>
        <time>2022-02-24T15:34:10Z</time>
      </trkpt>
      <trkpt lat="40.381440" lon="-4.223930">
        <ele>703.390</ele>
        <time>2022-02-24T15:34:50Z</time>
      </trkpt>
      <trkpt lat="40.381400" lon="-4.223920">
        <ele>703.295</ele>
        <time>2022-02-24T15:35:30Z</time>
      </trkpt>
      <trkpt lat="40.381380" lon="-4.223910">
        <ele>703.053</ele>
        <time>2022-02-24T15:36:10Z</time>
      </trkpt>
      <trkpt lat="40.381330" lon="-4.223880">
        <ele>702.879</ele>
        <time>2022-02-24T15:36:50Z</time>
      </trkpt>
      <trkpt lat="40.381280" lon="-4.223840">
        <ele>702.405</ele>
        <time>2022-02-24T15:37:30Z</time>
      </trkpt>
      <trkpt lat="40.381240" lon="-4.223790">
        <ele>702.125</ele>
        <time>2022-02-24T15:38:10Z</time>
      </trkpt>
      <trkpt lat="40.381200" lon="-4.223710">
        <ele>701.708</ele>
        <time>2022-02-24T15:38:50Z</time>
      </trkpt>
      <trkpt lat="40.381180" lon="-4.223660">
        <ele>701.426</ele>
        <time>2022-02-24T15:39:30Z</time>
      </trkpt>
      <trkpt lat="40.381160" lon="-4.223600">
        <ele>701.253</ele>
        <time>2022-02-24T15:40:10Z</time>
      </trkpt>
      <trkpt lat="40.381150" lon="-4.223550">
        <ele>701.137</ele>
        <time>2022-02-24T15:40:50Z</time>
      </trkpt>
      <trkpt lat="40.381150" lon="-4.223490">
        <ele>701.196</ele>
        <time>2022-02-24T15:41:30Z</time>
      </trkpt>
      <trkpt lat="40.381150" lon="-4.223440">
        <ele>701.156</ele>
        <time>2022-02-24T15:42:10Z</time>
      </trkpt>
      <trkpt lat="40.381150" lon="-4.223420">
        <ele>701.189</ele>
        <time>2022-02-24T15:42:50Z</time>
      </trkpt>
      <trkpt lat="40.381090" lon="-4.223340">
        <ele>700.994</ele>
        <time>2022-02-24T15:43:30Z</time>
      </trkpt>
      <trkpt lat="40.380990" lon="-4.223240">
        <ele>700.212</ele>
        <time>2022-02-24T15:44:10Z</time>
      </trkpt>
      <trkpt lat="40.380910" lon="-4.223160">
        <ele>699.788</ele>
        <time>2022-02-24T15:44:50Z</time>
      </trkpt>
      <trkpt lat="40.380890" lon="-4.223130">
        <ele>699.524</ele>
        <time>2022-02-24T15:45:30Z</time>
      </trkpt>
      <trkpt lat="40.380810" lon="-4.223040">
        <ele>699.226</ele>
        <time>2022-02-24T15:46:10Z</time>
      </trkpt>
      <trkpt lat="40.380780" lon="-4.223000">
        <ele>699.308</ele>
        <time>2022-02-24T15:46:50Z</time>
      </trkpt>
      <trkpt lat="40.380730" lon="-4.222920">
        <ele>699.647</ele>
        <time>2022-02-24T15:47:30Z</time>
      </trkpt>
      <trkpt lat="40.380690" lon="-4.222830">
        <ele>699.654</ele>
        <time>2022-02-24T15:48:10Z</time>
      </trkpt>
      <trkpt lat="40.380670" lon="-4.222760">
        <ele>699.668</ele>
        <time>2022-02-24T15:48:50Z</time>
      </trkpt>
      <trkpt lat="40.380650" lon="-4.222640">
        <ele>699.597</ele>
        <time>2022-02-24T15:49:30Z</time>
      </trkpt>
      <trkpt lat="40.380640" lon="-4.222400">
        <ele>699.197</ele>
        <time>2022-02-24T15:50:10Z</time>
      </trkpt>
      <trkpt lat="40.380650" lon="-4.222210">
        <ele>698.610</ele>
        <time>2022-02-24T15:50:50Z</time>
      </trkpt>
      <trkpt lat="40.380640" lon="-4.222060">
        <ele>698.125</ele>
        <time>2022-02-24T15:51:30Z</time>
      </trkpt>
      <trkpt lat="40.380630" lon="-4.222040">
        <ele>698.183</ele>
        <time>2022-02-24T15:52:10Z</time>
      </trkpt>
      <trkpt lat="40.380570" lon="-4.221860">
        <ele>697.685</ele>
        <time>2022-02-24T15:52:50Z</time>
      </trkpt>
      <trkpt lat="40.380550" lon="-4.221820">
        <ele>697.589</ele>
        <time>2022-02-24T15:53:30Z</time>
      </trkpt>
      <trkpt lat="40.380540" lon="-4.221810">
        <ele>697.517</ele>
        <time>2022-02-24T15:54:10Z</time>
      </trkpt>
      <trkpt lat="40.380510" lon="-4.221770">
        <ele>697.208</ele>
        <time>2022-02-24T15:54:50Z</time>
      </trkpt>
      <trkpt lat="40.380460" lon="-4.221700">
        <ele>696.817</ele>
        <time>2022-02-24T15:55:30Z</time>
      </trkpt>
      <trkpt lat="40.380370" lon="-4.221620">
        <ele>696.244</ele>
        <time>2022-02-24T15:56:10Z</time>
      </trkpt>
      <trkpt lat="40.380280" lon="-4.221550">
        <ele>695.678</ele>
        <time>2022-02-24T15:56:50Z</time>
      </trkpt>
      <trkpt lat="40.380160" lon="-4.221460">
        <ele>694.847</ele>
        <time>2022-02-24T15:57:30Z</time>
      </trkpt>
      <trkpt lat="40.380080" lon="-4.221430">
        <ele>694.447</ele>
        <time>2022-02-24T15:58:10Z</time>
      </trkpt>
      <trkpt lat="40.379930" lon="-4.221380">
        <ele>693.710</ele>
        <time>2022-02-24T15:58:50Z</time>
      </trkpt>
      <trkpt lat="40.379925" lon="-4.221375">
        <ele>693.775</ele>
        <time>2022-02-24T15:59:30Z</time>
      </trkpt>
      <trkpt lat="40.379910" lon="-4.221610">
        <ele>694.583</ele>
        <time>2022-02-24T16:00:10Z</time>
      </trkpt>
      <trkpt lat="40.379900" lon="-4.221640">
        <ele>694.595</ele>
        <time>2022-02-24T16:00:50Z</time>
      </trkpt>
      <trkpt lat="40.379900" lon="-4.221850">
        <ele>695.349</ele>
        <time>2022-02-24T16:01:30Z</time>
      </trkpt>
      <trkpt lat="40.379900" lon="-4.221900">
        <ele>695.523</ele>
        <time>2022-02-24T16:02:10Z</time>
      </trkpt>
      <trkpt lat="40.379910" lon="-4.221990">
        <ele>695.808</ele>
        <time>2022-02-24T16:02:50Z</time>
      </trkpt>
      <trkpt lat="40.379920" lon="-4.222080">
        <ele>696.238</ele>
        <time>2022-02-24T16:03:30Z</time>
      </trkpt>
      <trkpt lat="40.379920" lon="-4.222090">
        <ele>696.285</ele>
        <time>2022-02-24T16:04:10Z</time>
      </trkpt>
      <trkpt lat="40.379940" lon="-4.222180">
        <ele>696.689</ele>
        <time>2022-02-24T16:04:50Z</time>
      </trkpt>
      <trkpt lat="40.379960" lon="-4.222250">
        <ele>697.078</ele>
        <time>2022-02-24T16:05:30Z</time>
      </trkpt>
      <trkpt lat="40.379990" lon="-4.222320">
        <ele>697.328</ele>
        <time>2022-02-24T16:06:10Z</time>
      </trkpt>
      <trkpt lat="40.380010" lon="-4.222390">
        <ele>697.681</ele>
        <time>2022-02-24T16:06:50Z</time>
      </trkpt>
      <trkpt lat="40.380080" lon="-4.222490">
        <ele>698.336</ele>
        <time>2022-02-24T16:07:30Z</time>
      </trkpt>
      <trkpt lat="40.380190" lon="-4.222660">
        <ele>699.314</ele>
        <time>2022-02-24T16:08:10Z</time>
      </trkpt>
      <trkpt lat="40.380360" lon="-4.222890">
        <ele>700.132</ele>
        <time>2022-02-24T16:08:50Z</time>
      </trkpt>
      <trkpt lat="40.380560" lon="-4.223200">
        <ele>701.092</ele>
        <time>2022-02-24T16:09:30Z</time>
      </trkpt>
      <trkpt lat="40.380800" lon="-4.223550">
        <ele>700.811</ele>
        <time>2022-02-24T16:10:10Z</time>
      </trkpt>
      <trkpt lat="40.380820" lon="-4.223590">
        <ele>700.908</ele>
        <time>2022-02-24T16:10:50Z</time>
      </trkpt>
      <trkpt lat="40.380910" lon="-4.223750">
        <ele>701.542</ele>
        <time>2022-02-24T16:11:30Z</time>
      </trkpt>
      <trkpt lat="40.380930" lon="-4.223820">
        <ele>701.829</ele>
        <time>2022-02-24T16:12:10Z</time>
      </trkpt>
      <trkpt lat="40.380940" lon="-4.223860">
        <ele>701.933</ele>
        <time>2022-02-24T16:12:50Z</time>
      </trkpt>
      <trkpt lat="40.380940" lon="-4.223890">
        <ele>702.022</ele>
        <time>2022-02-24T16:13:30Z</time>
      </trkpt>
      <trkpt lat="40.380950" lon="-4.223940">
        <ele>702.162</ele>
        <time>2022-02-24T16:14:10Z</time>
      </trkpt>
      <trkpt lat="40.380950" lon="-4.223970">
        <ele>702.125</ele>
        <time>2022-02-24T16:14:50Z</time>
      </trkpt>
      <trkpt lat="40.380950" lon="-4.223980">
        <ele>702.130</ele>
        <time>2022-02-24T16:15:30Z</time>
      </trkpt>
      <trkpt lat="40.380950" lon="-4.224200">
        <ele>702.518</ele>
        <time>2022-02-24T16:16:10Z</time>
      </trkpt>
      <trkpt lat="40.380950" lon="-4.224210">
        <ele>702.646</ele>
        <time>2022-02-24T16:16:50Z</time>
      </trkpt>
      <trkpt lat="40.380930" lon="-4.224440">
        <ele>703.388</ele>
        <time>2022-02-24T16:17:30Z</time>
      </trkpt>
      <trkpt lat="40.380930" lon="-4.224540">
        <ele>703.716</ele>
        <time>2022-02-24T16:18:10Z</time>
      </trkpt>
      <trkpt lat="40.380920" lon="-4.224670">
        <ele>704.108</ele>
        <time>2022-02-24T16:18:50Z</time>
      </trkpt>
      <trkpt lat="40.380920" lon="-4.224850">
        <ele>704.333</ele>
        <time>2022-02-24T16:19:30Z</time>
      </trkpt>
      <trkpt lat="40.380920" lon="-4.224910">
        <ele>704.340</ele>
        <time>2022-02-24T16:20:10Z</time>
      </trkpt>
      <trkpt lat="40.380920" lon="-4.225080">
        <ele>704.614</ele>
        <time>2022-02-24T16:20:50Z</time>
      </trkpt>
      <trkpt lat="40.380930" lon="-4.225150">
        <ele>704.963</ele>
        <time>2022-02-24T16:21:30Z</time>
      </trkpt>
      <trkpt lat="40.380930" lon="-4.225380">
        <ele>705.383</ele>
        <time>2022-02-24T16:22:10Z</time>
      </trkpt>
      <trkpt lat="40.380940" lon="-4.225620">
        <ele>705.486</ele>
        <time>2022-02-24T16:22:50Z</time>
      </trkpt>
      <trkpt lat="40.380940" lon="-4.225680">
        <ele>705.481</ele>
        <time>2022-02-24T16:23:30Z</time>
      </trkpt>
      <trkpt lat="40.380940" lon="-4.226130">
        <ele>705.879</ele>
        <time>2022-02-24T16:24:10Z</time>
      </trkpt>
      <trkpt lat="40.380930" lon="-4.226350">
        <ele>706.378</ele>
        <time>2022-02-24T16:24:50Z</time>
      </trkpt>
      <trkpt lat="40.380910" lon="-4.226560">
        <ele>706.933</ele>
        <time>2022-02-24T16:25:30Z</time>
      </trkpt>
      <trkpt lat="40.380900" lon="-4.226760">
        <ele>707.326</ele>
        <time>2022-02-24T16:26:10Z</time>
      </trkpt>
      <trkpt lat="40.380880" lon="-4.227030">
        <ele>707.608</ele>
        <time>2022-02-24T16:26:50Z</time>
      </trkpt>
      <trkpt lat="40.380860" lon="-4.227270">
        <ele>708.356</ele>
        <time>2022-02-24T16:27:30Z</time>
      </trkpt>
      <trkpt lat="40.380840" lon="-4.227500">
        <ele>709.073</ele>
        <time>2022-02-24T16:28:10Z</time>
      </trkpt>
      <trkpt lat="40.380840" lon="-4.227590">
        <ele>708.737</ele>
        <time>2022-02-24T16:28:50Z</time>
      </trkpt>
      <trkpt lat="40.380820" lon="-4.227970">
        <ele>708.056</ele>
        <time>2022-02-24T16:29:30Z</time>
      </trkpt>
      <trkpt lat="40.380810" lon="-4.228210">
        <ele>707.986</ele>
        <time>2022-02-24T16:30:10Z</time>
      </trkpt>
      <trkpt lat="40.380800" lon="-4.228320">
        <ele>707.949</ele>
        <time>2022-02-24T16:30:50Z</time>
      </trkpt>
      <trkpt lat="40.380810" lon="-4.228440">
        <ele>707.524</ele>
        <time>2022-02-24T16:31:30Z</time>
      </trkpt>
      <trkpt lat="40.380830" lon="-4.228890">
        <ele>707.062</ele>
        <time>2022-02-24T16:32:10Z</time>
      </trkpt>
      <trkpt lat="40.380880" lon="-4.229570">
        <ele>704.298</ele>
        <time>2022-02-24T16:32:50Z</time>
      </trkpt>
      <trkpt lat="40.380890" lon="-4.229620">
        <ele>703.915</ele>
        <time>2022-02-24T16:33:30Z</time>
      </trkpt>
      <trkpt lat="40.380970" lon="-4.230080">
        <ele>700.126</ele>
        <time>2022-02-24T16:34:10Z</time>
      </trkpt>
      <trkpt lat="40.381020" lon="-4.230310">
        <ele>698.508</ele>
        <time>2022-02-24T16:34:50Z</time>
      </trkpt>
      <trkpt lat="40.381060" lon="-4.230540">
        <ele>697.448</ele>
        <time>2022-02-24T16:35:30Z</time>
      </trkpt>
      <trkpt lat="40.381100" lon="-4.230730">
        <ele>695.875</ele>
        <time>2022-02-24T16:36:10Z</time>
      </trkpt>
      <trkpt lat="40.381100" lon="-4.230760">
        <ele>695.639</ele>
        <time>2022-02-24T16:36:50Z</time>
      </trkpt>
      <trkpt lat="40.381220" lon="-4.231360">
        <ele>693.578</ele>
        <time>2022-02-24T16:37:30Z</time>
      </trkpt>
      <trkpt lat="40.381240" lon="-4.231450">
        <ele>693.148</ele>
        <time>2022-02-24T16:38:10Z</time>
      </trkpt>
      <trkpt lat="40.381410" lon="-4.232230">
        <ele>690.181</ele>
        <time>2022-02-24T16:38:50Z</time>
      </trkpt>
      <trkpt lat="40.381440" lon="-4.232360">
        <ele>689.926</ele>
        <time>2022-02-24T16:39:30Z</time>
      </trkpt>
      <trkpt lat="40.381530" lon="-4.232810">
        <ele>689.464</ele>
        <time>2022-02-24T16:40:10Z</time>
      </trkpt>
      <trkpt lat="40.381580" lon="-4.233040">
        <ele>688.737</ele>
        <time>2022-02-24T16:40:50Z</time>
      </trkpt>
      <trkpt lat="40.381630" lon="-4.233270">
        <ele>688.149</ele>
        <time>2022-02-24T16:41:30Z</time>
      </trkpt>
      <trkpt lat="40.381680" lon="-4.233520">
        <ele>688.013</ele>
        <time>2022-02-24T16:42:10Z</time>
      </trkpt>
      <trkpt lat="40.381780" lon="-4.233980">
        <ele>686.808</ele>
        <time>2022-02-24T16:42:50Z</time>
      </trkpt>
      <trkpt lat="40.382000" lon="-4.234930">
        <ele>686.262</ele>
        <time>2022-02-24T16:43:30Z</time>
      </trkpt>
      <trkpt lat="40.382150" lon="-4.235600">
        <ele>687.759</ele>
        <time>2022-02-24T16:44:10Z</time>
      </trkpt>
      <trkpt lat="40.382310" lon="-4.236280">
        <ele>688.313</ele>
        <time>2022-02-24T16:44:50Z</time>
      </trkpt>
      <trkpt lat="40.382410" lon="-4.236730">
        <ele>688.762</ele>
        <time>2022-02-24T16:45:30Z</time>
      </trkpt>
      <trkpt lat="40.382460" lon="-4.236960">
        <ele>688.952</ele>
        <time>2022-02-24T16:46:10Z</time>
      </trkpt>
      <trkpt lat="40.382580" lon="-4.237460">
        <ele>689.225</ele>
        <time>2022-02-24T16:46:50Z</time>
      </trkpt>
      <trkpt lat="40.382810" lon="-4.238470">
        <ele>690.010</ele>
        <time>2022-02-24T16:47:30Z</time>
      </trkpt>
      <trkpt lat="40.382830" lon="-4.238540">
        <ele>690.048</ele>
        <time>2022-02-24T16:48:10Z</time>
      </trkpt>
      <trkpt lat="40.382900" lon="-4.238830">
        <ele>690.086</ele>
        <time>2022-02-24T16:48:50Z</time>
      </trkpt>
      <trkpt lat="40.383010" lon="-4.239170">
        <ele>690.060</ele>
        <time>2022-02-24T16:49:30Z</time>
      </trkpt>
      <trkpt lat="40.383030" lon="-4.239230">
        <ele>690.026</ele>
        <time>2022-02-24T16:50:10Z</time>
      </trkpt>
      <trkpt lat="40.383050" lon="-4.239300">
        <ele>690.008</ele>
        <time>2022-02-24T16:50:50Z</time>
      </trkpt>
      <trkpt lat="40.383070" lon="-4.239410">
        <ele>690.067</ele>
        <time>2022-02-24T16:51:30Z</time>
      </trkpt>
      <trkpt lat="40.383100" lon="-4.239610">
        <ele>690.034</ele>
        <time>2022-02-24T16:52:10Z</time>
      </trkpt>
      <trkpt lat="40.383210" lon="-4.240090">
        <ele>690.088</ele>
        <time>2022-02-24T16:52:50Z</time>
      </trkpt>
      <trkpt lat="40.383230" lon="-4.240220">
        <ele>690.097</ele>
        <time>2022-02-24T16:53:30Z</time>
      </trkpt>
      <trkpt lat="40.383234" lon="-4.240215">
        <ele>690.037</ele>
        <time>2022-02-24T16:54:10Z</time>
      </trkpt>
      <trkpt lat="40.383300" lon="-4.240320">
        <ele>690.160</ele>
        <time>2022-02-24T16:54:50Z</time>
      </trkpt>
      <trkpt lat="40.383320" lon="-4.240360">
        <ele>690.315</ele>
        <time>2022-02-24T16:55:30Z</time>
      </trkpt>
      <trkpt lat="40.383330" lon="-4.240400">
        <ele>690.453</ele>
        <time>2022-02-24T16:56:10Z</time>
      </trkpt>
      <trkpt lat="40.383340" lon="-4.240460">
        <ele>690.715</ele>
        <time>2022-02-24T16:56:50Z</time>
      </trkpt>
      <trkpt lat="40.383340" lon="-4.240560">
        <ele>691.065</ele>
        <time>2022-02-24T16:57:30Z</time>
      </trkpt>
      <trkpt lat="40.383430" lon="-4.240950">
        <ele>691.411</ele>
        <time>2022-02-24T16:58:10Z</time>
      </trkpt>
      <trkpt lat="40.383710" lon="-4.242130">
        <ele>694.708</ele>
        <time>2022-02-24T16:58:50Z</time>
      </trkpt>
      <trkpt lat="40.383709" lon="-4.242126">
        <ele>694.750</ele>
        <time>2022-02-24T16:59:30Z</time>
      </trkpt>
      <trkpt lat="40.383770" lon="-4.242110">
        <ele>694.667</ele>
        <time>2022-02-24T17:00:10Z</time>
      </trkpt>
      <trkpt lat="40.383790" lon="-4.242110">
        <ele>694.651</ele>
        <time>2022-02-24T17:00:50Z</time>
      </trkpt>
      <trkpt lat="40.383810" lon="-4.242100">
        <ele>694.670</ele>
        <time>2022-02-24T17:01:30Z</time>
      </trkpt>
      <trkpt lat="40.383830" lon="-4.242090">
        <ele>694.580</ele>
        <time>2022-02-24T17:02:10Z</time>
      </trkpt>
      <trkpt lat="40.383850" lon="-4.242070">
        <ele>694.513</ele>
        <time>2022-02-24T17:02:50Z</time>
      </trkpt>
      <trkpt lat="40.383860" lon="-4.242050">
        <ele>694.418</ele>
        <time>2022-02-24T17:03:30Z</time>
      </trkpt>
      <trkpt lat="40.383890" lon="-4.242020">
        <ele>694.366</ele>
        <time>2022-02-24T17:04:10Z</time>
      </trkpt>
      <trkpt lat="40.383910" lon="-4.242000">
        <ele>694.227</ele>
        <time>2022-02-24T17:04:50Z</time>
      </trkpt>
      <trkpt lat="40.383914" lon="-4.241996">
        <ele>694.268</ele>
        <time>2022-02-24T17:05:30Z</time>
      </trkpt>
      <trkpt lat="40.383920" lon="-4.241900">
        <ele>693.814</ele>
        <time>2022-02-24T17:06:10Z</time>
      </trkpt>
      <trkpt lat="40.383900" lon="-4.241530">
        <ele>693.008</ele>
        <time>2022-02-24T17:06:50Z</time>
      </trkpt>
      <trkpt lat="40.383897" lon="-4.241532">
        <ele>693.031</ele>
        <time>2022-02-24T17:07:30Z</time>
      </trkpt>
      <trkpt lat="40.383870" lon="-4.241510">
        <ele>693.018</ele>
        <time>2022-02-24T17:08:10Z</time>
      </trkpt>
      <trkpt lat="40.383850" lon="-4.241480">
        <ele>693.072</ele>
        <time>2022-02-24T17:08:50Z</time>
      </trkpt>
      <trkpt lat="40.383840" lon="-4.241450">
        <ele>693.011</ele>
        <time>2022-02-24T17:09:30Z</time>
      </trkpt>
      <trkpt lat="40.383820" lon="-4.241410">
        <ele>693.071</ele>
        <time>2022-02-24T17:10:10Z</time>
      </trkpt>
      <trkpt lat="40.383810" lon="-4.241380">
        <ele>693.034</ele>
        <time>2022-02-24T17:10:50Z</time>
      </trkpt>
      <trkpt lat="40.383800" lon="-4.241340">
        <ele>692.869</ele>
        <time>2022-02-24T17:11:30Z</time>
      </trkpt>
      <trkpt lat="40.383800" lon="-4.241310">
        <ele>692.767</ele>
        <time>2022-02-24T17:12:10Z</time>
      </trkpt>
      <trkpt lat="40.383790" lon="-4.241270">
        <ele>692.647</ele>
        <time>2022-02-24T17:12:50Z</time>
      </trkpt>
      <trkpt lat="40.383800" lon="-4.241230">
        <ele>692.429</ele>
        <time>2022-02-24T17:13:30Z</time>
      </trkpt>
      <trkpt lat="40.383810" lon="-4.241170">
        <ele>692.221</ele>
        <time>2022-02-24T17:14:10Z</time>
      </trkpt>
      <trkpt lat="40.383830" lon="-4.241100">
        <ele>692.008</ele>
        <time>2022-02-24T17:14:50Z</time>
      </trkpt>
      <trkpt lat="40.383840" lon="-4.241070">
        <ele>691.963</ele>
        <time>2022-02-24T17:15:30Z</time>
      </trkpt>
      <trkpt lat="40.383860" lon="-4.241040">
        <ele>691.710</ele>
        <time>2022-02-24T17:16:10Z</time>
      </trkpt>
      <trkpt lat="40.383880" lon="-4.241010">
        <ele>691.654</ele>
        <time>2022-02-24T17:16:50Z</time>
      </trkpt>
      <trkpt lat="40.383900" lon="-4.240990">
        <ele>691.553</ele>
        <time>2022-02-24T17:17:30Z</time>
      </trkpt>
      <trkpt lat="40.383930" lon="-4.240970">
        <ele>691.383</ele>
        <time>2022-02-24T17:18:10Z</time>
      </trkpt>
      <trkpt lat="40.383960" lon="-4.240950">
        <ele>691.246</ele>
        <time>2022-02-24T17:18:50Z</time>
      </trkpt>
      <trkpt lat="40.383980" lon="-4.240940">
        <ele>691.161</ele>
        <time>2022-02-24T17:19:30Z</time>
      </trkpt>
      <trkpt lat="40.384010" lon="-4.240930">
        <ele>690.969</ele>
        <time>2022-02-24T17:20:10Z</time>
      </trkpt>
      <trkpt lat="40.384040" lon="-4.240930">
        <ele>690.869</ele>
        <time>2022-02-24T17:20:50Z</time>
      </trkpt>
      <trkpt lat="40.384070" lon="-4.240920">
        <ele>690.704</ele>
        <time>2022-02-24T17:21:30Z</time>
      </trkpt>
      <trkpt lat="40.384090" lon="-4.240930">
        <ele>690.624</ele>
        <time>2022-02-24T17:22:10Z</time>
      </trkpt>
      <trkpt lat="40.384110" lon="-4.240940">
        <ele>690.608</ele>
        <time>2022-02-24T17:22:50Z</time>
      </trkpt>
      <trkpt lat="40.384140" lon="-4.240940">
        <ele>690.595</ele>
        <time>2022-02-24T17:23:30Z</time>
      </trkpt>
      <trkpt lat="40.384160" lon="-4.240960">
        <ele>690.542</ele>
        <time>2022-02-24T17:24:10Z</time>
      </trkpt>
      <trkpt lat="40.384180" lon="-4.240970">
        <ele>690.526</ele>
        <time>2022-02-24T17:24:50Z</time>
      </trkpt>
      <trkpt lat="40.384200" lon="-4.240990">
        <ele>690.675</ele>
        <time>2022-02-24T17:25:30Z</time>
      </trkpt>
      <trkpt lat="40.384220" lon="-4.241000">
        <ele>690.645</ele>
        <time>2022-02-24T17:26:10Z</time>
      </trkpt>
      <trkpt lat="40.384230" lon="-4.241020">
        <ele>690.728</ele>
        <time>2022-02-24T17:26:50Z</time>
      </trkpt>
      <trkpt lat="40.384250" lon="-4.241050">
        <ele>690.893</ele>
        <time>2022-02-24T17:27:30Z</time>
      </trkpt>
      <trkpt lat="40.384270" lon="-4.241080">
        <ele>690.951</ele>
        <time>2022-02-24T17:28:10Z</time>
      </trkpt>
      <trkpt lat="40.384280" lon="-4.241110">
        <ele>691.022</ele>
        <time>2022-02-24T17:28:50Z</time>
      </trkpt>
      <trkpt lat="40.384290" lon="-4.241150">
        <ele>691.162</ele>
        <time>2022-02-24T17:29:30Z</time>
      </trkpt>
      <trkpt lat="40.384300" lon="-4.241180">
        <ele>691.208</ele>
        <time>2022-02-24T17:30:10Z</time>
      </trkpt>
      <trkpt lat="40.384300" lon="-4.241220">
        <ele>691.408</ele>
        <time>2022-02-24T17:30:50Z</time>
      </trkpt>
      <trkpt lat="40.384310" lon="-4.241260">
        <ele>691.571</ele>
        <time>2022-02-24T17:31:30Z</time>
      </trkpt>
      <trkpt lat="40.384300" lon="-4.241290">
        <ele>691.678</ele>
        <time>2022-02-24T17:32:10Z</time>
      </trkpt>
      <trkpt lat="40.384390" lon="-4.241460">
        <ele>692.352</ele>
        <time>2022-02-24T17:32:50Z</time>
      </trkpt>
      <trkpt lat="40.384450" lon="-4.241590">
        <ele>692.871</ele>
        <time>2022-02-24T17:33:30Z</time>
      </trkpt>
      <trkpt lat="40.384610" lon="-4.241840">
        <ele>695.041</ele>
        <time>2022-02-24T17:34:10Z</time>
      </trkpt>
      <trkpt lat="40.384750" lon="-4.242010">
        <ele>696.354</ele>
        <time>2022-02-24T17:34:50Z</time>
      </trkpt>
      <trkpt lat="40.384950" lon="-4.242230">
        <ele>697.889</ele>
        <time>2022-02-24T17:35:30Z</time>
      </trkpt>
      <trkpt lat="40.385070" lon="-4.242360">
        <ele>698.687</ele>
        <time>2022-02-24T17:36:10Z</time>
      </trkpt>
      <trkpt lat="40.385130" lon="-4.242440">
        <ele>698.988</ele>
        <time>2022-02-24T17:36:50Z</time>
      </trkpt>
      <trkpt lat="40.385160" lon="-4.242500">
        <ele>699.024</ele>
        <time>2022-02-24T17:37:30Z</time>
      </trkpt>
      <trkpt lat="40.385320" lon="-4.242650">
        <ele>699.626</ele>
        <time>2022-02-24T17:38:10Z</time>
      </trkpt>
      <trkpt lat="40.385470" lon="-4.242770">
        <ele>700.008</ele>
        <time>2022-02-24T17:38:50Z</time>
      </trkpt>
      <trkpt lat="40.385660" lon="-4.242900">
        <ele>701.127</ele>
        <time>2022-02-24T17:39:30Z</time>
      </trkpt>
      <trkpt lat="40.385800" lon="-4.242990">
        <ele>702.664</ele>
        <time>2022-02-24T17:40:10Z</time>
      </trkpt>
      <trkpt lat="40.385920" lon="-4.243080">
        <ele>703.758</ele>
        <time>2022-02-24T17:40:50Z</time>
      </trkpt>
      <trkpt lat="40.385930" lon="-4.243080">
        <ele>703.857</ele>
        <time>2022-02-24T17:41:30Z</time>
      </trkpt>
      <trkpt lat="40.386040" lon="-4.243160">
        <ele>704.987</ele>
        <time>2022-02-24T17:42:10Z</time>
      </trkpt>
      <trkpt lat="40.386150" lon="-4.243240">
        <ele>705.840</ele>
        <time>2022-02-24T17:42:50Z</time>
      </trkpt>
      <trkpt lat="40.386380" lon="-4.243410">
        <ele>707.015</ele>
        <time>2022-02-24T17:43:30Z</time>
      </trkpt>
      <trkpt lat="40.386770" lon="-4.243690">
        <ele>708.493</ele>
        <time>2022-02-24T17:44:10Z</time>
      </trkpt>
      <trkpt lat="40.386830" lon="-4.243740">
        <ele>708.634</ele>
        <time>2022-02-24T17:44:50Z</time>
      </trkpt>
      <trkpt lat="40.387030" lon="-4.243880">
        <ele>709.355</ele>
        <time>2022-02-24T17:45:30Z</time>
      </trkpt>
      <trkpt lat="40.387240" lon="-4.244050">
        <ele>710.510</ele>
        <time>2022-02-24T17:46:10Z</time>
      </trkpt>
      <trkpt lat="40.387260" lon="-4.244060">
        <ele>710.508</ele>
        <time>2022-02-24T17:46:50Z</time>
      </trkpt>
      <trkpt lat="40.387300" lon="-4.244090">
        <ele>710.552</ele>
        <time>2022-02-24T17:47:30Z</time>
      </trkpt>
      <trkpt lat="40.387500" lon="-4.244240">
        <ele>710.319</ele>
        <time>2022-02-24T17:48:10Z</time>
      </trkpt>
      <trkpt lat="40.387690" lon="-4.244400">
        <ele>710.883</ele>
        <time>2022-02-24T17:48:50Z</time>
      </trkpt>
      <trkpt lat="40.387700" lon="-4.244410">
        <ele>710.942</ele>
        <time>2022-02-24T17:49:30Z</time>
      </trkpt>
      <trkpt lat="40.387860" lon="-4.244550">
        <ele>711.412</ele>
        <time>2022-02-24T17:50:10Z</time>
      </trkpt>
      <trkpt lat="40.388110" lon="-4.244760">
        <ele>711.965</ele>
        <time>2022-02-24T17:50:50Z</time>
      </trkpt>
      <trkpt lat="40.388380" lon="-4.244990">
        <ele>712.080</ele>
        <time>2022-02-24T17:51:30Z</time>
      </trkpt>
      <trkpt lat="40.388670" lon="-4.245260">
        <ele>712.768</ele>
        <time>2022-02-24T17:52:10Z</time>
      </trkpt>
      <trkpt lat="40.388750" lon="-4.245330">
        <ele>712.728</ele>
        <time>2022-02-24T17:52:50Z</time>
      </trkpt>
      <trkpt lat="40.388980" lon="-4.245550">
        <ele>713.089</ele>
        <time>2022-02-24T17:53:30Z</time>
      </trkpt>
      <trkpt lat="40.389200" lon="-4.245770">
        <ele>713.717</ele>
        <time>2022-02-24T17:54:10Z</time>
      </trkpt>
      <trkpt lat="40.389490" lon="-4.246070">
        <ele>713.208</ele>
        <time>2022-02-24T17:54:50Z</time>
      </trkpt>
      <trkpt lat="40.389600" lon="-4.246190">
        <ele>711.931</ele>
        <time>2022-02-24T17:55:30Z</time>
      </trkpt>
      <trkpt lat="40.389690" lon="-4.246290">
        <ele>711.088</ele>
        <time>2022-02-24T17:56:10Z</time>
      </trkpt>
      <trkpt lat="40.389740" lon="-4.246340">
        <ele>710.882</ele>
        <time>2022-02-24T17:56:50Z</time>
      </trkpt>
      <trkpt lat="40.389950" lon="-4.246570">
        <ele>711.831</ele>
        <time>2022-02-24T17:57:30Z</time>
      </trkpt>
      <trkpt lat="40.390170" lon="-4.246800">
        <ele>713.321</ele>
        <time>2022-02-24T17:58:10Z</time>
      </trkpt>
      <trkpt lat="40.390180" lon="-4.246810">
        <ele>713.344</ele>
        <time>2022-02-24T17:58:50Z</time>
      </trkpt>
      <trkpt lat="40.390300" lon="-4.246950">
        <ele>714.219</ele>
        <time>2022-02-24T17:59:30Z</time>
      </trkpt>
      <trkpt lat="40.390570" lon="-4.247250">
        <ele>717.427</ele>
        <time>2022-02-24T18:00:10Z</time>
      </trkpt>
      <trkpt lat="40.390960" lon="-4.247680">
        <ele>723.331</ele>
        <time>2022-02-24T18:00:50Z</time>
      </trkpt>
      <trkpt lat="40.391400" lon="-4.248160">
        <ele>728.761</ele>
        <time>2022-02-24T18:01:30Z</time>
      </trkpt>
      <trkpt lat="40.391600" lon="-4.248370">
        <ele>729.307</ele>
        <time>2022-02-24T18:02:10Z</time>
      </trkpt>
      <trkpt lat="40.391680" lon="-4.248460">
        <ele>729.408</ele>
        <time>2022-02-24T18:02:50Z</time>
      </trkpt>
      <trkpt lat="40.391810" lon="-4.248610">
        <ele>730.072</ele>
        <time>2022-02-24T18:03:30Z</time>
      </trkpt>
      <trkpt lat="40.392030" lon="-4.248850">
        <ele>729.979</ele>
        <time>2022-02-24T18:04:10Z</time>
      </trkpt>
      <trkpt lat="40.392090" lon="-4.248920">
        <ele>729.663</ele>
        <time>2022-02-24T18:04:50Z</time>
      </trkpt>
      <trkpt lat="40.392430" lon="-4.249290">
        <ele>726.892</ele>
        <time>2022-02-24T18:05:30Z</time>
      </trkpt>
      <trkpt lat="40.392660" lon="-4.249540">
        <ele>726.912</ele>
        <time>2022-02-24T18:06:10Z</time>
      </trkpt>
      <trkpt lat="40.392890" lon="-4.249770">
        <ele>728.085</ele>
        <time>2022-02-24T18:06:50Z</time>
      </trkpt>
      <trkpt lat="40.392940" lon="-4.249820">
        <ele>728.040</ele>
        <time>2022-02-24T18:07:30Z</time>
      </trkpt>
      <trkpt lat="40.393060" lon="-4.249920">
        <ele>728.028</ele>
        <time>2022-02-24T18:08:10Z</time>
      </trkpt>
      <trkpt lat="40.393080" lon="-4.249940">
        <ele>728.155</ele>
        <time>2022-02-24T18:08:50Z</time>
      </trkpt>
      <trkpt lat="40.393240" lon="-4.250060">
        <ele>729.007</ele>
        <time>2022-02-24T18:09:30Z</time>
      </trkpt>
      <trkpt lat="40.393500" lon="-4.250210">
        <ele>729.817</ele>
        <time>2022-02-24T18:10:10Z</time>
      </trkpt>
      <trkpt lat="40.393540" lon="-4.250230">
        <ele>729.808</ele>
        <time>2022-02-24T18:10:50Z</time>
      </trkpt>
      <trkpt lat="40.393710" lon="-4.250290">
        <ele>730.014</ele>
        <time>2022-02-24T18:11:30Z</time>
      </trkpt>
      <trkpt lat="40.393760" lon="-4.250310">
        <ele>730.071</ele>
        <time>2022-02-24T18:12:10Z</time>
      </trkpt>
      <trkpt lat="40.393810" lon="-4.250320">
        <ele>730.075</ele>
        <time>2022-02-24T18:12:50Z</time>
      </trkpt>
      <trkpt lat="40.394100" lon="-4.250370">
        <ele>730.044</ele>
        <time>2022-02-24T18:13:30Z</time>
      </trkpt>
      <trkpt lat="40.394110" lon="-4.250380">
        <ele>730.064</ele>
        <time>2022-02-24T18:14:10Z</time>
      </trkpt>
      <trkpt lat="40.394400" lon="-4.250380">
        <ele>730.097</ele>
        <time>2022-02-24T18:14:50Z</time>
      </trkpt>
      <trkpt lat="40.394460" lon="-4.250380">
        <ele>730.052</ele>
        <time>2022-02-24T18:15:30Z</time>
      </trkpt>
      <trkpt lat="40.394700" lon="-4.250340">
        <ele>730.030</ele>
        <time>2022-02-24T18:16:10Z</time>
      </trkpt>
      <trkpt lat="40.394890" lon="-4.250310">
        <ele>730.163</ele>
        <time>2022-02-24T18:16:50Z</time>
      </trkpt>
      <trkpt lat="40.395170" lon="-4.250260">
        <ele>730.044</ele>
        <time>2022-02-24T18:17:30Z</time>
      </trkpt>
      <trkpt lat="40.395750" lon="-4.250140">
        <ele>730.418</ele>
        <time>2022-02-24T18:18:10Z</time>
      </trkpt>
      <trkpt lat="40.395970" lon="-4.250100">
        <ele>731.708</ele>
        <time>2022-02-24T18:18:50Z</time>
      </trkpt>
      <trkpt lat="40.396190" lon="-4.250050">
        <ele>733.035</ele>
        <time>2022-02-24T18:19:30Z</time>
      </trkpt>
      <trkpt lat="40.396280" lon="-4.250040">
        <ele>733.512</ele>
        <time>2022-02-24T18:20:10Z</time>
      </trkpt>
      <trkpt lat="40.396580" lon="-4.249980">
        <ele>734.756</ele>
        <time>2022-02-24T18:20:50Z</time>
      </trkpt>
      <trkpt lat="40.397100" lon="-4.249880">
        <ele>737.425</ele>
        <time>2022-02-24T18:21:30Z</time>
      </trkpt>
      <trkpt lat="40.397450" lon="-4.249810">
        <ele>738.875</ele>
        <time>2022-02-24T18:22:10Z</time>
      </trkpt>
      <trkpt lat="40.397720" lon="-4.249750">
        <ele>740.778</ele>
        <time>2022-02-24T18:22:50Z</time>
      </trkpt>
      <trkpt lat="40.397880" lon="-4.249720">
        <ele>741.713</ele>
        <time>2022-02-24T18:23:30Z</time>
      </trkpt>
      <trkpt lat="40.397980" lon="-4.249700">
        <ele>742.481</ele>
        <time>2022-02-24T18:24:10Z</time>
      </trkpt>
      <trkpt lat="40.398480" lon="-4.249590">
        <ele>744.315</ele>
        <time>2022-02-24T18:24:50Z</time>
      </trkpt>
      <trkpt lat="40.398610" lon="-4.249560">
        <ele>745.065</ele>
        <time>2022-02-24T18:25:30Z</time>
      </trkpt>
      <trkpt lat="40.398790" lon="-4.249530">
        <ele>745.211</ele>
        <time>2022-02-24T18:26:10Z</time>
      </trkpt>
      <trkpt lat="40.398840" lon="-4.249520">
        <ele>745.208</ele>
        <time>2022-02-24T18:26:50Z</time>
      </trkpt>
      <trkpt lat="40.398960" lon="-4.249500">
        <ele>745.570</ele>
        <time>2022-02-24T18:27:30Z</time>
      </trkpt>
      <trkpt lat="40.399070" lon="-4.249480">
        <ele>745.867</ele>
        <time>2022-02-24T18:28:10Z</time>
      </trkpt>
      <trkpt lat="40.399160" lon="-4.249460">
        <ele>746.051</ele>
        <time>2022-02-24T18:28:50Z</time>
      </trkpt>
      <trkpt lat="40.399250" lon="-4.249450">
        <ele>746.330</ele>
        <time>2022-02-24T18:29:30Z</time>
      </trkpt>
      <trkpt lat="40.399350" lon="-4.249440">
        <ele>746.790</ele>
        <time>2022-02-24T18:30:10Z</time>
      </trkpt>
      <trkpt lat="40.399470" lon="-4.249420">
        <ele>747.123</ele>
        <time>2022-02-24T18:30:50Z</time>
      </trkpt>
      <trkpt lat="40.399520" lon="-4.249410">
        <ele>747.368</ele>
        <time>2022-02-24T18:31:30Z</time>
      </trkpt>
      <trkpt lat="40.399650" lon="-4.249410">
        <ele>747.756</ele>
        <time>2022-02-24T18:32:10Z</time>
      </trkpt>
      <trkpt lat="40.399710" lon="-4.249420">
        <ele>748.058</ele>
        <time>2022-02-24T18:32:50Z</time>
      </trkpt>
      <trkpt lat="40.399800" lon="-4.249440">
        <ele>748.352</ele>
        <time>2022-02-24T18:33:30Z</time>
      </trkpt>
      <trkpt lat="40.399870" lon="-4.249460">
        <ele>748.617</ele>
        <time>2022-02-24T18:34:10Z</time>
      </trkpt>
      <trkpt lat="40.400010" lon="-4.249530">
        <ele>749.308</ele>
        <time>2022-02-24T18:34:50Z</time>
      </trkpt>
      <trkpt lat="40.400080" lon="-4.249570">
        <ele>749.054</ele>
        <time>2022-02-24T18:35:30Z</time>
      </trkpt>
      <trkpt lat="40.400120" lon="-4.249600">
        <ele>748.991</ele>
        <time>2022-02-24T18:36:10Z</time>
      </trkpt>
      <trkpt lat="40.400130" lon="-4.249610">
        <ele>748.815</ele>
        <time>2022-02-24T18:36:50Z</time>
      </trkpt>
      <trkpt lat="40.400200" lon="-4.249670">
        <ele>748.594</ele>
        <time>2022-02-24T18:37:30Z</time>
      </trkpt>
      <trkpt lat="40.400270" lon="-4.249740">
        <ele>748.184</ele>
        <time>2022-02-24T18:38:10Z</time>
      </trkpt>
      <trkpt lat="40.400320" lon="-4.249790">
        <ele>747.697</ele>
        <time>2022-02-24T18:38:50Z</time>
      </trkpt>
      <trkpt lat="40.400370" lon="-4.249860">
        <ele>747.242</ele>
        <time>2022-02-24T18:39:30Z</time>
      </trkpt>
      <trkpt lat="40.400440" lon="-4.249960">
        <ele>746.520</ele>
        <time>2022-02-24T18:40:10Z</time>
      </trkpt>
      <trkpt lat="40.400510" lon="-4.250100">
        <ele>746.367</ele>
        <time>2022-02-24T18:40:50Z</time>
      </trkpt>
      <trkpt lat="40.400560" lon="-4.250240">
        <ele>746.781</ele>
        <time>2022-02-24T18:41:30Z</time>
      </trkpt>
      <trkpt lat="40.400590" lon="-4.250310">
        <ele>747.219</ele>
        <time>2022-02-24T18:42:10Z</time>
      </trkpt>
      <trkpt lat="40.400610" lon="-4.250360">
        <ele>747.508</ele>
        <time>2022-02-24T18:42:50Z</time>
      </trkpt>
      <trkpt lat="40.400630" lon="-4.250420">
        <ele>747.865</ele>
        <time>2022-02-24T18:43:30Z</time>
      </trkpt>
      <trkpt lat="40.400780" lon="-4.250890">
        <ele>749.142</ele>
        <time>2022-02-24T18:44:10Z</time>
      </trkpt>
      <trkpt lat="40.400820" lon="-4.251010">
        <ele>748.596</ele>
        <time>2022-02-24T18:44:50Z</time>
      </trkpt>
      <trkpt lat="40.400850" lon="-4.251100">
        <ele>747.545</ele>
        <time>2022-02-24T18:45:30Z</time>
      </trkpt>
      <trkpt lat="40.400920" lon="-4.251320">
        <ele>744.215</ele>
        <time>2022-02-24T18:46:10Z</time>
      </trkpt>
      <trkpt lat="40.400970" lon="-4.251480">
        <ele>742.918</ele>
        <time>2022-02-24T18:46:50Z</time>
      </trkpt>
      <trkpt lat="40.401070" lon="-4.251750">
        <ele>740.533</ele>
        <time>2022-02-24T18:47:30Z</time>
      </trkpt>
      <trkpt lat="40.401090" lon="-4.251810">
        <ele>739.811</ele>
        <time>2022-02-24T18:48:10Z</time>
      </trkpt>
      <trkpt lat="40.401130" lon="-4.251900">
        <ele>738.895</ele>
        <time>2022-02-24T18:48:50Z</time>
      </trkpt>
      <trkpt lat="40.401160" lon="-4.251970">
        <ele>738.649</ele>
        <time>2022-02-24T18:49:30Z</time>
      </trkpt>
      <trkpt lat="40.401210" lon="-4.252070">
        <ele>738.523</ele>
        <time>2022-02-24T18:50:10Z</time>
      </trkpt>
      <trkpt lat="40.401240" lon="-4.252130">
        <ele>738.608</ele>
        <time>2022-02-24T18:50:50Z</time>
      </trkpt>
      <trkpt lat="40.401250" lon="-4.252150">
        <ele>738.618</ele>
        <time>2022-02-24T18:51:30Z</time>
      </trkpt>
      <trkpt lat="40.401260" lon="-4.252170">
        <ele>738.625</ele>
        <time>2022-02-24T18:52:10Z</time>
      </trkpt>
      <trkpt lat="40.401300" lon="-4.252240">
        <ele>738.889</ele>
        <time>2022-02-24T18:52:50Z</time>
      </trkpt>
      <trkpt lat="40.401340" lon="-4.252300">
        <ele>738.968</ele>
        <time>2022-02-24T18:53:30Z</time>
      </trkpt>
      <trkpt lat="40.401350" lon="-4.252310">
        <ele>738.968</ele>
        <time>2022-02-24T18:54:10Z</time>
      </trkpt>
      <trkpt lat="40.401370" lon="-4.252340">
        <ele>739.071</ele>
        <time>2022-02-24T18:54:50Z</time>
      </trkpt>
      <trkpt lat="40.401400" lon="-4.252380">
        <ele>739.036</ele>
        <time>2022-02-24T18:55:30Z</time>
      </trkpt>
      <trkpt lat="40.401470" lon="-4.252480">
        <ele>739.064</ele>
        <time>2022-02-24T18:56:10Z</time>
      </trkpt>
      <trkpt lat="40.401490" lon="-4.252510">
        <ele>739.058</ele>
        <time>2022-02-24T18:56:50Z</time>
      </trkpt>
      <trkpt lat="40.401930" lon="-4.253040">
        <ele>739.052</ele>
        <time>2022-02-24T18:57:30Z</time>
      </trkpt>
      <trkpt lat="40.402020" lon="-4.253150">
        <ele>738.117</ele>
        <time>2022-02-24T18:58:10Z</time>
      </trkpt>
      <trkpt lat="40.402040" lon="-4.253170">
        <ele>737.808</ele>
        <time>2022-02-24T18:58:50Z</time>
      </trkpt>
      <trkpt lat="40.402140" lon="-4.253280">
        <ele>736.994</ele>
        <time>2022-02-24T18:59:30Z</time>
      </trkpt>
      <trkpt lat="40.402180" lon="-4.253340">
        <ele>736.721</ele>
        <time>2022-02-24T19:00:10Z</time>
      </trkpt>
      <trkpt lat="40.402310" lon="-4.253490">
        <ele>736.255</ele>
        <time>2022-02-24T19:00:50Z</time>
      </trkpt>
      <trkpt lat="40.402460" lon="-4.253700">
        <ele>735.244</ele>
        <time>2022-02-24T19:01:30Z</time>
      </trkpt>
      <trkpt lat="40.402650" lon="-4.253950">
        <ele>731.624</ele>
        <time>2022-02-24T19:02:10Z</time>
      </trkpt>
      <trkpt lat="40.402820" lon="-4.254190">
        <ele>729.647</ele>
        <time>2022-02-24T19:02:50Z</time>
      </trkpt>
      <trkpt lat="40.402900" lon="-4.254300">
        <ele>728.912</ele>
        <time>2022-02-24T19:03:30Z</time>
      </trkpt>
      <trkpt lat="40.403080" lon="-4.254560">
        <ele>727.910</ele>
        <time>2022-02-24T19:04:10Z</time>
      </trkpt>
      <trkpt lat="40.403100" lon="-4.254600">
        <ele>727.889</ele>
        <time>2022-02-24T19:04:50Z</time>
      </trkpt>
      <trkpt lat="40.403140" lon="-4.254640">
        <ele>727.706</ele>
        <time>2022-02-24T19:05:30Z</time>
      </trkpt>
      <trkpt lat="40.403160" lon="-4.254680">
        <ele>727.626</ele>
        <time>2022-02-24T19:06:10Z</time>
      </trkpt>
      <trkpt lat="40.403200" lon="-4.254740">
        <ele>727.508</ele>
        <time>2022-02-24T19:06:50Z</time>
      </trkpt>
      <trkpt lat="40.403250" lon="-4.254840">
        <ele>727.377</ele>
        <time>2022-02-24T19:07:30Z</time>
      </trkpt>
      <trkpt lat="40.403460" lon="-4.255200">
        <ele>726.594</ele>
        <time>2022-02-24T19:08:10Z</time>
      </trkpt>
      <trkpt lat="40.403720" lon="-4.255700">
        <ele>724.518</ele>
        <time>2022-02-24T19:08:50Z</time>
      </trkpt>
      <trkpt lat="40.403870" lon="-4.255980">
        <ele>723.167</ele>
        <time>2022-02-24T19:09:30Z</time>
      </trkpt>
      <trkpt lat="40.403930" lon="-4.256090">
        <ele>722.737</ele>
        <time>2022-02-24T19:10:10Z</time>
      </trkpt>
      <trkpt lat="40.403970" lon="-4.256180">
        <ele>722.270</ele>
        <time>2022-02-24T19:10:50Z</time>
      </trkpt>
      <trkpt lat="40.404060" lon="-4.256340">
        <ele>721.595</ele>
        <time>2022-02-24T19:11:30Z</time>
      </trkpt>
      <trkpt lat="40.404130" lon="-4.256480">
        <ele>720.883</ele>
        <time>2022-02-24T19:12:10Z</time>
      </trkpt>
      <trkpt lat="40.404170" lon="-4.256550">
        <ele>720.474</ele>
        <time>2022-02-24T19:12:50Z</time>
      </trkpt>
      <trkpt lat="40.404180" lon="-4.256560">
        <ele>720.456</ele>
        <time>2022-02-24T19:13:30Z</time>
      </trkpt>
      <trkpt lat="40.404240" lon="-4.256670">
        <ele>720.021</ele>
        <time>2022-02-24T19:14:10Z</time>
      </trkpt>
      <trkpt lat="40.404300" lon="-4.256780">
        <ele>720.008</ele>
        <time>2022-02-24T19:14:50Z</time>
      </trkpt>
      <trkpt lat="40.404350" lon="-4.256850">
        <ele>720.046</ele>
        <time>2022-02-24T19:15:30Z</time>
      </trkpt>
      <trkpt lat="40.404370" lon="-4.256900">
        <ele>720.023</ele>
        <time>2022-02-24T19:16:10Z</time>
      </trkpt>
      <trkpt lat="40.404400" lon="-4.256940">
        <ele>720.047</ele>
        <time>2022-02-24T19:16:50Z</time>
      </trkpt>
      <trkpt lat="40.404440" lon="-4.256990">
        <ele>719.896</ele>
        <time>2022-02-24T19:17:30Z</time>
      </trkpt>
      <trkpt lat="40.404490" lon="-4.257060">
        <ele>719.616</ele>
        <time>2022-02-24T19:18:10Z</time>
      </trkpt>
      <trkpt lat="40.404540" lon="-4.257120">
        <ele>719.499</ele>
        <time>2022-02-24T19:18:50Z</time>
      </trkpt>
      <trkpt lat="40.404610" lon="-4.257190">
        <ele>719.154</ele>
        <time>2022-02-24T19:19:30Z</time>
      </trkpt>
      <trkpt lat="40.404700" lon="-4.257270">
        <ele>718.752</ele>
        <time>2022-02-24T19:20:10Z</time>
      </trkpt>
      <trkpt lat="40.404770" lon="-4.257330">
        <ele>718.223</ele>
        <time>2022-02-24T19:20:50Z</time>
      </trkpt>
      <trkpt lat="40.404820" lon="-4.257370">
        <ele>717.983</ele>
        <time>2022-02-24T19:21:30Z</time>
      </trkpt>
      <trkpt lat="40.404860" lon="-4.257390">
        <ele>717.811</ele>
        <time>2022-02-24T19:22:10Z</time>
      </trkpt>
      <trkpt lat="40.404910" lon="-4.257420">
        <ele>717.608</ele>
        <time>2022-02-24T19:22:50Z</time>
      </trkpt>
      <trkpt lat="40.404990" lon="-4.257460">
        <ele>717.371</ele>
        <time>2022-02-24T19:23:30Z</time>
      </trkpt>
      <trkpt lat="40.405080" lon="-4.257510">
        <ele>716.988</ele>
        <time>2022-02-24T19:24:10Z</time>
      </trkpt>
      <trkpt lat="40.405160" lon="-4.257550">
        <ele>716.612</ele>
        <time>2022-02-24T19:24:50Z</time>
      </trkpt>
      <trkpt lat="40.405250" lon="-4.257590">
        <ele>716.481</ele>
        <time>2022-02-24T19:25:30Z</time>
      </trkpt>
      <trkpt lat="40.405320" lon="-4.257630">
        <ele>716.081</ele>
        <time>2022-02-24T19:26:10Z</time>
      </trkpt>
      <trkpt lat="40.405360" lon="-4.257650">
        <ele>715.814</ele>
        <time>2022-02-24T19:26:50Z</time>
      </trkpt>
      <trkpt lat="40.405410" lon="-4.257680">
        <ele>715.489</ele>
        <time>2022-02-24T19:27:30Z</time>
      </trkpt>
      <trkpt lat="40.405540" lon="-4.257750">
        <ele>714.467</ele>
        <time>2022-02-24T19:28:10Z</time>
      </trkpt>
      <trkpt lat="40.405570" lon="-4.257770">
        <ele>713.919</ele>
        <time>2022-02-24T19:28:50Z</time>
      </trkpt>
      <trkpt lat="40.405690" lon="-4.257840">
        <ele>711.709</ele>
        <time>2022-02-24T19:29:30Z</time>
      </trkpt>
      <trkpt lat="40.405740" lon="-4.257880">
        <ele>710.919</ele>
        <time>2022-02-24T19:30:10Z</time>
      </trkpt>
      <trkpt lat="40.405840" lon="-4.257940">
        <ele>709.408</ele>
        <time>2022-02-24T19:30:50Z</time>
      </trkpt>
      <trkpt lat="40.405900" lon="-4.257990">
        <ele>708.950</ele>
        <time>2022-02-24T19:31:30Z</time>
      </trkpt>
      <trkpt lat="40.405920" lon="-4.258010">
        <ele>708.637</ele>
        <time>2022-02-24T19:32:10Z</time>
      </trkpt>
      <trkpt lat="40.406030" lon="-4.258110">
        <ele>707.281</ele>
        <time>2022-02-24T19:32:50Z</time>
      </trkpt>
      <trkpt lat="40.406050" lon="-4.258130">
        <ele>707.040</ele>
        <time>2022-02-24T19:33:30Z</time>
      </trkpt>
      <trkpt lat="40.406046" lon="-4.258128">
        <ele>707.020</ele>
        <time>2022-02-24T19:34:10Z</time>
      </trkpt>
      <trkpt lat="40.406070" lon="-4.258120">
        <ele>706.973</ele>
        <time>2022-02-24T19:34:50Z</time>
      </trkpt>
      <trkpt lat="40.406080" lon="-4.258120">
        <ele>706.868</ele>
        <time>2022-02-24T19:35:30Z</time>
      </trkpt>
      <trkpt lat="40.406090" lon="-4.258120">
        <ele>706.786</ele>
        <time>2022-02-24T19:36:10Z</time>
      </trkpt>
      <trkpt lat="40.406100" lon="-4.258120">
        <ele>706.664</ele>
        <time>2022-02-24T19:36:50Z</time>
      </trkpt>
      <trkpt lat="40.406120" lon="-4.258120">
        <ele>706.506</ele>
        <time>2022-02-24T19:37:30Z</time>
      </trkpt>
      <trkpt lat="40.406170" lon="-4.258130">
        <ele>706.016</ele>
        <time>2022-02-24T19:38:10Z</time>
      </trkpt>
      <trkpt lat="40.406190" lon="-4.258140">
        <ele>705.808</ele>
        <time>2022-02-24T19:38:50Z</time>
      </trkpt>
      <trkpt lat="40.406210" lon="-4.258140">
        <ele>705.745</ele>
        <time>2022-02-24T19:39:30Z</time>
      </trkpt>
      <trkpt lat="40.406240" lon="-4.258140">
        <ele>705.572</ele>
        <time>2022-02-24T19:40:10Z</time>
      </trkpt>
      <trkpt lat="40.406260" lon="-4.258150">
        <ele>705.286</ele>
        <time>2022-02-24T19:40:50Z</time>
      </trkpt>
      <trkpt lat="40.406280" lon="-4.258150">
        <ele>705.155</ele>
        <time>2022-02-24T19:41:30Z</time>
      </trkpt>
      <trkpt lat="40.406310" lon="-4.258150">
        <ele>704.975</ele>
        <time>2022-02-24T19:42:10Z</time>
      </trkpt>
      <trkpt lat="40.406330" lon="-4.258150">
        <ele>704.738</ele>
        <time>2022-02-24T19:42:50Z</time>
      </trkpt>
      <trkpt lat="40.406370" lon="-4.258160">
        <ele>704.433</ele>
        <time>2022-02-24T19:43:30Z</time>
      </trkpt>
      <trkpt lat="40.406410" lon="-4.258170">
        <ele>704.121</ele>
        <time>2022-02-24T19:44:10Z</time>
      </trkpt>
      <trkpt lat="40.406440" lon="-4.258180">
        <ele>703.827</ele>
        <time>2022-02-24T19:44:50Z</time>
      </trkpt>
      <trkpt lat="40.406460" lon="-4.258170">
        <ele>703.868</ele>
        <time>2022-02-24T19:45:30Z</time>
      </trkpt>
      <trkpt lat="40.406660" lon="-4.258040">
        <ele>704.114</ele>
        <time>2022-02-24T19:46:10Z</time>
      </trkpt>
      <trkpt lat="40.406750" lon="-4.257980">
        <ele>703.708</ele>
        <time>2022-02-24T19:46:50Z</time>
      </trkpt>
      <trkpt lat="40.406830" lon="-4.257920">
        <ele>703.581</ele>
        <time>2022-02-24T19:47:30Z</time>
      </trkpt>
      <trkpt lat="40.406910" lon="-4.257870">
        <ele>703.358</ele>
        <time>2022-02-24T19:48:10Z</time>
      </trkpt>
      <trkpt lat="40.406920" lon="-4.257870">
        <ele>703.252</ele>
        <time>2022-02-24T19:48:50Z</time>
      </trkpt>
      <trkpt lat="40.406980" lon="-4.257830">
        <ele>703.231</ele>
        <time>2022-02-24T19:49:30Z</time>
      </trkpt>
      <trkpt lat="40.407110" lon="-4.257740">
        <ele>703.291</ele>
        <time>2022-02-24T19:50:10Z</time>
      </trkpt>
      <trkpt lat="40.407170" lon="-4.257700">
        <ele>703.294</ele>
        <time>2022-02-24T19:50:50Z</time>
      </trkpt>
      <trkpt lat="40.407230" lon="-4.257680">
        <ele>703.059</ele>
        <time>2022-02-24T19:51:30Z</time>
      </trkpt>
      <trkpt lat="40.407280" lon="-4.257650">
        <ele>702.947</ele>
        <time>2022-02-24T19:52:10Z</time>
      </trkpt>
      <trkpt lat="40.407330" lon="-4.257630">
        <ele>702.654</ele>
        <time>2022-02-24T19:52:50Z</time>
      </trkpt>
      <trkpt lat="40.407400" lon="-4.257610">
        <ele>702.156</ele>
        <time>2022-02-24T19:53:30Z</time>
      </trkpt>
      <trkpt lat="40.407420" lon="-4.257610">
        <ele>702.011</ele>
        <time>2022-02-24T19:54:10Z</time>
      </trkpt>
      <trkpt lat="40.407470" lon="-4.257610">
        <ele>701.508</ele>
        <time>2022-02-24T19:54:50Z</time>
      </trkpt>
      <trkpt lat="40.407520" lon="-4.257610">
        <ele>701.284</ele>
        <time>2022-02-24T19:55:30Z</time>
      </trkpt>
      <trkpt lat="40.407550" lon="-4.257610">
        <ele>701.211</ele>
        <time>2022-02-24T19:56:10Z</time>
      </trkpt>
      <trkpt lat="40.407610" lon="-4.257610">
        <ele>701.265</ele>
        <time>2022-02-24T19:56:50Z</time>
      </trkpt>
      <trkpt lat="40.407700" lon="-4.257640">
        <ele>701.074</ele>
        <time>2022-02-24T19:57:30Z</time>
      </trkpt>
      <trkpt lat="40.407750" lon="-4.257660">
        <ele>700.844</ele>
        <time>2022-02-24T19:58:10Z</time>
      </trkpt>
      <trkpt lat="40.407760" lon="-4.257660">
        <ele>700.897</ele>
        <time>2022-02-24T19:58:50Z</time>
      </trkpt>
      <trkpt lat="40.407800" lon="-4.257670">
        <ele>700.882</ele>
        <time>2022-02-24T19:59:30Z</time>
      </trkpt>
      <trkpt lat="40.407840" lon="-4.257690">
        <ele>700.690</ele>
        <time>2022-02-24T20:00:10Z</time>
      </trkpt>
      <trkpt lat="40.407880" lon="-4.257710">
        <ele>700.569</ele>
        <time>2022-02-24T20:00:50Z</time>
      </trkpt>
      <trkpt lat="40.407950" lon="-4.257760">
        <ele>700.104</ele>
        <time>2022-02-24T20:01:30Z</time>
      </trkpt>
      <trkpt lat="40.408040" lon="-4.257810">
        <ele>700.024</ele>
        <time>2022-02-24T20:02:10Z</time>
      </trkpt>
      <trkpt lat="40.408130" lon="-4.257880">
        <ele>701.208</ele>
        <time>2022-02-24T20:02:50Z</time>
      </trkpt>
      <trkpt lat="40.408170" lon="-4.257910">
        <ele>701.965</ele>
        <time>2022-02-24T20:03:30Z</time>
      </trkpt>
      <trkpt lat="40.408200" lon="-4.257930">
        <ele>702.322</ele>
        <time>2022-02-24T20:04:10Z</time>
      </trkpt>
      <trkpt lat="40.408240" lon="-4.257960">
        <ele>702.926</ele>
        <time>2022-02-24T20:04:50Z</time>
      </trkpt>
      <trkpt lat="40.408310" lon="-4.258010">
        <ele>703.895</ele>
        <time>2022-02-24T20:05:30Z</time>
      </trkpt>
      <trkpt lat="40.408370" lon="-4.258060">
        <ele>704.725</ele>
        <time>2022-02-24T20:06:10Z</time>
      </trkpt>
      <trkpt lat="40.408550" lon="-4.258200">
        <ele>708.078</ele>
        <time>2022-02-24T20:06:50Z</time>
      </trkpt>
      <trkpt lat="40.408560" lon="-4.258210">
        <ele>708.223</ele>
        <time>2022-02-24T20:07:30Z</time>
      </trkpt>
      <trkpt lat="40.408670" lon="-4.258310">
        <ele>709.231</ele>
        <time>2022-02-24T20:08:10Z</time>
      </trkpt>
      <trkpt lat="40.408700" lon="-4.258330">
        <ele>709.383</ele>
        <time>2022-02-24T20:08:50Z</time>
      </trkpt>
      <trkpt lat="40.408710" lon="-4.258350">
        <ele>709.425</ele>
        <time>2022-02-24T20:09:30Z</time>
      </trkpt>
      <trkpt lat="40.408730" lon="-4.258370">
        <ele>709.517</ele>
        <time>2022-02-24T20:10:10Z</time>
      </trkpt>
      <trkpt lat="40.408790" lon="-4.258430">
        <ele>709.808</ele>
        <time>2022-02-24T20:10:50Z</time>
      </trkpt>
      <trkpt lat="40.408830" lon="-4.258480">
        <ele>709.987</ele>
        <time>2022-02-24T20:11:30Z</time>
      </trkpt>
      <trkpt lat="40.408830" lon="-4.258490">
        <ele>709.954</ele>
        <time>2022-02-24T20:12:10Z</time>
      </trkpt>
      <trkpt lat="40.408870" lon="-4.258530">
        <ele>710.098</ele>
        <time>2022-02-24T20:12:50Z</time>
      </trkpt>
      <trkpt lat="40.408960" lon="-4.258660">
        <ele>710.267</ele>
        <time>2022-02-24T20:13:30Z</time>
      </trkpt>
      <trkpt lat="40.408970" lon="-4.258680">
        <ele>710.237</ele>
        <time>2022-02-24T20:14:10Z</time>
      </trkpt>
      <trkpt lat="40.409060" lon="-4.258830">
        <ele>710.820</ele>
        <time>2022-02-24T20:14:50Z</time>
      </trkpt>
      <trkpt lat="40.409080" lon="-4.258860">
        <ele>710.915</ele>
        <time>2022-02-24T20:15:30Z</time>
      </trkpt>
      <trkpt lat="40.409160" lon="-4.259030">
        <ele>711.553</ele>
        <time>2022-02-24T20:16:10Z</time>
      </trkpt>
      <trkpt lat="40.409180" lon="-4.259060">
        <ele>711.775</ele>
        <time>2022-02-24T20:16:50Z</time>
      </trkpt>
      <trkpt lat="40.409270" lon="-4.259240">
        <ele>712.728</ele>
        <time>2022-02-24T20:17:30Z</time>
      </trkpt>
      <trkpt lat="40.409280" lon="-4.259260">
        <ele>712.920</ele>
        <time>2022-02-24T20:18:10Z</time>
      </trkpt>
      <trkpt lat="40.409290" lon="-4.259300">
        <ele>713.108</ele>
        <time>2022-02-24T20:18:50Z</time>
      </trkpt>
      <trkpt lat="40.409340" lon="-4.259400">
        <ele>714.086</ele>
        <time>2022-02-24T20:19:30Z</time>
      </trkpt>
      <trkpt lat="40.409360" lon="-4.259440">
        <ele>714.433</ele>
        <time>2022-02-24T20:20:10Z</time>
      </trkpt>
      <trkpt lat="40.409380" lon="-4.259460">
        <ele>714.667</ele>
        <time>2022-02-24T20:20:50Z</time>
      </trkpt>
      <trkpt lat="40.409460" lon="-4.259610">
        <ele>715.716</ele>
        <time>2022-02-24T20:21:30Z</time>
      </trkpt>
      <trkpt lat="40.409470" lon="-4.259630">
        <ele>715.886</ele>
        <time>2022-02-24T20:22:10Z</time>
      </trkpt>
      <trkpt lat="40.409480" lon="-4.259640">
        <ele>715.849</ele>
        <time>2022-02-24T20:22:50Z</time>
      </trkpt>
      <trkpt lat="40.409540" lon="-4.259730">
        <ele>716.484</ele>
        <time>2022-02-24T20:23:30Z</time>
      </trkpt>
      <trkpt lat="40.409590" lon="-4.259800">
        <ele>717.162</ele>
        <time>2022-02-24T20:24:10Z</time>
      </trkpt>
      <trkpt lat="40.409600" lon="-4.259820">
        <ele>717.312</ele>
        <time>2022-02-24T20:24:50Z</time>
      </trkpt>
      <trkpt lat="40.409660" lon="-4.259880">
        <ele>717.932</ele>
        <time>2022-02-24T20:25:30Z</time>
      </trkpt>
      <trkpt lat="40.409710" lon="-4.259940">
        <ele>718.505</ele>
        <time>2022-02-24T20:26:10Z</time>
      </trkpt>
      <trkpt lat="40.409730" lon="-4.259960">
        <ele>718.708</ele>
        <time>2022-02-24T20:26:50Z</time>
      </trkpt>
      <trkpt lat="40.409770" lon="-4.260000">
        <ele>719.220</ele>
        <time>2022-02-24T20:27:30Z</time>
      </trkpt>
      <trkpt lat="40.409870" lon="-4.260090">
        <ele>720.247</ele>
        <time>2022-02-24T20:28:10Z</time>
      </trkpt>
      <trkpt lat="40.409970" lon="-4.260180">
        <ele>721.281</ele>
        <time>2022-02-24T20:28:50Z</time>
      </trkpt>
      <trkpt lat="40.410010" lon="-4.260210">
        <ele>721.680</ele>
        <time>2022-02-24T20:29:30Z</time>
      </trkpt>
      <trkpt lat="40.410040" lon="-4.260230">
        <ele>721.880</ele>
        <time>2022-02-24T20:30:10Z</time>
      </trkpt>
      <trkpt lat="40.410060" lon="-4.260250">
        <ele>722.063</ele>
        <time>2022-02-24T20:30:50Z</time>
      </trkpt>
      <trkpt lat="40.410150" lon="-4.260300">
        <ele>722.728</ele>
        <time>2022-02-24T20:31:30Z</time>
      </trkpt>
      <trkpt lat="40.410190" lon="-4.260320">
        <ele>723.016</ele>
        <time>2022-02-24T20:32:10Z</time>
      </trkpt>
      <trkpt lat="40.410200" lon="-4.260330">
        <ele>723.113</ele>
        <time>2022-02-24T20:32:50Z</time>
      </trkpt>
      <trkpt lat="40.410220" lon="-4.260330">
        <ele>723.243</ele>
        <time>2022-02-24T20:33:30Z</time>
      </trkpt>
      <trkpt lat="40.410270" lon="-4.260350">
        <ele>723.507</ele>
        <time>2022-02-24T20:34:10Z</time>
      </trkpt>
      <trkpt lat="40.410360" lon="-4.260380">
        <ele>724.308</ele>
        <time>2022-02-24T20:34:50Z</time>
      </trkpt>
      <trkpt lat="40.410460" lon="-4.260400">
        <ele>725.210</ele>
        <time>2022-02-24T20:35:30Z</time>
      </trkpt>
      <trkpt lat="40.410540" lon="-4.260420">
        <ele>725.967</ele>
        <time>2022-02-24T20:36:10Z</time>
      </trkpt>
      <trkpt lat="40.410640" lon="-4.260430">
        <ele>726.721</ele>
        <time>2022-02-24T20:36:50Z</time>
      </trkpt>
      <trkpt lat="40.410700" lon="-4.260430">
        <ele>727.110</ele>
        <time>2022-02-24T20:37:30Z</time>
      </trkpt>
      <trkpt lat="40.410730" lon="-4.260440">
        <ele>727.430</ele>
        <time>2022-02-24T20:38:10Z</time>
      </trkpt>
      <trkpt lat="40.410920" lon="-4.260460">
        <ele>728.623</ele>
        <time>2022-02-24T20:38:50Z</time>
      </trkpt>
      <trkpt lat="40.411120" lon="-4.260490">
        <ele>729.578</ele>
        <time>2022-02-24T20:39:30Z</time>
      </trkpt>
      <trkpt lat="40.411340" lon="-4.260510">
        <ele>729.066</ele>
        <time>2022-02-24T20:40:10Z</time>
      </trkpt>
      <trkpt lat="40.411450" lon="-4.260530">
        <ele>729.132</ele>
        <time>2022-02-24T20:40:50Z</time>
      </trkpt>
      <trkpt lat="40.411520" lon="-4.260540">
        <ele>729.492</ele>
        <time>2022-02-24T20:41:30Z</time>
      </trkpt>
      <trkpt lat="40.411710" lon="-4.260560">
        <ele>730.011</ele>
        <time>2022-02-24T20:42:10Z</time>
      </trkpt>
      <trkpt lat="40.411930" lon="-4.260580">
        <ele>730.308</ele>
        <time>2022-02-24T20:42:50Z</time>
      </trkpt>
      <trkpt lat="40.412310" lon="-4.260630">
        <ele>732.932</ele>
        <time>2022-02-24T20:43:30Z</time>
      </trkpt>
      <trkpt lat="40.412330" lon="-4.260630">
        <ele>732.919</ele>
        <time>2022-02-24T20:44:10Z</time>
      </trkpt>
      <trkpt lat="40.412510" lon="-4.260650">
        <ele>733.723</ele>
        <time>2022-02-24T20:44:50Z</time>
      </trkpt>
      <trkpt lat="40.412700" lon="-4.260670">
        <ele>734.582</ele>
        <time>2022-02-24T20:45:30Z</time>
      </trkpt>
      <trkpt lat="40.412710" lon="-4.260670">
        <ele>734.622</ele>
        <time>2022-02-24T20:46:10Z</time>
      </trkpt>
      <trkpt lat="40.412920" lon="-4.260700">
        <ele>737.185</ele>
        <time>2022-02-24T20:46:50Z</time>
      </trkpt>
      <trkpt lat="40.413050" lon="-4.260720">
        <ele>739.150</ele>
        <time>2022-02-24T20:47:30Z</time>
      </trkpt>
      <trkpt lat="40.413100" lon="-4.260730">
        <ele>739.478</ele>
        <time>2022-02-24T20:48:10Z</time>
      </trkpt>
      <trkpt lat="40.413190" lon="-4.260740">
        <ele>739.868</ele>
        <time>2022-02-24T20:48:50Z</time>
      </trkpt>
      <trkpt lat="40.413250" lon="-4.260760">
        <ele>740.242</ele>
        <time>2022-02-24T20:49:30Z</time>
      </trkpt>
      <trkpt lat="40.413350" lon="-4.260790">
        <ele>740.726</ele>
        <time>2022-02-24T20:50:10Z</time>
      </trkpt>
      <trkpt lat="40.413400" lon="-4.260800">
        <ele>740.808</ele>
        <time>2022-02-24T20:50:50Z</time>
      </trkpt>
      <trkpt lat="40.413500" lon="-4.260830">
        <ele>741.075</ele>
        <time>2022-02-24T20:51:30Z</time>
      </trkpt>
      <trkpt lat="40.413570" lon="-4.260860">
        <ele>741.122</ele>
        <time>2022-02-24T20:52:10Z</time>
      </trkpt>
      <trkpt lat="40.413580" lon="-4.260860">
        <ele>741.176</ele>
        <time>2022-02-24T20:52:50Z</time>
      </trkpt>
      <trkpt lat="40.413780" lon="-4.260940">
        <ele>742.895</ele>
        <time>2022-02-24T20:53:30Z</time>
      </trkpt>
      <trkpt lat="40.414160" lon="-4.261070">
        <ele>745.745</ele>
        <time>2022-02-24T20:54:10Z</time>
      </trkpt>
      <trkpt lat="40.414360" lon="-4.261150">
        <ele>747.168</ele>
        <time>2022-02-24T20:54:50Z</time>
      </trkpt>
      <trkpt lat="40.414540" lon="-4.261210">
        <ele>748.323</ele>
        <time>2022-02-24T20:55:30Z</time>
      </trkpt>
      <trkpt lat="40.414610" lon="-4.261240">
        <ele>748.791</ele>
        <time>2022-02-24T20:56:10Z</time>
      </trkpt>
      <trkpt lat="40.414820" lon="-4.261330">
        <ele>749.643</ele>
        <time>2022-02-24T20:56:50Z</time>
      </trkpt>
      <trkpt lat="40.414880" lon="-4.261360">
        <ele>749.864</ele>
        <time>2022-02-24T20:57:30Z</time>
      </trkpt>
      <trkpt lat="40.414900" lon="-4.261370">
        <ele>749.910</ele>
        <time>2022-02-24T20:58:10Z</time>
      </trkpt>
      <trkpt lat="40.414990" lon="-4.261420">
        <ele>750.308</ele>
        <time>2022-02-24T20:58:50Z</time>
      </trkpt>
      <trkpt lat="40.415170" lon="-4.261520">
        <ele>751.793</ele>
        <time>2022-02-24T20:59:30Z</time>
      </trkpt>
      <trkpt lat="40.415300" lon="-4.261600">
        <ele>752.560</ele>
        <time>2022-02-24T21:00:10Z</time>
      </trkpt>
      <trkpt lat="40.415350" lon="-4.261630">
        <ele>752.774</ele>
        <time>2022-02-24T21:00:50Z</time>
      </trkpt>
      <trkpt lat="40.415510" lon="-4.261720">
        <ele>753.473</ele>
        <time>2022-02-24T21:01:30Z</time>
      </trkpt>
      <trkpt lat="40.415740" lon="-4.261860">
        <ele>754.473</ele>
        <time>2022-02-24T21:02:10Z</time>
      </trkpt>
      <trkpt lat="40.415780" lon="-4.261890">
        <ele>754.686</ele>
        <time>2022-02-24T21:02:50Z</time>
      </trkpt>
      <trkpt lat="40.415860" lon="-4.261930">
        <ele>755.081</ele>
        <time>2022-02-24T21:03:30Z</time>
      </trkpt>
      <trkpt lat="40.415930" lon="-4.261970">
        <ele>755.669</ele>
        <time>2022-02-24T21:04:10Z</time>
      </trkpt>
      <trkpt lat="40.416090" lon="-4.262060">
        <ele>756.839</ele>
        <time>2022-02-24T21:04:50Z</time>
      </trkpt>
      <trkpt lat="40.416100" lon="-4.262070">
        <ele>756.901</ele>
        <time>2022-02-24T21:05:30Z</time>
      </trkpt>
      <trkpt lat="40.416280" lon="-4.262170">
        <ele>758.321</ele>
        <time>2022-02-24T21:06:10Z</time>
      </trkpt>
      <trkpt lat="40.416360" lon="-4.262220">
        <ele>758.908</ele>
        <time>2022-02-24T21:06:50Z</time>
      </trkpt>
      <trkpt lat="40.416460" lon="-4.262280">
        <ele>760.162</ele>
        <time>2022-02-24T21:07:30Z</time>
      </trkpt>
      <trkpt lat="40.416550" lon="-4.262330">
        <ele>761.199</ele>
        <time>2022-02-24T21:08:10Z</time>
      </trkpt>
      <trkpt lat="40.416690" lon="-4.262410">
        <ele>762.493</ele>
        <time>2022-02-24T21:08:50Z</time>
      </trkpt>
      <trkpt lat="40.416830" lon="-4.262500">
        <ele>763.692</ele>
        <time>2022-02-24T21:09:30Z</time>
      </trkpt>
      <trkpt lat="40.416970" lon="-4.262570">
        <ele>764.642</ele>
        <time>2022-02-24T21:10:10Z</time>
      </trkpt>
      <trkpt lat="40.417010" lon="-4.262600">
        <ele>765.015</ele>
        <time>2022-02-24T21:10:50Z</time>
      </trkpt>
      <trkpt lat="40.417040" lon="-4.262620">
        <ele>765.260</ele>
        <time>2022-02-24T21:11:30Z</time>
      </trkpt>
      <trkpt lat="40.417100" lon="-4.262650">
        <ele>765.658</ele>
        <time>2022-02-24T21:12:10Z</time>
      </trkpt>
      <trkpt lat="40.417180" lon="-4.262700">
        <ele>766.345</ele>
        <time>2022-02-24T21:12:50Z</time>
      </trkpt>
      <trkpt lat="40.417250" lon="-4.262740">
        <ele>766.847</ele>
        <time>2022-02-24T21:13:30Z</time>
      </trkpt>
      <trkpt lat="40.417260" lon="-4.262750">
        <ele>767.011</ele>
        <time>2022-02-24T21:14:10Z</time>
      </trkpt>
      <trkpt lat="40.417370" lon="-4.262800">
        <ele>767.808</ele>
        <time>2022-02-24T21:14:50Z</time>
      </trkpt>
      <trkpt lat="40.417440" lon="-4.262820">
        <ele>768.233</ele>
        <time>2022-02-24T21:15:30Z</time>
      </trkpt>
      <trkpt lat="40.417460" lon="-4.262830">
        <ele>768.410</ele>
        <time>2022-02-24T21:16:10Z</time>
      </trkpt>
      <trkpt lat="40.417500" lon="-4.262850">
        <ele>768.814</ele>
        <time>2022-02-24T21:16:50Z</time>
      </trkpt>
      <trkpt lat="40.417550" lon="-4.262860">
        <ele>769.023</ele>
        <time>2022-02-24T21:17:30Z</time>
      </trkpt>
      <trkpt lat="40.417620" lon="-4.262880">
        <ele>769.433</ele>
        <time>2022-02-24T21:18:10Z</time>
      </trkpt>
      <trkpt lat="40.417730" lon="-4.262900">
        <ele>769.876</ele>
        <time>2022-02-24T21:18:50Z</time>
      </trkpt>
      <trkpt lat="40.417840" lon="-4.262930">
        <ele>770.221</ele>
        <time>2022-02-24T21:19:30Z</time>
      </trkpt>
      <trkpt lat="40.417880" lon="-4.262940">
        <ele>770.449</ele>
        <time>2022-02-24T21:20:10Z</time>
      </trkpt>
      <trkpt lat="40.417920" lon="-4.262940">
        <ele>770.522</ele>
        <time>2022-02-24T21:20:50Z</time>
      </trkpt>
      <trkpt lat="40.418110" lon="-4.262970">
        <ele>771.562</ele>
        <time>2022-02-24T21:21:30Z</time>
      </trkpt>
      <trkpt lat="40.418310" lon="-4.263000">
        <ele>773.208</ele>
        <time>2022-02-24T21:22:10Z</time>
      </trkpt>
      <trkpt lat="40.418520" lon="-4.263040">
        <ele>775.908</ele>
        <time>2022-02-24T21:22:50Z</time>
      </trkpt>
      <trkpt lat="40.418710" lon="-4.263070">
        <ele>777.531</ele>
        <time>2022-02-24T21:23:30Z</time>
      </trkpt>
      <trkpt lat="40.418890" lon="-4.263090">
        <ele>778.268</ele>
        <time>2022-02-24T21:24:10Z</time>
      </trkpt>
      <trkpt lat="40.418950" lon="-4.263100">
        <ele>778.482</ele>
        <time>2022-02-24T21:24:50Z</time>
      </trkpt>
      <trkpt lat="40.419090" lon="-4.263130">
        <ele>778.751</ele>
        <time>2022-02-24T21:25:30Z</time>
      </trkpt>
      <trkpt lat="40.419210" lon="-4.263150">
        <ele>779.351</ele>
        <time>2022-02-24T21:26:10Z</time>
      </trkpt>
      <trkpt lat="40.419290" lon="-4.263170">
        <ele>780.134</ele>
        <time>2022-02-24T21:26:50Z</time>
      </trkpt>
      <trkpt lat="40.419310" lon="-4.263170">
        <ele>780.329</ele>
        <time>2022-02-24T21:27:30Z</time>
      </trkpt>
      <trkpt lat="40.419400" lon="-4.263180">
        <ele>781.027</ele>
        <time>2022-02-24T21:28:10Z</time>
      </trkpt>
      <trkpt lat="40.419490" lon="-4.263190">
        <ele>781.696</ele>
        <time>2022-02-24T21:28:50Z</time>
      </trkpt>
      <trkpt lat="40.419870" lon="-4.263220">
        <ele>783.531</ele>
        <time>2022-02-24T21:29:30Z</time>
      </trkpt>
      <trkpt lat="40.420050" lon="-4.263240">
        <ele>784.724</ele>
        <time>2022-02-24T21:30:10Z</time>
      </trkpt>
      <trkpt lat="40.420100" lon="-4.263240">
        <ele>785.008</ele>
        <time>2022-02-24T21:30:50Z</time>
      </trkpt>
      <trkpt lat="40.420200" lon="-4.263250">
        <ele>785.838</ele>
        <time>2022-02-24T21:31:30Z</time>
      </trkpt>
      <trkpt lat="40.420310" lon="-4.263260">
        <ele>786.685</ele>
        <time>2022-02-24T21:32:10Z</time>
      </trkpt>
      <trkpt lat="40.420430" lon="-4.263270">
        <ele>787.159</ele>
        <time>2022-02-24T21:32:50Z</time>
      </trkpt>
      <trkpt lat="40.420630" lon="-4.263290">
        <ele>788.288</ele>
        <time>2022-02-24T21:33:30Z</time>
      </trkpt>
      <trkpt lat="40.420660" lon="-4.263290">
        <ele>788.488</ele>
        <time>2022-02-24T21:34:10Z</time>
      </trkpt>
      <trkpt lat="40.420680" lon="-4.263290">
        <ele>788.671</ele>
        <time>2022-02-24T21:34:50Z</time>
      </trkpt>
      <trkpt lat="40.420870" lon="-4.263300">
        <ele>789.896</ele>
        <time>2022-02-24T21:35:30Z</time>
      </trkpt>
      <trkpt lat="40.421020" lon="-4.263310">
        <ele>789.814</ele>
        <time>2022-02-24T21:36:10Z</time>
      </trkpt>
      <trkpt lat="40.421070" lon="-4.263310">
        <ele>789.866</ele>
        <time>2022-02-24T21:36:50Z</time>
      </trkpt>
      <trkpt lat="40.421280" lon="-4.263310">
        <ele>789.829</ele>
        <time>2022-02-24T21:37:30Z</time>
      </trkpt>
      <trkpt lat="40.421470" lon="-4.263320">
        <ele>789.921</ele>
        <time>2022-02-24T21:38:10Z</time>
      </trkpt>
      <trkpt lat="40.421660" lon="-4.263310">
        <ele>789.808</ele>
        <time>2022-02-24T21:38:50Z</time>
      </trkpt>
      <trkpt lat="40.421860" lon="-4.263310">
        <ele>789.285</ele>
        <time>2022-02-24T21:39:30Z</time>
      </trkpt>
      <trkpt lat="40.422040" lon="-4.263300">
        <ele>788.842</ele>
        <time>2022-02-24T21:40:10Z</time>
      </trkpt>
      <trkpt lat="40.422090" lon="-4.263300">
        <ele>788.866</ele>
        <time>2022-02-24T21:40:50Z</time>
      </trkpt>
      <trkpt lat="40.422250" lon="-4.263290">
        <ele>788.785</ele>
        <time>2022-02-24T21:41:30Z</time>
      </trkpt>
      <trkpt lat="40.422440" lon="-4.263280">
        <ele>788.875</ele>
        <time>2022-02-24T21:42:10Z</time>
      </trkpt>
      <trkpt lat="40.422590" lon="-4.263270">
        <ele>789.128</ele>
        <time>2022-02-24T21:42:50Z</time>
      </trkpt>
      <trkpt lat="40.422620" lon="-4.263270">
        <ele>789.283</ele>
        <time>2022-02-24T21:43:30Z</time>
      </trkpt>
      <trkpt lat="40.422830" lon="-4.263260">
        <ele>790.141</ele>
        <time>2022-02-24T21:44:10Z</time>
      </trkpt>
      <trkpt lat="40.423030" lon="-4.263250">
        <ele>791.577</ele>
        <time>2022-02-24T21:44:50Z</time>
      </trkpt>
      <trkpt lat="40.423230" lon="-4.263240">
        <ele>794.061</ele>
        <time>2022-02-24T21:45:30Z</time>
      </trkpt>
      <trkpt lat="40.423430" lon="-4.263220">
        <ele>795.527</ele>
        <time>2022-02-24T21:46:10Z</time>
      </trkpt>
      <trkpt lat="40.423630" lon="-4.263220">
        <ele>796.108</ele>
        <time>2022-02-24T21:46:50Z</time>
      </trkpt>
      <trkpt lat="40.423810" lon="-4.263210">
        <ele>795.486</ele>
        <time>2022-02-24T21:47:30Z</time>
      </trkpt>
      <trkpt lat="40.423830" lon="-4.263210">
        <ele>795.393</ele>
        <time>2022-02-24T21:48:10Z</time>
      </trkpt>
      <trkpt lat="40.423880" lon="-4.263210">
        <ele>795.127</ele>
        <time>2022-02-24T21:48:50Z</time>
      </trkpt>
      <trkpt lat="40.424270" lon="-4.263180">
        <ele>796.666</ele>
        <time>2022-02-24T21:49:30Z</time>
      </trkpt>
      <trkpt lat="40.424350" lon="-4.263170">
        <ele>796.726</ele>
        <time>2022-02-24T21:50:10Z</time>
      </trkpt>
      <trkpt lat="40.424470" lon="-4.263160">
        <ele>796.839</ele>
        <time>2022-02-24T21:50:50Z</time>
      </trkpt>
      <trkpt lat="40.424600" lon="-4.263150">
        <ele>797.234</ele>
        <time>2022-02-24T21:51:30Z</time>
      </trkpt>
      <trkpt lat="40.424660" lon="-4.263140">
        <ele>797.422</ele>
        <time>2022-02-24T21:52:10Z</time>
      </trkpt>
      <trkpt lat="40.424860" lon="-4.263110">
        <ele>797.854</ele>
        <time>2022-02-24T21:52:50Z</time>
      </trkpt>
      <trkpt lat="40.425050" lon="-4.263090">
        <ele>798.156</ele>
        <time>2022-02-24T21:53:30Z</time>
      </trkpt>
      <trkpt lat="40.425230" lon="-4.263050">
        <ele>798.011</ele>
        <time>2022-02-24T21:54:10Z</time>
      </trkpt>
      <trkpt lat="40.425370" lon="-4.263040">
        <ele>798.608</ele>
        <time>2022-02-24T21:54:50Z</time>
      </trkpt>
      <trkpt lat="40.425540" lon="-4.263030">
        <ele>799.724</ele>
        <time>2022-02-24T21:55:30Z</time>
      </trkpt>
      <trkpt lat="40.425620" lon="-4.263030">
        <ele>800.371</ele>
        <time>2022-02-24T21:56:10Z</time>
      </trkpt>
      <trkpt lat="40.425690" lon="-4.263040">
        <ele>800.835</ele>
        <time>2022-02-24T21:56:50Z</time>
      </trkpt>
      <trkpt lat="40.425800" lon="-4.263060">
        <ele>801.834</ele>
        <time>2022-02-24T21:57:30Z</time>
      </trkpt>
      <trkpt lat="40.425910" lon="-4.263080">
        <ele>802.014</ele>
        <time>2022-02-24T21:58:10Z</time>
      </trkpt>
      <trkpt lat="40.426010" lon="-4.263100">
        <ele>801.857</ele>
        <time>2022-02-24T21:58:50Z</time>
      </trkpt>
      <trkpt lat="40.426040" lon="-4.263110">
        <ele>801.852</ele>
        <time>2022-02-24T21:59:30Z</time>
      </trkpt>
      <trkpt lat="40.426200" lon="-4.263150">
        <ele>801.740</ele>
        <time>2022-02-24T22:00:10Z</time>
      </trkpt>
      <trkpt lat="40.426220" lon="-4.263150">
        <ele>801.644</ele>
        <time>2022-02-24T22:00:50Z</time>
      </trkpt>
      <trkpt lat="40.426390" lon="-4.263200">
        <ele>801.605</ele>
        <time>2022-02-24T22:01:30Z</time>
      </trkpt>
      <trkpt lat="40.426400" lon="-4.263200">
        <ele>801.615</ele>
        <time>2022-02-24T22:02:10Z</time>
      </trkpt>
      <trkpt lat="40.426560" lon="-4.263240">
        <ele>802.808</ele>
        <time>2022-02-24T22:02:50Z</time>
      </trkpt>
      <trkpt lat="40.426570" lon="-4.263240">
        <ele>802.933</ele>
        <time>2022-02-24T22:03:30Z</time>
      </trkpt>
      <trkpt lat="40.426660" lon="-4.263270">
        <ele>803.530</ele>
        <time>2022-02-24T22:04:10Z</time>
      </trkpt>
      <trkpt lat="40.426700" lon="-4.263290">
        <ele>803.944</ele>
        <time>2022-02-24T22:04:50Z</time>
      </trkpt>
      <trkpt lat="40.426740" lon="-4.263300">
        <ele>804.333</ele>
        <time>2022-02-24T22:05:30Z</time>
      </trkpt>
      <trkpt lat="40.426880" lon="-4.263350">
        <ele>805.733</ele>
        <time>2022-02-24T22:06:10Z</time>
      </trkpt>
      <trkpt lat="40.426910" lon="-4.263360">
        <ele>806.066</ele>
        <time>2022-02-24T22:06:50Z</time>
      </trkpt>
      <trkpt lat="40.427060" lon="-4.263400">
        <ele>807.061</ele>
        <time>2022-02-24T22:07:30Z</time>
      </trkpt>
      <trkpt lat="40.427090" lon="-4.263410">
        <ele>807.229</ele>
        <time>2022-02-24T22:08:10Z</time>
      </trkpt>
      <trkpt lat="40.427250" lon="-4.263470">
        <ele>808.027</ele>
        <time>2022-02-24T22:08:50Z</time>
      </trkpt>
      <trkpt lat="40.427460" lon="-4.263540">
        <ele>808.568</ele>
        <time>2022-02-24T22:09:30Z</time>
      </trkpt>
      <trkpt lat="40.427660" lon="-4.263610">
        <ele>809.614</ele>
        <time>2022-02-24T22:10:10Z</time>
      </trkpt>
      <trkpt lat="40.427740" lon="-4.263630">
        <ele>810.108</ele>
        <time>2022-02-24T22:10:50Z</time>
      </trkpt>
      <trkpt lat="40.427780" lon="-4.263640">
        <ele>810.441</ele>
        <time>2022-02-24T22:11:30Z</time>
      </trkpt>
      <trkpt lat="40.427790" lon="-4.263640">
        <ele>810.538</ele>
        <time>2022-02-24T22:12:10Z</time>
      </trkpt>
      <trkpt lat="40.427840" lon="-4.263660">
        <ele>811.172</ele>
        <time>2022-02-24T22:12:50Z</time>
      </trkpt>
      <trkpt lat="40.427890" lon="-4.263660">
        <ele>811.461</ele>
        <time>2022-02-24T22:13:30Z</time>
      </trkpt>
      <trkpt lat="40.427940" lon="-4.263670">
        <ele>811.961</ele>
        <time>2022-02-24T22:14:10Z</time>
      </trkpt>
      <trkpt lat="40.428000" lon="-4.263680">
        <ele>812.424</ele>
        <time>2022-02-24T22:14:50Z</time>
      </trkpt>
      <trkpt lat="40.428070" lon="-4.263680">
        <ele>812.849</ele>
        <time>2022-02-24T22:15:30Z</time>
      </trkpt>
      <trkpt lat="40.428140" lon="-4.263670">
        <ele>813.217</ele>
        <time>2022-02-24T22:16:10Z</time>
      </trkpt>
      <trkpt lat="40.428220" lon="-4.263670">
        <ele>813.723</ele>
        <time>2022-02-24T22:16:50Z</time>
      </trkpt>
      <trkpt lat="40.428290" lon="-4.263660">
        <ele>814.183</ele>
        <time>2022-02-24T22:17:30Z</time>
      </trkpt>
      <trkpt lat="40.428350" lon="-4.263650">
        <ele>814.311</ele>
        <time>2022-02-24T22:18:10Z</time>
      </trkpt>
      <trkpt lat="40.428400" lon="-4.263640">
        <ele>814.408</ele>
        <time>2022-02-24T22:18:50Z</time>
      </trkpt>
      <trkpt lat="40.428490" lon="-4.263620">
        <ele>814.641</ele>
        <time>2022-02-24T22:19:30Z</time>
      </trkpt>
      <trkpt lat="40.428500" lon="-4.263620">
        <ele>814.798</ele>
        <time>2022-02-24T22:20:10Z</time>
      </trkpt>
      <trkpt lat="40.428510" lon="-4.263620">
        <ele>814.772</ele>
        <time>2022-02-24T22:20:50Z</time>
      </trkpt>
      <trkpt lat="40.428590" lon="-4.263600">
        <ele>814.991</ele>
        <time>2022-02-24T22:21:30Z</time>
      </trkpt>
      <trkpt lat="40.428680" lon="-4.263580">
        <ele>815.181</ele>
        <time>2022-02-24T22:22:10Z</time>
      </trkpt>
      <trkpt lat="40.428800" lon="-4.263560">
        <ele>815.494</ele>
        <time>2022-02-24T22:22:50Z</time>
      </trkpt>
      <trkpt lat="40.428970" lon="-4.263520">
        <ele>816.519</ele>
        <time>2022-02-24T22:23:30Z</time>
      </trkpt>
      <trkpt lat="40.429160" lon="-4.263500">
        <ele>819.117</ele>
        <time>2022-02-24T22:24:10Z</time>
      </trkpt>
      <trkpt lat="40.429220" lon="-4.263490">
        <ele>819.762</ele>
        <time>2022-02-24T22:24:50Z</time>
      </trkpt>
      <trkpt lat="40.429250" lon="-4.263490">
        <ele>820.083</ele>
        <time>2022-02-24T22:25:30Z</time>
      </trkpt>
      <trkpt lat="40.429350" lon="-4.263490">
        <ele>821.111</ele>
        <time>2022-02-24T22:26:10Z</time>
      </trkpt>
      <trkpt lat="40.429400" lon="-4.263500">
        <ele>821.708</ele>
        <time>2022-02-24T22:26:50Z</time>
      </trkpt>
      <trkpt lat="40.429510" lon="-4.263510">
        <ele>822.385</ele>
        <time>2022-02-24T22:27:30Z</time>
      </trkpt>
      <trkpt lat="40.429580" lon="-4.263530">
        <ele>822.492</ele>
        <time>2022-02-24T22:28:10Z</time>
      </trkpt>
      <trkpt lat="40.429630" lon="-4.263540">
        <ele>822.526</ele>
        <time>2022-02-24T22:28:50Z</time>
      </trkpt>
      <trkpt lat="40.429680" lon="-4.263560">
        <ele>822.695</ele>
        <time>2022-02-24T22:29:30Z</time>
      </trkpt>
      <trkpt lat="40.429770" lon="-4.263610">
        <ele>823.055</ele>
        <time>2022-02-24T22:30:10Z</time>
      </trkpt>
      <trkpt lat="40.429930" lon="-4.263700">
        <ele>823.948</ele>
        <time>2022-02-24T22:30:50Z</time>
      </trkpt>
      <trkpt lat="40.430070" lon="-4.263810">
        <ele>824.613</ele>
        <time>2022-02-24T22:31:30Z</time>
      </trkpt>
      <trkpt lat="40.430100" lon="-4.263840">
        <ele>824.831</ele>
        <time>2022-02-24T22:32:10Z</time>
      </trkpt>
      <trkpt lat="40.430220" lon="-4.263920">
        <ele>824.715</ele>
        <time>2022-02-24T22:32:50Z</time>
      </trkpt>
      <trkpt lat="40.430220" lon="-4.263930">
        <ele>824.865</ele>
        <time>2022-02-24T22:33:30Z</time>
      </trkpt>
      <trkpt lat="40.430260" lon="-4.263960">
        <ele>824.911</ele>
        <time>2022-02-24T22:34:10Z</time>
      </trkpt>
      <trkpt lat="40.430370" lon="-4.264040">
        <ele>825.808</ele>
        <time>2022-02-24T22:34:50Z</time>
      </trkpt>
      <trkpt lat="40.430380" lon="-4.264040">
        <ele>825.840</ele>
        <time>2022-02-24T22:35:30Z</time>
      </trkpt>
      <trkpt lat="40.430450" lon="-4.264080">
        <ele>826.547</ele>
        <time>2022-02-24T22:36:10Z</time>
      </trkpt>
      <trkpt lat="40.430500" lon="-4.264110">
        <ele>827.091</ele>
        <time>2022-02-24T22:36:50Z</time>
      </trkpt>
      <trkpt lat="40.430540" lon="-4.264130">
        <ele>827.440</ele>
        <time>2022-02-24T22:37:30Z</time>
      </trkpt>
      <trkpt lat="40.430550" lon="-4.264130">
        <ele>827.550</ele>
        <time>2022-02-24T22:38:10Z</time>
      </trkpt>
      <trkpt lat="40.430750" lon="-4.264190">
        <ele>829.153</ele>
        <time>2022-02-24T22:38:50Z</time>
      </trkpt>
      <trkpt lat="40.430960" lon="-4.264240">
        <ele>830.748</ele>
        <time>2022-02-24T22:39:30Z</time>
      </trkpt>
      <trkpt lat="40.431050" lon="-4.264260">
        <ele>831.216</ele>
        <time>2022-02-24T22:40:10Z</time>
      </trkpt>
      <trkpt lat="40.431150" lon="-4.264290">
        <ele>831.923</ele>
        <time>2022-02-24T22:40:50Z</time>
      </trkpt>
      <trkpt lat="40.431340" lon="-4.264330">
        <ele>832.783</ele>
        <time>2022-02-24T22:41:30Z</time>
      </trkpt>
      <trkpt lat="40.431520" lon="-4.264380">
        <ele>833.811</ele>
        <time>2022-02-24T22:42:10Z</time>
      </trkpt>
      <trkpt lat="40.431650" lon="-4.264410">
        <ele>834.608</ele>
        <time>2022-02-24T22:42:50Z</time>
      </trkpt>
      <trkpt lat="40.431720" lon="-4.264420">
        <ele>834.711</ele>
        <time>2022-02-24T22:43:30Z</time>
      </trkpt>
      <trkpt lat="40.431830" lon="-4.264450">
        <ele>835.178</ele>
        <time>2022-02-24T22:44:10Z</time>
      </trkpt>
      <trkpt lat="40.431930" lon="-4.264470">
        <ele>835.512</ele>
        <time>2022-02-24T22:44:50Z</time>
      </trkpt>
      <trkpt lat="40.432120" lon="-4.264520">
        <ele>837.541</ele>
        <time>2022-02-24T22:45:30Z</time>
      </trkpt>
      <trkpt lat="40.432180" lon="-4.264530">
        <ele>838.011</ele>
        <time>2022-02-24T22:46:10Z</time>
      </trkpt>
      <trkpt lat="40.432490" lon="-4.264590">
        <ele>841.594</ele>
        <time>2022-02-24T22:46:50Z</time>
      </trkpt>
      <trkpt lat="40.432700" lon="-4.264620">
        <ele>842.959</ele>
        <time>2022-02-24T22:47:30Z</time>
      </trkpt>
      <trkpt lat="40.433030" lon="-4.264670">
        <ele>845.077</ele>
        <time>2022-02-24T22:48:10Z</time>
      </trkpt>
      <trkpt lat="40.433110" lon="-4.264680">
        <ele>845.491</ele>
        <time>2022-02-24T22:48:50Z</time>
      </trkpt>
      <trkpt lat="40.433170" lon="-4.264680">
        <ele>845.681</ele>
        <time>2022-02-24T22:49:30Z</time>
      </trkpt>
      <trkpt lat="40.433290" lon="-4.264690">
        <ele>846.219</ele>
        <time>2022-02-24T22:50:10Z</time>
      </trkpt>
      <trkpt lat="40.433290" lon="-4.264700">
        <ele>846.408</ele>
        <time>2022-02-24T22:50:50Z</time>
      </trkpt>
      <trkpt lat="40.433340" lon="-4.264700">
        <ele>846.578</ele>
        <time>2022-02-24T22:51:30Z</time>
      </trkpt>
      <trkpt lat="40.433440" lon="-4.264710">
        <ele>847.165</ele>
        <time>2022-02-24T22:52:10Z</time>
      </trkpt>
      <trkpt lat="40.433620" lon="-4.264730">
        <ele>848.259</ele>
        <time>2022-02-24T22:52:50Z</time>
      </trkpt>
      <trkpt lat="40.433770" lon="-4.264740">
        <ele>848.958</ele>
        <time>2022-02-24T22:53:30Z</time>
      </trkpt>
      <trkpt lat="40.433880" lon="-4.264750">
        <ele>849.588</ele>
        <time>2022-02-24T22:54:10Z</time>
      </trkpt>
      <trkpt lat="40.433930" lon="-4.264760">
        <ele>849.731</ele>
        <time>2022-02-24T22:54:50Z</time>
      </trkpt>
      <trkpt lat="40.434000" lon="-4.264760">
        <ele>849.676</ele>
        <time>2022-02-24T22:55:30Z</time>
      </trkpt>
      <trkpt lat="40.434130" lon="-4.264770">
        <ele>849.734</ele>
        <time>2022-02-24T22:56:10Z</time>
      </trkpt>
      <trkpt lat="40.434160" lon="-4.264770">
        <ele>849.782</ele>
        <time>2022-02-24T22:56:50Z</time>
      </trkpt>
      <trkpt lat="40.434190" lon="-4.264770">
        <ele>849.743</ele>
        <time>2022-02-24T22:57:30Z</time>
      </trkpt>
      <trkpt lat="40.434240" lon="-4.264770">
        <ele>849.717</ele>
        <time>2022-02-24T22:58:10Z</time>
      </trkpt>
      <trkpt lat="40.434330" lon="-4.264770">
        <ele>849.808</ele>
        <time>2022-02-24T22:58:50Z</time>
      </trkpt>
      <trkpt lat="40.434510" lon="-4.264750">
        <ele>850.347</ele>
        <time>2022-02-24T22:59:30Z</time>
      </trkpt>
      <trkpt lat="40.434570" lon="-4.264750">
        <ele>851.144</ele>
        <time>2022-02-24T23:00:10Z</time>
      </trkpt>
      <trkpt lat="40.434740" lon="-4.264740">
        <ele>852.928</ele>
        <time>2022-02-24T23:00:50Z</time>
      </trkpt>
      <trkpt lat="40.434900" lon="-4.264720">
        <ele>854.517</ele>
        <time>2022-02-24T23:01:30Z</time>
      </trkpt>
      <trkpt lat="40.434930" lon="-4.264720">
        <ele>854.997</ele>
        <time>2022-02-24T23:02:10Z</time>
      </trkpt>
      <trkpt lat="40.435080" lon="-4.264710">
        <ele>855.420</ele>
        <time>2022-02-24T23:02:50Z</time>
      </trkpt>
      <trkpt lat="40.435100" lon="-4.264710">
        <ele>855.375</ele>
        <time>2022-02-24T23:03:30Z</time>
      </trkpt>
      <trkpt lat="40.435320" lon="-4.264690">
        <ele>855.063</ele>
        <time>2022-02-24T23:04:10Z</time>
      </trkpt>
      <trkpt lat="40.435510" lon="-4.264680">
        <ele>857.926</ele>
        <time>2022-02-24T23:04:50Z</time>
      </trkpt>
      <trkpt lat="40.435710" lon="-4.264660">
        <ele>860.247</ele>
        <time>2022-02-24T23:05:30Z</time>
      </trkpt>
      <trkpt lat="40.435800" lon="-4.264650">
        <ele>861.211</ele>
        <time>2022-02-24T23:06:10Z</time>
      </trkpt>
      <trkpt lat="40.435880" lon="-4.264650">
        <ele>862.108</ele>
        <time>2022-02-24T23:06:50Z</time>
      </trkpt>
      <trkpt lat="40.436080" lon="-4.264640">
        <ele>863.781</ele>
        <time>2022-02-24T23:07:30Z</time>
      </trkpt>
      <trkpt lat="40.436220" lon="-4.264620">
        <ele>863.198</ele>
        <time>2022-02-24T23:08:10Z</time>
      </trkpt>
      <trkpt lat="40.436280" lon="-4.264620">
        <ele>862.942</ele>
        <time>2022-02-24T23:08:50Z</time>
      </trkpt>
      <trkpt lat="40.436490" lon="-4.264610">
        <ele>862.561</ele>
        <time>2022-02-24T23:09:30Z</time>
      </trkpt>
      <trkpt lat="40.436760" lon="-4.264620">
        <ele>863.241</ele>
        <time>2022-02-24T23:10:10Z</time>
      </trkpt>
      <trkpt lat="40.437070" lon="-4.264630">
        <ele>865.074</ele>
        <time>2022-02-24T23:10:50Z</time>
      </trkpt>
      <trkpt lat="40.437130" lon="-4.264630">
        <ele>865.759</ele>
        <time>2022-02-24T23:11:30Z</time>
      </trkpt>
      <trkpt lat="40.437260" lon="-4.264630">
        <ele>867.017</ele>
        <time>2022-02-24T23:12:10Z</time>
      </trkpt>
      <trkpt lat="40.437320" lon="-4.264640">
        <ele>867.779</ele>
        <time>2022-02-24T23:12:50Z</time>
      </trkpt>
      <trkpt lat="40.437440" lon="-4.264640">
        <ele>868.705</ele>
        <time>2022-02-24T23:13:30Z</time>
      </trkpt>
      <trkpt lat="40.437460" lon="-4.264640">
        <ele>868.925</ele>
        <time>2022-02-24T23:14:10Z</time>
      </trkpt>
      <trkpt lat="40.437500" lon="-4.264640">
        <ele>869.208</ele>
        <time>2022-02-24T23:14:50Z</time>
      </trkpt>
      <trkpt lat="40.437550" lon="-4.264640">
        <ele>869.556</ele>
        <time>2022-02-24T23:15:30Z</time>
      </trkpt>
      <trkpt lat="40.437660" lon="-4.264640">
        <ele>870.063</ele>
        <time>2022-02-24T23:16:10Z</time>
      </trkpt>
      <trkpt lat="40.437790" lon="-4.264640">
        <ele>870.767</ele>
        <time>2022-02-24T23:16:50Z</time>
      </trkpt>
      <trkpt lat="40.437850" lon="-4.264640">
        <ele>871.356</ele>
        <time>2022-02-24T23:17:30Z</time>
      </trkpt>
      <trkpt lat="40.437910" lon="-4.264630">
        <ele>871.876</ele>
        <time>2022-02-24T23:18:10Z</time>
      </trkpt>
      <trkpt lat="40.437970" lon="-4.264630">
        <ele>872.489</ele>
        <time>2022-02-24T23:18:50Z</time>
      </trkpt>
      <trkpt lat="40.438020" lon="-4.264620">
        <ele>872.814</ele>
        <time>2022-02-24T23:19:30Z</time>
      </trkpt>
      <trkpt lat="40.438070" lon="-4.264620">
        <ele>873.342</ele>
        <time>2022-02-24T23:20:10Z</time>
      </trkpt>
      <trkpt lat="40.438200" lon="-4.264610">
        <ele>874.916</ele>
        <time>2022-02-24T23:20:50Z</time>
      </trkpt>
      <trkpt lat="40.438260" lon="-4.264610">
        <ele>875.676</ele>
        <time>2022-02-24T23:21:30Z</time>
      </trkpt>
      <trkpt lat="40.438400" lon="-4.264590">
        <ele>876.413</ele>
        <time>2022-02-24T23:22:10Z</time>
      </trkpt>
      <trkpt lat="40.438520" lon="-4.264590">
        <ele>876.808</ele>
        <time>2022-02-24T23:22:50Z</time>
      </trkpt>
      <trkpt lat="40.438600" lon="-4.264610">
        <ele>877.580</ele>
        <time>2022-02-24T23:23:30Z</time>
      </trkpt>
      <trkpt lat="40.438660" lon="-4.264620">
        <ele>877.477</ele>
        <time>2022-02-24T23:24:10Z</time>
      </trkpt>
      <trkpt lat="40.438700" lon="-4.264620">
        <ele>877.241</ele>
        <time>2022-02-24T23:24:50Z</time>
      </trkpt>
      <trkpt lat="40.438750" lon="-4.264640">
        <ele>877.230</ele>
        <time>2022-02-24T23:25:30Z</time>
      </trkpt>
      <trkpt lat="40.438800" lon="-4.264660">
        <ele>877.390</ele>
        <time>2022-02-24T23:26:10Z</time>
      </trkpt>
      <trkpt lat="40.438850" lon="-4.264680">
        <ele>877.423</ele>
        <time>2022-02-24T23:26:50Z</time>
      </trkpt>
      <trkpt lat="40.438890" lon="-4.264710">
        <ele>877.748</ele>
        <time>2022-02-24T23:27:30Z</time>
      </trkpt>
      <trkpt lat="40.438920" lon="-4.264730">
        <ele>877.766</ele>
        <time>2022-02-24T23:28:10Z</time>
      </trkpt>
      <trkpt lat="40.438940" lon="-4.264750">
        <ele>877.845</ele>
        <time>2022-02-24T23:28:50Z</time>
      </trkpt>
      <trkpt lat="40.438970" lon="-4.264780">
        <ele>877.947</ele>
        <time>2022-02-24T23:29:30Z</time>
      </trkpt>
      <trkpt lat="40.439040" lon="-4.264870">
        <ele>878.511</ele>
        <time>2022-02-24T23:30:10Z</time>
      </trkpt>
      <trkpt lat="40.439050" lon="-4.264880">
        <ele>878.508</ele>
        <time>2022-02-24T23:30:50Z</time>
      </trkpt>
      <trkpt lat="40.439160" lon="-4.265040">
        <ele>879.823</ele>
        <time>2022-02-24T23:31:30Z</time>
      </trkpt>
      <trkpt lat="40.439170" lon="-4.265060">
        <ele>880.060</ele>
        <time>2022-02-24T23:32:10Z</time>
      </trkpt>
      <trkpt lat="40.439280" lon="-4.265250">
        <ele>881.154</ele>
        <time>2022-02-24T23:32:50Z</time>
      </trkpt>
      <trkpt lat="40.439290" lon="-4.265250">
        <ele>880.873</ele>
        <time>2022-02-24T23:33:30Z</time>
      </trkpt>
      <trkpt lat="40.439390" lon="-4.265440">
        <ele>882.053</ele>
        <time>2022-02-24T23:34:10Z</time>
      </trkpt>
      <trkpt lat="40.439440" lon="-4.265510">
        <ele>882.346</ele>
        <time>2022-02-24T23:34:50Z</time>
      </trkpt>
      <trkpt lat="40.439570" lon="-4.265760">
        <ele>883.391</ele>
        <time>2022-02-24T23:35:30Z</time>
      </trkpt>
      <trkpt lat="40.439590" lon="-4.265790">
        <ele>883.259</ele>
        <time>2022-02-24T23:36:10Z</time>
      </trkpt>
      <trkpt lat="40.439630" lon="-4.265890">
        <ele>883.334</ele>
        <time>2022-02-24T23:36:50Z</time>
      </trkpt>
      <trkpt lat="40.439690" lon="-4.266020">
        <ele>883.055</ele>
        <time>2022-02-24T23:37:30Z</time>
      </trkpt>
      <trkpt lat="40.439690" lon="-4.266030">
        <ele>883.110</ele>
        <time>2022-02-24T23:38:10Z</time>
      </trkpt>
      <trkpt lat="40.439710" lon="-4.266100">
        <ele>883.308</ele>
        <time>2022-02-24T23:38:50Z</time>
      </trkpt>
      <trkpt lat="40.439750" lon="-4.266270">
        <ele>884.912</ele>
        <time>2022-02-24T23:39:30Z</time>
      </trkpt>
      <trkpt lat="40.439780" lon="-4.266390">
        <ele>886.089</ele>
        <time>2022-02-24T23:40:10Z</time>
      </trkpt>
      <trkpt lat="40.439820" lon="-4.266490">
        <ele>886.443</ele>
        <time>2022-02-24T23:40:50Z</time>
      </trkpt>
      <trkpt lat="40.439850" lon="-4.266560">
        <ele>886.692</ele>
        <time>2022-02-24T23:41:30Z</time>
      </trkpt>
      <trkpt lat="40.439870" lon="-4.266600">
        <ele>886.692</ele>
        <time>2022-02-24T23:42:10Z</time>
      </trkpt>
      <trkpt lat="40.439890" lon="-4.266630">
        <ele>886.415</ele>
        <time>2022-02-24T23:42:50Z</time>
      </trkpt>
      <trkpt lat="40.439910" lon="-4.266650">
        <ele>886.140</ele>
        <time>2022-02-24T23:43:30Z</time>
      </trkpt>
      <trkpt lat="40.439950" lon="-4.266680">
        <ele>885.488</ele>
        <time>2022-02-24T23:44:10Z</time>
      </trkpt>
      <trkpt lat="40.439960" lon="-4.266680">
        <ele>885.191</ele>
        <time>2022-02-24T23:44:50Z</time>
      </trkpt>
      <trkpt lat="40.439980" lon="-4.266690">
        <ele>884.781</ele>
        <time>2022-02-24T23:45:30Z</time>
      </trkpt>
      <trkpt lat="40.439990" lon="-4.266690">
        <ele>884.419</ele>
        <time>2022-02-24T23:46:10Z</time>
      </trkpt>
      <trkpt lat="40.440010" lon="-4.266700">
        <ele>884.508</ele>
        <time>2022-02-24T23:46:50Z</time>
      </trkpt>
      <trkpt lat="40.440030" lon="-4.266710">
        <ele>884.948</ele>
        <time>2022-02-24T23:47:30Z</time>
      </trkpt>
      <trkpt lat="40.440040" lon="-4.266710">
        <ele>885.225</ele>
        <time>2022-02-24T23:48:10Z</time>
      </trkpt>
      <trkpt lat="40.440060" lon="-4.266710">
        <ele>885.699</ele>
        <time>2022-02-24T23:48:50Z</time>
      </trkpt>
      <trkpt lat="40.440090" lon="-4.266700">
        <ele>886.188</ele>
        <time>2022-02-24T23:49:30Z</time>
      </trkpt>
      <trkpt lat="40.440110" lon="-4.266690">
        <ele>886.538</ele>
        <time>2022-02-24T23:50:10Z</time>
      </trkpt>
      <trkpt lat="40.440140" lon="-4.266680">
        <ele>887.111</ele>
        <time>2022-02-24T23:50:50Z</time>
      </trkpt>
      <trkpt lat="40.440170" lon="-4.266650">
        <ele>887.636</ele>
        <time>2022-02-24T23:51:30Z</time>
      </trkpt>
      <trkpt lat="40.440200" lon="-4.266620">
        <ele>888.084</ele>
        <time>2022-02-24T23:52:10Z</time>
      </trkpt>
      <trkpt lat="40.440230" lon="-4.266590">
        <ele>888.448</ele>
        <time>2022-02-24T23:52:50Z</time>
      </trkpt>
      <trkpt lat="40.440270" lon="-4.266530">
        <ele>888.861</ele>
        <time>2022-02-24T23:53:30Z</time>
      </trkpt>
      <trkpt lat="40.440390" lon="-4.266360">
        <ele>891.317</ele>
        <time>2022-02-24T23:54:10Z</time>
      </trkpt>
      <trkpt lat="40.440480" lon="-4.266230">
        <ele>892.808</ele>
        <time>2022-02-24T23:54:50Z</time>
      </trkpt>
      <trkpt lat="40.440510" lon="-4.266190">
        <ele>893.413</ele>
        <time>2022-02-24T23:55:30Z</time>
      </trkpt>
      <trkpt lat="40.440530" lon="-4.266170">
        <ele>893.830</ele>
        <time>2022-02-24T23:56:10Z</time>
      </trkpt>
      <trkpt lat="40.440560" lon="-4.266140">
        <ele>894.464</ele>
        <time>2022-02-24T23:56:50Z</time>
      </trkpt>
      <trkpt lat="40.440590" lon="-4.266120">
        <ele>894.573</ele>
        <time>2022-02-24T23:57:30Z</time>
      </trkpt>
      <trkpt lat="40.440620" lon="-4.266100">
        <ele>894.633</ele>
        <time>2022-02-24T23:58:10Z</time>
      </trkpt>
      <trkpt lat="40.440630" lon="-4.266100">
        <ele>894.726</ele>
        <time>2022-02-24T23:58:50Z</time>
      </trkpt>
      <trkpt lat="40.440640" lon="-4.266090">
        <ele>894.641</ele>
        <time>2022-02-24T23:59:30Z</time>
      </trkpt>
      <trkpt lat="40.440670" lon="-4.266080">
        <ele>894.819</ele>
        <time>2022-02-25T00:00:10Z</time>
      </trkpt>
      <trkpt lat="40.440690" lon="-4.266070">
        <ele>894.971</ele>
        <time>2022-02-25T00:00:50Z</time>
      </trkpt>
      <trkpt lat="40.440730" lon="-4.266060">
        <ele>895.141</ele>
        <time>2022-02-25T00:01:30Z</time>
      </trkpt>
      <trkpt lat="40.440760" lon="-4.266070">
        <ele>895.515</ele>
        <time>2022-02-25T00:02:10Z</time>
      </trkpt>
      <trkpt lat="40.440780" lon="-4.266070">
        <ele>895.708</ele>
        <time>2022-02-25T00:02:50Z</time>
      </trkpt>
      <trkpt lat="40.440810" lon="-4.266070">
        <ele>896.016</ele>
        <time>2022-02-25T00:03:30Z</time>
      </trkpt>
      <trkpt lat="40.440830" lon="-4.266080">
        <ele>896.483</ele>
        <time>2022-02-25T00:04:10Z</time>
      </trkpt>
      <trkpt lat="40.440850" lon="-4.266090">
        <ele>896.447</ele>
        <time>2022-02-25T00:04:50Z</time>
      </trkpt>
      <trkpt lat="40.440880" lon="-4.266100">
        <ele>896.366</ele>
        <time>2022-02-25T00:05:30Z</time>
      </trkpt>
      <trkpt lat="40.440910" lon="-4.266130">
        <ele>896.486</ele>
        <time>2022-02-25T00:06:10Z</time>
      </trkpt>
      <trkpt lat="40.440980" lon="-4.266180">
        <ele>896.339</ele>
        <time>2022-02-25T00:06:50Z</time>
      </trkpt>
      <trkpt lat="40.441070" lon="-4.266280">
        <ele>896.844</ele>
        <time>2022-02-25T00:07:30Z</time>
      </trkpt>
      <trkpt lat="40.441110" lon="-4.266360">
        <ele>897.692</ele>
        <time>2022-02-25T00:08:10Z</time>
      </trkpt>
      <trkpt lat="40.441170" lon="-4.266460">
        <ele>897.982</ele>
        <time>2022-02-25T00:08:50Z</time>
      </trkpt>
      <trkpt lat="40.441210" lon="-4.266530">
        <ele>898.143</ele>
        <time>2022-02-25T00:09:30Z</time>
      </trkpt>
      <trkpt lat="40.441240" lon="-4.266580">
        <ele>898.117</ele>
        <time>2022-02-25T00:10:10Z</time>
      </trkpt>
      <trkpt lat="40.441270" lon="-4.266640">
        <ele>898.208</ele>
        <time>2022-02-25T00:10:50Z</time>
      </trkpt>
      <trkpt lat="40.441310" lon="-4.266710">
        <ele>898.177</ele>
        <time>2022-02-25T00:11:30Z</time>
      </trkpt>
      <trkpt lat="40.441320" lon="-4.266720">
        <ele>898.074</ele>
        <time>2022-02-25T00:12:10Z</time>
      </trkpt>
      <trkpt lat="40.441350" lon="-4.266770">
        <ele>897.918</ele>
        <time>2022-02-25T00:12:50Z</time>
      </trkpt>
      <trkpt lat="40.441400" lon="-4.266820">
        <ele>897.787</ele>
        <time>2022-02-25T00:13:30Z</time>
      </trkpt>
      <trkpt lat="40.441420" lon="-4.266840">
        <ele>897.977</ele>
        <time>2022-02-25T00:14:10Z</time>
      </trkpt>
      <trkpt lat="40.441450" lon="-4.266860">
        <ele>898.220</ele>
        <time>2022-02-25T00:14:50Z</time>
      </trkpt>
      <trkpt lat="40.441480" lon="-4.266870">
        <ele>898.365</ele>
        <time>2022-02-25T00:15:30Z</time>
      </trkpt>
      <trkpt lat="40.441510" lon="-4.266880">
        <ele>898.413</ele>
        <time>2022-02-25T00:16:10Z</time>
      </trkpt>
      <trkpt lat="40.441540" lon="-4.266890">
        <ele>898.538</ele>
        <time>2022-02-25T00:16:50Z</time>
      </trkpt>
      <trkpt lat="40.441570" lon="-4.266890">
        <ele>898.570</ele>
        <time>2022-02-25T00:17:30Z</time>
      </trkpt>
      <trkpt lat="40.441590" lon="-4.266890">
        <ele>898.617</ele>
        <time>2022-02-25T00:18:10Z</time>
      </trkpt>
      <trkpt lat="40.441610" lon="-4.266890">
        <ele>898.608</ele>
        <time>2022-02-25T00:18:50Z</time>
      </trkpt>
      <trkpt lat="40.441640" lon="-4.266880">
        <ele>898.592</ele>
        <time>2022-02-25T00:19:30Z</time>
      </trkpt>
      <trkpt lat="40.441670" lon="-4.266870">
        <ele>898.539</ele>
        <time>2022-02-25T00:20:10Z</time>
      </trkpt>
      <trkpt lat="40.441690" lon="-4.266860">
        <ele>898.633</ele>
        <time>2022-02-25T00:20:50Z</time>
      </trkpt>
      <trkpt lat="40.441730" lon="-4.266830">
        <ele>898.952</ele>
        <time>2022-02-25T00:21:30Z</time>
      </trkpt>
      <trkpt lat="40.441760" lon="-4.266810">
        <ele>899.062</ele>
        <time>2022-02-25T00:22:10Z</time>
      </trkpt>
      <trkpt lat="40.441810" lon="-4.266770">
        <ele>899.335</ele>
        <time>2022-02-25T00:22:50Z</time>
      </trkpt>
      <trkpt lat="40.441890" lon="-4.266690">
        <ele>899.670</ele>
        <time>2022-02-25T00:23:30Z</time>
      </trkpt>
      <trkpt lat="40.441980" lon="-4.266600">
        <ele>900.338</ele>
        <time>2022-02-25T00:24:10Z</time>
      </trkpt>
      <trkpt lat="40.442050" lon="-4.266540">
        <ele>901.171</ele>
        <time>2022-02-25T00:24:50Z</time>
      </trkpt>
      <trkpt lat="40.442410" lon="-4.266230">
        <ele>902.941</ele>
        <time>2022-02-25T00:25:30Z</time>
      </trkpt>
      <trkpt lat="40.442490" lon="-4.266160">
        <ele>902.915</ele>
        <time>2022-02-25T00:26:10Z</time>
      </trkpt>
      <trkpt lat="40.442570" lon="-4.266090">
        <ele>903.208</ele>
        <time>2022-02-25T00:26:50Z</time>
      </trkpt>
      <trkpt lat="40.442790" lon="-4.265920">
        <ele>904.866</ele>
        <time>2022-02-25T00:27:30Z</time>
      </trkpt>
      <trkpt lat="40.442900" lon="-4.265840">
        <ele>905.793</ele>
        <time>2022-02-25T00:28:10Z</time>
      </trkpt>
      <trkpt lat="40.443020" lon="-4.265760">
        <ele>907.587</ele>
        <time>2022-02-25T00:28:50Z</time>
      </trkpt>
      <trkpt lat="40.443070" lon="-4.265740">
        <ele>908.256</ele>
        <time>2022-02-25T00:29:30Z</time>
      </trkpt>
      <trkpt lat="40.443130" lon="-4.265720">
        <ele>908.726</ele>
        <time>2022-02-25T00:30:10Z</time>
      </trkpt>
      <trkpt lat="40.443170" lon="-4.265700">
        <ele>909.039</ele>
        <time>2022-02-25T00:30:50Z</time>
      </trkpt>
      <trkpt lat="40.443180" lon="-4.265700">
        <ele>909.134</ele>
        <time>2022-02-25T00:31:30Z</time>
      </trkpt>
      <trkpt lat="40.443220" lon="-4.265700">
        <ele>909.672</ele>
        <time>2022-02-25T00:32:10Z</time>
      </trkpt>
      <trkpt lat="40.443230" lon="-4.265700">
        <ele>909.871</ele>
        <time>2022-02-25T00:32:50Z</time>
      </trkpt>
      <trkpt lat="40.443260" lon="-4.265700">
        <ele>910.241</ele>
        <time>2022-02-25T00:33:30Z</time>
      </trkpt>
      <trkpt lat="40.443310" lon="-4.265700">
        <ele>910.815</ele>
        <time>2022-02-25T00:34:10Z</time>
      </trkpt>
      <trkpt lat="40.443360" lon="-4.265720">
        <ele>911.308</ele>
        <time>2022-02-25T00:34:50Z</time>
      </trkpt>
      <trkpt lat="40.443400" lon="-4.265730">
        <ele>911.326</ele>
        <time>2022-02-25T00:35:30Z</time>
      </trkpt>
      <trkpt lat="40.443420" lon="-4.265740">
        <ele>911.373</ele>
        <time>2022-02-25T00:36:10Z</time>
      </trkpt>
      <trkpt lat="40.443450" lon="-4.265750">
        <ele>911.447</ele>
        <time>2022-02-25T00:36:50Z</time>
      </trkpt>
      <trkpt lat="40.443500" lon="-4.265780">
        <ele>911.656</ele>
        <time>2022-02-25T00:37:30Z</time>
      </trkpt>
      <trkpt lat="40.443570" lon="-4.265830">
        <ele>912.136</ele>
        <time>2022-02-25T00:38:10Z</time>
      </trkpt>
      <trkpt lat="40.443620" lon="-4.265860">
        <ele>912.369</ele>
        <time>2022-02-25T00:38:50Z</time>
      </trkpt>
      <trkpt lat="40.443670" lon="-4.265910">
        <ele>912.824</ele>
        <time>2022-02-25T00:39:30Z</time>
      </trkpt>
      <trkpt lat="40.443830" lon="-4.266030">
        <ele>913.522</ele>
        <time>2022-02-25T00:40:10Z</time>
      </trkpt>
      <trkpt lat="40.443840" lon="-4.266040">
        <ele>913.584</ele>
        <time>2022-02-25T00:40:50Z</time>
      </trkpt>
      <trkpt lat="40.443860" lon="-4.266050">
        <ele>913.507</ele>
        <time>2022-02-25T00:41:30Z</time>
      </trkpt>
      <trkpt lat="40.443880" lon="-4.266050">
        <ele>913.417</ele>
        <time>2022-02-25T00:42:10Z</time>
      </trkpt>
      <trkpt lat="40.443900" lon="-4.266050">
        <ele>913.508</ele>
        <time>2022-02-25T00:42:50Z</time>
      </trkpt>
      <trkpt lat="40.443910" lon="-4.266050">
        <ele>913.627</ele>
        <time>2022-02-25T00:43:30Z</time>
      </trkpt>
      <trkpt lat="40.443930" lon="-4.266050">
        <ele>913.854</ele>
        <time>2022-02-25T00:44:10Z</time>
      </trkpt>
      <trkpt lat="40.443950" lon="-4.266030">
        <ele>913.898</ele>
        <time>2022-02-25T00:44:50Z</time>
      </trkpt>
      <trkpt lat="40.443970" lon="-4.266020">
        <ele>914.077</ele>
        <time>2022-02-25T00:45:30Z</time>
      </trkpt>
      <trkpt lat="40.443990" lon="-4.265990">
        <ele>913.927</ele>
        <time>2022-02-25T00:46:10Z</time>
      </trkpt>
      <trkpt lat="40.444010" lon="-4.265960">
        <ele>913.950</ele>
        <time>2022-02-25T00:46:50Z</time>
      </trkpt>
      <trkpt lat="40.444040" lon="-4.265920">
        <ele>913.915</ele>
        <time>2022-02-25T00:47:30Z</time>
      </trkpt>
      <trkpt lat="40.444050" lon="-4.265870">
        <ele>913.633</ele>
        <time>2022-02-25T00:48:10Z</time>
      </trkpt>
      <trkpt lat="40.444060" lon="-4.265820">
        <ele>913.491</ele>
        <time>2022-02-25T00:48:50Z</time>
      </trkpt>
      <trkpt lat="40.444070" lon="-4.265780">
        <ele>913.481</ele>
        <time>2022-02-25T00:49:30Z</time>
      </trkpt>
      <trkpt lat="40.444070" lon="-4.265740">
        <ele>913.319</ele>
        <time>2022-02-25T00:50:10Z</time>
      </trkpt>
      <trkpt lat="40.444070" lon="-4.265720">
        <ele>913.208</ele>
        <time>2022-02-25T00:50:50Z</time>
      </trkpt>
      <trkpt lat="40.444080" lon="-4.265640">
        <ele>913.158</ele>
        <time>2022-02-25T00:51:30Z</time>
      </trkpt>
      <trkpt lat="40.444090" lon="-4.265580">
        <ele>913.035</ele>
        <time>2022-02-25T00:52:10Z</time>
      </trkpt>
      <trkpt lat="40.444100" lon="-4.265510">
        <ele>912.779</ele>
        <time>2022-02-25T00:52:50Z</time>
      </trkpt>
      <trkpt lat="40.444110" lon="-4.265460">
        <ele>912.568</ele>
        <time>2022-02-25T00:53:30Z</time>
      </trkpt>
      <trkpt lat="40.444130" lon="-4.265420">
        <ele>912.558</ele>
        <time>2022-02-25T00:54:10Z</time>
      </trkpt>
      <trkpt lat="40.444150" lon="-4.265400">
        <ele>912.621</ele>
        <time>2022-02-25T00:54:50Z</time>
      </trkpt>
      <trkpt lat="40.444170" lon="-4.265370">
        <ele>912.786</ele>
        <time>2022-02-25T00:55:30Z</time>
      </trkpt>
      <trkpt lat="40.444210" lon="-4.265330">
        <ele>913.344</ele>
        <time>2022-02-25T00:56:10Z</time>
      </trkpt>
      <trkpt lat="40.444250" lon="-4.265320">
        <ele>914.132</ele>
        <time>2022-02-25T00:56:50Z</time>
      </trkpt>
      <trkpt lat="40.444360" lon="-4.265260">
        <ele>915.992</ele>
        <time>2022-02-25T00:57:30Z</time>
      </trkpt>
      <trkpt lat="40.444550" lon="-4.265190">
        <ele>917.911</ele>
        <time>2022-02-25T00:58:10Z</time>
      </trkpt>
      <trkpt lat="40.444730" lon="-4.265120">
        <ele>919.208</ele>
        <time>2022-02-25T00:58:50Z</time>
      </trkpt>
      <trkpt lat="40.444920" lon="-4.265060">
        <ele>920.282</ele>
        <time>2022-02-25T00:59:30Z</time>
      </trkpt>
      <trkpt lat="40.445020" lon="-4.265020">
        <ele>920.659</ele>
        <time>2022-02-25T01:00:10Z</time>
      </trkpt>
      <trkpt lat="40.445100" lon="-4.265000">
        <ele>921.183</ele>
        <time>2022-02-25T01:00:50Z</time>
      </trkpt>
      <trkpt lat="40.445270" lon="-4.264950">
        <ele>921.852</ele>
        <time>2022-02-25T01:01:30Z</time>
      </trkpt>
      <trkpt lat="40.445400" lon="-4.264920">
        <ele>923.212</ele>
        <time>2022-02-25T01:02:10Z</time>
      </trkpt>
      <trkpt lat="40.445470" lon="-4.264900">
        <ele>923.945</ele>
        <time>2022-02-25T01:02:50Z</time>
      </trkpt>
      <trkpt lat="40.445580" lon="-4.264860">
        <ele>924.920</ele>
        <time>2022-02-25T01:03:30Z</time>
      </trkpt>
      <trkpt lat="40.445680" lon="-4.264830">
        <ele>926.188</ele>
        <time>2022-02-25T01:04:10Z</time>
      </trkpt>
      <trkpt lat="40.445750" lon="-4.264800">
        <ele>926.652</ele>
        <time>2022-02-25T01:04:50Z</time>
      </trkpt>
      <trkpt lat="40.445760" lon="-4.264790">
        <ele>926.553</ele>
        <time>2022-02-25T01:05:30Z</time>
      </trkpt>
      <trkpt lat="40.445870" lon="-4.264760">
        <ele>927.108</ele>
        <time>2022-02-25T01:06:10Z</time>
      </trkpt>
      <trkpt lat="40.445970" lon="-4.264710">
        <ele>926.208</ele>
        <time>2022-02-25T01:06:50Z</time>
      </trkpt>
      <trkpt lat="40.445980" lon="-4.264710">
        <ele>926.214</ele>
        <time>2022-02-25T01:07:30Z</time>
      </trkpt>
      <trkpt lat="40.446160" lon="-4.264630">
        <ele>925.821</ele>
        <time>2022-02-25T01:08:10Z</time>
      </trkpt>
      <trkpt lat="40.446350" lon="-4.264550">
        <ele>927.385</ele>
        <time>2022-02-25T01:08:50Z</time>
      </trkpt>
      <trkpt lat="40.446430" lon="-4.264510">
        <ele>927.914</ele>
        <time>2022-02-25T01:09:30Z</time>
      </trkpt>
      <trkpt lat="40.446500" lon="-4.264470">
        <ele>928.274</ele>
        <time>2022-02-25T01:10:10Z</time>
      </trkpt>
      <trkpt lat="40.446600" lon="-4.264420">
        <ele>928.767</ele>
        <time>2022-02-25T01:10:50Z</time>
      </trkpt>
      <trkpt lat="40.446640" lon="-4.264390">
        <ele>929.092</ele>
        <time>2022-02-25T01:11:30Z</time>
      </trkpt>
      <trkpt lat="40.446760" lon="-4.264320">
        <ele>930.460</ele>
        <time>2022-02-25T01:12:10Z</time>
      </trkpt>
      <trkpt lat="40.446830" lon="-4.264270">
        <ele>930.927</ele>
        <time>2022-02-25T01:12:50Z</time>
      </trkpt>
      <trkpt lat="40.446920" lon="-4.264210">
        <ele>931.468</ele>
        <time>2022-02-25T01:13:30Z</time>
      </trkpt>
      <trkpt lat="40.446970" lon="-4.264180">
        <ele>931.614</ele>
        <time>2022-02-25T01:14:10Z</time>
      </trkpt>
      <trkpt lat="40.447000" lon="-4.264160">
        <ele>931.708</ele>
        <time>2022-02-25T01:14:50Z</time>
      </trkpt>
      <trkpt lat="40.447080" lon="-4.264110">
        <ele>932.221</ele>
        <time>2022-02-25T01:15:30Z</time>
      </trkpt>
      <trkpt lat="40.447250" lon="-4.264010">
        <ele>933.028</ele>
        <time>2022-02-25T01:16:10Z</time>
      </trkpt>
      <trkpt lat="40.447260" lon="-4.264000">
        <ele>933.092</ele>
        <time>2022-02-25T01:16:50Z</time>
      </trkpt>
      <trkpt lat="40.447350" lon="-4.263950">
        <ele>933.321</ele>
        <time>2022-02-25T01:17:30Z</time>
      </trkpt>
      <trkpt lat="40.447410" lon="-4.263920">
        <ele>933.571</ele>
        <time>2022-02-25T01:18:10Z</time>
      </trkpt>
      <trkpt lat="40.447510" lon="-4.263880">
        <ele>934.034</ele>
        <time>2022-02-25T01:18:50Z</time>
      </trkpt>
      <trkpt lat="40.447630" lon="-4.263840">
        <ele>934.619</ele>
        <time>2022-02-25T01:19:30Z</time>
      </trkpt>
      <trkpt lat="40.448010" lon="-4.263680">
        <ele>936.877</ele>
        <time>2022-02-25T01:20:10Z</time>
      </trkpt>
      <trkpt lat="40.448080" lon="-4.263650">
        <ele>937.495</ele>
        <time>2022-02-25T01:20:50Z</time>
      </trkpt>
      <trkpt lat="40.448570" lon="-4.263470">
        <ele>938.849</ele>
        <time>2022-02-25T01:21:30Z</time>
      </trkpt>
      <trkpt lat="40.448700" lon="-4.263420">
        <ele>939.423</ele>
        <time>2022-02-25T01:22:10Z</time>
      </trkpt>
      <trkpt lat="40.448790" lon="-4.263390">
        <ele>939.808</ele>
        <time>2022-02-25T01:22:50Z</time>
      </trkpt>
      <trkpt lat="40.448940" lon="-4.263340">
        <ele>940.418</ele>
        <time>2022-02-25T01:23:30Z</time>
      </trkpt>
      <trkpt lat="40.448970" lon="-4.263320">
        <ele>940.625</ele>
        <time>2022-02-25T01:24:10Z</time>
      </trkpt>
      <trkpt lat="40.449020" lon="-4.263300">
        <ele>940.889</ele>
        <time>2022-02-25T01:24:50Z</time>
      </trkpt>
      <trkpt lat="40.449140" lon="-4.263250">
        <ele>941.328</ele>
        <time>2022-02-25T01:25:30Z</time>
      </trkpt>
      <trkpt lat="40.449220" lon="-4.263220">
        <ele>941.818</ele>
        <time>2022-02-25T01:26:10Z</time>
      </trkpt>
      <trkpt lat="40.449310" lon="-4.263190">
        <ele>942.511</ele>
        <time>2022-02-25T01:26:50Z</time>
      </trkpt>
      <trkpt lat="40.449480" lon="-4.263120">
        <ele>943.876</ele>
        <time>2022-02-25T01:27:30Z</time>
      </trkpt>
      <trkpt lat="40.449780" lon="-4.263000">
        <ele>946.254</ele>
        <time>2022-02-25T01:28:10Z</time>
      </trkpt>
      <trkpt lat="40.449830" lon="-4.262980">
        <ele>946.598</ele>
        <time>2022-02-25T01:28:50Z</time>
      </trkpt>
      <trkpt lat="40.449870" lon="-4.262960">
        <ele>946.715</ele>
        <time>2022-02-25T01:29:30Z</time>
      </trkpt>
      <trkpt lat="40.450000" lon="-4.262900">
        <ele>947.426</ele>
        <time>2022-02-25T01:30:10Z</time>
      </trkpt>
      <trkpt lat="40.450040" lon="-4.262880">
        <ele>947.708</ele>
        <time>2022-02-25T01:30:50Z</time>
      </trkpt>
      <trkpt lat="40.450170" lon="-4.262830">
        <ele>948.568</ele>
        <time>2022-02-25T01:31:30Z</time>
      </trkpt>
      <trkpt lat="40.450340" lon="-4.262750">
        <ele>949.235</ele>
        <time>2022-02-25T01:32:10Z</time>
      </trkpt>
      <trkpt lat="40.450380" lon="-4.262730">
        <ele>949.249</ele>
        <time>2022-02-25T01:32:50Z</time>
      </trkpt>
      <trkpt lat="40.450510" lon="-4.262680">
        <ele>949.238</ele>
        <time>2022-02-25T01:33:30Z</time>
      </trkpt>
      <trkpt lat="40.450550" lon="-4.262660">
        <ele>949.178</ele>
        <time>2022-02-25T01:34:10Z</time>
      </trkpt>
      <trkpt lat="40.450610" lon="-4.262630">
        <ele>949.251</ele>
        <time>2022-02-25T01:34:50Z</time>
      </trkpt>
      <trkpt lat="40.450830" lon="-4.262560">
        <ele>950.216</ele>
        <time>2022-02-25T01:35:30Z</time>
      </trkpt>
      <trkpt lat="40.450860" lon="-4.262560">
        <ele>950.244</ele>
        <time>2022-02-25T01:36:10Z</time>
      </trkpt>
      <trkpt lat="40.451030" lon="-4.262530">
        <ele>950.263</ele>
        <time>2022-02-25T01:36:50Z</time>
      </trkpt>
      <trkpt lat="40.451080" lon="-4.262520">
        <ele>950.144</ele>
        <time>2022-02-25T01:37:30Z</time>
      </trkpt>
      <trkpt lat="40.451320" lon="-4.262480">
        <ele>949.918</ele>
        <time>2022-02-25T01:38:10Z</time>
      </trkpt>
      <trkpt lat="40.451390" lon="-4.262480">
        <ele>949.908</ele>
        <time>2022-02-25T01:38:50Z</time>
      </trkpt>
      <trkpt lat="40.451570" lon="-4.262460">
        <ele>949.925</ele>
        <time>2022-02-25T01:39:30Z</time>
      </trkpt>
      <trkpt lat="40.451580" lon="-4.262460">
        <ele>949.962</ele>
        <time>2022-02-25T01:40:10Z</time>
      </trkpt>
      <trkpt lat="40.451930" lon="-4.262470">
        <ele>948.946</ele>
        <time>2022-02-25T01:40:50Z</time>
      </trkpt>
      <trkpt lat="40.451970" lon="-4.262470">
        <ele>948.815</ele>
        <time>2022-02-25T01:41:30Z</time>
      </trkpt>
      <trkpt lat="40.451980" lon="-4.262470">
        <ele>948.835</ele>
        <time>2022-02-25T01:42:10Z</time>
      </trkpt>
      <trkpt lat="40.452110" lon="-4.262480">
        <ele>948.338</ele>
        <time>2022-02-25T01:42:50Z</time>
      </trkpt>
      <trkpt lat="40.452160" lon="-4.262490">
        <ele>948.213</ele>
        <time>2022-02-25T01:43:30Z</time>
      </trkpt>
      <trkpt lat="40.452400" lon="-4.262510">
        <ele>946.971</ele>
        <time>2022-02-25T01:44:10Z</time>
      </trkpt>
      <trkpt lat="40.452640" lon="-4.262530">
        <ele>946.044</ele>
        <time>2022-02-25T01:44:50Z</time>
      </trkpt>
      <trkpt lat="40.452720" lon="-4.262540">
        <ele>945.905</ele>
        <time>2022-02-25T01:45:30Z</time>
      </trkpt>
      <trkpt lat="40.452910" lon="-4.262550">
        <ele>944.915</ele>
        <time>2022-02-25T01:46:10Z</time>
      </trkpt>
      <trkpt lat="40.452950" lon="-4.262560">
        <ele>944.808</ele>
        <time>2022-02-25T01:46:50Z</time>
      </trkpt>
      <trkpt lat="40.452990" lon="-4.262560">
        <ele>944.643</ele>
        <time>2022-02-25T01:47:30Z</time>
      </trkpt>
      <trkpt lat="40.453080" lon="-4.262580">
        <ele>944.010</ele>
        <time>2022-02-25T01:48:10Z</time>
      </trkpt>
      <trkpt lat="40.453200" lon="-4.262620">
        <ele>942.334</ele>
        <time>2022-02-25T01:48:50Z</time>
      </trkpt>
      <trkpt lat="40.453270" lon="-4.262640">
        <ele>941.393</ele>
        <time>2022-02-25T01:49:30Z</time>
      </trkpt>
      <trkpt lat="40.453330" lon="-4.262670">
        <ele>940.583</ele>
        <time>2022-02-25T01:50:10Z</time>
      </trkpt>
      <trkpt lat="40.453370" lon="-4.262690">
        <ele>940.326</ele>
        <time>2022-02-25T01:50:50Z</time>
      </trkpt>
      <trkpt lat="40.453400" lon="-4.262700">
        <ele>940.081</ele>
        <time>2022-02-25T01:51:30Z</time>
      </trkpt>
      <trkpt lat="40.453430" lon="-4.262720">
        <ele>940.039</ele>
        <time>2022-02-25T01:52:10Z</time>
      </trkpt>
      <trkpt lat="40.453480" lon="-4.262750">
        <ele>939.988</ele>
        <time>2022-02-25T01:52:50Z</time>
      </trkpt>
      <trkpt lat="40.453510" lon="-4.262770">
        <ele>939.924</ele>
        <time>2022-02-25T01:53:30Z</time>
      </trkpt>
      <trkpt lat="40.453520" lon="-4.262780">
        <ele>940.026</ele>
        <time>2022-02-25T01:54:10Z</time>
      </trkpt>
      <trkpt lat="40.453560" lon="-4.262810">
        <ele>940.008</ele>
        <time>2022-02-25T01:54:50Z</time>
      </trkpt>
      <trkpt lat="40.453560" lon="-4.262820">
        <ele>940.167</ele>
        <time>2022-02-25T01:55:30Z</time>
      </trkpt>
      <trkpt lat="40.453570" lon="-4.262830">
        <ele>940.154</ele>
        <time>2022-02-25T01:56:10Z</time>
      </trkpt>
      <trkpt lat="40.453600" lon="-4.262860">
        <ele>940.098</ele>
        <time>2022-02-25T01:56:50Z</time>
      </trkpt>
      <trkpt lat="40.453640" lon="-4.262920">
        <ele>939.887</ele>
        <time>2022-02-25T01:57:30Z</time>
      </trkpt>
      <trkpt lat="40.453700" lon="-4.263010">
        <ele>939.387</ele>
        <time>2022-02-25T01:58:10Z</time>
      </trkpt>
      <trkpt lat="40.453730" lon="-4.263070">
        <ele>939.230</ele>
        <time>2022-02-25T01:58:50Z</time>
      </trkpt>
      <trkpt lat="40.453780" lon="-4.263140">
        <ele>938.885</ele>
        <time>2022-02-25T01:59:30Z</time>
      </trkpt>
      <trkpt lat="40.453840" lon="-4.263220">
        <ele>938.553</ele>
        <time>2022-02-25T02:00:10Z</time>
      </trkpt>
      <trkpt lat="40.453850" lon="-4.263230">
        <ele>938.441</ele>
        <time>2022-02-25T02:00:50Z</time>
      </trkpt>
      <trkpt lat="40.453870" lon="-4.263250">
        <ele>938.281</ele>
        <time>2022-02-25T02:01:30Z</time>
      </trkpt>
      <trkpt lat="40.453890" lon="-4.263260">
        <ele>937.909</ele>
        <time>2022-02-25T02:02:10Z</time>
      </trkpt>
      <trkpt lat="40.453920" lon="-4.263270">
        <ele>938.208</ele>
        <time>2022-02-25T02:02:50Z</time>
      </trkpt>
      <trkpt lat="40.453950" lon="-4.263280">
        <ele>938.463</ele>
        <time>2022-02-25T02:03:30Z</time>
      </trkpt>
      <trkpt lat="40.453970" lon="-4.263290">
        <ele>938.640</ele>
        <time>2022-02-25T02:04:10Z</time>
      </trkpt>
      <trkpt lat="40.453990" lon="-4.263290">
        <ele>938.754</ele>
        <time>2022-02-25T02:04:50Z</time>
      </trkpt>
      <trkpt lat="40.454020" lon="-4.263300">
        <ele>938.983</ele>
        <time>2022-02-25T02:05:30Z</time>
      </trkpt>
      <trkpt lat="40.454050" lon="-4.263290">
        <ele>938.973</ele>
        <time>2022-02-25T02:06:10Z</time>
      </trkpt>
      <trkpt lat="40.454070" lon="-4.263290">
        <ele>938.936</ele>
        <time>2022-02-25T02:06:50Z</time>
      </trkpt>
      <trkpt lat="40.454100" lon="-4.263290">
        <ele>939.081</ele>
        <time>2022-02-25T02:07:30Z</time>
      </trkpt>
      <trkpt lat="40.454110" lon="-4.263280">
        <ele>938.929</ele>
        <time>2022-02-25T02:08:10Z</time>
      </trkpt>
      <trkpt lat="40.454130" lon="-4.263280">
        <ele>938.968</ele>
        <time>2022-02-25T02:08:50Z</time>
      </trkpt>
      <trkpt lat="40.454170" lon="-4.263260">
        <ele>938.742</ele>
        <time>2022-02-25T02:09:30Z</time>
      </trkpt>
      <trkpt lat="40.454220" lon="-4.263240">
        <ele>938.626</ele>
        <time>2022-02-25T02:10:10Z</time>
      </trkpt>
      <trkpt lat="40.454370" lon="-4.263150">
        <ele>937.908</ele>
        <time>2022-02-25T02:10:50Z</time>
      </trkpt>
      <trkpt lat="40.454420" lon="-4.263130">
        <ele>937.945</ele>
        <time>2022-02-25T02:11:30Z</time>
      </trkpt>
      <trkpt lat="40.454460" lon="-4.263120">
        <ele>937.962</ele>
        <time>2022-02-25T02:12:10Z</time>
      </trkpt>
      <trkpt lat="40.454470" lon="-4.263110">
        <ele>937.846</ele>
        <time>2022-02-25T02:12:50Z</time>
      </trkpt>
      <trkpt lat="40.454520" lon="-4.263090">
        <ele>937.525</ele>
        <time>2022-02-25T02:13:30Z</time>
      </trkpt>
      <trkpt lat="40.454590" lon="-4.263060">
        <ele>937.125</ele>
        <time>2022-02-25T02:14:10Z</time>
      </trkpt>
      <trkpt lat="40.454790" lon="-4.263010">
        <ele>936.078</ele>
        <time>2022-02-25T02:14:50Z</time>
      </trkpt>
      <trkpt lat="40.454930" lon="-4.262970">
        <ele>935.243</ele>
        <time>2022-02-25T02:15:30Z</time>
      </trkpt>
      <trkpt lat="40.455040" lon="-4.262940">
        <ele>934.351</ele>
        <time>2022-02-25T02:16:10Z</time>
      </trkpt>
      <trkpt lat="40.455160" lon="-4.262910">
        <ele>933.027</ele>
        <time>2022-02-25T02:16:50Z</time>
      </trkpt>
      <trkpt lat="40.455290" lon="-4.262870">
        <ele>930.968</ele>
        <time>2022-02-25T02:17:30Z</time>
      </trkpt>
      <trkpt lat="40.455400" lon="-4.262860">
        <ele>929.814</ele>
        <time>2022-02-25T02:18:10Z</time>
      </trkpt>
      <trkpt lat="40.455490" lon="-4.262860">
        <ele>929.108</ele>
        <time>2022-02-25T02:18:50Z</time>
      </trkpt>
      <trkpt lat="40.455540" lon="-4.262860">
        <ele>928.831</ele>
        <time>2022-02-25T02:19:30Z</time>
      </trkpt>
      <trkpt lat="40.455600" lon="-4.262860">
        <ele>928.478</ele>
        <time>2022-02-25T02:20:10Z</time>
      </trkpt>
      <trkpt lat="40.455640" lon="-4.262870">
        <ele>928.442</ele>
        <time>2022-02-25T02:20:50Z</time>
      </trkpt>
      <trkpt lat="40.455690" lon="-4.262880">
        <ele>928.321</ele>
        <time>2022-02-25T02:21:30Z</time>
      </trkpt>
      <trkpt lat="40.455730" lon="-4.262890">
        <ele>928.281</ele>
        <time>2022-02-25T02:22:10Z</time>
      </trkpt>
      <trkpt lat="40.455800" lon="-4.262910">
        <ele>928.144</ele>
        <time>2022-02-25T02:22:50Z</time>
      </trkpt>
      <trkpt lat="40.455870" lon="-4.262930">
        <ele>927.849</ele>
        <time>2022-02-25T02:23:30Z</time>
      </trkpt>
      <trkpt lat="40.455900" lon="-4.262950">
        <ele>927.967</ele>
        <time>2022-02-25T02:24:10Z</time>
      </trkpt>
      <trkpt lat="40.455930" lon="-4.262960">
        <ele>927.764</ele>
        <time>2022-02-25T02:24:50Z</time>
      </trkpt>
      <trkpt lat="40.455970" lon="-4.262980">
        <ele>927.506</ele>
        <time>2022-02-25T02:25:30Z</time>
      </trkpt>
      <trkpt lat="40.456010" lon="-4.263000">
        <ele>927.416</ele>
        <time>2022-02-25T02:26:10Z</time>
      </trkpt>
      <trkpt lat="40.456040" lon="-4.263010">
        <ele>927.208</ele>
        <time>2022-02-25T02:26:50Z</time>
      </trkpt>
      <trkpt lat="40.456040" lon="-4.263020">
        <ele>927.475</ele>
        <time>2022-02-25T02:27:30Z</time>
      </trkpt>
      <trkpt lat="40.456070" lon="-4.263040">
        <ele>927.312</ele>
        <time>2022-02-25T02:28:10Z</time>
      </trkpt>
      <trkpt lat="40.456120" lon="-4.263080">
        <ele>927.386</ele>
        <time>2022-02-25T02:28:50Z</time>
      </trkpt>
      <trkpt lat="40.456190" lon="-4.263140">
        <ele>927.095</ele>
        <time>2022-02-25T02:29:30Z</time>
      </trkpt>
      <trkpt lat="40.456220" lon="-4.263180">
        <ele>927.265</ele>
        <time>2022-02-25T02:30:10Z</time>
      </trkpt>
      <trkpt lat="40.456270" lon="-4.263230">
        <ele>927.078</ele>
        <time>2022-02-25T02:30:50Z</time>
      </trkpt>
      <trkpt lat="40.456310" lon="-4.263270">
        <ele>926.833</ele>
        <time>2022-02-25T02:31:30Z</time>
      </trkpt>
      <trkpt lat="40.456350" lon="-4.263320">
        <ele>926.761</ele>
        <time>2022-02-25T02:32:10Z</time>
      </trkpt>
      <trkpt lat="40.456410" lon="-4.263390">
        <ele>926.298</ele>
        <time>2022-02-25T02:32:50Z</time>
      </trkpt>
      <trkpt lat="40.456510" lon="-4.263540">
        <ele>924.915</ele>
        <time>2022-02-25T02:33:30Z</time>
      </trkpt>
      <trkpt lat="40.456630" lon="-4.263780">
        <ele>925.826</ele>
        <time>2022-02-25T02:34:10Z</time>
      </trkpt>
      <trkpt lat="40.456680" lon="-4.263850">
        <ele>925.608</ele>
        <time>2022-02-25T02:34:50Z</time>
      </trkpt>
      <trkpt lat="40.456730" lon="-4.263920">
        <ele>925.988</ele>
        <time>2022-02-25T02:35:30Z</time>
      </trkpt>
      <trkpt lat="40.456800" lon="-4.264000">
        <ele>925.785</ele>
        <time>2022-02-25T02:36:10Z</time>
      </trkpt>
      <trkpt lat="40.456850" lon="-4.264050">
        <ele>925.139</ele>
        <time>2022-02-25T02:36:50Z</time>
      </trkpt>
      <trkpt lat="40.456930" lon="-4.264100">
        <ele>923.178</ele>
        <time>2022-02-25T02:37:30Z</time>
      </trkpt>
      <trkpt lat="40.456950" lon="-4.264120">
        <ele>922.948</ele>
        <time>2022-02-25T02:38:10Z</time>
      </trkpt>
      <trkpt lat="40.457000" lon="-4.264150">
        <ele>922.641</ele>
        <time>2022-02-25T02:38:50Z</time>
      </trkpt>
      <trkpt lat="40.457010" lon="-4.264160">
        <ele>922.786</ele>
        <time>2022-02-25T02:39:30Z</time>
      </trkpt>
      <trkpt lat="40.457060" lon="-4.264180">
        <ele>922.254</ele>
        <time>2022-02-25T02:40:10Z</time>
      </trkpt>
      <trkpt lat="40.457120" lon="-4.264200">
        <ele>921.727</ele>
        <time>2022-02-25T02:40:50Z</time>
      </trkpt>
      <trkpt lat="40.457190" lon="-4.264210">
        <ele>920.868</ele>
        <time>2022-02-25T02:41:30Z</time>
      </trkpt>
      <trkpt lat="40.457230" lon="-4.264220">
        <ele>920.514</ele>
        <time>2022-02-25T02:42:10Z</time>
      </trkpt>
      <trkpt lat="40.457260" lon="-4.264220">
        <ele>920.408</ele>
        <time>2022-02-25T02:42:50Z</time>
      </trkpt>
      <trkpt lat="40.457290" lon="-4.264220">
        <ele>920.361</ele>
        <time>2022-02-25T02:43:30Z</time>
      </trkpt>
      <trkpt lat="40.457330" lon="-4.264210">
        <ele>919.998</ele>
        <time>2022-02-25T02:44:10Z</time>
      </trkpt>
      <trkpt lat="40.457380" lon="-4.264200">
        <ele>919.432</ele>
        <time>2022-02-25T02:44:50Z</time>
      </trkpt>
      <trkpt lat="40.457470" lon="-4.264160">
        <ele>917.981</ele>
        <time>2022-02-25T02:45:30Z</time>
      </trkpt>
      <trkpt lat="40.457490" lon="-4.264150">
        <ele>917.631</ele>
        <time>2022-02-25T02:46:10Z</time>
      </trkpt>
      <trkpt lat="40.457560" lon="-4.264120">
        <ele>916.954</ele>
        <time>2022-02-25T02:46:50Z</time>
      </trkpt>
      <trkpt lat="40.457640" lon="-4.264080">
        <ele>916.059</ele>
        <time>2022-02-25T02:47:30Z</time>
      </trkpt>
      <trkpt lat="40.457740" lon="-4.264030">
        <ele>914.987</ele>
        <time>2022-02-25T02:48:10Z</time>
      </trkpt>
      <trkpt lat="40.457810" lon="-4.263980">
        <ele>913.796</ele>
        <time>2022-02-25T02:48:50Z</time>
      </trkpt>
      <trkpt lat="40.457830" lon="-4.263970">
        <ele>913.531</ele>
        <time>2022-02-25T02:49:30Z</time>
      </trkpt>
      <trkpt lat="40.457960" lon="-4.263890">
        <ele>911.724</ele>
        <time>2022-02-25T02:50:10Z</time>
      </trkpt>
      <trkpt lat="40.457970" lon="-4.263890">
        <ele>911.708</ele>
        <time>2022-02-25T02:50:50Z</time>
      </trkpt>
      <trkpt lat="40.458110" lon="-4.263800">
        <ele>910.528</ele>
        <time>2022-02-25T02:51:30Z</time>
      </trkpt>
      <trkpt lat="40.458140" lon="-4.263790">
        <ele>910.535</ele>
        <time>2022-02-25T02:52:10Z</time>
      </trkpt>
      <trkpt lat="40.458300" lon="-4.263690">
        <ele>909.569</ele>
        <time>2022-02-25T02:52:50Z</time>
      </trkpt>
      <trkpt lat="40.458370" lon="-4.263650">
        <ele>909.018</ele>
        <time>2022-02-25T02:53:30Z</time>
      </trkpt>
      <trkpt lat="40.458460" lon="-4.263590">
        <ele>908.018</ele>
        <time>2022-02-25T02:54:10Z</time>
      </trkpt>
      <trkpt lat="40.458480" lon="-4.263580">
        <ele>907.941</ele>
        <time>2022-02-25T02:54:50Z</time>
      </trkpt>
      <trkpt lat="40.458570" lon="-4.263520">
        <ele>906.926</ele>
        <time>2022-02-25T02:55:30Z</time>
      </trkpt>
      <trkpt lat="40.458620" lon="-4.263490">
        <ele>906.514</ele>
        <time>2022-02-25T02:56:10Z</time>
      </trkpt>
      <trkpt lat="40.458670" lon="-4.263460">
        <ele>906.378</ele>
        <time>2022-02-25T02:56:50Z</time>
      </trkpt>
      <trkpt lat="40.458800" lon="-4.263380">
        <ele>905.533</ele>
        <time>2022-02-25T02:57:30Z</time>
      </trkpt>
      <trkpt lat="40.458840" lon="-4.263350">
        <ele>905.126</ele>
        <time>2022-02-25T02:58:10Z</time>
      </trkpt>
      <trkpt lat="40.458910" lon="-4.263310">
        <ele>904.608</ele>
        <time>2022-02-25T02:58:50Z</time>
      </trkpt>
      <trkpt lat="40.459020" lon="-4.263250">
        <ele>904.016</ele>
        <time>2022-02-25T02:59:30Z</time>
      </trkpt>
      <trkpt lat="40.459070" lon="-4.263220">
        <ele>903.633</ele>
        <time>2022-02-25T03:00:10Z</time>
      </trkpt>
      <trkpt lat="40.459150" lon="-4.263180">
        <ele>902.977</ele>
        <time>2022-02-25T03:00:50Z</time>
      </trkpt>
      <trkpt lat="40.459240" lon="-4.263140">
        <ele>901.846</ele>
        <time>2022-02-25T03:01:30Z</time>
      </trkpt>
      <trkpt lat="40.459320" lon="-4.263110">
        <ele>900.956</ele>
        <time>2022-02-25T03:02:10Z</time>
      </trkpt>
      <trkpt lat="40.459410" lon="-4.263070">
        <ele>899.549</ele>
        <time>2022-02-25T03:02:50Z</time>
      </trkpt>
      <trkpt lat="40.459490" lon="-4.263050">
        <ele>898.964</ele>
        <time>2022-02-25T03:03:30Z</time>
      </trkpt>
      <trkpt lat="40.459550" lon="-4.263030">
        <ele>898.552</ele>
        <time>2022-02-25T03:04:10Z</time>
      </trkpt>
      <trkpt lat="40.459600" lon="-4.263020">
        <ele>898.458</ele>
        <time>2022-02-25T03:04:50Z</time>
      </trkpt>
      <trkpt lat="40.459670" lon="-4.263010">
        <ele>898.252</ele>
        <time>2022-02-25T03:05:30Z</time>
      </trkpt>
      <trkpt lat="40.459730" lon="-4.262990">
        <ele>897.817</ele>
        <time>2022-02-25T03:06:10Z</time>
      </trkpt>
      <trkpt lat="40.459870" lon="-4.262990">
        <ele>897.808</ele>
        <time>2022-02-25T03:06:50Z</time>
      </trkpt>
      <trkpt lat="40.460040" lon="-4.262990">
        <ele>897.644</ele>
        <time>2022-02-25T03:07:30Z</time>
      </trkpt>
      <trkpt lat="40.460160" lon="-4.263000">
        <ele>897.381</ele>
        <time>2022-02-25T03:08:10Z</time>
      </trkpt>
      <trkpt lat="40.460210" lon="-4.263000">
        <ele>897.195</ele>
        <time>2022-02-25T03:08:50Z</time>
      </trkpt>
      <trkpt lat="40.460240" lon="-4.263000">
        <ele>897.074</ele>
        <time>2022-02-25T03:09:30Z</time>
      </trkpt>
      <trkpt lat="40.460270" lon="-4.262990">
        <ele>896.674</ele>
        <time>2022-02-25T03:10:10Z</time>
      </trkpt>
      <trkpt lat="40.460310" lon="-4.262990">
        <ele>896.777</ele>
        <time>2022-02-25T03:10:50Z</time>
      </trkpt>
      <trkpt lat="40.460350" lon="-4.262980">
        <ele>896.692</ele>
        <time>2022-02-25T03:11:30Z</time>
      </trkpt>
      <trkpt lat="40.460380" lon="-4.262980">
        <ele>896.710</ele>
        <time>2022-02-25T03:12:10Z</time>
      </trkpt>
      <trkpt lat="40.460430" lon="-4.262960">
        <ele>896.545</ele>
        <time>2022-02-25T03:12:50Z</time>
      </trkpt>
      <trkpt lat="40.460600" lon="-4.262890">
        <ele>895.647</ele>
        <time>2022-02-25T03:13:30Z</time>
      </trkpt>
      <trkpt lat="40.460720" lon="-4.262840">
        <ele>895.111</ele>
        <time>2022-02-25T03:14:10Z</time>
      </trkpt>
      <trkpt lat="40.460880" lon="-4.262770">
        <ele>894.008</ele>
        <time>2022-02-25T03:14:50Z</time>
      </trkpt>
      <trkpt lat="40.460970" lon="-4.262720">
        <ele>893.053</ele>
        <time>2022-02-25T03:15:30Z</time>
      </trkpt>
      <trkpt lat="40.461080" lon="-4.262670">
        <ele>892.220</ele>
        <time>2022-02-25T03:16:10Z</time>
      </trkpt>
      <trkpt lat="40.461150" lon="-4.262650">
        <ele>891.694</ele>
        <time>2022-02-25T03:16:50Z</time>
      </trkpt>
      <trkpt lat="40.461190" lon="-4.262630">
        <ele>891.013</ele>
        <time>2022-02-25T03:17:30Z</time>
      </trkpt>
      <trkpt lat="40.461300" lon="-4.262600">
        <ele>889.893</ele>
        <time>2022-02-25T03:18:10Z</time>
      </trkpt>
      <trkpt lat="40.461330" lon="-4.262600">
        <ele>889.716</ele>
        <time>2022-02-25T03:18:50Z</time>
      </trkpt>
      <trkpt lat="40.461360" lon="-4.262590">
        <ele>889.491</ele>
        <time>2022-02-25T03:19:30Z</time>
      </trkpt>
      <trkpt lat="40.461420" lon="-4.262590">
        <ele>889.039</ele>
        <time>2022-02-25T03:20:10Z</time>
      </trkpt>
      <trkpt lat="40.461560" lon="-4.262590">
        <ele>887.621</ele>
        <time>2022-02-25T03:20:50Z</time>
      </trkpt>
      <trkpt lat="40.461570" lon="-4.262590">
        <ele>887.541</ele>
        <time>2022-02-25T03:21:30Z</time>
      </trkpt>
      <trkpt lat="40.461620" lon="-4.262590">
        <ele>887.105</ele>
        <time>2022-02-25T03:22:10Z</time>
      </trkpt>
      <trkpt lat="40.461660" lon="-4.262600">
        <ele>886.908</ele>
        <time>2022-02-25T03:22:50Z</time>
      </trkpt>
      <trkpt lat="40.461710" lon="-4.262610">
        <ele>886.381</ele>
        <time>2022-02-25T03:23:30Z</time>
      </trkpt>
      <trkpt lat="40.461740" lon="-4.262620">
        <ele>886.048</ele>
        <time>2022-02-25T03:24:10Z</time>
      </trkpt>
      <trkpt lat="40.461780" lon="-4.262630">
        <ele>885.552</ele>
        <time>2022-02-25T03:24:50Z</time>
      </trkpt>
      <trkpt lat="40.461810" lon="-4.262640">
        <ele>885.211</ele>
        <time>2022-02-25T03:25:30Z</time>
      </trkpt>
      <trkpt lat="40.461850" lon="-4.262660">
        <ele>884.921</ele>
        <time>2022-02-25T03:26:10Z</time>
      </trkpt>
      <trkpt lat="40.461910" lon="-4.262680">
        <ele>884.244</ele>
        <time>2022-02-25T03:26:50Z</time>
      </trkpt>
      <trkpt lat="40.462020" lon="-4.262740">
        <ele>883.429</ele>
        <time>2022-02-25T03:27:30Z</time>
      </trkpt>
      <trkpt lat="40.462110" lon="-4.262790">
        <ele>882.867</ele>
        <time>2022-02-25T03:28:10Z</time>
      </trkpt>
      <trkpt lat="40.462170" lon="-4.262820">
        <ele>882.374</ele>
        <time>2022-02-25T03:28:50Z</time>
      </trkpt>
      <trkpt lat="40.462210" lon="-4.262860">
        <ele>882.156</ele>
        <time>2022-02-25T03:29:30Z</time>
      </trkpt>
      <trkpt lat="40.462250" lon="-4.262890">
        <ele>881.621</ele>
        <time>2022-02-25T03:30:10Z</time>
      </trkpt>
      <trkpt lat="40.462280" lon="-4.262910">
        <ele>881.208</ele>
        <time>2022-02-25T03:30:50Z</time>
      </trkpt>
      <trkpt lat="40.462310" lon="-4.262950">
        <ele>881.066</ele>
        <time>2022-02-25T03:31:30Z</time>
      </trkpt>
      <trkpt lat="40.462330" lon="-4.262980">
        <ele>880.953</ele>
        <time>2022-02-25T03:32:10Z</time>
      </trkpt>
      <trkpt lat="40.462360" lon="-4.263020">
        <ele>880.657</ele>
        <time>2022-02-25T03:32:50Z</time>
      </trkpt>
      <trkpt lat="40.462420" lon="-4.263100">
        <ele>880.166</ele>
        <time>2022-02-25T03:33:30Z</time>
      </trkpt>
      <trkpt lat="40.462450" lon="-4.263140">
        <ele>879.756</ele>
        <time>2022-02-25T03:34:10Z</time>
      </trkpt>
      <trkpt lat="40.462470" lon="-4.263160">
        <ele>879.479</ele>
        <time>2022-02-25T03:34:50Z</time>
      </trkpt>
      <trkpt lat="40.462480" lon="-4.263170">
        <ele>879.374</ele>
        <time>2022-02-25T03:35:30Z</time>
      </trkpt>
      <trkpt lat="40.462490" lon="-4.263180">
        <ele>879.192</ele>
        <time>2022-02-25T03:36:10Z</time>
      </trkpt>
      <trkpt lat="40.462510" lon="-4.263190">
        <ele>878.954</ele>
        <time>2022-02-25T03:36:50Z</time>
      </trkpt>
      <trkpt lat="40.462520" lon="-4.263200">
        <ele>879.056</ele>
        <time>2022-02-25T03:37:30Z</time>
      </trkpt>
      <trkpt lat="40.462540" lon="-4.263200">
        <ele>878.911</ele>
        <time>2022-02-25T03:38:10Z</time>
      </trkpt>
      <trkpt lat="40.462550" lon="-4.263210">
        <ele>879.008</ele>
        <time>2022-02-25T03:38:50Z</time>
      </trkpt>
      <trkpt lat="40.462570" lon="-4.263210">
        <ele>878.954</ele>
        <time>2022-02-25T03:39:30Z</time>
      </trkpt>
      <trkpt lat="40.462580" lon="-4.263210">
        <ele>878.991</ele>
        <time>2022-02-25T03:40:10Z</time>
      </trkpt>
      <trkpt lat="40.462600" lon="-4.263210">
        <ele>878.885</ele>
        <time>2022-02-25T03:40:50Z</time>
      </trkpt>
      <trkpt lat="40.462620" lon="-4.263200">
        <ele>878.674</ele>
        <time>2022-02-25T03:41:30Z</time>
      </trkpt>
      <trkpt lat="40.462630" lon="-4.263200">
        <ele>878.674</ele>
        <time>2022-02-25T03:42:10Z</time>
      </trkpt>
      <trkpt lat="40.462650" lon="-4.263190">
        <ele>878.487</ele>
        <time>2022-02-25T03:42:50Z</time>
      </trkpt>
      <trkpt lat="40.462670" lon="-4.263180">
        <ele>878.292</ele>
        <time>2022-02-25T03:43:30Z</time>
      </trkpt>
      <trkpt lat="40.462680" lon="-4.263160">
        <ele>877.980</ele>
        <time>2022-02-25T03:44:10Z</time>
      </trkpt>
      <trkpt lat="40.462690" lon="-4.263150">
        <ele>877.859</ele>
        <time>2022-02-25T03:44:50Z</time>
      </trkpt>
      <trkpt lat="40.462700" lon="-4.263140">
        <ele>877.603</ele>
        <time>2022-02-25T03:45:30Z</time>
      </trkpt>
      <trkpt lat="40.462710" lon="-4.263120">
        <ele>877.323</ele>
        <time>2022-02-25T03:46:10Z</time>
      </trkpt>
      <trkpt lat="40.462720" lon="-4.263100">
        <ele>877.008</ele>
        <time>2022-02-25T03:46:50Z</time>
      </trkpt>
      <trkpt lat="40.462730" lon="-4.263060">
        <ele>876.454</ele>
        <time>2022-02-25T03:47:30Z</time>
      </trkpt>
      <trkpt lat="40.462730" lon="-4.263030">
        <ele>876.051</ele>
        <time>2022-02-25T03:48:10Z</time>
      </trkpt>
      <trkpt lat="40.462730" lon="-4.263000">
        <ele>875.695</ele>
        <time>2022-02-25T03:48:50Z</time>
      </trkpt>
      <trkpt lat="40.462720" lon="-4.262970">
        <ele>875.284</ele>
        <time>2022-02-25T03:49:30Z</time>
      </trkpt>
      <trkpt lat="40.462720" lon="-4.262940">
        <ele>874.874</ele>
        <time>2022-02-25T03:50:10Z</time>
      </trkpt>
      <trkpt lat="40.462700" lon="-4.262890">
        <ele>874.317</ele>
        <time>2022-02-25T03:50:50Z</time>
      </trkpt>
      <trkpt lat="40.462670" lon="-4.262830">
        <ele>873.852</ele>
        <time>2022-02-25T03:51:30Z</time>
      </trkpt>
      <trkpt lat="40.462670" lon="-4.262820">
        <ele>873.770</ele>
        <time>2022-02-25T03:52:10Z</time>
      </trkpt>
      <trkpt lat="40.462640" lon="-4.262770">
        <ele>873.426</ele>
        <time>2022-02-25T03:52:50Z</time>
      </trkpt>
      <trkpt lat="40.462600" lon="-4.262700">
        <ele>873.147</ele>
        <time>2022-02-25T03:53:30Z</time>
      </trkpt>
      <trkpt lat="40.462250" lon="-4.262260">
        <ele>874.111</ele>
        <time>2022-02-25T03:54:10Z</time>
      </trkpt>
      <trkpt lat="40.462170" lon="-4.262150">
        <ele>873.608</ele>
        <time>2022-02-25T03:54:50Z</time>
      </trkpt>
      <trkpt lat="40.462110" lon="-4.262080">
        <ele>873.461</ele>
        <time>2022-02-25T03:55:30Z</time>
      </trkpt>
      <trkpt lat="40.461990" lon="-4.261920">
        <ele>873.068</ele>
        <time>2022-02-25T03:56:10Z</time>
      </trkpt>
      <trkpt lat="40.461600" lon="-4.261430">
        <ele>869.122</ele>
        <time>2022-02-25T03:56:50Z</time>
      </trkpt>
      <trkpt lat="40.461580" lon="-4.261400">
        <ele>868.841</ele>
        <time>2022-02-25T03:57:30Z</time>
      </trkpt>
      <trkpt lat="40.461550" lon="-4.261380">
        <ele>868.731</ele>
        <time>2022-02-25T03:58:10Z</time>
      </trkpt>
      <trkpt lat="40.461520" lon="-4.261360">
        <ele>868.594</ele>
        <time>2022-02-25T03:58:50Z</time>
      </trkpt>
      <trkpt lat="40.461500" lon="-4.261350">
        <ele>868.469</ele>
        <time>2022-02-25T03:59:30Z</time>
      </trkpt>
      <trkpt lat="40.461450" lon="-4.261330">
        <ele>868.367</ele>
        <time>2022-02-25T04:00:10Z</time>
      </trkpt>
      <trkpt lat="40.461440" lon="-4.261330">
        <ele>868.411</ele>
        <time>2022-02-25T04:00:50Z</time>
      </trkpt>
      <trkpt lat="40.461360" lon="-4.261320">
        <ele>868.521</ele>
        <time>2022-02-25T04:01:30Z</time>
      </trkpt>
      <trkpt lat="40.461340" lon="-4.261330">
        <ele>868.803</ele>
        <time>2022-02-25T04:02:10Z</time>
      </trkpt>
      <trkpt lat="40.461260" lon="-4.261330">
        <ele>868.808</ele>
        <time>2022-02-25T04:02:50Z</time>
      </trkpt>
      <trkpt lat="40.461110" lon="-4.261350">
        <ele>869.340</ele>
        <time>2022-02-25T04:03:30Z</time>
      </trkpt>
      <trkpt lat="40.460860" lon="-4.261380">
        <ele>867.227</ele>
        <time>2022-02-25T04:04:10Z</time>
      </trkpt>
      <trkpt lat="40.460770" lon="-4.261380">
        <ele>866.671</ele>
        <time>2022-02-25T04:04:50Z</time>
      </trkpt>
      <trkpt lat="40.460680" lon="-4.261380">
        <ele>866.380</ele>
        <time>2022-02-25T04:05:30Z</time>
      </trkpt>
      <trkpt lat="40.460600" lon="-4.261380">
        <ele>866.090</ele>
        <time>2022-02-25T04:06:10Z</time>
      </trkpt>
      <trkpt lat="40.460550" lon="-4.261370">
        <ele>865.713</ele>
        <time>2022-02-25T04:06:50Z</time>
      </trkpt>
      <trkpt lat="40.460510" lon="-4.261370">
        <ele>865.918</ele>
        <time>2022-02-25T04:07:30Z</time>
      </trkpt>
      <trkpt lat="40.460500" lon="-4.261360">
        <ele>865.876</ele>
        <time>2022-02-25T04:08:10Z</time>
      </trkpt>
      <trkpt lat="40.460480" lon="-4.261350">
        <ele>865.882</ele>
        <time>2022-02-25T04:08:50Z</time>
      </trkpt>
      <trkpt lat="40.460460" lon="-4.261320">
        <ele>865.443</ele>
        <time>2022-02-25T04:09:30Z</time>
      </trkpt>
      <trkpt lat="40.460450" lon="-4.261310">
        <ele>865.417</ele>
        <time>2022-02-25T04:10:10Z</time>
      </trkpt>
      <trkpt lat="40.460450" lon="-4.261300">
        <ele>865.208</ele>
        <time>2022-02-25T04:10:50Z</time>
      </trkpt>
      <trkpt lat="40.460450" lon="-4.261290">
        <ele>865.127</ele>
        <time>2022-02-25T04:11:30Z</time>
      </trkpt>
      <trkpt lat="40.460440" lon="-4.261270">
        <ele>864.924</ele>
        <time>2022-02-25T04:12:10Z</time>
      </trkpt>
      <trkpt lat="40.460440" lon="-4.261260">
        <ele>864.868</ele>
        <time>2022-02-25T04:12:50Z</time>
      </trkpt>
      <trkpt lat="40.460440" lon="-4.261250">
        <ele>864.637</ele>
        <time>2022-02-25T04:13:30Z</time>
      </trkpt>
      <trkpt lat="40.460440" lon="-4.261240">
        <ele>864.517</ele>
        <time>2022-02-25T04:14:10Z</time>
      </trkpt>
      <trkpt lat="40.460440" lon="-4.261220">
        <ele>864.230</ele>
        <time>2022-02-25T04:14:50Z</time>
      </trkpt>
      <trkpt lat="40.460440" lon="-4.261210">
        <ele>864.185</ele>
        <time>2022-02-25T04:15:30Z</time>
      </trkpt>
      <trkpt lat="40.460440" lon="-4.261190">
        <ele>863.973</ele>
        <time>2022-02-25T04:16:10Z</time>
      </trkpt>
      <trkpt lat="40.460440" lon="-4.261180">
        <ele>863.782</ele>
        <time>2022-02-25T04:16:50Z</time>
      </trkpt>
      <trkpt lat="40.460450" lon="-4.261160">
        <ele>863.443</ele>
        <time>2022-02-25T04:17:30Z</time>
      </trkpt>
      <trkpt lat="40.460450" lon="-4.261150">
        <ele>863.317</ele>
        <time>2022-02-25T04:18:10Z</time>
      </trkpt>
      <trkpt lat="40.460470" lon="-4.261110">
        <ele>862.608</ele>
        <time>2022-02-25T04:18:50Z</time>
      </trkpt>
      <trkpt lat="40.460500" lon="-4.261070">
        <ele>861.817</ele>
        <time>2022-02-25T04:19:30Z</time>
      </trkpt>
      <trkpt lat="40.460510" lon="-4.261070">
        <ele>861.774</ele>
        <time>2022-02-25T04:20:10Z</time>
      </trkpt>
      <trkpt lat="40.460530" lon="-4.261040">
        <ele>861.258</ele>
        <time>2022-02-25T04:20:50Z</time>
      </trkpt>
      <trkpt lat="40.460570" lon="-4.261020">
        <ele>860.777</ele>
        <time>2022-02-25T04:21:30Z</time>
      </trkpt>
      <trkpt lat="40.460610" lon="-4.260990">
        <ele>860.447</ele>
        <time>2022-02-25T04:22:10Z</time>
      </trkpt>
      <trkpt lat="40.460640" lon="-4.260970">
        <ele>860.140</ele>
        <time>2022-02-25T04:22:50Z</time>
      </trkpt>
      <trkpt lat="40.460650" lon="-4.260970">
        <ele>860.195</ele>
        <time>2022-02-25T04:23:30Z</time>
      </trkpt>
      <trkpt lat="40.460870" lon="-4.260860">
        <ele>858.793</ele>
        <time>2022-02-25T04:24:10Z</time>
      </trkpt>
      <trkpt lat="40.461020" lon="-4.260800">
        <ele>858.642</ele>
        <time>2022-02-25T04:24:50Z</time>
      </trkpt>
      <trkpt lat="40.461300" lon="-4.260700">
        <ele>856.322</ele>
        <time>2022-02-25T04:25:30Z</time>
      </trkpt>
      <trkpt lat="40.461310" lon="-4.260700">
        <ele>856.314</ele>
        <time>2022-02-25T04:26:10Z</time>
      </trkpt>
      <trkpt lat="40.461480" lon="-4.260640">
        <ele>854.708</ele>
        <time>2022-02-25T04:26:50Z</time>
      </trkpt>
      <trkpt lat="40.461670" lon="-4.260580">
        <ele>853.463</ele>
        <time>2022-02-25T04:27:30Z</time>
      </trkpt>
      <trkpt lat="40.461760" lon="-4.260550">
        <ele>852.230</ele>
        <time>2022-02-25T04:28:10Z</time>
      </trkpt>
      <trkpt lat="40.461830" lon="-4.260540">
        <ele>851.544</ele>
        <time>2022-02-25T04:28:50Z</time>
      </trkpt>
      <trkpt lat="40.461900" lon="-4.260530">
        <ele>850.913</ele>
        <time>2022-02-25T04:29:30Z</time>
      </trkpt>
      <trkpt lat="40.461970" lon="-4.260530">
        <ele>850.413</ele>
        <time>2022-02-25T04:30:10Z</time>
      </trkpt>
      <trkpt lat="40.462060" lon="-4.260530">
        <ele>849.736</ele>
        <time>2022-02-25T04:30:50Z</time>
      </trkpt>
      <trkpt lat="40.462140" lon="-4.260540">
        <ele>849.311</ele>
        <time>2022-02-25T04:31:30Z</time>
      </trkpt>
      <trkpt lat="40.462190" lon="-4.260540">
        <ele>849.049</ele>
        <time>2022-02-25T04:32:10Z</time>
      </trkpt>
      <trkpt lat="40.462270" lon="-4.260550">
        <ele>848.472</ele>
        <time>2022-02-25T04:32:50Z</time>
      </trkpt>
      <trkpt lat="40.462310" lon="-4.260560">
        <ele>848.113</ele>
        <time>2022-02-25T04:33:30Z</time>
      </trkpt>
      <trkpt lat="40.462320" lon="-4.260570">
        <ele>848.214</ele>
        <time>2022-02-25T04:34:10Z</time>
      </trkpt>
      <trkpt lat="40.462340" lon="-4.260570">
        <ele>848.008</ele>
        <time>2022-02-25T04:34:50Z</time>
      </trkpt>
      <trkpt lat="40.462380" lon="-4.260590">
        <ele>847.926</ele>
        <time>2022-02-25T04:35:30Z</time>
      </trkpt>
      <trkpt lat="40.462410" lon="-4.260610">
        <ele>847.963</ele>
        <time>2022-02-25T04:36:10Z</time>
      </trkpt>
      <trkpt lat="40.462430" lon="-4.260630">
        <ele>848.037</ele>
        <time>2022-02-25T04:36:50Z</time>
      </trkpt>
      <trkpt lat="40.462450" lon="-4.260650">
        <ele>848.246</ele>
        <time>2022-02-25T04:37:30Z</time>
      </trkpt>
      <trkpt lat="40.462490" lon="-4.260680">
        <ele>848.386</ele>
        <time>2022-02-25T04:38:10Z</time>
      </trkpt>
      <trkpt lat="40.462530" lon="-4.260730">
        <ele>848.479</ele>
        <time>2022-02-25T04:38:50Z</time>
      </trkpt>
      <trkpt lat="40.462580" lon="-4.260770">
        <ele>847.934</ele>
        <time>2022-02-25T04:39:30Z</time>
      </trkpt>
      <trkpt lat="40.462670" lon="-4.260850">
        <ele>846.912</ele>
        <time>2022-02-25T04:40:10Z</time>
      </trkpt>
      <trkpt lat="40.462710" lon="-4.260880">
        <ele>846.359</ele>
        <time>2022-02-25T04:40:50Z</time>
      </trkpt>
      <trkpt lat="40.462750" lon="-4.260900">
        <ele>845.603</ele>
        <time>2022-02-25T04:41:30Z</time>
      </trkpt>
      <trkpt lat="40.462810" lon="-4.260940">
        <ele>845.323</ele>
        <time>2022-02-25T04:42:10Z</time>
      </trkpt>
      <trkpt lat="40.462860" lon="-4.260970">
        <ele>845.408</ele>
        <time>2022-02-25T04:42:50Z</time>
      </trkpt>
      <trkpt lat="40.462910" lon="-4.261000">
        <ele>845.494</ele>
        <time>2022-02-25T04:43:30Z</time>
      </trkpt>
      <trkpt lat="40.462960" lon="-4.261020">
        <ele>845.491</ele>
        <time>2022-02-25T04:44:10Z</time>
      </trkpt>
      <trkpt lat="40.463020" lon="-4.261040">
        <ele>845.255</ele>
        <time>2022-02-25T04:44:50Z</time>
      </trkpt>
      <trkpt lat="40.463080" lon="-4.261060">
        <ele>845.294</ele>
        <time>2022-02-25T04:45:30Z</time>
      </trkpt>
      <trkpt lat="40.463090" lon="-4.261060">
        <ele>845.284</ele>
        <time>2022-02-25T04:46:10Z</time>
      </trkpt>
      <trkpt lat="40.463130" lon="-4.261070">
        <ele>845.437</ele>
        <time>2022-02-25T04:46:50Z</time>
      </trkpt>
      <trkpt lat="40.463170" lon="-4.261070">
        <ele>845.372</ele>
        <time>2022-02-25T04:47:30Z</time>
      </trkpt>
      <trkpt lat="40.463220" lon="-4.261070">
        <ele>845.380</ele>
        <time>2022-02-25T04:48:10Z</time>
      </trkpt>
      <trkpt lat="40.463270" lon="-4.261080">
        <ele>845.536</ele>
        <time>2022-02-25T04:48:50Z</time>
      </trkpt>
      <trkpt lat="40.463310" lon="-4.261070">
        <ele>845.317</ele>
        <time>2022-02-25T04:49:30Z</time>
      </trkpt>
      <trkpt lat="40.463350" lon="-4.261070">
        <ele>845.118</ele>
        <time>2022-02-25T04:50:10Z</time>
      </trkpt>
      <trkpt lat="40.463440" lon="-4.261060">
        <ele>844.308</ele>
        <time>2022-02-25T04:50:50Z</time>
      </trkpt>
      <trkpt lat="40.463520" lon="-4.261040">
        <ele>843.442</ele>
        <time>2022-02-25T04:51:30Z</time>
      </trkpt>
      <trkpt lat="40.463620" lon="-4.261000">
        <ele>841.939</ele>
        <time>2022-02-25T04:52:10Z</time>
      </trkpt>
      <trkpt lat="40.463680" lon="-4.260980">
        <ele>841.073</ele>
        <time>2022-02-25T04:52:50Z</time>
      </trkpt>
      <trkpt lat="40.463720" lon="-4.260960">
        <ele>840.362</ele>
        <time>2022-02-25T04:53:30Z</time>
      </trkpt>
      <trkpt lat="40.463780" lon="-4.260920">
        <ele>839.222</ele>
        <time>2022-02-25T04:54:10Z</time>
      </trkpt>
      <trkpt lat="40.463820" lon="-4.260890">
        <ele>838.485</ele>
        <time>2022-02-25T04:54:50Z</time>
      </trkpt>
      <trkpt lat="40.463870" lon="-4.260840">
        <ele>837.260</ele>
        <time>2022-02-25T04:55:30Z</time>
      </trkpt>
      <trkpt lat="40.463930" lon="-4.260790">
        <ele>835.768</ele>
        <time>2022-02-25T04:56:10Z</time>
      </trkpt>
      <trkpt lat="40.463940" lon="-4.260780">
        <ele>835.335</ele>
        <time>2022-02-25T04:56:50Z</time>
      </trkpt>
      <trkpt lat="40.463990" lon="-4.260720">
        <ele>833.786</ele>
        <time>2022-02-25T04:57:30Z</time>
      </trkpt>
      <trkpt lat="40.464040" lon="-4.260660">
        <ele>832.014</ele>
        <time>2022-02-25T04:58:10Z</time>
      </trkpt>
      <trkpt lat="40.464100" lon="-4.260590">
        <ele>830.208</ele>
        <time>2022-02-25T04:58:50Z</time>
      </trkpt>
      <trkpt lat="40.464150" lon="-4.260530">
        <ele>829.342</ele>
        <time>2022-02-25T04:59:30Z</time>
      </trkpt>
      <trkpt lat="40.464170" lon="-4.260500">
        <ele>829.219</ele>
        <time>2022-02-25T05:00:10Z</time>
      </trkpt>
      <trkpt lat="40.464200" lon="-4.260460">
        <ele>829.493</ele>
        <time>2022-02-25T05:00:50Z</time>
      </trkpt>
      <trkpt lat="40.464220" lon="-4.260440">
        <ele>829.582</ele>
        <time>2022-02-25T05:01:30Z</time>
      </trkpt>
      <trkpt lat="40.464310" lon="-4.260330">
        <ele>830.262</ele>
        <time>2022-02-25T05:02:10Z</time>
      </trkpt>
      <trkpt lat="40.464370" lon="-4.260260">
        <ele>830.925</ele>
        <time>2022-02-25T05:02:50Z</time>
      </trkpt>
      <trkpt lat="40.464390" lon="-4.260230">
        <ele>831.330</ele>
        <time>2022-02-25T05:03:30Z</time>
      </trkpt>
      <trkpt lat="40.464430" lon="-4.260210">
        <ele>831.728</ele>
        <time>2022-02-25T05:04:10Z</time>
      </trkpt>
      <trkpt lat="40.464460" lon="-4.260190">
        <ele>831.894</ele>
        <time>2022-02-25T05:04:50Z</time>
      </trkpt>
      <trkpt lat="40.464490" lon="-4.260170">
        <ele>831.857</ele>
        <time>2022-02-25T05:05:30Z</time>
      </trkpt>
      <trkpt lat="40.464530" lon="-4.260160">
        <ele>831.722</ele>
        <time>2022-02-25T05:06:10Z</time>
      </trkpt>
      <trkpt lat="40.464570" lon="-4.260150">
        <ele>831.508</ele>
        <time>2022-02-25T05:06:50Z</time>
      </trkpt>
      <trkpt lat="40.464660" lon="-4.260140">
        <ele>830.978</ele>
        <time>2022-02-25T05:07:30Z</time>
      </trkpt>
      <trkpt lat="40.464730" lon="-4.260120">
        <ele>830.755</ele>
        <time>2022-02-25T05:08:10Z</time>
      </trkpt>
      <trkpt lat="40.464780" lon="-4.260120">
        <ele>830.649</ele>
        <time>2022-02-25T05:08:50Z</time>
      </trkpt>
      <trkpt lat="40.464830" lon="-4.260110">
        <ele>830.668</ele>
        <time>2022-02-25T05:09:30Z</time>
      </trkpt>
      <trkpt lat="40.464910" lon="-4.260110">
        <ele>830.498</ele>
        <time>2022-02-25T05:10:10Z</time>
      </trkpt>
      <trkpt lat="40.465020" lon="-4.260110">
        <ele>830.371</ele>
        <time>2022-02-25T05:10:50Z</time>
      </trkpt>
      <trkpt lat="40.465130" lon="-4.260120">
        <ele>830.636</ele>
        <time>2022-02-25T05:11:30Z</time>
      </trkpt>
      <trkpt lat="40.465180" lon="-4.260120">
        <ele>830.864</ele>
        <time>2022-02-25T05:12:10Z</time>
      </trkpt>
      <trkpt lat="40.465200" lon="-4.260120">
        <ele>830.965</ele>
        <time>2022-02-25T05:12:50Z</time>
      </trkpt>
      <trkpt lat="40.465220" lon="-4.260130">
        <ele>830.968</ele>
        <time>2022-02-25T05:13:30Z</time>
      </trkpt>
      <trkpt lat="40.465280" lon="-4.260150">
        <ele>830.914</ele>
        <time>2022-02-25T05:14:10Z</time>
      </trkpt>
      <trkpt lat="40.465300" lon="-4.260160">
        <ele>831.008</ele>
        <time>2022-02-25T05:14:50Z</time>
      </trkpt>
      <trkpt lat="40.465330" lon="-4.260180">
        <ele>831.185</ele>
        <time>2022-02-25T05:15:30Z</time>
      </trkpt>
      <trkpt lat="40.465360" lon="-4.260220">
        <ele>831.092</ele>
        <time>2022-02-25T05:16:10Z</time>
      </trkpt>
      <trkpt lat="40.465370" lon="-4.260240">
        <ele>830.956</ele>
        <time>2022-02-25T05:16:50Z</time>
      </trkpt>
      <trkpt lat="40.465450" lon="-4.260360">
        <ele>830.565</ele>
        <time>2022-02-25T05:17:30Z</time>
      </trkpt>
      <trkpt lat="40.465590" lon="-4.260610">
        <ele>829.845</ele>
        <time>2022-02-25T05:18:10Z</time>
      </trkpt>
      <trkpt lat="40.465680" lon="-4.260790">
        <ele>829.218</ele>
        <time>2022-02-25T05:18:50Z</time>
      </trkpt>
      <trkpt lat="40.465760" lon="-4.260910">
        <ele>829.383</ele>
        <time>2022-02-25T05:19:30Z</time>
      </trkpt>
      <trkpt lat="40.465840" lon="-4.261030">
        <ele>830.431</ele>
        <time>2022-02-25T05:20:10Z</time>
      </trkpt>
      <trkpt lat="40.465910" lon="-4.261120">
        <ele>830.371</ele>
        <time>2022-02-25T05:20:50Z</time>
      </trkpt>
      <trkpt lat="40.466040" lon="-4.261280">
        <ele>827.241</ele>
        <time>2022-02-25T05:21:30Z</time>
      </trkpt>
      <trkpt lat="40.466050" lon="-4.261300">
        <ele>826.915</ele>
        <time>2022-02-25T05:22:10Z</time>
      </trkpt>
      <trkpt lat="40.466110" lon="-4.261360">
        <ele>826.608</ele>
        <time>2022-02-25T05:22:50Z</time>
      </trkpt>
      <trkpt lat="40.466160" lon="-4.261410">
        <ele>826.216</ele>
        <time>2022-02-25T05:23:30Z</time>
      </trkpt>
      <trkpt lat="40.466210" lon="-4.261460">
        <ele>825.783</ele>
        <time>2022-02-25T05:24:10Z</time>
      </trkpt>
      <trkpt lat="40.466250" lon="-4.261490">
        <ele>825.567</ele>
        <time>2022-02-25T05:24:50Z</time>
      </trkpt>
      <trkpt lat="40.466330" lon="-4.261520">
        <ele>825.646</ele>
        <time>2022-02-25T05:25:30Z</time>
      </trkpt>
      <trkpt lat="40.466360" lon="-4.261540">
        <ele>825.386</ele>
        <time>2022-02-25T05:26:10Z</time>
      </trkpt>
      <trkpt lat="40.466370" lon="-4.261540">
        <ele>825.599</ele>
        <time>2022-02-25T05:26:50Z</time>
      </trkpt>
      <trkpt lat="40.466420" lon="-4.261550">
        <ele>825.664</ele>
        <time>2022-02-25T05:27:30Z</time>
      </trkpt>
      <trkpt lat="40.466460" lon="-4.261550">
        <ele>826.022</ele>
        <time>2022-02-25T05:28:10Z</time>
      </trkpt>
      <trkpt lat="40.466490" lon="-4.261560">
        <ele>825.915</ele>
        <time>2022-02-25T05:28:50Z</time>
      </trkpt>
      <trkpt lat="40.466820" lon="-4.261550">
        <ele>826.565</ele>
        <time>2022-02-25T05:29:30Z</time>
      </trkpt>
      <trkpt lat="40.466920" lon="-4.261540">
        <ele>825.911</ele>
        <time>2022-02-25T05:30:10Z</time>
      </trkpt>
      <trkpt lat="40.467350" lon="-4.261520">
        <ele>824.908</ele>
        <time>2022-02-25T05:30:50Z</time>
      </trkpt>
      <trkpt lat="40.467630" lon="-4.261500">
        <ele>824.370</ele>
        <time>2022-02-25T05:31:30Z</time>
      </trkpt>
      <trkpt lat="40.467690" lon="-4.261490">
        <ele>824.267</ele>
        <time>2022-02-25T05:32:10Z</time>
      </trkpt>
      <trkpt lat="40.467760" lon="-4.261470">
        <ele>824.321</ele>
        <time>2022-02-25T05:32:50Z</time>
      </trkpt>
      <trkpt lat="40.467810" lon="-4.261450">
        <ele>824.250</ele>
        <time>2022-02-25T05:33:30Z</time>
      </trkpt>
      <trkpt lat="40.467900" lon="-4.261410">
        <ele>823.820</ele>
        <time>2022-02-25T05:34:10Z</time>
      </trkpt>
      <trkpt lat="40.467990" lon="-4.261350">
        <ele>824.273</ele>
        <time>2022-02-25T05:34:50Z</time>
      </trkpt>
      <trkpt lat="40.468090" lon="-4.261280">
        <ele>824.918</ele>
        <time>2022-02-25T05:35:30Z</time>
      </trkpt>
      <trkpt lat="40.468370" lon="-4.261080">
        <ele>824.266</ele>
        <time>2022-02-25T05:36:10Z</time>
      </trkpt>
      <trkpt lat="40.468440" lon="-4.261030">
        <ele>824.191</ele>
        <time>2022-02-25T05:36:50Z</time>
      </trkpt>
      <trkpt lat="40.468460" lon="-4.261010">
        <ele>824.281</ele>
        <time>2022-02-25T05:37:30Z</time>
      </trkpt>
      <trkpt lat="40.468500" lon="-4.260980">
        <ele>824.119</ele>
        <time>2022-02-25T05:38:10Z</time>
      </trkpt>
      <trkpt lat="40.468550" lon="-4.260950">
        <ele>823.608</ele>
        <time>2022-02-25T05:38:50Z</time>
      </trkpt>
      <trkpt lat="40.468690" lon="-4.260850">
        <ele>822.978</ele>
        <time>2022-02-25T05:39:30Z</time>
      </trkpt>
      <trkpt lat="40.468800" lon="-4.260770">
        <ele>822.695</ele>
        <time>2022-02-25T05:40:10Z</time>
      </trkpt>
      <trkpt lat="40.468870" lon="-4.260710">
        <ele>822.559</ele>
        <time>2022-02-25T05:40:50Z</time>
      </trkpt>
      <trkpt lat="40.469000" lon="-4.260610">
        <ele>822.598</ele>
        <time>2022-02-25T05:41:30Z</time>
      </trkpt>
      <trkpt lat="40.469100" lon="-4.260520">
        <ele>822.328</ele>
        <time>2022-02-25T05:42:10Z</time>
      </trkpt>
      <trkpt lat="40.469280" lon="-4.260370">
        <ele>822.471</ele>
        <time>2022-02-25T05:42:50Z</time>
      </trkpt>
      <trkpt lat="40.469400" lon="-4.260270">
        <ele>822.046</ele>
        <time>2022-02-25T05:43:30Z</time>
      </trkpt>
      <trkpt lat="40.469470" lon="-4.260200">
        <ele>822.284</ele>
        <time>2022-02-25T05:44:10Z</time>
      </trkpt>
      <trkpt lat="40.469580" lon="-4.260090">
        <ele>822.779</ele>
        <time>2022-02-25T05:44:50Z</time>
      </trkpt>
      <trkpt lat="40.469730" lon="-4.259910">
        <ele>823.505</ele>
        <time>2022-02-25T05:45:30Z</time>
      </trkpt>
      <trkpt lat="40.469820" lon="-4.259800">
        <ele>823.325</ele>
        <time>2022-02-25T05:46:10Z</time>
      </trkpt>
      <trkpt lat="40.469890" lon="-4.259700">
        <ele>822.608</ele>
        <time>2022-02-25T05:46:50Z</time>
      </trkpt>
      <trkpt lat="40.469950" lon="-4.259620">
        <ele>822.636</ele>
        <time>2022-02-25T05:47:30Z</time>
      </trkpt>
      <trkpt lat="40.470020" lon="-4.259500">
        <ele>823.563</ele>
        <time>2022-02-25T05:48:10Z</time>
      </trkpt>
      <trkpt lat="40.470080" lon="-4.259400">
        <ele>824.187</ele>
        <time>2022-02-25T05:48:50Z</time>
      </trkpt>
      <trkpt lat="40.470130" lon="-4.259320">
        <ele>823.966</ele>
        <time>2022-02-25T05:49:30Z</time>
      </trkpt>
      <trkpt lat="40.470150" lon="-4.259290">
        <ele>823.626</ele>
        <time>2022-02-25T05:50:10Z</time>
      </trkpt>
      <trkpt lat="40.470270" lon="-4.259120">
        <ele>820.639</ele>
        <time>2022-02-25T05:50:50Z</time>
      </trkpt>
      <trkpt lat="40.470360" lon="-4.259030">
        <ele>820.764</ele>
        <time>2022-02-25T05:51:30Z</time>
      </trkpt>
      <trkpt lat="40.470400" lon="-4.259000">
        <ele>820.772</ele>
        <time>2022-02-25T05:52:10Z</time>
      </trkpt>
      <trkpt lat="40.470430" lon="-4.258980">
        <ele>820.676</ele>
        <time>2022-02-25T05:52:50Z</time>
      </trkpt>
      <trkpt lat="40.470450" lon="-4.258970">
        <ele>820.590</ele>
        <time>2022-02-25T05:53:30Z</time>
      </trkpt>
      <trkpt lat="40.470480" lon="-4.258950">
        <ele>820.419</ele>
        <time>2022-02-25T05:54:10Z</time>
      </trkpt>
      <trkpt lat="40.470520" lon="-4.258930">
        <ele>820.208</ele>
        <time>2022-02-25T05:54:50Z</time>
      </trkpt>
      <trkpt lat="40.470580" lon="-4.258910">
        <ele>820.066</ele>
        <time>2022-02-25T05:55:30Z</time>
      </trkpt>
      <trkpt lat="40.470650" lon="-4.258900">
        <ele>820.083</ele>
        <time>2022-02-25T05:56:10Z</time>
      </trkpt>
      <trkpt lat="40.470780" lon="-4.258880">
        <ele>820.057</ele>
        <time>2022-02-25T05:56:50Z</time>
      </trkpt>
      <trkpt lat="40.470910" lon="-4.258870">
        <ele>820.036</ele>
        <time>2022-02-25T05:57:30Z</time>
      </trkpt>
      <trkpt lat="40.471060" lon="-4.258880">
        <ele>820.076</ele>
        <time>2022-02-25T05:58:10Z</time>
      </trkpt>
      <trkpt lat="40.471140" lon="-4.258870">
        <ele>820.179</ele>
        <time>2022-02-25T05:58:50Z</time>
      </trkpt>
      <trkpt lat="40.471240" lon="-4.258870">
        <ele>820.464</ele>
        <time>2022-02-25T05:59:30Z</time>
      </trkpt>
      <trkpt lat="40.471300" lon="-4.258870">
        <ele>820.642</ele>
        <time>2022-02-25T06:00:10Z</time>
      </trkpt>
      <trkpt lat="40.471350" lon="-4.258870">
        <ele>820.877</ele>
        <time>2022-02-25T06:00:50Z</time>
      </trkpt>
      <trkpt lat="40.471420" lon="-4.258850">
        <ele>820.961</ele>
        <time>2022-02-25T06:01:30Z</time>
      </trkpt>
      <trkpt lat="40.471500" lon="-4.258830">
        <ele>820.927</ele>
        <time>2022-02-25T06:02:10Z</time>
      </trkpt>
      <trkpt lat="40.471497" lon="-4.258827">
        <ele>820.908</ele>
        <time>2022-02-25T06:02:50Z</time>
      </trkpt>
      <trkpt lat="40.471510" lon="-4.258910">
        <ele>821.056</ele>
        <time>2022-02-25T06:03:30Z</time>
      </trkpt>
      <trkpt lat="40.471520" lon="-4.259010">
        <ele>821.233</ele>
        <time>2022-02-25T06:04:10Z</time>
      </trkpt>
      <trkpt lat="40.471520" lon="-4.259020">
        <ele>821.277</ele>
        <time>2022-02-25T06:04:50Z</time>
      </trkpt>
      <trkpt lat="40.471520" lon="-4.259060">
        <ele>821.326</ele>
        <time>2022-02-25T06:05:30Z</time>
      </trkpt>
      <trkpt lat="40.471530" lon="-4.259100">
        <ele>821.496</ele>
        <time>2022-02-25T06:06:10Z</time>
      </trkpt>
      <trkpt lat="40.471540" lon="-4.259160">
        <ele>821.569</ele>
        <time>2022-02-25T06:06:50Z</time>
      </trkpt>
      <trkpt lat="40.471540" lon="-4.259250">
        <ele>821.834</ele>
        <time>2022-02-25T06:07:30Z</time>
      </trkpt>
      <trkpt lat="40.471550" lon="-4.259260">
        <ele>821.922</ele>
        <time>2022-02-25T06:08:10Z</time>
      </trkpt>
      <trkpt lat="40.471560" lon="-4.259480">
        <ele>822.776</ele>
        <time>2022-02-25T06:08:50Z</time>
      </trkpt>
      <trkpt lat="40.471560" lon="-4.259490">
        <ele>822.790</ele>
        <time>2022-02-25T06:09:30Z</time>
      </trkpt>
      <trkpt lat="40.471570" lon="-4.259530">
        <ele>822.919</ele>
        <time>2022-02-25T06:10:10Z</time>
      </trkpt>
      <trkpt lat="40.471590" lon="-4.259720">
        <ele>823.408</ele>
        <time>2022-02-25T06:10:50Z</time>
      </trkpt>
      <trkpt lat="40.471590" lon="-4.259760">
        <ele>823.426</ele>
        <time>2022-02-25T06:11:30Z</time>
      </trkpt>
      <trkpt lat="40.471610" lon="-4.259940">
        <ele>823.653</ele>
        <time>2022-02-25T06:12:10Z</time>
      </trkpt>
      <trkpt lat="40.471610" lon="-4.259950">
        <ele>823.677</ele>
        <time>2022-02-25T06:12:50Z</time>
      </trkpt>
      <trkpt lat="40.471610" lon="-4.259990">
        <ele>823.676</ele>
        <time>2022-02-25T06:13:30Z</time>
      </trkpt>
      <trkpt lat="40.471610" lon="-4.260000">
        <ele>823.626</ele>
        <time>2022-02-25T06:14:10Z</time>
      </trkpt>
      <trkpt lat="40.471610" lon="-4.260040">
        <ele>823.939</ele>
        <time>2022-02-25T06:14:50Z</time>
      </trkpt>
      <trkpt lat="40.471610" lon="-4.260080">
        <ele>824.284</ele>
        <time>2022-02-25T06:15:30Z</time>
      </trkpt>
      <trkpt lat="40.471610" lon="-4.260110">
        <ele>824.472</ele>
        <time>2022-02-25T06:16:10Z</time>
      </trkpt>
      <trkpt lat="40.471600" lon="-4.260150">
        <ele>824.696</ele>
        <time>2022-02-25T06:16:50Z</time>
      </trkpt>
      <trkpt lat="40.471590" lon="-4.260190">
        <ele>824.831</ele>
        <time>2022-02-25T06:17:30Z</time>
      </trkpt>
      <trkpt lat="40.471570" lon="-4.260280">
        <ele>825.324</ele>
        <time>2022-02-25T06:18:10Z</time>
      </trkpt>
      <trkpt lat="40.471530" lon="-4.260380">
        <ele>825.408</ele>
        <time>2022-02-25T06:18:50Z</time>
      </trkpt>
      <trkpt lat="40.471510" lon="-4.260440">
        <ele>825.548</ele>
        <time>2022-02-25T06:19:30Z</time>
      </trkpt>
      <trkpt lat="40.471480" lon="-4.260490">
        <ele>825.495</ele>
        <time>2022-02-25T06:20:10Z</time>
      </trkpt>
      <trkpt lat="40.471460" lon="-4.260530">
        <ele>825.429</ele>
        <time>2022-02-25T06:20:50Z</time>
      </trkpt>
      <trkpt lat="40.471410" lon="-4.260590">
        <ele>825.448</ele>
        <time>2022-02-25T06:21:30Z</time>
      </trkpt>
      <trkpt lat="40.471250" lon="-4.260760">
        <ele>825.568</ele>
        <time>2022-02-25T06:22:10Z</time>
      </trkpt>
      <trkpt lat="40.471200" lon="-4.260830">
        <ele>825.691</ele>
        <time>2022-02-25T06:22:50Z</time>
      </trkpt>
      <trkpt lat="40.471050" lon="-4.260990">
        <ele>825.856</ele>
        <time>2022-02-25T06:23:30Z</time>
      </trkpt>
      <trkpt lat="40.470950" lon="-4.261100">
        <ele>825.814</ele>
        <time>2022-02-25T06:24:10Z</time>
      </trkpt>
      <trkpt lat="40.470780" lon="-4.261280">
        <ele>825.389</ele>
        <time>2022-02-25T06:24:50Z</time>
      </trkpt>
      <trkpt lat="40.470770" lon="-4.261290">
        <ele>825.306</ele>
        <time>2022-02-25T06:25:30Z</time>
      </trkpt>
      <trkpt lat="40.470630" lon="-4.261440">
        <ele>825.626</ele>
        <time>2022-02-25T06:26:10Z</time>
      </trkpt>
      <trkpt lat="40.470300" lon="-4.261810">
        <ele>824.808</ele>
        <time>2022-02-25T06:26:50Z</time>
      </trkpt>
      <trkpt lat="40.470020" lon="-4.262110">
        <ele>823.077</ele>
        <time>2022-02-25T06:27:30Z</time>
      </trkpt>
      <trkpt lat="40.469890" lon="-4.262260">
        <ele>823.184</ele>
        <time>2022-02-25T06:28:10Z</time>
      </trkpt>
      <trkpt lat="40.469480" lon="-4.262710">
        <ele>822.088</ele>
        <time>2022-02-25T06:28:50Z</time>
      </trkpt>
      <trkpt lat="40.469460" lon="-4.262730">
        <ele>821.947</ele>
        <time>2022-02-25T06:29:30Z</time>
      </trkpt>
      <trkpt lat="40.469200" lon="-4.263010">
        <ele>819.137</ele>
        <time>2022-02-25T06:30:10Z</time>
      </trkpt>
      <trkpt lat="40.468730" lon="-4.263530">
        <ele>819.440</ele>
        <time>2022-02-25T06:30:50Z</time>
      </trkpt>
      <trkpt lat="40.468650" lon="-4.263610">
        <ele>818.885</ele>
        <time>2022-02-25T06:31:30Z</time>
      </trkpt>
      <trkpt lat="40.468590" lon="-4.263680">
        <ele>818.283</ele>
        <time>2022-02-25T06:32:10Z</time>
      </trkpt>
      <trkpt lat="40.468550" lon="-4.263730">
        <ele>817.767</ele>
        <time>2022-02-25T06:32:50Z</time>
      </trkpt>
      <trkpt lat="40.468510" lon="-4.263790">
        <ele>817.481</ele>
        <time>2022-02-25T06:33:30Z</time>
      </trkpt>
      <trkpt lat="40.468470" lon="-4.263840">
        <ele>816.919</ele>
        <time>2022-02-25T06:34:10Z</time>
      </trkpt>
      <trkpt lat="40.468440" lon="-4.263890">
        <ele>816.708</ele>
        <time>2022-02-25T06:34:50Z</time>
      </trkpt>
      <trkpt lat="40.468350" lon="-4.264030">
        <ele>815.515</ele>
        <time>2022-02-25T06:35:30Z</time>
      </trkpt>
      <trkpt lat="40.468280" lon="-4.264160">
        <ele>814.832</ele>
        <time>2022-02-25T06:36:10Z</time>
      </trkpt>
      <trkpt lat="40.468230" lon="-4.264270">
        <ele>814.746</ele>
        <time>2022-02-25T06:36:50Z</time>
      </trkpt>
      <trkpt lat="40.468190" lon="-4.264350">
        <ele>814.525</ele>
        <time>2022-02-25T06:37:30Z</time>
      </trkpt>
      <trkpt lat="40.468100" lon="-4.264550">
        <ele>814.325</ele>
        <time>2022-02-25T06:38:10Z</time>
      </trkpt>
      <trkpt lat="40.468070" lon="-4.264600">
        <ele>814.068</ele>
        <time>2022-02-25T06:38:50Z</time>
      </trkpt>
      <trkpt lat="40.468000" lon="-4.264750">
        <ele>814.343</ele>
        <time>2022-02-25T06:39:30Z</time>
      </trkpt>
      <trkpt lat="40.467970" lon="-4.264820">
        <ele>814.381</ele>
        <time>2022-02-25T06:40:10Z</time>
      </trkpt>
      <trkpt lat="40.467910" lon="-4.264930">
        <ele>813.885</ele>
        <time>2022-02-25T06:40:50Z</time>
      </trkpt>
      <trkpt lat="40.467900" lon="-4.264940">
        <ele>813.789</ele>
        <time>2022-02-25T06:41:30Z</time>
      </trkpt>
      <trkpt lat="40.467860" lon="-4.265020">
        <ele>813.317</ele>
        <time>2022-02-25T06:42:10Z</time>
      </trkpt>
      <trkpt lat="40.467810" lon="-4.265100">
        <ele>813.208</ele>
        <time>2022-02-25T06:42:50Z</time>
      </trkpt>
      <trkpt lat="40.467770" lon="-4.265180">
        <ele>813.587</ele>
        <time>2022-02-25T06:43:30Z</time>
      </trkpt>
      <trkpt lat="40.467700" lon="-4.265280">
        <ele>813.314</ele>
        <time>2022-02-25T06:44:10Z</time>
      </trkpt>
      <trkpt lat="40.467640" lon="-4.265350">
        <ele>812.858</ele>
        <time>2022-02-25T06:44:50Z</time>
      </trkpt>
      <trkpt lat="40.467590" lon="-4.265410">
        <ele>812.487</ele>
        <time>2022-02-25T06:45:30Z</time>
      </trkpt>
      <trkpt lat="40.467550" lon="-4.265470">
        <ele>812.217</ele>
        <time>2022-02-25T06:46:10Z</time>
      </trkpt>
      <trkpt lat="40.467510" lon="-4.265510">
        <ele>811.750</ele>
        <time>2022-02-25T06:46:50Z</time>
      </trkpt>
      <trkpt lat="40.467500" lon="-4.265520">
        <ele>811.695</ele>
        <time>2022-02-25T06:47:30Z</time>
      </trkpt>
      <trkpt lat="40.467430" lon="-4.265600">
        <ele>811.873</ele>
        <time>2022-02-25T06:48:10Z</time>
      </trkpt>
      <trkpt lat="40.467370" lon="-4.265650">
        <ele>811.695</ele>
        <time>2022-02-25T06:48:50Z</time>
      </trkpt>
      <trkpt lat="40.467310" lon="-4.265710">
        <ele>811.449</ele>
        <time>2022-02-25T06:49:30Z</time>
      </trkpt>
      <trkpt lat="40.467100" lon="-4.265910">
        <ele>810.423</ele>
        <time>2022-02-25T06:50:10Z</time>
      </trkpt>
      <trkpt lat="40.466930" lon="-4.266070">
        <ele>809.608</ele>
        <time>2022-02-25T06:50:50Z</time>
      </trkpt>
      <trkpt lat="40.466760" lon="-4.266240">
        <ele>808.328</ele>
        <time>2022-02-25T06:51:30Z</time>
      </trkpt>
      <trkpt lat="40.466570" lon="-4.266410">
        <ele>808.265</ele>
        <time>2022-02-25T06:52:10Z</time>
      </trkpt>
      <trkpt lat="40.466400" lon="-4.266580">
        <ele>809.419</ele>
        <time>2022-02-25T06:52:50Z</time>
      </trkpt>
      <trkpt lat="40.466360" lon="-4.266630">
        <ele>809.418</ele>
        <time>2022-02-25T06:53:30Z</time>
      </trkpt>
      <trkpt lat="40.466310" lon="-4.266680">
        <ele>809.228</ele>
        <time>2022-02-25T06:54:10Z</time>
      </trkpt>
      <trkpt lat="40.466300" lon="-4.266700">
        <ele>809.381</ele>
        <time>2022-02-25T06:54:50Z</time>
      </trkpt>
      <trkpt lat="40.466270" lon="-4.266720">
        <ele>809.126</ele>
        <time>2022-02-25T06:55:30Z</time>
      </trkpt>
      <trkpt lat="40.466250" lon="-4.266760">
        <ele>809.224</ele>
        <time>2022-02-25T06:56:10Z</time>
      </trkpt>
      <trkpt lat="40.466220" lon="-4.266800">
        <ele>809.138</ele>
        <time>2022-02-25T06:56:50Z</time>
      </trkpt>
      <trkpt lat="40.466170" lon="-4.266880">
        <ele>809.270</ele>
        <time>2022-02-25T06:57:30Z</time>
      </trkpt>
      <trkpt lat="40.466070" lon="-4.267050">
        <ele>808.617</ele>
        <time>2022-02-25T06:58:10Z</time>
      </trkpt>
      <trkpt lat="40.465970" lon="-4.267240">
        <ele>807.108</ele>
        <time>2022-02-25T06:58:50Z</time>
      </trkpt>
      <trkpt lat="40.465770" lon="-4.267650">
        <ele>805.632</ele>
        <time>2022-02-25T06:59:30Z</time>
      </trkpt>
      <trkpt lat="40.465430" lon="-4.268340">
        <ele>803.329</ele>
        <time>2022-02-25T07:00:10Z</time>
      </trkpt>
      <trkpt lat="40.465380" lon="-4.268450">
        <ele>802.733</ele>
        <time>2022-02-25T07:00:50Z</time>
      </trkpt>
      <trkpt lat="40.465350" lon="-4.268510">
        <ele>802.152</ele>
        <time>2022-02-25T07:01:30Z</time>
      </trkpt>
      <trkpt lat="40.465160" lon="-4.268890">
        <ele>801.722</ele>
        <time>2022-02-25T07:02:10Z</time>
      </trkpt>
      <trkpt lat="40.464990" lon="-4.269240">
        <ele>800.865</ele>
        <time>2022-02-25T07:02:50Z</time>
      </trkpt>
      <trkpt lat="40.464830" lon="-4.269560">
        <ele>801.690</ele>
        <time>2022-02-25T07:03:30Z</time>
      </trkpt>
      <trkpt lat="40.464760" lon="-4.269720">
        <ele>800.828</ele>
        <time>2022-02-25T07:04:10Z</time>
      </trkpt>
      <trkpt lat="40.464690" lon="-4.269860">
        <ele>800.823</ele>
        <time>2022-02-25T07:04:50Z</time>
      </trkpt>
      <trkpt lat="40.464630" lon="-4.269980">
        <ele>800.983</ele>
        <time>2022-02-25T07:05:30Z</time>
      </trkpt>
      <trkpt lat="40.464580" lon="-4.270090">
        <ele>801.111</ele>
        <time>2022-02-25T07:06:10Z</time>
      </trkpt>
      <trkpt lat="40.464530" lon="-4.270210">
        <ele>801.108</ele>
        <time>2022-02-25T07:06:50Z</time>
      </trkpt>
      <trkpt lat="40.464500" lon="-4.270300">
        <ele>801.041</ele>
        <time>2022-02-25T07:07:30Z</time>
      </trkpt>
      <trkpt lat="40.464440" lon="-4.270440">
        <ele>800.078</ele>
        <time>2022-02-25T07:08:10Z</time>
      </trkpt>
      <trkpt lat="40.464260" lon="-4.270930">
        <ele>799.442</ele>
        <time>2022-02-25T07:08:50Z</time>
      </trkpt>
      <trkpt lat="40.464180" lon="-4.271140">
        <ele>799.691</ele>
        <time>2022-02-25T07:09:30Z</time>
      </trkpt>
      <trkpt lat="40.464100" lon="-4.271350">
        <ele>801.741</ele>
        <time>2022-02-25T07:10:10Z</time>
      </trkpt>
      <trkpt lat="40.464020" lon="-4.271560">
        <ele>802.634</ele>
        <time>2022-02-25T07:10:50Z</time>
      </trkpt>
      <trkpt lat="40.463940" lon="-4.271780">
        <ele>803.459</ele>
        <time>2022-02-25T07:11:30Z</time>
      </trkpt>
      <trkpt lat="40.463900" lon="-4.271880">
        <ele>803.797</ele>
        <time>2022-02-25T07:12:10Z</time>
      </trkpt>
      <trkpt lat="40.463870" lon="-4.271960">
        <ele>803.878</ele>
        <time>2022-02-25T07:12:50Z</time>
      </trkpt>
      <trkpt lat="40.463860" lon="-4.271990">
        <ele>803.733</ele>
        <time>2022-02-25T07:13:30Z</time>
      </trkpt>
      <trkpt lat="40.463830" lon="-4.272070">
        <ele>803.626</ele>
        <time>2022-02-25T07:14:10Z</time>
      </trkpt>
      <trkpt lat="40.463810" lon="-4.272160">
        <ele>803.608</ele>
        <time>2022-02-25T07:14:50Z</time>
      </trkpt>
      <trkpt lat="40.463790" lon="-4.272210">
        <ele>803.556</ele>
        <time>2022-02-25T07:15:30Z</time>
      </trkpt>
      <trkpt lat="40.463780" lon="-4.272250">
        <ele>803.683</ele>
        <time>2022-02-25T07:16:10Z</time>
      </trkpt>
      <trkpt lat="40.463770" lon="-4.272310">
        <ele>803.837</ele>
        <time>2022-02-25T07:16:50Z</time>
      </trkpt>
      <trkpt lat="40.463750" lon="-4.272400">
        <ele>804.026</ele>
        <time>2022-02-25T07:17:30Z</time>
      </trkpt>
      <trkpt lat="40.463750" lon="-4.272440">
        <ele>804.266</ele>
        <time>2022-02-25T07:18:10Z</time>
      </trkpt>
      <trkpt lat="40.463740" lon="-4.272500">
        <ele>804.359</ele>
        <time>2022-02-25T07:18:50Z</time>
      </trkpt>
      <trkpt lat="40.463730" lon="-4.272580">
        <ele>804.014</ele>
        <time>2022-02-25T07:19:30Z</time>
      </trkpt>
      <trkpt lat="40.463730" lon="-4.272630">
        <ele>803.952</ele>
        <time>2022-02-25T07:20:10Z</time>
      </trkpt>
      <trkpt lat="40.463730" lon="-4.272670">
        <ele>803.848</ele>
        <time>2022-02-25T07:20:50Z</time>
      </trkpt>
      <trkpt lat="40.463720" lon="-4.272730">
        <ele>803.561</ele>
        <time>2022-02-25T07:21:30Z</time>
      </trkpt>
      <trkpt lat="40.463720" lon="-4.272800">
        <ele>803.217</ele>
        <time>2022-02-25T07:22:10Z</time>
      </trkpt>
      <trkpt lat="40.463720" lon="-4.272890">
        <ele>802.708</ele>
        <time>2022-02-25T07:22:50Z</time>
      </trkpt>
      <trkpt lat="40.463730" lon="-4.272910">
        <ele>802.883</ele>
        <time>2022-02-25T07:23:30Z</time>
      </trkpt>
      <trkpt lat="40.463730" lon="-4.273020">
        <ele>802.280</ele>
        <time>2022-02-25T07:24:10Z</time>
      </trkpt>
      <trkpt lat="40.463740" lon="-4.273090">
        <ele>801.994</ele>
        <time>2022-02-25T07:24:50Z</time>
      </trkpt>
      <trkpt lat="40.463760" lon="-4.273250">
        <ele>801.073</ele>
        <time>2022-02-25T07:25:30Z</time>
      </trkpt>
      <trkpt lat="40.463790" lon="-4.273390">
        <ele>800.753</ele>
        <time>2022-02-25T07:26:10Z</time>
      </trkpt>
      <trkpt lat="40.463820" lon="-4.273480">
        <ele>800.816</ele>
        <time>2022-02-25T07:26:50Z</time>
      </trkpt>
      <trkpt lat="40.463850" lon="-4.273590">
        <ele>800.981</ele>
        <time>2022-02-25T07:27:30Z</time>
      </trkpt>
      <trkpt lat="40.463860" lon="-4.273630">
        <ele>800.919</ele>
        <time>2022-02-25T07:28:10Z</time>
      </trkpt>
      <trkpt lat="40.463920" lon="-4.273750">
        <ele>801.341</ele>
        <time>2022-02-25T07:28:50Z</time>
      </trkpt>
      <trkpt lat="40.463940" lon="-4.273800">
        <ele>801.381</ele>
        <time>2022-02-25T07:29:30Z</time>
      </trkpt>
      <trkpt lat="40.464040" lon="-4.273990">
        <ele>801.009</ele>
        <time>2022-02-25T07:30:10Z</time>
      </trkpt>
      <trkpt lat="40.464140" lon="-4.274190">
        <ele>799.908</ele>
        <time>2022-02-25T07:30:50Z</time>
      </trkpt>
      <trkpt lat="40.464230" lon="-4.274360">
        <ele>798.863</ele>
        <time>2022-02-25T07:31:30Z</time>
      </trkpt>
      <trkpt lat="40.464280" lon="-4.274450">
        <ele>798.330</ele>
        <time>2022-02-25T07:32:10Z</time>
      </trkpt>
      <trkpt lat="40.464320" lon="-4.274530">
        <ele>797.854</ele>
        <time>2022-02-25T07:32:50Z</time>
      </trkpt>
      <trkpt lat="40.464340" lon="-4.274580">
        <ele>797.353</ele>
        <time>2022-02-25T07:33:30Z</time>
      </trkpt>
      <trkpt lat="40.464350" lon="-4.274610">
        <ele>797.023</ele>
        <time>2022-02-25T07:34:10Z</time>
      </trkpt>
      <trkpt lat="40.464420" lon="-4.274780">
        <ele>795.466</ele>
        <time>2022-02-25T07:34:50Z</time>
      </trkpt>
      <trkpt lat="40.464430" lon="-4.274790">
        <ele>795.491</ele>
        <time>2022-02-25T07:35:30Z</time>
      </trkpt>
      <trkpt lat="40.464500" lon="-4.275010">
        <ele>794.749</ele>
        <time>2022-02-25T07:36:10Z</time>
      </trkpt>
      <trkpt lat="40.464540" lon="-4.275130">
        <ele>795.177</ele>
        <time>2022-02-25T07:36:50Z</time>
      </trkpt>
      <trkpt lat="40.464590" lon="-4.275270">
        <ele>796.061</ele>
        <time>2022-02-25T07:37:30Z</time>
      </trkpt>
      <trkpt lat="40.464640" lon="-4.275420">
        <ele>796.527</ele>
        <time>2022-02-25T07:38:10Z</time>
      </trkpt>
      <trkpt lat="40.464660" lon="-4.275490">
        <ele>796.608</ele>
        <time>2022-02-25T07:38:50Z</time>
      </trkpt>
      <trkpt lat="40.464680" lon="-4.275550">
        <ele>796.866</ele>
        <time>2022-02-25T07:39:30Z</time>
      </trkpt>
      <trkpt lat="40.464700" lon="-4.275630">
        <ele>797.133</ele>
        <time>2022-02-25T07:40:10Z</time>
      </trkpt>
      <trkpt lat="40.464700" lon="-4.275660">
        <ele>796.847</ele>
        <time>2022-02-25T07:40:50Z</time>
      </trkpt>
      <trkpt lat="40.464710" lon="-4.275710">
        <ele>796.836</ele>
        <time>2022-02-25T07:41:30Z</time>
      </trkpt>
      <trkpt lat="40.464710" lon="-4.275780">
        <ele>796.146</ele>
        <time>2022-02-25T07:42:10Z</time>
      </trkpt>
      <trkpt lat="40.464720" lon="-4.275860">
        <ele>795.719</ele>
        <time>2022-02-25T07:42:50Z</time>
      </trkpt>
      <trkpt lat="40.464720" lon="-4.275900">
        <ele>795.494</ele>
        <time>2022-02-25T07:43:30Z</time>
      </trkpt>
      <trkpt lat="40.464710" lon="-4.275950">
        <ele>794.872</ele>
        <time>2022-02-25T07:44:10Z</time>
      </trkpt>
      <trkpt lat="40.464710" lon="-4.276020">
        <ele>794.317</ele>
        <time>2022-02-25T07:44:50Z</time>
      </trkpt>
      <trkpt lat="40.464700" lon="-4.276090">
        <ele>793.687</ele>
        <time>2022-02-25T07:45:30Z</time>
      </trkpt>
      <trkpt lat="40.464700" lon="-4.276130">
        <ele>793.415</ele>
        <time>2022-02-25T07:46:10Z</time>
      </trkpt>
      <trkpt lat="40.464690" lon="-4.276150">
        <ele>793.108</ele>
        <time>2022-02-25T07:46:50Z</time>
      </trkpt>
      <trkpt lat="40.464680" lon="-4.276250">
        <ele>792.550</ele>
        <time>2022-02-25T07:47:30Z</time>
      </trkpt>
      <trkpt lat="40.464680" lon="-4.276340">
        <ele>792.257</ele>
        <time>2022-02-25T07:48:10Z</time>
      </trkpt>
      <trkpt lat="40.464680" lon="-4.276370">
        <ele>792.151</ele>
        <time>2022-02-25T07:48:50Z</time>
      </trkpt>
      <trkpt lat="40.464680" lon="-4.276410">
        <ele>791.820</ele>
        <time>2022-02-25T07:49:30Z</time>
      </trkpt>
      <trkpt lat="40.464680" lon="-4.276460">
        <ele>791.170</ele>
        <time>2022-02-25T07:50:10Z</time>
      </trkpt>
      <trkpt lat="40.464690" lon="-4.276540">
        <ele>790.213</ele>
        <time>2022-02-25T07:50:50Z</time>
      </trkpt>
      <trkpt lat="40.464700" lon="-4.276590">
        <ele>789.718</ele>
        <time>2022-02-25T07:51:30Z</time>
      </trkpt>
      <trkpt lat="40.464700" lon="-4.276600">
        <ele>789.566</ele>
        <time>2022-02-25T07:52:10Z</time>
      </trkpt>
      <trkpt lat="40.464710" lon="-4.276640">
        <ele>789.231</ele>
        <time>2022-02-25T07:52:50Z</time>
      </trkpt>
      <trkpt lat="40.464720" lon="-4.276670">
        <ele>788.961</ele>
        <time>2022-02-25T07:53:30Z</time>
      </trkpt>
      <trkpt lat="40.464740" lon="-4.276720">
        <ele>788.807</ele>
        <time>2022-02-25T07:54:10Z</time>
      </trkpt>
      <trkpt lat="40.464770" lon="-4.276800">
        <ele>788.308</ele>
        <time>2022-02-25T07:54:50Z</time>
      </trkpt>
      <trkpt lat="40.464770" lon="-4.276820">
        <ele>788.192</ele>
        <time>2022-02-25T07:55:30Z</time>
      </trkpt>
      <trkpt lat="40.464800" lon="-4.276870">
        <ele>787.969</ele>
        <time>2022-02-25T07:56:10Z</time>
      </trkpt>
      <trkpt lat="40.464910" lon="-4.277080">
        <ele>786.193</ele>
        <time>2022-02-25T07:56:50Z</time>
      </trkpt>
      <trkpt lat="40.464980" lon="-4.277210">
        <ele>785.012</ele>
        <time>2022-02-25T07:57:30Z</time>
      </trkpt>
      <trkpt lat="40.465010" lon="-4.277290">
        <ele>784.122</ele>
        <time>2022-02-25T07:58:10Z</time>
      </trkpt>
      <trkpt lat="40.465020" lon="-4.277330">
        <ele>783.645</ele>
        <time>2022-02-25T07:58:50Z</time>
      </trkpt>
      <trkpt lat="40.465040" lon="-4.277400">
        <ele>782.960</ele>
        <time>2022-02-25T07:59:30Z</time>
      </trkpt>
      <trkpt lat="40.465040" lon="-4.277430">
        <ele>782.538</ele>
        <time>2022-02-25T08:00:10Z</time>
      </trkpt>
      <trkpt lat="40.465050" lon="-4.277490">
        <ele>781.967</ele>
        <time>2022-02-25T08:00:50Z</time>
      </trkpt>
      <trkpt lat="40.465060" lon="-4.277560">
        <ele>782.181</ele>
        <time>2022-02-25T08:01:30Z</time>
      </trkpt>
      <trkpt lat="40.465060" lon="-4.277620">
        <ele>782.319</ele>
        <time>2022-02-25T08:02:10Z</time>
      </trkpt>
      <trkpt lat="40.465060" lon="-4.277680">
        <ele>782.508</ele>
        <time>2022-02-25T08:02:50Z</time>
      </trkpt>
      <trkpt lat="40.465050" lon="-4.277750">
        <ele>782.625</ele>
        <time>2022-02-25T08:03:30Z</time>
      </trkpt>
      <trkpt lat="40.465040" lon="-4.277840">
        <ele>783.212</ele>
        <time>2022-02-25T08:04:10Z</time>
      </trkpt>
      <trkpt lat="40.465030" lon="-4.277890">
        <ele>783.676</ele>
        <time>2022-02-25T08:04:50Z</time>
      </trkpt>
      <trkpt lat="40.465030" lon="-4.277910">
        <ele>783.825</ele>
        <time>2022-02-25T08:05:30Z</time>
      </trkpt>
      <trkpt lat="40.465010" lon="-4.277970">
        <ele>784.225</ele>
        <time>2022-02-25T08:06:10Z</time>
      </trkpt>
      <trkpt lat="40.464990" lon="-4.278030">
        <ele>784.658</ele>
        <time>2022-02-25T08:06:50Z</time>
      </trkpt>
      <trkpt lat="40.464980" lon="-4.278070">
        <ele>784.713</ele>
        <time>2022-02-25T08:07:30Z</time>
      </trkpt>
      <trkpt lat="40.464960" lon="-4.278110">
        <ele>784.791</ele>
        <time>2022-02-25T08:08:10Z</time>
      </trkpt>
      <trkpt lat="40.464940" lon="-4.278140">
        <ele>784.651</ele>
        <time>2022-02-25T08:08:50Z</time>
      </trkpt>
      <trkpt lat="40.464910" lon="-4.278190">
        <ele>784.501</ele>
        <time>2022-02-25T08:09:30Z</time>
      </trkpt>
      <trkpt lat="40.464880" lon="-4.278240">
        <ele>784.511</ele>
        <time>2022-02-25T08:10:10Z</time>
      </trkpt>
      <trkpt lat="40.464850" lon="-4.278270">
        <ele>784.308</ele>
        <time>2022-02-25T08:10:50Z</time>
      </trkpt>
      <trkpt lat="40.464790" lon="-4.278340">
        <ele>784.144</ele>
        <time>2022-02-25T08:11:30Z</time>
      </trkpt>
      <trkpt lat="40.464490" lon="-4.278640">
        <ele>783.391</ele>
        <time>2022-02-25T08:12:10Z</time>
      </trkpt>
      <trkpt lat="40.464410" lon="-4.278720">
        <ele>783.485</ele>
        <time>2022-02-25T08:12:50Z</time>
      </trkpt>
      <trkpt lat="40.464270" lon="-4.278860">
        <ele>782.814</ele>
        <time>2022-02-25T08:13:30Z</time>
      </trkpt>
      <trkpt lat="40.464060" lon="-4.279070">
        <ele>782.134</ele>
        <time>2022-02-25T08:14:10Z</time>
      </trkpt>
      <trkpt lat="40.463980" lon="-4.279150">
        <ele>781.757</ele>
        <time>2022-02-25T08:14:50Z</time>
      </trkpt>
      <trkpt lat="40.463930" lon="-4.279200">
        <ele>781.662</ele>
        <time>2022-02-25T08:15:30Z</time>
      </trkpt>
      <trkpt lat="40.463870" lon="-4.279280">
        <ele>782.130</ele>
        <time>2022-02-25T08:16:10Z</time>
      </trkpt>
      <trkpt lat="40.463810" lon="-4.279340">
        <ele>782.162</ele>
        <time>2022-02-25T08:16:50Z</time>
      </trkpt>
      <trkpt lat="40.463780" lon="-4.279370">
        <ele>782.183</ele>
        <time>2022-02-25T08:17:30Z</time>
      </trkpt>
      <trkpt lat="40.463730" lon="-4.279430">
        <ele>782.311</ele>
        <time>2022-02-25T08:18:10Z</time>
      </trkpt>
      <trkpt lat="40.463710" lon="-4.279460">
        <ele>782.408</ele>
        <time>2022-02-25T08:18:50Z</time>
      </trkpt>
      <trkpt lat="40.463680" lon="-4.279500">
        <ele>782.575</ele>
        <time>2022-02-25T08:19:30Z</time>
      </trkpt>
      <trkpt lat="40.463620" lon="-4.279570">
        <ele>782.522</ele>
        <time>2022-02-25T08:20:10Z</time>
      </trkpt>
      <trkpt lat="40.463580" lon="-4.279630">
        <ele>782.786</ele>
        <time>2022-02-25T08:20:50Z</time>
      </trkpt>
      <trkpt lat="40.463550" lon="-4.279670">
        <ele>782.965</ele>
        <time>2022-02-25T08:21:30Z</time>
      </trkpt>
      <trkpt lat="40.463490" lon="-4.279770">
        <ele>783.845</ele>
        <time>2022-02-25T08:22:10Z</time>
      </trkpt>
      <trkpt lat="40.463440" lon="-4.279840">
        <ele>784.268</ele>
        <time>2022-02-25T08:22:50Z</time>
      </trkpt>
      <trkpt lat="40.463410" lon="-4.279890">
        <ele>784.663</ele>
        <time>2022-02-25T08:23:30Z</time>
      </trkpt>
      <trkpt lat="40.463310" lon="-4.280030">
        <ele>784.621</ele>
        <time>2022-02-25T08:24:10Z</time>
      </trkpt>
      <trkpt lat="40.463250" lon="-4.280130">
        <ele>784.019</ele>
        <time>2022-02-25T08:24:50Z</time>
      </trkpt>
      <trkpt lat="40.463230" lon="-4.280170">
        <ele>784.009</ele>
        <time>2022-02-25T08:25:30Z</time>
      </trkpt>
      <trkpt lat="40.463210" lon="-4.280210">
        <ele>783.919</ele>
        <time>2022-02-25T08:26:10Z</time>
      </trkpt>
      <trkpt lat="40.463150" lon="-4.280310">
        <ele>783.008</ele>
        <time>2022-02-25T08:26:50Z</time>
      </trkpt>
      <trkpt lat="40.463120" lon="-4.280380">
        <ele>782.580</ele>
        <time>2022-02-25T08:27:30Z</time>
      </trkpt>
      <trkpt lat="40.463070" lon="-4.280470">
        <ele>781.647</ele>
        <time>2022-02-25T08:28:10Z</time>
      </trkpt>
      <trkpt lat="40.463030" lon="-4.280580">
        <ele>781.231</ele>
        <time>2022-02-25T08:28:50Z</time>
      </trkpt>
      <trkpt lat="40.463000" lon="-4.280650">
        <ele>780.680</ele>
        <time>2022-02-25T08:29:30Z</time>
      </trkpt>
      <trkpt lat="40.462960" lon="-4.280780">
        <ele>779.930</ele>
        <time>2022-02-25T08:30:10Z</time>
      </trkpt>
      <trkpt lat="40.462940" lon="-4.280840">
        <ele>779.543</ele>
        <time>2022-02-25T08:30:50Z</time>
      </trkpt>
      <trkpt lat="40.462920" lon="-4.280930">
        <ele>779.328</ele>
        <time>2022-02-25T08:31:30Z</time>
      </trkpt>
      <trkpt lat="40.462910" lon="-4.281000">
        <ele>779.486</ele>
        <time>2022-02-25T08:32:10Z</time>
      </trkpt>
      <trkpt lat="40.462910" lon="-4.281020">
        <ele>779.641</ele>
        <time>2022-02-25T08:32:50Z</time>
      </trkpt>
      <trkpt lat="40.462880" lon="-4.281150">
        <ele>779.081</ele>
        <time>2022-02-25T08:33:30Z</time>
      </trkpt>
      <trkpt lat="40.462870" lon="-4.281270">
        <ele>778.709</ele>
        <time>2022-02-25T08:34:10Z</time>
      </trkpt>
      <trkpt lat="40.462870" lon="-4.281450">
        <ele>778.508</ele>
        <time>2022-02-25T08:34:50Z</time>
      </trkpt>
      <trkpt lat="40.462870" lon="-4.281470">
        <ele>778.573</ele>
        <time>2022-02-25T08:35:30Z</time>
      </trkpt>
      <trkpt lat="40.462860" lon="-4.281710">
        <ele>777.410</ele>
        <time>2022-02-25T08:36:10Z</time>
      </trkpt>
      <trkpt lat="40.462860" lon="-4.281940">
        <ele>776.934</ele>
        <time>2022-02-25T08:36:50Z</time>
      </trkpt>
      <trkpt lat="40.462860" lon="-4.281970">
        <ele>776.813</ele>
        <time>2022-02-25T08:37:30Z</time>
      </trkpt>
      <trkpt lat="40.462850" lon="-4.282080">
        <ele>776.123</ele>
        <time>2022-02-25T08:38:10Z</time>
      </trkpt>
      <trkpt lat="40.462850" lon="-4.282150">
        <ele>776.086</ele>
        <time>2022-02-25T08:38:50Z</time>
      </trkpt>
      <trkpt lat="40.462850" lon="-4.282180">
        <ele>775.961</ele>
        <time>2022-02-25T08:39:30Z</time>
      </trkpt>
      <trkpt lat="40.462850" lon="-4.282210">
        <ele>775.979</ele>
        <time>2022-02-25T08:40:10Z</time>
      </trkpt>
      <trkpt lat="40.462840" lon="-4.282270">
        <ele>775.888</ele>
        <time>2022-02-25T08:40:50Z</time>
      </trkpt>
      <trkpt lat="40.462830" lon="-4.282340">
        <ele>776.024</ele>
        <time>2022-02-25T08:41:30Z</time>
      </trkpt>
      <trkpt lat="40.462820" lon="-4.282410">
        <ele>776.126</ele>
        <time>2022-02-25T08:42:10Z</time>
      </trkpt>
      <trkpt lat="40.462810" lon="-4.282430">
        <ele>775.908</ele>
        <time>2022-02-25T08:42:50Z</time>
      </trkpt>
      <trkpt lat="40.462800" lon="-4.282520">
        <ele>776.257</ele>
        <time>2022-02-25T08:43:30Z</time>
      </trkpt>
      <trkpt lat="40.462770" lon="-4.282610">
        <ele>775.924</ele>
        <time>2022-02-25T08:44:10Z</time>
      </trkpt>
      <trkpt lat="40.462770" lon="-4.282640">
        <ele>776.278</ele>
        <time>2022-02-25T08:44:50Z</time>
      </trkpt>
      <trkpt lat="40.462750" lon="-4.282680">
        <ele>776.027</ele>
        <time>2022-02-25T08:45:30Z</time>
      </trkpt>
      <trkpt lat="40.462730" lon="-4.282740">
        <ele>776.057</ele>
        <time>2022-02-25T08:46:10Z</time>
      </trkpt>
      <trkpt lat="40.462710" lon="-4.282820">
        <ele>776.220</ele>
        <time>2022-02-25T08:46:50Z</time>
      </trkpt>
      <trkpt lat="40.462690" lon="-4.282850">
        <ele>775.985</ele>
        <time>2022-02-25T08:47:30Z</time>
      </trkpt>
      <trkpt lat="40.462640" lon="-4.282970">
        <ele>775.383</ele>
        <time>2022-02-25T08:48:10Z</time>
      </trkpt>
      <trkpt lat="40.462590" lon="-4.283080">
        <ele>774.542</ele>
        <time>2022-02-25T08:48:50Z</time>
      </trkpt>
      <trkpt lat="40.462540" lon="-4.283170">
        <ele>773.722</ele>
        <time>2022-02-25T08:49:30Z</time>
      </trkpt>
      <trkpt lat="40.462500" lon="-4.283230">
        <ele>772.914</ele>
        <time>2022-02-25T08:50:10Z</time>
      </trkpt>
      <trkpt lat="40.462470" lon="-4.283270">
        <ele>773.208</ele>
        <time>2022-02-25T08:50:50Z</time>
      </trkpt>
      <trkpt lat="40.462430" lon="-4.283320">
        <ele>773.673</ele>
        <time>2022-02-25T08:51:30Z</time>
      </trkpt>
      <trkpt lat="40.462400" lon="-4.283350">
        <ele>773.830</ele>
        <time>2022-02-25T08:52:10Z</time>
      </trkpt>
      <trkpt lat="40.462380" lon="-4.283370">
        <ele>773.984</ele>
        <time>2022-02-25T08:52:50Z</time>
      </trkpt>
      <trkpt lat="40.462350" lon="-4.283390">
        <ele>774.033</ele>
        <time>2022-02-25T08:53:30Z</time>
      </trkpt>
      <trkpt lat="40.462350" lon="-4.283400">
        <ele>774.143</ele>
        <time>2022-02-25T08:54:10Z</time>
      </trkpt>
      <trkpt lat="40.462320" lon="-4.283410">
        <ele>774.176</ele>
        <time>2022-02-25T08:54:50Z</time>
      </trkpt>
      <trkpt lat="40.462290" lon="-4.283420">
        <ele>774.131</ele>
        <time>2022-02-25T08:55:30Z</time>
      </trkpt>
      <trkpt lat="40.462260" lon="-4.283430">
        <ele>774.129</ele>
        <time>2022-02-25T08:56:10Z</time>
      </trkpt>
      <trkpt lat="40.462230" lon="-4.283440">
        <ele>774.213</ele>
        <time>2022-02-25T08:56:50Z</time>
      </trkpt>
      <trkpt lat="40.462200" lon="-4.283440">
        <ele>774.443</ele>
        <time>2022-02-25T08:57:30Z</time>
      </trkpt>
      <trkpt lat="40.462180" lon="-4.283430">
        <ele>774.607</ele>
        <time>2022-02-25T08:58:10Z</time>
      </trkpt>
      <trkpt lat="40.462150" lon="-4.283420">
        <ele>774.808</ele>
        <time>2022-02-25T08:58:50Z</time>
      </trkpt>
      <trkpt lat="40.462120" lon="-4.283410">
        <ele>775.050</ele>
        <time>2022-02-25T08:59:30Z</time>
      </trkpt>
      <trkpt lat="40.462100" lon="-4.283400">
        <ele>775.127</ele>
        <time>2022-02-25T09:00:10Z</time>
      </trkpt>
      <trkpt lat="40.462060" lon="-4.283360">
        <ele>775.171</ele>
        <time>2022-02-25T09:00:50Z</time>
      </trkpt>
      <trkpt lat="40.462000" lon="-4.283300">
        <ele>774.930</ele>
        <time>2022-02-25T09:01:30Z</time>
      </trkpt>
      <trkpt lat="40.461940" lon="-4.283230">
        <ele>774.630</ele>
        <time>2022-02-25T09:02:10Z</time>
      </trkpt>
      <trkpt lat="40.461880" lon="-4.283170">
        <ele>775.363</ele>
        <time>2022-02-25T09:02:50Z</time>
      </trkpt>
      <trkpt lat="40.461760" lon="-4.283030">
        <ele>775.568</ele>
        <time>2022-02-25T09:03:30Z</time>
      </trkpt>
      <trkpt lat="40.461750" lon="-4.283020">
        <ele>775.616</ele>
        <time>2022-02-25T09:04:10Z</time>
      </trkpt>
      <trkpt lat="40.461640" lon="-4.282950">
        <ele>776.163</ele>
        <time>2022-02-25T09:04:50Z</time>
      </trkpt>
      <trkpt lat="40.461580" lon="-4.282930">
        <ele>775.744</ele>
        <time>2022-02-25T09:05:30Z</time>
      </trkpt>
      <trkpt lat="40.461550" lon="-4.282920">
        <ele>775.618</ele>
        <time>2022-02-25T09:06:10Z</time>
      </trkpt>
      <trkpt lat="40.461430" lon="-4.282910">
        <ele>775.408</ele>
        <time>2022-02-25T09:06:50Z</time>
      </trkpt>
      <trkpt lat="40.461400" lon="-4.282910">
        <ele>775.415</ele>
        <time>2022-02-25T09:07:30Z</time>
      </trkpt>
      <trkpt lat="40.461340" lon="-4.282920">
        <ele>775.372</ele>
        <time>2022-02-25T09:08:10Z</time>
      </trkpt>
      <trkpt lat="40.461240" lon="-4.282930">
        <ele>775.026</ele>
        <time>2022-02-25T09:08:50Z</time>
      </trkpt>
      <trkpt lat="40.461040" lon="-4.282980">
        <ele>774.375</ele>
        <time>2022-02-25T09:09:30Z</time>
      </trkpt>
      <trkpt lat="40.460900" lon="-4.283010">
        <ele>773.095</ele>
        <time>2022-02-25T09:10:10Z</time>
      </trkpt>
      <trkpt lat="40.460870" lon="-4.283020">
        <ele>772.888</ele>
        <time>2022-02-25T09:10:50Z</time>
      </trkpt>
      <trkpt lat="40.460750" lon="-4.283060">
        <ele>771.943</ele>
        <time>2022-02-25T09:11:30Z</time>
      </trkpt>
      <trkpt lat="40.460610" lon="-4.283120">
        <ele>771.221</ele>
        <time>2022-02-25T09:12:10Z</time>
      </trkpt>
      <trkpt lat="40.460330" lon="-4.283290">
        <ele>768.589</ele>
        <time>2022-02-25T09:12:50Z</time>
      </trkpt>
      <trkpt lat="40.460160" lon="-4.283420">
        <ele>767.806</ele>
        <time>2022-02-25T09:13:30Z</time>
      </trkpt>
      <trkpt lat="40.460050" lon="-4.283510">
        <ele>767.726</ele>
        <time>2022-02-25T09:14:10Z</time>
      </trkpt>
      <trkpt lat="40.460000" lon="-4.283560">
        <ele>767.908</ele>
        <time>2022-02-25T09:14:50Z</time>
      </trkpt>
      <trkpt lat="40.459910" lon="-4.283650">
        <ele>767.127</ele>
        <time>2022-02-25T09:15:30Z</time>
      </trkpt>
      <trkpt lat="40.459810" lon="-4.283750">
        <ele>766.034</ele>
        <time>2022-02-25T09:16:10Z</time>
      </trkpt>
      <trkpt lat="40.459770" lon="-4.283790">
        <ele>765.618</ele>
        <time>2022-02-25T09:16:50Z</time>
      </trkpt>
      <trkpt lat="40.459630" lon="-4.283940">
        <ele>764.977</ele>
        <time>2022-02-25T09:17:30Z</time>
      </trkpt>
      <trkpt lat="40.459540" lon="-4.284020">
        <ele>764.157</ele>
        <time>2022-02-25T09:18:10Z</time>
      </trkpt>
      <trkpt lat="40.459480" lon="-4.284080">
        <ele>763.630</ele>
        <time>2022-02-25T09:18:50Z</time>
      </trkpt>
      <trkpt lat="40.459470" lon="-4.284100">
        <ele>763.735</ele>
        <time>2022-02-25T09:19:30Z</time>
      </trkpt>
      <trkpt lat="40.459390" lon="-4.284190">
        <ele>762.863</ele>
        <time>2022-02-25T09:20:10Z</time>
      </trkpt>
      <trkpt lat="40.459350" lon="-4.284250">
        <ele>762.788</ele>
        <time>2022-02-25T09:20:50Z</time>
      </trkpt>
      <trkpt lat="40.459320" lon="-4.284290">
        <ele>762.424</ele>
        <time>2022-02-25T09:21:30Z</time>
      </trkpt>
      <trkpt lat="40.459270" lon="-4.284390">
        <ele>762.526</ele>
        <time>2022-02-25T09:22:10Z</time>
      </trkpt>
      <trkpt lat="40.459240" lon="-4.284480">
        <ele>762.708</ele>
        <time>2022-02-25T09:22:50Z</time>
      </trkpt>
      <trkpt lat="40.459210" lon="-4.284560">
        <ele>762.367</ele>
        <time>2022-02-25T09:23:30Z</time>
      </trkpt>
      <trkpt lat="40.459180" lon="-4.284660">
        <ele>762.054</ele>
        <time>2022-02-25T09:24:10Z</time>
      </trkpt>
      <trkpt lat="40.459160" lon="-4.284770">
        <ele>762.048</ele>
        <time>2022-02-25T09:24:50Z</time>
      </trkpt>
      <trkpt lat="40.459150" lon="-4.284850">
        <ele>762.037</ele>
        <time>2022-02-25T09:25:30Z</time>
      </trkpt>
      <trkpt lat="40.459150" lon="-4.284890">
        <ele>762.167</ele>
        <time>2022-02-25T09:26:10Z</time>
      </trkpt>
      <trkpt lat="40.459140" lon="-4.284940">
        <ele>762.010</ele>
        <time>2022-02-25T09:26:50Z</time>
      </trkpt>
      <trkpt lat="40.459140" lon="-4.285140">
        <ele>760.855</ele>
        <time>2022-02-25T09:27:30Z</time>
      </trkpt>
      <trkpt lat="40.459160" lon="-4.285360">
        <ele>759.573</ele>
        <time>2022-02-25T09:28:10Z</time>
      </trkpt>
      <trkpt lat="40.459160" lon="-4.285460">
        <ele>759.226</ele>
        <time>2022-02-25T09:28:50Z</time>
      </trkpt>
      <trkpt lat="40.459170" lon="-4.285600">
        <ele>759.547</ele>
        <time>2022-02-25T09:29:30Z</time>
      </trkpt>
      <trkpt lat="40.459170" lon="-4.285730">
        <ele>760.411</ele>
        <time>2022-02-25T09:30:10Z</time>
      </trkpt>
      <trkpt lat="40.459170" lon="-4.285830">
        <ele>761.108</ele>
        <time>2022-02-25T09:30:50Z</time>
      </trkpt>
      <trkpt lat="40.459180" lon="-4.286030">
        <ele>762.231</ele>
        <time>2022-02-25T09:31:30Z</time>
      </trkpt>
      <trkpt lat="40.459180" lon="-4.286070">
        <ele>762.368</ele>
        <time>2022-02-25T09:32:10Z</time>
      </trkpt>
      <trkpt lat="40.459170" lon="-4.286150">
        <ele>762.322</ele>
        <time>2022-02-25T09:32:50Z</time>
      </trkpt>
      <trkpt lat="40.459170" lon="-4.286260">
        <ele>762.721</ele>
        <time>2022-02-25T09:33:30Z</time>
      </trkpt>
      <trkpt lat="40.459170" lon="-4.286310">
        <ele>762.851</ele>
        <time>2022-02-25T09:34:10Z</time>
      </trkpt>
      <trkpt lat="40.459160" lon="-4.286400">
        <ele>762.984</ele>
        <time>2022-02-25T09:34:50Z</time>
      </trkpt>
      <trkpt lat="40.459150" lon="-4.286540">
        <ele>763.599</ele>
        <time>2022-02-25T09:35:30Z</time>
      </trkpt>
      <trkpt lat="40.459140" lon="-4.286590">
        <ele>763.467</ele>
        <time>2022-02-25T09:36:10Z</time>
      </trkpt>
      <trkpt lat="40.459130" lon="-4.286780">
        <ele>764.474</ele>
        <time>2022-02-25T09:36:50Z</time>
      </trkpt>
      <trkpt lat="40.459130" lon="-4.286790">
        <ele>764.556</ele>
        <time>2022-02-25T09:37:30Z</time>
      </trkpt>
      <trkpt lat="40.459100" lon="-4.287010">
        <ele>764.721</ele>
        <time>2022-02-25T09:38:10Z</time>
      </trkpt>
      <trkpt lat="40.459090" lon="-4.287140">
        <ele>765.408</ele>
        <time>2022-02-25T09:38:50Z</time>
      </trkpt>
      <trkpt lat="40.459080" lon="-4.287240">
        <ele>765.916</ele>
        <time>2022-02-25T09:39:30Z</time>
      </trkpt>
      <trkpt lat="40.459070" lon="-4.287270">
        <ele>765.813</ele>
        <time>2022-02-25T09:40:10Z</time>
      </trkpt>
      <trkpt lat="40.459040" lon="-4.287470">
        <ele>767.277</ele>
        <time>2022-02-25T09:40:50Z</time>
      </trkpt>
      <trkpt lat="40.459020" lon="-4.287620">
        <ele>769.796</ele>
        <time>2022-02-25T09:41:30Z</time>
      </trkpt>
      <trkpt lat="40.458970" lon="-4.287840">
        <ele>773.956</ele>
        <time>2022-02-25T09:42:10Z</time>
      </trkpt>
      <trkpt lat="40.458900" lon="-4.288030">
        <ele>775.849</ele>
        <time>2022-02-25T09:42:50Z</time>
      </trkpt>
      <trkpt lat="40.458830" lon="-4.288120">
        <ele>775.274</ele>
        <time>2022-02-25T09:43:30Z</time>
      </trkpt>
      <trkpt lat="40.458810" lon="-4.288150">
        <ele>775.142</ele>
        <time>2022-02-25T09:44:10Z</time>
      </trkpt>
      <trkpt lat="40.458730" lon="-4.288230">
        <ele>774.544</ele>
        <time>2022-02-25T09:44:50Z</time>
      </trkpt>
      <trkpt lat="40.458690" lon="-4.288260">
        <ele>774.105</ele>
        <time>2022-02-25T09:45:30Z</time>
      </trkpt>
      <trkpt lat="40.458580" lon="-4.288350">
        <ele>773.415</ele>
        <time>2022-02-25T09:46:10Z</time>
      </trkpt>
      <trkpt lat="40.458540" lon="-4.288390">
        <ele>773.008</ele>
        <time>2022-02-25T09:46:50Z</time>
      </trkpt>
      <trkpt lat="40.458420" lon="-4.288480">
        <ele>770.453</ele>
        <time>2022-02-25T09:47:30Z</time>
      </trkpt>
      <trkpt lat="40.458380" lon="-4.288510">
        <ele>769.470</ele>
        <time>2022-02-25T09:48:10Z</time>
      </trkpt>
      <trkpt lat="40.458340" lon="-4.288550">
        <ele>768.454</ele>
        <time>2022-02-25T09:48:50Z</time>
      </trkpt>
      <trkpt lat="40.458280" lon="-4.288630">
        <ele>768.313</ele>
        <time>2022-02-25T09:49:30Z</time>
      </trkpt>
      <trkpt lat="40.458250" lon="-4.288670">
        <ele>768.673</ele>
        <time>2022-02-25T09:50:10Z</time>
      </trkpt>
      <trkpt lat="40.458230" lon="-4.288710">
        <ele>769.146</ele>
        <time>2022-02-25T09:50:50Z</time>
      </trkpt>
      <trkpt lat="40.458160" lon="-4.288840">
        <ele>769.891</ele>
        <time>2022-02-25T09:51:30Z</time>
      </trkpt>
      <trkpt lat="40.458150" lon="-4.288860">
        <ele>769.829</ele>
        <time>2022-02-25T09:52:10Z</time>
      </trkpt>
      <trkpt lat="40.458060" lon="-4.289060">
        <ele>769.061</ele>
        <time>2022-02-25T09:52:50Z</time>
      </trkpt>
      <trkpt lat="40.458050" lon="-4.289090">
        <ele>769.021</ele>
        <time>2022-02-25T09:53:30Z</time>
      </trkpt>
      <trkpt lat="40.457960" lon="-4.289270">
        <ele>768.613</ele>
        <time>2022-02-25T09:54:10Z</time>
      </trkpt>
      <trkpt lat="40.457890" lon="-4.289430">
        <ele>768.808</ele>
        <time>2022-02-25T09:54:50Z</time>
      </trkpt>
      <trkpt lat="40.457870" lon="-4.289470">
        <ele>768.755</ele>
        <time>2022-02-25T09:55:30Z</time>
      </trkpt>
      <trkpt lat="40.457760" lon="-4.289660">
        <ele>767.512</ele>
        <time>2022-02-25T09:56:10Z</time>
      </trkpt>
      <trkpt lat="40.457700" lon="-4.289770">
        <ele>767.066</ele>
        <time>2022-02-25T09:56:50Z</time>
      </trkpt>
      <trkpt lat="40.457430" lon="-4.290200">
        <ele>762.645</ele>
        <time>2022-02-25T09:57:30Z</time>
      </trkpt>
      <trkpt lat="40.457400" lon="-4.290260">
        <ele>762.285</ele>
        <time>2022-02-25T09:58:10Z</time>
      </trkpt>
      <trkpt lat="40.457340" lon="-4.290350">
        <ele>760.968</ele>
        <time>2022-02-25T09:58:50Z</time>
      </trkpt>
      <trkpt lat="40.457310" lon="-4.290430">
        <ele>760.493</ele>
        <time>2022-02-25T09:59:30Z</time>
      </trkpt>
      <trkpt lat="40.457280" lon="-4.290490">
        <ele>759.811</ele>
        <time>2022-02-25T10:00:10Z</time>
      </trkpt>
      <trkpt lat="40.457260" lon="-4.290560">
        <ele>759.544</ele>
        <time>2022-02-25T10:00:50Z</time>
      </trkpt>
      <trkpt lat="40.457230" lon="-4.290640">
        <ele>758.905</ele>
        <time>2022-02-25T10:01:30Z</time>
      </trkpt>
      <trkpt lat="40.457200" lon="-4.290740">
        <ele>758.715</ele>
        <time>2022-02-25T10:02:10Z</time>
      </trkpt>
      <trkpt lat="40.457180" lon="-4.290810">
        <ele>758.608</ele>
        <time>2022-02-25T10:02:50Z</time>
      </trkpt>
      <trkpt lat="40.457160" lon="-4.290920">
        <ele>758.813</ele>
        <time>2022-02-25T10:03:30Z</time>
      </trkpt>
      <trkpt lat="40.457120" lon="-4.291080">
        <ele>758.890</ele>
        <time>2022-02-25T10:04:10Z</time>
      </trkpt>
      <trkpt lat="40.457100" lon="-4.291210">
        <ele>758.124</ele>
        <time>2022-02-25T10:04:50Z</time>
      </trkpt>
      <trkpt lat="40.457090" lon="-4.291290">
        <ele>757.563</ele>
        <time>2022-02-25T10:05:30Z</time>
      </trkpt>
      <trkpt lat="40.457090" lon="-4.291310">
        <ele>757.543</ele>
        <time>2022-02-25T10:06:10Z</time>
      </trkpt>
      <trkpt lat="40.457090" lon="-4.291380">
        <ele>757.256</ele>
        <time>2022-02-25T10:06:50Z</time>
      </trkpt>
      <trkpt lat="40.457080" lon="-4.291480">
        <ele>756.261</ele>
        <time>2022-02-25T10:07:30Z</time>
      </trkpt>
      <trkpt lat="40.457080" lon="-4.291770">
        <ele>754.449</ele>
        <time>2022-02-25T10:08:10Z</time>
      </trkpt>
      <trkpt lat="40.457100" lon="-4.292400">
        <ele>749.287</ele>
        <time>2022-02-25T10:08:50Z</time>
      </trkpt>
      <trkpt lat="40.457110" lon="-4.292570">
        <ele>748.142</ele>
        <time>2022-02-25T10:09:30Z</time>
      </trkpt>
      <trkpt lat="40.457140" lon="-4.293340">
        <ele>749.626</ele>
        <time>2022-02-25T10:10:10Z</time>
      </trkpt>
      <trkpt lat="40.457150" lon="-4.293470">
        <ele>749.108</ele>
        <time>2022-02-25T10:10:50Z</time>
      </trkpt>
      <trkpt lat="40.457200" lon="-4.294850">
        <ele>736.687</ele>
        <time>2022-02-25T10:11:30Z</time>
      </trkpt>
      <trkpt lat="40.457210" lon="-4.295230">
        <ele>733.254</ele>
        <time>2022-02-25T10:12:10Z</time>
      </trkpt>
      <trkpt lat="40.457220" lon="-4.295350">
        <ele>732.218</ele>
        <time>2022-02-25T10:12:50Z</time>
      </trkpt>
      <trkpt lat="40.457230" lon="-4.295700">
        <ele>729.577</ele>
        <time>2022-02-25T10:13:30Z</time>
      </trkpt>
      <trkpt lat="40.457240" lon="-4.295940">
        <ele>729.147</ele>
        <time>2022-02-25T10:14:10Z</time>
      </trkpt>
      <trkpt lat="40.457250" lon="-4.296170">
        <ele>729.220</ele>
        <time>2022-02-25T10:14:50Z</time>
      </trkpt>
      <trkpt lat="40.457250" lon="-4.296360">
        <ele>729.335</ele>
        <time>2022-02-25T10:15:30Z</time>
      </trkpt>
      <trkpt lat="40.457270" lon="-4.297140">
        <ele>724.773</ele>
        <time>2022-02-25T10:16:10Z</time>
      </trkpt>
      <trkpt lat="40.457270" lon="-4.297360">
        <ele>723.956</ele>
        <time>2022-02-25T10:16:50Z</time>
      </trkpt>
      <trkpt lat="40.457270" lon="-4.297460">
        <ele>723.659</ele>
        <time>2022-02-25T10:17:30Z</time>
      </trkpt>
      <trkpt lat="40.457270" lon="-4.297590">
        <ele>723.514</ele>
        <time>2022-02-25T10:18:10Z</time>
      </trkpt>
      <trkpt lat="40.457270" lon="-4.297630">
        <ele>723.508</ele>
        <time>2022-02-25T10:18:50Z</time>
      </trkpt>
      <trkpt lat="40.457250" lon="-4.297760">
        <ele>723.334</ele>
        <time>2022-02-25T10:19:30Z</time>
      </trkpt>
      <trkpt lat="40.457230" lon="-4.297870">
        <ele>723.441</ele>
        <time>2022-02-25T10:20:10Z</time>
      </trkpt>
      <trkpt lat="40.457200" lon="-4.298020">
        <ele>723.655</ele>
        <time>2022-02-25T10:20:50Z</time>
      </trkpt>
      <trkpt lat="40.457150" lon="-4.298220">
        <ele>723.884</ele>
        <time>2022-02-25T10:21:30Z</time>
      </trkpt>
      <trkpt lat="40.457110" lon="-4.298340">
        <ele>723.814</ele>
        <time>2022-02-25T10:22:10Z</time>
      </trkpt>
      <trkpt lat="40.457060" lon="-4.298490">
        <ele>723.817</ele>
        <time>2022-02-25T10:22:50Z</time>
      </trkpt>
      <trkpt lat="40.456920" lon="-4.298930">
        <ele>722.632</ele>
        <time>2022-02-25T10:23:30Z</time>
      </trkpt>
      <trkpt lat="40.456890" lon="-4.299030">
        <ele>722.050</ele>
        <time>2022-02-25T10:24:10Z</time>
      </trkpt>
      <trkpt lat="40.456770" lon="-4.299360">
        <ele>719.271</ele>
        <time>2022-02-25T10:24:50Z</time>
      </trkpt>
      <trkpt lat="40.456640" lon="-4.299730">
        <ele>715.741</ele>
        <time>2022-02-25T10:25:30Z</time>
      </trkpt>
      <trkpt lat="40.456590" lon="-4.299850">
        <ele>715.715</ele>
        <time>2022-02-25T10:26:10Z</time>
      </trkpt>
      <trkpt lat="40.456550" lon="-4.299950">
        <ele>715.608</ele>
        <time>2022-02-25T10:26:50Z</time>
      </trkpt>
      <trkpt lat="40.456420" lon="-4.300220">
        <ele>715.126</ele>
        <time>2022-02-25T10:27:30Z</time>
      </trkpt>
      <trkpt lat="40.456410" lon="-4.300240">
        <ele>715.113</ele>
        <time>2022-02-25T10:28:10Z</time>
      </trkpt>
      <trkpt lat="40.456150" lon="-4.300750">
        <ele>713.547</ele>
        <time>2022-02-25T10:28:50Z</time>
      </trkpt>
      <trkpt lat="40.455700" lon="-4.301600">
        <ele>708.086</ele>
        <time>2022-02-25T10:29:30Z</time>
      </trkpt>
      <trkpt lat="40.455600" lon="-4.301800">
        <ele>706.656</ele>
        <time>2022-02-25T10:30:10Z</time>
      </trkpt>
      <trkpt lat="40.455500" lon="-4.301990">
        <ele>704.699</ele>
        <time>2022-02-25T10:30:50Z</time>
      </trkpt>
      <trkpt lat="40.455420" lon="-4.302140">
        <ele>702.144</ele>
        <time>2022-02-25T10:31:30Z</time>
      </trkpt>
      <trkpt lat="40.455400" lon="-4.302190">
        <ele>701.562</ele>
        <time>2022-02-25T10:32:10Z</time>
      </trkpt>
      <trkpt lat="40.455350" lon="-4.302280">
        <ele>700.639</ele>
        <time>2022-02-25T10:32:50Z</time>
      </trkpt>
      <trkpt lat="40.455310" lon="-4.302340">
        <ele>700.201</ele>
        <time>2022-02-25T10:33:30Z</time>
      </trkpt>
      <trkpt lat="40.455270" lon="-4.302400">
        <ele>699.921</ele>
        <time>2022-02-25T10:34:10Z</time>
      </trkpt>
      <trkpt lat="40.455210" lon="-4.302490">
        <ele>699.508</ele>
        <time>2022-02-25T10:34:50Z</time>
      </trkpt>
      <trkpt lat="40.455160" lon="-4.302550">
        <ele>699.132</ele>
        <time>2022-02-25T10:35:30Z</time>
      </trkpt>
      <trkpt lat="40.455100" lon="-4.302630">
        <ele>698.479</ele>
        <time>2022-02-25T10:36:10Z</time>
      </trkpt>
      <trkpt lat="40.455010" lon="-4.302760">
        <ele>697.283</ele>
        <time>2022-02-25T10:36:50Z</time>
      </trkpt>
      <trkpt lat="40.454860" lon="-4.302950">
        <ele>696.352</ele>
        <time>2022-02-25T10:37:30Z</time>
      </trkpt>
      <trkpt lat="40.454700" lon="-4.303140">
        <ele>695.162</ele>
        <time>2022-02-25T10:38:10Z</time>
      </trkpt>
      <trkpt lat="40.454680" lon="-4.303180">
        <ele>695.045</ele>
        <time>2022-02-25T10:38:50Z</time>
      </trkpt>
      <trkpt lat="40.454460" lon="-4.303450">
        <ele>693.610</ele>
        <time>2022-02-25T10:39:30Z</time>
      </trkpt>
      <trkpt lat="40.454360" lon="-4.303580">
        <ele>693.098</ele>
        <time>2022-02-25T10:40:10Z</time>
      </trkpt>
      <trkpt lat="40.454270" lon="-4.303710">
        <ele>692.645</ele>
        <time>2022-02-25T10:40:50Z</time>
      </trkpt>
      <trkpt lat="40.454260" lon="-4.303720">
        <ele>692.547</ele>
        <time>2022-02-25T10:41:30Z</time>
      </trkpt>
      <trkpt lat="40.454180" lon="-4.303840">
        <ele>692.011</ele>
        <time>2022-02-25T10:42:10Z</time>
      </trkpt>
      <trkpt lat="40.454140" lon="-4.303900">
        <ele>691.808</ele>
        <time>2022-02-25T10:42:50Z</time>
      </trkpt>
      <trkpt lat="40.454090" lon="-4.303990">
        <ele>691.783</ele>
        <time>2022-02-25T10:43:30Z</time>
      </trkpt>
      <trkpt lat="40.454040" lon="-4.304090">
        <ele>691.560</ele>
        <time>2022-02-25T10:44:10Z</time>
      </trkpt>
      <trkpt lat="40.453980" lon="-4.304200">
        <ele>691.164</ele>
        <time>2022-02-25T10:44:50Z</time>
      </trkpt>
      <trkpt lat="40.453880" lon="-4.304390">
        <ele>690.863</ele>
        <time>2022-02-25T10:45:30Z</time>
      </trkpt>
      <trkpt lat="40.453800" lon="-4.304530">
        <ele>690.913</ele>
        <time>2022-02-25T10:46:10Z</time>
      </trkpt>
      <trkpt lat="40.453760" lon="-4.304640">
        <ele>690.966</ele>
        <time>2022-02-25T10:46:50Z</time>
      </trkpt>
      <trkpt lat="40.453720" lon="-4.304720">
        <ele>690.841</ele>
        <time>2022-02-25T10:47:30Z</time>
      </trkpt>
      <trkpt lat="40.453680" lon="-4.304820">
        <ele>690.699</ele>
        <time>2022-02-25T10:48:10Z</time>
      </trkpt>
      <trkpt lat="40.453650" lon="-4.304890">
        <ele>690.465</ele>
        <time>2022-02-25T10:48:50Z</time>
      </trkpt>
      <trkpt lat="40.453640" lon="-4.304930">
        <ele>690.368</ele>
        <time>2022-02-25T10:49:30Z</time>
      </trkpt>
      <trkpt lat="40.453520" lon="-4.305250">
        <ele>690.614</ele>
        <time>2022-02-25T10:50:10Z</time>
      </trkpt>
      <trkpt lat="40.453500" lon="-4.305320">
        <ele>690.508</ele>
        <time>2022-02-25T10:50:50Z</time>
      </trkpt>
      <trkpt lat="40.453420" lon="-4.305570">
        <ele>690.065</ele>
        <time>2022-02-25T10:51:30Z</time>
      </trkpt>
      <trkpt lat="40.453390" lon="-4.305660">
        <ele>690.112</ele>
        <time>2022-02-25T10:52:10Z</time>
      </trkpt>
      <trkpt lat="40.453330" lon="-4.305930">
        <ele>690.026</ele>
        <time>2022-02-25T10:52:50Z</time>
      </trkpt>
      <trkpt lat="40.453290" lon="-4.306100">
        <ele>689.545</ele>
        <time>2022-02-25T10:53:30Z</time>
      </trkpt>
      <trkpt lat="40.453270" lon="-4.306210">
        <ele>689.615</ele>
        <time>2022-02-25T10:54:10Z</time>
      </trkpt>
      <trkpt lat="40.453230" lon="-4.306430">
        <ele>689.418</ele>
        <time>2022-02-25T10:54:50Z</time>
      </trkpt>
      <trkpt lat="40.453180" lon="-4.306720">
        <ele>687.873</ele>
        <time>2022-02-25T10:55:30Z</time>
      </trkpt>
      <trkpt lat="40.453150" lon="-4.306900">
        <ele>687.411</ele>
        <time>2022-02-25T10:56:10Z</time>
      </trkpt>
      <trkpt lat="40.453110" lon="-4.307140">
        <ele>686.137</ele>
        <time>2022-02-25T10:56:50Z</time>
      </trkpt>
      <trkpt lat="40.453090" lon="-4.307270">
        <ele>685.549</ele>
        <time>2022-02-25T10:57:30Z</time>
      </trkpt>
      <trkpt lat="40.453040" lon="-4.307600">
        <ele>684.413</ele>
        <time>2022-02-25T10:58:10Z</time>
      </trkpt>
      <trkpt lat="40.453000" lon="-4.307820">
        <ele>683.208</ele>
        <time>2022-02-25T10:58:50Z</time>
      </trkpt>
      <trkpt lat="40.452950" lon="-4.308130">
        <ele>682.312</ele>
        <time>2022-02-25T10:59:30Z</time>
      </trkpt>
      <trkpt lat="40.452870" lon="-4.308590">
        <ele>681.099</ele>
        <time>2022-02-25T11:00:10Z</time>
      </trkpt>
      <trkpt lat="40.452840" lon="-4.308830">
        <ele>680.833</ele>
        <time>2022-02-25T11:00:50Z</time>
      </trkpt>
      <trkpt lat="40.452810" lon="-4.308970">
        <ele>680.582</ele>
        <time>2022-02-25T11:01:30Z</time>
      </trkpt>
      <trkpt lat="40.452760" lon="-4.309290">
        <ele>680.432</ele>
        <time>2022-02-25T11:02:10Z</time>
      </trkpt>
      <trkpt lat="40.452730" lon="-4.309440">
        <ele>680.865</ele>
        <time>2022-02-25T11:02:50Z</time>
      </trkpt>
      <trkpt lat="40.452720" lon="-4.309520">
        <ele>680.890</ele>
        <time>2022-02-25T11:03:30Z</time>
      </trkpt>
      <trkpt lat="40.452530" lon="-4.310670">
        <ele>680.238</ele>
        <time>2022-02-25T11:04:10Z</time>
      </trkpt>
      <trkpt lat="40.452500" lon="-4.310910">
        <ele>680.036</ele>
        <time>2022-02-25T11:04:50Z</time>
      </trkpt>
      <trkpt lat="40.452420" lon="-4.311370">
        <ele>679.417</ele>
        <time>2022-02-25T11:05:30Z</time>
      </trkpt>
      <trkpt lat="40.452330" lon="-4.311930">
        <ele>678.818</ele>
        <time>2022-02-25T11:06:10Z</time>
      </trkpt>
      <trkpt lat="40.452320" lon="-4.312020">
        <ele>678.708</ele>
        <time>2022-02-25T11:06:50Z</time>
      </trkpt>
      <trkpt lat="40.452250" lon="-4.312390">
        <ele>678.242</ele>
        <time>2022-02-25T11:07:30Z</time>
      </trkpt>
      <trkpt lat="40.452200" lon="-4.312710">
        <ele>677.019</ele>
        <time>2022-02-25T11:08:10Z</time>
      </trkpt>
      <trkpt lat="40.452180" lon="-4.312820">
        <ele>676.583</ele>
        <time>2022-02-25T11:08:50Z</time>
      </trkpt>
      <trkpt lat="40.452180" lon="-4.312850">
        <ele>676.582</ele>
        <time>2022-02-25T11:09:30Z</time>
      </trkpt>
      <trkpt lat="40.452170" lon="-4.312900">
        <ele>676.432</ele>
        <time>2022-02-25T11:10:10Z</time>
      </trkpt>
      <trkpt lat="40.452150" lon="-4.313010">
        <ele>676.245</ele>
        <time>2022-02-25T11:10:50Z</time>
      </trkpt>
      <trkpt lat="40.452140" lon="-4.313130">
        <ele>676.010</ele>
        <time>2022-02-25T11:11:30Z</time>
      </trkpt>
      <trkpt lat="40.452140" lon="-4.313180">
        <ele>676.098</ele>
        <time>2022-02-25T11:12:10Z</time>
      </trkpt>
      <trkpt lat="40.452140" lon="-4.313230">
        <ele>675.957</ele>
        <time>2022-02-25T11:12:50Z</time>
      </trkpt>
      <trkpt lat="40.452140" lon="-4.313290">
        <ele>675.900</ele>
        <time>2022-02-25T11:13:30Z</time>
      </trkpt>
      <trkpt lat="40.452140" lon="-4.313320">
        <ele>675.820</ele>
        <time>2022-02-25T11:14:10Z</time>
      </trkpt>
      <trkpt lat="40.452140" lon="-4.313510">
        <ele>675.808</ele>
        <time>2022-02-25T11:14:50Z</time>
      </trkpt>
      <trkpt lat="40.452140" lon="-4.313560">
        <ele>675.864</ele>
        <time>2022-02-25T11:15:30Z</time>
      </trkpt>
      <trkpt lat="40.452140" lon="-4.313620">
        <ele>675.861</ele>
        <time>2022-02-25T11:16:10Z</time>
      </trkpt>
      <trkpt lat="40.452140" lon="-4.313710">
        <ele>675.625</ele>
        <time>2022-02-25T11:16:50Z</time>
      </trkpt>
      <trkpt lat="40.452150" lon="-4.313820">
        <ele>675.474</ele>
        <time>2022-02-25T11:17:30Z</time>
      </trkpt>
      <trkpt lat="40.452230" lon="-4.314260">
        <ele>673.814</ele>
        <time>2022-02-25T11:18:10Z</time>
      </trkpt>
      <trkpt lat="40.452240" lon="-4.314320">
        <ele>673.737</ele>
        <time>2022-02-25T11:18:50Z</time>
      </trkpt>
      <trkpt lat="40.452340" lon="-4.314770">
        <ele>672.422</ele>
        <time>2022-02-25T11:19:30Z</time>
      </trkpt>
      <trkpt lat="40.452430" lon="-4.315150">
        <ele>671.650</ele>
        <time>2022-02-25T11:20:10Z</time>
      </trkpt>
      <trkpt lat="40.452430" lon="-4.315160">
        <ele>671.658</ele>
        <time>2022-02-25T11:20:50Z</time>
      </trkpt>
      <trkpt lat="40.452460" lon="-4.315390">
        <ele>671.552</ele>
        <time>2022-02-25T11:21:30Z</time>
      </trkpt>
      <trkpt lat="40.452480" lon="-4.315510">
        <ele>671.717</ele>
        <time>2022-02-25T11:22:10Z</time>
      </trkpt>
      <trkpt lat="40.452490" lon="-4.315680">
        <ele>671.408</ele>
        <time>2022-02-25T11:22:50Z</time>
      </trkpt>
      <trkpt lat="40.452500" lon="-4.315930">
        <ele>670.724</ele>
        <time>2022-02-25T11:23:30Z</time>
      </trkpt>
      <trkpt lat="40.452490" lon="-4.316110">
        <ele>669.921</ele>
        <time>2022-02-25T11:24:10Z</time>
      </trkpt>
      <trkpt lat="40.452480" lon="-4.316340">
        <ele>669.725</ele>
        <time>2022-02-25T11:24:50Z</time>
      </trkpt>
      <trkpt lat="40.452430" lon="-4.316860">
        <ele>667.784</ele>
        <time>2022-02-25T11:25:30Z</time>
      </trkpt>
      <trkpt lat="40.452400" lon="-4.317090">
        <ele>667.464</ele>
        <time>2022-02-25T11:26:10Z</time>
      </trkpt>
      <trkpt lat="40.452400" lon="-4.317110">
        <ele>667.567</ele>
        <time>2022-02-25T11:26:50Z</time>
      </trkpt>
      <trkpt lat="40.452380" lon="-4.317510">
        <ele>666.432</ele>
        <time>2022-02-25T11:27:30Z</time>
      </trkpt>
      <trkpt lat="40.452340" lon="-4.318030">
        <ele>663.860</ele>
        <time>2022-02-25T11:28:10Z</time>
      </trkpt>
      <trkpt lat="40.452330" lon="-4.318120">
        <ele>663.245</ele>
        <time>2022-02-25T11:28:50Z</time>
      </trkpt>
      <trkpt lat="40.452330" lon="-4.318360">
        <ele>662.147</ele>
        <time>2022-02-25T11:29:30Z</time>
      </trkpt>
      <trkpt lat="40.452330" lon="-4.318500">
        <ele>661.911</ele>
        <time>2022-02-25T11:30:10Z</time>
      </trkpt>
      <trkpt lat="40.452340" lon="-4.318660">
        <ele>661.608</ele>
        <time>2022-02-25T11:30:50Z</time>
      </trkpt>
      <trkpt lat="40.452360" lon="-4.318970">
        <ele>660.263</ele>
        <time>2022-02-25T11:31:30Z</time>
      </trkpt>
      <trkpt lat="40.452370" lon="-4.319040">
        <ele>660.040</ele>
        <time>2022-02-25T11:32:10Z</time>
      </trkpt>
      <trkpt lat="40.452380" lon="-4.319210">
        <ele>659.634</ele>
        <time>2022-02-25T11:32:50Z</time>
      </trkpt>
      <trkpt lat="40.452390" lon="-4.319280">
        <ele>659.823</ele>
        <time>2022-02-25T11:33:30Z</time>
      </trkpt>
      <trkpt lat="40.452430" lon="-4.319680">
        <ele>660.033</ele>
        <time>2022-02-25T11:34:10Z</time>
      </trkpt>
      <trkpt lat="40.452428" lon="-4.319678">
        <ele>660.086</ele>
        <time>2022-02-25T11:34:50Z</time>
      </trkpt>
      <trkpt lat="40.452460" lon="-4.319910">
        <ele>661.811</ele>
        <time>2022-02-25T11:35:30Z</time>
      </trkpt>
      <trkpt lat="40.452470" lon="-4.319940">
        <ele>662.229</ele>
        <time>2022-02-25T11:36:10Z</time>
      </trkpt>
      <trkpt lat="40.452500" lon="-4.320140">
        <ele>664.577</ele>
        <time>2022-02-25T11:36:50Z</time>
      </trkpt>
      <trkpt lat="40.452510" lon="-4.320160">
        <ele>664.961</ele>
        <time>2022-02-25T11:37:30Z</time>
      </trkpt>
      <trkpt lat="40.452570" lon="-4.320360">
        <ele>668.027</ele>
        <time>2022-02-25T11:38:10Z</time>
      </trkpt>
      <trkpt lat="40.452570" lon="-4.320380">
        <ele>668.208</ele>
        <time>2022-02-25T11:38:50Z</time>
      </trkpt>
      <trkpt lat="40.452640" lon="-4.320580">
        <ele>670.616</ele>
        <time>2022-02-25T11:39:30Z</time>
      </trkpt>
      <trkpt lat="40.452650" lon="-4.320600">
        <ele>670.813</ele>
        <time>2022-02-25T11:40:10Z</time>
      </trkpt>
      <trkpt lat="40.452720" lon="-4.320790">
        <ele>672.297</ele>
        <time>2022-02-25T11:40:50Z</time>
      </trkpt>
      <trkpt lat="40.452800" lon="-4.321000">
        <ele>673.676</ele>
        <time>2022-02-25T11:41:30Z</time>
      </trkpt>
      <trkpt lat="40.452850" lon="-4.321150">
        <ele>674.186</ele>
        <time>2022-02-25T11:42:10Z</time>
      </trkpt>
      <trkpt lat="40.452960" lon="-4.321420">
        <ele>675.249</ele>
        <time>2022-02-25T11:42:50Z</time>
      </trkpt>
      <trkpt lat="40.453040" lon="-4.321630">
        <ele>676.794</ele>
        <time>2022-02-25T11:43:30Z</time>
      </trkpt>
      <trkpt lat="40.453050" lon="-4.321660">
        <ele>676.942</ele>
        <time>2022-02-25T11:44:10Z</time>
      </trkpt>
      <trkpt lat="40.453120" lon="-4.321850">
        <ele>677.443</ele>
        <time>2022-02-25T11:44:50Z</time>
      </trkpt>
      <trkpt lat="40.453200" lon="-4.322060">
        <ele>677.964</ele>
        <time>2022-02-25T11:45:30Z</time>
      </trkpt>
      <trkpt lat="40.453270" lon="-4.322230">
        <ele>678.310</ele>
        <time>2022-02-25T11:46:10Z</time>
      </trkpt>
      <trkpt lat="40.453360" lon="-4.322510">
        <ele>678.708</ele>
        <time>2022-02-25T11:46:50Z</time>
      </trkpt>
      <trkpt lat="40.453400" lon="-4.322640">
        <ele>678.883</ele>
        <time>2022-02-25T11:47:30Z</time>
      </trkpt>
      <trkpt lat="40.453470" lon="-4.322910">
        <ele>679.040</ele>
        <time>2022-02-25T11:48:10Z</time>
      </trkpt>
      <trkpt lat="40.453500" lon="-4.323090">
        <ele>679.234</ele>
        <time>2022-02-25T11:48:50Z</time>
      </trkpt>
      <trkpt lat="40.453530" lon="-4.323230">
        <ele>679.113</ele>
        <time>2022-02-25T11:49:30Z</time>
      </trkpt>
      <trkpt lat="40.453560" lon="-4.323450">
        <ele>679.263</ele>
        <time>2022-02-25T11:50:10Z</time>
      </trkpt>
      <trkpt lat="40.453570" lon="-4.323550">
        <ele>679.486</ele>
        <time>2022-02-25T11:50:50Z</time>
      </trkpt>
      <trkpt lat="40.453580" lon="-4.323700">
        <ele>679.831</ele>
        <time>2022-02-25T11:51:30Z</time>
      </trkpt>
      <trkpt lat="40.453600" lon="-4.324050">
        <ele>680.259</ele>
        <time>2022-02-25T11:52:10Z</time>
      </trkpt>
      <trkpt lat="40.453600" lon="-4.324500">
        <ele>680.444</ele>
        <time>2022-02-25T11:52:50Z</time>
      </trkpt>
      <trkpt lat="40.453600" lon="-4.324730">
        <ele>681.305</ele>
        <time>2022-02-25T11:53:30Z</time>
      </trkpt>
      <trkpt lat="40.453600" lon="-4.324890">
        <ele>682.415</ele>
        <time>2022-02-25T11:54:10Z</time>
      </trkpt>
      <trkpt lat="40.453590" lon="-4.325610">
        <ele>687.608</ele>
        <time>2022-02-25T11:54:50Z</time>
      </trkpt>
      <trkpt lat="40.453590" lon="-4.325680">
        <ele>688.153</ele>
        <time>2022-02-25T11:55:30Z</time>
      </trkpt>
      <trkpt lat="40.453580" lon="-4.325930">
        <ele>689.840</ele>
        <time>2022-02-25T11:56:10Z</time>
      </trkpt>
      <trkpt lat="40.453580" lon="-4.326180">
        <ele>691.284</ele>
        <time>2022-02-25T11:56:50Z</time>
      </trkpt>
      <trkpt lat="40.453590" lon="-4.326390">
        <ele>691.913</ele>
        <time>2022-02-25T11:57:30Z</time>
      </trkpt>
      <trkpt lat="40.453590" lon="-4.326470">
        <ele>692.243</ele>
        <time>2022-02-25T11:58:10Z</time>
      </trkpt>
      <trkpt lat="40.453610" lon="-4.326620">
        <ele>692.816</ele>
        <time>2022-02-25T11:58:50Z</time>
      </trkpt>
      <trkpt lat="40.453620" lon="-4.326810">
        <ele>693.671</ele>
        <time>2022-02-25T11:59:30Z</time>
      </trkpt>
      <trkpt lat="40.453660" lon="-4.327080">
        <ele>693.819</ele>
        <time>2022-02-25T12:00:10Z</time>
      </trkpt>
      <trkpt lat="40.453660" lon="-4.327090">
        <ele>693.788</ele>
        <time>2022-02-25T12:00:50Z</time>
      </trkpt>
      <trkpt lat="40.453700" lon="-4.327320">
        <ele>692.724</ele>
        <time>2022-02-25T12:01:30Z</time>
      </trkpt>
      <trkpt lat="40.453700" lon="-4.327340">
        <ele>692.626</ele>
        <time>2022-02-25T12:02:10Z</time>
      </trkpt>
      <trkpt lat="40.453810" lon="-4.328000">
        <ele>690.908</ele>
        <time>2022-02-25T12:02:50Z</time>
      </trkpt>
      <trkpt lat="40.453950" lon="-4.328930">
        <ele>692.417</ele>
        <time>2022-02-25T12:03:30Z</time>
      </trkpt>
      <trkpt lat="40.454100" lon="-4.329850">
        <ele>693.154</ele>
        <time>2022-02-25T12:04:10Z</time>
      </trkpt>
      <trkpt lat="40.454130" lon="-4.330080">
        <ele>692.788</ele>
        <time>2022-02-25T12:04:50Z</time>
      </trkpt>
      <trkpt lat="40.454210" lon="-4.330550">
        <ele>693.317</ele>
        <time>2022-02-25T12:05:30Z</time>
      </trkpt>
      <trkpt lat="40.454390" lon="-4.331710">
        <ele>694.377</ele>
        <time>2022-02-25T12:06:10Z</time>
      </trkpt>
      <trkpt lat="40.454450" lon="-4.332110">
        <ele>695.240</ele>
        <time>2022-02-25T12:06:50Z</time>
      </trkpt>
      <trkpt lat="40.454460" lon="-4.332170">
        <ele>695.855</ele>
        <time>2022-02-25T12:07:30Z</time>
      </trkpt>
      <trkpt lat="40.454540" lon="-4.332630">
        <ele>698.033</ele>
        <time>2022-02-25T12:08:10Z</time>
      </trkpt>
      <trkpt lat="40.454650" lon="-4.333320">
        <ele>700.068</ele>
        <time>2022-02-25T12:08:50Z</time>
      </trkpt>
      <trkpt lat="40.454690" lon="-4.333560">
        <ele>700.042</ele>
        <time>2022-02-25T12:09:30Z</time>
      </trkpt>
      <trkpt lat="40.454720" lon="-4.333790">
        <ele>700.026</ele>
        <time>2022-02-25T12:10:10Z</time>
      </trkpt>
      <trkpt lat="40.454760" lon="-4.334020">
        <ele>700.008</ele>
        <time>2022-02-25T12:10:50Z</time>
      </trkpt>
      <trkpt lat="40.454810" lon="-4.334350">
        <ele>700.025</ele>
        <time>2022-02-25T12:11:30Z</time>
      </trkpt>
      <trkpt lat="40.454900" lon="-4.334920">
        <ele>700.082</ele>
        <time>2022-02-25T12:12:10Z</time>
      </trkpt>
      <trkpt lat="40.454900" lon="-4.334950">
        <ele>700.046</ele>
        <time>2022-02-25T12:12:50Z</time>
      </trkpt>
      <trkpt lat="40.454930" lon="-4.335180">
        <ele>700.055</ele>
        <time>2022-02-25T12:13:30Z</time>
      </trkpt>
      <trkpt lat="40.454950" lon="-4.335320">
        <ele>700.115</ele>
        <time>2022-02-25T12:14:10Z</time>
      </trkpt>
      <trkpt lat="40.454980" lon="-4.335650">
        <ele>701.228</ele>
        <time>2022-02-25T12:14:50Z</time>
      </trkpt>
      <trkpt lat="40.455000" lon="-4.335900">
        <ele>702.223</ele>
        <time>2022-02-25T12:15:30Z</time>
      </trkpt>
      <trkpt lat="40.455020" lon="-4.336170">
        <ele>703.181</ele>
        <time>2022-02-25T12:16:10Z</time>
      </trkpt>
      <trkpt lat="40.455040" lon="-4.336390">
        <ele>703.347</ele>
        <time>2022-02-25T12:16:50Z</time>
      </trkpt>
      <trkpt lat="40.455060" lon="-4.336630">
        <ele>704.529</ele>
        <time>2022-02-25T12:17:30Z</time>
      </trkpt>
      <trkpt lat="40.455060" lon="-4.336650">
        <ele>704.621</ele>
        <time>2022-02-25T12:18:10Z</time>
      </trkpt>
      <trkpt lat="40.455100" lon="-4.337010">
        <ele>706.408</ele>
        <time>2022-02-25T12:18:50Z</time>
      </trkpt>
      <trkpt lat="40.455140" lon="-4.337580">
        <ele>709.363</ele>
        <time>2022-02-25T12:19:30Z</time>
      </trkpt>
      <trkpt lat="40.455140" lon="-4.337590">
        <ele>709.390</ele>
        <time>2022-02-25T12:20:10Z</time>
      </trkpt>
      <trkpt lat="40.455190" lon="-4.338130">
        <ele>713.194</ele>
        <time>2022-02-25T12:20:50Z</time>
      </trkpt>
      <trkpt lat="40.455200" lon="-4.338280">
        <ele>713.873</ele>
        <time>2022-02-25T12:21:30Z</time>
      </trkpt>
      <trkpt lat="40.455250" lon="-4.338740">
        <ele>718.133</ele>
        <time>2022-02-25T12:22:10Z</time>
      </trkpt>
      <trkpt lat="40.455290" lon="-4.338970">
        <ele>720.026</ele>
        <time>2022-02-25T12:22:50Z</time>
      </trkpt>
      <trkpt lat="40.455290" lon="-4.338980">
        <ele>720.011</ele>
        <time>2022-02-25T12:23:30Z</time>
      </trkpt>
      <trkpt lat="40.455320" lon="-4.339200">
        <ele>720.049</ele>
        <time>2022-02-25T12:24:10Z</time>
      </trkpt>
      <trkpt lat="40.455380" lon="-4.339470">
        <ele>720.034</ele>
        <time>2022-02-25T12:24:50Z</time>
      </trkpt>
      <trkpt lat="40.455470" lon="-4.339890">
        <ele>720.755</ele>
        <time>2022-02-25T12:25:30Z</time>
      </trkpt>
      <trkpt lat="40.455520" lon="-4.340120">
        <ele>720.910</ele>
        <time>2022-02-25T12:26:10Z</time>
      </trkpt>
      <trkpt lat="40.455560" lon="-4.340350">
        <ele>721.108</ele>
        <time>2022-02-25T12:26:50Z</time>
      </trkpt>
      <trkpt lat="40.455660" lon="-4.340810">
        <ele>724.452</ele>
        <time>2022-02-25T12:27:30Z</time>
      </trkpt>
      <trkpt lat="40.455710" lon="-4.341030">
        <ele>725.989</ele>
        <time>2022-02-25T12:28:10Z</time>
      </trkpt>
      <trkpt lat="40.455720" lon="-4.341110">
        <ele>726.493</ele>
        <time>2022-02-25T12:28:50Z</time>
      </trkpt>
      <trkpt lat="40.455770" lon="-4.341330">
        <ele>728.132</ele>
        <time>2022-02-25T12:29:30Z</time>
      </trkpt>
      <trkpt lat="40.455820" lon="-4.341560">
        <ele>729.512</ele>
        <time>2022-02-25T12:30:10Z</time>
      </trkpt>
      <trkpt lat="40.455850" lon="-4.341720">
        <ele>730.185</ele>
        <time>2022-02-25T12:30:50Z</time>
      </trkpt>
      <trkpt lat="40.455870" lon="-4.341790">
        <ele>730.390</ele>
        <time>2022-02-25T12:31:30Z</time>
      </trkpt>
      <trkpt lat="40.455920" lon="-4.342020">
        <ele>731.268</ele>
        <time>2022-02-25T12:32:10Z</time>
      </trkpt>
      <trkpt lat="40.455960" lon="-4.342240">
        <ele>732.664</ele>
        <time>2022-02-25T12:32:50Z</time>
      </trkpt>
      <trkpt lat="40.456010" lon="-4.342470">
        <ele>735.306</ele>
        <time>2022-02-25T12:33:30Z</time>
      </trkpt>
      <trkpt lat="40.456020" lon="-4.342520">
        <ele>735.916</ele>
        <time>2022-02-25T12:34:10Z</time>
      </trkpt>
      <trkpt lat="40.456080" lon="-4.342740">
        <ele>738.708</ele>
        <time>2022-02-25T12:34:50Z</time>
      </trkpt>
      <trkpt lat="40.456120" lon="-4.342880">
        <ele>739.435</ele>
        <time>2022-02-25T12:35:30Z</time>
      </trkpt>
      <trkpt lat="40.456230" lon="-4.343170">
        <ele>739.882</ele>
        <time>2022-02-25T12:36:10Z</time>
      </trkpt>
      <trkpt lat="40.456260" lon="-4.343240">
        <ele>739.776</ele>
        <time>2022-02-25T12:36:50Z</time>
      </trkpt>
      <trkpt lat="40.456410" lon="-4.343590">
        <ele>740.365</ele>
        <time>2022-02-25T12:37:30Z</time>
      </trkpt>
      <trkpt lat="40.456760" lon="-4.344410">
        <ele>741.945</ele>
        <time>2022-02-25T12:38:10Z</time>
      </trkpt>
      <trkpt lat="40.456780" lon="-4.344460">
        <ele>742.018</ele>
        <time>2022-02-25T12:38:50Z</time>
      </trkpt>
      <trkpt lat="40.456850" lon="-4.344610">
        <ele>742.323</ele>
        <time>2022-02-25T12:39:30Z</time>
      </trkpt>
      <trkpt lat="40.456940" lon="-4.344820">
        <ele>742.621</ele>
        <time>2022-02-25T12:40:10Z</time>
      </trkpt>
      <trkpt lat="40.456950" lon="-4.344840">
        <ele>742.673</ele>
        <time>2022-02-25T12:40:50Z</time>
      </trkpt>
      <trkpt lat="40.457030" lon="-4.345020">
        <ele>743.085</ele>
        <time>2022-02-25T12:41:30Z</time>
      </trkpt>
      <trkpt lat="40.457210" lon="-4.345440">
        <ele>746.513</ele>
        <time>2022-02-25T12:42:10Z</time>
      </trkpt>
      <trkpt lat="40.457300" lon="-4.345640">
        <ele>748.108</ele>
        <time>2022-02-25T12:42:50Z</time>
      </trkpt>
      <trkpt lat="40.457390" lon="-4.345860">
        <ele>749.266</ele>
        <time>2022-02-25T12:43:30Z</time>
      </trkpt>
      <trkpt lat="40.457450" lon="-4.346000">
        <ele>749.673</ele>
        <time>2022-02-25T12:44:10Z</time>
      </trkpt>
      <trkpt lat="40.457700" lon="-4.346530">
        <ele>751.337</ele>
        <time>2022-02-25T12:44:50Z</time>
      </trkpt>
      <trkpt lat="40.457740" lon="-4.346600">
        <ele>751.236</ele>
        <time>2022-02-25T12:45:30Z</time>
      </trkpt>
      <trkpt lat="40.457790" lon="-4.346680">
        <ele>751.156</ele>
        <time>2022-02-25T12:46:10Z</time>
      </trkpt>
      <trkpt lat="40.457850" lon="-4.346780">
        <ele>751.539</ele>
        <time>2022-02-25T12:46:50Z</time>
      </trkpt>
      <trkpt lat="40.457880" lon="-4.346820">
        <ele>751.724</ele>
        <time>2022-02-25T12:47:30Z</time>
      </trkpt>
      <trkpt lat="40.457920" lon="-4.346890">
        <ele>751.812</ele>
        <time>2022-02-25T12:48:10Z</time>
      </trkpt>
      <trkpt lat="40.458020" lon="-4.347040">
        <ele>752.092</ele>
        <time>2022-02-25T12:48:50Z</time>
      </trkpt>
      <trkpt lat="40.458080" lon="-4.347120">
        <ele>752.173</ele>
        <time>2022-02-25T12:49:30Z</time>
      </trkpt>
      <trkpt lat="40.458120" lon="-4.347170">
        <ele>752.220</ele>
        <time>2022-02-25T12:50:10Z</time>
      </trkpt>
      <trkpt lat="40.458190" lon="-4.347240">
        <ele>752.308</ele>
        <time>2022-02-25T12:50:50Z</time>
      </trkpt>
      <trkpt lat="40.458370" lon="-4.347430">
        <ele>752.568</ele>
        <time>2022-02-25T12:51:30Z</time>
      </trkpt>
      <trkpt lat="40.458460" lon="-4.347520">
        <ele>753.565</ele>
        <time>2022-02-25T12:52:10Z</time>
      </trkpt>
      <trkpt lat="40.458520" lon="-4.347580">
        <ele>754.029</ele>
        <time>2022-02-25T12:52:50Z</time>
      </trkpt>
      <trkpt lat="40.458550" lon="-4.347610">
        <ele>754.298</ele>
        <time>2022-02-25T12:53:30Z</time>
      </trkpt>
      <trkpt lat="40.458690" lon="-4.347720">
        <ele>754.998</ele>
        <time>2022-02-25T12:54:10Z</time>
      </trkpt>
      <trkpt lat="40.458820" lon="-4.347820">
        <ele>755.441</ele>
        <time>2022-02-25T12:54:50Z</time>
      </trkpt>
      <trkpt lat="40.458950" lon="-4.347910">
        <ele>755.556</ele>
        <time>2022-02-25T12:55:30Z</time>
      </trkpt>
      <trkpt lat="40.458980" lon="-4.347930">
        <ele>755.524</ele>
        <time>2022-02-25T12:56:10Z</time>
      </trkpt>
      <trkpt lat="40.459150" lon="-4.348050">
        <ele>755.097</ele>
        <time>2022-02-25T12:56:50Z</time>
      </trkpt>
      <trkpt lat="40.459310" lon="-4.348130">
        <ele>755.223</ele>
        <time>2022-02-25T12:57:30Z</time>
      </trkpt>
      <trkpt lat="40.459420" lon="-4.348200">
        <ele>755.325</ele>
        <time>2022-02-25T12:58:10Z</time>
      </trkpt>
      <trkpt lat="40.459520" lon="-4.348250">
        <ele>755.208</ele>
        <time>2022-02-25T12:58:50Z</time>
      </trkpt>
      <trkpt lat="40.459640" lon="-4.348300">
        <ele>755.118</ele>
        <time>2022-02-25T12:59:30Z</time>
      </trkpt>
      <trkpt lat="40.459780" lon="-4.348360">
        <ele>754.715</ele>
        <time>2022-02-25T13:00:10Z</time>
      </trkpt>
      <trkpt lat="40.459810" lon="-4.348370">
        <ele>754.669</ele>
        <time>2022-02-25T13:00:50Z</time>
      </trkpt>
      <trkpt lat="40.460160" lon="-4.348500">
        <ele>752.698</ele>
        <time>2022-02-25T13:01:30Z</time>
      </trkpt>
      <trkpt lat="40.460330" lon="-4.348570">
        <ele>751.428</ele>
        <time>2022-02-25T13:02:10Z</time>
      </trkpt>
      <trkpt lat="40.460620" lon="-4.348680">
        <ele>750.581</ele>
        <time>2022-02-25T13:02:50Z</time>
      </trkpt>
      <trkpt lat="40.460680" lon="-4.348700">
        <ele>750.466</ele>
        <time>2022-02-25T13:03:30Z</time>
      </trkpt>
      <trkpt lat="40.461030" lon="-4.348830">
        <ele>749.684</ele>
        <time>2022-02-25T13:04:10Z</time>
      </trkpt>
      <trkpt lat="40.461160" lon="-4.348880">
        <ele>749.877</ele>
        <time>2022-02-25T13:04:50Z</time>
      </trkpt>
      <trkpt lat="40.461200" lon="-4.348890">
        <ele>750.361</ele>
        <time>2022-02-25T13:05:30Z</time>
      </trkpt>
      <trkpt lat="40.461220" lon="-4.348900">
        <ele>750.527</ele>
        <time>2022-02-25T13:06:10Z</time>
      </trkpt>
      <trkpt lat="40.461710" lon="-4.349080">
        <ele>752.308</ele>
        <time>2022-02-25T13:06:50Z</time>
      </trkpt>
      <trkpt lat="40.462110" lon="-4.349240">
        <ele>754.076</ele>
        <time>2022-02-25T13:07:30Z</time>
      </trkpt>
      <trkpt lat="40.462200" lon="-4.349280">
        <ele>754.563</ele>
        <time>2022-02-25T13:08:10Z</time>
      </trkpt>
      <trkpt lat="40.462260" lon="-4.349300">
        <ele>755.057</ele>
        <time>2022-02-25T13:08:50Z</time>
      </trkpt>
      <trkpt lat="40.462320" lon="-4.349340">
        <ele>755.236</ele>
        <time>2022-02-25T13:09:30Z</time>
      </trkpt>
      <trkpt lat="40.462360" lon="-4.349370">
        <ele>755.336</ele>
        <time>2022-02-25T13:10:10Z</time>
      </trkpt>
      <trkpt lat="40.462390" lon="-4.349400">
        <ele>755.349</ele>
        <time>2022-02-25T13:10:50Z</time>
      </trkpt>
      <trkpt lat="40.462390" lon="-4.349410">
        <ele>755.284</ele>
        <time>2022-02-25T13:11:30Z</time>
      </trkpt>
      <trkpt lat="40.462430" lon="-4.349450">
        <ele>755.232</ele>
        <time>2022-02-25T13:12:10Z</time>
      </trkpt>
      <trkpt lat="40.462460" lon="-4.349500">
        <ele>755.292</ele>
        <time>2022-02-25T13:12:50Z</time>
      </trkpt>
      <trkpt lat="40.462490" lon="-4.349560">
        <ele>755.173</ele>
        <time>2022-02-25T13:13:30Z</time>
      </trkpt>
      <trkpt lat="40.462520" lon="-4.349610">
        <ele>755.020</ele>
        <time>2022-02-25T13:14:10Z</time>
      </trkpt>
      <trkpt lat="40.462550" lon="-4.349720">
        <ele>754.608</ele>
        <time>2022-02-25T13:14:50Z</time>
      </trkpt>
      <trkpt lat="40.462570" lon="-4.349810">
        <ele>755.138</ele>
        <time>2022-02-25T13:15:30Z</time>
      </trkpt>
      <trkpt lat="40.462570" lon="-4.349830">
        <ele>755.175</ele>
        <time>2022-02-25T13:16:10Z</time>
      </trkpt>
      <trkpt lat="40.462580" lon="-4.349900">
        <ele>755.589</ele>
        <time>2022-02-25T13:16:50Z</time>
      </trkpt>
      <trkpt lat="40.462580" lon="-4.350020">
        <ele>756.058</ele>
        <time>2022-02-25T13:17:30Z</time>
      </trkpt>
      <trkpt lat="40.462570" lon="-4.350040">
        <ele>756.028</ele>
        <time>2022-02-25T13:18:10Z</time>
      </trkpt>
      <trkpt lat="40.462560" lon="-4.350110">
        <ele>756.411</ele>
        <time>2022-02-25T13:18:50Z</time>
      </trkpt>
      <trkpt lat="40.462530" lon="-4.350210">
        <ele>756.866</ele>
        <time>2022-02-25T13:19:30Z</time>
      </trkpt>
      <trkpt lat="40.462520" lon="-4.350270">
        <ele>757.184</ele>
        <time>2022-02-25T13:20:10Z</time>
      </trkpt>
      <trkpt lat="40.462360" lon="-4.350690">
        <ele>758.547</ele>
        <time>2022-02-25T13:20:50Z</time>
      </trkpt>
      <trkpt lat="40.462280" lon="-4.350910">
        <ele>760.129</ele>
        <time>2022-02-25T13:21:30Z</time>
      </trkpt>
      <trkpt lat="40.462210" lon="-4.351120">
        <ele>762.121</ele>
        <time>2022-02-25T13:22:10Z</time>
      </trkpt>
      <trkpt lat="40.462200" lon="-4.351140">
        <ele>762.308</ele>
        <time>2022-02-25T13:22:50Z</time>
      </trkpt>
      <trkpt lat="40.462140" lon="-4.351300">
        <ele>764.263</ele>
        <time>2022-02-25T13:23:30Z</time>
      </trkpt>
      <trkpt lat="40.462130" lon="-4.351330">
        <ele>764.570</ele>
        <time>2022-02-25T13:24:10Z</time>
      </trkpt>
      <trkpt lat="40.462050" lon="-4.351540">
        <ele>765.214</ele>
        <time>2022-02-25T13:24:50Z</time>
      </trkpt>
      <trkpt lat="40.462040" lon="-4.351560">
        <ele>765.243</ele>
        <time>2022-02-25T13:25:30Z</time>
      </trkpt>
      <trkpt lat="40.461970" lon="-4.351720">
        <ele>764.943</ele>
        <time>2022-02-25T13:26:10Z</time>
      </trkpt>
      <trkpt lat="40.461960" lon="-4.351750">
        <ele>764.926</ele>
        <time>2022-02-25T13:26:50Z</time>
      </trkpt>
      <trkpt lat="40.461930" lon="-4.351830">
        <ele>764.991</ele>
        <time>2022-02-25T13:27:30Z</time>
      </trkpt>
      <trkpt lat="40.461900" lon="-4.351950">
        <ele>765.249</ele>
        <time>2022-02-25T13:28:10Z</time>
      </trkpt>
      <trkpt lat="40.461890" lon="-4.351970">
        <ele>764.978</ele>
        <time>2022-02-25T13:28:50Z</time>
      </trkpt>
      <trkpt lat="40.461890" lon="-4.351990">
        <ele>764.933</ele>
        <time>2022-02-25T13:29:30Z</time>
      </trkpt>
      <trkpt lat="40.461870" lon="-4.352060">
        <ele>764.226</ele>
        <time>2022-02-25T13:30:10Z</time>
      </trkpt>
      <trkpt lat="40.461870" lon="-4.352180">
        <ele>763.808</ele>
        <time>2022-02-25T13:30:50Z</time>
      </trkpt>
      <trkpt lat="40.461860" lon="-4.352200">
        <ele>763.646</ele>
        <time>2022-02-25T13:31:30Z</time>
      </trkpt>
      <trkpt lat="40.461860" lon="-4.352220">
        <ele>763.583</ele>
        <time>2022-02-25T13:32:10Z</time>
      </trkpt>
      <trkpt lat="40.461860" lon="-4.352280">
        <ele>762.927</ele>
        <time>2022-02-25T13:32:50Z</time>
      </trkpt>
      <trkpt lat="40.461850" lon="-4.352400">
        <ele>761.456</ele>
        <time>2022-02-25T13:33:30Z</time>
      </trkpt>
      <trkpt lat="40.461860" lon="-4.352550">
        <ele>760.076</ele>
        <time>2022-02-25T13:34:10Z</time>
      </trkpt>
      <trkpt lat="40.461870" lon="-4.352690">
        <ele>758.869</ele>
        <time>2022-02-25T13:34:50Z</time>
      </trkpt>
      <trkpt lat="40.461880" lon="-4.352810">
        <ele>757.814</ele>
        <time>2022-02-25T13:35:30Z</time>
      </trkpt>
      <trkpt lat="40.461900" lon="-4.352910">
        <ele>757.332</ele>
        <time>2022-02-25T13:36:10Z</time>
      </trkpt>
      <trkpt lat="40.461960" lon="-4.353370">
        <ele>754.145</ele>
        <time>2022-02-25T13:36:50Z</time>
      </trkpt>
      <trkpt lat="40.462000" lon="-4.353600">
        <ele>753.647</ele>
        <time>2022-02-25T13:37:30Z</time>
      </trkpt>
      <trkpt lat="40.462000" lon="-4.353620">
        <ele>753.611</ele>
        <time>2022-02-25T13:38:10Z</time>
      </trkpt>
      <trkpt lat="40.462010" lon="-4.353710">
        <ele>753.608</ele>
        <time>2022-02-25T13:38:50Z</time>
      </trkpt>
      <trkpt lat="40.462020" lon="-4.353760">
        <ele>753.723</ele>
        <time>2022-02-25T13:39:30Z</time>
      </trkpt>
      <trkpt lat="40.462040" lon="-4.353860">
        <ele>753.780</ele>
        <time>2022-02-25T13:40:10Z</time>
      </trkpt>
      <trkpt lat="40.462080" lon="-4.353990">
        <ele>753.244</ele>
        <time>2022-02-25T13:40:50Z</time>
      </trkpt>
      <trkpt lat="40.462120" lon="-4.354110">
        <ele>752.773</ele>
        <time>2022-02-25T13:41:30Z</time>
      </trkpt>
      <trkpt lat="40.462170" lon="-4.354210">
        <ele>752.243</ele>
        <time>2022-02-25T13:42:10Z</time>
      </trkpt>
      <trkpt lat="40.462210" lon="-4.354280">
        <ele>751.716</ele>
        <time>2022-02-25T13:42:50Z</time>
      </trkpt>
      <trkpt lat="40.462260" lon="-4.354350">
        <ele>751.211</ele>
        <time>2022-02-25T13:43:30Z</time>
      </trkpt>
      <trkpt lat="40.462320" lon="-4.354430">
        <ele>750.549</ele>
        <time>2022-02-25T13:44:10Z</time>
      </trkpt>
      <trkpt lat="40.462340" lon="-4.354450">
        <ele>750.465</ele>
        <time>2022-02-25T13:44:50Z</time>
      </trkpt>
      <trkpt lat="40.462410" lon="-4.354530">
        <ele>749.868</ele>
        <time>2022-02-25T13:45:30Z</time>
      </trkpt>
      <trkpt lat="40.462490" lon="-4.354600">
        <ele>749.314</ele>
        <time>2022-02-25T13:46:10Z</time>
      </trkpt>
      <trkpt lat="40.462580" lon="-4.354660">
        <ele>748.708</ele>
        <time>2022-02-25T13:46:50Z</time>
      </trkpt>
      <trkpt lat="40.462630" lon="-4.354690">
        <ele>748.495</ele>
        <time>2022-02-25T13:47:30Z</time>
      </trkpt>
      <trkpt lat="40.462680" lon="-4.354720">
        <ele>748.042</ele>
        <time>2022-02-25T13:48:10Z</time>
      </trkpt>
      <trkpt lat="40.462790" lon="-4.354760">
        <ele>747.376</ele>
        <time>2022-02-25T13:48:50Z</time>
      </trkpt>
      <trkpt lat="40.462810" lon="-4.354760">
        <ele>747.335</ele>
        <time>2022-02-25T13:49:30Z</time>
      </trkpt>
      <trkpt lat="40.462920" lon="-4.354790">
        <ele>746.915</ele>
        <time>2022-02-25T13:50:10Z</time>
      </trkpt>
      <trkpt lat="40.463150" lon="-4.354840">
        <ele>746.888</ele>
        <time>2022-02-25T13:50:50Z</time>
      </trkpt>
      <trkpt lat="40.463160" lon="-4.354850">
        <ele>746.713</ele>
        <time>2022-02-25T13:51:30Z</time>
      </trkpt>
      <trkpt lat="40.463220" lon="-4.354860">
        <ele>746.981</ele>
        <time>2022-02-25T13:52:10Z</time>
      </trkpt>
      <trkpt lat="40.463260" lon="-4.354880">
        <ele>746.999</ele>
        <time>2022-02-25T13:52:50Z</time>
      </trkpt>
      <trkpt lat="40.463320" lon="-4.354900">
        <ele>747.007</ele>
        <time>2022-02-25T13:53:30Z</time>
      </trkpt>
      <trkpt lat="40.463370" lon="-4.354930">
        <ele>747.027</ele>
        <time>2022-02-25T13:54:10Z</time>
      </trkpt>
      <trkpt lat="40.463420" lon="-4.354960">
        <ele>747.008</ele>
        <time>2022-02-25T13:54:50Z</time>
      </trkpt>
      <trkpt lat="40.463450" lon="-4.354990">
        <ele>746.928</ele>
        <time>2022-02-25T13:55:30Z</time>
      </trkpt>
      <trkpt lat="40.463470" lon="-4.355010">
        <ele>746.975</ele>
        <time>2022-02-25T13:56:10Z</time>
      </trkpt>
      <trkpt lat="40.463490" lon="-4.355030">
        <ele>746.979</ele>
        <time>2022-02-25T13:56:50Z</time>
      </trkpt>
      <trkpt lat="40.463530" lon="-4.355080">
        <ele>747.028</ele>
        <time>2022-02-25T13:57:30Z</time>
      </trkpt>
      <trkpt lat="40.463560" lon="-4.355140">
        <ele>746.978</ele>
        <time>2022-02-25T13:58:10Z</time>
      </trkpt>
      <trkpt lat="40.463590" lon="-4.355190">
        <ele>747.151</ele>
        <time>2022-02-25T13:58:50Z</time>
      </trkpt>
      <trkpt lat="40.463590" lon="-4.355210">
        <ele>747.026</ele>
        <time>2022-02-25T13:59:30Z</time>
      </trkpt>
      <trkpt lat="40.463610" lon="-4.355260">
        <ele>747.084</ele>
        <time>2022-02-25T14:00:10Z</time>
      </trkpt>
      <trkpt lat="40.463620" lon="-4.355310">
        <ele>747.063</ele>
        <time>2022-02-25T14:00:50Z</time>
      </trkpt>
      <trkpt lat="40.463630" lon="-4.355360">
        <ele>746.944</ele>
        <time>2022-02-25T14:01:30Z</time>
      </trkpt>
      <trkpt lat="40.463630" lon="-4.355420">
        <ele>746.718</ele>
        <time>2022-02-25T14:02:10Z</time>
      </trkpt>
      <trkpt lat="40.463630" lon="-4.355510">
        <ele>746.408</ele>
        <time>2022-02-25T14:02:50Z</time>
      </trkpt>
      <trkpt lat="40.463620" lon="-4.355590">
        <ele>746.535</ele>
        <time>2022-02-25T14:03:30Z</time>
      </trkpt>
      <trkpt lat="40.463600" lon="-4.355690">
        <ele>747.332</ele>
        <time>2022-02-25T14:04:10Z</time>
      </trkpt>
      <trkpt lat="40.463570" lon="-4.355760">
        <ele>747.766</ele>
        <time>2022-02-25T14:04:50Z</time>
      </trkpt>
      <trkpt lat="40.463540" lon="-4.355820">
        <ele>747.815</ele>
        <time>2022-02-25T14:05:30Z</time>
      </trkpt>
      <trkpt lat="40.463490" lon="-4.355890">
        <ele>747.715</ele>
        <time>2022-02-25T14:06:10Z</time>
      </trkpt>
      <trkpt lat="40.463430" lon="-4.355960">
        <ele>747.368</ele>
        <time>2022-02-25T14:06:50Z</time>
      </trkpt>
      <trkpt lat="40.463370" lon="-4.356000">
        <ele>746.723</ele>
        <time>2022-02-25T14:07:30Z</time>
      </trkpt>
      <trkpt lat="40.463330" lon="-4.356020">
        <ele>746.361</ele>
        <time>2022-02-25T14:08:10Z</time>
      </trkpt>
      <trkpt lat="40.463290" lon="-4.356030">
        <ele>746.442</ele>
        <time>2022-02-25T14:08:50Z</time>
      </trkpt>
      <trkpt lat="40.463120" lon="-4.356080">
        <ele>746.722</ele>
        <time>2022-02-25T14:09:30Z</time>
      </trkpt>
      <trkpt lat="40.462830" lon="-4.356120">
        <ele>746.314</ele>
        <time>2022-02-25T14:10:10Z</time>
      </trkpt>
      <trkpt lat="40.462710" lon="-4.356140">
        <ele>745.708</ele>
        <time>2022-02-25T14:10:50Z</time>
      </trkpt>
      <trkpt lat="40.462660" lon="-4.356160">
        <ele>745.473</ele>
        <time>2022-02-25T14:11:30Z</time>
      </trkpt>
      <trkpt lat="40.462470" lon="-4.356220">
        <ele>744.250</ele>
        <time>2022-02-25T14:12:10Z</time>
      </trkpt>
      <trkpt lat="40.462320" lon="-4.356270">
        <ele>745.124</ele>
        <time>2022-02-25T14:12:50Z</time>
      </trkpt>
      <trkpt lat="40.462120" lon="-4.356330">
        <ele>746.433</ele>
        <time>2022-02-25T14:13:30Z</time>
      </trkpt>
      <trkpt lat="40.462070" lon="-4.356340">
        <ele>746.753</ele>
        <time>2022-02-25T14:14:10Z</time>
      </trkpt>
      <trkpt lat="40.461970" lon="-4.356380">
        <ele>747.896</ele>
        <time>2022-02-25T14:14:50Z</time>
      </trkpt>
      <trkpt lat="40.461790" lon="-4.356450">
        <ele>748.311</ele>
        <time>2022-02-25T14:15:30Z</time>
      </trkpt>
      <trkpt lat="40.461620" lon="-4.356520">
        <ele>748.999</ele>
        <time>2022-02-25T14:16:10Z</time>
      </trkpt>
      <trkpt lat="40.461450" lon="-4.356580">
        <ele>750.051</ele>
        <time>2022-02-25T14:16:50Z</time>
      </trkpt>
      <trkpt lat="40.461280" lon="-4.356650">
        <ele>751.301</ele>
        <time>2022-02-25T14:17:30Z</time>
      </trkpt>
      <trkpt lat="40.460930" lon="-4.356780">
        <ele>751.311</ele>
        <time>2022-02-25T14:18:10Z</time>
      </trkpt>
      <trkpt lat="40.460920" lon="-4.356790">
        <ele>751.408</ele>
        <time>2022-02-25T14:18:50Z</time>
      </trkpt>
      <trkpt lat="40.460760" lon="-4.356850">
        <ele>751.754</ele>
        <time>2022-02-25T14:19:30Z</time>
      </trkpt>
      <trkpt lat="40.460740" lon="-4.356860">
        <ele>751.961</ele>
        <time>2022-02-25T14:20:10Z</time>
      </trkpt>
      <trkpt lat="40.460590" lon="-4.356920">
        <ele>752.765</ele>
        <time>2022-02-25T14:20:50Z</time>
      </trkpt>
      <trkpt lat="40.460490" lon="-4.356960">
        <ele>752.764</ele>
        <time>2022-02-25T14:21:30Z</time>
      </trkpt>
      <trkpt lat="40.460420" lon="-4.357000">
        <ele>752.464</ele>
        <time>2022-02-25T14:22:10Z</time>
      </trkpt>
      <trkpt lat="40.460410" lon="-4.357010">
        <ele>752.457</ele>
        <time>2022-02-25T14:22:50Z</time>
      </trkpt>
      <trkpt lat="40.460400" lon="-4.357010">
        <ele>752.382</ele>
        <time>2022-02-25T14:23:30Z</time>
      </trkpt>
      <trkpt lat="40.460330" lon="-4.357060">
        <ele>751.950</ele>
        <time>2022-02-25T14:24:10Z</time>
      </trkpt>
      <trkpt lat="40.460260" lon="-4.357120">
        <ele>751.536</ele>
        <time>2022-02-25T14:24:50Z</time>
      </trkpt>
      <trkpt lat="40.460200" lon="-4.357180">
        <ele>751.217</ele>
        <time>2022-02-25T14:25:30Z</time>
      </trkpt>
      <trkpt lat="40.460120" lon="-4.357250">
        <ele>751.018</ele>
        <time>2022-02-25T14:26:10Z</time>
      </trkpt>
      <trkpt lat="40.460120" lon="-4.357260">
        <ele>751.108</ele>
        <time>2022-02-25T14:26:50Z</time>
      </trkpt>
      <trkpt lat="40.460060" lon="-4.357320">
        <ele>750.982</ele>
        <time>2022-02-25T14:27:30Z</time>
      </trkpt>
      <trkpt lat="40.459990" lon="-4.357420">
        <ele>750.569</ele>
        <time>2022-02-25T14:28:10Z</time>
      </trkpt>
      <trkpt lat="40.459980" lon="-4.357440">
        <ele>750.453</ele>
        <time>2022-02-25T14:28:50Z</time>
      </trkpt>
      <trkpt lat="40.459920" lon="-4.357530">
        <ele>749.452</ele>
        <time>2022-02-25T14:29:30Z</time>
      </trkpt>
      <trkpt lat="40.459850" lon="-4.357660">
        <ele>748.672</ele>
        <time>2022-02-25T14:30:10Z</time>
      </trkpt>
      <trkpt lat="40.459850" lon="-4.357670">
        <ele>748.775</ele>
        <time>2022-02-25T14:30:50Z</time>
      </trkpt>
      <trkpt lat="40.459780" lon="-4.357810">
        <ele>748.090</ele>
        <time>2022-02-25T14:31:30Z</time>
      </trkpt>
      <trkpt lat="40.459770" lon="-4.357830">
        <ele>747.838</ele>
        <time>2022-02-25T14:32:10Z</time>
      </trkpt>
      <trkpt lat="40.459640" lon="-4.358090">
        <ele>745.951</ele>
        <time>2022-02-25T14:32:50Z</time>
      </trkpt>
      <trkpt lat="40.459580" lon="-4.358200">
        <ele>744.401</ele>
        <time>2022-02-25T14:33:30Z</time>
      </trkpt>
      <trkpt lat="40.459570" lon="-4.358220">
        <ele>744.211</ele>
        <time>2022-02-25T14:34:10Z</time>
      </trkpt>
      <trkpt lat="40.459470" lon="-4.358420">
        <ele>741.708</ele>
        <time>2022-02-25T14:34:50Z</time>
      </trkpt>
      <trkpt lat="40.459470" lon="-4.358430">
        <ele>741.684</ele>
        <time>2022-02-25T14:35:30Z</time>
      </trkpt>
      <trkpt lat="40.459420" lon="-4.358540">
        <ele>740.331</ele>
        <time>2022-02-25T14:36:10Z</time>
      </trkpt>
      <trkpt lat="40.459330" lon="-4.358720">
        <ele>738.665</ele>
        <time>2022-02-25T14:36:50Z</time>
      </trkpt>
      <trkpt lat="40.459250" lon="-4.358910">
        <ele>737.144</ele>
        <time>2022-02-25T14:37:30Z</time>
      </trkpt>
      <trkpt lat="40.459230" lon="-4.358940">
        <ele>736.964</ele>
        <time>2022-02-25T14:38:10Z</time>
      </trkpt>
      <trkpt lat="40.459210" lon="-4.359010">
        <ele>736.337</ele>
        <time>2022-02-25T14:38:50Z</time>
      </trkpt>
      <trkpt lat="40.459140" lon="-4.359160">
        <ele>735.072</ele>
        <time>2022-02-25T14:39:30Z</time>
      </trkpt>
      <trkpt lat="40.459080" lon="-4.359330">
        <ele>734.170</ele>
        <time>2022-02-25T14:40:10Z</time>
      </trkpt>
      <trkpt lat="40.459060" lon="-4.359440">
        <ele>733.683</ele>
        <time>2022-02-25T14:40:50Z</time>
      </trkpt>
      <trkpt lat="40.459040" lon="-4.359530">
        <ele>733.225</ele>
        <time>2022-02-25T14:41:30Z</time>
      </trkpt>
      <trkpt lat="40.459040" lon="-4.359600">
        <ele>733.017</ele>
        <time>2022-02-25T14:42:10Z</time>
      </trkpt>
      <trkpt lat="40.459040" lon="-4.359630">
        <ele>732.908</ele>
        <time>2022-02-25T14:42:50Z</time>
      </trkpt>
      <trkpt lat="40.459040" lon="-4.359670">
        <ele>732.787</ele>
        <time>2022-02-25T14:43:30Z</time>
      </trkpt>
      <trkpt lat="40.459040" lon="-4.359760">
        <ele>732.344</ele>
        <time>2022-02-25T14:44:10Z</time>
      </trkpt>
      <trkpt lat="40.459050" lon="-4.359940">
        <ele>731.358</ele>
        <time>2022-02-25T14:44:50Z</time>
      </trkpt>
      <trkpt lat="40.459230" lon="-4.360340">
        <ele>728.497</ele>
        <time>2022-02-25T14:45:30Z</time>
      </trkpt>
      <trkpt lat="40.459300" lon="-4.360490">
        <ele>725.547</ele>
        <time>2022-02-25T14:46:10Z</time>
      </trkpt>
      <trkpt lat="40.459320" lon="-4.360550">
        <ele>724.410</ele>
        <time>2022-02-25T14:46:50Z</time>
      </trkpt>
      <trkpt lat="40.459410" lon="-4.360760">
        <ele>720.975</ele>
        <time>2022-02-25T14:47:30Z</time>
      </trkpt>
      <trkpt lat="40.459490" lon="-4.360960">
        <ele>721.473</ele>
        <time>2022-02-25T14:48:10Z</time>
      </trkpt>
      <trkpt lat="40.459490" lon="-4.360970">
        <ele>721.474</ele>
        <time>2022-02-25T14:48:50Z</time>
      </trkpt>
      <trkpt lat="40.459570" lon="-4.361180">
        <ele>723.456</ele>
        <time>2022-02-25T14:49:30Z</time>
      </trkpt>
      <trkpt lat="40.459640" lon="-4.361340">
        <ele>723.521</ele>
        <time>2022-02-25T14:50:10Z</time>
      </trkpt>
      <trkpt lat="40.459650" lon="-4.361390">
        <ele>723.208</ele>
        <time>2022-02-25T14:50:50Z</time>
      </trkpt>
      <trkpt lat="40.459740" lon="-4.361660">
        <ele>720.446</ele>
        <time>2022-02-25T14:51:30Z</time>
      </trkpt>
      <trkpt lat="40.459820" lon="-4.361960">
        <ele>717.543</ele>
        <time>2022-02-25T14:52:10Z</time>
      </trkpt>
      <trkpt lat="40.459850" lon="-4.362050">
        <ele>716.597</ele>
        <time>2022-02-25T14:52:50Z</time>
      </trkpt>
      <trkpt lat="40.460060" lon="-4.362700">
        <ele>714.596</ele>
        <time>2022-02-25T14:53:30Z</time>
      </trkpt>
      <trkpt lat="40.460080" lon="-4.362750">
        <ele>714.496</ele>
        <time>2022-02-25T14:54:10Z</time>
      </trkpt>
      <trkpt lat="40.460150" lon="-4.362900">
        <ele>714.039</ele>
        <time>2022-02-25T14:54:50Z</time>
      </trkpt>
      <trkpt lat="40.460250" lon="-4.363100">
        <ele>713.034</ele>
        <time>2022-02-25T14:55:30Z</time>
      </trkpt>
      <trkpt lat="40.460410" lon="-4.363400">
        <ele>711.862</ele>
        <time>2022-02-25T14:56:10Z</time>
      </trkpt>
      <trkpt lat="40.460450" lon="-4.363500">
        <ele>711.566</ele>
        <time>2022-02-25T14:56:50Z</time>
      </trkpt>
      <trkpt lat="40.460450" lon="-4.363510">
        <ele>711.429</ele>
        <time>2022-02-25T14:57:30Z</time>
      </trkpt>
      <trkpt lat="40.460490" lon="-4.363630">
        <ele>711.021</ele>
        <time>2022-02-25T14:58:10Z</time>
      </trkpt>
      <trkpt lat="40.460510" lon="-4.363690">
        <ele>711.108</ele>
        <time>2022-02-25T14:58:50Z</time>
      </trkpt>
      <trkpt lat="40.460500" lon="-4.363720">
        <ele>710.975</ele>
        <time>2022-02-25T14:59:30Z</time>
      </trkpt>
      <trkpt lat="40.460500" lon="-4.363770">
        <ele>710.732</ele>
        <time>2022-02-25T15:00:10Z</time>
      </trkpt>
      <trkpt lat="40.460480" lon="-4.363870">
        <ele>710.246</ele>
        <time>2022-02-25T15:00:50Z</time>
      </trkpt>
      <trkpt lat="40.460450" lon="-4.363940">
        <ele>710.135</ele>
        <time>2022-02-25T15:01:30Z</time>
      </trkpt>
      <trkpt lat="40.460450" lon="-4.363960">
        <ele>710.215</ele>
        <time>2022-02-25T15:02:10Z</time>
      </trkpt>
      <trkpt lat="40.460410" lon="-4.364020">
        <ele>710.128</ele>
        <time>2022-02-25T15:02:50Z</time>
      </trkpt>
      <trkpt lat="40.460110" lon="-4.364490">
        <ele>710.173</ele>
        <time>2022-02-25T15:03:30Z</time>
      </trkpt>
      <trkpt lat="40.460060" lon="-4.364580">
        <ele>709.371</ele>
        <time>2022-02-25T15:04:10Z</time>
      </trkpt>
      <trkpt lat="40.459990" lon="-4.364700">
        <ele>707.957</ele>
        <time>2022-02-25T15:04:50Z</time>
      </trkpt>
      <trkpt lat="40.459960" lon="-4.364820">
        <ele>706.300</ele>
        <time>2022-02-25T15:05:30Z</time>
      </trkpt>
      <trkpt lat="40.459950" lon="-4.364980">
        <ele>704.920</ele>
        <time>2022-02-25T15:06:10Z</time>
      </trkpt>
      <trkpt lat="40.459960" lon="-4.365140">
        <ele>704.008</ele>
        <time>2022-02-25T15:06:50Z</time>
      </trkpt>
      <trkpt lat="40.459990" lon="-4.365480">
        <ele>702.374</ele>
        <time>2022-02-25T15:07:30Z</time>
      </trkpt>
      <trkpt lat="40.460040" lon="-4.365840">
        <ele>700.511</ele>
        <time>2022-02-25T15:08:10Z</time>
      </trkpt>
      <trkpt lat="40.460100" lon="-4.366300">
        <ele>698.485</ele>
        <time>2022-02-25T15:08:50Z</time>
      </trkpt>
      <trkpt lat="40.460200" lon="-4.367140">
        <ele>693.954</ele>
        <time>2022-02-25T15:09:30Z</time>
      </trkpt>
      <trkpt lat="40.460260" lon="-4.367470">
        <ele>692.834</ele>
        <time>2022-02-25T15:10:10Z</time>
      </trkpt>
      <trkpt lat="40.460360" lon="-4.367970">
        <ele>690.467</ele>
        <time>2022-02-25T15:10:50Z</time>
      </trkpt>
      <trkpt lat="40.460360" lon="-4.367980">
        <ele>690.292</ele>
        <time>2022-02-25T15:11:30Z</time>
      </trkpt>
      <trkpt lat="40.460540" lon="-4.368350">
        <ele>687.750</ele>
        <time>2022-02-25T15:12:10Z</time>
      </trkpt>
      <trkpt lat="40.460770" lon="-4.368750">
        <ele>685.944</ele>
        <time>2022-02-25T15:12:50Z</time>
      </trkpt>
      <trkpt lat="40.460820" lon="-4.368830">
        <ele>685.605</ele>
        <time>2022-02-25T15:13:30Z</time>
      </trkpt>
      <trkpt lat="40.460890" lon="-4.368940">
        <ele>685.415</ele>
        <time>2022-02-25T15:14:10Z</time>
      </trkpt>
      <trkpt lat="40.460990" lon="-4.369090">
        <ele>684.708</ele>
        <time>2022-02-25T15:14:50Z</time>
      </trkpt>
      <trkpt lat="40.461130" lon="-4.369290">
        <ele>682.763</ele>
        <time>2022-02-25T15:15:30Z</time>
      </trkpt>
      <trkpt lat="40.461290" lon="-4.369510">
        <ele>679.740</ele>
        <time>2022-02-25T15:16:10Z</time>
      </trkpt>
      <trkpt lat="40.461380" lon="-4.369620">
        <ele>678.224</ele>
        <time>2022-02-25T15:16:50Z</time>
      </trkpt>
      <trkpt lat="40.461500" lon="-4.369760">
        <ele>676.743</ele>
        <time>2022-02-25T15:17:30Z</time>
      </trkpt>
      <trkpt lat="40.461540" lon="-4.369790">
        <ele>676.663</ele>
        <time>2022-02-25T15:18:10Z</time>
      </trkpt>
      <trkpt lat="40.461650" lon="-4.369860">
        <ele>676.456</ele>
        <time>2022-02-25T15:18:50Z</time>
      </trkpt>
      <trkpt lat="40.461680" lon="-4.369880">
        <ele>676.391</ele>
        <time>2022-02-25T15:19:30Z</time>
      </trkpt>
      <trkpt lat="40.461770" lon="-4.369910">
        <ele>676.629</ele>
        <time>2022-02-25T15:20:10Z</time>
      </trkpt>
      <trkpt lat="40.461900" lon="-4.369940">
        <ele>676.828</ele>
        <time>2022-02-25T15:20:50Z</time>
      </trkpt>
      <trkpt lat="40.462040" lon="-4.369920">
        <ele>677.689</ele>
        <time>2022-02-25T15:21:30Z</time>
      </trkpt>
      <trkpt lat="40.462210" lon="-4.369890">
        <ele>678.417</ele>
        <time>2022-02-25T15:22:10Z</time>
      </trkpt>
      <trkpt lat="40.462330" lon="-4.369880">
        <ele>677.308</ele>
        <time>2022-02-25T15:22:50Z</time>
      </trkpt>
      <trkpt lat="40.462390" lon="-4.369860">
        <ele>677.471</ele>
        <time>2022-02-25T15:23:30Z</time>
      </trkpt>
      <trkpt lat="40.462570" lon="-4.369820">
        <ele>676.518</ele>
        <time>2022-02-25T15:24:10Z</time>
      </trkpt>
      <trkpt lat="40.462750" lon="-4.369770">
        <ele>674.242</ele>
        <time>2022-02-25T15:24:50Z</time>
      </trkpt>
      <trkpt lat="40.462760" lon="-4.369770">
        <ele>673.921</ele>
        <time>2022-02-25T15:25:30Z</time>
      </trkpt>
      <trkpt lat="40.462920" lon="-4.369730">
        <ele>673.221</ele>
        <time>2022-02-25T15:26:10Z</time>
      </trkpt>
      <trkpt lat="40.462950" lon="-4.369720">
        <ele>673.224</ele>
        <time>2022-02-25T15:26:50Z</time>
      </trkpt>
      <trkpt lat="40.463100" lon="-4.369710">
        <ele>671.989</ele>
        <time>2022-02-25T15:27:30Z</time>
      </trkpt>
      <trkpt lat="40.463150" lon="-4.369700">
        <ele>671.567</ele>
        <time>2022-02-25T15:28:10Z</time>
      </trkpt>
      <trkpt lat="40.463470" lon="-4.369690">
        <ele>668.496</ele>
        <time>2022-02-25T15:28:50Z</time>
      </trkpt>
      <trkpt lat="40.464180" lon="-4.369660">
        <ele>665.731</ele>
        <time>2022-02-25T15:29:30Z</time>
      </trkpt>
      <trkpt lat="40.464360" lon="-4.369660">
        <ele>664.924</ele>
        <time>2022-02-25T15:30:10Z</time>
      </trkpt>
      <trkpt lat="40.464540" lon="-4.369650">
        <ele>664.008</ele>
        <time>2022-02-25T15:30:50Z</time>
      </trkpt>
      <trkpt lat="40.464590" lon="-4.369650">
        <ele>663.628</ele>
        <time>2022-02-25T15:31:30Z</time>
      </trkpt>
      <trkpt lat="40.464720" lon="-4.369650">
        <ele>662.615</ele>
        <time>2022-02-25T15:32:10Z</time>
      </trkpt>
      <trkpt lat="40.464860" lon="-4.369640">
        <ele>662.449</ele>
        <time>2022-02-25T15:32:50Z</time>
      </trkpt>
      <trkpt lat="40.464900" lon="-4.369650">
        <ele>662.118</ele>
        <time>2022-02-25T15:33:30Z</time>
      </trkpt>
      <trkpt lat="40.465010" lon="-4.369660">
        <ele>661.688</ele>
        <time>2022-02-25T15:34:10Z</time>
      </trkpt>
      <trkpt lat="40.465080" lon="-4.369680">
        <ele>661.161</ele>
        <time>2022-02-25T15:34:50Z</time>
      </trkpt>
      <trkpt lat="40.465110" lon="-4.369690">
        <ele>660.896</ele>
        <time>2022-02-25T15:35:30Z</time>
      </trkpt>
      <trkpt lat="40.465160" lon="-4.369710">
        <ele>660.364</ele>
        <time>2022-02-25T15:36:10Z</time>
      </trkpt>
      <trkpt lat="40.465200" lon="-4.369730">
        <ele>660.023</ele>
        <time>2022-02-25T15:36:50Z</time>
      </trkpt>
      <trkpt lat="40.465240" lon="-4.369780">
        <ele>660.083</ele>
        <time>2022-02-25T15:37:30Z</time>
      </trkpt>
      <trkpt lat="40.465260" lon="-4.369790">
        <ele>660.011</ele>
        <time>2022-02-25T15:38:10Z</time>
      </trkpt>
      <trkpt lat="40.465310" lon="-4.369880">
        <ele>660.008</ele>
        <time>2022-02-25T15:38:50Z</time>
      </trkpt>
      <trkpt lat="40.465330" lon="-4.369970">
        <ele>660.051</ele>
        <time>2022-02-25T15:39:30Z</time>
      </trkpt>
      <trkpt lat="40.465340" lon="-4.370000">
        <ele>660.068</ele>
        <time>2022-02-25T15:40:10Z</time>
      </trkpt>
      <trkpt lat="40.465350" lon="-4.370150">
        <ele>662.432</ele>
        <time>2022-02-25T15:40:50Z</time>
      </trkpt>
      <trkpt lat="40.465350" lon="-4.370200">
        <ele>663.311</ele>
        <time>2022-02-25T15:41:30Z</time>
      </trkpt>
      <trkpt lat="40.465340" lon="-4.370250">
        <ele>664.021</ele>
        <time>2022-02-25T15:42:10Z</time>
      </trkpt>
      <trkpt lat="40.465320" lon="-4.370310">
        <ele>665.274</ele>
        <time>2022-02-25T15:42:50Z</time>
      </trkpt>
      <trkpt lat="40.465290" lon="-4.370400">
        <ele>667.699</ele>
        <time>2022-02-25T15:43:30Z</time>
      </trkpt>
      <trkpt lat="40.465210" lon="-4.370480">
        <ele>668.357</ele>
        <time>2022-02-25T15:44:10Z</time>
      </trkpt>
      <trkpt lat="40.465100" lon="-4.370540">
        <ele>667.215</ele>
        <time>2022-02-25T15:44:50Z</time>
      </trkpt>
      <trkpt lat="40.464770" lon="-4.370630">
        <ele>666.065</ele>
        <time>2022-02-25T15:45:30Z</time>
      </trkpt>
      <trkpt lat="40.464530" lon="-4.370700">
        <ele>666.311</ele>
        <time>2022-02-25T15:46:10Z</time>
      </trkpt>
      <trkpt lat="40.464420" lon="-4.370730">
        <ele>666.308</ele>
        <time>2022-02-25T15:46:50Z</time>
      </trkpt>
      <trkpt lat="40.464340" lon="-4.370750">
        <ele>666.560</ele>
        <time>2022-02-25T15:47:30Z</time>
      </trkpt>
      <trkpt lat="40.464240" lon="-4.370770">
        <ele>666.757</ele>
        <time>2022-02-25T15:48:10Z</time>
      </trkpt>
      <trkpt lat="40.464060" lon="-4.370810">
        <ele>667.091</ele>
        <time>2022-02-25T15:48:50Z</time>
      </trkpt>
      <trkpt lat="40.463710" lon="-4.370890">
        <ele>669.750</ele>
        <time>2022-02-25T15:49:30Z</time>
      </trkpt>
      <trkpt lat="40.463640" lon="-4.370900">
        <ele>670.130</ele>
        <time>2022-02-25T15:50:10Z</time>
      </trkpt>
      <trkpt lat="40.463530" lon="-4.370950">
        <ele>671.143</ele>
        <time>2022-02-25T15:50:50Z</time>
      </trkpt>
      <trkpt lat="40.463430" lon="-4.370990">
        <ele>670.858</ele>
        <time>2022-02-25T15:51:30Z</time>
      </trkpt>
      <trkpt lat="40.463370" lon="-4.371030">
        <ele>670.876</ele>
        <time>2022-02-25T15:52:10Z</time>
      </trkpt>
      <trkpt lat="40.463320" lon="-4.371060">
        <ele>670.428</ele>
        <time>2022-02-25T15:52:50Z</time>
      </trkpt>
      <trkpt lat="40.463230" lon="-4.371150">
        <ele>670.889</ele>
        <time>2022-02-25T15:53:30Z</time>
      </trkpt>
      <trkpt lat="40.463120" lon="-4.371360">
        <ele>673.217</ele>
        <time>2022-02-25T15:54:10Z</time>
      </trkpt>
      <trkpt lat="40.463120" lon="-4.371370">
        <ele>673.408</ele>
        <time>2022-02-25T15:54:50Z</time>
      </trkpt>
      <trkpt lat="40.462950" lon="-4.371730">
        <ele>676.551</ele>
        <time>2022-02-25T15:55:30Z</time>
      </trkpt>
      <trkpt lat="40.462930" lon="-4.371760">
        <ele>676.598</ele>
        <time>2022-02-25T15:56:10Z</time>
      </trkpt>
      <trkpt lat="40.462890" lon="-4.371840">
        <ele>676.972</ele>
        <time>2022-02-25T15:56:50Z</time>
      </trkpt>
      <trkpt lat="40.462810" lon="-4.371930">
        <ele>676.641</ele>
        <time>2022-02-25T15:57:30Z</time>
      </trkpt>
      <trkpt lat="40.462720" lon="-4.371980">
        <ele>677.021</ele>
        <time>2022-02-25T15:58:10Z</time>
      </trkpt>
      <trkpt lat="40.462540" lon="-4.371990">
        <ele>678.154</ele>
        <time>2022-02-25T15:58:50Z</time>
      </trkpt>
      <trkpt lat="40.462460" lon="-4.371980">
        <ele>678.849</ele>
        <time>2022-02-25T15:59:30Z</time>
      </trkpt>
      <trkpt lat="40.462390" lon="-4.371960">
        <ele>679.597</ele>
        <time>2022-02-25T16:00:10Z</time>
      </trkpt>
      <trkpt lat="40.462290" lon="-4.371910">
        <ele>679.766</ele>
        <time>2022-02-25T16:00:50Z</time>
      </trkpt>
      <trkpt lat="40.462240" lon="-4.371880">
        <ele>679.629</ele>
        <time>2022-02-25T16:01:30Z</time>
      </trkpt>
      <trkpt lat="40.462080" lon="-4.371820">
        <ele>679.321</ele>
        <time>2022-02-25T16:02:10Z</time>
      </trkpt>
      <trkpt lat="40.461980" lon="-4.371810">
        <ele>679.808</ele>
        <time>2022-02-25T16:02:50Z</time>
      </trkpt>
      <trkpt lat="40.461940" lon="-4.371810">
        <ele>680.145</ele>
        <time>2022-02-25T16:03:30Z</time>
      </trkpt>
      <trkpt lat="40.461900" lon="-4.371800">
        <ele>679.682</ele>
        <time>2022-02-25T16:04:10Z</time>
      </trkpt>
      <trkpt lat="40.461760" lon="-4.371840">
        <ele>680.656</ele>
        <time>2022-02-25T16:04:50Z</time>
      </trkpt>
      <trkpt lat="40.461660" lon="-4.371860">
        <ele>680.975</ele>
        <time>2022-02-25T16:05:30Z</time>
      </trkpt>
      <trkpt lat="40.461490" lon="-4.371930">
        <ele>680.495</ele>
        <time>2022-02-25T16:06:10Z</time>
      </trkpt>
      <trkpt lat="40.461420" lon="-4.371970">
        <ele>680.598</ele>
        <time>2022-02-25T16:06:50Z</time>
      </trkpt>
      <trkpt lat="40.461280" lon="-4.372070">
        <ele>681.733</ele>
        <time>2022-02-25T16:07:30Z</time>
      </trkpt>
      <trkpt lat="40.461260" lon="-4.372090">
        <ele>681.941</ele>
        <time>2022-02-25T16:08:10Z</time>
      </trkpt>
      <trkpt lat="40.461190" lon="-4.372170">
        <ele>682.345</ele>
        <time>2022-02-25T16:08:50Z</time>
      </trkpt>
      <trkpt lat="40.461110" lon="-4.372330">
        <ele>683.347</ele>
        <time>2022-02-25T16:09:30Z</time>
      </trkpt>
      <trkpt lat="40.461080" lon="-4.372480">
        <ele>685.711</ele>
        <time>2022-02-25T16:10:10Z</time>
      </trkpt>
      <trkpt lat="40.461070" lon="-4.372490">
        <ele>685.608</ele>
        <time>2022-02-25T16:10:50Z</time>
      </trkpt>
      <trkpt lat="40.461040" lon="-4.372680">
        <ele>686.183</ele>
        <time>2022-02-25T16:11:30Z</time>
      </trkpt>
      <trkpt lat="40.461030" lon="-4.372710">
        <ele>686.030</ele>
        <time>2022-02-25T16:12:10Z</time>
      </trkpt>
      <trkpt lat="40.460960" lon="-4.373270">
        <ele>684.794</ele>
        <time>2022-02-25T16:12:50Z</time>
      </trkpt>
      <trkpt lat="40.460950" lon="-4.373470">
        <ele>684.953</ele>
        <time>2022-02-25T16:13:30Z</time>
      </trkpt>
      <trkpt lat="40.460870" lon="-4.374070">
        <ele>686.643</ele>
        <time>2022-02-25T16:14:10Z</time>
      </trkpt>
      <trkpt lat="40.460830" lon="-4.374320">
        <ele>688.136</ele>
        <time>2022-02-25T16:14:50Z</time>
      </trkpt>
      <trkpt lat="40.460740" lon="-4.374560">
        <ele>688.261</ele>
        <time>2022-02-25T16:15:30Z</time>
      </trkpt>
      <trkpt lat="40.460620" lon="-4.374790">
        <ele>688.119</ele>
        <time>2022-02-25T16:16:10Z</time>
      </trkpt>
      <trkpt lat="40.460410" lon="-4.375110">
        <ele>688.028</ele>
        <time>2022-02-25T16:16:50Z</time>
      </trkpt>
      <trkpt lat="40.460290" lon="-4.375280">
        <ele>688.189</ele>
        <time>2022-02-25T16:17:30Z</time>
      </trkpt>
      <trkpt lat="40.459940" lon="-4.375820">
        <ele>685.117</ele>
        <time>2022-02-25T16:18:10Z</time>
      </trkpt>
      <trkpt lat="40.459700" lon="-4.376170">
        <ele>684.208</ele>
        <time>2022-02-25T16:18:50Z</time>
      </trkpt>
      <trkpt lat="40.459580" lon="-4.376350">
        <ele>684.241</ele>
        <time>2022-02-25T16:19:30Z</time>
      </trkpt>
      <trkpt lat="40.459260" lon="-4.376820">
        <ele>687.478</ele>
        <time>2022-02-25T16:20:10Z</time>
      </trkpt>
      <trkpt lat="40.459220" lon="-4.376880">
        <ele>688.132</ele>
        <time>2022-02-25T16:20:50Z</time>
      </trkpt>
      <trkpt lat="40.458900" lon="-4.377480">
        <ele>689.071</ele>
        <time>2022-02-25T16:21:30Z</time>
      </trkpt>
      <trkpt lat="40.458860" lon="-4.377550">
        <ele>688.991</ele>
        <time>2022-02-25T16:22:10Z</time>
      </trkpt>
      <trkpt lat="40.458670" lon="-4.377940">
        <ele>690.234</ele>
        <time>2022-02-25T16:22:50Z</time>
      </trkpt>
      <trkpt lat="40.458580" lon="-4.378210">
        <ele>690.579</ele>
        <time>2022-02-25T16:23:30Z</time>
      </trkpt>
      <trkpt lat="40.458520" lon="-4.378380">
        <ele>690.627</ele>
        <time>2022-02-25T16:24:10Z</time>
      </trkpt>
      <trkpt lat="40.458510" lon="-4.378430">
        <ele>690.564</ele>
        <time>2022-02-25T16:24:50Z</time>
      </trkpt>
      <trkpt lat="40.458500" lon="-4.378500">
        <ele>690.406</ele>
        <time>2022-02-25T16:25:30Z</time>
      </trkpt>
      <trkpt lat="40.458490" lon="-4.378590">
        <ele>690.216</ele>
        <time>2022-02-25T16:26:10Z</time>
      </trkpt>
      <trkpt lat="40.458470" lon="-4.378740">
        <ele>689.108</ele>
        <time>2022-02-25T16:26:50Z</time>
      </trkpt>
      <trkpt lat="40.458470" lon="-4.378770">
        <ele>688.825</ele>
        <time>2022-02-25T16:27:30Z</time>
      </trkpt>
      <trkpt lat="40.458470" lon="-4.378840">
        <ele>688.352</ele>
        <time>2022-02-25T16:28:10Z</time>
      </trkpt>
      <trkpt lat="40.458470" lon="-4.378920">
        <ele>687.816</ele>
        <time>2022-02-25T16:28:50Z</time>
      </trkpt>
      <trkpt lat="40.458480" lon="-4.378970">
        <ele>687.655</ele>
        <time>2022-02-25T16:29:30Z</time>
      </trkpt>
      <trkpt lat="40.458490" lon="-4.379130">
        <ele>686.825</ele>
        <time>2022-02-25T16:30:10Z</time>
      </trkpt>
      <trkpt lat="40.458510" lon="-4.379200">
        <ele>686.438</ele>
        <time>2022-02-25T16:30:50Z</time>
      </trkpt>
      <trkpt lat="40.458590" lon="-4.379660">
        <ele>684.293</ele>
        <time>2022-02-25T16:31:30Z</time>
      </trkpt>
      <trkpt lat="40.458610" lon="-4.379760">
        <ele>683.711</ele>
        <time>2022-02-25T16:32:10Z</time>
      </trkpt>
      <trkpt lat="40.458660" lon="-4.379980">
        <ele>682.873</ele>
        <time>2022-02-25T16:32:50Z</time>
      </trkpt>
      <trkpt lat="40.458670" lon="-4.379990">
        <ele>682.985</ele>
        <time>2022-02-25T16:33:30Z</time>
      </trkpt>
      <trkpt lat="40.458700" lon="-4.380110">
        <ele>682.813</ele>
        <time>2022-02-25T16:34:10Z</time>
      </trkpt>
      <trkpt lat="40.458760" lon="-4.380340">
        <ele>682.108</ele>
        <time>2022-02-25T16:34:50Z</time>
      </trkpt>
      <trkpt lat="40.458770" lon="-4.380410">
        <ele>681.686</ele>
        <time>2022-02-25T16:35:30Z</time>
      </trkpt>
      <trkpt lat="40.458830" lon="-4.380560">
        <ele>681.193</ele>
        <time>2022-02-25T16:36:10Z</time>
      </trkpt>
      <trkpt lat="40.458860" lon="-4.380650">
        <ele>680.877</ele>
        <time>2022-02-25T16:36:50Z</time>
      </trkpt>
      <trkpt lat="40.458870" lon="-4.380680">
        <ele>680.896</ele>
        <time>2022-02-25T16:37:30Z</time>
      </trkpt>
      <trkpt lat="40.458900" lon="-4.380770">
        <ele>680.646</ele>
        <time>2022-02-25T16:38:10Z</time>
      </trkpt>
      <trkpt lat="40.458940" lon="-4.380860">
        <ele>680.179</ele>
        <time>2022-02-25T16:38:50Z</time>
      </trkpt>
      <trkpt lat="40.458950" lon="-4.380870">
        <ele>680.034</ele>
        <time>2022-02-25T16:39:30Z</time>
      </trkpt>
      <trkpt lat="40.459000" lon="-4.380970">
        <ele>679.372</ele>
        <time>2022-02-25T16:40:10Z</time>
      </trkpt>
      <trkpt lat="40.459020" lon="-4.381000">
        <ele>679.121</ele>
        <time>2022-02-25T16:40:50Z</time>
      </trkpt>
      <trkpt lat="40.459050" lon="-4.381050">
        <ele>678.841</ele>
        <time>2022-02-25T16:41:30Z</time>
      </trkpt>
      <trkpt lat="40.459120" lon="-4.381140">
        <ele>678.305</ele>
        <time>2022-02-25T16:42:10Z</time>
      </trkpt>
      <trkpt lat="40.459210" lon="-4.381250">
        <ele>677.908</ele>
        <time>2022-02-25T16:42:50Z</time>
      </trkpt>
      <trkpt lat="40.459250" lon="-4.381310">
        <ele>677.861</ele>
        <time>2022-02-25T16:43:30Z</time>
      </trkpt>
      <trkpt lat="40.459300" lon="-4.381390">
        <ele>677.918</ele>
        <time>2022-02-25T16:44:10Z</time>
      </trkpt>
      <trkpt lat="40.459340" lon="-4.381490">
        <ele>677.932</ele>
        <time>2022-02-25T16:44:50Z</time>
      </trkpt>
      <trkpt lat="40.459370" lon="-4.381670">
        <ele>677.431</ele>
        <time>2022-02-25T16:45:30Z</time>
      </trkpt>
      <trkpt lat="40.459390" lon="-4.381840">
        <ele>676.791</ele>
        <time>2022-02-25T16:46:10Z</time>
      </trkpt>
      <trkpt lat="40.459410" lon="-4.382150">
        <ele>675.094</ele>
        <time>2022-02-25T16:46:50Z</time>
      </trkpt>
      <trkpt lat="40.459420" lon="-4.382210">
        <ele>674.769</ele>
        <time>2022-02-25T16:47:30Z</time>
      </trkpt>
      <trkpt lat="40.459460" lon="-4.382440">
        <ele>674.757</ele>
        <time>2022-02-25T16:48:10Z</time>
      </trkpt>
      <trkpt lat="40.459460" lon="-4.382460">
        <ele>674.698</ele>
        <time>2022-02-25T16:48:50Z</time>
      </trkpt>
      <trkpt lat="40.459510" lon="-4.382670">
        <ele>674.515</ele>
        <time>2022-02-25T16:49:30Z</time>
      </trkpt>
      <trkpt lat="40.459520" lon="-4.382750">
        <ele>674.126</ele>
        <time>2022-02-25T16:50:10Z</time>
      </trkpt>
      <trkpt lat="40.459550" lon="-4.383000">
        <ele>673.708</ele>
        <time>2022-02-25T16:50:50Z</time>
      </trkpt>
      <trkpt lat="40.459560" lon="-4.383130">
        <ele>673.798</ele>
        <time>2022-02-25T16:51:30Z</time>
      </trkpt>
      <trkpt lat="40.459560" lon="-4.383180">
        <ele>673.755</ele>
        <time>2022-02-25T16:52:10Z</time>
      </trkpt>
      <trkpt lat="40.459570" lon="-4.383240">
        <ele>674.149</ele>
        <time>2022-02-25T16:52:50Z</time>
      </trkpt>
      <trkpt lat="40.459570" lon="-4.383470">
        <ele>674.198</ele>
        <time>2022-02-25T16:53:30Z</time>
      </trkpt>
      <trkpt lat="40.459590" lon="-4.384350">
        <ele>674.118</ele>
        <time>2022-02-25T16:54:10Z</time>
      </trkpt>
      <trkpt lat="40.459590" lon="-4.384620">
        <ele>673.161</ele>
        <time>2022-02-25T16:54:50Z</time>
      </trkpt>
      <trkpt lat="40.459600" lon="-4.384880">
        <ele>672.686</ele>
        <time>2022-02-25T16:55:30Z</time>
      </trkpt>
      <trkpt lat="40.459610" lon="-4.385110">
        <ele>671.794</ele>
        <time>2022-02-25T16:56:10Z</time>
      </trkpt>
      <trkpt lat="40.459620" lon="-4.385150">
        <ele>671.726</ele>
        <time>2022-02-25T16:56:50Z</time>
      </trkpt>
      <trkpt lat="40.459640" lon="-4.385350">
        <ele>670.947</ele>
        <time>2022-02-25T16:57:30Z</time>
      </trkpt>
      <trkpt lat="40.459640" lon="-4.385380">
        <ele>670.711</ele>
        <time>2022-02-25T16:58:10Z</time>
      </trkpt>
      <trkpt lat="40.459680" lon="-4.385580">
        <ele>670.508</ele>
        <time>2022-02-25T16:58:50Z</time>
      </trkpt>
      <trkpt lat="40.459720" lon="-4.385810">
        <ele>669.291</ele>
        <time>2022-02-25T16:59:30Z</time>
      </trkpt>
      <trkpt lat="40.459770" lon="-4.386030">
        <ele>668.778</ele>
        <time>2022-02-25T17:00:10Z</time>
      </trkpt>
      <trkpt lat="40.459820" lon="-4.386320">
        <ele>667.392</ele>
        <time>2022-02-25T17:00:50Z</time>
      </trkpt>
      <trkpt lat="40.459840" lon="-4.386390">
        <ele>667.121</ele>
        <time>2022-02-25T17:01:30Z</time>
      </trkpt>
      <trkpt lat="40.459850" lon="-4.386420">
        <ele>667.061</ele>
        <time>2022-02-25T17:02:10Z</time>
      </trkpt>
      <trkpt lat="40.459880" lon="-4.386660">
        <ele>664.884</ele>
        <time>2022-02-25T17:02:50Z</time>
      </trkpt>
      <trkpt lat="40.459910" lon="-4.386900">
        <ele>665.969</ele>
        <time>2022-02-25T17:03:30Z</time>
      </trkpt>
      <trkpt lat="40.459913" lon="-4.386896">
        <ele>665.917</ele>
        <time>2022-02-25T17:04:10Z</time>
      </trkpt>
      <trkpt lat="40.459980" lon="-4.386910">
        <ele>666.729</ele>
        <time>2022-02-25T17:04:50Z</time>
      </trkpt>
      <trkpt lat="40.460000" lon="-4.386930">
        <ele>666.900</ele>
        <time>2022-02-25T17:05:30Z</time>
      </trkpt>
      <trkpt lat="40.460030" lon="-4.386980">
        <ele>667.520</ele>
        <time>2022-02-25T17:06:10Z</time>
      </trkpt>
      <trkpt lat="40.460050" lon="-4.387020">
        <ele>667.908</ele>
        <time>2022-02-25T17:06:50Z</time>
      </trkpt>
      <trkpt lat="40.460050" lon="-4.387030">
        <ele>667.991</ele>
        <time>2022-02-25T17:07:30Z</time>
      </trkpt>
      <trkpt lat="40.460070" lon="-4.387080">
        <ele>668.438</ele>
        <time>2022-02-25T17:08:10Z</time>
      </trkpt>
      <trkpt lat="40.460100" lon="-4.387160">
        <ele>669.072</ele>
        <time>2022-02-25T17:08:50Z</time>
      </trkpt>
      <trkpt lat="40.460160" lon="-4.387380">
        <ele>670.581</ele>
        <time>2022-02-25T17:09:30Z</time>
      </trkpt>
      <trkpt lat="40.460160" lon="-4.387390">
        <ele>670.561</ele>
        <time>2022-02-25T17:10:10Z</time>
      </trkpt>
      <trkpt lat="40.460180" lon="-4.387460">
        <ele>671.114</ele>
        <time>2022-02-25T17:10:50Z</time>
      </trkpt>
      <trkpt lat="40.460230" lon="-4.387600">
        <ele>672.079</ele>
        <time>2022-02-25T17:11:30Z</time>
      </trkpt>
      <trkpt lat="40.460230" lon="-4.387610">
        <ele>672.077</ele>
        <time>2022-02-25T17:12:10Z</time>
      </trkpt>
      <trkpt lat="40.460260" lon="-4.387670">
        <ele>672.489</ele>
        <time>2022-02-25T17:12:50Z</time>
      </trkpt>
      <trkpt lat="40.460300" lon="-4.387760">
        <ele>673.106</ele>
        <time>2022-02-25T17:13:30Z</time>
      </trkpt>
      <trkpt lat="40.460330" lon="-4.387810">
        <ele>673.726</ele>
        <time>2022-02-25T17:14:10Z</time>
      </trkpt>
      <trkpt lat="40.460380" lon="-4.387900">
        <ele>675.108</ele>
        <time>2022-02-25T17:14:50Z</time>
      </trkpt>
      <trkpt lat="40.460450" lon="-4.387980">
        <ele>677.077</ele>
        <time>2022-02-25T17:15:30Z</time>
      </trkpt>
      <trkpt lat="40.460490" lon="-4.388040">
        <ele>678.694</ele>
        <time>2022-02-25T17:16:10Z</time>
      </trkpt>
      <trkpt lat="40.460580" lon="-4.388150">
        <ele>680.198</ele>
        <time>2022-02-25T17:16:50Z</time>
      </trkpt>
      <trkpt lat="40.460610" lon="-4.388200">
        <ele>680.217</ele>
        <time>2022-02-25T17:17:30Z</time>
      </trkpt>
      <trkpt lat="40.460700" lon="-4.388320">
        <ele>681.087</ele>
        <time>2022-02-25T17:18:10Z</time>
      </trkpt>
      <trkpt lat="40.460730" lon="-4.388350">
        <ele>681.390</ele>
        <time>2022-02-25T17:18:50Z</time>
      </trkpt>
      <trkpt lat="40.460840" lon="-4.388470">
        <ele>682.655</ele>
        <time>2022-02-25T17:19:30Z</time>
      </trkpt>
      <trkpt lat="40.460970" lon="-4.388610">
        <ele>685.593</ele>
        <time>2022-02-25T17:20:10Z</time>
      </trkpt>
      <trkpt lat="40.460980" lon="-4.388620">
        <ele>685.752</ele>
        <time>2022-02-25T17:20:50Z</time>
      </trkpt>
      <trkpt lat="40.461030" lon="-4.388670">
        <ele>687.053</ele>
        <time>2022-02-25T17:21:30Z</time>
      </trkpt>
      <trkpt lat="40.461130" lon="-4.388760">
        <ele>689.208</ele>
        <time>2022-02-25T17:22:10Z</time>
      </trkpt>
      <trkpt lat="40.461150" lon="-4.388790">
        <ele>689.508</ele>
        <time>2022-02-25T17:22:50Z</time>
      </trkpt>
      <trkpt lat="40.461240" lon="-4.388860">
        <ele>690.324</ele>
        <time>2022-02-25T17:23:30Z</time>
      </trkpt>
      <trkpt lat="40.461280" lon="-4.388880">
        <ele>690.631</ele>
        <time>2022-02-25T17:24:10Z</time>
      </trkpt>
      <trkpt lat="40.461420" lon="-4.388950">
        <ele>691.055</ele>
        <time>2022-02-25T17:24:50Z</time>
      </trkpt>
      <trkpt lat="40.461450" lon="-4.388960">
        <ele>691.284</ele>
        <time>2022-02-25T17:25:30Z</time>
      </trkpt>
      <trkpt lat="40.461500" lon="-4.388980">
        <ele>691.684</ele>
        <time>2022-02-25T17:26:10Z</time>
      </trkpt>
      <trkpt lat="40.461610" lon="-4.389020">
        <ele>692.517</ele>
        <time>2022-02-25T17:26:50Z</time>
      </trkpt>
      <trkpt lat="40.461630" lon="-4.389020">
        <ele>692.712</ele>
        <time>2022-02-25T17:27:30Z</time>
      </trkpt>
      <trkpt lat="40.461680" lon="-4.389040">
        <ele>693.250</ele>
        <time>2022-02-25T17:28:10Z</time>
      </trkpt>
      <trkpt lat="40.461780" lon="-4.389090">
        <ele>694.766</ele>
        <time>2022-02-25T17:28:50Z</time>
      </trkpt>
      <trkpt lat="40.461800" lon="-4.389100">
        <ele>695.029</ele>
        <time>2022-02-25T17:29:30Z</time>
      </trkpt>
      <trkpt lat="40.461850" lon="-4.389130">
        <ele>695.721</ele>
        <time>2022-02-25T17:30:10Z</time>
      </trkpt>
      <trkpt lat="40.461890" lon="-4.389150">
        <ele>696.308</ele>
        <time>2022-02-25T17:30:50Z</time>
      </trkpt>
      <trkpt lat="40.461970" lon="-4.389190">
        <ele>697.525</ele>
        <time>2022-02-25T17:31:30Z</time>
      </trkpt>
      <trkpt lat="40.462030" lon="-4.389210">
        <ele>698.592</ele>
        <time>2022-02-25T17:32:10Z</time>
      </trkpt>
      <trkpt lat="40.462140" lon="-4.389230">
        <ele>700.316</ele>
        <time>2022-02-25T17:32:50Z</time>
      </trkpt>
      <trkpt lat="40.462150" lon="-4.389230">
        <ele>700.415</ele>
        <time>2022-02-25T17:33:30Z</time>
      </trkpt>
      <trkpt lat="40.462320" lon="-4.389220">
        <ele>702.735</ele>
        <time>2022-02-25T17:34:10Z</time>
      </trkpt>
      <trkpt lat="40.462400" lon="-4.389220">
        <ele>703.828</ele>
        <time>2022-02-25T17:34:50Z</time>
      </trkpt>
      <trkpt lat="40.462500" lon="-4.389220">
        <ele>705.223</ele>
        <time>2022-02-25T17:35:30Z</time>
      </trkpt>
      <trkpt lat="40.462550" lon="-4.389210">
        <ele>705.961</ele>
        <time>2022-02-25T17:36:10Z</time>
      </trkpt>
      <trkpt lat="40.462700" lon="-4.389210">
        <ele>708.051</ele>
        <time>2022-02-25T17:36:50Z</time>
      </trkpt>
      <trkpt lat="40.462860" lon="-4.389230">
        <ele>709.501</ele>
        <time>2022-02-25T17:37:30Z</time>
      </trkpt>
      <trkpt lat="40.462910" lon="-4.389230">
        <ele>709.611</ele>
        <time>2022-02-25T17:38:10Z</time>
      </trkpt>
      <trkpt lat="40.463040" lon="-4.389250">
        <ele>710.008</ele>
        <time>2022-02-25T17:38:50Z</time>
      </trkpt>
      <trkpt lat="40.463080" lon="-4.389250">
        <ele>710.114</ele>
        <time>2022-02-25T17:39:30Z</time>
      </trkpt>
      <trkpt lat="40.463090" lon="-4.389260">
        <ele>710.151</ele>
        <time>2022-02-25T17:40:10Z</time>
      </trkpt>
      <trkpt lat="40.463220" lon="-4.389290">
        <ele>710.655</ele>
        <time>2022-02-25T17:40:50Z</time>
      </trkpt>
      <trkpt lat="40.463340" lon="-4.389320">
        <ele>711.034</ele>
        <time>2022-02-25T17:41:30Z</time>
      </trkpt>
      <trkpt lat="40.463440" lon="-4.389370">
        <ele>711.774</ele>
        <time>2022-02-25T17:42:10Z</time>
      </trkpt>
      <trkpt lat="40.463530" lon="-4.389410">
        <ele>712.357</ele>
        <time>2022-02-25T17:42:50Z</time>
      </trkpt>
      <trkpt lat="40.463720" lon="-4.389540">
        <ele>713.512</ele>
        <time>2022-02-25T17:43:30Z</time>
      </trkpt>
      <trkpt lat="40.463880" lon="-4.389660">
        <ele>714.730</ele>
        <time>2022-02-25T17:44:10Z</time>
      </trkpt>
      <trkpt lat="40.463920" lon="-4.389700">
        <ele>715.024</ele>
        <time>2022-02-25T17:44:50Z</time>
      </trkpt>
      <trkpt lat="40.464030" lon="-4.389800">
        <ele>715.904</ele>
        <time>2022-02-25T17:45:30Z</time>
      </trkpt>
      <trkpt lat="40.464110" lon="-4.389910">
        <ele>717.014</ele>
        <time>2022-02-25T17:46:10Z</time>
      </trkpt>
      <trkpt lat="40.464240" lon="-4.390080">
        <ele>718.808</ele>
        <time>2022-02-25T17:46:50Z</time>
      </trkpt>
      <trkpt lat="40.464410" lon="-4.390240">
        <ele>720.661</ele>
        <time>2022-02-25T17:47:30Z</time>
      </trkpt>
      <trkpt lat="40.464440" lon="-4.390260">
        <ele>720.998</ele>
        <time>2022-02-25T17:48:10Z</time>
      </trkpt>
      <trkpt lat="40.464590" lon="-4.390390">
        <ele>723.262</ele>
        <time>2022-02-25T17:48:50Z</time>
      </trkpt>
      <trkpt lat="40.464620" lon="-4.390410">
        <ele>723.571</ele>
        <time>2022-02-25T17:49:30Z</time>
      </trkpt>
      <trkpt lat="40.464650" lon="-4.390430">
        <ele>723.981</ele>
        <time>2022-02-25T17:50:10Z</time>
      </trkpt>
      <trkpt lat="40.464940" lon="-4.390670">
        <ele>725.824</ele>
        <time>2022-02-25T17:50:50Z</time>
      </trkpt>
      <trkpt lat="40.465180" lon="-4.390930">
        <ele>727.699</ele>
        <time>2022-02-25T17:51:30Z</time>
      </trkpt>
      <trkpt lat="40.465210" lon="-4.390960">
        <ele>728.067</ele>
        <time>2022-02-25T17:52:10Z</time>
      </trkpt>
      <trkpt lat="40.465220" lon="-4.390970">
        <ele>728.159</ele>
        <time>2022-02-25T17:52:50Z</time>
      </trkpt>
      <trkpt lat="40.465320" lon="-4.391110">
        <ele>729.103</ele>
        <time>2022-02-25T17:53:30Z</time>
      </trkpt>
      <trkpt lat="40.465380" lon="-4.391240">
        <ele>729.123</ele>
        <time>2022-02-25T17:54:10Z</time>
      </trkpt>
      <trkpt lat="40.465400" lon="-4.391310">
        <ele>729.008</ele>
        <time>2022-02-25T17:54:50Z</time>
      </trkpt>
      <trkpt lat="40.465410" lon="-4.391350">
        <ele>729.024</ele>
        <time>2022-02-25T17:55:30Z</time>
      </trkpt>
      <trkpt lat="40.465430" lon="-4.391420">
        <ele>729.091</ele>
        <time>2022-02-25T17:56:10Z</time>
      </trkpt>
      <trkpt lat="40.465470" lon="-4.391520">
        <ele>728.915</ele>
        <time>2022-02-25T17:56:50Z</time>
      </trkpt>
      <trkpt lat="40.465490" lon="-4.391550">
        <ele>728.914</ele>
        <time>2022-02-25T17:57:30Z</time>
      </trkpt>
      <trkpt lat="40.465600" lon="-4.391670">
        <ele>729.164</ele>
        <time>2022-02-25T17:58:10Z</time>
      </trkpt>
      <trkpt lat="40.465610" lon="-4.391670">
        <ele>729.297</ele>
        <time>2022-02-25T17:58:50Z</time>
      </trkpt>
      <trkpt lat="40.465640" lon="-4.391690">
        <ele>729.222</ele>
        <time>2022-02-25T17:59:30Z</time>
      </trkpt>
      <trkpt lat="40.465700" lon="-4.391740">
        <ele>729.160</ele>
        <time>2022-02-25T18:00:10Z</time>
      </trkpt>
      <trkpt lat="40.465760" lon="-4.391800">
        <ele>728.912</ele>
        <time>2022-02-25T18:00:50Z</time>
      </trkpt>
      <trkpt lat="40.465790" lon="-4.391830">
        <ele>728.832</ele>
        <time>2022-02-25T18:01:30Z</time>
      </trkpt>
      <trkpt lat="40.465840" lon="-4.391880">
        <ele>728.505</ele>
        <time>2022-02-25T18:02:10Z</time>
      </trkpt>
      <trkpt lat="40.466060" lon="-4.392060">
        <ele>728.408</ele>
        <time>2022-02-25T18:02:50Z</time>
      </trkpt>
      <trkpt lat="40.466090" lon="-4.392080">
        <ele>728.410</ele>
        <time>2022-02-25T18:03:30Z</time>
      </trkpt>
      <trkpt lat="40.466230" lon="-4.392190">
        <ele>728.127</ele>
        <time>2022-02-25T18:04:10Z</time>
      </trkpt>
      <trkpt lat="40.466340" lon="-4.392270">
        <ele>727.741</ele>
        <time>2022-02-25T18:04:50Z</time>
      </trkpt>
      <trkpt lat="40.466380" lon="-4.392290">
        <ele>727.530</ele>
        <time>2022-02-25T18:05:30Z</time>
      </trkpt>
      <trkpt lat="40.466410" lon="-4.392300">
        <ele>727.490</ele>
        <time>2022-02-25T18:06:10Z</time>
      </trkpt>
      <trkpt lat="40.466460" lon="-4.392330">
        <ele>727.213</ele>
        <time>2022-02-25T18:06:50Z</time>
      </trkpt>
      <trkpt lat="40.466550" lon="-4.392330">
        <ele>727.238</ele>
        <time>2022-02-25T18:07:30Z</time>
      </trkpt>
      <trkpt lat="40.466580" lon="-4.392340">
        <ele>727.226</ele>
        <time>2022-02-25T18:08:10Z</time>
      </trkpt>
      <trkpt lat="40.466760" lon="-4.392340">
        <ele>728.279</ele>
        <time>2022-02-25T18:08:50Z</time>
      </trkpt>
      <trkpt lat="40.466920" lon="-4.392360">
        <ele>729.705</ele>
        <time>2022-02-25T18:09:30Z</time>
      </trkpt>
      <trkpt lat="40.466940" lon="-4.392360">
        <ele>730.025</ele>
        <time>2022-02-25T18:10:10Z</time>
      </trkpt>
      <trkpt lat="40.467000" lon="-4.392370">
        <ele>730.208</ele>
        <time>2022-02-25T18:10:50Z</time>
      </trkpt>
      <trkpt lat="40.467190" lon="-4.392410">
        <ele>730.816</ele>
        <time>2022-02-25T18:11:30Z</time>
      </trkpt>
      <trkpt lat="40.467270" lon="-4.392430">
        <ele>731.013</ele>
        <time>2022-02-25T18:12:10Z</time>
      </trkpt>
      <trkpt lat="40.467290" lon="-4.392440">
        <ele>731.097</ele>
        <time>2022-02-25T18:12:50Z</time>
      </trkpt>
      <trkpt lat="40.467360" lon="-4.392460">
        <ele>731.166</ele>
        <time>2022-02-25T18:13:30Z</time>
      </trkpt>
      <trkpt lat="40.467450" lon="-4.392490">
        <ele>731.016</ele>
        <time>2022-02-25T18:14:10Z</time>
      </trkpt>
      <trkpt lat="40.467540" lon="-4.392520">
        <ele>731.269</ele>
        <time>2022-02-25T18:14:50Z</time>
      </trkpt>
      <trkpt lat="40.467620" lon="-4.392570">
        <ele>731.484</ele>
        <time>2022-02-25T18:15:30Z</time>
      </trkpt>
      <trkpt lat="40.467640" lon="-4.392580">
        <ele>731.552</ele>
        <time>2022-02-25T18:16:10Z</time>
      </trkpt>
      <trkpt lat="40.467820" lon="-4.392700">
        <ele>731.412</ele>
        <time>2022-02-25T18:16:50Z</time>
      </trkpt>
      <trkpt lat="40.467930" lon="-4.392790">
        <ele>731.032</ele>
        <time>2022-02-25T18:17:30Z</time>
      </trkpt>
      <trkpt lat="40.467950" lon="-4.392810">
        <ele>731.005</ele>
        <time>2022-02-25T18:18:10Z</time>
      </trkpt>
      <trkpt lat="40.468000" lon="-4.392870">
        <ele>730.908</ele>
        <time>2022-02-25T18:18:50Z</time>
      </trkpt>
      <trkpt lat="40.468090" lon="-4.393000">
        <ele>730.530</ele>
        <time>2022-02-25T18:19:30Z</time>
      </trkpt>
      <trkpt lat="40.468190" lon="-4.393130">
        <ele>730.197</ele>
        <time>2022-02-25T18:20:10Z</time>
      </trkpt>
      <trkpt lat="40.468210" lon="-4.393140">
        <ele>730.191</ele>
        <time>2022-02-25T18:20:50Z</time>
      </trkpt>
      <trkpt lat="40.468290" lon="-4.393200">
        <ele>730.230</ele>
        <time>2022-02-25T18:21:30Z</time>
      </trkpt>
      <trkpt lat="40.468340" lon="-4.393250">
        <ele>730.430</ele>
        <time>2022-02-25T18:22:10Z</time>
      </trkpt>
      <trkpt lat="40.468360" lon="-4.393270">
        <ele>730.563</ele>
        <time>2022-02-25T18:22:50Z</time>
      </trkpt>
      <trkpt lat="40.468490" lon="-4.393390">
        <ele>731.768</ele>
        <time>2022-02-25T18:23:30Z</time>
      </trkpt>
      <trkpt lat="40.468510" lon="-4.393400">
        <ele>731.956</ele>
        <time>2022-02-25T18:24:10Z</time>
      </trkpt>
      <trkpt lat="40.468620" lon="-4.393490">
        <ele>733.183</ele>
        <time>2022-02-25T18:24:50Z</time>
      </trkpt>
      <trkpt lat="40.468660" lon="-4.393530">
        <ele>733.725</ele>
        <time>2022-02-25T18:25:30Z</time>
      </trkpt>
      <trkpt lat="40.468790" lon="-4.393650">
        <ele>735.517</ele>
        <time>2022-02-25T18:26:10Z</time>
      </trkpt>
      <trkpt lat="40.468810" lon="-4.393660">
        <ele>735.708</ele>
        <time>2022-02-25T18:26:50Z</time>
      </trkpt>
      <trkpt lat="40.468940" lon="-4.393790">
        <ele>736.857</ele>
        <time>2022-02-25T18:27:30Z</time>
      </trkpt>
      <trkpt lat="40.468960" lon="-4.393800">
        <ele>736.934</ele>
        <time>2022-02-25T18:28:10Z</time>
      </trkpt>
      <trkpt lat="40.469090" lon="-4.393920">
        <ele>737.278</ele>
        <time>2022-02-25T18:28:50Z</time>
      </trkpt>
      <trkpt lat="40.469100" lon="-4.393930">
        <ele>737.247</ele>
        <time>2022-02-25T18:29:30Z</time>
      </trkpt>
      <trkpt lat="40.469400" lon="-4.394200">
        <ele>737.277</ele>
        <time>2022-02-25T18:30:10Z</time>
      </trkpt>
      <trkpt lat="40.469660" lon="-4.394430">
        <ele>736.610</ele>
        <time>2022-02-25T18:30:50Z</time>
      </trkpt>
      <trkpt lat="40.469690" lon="-4.394460">
        <ele>736.415</ele>
        <time>2022-02-25T18:31:30Z</time>
      </trkpt>
      <trkpt lat="40.469700" lon="-4.394470">
        <ele>736.333</ele>
        <time>2022-02-25T18:32:10Z</time>
      </trkpt>
      <trkpt lat="40.469820" lon="-4.394580">
        <ele>735.684</ele>
        <time>2022-02-25T18:32:50Z</time>
      </trkpt>
      <trkpt lat="40.469840" lon="-4.394600">
        <ele>735.507</ele>
        <time>2022-02-25T18:33:30Z</time>
      </trkpt>
      <trkpt lat="40.469970" lon="-4.394720">
        <ele>734.717</ele>
        <time>2022-02-25T18:34:10Z</time>
      </trkpt>
      <trkpt lat="40.470090" lon="-4.394840">
        <ele>734.608</ele>
        <time>2022-02-25T18:34:50Z</time>
      </trkpt>
      <trkpt lat="40.470130" lon="-4.394880">
        <ele>734.897</ele>
        <time>2022-02-25T18:35:30Z</time>
      </trkpt>
      <trkpt lat="40.470150" lon="-4.394900">
        <ele>735.054</ele>
        <time>2022-02-25T18:36:10Z</time>
      </trkpt>
      <trkpt lat="40.470190" lon="-4.394940">
        <ele>735.438</ele>
        <time>2022-02-25T18:36:50Z</time>
      </trkpt>
      <trkpt lat="40.470230" lon="-4.395000">
        <ele>735.867</ele>
        <time>2022-02-25T18:37:30Z</time>
      </trkpt>
      <trkpt lat="40.470260" lon="-4.395040">
        <ele>736.327</ele>
        <time>2022-02-25T18:38:10Z</time>
      </trkpt>
      <trkpt lat="40.470300" lon="-4.395110">
        <ele>736.470</ele>
        <time>2022-02-25T18:38:50Z</time>
      </trkpt>
      <trkpt lat="40.470380" lon="-4.395210">
        <ele>736.265</ele>
        <time>2022-02-25T18:39:30Z</time>
      </trkpt>
      <trkpt lat="40.470390" lon="-4.395220">
        <ele>736.243</ele>
        <time>2022-02-25T18:40:10Z</time>
      </trkpt>
      <trkpt lat="40.470420" lon="-4.395260">
        <ele>736.238</ele>
        <time>2022-02-25T18:40:50Z</time>
      </trkpt>
      <trkpt lat="40.470520" lon="-4.395370">
        <ele>736.470</ele>
        <time>2022-02-25T18:41:30Z</time>
      </trkpt>
      <trkpt lat="40.470660" lon="-4.395520">
        <ele>737.217</ele>
        <time>2022-02-25T18:42:10Z</time>
      </trkpt>
      <trkpt lat="40.470800" lon="-4.395670">
        <ele>738.208</ele>
        <time>2022-02-25T18:42:50Z</time>
      </trkpt>
      <trkpt lat="40.470940" lon="-4.395820">
        <ele>739.272</ele>
        <time>2022-02-25T18:43:30Z</time>
      </trkpt>
      <trkpt lat="40.471080" lon="-4.395970">
        <ele>740.219</ele>
        <time>2022-02-25T18:44:10Z</time>
      </trkpt>
      <trkpt lat="40.471210" lon="-4.396120">
        <ele>740.753</ele>
        <time>2022-02-25T18:44:50Z</time>
      </trkpt>
      <trkpt lat="40.471350" lon="-4.396270">
        <ele>741.222</ele>
        <time>2022-02-25T18:45:30Z</time>
      </trkpt>
      <trkpt lat="40.471580" lon="-4.396540">
        <ele>740.812</ele>
        <time>2022-02-25T18:46:10Z</time>
      </trkpt>
      <trkpt lat="40.471600" lon="-4.396560">
        <ele>740.795</ele>
        <time>2022-02-25T18:46:50Z</time>
      </trkpt>
      <trkpt lat="40.471720" lon="-4.396690">
        <ele>740.780</ele>
        <time>2022-02-25T18:47:30Z</time>
      </trkpt>
      <trkpt lat="40.471730" lon="-4.396720">
        <ele>740.758</ele>
        <time>2022-02-25T18:48:10Z</time>
      </trkpt>
      <trkpt lat="40.471780" lon="-4.396820">
        <ele>741.147</ele>
        <time>2022-02-25T18:48:50Z</time>
      </trkpt>
      <trkpt lat="40.471860" lon="-4.397050">
        <ele>741.729</ele>
        <time>2022-02-25T18:49:30Z</time>
      </trkpt>
      <trkpt lat="40.471890" lon="-4.397140">
        <ele>742.121</ele>
        <time>2022-02-25T18:50:10Z</time>
      </trkpt>
      <trkpt lat="40.471940" lon="-4.397260">
        <ele>742.808</ele>
        <time>2022-02-25T18:50:50Z</time>
      </trkpt>
      <trkpt lat="40.471980" lon="-4.397480">
        <ele>742.833</ele>
        <time>2022-02-25T18:51:30Z</time>
      </trkpt>
      <trkpt lat="40.471990" lon="-4.397600">
        <ele>742.980</ele>
        <time>2022-02-25T18:52:10Z</time>
      </trkpt>
      <trkpt lat="40.472000" lon="-4.397680">
        <ele>742.934</ele>
        <time>2022-02-25T18:52:50Z</time>
      </trkpt>
      <trkpt lat="40.472020" lon="-4.397830">
        <ele>742.773</ele>
        <time>2022-02-25T18:53:30Z</time>
      </trkpt>
      <trkpt lat="40.472020" lon="-4.397920">
        <ele>742.153</ele>
        <time>2022-02-25T18:54:10Z</time>
      </trkpt>
      <trkpt lat="40.472040" lon="-4.398060">
        <ele>741.396</ele>
        <time>2022-02-25T18:54:50Z</time>
      </trkpt>
      <trkpt lat="40.472070" lon="-4.398250">
        <ele>740.591</ele>
        <time>2022-02-25T18:55:30Z</time>
      </trkpt>
      <trkpt lat="40.472080" lon="-4.398290">
        <ele>740.399</ele>
        <time>2022-02-25T18:56:10Z</time>
      </trkpt>
      <trkpt lat="40.472090" lon="-4.398350">
        <ele>739.866</ele>
        <time>2022-02-25T18:56:50Z</time>
      </trkpt>
      <trkpt lat="40.472120" lon="-4.398420">
        <ele>739.129</ele>
        <time>2022-02-25T18:57:30Z</time>
      </trkpt>
      <trkpt lat="40.472150" lon="-4.398490">
        <ele>738.421</ele>
        <time>2022-02-25T18:58:10Z</time>
      </trkpt>
      <trkpt lat="40.472160" lon="-4.398510">
        <ele>738.108</ele>
        <time>2022-02-25T18:58:50Z</time>
      </trkpt>
      <trkpt lat="40.472200" lon="-4.398590">
        <ele>737.265</ele>
        <time>2022-02-25T18:59:30Z</time>
      </trkpt>
      <trkpt lat="40.472280" lon="-4.398670">
        <ele>736.342</ele>
        <time>2022-02-25T19:00:10Z</time>
      </trkpt>
      <trkpt lat="40.472410" lon="-4.398820">
        <ele>734.216</ele>
        <time>2022-02-25T19:00:50Z</time>
      </trkpt>
      <trkpt lat="40.472420" lon="-4.398830">
        <ele>734.015</ele>
        <time>2022-02-25T19:01:30Z</time>
      </trkpt>
      <trkpt lat="40.472560" lon="-4.398970">
        <ele>732.845</ele>
        <time>2022-02-25T19:02:10Z</time>
      </trkpt>
      <trkpt lat="40.472570" lon="-4.398980">
        <ele>732.968</ele>
        <time>2022-02-25T19:02:50Z</time>
      </trkpt>
      <trkpt lat="40.472700" lon="-4.399100">
        <ele>733.423</ele>
        <time>2022-02-25T19:03:30Z</time>
      </trkpt>
      <trkpt lat="40.472700" lon="-4.399110">
        <ele>733.331</ele>
        <time>2022-02-25T19:04:10Z</time>
      </trkpt>
      <trkpt lat="40.472820" lon="-4.399290">
        <ele>733.183</ele>
        <time>2022-02-25T19:04:50Z</time>
      </trkpt>
      <trkpt lat="40.472900" lon="-4.399410">
        <ele>732.225</ele>
        <time>2022-02-25T19:05:30Z</time>
      </trkpt>
      <trkpt lat="40.472950" lon="-4.399460">
        <ele>731.917</ele>
        <time>2022-02-25T19:06:10Z</time>
      </trkpt>
      <trkpt lat="40.472950" lon="-4.399470">
        <ele>731.808</ele>
        <time>2022-02-25T19:06:50Z</time>
      </trkpt>
      <trkpt lat="40.473010" lon="-4.399490">
        <ele>731.727</ele>
        <time>2022-02-25T19:07:30Z</time>
      </trkpt>
      <trkpt lat="40.473120" lon="-4.399500">
        <ele>731.014</ele>
        <time>2022-02-25T19:08:10Z</time>
      </trkpt>
      <trkpt lat="40.473170" lon="-4.399510">
        <ele>730.568</ele>
        <time>2022-02-25T19:08:50Z</time>
      </trkpt>
      <trkpt lat="40.473300" lon="-4.399540">
        <ele>728.917</ele>
        <time>2022-02-25T19:09:30Z</time>
      </trkpt>
      <trkpt lat="40.473350" lon="-4.399550">
        <ele>728.477</ele>
        <time>2022-02-25T19:10:10Z</time>
      </trkpt>
      <trkpt lat="40.473440" lon="-4.399570">
        <ele>728.010</ele>
        <time>2022-02-25T19:10:50Z</time>
      </trkpt>
      <trkpt lat="40.473470" lon="-4.399600">
        <ele>727.515</ele>
        <time>2022-02-25T19:11:30Z</time>
      </trkpt>
      <trkpt lat="40.473510" lon="-4.399620">
        <ele>727.253</ele>
        <time>2022-02-25T19:12:10Z</time>
      </trkpt>
      <trkpt lat="40.473540" lon="-4.399650">
        <ele>726.837</ele>
        <time>2022-02-25T19:12:50Z</time>
      </trkpt>
      <trkpt lat="40.473570" lon="-4.399690">
        <ele>726.449</ele>
        <time>2022-02-25T19:13:30Z</time>
      </trkpt>
      <trkpt lat="40.473600" lon="-4.399760">
        <ele>725.613</ele>
        <time>2022-02-25T19:14:10Z</time>
      </trkpt>
      <trkpt lat="40.473600" lon="-4.399770">
        <ele>725.508</ele>
        <time>2022-02-25T19:14:50Z</time>
      </trkpt>
      <trkpt lat="40.473680" lon="-4.399920">
        <ele>724.762</ele>
        <time>2022-02-25T19:15:30Z</time>
      </trkpt>
      <trkpt lat="40.473690" lon="-4.399960">
        <ele>724.329</ele>
        <time>2022-02-25T19:16:10Z</time>
      </trkpt>
      <trkpt lat="40.473780" lon="-4.400170">
        <ele>723.053</ele>
        <time>2022-02-25T19:16:50Z</time>
      </trkpt>
      <trkpt lat="40.473860" lon="-4.400380">
        <ele>721.452</ele>
        <time>2022-02-25T19:17:30Z</time>
      </trkpt>
      <trkpt lat="40.473950" lon="-4.400590">
        <ele>720.792</ele>
        <time>2022-02-25T19:18:10Z</time>
      </trkpt>
      <trkpt lat="40.474110" lon="-4.401000">
        <ele>717.355</ele>
        <time>2022-02-25T19:18:50Z</time>
      </trkpt>
      <trkpt lat="40.474180" lon="-4.401160">
        <ele>716.620</ele>
        <time>2022-02-25T19:19:30Z</time>
      </trkpt>
      <trkpt lat="40.474200" lon="-4.401210">
        <ele>716.468</ele>
        <time>2022-02-25T19:20:10Z</time>
      </trkpt>
      <trkpt lat="40.474280" lon="-4.401390">
        <ele>715.479</ele>
        <time>2022-02-25T19:20:50Z</time>
      </trkpt>
      <trkpt lat="40.474380" lon="-4.401620">
        <ele>714.505</ele>
        <time>2022-02-25T19:21:30Z</time>
      </trkpt>
      <trkpt lat="40.474390" lon="-4.401640">
        <ele>714.425</ele>
        <time>2022-02-25T19:22:10Z</time>
      </trkpt>
      <trkpt lat="40.474600" lon="-4.402000">
        <ele>715.408</ele>
        <time>2022-02-25T19:22:50Z</time>
      </trkpt>
      <trkpt lat="40.474620" lon="-4.402040">
        <ele>715.576</ele>
        <time>2022-02-25T19:23:30Z</time>
      </trkpt>
      <trkpt lat="40.474700" lon="-4.402190">
        <ele>715.153</ele>
        <time>2022-02-25T19:24:10Z</time>
      </trkpt>
      <trkpt lat="40.474810" lon="-4.402380">
        <ele>715.427</ele>
        <time>2022-02-25T19:24:50Z</time>
      </trkpt>
      <trkpt lat="40.474920" lon="-4.402570">
        <ele>716.146</ele>
        <time>2022-02-25T19:25:30Z</time>
      </trkpt>
      <trkpt lat="40.474930" lon="-4.402590">
        <ele>716.016</ele>
        <time>2022-02-25T19:26:10Z</time>
      </trkpt>
      <trkpt lat="40.475030" lon="-4.402750">
        <ele>714.519</ele>
        <time>2022-02-25T19:26:50Z</time>
      </trkpt>
      <trkpt lat="40.475090" lon="-4.402860">
        <ele>714.464</ele>
        <time>2022-02-25T19:27:30Z</time>
      </trkpt>
      <trkpt lat="40.475150" lon="-4.402940">
        <ele>714.622</ele>
        <time>2022-02-25T19:28:10Z</time>
      </trkpt>
      <trkpt lat="40.475190" lon="-4.403010">
        <ele>714.279</ele>
        <time>2022-02-25T19:28:50Z</time>
      </trkpt>
      <trkpt lat="40.475310" lon="-4.403150">
        <ele>713.805</ele>
        <time>2022-02-25T19:29:30Z</time>
      </trkpt>
      <trkpt lat="40.475410" lon="-4.403260">
        <ele>713.225</ele>
        <time>2022-02-25T19:30:10Z</time>
      </trkpt>
      <trkpt lat="40.475500" lon="-4.403350">
        <ele>713.008</ele>
        <time>2022-02-25T19:30:50Z</time>
      </trkpt>
      <trkpt lat="40.475550" lon="-4.403400">
        <ele>713.066</ele>
        <time>2022-02-25T19:31:30Z</time>
      </trkpt>
      <trkpt lat="40.475690" lon="-4.403560">
        <ele>713.023</ele>
        <time>2022-02-25T19:32:10Z</time>
      </trkpt>
      <trkpt lat="40.475820" lon="-4.403710">
        <ele>714.137</ele>
        <time>2022-02-25T19:32:50Z</time>
      </trkpt>
      <trkpt lat="40.475960" lon="-4.403870">
        <ele>714.586</ele>
        <time>2022-02-25T19:33:30Z</time>
      </trkpt>
      <trkpt lat="40.476060" lon="-4.403990">
        <ele>715.556</ele>
        <time>2022-02-25T19:34:10Z</time>
      </trkpt>
      <trkpt lat="40.476090" lon="-4.404030">
        <ele>715.869</ele>
        <time>2022-02-25T19:34:50Z</time>
      </trkpt>
      <trkpt lat="40.476230" lon="-4.404180">
        <ele>716.964</ele>
        <time>2022-02-25T19:35:30Z</time>
      </trkpt>
      <trkpt lat="40.476450" lon="-4.404410">
        <ele>718.582</ele>
        <time>2022-02-25T19:36:10Z</time>
      </trkpt>
      <trkpt lat="40.476780" lon="-4.404740">
        <ele>720.032</ele>
        <time>2022-02-25T19:36:50Z</time>
      </trkpt>
      <trkpt lat="40.476950" lon="-4.404880">
        <ele>720.092</ele>
        <time>2022-02-25T19:37:30Z</time>
      </trkpt>
      <trkpt lat="40.477040" lon="-4.404950">
        <ele>720.211</ele>
        <time>2022-02-25T19:38:10Z</time>
      </trkpt>
      <trkpt lat="40.477420" lon="-4.405220">
        <ele>720.608</ele>
        <time>2022-02-25T19:38:50Z</time>
      </trkpt>
      <trkpt lat="40.477650" lon="-4.405390">
        <ele>721.052</ele>
        <time>2022-02-25T19:39:30Z</time>
      </trkpt>
      <trkpt lat="40.477740" lon="-4.405440">
        <ele>721.179</ele>
        <time>2022-02-25T19:40:10Z</time>
      </trkpt>
      <trkpt lat="40.477900" lon="-4.405540">
        <ele>721.533</ele>
        <time>2022-02-25T19:40:50Z</time>
      </trkpt>
      <trkpt lat="40.477920" lon="-4.405560">
        <ele>721.592</ele>
        <time>2022-02-25T19:41:30Z</time>
      </trkpt>
      <trkpt lat="40.478130" lon="-4.405670">
        <ele>722.642</ele>
        <time>2022-02-25T19:42:10Z</time>
      </trkpt>
      <trkpt lat="40.478320" lon="-4.405730">
        <ele>723.735</ele>
        <time>2022-02-25T19:42:50Z</time>
      </trkpt>
      <trkpt lat="40.478420" lon="-4.405770">
        <ele>724.180</ele>
        <time>2022-02-25T19:43:30Z</time>
      </trkpt>
      <trkpt lat="40.478760" lon="-4.405890">
        <ele>727.188</ele>
        <time>2022-02-25T19:44:10Z</time>
      </trkpt>
      <trkpt lat="40.478920" lon="-4.405940">
        <ele>729.124</ele>
        <time>2022-02-25T19:44:50Z</time>
      </trkpt>
      <trkpt lat="40.478940" lon="-4.405950">
        <ele>729.204</ele>
        <time>2022-02-25T19:45:30Z</time>
      </trkpt>
      <trkpt lat="40.479280" lon="-4.406090">
        <ele>730.114</ele>
        <time>2022-02-25T19:46:10Z</time>
      </trkpt>
      <trkpt lat="40.479340" lon="-4.406120">
        <ele>730.008</ele>
        <time>2022-02-25T19:46:50Z</time>
      </trkpt>
      <trkpt lat="40.479450" lon="-4.406170">
        <ele>730.021</ele>
        <time>2022-02-25T19:47:30Z</time>
      </trkpt>
      <trkpt lat="40.479620" lon="-4.406250">
        <ele>730.028</ele>
        <time>2022-02-25T19:48:10Z</time>
      </trkpt>
      <trkpt lat="40.479790" lon="-4.406330">
        <ele>730.032</ele>
        <time>2022-02-25T19:48:50Z</time>
      </trkpt>
      <trkpt lat="40.479890" lon="-4.406380">
        <ele>730.031</ele>
        <time>2022-02-25T19:49:30Z</time>
      </trkpt>
      <trkpt lat="40.479960" lon="-4.406410">
        <ele>730.091</ele>
        <time>2022-02-25T19:50:10Z</time>
      </trkpt>
      <trkpt lat="40.480130" lon="-4.406480">
        <ele>730.064</ele>
        <time>2022-02-25T19:50:50Z</time>
      </trkpt>
      <trkpt lat="40.480170" lon="-4.406490">
        <ele>730.039</ele>
        <time>2022-02-25T19:51:30Z</time>
      </trkpt>
      <trkpt lat="40.480300" lon="-4.406550">
        <ele>730.077</ele>
        <time>2022-02-25T19:52:10Z</time>
      </trkpt>
      <trkpt lat="40.480410" lon="-4.406600">
        <ele>730.086</ele>
        <time>2022-02-25T19:52:50Z</time>
      </trkpt>
      <trkpt lat="40.480470" lon="-4.406630">
        <ele>730.060</ele>
        <time>2022-02-25T19:53:30Z</time>
      </trkpt>
      <trkpt lat="40.480640" lon="-4.406730">
        <ele>730.226</ele>
        <time>2022-02-25T19:54:10Z</time>
      </trkpt>
      <trkpt lat="40.480740" lon="-4.406780">
        <ele>730.408</ele>
        <time>2022-02-25T19:54:50Z</time>
      </trkpt>
      <trkpt lat="40.480900" lon="-4.406860">
        <ele>730.787</ele>
        <time>2022-02-25T19:55:30Z</time>
      </trkpt>
      <trkpt lat="40.480960" lon="-4.406900">
        <ele>730.574</ele>
        <time>2022-02-25T19:56:10Z</time>
      </trkpt>
      <trkpt lat="40.481390" lon="-4.407160">
        <ele>730.518</ele>
        <time>2022-02-25T19:56:50Z</time>
      </trkpt>
      <trkpt lat="40.481550" lon="-4.407260">
        <ele>732.537</ele>
        <time>2022-02-25T19:57:30Z</time>
      </trkpt>
      <trkpt lat="40.481720" lon="-4.407370">
        <ele>735.477</ele>
        <time>2022-02-25T19:58:10Z</time>
      </trkpt>
      <trkpt lat="40.482250" lon="-4.407700">
        <ele>740.390</ele>
        <time>2022-02-25T19:58:50Z</time>
      </trkpt>
      <trkpt lat="40.482360" lon="-4.407780">
        <ele>741.065</ele>
        <time>2022-02-25T19:59:30Z</time>
      </trkpt>
      <trkpt lat="40.482420" lon="-4.407830">
        <ele>741.273</ele>
        <time>2022-02-25T20:00:10Z</time>
      </trkpt>
      <trkpt lat="40.482550" lon="-4.407950">
        <ele>741.129</ele>
        <time>2022-02-25T20:00:50Z</time>
      </trkpt>
      <trkpt lat="40.482640" lon="-4.408080">
        <ele>740.900</ele>
        <time>2022-02-25T20:01:30Z</time>
      </trkpt>
      <trkpt lat="40.482770" lon="-4.408240">
        <ele>740.720</ele>
        <time>2022-02-25T20:02:10Z</time>
      </trkpt>
      <trkpt lat="40.482920" lon="-4.408420">
        <ele>742.408</ele>
        <time>2022-02-25T20:02:50Z</time>
      </trkpt>
      <trkpt lat="40.483000" lon="-4.408530">
        <ele>743.461</ele>
        <time>2022-02-25T20:03:30Z</time>
      </trkpt>
      <trkpt lat="40.483060" lon="-4.408650">
        <ele>743.888</ele>
        <time>2022-02-25T20:04:10Z</time>
      </trkpt>
      <trkpt lat="40.483080" lon="-4.408720">
        <ele>743.562</ele>
        <time>2022-02-25T20:04:50Z</time>
      </trkpt>
      <trkpt lat="40.483100" lon="-4.408790">
        <ele>743.311</ele>
        <time>2022-02-25T20:05:30Z</time>
      </trkpt>
      <trkpt lat="40.483100" lon="-4.408860">
        <ele>742.811</ele>
        <time>2022-02-25T20:06:10Z</time>
      </trkpt>
      <trkpt lat="40.483100" lon="-4.408920">
        <ele>742.714</ele>
        <time>2022-02-25T20:06:50Z</time>
      </trkpt>
      <trkpt lat="40.483090" lon="-4.409020">
        <ele>742.639</ele>
        <time>2022-02-25T20:07:30Z</time>
      </trkpt>
      <trkpt lat="40.483050" lon="-4.409180">
        <ele>742.077</ele>
        <time>2022-02-25T20:08:10Z</time>
      </trkpt>
      <trkpt lat="40.483000" lon="-4.409360">
        <ele>742.253</ele>
        <time>2022-02-25T20:08:50Z</time>
      </trkpt>
      <trkpt lat="40.482990" lon="-4.409480">
        <ele>742.504</ele>
        <time>2022-02-25T20:09:30Z</time>
      </trkpt>
      <trkpt lat="40.482980" lon="-4.409590">
        <ele>743.114</ele>
        <time>2022-02-25T20:10:10Z</time>
      </trkpt>
      <trkpt lat="40.482990" lon="-4.409700">
        <ele>743.908</ele>
        <time>2022-02-25T20:10:50Z</time>
      </trkpt>
      <trkpt lat="40.482990" lon="-4.409720">
        <ele>744.014</ele>
        <time>2022-02-25T20:11:30Z</time>
      </trkpt>
      <trkpt lat="40.483000" lon="-4.409780">
        <ele>744.541</ele>
        <time>2022-02-25T20:12:10Z</time>
      </trkpt>
      <trkpt lat="40.483010" lon="-4.409860">
        <ele>744.955</ele>
        <time>2022-02-25T20:12:50Z</time>
      </trkpt>
      <trkpt lat="40.483030" lon="-4.409940">
        <ele>745.524</ele>
        <time>2022-02-25T20:13:30Z</time>
      </trkpt>
      <trkpt lat="40.483050" lon="-4.410030">
        <ele>746.044</ele>
        <time>2022-02-25T20:14:10Z</time>
      </trkpt>
      <trkpt lat="40.483120" lon="-4.410210">
        <ele>747.347</ele>
        <time>2022-02-25T20:14:50Z</time>
      </trkpt>
      <trkpt lat="40.483200" lon="-4.410360">
        <ele>748.322</ele>
        <time>2022-02-25T20:15:30Z</time>
      </trkpt>
      <trkpt lat="40.483210" lon="-4.410380">
        <ele>748.520</ele>
        <time>2022-02-25T20:16:10Z</time>
      </trkpt>
      <trkpt lat="40.483360" lon="-4.410570">
        <ele>750.052</ele>
        <time>2022-02-25T20:16:50Z</time>
      </trkpt>
      <trkpt lat="40.483470" lon="-4.410680">
        <ele>750.053</ele>
        <time>2022-02-25T20:17:30Z</time>
      </trkpt>
      <trkpt lat="40.483710" lon="-4.410930">
        <ele>750.008</ele>
        <time>2022-02-25T20:18:10Z</time>
      </trkpt>
      <trkpt lat="40.483750" lon="-4.410970">
        <ele>750.008</ele>
        <time>2022-02-25T20:18:50Z</time>
      </trkpt>
      <trkpt lat="40.483900" lon="-4.411100">
        <ele>750.094</ele>
        <time>2022-02-25T20:19:30Z</time>
      </trkpt>
      <trkpt lat="40.483980" lon="-4.411170">
        <ele>750.031</ele>
        <time>2022-02-25T20:20:10Z</time>
      </trkpt>
      <trkpt lat="40.484050" lon="-4.411230">
        <ele>750.065</ele>
        <time>2022-02-25T20:20:50Z</time>
      </trkpt>
      <trkpt lat="40.484070" lon="-4.411250">
        <ele>750.034</ele>
        <time>2022-02-25T20:21:30Z</time>
      </trkpt>
      <trkpt lat="40.484150" lon="-4.411290">
        <ele>750.034</ele>
        <time>2022-02-25T20:22:10Z</time>
      </trkpt>
      <trkpt lat="40.484220" lon="-4.411320">
        <ele>750.027</ele>
        <time>2022-02-25T20:22:50Z</time>
      </trkpt>
      <trkpt lat="40.484250" lon="-4.411330">
        <ele>750.082</ele>
        <time>2022-02-25T20:23:30Z</time>
      </trkpt>
      <trkpt lat="40.484390" lon="-4.411360">
        <ele>750.060</ele>
        <time>2022-02-25T20:24:10Z</time>
      </trkpt>
      <trkpt lat="40.484440" lon="-4.411380">
        <ele>750.053</ele>
        <time>2022-02-25T20:24:50Z</time>
      </trkpt>
      <trkpt lat="40.484590" lon="-4.411430">
        <ele>750.004</ele>
        <time>2022-02-25T20:25:30Z</time>
      </trkpt>
      <trkpt lat="40.484730" lon="-4.411510">
        <ele>750.014</ele>
        <time>2022-02-25T20:26:10Z</time>
      </trkpt>
      <trkpt lat="40.484940" lon="-4.411620">
        <ele>750.008</ele>
        <time>2022-02-25T20:26:50Z</time>
      </trkpt>
      <trkpt lat="40.485060" lon="-4.411700">
        <ele>750.434</ele>
        <time>2022-02-25T20:27:30Z</time>
      </trkpt>
      <trkpt lat="40.485230" lon="-4.411800">
        <ele>750.991</ele>
        <time>2022-02-25T20:28:10Z</time>
      </trkpt>
      <trkpt lat="40.485550" lon="-4.411990">
        <ele>753.175</ele>
        <time>2022-02-25T20:28:50Z</time>
      </trkpt>
      <trkpt lat="40.485880" lon="-4.412190">
        <ele>756.644</ele>
        <time>2022-02-25T20:29:30Z</time>
      </trkpt>
      <trkpt lat="40.486090" lon="-4.412310">
        <ele>758.814</ele>
        <time>2022-02-25T20:30:10Z</time>
      </trkpt>
      <trkpt lat="40.486360" lon="-4.412510">
        <ele>759.967</ele>
        <time>2022-02-25T20:30:50Z</time>
      </trkpt>
      <trkpt lat="40.486510" lon="-4.412620">
        <ele>760.022</ele>
        <time>2022-02-25T20:31:30Z</time>
      </trkpt>
      <trkpt lat="40.486520" lon="-4.412620">
        <ele>760.050</ele>
        <time>2022-02-25T20:32:10Z</time>
      </trkpt>
      <trkpt lat="40.486840" lon="-4.412830">
        <ele>760.028</ele>
        <time>2022-02-25T20:32:50Z</time>
      </trkpt>
      <trkpt lat="40.486970" lon="-4.412910">
        <ele>760.089</ele>
        <time>2022-02-25T20:33:30Z</time>
      </trkpt>
      <trkpt lat="40.487150" lon="-4.413030">
        <ele>760.017</ele>
        <time>2022-02-25T20:34:10Z</time>
      </trkpt>
      <trkpt lat="40.487290" lon="-4.413090">
        <ele>760.008</ele>
        <time>2022-02-25T20:34:50Z</time>
      </trkpt>
      <trkpt lat="40.487340" lon="-4.413100">
        <ele>760.071</ele>
        <time>2022-02-25T20:35:30Z</time>
      </trkpt>
      <trkpt lat="40.487500" lon="-4.413120">
        <ele>760.038</ele>
        <time>2022-02-25T20:36:10Z</time>
      </trkpt>
      <trkpt lat="40.487520" lon="-4.413120">
        <ele>760.042</ele>
        <time>2022-02-25T20:36:50Z</time>
      </trkpt>
      <trkpt lat="40.487700" lon="-4.413170">
        <ele>760.071</ele>
        <time>2022-02-25T20:37:30Z</time>
      </trkpt>
      <trkpt lat="40.487870" lon="-4.413220">
        <ele>760.151</ele>
        <time>2022-02-25T20:38:10Z</time>
      </trkpt>
      <trkpt lat="40.488090" lon="-4.413270">
        <ele>760.554</ele>
        <time>2022-02-25T20:38:50Z</time>
      </trkpt>
      <trkpt lat="40.488200" lon="-4.413310">
        <ele>761.249</ele>
        <time>2022-02-25T20:39:30Z</time>
      </trkpt>
      <trkpt lat="40.488320" lon="-4.413380">
        <ele>761.617</ele>
        <time>2022-02-25T20:40:10Z</time>
      </trkpt>
      <trkpt lat="40.488380" lon="-4.413420">
        <ele>762.279</ele>
        <time>2022-02-25T20:40:50Z</time>
      </trkpt>
      <trkpt lat="40.488440" lon="-4.413470">
        <ele>762.905</ele>
        <time>2022-02-25T20:41:30Z</time>
      </trkpt>
      <trkpt lat="40.488680" lon="-4.413650">
        <ele>765.125</ele>
        <time>2022-02-25T20:42:10Z</time>
      </trkpt>
      <trkpt lat="40.488860" lon="-4.413760">
        <ele>765.208</ele>
        <time>2022-02-25T20:42:50Z</time>
      </trkpt>
      <trkpt lat="40.488870" lon="-4.413770">
        <ele>765.126</ele>
        <time>2022-02-25T20:43:30Z</time>
      </trkpt>
      <trkpt lat="40.489030" lon="-4.413840">
        <ele>765.513</ele>
        <time>2022-02-25T20:44:10Z</time>
      </trkpt>
      <trkpt lat="40.489100" lon="-4.413870">
        <ele>765.767</ele>
        <time>2022-02-25T20:44:50Z</time>
      </trkpt>
      <trkpt lat="40.489200" lon="-4.413890">
        <ele>766.286</ele>
        <time>2022-02-25T20:45:30Z</time>
      </trkpt>
      <trkpt lat="40.489490" lon="-4.413960">
        <ele>768.276</ele>
        <time>2022-02-25T20:46:10Z</time>
      </trkpt>
      <trkpt lat="40.489550" lon="-4.413980">
        <ele>768.739</ele>
        <time>2022-02-25T20:46:50Z</time>
      </trkpt>
      <trkpt lat="40.489650" lon="-4.414020">
        <ele>769.494</ele>
        <time>2022-02-25T20:47:30Z</time>
      </trkpt>
      <trkpt lat="40.489890" lon="-4.414170">
        <ele>770.262</ele>
        <time>2022-02-25T20:48:10Z</time>
      </trkpt>
      <trkpt lat="40.490030" lon="-4.414310">
        <ele>771.241</ele>
        <time>2022-02-25T20:48:50Z</time>
      </trkpt>
      <trkpt lat="40.490100" lon="-4.414380">
        <ele>772.681</ele>
        <time>2022-02-25T20:49:30Z</time>
      </trkpt>
      <trkpt lat="40.490160" lon="-4.414470">
        <ele>773.409</ele>
        <time>2022-02-25T20:50:10Z</time>
      </trkpt>
      <trkpt lat="40.490420" lon="-4.414800">
        <ele>775.008</ele>
        <time>2022-02-25T20:50:50Z</time>
      </trkpt>
      <trkpt lat="40.490550" lon="-4.414960">
        <ele>775.253</ele>
        <time>2022-02-25T20:51:30Z</time>
      </trkpt>
      <trkpt lat="40.490600" lon="-4.415030">
        <ele>775.110</ele>
        <time>2022-02-25T20:52:10Z</time>
      </trkpt>
      <trkpt lat="40.490680" lon="-4.415120">
        <ele>775.054</ele>
        <time>2022-02-25T20:52:50Z</time>
      </trkpt>
      <trkpt lat="40.490870" lon="-4.415330">
        <ele>774.723</ele>
        <time>2022-02-25T20:53:30Z</time>
      </trkpt>
      <trkpt lat="40.490970" lon="-4.415400">
        <ele>774.913</ele>
        <time>2022-02-25T20:54:10Z</time>
      </trkpt>
      <trkpt lat="40.491060" lon="-4.415480">
        <ele>775.036</ele>
        <time>2022-02-25T20:54:50Z</time>
      </trkpt>
      <trkpt lat="40.491130" lon="-4.415520">
        <ele>775.461</ele>
        <time>2022-02-25T20:55:30Z</time>
      </trkpt>
      <trkpt lat="40.491280" lon="-4.415610">
        <ele>776.419</ele>
        <time>2022-02-25T20:56:10Z</time>
      </trkpt>
      <trkpt lat="40.491290" lon="-4.415610">
        <ele>776.529</ele>
        <time>2022-02-25T20:56:50Z</time>
      </trkpt>
      <trkpt lat="40.491640" lon="-4.415750">
        <ele>778.900</ele>
        <time>2022-02-25T20:57:30Z</time>
      </trkpt>
      <trkpt lat="40.491740" lon="-4.415790">
        <ele>779.320</ele>
        <time>2022-02-25T20:58:10Z</time>
      </trkpt>
      <trkpt lat="40.491980" lon="-4.415900">
        <ele>780.008</ele>
        <time>2022-02-25T20:58:50Z</time>
      </trkpt>
      <trkpt lat="40.492130" lon="-4.415960">
        <ele>780.081</ele>
        <time>2022-02-25T20:59:30Z</time>
      </trkpt>
      <trkpt lat="40.492150" lon="-4.415980">
        <ele>780.078</ele>
        <time>2022-02-25T21:00:10Z</time>
      </trkpt>
      <trkpt lat="40.492290" lon="-4.416050">
        <ele>780.472</ele>
        <time>2022-02-25T21:00:50Z</time>
      </trkpt>
      <trkpt lat="40.492310" lon="-4.416070">
        <ele>780.561</ele>
        <time>2022-02-25T21:01:30Z</time>
      </trkpt>
      <trkpt lat="40.492460" lon="-4.416210">
        <ele>780.691</ele>
        <time>2022-02-25T21:02:10Z</time>
      </trkpt>
      <trkpt lat="40.492540" lon="-4.416300">
        <ele>780.754</ele>
        <time>2022-02-25T21:02:50Z</time>
      </trkpt>
      <trkpt lat="40.492680" lon="-4.416410">
        <ele>781.239</ele>
        <time>2022-02-25T21:03:30Z</time>
      </trkpt>
      <trkpt lat="40.492760" lon="-4.416450">
        <ele>781.527</ele>
        <time>2022-02-25T21:04:10Z</time>
      </trkpt>
      <trkpt lat="40.492900" lon="-4.416520">
        <ele>781.592</ele>
        <time>2022-02-25T21:04:50Z</time>
      </trkpt>
      <trkpt lat="40.492930" lon="-4.416540">
        <ele>781.573</ele>
        <time>2022-02-25T21:05:30Z</time>
      </trkpt>
      <trkpt lat="40.493040" lon="-4.416600">
        <ele>781.420</ele>
        <time>2022-02-25T21:06:10Z</time>
      </trkpt>
      <trkpt lat="40.493090" lon="-4.416640">
        <ele>781.408</ele>
        <time>2022-02-25T21:06:50Z</time>
      </trkpt>
      <trkpt lat="40.493170" lon="-4.416700">
        <ele>781.938</ele>
        <time>2022-02-25T21:07:30Z</time>
      </trkpt>
      <trkpt lat="40.493240" lon="-4.416770">
        <ele>782.885</ele>
        <time>2022-02-25T21:08:10Z</time>
      </trkpt>
      <trkpt lat="40.493300" lon="-4.416830">
        <ele>783.849</ele>
        <time>2022-02-25T21:08:50Z</time>
      </trkpt>
      <trkpt lat="40.493390" lon="-4.416920">
        <ele>785.288</ele>
        <time>2022-02-25T21:09:30Z</time>
      </trkpt>
      <trkpt lat="40.493490" lon="-4.416970">
        <ele>786.328</ele>
        <time>2022-02-25T21:10:10Z</time>
      </trkpt>
      <trkpt lat="40.493550" lon="-4.416990">
        <ele>786.881</ele>
        <time>2022-02-25T21:10:50Z</time>
      </trkpt>
      <trkpt lat="40.493590" lon="-4.417010">
        <ele>787.116</ele>
        <time>2022-02-25T21:11:30Z</time>
      </trkpt>
      <trkpt lat="40.493730" lon="-4.417040">
        <ele>787.894</ele>
        <time>2022-02-25T21:12:10Z</time>
      </trkpt>
      <trkpt lat="40.493740" lon="-4.417050">
        <ele>787.888</ele>
        <time>2022-02-25T21:12:50Z</time>
      </trkpt>
      <trkpt lat="40.493900" lon="-4.417110">
        <ele>788.724</ele>
        <time>2022-02-25T21:13:30Z</time>
      </trkpt>
      <trkpt lat="40.494080" lon="-4.417170">
        <ele>789.626</ele>
        <time>2022-02-25T21:14:10Z</time>
      </trkpt>
      <trkpt lat="40.494210" lon="-4.417230">
        <ele>790.308</ele>
        <time>2022-02-25T21:14:50Z</time>
      </trkpt>
      <trkpt lat="40.494250" lon="-4.417250">
        <ele>790.677</ele>
        <time>2022-02-25T21:15:30Z</time>
      </trkpt>
      <trkpt lat="40.494370" lon="-4.417300">
        <ele>791.524</ele>
        <time>2022-02-25T21:16:10Z</time>
      </trkpt>
      <trkpt lat="40.494410" lon="-4.417330">
        <ele>791.848</ele>
        <time>2022-02-25T21:16:50Z</time>
      </trkpt>
      <trkpt lat="40.494490" lon="-4.417380">
        <ele>792.347</ele>
        <time>2022-02-25T21:17:30Z</time>
      </trkpt>
      <trkpt lat="40.494740" lon="-4.417540">
        <ele>794.387</ele>
        <time>2022-02-25T21:18:10Z</time>
      </trkpt>
      <trkpt lat="40.494900" lon="-4.417640">
        <ele>796.160</ele>
        <time>2022-02-25T21:18:50Z</time>
      </trkpt>
      <trkpt lat="40.495220" lon="-4.417850">
        <ele>799.495</ele>
        <time>2022-02-25T21:19:30Z</time>
      </trkpt>
      <trkpt lat="40.495340" lon="-4.417930">
        <ele>800.853</ele>
        <time>2022-02-25T21:20:10Z</time>
      </trkpt>
      <trkpt lat="40.495470" lon="-4.418010">
        <ele>802.273</ele>
        <time>2022-02-25T21:20:50Z</time>
      </trkpt>
      <trkpt lat="40.495690" lon="-4.418130">
        <ele>804.685</ele>
        <time>2022-02-25T21:21:30Z</time>
      </trkpt>
      <trkpt lat="40.495710" lon="-4.418140">
        <ele>804.913</ele>
        <time>2022-02-25T21:22:10Z</time>
      </trkpt>
      <trkpt lat="40.495800" lon="-4.418200">
        <ele>805.808</ele>
        <time>2022-02-25T21:22:50Z</time>
      </trkpt>
      <trkpt lat="40.495870" lon="-4.418250">
        <ele>806.356</ele>
        <time>2022-02-25T21:23:30Z</time>
      </trkpt>
      <trkpt lat="40.495880" lon="-4.418260">
        <ele>806.353</ele>
        <time>2022-02-25T21:24:10Z</time>
      </trkpt>
      <trkpt lat="40.495920" lon="-4.418310">
        <ele>806.297</ele>
        <time>2022-02-25T21:24:50Z</time>
      </trkpt>
      <trkpt lat="40.495950" lon="-4.418360">
        <ele>806.056</ele>
        <time>2022-02-25T21:25:30Z</time>
      </trkpt>
      <trkpt lat="40.495990" lon="-4.418430">
        <ele>805.896</ele>
        <time>2022-02-25T21:26:10Z</time>
      </trkpt>
      <trkpt lat="40.496030" lon="-4.418500">
        <ele>805.729</ele>
        <time>2022-02-25T21:26:50Z</time>
      </trkpt>
      <trkpt lat="40.496080" lon="-4.418640">
        <ele>805.314</ele>
        <time>2022-02-25T21:27:30Z</time>
      </trkpt>
      <trkpt lat="40.496100" lon="-4.418700">
        <ele>804.952</ele>
        <time>2022-02-25T21:28:10Z</time>
      </trkpt>
      <trkpt lat="40.496130" lon="-4.418780">
        <ele>804.465</ele>
        <time>2022-02-25T21:28:50Z</time>
      </trkpt>
      <trkpt lat="40.496170" lon="-4.418850">
        <ele>804.268</ele>
        <time>2022-02-25T21:29:30Z</time>
      </trkpt>
      <trkpt lat="40.496210" lon="-4.418900">
        <ele>804.514</ele>
        <time>2022-02-25T21:30:10Z</time>
      </trkpt>
      <trkpt lat="40.496290" lon="-4.418980">
        <ele>806.108</ele>
        <time>2022-02-25T21:30:50Z</time>
      </trkpt>
      <trkpt lat="40.496420" lon="-4.419060">
        <ele>807.945</ele>
        <time>2022-02-25T21:31:30Z</time>
      </trkpt>
      <trkpt lat="40.496470" lon="-4.419090">
        <ele>808.492</ele>
        <time>2022-02-25T21:32:10Z</time>
      </trkpt>
      <trkpt lat="40.496610" lon="-4.419200">
        <ele>809.616</ele>
        <time>2022-02-25T21:32:50Z</time>
      </trkpt>
      <trkpt lat="40.496910" lon="-4.419490">
        <ele>812.865</ele>
        <time>2022-02-25T21:33:30Z</time>
      </trkpt>
      <trkpt lat="40.497000" lon="-4.419580">
        <ele>813.995</ele>
        <time>2022-02-25T21:34:10Z</time>
      </trkpt>
      <trkpt lat="40.497060" lon="-4.419630">
        <ele>814.528</ele>
        <time>2022-02-25T21:34:50Z</time>
      </trkpt>
      <trkpt lat="40.497360" lon="-4.419880">
        <ele>817.113</ele>
        <time>2022-02-25T21:35:30Z</time>
      </trkpt>
      <trkpt lat="40.497510" lon="-4.420010">
        <ele>818.171</ele>
        <time>2022-02-25T21:36:10Z</time>
      </trkpt>
      <trkpt lat="40.497630" lon="-4.420130">
        <ele>819.671</ele>
        <time>2022-02-25T21:36:50Z</time>
      </trkpt>
      <trkpt lat="40.497660" lon="-4.420150">
        <ele>820.041</ele>
        <time>2022-02-25T21:37:30Z</time>
      </trkpt>
      <trkpt lat="40.497710" lon="-4.420230">
        <ele>821.015</ele>
        <time>2022-02-25T21:38:10Z</time>
      </trkpt>
      <trkpt lat="40.497800" lon="-4.420370">
        <ele>822.408</ele>
        <time>2022-02-25T21:38:50Z</time>
      </trkpt>
      <trkpt lat="40.497850" lon="-4.420480">
        <ele>823.056</ele>
        <time>2022-02-25T21:39:30Z</time>
      </trkpt>
      <trkpt lat="40.497880" lon="-4.420540">
        <ele>823.383</ele>
        <time>2022-02-25T21:40:10Z</time>
      </trkpt>
      <trkpt lat="40.497890" lon="-4.420630">
        <ele>823.957</ele>
        <time>2022-02-25T21:40:50Z</time>
      </trkpt>
      <trkpt lat="40.497900" lon="-4.420750">
        <ele>824.856</ele>
        <time>2022-02-25T21:41:30Z</time>
      </trkpt>
      <trkpt lat="40.497910" lon="-4.420830">
        <ele>825.516</ele>
        <time>2022-02-25T21:42:10Z</time>
      </trkpt>
      <trkpt lat="40.497920" lon="-4.420890">
        <ele>825.969</ele>
        <time>2022-02-25T21:42:50Z</time>
      </trkpt>
      <trkpt lat="40.497940" lon="-4.420990">
        <ele>826.724</ele>
        <time>2022-02-25T21:43:30Z</time>
      </trkpt>
      <trkpt lat="40.497980" lon="-4.421060">
        <ele>827.462</ele>
        <time>2022-02-25T21:44:10Z</time>
      </trkpt>
      <trkpt lat="40.498000" lon="-4.421100">
        <ele>827.768</ele>
        <time>2022-02-25T21:44:50Z</time>
      </trkpt>
      <trkpt lat="40.498020" lon="-4.421120">
        <ele>827.942</ele>
        <time>2022-02-25T21:45:30Z</time>
      </trkpt>
      <trkpt lat="40.498050" lon="-4.421140">
        <ele>828.226</ele>
        <time>2022-02-25T21:46:10Z</time>
      </trkpt>
      <trkpt lat="40.498110" lon="-4.421160">
        <ele>829.408</ele>
        <time>2022-02-25T21:46:50Z</time>
      </trkpt>
      <trkpt lat="40.498230" lon="-4.421180">
        <ele>831.835</ele>
        <time>2022-02-25T21:47:30Z</time>
      </trkpt>
      <trkpt lat="40.498410" lon="-4.421200">
        <ele>834.332</ele>
        <time>2022-02-25T21:48:10Z</time>
      </trkpt>
      <trkpt lat="40.498590" lon="-4.421230">
        <ele>835.626</ele>
        <time>2022-02-25T21:48:50Z</time>
      </trkpt>
      <trkpt lat="40.498720" lon="-4.421260">
        <ele>836.465</ele>
        <time>2022-02-25T21:49:30Z</time>
      </trkpt>
      <trkpt lat="40.498890" lon="-4.421320">
        <ele>837.875</ele>
        <time>2022-02-25T21:50:10Z</time>
      </trkpt>
      <trkpt lat="40.498930" lon="-4.421330">
        <ele>838.088</ele>
        <time>2022-02-25T21:50:50Z</time>
      </trkpt>
      <trkpt lat="40.498980" lon="-4.421330">
        <ele>838.033</ele>
        <time>2022-02-25T21:51:30Z</time>
      </trkpt>
      <trkpt lat="40.499010" lon="-4.421320">
        <ele>837.981</ele>
        <time>2022-02-25T21:52:10Z</time>
      </trkpt>
      <trkpt lat="40.499060" lon="-4.421300">
        <ele>837.612</ele>
        <time>2022-02-25T21:52:50Z</time>
      </trkpt>
      <trkpt lat="40.499059" lon="-4.421301">
        <ele>837.632</ele>
        <time>2022-02-25T21:53:30Z</time>
      </trkpt>
      <trkpt lat="40.499120" lon="-4.421420">
        <ele>839.505</ele>
        <time>2022-02-25T21:54:10Z</time>
      </trkpt>
      <trkpt lat="40.499160" lon="-4.421450">
        <ele>840.108</ele>
        <time>2022-02-25T21:54:50Z</time>
      </trkpt>
      <trkpt lat="40.499180" lon="-4.421460">
        <ele>840.330</ele>
        <time>2022-02-25T21:55:30Z</time>
      </trkpt>
      <trkpt lat="40.499260" lon="-4.421490">
        <ele>841.397</ele>
        <time>2022-02-25T21:56:10Z</time>
      </trkpt>
      <trkpt lat="40.499350" lon="-4.421540">
        <ele>842.751</ele>
        <time>2022-02-25T21:56:50Z</time>
      </trkpt>
      <trkpt lat="40.499354" lon="-4.421536">
        <ele>842.770</ele>
        <time>2022-02-25T21:57:30Z</time>
      </trkpt>
      <trkpt lat="40.499340" lon="-4.421670">
        <ele>845.320</ele>
        <time>2022-02-25T21:58:10Z</time>
      </trkpt>
      <trkpt lat="40.499336" lon="-4.421667">
        <ele>845.253</ele>
        <time>2022-02-25T21:58:50Z</time>
      </trkpt>
      <trkpt lat="40.499300" lon="-4.421680">
        <ele>845.268</ele>
        <time>2022-02-25T21:59:30Z</time>
      </trkpt>
      <trkpt lat="40.499260" lon="-4.421710">
        <ele>845.646</ele>
        <time>2022-02-25T22:00:10Z</time>
      </trkpt>
      <trkpt lat="40.499240" lon="-4.421740">
        <ele>846.083</ele>
        <time>2022-02-25T22:00:50Z</time>
      </trkpt>
      <trkpt lat="40.499210" lon="-4.421810">
        <ele>847.325</ele>
        <time>2022-02-25T22:01:30Z</time>
      </trkpt>
      <trkpt lat="40.499200" lon="-4.421850">
        <ele>848.117</ele>
        <time>2022-02-25T22:02:10Z</time>
      </trkpt>
      <trkpt lat="40.499170" lon="-4.421930">
        <ele>849.708</ele>
        <time>2022-02-25T22:02:50Z</time>
      </trkpt>
      <trkpt lat="40.499150" lon="-4.421990">
        <ele>850.917</ele>
        <time>2022-02-25T22:03:30Z</time>
      </trkpt>
      <trkpt lat="40.499140" lon="-4.422050">
        <ele>852.154</ele>
        <time>2022-02-25T22:04:10Z</time>
      </trkpt>
      <trkpt lat="40.499150" lon="-4.422120">
        <ele>853.738</ele>
        <time>2022-02-25T22:04:50Z</time>
      </trkpt>
      <trkpt lat="40.499160" lon="-4.422180">
        <ele>855.027</ele>
        <time>2022-02-25T22:05:30Z</time>
      </trkpt>
      <trkpt lat="40.499210" lon="-4.422340">
        <ele>859.187</ele>
        <time>2022-02-25T22:06:10Z</time>
      </trkpt>
      <trkpt lat="40.499280" lon="-4.422510">
        <ele>863.720</ele>
        <time>2022-02-25T22:06:50Z</time>
      </trkpt>
      <trkpt lat="40.499390" lon="-4.422700">
        <ele>869.035</ele>
        <time>2022-02-25T22:07:30Z</time>
      </trkpt>
      <trkpt lat="40.499450" lon="-4.422820">
        <ele>871.733</ele>
        <time>2022-02-25T22:08:10Z</time>
      </trkpt>
      <trkpt lat="40.499530" lon="-4.422970">
        <ele>873.483</ele>
        <time>2022-02-25T22:08:50Z</time>
      </trkpt>
      <trkpt lat="40.499560" lon="-4.423050">
        <ele>874.325</ele>
        <time>2022-02-25T22:09:30Z</time>
      </trkpt>
      <trkpt lat="40.499620" lon="-4.423210">
        <ele>875.017</ele>
        <time>2022-02-25T22:10:10Z</time>
      </trkpt>
      <trkpt lat="40.499622" lon="-4.423214">
        <ele>875.008</ele>
        <time>2022-02-25T22:10:50Z</time>
      </trkpt>
      <trkpt lat="40.499580" lon="-4.423230">
        <ele>875.947</ele>
        <time>2022-02-25T22:11:30Z</time>
      </trkpt>
      <trkpt lat="40.499540" lon="-4.423250">
        <ele>876.974</ele>
        <time>2022-02-25T22:12:10Z</time>
      </trkpt>
      <trkpt lat="40.499540" lon="-4.423260">
        <ele>877.148</ele>
        <time>2022-02-25T22:12:50Z</time>
      </trkpt>
      <trkpt lat="40.499500" lon="-4.423290">
        <ele>878.257</ele>
        <time>2022-02-25T22:13:30Z</time>
      </trkpt>
      <trkpt lat="40.499470" lon="-4.423330">
        <ele>879.467</ele>
        <time>2022-02-25T22:14:10Z</time>
      </trkpt>
      <trkpt lat="40.499450" lon="-4.423380">
        <ele>880.130</ele>
        <time>2022-02-25T22:14:50Z</time>
      </trkpt>
      <trkpt lat="40.499440" lon="-4.423410">
        <ele>880.395</ele>
        <time>2022-02-25T22:15:30Z</time>
      </trkpt>
      <trkpt lat="40.499430" lon="-4.423460">
        <ele>880.593</ele>
        <time>2022-02-25T22:16:10Z</time>
      </trkpt>
      <trkpt lat="40.499440" lon="-4.423520">
        <ele>880.727</ele>
        <time>2022-02-25T22:16:50Z</time>
      </trkpt>
      <trkpt lat="40.499440" lon="-4.423550">
        <ele>880.868</ele>
        <time>2022-02-25T22:17:30Z</time>
      </trkpt>
      <trkpt lat="40.499450" lon="-4.423600">
        <ele>880.914</ele>
        <time>2022-02-25T22:18:10Z</time>
      </trkpt>
      <trkpt lat="40.499460" lon="-4.423640">
        <ele>880.908</ele>
        <time>2022-02-25T22:18:50Z</time>
      </trkpt>
      <trkpt lat="40.499470" lon="-4.423670">
        <ele>880.961</ele>
        <time>2022-02-25T22:19:30Z</time>
      </trkpt>
      <trkpt lat="40.499500" lon="-4.423710">
        <ele>880.638</ele>
        <time>2022-02-25T22:20:10Z</time>
      </trkpt>
      <trkpt lat="40.499530" lon="-4.423760">
        <ele>880.542</ele>
        <time>2022-02-25T22:20:50Z</time>
      </trkpt>
      <trkpt lat="40.499560" lon="-4.423850">
        <ele>880.611</ele>
        <time>2022-02-25T22:21:30Z</time>
      </trkpt>
      <trkpt lat="40.499590" lon="-4.423970">
        <ele>880.981</ele>
        <time>2022-02-25T22:22:10Z</time>
      </trkpt>
      <trkpt lat="40.499590" lon="-4.423980">
        <ele>880.974</ele>
        <time>2022-02-25T22:22:50Z</time>
      </trkpt>
      <trkpt lat="40.499610" lon="-4.424080">
        <ele>881.379</ele>
        <time>2022-02-25T22:23:30Z</time>
      </trkpt>
      <trkpt lat="40.499620" lon="-4.424220">
        <ele>881.977</ele>
        <time>2022-02-25T22:24:10Z</time>
      </trkpt>
      <trkpt lat="40.499640" lon="-4.424570">
        <ele>883.056</ele>
        <time>2022-02-25T22:24:50Z</time>
      </trkpt>
      <trkpt lat="40.499650" lon="-4.424920">
        <ele>884.259</ele>
        <time>2022-02-25T22:25:30Z</time>
      </trkpt>
      <trkpt lat="40.499690" lon="-4.425130">
        <ele>885.114</ele>
        <time>2022-02-25T22:26:10Z</time>
      </trkpt>
      <trkpt lat="40.499685" lon="-4.425128">
        <ele>885.108</ele>
        <time>2022-02-25T22:26:50Z</time>
      </trkpt>
      <trkpt lat="40.499700" lon="-4.425130">
        <ele>885.194</ele>
        <time>2022-02-25T22:27:30Z</time>
      </trkpt>
      <trkpt lat="40.499710" lon="-4.425130">
        <ele>885.051</ele>
        <time>2022-02-25T22:28:10Z</time>
      </trkpt>
      <trkpt lat="40.499720" lon="-4.425130">
        <ele>884.975</ele>
        <time>2022-02-25T22:28:50Z</time>
      </trkpt>
      <trkpt lat="40.499720" lon="-4.425140">
        <ele>885.084</ele>
        <time>2022-02-25T22:29:30Z</time>
      </trkpt>
      <trkpt lat="40.499730" lon="-4.425140">
        <ele>884.994</ele>
        <time>2022-02-25T22:30:10Z</time>
      </trkpt>
      <trkpt lat="40.499740" lon="-4.425140">
        <ele>884.897</ele>
        <time>2022-02-25T22:30:50Z</time>
      </trkpt>
      <trkpt lat="40.499740" lon="-4.425150">
        <ele>884.912</ele>
        <time>2022-02-25T22:31:30Z</time>
      </trkpt>
      <trkpt lat="40.499750" lon="-4.425150">
        <ele>884.860</ele>
        <time>2022-02-25T22:32:10Z</time>
      </trkpt>
      <trkpt lat="40.499750" lon="-4.425160">
        <ele>884.976</ele>
        <time>2022-02-25T22:32:50Z</time>
      </trkpt>
      <trkpt lat="40.499760" lon="-4.425170">
        <ele>884.890</ele>
        <time>2022-02-25T22:33:30Z</time>
      </trkpt>
      <trkpt lat="40.499760" lon="-4.425180">
        <ele>884.919</ele>
        <time>2022-02-25T22:34:10Z</time>
      </trkpt>
      <trkpt lat="40.499770" lon="-4.425180">
        <ele>884.808</ele>
        <time>2022-02-25T22:34:50Z</time>
      </trkpt>
      <trkpt lat="40.499770" lon="-4.425190">
        <ele>884.966</ele>
        <time>2022-02-25T22:35:30Z</time>
      </trkpt>
      <trkpt lat="40.499770" lon="-4.425200">
        <ele>884.993</ele>
        <time>2022-02-25T22:36:10Z</time>
      </trkpt>
      <trkpt lat="40.499770" lon="-4.425210">
        <ele>885.077</ele>
        <time>2022-02-25T22:36:50Z</time>
      </trkpt>
      <trkpt lat="40.499770" lon="-4.425220">
        <ele>885.196</ele>
        <time>2022-02-25T22:37:30Z</time>
      </trkpt>
      <trkpt lat="40.499780" lon="-4.425230">
        <ele>885.066</ele>
        <time>2022-02-25T22:38:10Z</time>
      </trkpt>
      <trkpt lat="40.499780" lon="-4.425240">
        <ele>885.139</ele>
        <time>2022-02-25T22:38:50Z</time>
      </trkpt>
      <trkpt lat="40.499780" lon="-4.425250">
        <ele>885.234</ele>
        <time>2022-02-25T22:39:30Z</time>
      </trkpt>
      <trkpt lat="40.499770" lon="-4.425260">
        <ele>885.432</ele>
        <time>2022-02-25T22:40:10Z</time>
      </trkpt>
      <trkpt lat="40.499770" lon="-4.425270">
        <ele>885.463</ele>
        <time>2022-02-25T22:40:50Z</time>
      </trkpt>
      <trkpt lat="40.499770" lon="-4.425280">
        <ele>885.544</ele>
        <time>2022-02-25T22:41:30Z</time>
      </trkpt>
      <trkpt lat="40.499770" lon="-4.425290">
        <ele>885.518</ele>
        <time>2022-02-25T22:42:10Z</time>
      </trkpt>
      <trkpt lat="40.499760" lon="-4.425290">
        <ele>885.608</ele>
        <time>2022-02-25T22:42:50Z</time>
      </trkpt>
      <trkpt lat="40.499760" lon="-4.425300">
        <ele>885.785</ele>
        <time>2022-02-25T22:43:30Z</time>
      </trkpt>
      <trkpt lat="40.499760" lon="-4.425310">
        <ele>885.722</ele>
        <time>2022-02-25T22:44:10Z</time>
      </trkpt>
      <trkpt lat="40.499750" lon="-4.425310">
        <ele>885.846</ele>
        <time>2022-02-25T22:44:50Z</time>
      </trkpt>
      <trkpt lat="40.499750" lon="-4.425320">
        <ele>885.935</ele>
        <time>2022-02-25T22:45:30Z</time>
      </trkpt>
      <trkpt lat="40.499740" lon="-4.425320">
        <ele>886.045</ele>
        <time>2022-02-25T22:46:10Z</time>
      </trkpt>
      <trkpt lat="40.499740" lon="-4.425330">
        <ele>886.058</ele>
        <time>2022-02-25T22:46:50Z</time>
      </trkpt>
      <trkpt lat="40.499730" lon="-4.425330">
        <ele>886.133</ele>
        <time>2022-02-25T22:47:30Z</time>
      </trkpt>
      <trkpt lat="40.499730" lon="-4.425340">
        <ele>886.131</ele>
        <time>2022-02-25T22:48:10Z</time>
      </trkpt>
      <trkpt lat="40.499720" lon="-4.425340">
        <ele>886.273</ele>
        <time>2022-02-25T22:48:50Z</time>
      </trkpt>
      <trkpt lat="40.499710" lon="-4.425340">
        <ele>886.385</ele>
        <time>2022-02-25T22:49:30Z</time>
      </trkpt>
      <trkpt lat="40.499710" lon="-4.425350">
        <ele>886.313</ele>
        <time>2022-02-25T22:50:10Z</time>
      </trkpt>
      <trkpt lat="40.499700" lon="-4.425350">
        <ele>886.308</ele>
        <time>2022-02-25T22:50:50Z</time>
      </trkpt>
      <trkpt lat="40.499690" lon="-4.425350">
        <ele>886.436</ele>
        <time>2022-02-25T22:51:30Z</time>
      </trkpt>
      <trkpt lat="40.499680" lon="-4.425350">
        <ele>886.483</ele>
        <time>2022-02-25T22:52:10Z</time>
      </trkpt>
      <trkpt lat="40.499670" lon="-4.425340">
        <ele>886.457</ele>
        <time>2022-02-25T22:52:50Z</time>
      </trkpt>
      <trkpt lat="40.499660" lon="-4.425340">
        <ele>886.496</ele>
        <time>2022-02-25T22:53:30Z</time>
      </trkpt>
      <trkpt lat="40.499620" lon="-4.425390">
        <ele>886.876</ele>
        <time>2022-02-25T22:54:10Z</time>
      </trkpt>
      <trkpt lat="40.499460" lon="-4.425620">
        <ele>888.289</ele>
        <time>2022-02-25T22:54:50Z</time>
      </trkpt>
      <trkpt lat="40.499330" lon="-4.425820">
        <ele>888.584</ele>
        <time>2022-02-25T22:55:30Z</time>
      </trkpt>
      <trkpt lat="40.499170" lon="-4.426050">
        <ele>888.822</ele>
        <time>2022-02-25T22:56:10Z</time>
      </trkpt>
      <trkpt lat="40.499050" lon="-4.426220">
        <ele>888.658</ele>
        <time>2022-02-25T22:56:50Z</time>
      </trkpt>
      <trkpt lat="40.498950" lon="-4.426350">
        <ele>888.352</ele>
        <time>2022-02-25T22:57:30Z</time>
      </trkpt>
      <trkpt lat="40.498930" lon="-4.426390">
        <ele>888.317</ele>
        <time>2022-02-25T22:58:10Z</time>
      </trkpt>
      <trkpt lat="40.498760" lon="-4.426650">
        <ele>888.008</ele>
        <time>2022-02-25T22:58:50Z</time>
      </trkpt>
      <trkpt lat="40.498764" lon="-4.426654">
        <ele>888.194</ele>
        <time>2022-02-25T22:59:30Z</time>
      </trkpt>
      <trkpt lat="40.499140" lon="-4.426920">
        <ele>893.521</ele>
        <time>2022-02-25T23:00:10Z</time>
      </trkpt>
      <trkpt lat="40.499530" lon="-4.427160">
        <ele>897.125</ele>
        <time>2022-02-25T23:00:50Z</time>
      </trkpt>
      <trkpt lat="40.499630" lon="-4.427230">
        <ele>898.454</ele>
        <time>2022-02-25T23:01:30Z</time>
      </trkpt>
      <trkpt lat="40.499660" lon="-4.427260">
        <ele>898.814</ele>
        <time>2022-02-25T23:02:10Z</time>
      </trkpt>
      <trkpt lat="40.499700" lon="-4.427290">
        <ele>899.387</ele>
        <time>2022-02-25T23:02:50Z</time>
      </trkpt>
      <trkpt lat="40.499730" lon="-4.427320">
        <ele>899.732</ele>
        <time>2022-02-25T23:03:30Z</time>
      </trkpt>
      <trkpt lat="40.499750" lon="-4.427350">
        <ele>899.940</ele>
        <time>2022-02-25T23:04:10Z</time>
      </trkpt>
      <trkpt lat="40.499770" lon="-4.427380">
        <ele>900.125</ele>
        <time>2022-02-25T23:04:50Z</time>
      </trkpt>
      <trkpt lat="40.499790" lon="-4.427410">
        <ele>900.426</ele>
        <time>2022-02-25T23:05:30Z</time>
      </trkpt>
      <trkpt lat="40.499800" lon="-4.427440">
        <ele>900.608</ele>
        <time>2022-02-25T23:06:10Z</time>
      </trkpt>
      <trkpt lat="40.499860" lon="-4.427580">
        <ele>901.408</ele>
        <time>2022-02-25T23:06:50Z</time>
      </trkpt>
      <trkpt lat="40.499920" lon="-4.427770">
        <ele>902.771</ele>
        <time>2022-02-25T23:07:30Z</time>
      </trkpt>
      <trkpt lat="40.499930" lon="-4.427830">
        <ele>903.078</ele>
        <time>2022-02-25T23:08:10Z</time>
      </trkpt>
      <trkpt lat="40.499960" lon="-4.427970">
        <ele>903.622</ele>
        <time>2022-02-25T23:08:50Z</time>
      </trkpt>
      <trkpt lat="40.500030" lon="-4.428320">
        <ele>905.611</ele>
        <time>2022-02-25T23:09:30Z</time>
      </trkpt>
      <trkpt lat="40.500090" lon="-4.428610">
        <ele>907.041</ele>
        <time>2022-02-25T23:10:10Z</time>
      </trkpt>
      <trkpt lat="40.500100" lon="-4.428680">
        <ele>907.254</ele>
        <time>2022-02-25T23:10:50Z</time>
      </trkpt>
      <trkpt lat="40.500140" lon="-4.428890">
        <ele>907.569</ele>
        <time>2022-02-25T23:11:30Z</time>
      </trkpt>
      <trkpt lat="40.500180" lon="-4.429050">
        <ele>908.247</ele>
        <time>2022-02-25T23:12:10Z</time>
      </trkpt>
      <trkpt lat="40.500240" lon="-4.429280">
        <ele>909.213</ele>
        <time>2022-02-25T23:12:50Z</time>
      </trkpt>
      <trkpt lat="40.500270" lon="-4.429360">
        <ele>909.543</ele>
        <time>2022-02-25T23:13:30Z</time>
      </trkpt>
      <trkpt lat="40.500330" lon="-4.429560">
        <ele>910.307</ele>
        <time>2022-02-25T23:14:10Z</time>
      </trkpt>
      <trkpt lat="40.500410" lon="-4.429780">
        <ele>911.208</ele>
        <time>2022-02-25T23:14:50Z</time>
      </trkpt>
      <trkpt lat="40.500470" lon="-4.429910">
        <ele>911.710</ele>
        <time>2022-02-25T23:15:30Z</time>
      </trkpt>
      <trkpt lat="40.500760" lon="-4.430660">
        <ele>914.417</ele>
        <time>2022-02-25T23:16:10Z</time>
      </trkpt>
      <trkpt lat="40.500820" lon="-4.430770">
        <ele>914.881</ele>
        <time>2022-02-25T23:16:50Z</time>
      </trkpt>
      <trkpt lat="40.501020" lon="-4.431320">
        <ele>918.210</ele>
        <time>2022-02-25T23:17:30Z</time>
      </trkpt>
      <trkpt lat="40.501140" lon="-4.431640">
        <ele>920.280</ele>
        <time>2022-02-25T23:18:10Z</time>
      </trkpt>
      <trkpt lat="40.501180" lon="-4.431730">
        <ele>921.143</ele>
        <time>2022-02-25T23:18:50Z</time>
      </trkpt>
      <trkpt lat="40.501250" lon="-4.431930">
        <ele>922.958</ele>
        <time>2022-02-25T23:19:30Z</time>
      </trkpt>
      <trkpt lat="40.501370" lon="-4.432210">
        <ele>924.816</ele>
        <time>2022-02-25T23:20:10Z</time>
      </trkpt>
      <trkpt lat="40.501460" lon="-4.432450">
        <ele>926.533</ele>
        <time>2022-02-25T23:20:50Z</time>
      </trkpt>
      <trkpt lat="40.501490" lon="-4.432530">
        <ele>927.223</ele>
        <time>2022-02-25T23:21:30Z</time>
      </trkpt>
      <trkpt lat="40.501560" lon="-4.432720">
        <ele>928.615</ele>
        <time>2022-02-25T23:22:10Z</time>
      </trkpt>
      <trkpt lat="40.501610" lon="-4.432880">
        <ele>929.808</ele>
        <time>2022-02-25T23:22:50Z</time>
      </trkpt>
      <trkpt lat="40.501620" lon="-4.432950">
        <ele>930.142</ele>
        <time>2022-02-25T23:23:30Z</time>
      </trkpt>
      <trkpt lat="40.501630" lon="-4.432960">
        <ele>930.389</ele>
        <time>2022-02-25T23:24:10Z</time>
      </trkpt>
      <trkpt lat="40.501630" lon="-4.433030">
        <ele>930.533</ele>
        <time>2022-02-25T23:24:50Z</time>
      </trkpt>
      <trkpt lat="40.501640" lon="-4.433080">
        <ele>930.892</ele>
        <time>2022-02-25T23:25:30Z</time>
      </trkpt>
      <trkpt lat="40.501640" lon="-4.433160">
        <ele>931.182</ele>
        <time>2022-02-25T23:26:10Z</time>
      </trkpt>
      <trkpt lat="40.501640" lon="-4.433190">
        <ele>931.295</ele>
        <time>2022-02-25T23:26:50Z</time>
      </trkpt>
      <trkpt lat="40.501640" lon="-4.433430">
        <ele>932.190</ele>
        <time>2022-02-25T23:27:30Z</time>
      </trkpt>
      <trkpt lat="40.501640" lon="-4.433570">
        <ele>932.688</ele>
        <time>2022-02-25T23:28:10Z</time>
      </trkpt>
      <trkpt lat="40.501640" lon="-4.433670">
        <ele>933.138</ele>
        <time>2022-02-25T23:28:50Z</time>
      </trkpt>
      <trkpt lat="40.501640" lon="-4.433900">
        <ele>934.770</ele>
        <time>2022-02-25T23:29:30Z</time>
      </trkpt>
      <trkpt lat="40.501640" lon="-4.434200">
        <ele>935.817</ele>
        <time>2022-02-25T23:30:10Z</time>
      </trkpt>
      <trkpt lat="40.501640" lon="-4.434540">
        <ele>937.208</ele>
        <time>2022-02-25T23:30:50Z</time>
      </trkpt>
      <trkpt lat="40.501630" lon="-4.434850">
        <ele>938.762</ele>
        <time>2022-02-25T23:31:30Z</time>
      </trkpt>
      <trkpt lat="40.501620" lon="-4.434900">
        <ele>939.019</ele>
        <time>2022-02-25T23:32:10Z</time>
      </trkpt>
      <trkpt lat="40.501590" lon="-4.435140">
        <ele>940.133</ele>
        <time>2022-02-25T23:32:50Z</time>
      </trkpt>
      <trkpt lat="40.501590" lon="-4.435190">
        <ele>940.322</ele>
        <time>2022-02-25T23:33:30Z</time>
      </trkpt>
      <trkpt lat="40.501550" lon="-4.435370">
        <ele>941.412</ele>
        <time>2022-02-25T23:34:10Z</time>
      </trkpt>
      <trkpt lat="40.501530" lon="-4.435420">
        <ele>941.895</ele>
        <time>2022-02-25T23:34:50Z</time>
      </trkpt>
      <trkpt lat="40.501510" lon="-4.435630">
        <ele>942.960</ele>
        <time>2022-02-25T23:35:30Z</time>
      </trkpt>
      <trkpt lat="40.501530" lon="-4.435790">
        <ele>943.048</ele>
        <time>2022-02-25T23:36:10Z</time>
      </trkpt>
      <trkpt lat="40.501540" lon="-4.435830">
        <ele>943.115</ele>
        <time>2022-02-25T23:36:50Z</time>
      </trkpt>
      <trkpt lat="40.501600" lon="-4.436020">
        <ele>942.865</ele>
        <time>2022-02-25T23:37:30Z</time>
      </trkpt>
      <trkpt lat="40.501610" lon="-4.436050">
        <ele>942.811</ele>
        <time>2022-02-25T23:38:10Z</time>
      </trkpt>
      <trkpt lat="40.501740" lon="-4.436310">
        <ele>943.808</ele>
        <time>2022-02-25T23:38:50Z</time>
      </trkpt>
      <trkpt lat="40.501830" lon="-4.436480">
        <ele>945.710</ele>
        <time>2022-02-25T23:39:30Z</time>
      </trkpt>
      <trkpt lat="40.501870" lon="-4.436560">
        <ele>946.887</ele>
        <time>2022-02-25T23:40:10Z</time>
      </trkpt>
      <trkpt lat="40.501930" lon="-4.436690">
        <ele>948.711</ele>
        <time>2022-02-25T23:40:50Z</time>
      </trkpt>
      <trkpt lat="40.501960" lon="-4.436800">
        <ele>949.810</ele>
        <time>2022-02-25T23:41:30Z</time>
      </trkpt>
      <trkpt lat="40.501980" lon="-4.436900">
        <ele>950.550</ele>
        <time>2022-02-25T23:42:10Z</time>
      </trkpt>
      <trkpt lat="40.502000" lon="-4.437000">
        <ele>951.283</ele>
        <time>2022-02-25T23:42:50Z</time>
      </trkpt>
      <trkpt lat="40.502010" lon="-4.437180">
        <ele>952.068</ele>
        <time>2022-02-25T23:43:30Z</time>
      </trkpt>
      <trkpt lat="40.502010" lon="-4.437290">
        <ele>952.436</ele>
        <time>2022-02-25T23:44:10Z</time>
      </trkpt>
      <trkpt lat="40.502010" lon="-4.437300">
        <ele>952.566</ele>
        <time>2022-02-25T23:44:50Z</time>
      </trkpt>
      <trkpt lat="40.502020" lon="-4.437400">
        <ele>953.029</ele>
        <time>2022-02-25T23:45:30Z</time>
      </trkpt>
      <trkpt lat="40.502030" lon="-4.437500">
        <ele>953.521</ele>
        <time>2022-02-25T23:46:10Z</time>
      </trkpt>
      <trkpt lat="40.502050" lon="-4.437600">
        <ele>953.808</ele>
        <time>2022-02-25T23:46:50Z</time>
      </trkpt>
      <trkpt lat="40.502070" lon="-4.437670">
        <ele>954.065</ele>
        <time>2022-02-25T23:47:30Z</time>
      </trkpt>
      <trkpt lat="40.502100" lon="-4.437750">
        <ele>954.372</ele>
        <time>2022-02-25T23:48:10Z</time>
      </trkpt>
      <trkpt lat="40.502130" lon="-4.437810">
        <ele>954.516</ele>
        <time>2022-02-25T23:48:50Z</time>
      </trkpt>
      <trkpt lat="40.502170" lon="-4.437880">
        <ele>954.655</ele>
        <time>2022-02-25T23:49:30Z</time>
      </trkpt>
      <trkpt lat="40.502220" lon="-4.437930">
        <ele>954.915</ele>
        <time>2022-02-25T23:50:10Z</time>
      </trkpt>
      <trkpt lat="40.502290" lon="-4.438010">
        <ele>955.168</ele>
        <time>2022-02-25T23:50:50Z</time>
      </trkpt>
      <trkpt lat="40.502480" lon="-4.438200">
        <ele>956.783</ele>
        <time>2022-02-25T23:51:30Z</time>
      </trkpt>
      <trkpt lat="40.502560" lon="-4.438280">
        <ele>958.121</ele>
        <time>2022-02-25T23:52:10Z</time>
      </trkpt>
      <trkpt lat="40.502630" lon="-4.438370">
        <ele>959.542</ele>
        <time>2022-02-25T23:52:50Z</time>
      </trkpt>
      <trkpt lat="40.502630" lon="-4.438380">
        <ele>959.522</ele>
        <time>2022-02-25T23:53:30Z</time>
      </trkpt>
      <trkpt lat="40.502690" lon="-4.438490">
        <ele>961.214</ele>
        <time>2022-02-25T23:54:10Z</time>
      </trkpt>
      <trkpt lat="40.502710" lon="-4.438560">
        <ele>962.008</ele>
        <time>2022-02-25T23:54:50Z</time>
      </trkpt>
      <trkpt lat="40.502720" lon="-4.438580">
        <ele>962.413</ele>
        <time>2022-02-25T23:55:30Z</time>
      </trkpt>
      <trkpt lat="40.502730" lon="-4.438630">
        <ele>962.950</ele>
        <time>2022-02-25T23:56:10Z</time>
      </trkpt>
      <trkpt lat="40.502750" lon="-4.438730">
        <ele>964.264</ele>
        <time>2022-02-25T23:56:50Z</time>
      </trkpt>
      <trkpt lat="40.502750" lon="-4.438810">
        <ele>964.863</ele>
        <time>2022-02-25T23:57:30Z</time>
      </trkpt>
      <trkpt lat="40.502750" lon="-4.438820">
        <ele>964.943</ele>
        <time>2022-02-25T23:58:10Z</time>
      </trkpt>
      <trkpt lat="40.502750" lon="-4.438840">
        <ele>965.056</ele>
        <time>2022-02-25T23:58:50Z</time>
      </trkpt>
      <trkpt lat="40.502750" lon="-4.439050">
        <ele>966.491</ele>
        <time>2022-02-25T23:59:30Z</time>
      </trkpt>
      <trkpt lat="40.502750" lon="-4.439070">
        <ele>966.669</ele>
        <time>2022-02-26T00:00:10Z</time>
      </trkpt>
      <trkpt lat="40.502760" lon="-4.439190">
        <ele>967.642</ele>
        <time>2022-02-26T00:00:50Z</time>
      </trkpt>
      <trkpt lat="40.502770" lon="-4.439280">
        <ele>968.122</ele>
        <time>2022-02-26T00:01:30Z</time>
      </trkpt>
      <trkpt lat="40.502790" lon="-4.439380">
        <ele>968.914</ele>
        <time>2022-02-26T00:02:10Z</time>
      </trkpt>
      <trkpt lat="40.502840" lon="-4.439470">
        <ele>969.508</ele>
        <time>2022-02-26T00:02:50Z</time>
      </trkpt>
      <trkpt lat="40.502860" lon="-4.439490">
        <ele>969.653</ele>
        <time>2022-02-26T00:03:30Z</time>
      </trkpt>
      <trkpt lat="40.502920" lon="-4.439570">
        <ele>969.980</ele>
        <time>2022-02-26T00:04:10Z</time>
      </trkpt>
      <trkpt lat="40.503000" lon="-4.439630">
        <ele>970.644</ele>
        <time>2022-02-26T00:04:50Z</time>
      </trkpt>
      <trkpt lat="40.503080" lon="-4.439660">
        <ele>971.393</ele>
        <time>2022-02-26T00:05:30Z</time>
      </trkpt>
      <trkpt lat="40.503170" lon="-4.439660">
        <ele>971.753</ele>
        <time>2022-02-26T00:06:10Z</time>
      </trkpt>
      <trkpt lat="40.503180" lon="-4.439660">
        <ele>971.886</ele>
        <time>2022-02-26T00:06:50Z</time>
      </trkpt>
      <trkpt lat="40.503260" lon="-4.439640">
        <ele>972.251</ele>
        <time>2022-02-26T00:07:30Z</time>
      </trkpt>
      <trkpt lat="40.503350" lon="-4.439580">
        <ele>973.239</ele>
        <time>2022-02-26T00:08:10Z</time>
      </trkpt>
      <trkpt lat="40.503370" lon="-4.439570">
        <ele>973.545</ele>
        <time>2022-02-26T00:08:50Z</time>
      </trkpt>
      <trkpt lat="40.503480" lon="-4.439450">
        <ele>975.547</ele>
        <time>2022-02-26T00:09:30Z</time>
      </trkpt>
      <trkpt lat="40.503620" lon="-4.439280">
        <ele>977.111</ele>
        <time>2022-02-26T00:10:10Z</time>
      </trkpt>
      <trkpt lat="40.503800" lon="-4.439080">
        <ele>978.808</ele>
        <time>2022-02-26T00:10:50Z</time>
      </trkpt>
      <trkpt lat="40.503900" lon="-4.438980">
        <ele>979.463</ele>
        <time>2022-02-26T00:11:30Z</time>
      </trkpt>
      <trkpt lat="40.503920" lon="-4.438950">
        <ele>979.520</ele>
        <time>2022-02-26T00:12:10Z</time>
      </trkpt>
      <trkpt lat="40.504020" lon="-4.438890">
        <ele>980.424</ele>
        <time>2022-02-26T00:12:50Z</time>
      </trkpt>
      <trkpt lat="40.504140" lon="-4.438860">
        <ele>981.723</ele>
        <time>2022-02-26T00:13:30Z</time>
      </trkpt>
      <trkpt lat="40.504240" lon="-4.438860">
        <ele>982.813</ele>
        <time>2022-02-26T00:14:10Z</time>
      </trkpt>
      <trkpt lat="40.504320" lon="-4.438870">
        <ele>983.716</ele>
        <time>2022-02-26T00:14:50Z</time>
      </trkpt>
      <trkpt lat="40.504410" lon="-4.438910">
        <ele>984.711</ele>
        <time>2022-02-26T00:15:30Z</time>
      </trkpt>
      <trkpt lat="40.504480" lon="-4.438950">
        <ele>985.669</ele>
        <time>2022-02-26T00:16:10Z</time>
      </trkpt>
      <trkpt lat="40.504530" lon="-4.439000">
        <ele>986.353</ele>
        <time>2022-02-26T00:16:50Z</time>
      </trkpt>
      <trkpt lat="40.504570" lon="-4.439030">
        <ele>986.904</ele>
        <time>2022-02-26T00:17:30Z</time>
      </trkpt>
      <trkpt lat="40.504620" lon="-4.439080">
        <ele>987.614</ele>
        <time>2022-02-26T00:18:10Z</time>
      </trkpt>
      <trkpt lat="40.504720" lon="-4.439210">
        <ele>988.808</ele>
        <time>2022-02-26T00:18:50Z</time>
      </trkpt>
      <trkpt lat="40.504910" lon="-4.439430">
        <ele>989.454</ele>
        <time>2022-02-26T00:19:30Z</time>
      </trkpt>
      <trkpt lat="40.504980" lon="-4.439500">
        <ele>989.751</ele>
        <time>2022-02-26T00:20:10Z</time>
      </trkpt>
      <trkpt lat="40.505050" lon="-4.439560">
        <ele>990.165</ele>
        <time>2022-02-26T00:20:50Z</time>
      </trkpt>
      <trkpt lat="40.505160" lon="-4.439640">
        <ele>991.084</ele>
        <time>2022-02-26T00:21:30Z</time>
      </trkpt>
      <trkpt lat="40.505300" lon="-4.439710">
        <ele>992.324</ele>
        <time>2022-02-26T00:22:10Z</time>
      </trkpt>
      <trkpt lat="40.505420" lon="-4.439750">
        <ele>993.497</ele>
        <time>2022-02-26T00:22:50Z</time>
      </trkpt>
      <trkpt lat="40.505470" lon="-4.439760">
        <ele>993.972</ele>
        <time>2022-02-26T00:23:30Z</time>
      </trkpt>
      <trkpt lat="40.505500" lon="-4.439760">
        <ele>994.350</ele>
        <time>2022-02-26T00:24:10Z</time>
      </trkpt>
      <trkpt lat="40.505580" lon="-4.439760">
        <ele>995.165</ele>
        <time>2022-02-26T00:24:50Z</time>
      </trkpt>
      <trkpt lat="40.505670" lon="-4.439740">
        <ele>995.868</ele>
        <time>2022-02-26T00:25:30Z</time>
      </trkpt>
      <trkpt lat="40.505910" lon="-4.439620">
        <ele>998.114</ele>
        <time>2022-02-26T00:26:10Z</time>
      </trkpt>
      <trkpt lat="40.506040" lon="-4.439530">
        <ele>999.408</ele>
        <time>2022-02-26T00:26:50Z</time>
      </trkpt>
      <trkpt lat="40.506150" lon="-4.439430">
        <ele>1000.485</ele>
        <time>2022-02-26T00:27:30Z</time>
      </trkpt>
      <trkpt lat="40.506170" lon="-4.439420">
        <ele>1000.622</ele>
        <time>2022-02-26T00:28:10Z</time>
      </trkpt>
      <trkpt lat="40.506210" lon="-4.439360">
        <ele>1001.166</ele>
        <time>2022-02-26T00:28:50Z</time>
      </trkpt>
      <trkpt lat="40.506260" lon="-4.439280">
        <ele>1001.645</ele>
        <time>2022-02-26T00:29:30Z</time>
      </trkpt>
      <trkpt lat="40.506300" lon="-4.439200">
        <ele>1002.035</ele>
        <time>2022-02-26T00:30:10Z</time>
      </trkpt>
      <trkpt lat="40.506330" lon="-4.439100">
        <ele>1002.448</ele>
        <time>2022-02-26T00:30:50Z</time>
      </trkpt>
      <trkpt lat="40.506350" lon="-4.439020">
        <ele>1002.653</ele>
        <time>2022-02-26T00:31:30Z</time>
      </trkpt>
      <trkpt lat="40.506490" lon="-4.438520">
        <ele>1004.821</ele>
        <time>2022-02-26T00:32:10Z</time>
      </trkpt>
      <trkpt lat="40.506590" lon="-4.438160">
        <ele>1006.334</ele>
        <time>2022-02-26T00:32:50Z</time>
      </trkpt>
      <trkpt lat="40.506680" lon="-4.437810">
        <ele>1007.955</ele>
        <time>2022-02-26T00:33:30Z</time>
      </trkpt>
      <trkpt lat="40.506770" lon="-4.437520">
        <ele>1009.310</ele>
        <time>2022-02-26T00:34:10Z</time>
      </trkpt>
      <trkpt lat="40.506790" lon="-4.437460">
        <ele>1009.608</ele>
        <time>2022-02-26T00:34:50Z</time>
      </trkpt>
      <trkpt lat="40.506850" lon="-4.437280">
        <ele>1010.512</ele>
        <time>2022-02-26T00:35:30Z</time>
      </trkpt>
      <trkpt lat="40.506920" lon="-4.437110">
        <ele>1011.399</ele>
        <time>2022-02-26T00:36:10Z</time>
      </trkpt>
      <trkpt lat="40.507030" lon="-4.436900">
        <ele>1012.693</ele>
        <time>2022-02-26T00:36:50Z</time>
      </trkpt>
      <trkpt lat="40.507270" lon="-4.436580">
        <ele>1014.732</ele>
        <time>2022-02-26T00:37:30Z</time>
      </trkpt>
      <trkpt lat="40.507850" lon="-4.435860">
        <ele>1020.522</ele>
        <time>2022-02-26T00:38:10Z</time>
      </trkpt>
      <trkpt lat="40.508000" lon="-4.435720">
        <ele>1022.055</ele>
        <time>2022-02-26T00:38:50Z</time>
      </trkpt>
      <trkpt lat="40.508140" lon="-4.435610">
        <ele>1023.470</ele>
        <time>2022-02-26T00:39:30Z</time>
      </trkpt>
      <trkpt lat="40.508270" lon="-4.435530">
        <ele>1024.628</ele>
        <time>2022-02-26T00:40:10Z</time>
      </trkpt>
      <trkpt lat="40.508300" lon="-4.435520">
        <ele>1024.995</ele>
        <time>2022-02-26T00:40:50Z</time>
      </trkpt>
      <trkpt lat="40.508500" lon="-4.435450">
        <ele>1026.649</ele>
        <time>2022-02-26T00:41:30Z</time>
      </trkpt>
      <trkpt lat="40.508650" lon="-4.435400">
        <ele>1028.323</ele>
        <time>2022-02-26T00:42:10Z</time>
      </trkpt>
      <trkpt lat="40.508750" lon="-4.435370">
        <ele>1030.208</ele>
        <time>2022-02-26T00:42:50Z</time>
      </trkpt>
      <trkpt lat="40.508820" lon="-4.435340">
        <ele>1031.558</ele>
        <time>2022-02-26T00:43:30Z</time>
      </trkpt>
      <trkpt lat="40.508890" lon="-4.435320">
        <ele>1032.835</ele>
        <time>2022-02-26T00:44:10Z</time>
      </trkpt>
      <trkpt lat="40.509000" lon="-4.435300">
        <ele>1032.919</ele>
        <time>2022-02-26T00:44:50Z</time>
      </trkpt>
      <trkpt lat="40.509100" lon="-4.435290">
        <ele>1033.098</ele>
        <time>2022-02-26T00:45:30Z</time>
      </trkpt>
      <trkpt lat="40.509180" lon="-4.435290">
        <ele>1032.948</ele>
        <time>2022-02-26T00:46:10Z</time>
      </trkpt>
      <trkpt lat="40.509190" lon="-4.435290">
        <ele>1032.851</ele>
        <time>2022-02-26T00:46:50Z</time>
      </trkpt>
      <trkpt lat="40.509330" lon="-4.435320">
        <ele>1031.756</ele>
        <time>2022-02-26T00:47:30Z</time>
      </trkpt>
      <trkpt lat="40.509360" lon="-4.435330">
        <ele>1031.484</ele>
        <time>2022-02-26T00:48:10Z</time>
      </trkpt>
      <trkpt lat="40.509420" lon="-4.435350">
        <ele>1030.955</ele>
        <time>2022-02-26T00:48:50Z</time>
      </trkpt>
      <trkpt lat="40.509530" lon="-4.435410">
        <ele>1029.607</ele>
        <time>2022-02-26T00:49:30Z</time>
      </trkpt>
      <trkpt lat="40.509570" lon="-4.435430">
        <ele>1029.117</ele>
        <time>2022-02-26T00:50:10Z</time>
      </trkpt>
      <trkpt lat="40.509690" lon="-4.435500">
        <ele>1027.508</ele>
        <time>2022-02-26T00:50:50Z</time>
      </trkpt>
      <trkpt lat="40.509700" lon="-4.435510">
        <ele>1027.494</ele>
        <time>2022-02-26T00:51:30Z</time>
      </trkpt>
      <trkpt lat="40.509830" lon="-4.435600">
        <ele>1027.431</ele>
        <time>2022-02-26T00:52:10Z</time>
      </trkpt>
      <trkpt lat="40.509850" lon="-4.435620">
        <ele>1027.555</ele>
        <time>2022-02-26T00:52:50Z</time>
      </trkpt>
      <trkpt lat="40.509910" lon="-4.435690">
        <ele>1027.794</ele>
        <time>2022-02-26T00:53:30Z</time>
      </trkpt>
      <trkpt lat="40.509980" lon="-4.435780">
        <ele>1027.994</ele>
        <time>2022-02-26T00:54:10Z</time>
      </trkpt>
      <trkpt lat="40.510020" lon="-4.435830">
        <ele>1028.367</ele>
        <time>2022-02-26T00:54:50Z</time>
      </trkpt>
      <trkpt lat="40.510110" lon="-4.435990">
        <ele>1029.012</ele>
        <time>2022-02-26T00:55:30Z</time>
      </trkpt>
      <trkpt lat="40.510190" lon="-4.436160">
        <ele>1029.670</ele>
        <time>2022-02-26T00:56:10Z</time>
      </trkpt>
      <trkpt lat="40.510220" lon="-4.436210">
        <ele>1029.941</ele>
        <time>2022-02-26T00:56:50Z</time>
      </trkpt>
      <trkpt lat="40.510280" lon="-4.436360">
        <ele>1030.181</ele>
        <time>2022-02-26T00:57:30Z</time>
      </trkpt>
      <trkpt lat="40.510370" lon="-4.436570">
        <ele>1030.909</ele>
        <time>2022-02-26T00:58:10Z</time>
      </trkpt>
      <trkpt lat="40.510420" lon="-4.436700">
        <ele>1031.708</ele>
        <time>2022-02-26T00:58:50Z</time>
      </trkpt>
      <trkpt lat="40.510520" lon="-4.437000">
        <ele>1034.533</ele>
        <time>2022-02-26T00:59:30Z</time>
      </trkpt>
      <trkpt lat="40.510560" lon="-4.437110">
        <ele>1035.770</ele>
        <time>2022-02-26T01:00:10Z</time>
      </trkpt>
      <trkpt lat="40.510780" lon="-4.438050">
        <ele>1035.574</ele>
        <time>2022-02-26T01:00:50Z</time>
      </trkpt>
      <trkpt lat="40.510800" lon="-4.438120">
        <ele>1035.453</ele>
        <time>2022-02-26T01:01:30Z</time>
      </trkpt>
      <trkpt lat="40.510830" lon="-4.438240">
        <ele>1035.323</ele>
        <time>2022-02-26T01:02:10Z</time>
      </trkpt>
      <trkpt lat="40.510890" lon="-4.438380">
        <ele>1035.246</ele>
        <time>2022-02-26T01:02:50Z</time>
      </trkpt>
      <trkpt lat="40.510950" lon="-4.438500">
        <ele>1035.231</ele>
        <time>2022-02-26T01:03:30Z</time>
      </trkpt>
      <trkpt lat="40.511080" lon="-4.438730">
        <ele>1035.399</ele>
        <time>2022-02-26T01:04:10Z</time>
      </trkpt>
      <trkpt lat="40.511180" lon="-4.438920">
        <ele>1035.523</ele>
        <time>2022-02-26T01:04:50Z</time>
      </trkpt>
      <trkpt lat="40.511420" lon="-4.439350">
        <ele>1037.083</ele>
        <time>2022-02-26T01:05:30Z</time>
      </trkpt>
      <trkpt lat="40.511600" lon="-4.439690">
        <ele>1040.311</ele>
        <time>2022-02-26T01:06:10Z</time>
      </trkpt>
      <trkpt lat="40.511640" lon="-4.439760">
        <ele>1041.208</ele>
        <time>2022-02-26T01:06:50Z</time>
      </trkpt>
      <trkpt lat="40.511700" lon="-4.439880">
        <ele>1042.221</ele>
        <time>2022-02-26T01:07:30Z</time>
      </trkpt>
      <trkpt lat="40.511710" lon="-4.439890">
        <ele>1042.438</ele>
        <time>2022-02-26T01:08:10Z</time>
      </trkpt>
      <trkpt lat="40.511740" lon="-4.439990">
        <ele>1042.932</ele>
        <time>2022-02-26T01:08:50Z</time>
      </trkpt>
      <trkpt lat="40.511760" lon="-4.440100">
        <ele>1043.531</ele>
        <time>2022-02-26T01:09:30Z</time>
      </trkpt>
      <trkpt lat="40.511760" lon="-4.440110">
        <ele>1043.511</ele>
        <time>2022-02-26T01:10:10Z</time>
      </trkpt>
      <trkpt lat="40.511770" lon="-4.440230">
        <ele>1043.964</ele>
        <time>2022-02-26T01:10:50Z</time>
      </trkpt>
      <trkpt lat="40.511770" lon="-4.440340">
        <ele>1044.069</ele>
        <time>2022-02-26T01:11:30Z</time>
      </trkpt>
      <trkpt lat="40.511770" lon="-4.440350">
        <ele>1044.047</ele>
        <time>2022-02-26T01:12:10Z</time>
      </trkpt>
      <trkpt lat="40.511760" lon="-4.440480">
        <ele>1043.776</ele>
        <time>2022-02-26T01:12:50Z</time>
      </trkpt>
      <trkpt lat="40.511750" lon="-4.440580">
        <ele>1043.390</ele>
        <time>2022-02-26T01:13:30Z</time>
      </trkpt>
      <trkpt lat="40.511750" lon="-4.440610">
        <ele>1043.319</ele>
        <time>2022-02-26T01:14:10Z</time>
      </trkpt>
      <trkpt lat="40.511750" lon="-4.440750">
        <ele>1042.908</ele>
        <time>2022-02-26T01:14:50Z</time>
      </trkpt>
      <trkpt lat="40.511760" lon="-4.441020">
        <ele>1043.076</ele>
        <time>2022-02-26T01:15:30Z</time>
      </trkpt>
      <trkpt lat="40.511770" lon="-4.441160">
        <ele>1043.343</ele>
        <time>2022-02-26T01:16:10Z</time>
      </trkpt>
      <trkpt lat="40.511770" lon="-4.441260">
        <ele>1043.397</ele>
        <time>2022-02-26T01:16:50Z</time>
      </trkpt>
      <trkpt lat="40.511790" lon="-4.441490">
        <ele>1043.876</ele>
        <time>2022-02-26T01:17:30Z</time>
      </trkpt>
      <trkpt lat="40.511810" lon="-4.441720">
        <ele>1044.076</ele>
        <time>2022-02-26T01:18:10Z</time>
      </trkpt>
      <trkpt lat="40.511810" lon="-4.441730">
        <ele>1044.079</ele>
        <time>2022-02-26T01:18:50Z</time>
      </trkpt>
      <trkpt lat="40.511820" lon="-4.441930">
        <ele>1043.944</ele>
        <time>2022-02-26T01:19:30Z</time>
      </trkpt>
      <trkpt lat="40.511870" lon="-4.442260">
        <ele>1044.412</ele>
        <time>2022-02-26T01:20:10Z</time>
      </trkpt>
      <trkpt lat="40.512010" lon="-4.442850">
        <ele>1047.843</ele>
        <time>2022-02-26T01:20:50Z</time>
      </trkpt>
      <trkpt lat="40.512020" lon="-4.442870">
        <ele>1048.164</ele>
        <time>2022-02-26T01:21:30Z</time>
      </trkpt>
      <trkpt lat="40.512090" lon="-4.443050">
        <ele>1049.710</ele>
        <time>2022-02-26T01:22:10Z</time>
      </trkpt>
      <trkpt lat="40.512100" lon="-4.443080">
        <ele>1049.908</ele>
        <time>2022-02-26T01:22:50Z</time>
      </trkpt>
      <trkpt lat="40.512190" lon="-4.443250">
        <ele>1051.783</ele>
        <time>2022-02-26T01:23:30Z</time>
      </trkpt>
      <trkpt lat="40.512210" lon="-4.443270">
        <ele>1052.080</ele>
        <time>2022-02-26T01:24:10Z</time>
      </trkpt>
      <trkpt lat="40.512320" lon="-4.443380">
        <ele>1051.814</ele>
        <time>2022-02-26T01:24:50Z</time>
      </trkpt>
      <trkpt lat="40.512360" lon="-4.443400">
        <ele>1051.683</ele>
        <time>2022-02-26T01:25:30Z</time>
      </trkpt>
      <trkpt lat="40.512410" lon="-4.443440">
        <ele>1051.493</ele>
        <time>2022-02-26T01:26:10Z</time>
      </trkpt>
      <trkpt lat="40.512500" lon="-4.443460">
        <ele>1051.156</ele>
        <time>2022-02-26T01:26:50Z</time>
      </trkpt>
      <trkpt lat="40.512530" lon="-4.443460">
        <ele>1050.861</ele>
        <time>2022-02-26T01:27:30Z</time>
      </trkpt>
      <trkpt lat="40.512700" lon="-4.443450">
        <ele>1049.559</ele>
        <time>2022-02-26T01:28:10Z</time>
      </trkpt>
      <trkpt lat="40.512710" lon="-4.443450">
        <ele>1049.518</ele>
        <time>2022-02-26T01:28:50Z</time>
      </trkpt>
      <trkpt lat="40.512910" lon="-4.443400">
        <ele>1047.598</ele>
        <time>2022-02-26T01:29:30Z</time>
      </trkpt>
      <trkpt lat="40.513030" lon="-4.443360">
        <ele>1046.117</ele>
        <time>2022-02-26T01:30:10Z</time>
      </trkpt>
      <trkpt lat="40.513060" lon="-4.443340">
        <ele>1045.808</ele>
        <time>2022-02-26T01:30:50Z</time>
      </trkpt>
      <trkpt lat="40.513120" lon="-4.443300">
        <ele>1045.390</ele>
        <time>2022-02-26T01:31:30Z</time>
      </trkpt>
      <trkpt lat="40.513220" lon="-4.443220">
        <ele>1044.787</ele>
        <time>2022-02-26T01:32:10Z</time>
      </trkpt>
      <trkpt lat="40.513760" lon="-4.442640">
        <ele>1041.391</ele>
        <time>2022-02-26T01:32:50Z</time>
      </trkpt>
      <trkpt lat="40.513770" lon="-4.442630">
        <ele>1041.240</ele>
        <time>2022-02-26T01:33:30Z</time>
      </trkpt>
      <trkpt lat="40.513920" lon="-4.442490">
        <ele>1039.830</ele>
        <time>2022-02-26T01:34:10Z</time>
      </trkpt>
      <trkpt lat="40.513930" lon="-4.442470">
        <ele>1039.923</ele>
        <time>2022-02-26T01:34:50Z</time>
      </trkpt>
      <trkpt lat="40.514050" lon="-4.442390">
        <ele>1039.638</ele>
        <time>2022-02-26T01:35:30Z</time>
      </trkpt>
      <trkpt lat="40.514080" lon="-4.442390">
        <ele>1039.416</ele>
        <time>2022-02-26T01:36:10Z</time>
      </trkpt>
      <trkpt lat="40.514140" lon="-4.442370">
        <ele>1039.146</ele>
        <time>2022-02-26T01:36:50Z</time>
      </trkpt>
      <trkpt lat="40.514200" lon="-4.442360">
        <ele>1039.188</ele>
        <time>2022-02-26T01:37:30Z</time>
      </trkpt>
      <trkpt lat="40.514260" lon="-4.442370">
        <ele>1039.116</ele>
        <time>2022-02-26T01:38:10Z</time>
      </trkpt>
      <trkpt lat="40.514300" lon="-4.442380">
        <ele>1039.108</ele>
        <time>2022-02-26T01:38:50Z</time>
      </trkpt>
      <trkpt lat="40.514450" lon="-4.442410">
        <ele>1039.463</ele>
        <time>2022-02-26T01:39:30Z</time>
      </trkpt>
      <trkpt lat="40.514550" lon="-4.442470">
        <ele>1039.950</ele>
        <time>2022-02-26T01:40:10Z</time>
      </trkpt>
      <trkpt lat="40.514600" lon="-4.442520">
        <ele>1040.184</ele>
        <time>2022-02-26T01:40:50Z</time>
      </trkpt>
      <trkpt lat="40.514750" lon="-4.442640">
        <ele>1041.033</ele>
        <time>2022-02-26T01:41:30Z</time>
      </trkpt>
      <trkpt lat="40.515060" lon="-4.442900">
        <ele>1040.623</ele>
        <time>2022-02-26T01:42:10Z</time>
      </trkpt>
      <trkpt lat="40.515210" lon="-4.443030">
        <ele>1040.176</ele>
        <time>2022-02-26T01:42:50Z</time>
      </trkpt>
      <trkpt lat="40.515360" lon="-4.443160">
        <ele>1039.941</ele>
        <time>2022-02-26T01:43:30Z</time>
      </trkpt>
      <trkpt lat="40.515940" lon="-4.443650">
        <ele>1044.629</ele>
        <time>2022-02-26T01:44:10Z</time>
      </trkpt>
      <trkpt lat="40.516040" lon="-4.443750">
        <ele>1047.812</ele>
        <time>2022-02-26T01:44:50Z</time>
      </trkpt>
      <trkpt lat="40.516070" lon="-4.443800">
        <ele>1048.732</ele>
        <time>2022-02-26T01:45:30Z</time>
      </trkpt>
      <trkpt lat="40.516110" lon="-4.443880">
        <ele>1050.005</ele>
        <time>2022-02-26T01:46:10Z</time>
      </trkpt>
      <trkpt lat="40.516170" lon="-4.444030">
        <ele>1046.208</ele>
        <time>2022-02-26T01:46:50Z</time>
      </trkpt>
      <trkpt lat="40.516340" lon="-4.444470">
        <ele>1047.520</ele>
        <time>2022-02-26T01:47:30Z</time>
      </trkpt>
      <trkpt lat="40.516450" lon="-4.444740">
        <ele>1049.397</ele>
        <time>2022-02-26T01:48:10Z</time>
      </trkpt>
      <trkpt lat="40.516530" lon="-4.444930">
        <ele>1049.341</ele>
        <time>2022-02-26T01:48:50Z</time>
      </trkpt>
      <trkpt lat="40.516640" lon="-4.445110">
        <ele>1050.130</ele>
        <time>2022-02-26T01:49:30Z</time>
      </trkpt>
      <trkpt lat="40.516780" lon="-4.445260">
        <ele>1050.460</ele>
        <time>2022-02-26T01:50:10Z</time>
      </trkpt>
      <trkpt lat="40.516860" lon="-4.445330">
        <ele>1050.493</ele>
        <time>2022-02-26T01:50:50Z</time>
      </trkpt>
      <trkpt lat="40.516950" lon="-4.445400">
        <ele>1050.728</ele>
        <time>2022-02-26T01:51:30Z</time>
      </trkpt>
      <trkpt lat="40.517120" lon="-4.445470">
        <ele>1049.916</ele>
        <time>2022-02-26T01:52:10Z</time>
      </trkpt>
      <trkpt lat="40.517410" lon="-4.445560">
        <ele>1051.097</ele>
        <time>2022-02-26T01:52:50Z</time>
      </trkpt>
      <trkpt lat="40.517520" lon="-4.445620">
        <ele>1051.923</ele>
        <time>2022-02-26T01:53:30Z</time>
      </trkpt>
      <trkpt lat="40.517540" lon="-4.445630">
        <ele>1052.225</ele>
        <time>2022-02-26T01:54:10Z</time>
      </trkpt>
      <trkpt lat="40.517590" lon="-4.445690">
        <ele>1052.808</ele>
        <time>2022-02-26T01:54:50Z</time>
      </trkpt>
      <trkpt lat="40.517660" lon="-4.445770">
        <ele>1053.818</ele>
        <time>2022-02-26T01:55:30Z</time>
      </trkpt>
      <trkpt lat="40.517710" lon="-4.445860">
        <ele>1054.315</ele>
        <time>2022-02-26T01:56:10Z</time>
      </trkpt>
      <trkpt lat="40.517760" lon="-4.446000">
        <ele>1054.449</ele>
        <time>2022-02-26T01:56:50Z</time>
      </trkpt>
      <trkpt lat="40.517790" lon="-4.446080">
        <ele>1054.558</ele>
        <time>2022-02-26T01:57:30Z</time>
      </trkpt>
      <trkpt lat="40.517860" lon="-4.446350">
        <ele>1054.448</ele>
        <time>2022-02-26T01:58:10Z</time>
      </trkpt>
      <trkpt lat="40.517900" lon="-4.446470">
        <ele>1054.231</ele>
        <time>2022-02-26T01:58:50Z</time>
      </trkpt>
      <trkpt lat="40.517930" lon="-4.446520">
        <ele>1054.216</ele>
        <time>2022-02-26T01:59:30Z</time>
      </trkpt>
      <trkpt lat="40.517970" lon="-4.446590">
        <ele>1054.394</ele>
        <time>2022-02-26T02:00:10Z</time>
      </trkpt>
      <trkpt lat="40.518050" lon="-4.446690">
        <ele>1054.766</ele>
        <time>2022-02-26T02:00:50Z</time>
      </trkpt>
      <trkpt lat="40.518140" lon="-4.446770">
        <ele>1056.129</ele>
        <time>2022-02-26T02:01:30Z</time>
      </trkpt>
      <trkpt lat="40.518170" lon="-4.446800">
        <ele>1056.621</ele>
        <time>2022-02-26T02:02:10Z</time>
      </trkpt>
      <trkpt lat="40.518280" lon="-4.446890">
        <ele>1058.908</ele>
        <time>2022-02-26T02:02:50Z</time>
      </trkpt>
      <trkpt lat="40.518290" lon="-4.446900">
        <ele>1059.145</ele>
        <time>2022-02-26T02:03:30Z</time>
      </trkpt>
      <trkpt lat="40.518440" lon="-4.446980">
        <ele>1060.012</ele>
        <time>2022-02-26T02:04:10Z</time>
      </trkpt>
      <trkpt lat="40.518550" lon="-4.447020">
        <ele>1060.256</ele>
        <time>2022-02-26T02:04:50Z</time>
      </trkpt>
      <trkpt lat="40.518760" lon="-4.447060">
        <ele>1060.225</ele>
        <time>2022-02-26T02:05:30Z</time>
      </trkpt>
      <trkpt lat="40.518810" lon="-4.447080">
        <ele>1060.055</ele>
        <time>2022-02-26T02:06:10Z</time>
      </trkpt>
      <trkpt lat="40.518950" lon="-4.447110">
        <ele>1059.828</ele>
        <time>2022-02-26T02:06:50Z</time>
      </trkpt>
      <trkpt lat="40.518990" lon="-4.447110">
        <ele>1059.943</ele>
        <time>2022-02-26T02:07:30Z</time>
      </trkpt>
      <trkpt lat="40.519700" lon="-4.447260">
        <ele>1062.761</ele>
        <time>2022-02-26T02:08:10Z</time>
      </trkpt>
      <trkpt lat="40.519720" lon="-4.447270">
        <ele>1062.752</ele>
        <time>2022-02-26T02:08:50Z</time>
      </trkpt>
      <trkpt lat="40.519800" lon="-4.447270">
        <ele>1062.753</ele>
        <time>2022-02-26T02:09:30Z</time>
      </trkpt>
      <trkpt lat="40.519960" lon="-4.447290">
        <ele>1062.508</ele>
        <time>2022-02-26T02:10:10Z</time>
      </trkpt>
      <trkpt lat="40.519970" lon="-4.447290">
        <ele>1062.508</ele>
        <time>2022-02-26T02:10:50Z</time>
      </trkpt>
      <trkpt lat="40.520150" lon="-4.447280">
        <ele>1061.614</ele>
        <time>2022-02-26T02:11:30Z</time>
      </trkpt>
      <trkpt lat="40.520330" lon="-4.447270">
        <ele>1060.591</ele>
        <time>2022-02-26T02:12:10Z</time>
      </trkpt>
      <trkpt lat="40.520810" lon="-4.447220">
        <ele>1060.055</ele>
        <time>2022-02-26T02:12:50Z</time>
      </trkpt>
      <trkpt lat="40.521230" lon="-4.447180">
        <ele>1055.754</ele>
        <time>2022-02-26T02:13:30Z</time>
      </trkpt>
      <trkpt lat="40.521360" lon="-4.447170">
        <ele>1052.874</ele>
        <time>2022-02-26T02:14:10Z</time>
      </trkpt>
      <trkpt lat="40.521450" lon="-4.447150">
        <ele>1052.967</ele>
        <time>2022-02-26T02:14:50Z</time>
      </trkpt>
      <trkpt lat="40.521630" lon="-4.447130">
        <ele>1054.972</ele>
        <time>2022-02-26T02:15:30Z</time>
      </trkpt>
      <trkpt lat="40.521810" lon="-4.447110">
        <ele>1055.990</ele>
        <time>2022-02-26T02:16:10Z</time>
      </trkpt>
      <trkpt lat="40.521820" lon="-4.447110">
        <ele>1056.092</ele>
        <time>2022-02-26T02:16:50Z</time>
      </trkpt>
      <trkpt lat="40.521960" lon="-4.447100">
        <ele>1056.673</ele>
        <time>2022-02-26T02:17:30Z</time>
      </trkpt>
      <trkpt lat="40.521990" lon="-4.447100">
        <ele>1056.820</ele>
        <time>2022-02-26T02:18:10Z</time>
      </trkpt>
      <trkpt lat="40.522050" lon="-4.447110">
        <ele>1057.208</ele>
        <time>2022-02-26T02:18:50Z</time>
      </trkpt>
      <trkpt lat="40.522090" lon="-4.447110">
        <ele>1057.588</ele>
        <time>2022-02-26T02:19:30Z</time>
      </trkpt>
      <trkpt lat="40.522140" lon="-4.447130">
        <ele>1057.775</ele>
        <time>2022-02-26T02:20:10Z</time>
      </trkpt>
      <trkpt lat="40.522170" lon="-4.447140">
        <ele>1057.949</ele>
        <time>2022-02-26T02:20:50Z</time>
      </trkpt>
      <trkpt lat="40.522180" lon="-4.447150">
        <ele>1058.048</ele>
        <time>2022-02-26T02:21:30Z</time>
      </trkpt>
      <trkpt lat="40.522230" lon="-4.447180">
        <ele>1058.338</ele>
        <time>2022-02-26T02:22:10Z</time>
      </trkpt>
      <trkpt lat="40.522320" lon="-4.447270">
        <ele>1059.391</ele>
        <time>2022-02-26T02:22:50Z</time>
      </trkpt>
      <trkpt lat="40.522560" lon="-4.447610">
        <ele>1062.276</ele>
        <time>2022-02-26T02:23:30Z</time>
      </trkpt>
      <trkpt lat="40.522910" lon="-4.448080">
        <ele>1063.654</ele>
        <time>2022-02-26T02:24:10Z</time>
      </trkpt>
      <trkpt lat="40.523070" lon="-4.448280">
        <ele>1064.011</ele>
        <time>2022-02-26T02:24:50Z</time>
      </trkpt>
      <trkpt lat="40.523130" lon="-4.448340">
        <ele>1064.321</ele>
        <time>2022-02-26T02:25:30Z</time>
      </trkpt>
      <trkpt lat="40.523220" lon="-4.448420">
        <ele>1065.003</ele>
        <time>2022-02-26T02:26:10Z</time>
      </trkpt>
      <trkpt lat="40.523260" lon="-4.448460">
        <ele>1065.308</ele>
        <time>2022-02-26T02:26:50Z</time>
      </trkpt>
      <trkpt lat="40.523360" lon="-4.448560">
        <ele>1065.870</ele>
        <time>2022-02-26T02:27:30Z</time>
      </trkpt>
      <trkpt lat="40.523410" lon="-4.448600">
        <ele>1065.947</ele>
        <time>2022-02-26T02:28:10Z</time>
      </trkpt>
      <trkpt lat="40.523900" lon="-4.448990">
        <ele>1068.131</ele>
        <time>2022-02-26T02:28:50Z</time>
      </trkpt>
      <trkpt lat="40.524030" lon="-4.449090">
        <ele>1069.580</ele>
        <time>2022-02-26T02:29:30Z</time>
      </trkpt>
      <trkpt lat="40.524060" lon="-4.449120">
        <ele>1069.850</ele>
        <time>2022-02-26T02:30:10Z</time>
      </trkpt>
      <trkpt lat="40.524140" lon="-4.449210">
        <ele>1070.623</ele>
        <time>2022-02-26T02:30:50Z</time>
      </trkpt>
      <trkpt lat="40.524190" lon="-4.449270">
        <ele>1070.848</ele>
        <time>2022-02-26T02:31:30Z</time>
      </trkpt>
      <trkpt lat="40.524220" lon="-4.449310">
        <ele>1071.036</ele>
        <time>2022-02-26T02:32:10Z</time>
      </trkpt>
      <trkpt lat="40.524290" lon="-4.449430">
        <ele>1071.478</ele>
        <time>2022-02-26T02:32:50Z</time>
      </trkpt>
      <trkpt lat="40.524310" lon="-4.449540">
        <ele>1071.533</ele>
        <time>2022-02-26T02:33:30Z</time>
      </trkpt>
      <trkpt lat="40.524330" lon="-4.449610">
        <ele>1071.826</ele>
        <time>2022-02-26T02:34:10Z</time>
      </trkpt>
      <trkpt lat="40.524350" lon="-4.449740">
        <ele>1072.008</ele>
        <time>2022-02-26T02:34:50Z</time>
      </trkpt>
      <trkpt lat="40.524400" lon="-4.450160">
        <ele>1073.396</ele>
        <time>2022-02-26T02:35:30Z</time>
      </trkpt>
      <trkpt lat="40.524400" lon="-4.450170">
        <ele>1073.323</ele>
        <time>2022-02-26T02:36:10Z</time>
      </trkpt>
      <trkpt lat="40.524420" lon="-4.450260">
        <ele>1073.697</ele>
        <time>2022-02-26T02:36:50Z</time>
      </trkpt>
      <trkpt lat="40.524450" lon="-4.450360">
        <ele>1073.866</ele>
        <time>2022-02-26T02:37:30Z</time>
      </trkpt>
      <trkpt lat="40.524460" lon="-4.450390">
        <ele>1073.876</ele>
        <time>2022-02-26T02:38:10Z</time>
      </trkpt>
      <trkpt lat="40.524490" lon="-4.450480">
        <ele>1073.969</ele>
        <time>2022-02-26T02:38:50Z</time>
      </trkpt>
      <trkpt lat="40.524550" lon="-4.450590">
        <ele>1074.394</ele>
        <time>2022-02-26T02:39:30Z</time>
      </trkpt>
      <trkpt lat="40.524620" lon="-4.450670">
        <ele>1074.932</ele>
        <time>2022-02-26T02:40:10Z</time>
      </trkpt>
      <trkpt lat="40.524690" lon="-4.450740">
        <ele>1075.357</ele>
        <time>2022-02-26T02:40:50Z</time>
      </trkpt>
      <trkpt lat="40.524810" lon="-4.450800">
        <ele>1076.200</ele>
        <time>2022-02-26T02:41:30Z</time>
      </trkpt>
      <trkpt lat="40.524860" lon="-4.450820">
        <ele>1076.620</ele>
        <time>2022-02-26T02:42:10Z</time>
      </trkpt>
      <trkpt lat="40.524930" lon="-4.450840">
        <ele>1077.208</ele>
        <time>2022-02-26T02:42:50Z</time>
      </trkpt>
      <trkpt lat="40.525120" lon="-4.450870">
        <ele>1078.114</ele>
        <time>2022-02-26T02:43:30Z</time>
      </trkpt>
      <trkpt lat="40.525570" lon="-4.450930">
        <ele>1079.851</ele>
        <time>2022-02-26T02:44:10Z</time>
      </trkpt>
      <trkpt lat="40.525760" lon="-4.450950">
        <ele>1081.195</ele>
        <time>2022-02-26T02:44:50Z</time>
      </trkpt>
      <trkpt lat="40.525930" lon="-4.451000">
        <ele>1082.374</ele>
        <time>2022-02-26T02:45:30Z</time>
      </trkpt>
      <trkpt lat="40.526100" lon="-4.451040">
        <ele>1083.964</ele>
        <time>2022-02-26T02:46:10Z</time>
      </trkpt>
      <trkpt lat="40.526140" lon="-4.451060">
        <ele>1084.257</ele>
        <time>2022-02-26T02:46:50Z</time>
      </trkpt>
      <trkpt lat="40.526210" lon="-4.451080">
        <ele>1084.862</ele>
        <time>2022-02-26T02:47:30Z</time>
      </trkpt>
      <trkpt lat="40.526320" lon="-4.451120">
        <ele>1085.540</ele>
        <time>2022-02-26T02:48:10Z</time>
      </trkpt>
      <trkpt lat="40.526490" lon="-4.451170">
        <ele>1086.799</ele>
        <time>2022-02-26T02:48:50Z</time>
      </trkpt>
      <trkpt lat="40.526670" lon="-4.451230">
        <ele>1088.007</ele>
        <time>2022-02-26T02:49:30Z</time>
      </trkpt>
      <trkpt lat="40.526840" lon="-4.451290">
        <ele>1089.227</ele>
        <time>2022-02-26T02:50:10Z</time>
      </trkpt>
      <trkpt lat="40.527020" lon="-4.451350">
        <ele>1090.508</ele>
        <time>2022-02-26T02:50:50Z</time>
      </trkpt>
      <trkpt lat="40.527040" lon="-4.451360">
        <ele>1090.758</ele>
        <time>2022-02-26T02:51:30Z</time>
      </trkpt>
      <trkpt lat="40.527160" lon="-4.451380">
        <ele>1091.555</ele>
        <time>2022-02-26T02:52:10Z</time>
      </trkpt>
      <trkpt lat="40.527210" lon="-4.451400">
        <ele>1091.999</ele>
        <time>2022-02-26T02:52:50Z</time>
      </trkpt>
      <trkpt lat="40.527270" lon="-4.451400">
        <ele>1092.058</ele>
        <time>2022-02-26T02:53:30Z</time>
      </trkpt>
      <trkpt lat="40.527370" lon="-4.451390">
        <ele>1092.038</ele>
        <time>2022-02-26T02:54:10Z</time>
      </trkpt>
      <trkpt lat="40.527390" lon="-4.451390">
        <ele>1092.081</ele>
        <time>2022-02-26T02:54:50Z</time>
      </trkpt>
      <trkpt lat="40.527560" lon="-4.451340">
        <ele>1092.676</ele>
        <time>2022-02-26T02:55:30Z</time>
      </trkpt>
      <trkpt lat="40.527680" lon="-4.451280">
        <ele>1093.724</ele>
        <time>2022-02-26T02:56:10Z</time>
      </trkpt>
      <trkpt lat="40.527720" lon="-4.451260">
        <ele>1094.094</ele>
        <time>2022-02-26T02:56:50Z</time>
      </trkpt>
      <trkpt lat="40.527810" lon="-4.451210">
        <ele>1094.857</ele>
        <time>2022-02-26T02:57:30Z</time>
      </trkpt>
      <trkpt lat="40.527880" lon="-4.451170">
        <ele>1095.222</ele>
        <time>2022-02-26T02:58:10Z</time>
      </trkpt>
      <trkpt lat="40.528890" lon="-4.450670">
        <ele>1103.608</ele>
        <time>2022-02-26T02:58:50Z</time>
      </trkpt>
      <trkpt lat="40.529060" lon="-4.450590">
        <ele>1102.718</ele>
        <time>2022-02-26T02:59:30Z</time>
      </trkpt>
      <trkpt lat="40.529230" lon="-4.450510">
        <ele>1102.295</ele>
        <time>2022-02-26T03:00:10Z</time>
      </trkpt>
      <trkpt lat="40.529390" lon="-4.450430">
        <ele>1102.579</ele>
        <time>2022-02-26T03:00:50Z</time>
      </trkpt>
      <trkpt lat="40.529400" lon="-4.450420">
        <ele>1102.548</ele>
        <time>2022-02-26T03:01:30Z</time>
      </trkpt>
      <trkpt lat="40.529510" lon="-4.450360">
        <ele>1102.588</ele>
        <time>2022-02-26T03:02:10Z</time>
      </trkpt>
      <trkpt lat="40.529610" lon="-4.450280">
        <ele>1102.481</ele>
        <time>2022-02-26T03:02:50Z</time>
      </trkpt>
      <trkpt lat="40.529670" lon="-4.450220">
        <ele>1102.456</ele>
        <time>2022-02-26T03:03:30Z</time>
      </trkpt>
      <trkpt lat="40.529700" lon="-4.450170">
        <ele>1102.454</ele>
        <time>2022-02-26T03:04:10Z</time>
      </trkpt>
      <trkpt lat="40.529720" lon="-4.450140">
        <ele>1102.518</ele>
        <time>2022-02-26T03:04:50Z</time>
      </trkpt>
      <trkpt lat="40.529770" lon="-4.450040">
        <ele>1102.798</ele>
        <time>2022-02-26T03:05:30Z</time>
      </trkpt>
      <trkpt lat="40.529840" lon="-4.449840">
        <ele>1102.817</ele>
        <time>2022-02-26T03:06:10Z</time>
      </trkpt>
      <trkpt lat="40.529860" lon="-4.449750">
        <ele>1103.008</ele>
        <time>2022-02-26T03:06:50Z</time>
      </trkpt>
      <trkpt lat="40.529920" lon="-4.449530">
        <ele>1103.220</ele>
        <time>2022-02-26T03:07:30Z</time>
      </trkpt>
      <trkpt lat="40.529970" lon="-4.449300">
        <ele>1103.677</ele>
        <time>2022-02-26T03:08:10Z</time>
      </trkpt>
      <trkpt lat="40.529980" lon="-4.449270">
        <ele>1103.711</ele>
        <time>2022-02-26T03:08:50Z</time>
      </trkpt>
      <trkpt lat="40.530040" lon="-4.449090">
        <ele>1103.430</ele>
        <time>2022-02-26T03:09:30Z</time>
      </trkpt>
      <trkpt lat="40.530040" lon="-4.449080">
        <ele>1103.480</ele>
        <time>2022-02-26T03:10:10Z</time>
      </trkpt>
      <trkpt lat="40.530090" lon="-4.448940">
        <ele>1102.933</ele>
        <time>2022-02-26T03:10:50Z</time>
      </trkpt>
      <trkpt lat="40.530120" lon="-4.448870">
        <ele>1102.448</ele>
        <time>2022-02-26T03:11:30Z</time>
      </trkpt>
      <trkpt lat="40.530190" lon="-4.448750">
        <ele>1100.996</ele>
        <time>2022-02-26T03:12:10Z</time>
      </trkpt>
      <trkpt lat="40.530240" lon="-4.448690">
        <ele>1099.864</ele>
        <time>2022-02-26T03:12:50Z</time>
      </trkpt>
      <trkpt lat="40.530330" lon="-4.448560">
        <ele>1098.306</ele>
        <time>2022-02-26T03:13:30Z</time>
      </trkpt>
      <trkpt lat="40.530360" lon="-4.448520">
        <ele>1097.816</ele>
        <time>2022-02-26T03:14:10Z</time>
      </trkpt>
      <trkpt lat="40.530500" lon="-4.448370">
        <ele>1095.708</ele>
        <time>2022-02-26T03:14:50Z</time>
      </trkpt>
      <trkpt lat="40.530610" lon="-4.448250">
        <ele>1094.765</ele>
        <time>2022-02-26T03:15:30Z</time>
      </trkpt>
      <trkpt lat="40.530640" lon="-4.448220">
        <ele>1094.432</ele>
        <time>2022-02-26T03:16:10Z</time>
      </trkpt>
      <trkpt lat="40.531210" lon="-4.447590">
        <ele>1090.826</ele>
        <time>2022-02-26T03:16:50Z</time>
      </trkpt>
      <trkpt lat="40.531480" lon="-4.447290">
        <ele>1090.395</ele>
        <time>2022-02-26T03:17:30Z</time>
      </trkpt>
      <trkpt lat="40.531520" lon="-4.447250">
        <ele>1090.475</ele>
        <time>2022-02-26T03:18:10Z</time>
      </trkpt>
      <trkpt lat="40.531630" lon="-4.447150">
        <ele>1090.248</ele>
        <time>2022-02-26T03:18:50Z</time>
      </trkpt>
      <trkpt lat="40.531670" lon="-4.447120">
        <ele>1090.093</ele>
        <time>2022-02-26T03:19:30Z</time>
      </trkpt>
      <trkpt lat="40.531710" lon="-4.447100">
        <ele>1089.811</ele>
        <time>2022-02-26T03:20:10Z</time>
      </trkpt>
      <trkpt lat="40.531740" lon="-4.447090">
        <ele>1089.611</ele>
        <time>2022-02-26T03:20:50Z</time>
      </trkpt>
      <trkpt lat="40.531770" lon="-4.447080">
        <ele>1089.421</ele>
        <time>2022-02-26T03:21:30Z</time>
      </trkpt>
      <trkpt lat="40.531800" lon="-4.447070">
        <ele>1089.303</ele>
        <time>2022-02-26T03:22:10Z</time>
      </trkpt>
      <trkpt lat="40.531830" lon="-4.447070">
        <ele>1089.108</ele>
        <time>2022-02-26T03:22:50Z</time>
      </trkpt>
      <trkpt lat="40.531880" lon="-4.447070">
        <ele>1088.930</ele>
        <time>2022-02-26T03:23:30Z</time>
      </trkpt>
      <trkpt lat="40.531930" lon="-4.447070">
        <ele>1088.617</ele>
        <time>2022-02-26T03:24:10Z</time>
      </trkpt>
      <trkpt lat="40.531980" lon="-4.447090">
        <ele>1088.991</ele>
        <time>2022-02-26T03:24:50Z</time>
      </trkpt>
      <trkpt lat="40.532030" lon="-4.447120">
        <ele>1089.360</ele>
        <time>2022-02-26T03:25:30Z</time>
      </trkpt>
      <trkpt lat="40.532080" lon="-4.447160">
        <ele>1089.760</ele>
        <time>2022-02-26T03:26:10Z</time>
      </trkpt>
      <trkpt lat="40.532110" lon="-4.447200">
        <ele>1089.983</ele>
        <time>2022-02-26T03:26:50Z</time>
      </trkpt>
      <trkpt lat="40.532120" lon="-4.447220">
        <ele>1089.988</ele>
        <time>2022-02-26T03:27:30Z</time>
      </trkpt>
      <trkpt lat="40.532150" lon="-4.447260">
        <ele>1090.186</ele>
        <time>2022-02-26T03:28:10Z</time>
      </trkpt>
      <trkpt lat="40.532180" lon="-4.447330">
        <ele>1090.232</ele>
        <time>2022-02-26T03:28:50Z</time>
      </trkpt>
      <trkpt lat="40.532210" lon="-4.447420">
        <ele>1090.292</ele>
        <time>2022-02-26T03:29:30Z</time>
      </trkpt>
      <trkpt lat="40.532240" lon="-4.447590">
        <ele>1091.011</ele>
        <time>2022-02-26T03:30:10Z</time>
      </trkpt>
      <trkpt lat="40.532290" lon="-4.448040">
        <ele>1093.208</ele>
        <time>2022-02-26T03:30:50Z</time>
      </trkpt>
      <trkpt lat="40.532310" lon="-4.448360">
        <ele>1093.872</ele>
        <time>2022-02-26T03:31:30Z</time>
      </trkpt>
      <trkpt lat="40.532320" lon="-4.448460">
        <ele>1094.099</ele>
        <time>2022-02-26T03:32:10Z</time>
      </trkpt>
      <trkpt lat="40.532330" lon="-4.448870">
        <ele>1094.713</ele>
        <time>2022-02-26T03:32:50Z</time>
      </trkpt>
      <trkpt lat="40.532330" lon="-4.449000">
        <ele>1094.712</ele>
        <time>2022-02-26T03:33:30Z</time>
      </trkpt>
      <trkpt lat="40.532330" lon="-4.449240">
        <ele>1094.732</ele>
        <time>2022-02-26T03:34:10Z</time>
      </trkpt>
      <trkpt lat="40.532330" lon="-4.449630">
        <ele>1095.095</ele>
        <time>2022-02-26T03:34:50Z</time>
      </trkpt>
      <trkpt lat="40.532350" lon="-4.449860">
        <ele>1096.270</ele>
        <time>2022-02-26T03:35:30Z</time>
      </trkpt>
      <trkpt lat="40.532380" lon="-4.449980">
        <ele>1097.578</ele>
        <time>2022-02-26T03:36:10Z</time>
      </trkpt>
      <trkpt lat="40.532400" lon="-4.450050">
        <ele>1097.836</ele>
        <time>2022-02-26T03:36:50Z</time>
      </trkpt>
      <trkpt lat="40.532430" lon="-4.450130">
        <ele>1098.017</ele>
        <time>2022-02-26T03:37:30Z</time>
      </trkpt>
      <trkpt lat="40.532450" lon="-4.450150">
        <ele>1098.518</ele>
        <time>2022-02-26T03:38:10Z</time>
      </trkpt>
      <trkpt lat="40.532470" lon="-4.450190">
        <ele>1098.808</ele>
        <time>2022-02-26T03:38:50Z</time>
      </trkpt>
      <trkpt lat="40.532510" lon="-4.450230">
        <ele>1099.572</ele>
        <time>2022-02-26T03:39:30Z</time>
      </trkpt>
      <trkpt lat="40.532560" lon="-4.450290">
        <ele>1099.719</ele>
        <time>2022-02-26T03:40:10Z</time>
      </trkpt>
      <trkpt lat="40.532620" lon="-4.450340">
        <ele>1099.833</ele>
        <time>2022-02-26T03:40:50Z</time>
      </trkpt>
      <trkpt lat="40.532720" lon="-4.450420">
        <ele>1100.422</ele>
        <time>2022-02-26T03:41:30Z</time>
      </trkpt>
      <trkpt lat="40.532900" lon="-4.450520">
        <ele>1102.172</ele>
        <time>2022-02-26T03:42:10Z</time>
      </trkpt>
      <trkpt lat="40.532930" lon="-4.450540">
        <ele>1102.375</ele>
        <time>2022-02-26T03:42:50Z</time>
      </trkpt>
      <trkpt lat="40.533080" lon="-4.450640">
        <ele>1103.640</ele>
        <time>2022-02-26T03:43:30Z</time>
      </trkpt>
      <trkpt lat="40.533170" lon="-4.450710">
        <ele>1103.788</ele>
        <time>2022-02-26T03:44:10Z</time>
      </trkpt>
      <trkpt lat="40.533270" lon="-4.450830">
        <ele>1103.679</ele>
        <time>2022-02-26T03:44:50Z</time>
      </trkpt>
      <trkpt lat="40.533340" lon="-4.450920">
        <ele>1103.205</ele>
        <time>2022-02-26T03:45:30Z</time>
      </trkpt>
      <trkpt lat="40.533470" lon="-4.451090">
        <ele>1104.125</ele>
        <time>2022-02-26T03:46:10Z</time>
      </trkpt>
      <trkpt lat="40.533590" lon="-4.451260">
        <ele>1105.008</ele>
        <time>2022-02-26T03:46:50Z</time>
      </trkpt>
      <trkpt lat="40.533690" lon="-4.451400">
        <ele>1105.676</ele>
        <time>2022-02-26T03:47:30Z</time>
      </trkpt>
      <trkpt lat="40.533720" lon="-4.451430">
        <ele>1106.093</ele>
        <time>2022-02-26T03:48:10Z</time>
      </trkpt>
      <trkpt lat="40.533850" lon="-4.451600">
        <ele>1107.557</ele>
        <time>2022-02-26T03:48:50Z</time>
      </trkpt>
      <trkpt lat="40.533910" lon="-4.451670">
        <ele>1108.396</ele>
        <time>2022-02-26T03:49:30Z</time>
      </trkpt>
      <trkpt lat="40.533990" lon="-4.451740">
        <ele>1108.826</ele>
        <time>2022-02-26T03:50:10Z</time>
      </trkpt>
      <trkpt lat="40.534020" lon="-4.451770">
        <ele>1108.969</ele>
        <time>2022-02-26T03:50:50Z</time>
      </trkpt>
      <trkpt lat="40.534120" lon="-4.451860">
        <ele>1109.884</ele>
        <time>2022-02-26T03:51:30Z</time>
      </trkpt>
      <trkpt lat="40.534140" lon="-4.451870">
        <ele>1110.172</ele>
        <time>2022-02-26T03:52:10Z</time>
      </trkpt>
      <trkpt lat="40.534340" lon="-4.452000">
        <ele>1110.826</ele>
        <time>2022-02-26T03:52:50Z</time>
      </trkpt>
      <trkpt lat="40.534470" lon="-4.452080">
        <ele>1111.447</ele>
        <time>2022-02-26T03:53:30Z</time>
      </trkpt>
      <trkpt lat="40.534970" lon="-4.452380">
        <ele>1115.511</ele>
        <time>2022-02-26T03:54:10Z</time>
      </trkpt>
      <trkpt lat="40.535120" lon="-4.452470">
        <ele>1116.608</ele>
        <time>2022-02-26T03:54:50Z</time>
      </trkpt>
      <trkpt lat="40.535400" lon="-4.452630">
        <ele>1119.021</ele>
        <time>2022-02-26T03:55:30Z</time>
      </trkpt>
      <trkpt lat="40.535450" lon="-4.452650">
        <ele>1119.838</ele>
        <time>2022-02-26T03:56:10Z</time>
      </trkpt>
      <trkpt lat="40.535510" lon="-4.452680">
        <ele>1120.852</ele>
        <time>2022-02-26T03:56:50Z</time>
      </trkpt>
      <trkpt lat="40.535620" lon="-4.452710">
        <ele>1121.371</ele>
        <time>2022-02-26T03:57:30Z</time>
      </trkpt>
      <trkpt lat="40.535630" lon="-4.452720">
        <ele>1121.261</ele>
        <time>2022-02-26T03:58:10Z</time>
      </trkpt>
      <trkpt lat="40.535730" lon="-4.452740">
        <ele>1120.764</ele>
        <time>2022-02-26T03:58:50Z</time>
      </trkpt>
      <trkpt lat="40.535800" lon="-4.452730">
        <ele>1120.629</ele>
        <time>2022-02-26T03:59:30Z</time>
      </trkpt>
      <trkpt lat="40.535950" lon="-4.452720">
        <ele>1120.287</ele>
        <time>2022-02-26T04:00:10Z</time>
      </trkpt>
      <trkpt lat="40.535980" lon="-4.452720">
        <ele>1120.184</ele>
        <time>2022-02-26T04:00:50Z</time>
      </trkpt>
      <trkpt lat="40.536100" lon="-4.452710">
        <ele>1119.807</ele>
        <time>2022-02-26T04:01:30Z</time>
      </trkpt>
      <trkpt lat="40.536160" lon="-4.452690">
        <ele>1119.517</ele>
        <time>2022-02-26T04:02:10Z</time>
      </trkpt>
      <trkpt lat="40.536170" lon="-4.452690">
        <ele>1119.408</ele>
        <time>2022-02-26T04:02:50Z</time>
      </trkpt>
      <trkpt lat="40.536200" lon="-4.452680">
        <ele>1119.217</ele>
        <time>2022-02-26T04:03:30Z</time>
      </trkpt>
      <trkpt lat="40.536240" lon="-4.452660">
        <ele>1119.184</ele>
        <time>2022-02-26T04:04:10Z</time>
      </trkpt>
      <trkpt lat="40.536280" lon="-4.452630">
        <ele>1119.158</ele>
        <time>2022-02-26T04:04:50Z</time>
      </trkpt>
      <trkpt lat="40.536320" lon="-4.452600">
        <ele>1119.157</ele>
        <time>2022-02-26T04:05:30Z</time>
      </trkpt>
      <trkpt lat="40.536400" lon="-4.452520">
        <ele>1119.527</ele>
        <time>2022-02-26T04:06:10Z</time>
      </trkpt>
      <trkpt lat="40.536460" lon="-4.452450">
        <ele>1119.350</ele>
        <time>2022-02-26T04:06:50Z</time>
      </trkpt>
      <trkpt lat="40.536540" lon="-4.452340">
        <ele>1119.395</ele>
        <time>2022-02-26T04:07:30Z</time>
      </trkpt>
      <trkpt lat="40.536750" lon="-4.452040">
        <ele>1118.433</ele>
        <time>2022-02-26T04:08:10Z</time>
      </trkpt>
      <trkpt lat="40.536820" lon="-4.451920">
        <ele>1117.947</ele>
        <time>2022-02-26T04:08:50Z</time>
      </trkpt>
      <trkpt lat="40.537170" lon="-4.451380">
        <ele>1116.829</ele>
        <time>2022-02-26T04:09:30Z</time>
      </trkpt>
      <trkpt lat="40.537200" lon="-4.451350">
        <ele>1116.621</ele>
        <time>2022-02-26T04:10:10Z</time>
      </trkpt>
      <trkpt lat="40.537360" lon="-4.451090">
        <ele>1115.208</ele>
        <time>2022-02-26T04:10:50Z</time>
      </trkpt>
      <trkpt lat="40.537480" lon="-4.450910">
        <ele>1113.963</ele>
        <time>2022-02-26T04:11:30Z</time>
      </trkpt>
      <trkpt lat="40.537710" lon="-4.450550">
        <ele>1113.560</ele>
        <time>2022-02-26T04:12:10Z</time>
      </trkpt>
      <trkpt lat="40.537820" lon="-4.450360">
        <ele>1113.554</ele>
        <time>2022-02-26T04:12:50Z</time>
      </trkpt>
      <trkpt lat="40.537940" lon="-4.450180">
        <ele>1113.953</ele>
        <time>2022-02-26T04:13:30Z</time>
      </trkpt>
      <trkpt lat="40.538050" lon="-4.450000">
        <ele>1114.033</ele>
        <time>2022-02-26T04:14:10Z</time>
      </trkpt>
      <trkpt lat="40.538170" lon="-4.449820">
        <ele>1114.666</ele>
        <time>2022-02-26T04:14:50Z</time>
      </trkpt>
      <trkpt lat="40.538280" lon="-4.449640">
        <ele>1114.991</ele>
        <time>2022-02-26T04:15:30Z</time>
      </trkpt>
      <trkpt lat="40.538630" lon="-4.449090">
        <ele>1115.689</ele>
        <time>2022-02-26T04:16:10Z</time>
      </trkpt>
      <trkpt lat="40.538750" lon="-4.448910">
        <ele>1115.886</ele>
        <time>2022-02-26T04:16:50Z</time>
      </trkpt>
      <trkpt lat="40.538860" lon="-4.448730">
        <ele>1115.660</ele>
        <time>2022-02-26T04:17:30Z</time>
      </trkpt>
      <trkpt lat="40.539550" lon="-4.447640">
        <ele>1116.426</ele>
        <time>2022-02-26T04:18:10Z</time>
      </trkpt>
      <trkpt lat="40.539730" lon="-4.447350">
        <ele>1115.508</ele>
        <time>2022-02-26T04:18:50Z</time>
      </trkpt>
      <trkpt lat="40.539850" lon="-4.447160">
        <ele>1115.337</ele>
        <time>2022-02-26T04:19:30Z</time>
      </trkpt>
      <trkpt lat="40.539990" lon="-4.446940">
        <ele>1115.164</ele>
        <time>2022-02-26T04:20:10Z</time>
      </trkpt>
      <trkpt lat="40.540070" lon="-4.446790">
        <ele>1115.448</ele>
        <time>2022-02-26T04:20:50Z</time>
      </trkpt>
      <trkpt lat="40.540100" lon="-4.446750">
        <ele>1115.397</ele>
        <time>2022-02-26T04:21:30Z</time>
      </trkpt>
      <trkpt lat="40.540160" lon="-4.446590">
        <ele>1115.727</ele>
        <time>2022-02-26T04:22:10Z</time>
      </trkpt>
      <trkpt lat="40.540240" lon="-4.446410">
        <ele>1116.130</ele>
        <time>2022-02-26T04:22:50Z</time>
      </trkpt>
      <trkpt lat="40.540250" lon="-4.446390">
        <ele>1116.255</ele>
        <time>2022-02-26T04:23:30Z</time>
      </trkpt>
      <trkpt lat="40.540340" lon="-4.446180">
        <ele>1115.283</ele>
        <time>2022-02-26T04:24:10Z</time>
      </trkpt>
      <trkpt lat="40.540410" lon="-4.446000">
        <ele>1114.559</ele>
        <time>2022-02-26T04:24:50Z</time>
      </trkpt>
      <trkpt lat="40.540420" lon="-4.445970">
        <ele>1114.403</ele>
        <time>2022-02-26T04:25:30Z</time>
      </trkpt>
      <trkpt lat="40.540500" lon="-4.445750">
        <ele>1113.923</ele>
        <time>2022-02-26T04:26:10Z</time>
      </trkpt>
      <trkpt lat="40.540580" lon="-4.445540">
        <ele>1113.508</ele>
        <time>2022-02-26T04:26:50Z</time>
      </trkpt>
      <trkpt lat="40.540730" lon="-4.445110">
        <ele>1112.714</ele>
        <time>2022-02-26T04:27:30Z</time>
      </trkpt>
      <trkpt lat="40.541040" lon="-4.444260">
        <ele>1110.791</ele>
        <time>2022-02-26T04:28:10Z</time>
      </trkpt>
      <trkpt lat="40.541120" lon="-4.444050">
        <ele>1110.345</ele>
        <time>2022-02-26T04:28:50Z</time>
      </trkpt>
      <trkpt lat="40.541200" lon="-4.443830">
        <ele>1110.114</ele>
        <time>2022-02-26T04:29:30Z</time>
      </trkpt>
      <trkpt lat="40.541280" lon="-4.443620">
        <ele>1109.994</ele>
        <time>2022-02-26T04:30:10Z</time>
      </trkpt>
      <trkpt lat="40.541350" lon="-4.443410">
        <ele>1110.087</ele>
        <time>2022-02-26T04:30:50Z</time>
      </trkpt>
      <trkpt lat="40.541690" lon="-4.442490">
        <ele>1105.792</ele>
        <time>2022-02-26T04:31:30Z</time>
      </trkpt>
      <trkpt lat="40.541860" lon="-4.442070">
        <ele>1104.580</ele>
        <time>2022-02-26T04:32:10Z</time>
      </trkpt>
      <trkpt lat="40.541910" lon="-4.441970">
        <ele>1104.346</ele>
        <time>2022-02-26T04:32:50Z</time>
      </trkpt>
      <trkpt lat="40.541930" lon="-4.441930">
        <ele>1104.288</ele>
        <time>2022-02-26T04:33:30Z</time>
      </trkpt>
      <trkpt lat="40.541970" lon="-4.441860">
        <ele>1103.816</ele>
        <time>2022-02-26T04:34:10Z</time>
      </trkpt>
      <trkpt lat="40.542020" lon="-4.441790">
        <ele>1103.208</ele>
        <time>2022-02-26T04:34:50Z</time>
      </trkpt>
      <trkpt lat="40.542060" lon="-4.441770">
        <ele>1102.543</ele>
        <time>2022-02-26T04:35:30Z</time>
      </trkpt>
      <trkpt lat="40.542080" lon="-4.441750">
        <ele>1102.350</ele>
        <time>2022-02-26T04:36:10Z</time>
      </trkpt>
      <trkpt lat="40.542130" lon="-4.441720">
        <ele>1101.534</ele>
        <time>2022-02-26T04:36:50Z</time>
      </trkpt>
      <trkpt lat="40.542180" lon="-4.441700">
        <ele>1100.683</ele>
        <time>2022-02-26T04:37:30Z</time>
      </trkpt>
      <trkpt lat="40.542220" lon="-4.441690">
        <ele>1100.043</ele>
        <time>2022-02-26T04:38:10Z</time>
      </trkpt>
      <trkpt lat="40.542240" lon="-4.441680">
        <ele>1100.116</ele>
        <time>2022-02-26T04:38:50Z</time>
      </trkpt>
      <trkpt lat="40.542360" lon="-4.441680">
        <ele>1100.911</ele>
        <time>2022-02-26T04:39:30Z</time>
      </trkpt>
      <trkpt lat="40.542580" lon="-4.441700">
        <ele>1102.479</ele>
        <time>2022-02-26T04:40:10Z</time>
      </trkpt>
      <trkpt lat="40.542690" lon="-4.441690">
        <ele>1103.225</ele>
        <time>2022-02-26T04:40:50Z</time>
      </trkpt>
      <trkpt lat="40.542740" lon="-4.441690">
        <ele>1103.626</ele>
        <time>2022-02-26T04:41:30Z</time>
      </trkpt>
      <trkpt lat="40.542870" lon="-4.441680">
        <ele>1104.608</ele>
        <time>2022-02-26T04:42:10Z</time>
      </trkpt>
      <trkpt lat="40.542940" lon="-4.441660">
        <ele>1105.208</ele>
        <time>2022-02-26T04:42:50Z</time>
      </trkpt>
      <trkpt lat="40.542960" lon="-4.441650">
        <ele>1105.481</ele>
        <time>2022-02-26T04:43:30Z</time>
      </trkpt>
      <trkpt lat="40.543010" lon="-4.441640">
        <ele>1105.888</ele>
        <time>2022-02-26T04:44:10Z</time>
      </trkpt>
      <trkpt lat="40.543070" lon="-4.441610">
        <ele>1106.392</ele>
        <time>2022-02-26T04:44:50Z</time>
      </trkpt>
      <trkpt lat="40.543110" lon="-4.441580">
        <ele>1106.571</ele>
        <time>2022-02-26T04:45:30Z</time>
      </trkpt>
      <trkpt lat="40.543120" lon="-4.441570">
        <ele>1106.621</ele>
        <time>2022-02-26T04:46:10Z</time>
      </trkpt>
      <trkpt lat="40.543170" lon="-4.441520">
        <ele>1106.944</ele>
        <time>2022-02-26T04:46:50Z</time>
      </trkpt>
      <trkpt lat="40.543250" lon="-4.441430">
        <ele>1107.649</ele>
        <time>2022-02-26T04:47:30Z</time>
      </trkpt>
      <trkpt lat="40.543300" lon="-4.441350">
        <ele>1108.027</ele>
        <time>2022-02-26T04:48:10Z</time>
      </trkpt>
      <trkpt lat="40.543340" lon="-4.441270">
        <ele>1108.529</ele>
        <time>2022-02-26T04:48:50Z</time>
      </trkpt>
      <trkpt lat="40.543350" lon="-4.441240">
        <ele>1108.800</ele>
        <time>2022-02-26T04:49:30Z</time>
      </trkpt>
      <trkpt lat="40.543380" lon="-4.441160">
        <ele>1109.720</ele>
        <time>2022-02-26T04:50:10Z</time>
      </trkpt>
      <trkpt lat="40.543410" lon="-4.441020">
        <ele>1110.608</ele>
        <time>2022-02-26T04:50:50Z</time>
      </trkpt>
      <trkpt lat="40.543460" lon="-4.440630">
        <ele>1112.611</ele>
        <time>2022-02-26T04:51:30Z</time>
      </trkpt>
      <trkpt lat="40.543460" lon="-4.440550">
        <ele>1112.948</ele>
        <time>2022-02-26T04:52:10Z</time>
      </trkpt>
      <trkpt lat="40.543480" lon="-4.440390">
        <ele>1114.022</ele>
        <time>2022-02-26T04:52:50Z</time>
      </trkpt>
      <trkpt lat="40.543490" lon="-4.440320">
        <ele>1114.511</ele>
        <time>2022-02-26T04:53:30Z</time>
      </trkpt>
      <trkpt lat="40.543530" lon="-4.440090">
        <ele>1115.841</ele>
        <time>2022-02-26T04:54:10Z</time>
      </trkpt>
      <trkpt lat="40.543530" lon="-4.440080">
        <ele>1115.894</ele>
        <time>2022-02-26T04:54:50Z</time>
      </trkpt>
      <trkpt lat="40.543580" lon="-4.439860">
        <ele>1116.769</ele>
        <time>2022-02-26T04:55:30Z</time>
      </trkpt>
      <trkpt lat="40.543600" lon="-4.439770">
        <ele>1116.937</ele>
        <time>2022-02-26T04:56:10Z</time>
      </trkpt>
      <trkpt lat="40.543640" lon="-4.439640">
        <ele>1117.381</ele>
        <time>2022-02-26T04:56:50Z</time>
      </trkpt>
      <trkpt lat="40.543670" lon="-4.439530">
        <ele>1117.661</ele>
        <time>2022-02-26T04:57:30Z</time>
      </trkpt>
      <trkpt lat="40.543880" lon="-4.438740">
        <ele>1118.917</ele>
        <time>2022-02-26T04:58:10Z</time>
      </trkpt>
      <trkpt lat="40.543950" lon="-4.438520">
        <ele>1120.008</ele>
        <time>2022-02-26T04:58:50Z</time>
      </trkpt>
      <trkpt lat="40.544010" lon="-4.438300">
        <ele>1121.357</ele>
        <time>2022-02-26T04:59:30Z</time>
      </trkpt>
      <trkpt lat="40.544070" lon="-4.438080">
        <ele>1122.034</ele>
        <time>2022-02-26T05:00:10Z</time>
      </trkpt>
      <trkpt lat="40.544130" lon="-4.437860">
        <ele>1123.388</ele>
        <time>2022-02-26T05:00:50Z</time>
      </trkpt>
      <trkpt lat="40.544210" lon="-4.437560">
        <ele>1124.357</ele>
        <time>2022-02-26T05:01:30Z</time>
      </trkpt>
      <trkpt lat="40.544440" lon="-4.436740">
        <ele>1127.787</ele>
        <time>2022-02-26T05:02:10Z</time>
      </trkpt>
      <trkpt lat="40.544500" lon="-4.436520">
        <ele>1128.590</ele>
        <time>2022-02-26T05:02:50Z</time>
      </trkpt>
      <trkpt lat="40.544540" lon="-4.436390">
        <ele>1129.095</ele>
        <time>2022-02-26T05:03:30Z</time>
      </trkpt>
      <trkpt lat="40.544620" lon="-4.436140">
        <ele>1130.863</ele>
        <time>2022-02-26T05:04:10Z</time>
      </trkpt>
      <trkpt lat="40.544660" lon="-4.436040">
        <ele>1131.387</ele>
        <time>2022-02-26T05:04:50Z</time>
      </trkpt>
      <trkpt lat="40.544700" lon="-4.435960">
        <ele>1131.842</ele>
        <time>2022-02-26T05:05:30Z</time>
      </trkpt>
      <trkpt lat="40.544790" lon="-4.435850">
        <ele>1132.726</ele>
        <time>2022-02-26T05:06:10Z</time>
      </trkpt>
      <trkpt lat="40.544820" lon="-4.435830">
        <ele>1133.108</ele>
        <time>2022-02-26T05:06:50Z</time>
      </trkpt>
      <trkpt lat="40.544910" lon="-4.435750">
        <ele>1134.027</ele>
        <time>2022-02-26T05:07:30Z</time>
      </trkpt>
      <trkpt lat="40.544980" lon="-4.435720">
        <ele>1134.894</ele>
        <time>2022-02-26T05:08:10Z</time>
      </trkpt>
      <trkpt lat="40.545140" lon="-4.435630">
        <ele>1136.518</ele>
        <time>2022-02-26T05:08:50Z</time>
      </trkpt>
      <trkpt lat="40.545310" lon="-4.435540">
        <ele>1138.227</ele>
        <time>2022-02-26T05:09:30Z</time>
      </trkpt>
      <trkpt lat="40.545480" lon="-4.435460">
        <ele>1139.547</ele>
        <time>2022-02-26T05:10:10Z</time>
      </trkpt>
      <trkpt lat="40.545640" lon="-4.435370">
        <ele>1140.090</ele>
        <time>2022-02-26T05:10:50Z</time>
      </trkpt>
      <trkpt lat="40.545740" lon="-4.435320">
        <ele>1140.045</ele>
        <time>2022-02-26T05:11:30Z</time>
      </trkpt>
      <trkpt lat="40.545950" lon="-4.435240">
        <ele>1140.573</ele>
        <time>2022-02-26T05:12:10Z</time>
      </trkpt>
      <trkpt lat="40.545990" lon="-4.435230">
        <ele>1140.729</ele>
        <time>2022-02-26T05:12:50Z</time>
      </trkpt>
      <trkpt lat="40.546030" lon="-4.435210">
        <ele>1140.900</ele>
        <time>2022-02-26T05:13:30Z</time>
      </trkpt>
      <trkpt lat="40.546280" lon="-4.435180">
        <ele>1142.420</ele>
        <time>2022-02-26T05:14:10Z</time>
      </trkpt>
      <trkpt lat="40.546470" lon="-4.435150">
        <ele>1143.408</ele>
        <time>2022-02-26T05:14:50Z</time>
      </trkpt>
      <trkpt lat="40.546520" lon="-4.435140">
        <ele>1143.781</ele>
        <time>2022-02-26T05:15:30Z</time>
      </trkpt>
      <trkpt lat="40.546700" lon="-4.435090">
        <ele>1144.958</ele>
        <time>2022-02-26T05:16:10Z</time>
      </trkpt>
      <trkpt lat="40.546840" lon="-4.435040">
        <ele>1146.162</ele>
        <time>2022-02-26T05:16:50Z</time>
      </trkpt>
      <trkpt lat="40.547080" lon="-4.434940">
        <ele>1147.721</ele>
        <time>2022-02-26T05:17:30Z</time>
      </trkpt>
      <trkpt lat="40.547160" lon="-4.434930">
        <ele>1148.071</ele>
        <time>2022-02-26T05:18:10Z</time>
      </trkpt>
      <trkpt lat="40.547220" lon="-4.434930">
        <ele>1148.284</ele>
        <time>2022-02-26T05:18:50Z</time>
      </trkpt>
      <trkpt lat="40.547350" lon="-4.434950">
        <ele>1149.119</ele>
        <time>2022-02-26T05:19:30Z</time>
      </trkpt>
      <trkpt lat="40.547400" lon="-4.434960">
        <ele>1149.447</ele>
        <time>2022-02-26T05:20:10Z</time>
      </trkpt>
      <trkpt lat="40.547500" lon="-4.434990">
        <ele>1150.016</ele>
        <time>2022-02-26T05:20:50Z</time>
      </trkpt>
      <trkpt lat="40.547570" lon="-4.435010">
        <ele>1150.276</ele>
        <time>2022-02-26T05:21:30Z</time>
      </trkpt>
      <trkpt lat="40.547760" lon="-4.435080">
        <ele>1150.613</ele>
        <time>2022-02-26T05:22:10Z</time>
      </trkpt>
      <trkpt lat="40.547870" lon="-4.435110">
        <ele>1151.608</ele>
        <time>2022-02-26T05:22:50Z</time>
      </trkpt>
      <trkpt lat="40.548010" lon="-4.435130">
        <ele>1153.050</ele>
        <time>2022-02-26T05:23:30Z</time>
      </trkpt>
      <trkpt lat="40.548100" lon="-4.435130">
        <ele>1153.967</ele>
        <time>2022-02-26T05:24:10Z</time>
      </trkpt>
      <trkpt lat="40.548160" lon="-4.435130">
        <ele>1154.361</ele>
        <time>2022-02-26T05:24:50Z</time>
      </trkpt>
      <trkpt lat="40.548350" lon="-4.435080">
        <ele>1155.810</ele>
        <time>2022-02-26T05:25:30Z</time>
      </trkpt>
      <trkpt lat="40.548760" lon="-4.434900">
        <ele>1157.480</ele>
        <time>2022-02-26T05:26:10Z</time>
      </trkpt>
      <trkpt lat="40.548790" lon="-4.434880">
        <ele>1157.423</ele>
        <time>2022-02-26T05:26:50Z</time>
      </trkpt>
      <trkpt lat="40.548960" lon="-4.434790">
        <ele>1158.088</ele>
        <time>2022-02-26T05:27:30Z</time>
      </trkpt>
      <trkpt lat="40.549130" lon="-4.434710">
        <ele>1159.016</ele>
        <time>2022-02-26T05:28:10Z</time>
      </trkpt>
      <trkpt lat="40.549300" lon="-4.434620">
        <ele>1159.733</ele>
        <time>2022-02-26T05:28:50Z</time>
      </trkpt>
      <trkpt lat="40.549460" lon="-4.434530">
        <ele>1160.323</ele>
        <time>2022-02-26T05:29:30Z</time>
      </trkpt>
      <trkpt lat="40.549820" lon="-4.434350">
        <ele>1160.315</ele>
        <time>2022-02-26T05:30:10Z</time>
      </trkpt>
      <trkpt lat="40.549920" lon="-4.434280">
        <ele>1160.508</ele>
        <time>2022-02-26T05:30:50Z</time>
      </trkpt>
      <trkpt lat="40.550210" lon="-4.434090">
        <ele>1160.362</ele>
        <time>2022-02-26T05:31:30Z</time>
      </trkpt>
      <trkpt lat="40.550240" lon="-4.434070">
        <ele>1160.249</ele>
        <time>2022-02-26T05:32:10Z</time>
      </trkpt>
      <trkpt lat="40.550390" lon="-4.433940">
        <ele>1160.023</ele>
        <time>2022-02-26T05:32:50Z</time>
      </trkpt>
      <trkpt lat="40.550480" lon="-4.433860">
        <ele>1160.082</ele>
        <time>2022-02-26T05:33:30Z</time>
      </trkpt>
      <trkpt lat="40.550510" lon="-4.433830">
        <ele>1160.072</ele>
        <time>2022-02-26T05:34:10Z</time>
      </trkpt>
      <trkpt lat="40.550670" lon="-4.433640">
        <ele>1159.225</ele>
        <time>2022-02-26T05:34:50Z</time>
      </trkpt>
      <trkpt lat="40.550800" lon="-4.433480">
        <ele>1158.270</ele>
        <time>2022-02-26T05:35:30Z</time>
      </trkpt>
      <trkpt lat="40.551070" lon="-4.433160">
        <ele>1157.158</ele>
        <time>2022-02-26T05:36:10Z</time>
      </trkpt>
      <trkpt lat="40.551100" lon="-4.433120">
        <ele>1157.029</ele>
        <time>2022-02-26T05:36:50Z</time>
      </trkpt>
      <trkpt lat="40.551500" lon="-4.432640">
        <ele>1154.200</ele>
        <time>2022-02-26T05:37:30Z</time>
      </trkpt>
      <trkpt lat="40.551660" lon="-4.432440">
        <ele>1153.020</ele>
        <time>2022-02-26T05:38:10Z</time>
      </trkpt>
      <trkpt lat="40.551720" lon="-4.432380">
        <ele>1152.508</ele>
        <time>2022-02-26T05:38:50Z</time>
      </trkpt>
      <trkpt lat="40.551780" lon="-4.432300">
        <ele>1151.971</ele>
        <time>2022-02-26T05:39:30Z</time>
      </trkpt>
      <trkpt lat="40.552110" lon="-4.431900">
        <ele>1150.278</ele>
        <time>2022-02-26T05:40:10Z</time>
      </trkpt>
      <trkpt lat="40.552380" lon="-4.431580">
        <ele>1148.122</ele>
        <time>2022-02-26T05:40:50Z</time>
      </trkpt>
      <trkpt lat="40.552480" lon="-4.431450">
        <ele>1147.381</ele>
        <time>2022-02-26T05:41:30Z</time>
      </trkpt>
      <trkpt lat="40.552510" lon="-4.431420">
        <ele>1147.091</ele>
        <time>2022-02-26T05:42:10Z</time>
      </trkpt>
      <trkpt lat="40.552650" lon="-4.431260">
        <ele>1146.214</ele>
        <time>2022-02-26T05:42:50Z</time>
      </trkpt>
      <trkpt lat="40.552920" lon="-4.430940">
        <ele>1145.839</ele>
        <time>2022-02-26T05:43:30Z</time>
      </trkpt>
      <trkpt lat="40.553050" lon="-4.430790">
        <ele>1145.217</ele>
        <time>2022-02-26T05:44:10Z</time>
      </trkpt>
      <trkpt lat="40.553320" lon="-4.430470">
        <ele>1144.464</ele>
        <time>2022-02-26T05:44:50Z</time>
      </trkpt>
      <trkpt lat="40.553450" lon="-4.430310">
        <ele>1144.106</ele>
        <time>2022-02-26T05:45:30Z</time>
      </trkpt>
      <trkpt lat="40.553590" lon="-4.430150">
        <ele>1143.616</ele>
        <time>2022-02-26T05:46:10Z</time>
      </trkpt>
      <trkpt lat="40.553720" lon="-4.430000">
        <ele>1143.208</ele>
        <time>2022-02-26T05:46:50Z</time>
      </trkpt>
      <trkpt lat="40.553850" lon="-4.429840">
        <ele>1142.835</ele>
        <time>2022-02-26T05:47:30Z</time>
      </trkpt>
      <trkpt lat="40.553990" lon="-4.429680">
        <ele>1142.662</ele>
        <time>2022-02-26T05:48:10Z</time>
      </trkpt>
      <trkpt lat="40.554120" lon="-4.429520">
        <ele>1142.236</ele>
        <time>2022-02-26T05:48:50Z</time>
      </trkpt>
      <trkpt lat="40.554260" lon="-4.429370">
        <ele>1141.985</ele>
        <time>2022-02-26T05:49:30Z</time>
      </trkpt>
      <trkpt lat="40.554390" lon="-4.429210">
        <ele>1142.025</ele>
        <time>2022-02-26T05:50:10Z</time>
      </trkpt>
      <trkpt lat="40.554660" lon="-4.428890">
        <ele>1139.528</ele>
        <time>2022-02-26T05:50:50Z</time>
      </trkpt>
      <trkpt lat="40.554790" lon="-4.428730">
        <ele>1139.173</ele>
        <time>2022-02-26T05:51:30Z</time>
      </trkpt>
      <trkpt lat="40.554930" lon="-4.428580">
        <ele>1138.771</ele>
        <time>2022-02-26T05:52:10Z</time>
      </trkpt>
      <trkpt lat="40.555060" lon="-4.428420">
        <ele>1139.374</ele>
        <time>2022-02-26T05:52:50Z</time>
      </trkpt>
      <trkpt lat="40.555190" lon="-4.428260">
        <ele>1140.156</ele>
        <time>2022-02-26T05:53:30Z</time>
      </trkpt>
      <trkpt lat="40.555330" lon="-4.428100">
        <ele>1139.921</ele>
        <time>2022-02-26T05:54:10Z</time>
      </trkpt>
      <trkpt lat="40.555600" lon="-4.427790">
        <ele>1139.308</ele>
        <time>2022-02-26T05:54:50Z</time>
      </trkpt>
      <trkpt lat="40.555610" lon="-4.427770">
        <ele>1139.286</ele>
        <time>2022-02-26T05:55:30Z</time>
      </trkpt>
      <trkpt lat="40.555730" lon="-4.427630">
        <ele>1138.093</ele>
        <time>2022-02-26T05:56:10Z</time>
      </trkpt>
      <trkpt lat="40.555760" lon="-4.427600">
        <ele>1137.777</ele>
        <time>2022-02-26T05:56:50Z</time>
      </trkpt>
      <trkpt lat="40.555890" lon="-4.427510">
        <ele>1136.496</ele>
        <time>2022-02-26T05:57:30Z</time>
      </trkpt>
      <trkpt lat="40.555920" lon="-4.427480">
        <ele>1136.246</ele>
        <time>2022-02-26T05:58:10Z</time>
      </trkpt>
      <trkpt lat="40.556060" lon="-4.427380">
        <ele>1135.129</ele>
        <time>2022-02-26T05:58:50Z</time>
      </trkpt>
      <trkpt lat="40.556090" lon="-4.427360">
        <ele>1134.894</ele>
        <time>2022-02-26T05:59:30Z</time>
      </trkpt>
      <trkpt lat="40.556110" lon="-4.427350">
        <ele>1134.662</ele>
        <time>2022-02-26T06:00:10Z</time>
      </trkpt>
      <trkpt lat="40.556230" lon="-4.427330">
        <ele>1135.046</ele>
        <time>2022-02-26T06:00:50Z</time>
      </trkpt>
      <trkpt lat="40.556290" lon="-4.427310">
        <ele>1135.388</ele>
        <time>2022-02-26T06:01:30Z</time>
      </trkpt>
      <trkpt lat="40.556580" lon="-4.427240">
        <ele>1138.016</ele>
        <time>2022-02-26T06:02:10Z</time>
      </trkpt>
      <trkpt lat="40.556850" lon="-4.427160">
        <ele>1140.308</ele>
        <time>2022-02-26T06:02:50Z</time>
      </trkpt>
      <trkpt lat="40.557030" lon="-4.427110">
        <ele>1142.063</ele>
        <time>2022-02-26T06:03:30Z</time>
      </trkpt>
      <trkpt lat="40.557170" lon="-4.427080">
        <ele>1143.970</ele>
        <time>2022-02-26T06:04:10Z</time>
      </trkpt>
      <trkpt lat="40.557290" lon="-4.427010">
        <ele>1145.544</ele>
        <time>2022-02-26T06:04:50Z</time>
      </trkpt>
      <trkpt lat="40.557360" lon="-4.426950">
        <ele>1146.573</ele>
        <time>2022-02-26T06:05:30Z</time>
      </trkpt>
      <trkpt lat="40.557430" lon="-4.426890">
        <ele>1147.673</ele>
        <time>2022-02-26T06:06:10Z</time>
      </trkpt>
      <trkpt lat="40.557490" lon="-4.426790">
        <ele>1149.066</ele>
        <time>2022-02-26T06:06:50Z</time>
      </trkpt>
      <trkpt lat="40.557810" lon="-4.426300">
        <ele>1151.541</ele>
        <time>2022-02-26T06:07:30Z</time>
      </trkpt>
      <trkpt lat="40.558040" lon="-4.425950">
        <ele>1153.519</ele>
        <time>2022-02-26T06:08:10Z</time>
      </trkpt>
      <trkpt lat="40.558160" lon="-4.425770">
        <ele>1154.133</ele>
        <time>2022-02-26T06:08:50Z</time>
      </trkpt>
      <trkpt lat="40.558230" lon="-4.425670">
        <ele>1154.423</ele>
        <time>2022-02-26T06:09:30Z</time>
      </trkpt>
      <trkpt lat="40.558300" lon="-4.425610">
        <ele>1154.715</ele>
        <time>2022-02-26T06:10:10Z</time>
      </trkpt>
      <trkpt lat="40.558580" lon="-4.425370">
        <ele>1152.308</ele>
        <time>2022-02-26T06:10:50Z</time>
      </trkpt>
      <trkpt lat="40.558770" lon="-4.425270">
        <ele>1151.492</ele>
        <time>2022-02-26T06:11:30Z</time>
      </trkpt>
      <trkpt lat="40.559130" lon="-4.425080">
        <ele>1151.199</ele>
        <time>2022-02-26T06:12:10Z</time>
      </trkpt>
      <trkpt lat="40.559630" lon="-4.424820">
        <ele>1149.493</ele>
        <time>2022-02-26T06:12:50Z</time>
      </trkpt>
      <trkpt lat="40.559950" lon="-4.424650">
        <ele>1147.032</ele>
        <time>2022-02-26T06:13:30Z</time>
      </trkpt>
      <trkpt lat="40.560000" lon="-4.424630">
        <ele>1146.762</ele>
        <time>2022-02-26T06:14:10Z</time>
      </trkpt>
      <trkpt lat="40.560520" lon="-4.424430">
        <ele>1146.155</ele>
        <time>2022-02-26T06:14:50Z</time>
      </trkpt>
      <trkpt lat="40.560690" lon="-4.424360">
        <ele>1146.070</ele>
        <time>2022-02-26T06:15:30Z</time>
      </trkpt>
      <trkpt lat="40.560860" lon="-4.424300">
        <ele>1145.598</ele>
        <time>2022-02-26T06:16:10Z</time>
      </trkpt>
      <trkpt lat="40.561210" lon="-4.424150">
        <ele>1144.013</ele>
        <time>2022-02-26T06:16:50Z</time>
      </trkpt>
      <trkpt lat="40.561380" lon="-4.424080">
        <ele>1141.443</ele>
        <time>2022-02-26T06:17:30Z</time>
      </trkpt>
      <trkpt lat="40.561420" lon="-4.424070">
        <ele>1141.407</ele>
        <time>2022-02-26T06:18:10Z</time>
      </trkpt>
      <trkpt lat="40.561680" lon="-4.423930">
        <ele>1143.308</ele>
        <time>2022-02-26T06:18:50Z</time>
      </trkpt>
      <trkpt lat="40.561850" lon="-4.423780">
        <ele>1142.980</ele>
        <time>2022-02-26T06:19:30Z</time>
      </trkpt>
      <trkpt lat="40.561860" lon="-4.423770">
        <ele>1142.957</ele>
        <time>2022-02-26T06:20:10Z</time>
      </trkpt>
      <trkpt lat="40.561990" lon="-4.423610">
        <ele>1142.411</ele>
        <time>2022-02-26T06:20:50Z</time>
      </trkpt>
      <trkpt lat="40.562040" lon="-4.423550">
        <ele>1142.070</ele>
        <time>2022-02-26T06:21:30Z</time>
      </trkpt>
      <trkpt lat="40.562160" lon="-4.423410">
        <ele>1140.820</ele>
        <time>2022-02-26T06:22:10Z</time>
      </trkpt>
      <trkpt lat="40.562260" lon="-4.423310">
        <ele>1140.113</ele>
        <time>2022-02-26T06:22:50Z</time>
      </trkpt>
      <trkpt lat="40.562270" lon="-4.423300">
        <ele>1140.198</ele>
        <time>2022-02-26T06:23:30Z</time>
      </trkpt>
      <trkpt lat="40.562410" lon="-4.423210">
        <ele>1140.496</ele>
        <time>2022-02-26T06:24:10Z</time>
      </trkpt>
      <trkpt lat="40.562430" lon="-4.423200">
        <ele>1140.553</ele>
        <time>2022-02-26T06:24:50Z</time>
      </trkpt>
      <trkpt lat="40.562570" lon="-4.423130">
        <ele>1141.204</ele>
        <time>2022-02-26T06:25:30Z</time>
      </trkpt>
      <trkpt lat="40.562600" lon="-4.423120">
        <ele>1141.414</ele>
        <time>2022-02-26T06:26:10Z</time>
      </trkpt>
      <trkpt lat="40.562770" lon="-4.423090">
        <ele>1142.708</ele>
        <time>2022-02-26T06:26:50Z</time>
      </trkpt>
      <trkpt lat="40.562780" lon="-4.423100">
        <ele>1142.794</ele>
        <time>2022-02-26T06:27:30Z</time>
      </trkpt>
      <trkpt lat="40.562950" lon="-4.423120">
        <ele>1143.211</ele>
        <time>2022-02-26T06:28:10Z</time>
      </trkpt>
      <trkpt lat="40.562960" lon="-4.423120">
        <ele>1143.215</ele>
        <time>2022-02-26T06:28:50Z</time>
      </trkpt>
      <trkpt lat="40.563250" lon="-4.423170">
        <ele>1144.274</ele>
        <time>2022-02-26T06:29:30Z</time>
      </trkpt>
      <trkpt lat="40.563490" lon="-4.423230">
        <ele>1145.314</ele>
        <time>2022-02-26T06:30:10Z</time>
      </trkpt>
      <trkpt lat="40.563660" lon="-4.423280">
        <ele>1146.537</ele>
        <time>2022-02-26T06:30:50Z</time>
      </trkpt>
      <trkpt lat="40.563840" lon="-4.423330">
        <ele>1148.532</ele>
        <time>2022-02-26T06:31:30Z</time>
      </trkpt>
      <trkpt lat="40.564130" lon="-4.423410">
        <ele>1152.370</ele>
        <time>2022-02-26T06:32:10Z</time>
      </trkpt>
      <trkpt lat="40.564190" lon="-4.423400">
        <ele>1152.851</ele>
        <time>2022-02-26T06:32:50Z</time>
      </trkpt>
      <trkpt lat="40.564230" lon="-4.423400">
        <ele>1153.001</ele>
        <time>2022-02-26T06:33:30Z</time>
      </trkpt>
      <trkpt lat="40.564380" lon="-4.423380">
        <ele>1153.611</ele>
        <time>2022-02-26T06:34:10Z</time>
      </trkpt>
      <trkpt lat="40.564520" lon="-4.423340">
        <ele>1153.408</ele>
        <time>2022-02-26T06:34:50Z</time>
      </trkpt>
      <trkpt lat="40.564550" lon="-4.423330">
        <ele>1153.384</ele>
        <time>2022-02-26T06:35:30Z</time>
      </trkpt>
      <trkpt lat="40.564610" lon="-4.423290">
        <ele>1153.121</ele>
        <time>2022-02-26T06:36:10Z</time>
      </trkpt>
      <trkpt lat="40.564700" lon="-4.423220">
        <ele>1152.985</ele>
        <time>2022-02-26T06:36:50Z</time>
      </trkpt>
      <trkpt lat="40.564760" lon="-4.423170">
        <ele>1153.094</ele>
        <time>2022-02-26T06:37:30Z</time>
      </trkpt>
      <trkpt lat="40.564990" lon="-4.422930">
        <ele>1153.924</ele>
        <time>2022-02-26T06:38:10Z</time>
      </trkpt>
      <trkpt lat="40.565130" lon="-4.422790">
        <ele>1154.057</ele>
        <time>2022-02-26T06:38:50Z</time>
      </trkpt>
      <trkpt lat="40.565180" lon="-4.422730">
        <ele>1154.042</ele>
        <time>2022-02-26T06:39:30Z</time>
      </trkpt>
      <trkpt lat="40.565350" lon="-4.422610">
        <ele>1153.990</ele>
        <time>2022-02-26T06:40:10Z</time>
      </trkpt>
      <trkpt lat="40.565450" lon="-4.422570">
        <ele>1153.927</ele>
        <time>2022-02-26T06:40:50Z</time>
      </trkpt>
      <trkpt lat="40.565510" lon="-4.422540">
        <ele>1153.968</ele>
        <time>2022-02-26T06:41:30Z</time>
      </trkpt>
      <trkpt lat="40.565620" lon="-4.422500">
        <ele>1154.514</ele>
        <time>2022-02-26T06:42:10Z</time>
      </trkpt>
      <trkpt lat="40.565790" lon="-4.422430">
        <ele>1155.908</ele>
        <time>2022-02-26T06:42:50Z</time>
      </trkpt>
      <trkpt lat="40.565800" lon="-4.422430">
        <ele>1156.061</ele>
        <time>2022-02-26T06:43:30Z</time>
      </trkpt>
      <trkpt lat="40.565960" lon="-4.422330">
        <ele>1157.548</ele>
        <time>2022-02-26T06:44:10Z</time>
      </trkpt>
      <trkpt lat="40.566100" lon="-4.422210">
        <ele>1159.082</ele>
        <time>2022-02-26T06:44:50Z</time>
      </trkpt>
      <trkpt lat="40.566360" lon="-4.421940">
        <ele>1160.961</ele>
        <time>2022-02-26T06:45:30Z</time>
      </trkpt>
      <trkpt lat="40.566570" lon="-4.421710">
        <ele>1162.521</ele>
        <time>2022-02-26T06:46:10Z</time>
      </trkpt>
      <trkpt lat="40.567180" lon="-4.421050">
        <ele>1168.714</ele>
        <time>2022-02-26T06:46:50Z</time>
      </trkpt>
      <trkpt lat="40.567530" lon="-4.420750">
        <ele>1172.489</ele>
        <time>2022-02-26T06:47:30Z</time>
      </trkpt>
      <trkpt lat="40.567680" lon="-4.420620">
        <ele>1173.487</ele>
        <time>2022-02-26T06:48:10Z</time>
      </trkpt>
      <trkpt lat="40.567830" lon="-4.420490">
        <ele>1174.461</ele>
        <time>2022-02-26T06:48:50Z</time>
      </trkpt>
      <trkpt lat="40.567980" lon="-4.420360">
        <ele>1174.921</ele>
        <time>2022-02-26T06:49:30Z</time>
      </trkpt>
      <trkpt lat="40.568130" lon="-4.420230">
        <ele>1175.213</ele>
        <time>2022-02-26T06:50:10Z</time>
      </trkpt>
      <trkpt lat="40.568660" lon="-4.419760">
        <ele>1176.908</ele>
        <time>2022-02-26T06:50:50Z</time>
      </trkpt>
      <trkpt lat="40.568920" lon="-4.419560">
        <ele>1177.645</ele>
        <time>2022-02-26T06:51:30Z</time>
      </trkpt>
      <trkpt lat="40.569200" lon="-4.419380">
        <ele>1178.132</ele>
        <time>2022-02-26T06:52:10Z</time>
      </trkpt>
      <trkpt lat="40.569370" lon="-4.419300">
        <ele>1178.286</ele>
        <time>2022-02-26T06:52:50Z</time>
      </trkpt>
      <trkpt lat="40.569470" lon="-4.419250">
        <ele>1178.585</ele>
        <time>2022-02-26T06:53:30Z</time>
      </trkpt>
      <trkpt lat="40.569550" lon="-4.419230">
        <ele>1178.935</ele>
        <time>2022-02-26T06:54:10Z</time>
      </trkpt>
      <trkpt lat="40.570060" lon="-4.419040">
        <ele>1182.028</ele>
        <time>2022-02-26T06:54:50Z</time>
      </trkpt>
      <trkpt lat="40.570240" lon="-4.418890">
        <ele>1183.023</ele>
        <time>2022-02-26T06:55:30Z</time>
      </trkpt>
      <trkpt lat="40.570400" lon="-4.418750">
        <ele>1183.341</ele>
        <time>2022-02-26T06:56:10Z</time>
      </trkpt>
      <trkpt lat="40.570500" lon="-4.418620">
        <ele>1183.426</ele>
        <time>2022-02-26T06:56:50Z</time>
      </trkpt>
      <trkpt lat="40.570570" lon="-4.418550">
        <ele>1183.347</ele>
        <time>2022-02-26T06:57:30Z</time>
      </trkpt>
      <trkpt lat="40.570640" lon="-4.418460">
        <ele>1183.211</ele>
        <time>2022-02-26T06:58:10Z</time>
      </trkpt>
      <trkpt lat="40.570770" lon="-4.418310">
        <ele>1182.808</ele>
        <time>2022-02-26T06:58:50Z</time>
      </trkpt>
      <trkpt lat="40.570780" lon="-4.418300">
        <ele>1182.841</ele>
        <time>2022-02-26T06:59:30Z</time>
      </trkpt>
      <trkpt lat="40.570930" lon="-4.418070">
        <ele>1183.298</ele>
        <time>2022-02-26T07:00:10Z</time>
      </trkpt>
      <trkpt lat="40.571000" lon="-4.417950">
        <ele>1183.252</ele>
        <time>2022-02-26T07:00:50Z</time>
      </trkpt>
      <trkpt lat="40.571070" lon="-4.417830">
        <ele>1183.131</ele>
        <time>2022-02-26T07:01:30Z</time>
      </trkpt>
      <trkpt lat="40.571100" lon="-4.417750">
        <ele>1183.221</ele>
        <time>2022-02-26T07:02:10Z</time>
      </trkpt>
      <trkpt lat="40.571190" lon="-4.417540">
        <ele>1183.054</ele>
        <time>2022-02-26T07:02:50Z</time>
      </trkpt>
      <trkpt lat="40.571200" lon="-4.417530">
        <ele>1183.029</ele>
        <time>2022-02-26T07:03:30Z</time>
      </trkpt>
      <trkpt lat="40.571320" lon="-4.417100">
        <ele>1182.197</ele>
        <time>2022-02-26T07:04:10Z</time>
      </trkpt>
      <trkpt lat="40.571380" lon="-4.416880">
        <ele>1181.614</ele>
        <time>2022-02-26T07:04:50Z</time>
      </trkpt>
      <trkpt lat="40.571450" lon="-4.416660">
        <ele>1181.954</ele>
        <time>2022-02-26T07:05:30Z</time>
      </trkpt>
      <trkpt lat="40.571510" lon="-4.416440">
        <ele>1182.109</ele>
        <time>2022-02-26T07:06:10Z</time>
      </trkpt>
      <trkpt lat="40.571580" lon="-4.416220">
        <ele>1181.708</ele>
        <time>2022-02-26T07:06:50Z</time>
      </trkpt>
      <trkpt lat="40.571640" lon="-4.416000">
        <ele>1181.530</ele>
        <time>2022-02-26T07:07:30Z</time>
      </trkpt>
      <trkpt lat="40.571720" lon="-4.415730">
        <ele>1182.327</ele>
        <time>2022-02-26T07:08:10Z</time>
      </trkpt>
      <trkpt lat="40.571790" lon="-4.415560">
        <ele>1182.361</ele>
        <time>2022-02-26T07:08:50Z</time>
      </trkpt>
      <trkpt lat="40.571870" lon="-4.415410">
        <ele>1181.050</ele>
        <time>2022-02-26T07:09:30Z</time>
      </trkpt>
      <trkpt lat="40.571960" lon="-4.415270">
        <ele>1179.110</ele>
        <time>2022-02-26T07:10:10Z</time>
      </trkpt>
      <trkpt lat="40.572030" lon="-4.415220">
        <ele>1179.833</ele>
        <time>2022-02-26T07:10:50Z</time>
      </trkpt>
      <trkpt lat="40.572040" lon="-4.415220">
        <ele>1179.818</ele>
        <time>2022-02-26T07:11:30Z</time>
      </trkpt>
      <trkpt lat="40.572110" lon="-4.415170">
        <ele>1180.326</ele>
        <time>2022-02-26T07:12:10Z</time>
      </trkpt>
      <trkpt lat="40.572200" lon="-4.415150">
        <ele>1180.524</ele>
        <time>2022-02-26T07:12:50Z</time>
      </trkpt>
      <trkpt lat="40.572370" lon="-4.415100">
        <ele>1181.004</ele>
        <time>2022-02-26T07:13:30Z</time>
      </trkpt>
      <trkpt lat="40.572400" lon="-4.415100">
        <ele>1181.014</ele>
        <time>2022-02-26T07:14:10Z</time>
      </trkpt>
      <trkpt lat="40.572880" lon="-4.415050">
        <ele>1181.608</ele>
        <time>2022-02-26T07:14:50Z</time>
      </trkpt>
      <trkpt lat="40.573090" lon="-4.415040">
        <ele>1181.711</ele>
        <time>2022-02-26T07:15:30Z</time>
      </trkpt>
      <trkpt lat="40.573270" lon="-4.415030">
        <ele>1181.898</ele>
        <time>2022-02-26T07:16:10Z</time>
      </trkpt>
      <trkpt lat="40.573610" lon="-4.415020">
        <ele>1183.762</ele>
        <time>2022-02-26T07:16:50Z</time>
      </trkpt>
      <trkpt lat="40.574080" lon="-4.415030">
        <ele>1183.021</ele>
        <time>2022-02-26T07:17:30Z</time>
      </trkpt>
      <trkpt lat="40.574350" lon="-4.415040">
        <ele>1184.511</ele>
        <time>2022-02-26T07:18:10Z</time>
      </trkpt>
      <trkpt lat="40.574520" lon="-4.415040">
        <ele>1185.714</ele>
        <time>2022-02-26T07:18:50Z</time>
      </trkpt>
      <trkpt lat="40.574880" lon="-4.415020">
        <ele>1187.459</ele>
        <time>2022-02-26T07:19:30Z</time>
      </trkpt>
      <trkpt lat="40.574890" lon="-4.415020">
        <ele>1187.457</ele>
        <time>2022-02-26T07:20:10Z</time>
      </trkpt>
      <trkpt lat="40.574990" lon="-4.415010">
        <ele>1187.928</ele>
        <time>2022-02-26T07:20:50Z</time>
      </trkpt>
      <trkpt lat="40.575060" lon="-4.414990">
        <ele>1188.189</ele>
        <time>2022-02-26T07:21:30Z</time>
      </trkpt>
      <trkpt lat="40.575190" lon="-4.414920">
        <ele>1188.417</ele>
        <time>2022-02-26T07:22:10Z</time>
      </trkpt>
      <trkpt lat="40.575310" lon="-4.414800">
        <ele>1188.808</ele>
        <time>2022-02-26T07:22:50Z</time>
      </trkpt>
      <trkpt lat="40.575370" lon="-4.414750">
        <ele>1188.921</ele>
        <time>2022-02-26T07:23:30Z</time>
      </trkpt>
      <trkpt lat="40.575490" lon="-4.414650">
        <ele>1189.418</ele>
        <time>2022-02-26T07:24:10Z</time>
      </trkpt>
      <trkpt lat="40.575520" lon="-4.414620">
        <ele>1189.512</ele>
        <time>2022-02-26T07:24:50Z</time>
      </trkpt>
      <trkpt lat="40.575600" lon="-4.414560">
        <ele>1189.891</ele>
        <time>2022-02-26T07:25:30Z</time>
      </trkpt>
      <trkpt lat="40.575660" lon="-4.414520">
        <ele>1190.471</ele>
        <time>2022-02-26T07:26:10Z</time>
      </trkpt>
      <trkpt lat="40.575720" lon="-4.414500">
        <ele>1190.924</ele>
        <time>2022-02-26T07:26:50Z</time>
      </trkpt>
      <trkpt lat="40.575860" lon="-4.414490">
        <ele>1191.999</ele>
        <time>2022-02-26T07:27:30Z</time>
      </trkpt>
      <trkpt lat="40.575880" lon="-4.414480">
        <ele>1192.147</ele>
        <time>2022-02-26T07:28:10Z</time>
      </trkpt>
      <trkpt lat="40.576030" lon="-4.414520">
        <ele>1192.992</ele>
        <time>2022-02-26T07:28:50Z</time>
      </trkpt>
      <trkpt lat="40.576040" lon="-4.414530">
        <ele>1192.973</ele>
        <time>2022-02-26T07:29:30Z</time>
      </trkpt>
      <trkpt lat="40.576190" lon="-4.414620">
        <ele>1193.520</ele>
        <time>2022-02-26T07:30:10Z</time>
      </trkpt>
      <trkpt lat="40.576390" lon="-4.414810">
        <ele>1195.008</ele>
        <time>2022-02-26T07:30:50Z</time>
      </trkpt>
      <trkpt lat="40.576510" lon="-4.414960">
        <ele>1195.998</ele>
        <time>2022-02-26T07:31:30Z</time>
      </trkpt>
      <trkpt lat="40.576750" lon="-4.415240">
        <ele>1198.565</ele>
        <time>2022-02-26T07:32:10Z</time>
      </trkpt>
      <trkpt lat="40.576890" lon="-4.415400">
        <ele>1199.629</ele>
        <time>2022-02-26T07:32:50Z</time>
      </trkpt>
      <trkpt lat="40.577020" lon="-4.415560">
        <ele>1200.828</ele>
        <time>2022-02-26T07:33:30Z</time>
      </trkpt>
      <trkpt lat="40.577150" lon="-4.415710">
        <ele>1202.218</ele>
        <time>2022-02-26T07:34:10Z</time>
      </trkpt>
      <trkpt lat="40.577290" lon="-4.415870">
        <ele>1203.721</ele>
        <time>2022-02-26T07:34:50Z</time>
      </trkpt>
      <trkpt lat="40.577420" lon="-4.416030">
        <ele>1205.156</ele>
        <time>2022-02-26T07:35:30Z</time>
      </trkpt>
      <trkpt lat="40.577610" lon="-4.416250">
        <ele>1206.534</ele>
        <time>2022-02-26T07:36:10Z</time>
      </trkpt>
      <trkpt lat="40.577670" lon="-4.416370">
        <ele>1206.989</ele>
        <time>2022-02-26T07:36:50Z</time>
      </trkpt>
      <trkpt lat="40.577740" lon="-4.416480">
        <ele>1207.306</ele>
        <time>2022-02-26T07:37:30Z</time>
      </trkpt>
      <trkpt lat="40.577770" lon="-4.416560">
        <ele>1207.326</ele>
        <time>2022-02-26T07:38:10Z</time>
      </trkpt>
      <trkpt lat="40.577820" lon="-4.416680">
        <ele>1207.508</ele>
        <time>2022-02-26T07:38:50Z</time>
      </trkpt>
      <trkpt lat="40.577850" lon="-4.416780">
        <ele>1208.137</ele>
        <time>2022-02-26T07:39:30Z</time>
      </trkpt>
      <trkpt lat="40.577900" lon="-4.416940">
        <ele>1208.964</ele>
        <time>2022-02-26T07:40:10Z</time>
      </trkpt>
      <trkpt lat="40.578050" lon="-4.417690">
        <ele>1210.688</ele>
        <time>2022-02-26T07:40:50Z</time>
      </trkpt>
      <trkpt lat="40.578070" lon="-4.417800">
        <ele>1211.277</ele>
        <time>2022-02-26T07:41:30Z</time>
      </trkpt>
      <trkpt lat="40.578100" lon="-4.417910">
        <ele>1211.537</ele>
        <time>2022-02-26T07:42:10Z</time>
      </trkpt>
      <trkpt lat="40.578140" lon="-4.418100">
        <ele>1211.840</ele>
        <time>2022-02-26T07:42:50Z</time>
      </trkpt>
      <trkpt lat="40.578160" lon="-4.418130">
        <ele>1211.925</ele>
        <time>2022-02-26T07:43:30Z</time>
      </trkpt>
      <trkpt lat="40.578220" lon="-4.418250">
        <ele>1212.183</ele>
        <time>2022-02-26T07:44:10Z</time>
      </trkpt>
      <trkpt lat="40.578270" lon="-4.418320">
        <ele>1212.453</ele>
        <time>2022-02-26T07:44:50Z</time>
      </trkpt>
      <trkpt lat="40.578320" lon="-4.418400">
        <ele>1212.904</ele>
        <time>2022-02-26T07:45:30Z</time>
      </trkpt>
      <trkpt lat="40.578400" lon="-4.418480">
        <ele>1213.714</ele>
        <time>2022-02-26T07:46:10Z</time>
      </trkpt>
      <trkpt lat="40.578450" lon="-4.418530">
        <ele>1214.308</ele>
        <time>2022-02-26T07:46:50Z</time>
      </trkpt>
      <trkpt lat="40.578550" lon="-4.418610">
        <ele>1215.364</ele>
        <time>2022-02-26T07:47:30Z</time>
      </trkpt>
      <trkpt lat="40.578660" lon="-4.418690">
        <ele>1216.871</ele>
        <time>2022-02-26T07:48:10Z</time>
      </trkpt>
      <trkpt lat="40.578710" lon="-4.418730">
        <ele>1217.575</ele>
        <time>2022-02-26T07:48:50Z</time>
      </trkpt>
      <trkpt lat="40.578870" lon="-4.418830">
        <ele>1219.614</ele>
        <time>2022-02-26T07:49:30Z</time>
      </trkpt>
      <trkpt lat="40.579020" lon="-4.418930">
        <ele>1220.994</ele>
        <time>2022-02-26T07:50:10Z</time>
      </trkpt>
      <trkpt lat="40.579030" lon="-4.418930">
        <ele>1220.917</ele>
        <time>2022-02-26T07:50:50Z</time>
      </trkpt>
      <trkpt lat="40.579200" lon="-4.419020">
        <ele>1221.762</ele>
        <time>2022-02-26T07:51:30Z</time>
      </trkpt>
      <trkpt lat="40.579230" lon="-4.419040">
        <ele>1221.840</ele>
        <time>2022-02-26T07:52:10Z</time>
      </trkpt>
      <trkpt lat="40.579370" lon="-4.419090">
        <ele>1222.531</ele>
        <time>2022-02-26T07:52:50Z</time>
      </trkpt>
      <trkpt lat="40.579410" lon="-4.419100">
        <ele>1222.861</ele>
        <time>2022-02-26T07:53:30Z</time>
      </trkpt>
      <trkpt lat="40.579510" lon="-4.419100">
        <ele>1223.307</ele>
        <time>2022-02-26T07:54:10Z</time>
      </trkpt>
      <trkpt lat="40.579620" lon="-4.419090">
        <ele>1223.808</ele>
        <time>2022-02-26T07:54:50Z</time>
      </trkpt>
      <trkpt lat="40.579720" lon="-4.419050">
        <ele>1224.452</ele>
        <time>2022-02-26T07:55:30Z</time>
      </trkpt>
      <trkpt lat="40.579730" lon="-4.419040">
        <ele>1224.529</ele>
        <time>2022-02-26T07:56:10Z</time>
      </trkpt>
      <trkpt lat="40.579840" lon="-4.418960">
        <ele>1225.693</ele>
        <time>2022-02-26T07:56:50Z</time>
      </trkpt>
      <trkpt lat="40.579880" lon="-4.418920">
        <ele>1226.092</ele>
        <time>2022-02-26T07:57:30Z</time>
      </trkpt>
      <trkpt lat="40.580020" lon="-4.418760">
        <ele>1227.282</ele>
        <time>2022-02-26T07:58:10Z</time>
      </trkpt>
      <trkpt lat="40.580530" lon="-4.418110">
        <ele>1232.695</ele>
        <time>2022-02-26T07:58:50Z</time>
      </trkpt>
      <trkpt lat="40.580660" lon="-4.417940">
        <ele>1233.850</ele>
        <time>2022-02-26T07:59:30Z</time>
      </trkpt>
      <trkpt lat="40.580790" lon="-4.417780">
        <ele>1234.798</ele>
        <time>2022-02-26T08:00:10Z</time>
      </trkpt>
      <trkpt lat="40.580910" lon="-4.417610">
        <ele>1235.869</ele>
        <time>2022-02-26T08:00:50Z</time>
      </trkpt>
      <trkpt lat="40.581040" lon="-4.417440">
        <ele>1237.104</ele>
        <time>2022-02-26T08:01:30Z</time>
      </trkpt>
      <trkpt lat="40.581230" lon="-4.417190">
        <ele>1237.924</ele>
        <time>2022-02-26T08:02:10Z</time>
      </trkpt>
      <trkpt lat="40.581260" lon="-4.417140">
        <ele>1238.108</ele>
        <time>2022-02-26T08:02:50Z</time>
      </trkpt>
      <trkpt lat="40.581390" lon="-4.416980">
        <ele>1239.065</ele>
        <time>2022-02-26T08:03:30Z</time>
      </trkpt>
      <trkpt lat="40.581520" lon="-4.416810">
        <ele>1239.522</ele>
        <time>2022-02-26T08:04:10Z</time>
      </trkpt>
      <trkpt lat="40.581650" lon="-4.416650">
        <ele>1239.946</ele>
        <time>2022-02-26T08:04:50Z</time>
      </trkpt>
      <trkpt lat="40.582200" lon="-4.415920">
        <ele>1242.725</ele>
        <time>2022-02-26T08:05:30Z</time>
      </trkpt>
      <trkpt lat="40.582310" lon="-4.415780">
        <ele>1243.255</ele>
        <time>2022-02-26T08:06:10Z</time>
      </trkpt>
      <trkpt lat="40.582690" lon="-4.415220">
        <ele>1244.538</ele>
        <time>2022-02-26T08:06:50Z</time>
      </trkpt>
      <trkpt lat="40.582930" lon="-4.414870">
        <ele>1244.463</ele>
        <time>2022-02-26T08:07:30Z</time>
      </trkpt>
      <trkpt lat="40.583820" lon="-4.413770">
        <ele>1249.081</ele>
        <time>2022-02-26T08:08:10Z</time>
      </trkpt>
      <trkpt lat="40.584010" lon="-4.413690">
        <ele>1249.045</ele>
        <time>2022-02-26T08:08:50Z</time>
      </trkpt>
      <trkpt lat="40.584030" lon="-4.413690">
        <ele>1249.047</ele>
        <time>2022-02-26T08:09:30Z</time>
      </trkpt>
      <trkpt lat="40.584100" lon="-4.413670">
        <ele>1249.011</ele>
        <time>2022-02-26T08:10:10Z</time>
      </trkpt>
      <trkpt lat="40.584270" lon="-4.413610">
        <ele>1249.008</ele>
        <time>2022-02-26T08:10:50Z</time>
      </trkpt>
      <trkpt lat="40.584550" lon="-4.413520">
        <ele>1249.083</ele>
        <time>2022-02-26T08:11:30Z</time>
      </trkpt>
      <trkpt lat="40.584890" lon="-4.413420">
        <ele>1249.040</ele>
        <time>2022-02-26T08:12:10Z</time>
      </trkpt>
      <trkpt lat="40.584900" lon="-4.413420">
        <ele>1249.064</ele>
        <time>2022-02-26T08:12:50Z</time>
      </trkpt>
      <trkpt lat="40.585070" lon="-4.413360">
        <ele>1249.043</ele>
        <time>2022-02-26T08:13:30Z</time>
      </trkpt>
      <trkpt lat="40.585280" lon="-4.413300">
        <ele>1249.143</ele>
        <time>2022-02-26T08:14:10Z</time>
      </trkpt>
      <trkpt lat="40.585340" lon="-4.413280">
        <ele>1249.276</ele>
        <time>2022-02-26T08:14:50Z</time>
      </trkpt>
      <trkpt lat="40.585420" lon="-4.413260">
        <ele>1249.491</ele>
        <time>2022-02-26T08:15:30Z</time>
      </trkpt>
      <trkpt lat="40.585500" lon="-4.413230">
        <ele>1249.799</ele>
        <time>2022-02-26T08:16:10Z</time>
      </trkpt>
      <trkpt lat="40.585620" lon="-4.413200">
        <ele>1250.028</ele>
        <time>2022-02-26T08:16:50Z</time>
      </trkpt>
      <trkpt lat="40.585640" lon="-4.413190">
        <ele>1250.089</ele>
        <time>2022-02-26T08:17:30Z</time>
      </trkpt>
      <trkpt lat="40.585730" lon="-4.413140">
        <ele>1250.417</ele>
        <time>2022-02-26T08:18:10Z</time>
      </trkpt>
      <trkpt lat="40.586040" lon="-4.413010">
        <ele>1252.008</ele>
        <time>2022-02-26T08:18:50Z</time>
      </trkpt>
      <trkpt lat="40.586040" lon="-4.413000">
        <ele>1252.081</ele>
        <time>2022-02-26T08:19:30Z</time>
      </trkpt>
      <trkpt lat="40.586040" lon="-4.412990">
        <ele>1252.148</ele>
        <time>2022-02-26T08:20:10Z</time>
      </trkpt>
      <trkpt lat="40.586040" lon="-4.412980">
        <ele>1252.222</ele>
        <time>2022-02-26T08:20:50Z</time>
      </trkpt>
      <trkpt lat="40.586050" lon="-4.412970">
        <ele>1252.281</ele>
        <time>2022-02-26T08:21:30Z</time>
      </trkpt>
      <trkpt lat="40.586050" lon="-4.412960">
        <ele>1252.341</ele>
        <time>2022-02-26T08:22:10Z</time>
      </trkpt>
      <trkpt lat="40.586060" lon="-4.412950">
        <ele>1252.394</ele>
        <time>2022-02-26T08:22:50Z</time>
      </trkpt>
      <trkpt lat="40.586060" lon="-4.412940">
        <ele>1252.489</ele>
        <time>2022-02-26T08:23:30Z</time>
      </trkpt>
      <trkpt lat="40.586070" lon="-4.412940">
        <ele>1252.427</ele>
        <time>2022-02-26T08:24:10Z</time>
      </trkpt>
      <trkpt lat="40.586070" lon="-4.412930">
        <ele>1252.481</ele>
        <time>2022-02-26T08:24:50Z</time>
      </trkpt>
      <trkpt lat="40.586080" lon="-4.412920">
        <ele>1252.561</ele>
        <time>2022-02-26T08:25:30Z</time>
      </trkpt>
      <trkpt lat="40.586090" lon="-4.412910">
        <ele>1252.517</ele>
        <time>2022-02-26T08:26:10Z</time>
      </trkpt>
      <trkpt lat="40.586090" lon="-4.412900">
        <ele>1252.608</ele>
        <time>2022-02-26T08:26:50Z</time>
      </trkpt>
      <trkpt lat="40.586093" lon="-4.412901">
        <ele>1252.667</ele>
        <time>2022-02-26T08:27:30Z</time>
      </trkpt>
      <trkpt lat="40.586120" lon="-4.413000">
        <ele>1252.294</ele>
        <time>2022-02-26T08:28:10Z</time>
      </trkpt>
      <trkpt lat="40.586180" lon="-4.413230">
        <ele>1251.018</ele>
        <time>2022-02-26T08:28:50Z</time>
      </trkpt>
      <trkpt lat="40.586360" lon="-4.413790">
        <ele>1249.347</ele>
        <time>2022-02-26T08:29:30Z</time>
      </trkpt>
      <trkpt lat="40.586380" lon="-4.413890">
        <ele>1249.047</ele>
        <time>2022-02-26T08:30:10Z</time>
      </trkpt>
      <trkpt lat="40.586440" lon="-4.414140">
        <ele>1249.080</ele>
        <time>2022-02-26T08:30:50Z</time>
      </trkpt>
      <trkpt lat="40.586550" lon="-4.414570">
        <ele>1248.095</ele>
        <time>2022-02-26T08:31:30Z</time>
      </trkpt>
      <trkpt lat="40.586660" lon="-4.415020">
        <ele>1247.963</ele>
        <time>2022-02-26T08:32:10Z</time>
      </trkpt>
      <trkpt lat="40.586710" lon="-4.415250">
        <ele>1247.228</ele>
        <time>2022-02-26T08:32:50Z</time>
      </trkpt>
      <trkpt lat="40.586770" lon="-4.415470">
        <ele>1247.489</ele>
        <time>2022-02-26T08:33:30Z</time>
      </trkpt>
      <trkpt lat="40.586820" lon="-4.415700">
        <ele>1247.317</ele>
        <time>2022-02-26T08:34:10Z</time>
      </trkpt>
      <trkpt lat="40.586880" lon="-4.415920">
        <ele>1247.008</ele>
        <time>2022-02-26T08:34:50Z</time>
      </trkpt>
      <trkpt lat="40.586930" lon="-4.416150">
        <ele>1247.071</ele>
        <time>2022-02-26T08:35:30Z</time>
      </trkpt>
      <trkpt lat="40.586990" lon="-4.416380">
        <ele>1247.268</ele>
        <time>2022-02-26T08:36:10Z</time>
      </trkpt>
      <trkpt lat="40.587040" lon="-4.416600">
        <ele>1247.372</ele>
        <time>2022-02-26T08:36:50Z</time>
      </trkpt>
      <trkpt lat="40.587100" lon="-4.416830">
        <ele>1247.351</ele>
        <time>2022-02-26T08:37:30Z</time>
      </trkpt>
      <trkpt lat="40.587260" lon="-4.417500">
        <ele>1247.171</ele>
        <time>2022-02-26T08:38:10Z</time>
      </trkpt>
      <trkpt lat="40.587320" lon="-4.417740">
        <ele>1247.414</ele>
        <time>2022-02-26T08:38:50Z</time>
      </trkpt>
      <trkpt lat="40.587390" lon="-4.418000">
        <ele>1247.629</ele>
        <time>2022-02-26T08:39:30Z</time>
      </trkpt>
      <trkpt lat="40.587430" lon="-4.418190">
        <ele>1247.477</ele>
        <time>2022-02-26T08:40:10Z</time>
      </trkpt>
      <trkpt lat="40.587540" lon="-4.418630">
        <ele>1246.979</ele>
        <time>2022-02-26T08:40:50Z</time>
      </trkpt>
      <trkpt lat="40.587650" lon="-4.419080">
        <ele>1246.005</ele>
        <time>2022-02-26T08:41:30Z</time>
      </trkpt>
      <trkpt lat="40.587920" lon="-4.420210">
        <ele>1245.425</ele>
        <time>2022-02-26T08:42:10Z</time>
      </trkpt>
      <trkpt lat="40.587980" lon="-4.420440">
        <ele>1245.708</ele>
        <time>2022-02-26T08:42:50Z</time>
      </trkpt>
      <trkpt lat="40.588090" lon="-4.420890">
        <ele>1247.116</ele>
        <time>2022-02-26T08:43:30Z</time>
      </trkpt>
      <trkpt lat="40.588140" lon="-4.421110">
        <ele>1247.633</ele>
        <time>2022-02-26T08:44:10Z</time>
      </trkpt>
      <trkpt lat="40.588390" lon="-4.422120">
        <ele>1250.157</ele>
        <time>2022-02-26T08:44:50Z</time>
      </trkpt>
      <trkpt lat="40.588550" lon="-4.422740">
        <ele>1251.726</ele>
        <time>2022-02-26T08:45:30Z</time>
      </trkpt>
      <trkpt lat="40.588560" lon="-4.422790">
        <ele>1251.836</ele>
        <time>2022-02-26T08:46:10Z</time>
      </trkpt>
      <trkpt lat="40.588720" lon="-4.423470">
        <ele>1252.649</ele>
        <time>2022-02-26T08:46:50Z</time>
      </trkpt>
      <trkpt lat="40.588830" lon="-4.423920">
        <ele>1253.624</ele>
        <time>2022-02-26T08:47:30Z</time>
      </trkpt>
      <trkpt lat="40.588890" lon="-4.424140">
        <ele>1254.062</ele>
        <time>2022-02-26T08:48:10Z</time>
      </trkpt>
      <trkpt lat="40.589000" lon="-4.424590">
        <ele>1254.865</ele>
        <time>2022-02-26T08:48:50Z</time>
      </trkpt>
      <trkpt lat="40.589110" lon="-4.425050">
        <ele>1254.468</ele>
        <time>2022-02-26T08:49:30Z</time>
      </trkpt>
      <trkpt lat="40.589330" lon="-4.425950">
        <ele>1251.614</ele>
        <time>2022-02-26T08:50:10Z</time>
      </trkpt>
      <trkpt lat="40.589380" lon="-4.426170">
        <ele>1250.808</ele>
        <time>2022-02-26T08:50:50Z</time>
      </trkpt>
      <trkpt lat="40.589470" lon="-4.426530">
        <ele>1249.595</ele>
        <time>2022-02-26T08:51:30Z</time>
      </trkpt>
      <trkpt lat="40.589700" lon="-4.427470">
        <ele>1245.182</ele>
        <time>2022-02-26T08:52:10Z</time>
      </trkpt>
      <trkpt lat="40.589810" lon="-4.427920">
        <ele>1243.816</ele>
        <time>2022-02-26T08:52:50Z</time>
      </trkpt>
      <trkpt lat="40.589980" lon="-4.428590">
        <ele>1242.035</ele>
        <time>2022-02-26T08:53:30Z</time>
      </trkpt>
      <trkpt lat="40.589990" lon="-4.428640">
        <ele>1241.995</ele>
        <time>2022-02-26T08:54:10Z</time>
      </trkpt>
      <trkpt lat="40.590080" lon="-4.429040">
        <ele>1241.498</ele>
        <time>2022-02-26T08:54:50Z</time>
      </trkpt>
      <trkpt lat="40.590130" lon="-4.429230">
        <ele>1242.163</ele>
        <time>2022-02-26T08:55:30Z</time>
      </trkpt>
      <trkpt lat="40.590140" lon="-4.429270">
        <ele>1242.271</ele>
        <time>2022-02-26T08:56:10Z</time>
      </trkpt>
      <trkpt lat="40.590250" lon="-4.429720">
        <ele>1243.949</ele>
        <time>2022-02-26T08:56:50Z</time>
      </trkpt>
      <trkpt lat="40.590310" lon="-4.429940">
        <ele>1244.902</ele>
        <time>2022-02-26T08:57:30Z</time>
      </trkpt>
      <trkpt lat="40.590480" lon="-4.430620">
        <ele>1247.722</ele>
        <time>2022-02-26T08:58:10Z</time>
      </trkpt>
      <trkpt lat="40.590540" lon="-4.430840">
        <ele>1248.008</ele>
        <time>2022-02-26T08:58:50Z</time>
      </trkpt>
      <trkpt lat="40.590750" lon="-4.431690">
        <ele>1251.183</ele>
        <time>2022-02-26T08:59:30Z</time>
      </trkpt>
      <trkpt lat="40.591050" lon="-4.432870">
        <ele>1255.190</ele>
        <time>2022-02-26T09:00:10Z</time>
      </trkpt>
      <trkpt lat="40.591220" lon="-4.433560">
        <ele>1257.844</ele>
        <time>2022-02-26T09:00:50Z</time>
      </trkpt>
      <trkpt lat="40.591800" lon="-4.436070">
        <ele>1263.333</ele>
        <time>2022-02-26T09:01:30Z</time>
      </trkpt>
      <trkpt lat="40.592020" lon="-4.436970">
        <ele>1264.593</ele>
        <time>2022-02-26T09:02:10Z</time>
      </trkpt>
      <trkpt lat="40.592180" lon="-4.437650">
        <ele>1264.366</ele>
        <time>2022-02-26T09:02:50Z</time>
      </trkpt>
      <trkpt lat="40.592230" lon="-4.437860">
        <ele>1264.081</ele>
        <time>2022-02-26T09:03:30Z</time>
      </trkpt>
      <trkpt lat="40.592290" lon="-4.438130">
        <ele>1264.249</ele>
        <time>2022-02-26T09:04:10Z</time>
      </trkpt>
      <trkpt lat="40.592370" lon="-4.438400">
        <ele>1263.675</ele>
        <time>2022-02-26T09:04:50Z</time>
      </trkpt>
      <trkpt lat="40.592440" lon="-4.438620">
        <ele>1262.228</ele>
        <time>2022-02-26T09:05:30Z</time>
      </trkpt>
      <trkpt lat="40.592610" lon="-4.439090">
        <ele>1261.120</ele>
        <time>2022-02-26T09:06:10Z</time>
      </trkpt>
      <trkpt lat="40.592740" lon="-4.439360">
        <ele>1261.108</ele>
        <time>2022-02-26T09:06:50Z</time>
      </trkpt>
      <trkpt lat="40.592860" lon="-4.439620">
        <ele>1261.076</ele>
        <time>2022-02-26T09:07:30Z</time>
      </trkpt>
      <trkpt lat="40.593030" lon="-4.439940">
        <ele>1261.163</ele>
        <time>2022-02-26T09:08:10Z</time>
      </trkpt>
      <trkpt lat="40.593230" lon="-4.440250">
        <ele>1260.787</ele>
        <time>2022-02-26T09:08:50Z</time>
      </trkpt>
      <trkpt lat="40.593380" lon="-4.440470">
        <ele>1260.666</ele>
        <time>2022-02-26T09:09:30Z</time>
      </trkpt>
      <trkpt lat="40.593560" lon="-4.440690">
        <ele>1261.136</ele>
        <time>2022-02-26T09:10:10Z</time>
      </trkpt>
      <trkpt lat="40.593720" lon="-4.440880">
        <ele>1261.289</ele>
        <time>2022-02-26T09:10:50Z</time>
      </trkpt>
      <trkpt lat="40.593920" lon="-4.441080">
        <ele>1261.254</ele>
        <time>2022-02-26T09:11:30Z</time>
      </trkpt>
      <trkpt lat="40.594030" lon="-4.441200">
        <ele>1261.232</ele>
        <time>2022-02-26T09:12:10Z</time>
      </trkpt>
      <trkpt lat="40.594070" lon="-4.441230">
        <ele>1261.247</ele>
        <time>2022-02-26T09:12:50Z</time>
      </trkpt>
      <trkpt lat="40.594100" lon="-4.441260">
        <ele>1261.229</ele>
        <time>2022-02-26T09:13:30Z</time>
      </trkpt>
      <trkpt lat="40.594250" lon="-4.441390">
        <ele>1261.021</ele>
        <time>2022-02-26T09:14:10Z</time>
      </trkpt>
      <trkpt lat="40.594290" lon="-4.441420">
        <ele>1260.908</ele>
        <time>2022-02-26T09:14:50Z</time>
      </trkpt>
      <trkpt lat="40.594560" lon="-4.441640">
        <ele>1260.133</ele>
        <time>2022-02-26T09:15:30Z</time>
      </trkpt>
      <trkpt lat="40.594710" lon="-4.441750">
        <ele>1260.060</ele>
        <time>2022-02-26T09:16:10Z</time>
      </trkpt>
      <trkpt lat="40.594870" lon="-4.441870">
        <ele>1260.084</ele>
        <time>2022-02-26T09:16:50Z</time>
      </trkpt>
      <trkpt lat="40.595180" lon="-4.442110">
        <ele>1259.283</ele>
        <time>2022-02-26T09:17:30Z</time>
      </trkpt>
      <trkpt lat="40.595490" lon="-4.442350">
        <ele>1253.333</ele>
        <time>2022-02-26T09:18:10Z</time>
      </trkpt>
      <trkpt lat="40.595640" lon="-4.442470">
        <ele>1249.816</ele>
        <time>2022-02-26T09:18:50Z</time>
      </trkpt>
      <trkpt lat="40.595800" lon="-4.442590">
        <ele>1245.981</ele>
        <time>2022-02-26T09:19:30Z</time>
      </trkpt>
      <trkpt lat="40.595810" lon="-4.442600">
        <ele>1245.699</ele>
        <time>2022-02-26T09:20:10Z</time>
      </trkpt>
      <trkpt lat="40.596000" lon="-4.442770">
        <ele>1244.136</ele>
        <time>2022-02-26T09:20:50Z</time>
      </trkpt>
      <trkpt lat="40.596170" lon="-4.442980">
        <ele>1243.217</ele>
        <time>2022-02-26T09:21:30Z</time>
      </trkpt>
      <trkpt lat="40.596380" lon="-4.443340">
        <ele>1242.818</ele>
        <time>2022-02-26T09:22:10Z</time>
      </trkpt>
      <trkpt lat="40.596420" lon="-4.443430">
        <ele>1242.508</ele>
        <time>2022-02-26T09:22:50Z</time>
      </trkpt>
      <trkpt lat="40.596540" lon="-4.443680">
        <ele>1241.612</ele>
        <time>2022-02-26T09:23:30Z</time>
      </trkpt>
      <trkpt lat="40.596610" lon="-4.443900">
        <ele>1240.619</ele>
        <time>2022-02-26T09:24:10Z</time>
      </trkpt>
      <trkpt lat="40.596650" lon="-4.444070">
        <ele>1241.513</ele>
        <time>2022-02-26T09:24:50Z</time>
      </trkpt>
      <trkpt lat="40.596660" lon="-4.444120">
        <ele>1241.882</ele>
        <time>2022-02-26T09:25:30Z</time>
      </trkpt>
      <trkpt lat="40.596670" lon="-4.444210">
        <ele>1242.112</ele>
        <time>2022-02-26T09:26:10Z</time>
      </trkpt>
      <trkpt lat="40.596680" lon="-4.444340">
        <ele>1242.565</ele>
        <time>2022-02-26T09:26:50Z</time>
      </trkpt>
      <trkpt lat="40.596700" lon="-4.444540">
        <ele>1242.960</ele>
        <time>2022-02-26T09:27:30Z</time>
      </trkpt>
      <trkpt lat="40.596710" lon="-4.444680">
        <ele>1243.218</ele>
        <time>2022-02-26T09:28:10Z</time>
      </trkpt>
      <trkpt lat="40.596690" lon="-4.445010">
        <ele>1244.765</ele>
        <time>2022-02-26T09:28:50Z</time>
      </trkpt>
      <trkpt lat="40.596690" lon="-4.445190">
        <ele>1245.468</ele>
        <time>2022-02-26T09:29:30Z</time>
      </trkpt>
      <trkpt lat="40.596650" lon="-4.445440">
        <ele>1246.214</ele>
        <time>2022-02-26T09:30:10Z</time>
      </trkpt>
      <trkpt lat="40.596640" lon="-4.445480">
        <ele>1246.208</ele>
        <time>2022-02-26T09:30:50Z</time>
      </trkpt>
      <trkpt lat="40.596640" lon="-4.445510">
        <ele>1246.315</ele>
        <time>2022-02-26T09:31:30Z</time>
      </trkpt>
      <trkpt lat="40.596620" lon="-4.445600">
        <ele>1246.282</ele>
        <time>2022-02-26T09:32:10Z</time>
      </trkpt>
      <trkpt lat="40.596560" lon="-4.445840">
        <ele>1246.566</ele>
        <time>2022-02-26T09:32:50Z</time>
      </trkpt>
      <trkpt lat="40.596390" lon="-4.446310">
        <ele>1248.445</ele>
        <time>2022-02-26T09:33:30Z</time>
      </trkpt>
      <trkpt lat="40.596200" lon="-4.446750">
        <ele>1252.715</ele>
        <time>2022-02-26T09:34:10Z</time>
      </trkpt>
      <trkpt lat="40.595940" lon="-4.447340">
        <ele>1254.658</ele>
        <time>2022-02-26T09:34:50Z</time>
      </trkpt>
      <trkpt lat="40.595920" lon="-4.447380">
        <ele>1254.553</ele>
        <time>2022-02-26T09:35:30Z</time>
      </trkpt>
      <trkpt lat="40.595820" lon="-4.447620">
        <ele>1254.721</ele>
        <time>2022-02-26T09:36:10Z</time>
      </trkpt>
      <trkpt lat="40.595740" lon="-4.447790">
        <ele>1254.737</ele>
        <time>2022-02-26T09:36:50Z</time>
      </trkpt>
      <trkpt lat="40.595730" lon="-4.447830">
        <ele>1254.749</ele>
        <time>2022-02-26T09:37:30Z</time>
      </trkpt>
      <trkpt lat="40.595660" lon="-4.448000">
        <ele>1254.313</ele>
        <time>2022-02-26T09:38:10Z</time>
      </trkpt>
      <trkpt lat="40.595570" lon="-4.448240">
        <ele>1253.908</ele>
        <time>2022-02-26T09:38:50Z</time>
      </trkpt>
      <trkpt lat="40.595490" lon="-4.448520">
        <ele>1254.052</ele>
        <time>2022-02-26T09:39:30Z</time>
      </trkpt>
      <trkpt lat="40.595430" lon="-4.448840">
        <ele>1254.139</ele>
        <time>2022-02-26T09:40:10Z</time>
      </trkpt>
      <trkpt lat="40.595360" lon="-4.449360">
        <ele>1254.243</ele>
        <time>2022-02-26T09:40:50Z</time>
      </trkpt>
      <trkpt lat="40.595330" lon="-4.449590">
        <ele>1254.742</ele>
        <time>2022-02-26T09:41:30Z</time>
      </trkpt>
      <trkpt lat="40.595300" lon="-4.449820">
        <ele>1255.972</ele>
        <time>2022-02-26T09:42:10Z</time>
      </trkpt>
      <trkpt lat="40.594910" lon="-4.452620">
        <ele>1268.915</ele>
        <time>2022-02-26T09:42:50Z</time>
      </trkpt>
      <trkpt lat="40.594870" lon="-4.452850">
        <ele>1270.420</ele>
        <time>2022-02-26T09:43:30Z</time>
      </trkpt>
      <trkpt lat="40.594830" lon="-4.453180">
        <ele>1271.738</ele>
        <time>2022-02-26T09:44:10Z</time>
      </trkpt>
      <trkpt lat="40.594800" lon="-4.453690">
        <ele>1273.386</ele>
        <time>2022-02-26T09:44:50Z</time>
      </trkpt>
      <trkpt lat="40.594800" lon="-4.454320">
        <ele>1274.160</ele>
        <time>2022-02-26T09:45:30Z</time>
      </trkpt>
      <trkpt lat="40.594860" lon="-4.455070">
        <ele>1279.126</ele>
        <time>2022-02-26T09:46:10Z</time>
      </trkpt>
      <trkpt lat="40.594850" lon="-4.455490">
        <ele>1282.308</ele>
        <time>2022-02-26T09:46:50Z</time>
      </trkpt>
      <trkpt lat="40.594800" lon="-4.455740">
        <ele>1283.077</ele>
        <time>2022-02-26T09:47:30Z</time>
      </trkpt>
      <trkpt lat="40.594770" lon="-4.456010">
        <ele>1284.294</ele>
        <time>2022-02-26T09:48:10Z</time>
      </trkpt>
      <trkpt lat="40.594660" lon="-4.456400">
        <ele>1287.768</ele>
        <time>2022-02-26T09:48:50Z</time>
      </trkpt>
      <trkpt lat="40.594450" lon="-4.456900">
        <ele>1288.987</ele>
        <time>2022-02-26T09:49:30Z</time>
      </trkpt>
      <trkpt lat="40.594410" lon="-4.456980">
        <ele>1289.237</ele>
        <time>2022-02-26T09:50:10Z</time>
      </trkpt>
      <trkpt lat="40.594310" lon="-4.457180">
        <ele>1289.920</ele>
        <time>2022-02-26T09:50:50Z</time>
      </trkpt>
      <trkpt lat="40.594110" lon="-4.457570">
        <ele>1290.795</ele>
        <time>2022-02-26T09:51:30Z</time>
      </trkpt>
      <trkpt lat="40.593810" lon="-4.458160">
        <ele>1294.023</ele>
        <time>2022-02-26T09:52:10Z</time>
      </trkpt>
      <trkpt lat="40.593720" lon="-4.458350">
        <ele>1293.832</ele>
        <time>2022-02-26T09:52:50Z</time>
      </trkpt>
      <trkpt lat="40.593510" lon="-4.458760">
        <ele>1294.092</ele>
        <time>2022-02-26T09:53:30Z</time>
      </trkpt>
      <trkpt lat="40.593410" lon="-4.458950">
        <ele>1293.611</ele>
        <time>2022-02-26T09:54:10Z</time>
      </trkpt>
      <trkpt lat="40.593220" lon="-4.459350">
        <ele>1293.008</ele>
        <time>2022-02-26T09:54:50Z</time>
      </trkpt>
      <trkpt lat="40.593150" lon="-4.459490">
        <ele>1292.862</ele>
        <time>2022-02-26T09:55:30Z</time>
      </trkpt>
      <trkpt lat="40.593120" lon="-4.459550">
        <ele>1292.829</ele>
        <time>2022-02-26T09:56:10Z</time>
      </trkpt>
      <trkpt lat="40.593020" lon="-4.459750">
        <ele>1292.633</ele>
        <time>2022-02-26T09:56:50Z</time>
      </trkpt>
      <trkpt lat="40.592920" lon="-4.459950">
        <ele>1291.962</ele>
        <time>2022-02-26T09:57:30Z</time>
      </trkpt>
      <trkpt lat="40.592880" lon="-4.460030">
        <ele>1291.842</ele>
        <time>2022-02-26T09:58:10Z</time>
      </trkpt>
      <trkpt lat="40.592340" lon="-4.461430">
        <ele>1292.435</ele>
        <time>2022-02-26T09:58:50Z</time>
      </trkpt>
      <trkpt lat="40.592160" lon="-4.462120">
        <ele>1293.190</ele>
        <time>2022-02-26T09:59:30Z</time>
      </trkpt>
      <trkpt lat="40.592020" lon="-4.462710">
        <ele>1293.338</ele>
        <time>2022-02-26T10:00:10Z</time>
      </trkpt>
      <trkpt lat="40.591760" lon="-4.463950">
        <ele>1290.825</ele>
        <time>2022-02-26T10:00:50Z</time>
      </trkpt>
      <trkpt lat="40.591630" lon="-4.464600">
        <ele>1290.926</ele>
        <time>2022-02-26T10:01:30Z</time>
      </trkpt>
      <trkpt lat="40.591590" lon="-4.464830">
        <ele>1291.008</ele>
        <time>2022-02-26T10:02:10Z</time>
      </trkpt>
      <trkpt lat="40.591380" lon="-4.465880">
        <ele>1290.008</ele>
        <time>2022-02-26T10:02:50Z</time>
      </trkpt>
      <trkpt lat="40.591110" lon="-4.467250">
        <ele>1285.951</ele>
        <time>2022-02-26T10:03:30Z</time>
      </trkpt>
      <trkpt lat="40.591060" lon="-4.467480">
        <ele>1284.788</ele>
        <time>2022-02-26T10:04:10Z</time>
      </trkpt>
      <trkpt lat="40.590970" lon="-4.467940">
        <ele>1283.632</ele>
        <time>2022-02-26T10:04:50Z</time>
      </trkpt>
      <trkpt lat="40.590920" lon="-4.468170">
        <ele>1283.641</ele>
        <time>2022-02-26T10:05:30Z</time>
      </trkpt>
      <trkpt lat="40.590900" lon="-4.468270">
        <ele>1283.551</ele>
        <time>2022-02-26T10:06:10Z</time>
      </trkpt>
      <trkpt lat="40.590690" lon="-4.469310">
        <ele>1280.284</ele>
        <time>2022-02-26T10:06:50Z</time>
      </trkpt>
      <trkpt lat="40.590660" lon="-4.469460">
        <ele>1280.049</ele>
        <time>2022-02-26T10:07:30Z</time>
      </trkpt>
      <trkpt lat="40.590640" lon="-4.469540">
        <ele>1280.227</ele>
        <time>2022-02-26T10:08:10Z</time>
      </trkpt>
      <trkpt lat="40.590520" lon="-4.469990">
        <ele>1281.018</ele>
        <time>2022-02-26T10:08:50Z</time>
      </trkpt>
      <trkpt lat="40.590470" lon="-4.470160">
        <ele>1280.498</ele>
        <time>2022-02-26T10:09:30Z</time>
      </trkpt>
      <trkpt lat="40.590460" lon="-4.470210">
        <ele>1280.217</ele>
        <time>2022-02-26T10:10:10Z</time>
      </trkpt>
      <trkpt lat="40.590330" lon="-4.470550">
        <ele>1282.908</ele>
        <time>2022-02-26T10:10:50Z</time>
      </trkpt>
      <trkpt lat="40.590280" lon="-4.470660">
        <ele>1284.110</ele>
        <time>2022-02-26T10:11:30Z</time>
      </trkpt>
      <trkpt lat="40.590120" lon="-4.471020">
        <ele>1286.847</ele>
        <time>2022-02-26T10:12:10Z</time>
      </trkpt>
      <trkpt lat="40.590100" lon="-4.471070">
        <ele>1287.151</ele>
        <time>2022-02-26T10:12:50Z</time>
      </trkpt>
      <trkpt lat="40.590010" lon="-4.471270">
        <ele>1288.880</ele>
        <time>2022-02-26T10:13:30Z</time>
      </trkpt>
      <trkpt lat="40.589860" lon="-4.471570">
        <ele>1290.340</ele>
        <time>2022-02-26T10:14:10Z</time>
      </trkpt>
      <trkpt lat="40.588830" lon="-4.473620">
        <ele>1301.433</ele>
        <time>2022-02-26T10:14:50Z</time>
      </trkpt>
      <trkpt lat="40.588650" lon="-4.474070">
        <ele>1302.468</ele>
        <time>2022-02-26T10:15:30Z</time>
      </trkpt>
      <trkpt lat="40.588610" lon="-4.474200">
        <ele>1303.316</ele>
        <time>2022-02-26T10:16:10Z</time>
      </trkpt>
      <trkpt lat="40.588550" lon="-4.474380">
        <ele>1304.329</ele>
        <time>2022-02-26T10:16:50Z</time>
      </trkpt>
      <trkpt lat="40.588500" lon="-4.474580">
        <ele>1305.000</ele>
        <time>2022-02-26T10:17:30Z</time>
      </trkpt>
      <trkpt lat="40.588450" lon="-4.474800">
        <ele>1305.820</ele>
        <time>2022-02-26T10:18:10Z</time>
      </trkpt>
      <trkpt lat="40.588420" lon="-4.475070">
        <ele>1307.308</ele>
        <time>2022-02-26T10:18:50Z</time>
      </trkpt>
      <trkpt lat="40.588420" lon="-4.475440">
        <ele>1309.521</ele>
        <time>2022-02-26T10:19:30Z</time>
      </trkpt>
      <trkpt lat="40.588460" lon="-4.475830">
        <ele>1312.898</ele>
        <time>2022-02-26T10:20:10Z</time>
      </trkpt>
      <trkpt lat="40.588470" lon="-4.475910">
        <ele>1313.552</ele>
        <time>2022-02-26T10:20:50Z</time>
      </trkpt>
      <trkpt lat="40.588510" lon="-4.476140">
        <ele>1315.891</ele>
        <time>2022-02-26T10:21:30Z</time>
      </trkpt>
      <trkpt lat="40.588530" lon="-4.476250">
        <ele>1316.841</ele>
        <time>2022-02-26T10:22:10Z</time>
      </trkpt>
      <trkpt lat="40.588610" lon="-4.476620">
        <ele>1319.884</ele>
        <time>2022-02-26T10:22:50Z</time>
      </trkpt>
      <trkpt lat="40.588670" lon="-4.476790">
        <ele>1319.969</ele>
        <time>2022-02-26T10:23:30Z</time>
      </trkpt>
      <trkpt lat="40.588740" lon="-4.476970">
        <ele>1320.147</ele>
        <time>2022-02-26T10:24:10Z</time>
      </trkpt>
      <trkpt lat="40.588750" lon="-4.476980">
        <ele>1320.114</ele>
        <time>2022-02-26T10:24:50Z</time>
      </trkpt>
      <trkpt lat="40.588770" lon="-4.477020">
        <ele>1320.354</ele>
        <time>2022-02-26T10:25:30Z</time>
      </trkpt>
      <trkpt lat="40.588840" lon="-4.477140">
        <ele>1320.709</ele>
        <time>2022-02-26T10:26:10Z</time>
      </trkpt>
      <trkpt lat="40.589340" lon="-4.477930">
        <ele>1321.108</ele>
        <time>2022-02-26T10:26:50Z</time>
      </trkpt>
      <trkpt lat="40.589580" lon="-4.478310">
        <ele>1320.610</ele>
        <time>2022-02-26T10:27:30Z</time>
      </trkpt>
      <trkpt lat="40.590930" lon="-4.480410">
        <ele>1330.037</ele>
        <time>2022-02-26T10:28:10Z</time>
      </trkpt>
      <trkpt lat="40.591080" lon="-4.480640">
        <ele>1330.071</ele>
        <time>2022-02-26T10:28:50Z</time>
      </trkpt>
      <trkpt lat="40.591320" lon="-4.481000">
        <ele>1330.090</ele>
        <time>2022-02-26T10:29:30Z</time>
      </trkpt>
      <trkpt lat="40.591470" lon="-4.481240">
        <ele>1330.050</ele>
        <time>2022-02-26T10:30:10Z</time>
      </trkpt>
      <trkpt lat="40.591550" lon="-4.481360">
        <ele>1330.033</ele>
        <time>2022-02-26T10:30:50Z</time>
      </trkpt>
      <trkpt lat="40.591780" lon="-4.481720">
        <ele>1330.048</ele>
        <time>2022-02-26T10:31:30Z</time>
      </trkpt>
      <trkpt lat="40.591790" lon="-4.481730">
        <ele>1330.096</ele>
        <time>2022-02-26T10:32:10Z</time>
      </trkpt>
      <trkpt lat="40.591910" lon="-4.481920">
        <ele>1330.042</ele>
        <time>2022-02-26T10:32:50Z</time>
      </trkpt>
      <trkpt lat="40.592020" lon="-4.482100">
        <ele>1329.622</ele>
        <time>2022-02-26T10:33:30Z</time>
      </trkpt>
      <trkpt lat="40.592130" lon="-4.482280">
        <ele>1329.614</ele>
        <time>2022-02-26T10:34:10Z</time>
      </trkpt>
      <trkpt lat="40.592230" lon="-4.482480">
        <ele>1330.008</ele>
        <time>2022-02-26T10:34:50Z</time>
      </trkpt>
      <trkpt lat="40.592320" lon="-4.482670">
        <ele>1329.663</ele>
        <time>2022-02-26T10:35:30Z</time>
      </trkpt>
      <trkpt lat="40.592330" lon="-4.482700">
        <ele>1329.690</ele>
        <time>2022-02-26T10:36:10Z</time>
      </trkpt>
      <trkpt lat="40.592380" lon="-4.482840">
        <ele>1329.594</ele>
        <time>2022-02-26T10:36:50Z</time>
      </trkpt>
      <trkpt lat="40.592400" lon="-4.482880">
        <ele>1329.683</ele>
        <time>2022-02-26T10:37:30Z</time>
      </trkpt>
      <trkpt lat="40.592430" lon="-4.482970">
        <ele>1329.983</ele>
        <time>2022-02-26T10:38:10Z</time>
      </trkpt>
      <trkpt lat="40.592470" lon="-4.483100">
        <ele>1330.426</ele>
        <time>2022-02-26T10:38:50Z</time>
      </trkpt>
      <trkpt lat="40.592480" lon="-4.483120">
        <ele>1330.581</ele>
        <time>2022-02-26T10:39:30Z</time>
      </trkpt>
      <trkpt lat="40.592520" lon="-4.483280">
        <ele>1330.249</ele>
        <time>2022-02-26T10:40:10Z</time>
      </trkpt>
      <trkpt lat="40.592530" lon="-4.483330">
        <ele>1330.019</ele>
        <time>2022-02-26T10:40:50Z</time>
      </trkpt>
      <trkpt lat="40.592560" lon="-4.483480">
        <ele>1329.709</ele>
        <time>2022-02-26T10:41:30Z</time>
      </trkpt>
      <trkpt lat="40.592570" lon="-4.483560">
        <ele>1329.619</ele>
        <time>2022-02-26T10:42:10Z</time>
      </trkpt>
      <trkpt lat="40.592600" lon="-4.483700">
        <ele>1329.608</ele>
        <time>2022-02-26T10:42:50Z</time>
      </trkpt>
      <trkpt lat="40.592610" lon="-4.483790">
        <ele>1329.750</ele>
        <time>2022-02-26T10:43:30Z</time>
      </trkpt>
      <trkpt lat="40.592620" lon="-4.483870">
        <ele>1329.797</ele>
        <time>2022-02-26T10:44:10Z</time>
      </trkpt>
      <trkpt lat="40.592630" lon="-4.484020">
        <ele>1330.361</ele>
        <time>2022-02-26T10:44:50Z</time>
      </trkpt>
      <trkpt lat="40.592640" lon="-4.484060">
        <ele>1330.670</ele>
        <time>2022-02-26T10:45:30Z</time>
      </trkpt>
      <trkpt lat="40.592650" lon="-4.484220">
        <ele>1331.350</ele>
        <time>2022-02-26T10:46:10Z</time>
      </trkpt>
      <trkpt lat="40.592650" lon="-4.484420">
        <ele>1331.743</ele>
        <time>2022-02-26T10:46:50Z</time>
      </trkpt>
      <trkpt lat="40.592650" lon="-4.484500">
        <ele>1331.858</ele>
        <time>2022-02-26T10:47:30Z</time>
      </trkpt>
      <trkpt lat="40.592650" lon="-4.484600">
        <ele>1332.096</ele>
        <time>2022-02-26T10:48:10Z</time>
      </trkpt>
      <trkpt lat="40.592630" lon="-4.484790">
        <ele>1332.142</ele>
        <time>2022-02-26T10:48:50Z</time>
      </trkpt>
      <trkpt lat="40.592620" lon="-4.484940">
        <ele>1332.422</ele>
        <time>2022-02-26T10:49:30Z</time>
      </trkpt>
      <trkpt lat="40.592600" lon="-4.485130">
        <ele>1332.614</ele>
        <time>2022-02-26T10:50:10Z</time>
      </trkpt>
      <trkpt lat="40.592570" lon="-4.485270">
        <ele>1332.508</ele>
        <time>2022-02-26T10:50:50Z</time>
      </trkpt>
      <trkpt lat="40.592540" lon="-4.485440">
        <ele>1333.453</ele>
        <time>2022-02-26T10:51:30Z</time>
      </trkpt>
      <trkpt lat="40.592500" lon="-4.485660">
        <ele>1334.870</ele>
        <time>2022-02-26T10:52:10Z</time>
      </trkpt>
      <trkpt lat="40.592470" lon="-4.485830">
        <ele>1336.044</ele>
        <time>2022-02-26T10:52:50Z</time>
      </trkpt>
      <trkpt lat="40.592410" lon="-4.486190">
        <ele>1338.583</ele>
        <time>2022-02-26T10:53:30Z</time>
      </trkpt>
      <trkpt lat="40.592330" lon="-4.486550">
        <ele>1340.283</ele>
        <time>2022-02-26T10:54:10Z</time>
      </trkpt>
      <trkpt lat="40.592280" lon="-4.486840">
        <ele>1341.596</ele>
        <time>2022-02-26T10:54:50Z</time>
      </trkpt>
      <trkpt lat="40.592220" lon="-4.487170">
        <ele>1342.871</ele>
        <time>2022-02-26T10:55:30Z</time>
      </trkpt>
      <trkpt lat="40.592160" lon="-4.487480">
        <ele>1343.719</ele>
        <time>2022-02-26T10:56:10Z</time>
      </trkpt>
      <trkpt lat="40.592110" lon="-4.487770">
        <ele>1344.647</ele>
        <time>2022-02-26T10:56:50Z</time>
      </trkpt>
      <trkpt lat="40.592040" lon="-4.488160">
        <ele>1346.129</ele>
        <time>2022-02-26T10:57:30Z</time>
      </trkpt>
      <trkpt lat="40.592010" lon="-4.488380">
        <ele>1346.621</ele>
        <time>2022-02-26T10:58:10Z</time>
      </trkpt>
      <trkpt lat="40.592000" lon="-4.488460">
        <ele>1346.908</ele>
        <time>2022-02-26T10:58:50Z</time>
      </trkpt>
      <trkpt lat="40.591980" lon="-4.488610">
        <ele>1347.313</ele>
        <time>2022-02-26T10:59:30Z</time>
      </trkpt>
      <trkpt lat="40.591970" lon="-4.488680">
        <ele>1347.480</ele>
        <time>2022-02-26T11:00:10Z</time>
      </trkpt>
      <trkpt lat="40.591960" lon="-4.488850">
        <ele>1348.014</ele>
        <time>2022-02-26T11:00:50Z</time>
      </trkpt>
      <trkpt lat="40.591960" lon="-4.488880">
        <ele>1348.123</ele>
        <time>2022-02-26T11:01:30Z</time>
      </trkpt>
      <trkpt lat="40.591960" lon="-4.489130">
        <ele>1348.933</ele>
        <time>2022-02-26T11:02:10Z</time>
      </trkpt>
      <trkpt lat="40.591960" lon="-4.489300">
        <ele>1349.566</ele>
        <time>2022-02-26T11:02:50Z</time>
      </trkpt>
      <trkpt lat="40.591960" lon="-4.489320">
        <ele>1349.611</ele>
        <time>2022-02-26T11:03:30Z</time>
      </trkpt>
      <trkpt lat="40.591960" lon="-4.489430">
        <ele>1350.019</ele>
        <time>2022-02-26T11:04:10Z</time>
      </trkpt>
      <trkpt lat="40.591980" lon="-4.489730">
        <ele>1350.085</ele>
        <time>2022-02-26T11:04:50Z</time>
      </trkpt>
      <trkpt lat="40.592000" lon="-4.489880">
        <ele>1350.089</ele>
        <time>2022-02-26T11:05:30Z</time>
      </trkpt>
      <trkpt lat="40.592010" lon="-4.490030">
        <ele>1350.017</ele>
        <time>2022-02-26T11:06:10Z</time>
      </trkpt>
      <trkpt lat="40.592020" lon="-4.490060">
        <ele>1349.908</ele>
        <time>2022-02-26T11:06:50Z</time>
      </trkpt>
      <trkpt lat="40.592050" lon="-4.490270">
        <ele>1349.697</ele>
        <time>2022-02-26T11:07:30Z</time>
      </trkpt>
      <trkpt lat="40.592080" lon="-4.490420">
        <ele>1348.874</ele>
        <time>2022-02-26T11:08:10Z</time>
      </trkpt>
      <trkpt lat="40.592120" lon="-4.490610">
        <ele>1347.598</ele>
        <time>2022-02-26T11:08:50Z</time>
      </trkpt>
      <trkpt lat="40.592150" lon="-4.490710">
        <ele>1346.837</ele>
        <time>2022-02-26T11:09:30Z</time>
      </trkpt>
      <trkpt lat="40.592160" lon="-4.490780">
        <ele>1346.567</ele>
        <time>2022-02-26T11:10:10Z</time>
      </trkpt>
      <trkpt lat="40.592210" lon="-4.490920">
        <ele>1345.430</ele>
        <time>2022-02-26T11:10:50Z</time>
      </trkpt>
      <trkpt lat="40.592210" lon="-4.490940">
        <ele>1345.395</ele>
        <time>2022-02-26T11:11:30Z</time>
      </trkpt>
      <trkpt lat="40.592260" lon="-4.491090">
        <ele>1344.413</ele>
        <time>2022-02-26T11:12:10Z</time>
      </trkpt>
      <trkpt lat="40.592310" lon="-4.491240">
        <ele>1344.039</ele>
        <time>2022-02-26T11:12:50Z</time>
      </trkpt>
      <trkpt lat="40.592350" lon="-4.491350">
        <ele>1343.701</ele>
        <time>2022-02-26T11:13:30Z</time>
      </trkpt>
      <trkpt lat="40.592370" lon="-4.491410">
        <ele>1343.421</ele>
        <time>2022-02-26T11:14:10Z</time>
      </trkpt>
      <trkpt lat="40.592400" lon="-4.491480">
        <ele>1343.008</ele>
        <time>2022-02-26T11:14:50Z</time>
      </trkpt>
      <trkpt lat="40.592460" lon="-4.491600">
        <ele>1342.382</ele>
        <time>2022-02-26T11:15:30Z</time>
      </trkpt>
      <trkpt lat="40.592510" lon="-4.491710">
        <ele>1341.739</ele>
        <time>2022-02-26T11:16:10Z</time>
      </trkpt>
      <trkpt lat="40.592580" lon="-4.491870">
        <ele>1340.893</ele>
        <time>2022-02-26T11:16:50Z</time>
      </trkpt>
      <trkpt lat="40.592710" lon="-4.492160">
        <ele>1340.012</ele>
        <time>2022-02-26T11:17:30Z</time>
      </trkpt>
      <trkpt lat="40.592730" lon="-4.492180">
        <ele>1340.042</ele>
        <time>2022-02-26T11:18:10Z</time>
      </trkpt>
      <trkpt lat="40.592820" lon="-4.492380">
        <ele>1340.025</ele>
        <time>2022-02-26T11:18:50Z</time>
      </trkpt>
      <trkpt lat="40.592850" lon="-4.492450">
        <ele>1340.040</ele>
        <time>2022-02-26T11:19:30Z</time>
      </trkpt>
      <trkpt lat="40.592980" lon="-4.492730">
        <ele>1340.028</ele>
        <time>2022-02-26T11:20:10Z</time>
      </trkpt>
      <trkpt lat="40.593010" lon="-4.492790">
        <ele>1340.082</ele>
        <time>2022-02-26T11:20:50Z</time>
      </trkpt>
      <trkpt lat="40.593150" lon="-4.493080">
        <ele>1340.043</ele>
        <time>2022-02-26T11:21:30Z</time>
      </trkpt>
      <trkpt lat="40.593260" lon="-4.493310">
        <ele>1340.017</ele>
        <time>2022-02-26T11:22:10Z</time>
      </trkpt>
      <trkpt lat="40.593290" lon="-4.493380">
        <ele>1340.008</ele>
        <time>2022-02-26T11:22:50Z</time>
      </trkpt>
      <trkpt lat="40.593360" lon="-4.493540">
        <ele>1340.077</ele>
        <time>2022-02-26T11:23:30Z</time>
      </trkpt>
      <trkpt lat="40.593540" lon="-4.493920">
        <ele>1340.254</ele>
        <time>2022-02-26T11:24:10Z</time>
      </trkpt>
      <trkpt lat="40.593570" lon="-4.493990">
        <ele>1340.798</ele>
        <time>2022-02-26T11:24:50Z</time>
      </trkpt>
      <trkpt lat="40.593810" lon="-4.494510">
        <ele>1342.867</ele>
        <time>2022-02-26T11:25:30Z</time>
      </trkpt>
      <trkpt lat="40.593880" lon="-4.494670">
        <ele>1343.767</ele>
        <time>2022-02-26T11:26:10Z</time>
      </trkpt>
      <trkpt lat="40.594110" lon="-4.495180">
        <ele>1345.660</ele>
        <time>2022-02-26T11:26:50Z</time>
      </trkpt>
      <trkpt lat="40.594140" lon="-4.495250">
        <ele>1345.935</ele>
        <time>2022-02-26T11:27:30Z</time>
      </trkpt>
      <trkpt lat="40.594170" lon="-4.495320">
        <ele>1346.353</ele>
        <time>2022-02-26T11:28:10Z</time>
      </trkpt>
      <trkpt lat="40.594280" lon="-4.495560">
        <ele>1348.493</ele>
        <time>2022-02-26T11:28:50Z</time>
      </trkpt>
      <trkpt lat="40.594300" lon="-4.495600">
        <ele>1348.765</ele>
        <time>2022-02-26T11:29:30Z</time>
      </trkpt>
      <trkpt lat="40.594390" lon="-4.495800">
        <ele>1350.421</ele>
        <time>2022-02-26T11:30:10Z</time>
      </trkpt>
      <trkpt lat="40.594400" lon="-4.495820">
        <ele>1350.608</ele>
        <time>2022-02-26T11:30:50Z</time>
      </trkpt>
      <trkpt lat="40.594490" lon="-4.496000">
        <ele>1351.688</ele>
        <time>2022-02-26T11:31:30Z</time>
      </trkpt>
      <trkpt lat="40.594510" lon="-4.496040">
        <ele>1351.735</ele>
        <time>2022-02-26T11:32:10Z</time>
      </trkpt>
      <trkpt lat="40.594580" lon="-4.496170">
        <ele>1352.439</ele>
        <time>2022-02-26T11:32:50Z</time>
      </trkpt>
      <trkpt lat="40.594620" lon="-4.496260">
        <ele>1353.148</ele>
        <time>2022-02-26T11:33:30Z</time>
      </trkpt>
      <trkpt lat="40.594650" lon="-4.496310">
        <ele>1353.488</ele>
        <time>2022-02-26T11:34:10Z</time>
      </trkpt>
      <trkpt lat="40.594680" lon="-4.496370">
        <ele>1353.931</ele>
        <time>2022-02-26T11:34:50Z</time>
      </trkpt>
      <trkpt lat="40.594730" lon="-4.496460">
        <ele>1354.346</ele>
        <time>2022-02-26T11:35:30Z</time>
      </trkpt>
      <trkpt lat="40.594790" lon="-4.496560">
        <ele>1354.664</ele>
        <time>2022-02-26T11:36:10Z</time>
      </trkpt>
      <trkpt lat="40.594880" lon="-4.496690">
        <ele>1355.272</ele>
        <time>2022-02-26T11:36:50Z</time>
      </trkpt>
      <trkpt lat="40.594930" lon="-4.496780">
        <ele>1355.813</ele>
        <time>2022-02-26T11:37:30Z</time>
      </trkpt>
      <trkpt lat="40.594960" lon="-4.496820">
        <ele>1356.114</ele>
        <time>2022-02-26T11:38:10Z</time>
      </trkpt>
      <trkpt lat="40.595050" lon="-4.496950">
        <ele>1357.208</ele>
        <time>2022-02-26T11:38:50Z</time>
      </trkpt>
      <trkpt lat="40.595150" lon="-4.497080">
        <ele>1358.356</ele>
        <time>2022-02-26T11:39:30Z</time>
      </trkpt>
      <trkpt lat="40.595260" lon="-4.497220">
        <ele>1359.993</ele>
        <time>2022-02-26T11:40:10Z</time>
      </trkpt>
      <trkpt lat="40.595290" lon="-4.497260">
        <ele>1360.117</ele>
        <time>2022-02-26T11:40:50Z</time>
      </trkpt>
      <trkpt lat="40.595470" lon="-4.497470">
        <ele>1360.936</ele>
        <time>2022-02-26T11:41:30Z</time>
      </trkpt>
      <trkpt lat="40.595490" lon="-4.497480">
        <ele>1360.966</ele>
        <time>2022-02-26T11:42:10Z</time>
      </trkpt>
      <trkpt lat="40.595490" lon="-4.497490">
        <ele>1361.079</ele>
        <time>2022-02-26T11:42:50Z</time>
      </trkpt>
      <trkpt lat="40.595570" lon="-4.497570">
        <ele>1361.584</ele>
        <time>2022-02-26T11:43:30Z</time>
      </trkpt>
      <trkpt lat="40.595610" lon="-4.497610">
        <ele>1361.732</ele>
        <time>2022-02-26T11:44:10Z</time>
      </trkpt>
      <trkpt lat="40.595680" lon="-4.497700">
        <ele>1362.144</ele>
        <time>2022-02-26T11:44:50Z</time>
      </trkpt>
      <trkpt lat="40.595790" lon="-4.497810">
        <ele>1362.405</ele>
        <time>2022-02-26T11:45:30Z</time>
      </trkpt>
      <trkpt lat="40.595960" lon="-4.497960">
        <ele>1363.315</ele>
        <time>2022-02-26T11:46:10Z</time>
      </trkpt>
      <trkpt lat="40.596080" lon="-4.498070">
        <ele>1364.108</ele>
        <time>2022-02-26T11:46:50Z</time>
      </trkpt>
      <trkpt lat="40.596250" lon="-4.498210">
        <ele>1365.623</ele>
        <time>2022-02-26T11:47:30Z</time>
      </trkpt>
      <trkpt lat="40.596340" lon="-4.498280">
        <ele>1366.420</ele>
        <time>2022-02-26T11:48:10Z</time>
      </trkpt>
      <trkpt lat="40.596460" lon="-4.498370">
        <ele>1367.814</ele>
        <time>2022-02-26T11:48:50Z</time>
      </trkpt>
      <trkpt lat="40.596570" lon="-4.498440">
        <ele>1369.153</ele>
        <time>2022-02-26T11:49:30Z</time>
      </trkpt>
      <trkpt lat="40.596690" lon="-4.498520">
        <ele>1370.583</ele>
        <time>2022-02-26T11:50:10Z</time>
      </trkpt>
      <trkpt lat="40.596710" lon="-4.498530">
        <ele>1370.646</ele>
        <time>2022-02-26T11:50:50Z</time>
      </trkpt>
      <trkpt lat="40.596830" lon="-4.498600">
        <ele>1371.551</ele>
        <time>2022-02-26T11:51:30Z</time>
      </trkpt>
      <trkpt lat="40.596970" lon="-4.498680">
        <ele>1372.899</ele>
        <time>2022-02-26T11:52:10Z</time>
      </trkpt>
      <trkpt lat="40.597110" lon="-4.498760">
        <ele>1374.922</ele>
        <time>2022-02-26T11:52:50Z</time>
      </trkpt>
      <trkpt lat="40.597210" lon="-4.498810">
        <ele>1376.362</ele>
        <time>2022-02-26T11:53:30Z</time>
      </trkpt>
      <trkpt lat="40.597240" lon="-4.498820">
        <ele>1376.608</ele>
        <time>2022-02-26T11:54:10Z</time>
      </trkpt>
      <trkpt lat="40.597370" lon="-4.498880">
        <ele>1378.008</ele>
        <time>2022-02-26T11:54:50Z</time>
      </trkpt>
      <trkpt lat="40.597510" lon="-4.498930">
        <ele>1379.271</ele>
        <time>2022-02-26T11:55:30Z</time>
      </trkpt>
      <trkpt lat="40.597550" lon="-4.498950">
        <ele>1379.438</ele>
        <time>2022-02-26T11:56:10Z</time>
      </trkpt>
      <trkpt lat="40.597660" lon="-4.498980">
        <ele>1379.782</ele>
        <time>2022-02-26T11:56:50Z</time>
      </trkpt>
      <trkpt lat="40.597800" lon="-4.499030">
        <ele>1380.091</ele>
        <time>2022-02-26T11:57:30Z</time>
      </trkpt>
      <trkpt lat="40.598040" lon="-4.499090">
        <ele>1379.741</ele>
        <time>2022-02-26T11:58:10Z</time>
      </trkpt>
      <trkpt lat="40.598240" lon="-4.499140">
        <ele>1379.894</ele>
        <time>2022-02-26T11:58:50Z</time>
      </trkpt>
      <trkpt lat="40.598260" lon="-4.499140">
        <ele>1379.869</ele>
        <time>2022-02-26T11:59:30Z</time>
      </trkpt>
      <trkpt lat="40.598420" lon="-4.499160">
        <ele>1379.657</ele>
        <time>2022-02-26T12:00:10Z</time>
      </trkpt>
      <trkpt lat="40.598440" lon="-4.499160">
        <ele>1379.639</ele>
        <time>2022-02-26T12:00:50Z</time>
      </trkpt>
      <trkpt lat="40.598590" lon="-4.499180">
        <ele>1379.101</ele>
        <time>2022-02-26T12:01:30Z</time>
      </trkpt>
      <trkpt lat="40.598770" lon="-4.499190">
        <ele>1379.121</ele>
        <time>2022-02-26T12:02:10Z</time>
      </trkpt>
      <trkpt lat="40.599000" lon="-4.499180">
        <ele>1379.008</ele>
        <time>2022-02-26T12:02:50Z</time>
      </trkpt>
      <trkpt lat="40.599190" lon="-4.499170">
        <ele>1379.092</ele>
        <time>2022-02-26T12:03:30Z</time>
      </trkpt>
      <trkpt lat="40.599390" lon="-4.499150">
        <ele>1378.929</ele>
        <time>2022-02-26T12:04:10Z</time>
      </trkpt>
      <trkpt lat="40.599530" lon="-4.499130">
        <ele>1378.893</ele>
        <time>2022-02-26T12:04:50Z</time>
      </trkpt>
      <trkpt lat="40.599570" lon="-4.499120">
        <ele>1378.772</ele>
        <time>2022-02-26T12:05:30Z</time>
      </trkpt>
      <trkpt lat="40.599750" lon="-4.499090">
        <ele>1378.732</ele>
        <time>2022-02-26T12:06:10Z</time>
      </trkpt>
      <trkpt lat="40.599900" lon="-4.499050">
        <ele>1378.335</ele>
        <time>2022-02-26T12:06:50Z</time>
      </trkpt>
      <trkpt lat="40.600050" lon="-4.499020">
        <ele>1377.980</ele>
        <time>2022-02-26T12:07:30Z</time>
      </trkpt>
      <trkpt lat="40.600380" lon="-4.498920">
        <ele>1377.178</ele>
        <time>2022-02-26T12:08:10Z</time>
      </trkpt>
      <trkpt lat="40.600590" lon="-4.498860">
        <ele>1376.966</ele>
        <time>2022-02-26T12:08:50Z</time>
      </trkpt>
      <trkpt lat="40.600790" lon="-4.498810">
        <ele>1376.729</ele>
        <time>2022-02-26T12:09:30Z</time>
      </trkpt>
      <trkpt lat="40.601070" lon="-4.498730">
        <ele>1377.321</ele>
        <time>2022-02-26T12:10:10Z</time>
      </trkpt>
      <trkpt lat="40.601420" lon="-4.498630">
        <ele>1378.208</ele>
        <time>2022-02-26T12:10:50Z</time>
      </trkpt>
      <trkpt lat="40.601830" lon="-4.498510">
        <ele>1379.235</ele>
        <time>2022-02-26T12:11:30Z</time>
      </trkpt>
      <trkpt lat="40.602190" lon="-4.498410">
        <ele>1380.442</ele>
        <time>2022-02-26T12:12:10Z</time>
      </trkpt>
      <trkpt lat="40.602250" lon="-4.498400">
        <ele>1380.686</ele>
        <time>2022-02-26T12:12:50Z</time>
      </trkpt>
      <trkpt lat="40.602410" lon="-4.498350">
        <ele>1380.845</ele>
        <time>2022-02-26T12:13:30Z</time>
      </trkpt>
      <trkpt lat="40.602590" lon="-4.498300">
        <ele>1381.275</ele>
        <time>2022-02-26T12:14:10Z</time>
      </trkpt>
      <trkpt lat="40.602760" lon="-4.498250">
        <ele>1381.618</ele>
        <time>2022-02-26T12:14:50Z</time>
      </trkpt>
      <trkpt lat="40.602970" lon="-4.498200">
        <ele>1381.533</ele>
        <time>2022-02-26T12:15:30Z</time>
      </trkpt>
      <trkpt lat="40.603020" lon="-4.498180">
        <ele>1381.481</ele>
        <time>2022-02-26T12:16:10Z</time>
      </trkpt>
      <trkpt lat="40.603220" lon="-4.498130">
        <ele>1381.424</ele>
        <time>2022-02-26T12:16:50Z</time>
      </trkpt>
      <trkpt lat="40.603370" lon="-4.498090">
        <ele>1381.204</ele>
        <time>2022-02-26T12:17:30Z</time>
      </trkpt>
      <trkpt lat="40.603540" lon="-4.498060">
        <ele>1381.014</ele>
        <time>2022-02-26T12:18:10Z</time>
      </trkpt>
      <trkpt lat="40.603670" lon="-4.498040">
        <ele>1380.908</ele>
        <time>2022-02-26T12:18:50Z</time>
      </trkpt>
      <trkpt lat="40.603790" lon="-4.498030">
        <ele>1380.931</ele>
        <time>2022-02-26T12:19:30Z</time>
      </trkpt>
      <trkpt lat="40.603880" lon="-4.498020">
        <ele>1380.948</ele>
        <time>2022-02-26T12:20:10Z</time>
      </trkpt>
      <trkpt lat="40.604000" lon="-4.498020">
        <ele>1380.912</ele>
        <time>2022-02-26T12:20:50Z</time>
      </trkpt>
      <trkpt lat="40.604160" lon="-4.498030">
        <ele>1380.971</ele>
        <time>2022-02-26T12:21:30Z</time>
      </trkpt>
      <trkpt lat="40.604270" lon="-4.498040">
        <ele>1380.641</ele>
        <time>2022-02-26T12:22:10Z</time>
      </trkpt>
      <trkpt lat="40.604440" lon="-4.498060">
        <ele>1380.094</ele>
        <time>2022-02-26T12:22:50Z</time>
      </trkpt>
      <trkpt lat="40.604540" lon="-4.498090">
        <ele>1380.129</ele>
        <time>2022-02-26T12:23:30Z</time>
      </trkpt>
      <trkpt lat="40.604720" lon="-4.498140">
        <ele>1380.397</ele>
        <time>2022-02-26T12:24:10Z</time>
      </trkpt>
      <trkpt lat="40.604820" lon="-4.498160">
        <ele>1380.425</ele>
        <time>2022-02-26T12:24:50Z</time>
      </trkpt>
      <trkpt lat="40.604980" lon="-4.498220">
        <ele>1380.626</ele>
        <time>2022-02-26T12:25:30Z</time>
      </trkpt>
      <trkpt lat="40.605080" lon="-4.498260">
        <ele>1380.708</ele>
        <time>2022-02-26T12:26:10Z</time>
      </trkpt>
      <trkpt lat="40.605330" lon="-4.498340">
        <ele>1381.208</ele>
        <time>2022-02-26T12:26:50Z</time>
      </trkpt>
      <trkpt lat="40.605400" lon="-4.498360">
        <ele>1381.581</ele>
        <time>2022-02-26T12:27:30Z</time>
      </trkpt>
      <trkpt lat="40.605420" lon="-4.498370">
        <ele>1381.678</ele>
        <time>2022-02-26T12:28:10Z</time>
      </trkpt>
      <trkpt lat="40.605580" lon="-4.498430">
        <ele>1382.462</ele>
        <time>2022-02-26T12:28:50Z</time>
      </trkpt>
      <trkpt lat="40.605660" lon="-4.498460">
        <ele>1382.891</ele>
        <time>2022-02-26T12:29:30Z</time>
      </trkpt>
      <trkpt lat="40.605680" lon="-4.498460">
        <ele>1382.961</ele>
        <time>2022-02-26T12:30:10Z</time>
      </trkpt>
      <trkpt lat="40.605950" lon="-4.498550">
        <ele>1383.854</ele>
        <time>2022-02-26T12:30:50Z</time>
      </trkpt>
      <trkpt lat="40.606100" lon="-4.498610">
        <ele>1384.049</ele>
        <time>2022-02-26T12:31:30Z</time>
      </trkpt>
      <trkpt lat="40.606270" lon="-4.498670">
        <ele>1384.277</ele>
        <time>2022-02-26T12:32:10Z</time>
      </trkpt>
      <trkpt lat="40.606440" lon="-4.498730">
        <ele>1384.632</ele>
        <time>2022-02-26T12:32:50Z</time>
      </trkpt>
      <trkpt lat="40.606450" lon="-4.498730">
        <ele>1384.692</ele>
        <time>2022-02-26T12:33:30Z</time>
      </trkpt>
      <trkpt lat="40.606780" lon="-4.498850">
        <ele>1385.911</ele>
        <time>2022-02-26T12:34:10Z</time>
      </trkpt>
      <trkpt lat="40.607120" lon="-4.498960">
        <ele>1386.908</ele>
        <time>2022-02-26T12:34:50Z</time>
      </trkpt>
      <trkpt lat="40.607320" lon="-4.499030">
        <ele>1387.742</ele>
        <time>2022-02-26T12:35:30Z</time>
      </trkpt>
      <trkpt lat="40.607470" lon="-4.499080">
        <ele>1388.039</ele>
        <time>2022-02-26T12:36:10Z</time>
      </trkpt>
      <trkpt lat="40.607790" lon="-4.499190">
        <ele>1389.033</ele>
        <time>2022-02-26T12:36:50Z</time>
      </trkpt>
      <trkpt lat="40.607850" lon="-4.499210">
        <ele>1389.342</ele>
        <time>2022-02-26T12:37:30Z</time>
      </trkpt>
      <trkpt lat="40.608000" lon="-4.499260">
        <ele>1389.872</ele>
        <time>2022-02-26T12:38:10Z</time>
      </trkpt>
      <trkpt lat="40.608190" lon="-4.499320">
        <ele>1390.295</ele>
        <time>2022-02-26T12:38:50Z</time>
      </trkpt>
      <trkpt lat="40.608350" lon="-4.499350">
        <ele>1390.410</ele>
        <time>2022-02-26T12:39:30Z</time>
      </trkpt>
      <trkpt lat="40.608480" lon="-4.499370">
        <ele>1390.768</ele>
        <time>2022-02-26T12:40:10Z</time>
      </trkpt>
      <trkpt lat="40.608500" lon="-4.499370">
        <ele>1390.716</ele>
        <time>2022-02-26T12:40:50Z</time>
      </trkpt>
      <trkpt lat="40.608650" lon="-4.499380">
        <ele>1391.076</ele>
        <time>2022-02-26T12:41:30Z</time>
      </trkpt>
      <trkpt lat="40.608680" lon="-4.499380">
        <ele>1391.013</ele>
        <time>2022-02-26T12:42:10Z</time>
      </trkpt>
      <trkpt lat="40.608740" lon="-4.499380">
        <ele>1391.008</ele>
        <time>2022-02-26T12:42:50Z</time>
      </trkpt>
      <trkpt lat="40.608900" lon="-4.499380">
        <ele>1391.090</ele>
        <time>2022-02-26T12:43:30Z</time>
      </trkpt>
      <trkpt lat="40.608990" lon="-4.499370">
        <ele>1391.067</ele>
        <time>2022-02-26T12:44:10Z</time>
      </trkpt>
      <trkpt lat="40.609100" lon="-4.499350">
        <ele>1391.061</ele>
        <time>2022-02-26T12:44:50Z</time>
      </trkpt>
      <trkpt lat="40.609210" lon="-4.499330">
        <ele>1391.140</ele>
        <time>2022-02-26T12:45:30Z</time>
      </trkpt>
      <trkpt lat="40.609250" lon="-4.499320">
        <ele>1391.190</ele>
        <time>2022-02-26T12:46:10Z</time>
      </trkpt>
      <trkpt lat="40.609360" lon="-4.499290">
        <ele>1391.433</ele>
        <time>2022-02-26T12:46:50Z</time>
      </trkpt>
      <trkpt lat="40.609480" lon="-4.499240">
        <ele>1391.768</ele>
        <time>2022-02-26T12:47:30Z</time>
      </trkpt>
      <trkpt lat="40.609600" lon="-4.499190">
        <ele>1391.956</ele>
        <time>2022-02-26T12:48:10Z</time>
      </trkpt>
      <trkpt lat="40.609730" lon="-4.499130">
        <ele>1392.036</ele>
        <time>2022-02-26T12:48:50Z</time>
      </trkpt>
      <trkpt lat="40.609740" lon="-4.499120">
        <ele>1391.917</ele>
        <time>2022-02-26T12:49:30Z</time>
      </trkpt>
      <trkpt lat="40.609840" lon="-4.499060">
        <ele>1391.618</ele>
        <time>2022-02-26T12:50:10Z</time>
      </trkpt>
      <trkpt lat="40.609950" lon="-4.498980">
        <ele>1391.208</ele>
        <time>2022-02-26T12:50:50Z</time>
      </trkpt>
      <trkpt lat="40.610060" lon="-4.498900">
        <ele>1390.842</ele>
        <time>2022-02-26T12:51:30Z</time>
      </trkpt>
      <trkpt lat="40.610190" lon="-4.498800">
        <ele>1390.479</ele>
        <time>2022-02-26T12:52:10Z</time>
      </trkpt>
      <trkpt lat="40.610260" lon="-4.498730">
        <ele>1390.143</ele>
        <time>2022-02-26T12:52:50Z</time>
      </trkpt>
      <trkpt lat="40.610280" lon="-4.498710">
        <ele>1390.082</ele>
        <time>2022-02-26T12:53:30Z</time>
      </trkpt>
      <trkpt lat="40.610370" lon="-4.498620">
        <ele>1390.092</ele>
        <time>2022-02-26T12:54:10Z</time>
      </trkpt>
      <trkpt lat="40.610410" lon="-4.498580">
        <ele>1390.165</ele>
        <time>2022-02-26T12:54:50Z</time>
      </trkpt>
      <trkpt lat="40.610450" lon="-4.498530">
        <ele>1390.120</ele>
        <time>2022-02-26T12:55:30Z</time>
      </trkpt>
      <trkpt lat="40.610530" lon="-4.498440">
        <ele>1390.148</ele>
        <time>2022-02-26T12:56:10Z</time>
      </trkpt>
      <trkpt lat="40.610540" lon="-4.498420">
        <ele>1390.034</ele>
        <time>2022-02-26T12:56:50Z</time>
      </trkpt>
      <trkpt lat="40.610620" lon="-4.498320">
        <ele>1390.055</ele>
        <time>2022-02-26T12:57:30Z</time>
      </trkpt>
      <trkpt lat="40.610710" lon="-4.498190">
        <ele>1389.410</ele>
        <time>2022-02-26T12:58:10Z</time>
      </trkpt>
      <trkpt lat="40.610800" lon="-4.498030">
        <ele>1388.408</ele>
        <time>2022-02-26T12:58:50Z</time>
      </trkpt>
      <trkpt lat="40.610880" lon="-4.497910">
        <ele>1388.232</ele>
        <time>2022-02-26T12:59:30Z</time>
      </trkpt>
      <trkpt lat="40.610890" lon="-4.497880">
        <ele>1388.279</ele>
        <time>2022-02-26T13:00:10Z</time>
      </trkpt>
      <trkpt lat="40.610960" lon="-4.497760">
        <ele>1387.883</ele>
        <time>2022-02-26T13:00:50Z</time>
      </trkpt>
      <trkpt lat="40.611090" lon="-4.497520">
        <ele>1388.082</ele>
        <time>2022-02-26T13:01:30Z</time>
      </trkpt>
      <trkpt lat="40.611100" lon="-4.497500">
        <ele>1388.112</ele>
        <time>2022-02-26T13:02:10Z</time>
      </trkpt>
      <trkpt lat="40.611210" lon="-4.497310">
        <ele>1386.345</ele>
        <time>2022-02-26T13:02:50Z</time>
      </trkpt>
      <trkpt lat="40.611290" lon="-4.497160">
        <ele>1385.460</ele>
        <time>2022-02-26T13:03:30Z</time>
      </trkpt>
      <trkpt lat="40.611310" lon="-4.497120">
        <ele>1385.298</ele>
        <time>2022-02-26T13:04:10Z</time>
      </trkpt>
      <trkpt lat="40.611500" lon="-4.496780">
        <ele>1381.681</ele>
        <time>2022-02-26T13:04:50Z</time>
      </trkpt>
      <trkpt lat="40.611670" lon="-4.496490">
        <ele>1376.861</ele>
        <time>2022-02-26T13:05:30Z</time>
      </trkpt>
      <trkpt lat="40.611760" lon="-4.496320">
        <ele>1376.117</ele>
        <time>2022-02-26T13:06:10Z</time>
      </trkpt>
      <trkpt lat="40.611850" lon="-4.496170">
        <ele>1375.108</ele>
        <time>2022-02-26T13:06:50Z</time>
      </trkpt>
      <trkpt lat="40.611870" lon="-4.496130">
        <ele>1374.987</ele>
        <time>2022-02-26T13:07:30Z</time>
      </trkpt>
      <trkpt lat="40.611960" lon="-4.495980">
        <ele>1374.084</ele>
        <time>2022-02-26T13:08:10Z</time>
      </trkpt>
      <trkpt lat="40.611980" lon="-4.495940">
        <ele>1374.068</ele>
        <time>2022-02-26T13:08:50Z</time>
      </trkpt>
      <trkpt lat="40.612040" lon="-4.495840">
        <ele>1373.877</ele>
        <time>2022-02-26T13:09:30Z</time>
      </trkpt>
      <trkpt lat="40.612090" lon="-4.495760">
        <ele>1374.097</ele>
        <time>2022-02-26T13:10:10Z</time>
      </trkpt>
      <trkpt lat="40.612140" lon="-4.495690">
        <ele>1374.240</ele>
        <time>2022-02-26T13:10:50Z</time>
      </trkpt>
      <trkpt lat="40.612200" lon="-4.495620">
        <ele>1374.355</ele>
        <time>2022-02-26T13:11:30Z</time>
      </trkpt>
      <trkpt lat="40.612250" lon="-4.495560">
        <ele>1374.483</ele>
        <time>2022-02-26T13:12:10Z</time>
      </trkpt>
      <trkpt lat="40.612320" lon="-4.495500">
        <ele>1374.273</ele>
        <time>2022-02-26T13:12:50Z</time>
      </trkpt>
      <trkpt lat="40.612340" lon="-4.495480">
        <ele>1374.285</ele>
        <time>2022-02-26T13:13:30Z</time>
      </trkpt>
      <trkpt lat="40.612380" lon="-4.495450">
        <ele>1374.113</ele>
        <time>2022-02-26T13:14:10Z</time>
      </trkpt>
      <trkpt lat="40.612450" lon="-4.495410">
        <ele>1373.508</ele>
        <time>2022-02-26T13:14:50Z</time>
      </trkpt>
      <trkpt lat="40.612510" lon="-4.495380">
        <ele>1372.916</ele>
        <time>2022-02-26T13:15:30Z</time>
      </trkpt>
      <trkpt lat="40.612590" lon="-4.495350">
        <ele>1371.663</ele>
        <time>2022-02-26T13:16:10Z</time>
      </trkpt>
      <trkpt lat="40.612680" lon="-4.495330">
        <ele>1369.947</ele>
        <time>2022-02-26T13:16:50Z</time>
      </trkpt>
      <trkpt lat="40.612690" lon="-4.495320">
        <ele>1369.926</ele>
        <time>2022-02-26T13:17:30Z</time>
      </trkpt>
      <trkpt lat="40.612790" lon="-4.495320">
        <ele>1367.786</ele>
        <time>2022-02-26T13:18:10Z</time>
      </trkpt>
      <trkpt lat="40.612840" lon="-4.495320">
        <ele>1366.989</ele>
        <time>2022-02-26T13:18:50Z</time>
      </trkpt>
      <trkpt lat="40.612860" lon="-4.495320">
        <ele>1366.624</ele>
        <time>2022-02-26T13:19:30Z</time>
      </trkpt>
      <trkpt lat="40.612900" lon="-4.495330">
        <ele>1365.742</ele>
        <time>2022-02-26T13:20:10Z</time>
      </trkpt>
      <trkpt lat="40.612960" lon="-4.495340">
        <ele>1364.624</ele>
        <time>2022-02-26T13:20:50Z</time>
      </trkpt>
      <trkpt lat="40.613010" lon="-4.495350">
        <ele>1363.704</ele>
        <time>2022-02-26T13:21:30Z</time>
      </trkpt>
      <trkpt lat="40.613030" lon="-4.495370">
        <ele>1363.014</ele>
        <time>2022-02-26T13:22:10Z</time>
      </trkpt>
      <trkpt lat="40.613050" lon="-4.495370">
        <ele>1362.808</ele>
        <time>2022-02-26T13:22:50Z</time>
      </trkpt>
      <trkpt lat="40.613120" lon="-4.495410">
        <ele>1361.661</ele>
        <time>2022-02-26T13:23:30Z</time>
      </trkpt>
      <trkpt lat="40.613170" lon="-4.495440">
        <ele>1361.098</ele>
        <time>2022-02-26T13:24:10Z</time>
      </trkpt>
      <trkpt lat="40.613200" lon="-4.495460">
        <ele>1360.792</ele>
        <time>2022-02-26T13:24:50Z</time>
      </trkpt>
      <trkpt lat="40.613230" lon="-4.495490">
        <ele>1360.411</ele>
        <time>2022-02-26T13:25:30Z</time>
      </trkpt>
      <trkpt lat="40.613280" lon="-4.495540">
        <ele>1360.071</ele>
        <time>2022-02-26T13:26:10Z</time>
      </trkpt>
      <trkpt lat="40.613340" lon="-4.495600">
        <ele>1359.754</ele>
        <time>2022-02-26T13:26:50Z</time>
      </trkpt>
      <trkpt lat="40.613390" lon="-4.495660">
        <ele>1359.859</ele>
        <time>2022-02-26T13:27:30Z</time>
      </trkpt>
      <trkpt lat="40.613430" lon="-4.495720">
        <ele>1360.287</ele>
        <time>2022-02-26T13:28:10Z</time>
      </trkpt>
      <trkpt lat="40.613470" lon="-4.495780">
        <ele>1360.924</ele>
        <time>2022-02-26T13:28:50Z</time>
      </trkpt>
      <trkpt lat="40.613480" lon="-4.495800">
        <ele>1361.104</ele>
        <time>2022-02-26T13:29:30Z</time>
      </trkpt>
      <trkpt lat="40.613510" lon="-4.495870">
        <ele>1362.014</ele>
        <time>2022-02-26T13:30:10Z</time>
      </trkpt>
      <trkpt lat="40.613550" lon="-4.495950">
        <ele>1363.308</ele>
        <time>2022-02-26T13:30:50Z</time>
      </trkpt>
      <trkpt lat="40.613560" lon="-4.495980">
        <ele>1363.811</ele>
        <time>2022-02-26T13:31:30Z</time>
      </trkpt>
      <trkpt lat="40.613570" lon="-4.496020">
        <ele>1364.348</ele>
        <time>2022-02-26T13:32:10Z</time>
      </trkpt>
      <trkpt lat="40.613600" lon="-4.496100">
        <ele>1365.612</ele>
        <time>2022-02-26T13:32:50Z</time>
      </trkpt>
      <trkpt lat="40.613620" lon="-4.496170">
        <ele>1366.751</ele>
        <time>2022-02-26T13:33:30Z</time>
      </trkpt>
      <trkpt lat="40.613620" lon="-4.496200">
        <ele>1366.981</ele>
        <time>2022-02-26T13:34:10Z</time>
      </trkpt>
      <trkpt lat="40.613630" lon="-4.496240">
        <ele>1367.554</ele>
        <time>2022-02-26T13:34:50Z</time>
      </trkpt>
      <trkpt lat="40.613640" lon="-4.496320">
        <ele>1368.419</ele>
        <time>2022-02-26T13:35:30Z</time>
      </trkpt>
      <trkpt lat="40.613640" lon="-4.496420">
        <ele>1369.277</ele>
        <time>2022-02-26T13:36:10Z</time>
      </trkpt>
      <trkpt lat="40.613640" lon="-4.496430">
        <ele>1369.212</ele>
        <time>2022-02-26T13:36:50Z</time>
      </trkpt>
      <trkpt lat="40.613650" lon="-4.496500">
        <ele>1370.132</ele>
        <time>2022-02-26T13:37:30Z</time>
      </trkpt>
      <trkpt lat="40.613640" lon="-4.496570">
        <ele>1370.305</ele>
        <time>2022-02-26T13:38:10Z</time>
      </trkpt>
      <trkpt lat="40.613640" lon="-4.496620">
        <ele>1370.708</ele>
        <time>2022-02-26T13:38:50Z</time>
      </trkpt>
      <trkpt lat="40.613630" lon="-4.496710">
        <ele>1371.050</ele>
        <time>2022-02-26T13:39:30Z</time>
      </trkpt>
      <trkpt lat="40.613620" lon="-4.496870">
        <ele>1371.887</ele>
        <time>2022-02-26T13:40:10Z</time>
      </trkpt>
      <trkpt lat="40.613590" lon="-4.497060">
        <ele>1372.651</ele>
        <time>2022-02-26T13:40:50Z</time>
      </trkpt>
      <trkpt lat="40.613580" lon="-4.497140">
        <ele>1373.250</ele>
        <time>2022-02-26T13:41:30Z</time>
      </trkpt>
      <trkpt lat="40.613490" lon="-4.497670">
        <ele>1374.830</ele>
        <time>2022-02-26T13:42:10Z</time>
      </trkpt>
      <trkpt lat="40.613470" lon="-4.497830">
        <ele>1375.543</ele>
        <time>2022-02-26T13:42:50Z</time>
      </trkpt>
      <trkpt lat="40.613450" lon="-4.497930">
        <ele>1375.878</ele>
        <time>2022-02-26T13:43:30Z</time>
      </trkpt>
      <trkpt lat="40.613430" lon="-4.498060">
        <ele>1376.246</ele>
        <time>2022-02-26T13:44:10Z</time>
      </trkpt>
      <trkpt lat="40.613420" lon="-4.498140">
        <ele>1376.246</ele>
        <time>2022-02-26T13:44:50Z</time>
      </trkpt>
      <trkpt lat="40.613400" lon="-4.498270">
        <ele>1376.088</ele>
        <time>2022-02-26T13:45:30Z</time>
      </trkpt>
      <trkpt lat="40.613380" lon="-4.498400">
        <ele>1375.916</ele>
        <time>2022-02-26T13:46:10Z</time>
      </trkpt>
      <trkpt lat="40.613360" lon="-4.498540">
        <ele>1376.008</ele>
        <time>2022-02-26T13:46:50Z</time>
      </trkpt>
      <trkpt lat="40.613360" lon="-4.498710">
        <ele>1377.493</ele>
        <time>2022-02-26T13:47:30Z</time>
      </trkpt>
      <trkpt lat="40.613360" lon="-4.498840">
        <ele>1378.550</ele>
        <time>2022-02-26T13:48:10Z</time>
      </trkpt>
      <trkpt lat="40.613370" lon="-4.498960">
        <ele>1379.794</ele>
        <time>2022-02-26T13:48:50Z</time>
      </trkpt>
      <trkpt lat="40.613370" lon="-4.499000">
        <ele>1379.833</ele>
        <time>2022-02-26T13:49:30Z</time>
      </trkpt>
      <trkpt lat="40.613380" lon="-4.499070">
        <ele>1380.593</ele>
        <time>2022-02-26T13:50:10Z</time>
      </trkpt>
      <trkpt lat="40.613410" lon="-4.499190">
        <ele>1382.096</ele>
        <time>2022-02-26T13:50:50Z</time>
      </trkpt>
      <trkpt lat="40.613420" lon="-4.499230">
        <ele>1382.361</ele>
        <time>2022-02-26T13:51:30Z</time>
      </trkpt>
      <trkpt lat="40.613430" lon="-4.499270">
        <ele>1382.639</ele>
        <time>2022-02-26T13:52:10Z</time>
      </trkpt>
      <trkpt lat="40.613460" lon="-4.499360">
        <ele>1383.074</ele>
        <time>2022-02-26T13:52:50Z</time>
      </trkpt>
      <trkpt lat="40.613490" lon="-4.499430">
        <ele>1383.156</ele>
        <time>2022-02-26T13:53:30Z</time>
      </trkpt>
      <trkpt lat="40.613530" lon="-4.499510">
        <ele>1383.621</ele>
        <time>2022-02-26T13:54:10Z</time>
      </trkpt>
      <trkpt lat="40.613580" lon="-4.499600">
        <ele>1384.208</ele>
        <time>2022-02-26T13:54:50Z</time>
      </trkpt>
      <trkpt lat="40.613600" lon="-4.499630">
        <ele>1384.496</ele>
        <time>2022-02-26T13:55:30Z</time>
      </trkpt>
      <trkpt lat="40.613640" lon="-4.499680">
        <ele>1384.843</ele>
        <time>2022-02-26T13:56:10Z</time>
      </trkpt>
      <trkpt lat="40.613690" lon="-4.499740">
        <ele>1385.057</ele>
        <time>2022-02-26T13:56:50Z</time>
      </trkpt>
      <trkpt lat="40.613740" lon="-4.499790">
        <ele>1385.316</ele>
        <time>2022-02-26T13:57:30Z</time>
      </trkpt>
      <trkpt lat="40.613750" lon="-4.499790">
        <ele>1385.486</ele>
        <time>2022-02-26T13:58:10Z</time>
      </trkpt>
      <trkpt lat="40.613800" lon="-4.499840">
        <ele>1385.679</ele>
        <time>2022-02-26T13:58:50Z</time>
      </trkpt>
      <trkpt lat="40.613860" lon="-4.499890">
        <ele>1385.864</ele>
        <time>2022-02-26T13:59:30Z</time>
      </trkpt>
      <trkpt lat="40.613950" lon="-4.499960">
        <ele>1386.242</ele>
        <time>2022-02-26T14:00:10Z</time>
      </trkpt>
      <trkpt lat="40.614040" lon="-4.500000">
        <ele>1386.651</ele>
        <time>2022-02-26T14:00:50Z</time>
      </trkpt>
      <trkpt lat="40.614130" lon="-4.500050">
        <ele>1386.401</ele>
        <time>2022-02-26T14:01:30Z</time>
      </trkpt>
      <trkpt lat="40.614220" lon="-4.500080">
        <ele>1386.911</ele>
        <time>2022-02-26T14:02:10Z</time>
      </trkpt>
      <trkpt lat="40.614300" lon="-4.500100">
        <ele>1387.708</ele>
        <time>2022-02-26T14:02:50Z</time>
      </trkpt>
      <trkpt lat="40.614370" lon="-4.500110">
        <ele>1388.694</ele>
        <time>2022-02-26T14:03:30Z</time>
      </trkpt>
      <trkpt lat="40.614400" lon="-4.500120">
        <ele>1388.821</ele>
        <time>2022-02-26T14:04:10Z</time>
      </trkpt>
      <trkpt lat="40.614440" lon="-4.500120">
        <ele>1389.525</ele>
        <time>2022-02-26T14:04:50Z</time>
      </trkpt>
      <trkpt lat="40.614540" lon="-4.500130">
        <ele>1389.884</ele>
        <time>2022-02-26T14:05:30Z</time>
      </trkpt>
      <trkpt lat="40.614660" lon="-4.500130">
        <ele>1390.414</ele>
        <time>2022-02-26T14:06:10Z</time>
      </trkpt>
      <trkpt lat="40.614850" lon="-4.500130">
        <ele>1391.017</ele>
        <time>2022-02-26T14:06:50Z</time>
      </trkpt>
      <trkpt lat="40.614990" lon="-4.500140">
        <ele>1391.062</ele>
        <time>2022-02-26T14:07:30Z</time>
      </trkpt>
      <trkpt lat="40.615040" lon="-4.500150">
        <ele>1391.020</ele>
        <time>2022-02-26T14:08:10Z</time>
      </trkpt>
      <trkpt lat="40.615130" lon="-4.500150">
        <ele>1391.618</ele>
        <time>2022-02-26T14:08:50Z</time>
      </trkpt>
      <trkpt lat="40.615280" lon="-4.500180">
        <ele>1391.698</ele>
        <time>2022-02-26T14:09:30Z</time>
      </trkpt>
      <trkpt lat="40.615390" lon="-4.500200">
        <ele>1392.517</ele>
        <time>2022-02-26T14:10:10Z</time>
      </trkpt>
      <trkpt lat="40.615540" lon="-4.500240">
        <ele>1393.308</ele>
        <time>2022-02-26T14:10:50Z</time>
      </trkpt>
      <trkpt lat="40.615670" lon="-4.500290">
        <ele>1393.760</ele>
        <time>2022-02-26T14:11:30Z</time>
      </trkpt>
      <trkpt lat="40.615820" lon="-4.500360">
        <ele>1394.487</ele>
        <time>2022-02-26T14:12:10Z</time>
      </trkpt>
      <trkpt lat="40.615950" lon="-4.500420">
        <ele>1395.461</ele>
        <time>2022-02-26T14:12:50Z</time>
      </trkpt>
      <trkpt lat="40.616050" lon="-4.500480">
        <ele>1395.970</ele>
        <time>2022-02-26T14:13:30Z</time>
      </trkpt>
      <trkpt lat="40.616160" lon="-4.500550">
        <ele>1396.480</ele>
        <time>2022-02-26T14:14:10Z</time>
      </trkpt>
      <trkpt lat="40.616170" lon="-4.500550">
        <ele>1396.663</ele>
        <time>2022-02-26T14:14:50Z</time>
      </trkpt>
      <trkpt lat="40.616260" lon="-4.500610">
        <ele>1397.418</ele>
        <time>2022-02-26T14:15:30Z</time>
      </trkpt>
      <trkpt lat="40.616360" lon="-4.500680">
        <ele>1398.126</ele>
        <time>2022-02-26T14:16:10Z</time>
      </trkpt>
      <trkpt lat="40.616560" lon="-4.500810">
        <ele>1399.814</ele>
        <time>2022-02-26T14:16:50Z</time>
      </trkpt>
      <trkpt lat="40.616930" lon="-4.501050">
        <ele>1401.854</ele>
        <time>2022-02-26T14:17:30Z</time>
      </trkpt>
      <trkpt lat="40.617140" lon="-4.501190">
        <ele>1402.509</ele>
        <time>2022-02-26T14:18:10Z</time>
      </trkpt>
      <trkpt lat="40.617160" lon="-4.501200">
        <ele>1402.708</ele>
        <time>2022-02-26T14:18:50Z</time>
      </trkpt>
      <trkpt lat="40.617300" lon="-4.501290">
        <ele>1403.680</ele>
        <time>2022-02-26T14:19:30Z</time>
      </trkpt>
      <trkpt lat="40.617540" lon="-4.501450">
        <ele>1404.857</ele>
        <time>2022-02-26T14:20:10Z</time>
      </trkpt>
      <trkpt lat="40.617730" lon="-4.501580">
        <ele>1406.421</ele>
        <time>2022-02-26T14:20:50Z</time>
      </trkpt>
      <trkpt lat="40.617870" lon="-4.501670">
        <ele>1407.720</ele>
        <time>2022-02-26T14:21:30Z</time>
      </trkpt>
      <trkpt lat="40.618070" lon="-4.501800">
        <ele>1410.720</ele>
        <time>2022-02-26T14:22:10Z</time>
      </trkpt>
      <trkpt lat="40.618180" lon="-4.501870">
        <ele>1411.323</ele>
        <time>2022-02-26T14:22:50Z</time>
      </trkpt>
      <trkpt lat="40.618270" lon="-4.501930">
        <ele>1411.638</ele>
        <time>2022-02-26T14:23:30Z</time>
      </trkpt>
      <trkpt lat="40.618330" lon="-4.501970">
        <ele>1412.026</ele>
        <time>2022-02-26T14:24:10Z</time>
      </trkpt>
      <trkpt lat="40.618430" lon="-4.502030">
        <ele>1412.783</ele>
        <time>2022-02-26T14:24:50Z</time>
      </trkpt>
      <trkpt lat="40.618470" lon="-4.502060">
        <ele>1413.025</ele>
        <time>2022-02-26T14:25:30Z</time>
      </trkpt>
      <trkpt lat="40.618580" lon="-4.502150">
        <ele>1413.817</ele>
        <time>2022-02-26T14:26:10Z</time>
      </trkpt>
      <trkpt lat="40.618590" lon="-4.502160">
        <ele>1413.808</ele>
        <time>2022-02-26T14:26:50Z</time>
      </trkpt>
      <trkpt lat="40.618680" lon="-4.502230">
        <ele>1414.637</ele>
        <time>2022-02-26T14:27:30Z</time>
      </trkpt>
      <trkpt lat="40.618760" lon="-4.502310">
        <ele>1415.824</ele>
        <time>2022-02-26T14:28:10Z</time>
      </trkpt>
      <trkpt lat="40.618840" lon="-4.502390">
        <ele>1416.668</ele>
        <time>2022-02-26T14:28:50Z</time>
      </trkpt>
      <trkpt lat="40.618870" lon="-4.502430">
        <ele>1416.837</ele>
        <time>2022-02-26T14:29:30Z</time>
      </trkpt>
      <trkpt lat="40.618890" lon="-4.502450">
        <ele>1416.877</ele>
        <time>2022-02-26T14:30:10Z</time>
      </trkpt>
      <trkpt lat="40.618950" lon="-4.502530">
        <ele>1417.540</ele>
        <time>2022-02-26T14:30:50Z</time>
      </trkpt>
      <trkpt lat="40.619000" lon="-4.502610">
        <ele>1418.045</ele>
        <time>2022-02-26T14:31:30Z</time>
      </trkpt>
      <trkpt lat="40.619060" lon="-4.502700">
        <ele>1418.553</ele>
        <time>2022-02-26T14:32:10Z</time>
      </trkpt>
      <trkpt lat="40.619130" lon="-4.502820">
        <ele>1418.981</ele>
        <time>2022-02-26T14:32:50Z</time>
      </trkpt>
      <trkpt lat="40.619180" lon="-4.502950">
        <ele>1419.261</ele>
        <time>2022-02-26T14:33:30Z</time>
      </trkpt>
      <trkpt lat="40.619240" lon="-4.503060">
        <ele>1420.317</ele>
        <time>2022-02-26T14:34:10Z</time>
      </trkpt>
      <trkpt lat="40.619270" lon="-4.503170">
        <ele>1421.308</ele>
        <time>2022-02-26T14:34:50Z</time>
      </trkpt>
      <trkpt lat="40.619280" lon="-4.503200">
        <ele>1421.667</ele>
        <time>2022-02-26T14:35:30Z</time>
      </trkpt>
      <trkpt lat="40.619310" lon="-4.503290">
        <ele>1422.494</ele>
        <time>2022-02-26T14:36:10Z</time>
      </trkpt>
      <trkpt lat="40.619330" lon="-4.503370">
        <ele>1423.168</ele>
        <time>2022-02-26T14:36:50Z</time>
      </trkpt>
      <trkpt lat="40.619360" lon="-4.503440">
        <ele>1423.997</ele>
        <time>2022-02-26T14:37:30Z</time>
      </trkpt>
      <trkpt lat="40.619380" lon="-4.503530">
        <ele>1424.527</ele>
        <time>2022-02-26T14:38:10Z</time>
      </trkpt>
      <trkpt lat="40.619410" lon="-4.503730">
        <ele>1425.940</ele>
        <time>2022-02-26T14:38:50Z</time>
      </trkpt>
      <trkpt lat="40.619440" lon="-4.503930">
        <ele>1427.165</ele>
        <time>2022-02-26T14:39:30Z</time>
      </trkpt>
      <trkpt lat="40.619500" lon="-4.504350">
        <ele>1428.733</ele>
        <time>2022-02-26T14:40:10Z</time>
      </trkpt>
      <trkpt lat="40.619530" lon="-4.504610">
        <ele>1429.679</ele>
        <time>2022-02-26T14:40:50Z</time>
      </trkpt>
      <trkpt lat="40.619620" lon="-4.505330">
        <ele>1433.305</ele>
        <time>2022-02-26T14:41:30Z</time>
      </trkpt>
      <trkpt lat="40.619760" lon="-4.506340">
        <ele>1439.925</ele>
        <time>2022-02-26T14:42:10Z</time>
      </trkpt>
      <trkpt lat="40.619770" lon="-4.506450">
        <ele>1440.608</ele>
        <time>2022-02-26T14:42:50Z</time>
      </trkpt>
      <trkpt lat="40.619860" lon="-4.507150">
        <ele>1444.216</ele>
        <time>2022-02-26T14:43:30Z</time>
      </trkpt>
      <trkpt lat="40.619890" lon="-4.507390">
        <ele>1445.863</ele>
        <time>2022-02-26T14:44:10Z</time>
      </trkpt>
      <trkpt lat="40.619950" lon="-4.507860">
        <ele>1446.847</ele>
        <time>2022-02-26T14:44:50Z</time>
      </trkpt>
      <trkpt lat="40.619980" lon="-4.508090">
        <ele>1447.016</ele>
        <time>2022-02-26T14:45:30Z</time>
      </trkpt>
      <trkpt lat="40.620100" lon="-4.509020">
        <ele>1449.716</ele>
        <time>2022-02-26T14:46:10Z</time>
      </trkpt>
      <trkpt lat="40.620110" lon="-4.509070">
        <ele>1450.059</ele>
        <time>2022-02-26T14:46:50Z</time>
      </trkpt>
      <trkpt lat="40.620160" lon="-4.509420">
        <ele>1450.674</ele>
        <time>2022-02-26T14:47:30Z</time>
      </trkpt>
      <trkpt lat="40.620170" lon="-4.509490">
        <ele>1450.672</ele>
        <time>2022-02-26T14:48:10Z</time>
      </trkpt>
      <trkpt lat="40.620210" lon="-4.509700">
        <ele>1450.861</ele>
        <time>2022-02-26T14:48:50Z</time>
      </trkpt>
      <trkpt lat="40.620260" lon="-4.509940">
        <ele>1450.921</ele>
        <time>2022-02-26T14:49:30Z</time>
      </trkpt>
      <trkpt lat="40.620270" lon="-4.509970">
        <ele>1451.013</ele>
        <time>2022-02-26T14:50:10Z</time>
      </trkpt>
      <trkpt lat="40.620320" lon="-4.510210">
        <ele>1451.208</ele>
        <time>2022-02-26T14:50:50Z</time>
      </trkpt>
      <trkpt lat="40.620360" lon="-4.510370">
        <ele>1451.185</ele>
        <time>2022-02-26T14:51:30Z</time>
      </trkpt>
      <trkpt lat="40.620370" lon="-4.510400">
        <ele>1451.032</ele>
        <time>2022-02-26T14:52:10Z</time>
      </trkpt>
      <trkpt lat="40.620410" lon="-4.510520">
        <ele>1451.046</ele>
        <time>2022-02-26T14:52:50Z</time>
      </trkpt>
      <trkpt lat="40.620440" lon="-4.510620">
        <ele>1451.075</ele>
        <time>2022-02-26T14:53:30Z</time>
      </trkpt>
      <trkpt lat="40.620460" lon="-4.510710">
        <ele>1450.965</ele>
        <time>2022-02-26T14:54:10Z</time>
      </trkpt>
      <trkpt lat="40.620550" lon="-4.510970">
        <ele>1451.068</ele>
        <time>2022-02-26T14:54:50Z</time>
      </trkpt>
      <trkpt lat="40.620720" lon="-4.511490">
        <ele>1448.243</ele>
        <time>2022-02-26T14:55:30Z</time>
      </trkpt>
      <trkpt lat="40.620790" lon="-4.511690">
        <ele>1445.621</ele>
        <time>2022-02-26T14:56:10Z</time>
      </trkpt>
      <trkpt lat="40.620860" lon="-4.511930">
        <ele>1443.784</ele>
        <time>2022-02-26T14:56:50Z</time>
      </trkpt>
      <trkpt lat="40.620910" lon="-4.512080">
        <ele>1443.207</ele>
        <time>2022-02-26T14:57:30Z</time>
      </trkpt>
      <trkpt lat="40.620930" lon="-4.512140">
        <ele>1443.017</ele>
        <time>2022-02-26T14:58:10Z</time>
      </trkpt>
      <trkpt lat="40.621020" lon="-4.512420">
        <ele>1442.108</ele>
        <time>2022-02-26T14:58:50Z</time>
      </trkpt>
      <trkpt lat="40.621100" lon="-4.512700">
        <ele>1441.387</ele>
        <time>2022-02-26T14:59:30Z</time>
      </trkpt>
      <trkpt lat="40.621140" lon="-4.512820">
        <ele>1441.134</ele>
        <time>2022-02-26T15:00:10Z</time>
      </trkpt>
      <trkpt lat="40.621170" lon="-4.512940">
        <ele>1440.848</ele>
        <time>2022-02-26T15:00:50Z</time>
      </trkpt>
      <trkpt lat="40.621190" lon="-4.513050">
        <ele>1440.537</ele>
        <time>2022-02-26T15:01:30Z</time>
      </trkpt>
      <trkpt lat="40.621210" lon="-4.513190">
        <ele>1440.857</ele>
        <time>2022-02-26T15:02:10Z</time>
      </trkpt>
      <trkpt lat="40.621210" lon="-4.513220">
        <ele>1440.810</ele>
        <time>2022-02-26T15:02:50Z</time>
      </trkpt>
      <trkpt lat="40.621220" lon="-4.513310">
        <ele>1441.085</ele>
        <time>2022-02-26T15:03:30Z</time>
      </trkpt>
      <trkpt lat="40.621220" lon="-4.513400">
        <ele>1441.113</ele>
        <time>2022-02-26T15:04:10Z</time>
      </trkpt>
      <trkpt lat="40.621220" lon="-4.513560">
        <ele>1441.582</ele>
        <time>2022-02-26T15:04:50Z</time>
      </trkpt>
      <trkpt lat="40.621200" lon="-4.513680">
        <ele>1441.843</ele>
        <time>2022-02-26T15:05:30Z</time>
      </trkpt>
      <trkpt lat="40.621190" lon="-4.513760">
        <ele>1442.217</ele>
        <time>2022-02-26T15:06:10Z</time>
      </trkpt>
      <trkpt lat="40.621170" lon="-4.513850">
        <ele>1442.608</ele>
        <time>2022-02-26T15:06:50Z</time>
      </trkpt>
      <trkpt lat="40.621150" lon="-4.513940">
        <ele>1443.147</ele>
        <time>2022-02-26T15:07:30Z</time>
      </trkpt>
      <trkpt lat="40.621140" lon="-4.514010">
        <ele>1443.784</ele>
        <time>2022-02-26T15:08:10Z</time>
      </trkpt>
      <trkpt lat="40.621090" lon="-4.514130">
        <ele>1444.078</ele>
        <time>2022-02-26T15:08:50Z</time>
      </trkpt>
      <trkpt lat="40.621060" lon="-4.514220">
        <ele>1443.997</ele>
        <time>2022-02-26T15:09:30Z</time>
      </trkpt>
      <trkpt lat="40.621020" lon="-4.514320">
        <ele>1443.527</ele>
        <time>2022-02-26T15:10:10Z</time>
      </trkpt>
      <trkpt lat="40.620940" lon="-4.514470">
        <ele>1442.430</ele>
        <time>2022-02-26T15:10:50Z</time>
      </trkpt>
      <trkpt lat="40.620900" lon="-4.514540">
        <ele>1442.165</ele>
        <time>2022-02-26T15:11:30Z</time>
      </trkpt>
      <trkpt lat="40.620850" lon="-4.514600">
        <ele>1441.713</ele>
        <time>2022-02-26T15:12:10Z</time>
      </trkpt>
      <trkpt lat="40.620740" lon="-4.514730">
        <ele>1441.578</ele>
        <time>2022-02-26T15:12:50Z</time>
      </trkpt>
      <trkpt lat="40.620620" lon="-4.514860">
        <ele>1441.433</ele>
        <time>2022-02-26T15:13:30Z</time>
      </trkpt>
      <trkpt lat="40.620480" lon="-4.514990">
        <ele>1441.026</ele>
        <time>2022-02-26T15:14:10Z</time>
      </trkpt>
      <trkpt lat="40.620470" lon="-4.514990">
        <ele>1440.908</ele>
        <time>2022-02-26T15:14:50Z</time>
      </trkpt>
      <trkpt lat="40.620360" lon="-4.515090">
        <ele>1441.766</ele>
        <time>2022-02-26T15:15:30Z</time>
      </trkpt>
      <trkpt lat="40.620240" lon="-4.515190">
        <ele>1442.153</ele>
        <time>2022-02-26T15:16:10Z</time>
      </trkpt>
      <trkpt lat="40.620170" lon="-4.515240">
        <ele>1442.477</ele>
        <time>2022-02-26T15:16:50Z</time>
      </trkpt>
      <trkpt lat="40.620110" lon="-4.515290">
        <ele>1443.036</ele>
        <time>2022-02-26T15:17:30Z</time>
      </trkpt>
      <trkpt lat="40.619900" lon="-4.515460">
        <ele>1443.326</ele>
        <time>2022-02-26T15:18:10Z</time>
      </trkpt>
      <trkpt lat="40.619700" lon="-4.515610">
        <ele>1443.779</ele>
        <time>2022-02-26T15:18:50Z</time>
      </trkpt>
      <trkpt lat="40.619550" lon="-4.515710">
        <ele>1443.694</ele>
        <time>2022-02-26T15:19:30Z</time>
      </trkpt>
      <trkpt lat="40.619540" lon="-4.515730">
        <ele>1443.882</ele>
        <time>2022-02-26T15:20:10Z</time>
      </trkpt>
      <trkpt lat="40.619390" lon="-4.515830">
        <ele>1443.429</ele>
        <time>2022-02-26T15:20:50Z</time>
      </trkpt>
      <trkpt lat="40.619310" lon="-4.515890">
        <ele>1443.400</ele>
        <time>2022-02-26T15:21:30Z</time>
      </trkpt>
      <trkpt lat="40.619130" lon="-4.515980">
        <ele>1442.720</ele>
        <time>2022-02-26T15:22:10Z</time>
      </trkpt>
      <trkpt lat="40.618930" lon="-4.516060">
        <ele>1441.608</ele>
        <time>2022-02-26T15:22:50Z</time>
      </trkpt>
      <trkpt lat="40.618890" lon="-4.516080">
        <ele>1441.521</ele>
        <time>2022-02-26T15:23:30Z</time>
      </trkpt>
      <trkpt lat="40.618750" lon="-4.516140">
        <ele>1441.358</ele>
        <time>2022-02-26T15:24:10Z</time>
      </trkpt>
      <trkpt lat="40.618720" lon="-4.516150">
        <ele>1441.262</ele>
        <time>2022-02-26T15:24:50Z</time>
      </trkpt>
      <trkpt lat="40.618200" lon="-4.516350">
        <ele>1439.131</ele>
        <time>2022-02-26T15:25:30Z</time>
      </trkpt>
      <trkpt lat="40.618030" lon="-4.516420">
        <ele>1439.671</ele>
        <time>2022-02-26T15:26:10Z</time>
      </trkpt>
      <trkpt lat="40.617980" lon="-4.516440">
        <ele>1438.534</ele>
        <time>2022-02-26T15:26:50Z</time>
      </trkpt>
      <trkpt lat="40.617590" lon="-4.516600">
        <ele>1436.039</ele>
        <time>2022-02-26T15:27:30Z</time>
      </trkpt>
      <trkpt lat="40.617340" lon="-4.516700">
        <ele>1434.787</ele>
        <time>2022-02-26T15:28:10Z</time>
      </trkpt>
      <trkpt lat="40.617270" lon="-4.516730">
        <ele>1434.017</ele>
        <time>2022-02-26T15:28:50Z</time>
      </trkpt>
      <trkpt lat="40.617170" lon="-4.516770">
        <ele>1433.587</ele>
        <time>2022-02-26T15:29:30Z</time>
      </trkpt>
      <trkpt lat="40.617120" lon="-4.516790">
        <ele>1433.415</ele>
        <time>2022-02-26T15:30:10Z</time>
      </trkpt>
      <trkpt lat="40.616850" lon="-4.516910">
        <ele>1432.008</ele>
        <time>2022-02-26T15:30:50Z</time>
      </trkpt>
      <trkpt lat="40.616700" lon="-4.516990">
        <ele>1431.380</ele>
        <time>2022-02-26T15:31:30Z</time>
      </trkpt>
      <trkpt lat="40.616540" lon="-4.517090">
        <ele>1430.587</ele>
        <time>2022-02-26T15:32:10Z</time>
      </trkpt>
      <trkpt lat="40.616370" lon="-4.517220">
        <ele>1429.651</ele>
        <time>2022-02-26T15:32:50Z</time>
      </trkpt>
      <trkpt lat="40.616240" lon="-4.517310">
        <ele>1427.320</ele>
        <time>2022-02-26T15:33:30Z</time>
      </trkpt>
      <trkpt lat="40.616060" lon="-4.517470">
        <ele>1425.960</ele>
        <time>2022-02-26T15:34:10Z</time>
      </trkpt>
      <trkpt lat="40.615920" lon="-4.517620">
        <ele>1425.833</ele>
        <time>2022-02-26T15:34:50Z</time>
      </trkpt>
      <trkpt lat="40.615900" lon="-4.517630">
        <ele>1425.778</ele>
        <time>2022-02-26T15:35:30Z</time>
      </trkpt>
      <trkpt lat="40.615600" lon="-4.517940">
        <ele>1424.516</ele>
        <time>2022-02-26T15:36:10Z</time>
      </trkpt>
      <trkpt lat="40.615470" lon="-4.518070">
        <ele>1423.434</ele>
        <time>2022-02-26T15:36:50Z</time>
      </trkpt>
      <trkpt lat="40.615450" lon="-4.518090">
        <ele>1423.255</ele>
        <time>2022-02-26T15:37:30Z</time>
      </trkpt>
      <trkpt lat="40.615330" lon="-4.518210">
        <ele>1421.910</ele>
        <time>2022-02-26T15:38:10Z</time>
      </trkpt>
      <trkpt lat="40.615130" lon="-4.518430">
        <ele>1420.308</ele>
        <time>2022-02-26T15:38:50Z</time>
      </trkpt>
      <trkpt lat="40.614780" lon="-4.518790">
        <ele>1416.522</ele>
        <time>2022-02-26T15:39:30Z</time>
      </trkpt>
      <trkpt lat="40.614530" lon="-4.519030">
        <ele>1414.669</ele>
        <time>2022-02-26T15:40:10Z</time>
      </trkpt>
      <trkpt lat="40.614260" lon="-4.519310">
        <ele>1412.823</ele>
        <time>2022-02-26T15:40:50Z</time>
      </trkpt>
      <trkpt lat="40.614200" lon="-4.519380">
        <ele>1412.462</ele>
        <time>2022-02-26T15:41:30Z</time>
      </trkpt>
      <trkpt lat="40.614060" lon="-4.519530">
        <ele>1411.342</ele>
        <time>2022-02-26T15:42:10Z</time>
      </trkpt>
      <trkpt lat="40.614050" lon="-4.519540">
        <ele>1411.235</ele>
        <time>2022-02-26T15:42:50Z</time>
      </trkpt>
      <trkpt lat="40.613850" lon="-4.519790">
        <ele>1409.610</ele>
        <time>2022-02-26T15:43:30Z</time>
      </trkpt>
      <trkpt lat="40.613590" lon="-4.520130">
        <ele>1407.118</ele>
        <time>2022-02-26T15:44:10Z</time>
      </trkpt>
      <trkpt lat="40.613310" lon="-4.520500">
        <ele>1401.887</ele>
        <time>2022-02-26T15:44:50Z</time>
      </trkpt>
      <trkpt lat="40.613290" lon="-4.520530">
        <ele>1401.742</ele>
        <time>2022-02-26T15:45:30Z</time>
      </trkpt>
      <trkpt lat="40.613040" lon="-4.520860">
        <ele>1400.026</ele>
        <time>2022-02-26T15:46:10Z</time>
      </trkpt>
      <trkpt lat="40.613040" lon="-4.520870">
        <ele>1400.008</ele>
        <time>2022-02-26T15:46:50Z</time>
      </trkpt>
      <trkpt lat="40.612910" lon="-4.521030">
        <ele>1400.087</ele>
        <time>2022-02-26T15:47:30Z</time>
      </trkpt>
      <trkpt lat="40.612890" lon="-4.521060">
        <ele>1400.134</ele>
        <time>2022-02-26T15:48:10Z</time>
      </trkpt>
      <trkpt lat="40.612660" lon="-4.521380">
        <ele>1400.568</ele>
        <time>2022-02-26T15:48:50Z</time>
      </trkpt>
      <trkpt lat="40.612530" lon="-4.521540">
        <ele>1400.027</ele>
        <time>2022-02-26T15:49:30Z</time>
      </trkpt>
      <trkpt lat="40.612490" lon="-4.521600">
        <ele>1399.967</ele>
        <time>2022-02-26T15:50:10Z</time>
      </trkpt>
      <trkpt lat="40.612310" lon="-4.521860">
        <ele>1399.810</ele>
        <time>2022-02-26T15:50:50Z</time>
      </trkpt>
      <trkpt lat="40.612200" lon="-4.522010">
        <ele>1399.975</ele>
        <time>2022-02-26T15:51:30Z</time>
      </trkpt>
      <trkpt lat="40.612040" lon="-4.522230">
        <ele>1400.053</ele>
        <time>2022-02-26T15:52:10Z</time>
      </trkpt>
      <trkpt lat="40.612010" lon="-4.522260">
        <ele>1400.084</ele>
        <time>2022-02-26T15:52:50Z</time>
      </trkpt>
      <trkpt lat="40.611830" lon="-4.522510">
        <ele>1400.007</ele>
        <time>2022-02-26T15:53:30Z</time>
      </trkpt>
      <trkpt lat="40.611680" lon="-4.522710">
        <ele>1400.017</ele>
        <time>2022-02-26T15:54:10Z</time>
      </trkpt>
      <trkpt lat="40.611660" lon="-4.522740">
        <ele>1399.908</ele>
        <time>2022-02-26T15:54:50Z</time>
      </trkpt>
      <trkpt lat="40.611550" lon="-4.522890">
        <ele>1398.787</ele>
        <time>2022-02-26T15:55:30Z</time>
      </trkpt>
      <trkpt lat="40.611370" lon="-4.523130">
        <ele>1398.164</ele>
        <time>2022-02-26T15:56:10Z</time>
      </trkpt>
      <trkpt lat="40.611290" lon="-4.523250">
        <ele>1397.938</ele>
        <time>2022-02-26T15:56:50Z</time>
      </trkpt>
      <trkpt lat="40.611260" lon="-4.523290">
        <ele>1397.817</ele>
        <time>2022-02-26T15:57:30Z</time>
      </trkpt>
      <trkpt lat="40.611160" lon="-4.523450">
        <ele>1397.497</ele>
        <time>2022-02-26T15:58:10Z</time>
      </trkpt>
      <trkpt lat="40.611100" lon="-4.523570">
        <ele>1397.090</ele>
        <time>2022-02-26T15:58:50Z</time>
      </trkpt>
      <trkpt lat="40.611070" lon="-4.523630">
        <ele>1396.825</ele>
        <time>2022-02-26T15:59:30Z</time>
      </trkpt>
      <trkpt lat="40.611040" lon="-4.523710">
        <ele>1396.413</ele>
        <time>2022-02-26T16:00:10Z</time>
      </trkpt>
      <trkpt lat="40.610990" lon="-4.523840">
        <ele>1395.762</ele>
        <time>2022-02-26T16:00:50Z</time>
      </trkpt>
      <trkpt lat="40.610970" lon="-4.523890">
        <ele>1395.583</ele>
        <time>2022-02-26T16:01:30Z</time>
      </trkpt>
      <trkpt lat="40.610930" lon="-4.524000">
        <ele>1394.911</ele>
        <time>2022-02-26T16:02:10Z</time>
      </trkpt>
      <trkpt lat="40.610890" lon="-4.524150">
        <ele>1394.308</ele>
        <time>2022-02-26T16:02:50Z</time>
      </trkpt>
      <trkpt lat="40.610870" lon="-4.524280">
        <ele>1393.715</ele>
        <time>2022-02-26T16:03:30Z</time>
      </trkpt>
      <trkpt lat="40.610860" lon="-4.524280">
        <ele>1393.762</ele>
        <time>2022-02-26T16:04:10Z</time>
      </trkpt>
      <trkpt lat="40.610840" lon="-4.524400">
        <ele>1393.246</ele>
        <time>2022-02-26T16:04:50Z</time>
      </trkpt>
      <trkpt lat="40.610830" lon="-4.524510">
        <ele>1393.095</ele>
        <time>2022-02-26T16:05:30Z</time>
      </trkpt>
      <trkpt lat="40.610830" lon="-4.524530">
        <ele>1393.015</ele>
        <time>2022-02-26T16:06:10Z</time>
      </trkpt>
      <trkpt lat="40.610820" lon="-4.524650">
        <ele>1393.018</ele>
        <time>2022-02-26T16:06:50Z</time>
      </trkpt>
      <trkpt lat="40.610810" lon="-4.524750">
        <ele>1392.843</ele>
        <time>2022-02-26T16:07:30Z</time>
      </trkpt>
      <trkpt lat="40.610810" lon="-4.524810">
        <ele>1392.641</ele>
        <time>2022-02-26T16:08:10Z</time>
      </trkpt>
      <trkpt lat="40.610800" lon="-4.525110">
        <ele>1391.693</ele>
        <time>2022-02-26T16:08:50Z</time>
      </trkpt>
      <trkpt lat="40.610790" lon="-4.525440">
        <ele>1390.565</ele>
        <time>2022-02-26T16:09:30Z</time>
      </trkpt>
      <trkpt lat="40.610770" lon="-4.525900">
        <ele>1389.621</ele>
        <time>2022-02-26T16:10:10Z</time>
      </trkpt>
      <trkpt lat="40.610750" lon="-4.526410">
        <ele>1386.808</ele>
        <time>2022-02-26T16:10:50Z</time>
      </trkpt>
      <trkpt lat="40.610750" lon="-4.526450">
        <ele>1386.538</ele>
        <time>2022-02-26T16:11:30Z</time>
      </trkpt>
      <trkpt lat="40.610730" lon="-4.526900">
        <ele>1383.415</ele>
        <time>2022-02-26T16:12:10Z</time>
      </trkpt>
      <trkpt lat="40.610720" lon="-4.527300">
        <ele>1380.279</ele>
        <time>2022-02-26T16:12:50Z</time>
      </trkpt>
      <trkpt lat="40.610700" lon="-4.527640">
        <ele>1378.878</ele>
        <time>2022-02-26T16:13:30Z</time>
      </trkpt>
      <trkpt lat="40.610690" lon="-4.527820">
        <ele>1378.588</ele>
        <time>2022-02-26T16:14:10Z</time>
      </trkpt>
      <trkpt lat="40.610680" lon="-4.527860">
        <ele>1378.331</ele>
        <time>2022-02-26T16:14:50Z</time>
      </trkpt>
      <trkpt lat="40.610660" lon="-4.528060">
        <ele>1378.126</ele>
        <time>2022-02-26T16:15:30Z</time>
      </trkpt>
      <trkpt lat="40.610660" lon="-4.528080">
        <ele>1378.124</ele>
        <time>2022-02-26T16:16:10Z</time>
      </trkpt>
      <trkpt lat="40.610630" lon="-4.528290">
        <ele>1377.876</ele>
        <time>2022-02-26T16:16:50Z</time>
      </trkpt>
      <trkpt lat="40.610630" lon="-4.528320">
        <ele>1377.890</ele>
        <time>2022-02-26T16:17:30Z</time>
      </trkpt>
      <trkpt lat="40.610580" lon="-4.528630">
        <ele>1376.319</ele>
        <time>2022-02-26T16:18:10Z</time>
      </trkpt>
      <trkpt lat="40.610550" lon="-4.528760">
        <ele>1375.408</ele>
        <time>2022-02-26T16:18:50Z</time>
      </trkpt>
      <trkpt lat="40.610540" lon="-4.528820">
        <ele>1375.136</ele>
        <time>2022-02-26T16:19:30Z</time>
      </trkpt>
      <trkpt lat="40.610500" lon="-4.528980">
        <ele>1374.393</ele>
        <time>2022-02-26T16:20:10Z</time>
      </trkpt>
      <trkpt lat="40.610430" lon="-4.529290">
        <ele>1372.997</ele>
        <time>2022-02-26T16:20:50Z</time>
      </trkpt>
      <trkpt lat="40.610400" lon="-4.529440">
        <ele>1372.396</ele>
        <time>2022-02-26T16:21:30Z</time>
      </trkpt>
      <trkpt lat="40.610350" lon="-4.529660">
        <ele>1371.866</ele>
        <time>2022-02-26T16:22:10Z</time>
      </trkpt>
      <trkpt lat="40.610340" lon="-4.529660">
        <ele>1371.719</ele>
        <time>2022-02-26T16:22:50Z</time>
      </trkpt>
      <trkpt lat="40.610240" lon="-4.530110">
        <ele>1370.964</ele>
        <time>2022-02-26T16:23:30Z</time>
      </trkpt>
      <trkpt lat="40.610180" lon="-4.530340">
        <ele>1370.652</ele>
        <time>2022-02-26T16:24:10Z</time>
      </trkpt>
      <trkpt lat="40.610130" lon="-4.530570">
        <ele>1370.519</ele>
        <time>2022-02-26T16:24:50Z</time>
      </trkpt>
      <trkpt lat="40.610110" lon="-4.530650">
        <ele>1370.409</ele>
        <time>2022-02-26T16:25:30Z</time>
      </trkpt>
      <trkpt lat="40.609970" lon="-4.531250">
        <ele>1370.919</ele>
        <time>2022-02-26T16:26:10Z</time>
      </trkpt>
      <trkpt lat="40.609860" lon="-4.531760">
        <ele>1371.008</ele>
        <time>2022-02-26T16:26:50Z</time>
      </trkpt>
      <trkpt lat="40.609740" lon="-4.532270">
        <ele>1371.250</ele>
        <time>2022-02-26T16:27:30Z</time>
      </trkpt>
      <trkpt lat="40.609650" lon="-4.532660">
        <ele>1372.087</ele>
        <time>2022-02-26T16:28:10Z</time>
      </trkpt>
      <trkpt lat="40.609610" lon="-4.532840">
        <ele>1372.011</ele>
        <time>2022-02-26T16:28:50Z</time>
      </trkpt>
      <trkpt lat="40.609480" lon="-4.533430">
        <ele>1372.940</ele>
        <time>2022-02-26T16:29:30Z</time>
      </trkpt>
      <trkpt lat="40.609370" lon="-4.533880">
        <ele>1373.390</ele>
        <time>2022-02-26T16:30:10Z</time>
      </trkpt>
      <trkpt lat="40.609290" lon="-4.534190">
        <ele>1374.083</ele>
        <time>2022-02-26T16:30:50Z</time>
      </trkpt>
      <trkpt lat="40.609260" lon="-4.534320">
        <ele>1374.498</ele>
        <time>2022-02-26T16:31:30Z</time>
      </trkpt>
      <trkpt lat="40.609240" lon="-4.534430">
        <ele>1374.736</ele>
        <time>2022-02-26T16:32:10Z</time>
      </trkpt>
      <trkpt lat="40.609190" lon="-4.534650">
        <ele>1375.066</ele>
        <time>2022-02-26T16:32:50Z</time>
      </trkpt>
      <trkpt lat="40.609150" lon="-4.534770">
        <ele>1375.029</ele>
        <time>2022-02-26T16:33:30Z</time>
      </trkpt>
      <trkpt lat="40.609090" lon="-4.535010">
        <ele>1375.321</ele>
        <time>2022-02-26T16:34:10Z</time>
      </trkpt>
      <trkpt lat="40.609020" lon="-4.535250">
        <ele>1376.408</ele>
        <time>2022-02-26T16:34:50Z</time>
      </trkpt>
      <trkpt lat="40.608900" lon="-4.535600">
        <ele>1377.115</ele>
        <time>2022-02-26T16:35:30Z</time>
      </trkpt>
      <trkpt lat="40.608790" lon="-4.535970">
        <ele>1378.292</ele>
        <time>2022-02-26T16:36:10Z</time>
      </trkpt>
      <trkpt lat="40.608610" lon="-4.536490">
        <ele>1380.076</ele>
        <time>2022-02-26T16:36:50Z</time>
      </trkpt>
      <trkpt lat="40.608440" lon="-4.537000">
        <ele>1380.035</ele>
        <time>2022-02-26T16:37:30Z</time>
      </trkpt>
      <trkpt lat="40.608350" lon="-4.537270">
        <ele>1380.045</ele>
        <time>2022-02-26T16:38:10Z</time>
      </trkpt>
      <trkpt lat="40.608280" lon="-4.537480">
        <ele>1379.828</ele>
        <time>2022-02-26T16:38:50Z</time>
      </trkpt>
      <trkpt lat="40.608180" lon="-4.537770">
        <ele>1379.473</ele>
        <time>2022-02-26T16:39:30Z</time>
      </trkpt>
      <trkpt lat="40.608130" lon="-4.537920">
        <ele>1379.641</ele>
        <time>2022-02-26T16:40:10Z</time>
      </trkpt>
      <trkpt lat="40.608060" lon="-4.538130">
        <ele>1380.096</ele>
        <time>2022-02-26T16:40:50Z</time>
      </trkpt>
      <trkpt lat="40.608040" lon="-4.538180">
        <ele>1379.731</ele>
        <time>2022-02-26T16:41:30Z</time>
      </trkpt>
      <trkpt lat="40.607980" lon="-4.538350">
        <ele>1378.724</ele>
        <time>2022-02-26T16:42:10Z</time>
      </trkpt>
      <trkpt lat="40.607940" lon="-4.538480">
        <ele>1378.408</ele>
        <time>2022-02-26T16:42:50Z</time>
      </trkpt>
      <trkpt lat="40.607820" lon="-4.538840">
        <ele>1378.968</ele>
        <time>2022-02-26T16:43:30Z</time>
      </trkpt>
      <trkpt lat="40.607780" lon="-4.539000">
        <ele>1379.435</ele>
        <time>2022-02-26T16:44:10Z</time>
      </trkpt>
      <trkpt lat="40.607740" lon="-4.539120">
        <ele>1378.739</ele>
        <time>2022-02-26T16:44:50Z</time>
      </trkpt>
      <trkpt lat="40.607710" lon="-4.539230">
        <ele>1378.168</ele>
        <time>2022-02-26T16:45:30Z</time>
      </trkpt>
      <trkpt lat="40.607680" lon="-4.539370">
        <ele>1377.438</ele>
        <time>2022-02-26T16:46:10Z</time>
      </trkpt>
      <trkpt lat="40.607640" lon="-4.539560">
        <ele>1376.911</ele>
        <time>2022-02-26T16:46:50Z</time>
      </trkpt>
      <trkpt lat="40.607610" lon="-4.539680">
        <ele>1376.866</ele>
        <time>2022-02-26T16:47:30Z</time>
      </trkpt>
      <trkpt lat="40.607570" lon="-4.539900">
        <ele>1376.764</ele>
        <time>2022-02-26T16:48:10Z</time>
      </trkpt>
      <trkpt lat="40.607560" lon="-4.539910">
        <ele>1376.616</ele>
        <time>2022-02-26T16:48:50Z</time>
      </trkpt>
      <trkpt lat="40.607520" lon="-4.540120">
        <ele>1376.776</ele>
        <time>2022-02-26T16:49:30Z</time>
      </trkpt>
      <trkpt lat="40.607470" lon="-4.540380">
        <ele>1375.713</ele>
        <time>2022-02-26T16:50:10Z</time>
      </trkpt>
      <trkpt lat="40.607440" lon="-4.540560">
        <ele>1373.908</ele>
        <time>2022-02-26T16:50:50Z</time>
      </trkpt>
      <trkpt lat="40.607410" lon="-4.540760">
        <ele>1373.470</ele>
        <time>2022-02-26T16:51:30Z</time>
      </trkpt>
      <trkpt lat="40.607370" lon="-4.541050">
        <ele>1372.257</ele>
        <time>2022-02-26T16:52:10Z</time>
      </trkpt>
      <trkpt lat="40.607330" lon="-4.541390">
        <ele>1371.211</ele>
        <time>2022-02-26T16:52:50Z</time>
      </trkpt>
      <trkpt lat="40.607290" lon="-4.541770">
        <ele>1370.660</ele>
        <time>2022-02-26T16:53:30Z</time>
      </trkpt>
      <trkpt lat="40.607250" lon="-4.542110">
        <ele>1370.130</ele>
        <time>2022-02-26T16:54:10Z</time>
      </trkpt>
      <trkpt lat="40.607180" lon="-4.542740">
        <ele>1369.253</ele>
        <time>2022-02-26T16:54:50Z</time>
      </trkpt>
      <trkpt lat="40.607160" lon="-4.542940">
        <ele>1369.088</ele>
        <time>2022-02-26T16:55:30Z</time>
      </trkpt>
      <trkpt lat="40.607150" lon="-4.543030">
        <ele>1368.916</ele>
        <time>2022-02-26T16:56:10Z</time>
      </trkpt>
      <trkpt lat="40.607110" lon="-4.543380">
        <ele>1368.839</ele>
        <time>2022-02-26T16:56:50Z</time>
      </trkpt>
      <trkpt lat="40.607070" lon="-4.543780">
        <ele>1368.401</ele>
        <time>2022-02-26T16:57:30Z</time>
      </trkpt>
      <trkpt lat="40.607030" lon="-4.544110">
        <ele>1367.121</ele>
        <time>2022-02-26T16:58:10Z</time>
      </trkpt>
      <trkpt lat="40.607020" lon="-4.544170">
        <ele>1366.808</ele>
        <time>2022-02-26T16:58:50Z</time>
      </trkpt>
      <trkpt lat="40.606980" lon="-4.544580">
        <ele>1364.882</ele>
        <time>2022-02-26T16:59:30Z</time>
      </trkpt>
      <trkpt lat="40.606960" lon="-4.544710">
        <ele>1364.239</ele>
        <time>2022-02-26T17:00:10Z</time>
      </trkpt>
      <trkpt lat="40.606950" lon="-4.544810">
        <ele>1363.753</ele>
        <time>2022-02-26T17:00:50Z</time>
      </trkpt>
      <trkpt lat="40.606900" lon="-4.545280">
        <ele>1361.822</ele>
        <time>2022-02-26T17:01:30Z</time>
      </trkpt>
      <trkpt lat="40.606870" lon="-4.545560">
        <ele>1361.522</ele>
        <time>2022-02-26T17:02:10Z</time>
      </trkpt>
      <trkpt lat="40.606840" lon="-4.545790">
        <ele>1360.735</ele>
        <time>2022-02-26T17:02:50Z</time>
      </trkpt>
      <trkpt lat="40.606830" lon="-4.546050">
        <ele>1359.830</ele>
        <time>2022-02-26T17:03:30Z</time>
      </trkpt>
      <trkpt lat="40.606830" lon="-4.546280">
        <ele>1358.638</ele>
        <time>2022-02-26T17:04:10Z</time>
      </trkpt>
      <trkpt lat="40.606830" lon="-4.546500">
        <ele>1357.436</ele>
        <time>2022-02-26T17:04:50Z</time>
      </trkpt>
      <trkpt lat="40.606850" lon="-4.546680">
        <ele>1356.617</ele>
        <time>2022-02-26T17:05:30Z</time>
      </trkpt>
      <trkpt lat="40.606860" lon="-4.546810">
        <ele>1356.018</ele>
        <time>2022-02-26T17:06:10Z</time>
      </trkpt>
      <trkpt lat="40.606870" lon="-4.546930">
        <ele>1355.508</ele>
        <time>2022-02-26T17:06:50Z</time>
      </trkpt>
      <trkpt lat="40.606880" lon="-4.546970">
        <ele>1355.422</ele>
        <time>2022-02-26T17:07:30Z</time>
      </trkpt>
      <trkpt lat="40.606890" lon="-4.547080">
        <ele>1354.699</ele>
        <time>2022-02-26T17:08:10Z</time>
      </trkpt>
      <trkpt lat="40.606920" lon="-4.547260">
        <ele>1353.733</ele>
        <time>2022-02-26T17:08:50Z</time>
      </trkpt>
      <trkpt lat="40.606970" lon="-4.547510">
        <ele>1353.172</ele>
        <time>2022-02-26T17:09:30Z</time>
      </trkpt>
      <trkpt lat="40.607020" lon="-4.547710">
        <ele>1352.552</ele>
        <time>2022-02-26T17:10:10Z</time>
      </trkpt>
      <trkpt lat="40.607060" lon="-4.547840">
        <ele>1352.125</ele>
        <time>2022-02-26T17:10:50Z</time>
      </trkpt>
      <trkpt lat="40.607080" lon="-4.547890">
        <ele>1351.930</ele>
        <time>2022-02-26T17:11:30Z</time>
      </trkpt>
      <trkpt lat="40.607150" lon="-4.548090">
        <ele>1351.378</ele>
        <time>2022-02-26T17:12:10Z</time>
      </trkpt>
      <trkpt lat="40.607200" lon="-4.548240">
        <ele>1351.111</ele>
        <time>2022-02-26T17:12:50Z</time>
      </trkpt>
      <trkpt lat="40.607270" lon="-4.548400">
        <ele>1350.821</ele>
        <time>2022-02-26T17:13:30Z</time>
      </trkpt>
      <trkpt lat="40.607350" lon="-4.548570">
        <ele>1350.103</ele>
        <time>2022-02-26T17:14:10Z</time>
      </trkpt>
      <trkpt lat="40.607420" lon="-4.548700">
        <ele>1349.608</ele>
        <time>2022-02-26T17:14:50Z</time>
      </trkpt>
      <trkpt lat="40.607500" lon="-4.548850">
        <ele>1350.090</ele>
        <time>2022-02-26T17:15:30Z</time>
      </trkpt>
      <trkpt lat="40.607510" lon="-4.548870">
        <ele>1349.967</ele>
        <time>2022-02-26T17:16:10Z</time>
      </trkpt>
      <trkpt lat="40.607590" lon="-4.548990">
        <ele>1348.921</ele>
        <time>2022-02-26T17:16:50Z</time>
      </trkpt>
      <trkpt lat="40.607670" lon="-4.549110">
        <ele>1348.240</ele>
        <time>2022-02-26T17:17:30Z</time>
      </trkpt>
      <trkpt lat="40.607750" lon="-4.549220">
        <ele>1348.080</ele>
        <time>2022-02-26T17:18:10Z</time>
      </trkpt>
      <trkpt lat="40.607760" lon="-4.549240">
        <ele>1348.033</ele>
        <time>2022-02-26T17:18:50Z</time>
      </trkpt>
      <trkpt lat="40.607850" lon="-4.549360">
        <ele>1347.538</ele>
        <time>2022-02-26T17:19:30Z</time>
      </trkpt>
      <trkpt lat="40.607870" lon="-4.549390">
        <ele>1347.326</ele>
        <time>2022-02-26T17:20:10Z</time>
      </trkpt>
      <trkpt lat="40.607940" lon="-4.549470">
        <ele>1346.862</ele>
        <time>2022-02-26T17:20:50Z</time>
      </trkpt>
      <trkpt lat="40.608020" lon="-4.549560">
        <ele>1346.383</ele>
        <time>2022-02-26T17:21:30Z</time>
      </trkpt>
      <trkpt lat="40.608130" lon="-4.549680">
        <ele>1345.711</ele>
        <time>2022-02-26T17:22:10Z</time>
      </trkpt>
      <trkpt lat="40.608260" lon="-4.549820">
        <ele>1346.008</ele>
        <time>2022-02-26T17:22:50Z</time>
      </trkpt>
      <trkpt lat="40.608430" lon="-4.549990">
        <ele>1346.295</ele>
        <time>2022-02-26T17:23:30Z</time>
      </trkpt>
      <trkpt lat="40.608440" lon="-4.550000">
        <ele>1346.212</ele>
        <time>2022-02-26T17:24:10Z</time>
      </trkpt>
      <trkpt lat="40.608630" lon="-4.550190">
        <ele>1346.396</ele>
        <time>2022-02-26T17:24:50Z</time>
      </trkpt>
      <trkpt lat="40.608910" lon="-4.550480">
        <ele>1348.195</ele>
        <time>2022-02-26T17:25:30Z</time>
      </trkpt>
      <trkpt lat="40.609140" lon="-4.550720">
        <ele>1349.385</ele>
        <time>2022-02-26T17:26:10Z</time>
      </trkpt>
      <trkpt lat="40.609190" lon="-4.550780">
        <ele>1349.618</ele>
        <time>2022-02-26T17:26:50Z</time>
      </trkpt>
      <trkpt lat="40.609300" lon="-4.550900">
        <ele>1350.143</ele>
        <time>2022-02-26T17:27:30Z</time>
      </trkpt>
      <trkpt lat="40.609350" lon="-4.550960">
        <ele>1350.291</ele>
        <time>2022-02-26T17:28:10Z</time>
      </trkpt>
      <trkpt lat="40.609400" lon="-4.551030">
        <ele>1350.118</ele>
        <time>2022-02-26T17:28:50Z</time>
      </trkpt>
      <trkpt lat="40.609440" lon="-4.551090">
        <ele>1350.098</ele>
        <time>2022-02-26T17:29:30Z</time>
      </trkpt>
      <trkpt lat="40.609490" lon="-4.551170">
        <ele>1350.017</ele>
        <time>2022-02-26T17:30:10Z</time>
      </trkpt>
      <trkpt lat="40.609570" lon="-4.551290">
        <ele>1350.008</ele>
        <time>2022-02-26T17:30:50Z</time>
      </trkpt>
      <trkpt lat="40.609630" lon="-4.551400">
        <ele>1350.070</ele>
        <time>2022-02-26T17:31:30Z</time>
      </trkpt>
      <trkpt lat="40.609680" lon="-4.551490">
        <ele>1350.077</ele>
        <time>2022-02-26T17:32:10Z</time>
      </trkpt>
      <trkpt lat="40.609710" lon="-4.551560">
        <ele>1350.041</ele>
        <time>2022-02-26T17:32:50Z</time>
      </trkpt>
      <trkpt lat="40.609750" lon="-4.551650">
        <ele>1350.070</ele>
        <time>2022-02-26T17:33:30Z</time>
      </trkpt>
      <trkpt lat="40.609780" lon="-4.551720">
        <ele>1350.080</ele>
        <time>2022-02-26T17:34:10Z</time>
      </trkpt>
      <trkpt lat="40.609820" lon="-4.551810">
        <ele>1350.073</ele>
        <time>2022-02-26T17:34:50Z</time>
      </trkpt>
      <trkpt lat="40.609850" lon="-4.551910">
        <ele>1350.048</ele>
        <time>2022-02-26T17:35:30Z</time>
      </trkpt>
      <trkpt lat="40.609890" lon="-4.552020">
        <ele>1350.036</ele>
        <time>2022-02-26T17:36:10Z</time>
      </trkpt>
      <trkpt lat="40.609920" lon="-4.552140">
        <ele>1350.096</ele>
        <time>2022-02-26T17:36:50Z</time>
      </trkpt>
      <trkpt lat="40.609950" lon="-4.552250">
        <ele>1350.031</ele>
        <time>2022-02-26T17:37:30Z</time>
      </trkpt>
      <trkpt lat="40.609950" lon="-4.552260">
        <ele>1350.024</ele>
        <time>2022-02-26T17:38:10Z</time>
      </trkpt>
      <trkpt lat="40.609980" lon="-4.552400">
        <ele>1350.008</ele>
        <time>2022-02-26T17:38:50Z</time>
      </trkpt>
      <trkpt lat="40.610010" lon="-4.552540">
        <ele>1350.068</ele>
        <time>2022-02-26T17:39:30Z</time>
      </trkpt>
      <trkpt lat="40.610020" lon="-4.552640">
        <ele>1350.085</ele>
        <time>2022-02-26T17:40:10Z</time>
      </trkpt>
      <trkpt lat="40.610030" lon="-4.552710">
        <ele>1350.039</ele>
        <time>2022-02-26T17:40:50Z</time>
      </trkpt>
      <trkpt lat="40.610040" lon="-4.552800">
        <ele>1350.038</ele>
        <time>2022-02-26T17:41:30Z</time>
      </trkpt>
      <trkpt lat="40.610050" lon="-4.552900">
        <ele>1350.018</ele>
        <time>2022-02-26T17:42:10Z</time>
      </trkpt>
      <trkpt lat="40.610060" lon="-4.553050">
        <ele>1350.021</ele>
        <time>2022-02-26T17:42:50Z</time>
      </trkpt>
      <trkpt lat="40.610060" lon="-4.553180">
        <ele>1349.686</ele>
        <time>2022-02-26T17:43:30Z</time>
      </trkpt>
      <trkpt lat="40.610060" lon="-4.553250">
        <ele>1349.394</ele>
        <time>2022-02-26T17:44:10Z</time>
      </trkpt>
      <trkpt lat="40.610060" lon="-4.553570">
        <ele>1347.624</ele>
        <time>2022-02-26T17:44:50Z</time>
      </trkpt>
      <trkpt lat="40.610060" lon="-4.553660">
        <ele>1346.904</ele>
        <time>2022-02-26T17:45:30Z</time>
      </trkpt>
      <trkpt lat="40.610050" lon="-4.553940">
        <ele>1344.714</ele>
        <time>2022-02-26T17:46:10Z</time>
      </trkpt>
      <trkpt lat="40.610040" lon="-4.554130">
        <ele>1343.508</ele>
        <time>2022-02-26T17:46:50Z</time>
      </trkpt>
      <trkpt lat="40.610030" lon="-4.554530">
        <ele>1342.091</ele>
        <time>2022-02-26T17:47:30Z</time>
      </trkpt>
      <trkpt lat="40.609990" lon="-4.555260">
        <ele>1340.188</ele>
        <time>2022-02-26T17:48:10Z</time>
      </trkpt>
      <trkpt lat="40.609980" lon="-4.555530">
        <ele>1340.212</ele>
        <time>2022-02-26T17:48:50Z</time>
      </trkpt>
      <trkpt lat="40.609980" lon="-4.555570">
        <ele>1340.091</ele>
        <time>2022-02-26T17:49:30Z</time>
      </trkpt>
      <trkpt lat="40.609980" lon="-4.555870">
        <ele>1338.111</ele>
        <time>2022-02-26T17:50:10Z</time>
      </trkpt>
      <trkpt lat="40.609970" lon="-4.556470">
        <ele>1335.174</ele>
        <time>2022-02-26T17:50:50Z</time>
      </trkpt>
      <trkpt lat="40.609950" lon="-4.556870">
        <ele>1333.359</ele>
        <time>2022-02-26T17:51:30Z</time>
      </trkpt>
      <trkpt lat="40.609930" lon="-4.557180">
        <ele>1331.947</ele>
        <time>2022-02-26T17:52:10Z</time>
      </trkpt>
      <trkpt lat="40.609900" lon="-4.557870">
        <ele>1329.291</ele>
        <time>2022-02-26T17:52:50Z</time>
      </trkpt>
      <trkpt lat="40.609890" lon="-4.558120">
        <ele>1327.881</ele>
        <time>2022-02-26T17:53:30Z</time>
      </trkpt>
      <trkpt lat="40.609870" lon="-4.558360">
        <ele>1326.319</ele>
        <time>2022-02-26T17:54:10Z</time>
      </trkpt>
      <trkpt lat="40.609870" lon="-4.558430">
        <ele>1325.808</ele>
        <time>2022-02-26T17:54:50Z</time>
      </trkpt>
      <trkpt lat="40.609850" lon="-4.558830">
        <ele>1323.068</ele>
        <time>2022-02-26T17:55:30Z</time>
      </trkpt>
      <trkpt lat="40.609840" lon="-4.559070">
        <ele>1321.345</ele>
        <time>2022-02-26T17:56:10Z</time>
      </trkpt>
      <trkpt lat="40.609840" lon="-4.559090">
        <ele>1321.159</ele>
        <time>2022-02-26T17:56:50Z</time>
      </trkpt>
      <trkpt lat="40.609840" lon="-4.559310">
        <ele>1320.388</ele>
        <time>2022-02-26T17:57:30Z</time>
      </trkpt>
      <trkpt lat="40.609830" lon="-4.559540">
        <ele>1320.038</ele>
        <time>2022-02-26T17:58:10Z</time>
      </trkpt>
      <trkpt lat="40.609820" lon="-4.559640">
        <ele>1320.031</ele>
        <time>2022-02-26T17:58:50Z</time>
      </trkpt>
      <trkpt lat="40.609820" lon="-4.559780">
        <ele>1320.476</ele>
        <time>2022-02-26T17:59:30Z</time>
      </trkpt>
      <trkpt lat="40.609810" lon="-4.560020">
        <ele>1322.284</ele>
        <time>2022-02-26T18:00:10Z</time>
      </trkpt>
      <trkpt lat="40.609810" lon="-4.560130">
        <ele>1323.464</ele>
        <time>2022-02-26T18:00:50Z</time>
      </trkpt>
      <trkpt lat="40.609800" lon="-4.560250">
        <ele>1324.706</ele>
        <time>2022-02-26T18:01:30Z</time>
      </trkpt>
      <trkpt lat="40.609800" lon="-4.560490">
        <ele>1326.516</ele>
        <time>2022-02-26T18:02:10Z</time>
      </trkpt>
      <trkpt lat="40.609790" lon="-4.560730">
        <ele>1328.908</ele>
        <time>2022-02-26T18:02:50Z</time>
      </trkpt>
      <trkpt lat="40.609770" lon="-4.561140">
        <ele>1331.335</ele>
        <time>2022-02-26T18:03:30Z</time>
      </trkpt>
      <trkpt lat="40.609770" lon="-4.561200">
        <ele>1331.562</ele>
        <time>2022-02-26T18:04:10Z</time>
      </trkpt>
      <trkpt lat="40.609760" lon="-4.561440">
        <ele>1332.556</ele>
        <time>2022-02-26T18:04:50Z</time>
      </trkpt>
      <trkpt lat="40.609750" lon="-4.561670">
        <ele>1334.155</ele>
        <time>2022-02-26T18:05:30Z</time>
      </trkpt>
      <trkpt lat="40.609750" lon="-4.561700">
        <ele>1334.335</ele>
        <time>2022-02-26T18:06:10Z</time>
      </trkpt>
      <trkpt lat="40.609750" lon="-4.561910">
        <ele>1335.978</ele>
        <time>2022-02-26T18:06:50Z</time>
      </trkpt>
      <trkpt lat="40.609740" lon="-4.562120">
        <ele>1335.483</ele>
        <time>2022-02-26T18:07:30Z</time>
      </trkpt>
      <trkpt lat="40.609730" lon="-4.562380">
        <ele>1335.041</ele>
        <time>2022-02-26T18:08:10Z</time>
      </trkpt>
      <trkpt lat="40.609730" lon="-4.562610">
        <ele>1334.685</ele>
        <time>2022-02-26T18:08:50Z</time>
      </trkpt>
      <trkpt lat="40.609710" lon="-4.562900">
        <ele>1333.689</ele>
        <time>2022-02-26T18:09:30Z</time>
      </trkpt>
      <trkpt lat="40.609710" lon="-4.562990">
        <ele>1333.317</ele>
        <time>2022-02-26T18:10:10Z</time>
      </trkpt>
      <trkpt lat="40.609700" lon="-4.563230">
        <ele>1333.108</ele>
        <time>2022-02-26T18:10:50Z</time>
      </trkpt>
      <trkpt lat="40.609690" lon="-4.563640">
        <ele>1332.087</ele>
        <time>2022-02-26T18:11:30Z</time>
      </trkpt>
      <trkpt lat="40.609680" lon="-4.563700">
        <ele>1331.834</ele>
        <time>2022-02-26T18:12:10Z</time>
      </trkpt>
      <trkpt lat="40.609660" lon="-4.564110">
        <ele>1330.428</ele>
        <time>2022-02-26T18:12:50Z</time>
      </trkpt>
      <trkpt lat="40.609650" lon="-4.564410">
        <ele>1329.647</ele>
        <time>2022-02-26T18:13:30Z</time>
      </trkpt>
      <trkpt lat="40.609640" lon="-4.564690">
        <ele>1328.717</ele>
        <time>2022-02-26T18:14:10Z</time>
      </trkpt>
      <trkpt lat="40.609620" lon="-4.565120">
        <ele>1326.790</ele>
        <time>2022-02-26T18:14:50Z</time>
      </trkpt>
      <trkpt lat="40.609620" lon="-4.565250">
        <ele>1326.285</ele>
        <time>2022-02-26T18:15:30Z</time>
      </trkpt>
      <trkpt lat="40.609620" lon="-4.565470">
        <ele>1325.213</ele>
        <time>2022-02-26T18:16:10Z</time>
      </trkpt>
      <trkpt lat="40.609600" lon="-4.565740">
        <ele>1324.232</ele>
        <time>2022-02-26T18:16:50Z</time>
      </trkpt>
      <trkpt lat="40.609600" lon="-4.565960">
        <ele>1323.292</ele>
        <time>2022-02-26T18:17:30Z</time>
      </trkpt>
      <trkpt lat="40.609610" lon="-4.566220">
        <ele>1321.711</ele>
        <time>2022-02-26T18:18:10Z</time>
      </trkpt>
      <trkpt lat="40.609610" lon="-4.566400">
        <ele>1320.808</ele>
        <time>2022-02-26T18:18:50Z</time>
      </trkpt>
      <trkpt lat="40.609620" lon="-4.566540">
        <ele>1320.262</ele>
        <time>2022-02-26T18:19:30Z</time>
      </trkpt>
      <trkpt lat="40.609620" lon="-4.566580">
        <ele>1320.019</ele>
        <time>2022-02-26T18:20:10Z</time>
      </trkpt>
      <trkpt lat="40.609630" lon="-4.566780">
        <ele>1319.593</ele>
        <time>2022-02-26T18:20:50Z</time>
      </trkpt>
      <trkpt lat="40.609630" lon="-4.566840">
        <ele>1319.542</ele>
        <time>2022-02-26T18:21:30Z</time>
      </trkpt>
      <trkpt lat="40.609650" lon="-4.567100">
        <ele>1319.132</ele>
        <time>2022-02-26T18:22:10Z</time>
      </trkpt>
      <trkpt lat="40.609670" lon="-4.567350">
        <ele>1318.925</ele>
        <time>2022-02-26T18:22:50Z</time>
      </trkpt>
      <trkpt lat="40.609690" lon="-4.567480">
        <ele>1318.920</ele>
        <time>2022-02-26T18:23:30Z</time>
      </trkpt>
      <trkpt lat="40.609700" lon="-4.567580">
        <ele>1318.958</ele>
        <time>2022-02-26T18:24:10Z</time>
      </trkpt>
      <trkpt lat="40.609720" lon="-4.567740">
        <ele>1319.037</ele>
        <time>2022-02-26T18:24:50Z</time>
      </trkpt>
      <trkpt lat="40.609750" lon="-4.568020">
        <ele>1319.049</ele>
        <time>2022-02-26T18:25:30Z</time>
      </trkpt>
      <trkpt lat="40.609780" lon="-4.568190">
        <ele>1319.013</ele>
        <time>2022-02-26T18:26:10Z</time>
      </trkpt>
      <trkpt lat="40.609790" lon="-4.568240">
        <ele>1319.008</ele>
        <time>2022-02-26T18:26:50Z</time>
      </trkpt>
      <trkpt lat="40.609830" lon="-4.568490">
        <ele>1319.062</ele>
        <time>2022-02-26T18:27:30Z</time>
      </trkpt>
      <trkpt lat="40.609880" lon="-4.568740">
        <ele>1319.039</ele>
        <time>2022-02-26T18:28:10Z</time>
      </trkpt>
      <trkpt lat="40.609910" lon="-4.568890">
        <ele>1319.013</ele>
        <time>2022-02-26T18:28:50Z</time>
      </trkpt>
      <trkpt lat="40.609940" lon="-4.569000">
        <ele>1319.172</ele>
        <time>2022-02-26T18:29:30Z</time>
      </trkpt>
      <trkpt lat="40.609960" lon="-4.569120">
        <ele>1319.172</ele>
        <time>2022-02-26T18:30:10Z</time>
      </trkpt>
      <trkpt lat="40.610030" lon="-4.569450">
        <ele>1319.795</ele>
        <time>2022-02-26T18:30:50Z</time>
      </trkpt>
      <trkpt lat="40.610080" lon="-4.569690">
        <ele>1319.460</ele>
        <time>2022-02-26T18:31:30Z</time>
      </trkpt>
      <trkpt lat="40.610120" lon="-4.569860">
        <ele>1319.648</ele>
        <time>2022-02-26T18:32:10Z</time>
      </trkpt>
      <trkpt lat="40.610220" lon="-4.570290">
        <ele>1320.529</ele>
        <time>2022-02-26T18:32:50Z</time>
      </trkpt>
      <trkpt lat="40.610230" lon="-4.570370">
        <ele>1320.700</ele>
        <time>2022-02-26T18:33:30Z</time>
      </trkpt>
      <trkpt lat="40.610270" lon="-4.570530">
        <ele>1321.020</ele>
        <time>2022-02-26T18:34:10Z</time>
      </trkpt>
      <trkpt lat="40.610280" lon="-4.570600">
        <ele>1321.108</ele>
        <time>2022-02-26T18:34:50Z</time>
      </trkpt>
      <trkpt lat="40.610380" lon="-4.571060">
        <ele>1322.121</ele>
        <time>2022-02-26T18:35:30Z</time>
      </trkpt>
      <trkpt lat="40.610430" lon="-4.571240">
        <ele>1322.438</ele>
        <time>2022-02-26T18:36:10Z</time>
      </trkpt>
      <trkpt lat="40.610490" lon="-4.571520">
        <ele>1323.482</ele>
        <time>2022-02-26T18:36:50Z</time>
      </trkpt>
      <trkpt lat="40.610570" lon="-4.571920">
        <ele>1324.821</ele>
        <time>2022-02-26T18:37:30Z</time>
      </trkpt>
      <trkpt lat="40.610630" lon="-4.572190">
        <ele>1325.651</ele>
        <time>2022-02-26T18:38:10Z</time>
      </trkpt>
      <trkpt lat="40.610660" lon="-4.572330">
        <ele>1326.014</ele>
        <time>2022-02-26T18:38:50Z</time>
      </trkpt>
      <trkpt lat="40.610680" lon="-4.572420">
        <ele>1326.399</ele>
        <time>2022-02-26T18:39:30Z</time>
      </trkpt>
      <trkpt lat="40.610720" lon="-4.572590">
        <ele>1326.987</ele>
        <time>2022-02-26T18:40:10Z</time>
      </trkpt>
      <trkpt lat="40.610730" lon="-4.572650">
        <ele>1327.192</ele>
        <time>2022-02-26T18:40:50Z</time>
      </trkpt>
      <trkpt lat="40.610790" lon="-4.572910">
        <ele>1327.873</ele>
        <time>2022-02-26T18:41:30Z</time>
      </trkpt>
      <trkpt lat="40.610830" lon="-4.573140">
        <ele>1328.320</ele>
        <time>2022-02-26T18:42:10Z</time>
      </trkpt>
      <trkpt lat="40.610880" lon="-4.573350">
        <ele>1329.108</ele>
        <time>2022-02-26T18:42:50Z</time>
      </trkpt>
      <trkpt lat="40.611020" lon="-4.574010">
        <ele>1332.688</ele>
        <time>2022-02-26T18:43:30Z</time>
      </trkpt>
      <trkpt lat="40.611030" lon="-4.574080">
        <ele>1332.995</ele>
        <time>2022-02-26T18:44:10Z</time>
      </trkpt>
      <trkpt lat="40.611070" lon="-4.574240">
        <ele>1333.789</ele>
        <time>2022-02-26T18:44:50Z</time>
      </trkpt>
      <trkpt lat="40.611210" lon="-4.574890">
        <ele>1336.568</ele>
        <time>2022-02-26T18:45:30Z</time>
      </trkpt>
      <trkpt lat="40.611320" lon="-4.575430">
        <ele>1337.588</ele>
        <time>2022-02-26T18:46:10Z</time>
      </trkpt>
      <trkpt lat="40.611360" lon="-4.575610">
        <ele>1337.621</ele>
        <time>2022-02-26T18:46:50Z</time>
      </trkpt>
      <trkpt lat="40.611440" lon="-4.576000">
        <ele>1338.916</ele>
        <time>2022-02-26T18:47:30Z</time>
      </trkpt>
      <trkpt lat="40.611470" lon="-4.576170">
        <ele>1339.444</ele>
        <time>2022-02-26T18:48:10Z</time>
      </trkpt>
      <trkpt lat="40.611500" lon="-4.576300">
        <ele>1339.837</ele>
        <time>2022-02-26T18:48:50Z</time>
      </trkpt>
      <trkpt lat="40.611510" lon="-4.576360">
        <ele>1339.949</ele>
        <time>2022-02-26T18:49:30Z</time>
      </trkpt>
      <trkpt lat="40.611540" lon="-4.576530">
        <ele>1339.713</ele>
        <time>2022-02-26T18:50:10Z</time>
      </trkpt>
      <trkpt lat="40.611540" lon="-4.576570">
        <ele>1339.608</ele>
        <time>2022-02-26T18:50:50Z</time>
      </trkpt>
      <trkpt lat="40.611570" lon="-4.576760">
        <ele>1339.172</ele>
        <time>2022-02-26T18:51:30Z</time>
      </trkpt>
      <trkpt lat="40.611580" lon="-4.576820">
        <ele>1338.949</ele>
        <time>2022-02-26T18:52:10Z</time>
      </trkpt>
      <trkpt lat="40.611620" lon="-4.577110">
        <ele>1337.943</ele>
        <time>2022-02-26T18:52:50Z</time>
      </trkpt>
      <trkpt lat="40.611670" lon="-4.577460">
        <ele>1336.292</ele>
        <time>2022-02-26T18:53:30Z</time>
      </trkpt>
      <trkpt lat="40.611670" lon="-4.577480">
        <ele>1336.192</ele>
        <time>2022-02-26T18:54:10Z</time>
      </trkpt>
      <trkpt lat="40.611690" lon="-4.577600">
        <ele>1335.815</ele>
        <time>2022-02-26T18:54:50Z</time>
      </trkpt>
      <trkpt lat="40.611710" lon="-4.577770">
        <ele>1335.290</ele>
        <time>2022-02-26T18:55:30Z</time>
      </trkpt>
      <trkpt lat="40.611720" lon="-4.577930">
        <ele>1334.628</ele>
        <time>2022-02-26T18:56:10Z</time>
      </trkpt>
      <trkpt lat="40.611750" lon="-4.578160">
        <ele>1333.845</ele>
        <time>2022-02-26T18:56:50Z</time>
      </trkpt>
      <trkpt lat="40.611750" lon="-4.578170">
        <ele>1333.847</ele>
        <time>2022-02-26T18:57:30Z</time>
      </trkpt>
      <trkpt lat="40.611770" lon="-4.578400">
        <ele>1332.711</ele>
        <time>2022-02-26T18:58:10Z</time>
      </trkpt>
      <trkpt lat="40.611790" lon="-4.578530">
        <ele>1332.008</ele>
        <time>2022-02-26T18:58:50Z</time>
      </trkpt>
      <trkpt lat="40.611820" lon="-4.578820">
        <ele>1330.383</ele>
        <time>2022-02-26T18:59:30Z</time>
      </trkpt>
      <trkpt lat="40.611860" lon="-4.579190">
        <ele>1328.510</ele>
        <time>2022-02-26T19:00:10Z</time>
      </trkpt>
      <trkpt lat="40.611870" lon="-4.579340">
        <ele>1327.934</ele>
        <time>2022-02-26T19:00:50Z</time>
      </trkpt>
      <trkpt lat="40.611890" lon="-4.579470">
        <ele>1327.313</ele>
        <time>2022-02-26T19:01:30Z</time>
      </trkpt>
      <trkpt lat="40.611970" lon="-4.580280">
        <ele>1324.153</ele>
        <time>2022-02-26T19:02:10Z</time>
      </trkpt>
      <trkpt lat="40.611980" lon="-4.580320">
        <ele>1324.066</ele>
        <time>2022-02-26T19:02:50Z</time>
      </trkpt>
      <trkpt lat="40.612020" lon="-4.580770">
        <ele>1322.341</ele>
        <time>2022-02-26T19:03:30Z</time>
      </trkpt>
      <trkpt lat="40.612060" lon="-4.581110">
        <ele>1321.079</ele>
        <time>2022-02-26T19:04:10Z</time>
      </trkpt>
      <trkpt lat="40.612070" lon="-4.581230">
        <ele>1320.472</ele>
        <time>2022-02-26T19:04:50Z</time>
      </trkpt>
      <trkpt lat="40.612090" lon="-4.581400">
        <ele>1319.513</ele>
        <time>2022-02-26T19:05:30Z</time>
      </trkpt>
      <trkpt lat="40.612110" lon="-4.581510">
        <ele>1319.214</ele>
        <time>2022-02-26T19:06:10Z</time>
      </trkpt>
      <trkpt lat="40.612120" lon="-4.581580">
        <ele>1319.108</ele>
        <time>2022-02-26T19:06:50Z</time>
      </trkpt>
      <trkpt lat="40.612140" lon="-4.581670">
        <ele>1319.036</ele>
        <time>2022-02-26T19:07:30Z</time>
      </trkpt>
      <trkpt lat="40.612150" lon="-4.581740">
        <ele>1318.843</ele>
        <time>2022-02-26T19:08:10Z</time>
      </trkpt>
      <trkpt lat="40.612170" lon="-4.581820">
        <ele>1318.647</ele>
        <time>2022-02-26T19:08:50Z</time>
      </trkpt>
      <trkpt lat="40.612190" lon="-4.581880">
        <ele>1318.316</ele>
        <time>2022-02-26T19:09:30Z</time>
      </trkpt>
      <trkpt lat="40.612220" lon="-4.581960">
        <ele>1318.076</ele>
        <time>2022-02-26T19:10:10Z</time>
      </trkpt>
      <trkpt lat="40.612260" lon="-4.582080">
        <ele>1318.439</ele>
        <time>2022-02-26T19:10:50Z</time>
      </trkpt>
      <trkpt lat="40.612270" lon="-4.582120">
        <ele>1318.554</ele>
        <time>2022-02-26T19:11:30Z</time>
      </trkpt>
      <trkpt lat="40.612310" lon="-4.582220">
        <ele>1318.632</ele>
        <time>2022-02-26T19:12:10Z</time>
      </trkpt>
      <trkpt lat="40.612380" lon="-4.582380">
        <ele>1318.299</ele>
        <time>2022-02-26T19:12:50Z</time>
      </trkpt>
      <trkpt lat="40.612410" lon="-4.582450">
        <ele>1318.007</ele>
        <time>2022-02-26T19:13:30Z</time>
      </trkpt>
      <trkpt lat="40.612450" lon="-4.582520">
        <ele>1317.727</ele>
        <time>2022-02-26T19:14:10Z</time>
      </trkpt>
      <trkpt lat="40.612500" lon="-4.582600">
        <ele>1317.608</ele>
        <time>2022-02-26T19:14:50Z</time>
      </trkpt>
      <trkpt lat="40.612550" lon="-4.582690">
        <ele>1317.698</ele>
        <time>2022-02-26T19:15:30Z</time>
      </trkpt>
      <trkpt lat="40.612610" lon="-4.582770">
        <ele>1317.445</ele>
        <time>2022-02-26T19:16:10Z</time>
      </trkpt>
      <trkpt lat="40.612680" lon="-4.582860">
        <ele>1317.279</ele>
        <time>2022-02-26T19:16:50Z</time>
      </trkpt>
      <trkpt lat="40.612700" lon="-4.582880">
        <ele>1317.128</ele>
        <time>2022-02-26T19:17:30Z</time>
      </trkpt>
      <trkpt lat="40.612760" lon="-4.582940">
        <ele>1316.858</ele>
        <time>2022-02-26T19:18:10Z</time>
      </trkpt>
      <trkpt lat="40.612840" lon="-4.583030">
        <ele>1316.481</ele>
        <time>2022-02-26T19:18:50Z</time>
      </trkpt>
      <trkpt lat="40.612910" lon="-4.583110">
        <ele>1315.976</ele>
        <time>2022-02-26T19:19:30Z</time>
      </trkpt>
      <trkpt lat="40.613050" lon="-4.583270">
        <ele>1314.744</ele>
        <time>2022-02-26T19:20:10Z</time>
      </trkpt>
      <trkpt lat="40.613280" lon="-4.583510">
        <ele>1312.088</ele>
        <time>2022-02-26T19:20:50Z</time>
      </trkpt>
      <trkpt lat="40.613410" lon="-4.583640">
        <ele>1310.624</ele>
        <time>2022-02-26T19:21:30Z</time>
      </trkpt>
      <trkpt lat="40.613500" lon="-4.583740">
        <ele>1309.926</ele>
        <time>2022-02-26T19:22:10Z</time>
      </trkpt>
      <trkpt lat="40.613640" lon="-4.583890">
        <ele>1308.608</ele>
        <time>2022-02-26T19:22:50Z</time>
      </trkpt>
      <trkpt lat="40.613730" lon="-4.583990">
        <ele>1307.447</ele>
        <time>2022-02-26T19:23:30Z</time>
      </trkpt>
      <trkpt lat="40.613820" lon="-4.584090">
        <ele>1306.554</ele>
        <time>2022-02-26T19:24:10Z</time>
      </trkpt>
      <trkpt lat="40.613900" lon="-4.584180">
        <ele>1305.928</ele>
        <time>2022-02-26T19:24:50Z</time>
      </trkpt>
      <trkpt lat="40.613950" lon="-4.584240">
        <ele>1305.497</ele>
        <time>2022-02-26T19:25:30Z</time>
      </trkpt>
      <trkpt lat="40.614030" lon="-4.584350">
        <ele>1304.877</ele>
        <time>2022-02-26T19:26:10Z</time>
      </trkpt>
      <trkpt lat="40.614070" lon="-4.584410">
        <ele>1304.520</ele>
        <time>2022-02-26T19:26:50Z</time>
      </trkpt>
      <trkpt lat="40.614110" lon="-4.584470">
        <ele>1304.185</ele>
        <time>2022-02-26T19:27:30Z</time>
      </trkpt>
      <trkpt lat="40.614150" lon="-4.584530">
        <ele>1303.643</ele>
        <time>2022-02-26T19:28:10Z</time>
      </trkpt>
      <trkpt lat="40.614180" lon="-4.584600">
        <ele>1303.449</ele>
        <time>2022-02-26T19:28:50Z</time>
      </trkpt>
      <trkpt lat="40.614220" lon="-4.584670">
        <ele>1303.002</ele>
        <time>2022-02-26T19:29:30Z</time>
      </trkpt>
      <trkpt lat="40.614260" lon="-4.584760">
        <ele>1302.822</ele>
        <time>2022-02-26T19:30:10Z</time>
      </trkpt>
      <trkpt lat="40.614280" lon="-4.584790">
        <ele>1302.608</ele>
        <time>2022-02-26T19:30:50Z</time>
      </trkpt>
      <trkpt lat="40.614310" lon="-4.584860">
        <ele>1302.443</ele>
        <time>2022-02-26T19:31:30Z</time>
      </trkpt>
      <trkpt lat="40.614370" lon="-4.585010">
        <ele>1302.170</ele>
        <time>2022-02-26T19:32:10Z</time>
      </trkpt>
      <trkpt lat="40.614430" lon="-4.585190">
        <ele>1301.254</ele>
        <time>2022-02-26T19:32:50Z</time>
      </trkpt>
      <trkpt lat="40.614440" lon="-4.585220">
        <ele>1301.123</ele>
        <time>2022-02-26T19:33:30Z</time>
      </trkpt>
      <trkpt lat="40.614450" lon="-4.585270">
        <ele>1301.093</ele>
        <time>2022-02-26T19:34:10Z</time>
      </trkpt>
      <trkpt lat="40.614480" lon="-4.585380">
        <ele>1300.916</ele>
        <time>2022-02-26T19:34:50Z</time>
      </trkpt>
      <trkpt lat="40.614500" lon="-4.585450">
        <ele>1300.821</ele>
        <time>2022-02-26T19:35:30Z</time>
      </trkpt>
      <trkpt lat="40.614520" lon="-4.585520">
        <ele>1300.749</ele>
        <time>2022-02-26T19:36:10Z</time>
      </trkpt>
      <trkpt lat="40.614540" lon="-4.585620">
        <ele>1300.642</ele>
        <time>2022-02-26T19:36:50Z</time>
      </trkpt>
      <trkpt lat="40.614550" lon="-4.585730">
        <ele>1300.422</ele>
        <time>2022-02-26T19:37:30Z</time>
      </trkpt>
      <trkpt lat="40.614560" lon="-4.585820">
        <ele>1300.214</ele>
        <time>2022-02-26T19:38:10Z</time>
      </trkpt>
      <trkpt lat="40.614570" lon="-4.585900">
        <ele>1299.708</ele>
        <time>2022-02-26T19:38:50Z</time>
      </trkpt>
      <trkpt lat="40.614580" lon="-4.585930">
        <ele>1299.513</ele>
        <time>2022-02-26T19:39:30Z</time>
      </trkpt>
      <trkpt lat="40.614580" lon="-4.586000">
        <ele>1299.150</ele>
        <time>2022-02-26T19:40:10Z</time>
      </trkpt>
      <trkpt lat="40.614580" lon="-4.586080">
        <ele>1298.714</ele>
        <time>2022-02-26T19:40:50Z</time>
      </trkpt>
      <trkpt lat="40.614580" lon="-4.586140">
        <ele>1298.343</ele>
        <time>2022-02-26T19:41:30Z</time>
      </trkpt>
      <trkpt lat="40.614580" lon="-4.586180">
        <ele>1297.953</ele>
        <time>2022-02-26T19:42:10Z</time>
      </trkpt>
      <trkpt lat="40.614580" lon="-4.586370">
        <ele>1296.246</ele>
        <time>2022-02-26T19:42:50Z</time>
      </trkpt>
      <trkpt lat="40.614580" lon="-4.586420">
        <ele>1295.711</ele>
        <time>2022-02-26T19:43:30Z</time>
      </trkpt>
      <trkpt lat="40.614580" lon="-4.586650">
        <ele>1293.389</ele>
        <time>2022-02-26T19:44:10Z</time>
      </trkpt>
      <trkpt lat="40.614560" lon="-4.586870">
        <ele>1291.671</ele>
        <time>2022-02-26T19:44:50Z</time>
      </trkpt>
      <trkpt lat="40.614540" lon="-4.587290">
        <ele>1288.141</ele>
        <time>2022-02-26T19:45:30Z</time>
      </trkpt>
      <trkpt lat="40.614530" lon="-4.587440">
        <ele>1287.215</ele>
        <time>2022-02-26T19:46:10Z</time>
      </trkpt>
      <trkpt lat="40.614520" lon="-4.587650">
        <ele>1286.208</ele>
        <time>2022-02-26T19:46:50Z</time>
      </trkpt>
      <trkpt lat="40.614520" lon="-4.587800">
        <ele>1285.586</ele>
        <time>2022-02-26T19:47:30Z</time>
      </trkpt>
      <trkpt lat="40.614510" lon="-4.587890">
        <ele>1285.193</ele>
        <time>2022-02-26T19:48:10Z</time>
      </trkpt>
      <trkpt lat="40.614510" lon="-4.587990">
        <ele>1284.527</ele>
        <time>2022-02-26T19:48:50Z</time>
      </trkpt>
      <trkpt lat="40.614510" lon="-4.588060">
        <ele>1284.136</ele>
        <time>2022-02-26T19:49:30Z</time>
      </trkpt>
      <trkpt lat="40.614510" lon="-4.588140">
        <ele>1284.456</ele>
        <time>2022-02-26T19:50:10Z</time>
      </trkpt>
      <trkpt lat="40.614510" lon="-4.588220">
        <ele>1284.639</ele>
        <time>2022-02-26T19:50:50Z</time>
      </trkpt>
      <trkpt lat="40.614510" lon="-4.588310">
        <ele>1285.054</ele>
        <time>2022-02-26T19:51:30Z</time>
      </trkpt>
      <trkpt lat="40.614520" lon="-4.588440">
        <ele>1285.322</ele>
        <time>2022-02-26T19:52:10Z</time>
      </trkpt>
      <trkpt lat="40.614520" lon="-4.588530">
        <ele>1285.643</ele>
        <time>2022-02-26T19:52:50Z</time>
      </trkpt>
      <trkpt lat="40.614530" lon="-4.588610">
        <ele>1285.864</ele>
        <time>2022-02-26T19:53:30Z</time>
      </trkpt>
      <trkpt lat="40.614550" lon="-4.588720">
        <ele>1284.810</ele>
        <time>2022-02-26T19:54:10Z</time>
      </trkpt>
      <trkpt lat="40.614570" lon="-4.588830">
        <ele>1284.008</ele>
        <time>2022-02-26T19:54:50Z</time>
      </trkpt>
      <trkpt lat="40.614590" lon="-4.588970">
        <ele>1282.843</ele>
        <time>2022-02-26T19:55:30Z</time>
      </trkpt>
      <trkpt lat="40.614610" lon="-4.589050">
        <ele>1282.150</ele>
        <time>2022-02-26T19:56:10Z</time>
      </trkpt>
      <trkpt lat="40.614630" lon="-4.589130">
        <ele>1281.314</ele>
        <time>2022-02-26T19:56:50Z</time>
      </trkpt>
      <trkpt lat="40.614650" lon="-4.589180">
        <ele>1280.713</ele>
        <time>2022-02-26T19:57:30Z</time>
      </trkpt>
      <trkpt lat="40.614670" lon="-4.589270">
        <ele>1279.833</ele>
        <time>2022-02-26T19:58:10Z</time>
      </trkpt>
      <trkpt lat="40.614710" lon="-4.589390">
        <ele>1278.586</ele>
        <time>2022-02-26T19:58:50Z</time>
      </trkpt>
      <trkpt lat="40.614760" lon="-4.589530">
        <ele>1277.241</ele>
        <time>2022-02-26T19:59:30Z</time>
      </trkpt>
      <trkpt lat="40.614800" lon="-4.589630">
        <ele>1276.349</ele>
        <time>2022-02-26T20:00:10Z</time>
      </trkpt>
      <trkpt lat="40.614840" lon="-4.589720">
        <ele>1275.354</ele>
        <time>2022-02-26T20:00:50Z</time>
      </trkpt>
      <trkpt lat="40.614890" lon="-4.589820">
        <ele>1274.256</ele>
        <time>2022-02-26T20:01:30Z</time>
      </trkpt>
      <trkpt lat="40.614930" lon="-4.589900">
        <ele>1273.411</ele>
        <time>2022-02-26T20:02:10Z</time>
      </trkpt>
      <trkpt lat="40.614970" lon="-4.589980">
        <ele>1272.508</ele>
        <time>2022-02-26T20:02:50Z</time>
      </trkpt>
      <trkpt lat="40.615030" lon="-4.590100">
        <ele>1272.414</ele>
        <time>2022-02-26T20:03:30Z</time>
      </trkpt>
      <trkpt lat="40.615090" lon="-4.590200">
        <ele>1272.541</ele>
        <time>2022-02-26T20:04:10Z</time>
      </trkpt>
      <trkpt lat="40.615110" lon="-4.590210">
        <ele>1272.345</ele>
        <time>2022-02-26T20:04:50Z</time>
      </trkpt>
      <trkpt lat="40.615150" lon="-4.590270">
        <ele>1272.344</ele>
        <time>2022-02-26T20:05:30Z</time>
      </trkpt>
      <trkpt lat="40.615190" lon="-4.590330">
        <ele>1272.344</ele>
        <time>2022-02-26T20:06:10Z</time>
      </trkpt>
      <trkpt lat="40.615250" lon="-4.590400">
        <ele>1272.127</ele>
        <time>2022-02-26T20:06:50Z</time>
      </trkpt>
      <trkpt lat="40.615310" lon="-4.590490">
        <ele>1272.582</ele>
        <time>2022-02-26T20:07:30Z</time>
      </trkpt>
      <trkpt lat="40.615380" lon="-4.590560">
        <ele>1273.050</ele>
        <time>2022-02-26T20:08:10Z</time>
      </trkpt>
      <trkpt lat="40.615470" lon="-4.590650">
        <ele>1273.476</ele>
        <time>2022-02-26T20:08:50Z</time>
      </trkpt>
      <trkpt lat="40.615510" lon="-4.590690">
        <ele>1273.690</ele>
        <time>2022-02-26T20:09:30Z</time>
      </trkpt>
      <trkpt lat="40.615540" lon="-4.590720">
        <ele>1273.619</ele>
        <time>2022-02-26T20:10:10Z</time>
      </trkpt>
      <trkpt lat="40.615650" lon="-4.590820">
        <ele>1273.908</ele>
        <time>2022-02-26T20:10:50Z</time>
      </trkpt>
      <trkpt lat="40.615760" lon="-4.590900">
        <ele>1274.536</ele>
        <time>2022-02-26T20:11:30Z</time>
      </trkpt>
      <trkpt lat="40.615810" lon="-4.590940">
        <ele>1274.833</ele>
        <time>2022-02-26T20:12:10Z</time>
      </trkpt>
      <trkpt lat="40.615870" lon="-4.590980">
        <ele>1275.237</ele>
        <time>2022-02-26T20:12:50Z</time>
      </trkpt>
      <trkpt lat="40.615950" lon="-4.591030">
        <ele>1275.896</ele>
        <time>2022-02-26T20:13:30Z</time>
      </trkpt>
      <trkpt lat="40.615970" lon="-4.591040">
        <ele>1276.026</ele>
        <time>2022-02-26T20:14:10Z</time>
      </trkpt>
      <trkpt lat="40.616030" lon="-4.591070">
        <ele>1276.469</ele>
        <time>2022-02-26T20:14:50Z</time>
      </trkpt>
      <trkpt lat="40.616140" lon="-4.591130">
        <ele>1277.414</ele>
        <time>2022-02-26T20:15:30Z</time>
      </trkpt>
      <trkpt lat="40.616200" lon="-4.591170">
        <ele>1278.262</ele>
        <time>2022-02-26T20:16:10Z</time>
      </trkpt>
      <trkpt lat="40.616310" lon="-4.591230">
        <ele>1279.459</ele>
        <time>2022-02-26T20:16:50Z</time>
      </trkpt>
      <trkpt lat="40.616370" lon="-4.591260">
        <ele>1280.003</ele>
        <time>2022-02-26T20:17:30Z</time>
      </trkpt>
      <trkpt lat="40.616520" lon="-4.591360">
        <ele>1281.723</ele>
        <time>2022-02-26T20:18:10Z</time>
      </trkpt>
      <trkpt lat="40.616540" lon="-4.591370">
        <ele>1282.008</ele>
        <time>2022-02-26T20:18:50Z</time>
      </trkpt>
      <trkpt lat="40.616670" lon="-4.591450">
        <ele>1283.574</ele>
        <time>2022-02-26T20:19:30Z</time>
      </trkpt>
      <trkpt lat="40.616850" lon="-4.591550">
        <ele>1285.121</ele>
        <time>2022-02-26T20:20:10Z</time>
      </trkpt>
      <trkpt lat="40.617070" lon="-4.591670">
        <ele>1286.995</ele>
        <time>2022-02-26T20:20:50Z</time>
      </trkpt>
      <trkpt lat="40.617200" lon="-4.591740">
        <ele>1288.664</ele>
        <time>2022-02-26T20:21:30Z</time>
      </trkpt>
      <trkpt lat="40.617260" lon="-4.591780">
        <ele>1289.774</ele>
        <time>2022-02-26T20:22:10Z</time>
      </trkpt>
      <trkpt lat="40.617370" lon="-4.591840">
        <ele>1291.737</ele>
        <time>2022-02-26T20:22:50Z</time>
      </trkpt>
      <trkpt lat="40.617440" lon="-4.591880">
        <ele>1292.812</ele>
        <time>2022-02-26T20:23:30Z</time>
      </trkpt>
      <trkpt lat="40.617680" lon="-4.592020">
        <ele>1294.140</ele>
        <time>2022-02-26T20:24:10Z</time>
      </trkpt>
      <trkpt lat="40.617700" lon="-4.592030">
        <ele>1294.187</ele>
        <time>2022-02-26T20:24:50Z</time>
      </trkpt>
      <trkpt lat="40.617860" lon="-4.592120">
        <ele>1294.142</ele>
        <time>2022-02-26T20:25:30Z</time>
      </trkpt>
      <trkpt lat="40.618020" lon="-4.592220">
        <ele>1293.426</ele>
        <time>2022-02-26T20:26:10Z</time>
      </trkpt>
      <trkpt lat="40.618030" lon="-4.592230">
        <ele>1293.308</ele>
        <time>2022-02-26T20:26:50Z</time>
      </trkpt>
      <trkpt lat="40.618150" lon="-4.592300">
        <ele>1292.847</ele>
        <time>2022-02-26T20:27:30Z</time>
      </trkpt>
      <trkpt lat="40.618220" lon="-4.592340">
        <ele>1292.434</ele>
        <time>2022-02-26T20:28:10Z</time>
      </trkpt>
      <trkpt lat="40.618290" lon="-4.592390">
        <ele>1292.038</ele>
        <time>2022-02-26T20:28:50Z</time>
      </trkpt>
      <trkpt lat="40.618330" lon="-4.592410">
        <ele>1291.757</ele>
        <time>2022-02-26T20:29:30Z</time>
      </trkpt>
      <trkpt lat="40.618350" lon="-4.592430">
        <ele>1291.727</ele>
        <time>2022-02-26T20:30:10Z</time>
      </trkpt>
      <trkpt lat="40.618360" lon="-4.592430">
        <ele>1291.790</ele>
        <time>2022-02-26T20:30:50Z</time>
      </trkpt>
      <trkpt lat="40.618390" lon="-4.592450">
        <ele>1291.685</ele>
        <time>2022-02-26T20:31:30Z</time>
      </trkpt>
      <trkpt lat="40.618430" lon="-4.592480">
        <ele>1291.633</ele>
        <time>2022-02-26T20:32:10Z</time>
      </trkpt>
      <trkpt lat="40.618470" lon="-4.592510">
        <ele>1291.614</ele>
        <time>2022-02-26T20:32:50Z</time>
      </trkpt>
      <trkpt lat="40.618510" lon="-4.592540">
        <ele>1291.654</ele>
        <time>2022-02-26T20:33:30Z</time>
      </trkpt>
      <trkpt lat="40.618550" lon="-4.592580">
        <ele>1291.609</ele>
        <time>2022-02-26T20:34:10Z</time>
      </trkpt>
      <trkpt lat="40.618640" lon="-4.592660">
        <ele>1291.408</ele>
        <time>2022-02-26T20:34:50Z</time>
      </trkpt>
      <trkpt lat="40.618650" lon="-4.592680">
        <ele>1291.450</ele>
        <time>2022-02-26T20:35:30Z</time>
      </trkpt>
      <trkpt lat="40.618740" lon="-4.592770">
        <ele>1291.117</ele>
        <time>2022-02-26T20:36:10Z</time>
      </trkpt>
      <trkpt lat="40.618830" lon="-4.592870">
        <ele>1290.731</ele>
        <time>2022-02-26T20:36:50Z</time>
      </trkpt>
      <trkpt lat="40.618930" lon="-4.592990">
        <ele>1290.650</ele>
        <time>2022-02-26T20:37:30Z</time>
      </trkpt>
      <trkpt lat="40.619000" lon="-4.593090">
        <ele>1290.640</ele>
        <time>2022-02-26T20:38:10Z</time>
      </trkpt>
      <trkpt lat="40.619050" lon="-4.593160">
        <ele>1290.433</ele>
        <time>2022-02-26T20:38:50Z</time>
      </trkpt>
      <trkpt lat="40.619060" lon="-4.593180">
        <ele>1290.448</ele>
        <time>2022-02-26T20:39:30Z</time>
      </trkpt>
      <trkpt lat="40.619120" lon="-4.593280">
        <ele>1290.236</ele>
        <time>2022-02-26T20:40:10Z</time>
      </trkpt>
      <trkpt lat="40.619150" lon="-4.593330">
        <ele>1290.189</ele>
        <time>2022-02-26T20:40:50Z</time>
      </trkpt>
      <trkpt lat="40.619190" lon="-4.593390">
        <ele>1289.806</ele>
        <time>2022-02-26T20:41:30Z</time>
      </trkpt>
      <trkpt lat="40.619240" lon="-4.593500">
        <ele>1289.526</ele>
        <time>2022-02-26T20:42:10Z</time>
      </trkpt>
      <trkpt lat="40.619260" lon="-4.593540">
        <ele>1289.308</ele>
        <time>2022-02-26T20:42:50Z</time>
      </trkpt>
      <trkpt lat="40.619300" lon="-4.593610">
        <ele>1289.047</ele>
        <time>2022-02-26T20:43:30Z</time>
      </trkpt>
      <trkpt lat="40.619360" lon="-4.593740">
        <ele>1288.924</ele>
        <time>2022-02-26T20:44:10Z</time>
      </trkpt>
      <trkpt lat="40.619360" lon="-4.593750">
        <ele>1289.098</ele>
        <time>2022-02-26T20:44:50Z</time>
      </trkpt>
      <trkpt lat="40.619400" lon="-4.593850">
        <ele>1289.077</ele>
        <time>2022-02-26T20:45:30Z</time>
      </trkpt>
      <trkpt lat="40.619430" lon="-4.593930">
        <ele>1289.117</ele>
        <time>2022-02-26T20:46:10Z</time>
      </trkpt>
      <trkpt lat="40.619480" lon="-4.594060">
        <ele>1288.760</ele>
        <time>2022-02-26T20:46:50Z</time>
      </trkpt>
      <trkpt lat="40.619500" lon="-4.594120">
        <ele>1288.645</ele>
        <time>2022-02-26T20:47:30Z</time>
      </trkpt>
      <trkpt lat="40.619510" lon="-4.594170">
        <ele>1288.583</ele>
        <time>2022-02-26T20:48:10Z</time>
      </trkpt>
      <trkpt lat="40.619560" lon="-4.594340">
        <ele>1287.856</ele>
        <time>2022-02-26T20:48:50Z</time>
      </trkpt>
      <trkpt lat="40.619570" lon="-4.594390">
        <ele>1287.759</ele>
        <time>2022-02-26T20:49:30Z</time>
      </trkpt>
      <trkpt lat="40.619600" lon="-4.594540">
        <ele>1286.814</ele>
        <time>2022-02-26T20:50:10Z</time>
      </trkpt>
      <trkpt lat="40.619640" lon="-4.594750">
        <ele>1285.208</ele>
        <time>2022-02-26T20:50:50Z</time>
      </trkpt>
      <trkpt lat="40.619660" lon="-4.594920">
        <ele>1284.584</ele>
        <time>2022-02-26T20:51:30Z</time>
      </trkpt>
      <trkpt lat="40.619660" lon="-4.595090">
        <ele>1283.651</ele>
        <time>2022-02-26T20:52:10Z</time>
      </trkpt>
      <trkpt lat="40.619670" lon="-4.595160">
        <ele>1283.045</ele>
        <time>2022-02-26T20:52:50Z</time>
      </trkpt>
      <trkpt lat="40.619660" lon="-4.595420">
        <ele>1281.734</ele>
        <time>2022-02-26T20:53:30Z</time>
      </trkpt>
      <trkpt lat="40.619650" lon="-4.595650">
        <ele>1280.944</ele>
        <time>2022-02-26T20:54:10Z</time>
      </trkpt>
      <trkpt lat="40.619630" lon="-4.595800">
        <ele>1280.547</ele>
        <time>2022-02-26T20:54:50Z</time>
      </trkpt>
      <trkpt lat="40.619630" lon="-4.595810">
        <ele>1280.422</ele>
        <time>2022-02-26T20:55:30Z</time>
      </trkpt>
      <trkpt lat="40.619630" lon="-4.595850">
        <ele>1280.320</ele>
        <time>2022-02-26T20:56:10Z</time>
      </trkpt>
      <trkpt lat="40.619600" lon="-4.596060">
        <ele>1280.165</ele>
        <time>2022-02-26T20:56:50Z</time>
      </trkpt>
      <trkpt lat="40.619560" lon="-4.596280">
        <ele>1279.068</ele>
        <time>2022-02-26T20:57:30Z</time>
      </trkpt>
      <trkpt lat="40.619520" lon="-4.596490">
        <ele>1277.914</ele>
        <time>2022-02-26T20:58:10Z</time>
      </trkpt>
      <trkpt lat="40.619510" lon="-4.596510">
        <ele>1277.808</ele>
        <time>2022-02-26T20:58:50Z</time>
      </trkpt>
      <trkpt lat="40.619460" lon="-4.596710">
        <ele>1276.915</ele>
        <time>2022-02-26T20:59:30Z</time>
      </trkpt>
      <trkpt lat="40.619450" lon="-4.596710">
        <ele>1276.912</ele>
        <time>2022-02-26T21:00:10Z</time>
      </trkpt>
      <trkpt lat="40.619370" lon="-4.596920">
        <ele>1275.876</ele>
        <time>2022-02-26T21:00:50Z</time>
      </trkpt>
      <trkpt lat="40.619190" lon="-4.597320">
        <ele>1272.445</ele>
        <time>2022-02-26T21:01:30Z</time>
      </trkpt>
      <trkpt lat="40.619060" lon="-4.597590">
        <ele>1270.085</ele>
        <time>2022-02-26T21:02:10Z</time>
      </trkpt>
      <trkpt lat="40.619000" lon="-4.597720">
        <ele>1268.888</ele>
        <time>2022-02-26T21:02:50Z</time>
      </trkpt>
      <trkpt lat="40.618950" lon="-4.597820">
        <ele>1268.173</ele>
        <time>2022-02-26T21:03:30Z</time>
      </trkpt>
      <trkpt lat="40.618920" lon="-4.597870">
        <ele>1267.811</ele>
        <time>2022-02-26T21:04:10Z</time>
      </trkpt>
      <trkpt lat="40.618850" lon="-4.598020">
        <ele>1267.185</ele>
        <time>2022-02-26T21:04:50Z</time>
      </trkpt>
      <trkpt lat="40.618790" lon="-4.598160">
        <ele>1266.589</ele>
        <time>2022-02-26T21:05:30Z</time>
      </trkpt>
      <trkpt lat="40.618720" lon="-4.598330">
        <ele>1265.417</ele>
        <time>2022-02-26T21:06:10Z</time>
      </trkpt>
      <trkpt lat="40.618650" lon="-4.598510">
        <ele>1263.908</ele>
        <time>2022-02-26T21:06:50Z</time>
      </trkpt>
      <trkpt lat="40.618610" lon="-4.598650">
        <ele>1262.797</ele>
        <time>2022-02-26T21:07:30Z</time>
      </trkpt>
      <trkpt lat="40.618560" lon="-4.598800">
        <ele>1261.634</ele>
        <time>2022-02-26T21:08:10Z</time>
      </trkpt>
      <trkpt lat="40.618520" lon="-4.598930">
        <ele>1260.728</ele>
        <time>2022-02-26T21:08:50Z</time>
      </trkpt>
      <trkpt lat="40.618490" lon="-4.599030">
        <ele>1260.017</ele>
        <time>2022-02-26T21:09:30Z</time>
      </trkpt>
      <trkpt lat="40.618460" lon="-4.599170">
        <ele>1259.027</ele>
        <time>2022-02-26T21:10:10Z</time>
      </trkpt>
      <trkpt lat="40.618450" lon="-4.599260">
        <ele>1258.510</ele>
        <time>2022-02-26T21:10:50Z</time>
      </trkpt>
      <trkpt lat="40.618430" lon="-4.599350">
        <ele>1258.115</ele>
        <time>2022-02-26T21:11:30Z</time>
      </trkpt>
      <trkpt lat="40.618410" lon="-4.599510">
        <ele>1257.533</ele>
        <time>2022-02-26T21:12:10Z</time>
      </trkpt>
      <trkpt lat="40.618390" lon="-4.599660">
        <ele>1257.024</ele>
        <time>2022-02-26T21:12:50Z</time>
      </trkpt>
      <trkpt lat="40.618370" lon="-4.599820">
        <ele>1256.204</ele>
        <time>2022-02-26T21:13:30Z</time>
      </trkpt>
      <trkpt lat="40.618360" lon="-4.599960">
        <ele>1255.314</ele>
        <time>2022-02-26T21:14:10Z</time>
      </trkpt>
      <trkpt lat="40.618360" lon="-4.600050">
        <ele>1254.808</ele>
        <time>2022-02-26T21:14:50Z</time>
      </trkpt>
      <trkpt lat="40.618360" lon="-4.600130">
        <ele>1254.531</ele>
        <time>2022-02-26T21:15:30Z</time>
      </trkpt>
      <trkpt lat="40.618350" lon="-4.600250">
        <ele>1254.098</ele>
        <time>2022-02-26T21:16:10Z</time>
      </trkpt>
      <trkpt lat="40.618350" lon="-4.600270">
        <ele>1254.082</ele>
        <time>2022-02-26T21:16:50Z</time>
      </trkpt>
      <trkpt lat="40.618350" lon="-4.600360">
        <ele>1253.651</ele>
        <time>2022-02-26T21:17:30Z</time>
      </trkpt>
      <trkpt lat="40.618360" lon="-4.600500">
        <ele>1253.191</ele>
        <time>2022-02-26T21:18:10Z</time>
      </trkpt>
      <trkpt lat="40.618360" lon="-4.600530">
        <ele>1253.024</ele>
        <time>2022-02-26T21:18:50Z</time>
      </trkpt>
      <trkpt lat="40.618360" lon="-4.600640">
        <ele>1252.389</ele>
        <time>2022-02-26T21:19:30Z</time>
      </trkpt>
      <trkpt lat="40.618370" lon="-4.600720">
        <ele>1251.727</ele>
        <time>2022-02-26T21:20:10Z</time>
      </trkpt>
      <trkpt lat="40.618370" lon="-4.600820">
        <ele>1251.085</ele>
        <time>2022-02-26T21:20:50Z</time>
      </trkpt>
      <trkpt lat="40.618380" lon="-4.600910">
        <ele>1250.689</ele>
        <time>2022-02-26T21:21:30Z</time>
      </trkpt>
      <trkpt lat="40.618400" lon="-4.601030">
        <ele>1250.117</ele>
        <time>2022-02-26T21:22:10Z</time>
      </trkpt>
      <trkpt lat="40.618410" lon="-4.601110">
        <ele>1249.708</ele>
        <time>2022-02-26T21:22:50Z</time>
      </trkpt>
      <trkpt lat="40.618430" lon="-4.601220">
        <ele>1249.137</ele>
        <time>2022-02-26T21:23:30Z</time>
      </trkpt>
      <trkpt lat="40.618450" lon="-4.601330">
        <ele>1248.544</ele>
        <time>2022-02-26T21:24:10Z</time>
      </trkpt>
      <trkpt lat="40.618480" lon="-4.601470">
        <ele>1247.468</ele>
        <time>2022-02-26T21:24:50Z</time>
      </trkpt>
      <trkpt lat="40.618530" lon="-4.601660">
        <ele>1245.657</ele>
        <time>2022-02-26T21:25:30Z</time>
      </trkpt>
      <trkpt lat="40.618530" lon="-4.601680">
        <ele>1245.567</ele>
        <time>2022-02-26T21:26:10Z</time>
      </trkpt>
      <trkpt lat="40.618610" lon="-4.601950">
        <ele>1244.010</ele>
        <time>2022-02-26T21:26:50Z</time>
      </trkpt>
      <trkpt lat="40.618690" lon="-4.602260">
        <ele>1241.825</ele>
        <time>2022-02-26T21:27:30Z</time>
      </trkpt>
      <trkpt lat="40.618790" lon="-4.602600">
        <ele>1239.983</ele>
        <time>2022-02-26T21:28:10Z</time>
      </trkpt>
      <trkpt lat="40.618820" lon="-4.602700">
        <ele>1239.385</ele>
        <time>2022-02-26T21:28:50Z</time>
      </trkpt>
      <trkpt lat="40.618830" lon="-4.602740">
        <ele>1239.289</ele>
        <time>2022-02-26T21:29:30Z</time>
      </trkpt>
      <trkpt lat="40.618840" lon="-4.602770">
        <ele>1239.017</ele>
        <time>2022-02-26T21:30:10Z</time>
      </trkpt>
      <trkpt lat="40.618870" lon="-4.602870">
        <ele>1238.408</ele>
        <time>2022-02-26T21:30:50Z</time>
      </trkpt>
      <trkpt lat="40.618900" lon="-4.603010">
        <ele>1237.447</ele>
        <time>2022-02-26T21:31:30Z</time>
      </trkpt>
      <trkpt lat="40.619030" lon="-4.603470">
        <ele>1235.824</ele>
        <time>2022-02-26T21:32:10Z</time>
      </trkpt>
      <trkpt lat="40.619190" lon="-4.604040">
        <ele>1232.778</ele>
        <time>2022-02-26T21:32:50Z</time>
      </trkpt>
      <trkpt lat="40.619360" lon="-4.604650">
        <ele>1230.877</ele>
        <time>2022-02-26T21:33:30Z</time>
      </trkpt>
      <trkpt lat="40.619520" lon="-4.605220">
        <ele>1228.537</ele>
        <time>2022-02-26T21:34:10Z</time>
      </trkpt>
      <trkpt lat="40.619630" lon="-4.605580">
        <ele>1226.540</ele>
        <time>2022-02-26T21:34:50Z</time>
      </trkpt>
      <trkpt lat="40.619700" lon="-4.605850">
        <ele>1224.865</ele>
        <time>2022-02-26T21:35:30Z</time>
      </trkpt>
      <trkpt lat="40.619750" lon="-4.606000">
        <ele>1223.313</ele>
        <time>2022-02-26T21:36:10Z</time>
      </trkpt>
      <trkpt lat="40.619920" lon="-4.606660">
        <ele>1218.315</ele>
        <time>2022-02-26T21:36:50Z</time>
      </trkpt>
      <trkpt lat="40.620000" lon="-4.606960">
        <ele>1216.965</ele>
        <time>2022-02-26T21:37:30Z</time>
      </trkpt>
      <trkpt lat="40.620060" lon="-4.607160">
        <ele>1216.111</ele>
        <time>2022-02-26T21:38:10Z</time>
      </trkpt>
      <trkpt lat="40.620260" lon="-4.607840">
        <ele>1212.508</ele>
        <time>2022-02-26T21:38:50Z</time>
      </trkpt>
      <trkpt lat="40.620340" lon="-4.608140">
        <ele>1210.610</ele>
        <time>2022-02-26T21:39:30Z</time>
      </trkpt>
      <trkpt lat="40.620380" lon="-4.608290">
        <ele>1209.567</ele>
        <time>2022-02-26T21:40:10Z</time>
      </trkpt>
      <trkpt lat="40.620400" lon="-4.608370">
        <ele>1208.871</ele>
        <time>2022-02-26T21:40:50Z</time>
      </trkpt>
      <trkpt lat="40.620440" lon="-4.608510">
        <ele>1207.610</ele>
        <time>2022-02-26T21:41:30Z</time>
      </trkpt>
      <trkpt lat="40.620480" lon="-4.608640">
        <ele>1206.650</ele>
        <time>2022-02-26T21:42:10Z</time>
      </trkpt>
      <trkpt lat="40.620540" lon="-4.608840">
        <ele>1205.383</ele>
        <time>2022-02-26T21:42:50Z</time>
      </trkpt>
      <trkpt lat="40.620660" lon="-4.609190">
        <ele>1204.048</ele>
        <time>2022-02-26T21:43:30Z</time>
      </trkpt>
      <trkpt lat="40.620740" lon="-4.609410">
        <ele>1203.936</ele>
        <time>2022-02-26T21:44:10Z</time>
      </trkpt>
      <trkpt lat="40.620880" lon="-4.609780">
        <ele>1203.519</ele>
        <time>2022-02-26T21:44:50Z</time>
      </trkpt>
      <trkpt lat="40.621040" lon="-4.610190">
        <ele>1200.009</ele>
        <time>2022-02-26T21:45:30Z</time>
      </trkpt>
      <trkpt lat="40.621200" lon="-4.610580">
        <ele>1196.919</ele>
        <time>2022-02-26T21:46:10Z</time>
      </trkpt>
      <trkpt lat="40.621220" lon="-4.610640">
        <ele>1196.208</ele>
        <time>2022-02-26T21:46:50Z</time>
      </trkpt>
      <trkpt lat="40.621310" lon="-4.610850">
        <ele>1193.920</ele>
        <time>2022-02-26T21:47:30Z</time>
      </trkpt>
      <trkpt lat="40.621360" lon="-4.610990">
        <ele>1192.077</ele>
        <time>2022-02-26T21:48:10Z</time>
      </trkpt>
      <trkpt lat="40.621510" lon="-4.611360">
        <ele>1184.821</ele>
        <time>2022-02-26T21:48:50Z</time>
      </trkpt>
      <trkpt lat="40.621520" lon="-4.611380">
        <ele>1184.330</ele>
        <time>2022-02-26T21:49:30Z</time>
      </trkpt>
      <trkpt lat="40.621560" lon="-4.611480">
        <ele>1183.610</ele>
        <time>2022-02-26T21:50:10Z</time>
      </trkpt>
      <trkpt lat="40.621620" lon="-4.611620">
        <ele>1182.953</ele>
        <time>2022-02-26T21:50:50Z</time>
      </trkpt>
      <trkpt lat="40.621640" lon="-4.611680">
        <ele>1182.858</ele>
        <time>2022-02-26T21:51:30Z</time>
      </trkpt>
      <trkpt lat="40.621760" lon="-4.611960">
        <ele>1184.136</ele>
        <time>2022-02-26T21:52:10Z</time>
      </trkpt>
      <trkpt lat="40.621790" lon="-4.612040">
        <ele>1184.728</ele>
        <time>2022-02-26T21:52:50Z</time>
      </trkpt>
      <trkpt lat="40.621880" lon="-4.612280">
        <ele>1186.589</ele>
        <time>2022-02-26T21:53:30Z</time>
      </trkpt>
      <trkpt lat="40.621950" lon="-4.612470">
        <ele>1187.817</ele>
        <time>2022-02-26T21:54:10Z</time>
      </trkpt>
      <trkpt lat="40.621980" lon="-4.612540">
        <ele>1188.208</ele>
        <time>2022-02-26T21:54:50Z</time>
      </trkpt>
      <trkpt lat="40.622060" lon="-4.612800">
        <ele>1189.741</ele>
        <time>2022-02-26T21:55:30Z</time>
      </trkpt>
      <trkpt lat="40.622090" lon="-4.612900">
        <ele>1190.488</ele>
        <time>2022-02-26T21:56:10Z</time>
      </trkpt>
      <trkpt lat="40.622150" lon="-4.613070">
        <ele>1191.432</ele>
        <time>2022-02-26T21:56:50Z</time>
      </trkpt>
      <trkpt lat="40.622200" lon="-4.613270">
        <ele>1192.641</ele>
        <time>2022-02-26T21:57:30Z</time>
      </trkpt>
      <trkpt lat="40.622220" lon="-4.613350">
        <ele>1193.141</ele>
        <time>2022-02-26T21:58:10Z</time>
      </trkpt>
      <trkpt lat="40.622240" lon="-4.613370">
        <ele>1193.344</ele>
        <time>2022-02-26T21:58:50Z</time>
      </trkpt>
      <trkpt lat="40.622250" lon="-4.613380">
        <ele>1193.339</ele>
        <time>2022-02-26T21:59:30Z</time>
      </trkpt>
      <trkpt lat="40.622250" lon="-4.613400">
        <ele>1193.527</ele>
        <time>2022-02-26T22:00:10Z</time>
      </trkpt>
      <trkpt lat="40.622260" lon="-4.613420">
        <ele>1193.679</ele>
        <time>2022-02-26T22:00:50Z</time>
      </trkpt>
      <trkpt lat="40.622310" lon="-4.613600">
        <ele>1194.905</ele>
        <time>2022-02-26T22:01:30Z</time>
      </trkpt>
      <trkpt lat="40.622350" lon="-4.613800">
        <ele>1196.425</ele>
        <time>2022-02-26T22:02:10Z</time>
      </trkpt>
      <trkpt lat="40.622400" lon="-4.614030">
        <ele>1197.708</ele>
        <time>2022-02-26T22:02:50Z</time>
      </trkpt>
      <trkpt lat="40.622440" lon="-4.614270">
        <ele>1198.946</ele>
        <time>2022-02-26T22:03:30Z</time>
      </trkpt>
      <trkpt lat="40.622480" lon="-4.614490">
        <ele>1200.243</ele>
        <time>2022-02-26T22:04:10Z</time>
      </trkpt>
      <trkpt lat="40.622510" lon="-4.614670">
        <ele>1200.837</ele>
        <time>2022-02-26T22:04:50Z</time>
      </trkpt>
      <trkpt lat="40.622520" lon="-4.614750">
        <ele>1201.136</ele>
        <time>2022-02-26T22:05:30Z</time>
      </trkpt>
      <trkpt lat="40.622530" lon="-4.614820">
        <ele>1201.326</ele>
        <time>2022-02-26T22:06:10Z</time>
      </trkpt>
      <trkpt lat="40.622610" lon="-4.615340">
        <ele>1202.729</ele>
        <time>2022-02-26T22:06:50Z</time>
      </trkpt>
      <trkpt lat="40.622620" lon="-4.615450">
        <ele>1202.934</ele>
        <time>2022-02-26T22:07:30Z</time>
      </trkpt>
      <trkpt lat="40.622650" lon="-4.615690">
        <ele>1203.442</ele>
        <time>2022-02-26T22:08:10Z</time>
      </trkpt>
      <trkpt lat="40.622680" lon="-4.615860">
        <ele>1203.824</ele>
        <time>2022-02-26T22:08:50Z</time>
      </trkpt>
      <trkpt lat="40.622710" lon="-4.616160">
        <ele>1204.504</ele>
        <time>2022-02-26T22:09:30Z</time>
      </trkpt>
      <trkpt lat="40.622710" lon="-4.616190">
        <ele>1204.614</ele>
        <time>2022-02-26T22:10:10Z</time>
      </trkpt>
      <trkpt lat="40.622720" lon="-4.616220">
        <ele>1204.508</ele>
        <time>2022-02-26T22:10:50Z</time>
      </trkpt>
      <trkpt lat="40.622720" lon="-4.616250">
        <ele>1204.571</ele>
        <time>2022-02-26T22:11:30Z</time>
      </trkpt>
      <trkpt lat="40.622710" lon="-4.616270">
        <ele>1204.648</ele>
        <time>2022-02-26T22:12:10Z</time>
      </trkpt>
      <trkpt lat="40.622790" lon="-4.616850">
        <ele>1205.022</ele>
        <time>2022-02-26T22:12:50Z</time>
      </trkpt>
      <trkpt lat="40.622810" lon="-4.616970">
        <ele>1205.011</ele>
        <time>2022-02-26T22:13:30Z</time>
      </trkpt>
      <trkpt lat="40.622900" lon="-4.617650">
        <ele>1205.931</ele>
        <time>2022-02-26T22:14:10Z</time>
      </trkpt>
      <trkpt lat="40.622970" lon="-4.618240">
        <ele>1206.644</ele>
        <time>2022-02-26T22:14:50Z</time>
      </trkpt>
      <trkpt lat="40.623020" lon="-4.618610">
        <ele>1206.399</ele>
        <time>2022-02-26T22:15:30Z</time>
      </trkpt>
      <trkpt lat="40.623040" lon="-4.618690">
        <ele>1205.847</ele>
        <time>2022-02-26T22:16:10Z</time>
      </trkpt>
      <trkpt lat="40.623100" lon="-4.619220">
        <ele>1203.546</ele>
        <time>2022-02-26T22:16:50Z</time>
      </trkpt>
      <trkpt lat="40.623150" lon="-4.619540">
        <ele>1202.088</ele>
        <time>2022-02-26T22:17:30Z</time>
      </trkpt>
      <trkpt lat="40.623160" lon="-4.619650">
        <ele>1201.516</ele>
        <time>2022-02-26T22:18:10Z</time>
      </trkpt>
      <trkpt lat="40.623230" lon="-4.620120">
        <ele>1199.308</ele>
        <time>2022-02-26T22:18:50Z</time>
      </trkpt>
      <trkpt lat="40.623290" lon="-4.620610">
        <ele>1197.293</ele>
        <time>2022-02-26T22:19:30Z</time>
      </trkpt>
      <trkpt lat="40.623350" lon="-4.621040">
        <ele>1195.190</ele>
        <time>2022-02-26T22:20:10Z</time>
      </trkpt>
      <trkpt lat="40.623360" lon="-4.621110">
        <ele>1194.864</ele>
        <time>2022-02-26T22:20:50Z</time>
      </trkpt>
      <trkpt lat="40.623500" lon="-4.622090">
        <ele>1191.613</ele>
        <time>2022-02-26T22:21:30Z</time>
      </trkpt>
      <trkpt lat="40.623520" lon="-4.622220">
        <ele>1191.393</ele>
        <time>2022-02-26T22:22:10Z</time>
      </trkpt>
      <trkpt lat="40.623560" lon="-4.622560">
        <ele>1190.186</ele>
        <time>2022-02-26T22:22:50Z</time>
      </trkpt>
      <trkpt lat="40.623720" lon="-4.623740">
        <ele>1188.411</ele>
        <time>2022-02-26T22:23:30Z</time>
      </trkpt>
      <trkpt lat="40.623780" lon="-4.624250">
        <ele>1187.839</ele>
        <time>2022-02-26T22:24:10Z</time>
      </trkpt>
      <trkpt lat="40.623790" lon="-4.624310">
        <ele>1187.725</ele>
        <time>2022-02-26T22:24:50Z</time>
      </trkpt>
      <trkpt lat="40.623860" lon="-4.624760">
        <ele>1187.226</ele>
        <time>2022-02-26T22:25:30Z</time>
      </trkpt>
      <trkpt lat="40.623910" lon="-4.625170">
        <ele>1185.008</ele>
        <time>2022-02-26T22:26:10Z</time>
      </trkpt>
      <trkpt lat="40.623980" lon="-4.625700">
        <ele>1181.808</ele>
        <time>2022-02-26T22:26:50Z</time>
      </trkpt>
      <trkpt lat="40.624020" lon="-4.625930">
        <ele>1180.941</ele>
        <time>2022-02-26T22:27:30Z</time>
      </trkpt>
      <trkpt lat="40.624050" lon="-4.626140">
        <ele>1180.338</ele>
        <time>2022-02-26T22:28:10Z</time>
      </trkpt>
      <trkpt lat="40.624060" lon="-4.626170">
        <ele>1180.042</ele>
        <time>2022-02-26T22:28:50Z</time>
      </trkpt>
      <trkpt lat="40.624110" lon="-4.626370">
        <ele>1178.581</ele>
        <time>2022-02-26T22:29:30Z</time>
      </trkpt>
      <trkpt lat="40.624150" lon="-4.626580">
        <ele>1177.591</ele>
        <time>2022-02-26T22:30:10Z</time>
      </trkpt>
      <trkpt lat="40.624210" lon="-4.626800">
        <ele>1176.524</ele>
        <time>2022-02-26T22:30:50Z</time>
      </trkpt>
      <trkpt lat="40.624280" lon="-4.627030">
        <ele>1175.499</ele>
        <time>2022-02-26T22:31:30Z</time>
      </trkpt>
      <trkpt lat="40.624370" lon="-4.627290">
        <ele>1173.637</ele>
        <time>2022-02-26T22:32:10Z</time>
      </trkpt>
      <trkpt lat="40.624480" lon="-4.627540">
        <ele>1171.739</ele>
        <time>2022-02-26T22:32:50Z</time>
      </trkpt>
      <trkpt lat="40.624590" lon="-4.627840">
        <ele>1169.801</ele>
        <time>2022-02-26T22:33:30Z</time>
      </trkpt>
      <trkpt lat="40.624600" lon="-4.627850">
        <ele>1169.721</ele>
        <time>2022-02-26T22:34:10Z</time>
      </trkpt>
      <trkpt lat="40.624860" lon="-4.628380">
        <ele>1167.808</ele>
        <time>2022-02-26T22:34:50Z</time>
      </trkpt>
      <trkpt lat="40.625020" lon="-4.628700">
        <ele>1166.592</ele>
        <time>2022-02-26T22:35:30Z</time>
      </trkpt>
      <trkpt lat="40.625120" lon="-4.628920">
        <ele>1165.059</ele>
        <time>2022-02-26T22:36:10Z</time>
      </trkpt>
      <trkpt lat="40.625190" lon="-4.629060">
        <ele>1163.683</ele>
        <time>2022-02-26T22:36:50Z</time>
      </trkpt>
      <trkpt lat="40.625260" lon="-4.629210">
        <ele>1162.032</ele>
        <time>2022-02-26T22:37:30Z</time>
      </trkpt>
      <trkpt lat="40.625300" lon="-4.629290">
        <ele>1161.482</ele>
        <time>2022-02-26T22:38:10Z</time>
      </trkpt>
      <trkpt lat="40.625370" lon="-4.629440">
        <ele>1160.445</ele>
        <time>2022-02-26T22:38:50Z</time>
      </trkpt>
      <trkpt lat="40.625610" lon="-4.629900">
        <ele>1158.020</ele>
        <time>2022-02-26T22:39:30Z</time>
      </trkpt>
      <trkpt lat="40.625930" lon="-4.630540">
        <ele>1152.188</ele>
        <time>2022-02-26T22:40:10Z</time>
      </trkpt>
      <trkpt lat="40.626090" lon="-4.630870">
        <ele>1149.192</ele>
        <time>2022-02-26T22:40:50Z</time>
      </trkpt>
      <trkpt lat="40.626220" lon="-4.631160">
        <ele>1148.173</ele>
        <time>2022-02-26T22:41:30Z</time>
      </trkpt>
      <trkpt lat="40.626370" lon="-4.631470">
        <ele>1146.820</ele>
        <time>2022-02-26T22:42:10Z</time>
      </trkpt>
      <trkpt lat="40.626540" lon="-4.631830">
        <ele>1144.308</ele>
        <time>2022-02-26T22:42:50Z</time>
      </trkpt>
      <trkpt lat="40.626770" lon="-4.632260">
        <ele>1141.268</ele>
        <time>2022-02-26T22:43:30Z</time>
      </trkpt>
      <trkpt lat="40.626890" lon="-4.632500">
        <ele>1140.835</ele>
        <time>2022-02-26T22:44:10Z</time>
      </trkpt>
      <trkpt lat="40.626920" lon="-4.632560">
        <ele>1140.929</ele>
        <time>2022-02-26T22:44:50Z</time>
      </trkpt>
      <trkpt lat="40.626980" lon="-4.632670">
        <ele>1140.978</ele>
        <time>2022-02-26T22:45:30Z</time>
      </trkpt>
      <trkpt lat="40.627070" lon="-4.632870">
        <ele>1140.498</ele>
        <time>2022-02-26T22:46:10Z</time>
      </trkpt>
      <trkpt lat="40.627320" lon="-4.633360">
        <ele>1139.981</ele>
        <time>2022-02-26T22:46:50Z</time>
      </trkpt>
      <trkpt lat="40.627330" lon="-4.633370">
        <ele>1139.996</ele>
        <time>2022-02-26T22:47:30Z</time>
      </trkpt>
      <trkpt lat="40.627450" lon="-4.633620">
        <ele>1138.314</ele>
        <time>2022-02-26T22:48:10Z</time>
      </trkpt>
      <trkpt lat="40.628330" lon="-4.635400">
        <ele>1129.556</ele>
        <time>2022-02-26T22:48:50Z</time>
      </trkpt>
      <trkpt lat="40.629780" lon="-4.638320">
        <ele>1116.359</ele>
        <time>2022-02-26T22:49:30Z</time>
      </trkpt>
      <trkpt lat="40.629880" lon="-4.638520">
        <ele>1114.814</ele>
        <time>2022-02-26T22:50:10Z</time>
      </trkpt>
      <trkpt lat="40.630070" lon="-4.638910">
        <ele>1112.808</ele>
        <time>2022-02-26T22:50:50Z</time>
      </trkpt>
      <trkpt lat="40.630120" lon="-4.639010">
        <ele>1112.594</ele>
        <time>2022-02-26T22:51:30Z</time>
      </trkpt>
      <trkpt lat="40.630280" lon="-4.639340">
        <ele>1110.241</ele>
        <time>2022-02-26T22:52:10Z</time>
      </trkpt>
      <trkpt lat="40.630450" lon="-4.639690">
        <ele>1108.925</ele>
        <time>2022-02-26T22:52:50Z</time>
      </trkpt>
      <trkpt lat="40.630470" lon="-4.639710">
        <ele>1108.834</ele>
        <time>2022-02-26T22:53:30Z</time>
      </trkpt>
      <trkpt lat="40.630700" lon="-4.640170">
        <ele>1108.424</ele>
        <time>2022-02-26T22:54:10Z</time>
      </trkpt>
      <trkpt lat="40.631040" lon="-4.640860">
        <ele>1108.697</ele>
        <time>2022-02-26T22:54:50Z</time>
      </trkpt>
      <trkpt lat="40.631460" lon="-4.641780">
        <ele>1106.632</ele>
        <time>2022-02-26T22:55:30Z</time>
      </trkpt>
      <trkpt lat="40.631860" lon="-4.642590">
        <ele>1104.340</ele>
        <time>2022-02-26T22:56:10Z</time>
      </trkpt>
      <trkpt lat="40.632010" lon="-4.642900">
        <ele>1103.325</ele>
        <time>2022-02-26T22:56:50Z</time>
      </trkpt>
      <trkpt lat="40.632350" lon="-4.643580">
        <ele>1101.126</ele>
        <time>2022-02-26T22:57:30Z</time>
      </trkpt>
      <trkpt lat="40.632620" lon="-4.644140">
        <ele>1099.708</ele>
        <time>2022-02-26T22:58:10Z</time>
      </trkpt>
      <trkpt lat="40.632850" lon="-4.644570">
        <ele>1098.108</ele>
        <time>2022-02-26T22:58:50Z</time>
      </trkpt>
      <trkpt lat="40.632980" lon="-4.644810">
        <ele>1098.031</ele>
        <time>2022-02-26T22:59:30Z</time>
      </trkpt>
      <trkpt lat="40.633240" lon="-4.645360">
        <ele>1095.718</ele>
        <time>2022-02-26T23:00:10Z</time>
      </trkpt>
      <trkpt lat="40.633270" lon="-4.645410">
        <ele>1095.552</ele>
        <time>2022-02-26T23:00:50Z</time>
      </trkpt>
      <trkpt lat="40.633890" lon="-4.646680">
        <ele>1091.021</ele>
        <time>2022-02-26T23:01:30Z</time>
      </trkpt>
      <trkpt lat="40.633920" lon="-4.646760">
        <ele>1090.861</ele>
        <time>2022-02-26T23:02:10Z</time>
      </trkpt>
      <trkpt lat="40.634220" lon="-4.647350">
        <ele>1089.424</ele>
        <time>2022-02-26T23:02:50Z</time>
      </trkpt>
      <trkpt lat="40.634320" lon="-4.647550">
        <ele>1089.069</ele>
        <time>2022-02-26T23:03:30Z</time>
      </trkpt>
      <trkpt lat="40.634370" lon="-4.647650">
        <ele>1089.027</ele>
        <time>2022-02-26T23:04:10Z</time>
      </trkpt>
      <trkpt lat="40.634520" lon="-4.647940">
        <ele>1089.327</ele>
        <time>2022-02-26T23:04:50Z</time>
      </trkpt>
      <trkpt lat="40.634530" lon="-4.647960">
        <ele>1089.368</ele>
        <time>2022-02-26T23:05:30Z</time>
      </trkpt>
      <trkpt lat="40.634840" lon="-4.648590">
        <ele>1090.014</ele>
        <time>2022-02-26T23:06:10Z</time>
      </trkpt>
      <trkpt lat="40.635080" lon="-4.649090">
        <ele>1090.308</ele>
        <time>2022-02-26T23:06:50Z</time>
      </trkpt>
      <trkpt lat="40.635230" lon="-4.649400">
        <ele>1090.831</ele>
        <time>2022-02-26T23:07:30Z</time>
      </trkpt>
      <trkpt lat="40.635430" lon="-4.649780">
        <ele>1091.478</ele>
        <time>2022-02-26T23:08:10Z</time>
      </trkpt>
      <trkpt lat="40.635530" lon="-4.649980">
        <ele>1091.172</ele>
        <time>2022-02-26T23:08:50Z</time>
      </trkpt>
      <trkpt lat="40.635540" lon="-4.650000">
        <ele>1091.011</ele>
        <time>2022-02-26T23:09:30Z</time>
      </trkpt>
      <trkpt lat="40.635720" lon="-4.650380">
        <ele>1091.631</ele>
        <time>2022-02-26T23:10:10Z</time>
      </trkpt>
      <trkpt lat="40.635820" lon="-4.650580">
        <ele>1091.964</ele>
        <time>2022-02-26T23:10:50Z</time>
      </trkpt>
      <trkpt lat="40.635910" lon="-4.650750">
        <ele>1091.519</ele>
        <time>2022-02-26T23:11:30Z</time>
      </trkpt>
      <trkpt lat="40.636120" lon="-4.651170">
        <ele>1091.027</ele>
        <time>2022-02-26T23:12:10Z</time>
      </trkpt>
      <trkpt lat="40.636210" lon="-4.651370">
        <ele>1091.052</ele>
        <time>2022-02-26T23:12:50Z</time>
      </trkpt>
      <trkpt lat="40.636580" lon="-4.652130">
        <ele>1089.553</ele>
        <time>2022-02-26T23:13:30Z</time>
      </trkpt>
      <trkpt lat="40.636700" lon="-4.652370">
        <ele>1089.508</ele>
        <time>2022-02-26T23:14:10Z</time>
      </trkpt>
      <trkpt lat="40.636870" lon="-4.652710">
        <ele>1089.108</ele>
        <time>2022-02-26T23:14:50Z</time>
      </trkpt>
      <trkpt lat="40.637190" lon="-4.653360">
        <ele>1088.094</ele>
        <time>2022-02-26T23:15:30Z</time>
      </trkpt>
      <trkpt lat="40.637680" lon="-4.654350">
        <ele>1086.631</ele>
        <time>2022-02-26T23:16:10Z</time>
      </trkpt>
      <trkpt lat="40.638270" lon="-4.655550">
        <ele>1085.015</ele>
        <time>2022-02-26T23:16:50Z</time>
      </trkpt>
      <trkpt lat="40.638290" lon="-4.655580">
        <ele>1085.014</ele>
        <time>2022-02-26T23:17:30Z</time>
      </trkpt>
      <trkpt lat="40.638510" lon="-4.656010">
        <ele>1084.614</ele>
        <time>2022-02-26T23:18:10Z</time>
      </trkpt>
      <trkpt lat="40.638770" lon="-4.656550">
        <ele>1084.047</ele>
        <time>2022-02-26T23:18:50Z</time>
      </trkpt>
      <trkpt lat="40.638970" lon="-4.656950">
        <ele>1084.052</ele>
        <time>2022-02-26T23:19:30Z</time>
      </trkpt>
      <trkpt lat="40.639250" lon="-4.657510">
        <ele>1083.460</ele>
        <time>2022-02-26T23:20:10Z</time>
      </trkpt>
      <trkpt lat="40.639250" lon="-4.657520">
        <ele>1083.498</ele>
        <time>2022-02-26T23:20:50Z</time>
      </trkpt>
      <trkpt lat="40.639310" lon="-4.657640">
        <ele>1083.015</ele>
        <time>2022-02-26T23:21:30Z</time>
      </trkpt>
      <trkpt lat="40.639410" lon="-4.657800">
        <ele>1082.226</ele>
        <time>2022-02-26T23:22:10Z</time>
      </trkpt>
      <trkpt lat="40.639850" lon="-4.658660">
        <ele>1080.908</ele>
        <time>2022-02-26T23:22:50Z</time>
      </trkpt>
      <trkpt lat="40.639860" lon="-4.658680">
        <ele>1080.948</ele>
        <time>2022-02-26T23:23:30Z</time>
      </trkpt>
      <trkpt lat="40.640090" lon="-4.659120">
        <ele>1080.015</ele>
        <time>2022-02-26T23:24:10Z</time>
      </trkpt>
      <trkpt lat="40.640170" lon="-4.659260">
        <ele>1080.059</ele>
        <time>2022-02-26T23:24:50Z</time>
      </trkpt>
      <trkpt lat="40.640220" lon="-4.659380">
        <ele>1080.078</ele>
        <time>2022-02-26T23:25:30Z</time>
      </trkpt>
      <trkpt lat="40.640290" lon="-4.659510">
        <ele>1080.058</ele>
        <time>2022-02-26T23:26:10Z</time>
      </trkpt>
      <trkpt lat="40.640330" lon="-4.659590">
        <ele>1080.071</ele>
        <time>2022-02-26T23:26:50Z</time>
      </trkpt>
      <trkpt lat="40.640430" lon="-4.659810">
        <ele>1080.076</ele>
        <time>2022-02-26T23:27:30Z</time>
      </trkpt>
      <trkpt lat="40.640670" lon="-4.660320">
        <ele>1080.084</ele>
        <time>2022-02-26T23:28:10Z</time>
      </trkpt>
      <trkpt lat="40.640850" lon="-4.660680">
        <ele>1080.024</ele>
        <time>2022-02-26T23:28:50Z</time>
      </trkpt>
      <trkpt lat="40.640940" lon="-4.660860">
        <ele>1080.004</ele>
        <time>2022-02-26T23:29:30Z</time>
      </trkpt>
      <trkpt lat="40.641270" lon="-4.661430">
        <ele>1079.314</ele>
        <time>2022-02-26T23:30:10Z</time>
      </trkpt>
      <trkpt lat="40.641350" lon="-4.661540">
        <ele>1078.608</ele>
        <time>2022-02-26T23:30:50Z</time>
      </trkpt>
      <trkpt lat="40.641370" lon="-4.661630">
        <ele>1078.291</ele>
        <time>2022-02-26T23:31:30Z</time>
      </trkpt>
      <trkpt lat="40.641400" lon="-4.661660">
        <ele>1078.058</ele>
        <time>2022-02-26T23:32:10Z</time>
      </trkpt>
      <trkpt lat="40.641470" lon="-4.661760">
        <ele>1078.012</ele>
        <time>2022-02-26T23:32:50Z</time>
      </trkpt>
      <trkpt lat="40.641530" lon="-4.661840">
        <ele>1078.081</ele>
        <time>2022-02-26T23:33:30Z</time>
      </trkpt>
      <trkpt lat="40.641550" lon="-4.661870">
        <ele>1078.081</ele>
        <time>2022-02-26T23:34:10Z</time>
      </trkpt>
      <trkpt lat="40.641800" lon="-4.662200">
        <ele>1078.024</ele>
        <time>2022-02-26T23:34:50Z</time>
      </trkpt>
      <trkpt lat="40.642090" lon="-4.662580">
        <ele>1077.889</ele>
        <time>2022-02-26T23:35:30Z</time>
      </trkpt>
      <trkpt lat="40.643560" lon="-4.664480">
        <ele>1080.027</ele>
        <time>2022-02-26T23:36:10Z</time>
      </trkpt>
      <trkpt lat="40.643720" lon="-4.664680">
        <ele>1080.178</ele>
        <time>2022-02-26T23:36:50Z</time>
      </trkpt>
      <trkpt lat="40.643850" lon="-4.664840">
        <ele>1079.933</ele>
        <time>2022-02-26T23:37:30Z</time>
      </trkpt>
      <trkpt lat="40.643950" lon="-4.664990">
        <ele>1080.226</ele>
        <time>2022-02-26T23:38:10Z</time>
      </trkpt>
      <trkpt lat="40.644260" lon="-4.665380">
        <ele>1081.308</ele>
        <time>2022-02-26T23:38:50Z</time>
      </trkpt>
      <trkpt lat="40.644300" lon="-4.665430">
        <ele>1081.576</ele>
        <time>2022-02-26T23:39:30Z</time>
      </trkpt>
      <trkpt lat="40.644500" lon="-4.665680">
        <ele>1082.293</ele>
        <time>2022-02-26T23:40:10Z</time>
      </trkpt>
      <trkpt lat="40.644680" lon="-4.665920">
        <ele>1082.527</ele>
        <time>2022-02-26T23:40:50Z</time>
      </trkpt>
      <trkpt lat="40.644700" lon="-4.665940">
        <ele>1082.586</ele>
        <time>2022-02-26T23:41:30Z</time>
      </trkpt>
      <trkpt lat="40.644790" lon="-4.666060">
        <ele>1082.416</ele>
        <time>2022-02-26T23:42:10Z</time>
      </trkpt>
      <trkpt lat="40.644880" lon="-4.666170">
        <ele>1082.579</ele>
        <time>2022-02-26T23:42:50Z</time>
      </trkpt>
      <trkpt lat="40.644920" lon="-4.666230">
        <ele>1082.624</ele>
        <time>2022-02-26T23:43:30Z</time>
      </trkpt>
      <trkpt lat="40.645140" lon="-4.666510">
        <ele>1083.162</ele>
        <time>2022-02-26T23:44:10Z</time>
      </trkpt>
      <trkpt lat="40.645220" lon="-4.666620">
        <ele>1083.034</ele>
        <time>2022-02-26T23:44:50Z</time>
      </trkpt>
      <trkpt lat="40.645510" lon="-4.667000">
        <ele>1083.855</ele>
        <time>2022-02-26T23:45:30Z</time>
      </trkpt>
      <trkpt lat="40.645560" lon="-4.667060">
        <ele>1084.010</ele>
        <time>2022-02-26T23:46:10Z</time>
      </trkpt>
      <trkpt lat="40.645870" lon="-4.667480">
        <ele>1086.308</ele>
        <time>2022-02-26T23:46:50Z</time>
      </trkpt>
      <trkpt lat="40.646220" lon="-4.667930">
        <ele>1089.192</ele>
        <time>2022-02-26T23:47:30Z</time>
      </trkpt>
      <trkpt lat="40.646290" lon="-4.668020">
        <ele>1089.679</ele>
        <time>2022-02-26T23:48:10Z</time>
      </trkpt>
      <trkpt lat="40.646360" lon="-4.668120">
        <ele>1089.913</ele>
        <time>2022-02-26T23:48:50Z</time>
      </trkpt>
      <trkpt lat="40.646430" lon="-4.668200">
        <ele>1090.252</ele>
        <time>2022-02-26T23:49:30Z</time>
      </trkpt>
      <trkpt lat="40.646650" lon="-4.668510">
        <ele>1090.912</ele>
        <time>2022-02-26T23:50:10Z</time>
      </trkpt>
      <trkpt lat="40.646680" lon="-4.668550">
        <ele>1091.175</ele>
        <time>2022-02-26T23:50:50Z</time>
      </trkpt>
      <trkpt lat="40.646920" lon="-4.668910">
        <ele>1092.850</ele>
        <time>2022-02-26T23:51:30Z</time>
      </trkpt>
      <trkpt lat="40.647130" lon="-4.669190">
        <ele>1094.388</ele>
        <time>2022-02-26T23:52:10Z</time>
      </trkpt>
      <trkpt lat="40.647280" lon="-4.669420">
        <ele>1095.219</ele>
        <time>2022-02-26T23:52:50Z</time>
      </trkpt>
      <trkpt lat="40.647380" lon="-4.669480">
        <ele>1095.609</ele>
        <time>2022-02-26T23:53:30Z</time>
      </trkpt>
      <trkpt lat="40.647420" lon="-4.669540">
        <ele>1095.719</ele>
        <time>2022-02-26T23:54:10Z</time>
      </trkpt>
      <trkpt lat="40.647820" lon="-4.670140">
        <ele>1098.308</ele>
        <time>2022-02-26T23:54:50Z</time>
      </trkpt>
      <trkpt lat="40.648070" lon="-4.670570">
        <ele>1100.150</ele>
        <time>2022-02-26T23:55:30Z</time>
      </trkpt>
      <trkpt lat="40.648090" lon="-4.670610">
        <ele>1100.147</ele>
        <time>2022-02-26T23:56:10Z</time>
      </trkpt>
      <trkpt lat="40.648170" lon="-4.670770">
        <ele>1100.481</ele>
        <time>2022-02-26T23:56:50Z</time>
      </trkpt>
      <trkpt lat="40.648460" lon="-4.671350">
        <ele>1102.360</ele>
        <time>2022-02-26T23:57:30Z</time>
      </trkpt>
      <trkpt lat="40.649040" lon="-4.672520">
        <ele>1104.510</ele>
        <time>2022-02-26T23:58:10Z</time>
      </trkpt>
      <trkpt lat="40.649041" lon="-4.672520">
        <ele>1104.553</ele>
        <time>2022-02-26T23:58:50Z</time>
      </trkpt>
      <trkpt lat="40.649050" lon="-4.672520">
        <ele>1104.658</ele>
        <time>2022-02-26T23:59:30Z</time>
      </trkpt>
      <trkpt lat="40.649060" lon="-4.672520">
        <ele>1104.696</ele>
        <time>2022-02-27T00:00:10Z</time>
      </trkpt>
      <trkpt lat="40.649070" lon="-4.672520">
        <ele>1104.718</ele>
        <time>2022-02-27T00:00:50Z</time>
      </trkpt>
      <trkpt lat="40.649080" lon="-4.672520">
        <ele>1104.798</ele>
        <time>2022-02-27T00:01:30Z</time>
      </trkpt>
      <trkpt lat="40.649090" lon="-4.672530">
        <ele>1104.717</ele>
        <time>2022-02-27T00:02:10Z</time>
      </trkpt>
      <trkpt lat="40.649100" lon="-4.672530">
        <ele>1104.808</ele>
        <time>2022-02-27T00:02:50Z</time>
      </trkpt>
      <trkpt lat="40.649110" lon="-4.672530">
        <ele>1104.890</ele>
        <time>2022-02-27T00:03:30Z</time>
      </trkpt>
      <trkpt lat="40.649120" lon="-4.672540">
        <ele>1104.857</ele>
        <time>2022-02-27T00:04:10Z</time>
      </trkpt>
      <trkpt lat="40.649130" lon="-4.672550">
        <ele>1104.931</ele>
        <time>2022-02-27T00:04:50Z</time>
      </trkpt>
      <trkpt lat="40.649140" lon="-4.672560">
        <ele>1104.990</ele>
        <time>2022-02-27T00:05:30Z</time>
      </trkpt>
      <trkpt lat="40.649150" lon="-4.672570">
        <ele>1104.970</ele>
        <time>2022-02-27T00:06:10Z</time>
      </trkpt>
      <trkpt lat="40.649160" lon="-4.672580">
        <ele>1105.043</ele>
        <time>2022-02-27T00:06:50Z</time>
      </trkpt>
      <trkpt lat="40.649160" lon="-4.672590">
        <ele>1105.068</ele>
        <time>2022-02-27T00:07:30Z</time>
      </trkpt>
      <trkpt lat="40.649170" lon="-4.672600">
        <ele>1105.016</ele>
        <time>2022-02-27T00:08:10Z</time>
      </trkpt>
      <trkpt lat="40.649180" lon="-4.672610">
        <ele>1105.184</ele>
        <time>2022-02-27T00:08:50Z</time>
      </trkpt>
      <trkpt lat="40.649180" lon="-4.672620">
        <ele>1105.107</ele>
        <time>2022-02-27T00:09:30Z</time>
      </trkpt>
      <trkpt lat="40.649180" lon="-4.672640">
        <ele>1105.117</ele>
        <time>2022-02-27T00:10:10Z</time>
      </trkpt>
      <trkpt lat="40.649190" lon="-4.672650">
        <ele>1105.208</ele>
        <time>2022-02-27T00:10:50Z</time>
      </trkpt>
      <trkpt lat="40.649190" lon="-4.672660">
        <ele>1105.247</ele>
        <time>2022-02-27T00:11:30Z</time>
      </trkpt>
      <trkpt lat="40.649190" lon="-4.672670">
        <ele>1105.284</ele>
        <time>2022-02-27T00:12:10Z</time>
      </trkpt>
      <trkpt lat="40.649190" lon="-4.672680">
        <ele>1105.228</ele>
        <time>2022-02-27T00:12:50Z</time>
      </trkpt>
      <trkpt lat="40.649190" lon="-4.672700">
        <ele>1105.257</ele>
        <time>2022-02-27T00:13:30Z</time>
      </trkpt>
      <trkpt lat="40.649190" lon="-4.672710">
        <ele>1105.217</ele>
        <time>2022-02-27T00:14:10Z</time>
      </trkpt>
      <trkpt lat="40.649190" lon="-4.672720">
        <ele>1105.250</ele>
        <time>2022-02-27T00:14:50Z</time>
      </trkpt>
      <trkpt lat="40.649190" lon="-4.672730">
        <ele>1105.245</ele>
        <time>2022-02-27T00:15:30Z</time>
      </trkpt>
      <trkpt lat="40.649190" lon="-4.672740">
        <ele>1105.273</ele>
        <time>2022-02-27T00:16:10Z</time>
      </trkpt>
      <trkpt lat="40.649190" lon="-4.672750">
        <ele>1105.225</ele>
        <time>2022-02-27T00:16:50Z</time>
      </trkpt>
      <trkpt lat="40.649180" lon="-4.672760">
        <ele>1105.126</ele>
        <time>2022-02-27T00:17:30Z</time>
      </trkpt>
      <trkpt lat="40.649180" lon="-4.672770">
        <ele>1105.108</ele>
        <time>2022-02-27T00:18:10Z</time>
      </trkpt>
      <trkpt lat="40.649180" lon="-4.672780">
        <ele>1105.108</ele>
        <time>2022-02-27T00:18:50Z</time>
      </trkpt>
      <trkpt lat="40.649170" lon="-4.672780">
        <ele>1105.041</ele>
        <time>2022-02-27T00:19:30Z</time>
      </trkpt>
      <trkpt lat="40.649170" lon="-4.672790">
        <ele>1105.048</ele>
        <time>2022-02-27T00:20:10Z</time>
      </trkpt>
      <trkpt lat="40.649160" lon="-4.672800">
        <ele>1105.032</ele>
        <time>2022-02-27T00:20:50Z</time>
      </trkpt>
      <trkpt lat="40.649160" lon="-4.672810">
        <ele>1105.071</ele>
        <time>2022-02-27T00:21:30Z</time>
      </trkpt>
      <trkpt lat="40.649500" lon="-4.673470">
        <ele>1106.261</ele>
        <time>2022-02-27T00:22:10Z</time>
      </trkpt>
      <trkpt lat="40.649540" lon="-4.673550">
        <ele>1106.354</ele>
        <time>2022-02-27T00:22:50Z</time>
      </trkpt>
      <trkpt lat="40.649940" lon="-4.674350">
        <ele>1107.969</ele>
        <time>2022-02-27T00:23:30Z</time>
      </trkpt>
      <trkpt lat="40.650280" lon="-4.675080">
        <ele>1107.727</ele>
        <time>2022-02-27T00:24:10Z</time>
      </trkpt>
      <trkpt lat="40.650360" lon="-4.675260">
        <ele>1107.773</ele>
        <time>2022-02-27T00:24:50Z</time>
      </trkpt>
      <trkpt lat="40.650361" lon="-4.675256">
        <ele>1107.785</ele>
        <time>2022-02-27T00:25:30Z</time>
      </trkpt>
      <trkpt lat="40.650370" lon="-4.675250">
        <ele>1107.813</ele>
        <time>2022-02-27T00:26:10Z</time>
      </trkpt>
      <trkpt lat="40.650380" lon="-4.675250">
        <ele>1107.808</ele>
        <time>2022-02-27T00:26:50Z</time>
      </trkpt>
      <trkpt lat="40.650390" lon="-4.675250">
        <ele>1107.996</ele>
        <time>2022-02-27T00:27:30Z</time>
      </trkpt>
      <trkpt lat="40.650400" lon="-4.675250">
        <ele>1108.093</ele>
        <time>2022-02-27T00:28:10Z</time>
      </trkpt>
      <trkpt lat="40.650410" lon="-4.675250">
        <ele>1108.137</ele>
        <time>2022-02-27T00:28:50Z</time>
      </trkpt>
      <trkpt lat="40.650420" lon="-4.675250">
        <ele>1108.176</ele>
        <time>2022-02-27T00:29:30Z</time>
      </trkpt>
      <trkpt lat="40.650430" lon="-4.675250">
        <ele>1108.296</ele>
        <time>2022-02-27T00:30:10Z</time>
      </trkpt>
      <trkpt lat="40.650440" lon="-4.675260">
        <ele>1108.269</ele>
        <time>2022-02-27T00:30:50Z</time>
      </trkpt>
      <trkpt lat="40.650450" lon="-4.675260">
        <ele>1108.374</ele>
        <time>2022-02-27T00:31:30Z</time>
      </trkpt>
      <trkpt lat="40.650450" lon="-4.675270">
        <ele>1108.332</ele>
        <time>2022-02-27T00:32:10Z</time>
      </trkpt>
      <trkpt lat="40.650460" lon="-4.675270">
        <ele>1108.369</ele>
        <time>2022-02-27T00:32:50Z</time>
      </trkpt>
      <trkpt lat="40.650460" lon="-4.675280">
        <ele>1108.304</ele>
        <time>2022-02-27T00:33:30Z</time>
      </trkpt>
      <trkpt lat="40.650470" lon="-4.675280">
        <ele>1108.424</ele>
        <time>2022-02-27T00:34:10Z</time>
      </trkpt>
      <trkpt lat="40.650480" lon="-4.675290">
        <ele>1108.408</ele>
        <time>2022-02-27T00:34:50Z</time>
      </trkpt>
      <trkpt lat="40.650530" lon="-4.675240">
        <ele>1109.015</ele>
        <time>2022-02-27T00:35:30Z</time>
      </trkpt>
      <trkpt lat="40.650580" lon="-4.675180">
        <ele>1109.852</ele>
        <time>2022-02-27T00:36:10Z</time>
      </trkpt>
      <trkpt lat="40.650600" lon="-4.675150">
        <ele>1110.316</ele>
        <time>2022-02-27T00:36:50Z</time>
      </trkpt>
      <trkpt lat="40.650640" lon="-4.675080">
        <ele>1111.265</ele>
        <time>2022-02-27T00:37:30Z</time>
      </trkpt>
      <trkpt lat="40.650680" lon="-4.674980">
        <ele>1112.495</ele>
        <time>2022-02-27T00:38:10Z</time>
      </trkpt>
      <trkpt lat="40.650700" lon="-4.674910">
        <ele>1113.178</ele>
        <time>2022-02-27T00:38:50Z</time>
      </trkpt>
      <trkpt lat="40.650710" lon="-4.674850">
        <ele>1113.623</ele>
        <time>2022-02-27T00:39:30Z</time>
      </trkpt>
      <trkpt lat="40.650720" lon="-4.674760">
        <ele>1114.251</ele>
        <time>2022-02-27T00:40:10Z</time>
      </trkpt>
      <trkpt lat="40.650720" lon="-4.674670">
        <ele>1114.685</ele>
        <time>2022-02-27T00:40:50Z</time>
      </trkpt>
      <trkpt lat="40.650710" lon="-4.674570">
        <ele>1114.889</ele>
        <time>2022-02-27T00:41:30Z</time>
      </trkpt>
      <trkpt lat="40.650690" lon="-4.674430">
        <ele>1115.017</ele>
        <time>2022-02-27T00:42:10Z</time>
      </trkpt>
      <trkpt lat="40.650680" lon="-4.674380">
        <ele>1115.208</ele>
        <time>2022-02-27T00:42:50Z</time>
      </trkpt>
      <trkpt lat="40.650690" lon="-4.674330">
        <ele>1115.667</ele>
        <time>2022-02-27T00:43:30Z</time>
      </trkpt>
      <trkpt lat="40.650690" lon="-4.674250">
        <ele>1116.044</ele>
        <time>2022-02-27T00:44:10Z</time>
      </trkpt>
      <trkpt lat="40.650700" lon="-4.674200">
        <ele>1116.448</ele>
        <time>2022-02-27T00:44:50Z</time>
      </trkpt>
      <trkpt lat="40.650720" lon="-4.674150">
        <ele>1116.757</ele>
        <time>2022-02-27T00:45:30Z</time>
      </trkpt>
      <trkpt lat="40.650750" lon="-4.674080">
        <ele>1116.867</ele>
        <time>2022-02-27T00:46:10Z</time>
      </trkpt>
      <trkpt lat="40.650780" lon="-4.674010">
        <ele>1116.960</ele>
        <time>2022-02-27T00:46:50Z</time>
      </trkpt>
      <trkpt lat="40.650820" lon="-4.673950">
        <ele>1117.145</ele>
        <time>2022-02-27T00:47:30Z</time>
      </trkpt>
      <trkpt lat="40.650860" lon="-4.673900">
        <ele>1117.373</ele>
        <time>2022-02-27T00:48:10Z</time>
      </trkpt>
      <trkpt lat="40.650960" lon="-4.673800">
        <ele>1118.058</ele>
        <time>2022-02-27T00:48:50Z</time>
      </trkpt>
      <trkpt lat="40.650956" lon="-4.673804">
        <ele>1118.052</ele>
        <time>2022-02-27T00:49:30Z</time>
      </trkpt>
      <trkpt lat="40.650950" lon="-4.673780">
        <ele>1117.917</ele>
        <time>2022-02-27T00:50:10Z</time>
      </trkpt>
      <trkpt lat="40.650940" lon="-4.673760">
        <ele>1117.708</ele>
        <time>2022-02-27T00:50:50Z</time>
      </trkpt>
      <trkpt lat="40.650940" lon="-4.673740">
        <ele>1117.664</ele>
        <time>2022-02-27T00:51:30Z</time>
      </trkpt>
      <trkpt lat="40.650940" lon="-4.673720">
        <ele>1117.531</ele>
        <time>2022-02-27T00:52:10Z</time>
      </trkpt>
      <trkpt lat="40.650940" lon="-4.673700">
        <ele>1117.515</ele>
        <time>2022-02-27T00:52:50Z</time>
      </trkpt>
      <trkpt lat="40.650930" lon="-4.673680">
        <ele>1117.364</ele>
        <time>2022-02-27T00:53:30Z</time>
      </trkpt>
      <trkpt lat="40.650940" lon="-4.673660">
        <ele>1117.374</ele>
        <time>2022-02-27T00:54:10Z</time>
      </trkpt>
      <trkpt lat="40.650940" lon="-4.673640">
        <ele>1117.397</ele>
        <time>2022-02-27T00:54:50Z</time>
      </trkpt>
      <trkpt lat="40.650940" lon="-4.673620">
        <ele>1117.272</ele>
        <time>2022-02-27T00:55:30Z</time>
      </trkpt>
      <trkpt lat="40.650950" lon="-4.673600">
        <ele>1117.350</ele>
        <time>2022-02-27T00:56:10Z</time>
      </trkpt>
      <trkpt lat="40.650950" lon="-4.673590">
        <ele>1117.476</ele>
        <time>2022-02-27T00:56:50Z</time>
      </trkpt>
      <trkpt lat="40.650960" lon="-4.673570">
        <ele>1117.690</ele>
        <time>2022-02-27T00:57:30Z</time>
      </trkpt>
      <trkpt lat="40.650970" lon="-4.673550">
        <ele>1117.819</ele>
        <time>2022-02-27T00:58:10Z</time>
      </trkpt>
      <trkpt lat="40.650980" lon="-4.673530">
        <ele>1118.008</ele>
        <time>2022-02-27T00:58:50Z</time>
      </trkpt>
      <trkpt lat="40.650990" lon="-4.673520">
        <ele>1118.256</ele>
        <time>2022-02-27T00:59:30Z</time>
      </trkpt>
      <trkpt lat="40.651000" lon="-4.673500">
        <ele>1118.493</ele>
        <time>2022-02-27T01:00:10Z</time>
      </trkpt>
      <trkpt lat="40.651010" lon="-4.673490">
        <ele>1118.577</ele>
        <time>2022-02-27T01:00:50Z</time>
      </trkpt>
      <trkpt lat="40.651030" lon="-4.673480">
        <ele>1118.726</ele>
        <time>2022-02-27T01:01:30Z</time>
      </trkpt>
      <trkpt lat="40.651040" lon="-4.673470">
        <ele>1118.946</ele>
        <time>2022-02-27T01:02:10Z</time>
      </trkpt>
      <trkpt lat="40.651050" lon="-4.673460">
        <ele>1119.089</ele>
        <time>2022-02-27T01:02:50Z</time>
      </trkpt>
      <trkpt lat="40.651070" lon="-4.673460">
        <ele>1119.214</ele>
        <time>2022-02-27T01:03:30Z</time>
      </trkpt>
      <trkpt lat="40.651080" lon="-4.673450">
        <ele>1119.312</ele>
        <time>2022-02-27T01:04:10Z</time>
      </trkpt>
      <trkpt lat="40.651100" lon="-4.673450">
        <ele>1119.531</ele>
        <time>2022-02-27T01:04:50Z</time>
      </trkpt>
      <trkpt lat="40.651110" lon="-4.673450">
        <ele>1119.661</ele>
        <time>2022-02-27T01:05:30Z</time>
      </trkpt>
      <trkpt lat="40.651120" lon="-4.673450">
        <ele>1119.707</ele>
        <time>2022-02-27T01:06:10Z</time>
      </trkpt>
      <trkpt lat="40.651130" lon="-4.673450">
        <ele>1119.808</ele>
        <time>2022-02-27T01:06:50Z</time>
      </trkpt>
      <trkpt lat="40.651140" lon="-4.673450">
        <ele>1119.972</ele>
        <time>2022-02-27T01:07:30Z</time>
      </trkpt>
      <trkpt lat="40.651150" lon="-4.673450">
        <ele>1120.089</ele>
        <time>2022-02-27T01:08:10Z</time>
      </trkpt>
      <trkpt lat="40.651160" lon="-4.673460">
        <ele>1120.153</ele>
        <time>2022-02-27T01:08:50Z</time>
      </trkpt>
      <trkpt lat="40.651170" lon="-4.673460">
        <ele>1120.242</ele>
        <time>2022-02-27T01:09:30Z</time>
      </trkpt>
      <trkpt lat="40.651190" lon="-4.673470">
        <ele>1120.462</ele>
        <time>2022-02-27T01:10:10Z</time>
      </trkpt>
      <trkpt lat="40.651200" lon="-4.673480">
        <ele>1120.435</ele>
        <time>2022-02-27T01:10:50Z</time>
      </trkpt>
      <trkpt lat="40.651210" lon="-4.673490">
        <ele>1120.590</ele>
        <time>2022-02-27T01:11:30Z</time>
      </trkpt>
      <trkpt lat="40.651220" lon="-4.673500">
        <ele>1120.668</ele>
        <time>2022-02-27T01:12:10Z</time>
      </trkpt>
      <trkpt lat="40.651230" lon="-4.673500">
        <ele>1120.727</ele>
        <time>2022-02-27T01:12:50Z</time>
      </trkpt>
      <trkpt lat="40.651230" lon="-4.673510">
        <ele>1120.668</ele>
        <time>2022-02-27T01:13:30Z</time>
      </trkpt>
      <trkpt lat="40.651240" lon="-4.673520">
        <ele>1120.714</ele>
        <time>2022-02-27T01:14:10Z</time>
      </trkpt>
      <trkpt lat="40.651250" lon="-4.673540">
        <ele>1120.808</ele>
        <time>2022-02-27T01:14:50Z</time>
      </trkpt>
      <trkpt lat="40.651260" lon="-4.673550">
        <ele>1120.811</ele>
        <time>2022-02-27T01:15:30Z</time>
      </trkpt>
      <trkpt lat="40.651270" lon="-4.673570">
        <ele>1120.968</ele>
        <time>2022-02-27T01:16:10Z</time>
      </trkpt>
      <trkpt lat="40.651270" lon="-4.673580">
        <ele>1120.832</ele>
        <time>2022-02-27T01:16:50Z</time>
      </trkpt>
      <trkpt lat="40.651280" lon="-4.673600">
        <ele>1120.991</ele>
        <time>2022-02-27T01:17:30Z</time>
      </trkpt>
      <trkpt lat="40.651280" lon="-4.673620">
        <ele>1120.851</ele>
        <time>2022-02-27T01:18:10Z</time>
      </trkpt>
      <trkpt lat="40.651290" lon="-4.673630">
        <ele>1120.954</ele>
        <time>2022-02-27T01:18:50Z</time>
      </trkpt>
      <trkpt lat="40.651290" lon="-4.673650">
        <ele>1120.979</ele>
        <time>2022-02-27T01:19:30Z</time>
      </trkpt>
      <trkpt lat="40.651290" lon="-4.673670">
        <ele>1120.957</ele>
        <time>2022-02-27T01:20:10Z</time>
      </trkpt>
      <trkpt lat="40.651290" lon="-4.673680">
        <ele>1120.954</ele>
        <time>2022-02-27T01:20:50Z</time>
      </trkpt>
      <trkpt lat="40.651290" lon="-4.673700">
        <ele>1120.856</ele>
        <time>2022-02-27T01:21:30Z</time>
      </trkpt>
      <trkpt lat="40.651290" lon="-4.673710">
        <ele>1120.811</ele>
        <time>2022-02-27T01:22:10Z</time>
      </trkpt>
      <trkpt lat="40.651290" lon="-4.673720">
        <ele>1120.808</ele>
        <time>2022-02-27T01:22:50Z</time>
      </trkpt>
      <trkpt lat="40.651280" lon="-4.673740">
        <ele>1120.784</ele>
        <time>2022-02-27T01:23:30Z</time>
      </trkpt>
      <trkpt lat="40.651280" lon="-4.673750">
        <ele>1120.731</ele>
        <time>2022-02-27T01:24:10Z</time>
      </trkpt>
      <trkpt lat="40.651270" lon="-4.673770">
        <ele>1120.675</ele>
        <time>2022-02-27T01:24:50Z</time>
      </trkpt>
      <trkpt lat="40.651270" lon="-4.673790">
        <ele>1120.694</ele>
        <time>2022-02-27T01:25:30Z</time>
      </trkpt>
      <trkpt lat="40.651260" lon="-4.673800">
        <ele>1120.644</ele>
        <time>2022-02-27T01:26:10Z</time>
      </trkpt>
      <trkpt lat="40.651250" lon="-4.673820">
        <ele>1120.577</ele>
        <time>2022-02-27T01:26:50Z</time>
      </trkpt>
      <trkpt lat="40.651250" lon="-4.673830">
        <ele>1120.532</ele>
        <time>2022-02-27T01:27:30Z</time>
      </trkpt>
      <trkpt lat="40.651240" lon="-4.673840">
        <ele>1120.510</ele>
        <time>2022-02-27T01:28:10Z</time>
      </trkpt>
      <trkpt lat="40.651230" lon="-4.673850">
        <ele>1120.418</ele>
        <time>2022-02-27T01:28:50Z</time>
      </trkpt>
      <trkpt lat="40.651220" lon="-4.673860">
        <ele>1120.498</ele>
        <time>2022-02-27T01:29:30Z</time>
      </trkpt>
      <trkpt lat="40.651200" lon="-4.673870">
        <ele>1120.317</ele>
        <time>2022-02-27T01:30:10Z</time>
      </trkpt>
      <trkpt lat="40.651190" lon="-4.673880">
        <ele>1120.308</ele>
        <time>2022-02-27T01:30:50Z</time>
      </trkpt>
      <trkpt lat="40.651180" lon="-4.673890">
        <ele>1120.220</ele>
        <time>2022-02-27T01:31:30Z</time>
      </trkpt>
      <trkpt lat="40.651210" lon="-4.674120">
        <ele>1120.457</ele>
        <time>2022-02-27T01:32:10Z</time>
      </trkpt>
      <trkpt lat="40.651240" lon="-4.674360">
        <ele>1120.521</ele>
        <time>2022-02-27T01:32:50Z</time>
      </trkpt>
      <trkpt lat="40.651300" lon="-4.674730">
        <ele>1121.490</ele>
        <time>2022-02-27T01:33:30Z</time>
      </trkpt>
      <trkpt lat="40.651340" lon="-4.674970">
        <ele>1121.680</ele>
        <time>2022-02-27T01:34:10Z</time>
      </trkpt>
      <trkpt lat="40.651390" lon="-4.675150">
        <ele>1122.623</ele>
        <time>2022-02-27T01:34:50Z</time>
      </trkpt>
      <trkpt lat="40.651430" lon="-4.675270">
        <ele>1123.698</ele>
        <time>2022-02-27T01:35:30Z</time>
      </trkpt>
      <trkpt lat="40.651450" lon="-4.675310">
        <ele>1123.996</ele>
        <time>2022-02-27T01:36:10Z</time>
      </trkpt>
      <trkpt lat="40.651510" lon="-4.675440">
        <ele>1124.553</ele>
        <time>2022-02-27T01:36:50Z</time>
      </trkpt>
      <trkpt lat="40.651590" lon="-4.675570">
        <ele>1125.104</ele>
        <time>2022-02-27T01:37:30Z</time>
      </trkpt>
      <trkpt lat="40.651670" lon="-4.675700">
        <ele>1125.514</ele>
        <time>2022-02-27T01:38:10Z</time>
      </trkpt>
      <trkpt lat="40.651730" lon="-4.675770">
        <ele>1126.108</ele>
        <time>2022-02-27T01:38:50Z</time>
      </trkpt>
      <trkpt lat="40.651770" lon="-4.675820">
        <ele>1126.554</ele>
        <time>2022-02-27T01:39:30Z</time>
      </trkpt>
      <trkpt lat="40.651790" lon="-4.675840">
        <ele>1126.871</ele>
        <time>2022-02-27T01:40:10Z</time>
      </trkpt>
      <trkpt lat="40.651910" lon="-4.675990">
        <ele>1128.495</ele>
        <time>2022-02-27T01:40:50Z</time>
      </trkpt>
      <trkpt lat="40.651950" lon="-4.676030">
        <ele>1129.224</ele>
        <time>2022-02-27T01:41:30Z</time>
      </trkpt>
      <trkpt lat="40.651990" lon="-4.676080">
        <ele>1130.894</ele>
        <time>2022-02-27T01:42:10Z</time>
      </trkpt>
      <trkpt lat="40.651994" lon="-4.676077">
        <ele>1131.047</ele>
        <time>2022-02-27T01:42:50Z</time>
      </trkpt>
      <trkpt lat="40.652100" lon="-4.676190">
        <ele>1134.742</ele>
        <time>2022-02-27T01:43:30Z</time>
      </trkpt>
      <trkpt lat="40.652200" lon="-4.676310">
        <ele>1137.770</ele>
        <time>2022-02-27T01:44:10Z</time>
      </trkpt>
      <trkpt lat="40.652240" lon="-4.676360">
        <ele>1138.452</ele>
        <time>2022-02-27T01:44:50Z</time>
      </trkpt>
      <trkpt lat="40.652320" lon="-4.676470">
        <ele>1138.653</ele>
        <time>2022-02-27T01:45:30Z</time>
      </trkpt>
      <trkpt lat="40.652360" lon="-4.676540">
        <ele>1138.708</ele>
        <time>2022-02-27T01:46:10Z</time>
      </trkpt>
      <trkpt lat="40.652390" lon="-4.676580">
        <ele>1138.908</ele>
        <time>2022-02-27T01:46:50Z</time>
      </trkpt>
      <trkpt lat="40.652410" lon="-4.676620">
        <ele>1138.994</ele>
        <time>2022-02-27T01:47:30Z</time>
      </trkpt>
      <trkpt lat="40.652440" lon="-4.676670">
        <ele>1139.171</ele>
        <time>2022-02-27T01:48:10Z</time>
      </trkpt>
      <trkpt lat="40.652470" lon="-4.676730">
        <ele>1139.135</ele>
        <time>2022-02-27T01:48:50Z</time>
      </trkpt>
      <trkpt lat="40.652580" lon="-4.676930">
        <ele>1137.884</ele>
        <time>2022-02-27T01:49:30Z</time>
      </trkpt>
      <trkpt lat="40.652680" lon="-4.677110">
        <ele>1136.334</ele>
        <time>2022-02-27T01:50:10Z</time>
      </trkpt>
      <trkpt lat="40.652690" lon="-4.677110">
        <ele>1136.337</ele>
        <time>2022-02-27T01:50:50Z</time>
      </trkpt>
      <trkpt lat="40.652700" lon="-4.677100">
        <ele>1136.492</ele>
        <time>2022-02-27T01:51:30Z</time>
      </trkpt>
      <trkpt lat="40.652710" lon="-4.677100">
        <ele>1136.450</ele>
        <time>2022-02-27T01:52:10Z</time>
      </trkpt>
      <trkpt lat="40.652720" lon="-4.677090">
        <ele>1136.555</ele>
        <time>2022-02-27T01:52:50Z</time>
      </trkpt>
      <trkpt lat="40.652730" lon="-4.677090">
        <ele>1136.507</ele>
        <time>2022-02-27T01:53:30Z</time>
      </trkpt>
      <trkpt lat="40.652750" lon="-4.677090">
        <ele>1136.517</ele>
        <time>2022-02-27T01:54:10Z</time>
      </trkpt>
      <trkpt lat="40.652760" lon="-4.677090">
        <ele>1136.508</ele>
        <time>2022-02-27T01:54:50Z</time>
      </trkpt>
      <trkpt lat="40.652770" lon="-4.677090">
        <ele>1136.534</ele>
        <time>2022-02-27T01:55:30Z</time>
      </trkpt>
      <trkpt lat="40.652780" lon="-4.677090">
        <ele>1136.561</ele>
        <time>2022-02-27T01:56:10Z</time>
      </trkpt>
      <trkpt lat="40.652790" lon="-4.677100">
        <ele>1136.615</ele>
        <time>2022-02-27T01:56:50Z</time>
      </trkpt>
      <trkpt lat="40.652800" lon="-4.677100">
        <ele>1136.774</ele>
        <time>2022-02-27T01:57:30Z</time>
      </trkpt>
      <trkpt lat="40.652820" lon="-4.677110">
        <ele>1136.974</ele>
        <time>2022-02-27T01:58:10Z</time>
      </trkpt>
      <trkpt lat="40.652830" lon="-4.677110">
        <ele>1137.027</ele>
        <time>2022-02-27T01:58:50Z</time>
      </trkpt>
      <trkpt lat="40.652840" lon="-4.677120">
        <ele>1137.192</ele>
        <time>2022-02-27T01:59:30Z</time>
      </trkpt>
      <trkpt lat="40.652850" lon="-4.677130">
        <ele>1137.240</ele>
        <time>2022-02-27T02:00:10Z</time>
      </trkpt>
      <trkpt lat="40.652860" lon="-4.677140">
        <ele>1137.337</ele>
        <time>2022-02-27T02:00:50Z</time>
      </trkpt>
      <trkpt lat="40.652870" lon="-4.677150">
        <ele>1137.349</ele>
        <time>2022-02-27T02:01:30Z</time>
      </trkpt>
      <trkpt lat="40.652870" lon="-4.677160">
        <ele>1137.313</ele>
        <time>2022-02-27T02:02:10Z</time>
      </trkpt>
      <trkpt lat="40.652880" lon="-4.677170">
        <ele>1137.408</ele>
        <time>2022-02-27T02:02:50Z</time>
      </trkpt>
      <trkpt lat="40.652890" lon="-4.677190">
        <ele>1137.492</ele>
        <time>2022-02-27T02:03:30Z</time>
      </trkpt>
      <trkpt lat="40.652900" lon="-4.677200">
        <ele>1137.489</ele>
        <time>2022-02-27T02:04:10Z</time>
      </trkpt>
      <trkpt lat="40.652900" lon="-4.677210">
        <ele>1137.423</ele>
        <time>2022-02-27T02:04:50Z</time>
      </trkpt>
      <trkpt lat="40.652910" lon="-4.677230">
        <ele>1137.462</ele>
        <time>2022-02-27T02:05:30Z</time>
      </trkpt>
      <trkpt lat="40.652910" lon="-4.677240">
        <ele>1137.342</ele>
        <time>2022-02-27T02:06:10Z</time>
      </trkpt>
      <trkpt lat="40.652910" lon="-4.677260">
        <ele>1137.255</ele>
        <time>2022-02-27T02:06:50Z</time>
      </trkpt>
      <trkpt lat="40.652910" lon="-4.677270">
        <ele>1137.190</ele>
        <time>2022-02-27T02:07:30Z</time>
      </trkpt>
      <trkpt lat="40.652920" lon="-4.677290">
        <ele>1137.088</ele>
        <time>2022-02-27T02:08:10Z</time>
      </trkpt>
      <trkpt lat="40.652920" lon="-4.677310">
        <ele>1136.995</ele>
        <time>2022-02-27T02:08:50Z</time>
      </trkpt>
      <trkpt lat="40.652920" lon="-4.677320">
        <ele>1136.849</ele>
        <time>2022-02-27T02:09:30Z</time>
      </trkpt>
      <trkpt lat="40.652910" lon="-4.677340">
        <ele>1136.623</ele>
        <time>2022-02-27T02:10:10Z</time>
      </trkpt>
      <trkpt lat="40.652910" lon="-4.677350">
        <ele>1136.508</ele>
        <time>2022-02-27T02:10:50Z</time>
      </trkpt>
      <trkpt lat="40.652910" lon="-4.677370">
        <ele>1136.448</ele>
        <time>2022-02-27T02:11:30Z</time>
      </trkpt>
      <trkpt lat="40.652910" lon="-4.677380">
        <ele>1136.375</ele>
        <time>2022-02-27T02:12:10Z</time>
      </trkpt>
      <trkpt lat="40.652900" lon="-4.677400">
        <ele>1136.029</ele>
        <time>2022-02-27T02:12:50Z</time>
      </trkpt>
      <trkpt lat="40.653140" lon="-4.677750">
        <ele>1136.468</ele>
        <time>2022-02-27T02:13:30Z</time>
      </trkpt>
      <trkpt lat="40.653200" lon="-4.677830">
        <ele>1137.048</ele>
        <time>2022-02-27T02:14:10Z</time>
      </trkpt>
      <trkpt lat="40.653320" lon="-4.678000">
        <ele>1139.511</ele>
        <time>2022-02-27T02:14:50Z</time>
      </trkpt>
      <trkpt lat="40.653390" lon="-4.678100">
        <ele>1140.546</ele>
        <time>2022-02-27T02:15:30Z</time>
      </trkpt>
      <trkpt lat="40.653510" lon="-4.678270">
        <ele>1141.194</ele>
        <time>2022-02-27T02:16:10Z</time>
      </trkpt>
      <trkpt lat="40.653800" lon="-4.678680">
        <ele>1144.424</ele>
        <time>2022-02-27T02:16:50Z</time>
      </trkpt>
      <trkpt lat="40.654040" lon="-4.678990">
        <ele>1146.104</ele>
        <time>2022-02-27T02:17:30Z</time>
      </trkpt>
      <trkpt lat="40.654130" lon="-4.679090">
        <ele>1146.814</ele>
        <time>2022-02-27T02:18:10Z</time>
      </trkpt>
      <trkpt lat="40.654230" lon="-4.679170">
        <ele>1147.408</ele>
        <time>2022-02-27T02:18:50Z</time>
      </trkpt>
      <trkpt lat="40.654350" lon="-4.679260">
        <ele>1147.631</ele>
        <time>2022-02-27T02:19:30Z</time>
      </trkpt>
      <trkpt lat="40.654480" lon="-4.679340">
        <ele>1147.928</ele>
        <time>2022-02-27T02:20:10Z</time>
      </trkpt>
      <trkpt lat="40.654620" lon="-4.679400">
        <ele>1148.042</ele>
        <time>2022-02-27T02:20:50Z</time>
      </trkpt>
      <trkpt lat="40.654700" lon="-4.679430">
        <ele>1148.031</ele>
        <time>2022-02-27T02:21:30Z</time>
      </trkpt>
      <trkpt lat="40.654750" lon="-4.679440">
        <ele>1148.151</ele>
        <time>2022-02-27T02:22:10Z</time>
      </trkpt>
      <trkpt lat="40.654880" lon="-4.679460">
        <ele>1148.534</ele>
        <time>2022-02-27T02:22:50Z</time>
      </trkpt>
      <trkpt lat="40.655000" lon="-4.679460">
        <ele>1148.979</ele>
        <time>2022-02-27T02:23:30Z</time>
      </trkpt>
      <trkpt lat="40.655010" lon="-4.679450">
        <ele>1149.097</ele>
        <time>2022-02-27T02:24:10Z</time>
      </trkpt>
      <trkpt lat="40.655100" lon="-4.679440">
        <ele>1149.027</ele>
        <time>2022-02-27T02:24:50Z</time>
      </trkpt>
      <trkpt lat="40.655140" lon="-4.679440">
        <ele>1149.068</ele>
        <time>2022-02-27T02:25:30Z</time>
      </trkpt>
      <trkpt lat="40.655190" lon="-4.679420">
        <ele>1149.114</ele>
        <time>2022-02-27T02:26:10Z</time>
      </trkpt>
      <trkpt lat="40.655270" lon="-4.679410">
        <ele>1149.108</ele>
        <time>2022-02-27T02:26:50Z</time>
      </trkpt>
      <trkpt lat="40.655400" lon="-4.679370">
        <ele>1148.811</ele>
        <time>2022-02-27T02:27:30Z</time>
      </trkpt>
      <trkpt lat="40.655530" lon="-4.679320">
        <ele>1148.588</ele>
        <time>2022-02-27T02:28:10Z</time>
      </trkpt>
      <trkpt lat="40.655570" lon="-4.679290">
        <ele>1148.692</ele>
        <time>2022-02-27T02:28:50Z</time>
      </trkpt>
      <trkpt lat="40.655650" lon="-4.679250">
        <ele>1148.981</ele>
        <time>2022-02-27T02:29:30Z</time>
      </trkpt>
      <trkpt lat="40.655770" lon="-4.679160">
        <ele>1149.841</ele>
        <time>2022-02-27T02:30:10Z</time>
      </trkpt>
      <trkpt lat="40.655860" lon="-4.679080">
        <ele>1150.084</ele>
        <time>2022-02-27T02:30:50Z</time>
      </trkpt>
      <trkpt lat="40.655880" lon="-4.679070">
        <ele>1150.179</ele>
        <time>2022-02-27T02:31:30Z</time>
      </trkpt>
      <trkpt lat="40.655990" lon="-4.678960">
        <ele>1150.497</ele>
        <time>2022-02-27T02:32:10Z</time>
      </trkpt>
      <trkpt lat="40.656020" lon="-4.678920">
        <ele>1150.643</ele>
        <time>2022-02-27T02:32:50Z</time>
      </trkpt>
      <trkpt lat="40.656080" lon="-4.678840">
        <ele>1151.164</ele>
        <time>2022-02-27T02:33:30Z</time>
      </trkpt>
      <trkpt lat="40.656130" lon="-4.678770">
        <ele>1151.310</ele>
        <time>2022-02-27T02:34:10Z</time>
      </trkpt>
      <trkpt lat="40.656150" lon="-4.678750">
        <ele>1151.208</ele>
        <time>2022-02-27T02:34:50Z</time>
      </trkpt>
      <trkpt lat="40.656170" lon="-4.678720">
        <ele>1151.263</ele>
        <time>2022-02-27T02:35:30Z</time>
      </trkpt>
      <trkpt lat="40.656260" lon="-4.678610">
        <ele>1150.930</ele>
        <time>2022-02-27T02:36:10Z</time>
      </trkpt>
      <trkpt lat="40.656440" lon="-4.678490">
        <ele>1149.484</ele>
        <time>2022-02-27T02:36:50Z</time>
      </trkpt>
      <trkpt lat="40.656550" lon="-4.678400">
        <ele>1148.383</ele>
        <time>2022-02-27T02:37:30Z</time>
      </trkpt>
      <trkpt lat="40.656554" lon="-4.678401">
        <ele>1148.273</ele>
        <time>2022-02-27T02:38:10Z</time>
      </trkpt>
      <trkpt lat="40.656560" lon="-4.678390">
        <ele>1148.226</ele>
        <time>2022-02-27T02:38:50Z</time>
      </trkpt>
      <trkpt lat="40.656560" lon="-4.678370">
        <ele>1148.231</ele>
        <time>2022-02-27T02:39:30Z</time>
      </trkpt>
      <trkpt lat="40.656560" lon="-4.678360">
        <ele>1148.249</ele>
        <time>2022-02-27T02:40:10Z</time>
      </trkpt>
      <trkpt lat="40.656570" lon="-4.678340">
        <ele>1148.088</ele>
        <time>2022-02-27T02:40:50Z</time>
      </trkpt>
      <trkpt lat="40.656580" lon="-4.678330">
        <ele>1147.924</ele>
        <time>2022-02-27T02:41:30Z</time>
      </trkpt>
      <trkpt lat="40.656580" lon="-4.678310">
        <ele>1148.026</ele>
        <time>2022-02-27T02:42:10Z</time>
      </trkpt>
      <trkpt lat="40.656590" lon="-4.678300">
        <ele>1147.908</ele>
        <time>2022-02-27T02:42:50Z</time>
      </trkpt>
      <trkpt lat="40.656600" lon="-4.678290">
        <ele>1147.827</ele>
        <time>2022-02-27T02:43:30Z</time>
      </trkpt>
      <trkpt lat="40.656610" lon="-4.678280">
        <ele>1147.754</ele>
        <time>2022-02-27T02:44:10Z</time>
      </trkpt>
      <trkpt lat="40.656620" lon="-4.678270">
        <ele>1147.588</ele>
        <time>2022-02-27T02:44:50Z</time>
      </trkpt>
      <trkpt lat="40.656630" lon="-4.678260">
        <ele>1147.427</ele>
        <time>2022-02-27T02:45:30Z</time>
      </trkpt>
      <trkpt lat="40.656640" lon="-4.678250">
        <ele>1147.397</ele>
        <time>2022-02-27T02:46:10Z</time>
      </trkpt>
      <trkpt lat="40.656650" lon="-4.678240">
        <ele>1147.270</ele>
        <time>2022-02-27T02:46:50Z</time>
      </trkpt>
      <trkpt lat="40.656660" lon="-4.678230">
        <ele>1147.175</ele>
        <time>2022-02-27T02:47:30Z</time>
      </trkpt>
      <trkpt lat="40.656670" lon="-4.678230">
        <ele>1147.053</ele>
        <time>2022-02-27T02:48:10Z</time>
      </trkpt>
      <trkpt lat="40.656680" lon="-4.678220">
        <ele>1146.979</ele>
        <time>2022-02-27T02:48:50Z</time>
      </trkpt>
      <trkpt lat="40.656700" lon="-4.678220">
        <ele>1146.605</ele>
        <time>2022-02-27T02:49:30Z</time>
      </trkpt>
      <trkpt lat="40.656710" lon="-4.678220">
        <ele>1146.525</ele>
        <time>2022-02-27T02:50:10Z</time>
      </trkpt>
      <trkpt lat="40.656720" lon="-4.678220">
        <ele>1146.408</ele>
        <time>2022-02-27T02:50:50Z</time>
      </trkpt>
      <trkpt lat="40.656730" lon="-4.678220">
        <ele>1146.366</ele>
        <time>2022-02-27T02:51:30Z</time>
      </trkpt>
      <trkpt lat="40.656750" lon="-4.678220">
        <ele>1146.153</ele>
        <time>2022-02-27T02:52:10Z</time>
      </trkpt>
      <trkpt lat="40.656760" lon="-4.678230">
        <ele>1146.077</ele>
        <time>2022-02-27T02:52:50Z</time>
      </trkpt>
      <trkpt lat="40.656770" lon="-4.678230">
        <ele>1145.966</ele>
        <time>2022-02-27T02:53:30Z</time>
      </trkpt>
      <trkpt lat="40.656780" lon="-4.678230">
        <ele>1145.826</ele>
        <time>2022-02-27T02:54:10Z</time>
      </trkpt>
      <trkpt lat="40.656780" lon="-4.678240">
        <ele>1145.899</ele>
        <time>2022-02-27T02:54:50Z</time>
      </trkpt>
      <trkpt lat="40.656790" lon="-4.678240">
        <ele>1145.724</ele>
        <time>2022-02-27T02:55:30Z</time>
      </trkpt>
      <trkpt lat="40.656800" lon="-4.678250">
        <ele>1145.622</ele>
        <time>2022-02-27T02:56:10Z</time>
      </trkpt>
      <trkpt lat="40.656810" lon="-4.678260">
        <ele>1145.551</ele>
        <time>2022-02-27T02:56:50Z</time>
      </trkpt>
      <trkpt lat="40.656820" lon="-4.678260">
        <ele>1145.301</ele>
        <time>2022-02-27T02:57:30Z</time>
      </trkpt>
      <trkpt lat="40.656820" lon="-4.678270">
        <ele>1145.311</ele>
        <time>2022-02-27T02:58:10Z</time>
      </trkpt>
      <trkpt lat="40.656830" lon="-4.678280">
        <ele>1145.208</ele>
        <time>2022-02-27T02:58:50Z</time>
      </trkpt>
      <trkpt lat="40.656840" lon="-4.678280">
        <ele>1145.194</ele>
        <time>2022-02-27T02:59:30Z</time>
      </trkpt>
      <trkpt lat="40.656840" lon="-4.678290">
        <ele>1145.191</ele>
        <time>2022-02-27T03:00:10Z</time>
      </trkpt>
      <trkpt lat="40.656850" lon="-4.678300">
        <ele>1145.015</ele>
        <time>2022-02-27T03:00:50Z</time>
      </trkpt>
      <trkpt lat="40.656850" lon="-4.678310">
        <ele>1145.024</ele>
        <time>2022-02-27T03:01:30Z</time>
      </trkpt>
      <trkpt lat="40.656860" lon="-4.678320">
        <ele>1144.934</ele>
        <time>2022-02-27T03:02:10Z</time>
      </trkpt>
      <trkpt lat="40.656860" lon="-4.678330">
        <ele>1144.967</ele>
        <time>2022-02-27T03:02:50Z</time>
      </trkpt>
      <trkpt lat="40.656870" lon="-4.678340">
        <ele>1144.852</ele>
        <time>2022-02-27T03:03:30Z</time>
      </trkpt>
      <trkpt lat="40.656870" lon="-4.678370">
        <ele>1144.810</ele>
        <time>2022-02-27T03:04:10Z</time>
      </trkpt>
      <trkpt lat="40.656880" lon="-4.678380">
        <ele>1144.785</ele>
        <time>2022-02-27T03:04:50Z</time>
      </trkpt>
      <trkpt lat="40.656880" lon="-4.678400">
        <ele>1144.789</ele>
        <time>2022-02-27T03:05:30Z</time>
      </trkpt>
      <trkpt lat="40.656880" lon="-4.678410">
        <ele>1144.717</ele>
        <time>2022-02-27T03:06:10Z</time>
      </trkpt>
      <trkpt lat="40.656880" lon="-4.678430">
        <ele>1144.708</ele>
        <time>2022-02-27T03:06:50Z</time>
      </trkpt>
      <trkpt lat="40.656880" lon="-4.678450">
        <ele>1144.797</ele>
        <time>2022-02-27T03:07:30Z</time>
      </trkpt>
      <trkpt lat="40.656880" lon="-4.678460">
        <ele>1144.714</ele>
        <time>2022-02-27T03:08:10Z</time>
      </trkpt>
      <trkpt lat="40.656880" lon="-4.678480">
        <ele>1144.748</ele>
        <time>2022-02-27T03:08:50Z</time>
      </trkpt>
      <trkpt lat="40.656880" lon="-4.678490">
        <ele>1144.747</ele>
        <time>2022-02-27T03:09:30Z</time>
      </trkpt>
      <trkpt lat="40.656880" lon="-4.678510">
        <ele>1144.747</ele>
        <time>2022-02-27T03:10:10Z</time>
      </trkpt>
      <trkpt lat="40.656870" lon="-4.678520">
        <ele>1144.870</ele>
        <time>2022-02-27T03:10:50Z</time>
      </trkpt>
      <trkpt lat="40.656870" lon="-4.678530">
        <ele>1144.865</ele>
        <time>2022-02-27T03:11:30Z</time>
      </trkpt>
      <trkpt lat="40.656860" lon="-4.678550">
        <ele>1144.913</ele>
        <time>2022-02-27T03:12:10Z</time>
      </trkpt>
      <trkpt lat="40.656860" lon="-4.678560">
        <ele>1144.924</ele>
        <time>2022-02-27T03:12:50Z</time>
      </trkpt>
      <trkpt lat="40.656850" lon="-4.678570">
        <ele>1145.004</ele>
        <time>2022-02-27T03:13:30Z</time>
      </trkpt>
      <trkpt lat="40.656840" lon="-4.678580">
        <ele>1145.114</ele>
        <time>2022-02-27T03:14:10Z</time>
      </trkpt>
      <trkpt lat="40.656830" lon="-4.678590">
        <ele>1145.208</ele>
        <time>2022-02-27T03:14:50Z</time>
      </trkpt>
      <trkpt lat="40.656830" lon="-4.678600">
        <ele>1145.291</ele>
        <time>2022-02-27T03:15:30Z</time>
      </trkpt>
      <trkpt lat="40.656820" lon="-4.678610">
        <ele>1145.338</ele>
        <time>2022-02-27T03:16:10Z</time>
      </trkpt>
      <trkpt lat="40.656810" lon="-4.678620">
        <ele>1145.582</ele>
        <time>2022-02-27T03:16:50Z</time>
      </trkpt>
      <trkpt lat="40.656800" lon="-4.678630">
        <ele>1145.691</ele>
        <time>2022-02-27T03:17:30Z</time>
      </trkpt>
      <trkpt lat="40.656790" lon="-4.678630">
        <ele>1145.751</ele>
        <time>2022-02-27T03:18:10Z</time>
      </trkpt>
      <trkpt lat="40.656790" lon="-4.678640">
        <ele>1145.734</ele>
        <time>2022-02-27T03:18:50Z</time>
      </trkpt>
      <trkpt lat="40.656780" lon="-4.678780">
        <ele>1145.899</ele>
        <time>2022-02-27T03:19:30Z</time>
      </trkpt>
      <trkpt lat="40.656770" lon="-4.678970">
        <ele>1145.727</ele>
        <time>2022-02-27T03:20:10Z</time>
      </trkpt>
      <trkpt lat="40.656820" lon="-4.679440">
        <ele>1144.458</ele>
        <time>2022-02-27T03:20:50Z</time>
      </trkpt>
      <trkpt lat="40.656860" lon="-4.679770">
        <ele>1143.752</ele>
        <time>2022-02-27T03:21:30Z</time>
      </trkpt>
      <trkpt lat="40.656870" lon="-4.679910">
        <ele>1143.117</ele>
        <time>2022-02-27T03:22:10Z</time>
      </trkpt>
      <trkpt lat="40.656880" lon="-4.679960">
        <ele>1142.808</ele>
        <time>2022-02-27T03:22:50Z</time>
      </trkpt>
      <trkpt lat="40.656890" lon="-4.680030">
        <ele>1142.664</ele>
        <time>2022-02-27T03:23:30Z</time>
      </trkpt>
      <trkpt lat="40.656920" lon="-4.680160">
        <ele>1142.221</ele>
        <time>2022-02-27T03:24:10Z</time>
      </trkpt>
      <trkpt lat="40.656950" lon="-4.680270">
        <ele>1142.025</ele>
        <time>2022-02-27T03:24:50Z</time>
      </trkpt>
      <trkpt lat="40.656990" lon="-4.680380">
        <ele>1141.734</ele>
        <time>2022-02-27T03:25:30Z</time>
      </trkpt>
      <trkpt lat="40.657060" lon="-4.680500">
        <ele>1141.244</ele>
        <time>2022-02-27T03:26:10Z</time>
      </trkpt>
      <trkpt lat="40.657057" lon="-4.680504">
        <ele>1141.237</ele>
        <time>2022-02-27T03:26:50Z</time>
      </trkpt>
      <trkpt lat="40.656840" lon="-4.680540">
        <ele>1142.892</ele>
        <time>2022-02-27T03:27:30Z</time>
      </trkpt>
      <trkpt lat="40.656680" lon="-4.680560">
        <ele>1143.990</ele>
        <time>2022-02-27T03:28:10Z</time>
      </trkpt>
      <trkpt lat="40.656500" lon="-4.680590">
        <ele>1145.149</ele>
        <time>2022-02-27T03:28:50Z</time>
      </trkpt>
      <trkpt lat="40.656504" lon="-4.680589">
        <ele>1145.102</ele>
        <time>2022-02-27T03:29:30Z</time>
      </trkpt>
      <trkpt lat="40.656350" lon="-4.680980">
        <ele>1143.922</ele>
        <time>2022-02-27T03:30:10Z</time>
      </trkpt>
      <trkpt lat="40.656351" lon="-4.680981">
        <ele>1143.908</ele>
        <time>2022-02-27T03:30:50Z</time>
      </trkpt>
      <trkpt lat="40.656351" lon="-4.680981">
        <ele>1143.953</ele>
        <time>2022-02-24T09:56:16Z</time>
      </trkpt>
      <trkpt lat="40.656500" lon="-4.680590">
        <ele>1145.104</ele>
        <time>2022-02-24T09:56:56Z</time>
      </trkpt>
      <trkpt lat="40.656504" lon="-4.680589">
        <ele>1145.114</ele>
        <time>2022-02-24T09:57:36Z</time>
      </trkpt>
      <trkpt lat="40.656680" lon="-4.680560">
        <ele>1143.908</ele>
        <time>2022-02-24T09:58:16Z</time>
      </trkpt>
      <trkpt lat="40.656840" lon="-4.680540">
        <ele>1142.874</ele>
        <time>2022-02-24T09:58:56Z</time>
      </trkpt>
      <trkpt lat="40.657060" lon="-4.680500">
        <ele>1141.271</ele>
        <time>2022-02-24T09:59:36Z</time>
      </trkpt>
      <trkpt lat="40.657057" lon="-4.680504">
        <ele>1141.255</ele>
        <time>2022-02-24T10:00:16Z</time>
      </trkpt>
      <trkpt lat="40.657180" lon="-4.680620">
        <ele>1140.394</ele>
        <time>2022-02-24T10:00:56Z</time>
      </trkpt>
      <trkpt lat="40.657300" lon="-4.680710">
        <ele>1139.473</ele>
        <time>2022-02-24T10:01:36Z</time>
      </trkpt>
      <trkpt lat="40.657410" lon="-4.680780">
        <ele>1138.634</ele>
        <time>2022-02-24T10:02:16Z</time>
      </trkpt>
      <trkpt lat="40.657530" lon="-4.680830">
        <ele>1137.755</ele>
        <time>2022-02-24T10:02:56Z</time>
      </trkpt>
      <trkpt lat="40.657620" lon="-4.680880">
        <ele>1136.657</ele>
        <time>2022-02-24T10:03:36Z</time>
      </trkpt>
      <trkpt lat="40.657670" lon="-4.680910">
        <ele>1136.196</ele>
        <time>2022-02-24T10:04:16Z</time>
      </trkpt>
      <trkpt lat="40.658050" lon="-4.681090">
        <ele>1133.031</ele>
        <time>2022-02-24T10:04:56Z</time>
      </trkpt>
      <trkpt lat="40.658130" lon="-4.681130">
        <ele>1132.524</ele>
        <time>2022-02-24T10:05:36Z</time>
      </trkpt>
      <trkpt lat="40.658290" lon="-4.681200">
        <ele>1131.308</ele>
        <time>2022-02-24T10:06:16Z</time>
      </trkpt>
      <trkpt lat="40.658470" lon="-4.681290">
        <ele>1129.548</ele>
        <time>2022-02-24T10:06:56Z</time>
      </trkpt>
      <trkpt lat="40.658650" lon="-4.681380">
        <ele>1127.935</ele>
        <time>2022-02-24T10:07:36Z</time>
      </trkpt>
      <trkpt lat="40.658740" lon="-4.681400">
        <ele>1127.549</ele>
        <time>2022-02-24T10:08:16Z</time>
      </trkpt>
      <trkpt lat="40.658870" lon="-4.681430">
        <ele>1126.978</ele>
        <time>2022-02-24T10:08:56Z</time>
      </trkpt>
      <trkpt lat="40.658871" lon="-4.681433">
        <ele>1126.987</ele>
        <time>2022-02-24T10:09:36Z</time>
      </trkpt>
      <trkpt lat="40.658880" lon="-4.681430">
        <ele>1126.948</ele>
        <time>2022-02-24T10:10:16Z</time>
      </trkpt>
      <trkpt lat="40.658880" lon="-4.681420">
        <ele>1126.989</ele>
        <time>2022-02-24T10:10:56Z</time>
      </trkpt>
      <trkpt lat="40.658890" lon="-4.681420">
        <ele>1126.941</ele>
        <time>2022-02-24T10:11:36Z</time>
      </trkpt>
      <trkpt lat="40.658890" lon="-4.681410">
        <ele>1126.951</ele>
        <time>2022-02-24T10:12:16Z</time>
      </trkpt>
      <trkpt lat="40.658900" lon="-4.681410">
        <ele>1126.801</ele>
        <time>2022-02-24T10:12:56Z</time>
      </trkpt>
      <trkpt lat="40.658910" lon="-4.681400">
        <ele>1126.811</ele>
        <time>2022-02-24T10:13:36Z</time>
      </trkpt>
      <trkpt lat="40.658920" lon="-4.681400">
        <ele>1126.708</ele>
        <time>2022-02-24T10:14:16Z</time>
      </trkpt>
      <trkpt lat="40.658930" lon="-4.681400">
        <ele>1126.754</ele>
        <time>2022-02-24T10:14:56Z</time>
      </trkpt>
      <trkpt lat="40.658940" lon="-4.681400">
        <ele>1126.631</ele>
        <time>2022-02-24T10:15:36Z</time>
      </trkpt>
      <trkpt lat="40.658950" lon="-4.681400">
        <ele>1126.565</ele>
        <time>2022-02-24T10:16:16Z</time>
      </trkpt>
      <trkpt lat="40.658960" lon="-4.681400">
        <ele>1126.584</ele>
        <time>2022-02-24T10:16:56Z</time>
      </trkpt>
      <trkpt lat="40.658970" lon="-4.681400">
        <ele>1126.473</ele>
        <time>2022-02-24T10:17:36Z</time>
      </trkpt>
      <trkpt lat="40.658980" lon="-4.681410">
        <ele>1126.314</ele>
        <time>2022-02-24T10:18:16Z</time>
      </trkpt>
      <trkpt lat="40.658990" lon="-4.681410">
        <ele>1126.295</ele>
        <time>2022-02-24T10:18:56Z</time>
      </trkpt>
      <trkpt lat="40.659000" lon="-4.681410">
        <ele>1126.227</ele>
        <time>2022-02-24T10:19:36Z</time>
      </trkpt>
      <trkpt lat="40.659000" lon="-4.681420">
        <ele>1126.174</ele>
        <time>2022-02-24T10:20:16Z</time>
      </trkpt>
      <trkpt lat="40.659010" lon="-4.681420">
        <ele>1126.156</ele>
        <time>2022-02-24T10:20:56Z</time>
      </trkpt>
      <trkpt lat="40.659020" lon="-4.681430">
        <ele>1126.021</ele>
        <time>2022-02-24T10:21:36Z</time>
      </trkpt>
      <trkpt lat="40.659020" lon="-4.681440">
        <ele>1126.008</ele>
        <time>2022-02-24T10:22:16Z</time>
      </trkpt>
      <trkpt lat="40.659030" lon="-4.681440">
        <ele>1125.936</ele>
        <time>2022-02-24T10:22:56Z</time>
      </trkpt>
      <trkpt lat="40.659030" lon="-4.681450">
        <ele>1125.943</ele>
        <time>2022-02-24T10:23:36Z</time>
      </trkpt>
      <trkpt lat="40.659030" lon="-4.681460">
        <ele>1125.957</ele>
        <time>2022-02-24T10:24:16Z</time>
      </trkpt>
      <trkpt lat="40.659040" lon="-4.681460">
        <ele>1125.896</ele>
        <time>2022-02-24T10:24:56Z</time>
      </trkpt>
      <trkpt lat="40.659040" lon="-4.681470">
        <ele>1125.895</ele>
        <time>2022-02-24T10:25:36Z</time>
      </trkpt>
      <trkpt lat="40.659040" lon="-4.681480">
        <ele>1125.856</ele>
        <time>2022-02-24T10:26:16Z</time>
      </trkpt>
      <trkpt lat="40.659050" lon="-4.681490">
        <ele>1125.767</ele>
        <time>2022-02-24T10:26:56Z</time>
      </trkpt>
      <trkpt lat="40.659050" lon="-4.681500">
        <ele>1125.719</ele>
        <time>2022-02-24T10:27:36Z</time>
      </trkpt>
      <trkpt lat="40.659050" lon="-4.681510">
        <ele>1125.787</ele>
        <time>2022-02-24T10:28:16Z</time>
      </trkpt>
      <trkpt lat="40.659050" lon="-4.681520">
        <ele>1125.642</ele>
        <time>2022-02-24T10:28:56Z</time>
      </trkpt>
      <trkpt lat="40.659050" lon="-4.681530">
        <ele>1125.626</ele>
        <time>2022-02-24T10:29:36Z</time>
      </trkpt>
      <trkpt lat="40.659050" lon="-4.681540">
        <ele>1125.608</ele>
        <time>2022-02-24T10:30:16Z</time>
      </trkpt>
      <trkpt lat="40.659050" lon="-4.681550">
        <ele>1125.617</ele>
        <time>2022-02-24T10:30:56Z</time>
      </trkpt>
      <trkpt lat="40.659050" lon="-4.681560">
        <ele>1125.644</ele>
        <time>2022-02-24T10:31:36Z</time>
      </trkpt>
      <trkpt lat="40.659050" lon="-4.681570">
        <ele>1125.618</ele>
        <time>2022-02-24T10:32:16Z</time>
      </trkpt>
      <trkpt lat="40.659050" lon="-4.681580">
        <ele>1125.647</ele>
        <time>2022-02-24T10:32:56Z</time>
      </trkpt>
      <trkpt lat="40.659050" lon="-4.681590">
        <ele>1125.516</ele>
        <time>2022-02-24T10:33:36Z</time>
      </trkpt>
      <trkpt lat="40.659040" lon="-4.681600">
        <ele>1125.637</ele>
        <time>2022-02-24T10:34:16Z</time>
      </trkpt>
      <trkpt lat="40.659040" lon="-4.681610">
        <ele>1125.558</ele>
        <time>2022-02-24T10:34:56Z</time>
      </trkpt>
      <trkpt lat="40.659040" lon="-4.681620">
        <ele>1125.570</ele>
        <time>2022-02-24T10:35:36Z</time>
      </trkpt>
      <trkpt lat="40.659030" lon="-4.681620">
        <ele>1125.671</ele>
        <time>2022-02-24T10:36:16Z</time>
      </trkpt>
      <trkpt lat="40.659030" lon="-4.681630">
        <ele>1125.641</ele>
        <time>2022-02-24T10:36:56Z</time>
      </trkpt>
      <trkpt lat="40.659020" lon="-4.681640">
        <ele>1125.615</ele>
        <time>2022-02-24T10:37:36Z</time>
      </trkpt>
      <trkpt lat="40.659020" lon="-4.681650">
        <ele>1125.608</ele>
        <time>2022-02-24T10:38:16Z</time>
      </trkpt>
      <trkpt lat="40.659010" lon="-4.681650">
        <ele>1125.636</ele>
        <time>2022-02-24T10:38:56Z</time>
      </trkpt>
      <trkpt lat="40.659010" lon="-4.681660">
        <ele>1125.663</ele>
        <time>2022-02-24T10:39:36Z</time>
      </trkpt>
      <trkpt lat="40.659000" lon="-4.681660">
        <ele>1125.637</ele>
        <time>2022-02-24T10:40:16Z</time>
      </trkpt>
      <trkpt lat="40.659000" lon="-4.681670">
        <ele>1125.696</ele>
        <time>2022-02-24T10:40:56Z</time>
      </trkpt>
      <trkpt lat="40.658990" lon="-4.681670">
        <ele>1125.625</ele>
        <time>2022-02-24T10:41:36Z</time>
      </trkpt>
      <trkpt lat="40.658980" lon="-4.681670">
        <ele>1125.796</ele>
        <time>2022-02-24T10:42:16Z</time>
      </trkpt>
      <trkpt lat="40.658980" lon="-4.681680">
        <ele>1125.667</ele>
        <time>2022-02-24T10:42:56Z</time>
      </trkpt>
      <trkpt lat="40.658970" lon="-4.681680">
        <ele>1125.729</ele>
        <time>2022-02-24T10:43:36Z</time>
      </trkpt>
      <trkpt lat="40.658930" lon="-4.681790">
        <ele>1125.422</ele>
        <time>2022-02-24T10:44:16Z</time>
      </trkpt>
      <trkpt lat="40.658920" lon="-4.681840">
        <ele>1125.362</ele>
        <time>2022-02-24T10:44:56Z</time>
      </trkpt>
      <trkpt lat="40.658870" lon="-4.682020">
        <ele>1125.108</ele>
        <time>2022-02-24T10:45:36Z</time>
      </trkpt>
      <trkpt lat="40.658860" lon="-4.682060">
        <ele>1125.108</ele>
        <time>2022-02-24T10:46:16Z</time>
      </trkpt>
      <trkpt lat="40.658850" lon="-4.682120">
        <ele>1125.161</ele>
        <time>2022-02-24T10:46:56Z</time>
      </trkpt>
      <trkpt lat="40.658790" lon="-4.682520">
        <ele>1124.448</ele>
        <time>2022-02-24T10:47:36Z</time>
      </trkpt>
      <trkpt lat="40.658790" lon="-4.682550">
        <ele>1124.452</ele>
        <time>2022-02-24T10:48:16Z</time>
      </trkpt>
      <trkpt lat="40.658780" lon="-4.682570">
        <ele>1124.441</ele>
        <time>2022-02-24T10:48:56Z</time>
      </trkpt>
      <trkpt lat="40.658760" lon="-4.682680">
        <ele>1124.510</ele>
        <time>2022-02-24T10:49:36Z</time>
      </trkpt>
      <trkpt lat="40.658740" lon="-4.682740">
        <ele>1124.541</ele>
        <time>2022-02-24T10:50:16Z</time>
      </trkpt>
      <trkpt lat="40.658680" lon="-4.682930">
        <ele>1124.292</ele>
        <time>2022-02-24T10:50:56Z</time>
      </trkpt>
      <trkpt lat="40.658640" lon="-4.683070">
        <ele>1123.924</ele>
        <time>2022-02-24T10:51:36Z</time>
      </trkpt>
      <trkpt lat="40.658570" lon="-4.683310">
        <ele>1124.922</ele>
        <time>2022-02-24T10:52:16Z</time>
      </trkpt>
      <trkpt lat="40.658530" lon="-4.683420">
        <ele>1125.462</ele>
        <time>2022-02-24T10:52:56Z</time>
      </trkpt>
      <trkpt lat="40.658450" lon="-4.683730">
        <ele>1126.208</ele>
        <time>2022-02-24T10:53:36Z</time>
      </trkpt>
      <trkpt lat="40.658300" lon="-4.684290">
        <ele>1126.608</ele>
        <time>2022-02-24T10:54:16Z</time>
      </trkpt>
      <trkpt lat="40.658302" lon="-4.684293">
        <ele>1126.551</ele>
        <time>2022-02-24T10:54:56Z</time>
      </trkpt>
      <trkpt lat="40.658310" lon="-4.684310">
        <ele>1126.548</ele>
        <time>2022-02-24T10:55:36Z</time>
      </trkpt>
      <trkpt lat="40.658310" lon="-4.684320">
        <ele>1126.432</ele>
        <time>2022-02-24T10:56:16Z</time>
      </trkpt>
      <trkpt lat="40.658310" lon="-4.684330">
        <ele>1126.491</ele>
        <time>2022-02-24T10:56:56Z</time>
      </trkpt>
      <trkpt lat="40.658320" lon="-4.684340">
        <ele>1126.420</ele>
        <time>2022-02-24T10:57:36Z</time>
      </trkpt>
      <trkpt lat="40.658320" lon="-4.684360">
        <ele>1126.361</ele>
        <time>2022-02-24T10:58:16Z</time>
      </trkpt>
      <trkpt lat="40.658320" lon="-4.684370">
        <ele>1126.322</ele>
        <time>2022-02-24T10:58:56Z</time>
      </trkpt>
      <trkpt lat="40.658320" lon="-4.684380">
        <ele>1126.284</ele>
        <time>2022-02-24T10:59:36Z</time>
      </trkpt>
      <trkpt lat="40.658320" lon="-4.684390">
        <ele>1126.296</ele>
        <time>2022-02-24T11:00:16Z</time>
      </trkpt>
      <trkpt lat="40.658320" lon="-4.684410">
        <ele>1126.131</ele>
        <time>2022-02-24T11:00:56Z</time>
      </trkpt>
      <trkpt lat="40.658320" lon="-4.684420">
        <ele>1126.124</ele>
        <time>2022-02-24T11:01:36Z</time>
      </trkpt>
      <trkpt lat="40.658320" lon="-4.684430">
        <ele>1126.108</ele>
        <time>2022-02-24T11:02:16Z</time>
      </trkpt>
      <trkpt lat="40.658310" lon="-4.684440">
        <ele>1126.038</ele>
        <time>2022-02-24T11:02:56Z</time>
      </trkpt>
      <trkpt lat="40.658310" lon="-4.684460">
        <ele>1125.965</ele>
        <time>2022-02-24T11:03:36Z</time>
      </trkpt>
      <trkpt lat="40.658310" lon="-4.684470">
        <ele>1125.839</ele>
        <time>2022-02-24T11:04:16Z</time>
      </trkpt>
      <trkpt lat="40.658300" lon="-4.684480">
        <ele>1125.888</ele>
        <time>2022-02-24T11:04:56Z</time>
      </trkpt>
      <trkpt lat="40.658300" lon="-4.684490">
        <ele>1125.717</ele>
        <time>2022-02-24T11:05:36Z</time>
      </trkpt>
      <trkpt lat="40.658290" lon="-4.684500">
        <ele>1125.628</ele>
        <time>2022-02-24T11:06:16Z</time>
      </trkpt>
      <trkpt lat="40.658280" lon="-4.684510">
        <ele>1125.629</ele>
        <time>2022-02-24T11:06:56Z</time>
      </trkpt>
      <trkpt lat="40.658280" lon="-4.684520">
        <ele>1125.531</ele>
        <time>2022-02-24T11:07:36Z</time>
      </trkpt>
      <trkpt lat="40.658270" lon="-4.684530">
        <ele>1125.554</ele>
        <time>2022-02-24T11:08:16Z</time>
      </trkpt>
      <trkpt lat="40.658260" lon="-4.684540">
        <ele>1125.456</ele>
        <time>2022-02-24T11:08:56Z</time>
      </trkpt>
      <trkpt lat="40.658250" lon="-4.684540">
        <ele>1125.411</ele>
        <time>2022-02-24T11:09:36Z</time>
      </trkpt>
      <trkpt lat="40.658240" lon="-4.684550">
        <ele>1125.408</ele>
        <time>2022-02-24T11:10:16Z</time>
      </trkpt>
      <trkpt lat="40.658230" lon="-4.684560">
        <ele>1125.334</ele>
        <time>2022-02-24T11:10:56Z</time>
      </trkpt>
      <trkpt lat="40.658220" lon="-4.684560">
        <ele>1125.311</ele>
        <time>2022-02-24T11:11:36Z</time>
      </trkpt>
      <trkpt lat="40.658200" lon="-4.684570">
        <ele>1125.335</ele>
        <time>2022-02-24T11:12:16Z</time>
      </trkpt>
      <trkpt lat="40.658190" lon="-4.684570">
        <ele>1125.324</ele>
        <time>2022-02-24T11:12:56Z</time>
      </trkpt>
      <trkpt lat="40.658180" lon="-4.684570">
        <ele>1125.343</ele>
        <time>2022-02-24T11:13:36Z</time>
      </trkpt>
      <trkpt lat="40.658170" lon="-4.684570">
        <ele>1125.494</ele>
        <time>2022-02-24T11:14:16Z</time>
      </trkpt>
      <trkpt lat="40.658160" lon="-4.684570">
        <ele>1125.425</ele>
        <time>2022-02-24T11:14:56Z</time>
      </trkpt>
      <trkpt lat="40.658150" lon="-4.684570">
        <ele>1125.497</ele>
        <time>2022-02-24T11:15:36Z</time>
      </trkpt>
      <trkpt lat="40.658140" lon="-4.684570">
        <ele>1125.425</ele>
        <time>2022-02-24T11:16:16Z</time>
      </trkpt>
      <trkpt lat="40.658130" lon="-4.684570">
        <ele>1125.426</ele>
        <time>2022-02-24T11:16:56Z</time>
      </trkpt>
      <trkpt lat="40.658080" lon="-4.684700">
        <ele>1125.008</ele>
        <time>2022-02-24T11:17:36Z</time>
      </trkpt>
      <trkpt lat="40.658010" lon="-4.684830">
        <ele>1124.308</ele>
        <time>2022-02-24T11:18:16Z</time>
      </trkpt>
      <trkpt lat="40.657960" lon="-4.684930">
        <ele>1123.891</ele>
        <time>2022-02-24T11:18:56Z</time>
      </trkpt>
      <trkpt lat="40.657920" lon="-4.685020">
        <ele>1123.478</ele>
        <time>2022-02-24T11:19:36Z</time>
      </trkpt>
      <trkpt lat="40.657880" lon="-4.685140">
        <ele>1123.172</ele>
        <time>2022-02-24T11:20:16Z</time>
      </trkpt>
      <trkpt lat="40.657670" lon="-4.685720">
        <ele>1121.271</ele>
        <time>2022-02-24T11:20:56Z</time>
      </trkpt>
      <trkpt lat="40.657530" lon="-4.686190">
        <ele>1120.580</ele>
        <time>2022-02-24T11:21:36Z</time>
      </trkpt>
      <trkpt lat="40.657460" lon="-4.686400">
        <ele>1120.231</ele>
        <time>2022-02-24T11:22:16Z</time>
      </trkpt>
      <trkpt lat="40.657340" lon="-4.686810">
        <ele>1120.292</ele>
        <time>2022-02-24T11:22:56Z</time>
      </trkpt>
      <trkpt lat="40.657320" lon="-4.686880">
        <ele>1120.324</ele>
        <time>2022-02-24T11:23:36Z</time>
      </trkpt>
      <trkpt lat="40.657310" lon="-4.686920">
        <ele>1120.498</ele>
        <time>2022-02-24T11:24:16Z</time>
      </trkpt>
      <trkpt lat="40.657220" lon="-4.687270">
        <ele>1120.015</ele>
        <time>2022-02-24T11:24:56Z</time>
      </trkpt>
      <trkpt lat="40.657200" lon="-4.687390">
        <ele>1120.226</ele>
        <time>2022-02-24T11:25:36Z</time>
      </trkpt>
      <trkpt lat="40.657170" lon="-4.687540">
        <ele>1120.308</ele>
        <time>2022-02-24T11:26:16Z</time>
      </trkpt>
      <trkpt lat="40.657150" lon="-4.687690">
        <ele>1120.318</ele>
        <time>2022-02-24T11:26:56Z</time>
      </trkpt>
      <trkpt lat="40.657080" lon="-4.688090">
        <ele>1120.535</ele>
        <time>2022-02-24T11:27:36Z</time>
      </trkpt>
      <trkpt lat="40.657060" lon="-4.688190">
        <ele>1120.459</ele>
        <time>2022-02-24T11:28:16Z</time>
      </trkpt>
      <trkpt lat="40.657050" lon="-4.688250">
        <ele>1120.488</ele>
        <time>2022-02-24T11:28:56Z</time>
      </trkpt>
      <trkpt lat="40.657051" lon="-4.688246">
        <ele>1120.477</ele>
        <time>2022-02-24T11:29:36Z</time>
      </trkpt>
      <trkpt lat="40.657060" lon="-4.688250">
        <ele>1120.328</ele>
        <time>2022-02-24T11:30:16Z</time>
      </trkpt>
      <trkpt lat="40.657060" lon="-4.688260">
        <ele>1120.389</ele>
        <time>2022-02-24T11:30:56Z</time>
      </trkpt>
      <trkpt lat="40.657060" lon="-4.688270">
        <ele>1120.391</ele>
        <time>2022-02-24T11:31:36Z</time>
      </trkpt>
      <trkpt lat="40.657070" lon="-4.688270">
        <ele>1120.226</ele>
        <time>2022-02-24T11:32:16Z</time>
      </trkpt>
      <trkpt lat="40.657070" lon="-4.688280">
        <ele>1120.247</ele>
        <time>2022-02-24T11:32:56Z</time>
      </trkpt>
      <trkpt lat="40.657070" lon="-4.688290">
        <ele>1120.211</ele>
        <time>2022-02-24T11:33:36Z</time>
      </trkpt>
      <trkpt lat="40.657080" lon="-4.688300">
        <ele>1120.108</ele>
        <time>2022-02-24T11:34:16Z</time>
      </trkpt>
      <trkpt lat="40.657080" lon="-4.688310">
        <ele>1120.111</ele>
        <time>2022-02-24T11:34:56Z</time>
      </trkpt>
      <trkpt lat="40.657080" lon="-4.688320">
        <ele>1120.028</ele>
        <time>2022-02-24T11:35:36Z</time>
      </trkpt>
      <trkpt lat="40.657080" lon="-4.688330">
        <ele>1120.092</ele>
        <time>2022-02-24T11:36:16Z</time>
      </trkpt>
      <trkpt lat="40.657080" lon="-4.688340">
        <ele>1120.061</ele>
        <time>2022-02-24T11:36:56Z</time>
      </trkpt>
      <trkpt lat="40.657080" lon="-4.688350">
        <ele>1120.180</ele>
        <time>2022-02-24T11:37:36Z</time>
      </trkpt>
      <trkpt lat="40.657080" lon="-4.688360">
        <ele>1120.131</ele>
        <time>2022-02-24T11:38:16Z</time>
      </trkpt>
      <trkpt lat="40.657070" lon="-4.688360">
        <ele>1120.162</ele>
        <time>2022-02-24T11:38:56Z</time>
      </trkpt>
      <trkpt lat="40.657070" lon="-4.688370">
        <ele>1120.234</ele>
        <time>2022-02-24T11:39:36Z</time>
      </trkpt>
      <trkpt lat="40.657070" lon="-4.688380">
        <ele>1120.221</ele>
        <time>2022-02-24T11:40:16Z</time>
      </trkpt>
      <trkpt lat="40.657060" lon="-4.688390">
        <ele>1120.341</ele>
        <time>2022-02-24T11:40:56Z</time>
      </trkpt>
      <trkpt lat="40.657060" lon="-4.688400">
        <ele>1120.305</ele>
        <time>2022-02-24T11:41:36Z</time>
      </trkpt>
      <trkpt lat="40.657080" lon="-4.688510">
        <ele>1120.308</ele>
        <time>2022-02-24T11:42:16Z</time>
      </trkpt>
      <trkpt lat="40.657080" lon="-4.688630">
        <ele>1120.581</ele>
        <time>2022-02-24T11:42:56Z</time>
      </trkpt>
      <trkpt lat="40.657090" lon="-4.688860">
        <ele>1120.588</ele>
        <time>2022-02-24T11:43:36Z</time>
      </trkpt>
      <trkpt lat="40.657140" lon="-4.689210">
        <ele>1120.792</ele>
        <time>2022-02-24T11:44:16Z</time>
      </trkpt>
      <trkpt lat="40.657150" lon="-4.689280">
        <ele>1120.891</ele>
        <time>2022-02-24T11:44:56Z</time>
      </trkpt>
      <trkpt lat="40.657150" lon="-4.689281">
        <ele>1120.850</ele>
        <time>2022-02-24T11:45:36Z</time>
      </trkpt>
      <trkpt lat="40.657160" lon="-4.689310">
        <ele>1120.821</ele>
        <time>2022-02-24T11:46:16Z</time>
      </trkpt>
      <trkpt lat="40.657170" lon="-4.689330">
        <ele>1120.962</ele>
        <time>2022-02-24T11:46:56Z</time>
      </trkpt>
      <trkpt lat="40.657180" lon="-4.689350">
        <ele>1120.954</ele>
        <time>2022-02-24T11:47:36Z</time>
      </trkpt>
      <trkpt lat="40.657190" lon="-4.689400">
        <ele>1121.049</ele>
        <time>2022-02-24T11:48:16Z</time>
      </trkpt>
      <trkpt lat="40.657200" lon="-4.689420">
        <ele>1121.002</ele>
        <time>2022-02-24T11:48:56Z</time>
      </trkpt>
      <trkpt lat="40.657210" lon="-4.689460">
        <ele>1121.022</ele>
        <time>2022-02-24T11:49:36Z</time>
      </trkpt>
      <trkpt lat="40.657220" lon="-4.689510">
        <ele>1121.008</ele>
        <time>2022-02-24T11:50:16Z</time>
      </trkpt>
      <trkpt lat="40.657230" lon="-4.689530">
        <ele>1121.083</ele>
        <time>2022-02-24T11:50:56Z</time>
      </trkpt>
      <trkpt lat="40.657230" lon="-4.689550">
        <ele>1121.070</ele>
        <time>2022-02-24T11:51:36Z</time>
      </trkpt>
      <trkpt lat="40.657240" lon="-4.689560">
        <ele>1120.984</ele>
        <time>2022-02-24T11:52:16Z</time>
      </trkpt>
      <trkpt lat="40.657330" lon="-4.689880">
        <ele>1120.673</ele>
        <time>2022-02-24T11:52:56Z</time>
      </trkpt>
      <trkpt lat="40.657400" lon="-4.690080">
        <ele>1120.412</ele>
        <time>2022-02-24T11:53:36Z</time>
      </trkpt>
      <trkpt lat="40.657460" lon="-4.690230">
        <ele>1120.133</ele>
        <time>2022-02-24T11:54:16Z</time>
      </trkpt>
      <trkpt lat="40.657530" lon="-4.690460">
        <ele>1120.374</ele>
        <time>2022-02-24T11:54:56Z</time>
      </trkpt>
      <trkpt lat="40.657600" lon="-4.690680">
        <ele>1119.936</ele>
        <time>2022-02-24T11:55:36Z</time>
      </trkpt>
      <trkpt lat="40.657660" lon="-4.690900">
        <ele>1119.348</ele>
        <time>2022-02-24T11:56:16Z</time>
      </trkpt>
      <trkpt lat="40.657680" lon="-4.690980">
        <ele>1119.161</ele>
        <time>2022-02-24T11:56:56Z</time>
      </trkpt>
      <trkpt lat="40.657720" lon="-4.691280">
        <ele>1119.117</ele>
        <time>2022-02-24T11:57:36Z</time>
      </trkpt>
      <trkpt lat="40.657760" lon="-4.691560">
        <ele>1119.108</ele>
        <time>2022-02-24T11:58:16Z</time>
      </trkpt>
      <trkpt lat="40.657760" lon="-4.691590">
        <ele>1119.123</ele>
        <time>2022-02-24T11:58:56Z</time>
      </trkpt>
      <trkpt lat="40.657860" lon="-4.692270">
        <ele>1118.350</ele>
        <time>2022-02-24T11:59:36Z</time>
      </trkpt>
      <trkpt lat="40.657860" lon="-4.692260">
        <ele>1118.284</ele>
        <time>2022-02-24T12:00:16Z</time>
      </trkpt>
      <trkpt lat="40.657870" lon="-4.692260">
        <ele>1118.173</ele>
        <time>2022-02-24T12:00:56Z</time>
      </trkpt>
      <trkpt lat="40.657880" lon="-4.692260">
        <ele>1118.082</ele>
        <time>2022-02-24T12:01:36Z</time>
      </trkpt>
      <trkpt lat="40.657890" lon="-4.692250">
        <ele>1117.993</ele>
        <time>2022-02-24T12:02:16Z</time>
      </trkpt>
      <trkpt lat="40.657900" lon="-4.692250">
        <ele>1117.894</ele>
        <time>2022-02-24T12:02:56Z</time>
      </trkpt>
      <trkpt lat="40.657910" lon="-4.692250">
        <ele>1117.736</ele>
        <time>2022-02-24T12:03:36Z</time>
      </trkpt>
      <trkpt lat="40.657910" lon="-4.692260">
        <ele>1117.753</ele>
        <time>2022-02-24T12:04:16Z</time>
      </trkpt>
      <trkpt lat="40.657920" lon="-4.692260">
        <ele>1117.604</ele>
        <time>2022-02-24T12:04:56Z</time>
      </trkpt>
      <trkpt lat="40.657930" lon="-4.692260">
        <ele>1117.514</ele>
        <time>2022-02-24T12:05:36Z</time>
      </trkpt>
      <trkpt lat="40.657940" lon="-4.692270">
        <ele>1117.408</ele>
        <time>2022-02-24T12:06:16Z</time>
      </trkpt>
      <trkpt lat="40.657950" lon="-4.692270">
        <ele>1117.374</ele>
        <time>2022-02-24T12:06:56Z</time>
      </trkpt>
      <trkpt lat="40.657950" lon="-4.692280">
        <ele>1117.341</ele>
        <time>2022-02-24T12:07:36Z</time>
      </trkpt>
      <trkpt lat="40.657960" lon="-4.692280">
        <ele>1117.295</ele>
        <time>2022-02-24T12:08:16Z</time>
      </trkpt>
      <trkpt lat="40.657960" lon="-4.692290">
        <ele>1117.334</ele>
        <time>2022-02-24T12:08:56Z</time>
      </trkpt>
      <trkpt lat="40.657970" lon="-4.692290">
        <ele>1117.293</ele>
        <time>2022-02-24T12:09:36Z</time>
      </trkpt>
      <trkpt lat="40.657970" lon="-4.692300">
        <ele>1117.244</ele>
        <time>2022-02-24T12:10:16Z</time>
      </trkpt>
      <trkpt lat="40.657970" lon="-4.692310">
        <ele>1117.275</ele>
        <time>2022-02-24T12:10:56Z</time>
      </trkpt>
      <trkpt lat="40.657980" lon="-4.692310">
        <ele>1117.127</ele>
        <time>2022-02-24T12:11:36Z</time>
      </trkpt>
      <trkpt lat="40.657980" lon="-4.692320">
        <ele>1117.231</ele>
        <time>2022-02-24T12:12:16Z</time>
      </trkpt>
      <trkpt lat="40.657980" lon="-4.692330">
        <ele>1117.261</ele>
        <time>2022-02-24T12:12:56Z</time>
      </trkpt>
      <trkpt lat="40.657980" lon="-4.692340">
        <ele>1117.207</ele>
        <time>2022-02-24T12:13:36Z</time>
      </trkpt>
      <trkpt lat="40.657980" lon="-4.692350">
        <ele>1117.308</ele>
        <time>2022-02-24T12:14:16Z</time>
      </trkpt>
      <trkpt lat="40.657990" lon="-4.692350">
        <ele>1117.212</ele>
        <time>2022-02-24T12:14:56Z</time>
      </trkpt>
      <trkpt lat="40.657990" lon="-4.692360">
        <ele>1117.289</ele>
        <time>2022-02-24T12:15:36Z</time>
      </trkpt>
      <trkpt lat="40.657990" lon="-4.692370">
        <ele>1117.273</ele>
        <time>2022-02-24T12:16:16Z</time>
      </trkpt>
      <trkpt lat="40.657990" lon="-4.692380">
        <ele>1117.352</ele>
        <time>2022-02-24T12:16:56Z</time>
      </trkpt>
      <trkpt lat="40.657990" lon="-4.692390">
        <ele>1117.391</ele>
        <time>2022-02-24T12:17:36Z</time>
      </trkpt>
      <trkpt lat="40.657980" lon="-4.692390">
        <ele>1117.462</ele>
        <time>2022-02-24T12:18:16Z</time>
      </trkpt>
      <trkpt lat="40.657980" lon="-4.692400">
        <ele>1117.523</ele>
        <time>2022-02-24T12:18:56Z</time>
      </trkpt>
      <trkpt lat="40.657980" lon="-4.692410">
        <ele>1117.535</ele>
        <time>2022-02-24T12:19:36Z</time>
      </trkpt>
      <trkpt lat="40.657980" lon="-4.692420">
        <ele>1117.588</ele>
        <time>2022-02-24T12:20:16Z</time>
      </trkpt>
      <trkpt lat="40.657970" lon="-4.692430">
        <ele>1117.724</ele>
        <time>2022-02-24T12:20:56Z</time>
      </trkpt>
      <trkpt lat="40.657970" lon="-4.692440">
        <ele>1117.726</ele>
        <time>2022-02-24T12:21:36Z</time>
      </trkpt>
      <trkpt lat="40.657960" lon="-4.692440">
        <ele>1117.808</ele>
        <time>2022-02-24T12:22:16Z</time>
      </trkpt>
      <trkpt lat="40.657960" lon="-4.692450">
        <ele>1117.997</ele>
        <time>2022-02-24T12:22:56Z</time>
      </trkpt>
      <trkpt lat="40.657950" lon="-4.692460">
        <ele>1118.084</ele>
        <time>2022-02-24T12:23:36Z</time>
      </trkpt>
      <trkpt lat="40.657940" lon="-4.692470">
        <ele>1118.168</ele>
        <time>2022-02-24T12:24:16Z</time>
      </trkpt>
      <trkpt lat="40.657930" lon="-4.692470">
        <ele>1118.237</ele>
        <time>2022-02-24T12:24:56Z</time>
      </trkpt>
      <trkpt lat="40.657920" lon="-4.692480">
        <ele>1118.486</ele>
        <time>2022-02-24T12:25:36Z</time>
      </trkpt>
      <trkpt lat="40.657910" lon="-4.692480">
        <ele>1118.597</ele>
        <time>2022-02-24T12:26:16Z</time>
      </trkpt>
      <trkpt lat="40.657900" lon="-4.692480">
        <ele>1118.648</ele>
        <time>2022-02-24T12:26:56Z</time>
      </trkpt>
      <trkpt lat="40.657890" lon="-4.692480">
        <ele>1118.730</ele>
        <time>2022-02-24T12:27:36Z</time>
      </trkpt>
      <trkpt lat="40.657880" lon="-4.692480">
        <ele>1118.879</ele>
        <time>2022-02-24T12:28:16Z</time>
      </trkpt>
      <trkpt lat="40.657880" lon="-4.692600">
        <ele>1118.905</ele>
        <time>2022-02-24T12:28:56Z</time>
      </trkpt>
      <trkpt lat="40.657880" lon="-4.692720">
        <ele>1118.925</ele>
        <time>2022-02-24T12:29:36Z</time>
      </trkpt>
      <trkpt lat="40.657930" lon="-4.693640">
        <ele>1116.808</ele>
        <time>2022-02-24T12:30:16Z</time>
      </trkpt>
      <trkpt lat="40.657940" lon="-4.694240">
        <ele>1115.896</ele>
        <time>2022-02-24T12:30:56Z</time>
      </trkpt>
      <trkpt lat="40.657940" lon="-4.694290">
        <ele>1115.943</ele>
        <time>2022-02-24T12:31:36Z</time>
      </trkpt>
      <trkpt lat="40.657940" lon="-4.694390">
        <ele>1116.147</ele>
        <time>2022-02-24T12:32:16Z</time>
      </trkpt>
      <trkpt lat="40.658000" lon="-4.694720">
        <ele>1116.696</ele>
        <time>2022-02-24T12:32:56Z</time>
      </trkpt>
      <trkpt lat="40.658060" lon="-4.695030">
        <ele>1116.195</ele>
        <time>2022-02-24T12:33:36Z</time>
      </trkpt>
      <trkpt lat="40.658070" lon="-4.695060">
        <ele>1116.186</ele>
        <time>2022-02-24T12:34:16Z</time>
      </trkpt>
      <trkpt lat="40.658150" lon="-4.695400">
        <ele>1116.117</ele>
        <time>2022-02-24T12:34:56Z</time>
      </trkpt>
      <trkpt lat="40.658200" lon="-4.695600">
        <ele>1116.159</ele>
        <time>2022-02-24T12:35:36Z</time>
      </trkpt>
      <trkpt lat="40.658270" lon="-4.695860">
        <ele>1116.636</ele>
        <time>2022-02-24T12:36:16Z</time>
      </trkpt>
      <trkpt lat="40.658290" lon="-4.695910">
        <ele>1116.617</ele>
        <time>2022-02-24T12:36:56Z</time>
      </trkpt>
      <trkpt lat="40.658300" lon="-4.695960">
        <ele>1116.718</ele>
        <time>2022-02-24T12:37:36Z</time>
      </trkpt>
      <trkpt lat="40.658420" lon="-4.696380">
        <ele>1115.508</ele>
        <time>2022-02-24T12:38:16Z</time>
      </trkpt>
      <trkpt lat="40.658470" lon="-4.696590">
        <ele>1114.452</ele>
        <time>2022-02-24T12:38:56Z</time>
      </trkpt>
      <trkpt lat="40.658640" lon="-4.697230">
        <ele>1113.119</ele>
        <time>2022-02-24T12:39:36Z</time>
      </trkpt>
      <trkpt lat="40.658650" lon="-4.697300">
        <ele>1112.143</ele>
        <time>2022-02-24T12:40:16Z</time>
      </trkpt>
      <trkpt lat="40.658680" lon="-4.697460">
        <ele>1109.712</ele>
        <time>2022-02-24T12:40:56Z</time>
      </trkpt>
      <trkpt lat="40.658690" lon="-4.697530">
        <ele>1108.871</ele>
        <time>2022-02-24T12:41:36Z</time>
      </trkpt>
      <trkpt lat="40.658690" lon="-4.697600">
        <ele>1108.312</ele>
        <time>2022-02-24T12:42:16Z</time>
      </trkpt>
      <trkpt lat="40.658680" lon="-4.697910">
        <ele>1107.753</ele>
        <time>2022-02-24T12:42:56Z</time>
      </trkpt>
      <trkpt lat="40.658680" lon="-4.697950">
        <ele>1107.925</ele>
        <time>2022-02-24T12:43:36Z</time>
      </trkpt>
      <trkpt lat="40.658680" lon="-4.698230">
        <ele>1108.448</ele>
        <time>2022-02-24T12:44:16Z</time>
      </trkpt>
      <trkpt lat="40.658690" lon="-4.698330">
        <ele>1108.361</ele>
        <time>2022-02-24T12:44:56Z</time>
      </trkpt>
      <trkpt lat="40.658700" lon="-4.698430">
        <ele>1108.317</ele>
        <time>2022-02-24T12:45:36Z</time>
      </trkpt>
      <trkpt lat="40.658780" lon="-4.698790">
        <ele>1107.108</ele>
        <time>2022-02-24T12:46:16Z</time>
      </trkpt>
      <trkpt lat="40.659010" lon="-4.699790">
        <ele>1100.593</ele>
        <time>2022-02-24T12:46:56Z</time>
      </trkpt>
      <trkpt lat="40.659020" lon="-4.699790">
        <ele>1100.430</ele>
        <time>2022-02-24T12:47:36Z</time>
      </trkpt>
      <trkpt lat="40.659020" lon="-4.699780">
        <ele>1100.414</ele>
        <time>2022-02-24T12:48:16Z</time>
      </trkpt>
      <trkpt lat="40.659030" lon="-4.699780">
        <ele>1100.333</ele>
        <time>2022-02-24T12:48:56Z</time>
      </trkpt>
      <trkpt lat="40.659040" lon="-4.699780">
        <ele>1100.182</ele>
        <time>2022-02-24T12:49:36Z</time>
      </trkpt>
      <trkpt lat="40.659050" lon="-4.699780">
        <ele>1099.963</ele>
        <time>2022-02-24T12:50:16Z</time>
      </trkpt>
      <trkpt lat="40.659060" lon="-4.699780">
        <ele>1099.824</ele>
        <time>2022-02-24T12:50:56Z</time>
      </trkpt>
      <trkpt lat="40.659070" lon="-4.699780">
        <ele>1099.696</ele>
        <time>2022-02-24T12:51:36Z</time>
      </trkpt>
      <trkpt lat="40.659080" lon="-4.699780">
        <ele>1099.462</ele>
        <time>2022-02-24T12:52:16Z</time>
      </trkpt>
      <trkpt lat="40.659090" lon="-4.699780">
        <ele>1099.383</ele>
        <time>2022-02-24T12:52:56Z</time>
      </trkpt>
      <trkpt lat="40.659090" lon="-4.699790">
        <ele>1099.211</ele>
        <time>2022-02-24T12:53:36Z</time>
      </trkpt>
      <trkpt lat="40.659100" lon="-4.699790">
        <ele>1099.108</ele>
        <time>2022-02-24T12:54:16Z</time>
      </trkpt>
      <trkpt lat="40.659100" lon="-4.699800">
        <ele>1099.125</ele>
        <time>2022-02-24T12:54:56Z</time>
      </trkpt>
      <trkpt lat="40.659110" lon="-4.699800">
        <ele>1098.932</ele>
        <time>2022-02-24T12:55:36Z</time>
      </trkpt>
      <trkpt lat="40.659110" lon="-4.699810">
        <ele>1098.986</ele>
        <time>2022-02-24T12:56:16Z</time>
      </trkpt>
      <trkpt lat="40.659120" lon="-4.699820">
        <ele>1098.715</ele>
        <time>2022-02-24T12:56:56Z</time>
      </trkpt>
      <trkpt lat="40.659120" lon="-4.699830">
        <ele>1098.774</ele>
        <time>2022-02-24T12:57:36Z</time>
      </trkpt>
      <trkpt lat="40.659130" lon="-4.699830">
        <ele>1098.685</ele>
        <time>2022-02-24T12:58:16Z</time>
      </trkpt>
      <trkpt lat="40.659130" lon="-4.699840">
        <ele>1098.556</ele>
        <time>2022-02-24T12:58:56Z</time>
      </trkpt>
      <trkpt lat="40.659130" lon="-4.699850">
        <ele>1098.548</ele>
        <time>2022-02-24T12:59:36Z</time>
      </trkpt>
      <trkpt lat="40.659130" lon="-4.699860">
        <ele>1098.555</ele>
        <time>2022-02-24T13:00:16Z</time>
      </trkpt>
      <trkpt lat="40.659130" lon="-4.699870">
        <ele>1098.507</ele>
        <time>2022-02-24T13:00:56Z</time>
      </trkpt>
      <trkpt lat="40.659140" lon="-4.699870">
        <ele>1098.417</ele>
        <time>2022-02-24T13:01:36Z</time>
      </trkpt>
      <trkpt lat="40.659140" lon="-4.699880">
        <ele>1098.408</ele>
        <time>2022-02-24T13:02:16Z</time>
      </trkpt>
      <trkpt lat="40.659140" lon="-4.699890">
        <ele>1098.454</ele>
        <time>2022-02-24T13:02:56Z</time>
      </trkpt>
      <trkpt lat="40.659140" lon="-4.699900">
        <ele>1098.441</ele>
        <time>2022-02-24T13:03:36Z</time>
      </trkpt>
      <trkpt lat="40.659130" lon="-4.699900">
        <ele>1098.575</ele>
        <time>2022-02-24T13:04:16Z</time>
      </trkpt>
      <trkpt lat="40.659130" lon="-4.699910">
        <ele>1098.584</ele>
        <time>2022-02-24T13:04:56Z</time>
      </trkpt>
      <trkpt lat="40.659130" lon="-4.699920">
        <ele>1098.583</ele>
        <time>2022-02-24T13:05:36Z</time>
      </trkpt>
      <trkpt lat="40.659130" lon="-4.699930">
        <ele>1098.554</ele>
        <time>2022-02-24T13:06:16Z</time>
      </trkpt>
      <trkpt lat="40.659130" lon="-4.699940">
        <ele>1098.535</ele>
        <time>2022-02-24T13:06:56Z</time>
      </trkpt>
      <trkpt lat="40.659120" lon="-4.699940">
        <ele>1098.627</ele>
        <time>2022-02-24T13:07:36Z</time>
      </trkpt>
      <trkpt lat="40.659120" lon="-4.699950">
        <ele>1098.689</ele>
        <time>2022-02-24T13:08:16Z</time>
      </trkpt>
      <trkpt lat="40.659120" lon="-4.699960">
        <ele>1098.606</ele>
        <time>2022-02-24T13:08:56Z</time>
      </trkpt>
      <trkpt lat="40.659110" lon="-4.699960">
        <ele>1098.726</ele>
        <time>2022-02-24T13:09:36Z</time>
      </trkpt>
      <trkpt lat="40.659110" lon="-4.699970">
        <ele>1098.708</ele>
        <time>2022-02-24T13:10:16Z</time>
      </trkpt>
      <trkpt lat="40.659100" lon="-4.699970">
        <ele>1098.867</ele>
        <time>2022-02-24T13:10:56Z</time>
      </trkpt>
      <trkpt lat="40.659100" lon="-4.699980">
        <ele>1098.894</ele>
        <time>2022-02-24T13:11:36Z</time>
      </trkpt>
      <trkpt lat="40.659090" lon="-4.699980">
        <ele>1098.968</ele>
        <time>2022-02-24T13:12:16Z</time>
      </trkpt>
      <trkpt lat="40.659080" lon="-4.699980">
        <ele>1099.037</ele>
        <time>2022-02-24T13:12:56Z</time>
      </trkpt>
      <trkpt lat="40.659080" lon="-4.699990">
        <ele>1099.026</ele>
        <time>2022-02-24T13:13:36Z</time>
      </trkpt>
      <trkpt lat="40.659150" lon="-4.700420">
        <ele>1097.827</ele>
        <time>2022-02-24T13:14:16Z</time>
      </trkpt>
      <trkpt lat="40.659220" lon="-4.700740">
        <ele>1097.288</ele>
        <time>2022-02-24T13:14:56Z</time>
      </trkpt>
      <trkpt lat="40.659280" lon="-4.700990">
        <ele>1096.730</ele>
        <time>2022-02-24T13:15:36Z</time>
      </trkpt>
      <trkpt lat="40.659440" lon="-4.701670">
        <ele>1094.129</ele>
        <time>2022-02-24T13:16:16Z</time>
      </trkpt>
      <trkpt lat="40.659450" lon="-4.701670">
        <ele>1093.900</ele>
        <time>2022-02-24T13:16:56Z</time>
      </trkpt>
      <trkpt lat="40.659460" lon="-4.701670">
        <ele>1093.720</ele>
        <time>2022-02-24T13:17:36Z</time>
      </trkpt>
      <trkpt lat="40.659470" lon="-4.701670">
        <ele>1093.608</ele>
        <time>2022-02-24T13:18:16Z</time>
      </trkpt>
      <trkpt lat="40.659480" lon="-4.701670">
        <ele>1093.451</ele>
        <time>2022-02-24T13:18:56Z</time>
      </trkpt>
      <trkpt lat="40.659490" lon="-4.701680">
        <ele>1093.278</ele>
        <time>2022-02-24T13:19:36Z</time>
      </trkpt>
      <trkpt lat="40.659500" lon="-4.701680">
        <ele>1093.062</ele>
        <time>2022-02-24T13:20:16Z</time>
      </trkpt>
      <trkpt lat="40.659500" lon="-4.701690">
        <ele>1093.161</ele>
        <time>2022-02-24T13:20:56Z</time>
      </trkpt>
      <trkpt lat="40.659510" lon="-4.701690">
        <ele>1092.960</ele>
        <time>2022-02-24T13:21:36Z</time>
      </trkpt>
      <trkpt lat="40.659510" lon="-4.701700">
        <ele>1092.991</ele>
        <time>2022-02-24T13:22:16Z</time>
      </trkpt>
      <trkpt lat="40.659520" lon="-4.701700">
        <ele>1092.872</ele>
        <time>2022-02-24T13:22:56Z</time>
      </trkpt>
      <trkpt lat="40.659520" lon="-4.701710">
        <ele>1092.864</ele>
        <time>2022-02-24T13:23:36Z</time>
      </trkpt>
      <trkpt lat="40.659520" lon="-4.701720">
        <ele>1092.824</ele>
        <time>2022-02-24T13:24:16Z</time>
      </trkpt>
      <trkpt lat="40.659530" lon="-4.701720">
        <ele>1092.704</ele>
        <time>2022-02-24T13:24:56Z</time>
      </trkpt>
      <trkpt lat="40.659530" lon="-4.701730">
        <ele>1092.714</ele>
        <time>2022-02-24T13:25:36Z</time>
      </trkpt>
      <trkpt lat="40.659530" lon="-4.701740">
        <ele>1092.708</ele>
        <time>2022-02-24T13:26:16Z</time>
      </trkpt>
      <trkpt lat="40.659530" lon="-4.701750">
        <ele>1092.841</ele>
        <time>2022-02-24T13:26:56Z</time>
      </trkpt>
      <trkpt lat="40.659530" lon="-4.701760">
        <ele>1092.818</ele>
        <time>2022-02-24T13:27:36Z</time>
      </trkpt>
      <trkpt lat="40.659540" lon="-4.701760">
        <ele>1092.622</ele>
        <time>2022-02-24T13:28:16Z</time>
      </trkpt>
      <trkpt lat="40.659540" lon="-4.701770">
        <ele>1092.781</ele>
        <time>2022-02-24T13:28:56Z</time>
      </trkpt>
      <trkpt lat="40.659540" lon="-4.701780">
        <ele>1092.760</ele>
        <time>2022-02-24T13:29:36Z</time>
      </trkpt>
      <trkpt lat="40.659540" lon="-4.701790">
        <ele>1092.791</ele>
        <time>2022-02-24T13:30:16Z</time>
      </trkpt>
      <trkpt lat="40.659530" lon="-4.701800">
        <ele>1092.992</ele>
        <time>2022-02-24T13:30:56Z</time>
      </trkpt>
      <trkpt lat="40.659530" lon="-4.701810">
        <ele>1093.074</ele>
        <time>2022-02-24T13:31:36Z</time>
      </trkpt>
      <trkpt lat="40.659530" lon="-4.701820">
        <ele>1093.024</ele>
        <time>2022-02-24T13:32:16Z</time>
      </trkpt>
      <trkpt lat="40.659530" lon="-4.701830">
        <ele>1093.004</ele>
        <time>2022-02-24T13:32:56Z</time>
      </trkpt>
      <trkpt lat="40.659520" lon="-4.701830">
        <ele>1093.214</ele>
        <time>2022-02-24T13:33:36Z</time>
      </trkpt>
      <trkpt lat="40.659520" lon="-4.701840">
        <ele>1093.308</ele>
        <time>2022-02-24T13:34:16Z</time>
      </trkpt>
      <trkpt lat="40.659520" lon="-4.701850">
        <ele>1093.311</ele>
        <time>2022-02-24T13:34:56Z</time>
      </trkpt>
      <trkpt lat="40.659510" lon="-4.701850">
        <ele>1093.558</ele>
        <time>2022-02-24T13:35:36Z</time>
      </trkpt>
      <trkpt lat="40.659510" lon="-4.701860">
        <ele>1093.592</ele>
        <time>2022-02-24T13:36:16Z</time>
      </trkpt>
      <trkpt lat="40.659500" lon="-4.701860">
        <ele>1093.731</ele>
        <time>2022-02-24T13:36:56Z</time>
      </trkpt>
      <trkpt lat="40.659500" lon="-4.701870">
        <ele>1093.720</ele>
        <time>2022-02-24T13:37:36Z</time>
      </trkpt>
      <trkpt lat="40.659490" lon="-4.701870">
        <ele>1093.991</ele>
        <time>2022-02-24T13:38:16Z</time>
      </trkpt>
      <trkpt lat="40.659490" lon="-4.701880">
        <ele>1093.932</ele>
        <time>2022-02-24T13:38:56Z</time>
      </trkpt>
      <trkpt lat="40.659480" lon="-4.701880">
        <ele>1094.194</ele>
        <time>2022-02-24T13:39:36Z</time>
      </trkpt>
      <trkpt lat="40.659490" lon="-4.701940">
        <ele>1094.297</ele>
        <time>2022-02-24T13:40:16Z</time>
      </trkpt>
      <trkpt lat="40.659650" lon="-4.702540">
        <ele>1090.923</ele>
        <time>2022-02-24T13:40:56Z</time>
      </trkpt>
      <trkpt lat="40.659740" lon="-4.703070">
        <ele>1087.825</ele>
        <time>2022-02-24T13:41:36Z</time>
      </trkpt>
      <trkpt lat="40.659780" lon="-4.703390">
        <ele>1086.408</ele>
        <time>2022-02-24T13:42:16Z</time>
      </trkpt>
      <trkpt lat="40.659790" lon="-4.703570">
        <ele>1085.738</ele>
        <time>2022-02-24T13:42:56Z</time>
      </trkpt>
      <trkpt lat="40.659790" lon="-4.703660">
        <ele>1085.235</ele>
        <time>2022-02-24T13:43:36Z</time>
      </trkpt>
      <trkpt lat="40.659800" lon="-4.703660">
        <ele>1085.129</ele>
        <time>2022-02-24T13:44:16Z</time>
      </trkpt>
      <trkpt lat="40.659810" lon="-4.703670">
        <ele>1085.098</ele>
        <time>2022-02-24T13:44:56Z</time>
      </trkpt>
      <trkpt lat="40.659820" lon="-4.703670">
        <ele>1084.957</ele>
        <time>2022-02-24T13:45:36Z</time>
      </trkpt>
      <trkpt lat="40.659830" lon="-4.703670">
        <ele>1084.978</ele>
        <time>2022-02-24T13:46:16Z</time>
      </trkpt>
      <trkpt lat="40.659840" lon="-4.703680">
        <ele>1084.899</ele>
        <time>2022-02-24T13:46:56Z</time>
      </trkpt>
      <trkpt lat="40.659850" lon="-4.703690">
        <ele>1084.661</ele>
        <time>2022-02-24T13:47:36Z</time>
      </trkpt>
      <trkpt lat="40.659860" lon="-4.703700">
        <ele>1084.518</ele>
        <time>2022-02-24T13:48:16Z</time>
      </trkpt>
      <trkpt lat="40.659870" lon="-4.703700">
        <ele>1084.598</ele>
        <time>2022-02-24T13:48:56Z</time>
      </trkpt>
      <trkpt lat="40.659880" lon="-4.703710">
        <ele>1084.417</ele>
        <time>2022-02-24T13:49:36Z</time>
      </trkpt>
      <trkpt lat="40.659880" lon="-4.703720">
        <ele>1084.308</ele>
        <time>2022-02-24T13:50:16Z</time>
      </trkpt>
      <trkpt lat="40.659890" lon="-4.703730">
        <ele>1084.280</ele>
        <time>2022-02-24T13:50:56Z</time>
      </trkpt>
      <trkpt lat="40.659900" lon="-4.703740">
        <ele>1084.137</ele>
        <time>2022-02-24T13:51:36Z</time>
      </trkpt>
      <trkpt lat="40.659900" lon="-4.703750">
        <ele>1084.031</ele>
        <time>2022-02-24T13:52:16Z</time>
      </trkpt>
      <trkpt lat="40.659910" lon="-4.703760">
        <ele>1083.930</ele>
        <time>2022-02-24T13:52:56Z</time>
      </trkpt>
      <trkpt lat="40.659910" lon="-4.703780">
        <ele>1083.839</ele>
        <time>2022-02-24T13:53:36Z</time>
      </trkpt>
      <trkpt lat="40.659910" lon="-4.703790">
        <ele>1083.860</ele>
        <time>2022-02-24T13:54:16Z</time>
      </trkpt>
      <trkpt lat="40.659920" lon="-4.703800">
        <ele>1083.771</ele>
        <time>2022-02-24T13:54:56Z</time>
      </trkpt>
      <trkpt lat="40.659920" lon="-4.703810">
        <ele>1083.773</ele>
        <time>2022-02-24T13:55:36Z</time>
      </trkpt>
      <trkpt lat="40.659920" lon="-4.703820">
        <ele>1083.653</ele>
        <time>2022-02-24T13:56:16Z</time>
      </trkpt>
      <trkpt lat="40.659920" lon="-4.703840">
        <ele>1083.504</ele>
        <time>2022-02-24T13:56:56Z</time>
      </trkpt>
      <trkpt lat="40.659920" lon="-4.703850">
        <ele>1083.514</ele>
        <time>2022-02-24T13:57:36Z</time>
      </trkpt>
      <trkpt lat="40.659920" lon="-4.703860">
        <ele>1083.408</ele>
        <time>2022-02-24T13:58:16Z</time>
      </trkpt>
      <trkpt lat="40.659920" lon="-4.703880">
        <ele>1083.364</ele>
        <time>2022-02-24T13:58:56Z</time>
      </trkpt>
      <trkpt lat="40.659920" lon="-4.703890">
        <ele>1083.331</ele>
        <time>2022-02-24T13:59:36Z</time>
      </trkpt>
      <trkpt lat="40.659920" lon="-4.703900">
        <ele>1083.295</ele>
        <time>2022-02-24T14:00:16Z</time>
      </trkpt>
      <trkpt lat="40.659910" lon="-4.703920">
        <ele>1083.234</ele>
        <time>2022-02-24T14:00:56Z</time>
      </trkpt>
      <trkpt lat="40.659910" lon="-4.703930">
        <ele>1083.273</ele>
        <time>2022-02-24T14:01:36Z</time>
      </trkpt>
      <trkpt lat="40.659910" lon="-4.703940">
        <ele>1083.134</ele>
        <time>2022-02-24T14:02:16Z</time>
      </trkpt>
      <trkpt lat="40.659900" lon="-4.703950">
        <ele>1083.165</ele>
        <time>2022-02-24T14:02:56Z</time>
      </trkpt>
      <trkpt lat="40.659900" lon="-4.703960">
        <ele>1083.167</ele>
        <time>2022-02-24T14:03:36Z</time>
      </trkpt>
      <trkpt lat="40.659890" lon="-4.703970">
        <ele>1083.168</ele>
        <time>2022-02-24T14:04:16Z</time>
      </trkpt>
      <trkpt lat="40.659890" lon="-4.703980">
        <ele>1083.142</ele>
        <time>2022-02-24T14:04:56Z</time>
      </trkpt>
      <trkpt lat="40.659880" lon="-4.703990">
        <ele>1083.126</ele>
        <time>2022-02-24T14:05:36Z</time>
      </trkpt>
      <trkpt lat="40.659870" lon="-4.704000">
        <ele>1083.108</ele>
        <time>2022-02-24T14:06:16Z</time>
      </trkpt>
      <trkpt lat="40.659860" lon="-4.704010">
        <ele>1083.195</ele>
        <time>2022-02-24T14:06:56Z</time>
      </trkpt>
      <trkpt lat="40.659860" lon="-4.704020">
        <ele>1083.052</ele>
        <time>2022-02-24T14:07:36Z</time>
      </trkpt>
      <trkpt lat="40.659850" lon="-4.704020">
        <ele>1083.136</ele>
        <time>2022-02-24T14:08:16Z</time>
      </trkpt>
      <trkpt lat="40.659840" lon="-4.704030">
        <ele>1083.135</ele>
        <time>2022-02-24T14:08:56Z</time>
      </trkpt>
      <trkpt lat="40.659830" lon="-4.704040">
        <ele>1083.194</ele>
        <time>2022-02-24T14:09:36Z</time>
      </trkpt>
      <trkpt lat="40.659820" lon="-4.704040">
        <ele>1083.195</ele>
        <time>2022-02-24T14:10:16Z</time>
      </trkpt>
      <trkpt lat="40.659810" lon="-4.704040">
        <ele>1083.186</ele>
        <time>2022-02-24T14:10:56Z</time>
      </trkpt>
      <trkpt lat="40.659800" lon="-4.704050">
        <ele>1083.128</ele>
        <time>2022-02-24T14:11:36Z</time>
      </trkpt>
      <trkpt lat="40.659790" lon="-4.704050">
        <ele>1083.284</ele>
        <time>2022-02-24T14:12:16Z</time>
      </trkpt>
      <trkpt lat="40.659780" lon="-4.704050">
        <ele>1083.207</ele>
        <time>2022-02-24T14:12:56Z</time>
      </trkpt>
      <trkpt lat="40.659770" lon="-4.704050">
        <ele>1083.217</ele>
        <time>2022-02-24T14:13:36Z</time>
      </trkpt>
      <trkpt lat="40.659760" lon="-4.704050">
        <ele>1083.308</ele>
        <time>2022-02-24T14:14:16Z</time>
      </trkpt>
      <trkpt lat="40.659750" lon="-4.704050">
        <ele>1083.357</ele>
        <time>2022-02-24T14:14:56Z</time>
      </trkpt>
      <trkpt lat="40.659710" lon="-4.704520">
        <ele>1081.824</ele>
        <time>2022-02-24T14:15:36Z</time>
      </trkpt>
      <trkpt lat="40.659700" lon="-4.704680">
        <ele>1081.338</ele>
        <time>2022-02-24T14:16:16Z</time>
      </trkpt>
      <trkpt lat="40.659680" lon="-4.704890">
        <ele>1080.227</ele>
        <time>2022-02-24T14:16:56Z</time>
      </trkpt>
      <trkpt lat="40.659660" lon="-4.705040">
        <ele>1079.466</ele>
        <time>2022-02-24T14:17:36Z</time>
      </trkpt>
      <trkpt lat="40.659580" lon="-4.705450">
        <ele>1077.397</ele>
        <time>2022-02-24T14:18:16Z</time>
      </trkpt>
      <trkpt lat="40.659530" lon="-4.705680">
        <ele>1076.228</ele>
        <time>2022-02-24T14:18:56Z</time>
      </trkpt>
      <trkpt lat="40.659460" lon="-4.706020">
        <ele>1075.140</ele>
        <time>2022-02-24T14:19:36Z</time>
      </trkpt>
      <trkpt lat="40.659420" lon="-4.706170">
        <ele>1074.844</ele>
        <time>2022-02-24T14:20:16Z</time>
      </trkpt>
      <trkpt lat="40.659380" lon="-4.706320">
        <ele>1074.005</ele>
        <time>2022-02-24T14:20:56Z</time>
      </trkpt>
      <trkpt lat="40.659360" lon="-4.706350">
        <ele>1073.915</ele>
        <time>2022-02-24T14:21:36Z</time>
      </trkpt>
      <trkpt lat="40.659330" lon="-4.706430">
        <ele>1073.508</ele>
        <time>2022-02-24T14:22:16Z</time>
      </trkpt>
      <trkpt lat="40.659300" lon="-4.706490">
        <ele>1073.313</ele>
        <time>2022-02-24T14:22:56Z</time>
      </trkpt>
      <trkpt lat="40.659260" lon="-4.706540">
        <ele>1073.290</ele>
        <time>2022-02-24T14:23:36Z</time>
      </trkpt>
      <trkpt lat="40.659230" lon="-4.706580">
        <ele>1073.294</ele>
        <time>2022-02-24T14:24:16Z</time>
      </trkpt>
      <trkpt lat="40.659140" lon="-4.706700">
        <ele>1073.073</ele>
        <time>2022-02-24T14:24:56Z</time>
      </trkpt>
      <trkpt lat="40.659040" lon="-4.706780">
        <ele>1073.282</ele>
        <time>2022-02-24T14:25:36Z</time>
      </trkpt>
      <trkpt lat="40.658950" lon="-4.706850">
        <ele>1073.023</ele>
        <time>2022-02-24T14:26:16Z</time>
      </trkpt>
      <trkpt lat="40.658890" lon="-4.706900">
        <ele>1072.694</ele>
        <time>2022-02-24T14:26:56Z</time>
      </trkpt>
      <trkpt lat="40.658380" lon="-4.707140">
        <ele>1068.056</ele>
        <time>2022-02-24T14:27:36Z</time>
      </trkpt>
      <trkpt lat="40.657750" lon="-4.707430">
        <ele>1070.119</ele>
        <time>2022-02-24T14:28:16Z</time>
      </trkpt>
      <trkpt lat="40.657550" lon="-4.707600">
        <ele>1071.409</ele>
        <time>2022-02-24T14:28:56Z</time>
      </trkpt>
      <trkpt lat="40.657555" lon="-4.707601">
        <ele>1071.319</ele>
        <time>2022-02-24T14:29:36Z</time>
      </trkpt>
      <trkpt lat="40.657550" lon="-4.707610">
        <ele>1071.308</ele>
        <time>2022-02-24T14:30:16Z</time>
      </trkpt>
      <trkpt lat="40.657550" lon="-4.707620">
        <ele>1071.380</ele>
        <time>2022-02-24T14:30:56Z</time>
      </trkpt>
      <trkpt lat="40.657550" lon="-4.707630">
        <ele>1071.247</ele>
        <time>2022-02-24T14:31:36Z</time>
      </trkpt>
      <trkpt lat="40.657540" lon="-4.707630">
        <ele>1071.441</ele>
        <time>2022-02-24T14:32:16Z</time>
      </trkpt>
      <trkpt lat="40.657550" lon="-4.707700">
        <ele>1070.610</ele>
        <time>2022-02-24T14:32:56Z</time>
      </trkpt>
      <trkpt lat="40.657550" lon="-4.707780">
        <ele>1069.919</ele>
        <time>2022-02-24T14:33:36Z</time>
      </trkpt>
      <trkpt lat="40.657540" lon="-4.707880">
        <ele>1069.360</ele>
        <time>2022-02-24T14:34:16Z</time>
      </trkpt>
      <trkpt lat="40.657530" lon="-4.707940">
        <ele>1069.121</ele>
        <time>2022-02-24T14:34:56Z</time>
      </trkpt>
      <trkpt lat="40.657520" lon="-4.707980">
        <ele>1069.023</ele>
        <time>2022-02-24T14:35:36Z</time>
      </trkpt>
      <trkpt lat="40.657520" lon="-4.708010">
        <ele>1068.858</ele>
        <time>2022-02-24T14:36:16Z</time>
      </trkpt>
      <trkpt lat="40.657500" lon="-4.708170">
        <ele>1064.952</ele>
        <time>2022-02-24T14:36:56Z</time>
      </trkpt>
      <trkpt lat="40.657470" lon="-4.708400">
        <ele>1058.917</ele>
        <time>2022-02-24T14:37:36Z</time>
      </trkpt>
      <trkpt lat="40.657450" lon="-4.708550">
        <ele>1058.408</ele>
        <time>2022-02-24T14:38:16Z</time>
      </trkpt>
      <trkpt lat="40.657440" lon="-4.708590">
        <ele>1058.334</ele>
        <time>2022-02-24T14:38:56Z</time>
      </trkpt>
      <trkpt lat="40.657420" lon="-4.708730">
        <ele>1058.751</ele>
        <time>2022-02-24T14:39:36Z</time>
      </trkpt>
      <trkpt lat="40.657390" lon="-4.708900">
        <ele>1059.545</ele>
        <time>2022-02-24T14:40:16Z</time>
      </trkpt>
      <trkpt lat="40.657360" lon="-4.709010">
        <ele>1061.044</ele>
        <time>2022-02-24T14:40:56Z</time>
      </trkpt>
      <trkpt lat="40.657360" lon="-4.709190">
        <ele>1063.393</ele>
        <time>2022-02-24T14:41:36Z</time>
      </trkpt>
      <trkpt lat="40.657360" lon="-4.709280">
        <ele>1064.414</ele>
        <time>2022-02-24T14:42:16Z</time>
      </trkpt>
      <trkpt lat="40.657355" lon="-4.709280">
        <ele>1064.465</ele>
        <time>2022-02-24T14:42:56Z</time>
      </trkpt>
      <trkpt lat="40.657360" lon="-4.709290">
        <ele>1064.637</ele>
        <time>2022-02-24T14:43:36Z</time>
      </trkpt>
      <trkpt lat="40.657360" lon="-4.709300">
        <ele>1064.726</ele>
        <time>2022-02-24T14:44:16Z</time>
      </trkpt>
      <trkpt lat="40.657360" lon="-4.709310">
        <ele>1064.847</ele>
        <time>2022-02-24T14:44:56Z</time>
      </trkpt>
      <trkpt lat="40.657360" lon="-4.709320">
        <ele>1064.911</ele>
        <time>2022-02-24T14:45:36Z</time>
      </trkpt>
      <trkpt lat="40.657420" lon="-4.709420">
        <ele>1066.008</ele>
        <time>2022-02-24T14:46:16Z</time>
      </trkpt>
      <trkpt lat="40.657450" lon="-4.709490">
        <ele>1066.861</ele>
        <time>2022-02-24T14:46:56Z</time>
      </trkpt>
      <trkpt lat="40.657470" lon="-4.709530">
        <ele>1067.378</ele>
        <time>2022-02-24T14:47:36Z</time>
      </trkpt>
      <trkpt lat="40.657530" lon="-4.709610">
        <ele>1068.212</ele>
        <time>2022-02-24T14:48:16Z</time>
      </trkpt>
      <trkpt lat="40.657770" lon="-4.709890">
        <ele>1069.991</ele>
        <time>2022-02-24T14:48:56Z</time>
      </trkpt>
      <trkpt lat="40.657780" lon="-4.709910">
        <ele>1070.070</ele>
        <time>2022-02-24T14:49:36Z</time>
      </trkpt>
      <trkpt lat="40.657830" lon="-4.709980">
        <ele>1070.221</ele>
        <time>2022-02-24T14:50:16Z</time>
      </trkpt>
      <trkpt lat="40.657920" lon="-4.710120">
        <ele>1070.572</ele>
        <time>2022-02-24T14:50:56Z</time>
      </trkpt>
      <trkpt lat="40.658060" lon="-4.710430">
        <ele>1072.014</ele>
        <time>2022-02-24T14:51:36Z</time>
      </trkpt>
      <trkpt lat="40.658140" lon="-4.710610">
        <ele>1072.551</ele>
        <time>2022-02-24T14:52:16Z</time>
      </trkpt>
      <trkpt lat="40.658320" lon="-4.711030">
        <ele>1074.301</ele>
        <time>2022-02-24T14:52:56Z</time>
      </trkpt>
      <trkpt lat="40.658350" lon="-4.711110">
        <ele>1074.811</ele>
        <time>2022-02-24T14:53:36Z</time>
      </trkpt>
      <trkpt lat="40.658410" lon="-4.711220">
        <ele>1075.108</ele>
        <time>2022-02-24T14:54:16Z</time>
      </trkpt>
      <trkpt lat="40.658430" lon="-4.711270">
        <ele>1075.394</ele>
        <time>2022-02-24T14:54:56Z</time>
      </trkpt>
      <trkpt lat="40.658470" lon="-4.711340">
        <ele>1075.661</ele>
        <time>2022-02-24T14:55:36Z</time>
      </trkpt>
      <trkpt lat="40.658520" lon="-4.711410">
        <ele>1075.815</ele>
        <time>2022-02-24T14:56:16Z</time>
      </trkpt>
      <trkpt lat="40.658550" lon="-4.711460">
        <ele>1076.074</ele>
        <time>2022-02-24T14:56:56Z</time>
      </trkpt>
      <trkpt lat="40.658590" lon="-4.711510">
        <ele>1076.193</ele>
        <time>2022-02-24T14:57:36Z</time>
      </trkpt>
      <trkpt lat="40.658640" lon="-4.711560">
        <ele>1076.194</ele>
        <time>2022-02-24T14:58:16Z</time>
      </trkpt>
      <trkpt lat="40.658670" lon="-4.711590">
        <ele>1076.255</ele>
        <time>2022-02-24T14:58:56Z</time>
      </trkpt>
      <trkpt lat="40.658830" lon="-4.711700">
        <ele>1076.557</ele>
        <time>2022-02-24T14:59:36Z</time>
      </trkpt>
      <trkpt lat="40.658910" lon="-4.711740">
        <ele>1076.722</ele>
        <time>2022-02-24T15:00:16Z</time>
      </trkpt>
      <trkpt lat="40.658990" lon="-4.711770">
        <ele>1077.562</ele>
        <time>2022-02-24T15:00:56Z</time>
      </trkpt>
      <trkpt lat="40.659060" lon="-4.711790">
        <ele>1078.108</ele>
        <time>2022-02-24T15:01:36Z</time>
      </trkpt>
      <trkpt lat="40.659140" lon="-4.711810">
        <ele>1078.808</ele>
        <time>2022-02-24T15:02:16Z</time>
      </trkpt>
      <trkpt lat="40.659200" lon="-4.711820">
        <ele>1079.271</ele>
        <time>2022-02-24T15:02:56Z</time>
      </trkpt>
      <trkpt lat="40.659250" lon="-4.711820">
        <ele>1079.298</ele>
        <time>2022-02-24T15:03:36Z</time>
      </trkpt>
      <trkpt lat="40.659340" lon="-4.711830">
        <ele>1079.472</ele>
        <time>2022-02-24T15:04:16Z</time>
      </trkpt>
      <trkpt lat="40.659410" lon="-4.711800">
        <ele>1079.451</ele>
        <time>2022-02-24T15:04:56Z</time>
      </trkpt>
      <trkpt lat="40.659750" lon="-4.711730">
        <ele>1078.730</ele>
        <time>2022-02-24T15:05:36Z</time>
      </trkpt>
      <trkpt lat="40.659870" lon="-4.711690">
        <ele>1079.361</ele>
        <time>2022-02-24T15:06:16Z</time>
      </trkpt>
      <trkpt lat="40.660210" lon="-4.711530">
        <ele>1080.522</ele>
        <time>2022-02-24T15:06:56Z</time>
      </trkpt>
      <trkpt lat="40.660440" lon="-4.711430">
        <ele>1079.434</ele>
        <time>2022-02-24T15:07:36Z</time>
      </trkpt>
      <trkpt lat="40.660690" lon="-4.711360">
        <ele>1077.985</ele>
        <time>2022-02-24T15:08:16Z</time>
      </trkpt>
      <trkpt lat="40.660700" lon="-4.711350">
        <ele>1077.889</ele>
        <time>2022-02-24T15:08:56Z</time>
      </trkpt>
      <trkpt lat="40.660710" lon="-4.711350">
        <ele>1077.717</ele>
        <time>2022-02-24T15:09:36Z</time>
      </trkpt>
      <trkpt lat="40.660710" lon="-4.711340">
        <ele>1077.608</ele>
        <time>2022-02-24T15:10:16Z</time>
      </trkpt>
      <trkpt lat="40.660720" lon="-4.711340">
        <ele>1077.627</ele>
        <time>2022-02-24T15:10:56Z</time>
      </trkpt>
      <trkpt lat="40.660720" lon="-4.711330">
        <ele>1077.574</ele>
        <time>2022-02-24T15:11:36Z</time>
      </trkpt>
      <trkpt lat="40.660730" lon="-4.711330">
        <ele>1077.568</ele>
        <time>2022-02-24T15:12:16Z</time>
      </trkpt>
      <trkpt lat="40.660750" lon="-4.711330">
        <ele>1077.387</ele>
        <time>2022-02-24T15:12:56Z</time>
      </trkpt>
      <trkpt lat="40.660750" lon="-4.711320">
        <ele>1077.376</ele>
        <time>2022-02-24T15:13:36Z</time>
      </trkpt>
      <trkpt lat="40.660760" lon="-4.711320">
        <ele>1077.217</ele>
        <time>2022-02-24T15:14:16Z</time>
      </trkpt>
      <trkpt lat="40.660770" lon="-4.711320">
        <ele>1077.258</ele>
        <time>2022-02-24T15:14:56Z</time>
      </trkpt>
      <trkpt lat="40.660780" lon="-4.711320">
        <ele>1077.160</ele>
        <time>2022-02-24T15:15:36Z</time>
      </trkpt>
      <trkpt lat="40.660780" lon="-4.711330">
        <ele>1077.192</ele>
        <time>2022-02-24T15:16:16Z</time>
      </trkpt>
      <trkpt lat="40.660790" lon="-4.711330">
        <ele>1077.173</ele>
        <time>2022-02-24T15:16:56Z</time>
      </trkpt>
      <trkpt lat="40.660800" lon="-4.711330">
        <ele>1077.020</ele>
        <time>2022-02-24T15:17:36Z</time>
      </trkpt>
      <trkpt lat="40.660810" lon="-4.711340">
        <ele>1077.008</ele>
        <time>2022-02-24T15:18:16Z</time>
      </trkpt>
      <trkpt lat="40.660820" lon="-4.711340">
        <ele>1076.918</ele>
        <time>2022-02-24T15:18:56Z</time>
      </trkpt>
      <trkpt lat="40.660820" lon="-4.711350">
        <ele>1076.995</ele>
        <time>2022-02-24T15:19:36Z</time>
      </trkpt>
      <trkpt lat="40.660830" lon="-4.711350">
        <ele>1076.969</ele>
        <time>2022-02-24T15:20:16Z</time>
      </trkpt>
      <trkpt lat="40.660840" lon="-4.711360">
        <ele>1076.928</ele>
        <time>2022-02-24T15:20:56Z</time>
      </trkpt>
      <trkpt lat="40.660840" lon="-4.711370">
        <ele>1076.997</ele>
        <time>2022-02-24T15:21:36Z</time>
      </trkpt>
      <trkpt lat="40.660940" lon="-4.711370">
        <ele>1076.968</ele>
        <time>2022-02-24T15:22:16Z</time>
      </trkpt>
      <trkpt lat="40.661050" lon="-4.711370">
        <ele>1076.969</ele>
        <time>2022-02-24T15:22:56Z</time>
      </trkpt>
      <trkpt lat="40.661080" lon="-4.711370">
        <ele>1076.921</ele>
        <time>2022-02-24T15:23:36Z</time>
      </trkpt>
      <trkpt lat="40.661190" lon="-4.711390">
        <ele>1077.319</ele>
        <time>2022-02-24T15:24:16Z</time>
      </trkpt>
      <trkpt lat="40.661520" lon="-4.711440">
        <ele>1079.109</ele>
        <time>2022-02-24T15:24:56Z</time>
      </trkpt>
      <trkpt lat="40.661600" lon="-4.711450">
        <ele>1079.719</ele>
        <time>2022-02-24T15:25:36Z</time>
      </trkpt>
      <trkpt lat="40.661800" lon="-4.711480">
        <ele>1080.308</ele>
        <time>2022-02-24T15:26:16Z</time>
      </trkpt>
      <trkpt lat="40.662090" lon="-4.711530">
        <ele>1080.580</ele>
        <time>2022-02-24T15:26:56Z</time>
      </trkpt>
      <trkpt lat="40.662190" lon="-4.711540">
        <ele>1080.527</ele>
        <time>2022-02-24T15:27:36Z</time>
      </trkpt>
      <trkpt lat="40.662320" lon="-4.711560">
        <ele>1081.041</ele>
        <time>2022-02-24T15:28:16Z</time>
      </trkpt>
      <trkpt lat="40.662560" lon="-4.711590">
        <ele>1081.980</ele>
        <time>2022-02-24T15:28:56Z</time>
      </trkpt>
      <trkpt lat="40.662740" lon="-4.711610">
        <ele>1082.799</ele>
        <time>2022-02-24T15:29:36Z</time>
      </trkpt>
      <trkpt lat="40.662860" lon="-4.711630">
        <ele>1082.680</ele>
        <time>2022-02-24T15:30:16Z</time>
      </trkpt>
      <trkpt lat="40.662880" lon="-4.711630">
        <ele>1082.551</ele>
        <time>2022-02-24T15:30:56Z</time>
      </trkpt>
      <trkpt lat="40.662940" lon="-4.711640">
        <ele>1082.333</ele>
        <time>2022-02-24T15:31:36Z</time>
      </trkpt>
      <trkpt lat="40.662942" lon="-4.711644">
        <ele>1082.352</ele>
        <time>2022-02-24T15:32:16Z</time>
      </trkpt>
      <trkpt lat="40.663020" lon="-4.711640">
        <ele>1082.053</ele>
        <time>2022-02-24T15:32:56Z</time>
      </trkpt>
      <trkpt lat="40.663160" lon="-4.711640">
        <ele>1082.308</ele>
        <time>2022-02-24T15:33:36Z</time>
      </trkpt>
      <trkpt lat="40.663270" lon="-4.711630">
        <ele>1082.608</ele>
        <time>2022-02-24T15:34:16Z</time>
      </trkpt>
      <trkpt lat="40.663400" lon="-4.711610">
        <ele>1083.044</ele>
        <time>2022-02-24T15:34:56Z</time>
      </trkpt>
      <trkpt lat="40.663440" lon="-4.711600">
        <ele>1083.161</ele>
        <time>2022-02-24T15:35:36Z</time>
      </trkpt>
      <trkpt lat="40.663470" lon="-4.711600">
        <ele>1083.195</ele>
        <time>2022-02-24T15:36:16Z</time>
      </trkpt>
      <trkpt lat="40.663510" lon="-4.711590">
        <ele>1083.294</ele>
        <time>2022-02-24T15:36:56Z</time>
      </trkpt>
      <trkpt lat="40.663540" lon="-4.711590">
        <ele>1083.373</ele>
        <time>2022-02-24T15:37:36Z</time>
      </trkpt>
      <trkpt lat="40.663570" lon="-4.711590">
        <ele>1083.354</ele>
        <time>2022-02-24T15:38:16Z</time>
      </trkpt>
      <trkpt lat="40.663600" lon="-4.711600">
        <ele>1083.515</ele>
        <time>2022-02-24T15:38:56Z</time>
      </trkpt>
      <trkpt lat="40.663630" lon="-4.711620">
        <ele>1083.617</ele>
        <time>2022-02-24T15:39:36Z</time>
      </trkpt>
      <trkpt lat="40.663640" lon="-4.711630">
        <ele>1083.643</ele>
        <time>2022-02-24T15:40:16Z</time>
      </trkpt>
      <trkpt lat="40.663660" lon="-4.711640">
        <ele>1083.664</ele>
        <time>2022-02-24T15:40:56Z</time>
      </trkpt>
      <trkpt lat="40.663680" lon="-4.711670">
        <ele>1083.810</ele>
        <time>2022-02-24T15:41:36Z</time>
      </trkpt>
      <trkpt lat="40.663710" lon="-4.711710">
        <ele>1083.908</ele>
        <time>2022-02-24T15:42:16Z</time>
      </trkpt>
      <trkpt lat="40.663740" lon="-4.711770">
        <ele>1084.193</ele>
        <time>2022-02-24T15:42:56Z</time>
      </trkpt>
      <trkpt lat="40.663790" lon="-4.711820">
        <ele>1084.120</ele>
        <time>2022-02-24T15:43:36Z</time>
      </trkpt>
      <trkpt lat="40.663830" lon="-4.711860">
        <ele>1084.124</ele>
        <time>2022-02-24T15:44:16Z</time>
      </trkpt>
      <trkpt lat="40.663870" lon="-4.711880">
        <ele>1083.983</ele>
        <time>2022-02-24T15:44:56Z</time>
      </trkpt>
      <trkpt lat="40.663910" lon="-4.711890">
        <ele>1083.832</ele>
        <time>2022-02-24T15:45:36Z</time>
      </trkpt>
      <trkpt lat="40.664040" lon="-4.711890">
        <ele>1083.783</ele>
        <time>2022-02-24T15:46:16Z</time>
      </trkpt>
      <trkpt lat="40.664037" lon="-4.711895">
        <ele>1083.774</ele>
        <time>2022-02-24T15:46:56Z</time>
      </trkpt>
      <trkpt lat="40.664050" lon="-4.711880">
        <ele>1083.646</ele>
        <time>2022-02-24T15:47:36Z</time>
      </trkpt>
      <trkpt lat="40.664060" lon="-4.711860">
        <ele>1083.567</ele>
        <time>2022-02-24T15:48:16Z</time>
      </trkpt>
      <trkpt lat="40.664090" lon="-4.711850">
        <ele>1083.481</ele>
        <time>2022-02-24T15:48:56Z</time>
      </trkpt>
      <trkpt lat="40.664110" lon="-4.711840">
        <ele>1083.319</ele>
        <time>2022-02-24T15:49:36Z</time>
      </trkpt>
      <trkpt lat="40.664140" lon="-4.711830">
        <ele>1083.208</ele>
        <time>2022-02-24T15:50:16Z</time>
      </trkpt>
      <trkpt lat="40.664190" lon="-4.711830">
        <ele>1083.135</ele>
        <time>2022-02-24T15:50:56Z</time>
      </trkpt>
      <trkpt lat="40.664200" lon="-4.711830">
        <ele>1083.152</ele>
        <time>2022-02-24T15:51:36Z</time>
      </trkpt>
      <trkpt lat="40.664230" lon="-4.711840">
        <ele>1083.046</ele>
        <time>2022-02-24T15:52:16Z</time>
      </trkpt>
      <trkpt lat="40.664260" lon="-4.711850">
        <ele>1083.025</ele>
        <time>2022-02-24T15:52:56Z</time>
      </trkpt>
      <trkpt lat="40.664300" lon="-4.711870">
        <ele>1083.034</ele>
        <time>2022-02-24T15:53:36Z</time>
      </trkpt>
      <trkpt lat="40.664320" lon="-4.711900">
        <ele>1083.125</ele>
        <time>2022-02-24T15:54:16Z</time>
      </trkpt>
      <trkpt lat="40.664340" lon="-4.711920">
        <ele>1083.226</ele>
        <time>2022-02-24T15:54:56Z</time>
      </trkpt>
      <trkpt lat="40.664360" lon="-4.711960">
        <ele>1083.438</ele>
        <time>2022-02-24T15:55:36Z</time>
      </trkpt>
      <trkpt lat="40.664370" lon="-4.712000">
        <ele>1083.724</ele>
        <time>2022-02-24T15:56:16Z</time>
      </trkpt>
      <trkpt lat="40.664390" lon="-4.712040">
        <ele>1083.904</ele>
        <time>2022-02-24T15:56:56Z</time>
      </trkpt>
      <trkpt lat="40.664400" lon="-4.712090">
        <ele>1084.214</ele>
        <time>2022-02-24T15:57:36Z</time>
      </trkpt>
      <trkpt lat="40.664400" lon="-4.712120">
        <ele>1084.408</ele>
        <time>2022-02-24T15:58:16Z</time>
      </trkpt>
      <trkpt lat="40.664400" lon="-4.712150">
        <ele>1084.681</ele>
        <time>2022-02-24T15:58:56Z</time>
      </trkpt>
      <trkpt lat="40.664400" lon="-4.712180">
        <ele>1084.978</ele>
        <time>2022-02-24T15:59:36Z</time>
      </trkpt>
      <trkpt lat="40.664390" lon="-4.712200">
        <ele>1085.072</ele>
        <time>2022-02-24T16:00:16Z</time>
      </trkpt>
      <trkpt lat="40.664390" lon="-4.712220">
        <ele>1085.251</ele>
        <time>2022-02-24T16:00:56Z</time>
      </trkpt>
      <trkpt lat="40.664380" lon="-4.712240">
        <ele>1085.430</ele>
        <time>2022-02-24T16:01:36Z</time>
      </trkpt>
      <trkpt lat="40.664370" lon="-4.712260">
        <ele>1085.561</ele>
        <time>2022-02-24T16:02:16Z</time>
      </trkpt>
      <trkpt lat="40.664360" lon="-4.712280">
        <ele>1085.772</ele>
        <time>2022-02-24T16:02:56Z</time>
      </trkpt>
      <trkpt lat="40.664350" lon="-4.712300">
        <ele>1085.974</ele>
        <time>2022-02-24T16:03:36Z</time>
      </trkpt>
      <trkpt lat="40.664340" lon="-4.712320">
        <ele>1086.194</ele>
        <time>2022-02-24T16:04:16Z</time>
      </trkpt>
      <trkpt lat="40.664330" lon="-4.712340">
        <ele>1086.357</ele>
        <time>2022-02-24T16:04:56Z</time>
      </trkpt>
      <trkpt lat="40.664310" lon="-4.712350">
        <ele>1086.422</ele>
        <time>2022-02-24T16:05:36Z</time>
      </trkpt>
      <trkpt lat="40.664300" lon="-4.712360">
        <ele>1086.508</ele>
        <time>2022-02-24T16:06:16Z</time>
      </trkpt>
      <trkpt lat="40.664290" lon="-4.712370">
        <ele>1086.648</ele>
        <time>2022-02-24T16:06:56Z</time>
      </trkpt>
      <trkpt lat="40.664280" lon="-4.712370">
        <ele>1086.715</ele>
        <time>2022-02-24T16:07:36Z</time>
      </trkpt>
      <trkpt lat="40.664280" lon="-4.712380">
        <ele>1086.789</ele>
        <time>2022-02-24T16:08:16Z</time>
      </trkpt>
      <trkpt lat="40.664270" lon="-4.712380">
        <ele>1086.818</ele>
        <time>2022-02-24T16:08:56Z</time>
      </trkpt>
      <trkpt lat="40.664260" lon="-4.712380">
        <ele>1086.877</ele>
        <time>2022-02-24T16:09:36Z</time>
      </trkpt>
      <trkpt lat="40.664250" lon="-4.712390">
        <ele>1086.998</ele>
        <time>2022-02-24T16:10:16Z</time>
      </trkpt>
      <trkpt lat="40.664240" lon="-4.712390">
        <ele>1086.919</ele>
        <time>2022-02-24T16:10:56Z</time>
      </trkpt>
      <trkpt lat="40.664170" lon="-4.712480">
        <ele>1087.831</ele>
        <time>2022-02-24T16:11:36Z</time>
      </trkpt>
      <trkpt lat="40.664140" lon="-4.712540">
        <ele>1088.294</ele>
        <time>2022-02-24T16:12:16Z</time>
      </trkpt>
      <trkpt lat="40.664130" lon="-4.712550">
        <ele>1088.257</ele>
        <time>2022-02-24T16:12:56Z</time>
      </trkpt>
      <trkpt lat="40.664040" lon="-4.712750">
        <ele>1089.322</ele>
        <time>2022-02-24T16:13:36Z</time>
      </trkpt>
      <trkpt lat="40.664030" lon="-4.712870">
        <ele>1090.008</ele>
        <time>2022-02-24T16:14:16Z</time>
      </trkpt>
      <trkpt lat="40.664020" lon="-4.712970">
        <ele>1090.518</ele>
        <time>2022-02-24T16:14:56Z</time>
      </trkpt>
      <trkpt lat="40.664020" lon="-4.712990">
        <ele>1090.755</ele>
        <time>2022-02-24T16:15:36Z</time>
      </trkpt>
      <trkpt lat="40.664010" lon="-4.713060">
        <ele>1091.039</ele>
        <time>2022-02-24T16:16:16Z</time>
      </trkpt>
      <trkpt lat="40.664010" lon="-4.713140">
        <ele>1091.698</ele>
        <time>2022-02-24T16:16:56Z</time>
      </trkpt>
      <trkpt lat="40.664010" lon="-4.713150">
        <ele>1091.737</ele>
        <time>2022-02-24T16:17:36Z</time>
      </trkpt>
      <trkpt lat="40.664010" lon="-4.713160">
        <ele>1091.868</ele>
        <time>2022-02-24T16:18:16Z</time>
      </trkpt>
      <trkpt lat="40.664010" lon="-4.713170">
        <ele>1091.879</ele>
        <time>2022-02-24T16:18:56Z</time>
      </trkpt>
      <trkpt lat="40.664010" lon="-4.713230">
        <ele>1092.391</ele>
        <time>2022-02-24T16:19:36Z</time>
      </trkpt>
      <trkpt lat="40.664020" lon="-4.713290">
        <ele>1092.775</ele>
        <time>2022-02-24T16:20:16Z</time>
      </trkpt>
      <trkpt lat="40.664020" lon="-4.713360">
        <ele>1093.128</ele>
        <time>2022-02-24T16:20:56Z</time>
      </trkpt>
      <trkpt lat="40.664030" lon="-4.713450">
        <ele>1093.420</ele>
        <time>2022-02-24T16:21:36Z</time>
      </trkpt>
      <trkpt lat="40.664030" lon="-4.713470">
        <ele>1093.508</ele>
        <time>2022-02-24T16:22:16Z</time>
      </trkpt>
      <trkpt lat="40.664030" lon="-4.713530">
        <ele>1093.746</ele>
        <time>2022-02-24T16:22:56Z</time>
      </trkpt>
      <trkpt lat="40.664040" lon="-4.713610">
        <ele>1094.023</ele>
        <time>2022-02-24T16:23:36Z</time>
      </trkpt>
      <trkpt lat="40.664050" lon="-4.713670">
        <ele>1094.497</ele>
        <time>2022-02-24T16:24:16Z</time>
      </trkpt>
      <trkpt lat="40.664060" lon="-4.713700">
        <ele>1094.626</ele>
        <time>2022-02-24T16:24:56Z</time>
      </trkpt>
      <trkpt lat="40.664070" lon="-4.713740">
        <ele>1094.955</ele>
        <time>2022-02-24T16:25:36Z</time>
      </trkpt>
      <trkpt lat="40.664080" lon="-4.713800">
        <ele>1095.426</ele>
        <time>2022-02-24T16:26:16Z</time>
      </trkpt>
      <trkpt lat="40.664110" lon="-4.713930">
        <ele>1096.167</ele>
        <time>2022-02-24T16:26:56Z</time>
      </trkpt>
      <trkpt lat="40.664170" lon="-4.714140">
        <ele>1096.989</ele>
        <time>2022-02-24T16:27:36Z</time>
      </trkpt>
      <trkpt lat="40.664200" lon="-4.714250">
        <ele>1097.294</ele>
        <time>2022-02-24T16:28:16Z</time>
      </trkpt>
      <trkpt lat="40.664240" lon="-4.714370">
        <ele>1097.557</ele>
        <time>2022-02-24T16:28:56Z</time>
      </trkpt>
      <trkpt lat="40.664280" lon="-4.714500">
        <ele>1097.622</ele>
        <time>2022-02-24T16:29:36Z</time>
      </trkpt>
      <trkpt lat="40.664300" lon="-4.714590">
        <ele>1097.608</ele>
        <time>2022-02-24T16:30:16Z</time>
      </trkpt>
      <trkpt lat="40.664360" lon="-4.714810">
        <ele>1097.488</ele>
        <time>2022-02-24T16:30:56Z</time>
      </trkpt>
      <trkpt lat="40.664380" lon="-4.714880">
        <ele>1097.415</ele>
        <time>2022-02-24T16:31:36Z</time>
      </trkpt>
      <trkpt lat="40.664420" lon="-4.715030">
        <ele>1097.599</ele>
        <time>2022-02-24T16:32:16Z</time>
      </trkpt>
      <trkpt lat="40.664430" lon="-4.715090">
        <ele>1097.878</ele>
        <time>2022-02-24T16:32:56Z</time>
      </trkpt>
      <trkpt lat="40.664470" lon="-4.715290">
        <ele>1098.617</ele>
        <time>2022-02-24T16:33:36Z</time>
      </trkpt>
      <trkpt lat="40.664490" lon="-4.715460">
        <ele>1098.588</ele>
        <time>2022-02-24T16:34:16Z</time>
      </trkpt>
      <trkpt lat="40.664500" lon="-4.715640">
        <ele>1098.419</ele>
        <time>2022-02-24T16:34:56Z</time>
      </trkpt>
      <trkpt lat="40.664500" lon="-4.715850">
        <ele>1098.431</ele>
        <time>2022-02-24T16:35:36Z</time>
      </trkpt>
      <trkpt lat="40.664500" lon="-4.715960">
        <ele>1098.875</ele>
        <time>2022-02-24T16:36:16Z</time>
      </trkpt>
      <trkpt lat="40.664500" lon="-4.715970">
        <ele>1098.828</ele>
        <time>2022-02-24T16:36:56Z</time>
      </trkpt>
      <trkpt lat="40.664490" lon="-4.716130">
        <ele>1099.420</ele>
        <time>2022-02-24T16:37:36Z</time>
      </trkpt>
      <trkpt lat="40.664440" lon="-4.716450">
        <ele>1100.008</ele>
        <time>2022-02-24T16:38:16Z</time>
      </trkpt>
      <trkpt lat="40.664360" lon="-4.716970">
        <ele>1100.346</ele>
        <time>2022-02-24T16:38:56Z</time>
      </trkpt>
      <trkpt lat="40.664260" lon="-4.717560">
        <ele>1101.353</ele>
        <time>2022-02-24T16:39:36Z</time>
      </trkpt>
      <trkpt lat="40.664240" lon="-4.717660">
        <ele>1101.317</ele>
        <time>2022-02-24T16:40:16Z</time>
      </trkpt>
      <trkpt lat="40.664200" lon="-4.718040">
        <ele>1101.816</ele>
        <time>2022-02-24T16:40:56Z</time>
      </trkpt>
      <trkpt lat="40.664190" lon="-4.718170">
        <ele>1101.865</ele>
        <time>2022-02-24T16:41:36Z</time>
      </trkpt>
      <trkpt lat="40.664180" lon="-4.718350">
        <ele>1102.036</ele>
        <time>2022-02-24T16:42:16Z</time>
      </trkpt>
      <trkpt lat="40.664180" lon="-4.718510">
        <ele>1102.547</ele>
        <time>2022-02-24T16:42:56Z</time>
      </trkpt>
      <trkpt lat="40.664180" lon="-4.718540">
        <ele>1102.649</ele>
        <time>2022-02-24T16:43:36Z</time>
      </trkpt>
      <trkpt lat="40.664180" lon="-4.718780">
        <ele>1103.521</ele>
        <time>2022-02-24T16:44:16Z</time>
      </trkpt>
      <trkpt lat="40.664180" lon="-4.718880">
        <ele>1103.941</ele>
        <time>2022-02-24T16:44:56Z</time>
      </trkpt>
      <trkpt lat="40.664190" lon="-4.719010">
        <ele>1104.705</ele>
        <time>2022-02-24T16:45:36Z</time>
      </trkpt>
      <trkpt lat="40.664200" lon="-4.719100">
        <ele>1105.308</ele>
        <time>2022-02-24T16:46:16Z</time>
      </trkpt>
      <trkpt lat="40.664200" lon="-4.719190">
        <ele>1105.861</ele>
        <time>2022-02-24T16:46:56Z</time>
      </trkpt>
      <trkpt lat="40.664210" lon="-4.719310">
        <ele>1106.258</ele>
        <time>2022-02-24T16:47:36Z</time>
      </trkpt>
      <trkpt lat="40.664250" lon="-4.719640">
        <ele>1107.112</ele>
        <time>2022-02-24T16:48:16Z</time>
      </trkpt>
      <trkpt lat="40.664280" lon="-4.719840">
        <ele>1107.621</ele>
        <time>2022-02-24T16:48:56Z</time>
      </trkpt>
      <trkpt lat="40.664320" lon="-4.720100">
        <ele>1108.320</ele>
        <time>2022-02-24T16:49:36Z</time>
      </trkpt>
      <trkpt lat="40.664330" lon="-4.720120">
        <ele>1108.331</ele>
        <time>2022-02-24T16:50:16Z</time>
      </trkpt>
      <trkpt lat="40.664360" lon="-4.720240">
        <ele>1108.532</ele>
        <time>2022-02-24T16:50:56Z</time>
      </trkpt>
      <trkpt lat="40.664370" lon="-4.720290">
        <ele>1108.644</ele>
        <time>2022-02-24T16:51:36Z</time>
      </trkpt>
      <trkpt lat="40.664380" lon="-4.720330">
        <ele>1108.662</ele>
        <time>2022-02-24T16:52:16Z</time>
      </trkpt>
      <trkpt lat="40.664430" lon="-4.720520">
        <ele>1108.983</ele>
        <time>2022-02-24T16:52:56Z</time>
      </trkpt>
      <trkpt lat="40.664440" lon="-4.720550">
        <ele>1109.011</ele>
        <time>2022-02-24T16:53:36Z</time>
      </trkpt>
      <trkpt lat="40.664460" lon="-4.720640">
        <ele>1109.608</ele>
        <time>2022-02-24T16:54:16Z</time>
      </trkpt>
      <trkpt lat="40.664480" lon="-4.720690">
        <ele>1109.895</ele>
        <time>2022-02-24T16:54:56Z</time>
      </trkpt>
      <trkpt lat="40.664480" lon="-4.720700">
        <ele>1109.932</ele>
        <time>2022-02-24T16:55:36Z</time>
      </trkpt>
      <trkpt lat="40.664490" lon="-4.720740">
        <ele>1110.296</ele>
        <time>2022-02-24T16:56:16Z</time>
      </trkpt>
      <trkpt lat="40.664540" lon="-4.720800">
        <ele>1110.495</ele>
        <time>2022-02-24T16:56:56Z</time>
      </trkpt>
      <trkpt lat="40.664570" lon="-4.720890">
        <ele>1110.894</ele>
        <time>2022-02-24T16:57:36Z</time>
      </trkpt>
      <trkpt lat="40.664580" lon="-4.720920">
        <ele>1110.865</ele>
        <time>2022-02-24T16:58:16Z</time>
      </trkpt>
      <trkpt lat="40.664600" lon="-4.720950">
        <ele>1110.976</ele>
        <time>2022-02-24T16:58:56Z</time>
      </trkpt>
      <trkpt lat="40.664670" lon="-4.721120">
        <ele>1111.218</ele>
        <time>2022-02-24T16:59:36Z</time>
      </trkpt>
      <trkpt lat="40.664670" lon="-4.721130">
        <ele>1111.328</ele>
        <time>2022-02-24T17:00:16Z</time>
      </trkpt>
      <trkpt lat="40.664740" lon="-4.721270">
        <ele>1111.489</ele>
        <time>2022-02-24T17:00:56Z</time>
      </trkpt>
      <trkpt lat="40.664770" lon="-4.721330">
        <ele>1111.417</ele>
        <time>2022-02-24T17:01:36Z</time>
      </trkpt>
      <trkpt lat="40.664840" lon="-4.721470">
        <ele>1111.408</ele>
        <time>2022-02-24T17:02:16Z</time>
      </trkpt>
      <trkpt lat="40.665080" lon="-4.721890">
        <ele>1111.821</ele>
        <time>2022-02-24T17:02:56Z</time>
      </trkpt>
      <trkpt lat="40.665120" lon="-4.721950">
        <ele>1111.788</ele>
        <time>2022-02-24T17:03:36Z</time>
      </trkpt>
      <trkpt lat="40.665180" lon="-4.722060">
        <ele>1111.762</ele>
        <time>2022-02-24T17:04:16Z</time>
      </trkpt>
      <trkpt lat="40.665260" lon="-4.722230">
        <ele>1112.281</ele>
        <time>2022-02-24T17:04:56Z</time>
      </trkpt>
      <trkpt lat="40.665310" lon="-4.722330">
        <ele>1111.820</ele>
        <time>2022-02-24T17:05:36Z</time>
      </trkpt>
      <trkpt lat="40.665360" lon="-4.722430">
        <ele>1111.381</ele>
        <time>2022-02-24T17:06:16Z</time>
      </trkpt>
      <trkpt lat="40.665390" lon="-4.722500">
        <ele>1111.062</ele>
        <time>2022-02-24T17:06:56Z</time>
      </trkpt>
      <trkpt lat="40.665470" lon="-4.722670">
        <ele>1110.694</ele>
        <time>2022-02-24T17:07:36Z</time>
      </trkpt>
      <trkpt lat="40.665470" lon="-4.722680">
        <ele>1110.652</ele>
        <time>2022-02-24T17:08:16Z</time>
      </trkpt>
      <trkpt lat="40.665530" lon="-4.722820">
        <ele>1110.753</ele>
        <time>2022-02-24T17:08:56Z</time>
      </trkpt>
      <trkpt lat="40.665540" lon="-4.722840">
        <ele>1110.708</ele>
        <time>2022-02-24T17:09:36Z</time>
      </trkpt>
      <trkpt lat="40.665580" lon="-4.722940">
        <ele>1110.908</ele>
        <time>2022-02-24T17:10:16Z</time>
      </trkpt>
      <trkpt lat="40.665650" lon="-4.723120">
        <ele>1111.444</ele>
        <time>2022-02-24T17:10:56Z</time>
      </trkpt>
      <trkpt lat="40.665700" lon="-4.723250">
        <ele>1111.881</ele>
        <time>2022-02-24T17:11:36Z</time>
      </trkpt>
      <trkpt lat="40.665720" lon="-4.723320">
        <ele>1112.165</ele>
        <time>2022-02-24T17:12:16Z</time>
      </trkpt>
      <trkpt lat="40.665730" lon="-4.723370">
        <ele>1112.584</ele>
        <time>2022-02-24T17:12:56Z</time>
      </trkpt>
      <trkpt lat="40.665780" lon="-4.723520">
        <ele>1113.593</ele>
        <time>2022-02-24T17:13:36Z</time>
      </trkpt>
      <trkpt lat="40.665830" lon="-4.723740">
        <ele>1115.464</ele>
        <time>2022-02-24T17:14:16Z</time>
      </trkpt>
      <trkpt lat="40.665900" lon="-4.724010">
        <ele>1117.675</ele>
        <time>2022-02-24T17:14:56Z</time>
      </trkpt>
      <trkpt lat="40.665930" lon="-4.724150">
        <ele>1118.817</ele>
        <time>2022-02-24T17:15:36Z</time>
      </trkpt>
      <trkpt lat="40.665990" lon="-4.724380">
        <ele>1119.071</ele>
        <time>2022-02-24T17:16:16Z</time>
      </trkpt>
      <trkpt lat="40.666000" lon="-4.724460">
        <ele>1119.041</ele>
        <time>2022-02-24T17:16:56Z</time>
      </trkpt>
      <trkpt lat="40.666010" lon="-4.724510">
        <ele>1118.815</ele>
        <time>2022-02-24T17:17:36Z</time>
      </trkpt>
      <trkpt lat="40.666030" lon="-4.724610">
        <ele>1118.608</ele>
        <time>2022-02-24T17:18:16Z</time>
      </trkpt>
      <trkpt lat="40.666040" lon="-4.724730">
        <ele>1118.246</ele>
        <time>2022-02-24T17:18:56Z</time>
      </trkpt>
      <trkpt lat="40.666050" lon="-4.724810">
        <ele>1117.983</ele>
        <time>2022-02-24T17:19:36Z</time>
      </trkpt>
      <trkpt lat="40.666060" lon="-4.724950">
        <ele>1117.417</ele>
        <time>2022-02-24T17:20:16Z</time>
      </trkpt>
      <trkpt lat="40.666060" lon="-4.725070">
        <ele>1117.086</ele>
        <time>2022-02-24T17:20:56Z</time>
      </trkpt>
      <trkpt lat="40.666060" lon="-4.725090">
        <ele>1116.955</ele>
        <time>2022-02-24T17:21:36Z</time>
      </trkpt>
      <trkpt lat="40.666040" lon="-4.725310">
        <ele>1116.476</ele>
        <time>2022-02-24T17:22:16Z</time>
      </trkpt>
      <trkpt lat="40.666030" lon="-4.725470">
        <ele>1115.987</ele>
        <time>2022-02-24T17:22:56Z</time>
      </trkpt>
      <trkpt lat="40.666020" lon="-4.725500">
        <ele>1115.989</ele>
        <time>2022-02-24T17:23:36Z</time>
      </trkpt>
      <trkpt lat="40.665990" lon="-4.725670">
        <ele>1115.986</ele>
        <time>2022-02-24T17:24:16Z</time>
      </trkpt>
      <trkpt lat="40.665940" lon="-4.725890">
        <ele>1116.060</ele>
        <time>2022-02-24T17:24:56Z</time>
      </trkpt>
      <trkpt lat="40.665870" lon="-4.726120">
        <ele>1115.726</ele>
        <time>2022-02-24T17:25:36Z</time>
      </trkpt>
      <trkpt lat="40.665810" lon="-4.726500">
        <ele>1116.308</ele>
        <time>2022-02-24T17:26:16Z</time>
      </trkpt>
      <trkpt lat="40.665770" lon="-4.726780">
        <ele>1116.177</ele>
        <time>2022-02-24T17:26:56Z</time>
      </trkpt>
      <trkpt lat="40.665720" lon="-4.727200">
        <ele>1114.314</ele>
        <time>2022-02-24T17:27:36Z</time>
      </trkpt>
      <trkpt lat="40.665710" lon="-4.727230">
        <ele>1114.378</ele>
        <time>2022-02-24T17:28:16Z</time>
      </trkpt>
      <trkpt lat="40.665710" lon="-4.727280">
        <ele>1113.967</ele>
        <time>2022-02-24T17:28:56Z</time>
      </trkpt>
      <trkpt lat="40.665690" lon="-4.727360">
        <ele>1113.696</ele>
        <time>2022-02-24T17:29:36Z</time>
      </trkpt>
      <trkpt lat="40.665670" lon="-4.727440">
        <ele>1113.267</ele>
        <time>2022-02-24T17:30:16Z</time>
      </trkpt>
      <trkpt lat="40.665650" lon="-4.727520">
        <ele>1112.968</ele>
        <time>2022-02-24T17:30:56Z</time>
      </trkpt>
      <trkpt lat="40.665600" lon="-4.727660">
        <ele>1112.950</ele>
        <time>2022-02-24T17:31:36Z</time>
      </trkpt>
      <trkpt lat="40.665550" lon="-4.727780">
        <ele>1113.028</ele>
        <time>2022-02-24T17:32:16Z</time>
      </trkpt>
      <trkpt lat="40.665310" lon="-4.728300">
        <ele>1112.089</ele>
        <time>2022-02-24T17:32:56Z</time>
      </trkpt>
      <trkpt lat="40.664530" lon="-4.729880">
        <ele>1114.217</ele>
        <time>2022-02-24T17:33:36Z</time>
      </trkpt>
      <trkpt lat="40.664510" lon="-4.729920">
        <ele>1114.408</ele>
        <time>2022-02-24T17:34:16Z</time>
      </trkpt>
      <trkpt lat="40.664410" lon="-4.730120">
        <ele>1115.241</ele>
        <time>2022-02-24T17:34:56Z</time>
      </trkpt>
      <trkpt lat="40.663690" lon="-4.731610">
        <ele>1116.958</ele>
        <time>2022-02-24T17:35:36Z</time>
      </trkpt>
      <trkpt lat="40.663430" lon="-4.732130">
        <ele>1116.272</ele>
        <time>2022-02-24T17:36:16Z</time>
      </trkpt>
      <trkpt lat="40.663250" lon="-4.732500">
        <ele>1116.661</ele>
        <time>2022-02-24T17:36:56Z</time>
      </trkpt>
      <trkpt lat="40.663170" lon="-4.732680">
        <ele>1116.890</ele>
        <time>2022-02-24T17:37:36Z</time>
      </trkpt>
      <trkpt lat="40.663100" lon="-4.732820">
        <ele>1116.881</ele>
        <time>2022-02-24T17:38:16Z</time>
      </trkpt>
      <trkpt lat="40.662830" lon="-4.733450">
        <ele>1117.722</ele>
        <time>2022-02-24T17:38:56Z</time>
      </trkpt>
      <trkpt lat="40.662720" lon="-4.733720">
        <ele>1118.524</ele>
        <time>2022-02-24T17:39:36Z</time>
      </trkpt>
      <trkpt lat="40.662680" lon="-4.733890">
        <ele>1118.762</ele>
        <time>2022-02-24T17:40:16Z</time>
      </trkpt>
      <trkpt lat="40.662640" lon="-4.734060">
        <ele>1118.783</ele>
        <time>2022-02-24T17:40:56Z</time>
      </trkpt>
      <trkpt lat="40.662600" lon="-4.734260">
        <ele>1118.911</ele>
        <time>2022-02-24T17:41:36Z</time>
      </trkpt>
      <trkpt lat="40.662570" lon="-4.734450">
        <ele>1119.208</ele>
        <time>2022-02-24T17:42:16Z</time>
      </trkpt>
      <trkpt lat="40.662550" lon="-4.734630">
        <ele>1119.545</ele>
        <time>2022-02-24T17:42:56Z</time>
      </trkpt>
      <trkpt lat="40.662550" lon="-4.734640">
        <ele>1119.572</ele>
        <time>2022-02-24T17:43:36Z</time>
      </trkpt>
      <trkpt lat="40.662540" lon="-4.734720">
        <ele>1119.656</ele>
        <time>2022-02-24T17:44:16Z</time>
      </trkpt>
      <trkpt lat="40.662520" lon="-4.735050">
        <ele>1118.945</ele>
        <time>2022-02-24T17:44:56Z</time>
      </trkpt>
      <trkpt lat="40.662490" lon="-4.735330">
        <ele>1119.064</ele>
        <time>2022-02-24T17:45:36Z</time>
      </trkpt>
      <trkpt lat="40.662430" lon="-4.735650">
        <ele>1119.045</ele>
        <time>2022-02-24T17:46:16Z</time>
      </trkpt>
      <trkpt lat="40.662370" lon="-4.735910">
        <ele>1119.056</ele>
        <time>2022-02-24T17:46:56Z</time>
      </trkpt>
      <trkpt lat="40.662160" lon="-4.736690">
        <ele>1120.068</ele>
        <time>2022-02-24T17:47:36Z</time>
      </trkpt>
      <trkpt lat="40.662100" lon="-4.736910">
        <ele>1120.036</ele>
        <time>2022-02-24T17:48:16Z</time>
      </trkpt>
      <trkpt lat="40.662010" lon="-4.737250">
        <ele>1120.217</ele>
        <time>2022-02-24T17:48:56Z</time>
      </trkpt>
      <trkpt lat="40.661910" lon="-4.737580">
        <ele>1122.318</ele>
        <time>2022-02-24T17:49:36Z</time>
      </trkpt>
      <trkpt lat="40.661690" lon="-4.738370">
        <ele>1125.108</ele>
        <time>2022-02-24T17:50:16Z</time>
      </trkpt>
      <trkpt lat="40.661660" lon="-4.738480">
        <ele>1125.662</ele>
        <time>2022-02-24T17:50:56Z</time>
      </trkpt>
      <trkpt lat="40.661630" lon="-4.738600">
        <ele>1126.179</ele>
        <time>2022-02-24T17:51:36Z</time>
      </trkpt>
      <trkpt lat="40.661400" lon="-4.739460">
        <ele>1128.083</ele>
        <time>2022-02-24T17:52:16Z</time>
      </trkpt>
      <trkpt lat="40.661390" lon="-4.739490">
        <ele>1128.042</ele>
        <time>2022-02-24T17:52:56Z</time>
      </trkpt>
      <trkpt lat="40.661150" lon="-4.740330">
        <ele>1129.061</ele>
        <time>2022-02-24T17:53:36Z</time>
      </trkpt>
      <trkpt lat="40.661140" lon="-4.740380">
        <ele>1129.062</ele>
        <time>2022-02-24T17:54:16Z</time>
      </trkpt>
      <trkpt lat="40.661090" lon="-4.740600">
        <ele>1129.013</ele>
        <time>2022-02-24T17:54:56Z</time>
      </trkpt>
      <trkpt lat="40.661070" lon="-4.740650">
        <ele>1129.055</ele>
        <time>2022-02-24T17:55:36Z</time>
      </trkpt>
      <trkpt lat="40.661040" lon="-4.740830">
        <ele>1129.044</ele>
        <time>2022-02-24T17:56:16Z</time>
      </trkpt>
      <trkpt lat="40.661040" lon="-4.740850">
        <ele>1129.005</ele>
        <time>2022-02-24T17:56:56Z</time>
      </trkpt>
      <trkpt lat="40.661030" lon="-4.740910">
        <ele>1129.115</ele>
        <time>2022-02-24T17:57:36Z</time>
      </trkpt>
      <trkpt lat="40.661010" lon="-4.741040">
        <ele>1129.308</ele>
        <time>2022-02-24T17:58:16Z</time>
      </trkpt>
      <trkpt lat="40.661000" lon="-4.741220">
        <ele>1129.683</ele>
        <time>2022-02-24T17:58:56Z</time>
      </trkpt>
      <trkpt lat="40.661000" lon="-4.741280">
        <ele>1129.860</ele>
        <time>2022-02-24T17:59:36Z</time>
      </trkpt>
      <trkpt lat="40.660990" lon="-4.741440">
        <ele>1130.044</ele>
        <time>2022-02-24T18:00:16Z</time>
      </trkpt>
      <trkpt lat="40.661000" lon="-4.741620">
        <ele>1130.063</ele>
        <time>2022-02-24T18:00:56Z</time>
      </trkpt>
      <trkpt lat="40.661010" lon="-4.741740">
        <ele>1130.012</ele>
        <time>2022-02-24T18:01:36Z</time>
      </trkpt>
      <trkpt lat="40.661030" lon="-4.742050">
        <ele>1130.443</ele>
        <time>2022-02-24T18:02:16Z</time>
      </trkpt>
      <trkpt lat="40.661040" lon="-4.742330">
        <ele>1131.024</ele>
        <time>2022-02-24T18:02:56Z</time>
      </trkpt>
      <trkpt lat="40.661050" lon="-4.742390">
        <ele>1131.036</ele>
        <time>2022-02-24T18:03:36Z</time>
      </trkpt>
      <trkpt lat="40.661060" lon="-4.742720">
        <ele>1131.813</ele>
        <time>2022-02-24T18:04:16Z</time>
      </trkpt>
      <trkpt lat="40.661100" lon="-4.743270">
        <ele>1133.043</ele>
        <time>2022-02-24T18:04:56Z</time>
      </trkpt>
      <trkpt lat="40.661110" lon="-4.743530">
        <ele>1133.707</ele>
        <time>2022-02-24T18:05:36Z</time>
      </trkpt>
      <trkpt lat="40.661110" lon="-4.743740">
        <ele>1134.508</ele>
        <time>2022-02-24T18:06:16Z</time>
      </trkpt>
      <trkpt lat="40.661100" lon="-4.744700">
        <ele>1136.810</ele>
        <time>2022-02-24T18:06:56Z</time>
      </trkpt>
      <trkpt lat="40.661060" lon="-4.745950">
        <ele>1139.137</ele>
        <time>2022-02-24T18:07:36Z</time>
      </trkpt>
      <trkpt lat="40.661060" lon="-4.746400">
        <ele>1141.371</ele>
        <time>2022-02-24T18:08:16Z</time>
      </trkpt>
      <trkpt lat="40.661060" lon="-4.746610">
        <ele>1141.480</ele>
        <time>2022-02-24T18:08:56Z</time>
      </trkpt>
      <trkpt lat="40.661070" lon="-4.746760">
        <ele>1141.859</ele>
        <time>2022-02-24T18:09:36Z</time>
      </trkpt>
      <trkpt lat="40.661080" lon="-4.746780">
        <ele>1142.070</ele>
        <time>2022-02-24T18:10:16Z</time>
      </trkpt>
      <trkpt lat="40.661080" lon="-4.746850">
        <ele>1142.221</ele>
        <time>2022-02-24T18:10:56Z</time>
      </trkpt>
      <trkpt lat="40.661100" lon="-4.746970">
        <ele>1142.843</ele>
        <time>2022-02-24T18:11:36Z</time>
      </trkpt>
      <trkpt lat="40.661120" lon="-4.747090">
        <ele>1143.135</ele>
        <time>2022-02-24T18:12:16Z</time>
      </trkpt>
      <trkpt lat="40.661140" lon="-4.747200">
        <ele>1143.286</ele>
        <time>2022-02-24T18:12:56Z</time>
      </trkpt>
      <trkpt lat="40.661320" lon="-4.748120">
        <ele>1145.814</ele>
        <time>2022-02-24T18:13:36Z</time>
      </trkpt>
      <trkpt lat="40.661520" lon="-4.749090">
        <ele>1147.508</ele>
        <time>2022-02-24T18:14:16Z</time>
      </trkpt>
      <trkpt lat="40.661580" lon="-4.749380">
        <ele>1148.582</ele>
        <time>2022-02-24T18:14:56Z</time>
      </trkpt>
      <trkpt lat="40.661660" lon="-4.749760">
        <ele>1149.169</ele>
        <time>2022-02-24T18:15:36Z</time>
      </trkpt>
      <trkpt lat="40.661730" lon="-4.750070">
        <ele>1150.053</ele>
        <time>2022-02-24T18:16:16Z</time>
      </trkpt>
      <trkpt lat="40.661800" lon="-4.750280">
        <ele>1150.012</ele>
        <time>2022-02-24T18:16:56Z</time>
      </trkpt>
      <trkpt lat="40.661840" lon="-4.750460">
        <ele>1150.051</ele>
        <time>2022-02-24T18:17:36Z</time>
      </trkpt>
      <trkpt lat="40.661860" lon="-4.750500">
        <ele>1150.062</ele>
        <time>2022-02-24T18:18:16Z</time>
      </trkpt>
      <trkpt lat="40.662000" lon="-4.750920">
        <ele>1150.343</ele>
        <time>2022-02-24T18:18:56Z</time>
      </trkpt>
      <trkpt lat="40.662010" lon="-4.750940">
        <ele>1150.465</ele>
        <time>2022-02-24T18:19:36Z</time>
      </trkpt>
      <trkpt lat="40.662090" lon="-4.751150">
        <ele>1150.552</ele>
        <time>2022-02-24T18:20:16Z</time>
      </trkpt>
      <trkpt lat="40.662120" lon="-4.751230">
        <ele>1150.653</ele>
        <time>2022-02-24T18:20:56Z</time>
      </trkpt>
      <trkpt lat="40.662160" lon="-4.751360">
        <ele>1150.808</ele>
        <time>2022-02-24T18:21:36Z</time>
      </trkpt>
      <trkpt lat="40.662230" lon="-4.751570">
        <ele>1151.108</ele>
        <time>2022-02-24T18:22:16Z</time>
      </trkpt>
      <trkpt lat="40.662310" lon="-4.751820">
        <ele>1151.534</ele>
        <time>2022-02-24T18:22:56Z</time>
      </trkpt>
      <trkpt lat="40.662350" lon="-4.751940">
        <ele>1151.581</ele>
        <time>2022-02-24T18:23:36Z</time>
      </trkpt>
      <trkpt lat="40.662360" lon="-4.751990">
        <ele>1151.455</ele>
        <time>2022-02-24T18:24:16Z</time>
      </trkpt>
      <trkpt lat="40.662420" lon="-4.752180">
        <ele>1151.594</ele>
        <time>2022-02-24T18:24:56Z</time>
      </trkpt>
      <trkpt lat="40.662460" lon="-4.752330">
        <ele>1151.753</ele>
        <time>2022-02-24T18:25:36Z</time>
      </trkpt>
      <trkpt lat="40.662500" lon="-4.752500">
        <ele>1152.034</ele>
        <time>2022-02-24T18:26:16Z</time>
      </trkpt>
      <trkpt lat="40.662560" lon="-4.752720">
        <ele>1151.625</ele>
        <time>2022-02-24T18:26:56Z</time>
      </trkpt>
      <trkpt lat="40.662610" lon="-4.752890">
        <ele>1151.677</ele>
        <time>2022-02-24T18:27:36Z</time>
      </trkpt>
      <trkpt lat="40.662670" lon="-4.753110">
        <ele>1151.593</ele>
        <time>2022-02-24T18:28:16Z</time>
      </trkpt>
      <trkpt lat="40.662730" lon="-4.753330">
        <ele>1151.065</ele>
        <time>2022-02-24T18:28:56Z</time>
      </trkpt>
      <trkpt lat="40.662800" lon="-4.753560">
        <ele>1151.121</ele>
        <time>2022-02-24T18:29:36Z</time>
      </trkpt>
      <trkpt lat="40.662860" lon="-4.753780">
        <ele>1150.708</ele>
        <time>2022-02-24T18:30:16Z</time>
      </trkpt>
      <trkpt lat="40.662920" lon="-4.754000">
        <ele>1150.398</ele>
        <time>2022-02-24T18:30:56Z</time>
      </trkpt>
      <trkpt lat="40.662980" lon="-4.754220">
        <ele>1150.025</ele>
        <time>2022-02-24T18:31:36Z</time>
      </trkpt>
      <trkpt lat="40.663040" lon="-4.754450">
        <ele>1150.059</ele>
        <time>2022-02-24T18:32:16Z</time>
      </trkpt>
      <trkpt lat="40.663060" lon="-4.754520">
        <ele>1150.088</ele>
        <time>2022-02-24T18:32:56Z</time>
      </trkpt>
      <trkpt lat="40.663100" lon="-4.754670">
        <ele>1150.047</ele>
        <time>2022-02-24T18:33:36Z</time>
      </trkpt>
      <trkpt lat="40.663130" lon="-4.754770">
        <ele>1150.048</ele>
        <time>2022-02-24T18:34:16Z</time>
      </trkpt>
      <trkpt lat="40.663190" lon="-4.754990">
        <ele>1150.089</ele>
        <time>2022-02-24T18:34:56Z</time>
      </trkpt>
      <trkpt lat="40.663250" lon="-4.755210">
        <ele>1150.071</ele>
        <time>2022-02-24T18:35:36Z</time>
      </trkpt>
      <trkpt lat="40.663310" lon="-4.755430">
        <ele>1150.017</ele>
        <time>2022-02-24T18:36:16Z</time>
      </trkpt>
      <trkpt lat="40.663380" lon="-4.755660">
        <ele>1150.187</ele>
        <time>2022-02-24T18:36:56Z</time>
      </trkpt>
      <trkpt lat="40.663420" lon="-4.755820">
        <ele>1150.315</ele>
        <time>2022-02-24T18:37:36Z</time>
      </trkpt>
      <trkpt lat="40.663440" lon="-4.755880">
        <ele>1150.508</ele>
        <time>2022-02-24T18:38:16Z</time>
      </trkpt>
      <trkpt lat="40.663500" lon="-4.756100">
        <ele>1151.010</ele>
        <time>2022-02-24T18:38:56Z</time>
      </trkpt>
      <trkpt lat="40.663560" lon="-4.756330">
        <ele>1151.887</ele>
        <time>2022-02-24T18:39:36Z</time>
      </trkpt>
      <trkpt lat="40.663620" lon="-4.756550">
        <ele>1152.011</ele>
        <time>2022-02-24T18:40:16Z</time>
      </trkpt>
      <trkpt lat="40.663690" lon="-4.756770">
        <ele>1152.310</ele>
        <time>2022-02-24T18:40:56Z</time>
      </trkpt>
      <trkpt lat="40.663860" lon="-4.757380">
        <ele>1153.199</ele>
        <time>2022-02-24T18:41:36Z</time>
      </trkpt>
      <trkpt lat="40.664240" lon="-4.758800">
        <ele>1154.510</ele>
        <time>2022-02-24T18:42:16Z</time>
      </trkpt>
      <trkpt lat="40.664380" lon="-4.759290">
        <ele>1154.891</ele>
        <time>2022-02-24T18:42:56Z</time>
      </trkpt>
      <trkpt lat="40.664460" lon="-4.759550">
        <ele>1154.913</ele>
        <time>2022-02-24T18:43:36Z</time>
      </trkpt>
      <trkpt lat="40.664560" lon="-4.759820">
        <ele>1154.955</ele>
        <time>2022-02-24T18:44:16Z</time>
      </trkpt>
      <trkpt lat="40.664690" lon="-4.760160">
        <ele>1155.607</ele>
        <time>2022-02-24T18:44:56Z</time>
      </trkpt>
      <trkpt lat="40.664910" lon="-4.760700">
        <ele>1156.217</ele>
        <time>2022-02-24T18:45:36Z</time>
      </trkpt>
      <trkpt lat="40.665170" lon="-4.761270">
        <ele>1157.008</ele>
        <time>2022-02-24T18:46:16Z</time>
      </trkpt>
      <trkpt lat="40.665260" lon="-4.761420">
        <ele>1157.154</ele>
        <time>2022-02-24T18:46:56Z</time>
      </trkpt>
      <trkpt lat="40.665280" lon="-4.761450">
        <ele>1157.271</ele>
        <time>2022-02-24T18:47:36Z</time>
      </trkpt>
      <trkpt lat="40.665320" lon="-4.761510">
        <ele>1157.415</ele>
        <time>2022-02-24T18:48:16Z</time>
      </trkpt>
      <trkpt lat="40.665380" lon="-4.761590">
        <ele>1157.734</ele>
        <time>2022-02-24T18:48:56Z</time>
      </trkpt>
      <trkpt lat="40.665410" lon="-4.761620">
        <ele>1157.873</ele>
        <time>2022-02-24T18:49:36Z</time>
      </trkpt>
      <trkpt lat="40.665440" lon="-4.761650">
        <ele>1157.944</ele>
        <time>2022-02-24T18:50:16Z</time>
      </trkpt>
      <trkpt lat="40.665490" lon="-4.761710">
        <ele>1158.085</ele>
        <time>2022-02-24T18:50:56Z</time>
      </trkpt>
      <trkpt lat="40.665550" lon="-4.761750">
        <ele>1158.037</ele>
        <time>2022-02-24T18:51:36Z</time>
      </trkpt>
      <trkpt lat="40.665640" lon="-4.761820">
        <ele>1158.282</ele>
        <time>2022-02-24T18:52:16Z</time>
      </trkpt>
      <trkpt lat="40.665730" lon="-4.761890">
        <ele>1158.543</ele>
        <time>2022-02-24T18:52:56Z</time>
      </trkpt>
      <trkpt lat="40.666280" lon="-4.762240">
        <ele>1161.317</ele>
        <time>2022-02-24T18:53:36Z</time>
      </trkpt>
      <trkpt lat="40.666360" lon="-4.762300">
        <ele>1162.008</ele>
        <time>2022-02-24T18:54:16Z</time>
      </trkpt>
      <trkpt lat="40.666580" lon="-4.762470">
        <ele>1166.317</ele>
        <time>2022-02-24T18:54:56Z</time>
      </trkpt>
      <trkpt lat="40.666980" lon="-4.762850">
        <ele>1170.194</ele>
        <time>2022-02-24T18:55:36Z</time>
      </trkpt>
      <trkpt lat="40.667260" lon="-4.763160">
        <ele>1170.838</ele>
        <time>2022-02-24T18:56:16Z</time>
      </trkpt>
      <trkpt lat="40.667350" lon="-4.763280">
        <ele>1171.777</ele>
        <time>2022-02-24T18:56:56Z</time>
      </trkpt>
      <trkpt lat="40.667510" lon="-4.763510">
        <ele>1173.286</ele>
        <time>2022-02-24T18:57:36Z</time>
      </trkpt>
      <trkpt lat="40.668040" lon="-4.764390">
        <ele>1176.697</ele>
        <time>2022-02-24T18:58:16Z</time>
      </trkpt>
      <trkpt lat="40.668200" lon="-4.764660">
        <ele>1177.778</ele>
        <time>2022-02-24T18:58:56Z</time>
      </trkpt>
      <trkpt lat="40.668310" lon="-4.764850">
        <ele>1178.510</ele>
        <time>2022-02-24T18:59:36Z</time>
      </trkpt>
      <trkpt lat="40.668410" lon="-4.765040">
        <ele>1179.039</ele>
        <time>2022-02-24T19:00:16Z</time>
      </trkpt>
      <trkpt lat="40.668630" lon="-4.765410">
        <ele>1180.301</ele>
        <time>2022-02-24T19:00:56Z</time>
      </trkpt>
      <trkpt lat="40.668850" lon="-4.765870">
        <ele>1180.721</ele>
        <time>2022-02-24T19:01:36Z</time>
      </trkpt>
      <trkpt lat="40.668920" lon="-4.766020">
        <ele>1180.908</ele>
        <time>2022-02-24T19:02:16Z</time>
      </trkpt>
      <trkpt lat="40.669020" lon="-4.766220">
        <ele>1180.782</ele>
        <time>2022-02-24T19:02:56Z</time>
      </trkpt>
      <trkpt lat="40.669130" lon="-4.766460">
        <ele>1180.779</ele>
        <time>2022-02-24T19:03:36Z</time>
      </trkpt>
      <trkpt lat="40.669360" lon="-4.766970">
        <ele>1181.873</ele>
        <time>2022-02-24T19:04:16Z</time>
      </trkpt>
      <trkpt lat="40.669390" lon="-4.767030">
        <ele>1182.072</ele>
        <time>2022-02-24T19:04:56Z</time>
      </trkpt>
      <trkpt lat="40.669570" lon="-4.767440">
        <ele>1183.281</ele>
        <time>2022-02-24T19:05:36Z</time>
      </trkpt>
      <trkpt lat="40.669690" lon="-4.767710">
        <ele>1183.112</ele>
        <time>2022-02-24T19:06:16Z</time>
      </trkpt>
      <trkpt lat="40.669750" lon="-4.767850">
        <ele>1183.373</ele>
        <time>2022-02-24T19:06:56Z</time>
      </trkpt>
      <trkpt lat="40.670010" lon="-4.768410">
        <ele>1184.535</ele>
        <time>2022-02-24T19:07:36Z</time>
      </trkpt>
      <trkpt lat="40.670010" lon="-4.768420">
        <ele>1184.664</ele>
        <time>2022-02-24T19:08:16Z</time>
      </trkpt>
      <trkpt lat="40.670100" lon="-4.768620">
        <ele>1185.706</ele>
        <time>2022-02-24T19:08:56Z</time>
      </trkpt>
      <trkpt lat="40.670190" lon="-4.768830">
        <ele>1186.116</ele>
        <time>2022-02-24T19:09:36Z</time>
      </trkpt>
      <trkpt lat="40.670280" lon="-4.769030">
        <ele>1187.008</ele>
        <time>2022-02-24T19:10:16Z</time>
      </trkpt>
      <trkpt lat="40.670380" lon="-4.769240">
        <ele>1187.655</ele>
        <time>2022-02-24T19:10:56Z</time>
      </trkpt>
      <trkpt lat="40.670470" lon="-4.769440">
        <ele>1188.322</ele>
        <time>2022-02-24T19:11:36Z</time>
      </trkpt>
      <trkpt lat="40.670560" lon="-4.769650">
        <ele>1188.816</ele>
        <time>2022-02-24T19:12:16Z</time>
      </trkpt>
      <trkpt lat="40.670830" lon="-4.770260">
        <ele>1192.985</ele>
        <time>2022-02-24T19:12:56Z</time>
      </trkpt>
      <trkpt lat="40.670920" lon="-4.770470">
        <ele>1194.424</ele>
        <time>2022-02-24T19:13:36Z</time>
      </trkpt>
      <trkpt lat="40.671370" lon="-4.771490">
        <ele>1197.935</ele>
        <time>2022-02-24T19:14:16Z</time>
      </trkpt>
      <trkpt lat="40.671460" lon="-4.771700">
        <ele>1198.976</ele>
        <time>2022-02-24T19:14:56Z</time>
      </trkpt>
      <trkpt lat="40.671550" lon="-4.771890">
        <ele>1199.278</ele>
        <time>2022-02-24T19:15:36Z</time>
      </trkpt>
      <trkpt lat="40.672420" lon="-4.773920">
        <ele>1206.426</ele>
        <time>2022-02-24T19:16:16Z</time>
      </trkpt>
      <trkpt lat="40.672490" lon="-4.774080">
        <ele>1206.747</ele>
        <time>2022-02-24T19:16:56Z</time>
      </trkpt>
      <trkpt lat="40.672570" lon="-4.774290">
        <ele>1207.411</ele>
        <time>2022-02-24T19:17:36Z</time>
      </trkpt>
      <trkpt lat="40.672640" lon="-4.774450">
        <ele>1208.008</ele>
        <time>2022-02-24T19:18:16Z</time>
      </trkpt>
      <trkpt lat="40.672810" lon="-4.774920">
        <ele>1209.881</ele>
        <time>2022-02-24T19:18:56Z</time>
      </trkpt>
      <trkpt lat="40.672820" lon="-4.774930">
        <ele>1209.958</ele>
        <time>2022-02-24T19:19:36Z</time>
      </trkpt>
      <trkpt lat="40.672990" lon="-4.775410">
        <ele>1211.952</ele>
        <time>2022-02-24T19:20:16Z</time>
      </trkpt>
      <trkpt lat="40.673000" lon="-4.775450">
        <ele>1211.911</ele>
        <time>2022-02-24T19:20:56Z</time>
      </trkpt>
      <trkpt lat="40.673100" lon="-4.775740">
        <ele>1212.780</ele>
        <time>2022-02-24T19:21:36Z</time>
      </trkpt>
      <trkpt lat="40.673190" lon="-4.776070">
        <ele>1213.961</ele>
        <time>2022-02-24T19:22:16Z</time>
      </trkpt>
      <trkpt lat="40.673260" lon="-4.776310">
        <ele>1214.592</ele>
        <time>2022-02-24T19:22:56Z</time>
      </trkpt>
      <trkpt lat="40.673310" lon="-4.776520">
        <ele>1215.414</ele>
        <time>2022-02-24T19:23:36Z</time>
      </trkpt>
      <trkpt lat="40.673560" lon="-4.777530">
        <ele>1218.144</ele>
        <time>2022-02-24T19:24:16Z</time>
      </trkpt>
      <trkpt lat="40.673580" lon="-4.777600">
        <ele>1218.305</ele>
        <time>2022-02-24T19:24:56Z</time>
      </trkpt>
      <trkpt lat="40.673640" lon="-4.777840">
        <ele>1219.315</ele>
        <time>2022-02-24T19:25:36Z</time>
      </trkpt>
      <trkpt lat="40.673650" lon="-4.777850">
        <ele>1219.408</ele>
        <time>2022-02-24T19:26:16Z</time>
      </trkpt>
      <trkpt lat="40.673750" lon="-4.778120">
        <ele>1220.293</ele>
        <time>2022-02-24T19:26:56Z</time>
      </trkpt>
      <trkpt lat="40.673840" lon="-4.778310">
        <ele>1220.910</ele>
        <time>2022-02-24T19:27:36Z</time>
      </trkpt>
      <trkpt lat="40.673840" lon="-4.778320">
        <ele>1221.064</ele>
        <time>2022-02-24T19:28:16Z</time>
      </trkpt>
      <trkpt lat="40.674010" lon="-4.778670">
        <ele>1222.693</ele>
        <time>2022-02-24T19:28:56Z</time>
      </trkpt>
      <trkpt lat="40.674020" lon="-4.778680">
        <ele>1222.712</ele>
        <time>2022-02-24T19:29:36Z</time>
      </trkpt>
      <trkpt lat="40.674050" lon="-4.778750">
        <ele>1223.193</ele>
        <time>2022-02-24T19:30:16Z</time>
      </trkpt>
      <trkpt lat="40.674330" lon="-4.779280">
        <ele>1224.824</ele>
        <time>2022-02-24T19:30:56Z</time>
      </trkpt>
      <trkpt lat="40.674390" lon="-4.779390">
        <ele>1225.046</ele>
        <time>2022-02-24T19:31:36Z</time>
      </trkpt>
      <trkpt lat="40.674640" lon="-4.779870">
        <ele>1226.542</ele>
        <time>2022-02-24T19:32:16Z</time>
      </trkpt>
      <trkpt lat="40.674980" lon="-4.780500">
        <ele>1227.822</ele>
        <time>2022-02-24T19:32:56Z</time>
      </trkpt>
      <trkpt lat="40.675010" lon="-4.780560">
        <ele>1228.014</ele>
        <time>2022-02-24T19:33:36Z</time>
      </trkpt>
      <trkpt lat="40.675040" lon="-4.780620">
        <ele>1228.208</ele>
        <time>2022-02-24T19:34:16Z</time>
      </trkpt>
      <trkpt lat="40.675070" lon="-4.780670">
        <ele>1228.453</ele>
        <time>2022-02-24T19:34:56Z</time>
      </trkpt>
      <trkpt lat="40.675280" lon="-4.781060">
        <ele>1229.820</ele>
        <time>2022-02-24T19:35:36Z</time>
      </trkpt>
      <trkpt lat="40.675470" lon="-4.781420">
        <ele>1231.174</ele>
        <time>2022-02-24T19:36:16Z</time>
      </trkpt>
      <trkpt lat="40.675490" lon="-4.781460">
        <ele>1231.363</ele>
        <time>2022-02-24T19:36:56Z</time>
      </trkpt>
      <trkpt lat="40.675510" lon="-4.781500">
        <ele>1231.422</ele>
        <time>2022-02-24T19:37:36Z</time>
      </trkpt>
      <trkpt lat="40.675910" lon="-4.782280">
        <ele>1234.213</ele>
        <time>2022-02-24T19:38:16Z</time>
      </trkpt>
      <trkpt lat="40.676110" lon="-4.782670">
        <ele>1235.634</ele>
        <time>2022-02-24T19:38:56Z</time>
      </trkpt>
      <trkpt lat="40.676190" lon="-4.782830">
        <ele>1236.266</ele>
        <time>2022-02-24T19:39:36Z</time>
      </trkpt>
      <trkpt lat="40.676290" lon="-4.783010">
        <ele>1236.837</ele>
        <time>2022-02-24T19:40:16Z</time>
      </trkpt>
      <trkpt lat="40.676390" lon="-4.783200">
        <ele>1237.049</ele>
        <time>2022-02-24T19:40:56Z</time>
      </trkpt>
      <trkpt lat="40.676620" lon="-4.783630">
        <ele>1238.113</ele>
        <time>2022-02-24T19:41:36Z</time>
      </trkpt>
      <trkpt lat="40.676710" lon="-4.783800">
        <ele>1238.708</ele>
        <time>2022-02-24T19:42:16Z</time>
      </trkpt>
      <trkpt lat="40.677240" lon="-4.784800">
        <ele>1243.532</ele>
        <time>2022-02-24T19:42:56Z</time>
      </trkpt>
      <trkpt lat="40.677540" lon="-4.785360">
        <ele>1246.289</ele>
        <time>2022-02-24T19:43:36Z</time>
      </trkpt>
      <trkpt lat="40.677650" lon="-4.785560">
        <ele>1246.533</ele>
        <time>2022-02-24T19:44:16Z</time>
      </trkpt>
      <trkpt lat="40.677770" lon="-4.785780">
        <ele>1247.682</ele>
        <time>2022-02-24T19:44:56Z</time>
      </trkpt>
      <trkpt lat="40.677850" lon="-4.785920">
        <ele>1248.161</ele>
        <time>2022-02-24T19:45:36Z</time>
      </trkpt>
      <trkpt lat="40.677980" lon="-4.786100">
        <ele>1248.262</ele>
        <time>2022-02-24T19:46:16Z</time>
      </trkpt>
      <trkpt lat="40.678100" lon="-4.786260">
        <ele>1248.663</ele>
        <time>2022-02-24T19:46:56Z</time>
      </trkpt>
      <trkpt lat="40.678120" lon="-4.786290">
        <ele>1248.685</ele>
        <time>2022-02-24T19:47:36Z</time>
      </trkpt>
      <trkpt lat="40.678500" lon="-4.786790">
        <ele>1248.696</ele>
        <time>2022-02-24T19:48:16Z</time>
      </trkpt>
      <trkpt lat="40.678690" lon="-4.787060">
        <ele>1248.131</ele>
        <time>2022-02-24T19:48:56Z</time>
      </trkpt>
      <trkpt lat="40.679010" lon="-4.787540">
        <ele>1247.024</ele>
        <time>2022-02-24T19:49:36Z</time>
      </trkpt>
      <trkpt lat="40.679090" lon="-4.787660">
        <ele>1246.408</ele>
        <time>2022-02-24T19:50:16Z</time>
      </trkpt>
      <trkpt lat="40.679180" lon="-4.787810">
        <ele>1246.118</ele>
        <time>2022-02-24T19:50:56Z</time>
      </trkpt>
      <trkpt lat="40.679290" lon="-4.788030">
        <ele>1246.185</ele>
        <time>2022-02-24T19:51:36Z</time>
      </trkpt>
      <trkpt lat="40.679360" lon="-4.788210">
        <ele>1245.819</ele>
        <time>2022-02-24T19:52:16Z</time>
      </trkpt>
      <trkpt lat="40.679410" lon="-4.788370">
        <ele>1245.588</ele>
        <time>2022-02-24T19:52:56Z</time>
      </trkpt>
      <trkpt lat="40.679480" lon="-4.788610">
        <ele>1244.517</ele>
        <time>2022-02-24T19:53:36Z</time>
      </trkpt>
      <trkpt lat="40.679630" lon="-4.789380">
        <ele>1241.728</ele>
        <time>2022-02-24T19:54:16Z</time>
      </trkpt>
      <trkpt lat="40.679630" lon="-4.789390">
        <ele>1241.719</ele>
        <time>2022-02-24T19:54:56Z</time>
      </trkpt>
      <trkpt lat="40.679730" lon="-4.789850">
        <ele>1242.491</ele>
        <time>2022-02-24T19:55:36Z</time>
      </trkpt>
      <trkpt lat="40.679770" lon="-4.789960">
        <ele>1242.325</ele>
        <time>2022-02-24T19:56:16Z</time>
      </trkpt>
      <trkpt lat="40.679810" lon="-4.790050">
        <ele>1242.226</ele>
        <time>2022-02-24T19:56:56Z</time>
      </trkpt>
      <trkpt lat="40.679810" lon="-4.790060">
        <ele>1242.308</ele>
        <time>2022-02-24T19:57:36Z</time>
      </trkpt>
      <trkpt lat="40.679850" lon="-4.790140">
        <ele>1242.108</ele>
        <time>2022-02-24T19:58:16Z</time>
      </trkpt>
      <trkpt lat="40.679890" lon="-4.790210">
        <ele>1241.981</ele>
        <time>2022-02-24T19:58:56Z</time>
      </trkpt>
      <trkpt lat="40.679930" lon="-4.790270">
        <ele>1241.788</ele>
        <time>2022-02-24T19:59:36Z</time>
      </trkpt>
      <trkpt lat="40.679960" lon="-4.790310">
        <ele>1241.612</ele>
        <time>2022-02-24T20:00:16Z</time>
      </trkpt>
      <trkpt lat="40.680140" lon="-4.790550">
        <ele>1242.091</ele>
        <time>2022-02-24T20:00:56Z</time>
      </trkpt>
      <trkpt lat="40.680510" lon="-4.790980">
        <ele>1242.470</ele>
        <time>2022-02-24T20:01:36Z</time>
      </trkpt>
      <trkpt lat="40.680580" lon="-4.791060">
        <ele>1242.531</ele>
        <time>2022-02-24T20:02:16Z</time>
      </trkpt>
      <trkpt lat="40.680730" lon="-4.791240">
        <ele>1243.092</ele>
        <time>2022-02-24T20:02:56Z</time>
      </trkpt>
      <trkpt lat="40.681360" lon="-4.791960">
        <ele>1247.434</ele>
        <time>2022-02-24T20:03:36Z</time>
      </trkpt>
      <trkpt lat="40.681400" lon="-4.792000">
        <ele>1247.532</ele>
        <time>2022-02-24T20:04:16Z</time>
      </trkpt>
      <trkpt lat="40.681480" lon="-4.792050">
        <ele>1247.392</ele>
        <time>2022-02-24T20:04:56Z</time>
      </trkpt>
      <trkpt lat="40.681490" lon="-4.792060">
        <ele>1247.311</ele>
        <time>2022-02-24T20:05:36Z</time>
      </trkpt>
      <trkpt lat="40.681730" lon="-4.792360">
        <ele>1248.508</ele>
        <time>2022-02-24T20:06:16Z</time>
      </trkpt>
      <trkpt lat="40.681880" lon="-4.792560">
        <ele>1249.432</ele>
        <time>2022-02-24T20:06:56Z</time>
      </trkpt>
      <trkpt lat="40.681990" lon="-4.792720">
        <ele>1248.549</ele>
        <time>2022-02-24T20:07:36Z</time>
      </trkpt>
      <trkpt lat="40.682000" lon="-4.792740">
        <ele>1248.363</ele>
        <time>2022-02-24T20:08:16Z</time>
      </trkpt>
      <trkpt lat="40.682100" lon="-4.792950">
        <ele>1245.992</ele>
        <time>2022-02-24T20:08:56Z</time>
      </trkpt>
      <trkpt lat="40.682104" lon="-4.792954">
        <ele>1245.821</ele>
        <time>2022-02-24T20:09:36Z</time>
      </trkpt>
      <trkpt lat="40.682140" lon="-4.792990">
        <ele>1244.992</ele>
        <time>2022-02-24T20:10:16Z</time>
      </trkpt>
      <trkpt lat="40.682150" lon="-4.793000">
        <ele>1244.723</ele>
        <time>2022-02-24T20:10:56Z</time>
      </trkpt>
      <trkpt lat="40.682170" lon="-4.793040">
        <ele>1244.325</ele>
        <time>2022-02-24T20:11:36Z</time>
      </trkpt>
      <trkpt lat="40.682180" lon="-4.793070">
        <ele>1244.139</ele>
        <time>2022-02-24T20:12:16Z</time>
      </trkpt>
      <trkpt lat="40.682200" lon="-4.793120">
        <ele>1243.801</ele>
        <time>2022-02-24T20:12:56Z</time>
      </trkpt>
      <trkpt lat="40.682230" lon="-4.793170">
        <ele>1243.521</ele>
        <time>2022-02-24T20:13:36Z</time>
      </trkpt>
      <trkpt lat="40.682250" lon="-4.793200">
        <ele>1243.808</ele>
        <time>2022-02-24T20:14:16Z</time>
      </trkpt>
      <trkpt lat="40.682260" lon="-4.793210">
        <ele>1243.912</ele>
        <time>2022-02-24T20:14:56Z</time>
      </trkpt>
      <trkpt lat="40.682310" lon="-4.793250">
        <ele>1244.419</ele>
        <time>2022-02-24T20:15:36Z</time>
      </trkpt>
      <trkpt lat="40.682350" lon="-4.793280">
        <ele>1244.883</ele>
        <time>2022-02-24T20:16:16Z</time>
      </trkpt>
      <trkpt lat="40.682410" lon="-4.793310">
        <ele>1245.392</ele>
        <time>2022-02-24T20:16:56Z</time>
      </trkpt>
      <trkpt lat="40.682440" lon="-4.793290">
        <ele>1245.521</ele>
        <time>2022-02-24T20:17:36Z</time>
      </trkpt>
      <trkpt lat="40.682510" lon="-4.793280">
        <ele>1246.152</ele>
        <time>2022-02-24T20:18:16Z</time>
      </trkpt>
      <trkpt lat="40.682610" lon="-4.793260">
        <ele>1247.213</ele>
        <time>2022-02-24T20:18:56Z</time>
      </trkpt>
      <trkpt lat="40.682680" lon="-4.793250">
        <ele>1247.955</ele>
        <time>2022-02-24T20:19:36Z</time>
      </trkpt>
      <trkpt lat="40.682730" lon="-4.793250">
        <ele>1248.596</ele>
        <time>2022-02-24T20:20:16Z</time>
      </trkpt>
      <trkpt lat="40.682820" lon="-4.793240">
        <ele>1249.231</ele>
        <time>2022-02-24T20:20:56Z</time>
      </trkpt>
      <trkpt lat="40.682840" lon="-4.793240">
        <ele>1249.224</ele>
        <time>2022-02-24T20:21:36Z</time>
      </trkpt>
      <trkpt lat="40.682860" lon="-4.793240">
        <ele>1249.308</ele>
        <time>2022-02-24T20:22:16Z</time>
      </trkpt>
      <trkpt lat="40.682890" lon="-4.793240">
        <ele>1249.458</ele>
        <time>2022-02-24T20:22:56Z</time>
      </trkpt>
      <trkpt lat="40.682930" lon="-4.793250">
        <ele>1249.565</ele>
        <time>2022-02-24T20:23:36Z</time>
      </trkpt>
      <trkpt lat="40.682980" lon="-4.793270">
        <ele>1249.729</ele>
        <time>2022-02-24T20:24:16Z</time>
      </trkpt>
      <trkpt lat="40.683120" lon="-4.793340">
        <ele>1250.018</ele>
        <time>2022-02-24T20:24:56Z</time>
      </trkpt>
      <trkpt lat="40.683300" lon="-4.793450">
        <ele>1250.047</ele>
        <time>2022-02-24T20:25:36Z</time>
      </trkpt>
      <trkpt lat="40.683320" lon="-4.793470">
        <ele>1250.058</ele>
        <time>2022-02-24T20:26:16Z</time>
      </trkpt>
      <trkpt lat="40.683640" lon="-4.793700">
        <ele>1250.169</ele>
        <time>2022-02-24T20:26:56Z</time>
      </trkpt>
      <trkpt lat="40.683960" lon="-4.793930">
        <ele>1250.781</ele>
        <time>2022-02-24T20:27:36Z</time>
      </trkpt>
      <trkpt lat="40.684500" lon="-4.794320">
        <ele>1252.646</ele>
        <time>2022-02-24T20:28:16Z</time>
      </trkpt>
      <trkpt lat="40.684850" lon="-4.794570">
        <ele>1253.788</ele>
        <time>2022-02-24T20:28:56Z</time>
      </trkpt>
      <trkpt lat="40.685040" lon="-4.794730">
        <ele>1254.116</ele>
        <time>2022-02-24T20:29:36Z</time>
      </trkpt>
      <trkpt lat="40.685080" lon="-4.794780">
        <ele>1254.308</ele>
        <time>2022-02-24T20:30:16Z</time>
      </trkpt>
      <trkpt lat="40.685160" lon="-4.794870">
        <ele>1254.663</ele>
        <time>2022-02-24T20:30:56Z</time>
      </trkpt>
      <trkpt lat="40.685360" lon="-4.795160">
        <ele>1255.450</ele>
        <time>2022-02-24T20:31:36Z</time>
      </trkpt>
      <trkpt lat="40.686180" lon="-4.796350">
        <ele>1258.214</ele>
        <time>2022-02-24T20:32:16Z</time>
      </trkpt>
      <trkpt lat="40.686210" lon="-4.796380">
        <ele>1258.493</ele>
        <time>2022-02-24T20:32:56Z</time>
      </trkpt>
      <trkpt lat="40.686790" lon="-4.797220">
        <ele>1262.932</ele>
        <time>2022-02-24T20:33:36Z</time>
      </trkpt>
      <trkpt lat="40.686830" lon="-4.797290">
        <ele>1263.313</ele>
        <time>2022-02-24T20:34:16Z</time>
      </trkpt>
      <trkpt lat="40.687500" lon="-4.798230">
        <ele>1265.484</ele>
        <time>2022-02-24T20:34:56Z</time>
      </trkpt>
      <trkpt lat="40.687600" lon="-4.798370">
        <ele>1265.766</ele>
        <time>2022-02-24T20:35:36Z</time>
      </trkpt>
      <trkpt lat="40.687640" lon="-4.798440">
        <ele>1265.823</ele>
        <time>2022-02-24T20:36:16Z</time>
      </trkpt>
      <trkpt lat="40.687720" lon="-4.798560">
        <ele>1265.983</ele>
        <time>2022-02-24T20:36:56Z</time>
      </trkpt>
      <trkpt lat="40.687780" lon="-4.798610">
        <ele>1266.011</ele>
        <time>2022-02-24T20:37:36Z</time>
      </trkpt>
      <trkpt lat="40.687810" lon="-4.798660">
        <ele>1266.208</ele>
        <time>2022-02-24T20:38:16Z</time>
      </trkpt>
      <trkpt lat="40.687860" lon="-4.798690">
        <ele>1266.581</ele>
        <time>2022-02-24T20:38:56Z</time>
      </trkpt>
      <trkpt lat="40.687900" lon="-4.798730">
        <ele>1266.728</ele>
        <time>2022-02-24T20:39:36Z</time>
      </trkpt>
      <trkpt lat="40.687990" lon="-4.798780">
        <ele>1267.112</ele>
        <time>2022-02-24T20:40:16Z</time>
      </trkpt>
      <trkpt lat="40.688120" lon="-4.798860">
        <ele>1267.561</ele>
        <time>2022-02-24T20:40:56Z</time>
      </trkpt>
      <trkpt lat="40.689190" lon="-4.799400">
        <ele>1274.050</ele>
        <time>2022-02-24T20:41:36Z</time>
      </trkpt>
      <trkpt lat="40.689250" lon="-4.799440">
        <ele>1274.681</ele>
        <time>2022-02-24T20:42:16Z</time>
      </trkpt>
      <trkpt lat="40.689350" lon="-4.799500">
        <ele>1275.522</ele>
        <time>2022-02-24T20:42:56Z</time>
      </trkpt>
      <trkpt lat="40.689490" lon="-4.799600">
        <ele>1276.724</ele>
        <time>2022-02-24T20:43:36Z</time>
      </trkpt>
      <trkpt lat="40.689600" lon="-4.799680">
        <ele>1277.445</ele>
        <time>2022-02-24T20:44:16Z</time>
      </trkpt>
      <trkpt lat="40.689750" lon="-4.799800">
        <ele>1278.447</ele>
        <time>2022-02-24T20:44:56Z</time>
      </trkpt>
      <trkpt lat="40.689910" lon="-4.799940">
        <ele>1279.511</ele>
        <time>2022-02-24T20:45:36Z</time>
      </trkpt>
      <trkpt lat="40.690030" lon="-4.800050">
        <ele>1280.008</ele>
        <time>2022-02-24T20:46:16Z</time>
      </trkpt>
      <trkpt lat="40.690110" lon="-4.800160">
        <ele>1280.013</ele>
        <time>2022-02-24T20:46:56Z</time>
      </trkpt>
      <trkpt lat="40.690180" lon="-4.800290">
        <ele>1280.060</ele>
        <time>2022-02-24T20:47:36Z</time>
      </trkpt>
      <trkpt lat="40.690240" lon="-4.800410">
        <ele>1280.564</ele>
        <time>2022-02-24T20:48:16Z</time>
      </trkpt>
      <trkpt lat="40.690250" lon="-4.800420">
        <ele>1280.553</ele>
        <time>2022-02-24T20:48:56Z</time>
      </trkpt>
      <trkpt lat="40.690360" lon="-4.800630">
        <ele>1281.682</ele>
        <time>2022-02-24T20:49:36Z</time>
      </trkpt>
      <trkpt lat="40.691000" lon="-4.801840">
        <ele>1287.273</ele>
        <time>2022-02-24T20:50:16Z</time>
      </trkpt>
      <trkpt lat="40.691490" lon="-4.802750">
        <ele>1288.034</ele>
        <time>2022-02-24T20:50:56Z</time>
      </trkpt>
      <trkpt lat="40.691580" lon="-4.802920">
        <ele>1288.596</ele>
        <time>2022-02-24T20:51:36Z</time>
      </trkpt>
      <trkpt lat="40.691950" lon="-4.803610">
        <ele>1289.066</ele>
        <time>2022-02-24T20:52:16Z</time>
      </trkpt>
      <trkpt lat="40.692440" lon="-4.804480">
        <ele>1290.029</ele>
        <time>2022-02-24T20:52:56Z</time>
      </trkpt>
      <trkpt lat="40.692610" lon="-4.804770">
        <ele>1290.121</ele>
        <time>2022-02-24T20:53:36Z</time>
      </trkpt>
      <trkpt lat="40.693000" lon="-4.805390">
        <ele>1293.008</ele>
        <time>2022-02-24T20:54:16Z</time>
      </trkpt>
      <trkpt lat="40.693090" lon="-4.805530">
        <ele>1293.885</ele>
        <time>2022-02-24T20:54:56Z</time>
      </trkpt>
      <trkpt lat="40.693120" lon="-4.805580">
        <ele>1293.872</ele>
        <time>2022-02-24T20:55:36Z</time>
      </trkpt>
      <trkpt lat="40.693140" lon="-4.805600">
        <ele>1293.716</ele>
        <time>2022-02-24T20:56:16Z</time>
      </trkpt>
      <trkpt lat="40.693170" lon="-4.805640">
        <ele>1293.685</ele>
        <time>2022-02-24T20:56:56Z</time>
      </trkpt>
      <trkpt lat="40.693220" lon="-4.805690">
        <ele>1293.424</ele>
        <time>2022-02-24T20:57:36Z</time>
      </trkpt>
      <trkpt lat="40.693280" lon="-4.805750">
        <ele>1293.265</ele>
        <time>2022-02-24T20:58:16Z</time>
      </trkpt>
      <trkpt lat="40.693400" lon="-4.805850">
        <ele>1292.856</ele>
        <time>2022-02-24T20:58:56Z</time>
      </trkpt>
      <trkpt lat="40.693410" lon="-4.805860">
        <ele>1292.758</ele>
        <time>2022-02-24T20:59:36Z</time>
      </trkpt>
      <trkpt lat="40.694070" lon="-4.806400">
        <ele>1290.779</ele>
        <time>2022-02-24T21:00:16Z</time>
      </trkpt>
      <trkpt lat="40.694170" lon="-4.806490">
        <ele>1290.405</ele>
        <time>2022-02-24T21:00:56Z</time>
      </trkpt>
      <trkpt lat="40.694210" lon="-4.806520">
        <ele>1290.325</ele>
        <time>2022-02-24T21:01:36Z</time>
      </trkpt>
      <trkpt lat="40.694320" lon="-4.806630">
        <ele>1290.308</ele>
        <time>2022-02-24T21:02:16Z</time>
      </trkpt>
      <trkpt lat="40.694600" lon="-4.806930">
        <ele>1288.346</ele>
        <time>2022-02-24T21:02:56Z</time>
      </trkpt>
      <trkpt lat="40.694760" lon="-4.807110">
        <ele>1287.293</ele>
        <time>2022-02-24T21:03:36Z</time>
      </trkpt>
      <trkpt lat="40.695000" lon="-4.807350">
        <ele>1285.037</ele>
        <time>2022-02-24T21:04:16Z</time>
      </trkpt>
      <trkpt lat="40.695020" lon="-4.807370">
        <ele>1284.896</ele>
        <time>2022-02-24T21:04:56Z</time>
      </trkpt>
      <trkpt lat="40.695440" lon="-4.807850">
        <ele>1280.915</ele>
        <time>2022-02-24T21:05:36Z</time>
      </trkpt>
      <trkpt lat="40.695540" lon="-4.807960">
        <ele>1280.156</ele>
        <time>2022-02-24T21:06:16Z</time>
      </trkpt>
      <trkpt lat="40.696020" lon="-4.808490">
        <ele>1279.017</ele>
        <time>2022-02-24T21:06:56Z</time>
      </trkpt>
      <trkpt lat="40.696160" lon="-4.808640">
        <ele>1278.619</ele>
        <time>2022-02-24T21:07:36Z</time>
      </trkpt>
      <trkpt lat="40.696430" lon="-4.808940">
        <ele>1276.972</ele>
        <time>2022-02-24T21:08:16Z</time>
      </trkpt>
      <trkpt lat="40.696530" lon="-4.809050">
        <ele>1276.513</ele>
        <time>2022-02-24T21:08:56Z</time>
      </trkpt>
      <trkpt lat="40.696760" lon="-4.809320">
        <ele>1276.014</ele>
        <time>2022-02-24T21:09:36Z</time>
      </trkpt>
      <trkpt lat="40.697030" lon="-4.809620">
        <ele>1275.308</ele>
        <time>2022-02-24T21:10:16Z</time>
      </trkpt>
      <trkpt lat="40.697090" lon="-4.809680">
        <ele>1275.316</ele>
        <time>2022-02-24T21:10:56Z</time>
      </trkpt>
      <trkpt lat="40.697120" lon="-4.809710">
        <ele>1275.323</ele>
        <time>2022-02-24T21:11:36Z</time>
      </trkpt>
      <trkpt lat="40.697320" lon="-4.809900">
        <ele>1274.957</ele>
        <time>2022-02-24T21:12:16Z</time>
      </trkpt>
      <trkpt lat="40.697460" lon="-4.810060">
        <ele>1275.046</ele>
        <time>2022-02-24T21:12:56Z</time>
      </trkpt>
      <trkpt lat="40.697660" lon="-4.810260">
        <ele>1274.455</ele>
        <time>2022-02-24T21:13:36Z</time>
      </trkpt>
      <trkpt lat="40.697860" lon="-4.810510">
        <ele>1274.676</ele>
        <time>2022-02-24T21:14:16Z</time>
      </trkpt>
      <trkpt lat="40.698000" lon="-4.810670">
        <ele>1274.257</ele>
        <time>2022-02-24T21:14:56Z</time>
      </trkpt>
      <trkpt lat="40.698130" lon="-4.810830">
        <ele>1273.789</ele>
        <time>2022-02-24T21:15:36Z</time>
      </trkpt>
      <trkpt lat="40.698210" lon="-4.810930">
        <ele>1273.391</ele>
        <time>2022-02-24T21:16:16Z</time>
      </trkpt>
      <trkpt lat="40.698210" lon="-4.810940">
        <ele>1273.281</ele>
        <time>2022-02-24T21:16:56Z</time>
      </trkpt>
      <trkpt lat="40.698270" lon="-4.811020">
        <ele>1272.719</ele>
        <time>2022-02-24T21:17:36Z</time>
      </trkpt>
      <trkpt lat="40.698320" lon="-4.811110">
        <ele>1272.108</ele>
        <time>2022-02-24T21:18:16Z</time>
      </trkpt>
      <trkpt lat="40.698330" lon="-4.811120">
        <ele>1272.038</ele>
        <time>2022-02-24T21:18:56Z</time>
      </trkpt>
      <trkpt lat="40.698370" lon="-4.811190">
        <ele>1272.065</ele>
        <time>2022-02-24T21:19:36Z</time>
      </trkpt>
      <trkpt lat="40.698410" lon="-4.811260">
        <ele>1271.929</ele>
        <time>2022-02-24T21:20:16Z</time>
      </trkpt>
      <trkpt lat="40.698430" lon="-4.811310">
        <ele>1271.818</ele>
        <time>2022-02-24T21:20:56Z</time>
      </trkpt>
      <trkpt lat="40.698440" lon="-4.811350">
        <ele>1271.737</ele>
        <time>2022-02-24T21:21:36Z</time>
      </trkpt>
      <trkpt lat="40.698490" lon="-4.811490">
        <ele>1271.458</ele>
        <time>2022-02-24T21:22:16Z</time>
      </trkpt>
      <trkpt lat="40.698550" lon="-4.811690">
        <ele>1271.239</ele>
        <time>2022-02-24T21:22:56Z</time>
      </trkpt>
      <trkpt lat="40.698570" lon="-4.811750">
        <ele>1270.961</ele>
        <time>2022-02-24T21:23:36Z</time>
      </trkpt>
      <trkpt lat="40.698630" lon="-4.812010">
        <ele>1270.019</ele>
        <time>2022-02-24T21:24:16Z</time>
      </trkpt>
      <trkpt lat="40.698680" lon="-4.812180">
        <ele>1269.809</ele>
        <time>2022-02-24T21:24:56Z</time>
      </trkpt>
      <trkpt lat="40.698720" lon="-4.812280">
        <ele>1269.719</ele>
        <time>2022-02-24T21:25:36Z</time>
      </trkpt>
      <trkpt lat="40.698750" lon="-4.812340">
        <ele>1269.708</ele>
        <time>2022-02-24T21:26:16Z</time>
      </trkpt>
      <trkpt lat="40.698780" lon="-4.812380">
        <ele>1269.760</ele>
        <time>2022-02-24T21:26:56Z</time>
      </trkpt>
      <trkpt lat="40.698790" lon="-4.812390">
        <ele>1269.747</ele>
        <time>2022-02-24T21:27:36Z</time>
      </trkpt>
      <trkpt lat="40.698810" lon="-4.812400">
        <ele>1269.781</ele>
        <time>2022-02-24T21:28:16Z</time>
      </trkpt>
      <trkpt lat="40.698830" lon="-4.812430">
        <ele>1269.870</ele>
        <time>2022-02-24T21:28:56Z</time>
      </trkpt>
      <trkpt lat="40.698850" lon="-4.812450">
        <ele>1269.879</ele>
        <time>2022-02-24T21:29:36Z</time>
      </trkpt>
      <trkpt lat="40.698870" lon="-4.812470">
        <ele>1269.980</ele>
        <time>2022-02-24T21:30:16Z</time>
      </trkpt>
      <trkpt lat="40.698900" lon="-4.812500">
        <ele>1270.081</ele>
        <time>2022-02-24T21:30:56Z</time>
      </trkpt>
      <trkpt lat="40.698930" lon="-4.812520">
        <ele>1270.043</ele>
        <time>2022-02-24T21:31:36Z</time>
      </trkpt>
      <trkpt lat="40.698940" lon="-4.812530">
        <ele>1270.084</ele>
        <time>2022-02-24T21:32:16Z</time>
      </trkpt>
      <trkpt lat="40.698960" lon="-4.812540">
        <ele>1270.007</ele>
        <time>2022-02-24T21:32:56Z</time>
      </trkpt>
      <trkpt lat="40.698990" lon="-4.812560">
        <ele>1270.117</ele>
        <time>2022-02-24T21:33:36Z</time>
      </trkpt>
      <trkpt lat="40.699030" lon="-4.812580">
        <ele>1270.108</ele>
        <time>2022-02-24T21:34:16Z</time>
      </trkpt>
      <trkpt lat="40.699060" lon="-4.812590">
        <ele>1270.227</ele>
        <time>2022-02-24T21:34:56Z</time>
      </trkpt>
      <trkpt lat="40.699090" lon="-4.812600">
        <ele>1270.364</ele>
        <time>2022-02-24T21:35:36Z</time>
      </trkpt>
      <trkpt lat="40.699270" lon="-4.812650">
        <ele>1270.788</ele>
        <time>2022-02-24T21:36:16Z</time>
      </trkpt>
      <trkpt lat="40.699280" lon="-4.812660">
        <ele>1270.817</ele>
        <time>2022-02-24T21:36:56Z</time>
      </trkpt>
      <trkpt lat="40.699440" lon="-4.812700">
        <ele>1271.466</ele>
        <time>2022-02-24T21:37:36Z</time>
      </trkpt>
      <trkpt lat="40.699460" lon="-4.812710">
        <ele>1271.517</ele>
        <time>2022-02-24T21:38:16Z</time>
      </trkpt>
      <trkpt lat="40.699680" lon="-4.812780">
        <ele>1272.048</ele>
        <time>2022-02-24T21:38:56Z</time>
      </trkpt>
      <trkpt lat="40.699920" lon="-4.812850">
        <ele>1272.520</ele>
        <time>2022-02-24T21:39:36Z</time>
      </trkpt>
      <trkpt lat="40.700100" lon="-4.812910">
        <ele>1272.695</ele>
        <time>2022-02-24T21:40:16Z</time>
      </trkpt>
      <trkpt lat="40.700180" lon="-4.812940">
        <ele>1272.549</ele>
        <time>2022-02-24T21:40:56Z</time>
      </trkpt>
      <trkpt lat="40.700320" lon="-4.812980">
        <ele>1272.123</ele>
        <time>2022-02-24T21:41:36Z</time>
      </trkpt>
      <trkpt lat="40.700440" lon="-4.813030">
        <ele>1271.608</ele>
        <time>2022-02-24T21:42:16Z</time>
      </trkpt>
      <trkpt lat="40.700500" lon="-4.813070">
        <ele>1271.548</ele>
        <time>2022-02-24T21:42:56Z</time>
      </trkpt>
      <trkpt lat="40.700500" lon="-4.813080">
        <ele>1271.595</ele>
        <time>2022-02-24T21:43:36Z</time>
      </trkpt>
      <trkpt lat="40.700540" lon="-4.813100">
        <ele>1271.319</ele>
        <time>2022-02-24T21:44:16Z</time>
      </trkpt>
      <trkpt lat="40.700560" lon="-4.813130">
        <ele>1271.278</ele>
        <time>2022-02-24T21:44:56Z</time>
      </trkpt>
      <trkpt lat="40.700580" lon="-4.813160">
        <ele>1271.187</ele>
        <time>2022-02-24T21:45:36Z</time>
      </trkpt>
      <trkpt lat="40.700610" lon="-4.813200">
        <ele>1271.088</ele>
        <time>2022-02-24T21:46:16Z</time>
      </trkpt>
      <trkpt lat="40.700630" lon="-4.813250">
        <ele>1271.169</ele>
        <time>2022-02-24T21:46:56Z</time>
      </trkpt>
      <trkpt lat="40.700650" lon="-4.813290">
        <ele>1271.141</ele>
        <time>2022-02-24T21:47:36Z</time>
      </trkpt>
      <trkpt lat="40.700700" lon="-4.813430">
        <ele>1271.563</ele>
        <time>2022-02-24T21:48:16Z</time>
      </trkpt>
      <trkpt lat="40.700780" lon="-4.813630">
        <ele>1271.744</ele>
        <time>2022-02-24T21:48:56Z</time>
      </trkpt>
      <trkpt lat="40.700920" lon="-4.813990">
        <ele>1272.418</ele>
        <time>2022-02-24T21:49:36Z</time>
      </trkpt>
      <trkpt lat="40.700960" lon="-4.814080">
        <ele>1272.308</ele>
        <time>2022-02-24T21:50:16Z</time>
      </trkpt>
      <trkpt lat="40.701010" lon="-4.814220">
        <ele>1272.355</ele>
        <time>2022-02-24T21:50:56Z</time>
      </trkpt>
      <trkpt lat="40.701040" lon="-4.814290">
        <ele>1272.272</ele>
        <time>2022-02-24T21:51:36Z</time>
      </trkpt>
      <trkpt lat="40.701050" lon="-4.814320">
        <ele>1272.296</ele>
        <time>2022-02-24T21:52:16Z</time>
      </trkpt>
      <trkpt lat="40.701090" lon="-4.814420">
        <ele>1272.185</ele>
        <time>2022-02-24T21:52:56Z</time>
      </trkpt>
      <trkpt lat="40.701120" lon="-4.814480">
        <ele>1271.814</ele>
        <time>2022-02-24T21:53:36Z</time>
      </trkpt>
      <trkpt lat="40.701130" lon="-4.814490">
        <ele>1271.635</ele>
        <time>2022-02-24T21:54:16Z</time>
      </trkpt>
      <trkpt lat="40.701160" lon="-4.814540">
        <ele>1271.036</ele>
        <time>2022-02-24T21:54:56Z</time>
      </trkpt>
      <trkpt lat="40.701200" lon="-4.814610">
        <ele>1270.338</ele>
        <time>2022-02-24T21:55:36Z</time>
      </trkpt>
      <trkpt lat="40.701230" lon="-4.814670">
        <ele>1269.881</ele>
        <time>2022-02-24T21:56:16Z</time>
      </trkpt>
      <trkpt lat="40.701270" lon="-4.814730">
        <ele>1269.261</ele>
        <time>2022-02-24T21:56:56Z</time>
      </trkpt>
      <trkpt lat="40.701390" lon="-4.814930">
        <ele>1267.717</ele>
        <time>2022-02-24T21:57:36Z</time>
      </trkpt>
      <trkpt lat="40.701510" lon="-4.815120">
        <ele>1267.608</ele>
        <time>2022-02-24T21:58:16Z</time>
      </trkpt>
      <trkpt lat="40.701580" lon="-4.815240">
        <ele>1267.537</ele>
        <time>2022-02-24T21:58:56Z</time>
      </trkpt>
      <trkpt lat="40.701630" lon="-4.815320">
        <ele>1267.484</ele>
        <time>2022-02-24T21:59:36Z</time>
      </trkpt>
      <trkpt lat="40.701690" lon="-4.815420">
        <ele>1267.448</ele>
        <time>2022-02-24T22:00:16Z</time>
      </trkpt>
      <trkpt lat="40.701770" lon="-4.815560">
        <ele>1267.737</ele>
        <time>2022-02-24T22:00:56Z</time>
      </trkpt>
      <trkpt lat="40.701800" lon="-4.815610">
        <ele>1267.916</ele>
        <time>2022-02-24T22:01:36Z</time>
      </trkpt>
      <trkpt lat="40.701920" lon="-4.815780">
        <ele>1268.797</ele>
        <time>2022-02-24T22:02:16Z</time>
      </trkpt>
      <trkpt lat="40.701920" lon="-4.815790">
        <ele>1268.848</ele>
        <time>2022-02-24T22:02:56Z</time>
      </trkpt>
      <trkpt lat="40.702030" lon="-4.815970">
        <ele>1268.770</ele>
        <time>2022-02-24T22:03:36Z</time>
      </trkpt>
      <trkpt lat="40.702220" lon="-4.816270">
        <ele>1269.272</ele>
        <time>2022-02-24T22:04:16Z</time>
      </trkpt>
      <trkpt lat="40.702260" lon="-4.816340">
        <ele>1269.413</ele>
        <time>2022-02-24T22:04:56Z</time>
      </trkpt>
      <trkpt lat="40.702370" lon="-4.816530">
        <ele>1268.914</ele>
        <time>2022-02-24T22:05:36Z</time>
      </trkpt>
      <trkpt lat="40.702410" lon="-4.816590">
        <ele>1268.608</ele>
        <time>2022-02-24T22:06:16Z</time>
      </trkpt>
      <trkpt lat="40.702510" lon="-4.816760">
        <ele>1268.386</ele>
        <time>2022-02-24T22:06:56Z</time>
      </trkpt>
      <trkpt lat="40.702590" lon="-4.816880">
        <ele>1268.213</ele>
        <time>2022-02-24T22:07:36Z</time>
      </trkpt>
      <trkpt lat="40.702650" lon="-4.816960">
        <ele>1268.097</ele>
        <time>2022-02-24T22:08:16Z</time>
      </trkpt>
      <trkpt lat="40.702700" lon="-4.817050">
        <ele>1267.876</ele>
        <time>2022-02-24T22:08:56Z</time>
      </trkpt>
      <trkpt lat="40.702760" lon="-4.817120">
        <ele>1267.755</ele>
        <time>2022-02-24T22:09:36Z</time>
      </trkpt>
      <trkpt lat="40.702820" lon="-4.817210">
        <ele>1267.766</ele>
        <time>2022-02-24T22:10:16Z</time>
      </trkpt>
      <trkpt lat="40.702970" lon="-4.817400">
        <ele>1267.397</ele>
        <time>2022-02-24T22:10:56Z</time>
      </trkpt>
      <trkpt lat="40.702980" lon="-4.817400">
        <ele>1267.249</ele>
        <time>2022-02-24T22:11:36Z</time>
      </trkpt>
      <trkpt lat="40.703160" lon="-4.817620">
        <ele>1267.155</ele>
        <time>2022-02-24T22:12:16Z</time>
      </trkpt>
      <trkpt lat="40.703340" lon="-4.817830">
        <ele>1267.007</ele>
        <time>2022-02-24T22:12:56Z</time>
      </trkpt>
      <trkpt lat="40.703480" lon="-4.818010">
        <ele>1266.417</ele>
        <time>2022-02-24T22:13:36Z</time>
      </trkpt>
      <trkpt lat="40.703510" lon="-4.818040">
        <ele>1266.308</ele>
        <time>2022-02-24T22:14:16Z</time>
      </trkpt>
      <trkpt lat="40.703620" lon="-4.818180">
        <ele>1266.094</ele>
        <time>2022-02-24T22:14:56Z</time>
      </trkpt>
      <trkpt lat="40.703690" lon="-4.818260">
        <ele>1265.641</ele>
        <time>2022-02-24T22:15:36Z</time>
      </trkpt>
      <trkpt lat="40.703780" lon="-4.818390">
        <ele>1265.695</ele>
        <time>2022-02-24T22:16:16Z</time>
      </trkpt>
      <trkpt lat="40.703910" lon="-4.818560">
        <ele>1265.754</ele>
        <time>2022-02-24T22:16:56Z</time>
      </trkpt>
      <trkpt lat="40.704010" lon="-4.818720">
        <ele>1265.543</ele>
        <time>2022-02-24T22:17:36Z</time>
      </trkpt>
      <trkpt lat="40.704080" lon="-4.818810">
        <ele>1265.354</ele>
        <time>2022-02-24T22:18:16Z</time>
      </trkpt>
      <trkpt lat="40.704140" lon="-4.818890">
        <ele>1265.265</ele>
        <time>2022-02-24T22:18:56Z</time>
      </trkpt>
      <trkpt lat="40.704210" lon="-4.818990">
        <ele>1264.937</ele>
        <time>2022-02-24T22:19:36Z</time>
      </trkpt>
      <trkpt lat="40.704260" lon="-4.819070">
        <ele>1264.628</ele>
        <time>2022-02-24T22:20:16Z</time>
      </trkpt>
      <trkpt lat="40.704310" lon="-4.819160">
        <ele>1264.489</ele>
        <time>2022-02-24T22:20:56Z</time>
      </trkpt>
      <trkpt lat="40.704340" lon="-4.819200">
        <ele>1264.217</ele>
        <time>2022-02-24T22:21:36Z</time>
      </trkpt>
      <trkpt lat="40.704390" lon="-4.819260">
        <ele>1263.908</ele>
        <time>2022-02-24T22:22:16Z</time>
      </trkpt>
      <trkpt lat="40.704430" lon="-4.819330">
        <ele>1263.771</ele>
        <time>2022-02-24T22:22:56Z</time>
      </trkpt>
      <trkpt lat="40.704500" lon="-4.819420">
        <ele>1263.518</ele>
        <time>2022-02-24T22:23:36Z</time>
      </trkpt>
      <trkpt lat="40.704600" lon="-4.819560">
        <ele>1263.562</ele>
        <time>2022-02-24T22:24:16Z</time>
      </trkpt>
      <trkpt lat="40.704760" lon="-4.819740">
        <ele>1263.041</ele>
        <time>2022-02-24T22:24:56Z</time>
      </trkpt>
      <trkpt lat="40.704770" lon="-4.819760">
        <ele>1263.130</ele>
        <time>2022-02-24T22:25:36Z</time>
      </trkpt>
      <trkpt lat="40.704890" lon="-4.819890">
        <ele>1263.631</ele>
        <time>2022-02-24T22:26:16Z</time>
      </trkpt>
      <trkpt lat="40.705030" lon="-4.820050">
        <ele>1264.182</ele>
        <time>2022-02-24T22:26:56Z</time>
      </trkpt>
      <trkpt lat="40.705070" lon="-4.820090">
        <ele>1264.224</ele>
        <time>2022-02-24T22:27:36Z</time>
      </trkpt>
      <trkpt lat="40.705220" lon="-4.820250">
        <ele>1264.818</ele>
        <time>2022-02-24T22:28:16Z</time>
      </trkpt>
      <trkpt lat="40.705310" lon="-4.820350">
        <ele>1265.298</ele>
        <time>2022-02-24T22:28:56Z</time>
      </trkpt>
      <trkpt lat="40.705380" lon="-4.820430">
        <ele>1265.417</ele>
        <time>2022-02-24T22:29:36Z</time>
      </trkpt>
      <trkpt lat="40.705590" lon="-4.820640">
        <ele>1266.208</ele>
        <time>2022-02-24T22:30:16Z</time>
      </trkpt>
      <trkpt lat="40.705740" lon="-4.820790">
        <ele>1266.250</ele>
        <time>2022-02-24T22:30:56Z</time>
      </trkpt>
      <trkpt lat="40.705830" lon="-4.820870">
        <ele>1266.157</ele>
        <time>2022-02-24T22:31:36Z</time>
      </trkpt>
      <trkpt lat="40.705890" lon="-4.820920">
        <ele>1266.141</ele>
        <time>2022-02-24T22:32:16Z</time>
      </trkpt>
      <trkpt lat="40.705900" lon="-4.820930">
        <ele>1266.170</ele>
        <time>2022-02-24T22:32:56Z</time>
      </trkpt>
      <trkpt lat="40.705960" lon="-4.820970">
        <ele>1266.089</ele>
        <time>2022-02-24T22:33:36Z</time>
      </trkpt>
      <trkpt lat="40.706020" lon="-4.821000">
        <ele>1265.910</ele>
        <time>2022-02-24T22:34:16Z</time>
      </trkpt>
      <trkpt lat="40.706050" lon="-4.821020">
        <ele>1265.951</ele>
        <time>2022-02-24T22:34:56Z</time>
      </trkpt>
      <trkpt lat="40.706080" lon="-4.821030">
        <ele>1265.843</ele>
        <time>2022-02-24T22:35:36Z</time>
      </trkpt>
      <trkpt lat="40.706150" lon="-4.821050">
        <ele>1265.659</ele>
        <time>2022-02-24T22:36:16Z</time>
      </trkpt>
      <trkpt lat="40.706210" lon="-4.821070">
        <ele>1265.503</ele>
        <time>2022-02-24T22:36:56Z</time>
      </trkpt>
      <trkpt lat="40.706300" lon="-4.821090">
        <ele>1265.223</ele>
        <time>2022-02-24T22:37:36Z</time>
      </trkpt>
      <trkpt lat="40.706400" lon="-4.821120">
        <ele>1265.008</ele>
        <time>2022-02-24T22:38:16Z</time>
      </trkpt>
      <trkpt lat="40.706510" lon="-4.821150">
        <ele>1264.734</ele>
        <time>2022-02-24T22:38:56Z</time>
      </trkpt>
      <trkpt lat="40.706590" lon="-4.821180">
        <ele>1264.541</ele>
        <time>2022-02-24T22:39:36Z</time>
      </trkpt>
      <trkpt lat="40.706670" lon="-4.821210">
        <ele>1264.315</ele>
        <time>2022-02-24T22:40:16Z</time>
      </trkpt>
      <trkpt lat="40.706720" lon="-4.821230">
        <ele>1264.244</ele>
        <time>2022-02-24T22:40:56Z</time>
      </trkpt>
      <trkpt lat="40.706770" lon="-4.821250">
        <ele>1263.933</ele>
        <time>2022-02-24T22:41:36Z</time>
      </trkpt>
      <trkpt lat="40.706810" lon="-4.821280">
        <ele>1263.824</ele>
        <time>2022-02-24T22:42:16Z</time>
      </trkpt>
      <trkpt lat="40.706860" lon="-4.821310">
        <ele>1263.535</ele>
        <time>2022-02-24T22:42:56Z</time>
      </trkpt>
      <trkpt lat="40.706890" lon="-4.821340">
        <ele>1263.477</ele>
        <time>2022-02-24T22:43:36Z</time>
      </trkpt>
      <trkpt lat="40.706930" lon="-4.821360">
        <ele>1263.171</ele>
        <time>2022-02-24T22:44:16Z</time>
      </trkpt>
      <trkpt lat="40.706950" lon="-4.821380">
        <ele>1263.041</ele>
        <time>2022-02-24T22:44:56Z</time>
      </trkpt>
      <trkpt lat="40.706990" lon="-4.821420">
        <ele>1263.115</ele>
        <time>2022-02-24T22:45:36Z</time>
      </trkpt>
      <trkpt lat="40.707150" lon="-4.821540">
        <ele>1263.108</ele>
        <time>2022-02-24T22:46:16Z</time>
      </trkpt>
      <trkpt lat="40.707440" lon="-4.821770">
        <ele>1262.276</ele>
        <time>2022-02-24T22:46:56Z</time>
      </trkpt>
      <trkpt lat="40.707600" lon="-4.821910">
        <ele>1261.343</ele>
        <time>2022-02-24T22:47:36Z</time>
      </trkpt>
      <trkpt lat="40.707670" lon="-4.821980">
        <ele>1260.977</ele>
        <time>2022-02-24T22:48:16Z</time>
      </trkpt>
      <trkpt lat="40.707820" lon="-4.822100">
        <ele>1260.446</ele>
        <time>2022-02-24T22:48:56Z</time>
      </trkpt>
      <trkpt lat="40.707980" lon="-4.822240">
        <ele>1260.375</ele>
        <time>2022-02-24T22:49:36Z</time>
      </trkpt>
      <trkpt lat="40.708120" lon="-4.822330">
        <ele>1259.866</ele>
        <time>2022-02-24T22:50:16Z</time>
      </trkpt>
      <trkpt lat="40.708170" lon="-4.822370">
        <ele>1259.627</ele>
        <time>2022-02-24T22:50:56Z</time>
      </trkpt>
      <trkpt lat="40.708240" lon="-4.822390">
        <ele>1259.319</ele>
        <time>2022-02-24T22:51:36Z</time>
      </trkpt>
      <trkpt lat="40.708300" lon="-4.822420">
        <ele>1259.136</ele>
        <time>2022-02-24T22:52:16Z</time>
      </trkpt>
      <trkpt lat="40.708370" lon="-4.822440">
        <ele>1258.917</ele>
        <time>2022-02-24T22:52:56Z</time>
      </trkpt>
      <trkpt lat="40.708440" lon="-4.822450">
        <ele>1258.618</ele>
        <time>2022-02-24T22:53:36Z</time>
      </trkpt>
      <trkpt lat="40.708490" lon="-4.822450">
        <ele>1258.408</ele>
        <time>2022-02-24T22:54:16Z</time>
      </trkpt>
      <trkpt lat="40.708530" lon="-4.822460">
        <ele>1258.322</ele>
        <time>2022-02-24T22:54:56Z</time>
      </trkpt>
      <trkpt lat="40.708640" lon="-4.822460">
        <ele>1257.849</ele>
        <time>2022-02-24T22:55:36Z</time>
      </trkpt>
      <trkpt lat="40.708750" lon="-4.822470">
        <ele>1257.093</ele>
        <time>2022-02-24T22:56:16Z</time>
      </trkpt>
      <trkpt lat="40.708780" lon="-4.822480">
        <ele>1256.882</ele>
        <time>2022-02-24T22:56:56Z</time>
      </trkpt>
      <trkpt lat="40.708800" lon="-4.822480">
        <ele>1256.611</ele>
        <time>2022-02-24T22:57:36Z</time>
      </trkpt>
      <trkpt lat="40.708820" lon="-4.822490">
        <ele>1256.522</ele>
        <time>2022-02-24T22:58:16Z</time>
      </trkpt>
      <trkpt lat="40.708850" lon="-4.822500">
        <ele>1256.353</ele>
        <time>2022-02-24T22:58:56Z</time>
      </trkpt>
      <trkpt lat="40.708870" lon="-4.822510">
        <ele>1256.165</ele>
        <time>2022-02-24T22:59:36Z</time>
      </trkpt>
      <trkpt lat="40.708890" lon="-4.822530">
        <ele>1256.068</ele>
        <time>2022-02-24T23:00:16Z</time>
      </trkpt>
      <trkpt lat="40.708920" lon="-4.822550">
        <ele>1255.942</ele>
        <time>2022-02-24T23:00:56Z</time>
      </trkpt>
      <trkpt lat="40.708950" lon="-4.822570">
        <ele>1255.826</ele>
        <time>2022-02-24T23:01:36Z</time>
      </trkpt>
      <trkpt lat="40.708970" lon="-4.822590">
        <ele>1255.708</ele>
        <time>2022-02-24T23:02:16Z</time>
      </trkpt>
      <trkpt lat="40.708990" lon="-4.822620">
        <ele>1255.635</ele>
        <time>2022-02-24T23:02:56Z</time>
      </trkpt>
      <trkpt lat="40.709100" lon="-4.822740">
        <ele>1255.272</ele>
        <time>2022-02-24T23:03:36Z</time>
      </trkpt>
      <trkpt lat="40.709290" lon="-4.822960">
        <ele>1254.676</ele>
        <time>2022-02-24T23:04:16Z</time>
      </trkpt>
      <trkpt lat="40.709480" lon="-4.823170">
        <ele>1253.545</ele>
        <time>2022-02-24T23:04:56Z</time>
      </trkpt>
      <trkpt lat="40.709670" lon="-4.823390">
        <ele>1252.284</ele>
        <time>2022-02-24T23:05:36Z</time>
      </trkpt>
      <trkpt lat="40.709810" lon="-4.823550">
        <ele>1251.795</ele>
        <time>2022-02-24T23:06:16Z</time>
      </trkpt>
      <trkpt lat="40.709860" lon="-4.823610">
        <ele>1251.586</ele>
        <time>2022-02-24T23:06:56Z</time>
      </trkpt>
      <trkpt lat="40.709990" lon="-4.823760">
        <ele>1250.518</ele>
        <time>2022-02-24T23:07:36Z</time>
      </trkpt>
      <trkpt lat="40.710070" lon="-4.823870">
        <ele>1249.883</ele>
        <time>2022-02-24T23:08:16Z</time>
      </trkpt>
      <trkpt lat="40.710080" lon="-4.823870">
        <ele>1249.825</ele>
        <time>2022-02-24T23:08:56Z</time>
      </trkpt>
      <trkpt lat="40.710140" lon="-4.823970">
        <ele>1249.217</ele>
        <time>2022-02-24T23:09:36Z</time>
      </trkpt>
      <trkpt lat="40.710190" lon="-4.824050">
        <ele>1248.508</ele>
        <time>2022-02-24T23:10:16Z</time>
      </trkpt>
      <trkpt lat="40.710210" lon="-4.824090">
        <ele>1248.167</ele>
        <time>2022-02-24T23:10:56Z</time>
      </trkpt>
      <trkpt lat="40.710230" lon="-4.824130">
        <ele>1247.754</ele>
        <time>2022-02-24T23:11:36Z</time>
      </trkpt>
      <trkpt lat="40.710240" lon="-4.824170">
        <ele>1247.438</ele>
        <time>2022-02-24T23:12:16Z</time>
      </trkpt>
      <trkpt lat="40.710250" lon="-4.824200">
        <ele>1247.227</ele>
        <time>2022-02-24T23:12:56Z</time>
      </trkpt>
      <trkpt lat="40.710260" lon="-4.824250">
        <ele>1246.996</ele>
        <time>2022-02-24T23:13:36Z</time>
      </trkpt>
      <trkpt lat="40.710270" lon="-4.824350">
        <ele>1246.447</ele>
        <time>2022-02-24T23:14:16Z</time>
      </trkpt>
      <trkpt lat="40.710270" lon="-4.824460">
        <ele>1246.088</ele>
        <time>2022-02-24T23:14:56Z</time>
      </trkpt>
      <trkpt lat="40.710270" lon="-4.824810">
        <ele>1243.880</ele>
        <time>2022-02-24T23:15:36Z</time>
      </trkpt>
      <trkpt lat="40.710270" lon="-4.825140">
        <ele>1242.181</ele>
        <time>2022-02-24T23:16:16Z</time>
      </trkpt>
      <trkpt lat="40.710270" lon="-4.825370">
        <ele>1240.761</ele>
        <time>2022-02-24T23:16:56Z</time>
      </trkpt>
      <trkpt lat="40.710270" lon="-4.825510">
        <ele>1240.217</ele>
        <time>2022-02-24T23:17:36Z</time>
      </trkpt>
      <trkpt lat="40.710270" lon="-4.825580">
        <ele>1240.008</ele>
        <time>2022-02-24T23:18:16Z</time>
      </trkpt>
      <trkpt lat="40.710260" lon="-4.825650">
        <ele>1239.847</ele>
        <time>2022-02-24T23:18:56Z</time>
      </trkpt>
      <trkpt lat="40.710260" lon="-4.825690">
        <ele>1239.644</ele>
        <time>2022-02-24T23:19:36Z</time>
      </trkpt>
      <trkpt lat="40.710260" lon="-4.825730">
        <ele>1239.538</ele>
        <time>2022-02-24T23:20:16Z</time>
      </trkpt>
      <trkpt lat="40.710240" lon="-4.825810">
        <ele>1239.497</ele>
        <time>2022-02-24T23:20:56Z</time>
      </trkpt>
      <trkpt lat="40.710220" lon="-4.825900">
        <ele>1239.196</ele>
        <time>2022-02-24T23:21:36Z</time>
      </trkpt>
      <trkpt lat="40.710170" lon="-4.826110">
        <ele>1238.477</ele>
        <time>2022-02-24T23:22:16Z</time>
      </trkpt>
      <trkpt lat="40.710130" lon="-4.826250">
        <ele>1238.038</ele>
        <time>2022-02-24T23:22:56Z</time>
      </trkpt>
      <trkpt lat="40.710110" lon="-4.826340">
        <ele>1237.840</ele>
        <time>2022-02-24T23:23:36Z</time>
      </trkpt>
      <trkpt lat="40.710100" lon="-4.826370">
        <ele>1237.747</ele>
        <time>2022-02-24T23:24:16Z</time>
      </trkpt>
      <trkpt lat="40.710100" lon="-4.826390">
        <ele>1237.629</ele>
        <time>2022-02-24T23:24:56Z</time>
      </trkpt>
      <trkpt lat="40.710090" lon="-4.826430">
        <ele>1237.621</ele>
        <time>2022-02-24T23:25:36Z</time>
      </trkpt>
      <trkpt lat="40.710090" lon="-4.826450">
        <ele>1237.508</ele>
        <time>2022-02-24T23:26:16Z</time>
      </trkpt>
      <trkpt lat="40.710090" lon="-4.826480">
        <ele>1237.533</ele>
        <time>2022-02-24T23:26:56Z</time>
      </trkpt>
      <trkpt lat="40.710090" lon="-4.826530">
        <ele>1237.340</ele>
        <time>2022-02-24T23:27:36Z</time>
      </trkpt>
      <trkpt lat="40.710100" lon="-4.826610">
        <ele>1237.114</ele>
        <time>2022-02-24T23:28:16Z</time>
      </trkpt>
      <trkpt lat="40.710130" lon="-4.826860">
        <ele>1235.923</ele>
        <time>2022-02-24T23:28:56Z</time>
      </trkpt>
      <trkpt lat="40.710170" lon="-4.827150">
        <ele>1234.492</ele>
        <time>2022-02-24T23:29:36Z</time>
      </trkpt>
      <trkpt lat="40.710210" lon="-4.827440">
        <ele>1232.913</ele>
        <time>2022-02-24T23:30:16Z</time>
      </trkpt>
      <trkpt lat="40.710220" lon="-4.827540">
        <ele>1232.534</ele>
        <time>2022-02-24T23:30:56Z</time>
      </trkpt>
      <trkpt lat="40.710250" lon="-4.827720">
        <ele>1231.556</ele>
        <time>2022-02-24T23:31:36Z</time>
      </trkpt>
      <trkpt lat="40.710260" lon="-4.827770">
        <ele>1231.258</ele>
        <time>2022-02-24T23:32:16Z</time>
      </trkpt>
      <trkpt lat="40.710290" lon="-4.828000">
        <ele>1230.252</ele>
        <time>2022-02-24T23:32:56Z</time>
      </trkpt>
      <trkpt lat="40.710320" lon="-4.828240">
        <ele>1229.317</ele>
        <time>2022-02-24T23:33:36Z</time>
      </trkpt>
      <trkpt lat="40.710320" lon="-4.828290">
        <ele>1229.108</ele>
        <time>2022-02-24T23:34:16Z</time>
      </trkpt>
      <trkpt lat="40.710350" lon="-4.828520">
        <ele>1228.834</ele>
        <time>2022-02-24T23:34:56Z</time>
      </trkpt>
      <trkpt lat="40.710360" lon="-4.828580">
        <ele>1228.751</ele>
        <time>2022-02-24T23:35:36Z</time>
      </trkpt>
      <trkpt lat="40.710390" lon="-4.828810">
        <ele>1228.355</ele>
        <time>2022-02-24T23:36:16Z</time>
      </trkpt>
      <trkpt lat="40.710410" lon="-4.828910">
        <ele>1228.054</ele>
        <time>2022-02-24T23:36:56Z</time>
      </trkpt>
      <trkpt lat="40.710420" lon="-4.828990">
        <ele>1227.823</ele>
        <time>2022-02-24T23:37:36Z</time>
      </trkpt>
      <trkpt lat="40.710420" lon="-4.829010">
        <ele>1227.834</ele>
        <time>2022-02-24T23:38:16Z</time>
      </trkpt>
      <trkpt lat="40.710430" lon="-4.829100">
        <ele>1227.695</ele>
        <time>2022-02-24T23:38:56Z</time>
      </trkpt>
      <trkpt lat="40.710430" lon="-4.829170">
        <ele>1227.417</ele>
        <time>2022-02-24T23:39:36Z</time>
      </trkpt>
      <trkpt lat="40.710430" lon="-4.829220">
        <ele>1227.372</ele>
        <time>2022-02-24T23:40:16Z</time>
      </trkpt>
      <trkpt lat="40.710430" lon="-4.829260">
        <ele>1227.313</ele>
        <time>2022-02-24T23:40:56Z</time>
      </trkpt>
      <trkpt lat="40.710420" lon="-4.829350">
        <ele>1227.214</ele>
        <time>2022-02-24T23:41:36Z</time>
      </trkpt>
      <trkpt lat="40.710410" lon="-4.829440">
        <ele>1227.108</ele>
        <time>2022-02-24T23:42:16Z</time>
      </trkpt>
      <trkpt lat="40.710410" lon="-4.829460">
        <ele>1227.016</ele>
        <time>2022-02-24T23:42:56Z</time>
      </trkpt>
      <trkpt lat="40.710400" lon="-4.829670">
        <ele>1226.883</ele>
        <time>2022-02-24T23:43:36Z</time>
      </trkpt>
      <trkpt lat="40.710390" lon="-4.829780">
        <ele>1226.837</ele>
        <time>2022-02-24T23:44:16Z</time>
      </trkpt>
      <trkpt lat="40.710380" lon="-4.829900">
        <ele>1226.996</ele>
        <time>2022-02-24T23:44:56Z</time>
      </trkpt>
      <trkpt lat="40.710390" lon="-4.829980">
        <ele>1226.815</ele>
        <time>2022-02-24T23:45:36Z</time>
      </trkpt>
      <trkpt lat="40.710390" lon="-4.830040">
        <ele>1226.856</ele>
        <time>2022-02-24T23:46:16Z</time>
      </trkpt>
      <trkpt lat="40.710400" lon="-4.830150">
        <ele>1226.737</ele>
        <time>2022-02-24T23:46:56Z</time>
      </trkpt>
      <trkpt lat="40.710430" lon="-4.830260">
        <ele>1226.499</ele>
        <time>2022-02-24T23:47:36Z</time>
      </trkpt>
      <trkpt lat="40.710470" lon="-4.830400">
        <ele>1226.181</ele>
        <time>2022-02-24T23:48:16Z</time>
      </trkpt>
      <trkpt lat="40.710510" lon="-4.830550">
        <ele>1225.761</ele>
        <time>2022-02-24T23:48:56Z</time>
      </trkpt>
      <trkpt lat="40.710580" lon="-4.830780">
        <ele>1225.517</ele>
        <time>2022-02-24T23:49:36Z</time>
      </trkpt>
      <trkpt lat="40.710640" lon="-4.831040">
        <ele>1225.008</ele>
        <time>2022-02-24T23:50:16Z</time>
      </trkpt>
      <trkpt lat="40.710720" lon="-4.831330">
        <ele>1224.247</ele>
        <time>2022-02-24T23:50:56Z</time>
      </trkpt>
      <trkpt lat="40.710770" lon="-4.831530">
        <ele>1223.624</ele>
        <time>2022-02-24T23:51:36Z</time>
      </trkpt>
      <trkpt lat="40.710780" lon="-4.831610">
        <ele>1223.488</ele>
        <time>2022-02-24T23:52:16Z</time>
      </trkpt>
      <trkpt lat="40.710780" lon="-4.831670">
        <ele>1223.427</ele>
        <time>2022-02-24T23:52:56Z</time>
      </trkpt>
      <trkpt lat="40.710780" lon="-4.831750">
        <ele>1223.486</ele>
        <time>2022-02-24T23:53:36Z</time>
      </trkpt>
      <trkpt lat="40.710780" lon="-4.831830">
        <ele>1223.477</ele>
        <time>2022-02-24T23:54:16Z</time>
      </trkpt>
      <trkpt lat="40.710780" lon="-4.831890">
        <ele>1223.478</ele>
        <time>2022-02-24T23:54:56Z</time>
      </trkpt>
      <trkpt lat="40.710770" lon="-4.831960">
        <ele>1223.550</ele>
        <time>2022-02-24T23:55:36Z</time>
      </trkpt>
      <trkpt lat="40.710750" lon="-4.832020">
        <ele>1223.613</ele>
        <time>2022-02-24T23:56:16Z</time>
      </trkpt>
      <trkpt lat="40.710740" lon="-4.832070">
        <ele>1223.743</ele>
        <time>2022-02-24T23:56:56Z</time>
      </trkpt>
      <trkpt lat="40.710650" lon="-4.832370">
        <ele>1223.807</ele>
        <time>2022-02-24T23:57:36Z</time>
      </trkpt>
      <trkpt lat="40.710560" lon="-4.832670">
        <ele>1223.408</ele>
        <time>2022-02-24T23:58:16Z</time>
      </trkpt>
      <trkpt lat="40.710490" lon="-4.832890">
        <ele>1223.170</ele>
        <time>2022-02-24T23:58:56Z</time>
      </trkpt>
      <trkpt lat="40.710300" lon="-4.833500">
        <ele>1222.667</ele>
        <time>2022-02-24T23:59:36Z</time>
      </trkpt>
      <trkpt lat="40.710200" lon="-4.833810">
        <ele>1222.951</ele>
        <time>2022-02-25T00:00:16Z</time>
      </trkpt>
      <trkpt lat="40.710150" lon="-4.833960">
        <ele>1223.180</ele>
        <time>2022-02-25T00:00:56Z</time>
      </trkpt>
      <trkpt lat="40.710110" lon="-4.834110">
        <ele>1223.039</ele>
        <time>2022-02-25T00:01:36Z</time>
      </trkpt>
      <trkpt lat="40.710100" lon="-4.834140">
        <ele>1223.090</ele>
        <time>2022-02-25T00:02:16Z</time>
      </trkpt>
      <trkpt lat="40.710050" lon="-4.834350">
        <ele>1222.841</ele>
        <time>2022-02-25T00:02:56Z</time>
      </trkpt>
      <trkpt lat="40.710000" lon="-4.834510">
        <ele>1222.813</ele>
        <time>2022-02-25T00:03:36Z</time>
      </trkpt>
      <trkpt lat="40.709950" lon="-4.834740">
        <ele>1222.852</ele>
        <time>2022-02-25T00:04:16Z</time>
      </trkpt>
      <trkpt lat="40.709910" lon="-4.834970">
        <ele>1222.753</ele>
        <time>2022-02-25T00:04:56Z</time>
      </trkpt>
      <trkpt lat="40.709870" lon="-4.835210">
        <ele>1223.008</ele>
        <time>2022-02-25T00:05:36Z</time>
      </trkpt>
      <trkpt lat="40.709820" lon="-4.835480">
        <ele>1222.908</ele>
        <time>2022-02-25T00:06:16Z</time>
      </trkpt>
      <trkpt lat="40.709820" lon="-4.835520">
        <ele>1222.784</ele>
        <time>2022-02-25T00:06:56Z</time>
      </trkpt>
      <trkpt lat="40.709780" lon="-4.835780">
        <ele>1222.451</ele>
        <time>2022-02-25T00:07:36Z</time>
      </trkpt>
      <trkpt lat="40.709730" lon="-4.836090">
        <ele>1222.015</ele>
        <time>2022-02-25T00:08:16Z</time>
      </trkpt>
      <trkpt lat="40.709680" lon="-4.836370">
        <ele>1220.624</ele>
        <time>2022-02-25T00:08:56Z</time>
      </trkpt>
      <trkpt lat="40.709650" lon="-4.836580">
        <ele>1220.633</ele>
        <time>2022-02-25T00:09:36Z</time>
      </trkpt>
      <trkpt lat="40.709640" lon="-4.836650">
        <ele>1220.614</ele>
        <time>2022-02-25T00:10:16Z</time>
      </trkpt>
      <trkpt lat="40.709610" lon="-4.836820">
        <ele>1220.315</ele>
        <time>2022-02-25T00:10:56Z</time>
      </trkpt>
      <trkpt lat="40.709580" lon="-4.837020">
        <ele>1220.047</ele>
        <time>2022-02-25T00:11:36Z</time>
      </trkpt>
      <trkpt lat="40.709560" lon="-4.837160">
        <ele>1220.274</ele>
        <time>2022-02-25T00:12:16Z</time>
      </trkpt>
      <trkpt lat="40.709530" lon="-4.837350">
        <ele>1220.756</ele>
        <time>2022-02-25T00:12:56Z</time>
      </trkpt>
      <trkpt lat="40.709500" lon="-4.837550">
        <ele>1221.421</ele>
        <time>2022-02-25T00:13:36Z</time>
      </trkpt>
      <trkpt lat="40.709460" lon="-4.837810">
        <ele>1221.908</ele>
        <time>2022-02-25T00:14:16Z</time>
      </trkpt>
      <trkpt lat="40.709410" lon="-4.838070">
        <ele>1222.366</ele>
        <time>2022-02-25T00:14:56Z</time>
      </trkpt>
      <trkpt lat="40.709380" lon="-4.838270">
        <ele>1223.233</ele>
        <time>2022-02-25T00:15:36Z</time>
      </trkpt>
      <trkpt lat="40.709370" lon="-4.838300">
        <ele>1223.497</ele>
        <time>2022-02-25T00:16:16Z</time>
      </trkpt>
      <trkpt lat="40.709340" lon="-4.838500">
        <ele>1224.196</ele>
        <time>2022-02-25T00:16:56Z</time>
      </trkpt>
      <trkpt lat="40.709330" lon="-4.838650">
        <ele>1224.615</ele>
        <time>2022-02-25T00:17:36Z</time>
      </trkpt>
      <trkpt lat="40.709290" lon="-4.838910">
        <ele>1225.666</ele>
        <time>2022-02-25T00:18:16Z</time>
      </trkpt>
      <trkpt lat="40.709240" lon="-4.839180">
        <ele>1226.767</ele>
        <time>2022-02-25T00:18:56Z</time>
      </trkpt>
      <trkpt lat="40.709220" lon="-4.839310">
        <ele>1226.999</ele>
        <time>2022-02-25T00:19:36Z</time>
      </trkpt>
      <trkpt lat="40.709200" lon="-4.839410">
        <ele>1227.094</ele>
        <time>2022-02-25T00:20:16Z</time>
      </trkpt>
      <trkpt lat="40.709190" lon="-4.839450">
        <ele>1227.057</ele>
        <time>2022-02-25T00:20:56Z</time>
      </trkpt>
      <trkpt lat="40.709180" lon="-4.839490">
        <ele>1227.222</ele>
        <time>2022-02-25T00:21:36Z</time>
      </trkpt>
      <trkpt lat="40.709160" lon="-4.839570">
        <ele>1227.508</ele>
        <time>2022-02-25T00:22:16Z</time>
      </trkpt>
      <trkpt lat="40.709140" lon="-4.839640">
        <ele>1227.888</ele>
        <time>2022-02-25T00:22:56Z</time>
      </trkpt>
      <trkpt lat="40.709140" lon="-4.839660">
        <ele>1227.945</ele>
        <time>2022-02-25T00:23:36Z</time>
      </trkpt>
      <trkpt lat="40.709120" lon="-4.839740">
        <ele>1228.229</ele>
        <time>2022-02-25T00:24:16Z</time>
      </trkpt>
      <trkpt lat="40.709050" lon="-4.839980">
        <ele>1229.028</ele>
        <time>2022-02-25T00:24:56Z</time>
      </trkpt>
      <trkpt lat="40.708980" lon="-4.840240">
        <ele>1229.027</ele>
        <time>2022-02-25T00:25:36Z</time>
      </trkpt>
      <trkpt lat="40.708900" lon="-4.840530">
        <ele>1229.948</ele>
        <time>2022-02-25T00:26:16Z</time>
      </trkpt>
      <trkpt lat="40.708900" lon="-4.840550">
        <ele>1230.049</ele>
        <time>2022-02-25T00:26:56Z</time>
      </trkpt>
      <trkpt lat="40.708840" lon="-4.840750">
        <ele>1230.051</ele>
        <time>2022-02-25T00:27:36Z</time>
      </trkpt>
      <trkpt lat="40.708750" lon="-4.841070">
        <ele>1230.069</ele>
        <time>2022-02-25T00:28:16Z</time>
      </trkpt>
      <trkpt lat="40.708700" lon="-4.841320">
        <ele>1230.004</ele>
        <time>2022-02-25T00:28:56Z</time>
      </trkpt>
      <trkpt lat="40.708670" lon="-4.841410">
        <ele>1230.024</ele>
        <time>2022-02-25T00:29:36Z</time>
      </trkpt>
      <trkpt lat="40.708620" lon="-4.841600">
        <ele>1230.008</ele>
        <time>2022-02-25T00:30:16Z</time>
      </trkpt>
      <trkpt lat="40.708600" lon="-4.841670">
        <ele>1230.065</ele>
        <time>2022-02-25T00:30:56Z</time>
      </trkpt>
      <trkpt lat="40.708570" lon="-4.841780">
        <ele>1230.032</ele>
        <time>2022-02-25T00:31:36Z</time>
      </trkpt>
      <trkpt lat="40.708520" lon="-4.841940">
        <ele>1230.016</ele>
        <time>2022-02-25T00:32:16Z</time>
      </trkpt>
      <trkpt lat="40.708470" lon="-4.842130">
        <ele>1230.035</ele>
        <time>2022-02-25T00:32:56Z</time>
      </trkpt>
      <trkpt lat="40.708430" lon="-4.842290">
        <ele>1230.024</ele>
        <time>2022-02-25T00:33:36Z</time>
      </trkpt>
      <trkpt lat="40.708390" lon="-4.842440">
        <ele>1230.055</ele>
        <time>2022-02-25T00:34:16Z</time>
      </trkpt>
      <trkpt lat="40.708360" lon="-4.842560">
        <ele>1230.026</ele>
        <time>2022-02-25T00:34:56Z</time>
      </trkpt>
      <trkpt lat="40.708350" lon="-4.842580">
        <ele>1230.088</ele>
        <time>2022-02-25T00:35:36Z</time>
      </trkpt>
      <trkpt lat="40.708320" lon="-4.842680">
        <ele>1230.024</ele>
        <time>2022-02-25T00:36:16Z</time>
      </trkpt>
      <trkpt lat="40.708310" lon="-4.842740">
        <ele>1230.104</ele>
        <time>2022-02-25T00:36:56Z</time>
      </trkpt>
      <trkpt lat="40.708290" lon="-4.842790">
        <ele>1230.114</ele>
        <time>2022-02-25T00:37:36Z</time>
      </trkpt>
      <trkpt lat="40.708280" lon="-4.842840">
        <ele>1230.108</ele>
        <time>2022-02-25T00:38:16Z</time>
      </trkpt>
      <trkpt lat="40.708270" lon="-4.842880">
        <ele>1230.171</ele>
        <time>2022-02-25T00:38:56Z</time>
      </trkpt>
      <trkpt lat="40.708260" lon="-4.842930">
        <ele>1230.188</ele>
        <time>2022-02-25T00:39:36Z</time>
      </trkpt>
      <trkpt lat="40.708250" lon="-4.842970">
        <ele>1230.142</ele>
        <time>2022-02-25T00:40:16Z</time>
      </trkpt>
      <trkpt lat="40.708250" lon="-4.843020">
        <ele>1230.011</ele>
        <time>2022-02-25T00:40:56Z</time>
      </trkpt>
      <trkpt lat="40.708240" lon="-4.843050">
        <ele>1230.070</ele>
        <time>2022-02-25T00:41:36Z</time>
      </trkpt>
      <trkpt lat="40.708240" lon="-4.843100">
        <ele>1230.071</ele>
        <time>2022-02-25T00:42:16Z</time>
      </trkpt>
      <trkpt lat="40.708240" lon="-4.843140">
        <ele>1230.082</ele>
        <time>2022-02-25T00:42:56Z</time>
      </trkpt>
      <trkpt lat="40.708240" lon="-4.843180">
        <ele>1230.074</ele>
        <time>2022-02-25T00:43:36Z</time>
      </trkpt>
      <trkpt lat="40.708240" lon="-4.843220">
        <ele>1230.034</ele>
        <time>2022-02-25T00:44:16Z</time>
      </trkpt>
      <trkpt lat="40.708260" lon="-4.843340">
        <ele>1230.055</ele>
        <time>2022-02-25T00:44:56Z</time>
      </trkpt>
      <trkpt lat="40.708280" lon="-4.843430">
        <ele>1229.710</ele>
        <time>2022-02-25T00:45:36Z</time>
      </trkpt>
      <trkpt lat="40.708290" lon="-4.843480">
        <ele>1229.508</ele>
        <time>2022-02-25T00:46:16Z</time>
      </trkpt>
      <trkpt lat="40.708320" lon="-4.843620">
        <ele>1228.912</ele>
        <time>2022-02-25T00:46:56Z</time>
      </trkpt>
      <trkpt lat="40.708330" lon="-4.843710">
        <ele>1228.399</ele>
        <time>2022-02-25T00:47:36Z</time>
      </trkpt>
      <trkpt lat="40.708340" lon="-4.843790">
        <ele>1227.783</ele>
        <time>2022-02-25T00:48:16Z</time>
      </trkpt>
      <trkpt lat="40.708350" lon="-4.843850">
        <ele>1227.272</ele>
        <time>2022-02-25T00:48:56Z</time>
      </trkpt>
      <trkpt lat="40.708350" lon="-4.843910">
        <ele>1226.931</ele>
        <time>2022-02-25T00:49:36Z</time>
      </trkpt>
      <trkpt lat="40.708340" lon="-4.843970">
        <ele>1226.712</ele>
        <time>2022-02-25T00:50:16Z</time>
      </trkpt>
      <trkpt lat="40.708320" lon="-4.844060">
        <ele>1226.473</ele>
        <time>2022-02-25T00:50:56Z</time>
      </trkpt>
      <trkpt lat="40.708290" lon="-4.844240">
        <ele>1225.565</ele>
        <time>2022-02-25T00:51:36Z</time>
      </trkpt>
      <trkpt lat="40.708240" lon="-4.844400">
        <ele>1224.638</ele>
        <time>2022-02-25T00:52:16Z</time>
      </trkpt>
      <trkpt lat="40.708240" lon="-4.844410">
        <ele>1224.570</ele>
        <time>2022-02-25T00:52:56Z</time>
      </trkpt>
      <trkpt lat="40.708200" lon="-4.844590">
        <ele>1224.017</ele>
        <time>2022-02-25T00:53:36Z</time>
      </trkpt>
      <trkpt lat="40.708160" lon="-4.844770">
        <ele>1223.308</ele>
        <time>2022-02-25T00:54:16Z</time>
      </trkpt>
      <trkpt lat="40.708140" lon="-4.844920">
        <ele>1222.332</ele>
        <time>2022-02-25T00:54:56Z</time>
      </trkpt>
      <trkpt lat="40.708120" lon="-4.845030">
        <ele>1221.829</ele>
        <time>2022-02-25T00:55:36Z</time>
      </trkpt>
      <trkpt lat="40.708120" lon="-4.845090">
        <ele>1221.893</ele>
        <time>2022-02-25T00:56:16Z</time>
      </trkpt>
      <trkpt lat="40.708120" lon="-4.845160">
        <ele>1221.812</ele>
        <time>2022-02-25T00:56:56Z</time>
      </trkpt>
      <trkpt lat="40.708130" lon="-4.845230">
        <ele>1221.791</ele>
        <time>2022-02-25T00:57:36Z</time>
      </trkpt>
      <trkpt lat="40.708130" lon="-4.845310">
        <ele>1221.652</ele>
        <time>2022-02-25T00:58:16Z</time>
      </trkpt>
      <trkpt lat="40.708150" lon="-4.845410">
        <ele>1221.273</ele>
        <time>2022-02-25T00:58:56Z</time>
      </trkpt>
      <trkpt lat="40.708170" lon="-4.845520">
        <ele>1220.795</ele>
        <time>2022-02-25T00:59:36Z</time>
      </trkpt>
      <trkpt lat="40.708200" lon="-4.845680">
        <ele>1220.318</ele>
        <time>2022-02-25T01:00:16Z</time>
      </trkpt>
      <trkpt lat="40.708230" lon="-4.845840">
        <ele>1220.098</ele>
        <time>2022-02-25T01:00:56Z</time>
      </trkpt>
      <trkpt lat="40.708270" lon="-4.846020">
        <ele>1220.017</ele>
        <time>2022-02-25T01:01:36Z</time>
      </trkpt>
      <trkpt lat="40.708270" lon="-4.846040">
        <ele>1220.008</ele>
        <time>2022-02-25T01:02:16Z</time>
      </trkpt>
      <trkpt lat="40.708310" lon="-4.846220">
        <ele>1219.620</ele>
        <time>2022-02-25T01:02:56Z</time>
      </trkpt>
      <trkpt lat="40.708350" lon="-4.846360">
        <ele>1219.117</ele>
        <time>2022-02-25T01:03:36Z</time>
      </trkpt>
      <trkpt lat="40.708420" lon="-4.846610">
        <ele>1218.831</ele>
        <time>2022-02-25T01:04:16Z</time>
      </trkpt>
      <trkpt lat="40.708440" lon="-4.846690">
        <ele>1218.660</ele>
        <time>2022-02-25T01:04:56Z</time>
      </trkpt>
      <trkpt lat="40.708470" lon="-4.846790">
        <ele>1218.379</ele>
        <time>2022-02-25T01:05:36Z</time>
      </trkpt>
      <trkpt lat="40.708500" lon="-4.846920">
        <ele>1217.980</ele>
        <time>2022-02-25T01:06:16Z</time>
      </trkpt>
      <trkpt lat="40.708540" lon="-4.847050">
        <ele>1218.011</ele>
        <time>2022-02-25T01:06:56Z</time>
      </trkpt>
      <trkpt lat="40.708600" lon="-4.847240">
        <ele>1218.223</ele>
        <time>2022-02-25T01:07:36Z</time>
      </trkpt>
      <trkpt lat="40.708620" lon="-4.847280">
        <ele>1218.375</ele>
        <time>2022-02-25T01:08:16Z</time>
      </trkpt>
      <trkpt lat="40.708630" lon="-4.847320">
        <ele>1218.528</ele>
        <time>2022-02-25T01:08:56Z</time>
      </trkpt>
      <trkpt lat="40.708650" lon="-4.847350">
        <ele>1218.420</ele>
        <time>2022-02-25T01:09:36Z</time>
      </trkpt>
      <trkpt lat="40.708650" lon="-4.847360">
        <ele>1218.508</ele>
        <time>2022-02-25T01:10:16Z</time>
      </trkpt>
      <trkpt lat="40.708670" lon="-4.847400">
        <ele>1218.516</ele>
        <time>2022-02-25T01:10:56Z</time>
      </trkpt>
      <trkpt lat="40.708680" lon="-4.847430">
        <ele>1218.693</ele>
        <time>2022-02-25T01:11:36Z</time>
      </trkpt>
      <trkpt lat="40.708690" lon="-4.847450">
        <ele>1218.637</ele>
        <time>2022-02-25T01:12:16Z</time>
      </trkpt>
      <trkpt lat="40.708710" lon="-4.847480">
        <ele>1218.526</ele>
        <time>2022-02-25T01:12:56Z</time>
      </trkpt>
      <trkpt lat="40.708730" lon="-4.847510">
        <ele>1218.435</ele>
        <time>2022-02-25T01:13:36Z</time>
      </trkpt>
      <trkpt lat="40.708750" lon="-4.847540">
        <ele>1218.326</ele>
        <time>2022-02-25T01:14:16Z</time>
      </trkpt>
      <trkpt lat="40.708780" lon="-4.847570">
        <ele>1218.127</ele>
        <time>2022-02-25T01:14:56Z</time>
      </trkpt>
      <trkpt lat="40.708800" lon="-4.847600">
        <ele>1218.099</ele>
        <time>2022-02-25T01:15:36Z</time>
      </trkpt>
      <trkpt lat="40.708840" lon="-4.847650">
        <ele>1217.836</ele>
        <time>2022-02-25T01:16:16Z</time>
      </trkpt>
      <trkpt lat="40.708910" lon="-4.847730">
        <ele>1217.517</ele>
        <time>2022-02-25T01:16:56Z</time>
      </trkpt>
      <trkpt lat="40.709020" lon="-4.847840">
        <ele>1217.318</ele>
        <time>2022-02-25T01:17:36Z</time>
      </trkpt>
      <trkpt lat="40.709060" lon="-4.847880">
        <ele>1217.108</ele>
        <time>2022-02-25T01:18:16Z</time>
      </trkpt>
      <trkpt lat="40.709090" lon="-4.847900">
        <ele>1217.032</ele>
        <time>2022-02-25T01:18:56Z</time>
      </trkpt>
      <trkpt lat="40.709130" lon="-4.847930">
        <ele>1216.889</ele>
        <time>2022-02-25T01:19:36Z</time>
      </trkpt>
      <trkpt lat="40.709160" lon="-4.847950">
        <ele>1216.713</ele>
        <time>2022-02-25T01:20:16Z</time>
      </trkpt>
      <trkpt lat="40.709200" lon="-4.847970">
        <ele>1216.422</ele>
        <time>2022-02-25T01:20:56Z</time>
      </trkpt>
      <trkpt lat="40.709230" lon="-4.847980">
        <ele>1216.211</ele>
        <time>2022-02-25T01:21:36Z</time>
      </trkpt>
      <trkpt lat="40.709250" lon="-4.847980">
        <ele>1216.052</ele>
        <time>2022-02-25T01:22:16Z</time>
      </trkpt>
      <trkpt lat="40.709270" lon="-4.847990">
        <ele>1215.983</ele>
        <time>2022-02-25T01:22:56Z</time>
      </trkpt>
      <trkpt lat="40.709290" lon="-4.848000">
        <ele>1215.835</ele>
        <time>2022-02-25T01:23:36Z</time>
      </trkpt>
      <trkpt lat="40.709320" lon="-4.848000">
        <ele>1215.677</ele>
        <time>2022-02-25T01:24:16Z</time>
      </trkpt>
      <trkpt lat="40.709340" lon="-4.848010">
        <ele>1215.561</ele>
        <time>2022-02-25T01:24:56Z</time>
      </trkpt>
      <trkpt lat="40.709370" lon="-4.848010">
        <ele>1215.327</ele>
        <time>2022-02-25T01:25:36Z</time>
      </trkpt>
      <trkpt lat="40.709410" lon="-4.848010">
        <ele>1214.908</ele>
        <time>2022-02-25T01:26:16Z</time>
      </trkpt>
      <trkpt lat="40.709470" lon="-4.848010">
        <ele>1214.716</ele>
        <time>2022-02-25T01:26:56Z</time>
      </trkpt>
      <trkpt lat="40.709580" lon="-4.848010">
        <ele>1214.753</ele>
        <time>2022-02-25T01:27:36Z</time>
      </trkpt>
      <trkpt lat="40.709590" lon="-4.848010">
        <ele>1214.787</ele>
        <time>2022-02-25T01:28:16Z</time>
      </trkpt>
      <trkpt lat="40.709800" lon="-4.847980">
        <ele>1214.916</ele>
        <time>2022-02-25T01:28:56Z</time>
      </trkpt>
      <trkpt lat="40.710020" lon="-4.847950">
        <ele>1215.975</ele>
        <time>2022-02-25T01:29:36Z</time>
      </trkpt>
      <trkpt lat="40.710210" lon="-4.847930">
        <ele>1215.636</ele>
        <time>2022-02-25T01:30:16Z</time>
      </trkpt>
      <trkpt lat="40.710290" lon="-4.847920">
        <ele>1215.587</ele>
        <time>2022-02-25T01:30:56Z</time>
      </trkpt>
      <trkpt lat="40.710360" lon="-4.847920">
        <ele>1215.249</ele>
        <time>2022-02-25T01:31:36Z</time>
      </trkpt>
      <trkpt lat="40.710420" lon="-4.847920">
        <ele>1215.094</ele>
        <time>2022-02-25T01:32:16Z</time>
      </trkpt>
      <trkpt lat="40.710460" lon="-4.847930">
        <ele>1215.057</ele>
        <time>2022-02-25T01:32:56Z</time>
      </trkpt>
      <trkpt lat="40.710470" lon="-4.847930">
        <ele>1215.022</ele>
        <time>2022-02-25T01:33:36Z</time>
      </trkpt>
      <trkpt lat="40.710510" lon="-4.847930">
        <ele>1214.808</ele>
        <time>2022-02-25T01:34:16Z</time>
      </trkpt>
      <trkpt lat="40.710560" lon="-4.847950">
        <ele>1214.898</ele>
        <time>2022-02-25T01:34:56Z</time>
      </trkpt>
      <trkpt lat="40.710610" lon="-4.847970">
        <ele>1214.725</ele>
        <time>2022-02-25T01:35:36Z</time>
      </trkpt>
      <trkpt lat="40.710650" lon="-4.847990">
        <ele>1214.739</ele>
        <time>2022-02-25T01:36:16Z</time>
      </trkpt>
      <trkpt lat="40.710700" lon="-4.848020">
        <ele>1214.638</ele>
        <time>2022-02-25T01:36:56Z</time>
      </trkpt>
      <trkpt lat="40.710840" lon="-4.848090">
        <ele>1214.397</ele>
        <time>2022-02-25T01:37:36Z</time>
      </trkpt>
      <trkpt lat="40.710990" lon="-4.848170">
        <ele>1214.448</ele>
        <time>2022-02-25T01:38:16Z</time>
      </trkpt>
      <trkpt lat="40.711130" lon="-4.848240">
        <ele>1214.029</ele>
        <time>2022-02-25T01:38:56Z</time>
      </trkpt>
      <trkpt lat="40.711270" lon="-4.848310">
        <ele>1212.531</ele>
        <time>2022-02-25T01:39:36Z</time>
      </trkpt>
      <trkpt lat="40.711320" lon="-4.848330">
        <ele>1212.094</ele>
        <time>2022-02-25T01:40:16Z</time>
      </trkpt>
      <trkpt lat="40.711480" lon="-4.848420">
        <ele>1210.857</ele>
        <time>2022-02-25T01:40:56Z</time>
      </trkpt>
      <trkpt lat="40.711490" lon="-4.848420">
        <ele>1210.722</ele>
        <time>2022-02-25T01:41:36Z</time>
      </trkpt>
      <trkpt lat="40.711670" lon="-4.848510">
        <ele>1209.208</ele>
        <time>2022-02-25T01:42:16Z</time>
      </trkpt>
      <trkpt lat="40.711740" lon="-4.848540">
        <ele>1209.018</ele>
        <time>2022-02-25T01:42:56Z</time>
      </trkpt>
      <trkpt lat="40.711920" lon="-4.848630">
        <ele>1208.385</ele>
        <time>2022-02-25T01:43:36Z</time>
      </trkpt>
      <trkpt lat="40.712120" lon="-4.848740">
        <ele>1207.729</ele>
        <time>2022-02-25T01:44:16Z</time>
      </trkpt>
      <trkpt lat="40.712160" lon="-4.848750">
        <ele>1207.478</ele>
        <time>2022-02-25T01:44:56Z</time>
      </trkpt>
      <trkpt lat="40.712310" lon="-4.848820">
        <ele>1206.397</ele>
        <time>2022-02-25T01:45:36Z</time>
      </trkpt>
      <trkpt lat="40.712330" lon="-4.848830">
        <ele>1206.168</ele>
        <time>2022-02-25T01:46:16Z</time>
      </trkpt>
      <trkpt lat="40.712420" lon="-4.848880">
        <ele>1205.179</ele>
        <time>2022-02-25T01:46:56Z</time>
      </trkpt>
      <trkpt lat="40.712540" lon="-4.848950">
        <ele>1204.381</ele>
        <time>2022-02-25T01:47:36Z</time>
      </trkpt>
      <trkpt lat="40.712600" lon="-4.848980">
        <ele>1204.278</ele>
        <time>2022-02-25T01:48:16Z</time>
      </trkpt>
      <trkpt lat="40.712660" lon="-4.849020">
        <ele>1204.133</ele>
        <time>2022-02-25T01:48:56Z</time>
      </trkpt>
      <trkpt lat="40.712700" lon="-4.849040">
        <ele>1204.026</ele>
        <time>2022-02-25T01:49:36Z</time>
      </trkpt>
      <trkpt lat="40.712740" lon="-4.849070">
        <ele>1203.908</ele>
        <time>2022-02-25T01:50:16Z</time>
      </trkpt>
      <trkpt lat="40.712810" lon="-4.849130">
        <ele>1203.666</ele>
        <time>2022-02-25T01:50:56Z</time>
      </trkpt>
      <trkpt lat="40.712820" lon="-4.849140">
        <ele>1203.693</ele>
        <time>2022-02-25T01:51:36Z</time>
      </trkpt>
      <trkpt lat="40.712920" lon="-4.849210">
        <ele>1203.227</ele>
        <time>2022-02-25T01:52:16Z</time>
      </trkpt>
      <trkpt lat="40.713110" lon="-4.849340">
        <ele>1202.096</ele>
        <time>2022-02-25T01:52:56Z</time>
      </trkpt>
      <trkpt lat="40.713290" lon="-4.849470">
        <ele>1200.655</ele>
        <time>2022-02-25T01:53:36Z</time>
      </trkpt>
      <trkpt lat="40.713380" lon="-4.849540">
        <ele>1199.936</ele>
        <time>2022-02-25T01:54:16Z</time>
      </trkpt>
      <trkpt lat="40.713610" lon="-4.849710">
        <ele>1198.947</ele>
        <time>2022-02-25T01:54:56Z</time>
      </trkpt>
      <trkpt lat="40.713840" lon="-4.849870">
        <ele>1197.599</ele>
        <time>2022-02-25T01:55:36Z</time>
      </trkpt>
      <trkpt lat="40.714080" lon="-4.850050">
        <ele>1194.983</ele>
        <time>2022-02-25T01:56:16Z</time>
      </trkpt>
      <trkpt lat="40.714100" lon="-4.850060">
        <ele>1194.625</ele>
        <time>2022-02-25T01:56:56Z</time>
      </trkpt>
      <trkpt lat="40.714160" lon="-4.850110">
        <ele>1193.917</ele>
        <time>2022-02-25T01:57:36Z</time>
      </trkpt>
      <trkpt lat="40.714230" lon="-4.850170">
        <ele>1193.608</ele>
        <time>2022-02-25T01:58:16Z</time>
      </trkpt>
      <trkpt lat="40.714270" lon="-4.850190">
        <ele>1193.497</ele>
        <time>2022-02-25T01:58:56Z</time>
      </trkpt>
      <trkpt lat="40.714330" lon="-4.850260">
        <ele>1193.174</ele>
        <time>2022-02-25T01:59:36Z</time>
      </trkpt>
      <trkpt lat="40.714380" lon="-4.850310">
        <ele>1192.828</ele>
        <time>2022-02-25T02:00:16Z</time>
      </trkpt>
      <trkpt lat="40.714430" lon="-4.850370">
        <ele>1192.517</ele>
        <time>2022-02-25T02:00:56Z</time>
      </trkpt>
      <trkpt lat="40.714470" lon="-4.850450">
        <ele>1192.476</ele>
        <time>2022-02-25T02:01:36Z</time>
      </trkpt>
      <trkpt lat="40.714520" lon="-4.850550">
        <ele>1192.237</ele>
        <time>2022-02-25T02:02:16Z</time>
      </trkpt>
      <trkpt lat="40.714570" lon="-4.850690">
        <ele>1191.658</ele>
        <time>2022-02-25T02:02:56Z</time>
      </trkpt>
      <trkpt lat="40.714620" lon="-4.850820">
        <ele>1191.170</ele>
        <time>2022-02-25T02:03:36Z</time>
      </trkpt>
      <trkpt lat="40.714640" lon="-4.850900">
        <ele>1190.652</ele>
        <time>2022-02-25T02:04:16Z</time>
      </trkpt>
      <trkpt lat="40.714720" lon="-4.851130">
        <ele>1189.053</ele>
        <time>2022-02-25T02:04:56Z</time>
      </trkpt>
      <trkpt lat="40.714730" lon="-4.851150">
        <ele>1188.808</ele>
        <time>2022-02-25T02:05:36Z</time>
      </trkpt>
      <trkpt lat="40.714820" lon="-4.851420">
        <ele>1187.308</ele>
        <time>2022-02-25T02:06:16Z</time>
      </trkpt>
      <trkpt lat="40.714870" lon="-4.851560">
        <ele>1186.674</ele>
        <time>2022-02-25T02:06:56Z</time>
      </trkpt>
      <trkpt lat="40.714900" lon="-4.851640">
        <ele>1186.161</ele>
        <time>2022-02-25T02:07:36Z</time>
      </trkpt>
      <trkpt lat="40.714950" lon="-4.851780">
        <ele>1185.955</ele>
        <time>2022-02-25T02:08:16Z</time>
      </trkpt>
      <trkpt lat="40.714990" lon="-4.851900">
        <ele>1185.934</ele>
        <time>2022-02-25T02:08:56Z</time>
      </trkpt>
      <trkpt lat="40.715020" lon="-4.851990">
        <ele>1185.823</ele>
        <time>2022-02-25T02:09:36Z</time>
      </trkpt>
      <trkpt lat="40.715100" lon="-4.852200">
        <ele>1185.314</ele>
        <time>2022-02-25T02:10:16Z</time>
      </trkpt>
      <trkpt lat="40.715100" lon="-4.852210">
        <ele>1185.315</ele>
        <time>2022-02-25T02:10:56Z</time>
      </trkpt>
      <trkpt lat="40.715180" lon="-4.852440">
        <ele>1185.257</ele>
        <time>2022-02-25T02:11:36Z</time>
      </trkpt>
      <trkpt lat="40.715350" lon="-4.852920">
        <ele>1184.912</ele>
        <time>2022-02-25T02:12:16Z</time>
      </trkpt>
      <trkpt lat="40.715400" lon="-4.853070">
        <ele>1184.732</ele>
        <time>2022-02-25T02:12:56Z</time>
      </trkpt>
      <trkpt lat="40.715430" lon="-4.853160">
        <ele>1184.405</ele>
        <time>2022-02-25T02:13:36Z</time>
      </trkpt>
      <trkpt lat="40.715470" lon="-4.853270">
        <ele>1183.908</ele>
        <time>2022-02-25T02:14:16Z</time>
      </trkpt>
      <trkpt lat="40.715480" lon="-4.853280">
        <ele>1183.890</ele>
        <time>2022-02-25T02:14:56Z</time>
      </trkpt>
      <trkpt lat="40.715530" lon="-4.853410">
        <ele>1183.337</ele>
        <time>2022-02-25T02:15:36Z</time>
      </trkpt>
      <trkpt lat="40.715590" lon="-4.853590">
        <ele>1182.681</ele>
        <time>2022-02-25T02:16:16Z</time>
      </trkpt>
      <trkpt lat="40.715630" lon="-4.853710">
        <ele>1182.280</ele>
        <time>2022-02-25T02:16:56Z</time>
      </trkpt>
      <trkpt lat="40.715710" lon="-4.853930">
        <ele>1181.449</ele>
        <time>2022-02-25T02:17:36Z</time>
      </trkpt>
      <trkpt lat="40.715810" lon="-4.854250">
        <ele>1180.610</ele>
        <time>2022-02-25T02:18:16Z</time>
      </trkpt>
      <trkpt lat="40.715940" lon="-4.854600">
        <ele>1180.231</ele>
        <time>2022-02-25T02:18:56Z</time>
      </trkpt>
      <trkpt lat="40.715950" lon="-4.854630">
        <ele>1180.243</ele>
        <time>2022-02-25T02:19:36Z</time>
      </trkpt>
      <trkpt lat="40.716090" lon="-4.855010">
        <ele>1180.234</ele>
        <time>2022-02-25T02:20:16Z</time>
      </trkpt>
      <trkpt lat="40.716170" lon="-4.855230">
        <ele>1179.855</ele>
        <time>2022-02-25T02:20:56Z</time>
      </trkpt>
      <trkpt lat="40.716200" lon="-4.855300">
        <ele>1179.710</ele>
        <time>2022-02-25T02:21:36Z</time>
      </trkpt>
      <trkpt lat="40.716230" lon="-4.855370">
        <ele>1179.808</ele>
        <time>2022-02-25T02:22:16Z</time>
      </trkpt>
      <trkpt lat="40.716280" lon="-4.855470">
        <ele>1179.772</ele>
        <time>2022-02-25T02:22:56Z</time>
      </trkpt>
      <trkpt lat="40.716330" lon="-4.855570">
        <ele>1179.559</ele>
        <time>2022-02-25T02:23:36Z</time>
      </trkpt>
      <trkpt lat="40.716430" lon="-4.855770">
        <ele>1179.573</ele>
        <time>2022-02-25T02:24:16Z</time>
      </trkpt>
      <trkpt lat="40.716560" lon="-4.856000">
        <ele>1178.842</ele>
        <time>2022-02-25T02:24:56Z</time>
      </trkpt>
      <trkpt lat="40.716570" lon="-4.856030">
        <ele>1178.741</ele>
        <time>2022-02-25T02:25:36Z</time>
      </trkpt>
      <trkpt lat="40.716700" lon="-4.856250">
        <ele>1177.832</ele>
        <time>2022-02-25T02:26:16Z</time>
      </trkpt>
      <trkpt lat="40.716970" lon="-4.856740">
        <ele>1175.863</ele>
        <time>2022-02-25T02:26:56Z</time>
      </trkpt>
      <trkpt lat="40.717100" lon="-4.856990">
        <ele>1175.085</ele>
        <time>2022-02-25T02:27:36Z</time>
      </trkpt>
      <trkpt lat="40.717110" lon="-4.857000">
        <ele>1174.931</ele>
        <time>2022-02-25T02:28:16Z</time>
      </trkpt>
      <trkpt lat="40.717190" lon="-4.857160">
        <ele>1174.961</ele>
        <time>2022-02-25T02:28:56Z</time>
      </trkpt>
      <trkpt lat="40.717340" lon="-4.857430">
        <ele>1174.207</ele>
        <time>2022-02-25T02:29:36Z</time>
      </trkpt>
      <trkpt lat="40.717450" lon="-4.857640">
        <ele>1173.408</ele>
        <time>2022-02-25T02:30:16Z</time>
      </trkpt>
      <trkpt lat="40.717520" lon="-4.857770">
        <ele>1172.932</ele>
        <time>2022-02-25T02:30:56Z</time>
      </trkpt>
      <trkpt lat="40.717590" lon="-4.857890">
        <ele>1172.929</ele>
        <time>2022-02-25T02:31:36Z</time>
      </trkpt>
      <trkpt lat="40.717730" lon="-4.858140">
        <ele>1172.613</ele>
        <time>2022-02-25T02:32:16Z</time>
      </trkpt>
      <trkpt lat="40.717890" lon="-4.858430">
        <ele>1172.662</ele>
        <time>2022-02-25T02:32:56Z</time>
      </trkpt>
      <trkpt lat="40.718000" lon="-4.858620">
        <ele>1172.231</ele>
        <time>2022-02-25T02:33:36Z</time>
      </trkpt>
      <trkpt lat="40.718050" lon="-4.858730">
        <ele>1172.452</ele>
        <time>2022-02-25T02:34:16Z</time>
      </trkpt>
      <trkpt lat="40.718090" lon="-4.858800">
        <ele>1172.693</ele>
        <time>2022-02-25T02:34:56Z</time>
      </trkpt>
      <trkpt lat="40.718120" lon="-4.858870">
        <ele>1172.745</ele>
        <time>2022-02-25T02:35:36Z</time>
      </trkpt>
      <trkpt lat="40.718150" lon="-4.858930">
        <ele>1172.883</ele>
        <time>2022-02-25T02:36:16Z</time>
      </trkpt>
      <trkpt lat="40.718190" lon="-4.859040">
        <ele>1173.125</ele>
        <time>2022-02-25T02:36:56Z</time>
      </trkpt>
      <trkpt lat="40.718250" lon="-4.859180">
        <ele>1173.317</ele>
        <time>2022-02-25T02:37:36Z</time>
      </trkpt>
      <trkpt lat="40.718290" lon="-4.859280">
        <ele>1173.608</ele>
        <time>2022-02-25T02:38:16Z</time>
      </trkpt>
      <trkpt lat="40.718310" lon="-4.859340">
        <ele>1173.767</ele>
        <time>2022-02-25T02:38:56Z</time>
      </trkpt>
      <trkpt lat="40.718370" lon="-4.859520">
        <ele>1173.964</ele>
        <time>2022-02-25T02:39:36Z</time>
      </trkpt>
      <trkpt lat="40.718450" lon="-4.859790">
        <ele>1173.838</ele>
        <time>2022-02-25T02:40:16Z</time>
      </trkpt>
      <trkpt lat="40.718540" lon="-4.860120">
        <ele>1174.727</ele>
        <time>2022-02-25T02:40:56Z</time>
      </trkpt>
      <trkpt lat="40.718650" lon="-4.860480">
        <ele>1175.666</ele>
        <time>2022-02-25T02:41:36Z</time>
      </trkpt>
      <trkpt lat="40.718750" lon="-4.860790">
        <ele>1176.347</ele>
        <time>2022-02-25T02:42:16Z</time>
      </trkpt>
      <trkpt lat="40.718830" lon="-4.861030">
        <ele>1176.448</ele>
        <time>2022-02-25T02:42:56Z</time>
      </trkpt>
      <trkpt lat="40.718850" lon="-4.861110">
        <ele>1176.310</ele>
        <time>2022-02-25T02:43:36Z</time>
      </trkpt>
      <trkpt lat="40.718860" lon="-4.861120">
        <ele>1176.218</ele>
        <time>2022-02-25T02:44:16Z</time>
      </trkpt>
      <trkpt lat="40.718900" lon="-4.861240">
        <ele>1176.498</ele>
        <time>2022-02-25T02:44:56Z</time>
      </trkpt>
      <trkpt lat="40.718940" lon="-4.861370">
        <ele>1176.717</ele>
        <time>2022-02-25T02:45:36Z</time>
      </trkpt>
      <trkpt lat="40.718980" lon="-4.861460">
        <ele>1176.908</ele>
        <time>2022-02-25T02:46:16Z</time>
      </trkpt>
      <trkpt lat="40.719010" lon="-4.861520">
        <ele>1177.050</ele>
        <time>2022-02-25T02:46:56Z</time>
      </trkpt>
      <trkpt lat="40.719040" lon="-4.861580">
        <ele>1177.117</ele>
        <time>2022-02-25T02:47:36Z</time>
      </trkpt>
      <trkpt lat="40.719080" lon="-4.861660">
        <ele>1177.311</ele>
        <time>2022-02-25T02:48:16Z</time>
      </trkpt>
      <trkpt lat="40.719120" lon="-4.861730">
        <ele>1177.470</ele>
        <time>2022-02-25T02:48:56Z</time>
      </trkpt>
      <trkpt lat="40.719210" lon="-4.861880">
        <ele>1177.529</ele>
        <time>2022-02-25T02:49:36Z</time>
      </trkpt>
      <trkpt lat="40.719280" lon="-4.861990">
        <ele>1177.360</ele>
        <time>2022-02-25T02:50:16Z</time>
      </trkpt>
      <trkpt lat="40.719350" lon="-4.862090">
        <ele>1177.271</ele>
        <time>2022-02-25T02:50:56Z</time>
      </trkpt>
      <trkpt lat="40.719370" lon="-4.862120">
        <ele>1177.233</ele>
        <time>2022-02-25T02:51:36Z</time>
      </trkpt>
      <trkpt lat="40.719540" lon="-4.862320">
        <ele>1177.225</ele>
        <time>2022-02-25T02:52:16Z</time>
      </trkpt>
      <trkpt lat="40.719760" lon="-4.862570">
        <ele>1177.126</ele>
        <time>2022-02-25T02:52:56Z</time>
      </trkpt>
      <trkpt lat="40.720040" lon="-4.862860">
        <ele>1177.208</ele>
        <time>2022-02-25T02:53:36Z</time>
      </trkpt>
      <trkpt lat="40.720180" lon="-4.863010">
        <ele>1177.208</ele>
        <time>2022-02-25T02:54:16Z</time>
      </trkpt>
      <trkpt lat="40.720370" lon="-4.863230">
        <ele>1177.371</ele>
        <time>2022-02-25T02:54:56Z</time>
      </trkpt>
      <trkpt lat="40.720660" lon="-4.863540">
        <ele>1177.458</ele>
        <time>2022-02-25T02:55:36Z</time>
      </trkpt>
      <trkpt lat="40.720810" lon="-4.863700">
        <ele>1177.782</ele>
        <time>2022-02-25T02:56:16Z</time>
      </trkpt>
      <trkpt lat="40.720930" lon="-4.863820">
        <ele>1178.261</ele>
        <time>2022-02-25T02:56:56Z</time>
      </trkpt>
      <trkpt lat="40.721030" lon="-4.863930">
        <ele>1178.420</ele>
        <time>2022-02-25T02:57:36Z</time>
      </trkpt>
      <trkpt lat="40.721080" lon="-4.863980">
        <ele>1178.431</ele>
        <time>2022-02-25T02:58:16Z</time>
      </trkpt>
      <trkpt lat="40.721140" lon="-4.864050">
        <ele>1178.592</ele>
        <time>2022-02-25T02:58:56Z</time>
      </trkpt>
      <trkpt lat="40.721190" lon="-4.864110">
        <ele>1178.564</ele>
        <time>2022-02-25T02:59:36Z</time>
      </trkpt>
      <trkpt lat="40.721240" lon="-4.864170">
        <ele>1178.517</ele>
        <time>2022-02-25T03:00:16Z</time>
      </trkpt>
      <trkpt lat="40.721290" lon="-4.864220">
        <ele>1178.587</ele>
        <time>2022-02-25T03:00:56Z</time>
      </trkpt>
      <trkpt lat="40.721340" lon="-4.864250">
        <ele>1178.515</ele>
        <time>2022-02-25T03:01:36Z</time>
      </trkpt>
      <trkpt lat="40.721390" lon="-4.864300">
        <ele>1178.508</ele>
        <time>2022-02-25T03:02:16Z</time>
      </trkpt>
      <trkpt lat="40.721460" lon="-4.864340">
        <ele>1178.450</ele>
        <time>2022-02-25T03:02:56Z</time>
      </trkpt>
      <trkpt lat="40.721530" lon="-4.864370">
        <ele>1178.297</ele>
        <time>2022-02-25T03:03:36Z</time>
      </trkpt>
      <trkpt lat="40.721590" lon="-4.864390">
        <ele>1178.131</ele>
        <time>2022-02-25T03:04:16Z</time>
      </trkpt>
      <trkpt lat="40.721610" lon="-4.864400">
        <ele>1178.020</ele>
        <time>2022-02-25T03:04:56Z</time>
      </trkpt>
      <trkpt lat="40.721690" lon="-4.864420">
        <ele>1177.919</ele>
        <time>2022-02-25T03:05:36Z</time>
      </trkpt>
      <trkpt lat="40.721760" lon="-4.864440">
        <ele>1178.010</ele>
        <time>2022-02-25T03:06:16Z</time>
      </trkpt>
      <trkpt lat="40.721870" lon="-4.864470">
        <ele>1178.131</ele>
        <time>2022-02-25T03:06:56Z</time>
      </trkpt>
      <trkpt lat="40.722080" lon="-4.864530">
        <ele>1177.853</ele>
        <time>2022-02-25T03:07:36Z</time>
      </trkpt>
      <trkpt lat="40.722310" lon="-4.864590">
        <ele>1177.283</ele>
        <time>2022-02-25T03:08:16Z</time>
      </trkpt>
      <trkpt lat="40.722590" lon="-4.864670">
        <ele>1175.925</ele>
        <time>2022-02-25T03:08:56Z</time>
      </trkpt>
      <trkpt lat="40.723020" lon="-4.864770">
        <ele>1173.317</ele>
        <time>2022-02-25T03:09:36Z</time>
      </trkpt>
      <trkpt lat="40.723070" lon="-4.864790">
        <ele>1173.208</ele>
        <time>2022-02-25T03:10:16Z</time>
      </trkpt>
      <trkpt lat="40.723230" lon="-4.864820">
        <ele>1172.587</ele>
        <time>2022-02-25T03:10:56Z</time>
      </trkpt>
      <trkpt lat="40.723270" lon="-4.864830">
        <ele>1172.394</ele>
        <time>2022-02-25T03:11:36Z</time>
      </trkpt>
      <trkpt lat="40.723320" lon="-4.864850">
        <ele>1172.148</ele>
        <time>2022-02-25T03:12:16Z</time>
      </trkpt>
      <trkpt lat="40.723340" lon="-4.864870">
        <ele>1172.077</ele>
        <time>2022-02-25T03:12:56Z</time>
      </trkpt>
      <trkpt lat="40.723370" lon="-4.864890">
        <ele>1171.946</ele>
        <time>2022-02-25T03:13:36Z</time>
      </trkpt>
      <trkpt lat="40.723470" lon="-4.864810">
        <ele>1171.597</ele>
        <time>2022-02-25T03:14:16Z</time>
      </trkpt>
      <trkpt lat="40.723520" lon="-4.864780">
        <ele>1171.368</ele>
        <time>2022-02-25T03:14:56Z</time>
      </trkpt>
      <trkpt lat="40.723590" lon="-4.864750">
        <ele>1171.120</ele>
        <time>2022-02-25T03:15:36Z</time>
      </trkpt>
      <trkpt lat="40.723760" lon="-4.864660">
        <ele>1170.598</ele>
        <time>2022-02-25T03:16:16Z</time>
      </trkpt>
      <trkpt lat="40.723800" lon="-4.864640">
        <ele>1170.315</ele>
        <time>2022-02-25T03:16:56Z</time>
      </trkpt>
      <trkpt lat="40.723930" lon="-4.864580">
        <ele>1170.026</ele>
        <time>2022-02-25T03:17:36Z</time>
      </trkpt>
      <trkpt lat="40.724000" lon="-4.864560">
        <ele>1170.008</ele>
        <time>2022-02-25T03:18:16Z</time>
      </trkpt>
      <trkpt lat="40.724070" lon="-4.864540">
        <ele>1170.098</ele>
        <time>2022-02-25T03:18:56Z</time>
      </trkpt>
      <trkpt lat="40.724100" lon="-4.864530">
        <ele>1170.015</ele>
        <time>2022-02-25T03:19:36Z</time>
      </trkpt>
      <trkpt lat="40.724170" lon="-4.864520">
        <ele>1170.069</ele>
        <time>2022-02-25T03:20:16Z</time>
      </trkpt>
      <trkpt lat="40.724210" lon="-4.864510">
        <ele>1170.018</ele>
        <time>2022-02-25T03:20:56Z</time>
      </trkpt>
      <trkpt lat="40.724250" lon="-4.864510">
        <ele>1169.977</ele>
        <time>2022-02-25T03:21:36Z</time>
      </trkpt>
      <trkpt lat="40.724280" lon="-4.864520">
        <ele>1169.968</ele>
        <time>2022-02-25T03:22:16Z</time>
      </trkpt>
      <trkpt lat="40.724310" lon="-4.864520">
        <ele>1169.929</ele>
        <time>2022-02-25T03:22:56Z</time>
      </trkpt>
      <trkpt lat="40.724340" lon="-4.864540">
        <ele>1169.881</ele>
        <time>2022-02-25T03:23:36Z</time>
      </trkpt>
      <trkpt lat="40.724380" lon="-4.864560">
        <ele>1169.727</ele>
        <time>2022-02-25T03:24:16Z</time>
      </trkpt>
      <trkpt lat="40.724430" lon="-4.864590">
        <ele>1169.568</ele>
        <time>2022-02-25T03:24:56Z</time>
      </trkpt>
      <trkpt lat="40.724480" lon="-4.864630">
        <ele>1169.314</ele>
        <time>2022-02-25T03:25:36Z</time>
      </trkpt>
      <trkpt lat="40.724510" lon="-4.864660">
        <ele>1169.208</ele>
        <time>2022-02-25T03:26:16Z</time>
      </trkpt>
      <trkpt lat="40.724530" lon="-4.864680">
        <ele>1169.291</ele>
        <time>2022-02-25T03:26:56Z</time>
      </trkpt>
      <trkpt lat="40.724580" lon="-4.864730">
        <ele>1169.048</ele>
        <time>2022-02-25T03:27:36Z</time>
      </trkpt>
      <trkpt lat="40.724650" lon="-4.864820">
        <ele>1168.592</ele>
        <time>2022-02-25T03:28:16Z</time>
      </trkpt>
      <trkpt lat="40.724660" lon="-4.864830">
        <ele>1168.471</ele>
        <time>2022-02-25T03:28:56Z</time>
      </trkpt>
      <trkpt lat="40.724780" lon="-4.864980">
        <ele>1166.990</ele>
        <time>2022-02-25T03:29:36Z</time>
      </trkpt>
      <trkpt lat="40.724870" lon="-4.865090">
        <ele>1166.041</ele>
        <time>2022-02-25T03:30:16Z</time>
      </trkpt>
      <trkpt lat="40.724890" lon="-4.865110">
        <ele>1165.822</ele>
        <time>2022-02-25T03:30:56Z</time>
      </trkpt>
      <trkpt lat="40.724940" lon="-4.865160">
        <ele>1165.284</ele>
        <time>2022-02-25T03:31:36Z</time>
      </trkpt>
      <trkpt lat="40.724970" lon="-4.865190">
        <ele>1164.857</ele>
        <time>2022-02-25T03:32:16Z</time>
      </trkpt>
      <trkpt lat="40.725000" lon="-4.865200">
        <ele>1164.600</ele>
        <time>2022-02-25T03:32:56Z</time>
      </trkpt>
      <trkpt lat="40.725030" lon="-4.865210">
        <ele>1164.420</ele>
        <time>2022-02-25T03:33:36Z</time>
      </trkpt>
      <trkpt lat="40.725040" lon="-4.865220">
        <ele>1164.208</ele>
        <time>2022-02-25T03:34:16Z</time>
      </trkpt>
      <trkpt lat="40.725060" lon="-4.865220">
        <ele>1164.294</ele>
        <time>2022-02-25T03:34:56Z</time>
      </trkpt>
      <trkpt lat="40.725100" lon="-4.865230">
        <ele>1163.981</ele>
        <time>2022-02-25T03:35:36Z</time>
      </trkpt>
      <trkpt lat="40.725140" lon="-4.865240">
        <ele>1163.725</ele>
        <time>2022-02-25T03:36:16Z</time>
      </trkpt>
      <trkpt lat="40.725190" lon="-4.865250">
        <ele>1163.494</ele>
        <time>2022-02-25T03:36:56Z</time>
      </trkpt>
      <trkpt lat="40.725220" lon="-4.865260">
        <ele>1163.313</ele>
        <time>2022-02-25T03:37:36Z</time>
      </trkpt>
      <trkpt lat="40.725250" lon="-4.865260">
        <ele>1163.284</ele>
        <time>2022-02-25T03:38:16Z</time>
      </trkpt>
      <trkpt lat="40.725400" lon="-4.865270">
        <ele>1162.195</ele>
        <time>2022-02-25T03:38:56Z</time>
      </trkpt>
      <trkpt lat="40.725420" lon="-4.865270">
        <ele>1162.077</ele>
        <time>2022-02-25T03:39:36Z</time>
      </trkpt>
      <trkpt lat="40.725510" lon="-4.865290">
        <ele>1161.316</ele>
        <time>2022-02-25T03:40:16Z</time>
      </trkpt>
      <trkpt lat="40.725540" lon="-4.865290">
        <ele>1161.176</ele>
        <time>2022-02-25T03:40:56Z</time>
      </trkpt>
      <trkpt lat="40.725610" lon="-4.865310">
        <ele>1160.613</ele>
        <time>2022-02-25T03:41:36Z</time>
      </trkpt>
      <trkpt lat="40.725650" lon="-4.865330">
        <ele>1160.408</ele>
        <time>2022-02-25T03:42:16Z</time>
      </trkpt>
      <trkpt lat="40.725770" lon="-4.865430">
        <ele>1159.950</ele>
        <time>2022-02-25T03:42:56Z</time>
      </trkpt>
      <trkpt lat="40.725820" lon="-4.865480">
        <ele>1159.857</ele>
        <time>2022-02-25T03:43:36Z</time>
      </trkpt>
      <trkpt lat="40.725880" lon="-4.865540">
        <ele>1159.131</ele>
        <time>2022-02-25T03:44:16Z</time>
      </trkpt>
      <trkpt lat="40.725930" lon="-4.865590">
        <ele>1158.360</ele>
        <time>2022-02-25T03:44:56Z</time>
      </trkpt>
      <trkpt lat="40.726090" lon="-4.865780">
        <ele>1156.119</ele>
        <time>2022-02-25T03:45:36Z</time>
      </trkpt>
      <trkpt lat="40.726190" lon="-4.865890">
        <ele>1154.880</ele>
        <time>2022-02-25T03:46:16Z</time>
      </trkpt>
      <trkpt lat="40.726220" lon="-4.865910">
        <ele>1154.311</ele>
        <time>2022-02-25T03:46:56Z</time>
      </trkpt>
      <trkpt lat="40.726310" lon="-4.866010">
        <ele>1153.143</ele>
        <time>2022-02-25T03:47:36Z</time>
      </trkpt>
      <trkpt lat="40.726400" lon="-4.866080">
        <ele>1151.873</ele>
        <time>2022-02-25T03:48:16Z</time>
      </trkpt>
      <trkpt lat="40.726450" lon="-4.866120">
        <ele>1151.385</ele>
        <time>2022-02-25T03:48:56Z</time>
      </trkpt>
      <trkpt lat="40.726500" lon="-4.866150">
        <ele>1150.813</ele>
        <time>2022-02-25T03:49:36Z</time>
      </trkpt>
      <trkpt lat="40.726550" lon="-4.866170">
        <ele>1150.308</ele>
        <time>2022-02-25T03:50:16Z</time>
      </trkpt>
      <trkpt lat="40.726590" lon="-4.866180">
        <ele>1149.836</ele>
        <time>2022-02-25T03:50:56Z</time>
      </trkpt>
      <trkpt lat="40.726620" lon="-4.866200">
        <ele>1149.533</ele>
        <time>2022-02-25T03:51:36Z</time>
      </trkpt>
      <trkpt lat="40.726670" lon="-4.866210">
        <ele>1149.047</ele>
        <time>2022-02-25T03:52:16Z</time>
      </trkpt>
      <trkpt lat="40.726720" lon="-4.866220">
        <ele>1148.476</ele>
        <time>2022-02-25T03:52:56Z</time>
      </trkpt>
      <trkpt lat="40.726770" lon="-4.866220">
        <ele>1147.995</ele>
        <time>2022-02-25T03:53:36Z</time>
      </trkpt>
      <trkpt lat="40.726820" lon="-4.866230">
        <ele>1147.346</ele>
        <time>2022-02-25T03:54:16Z</time>
      </trkpt>
      <trkpt lat="40.726880" lon="-4.866220">
        <ele>1146.787</ele>
        <time>2022-02-25T03:54:56Z</time>
      </trkpt>
      <trkpt lat="40.726940" lon="-4.866220">
        <ele>1146.079</ele>
        <time>2022-02-25T03:55:36Z</time>
      </trkpt>
      <trkpt lat="40.727010" lon="-4.866210">
        <ele>1145.328</ele>
        <time>2022-02-25T03:56:16Z</time>
      </trkpt>
      <trkpt lat="40.727090" lon="-4.866210">
        <ele>1144.489</ele>
        <time>2022-02-25T03:56:56Z</time>
      </trkpt>
      <trkpt lat="40.727180" lon="-4.866200">
        <ele>1143.517</ele>
        <time>2022-02-25T03:57:36Z</time>
      </trkpt>
      <trkpt lat="40.727240" lon="-4.866200">
        <ele>1142.808</ele>
        <time>2022-02-25T03:58:16Z</time>
      </trkpt>
      <trkpt lat="40.727250" lon="-4.866200">
        <ele>1142.741</ele>
        <time>2022-02-25T03:58:56Z</time>
      </trkpt>
      <trkpt lat="40.727400" lon="-4.866210">
        <ele>1141.198</ele>
        <time>2022-02-25T03:59:36Z</time>
      </trkpt>
      <trkpt lat="40.727660" lon="-4.866240">
        <ele>1138.642</ele>
        <time>2022-02-25T04:00:16Z</time>
      </trkpt>
      <trkpt lat="40.727960" lon="-4.866280">
        <ele>1135.471</ele>
        <time>2022-02-25T04:00:56Z</time>
      </trkpt>
      <trkpt lat="40.728340" lon="-4.866330">
        <ele>1131.230</ele>
        <time>2022-02-25T04:01:36Z</time>
      </trkpt>
      <trkpt lat="40.728490" lon="-4.866350">
        <ele>1130.071</ele>
        <time>2022-02-25T04:02:16Z</time>
      </trkpt>
      <trkpt lat="40.728570" lon="-4.866360">
        <ele>1129.442</ele>
        <time>2022-02-25T04:02:56Z</time>
      </trkpt>
      <trkpt lat="40.728860" lon="-4.866390">
        <ele>1128.144</ele>
        <time>2022-02-25T04:03:36Z</time>
      </trkpt>
      <trkpt lat="40.729120" lon="-4.866430">
        <ele>1126.376</ele>
        <time>2022-02-25T04:04:16Z</time>
      </trkpt>
      <trkpt lat="40.729360" lon="-4.866450">
        <ele>1124.690</ele>
        <time>2022-02-25T04:04:56Z</time>
      </trkpt>
      <trkpt lat="40.729670" lon="-4.866480">
        <ele>1123.219</ele>
        <time>2022-02-25T04:05:36Z</time>
      </trkpt>
      <trkpt lat="40.729750" lon="-4.866490">
        <ele>1122.808</ele>
        <time>2022-02-25T04:06:16Z</time>
      </trkpt>
      <trkpt lat="40.729890" lon="-4.866510">
        <ele>1121.866</ele>
        <time>2022-02-25T04:06:56Z</time>
      </trkpt>
      <trkpt lat="40.730080" lon="-4.866530">
        <ele>1120.743</ele>
        <time>2022-02-25T04:07:36Z</time>
      </trkpt>
      <trkpt lat="40.730220" lon="-4.866560">
        <ele>1120.267</ele>
        <time>2022-02-25T04:08:16Z</time>
      </trkpt>
      <trkpt lat="40.730280" lon="-4.866570">
        <ele>1120.076</ele>
        <time>2022-02-25T04:08:56Z</time>
      </trkpt>
      <trkpt lat="40.730310" lon="-4.866570">
        <ele>1120.095</ele>
        <time>2022-02-25T04:09:36Z</time>
      </trkpt>
      <trkpt lat="40.730430" lon="-4.866580">
        <ele>1119.816</ele>
        <time>2022-02-25T04:10:16Z</time>
      </trkpt>
      <trkpt lat="40.730580" lon="-4.866600">
        <ele>1119.727</ele>
        <time>2022-02-25T04:10:56Z</time>
      </trkpt>
      <trkpt lat="40.730660" lon="-4.866610">
        <ele>1119.469</ele>
        <time>2022-02-25T04:11:36Z</time>
      </trkpt>
      <trkpt lat="40.730820" lon="-4.866610">
        <ele>1118.878</ele>
        <time>2022-02-25T04:12:16Z</time>
      </trkpt>
      <trkpt lat="40.730830" lon="-4.866620">
        <ele>1118.833</ele>
        <time>2022-02-25T04:12:56Z</time>
      </trkpt>
      <trkpt lat="40.731070" lon="-4.866620">
        <ele>1118.026</ele>
        <time>2022-02-25T04:13:36Z</time>
      </trkpt>
      <trkpt lat="40.731320" lon="-4.866620">
        <ele>1117.808</ele>
        <time>2022-02-25T04:14:16Z</time>
      </trkpt>
      <trkpt lat="40.731530" lon="-4.866610">
        <ele>1118.126</ele>
        <time>2022-02-25T04:14:56Z</time>
      </trkpt>
      <trkpt lat="40.731540" lon="-4.866610">
        <ele>1118.133</ele>
        <time>2022-02-25T04:15:36Z</time>
      </trkpt>
      <trkpt lat="40.731650" lon="-4.866600">
        <ele>1118.287</ele>
        <time>2022-02-25T04:16:16Z</time>
      </trkpt>
      <trkpt lat="40.731750" lon="-4.866590">
        <ele>1118.046</ele>
        <time>2022-02-25T04:16:56Z</time>
      </trkpt>
      <trkpt lat="40.731790" lon="-4.866590">
        <ele>1117.925</ele>
        <time>2022-02-25T04:17:36Z</time>
      </trkpt>
      <trkpt lat="40.731840" lon="-4.866590">
        <ele>1117.776</ele>
        <time>2022-02-25T04:18:16Z</time>
      </trkpt>
      <trkpt lat="40.731880" lon="-4.866600">
        <ele>1117.787</ele>
        <time>2022-02-25T04:18:56Z</time>
      </trkpt>
      <trkpt lat="40.731920" lon="-4.866600">
        <ele>1117.629</ele>
        <time>2022-02-25T04:19:36Z</time>
      </trkpt>
      <trkpt lat="40.731960" lon="-4.866620">
        <ele>1117.618</ele>
        <time>2022-02-25T04:20:16Z</time>
      </trkpt>
      <trkpt lat="40.732000" lon="-4.866630">
        <ele>1117.598</ele>
        <time>2022-02-25T04:20:56Z</time>
      </trkpt>
      <trkpt lat="40.732050" lon="-4.866660">
        <ele>1117.617</ele>
        <time>2022-02-25T04:21:36Z</time>
      </trkpt>
      <trkpt lat="40.732100" lon="-4.866690">
        <ele>1117.608</ele>
        <time>2022-02-25T04:22:16Z</time>
      </trkpt>
      <trkpt lat="40.732200" lon="-4.866750">
        <ele>1117.780</ele>
        <time>2022-02-25T04:22:56Z</time>
      </trkpt>
      <trkpt lat="40.732390" lon="-4.866880">
        <ele>1118.197</ele>
        <time>2022-02-25T04:23:36Z</time>
      </trkpt>
      <trkpt lat="40.732440" lon="-4.866910">
        <ele>1118.161</ele>
        <time>2022-02-25T04:24:16Z</time>
      </trkpt>
      <trkpt lat="40.732630" lon="-4.867030">
        <ele>1118.020</ele>
        <time>2022-02-25T04:24:56Z</time>
      </trkpt>
      <trkpt lat="40.732820" lon="-4.867150">
        <ele>1117.679</ele>
        <time>2022-02-25T04:25:36Z</time>
      </trkpt>
      <trkpt lat="40.733010" lon="-4.867260">
        <ele>1117.370</ele>
        <time>2022-02-25T04:26:16Z</time>
      </trkpt>
      <trkpt lat="40.733040" lon="-4.867280">
        <ele>1117.361</ele>
        <time>2022-02-25T04:26:56Z</time>
      </trkpt>
      <trkpt lat="40.733220" lon="-4.867390">
        <ele>1116.713</ele>
        <time>2022-02-25T04:27:36Z</time>
      </trkpt>
      <trkpt lat="40.733370" lon="-4.867480">
        <ele>1115.752</ele>
        <time>2022-02-25T04:28:16Z</time>
      </trkpt>
      <trkpt lat="40.733410" lon="-4.867500">
        <ele>1115.453</ele>
        <time>2022-02-25T04:28:56Z</time>
      </trkpt>
      <trkpt lat="40.733610" lon="-4.867630">
        <ele>1113.508</ele>
        <time>2022-02-25T04:29:36Z</time>
      </trkpt>
      <trkpt lat="40.733690" lon="-4.867690">
        <ele>1113.008</ele>
        <time>2022-02-25T04:30:16Z</time>
      </trkpt>
      <trkpt lat="40.733700" lon="-4.867700">
        <ele>1113.074</ele>
        <time>2022-02-25T04:30:56Z</time>
      </trkpt>
      <trkpt lat="40.733780" lon="-4.867770">
        <ele>1112.441</ele>
        <time>2022-02-25T04:31:36Z</time>
      </trkpt>
      <trkpt lat="40.733810" lon="-4.867810">
        <ele>1112.225</ele>
        <time>2022-02-25T04:32:16Z</time>
      </trkpt>
      <trkpt lat="40.733850" lon="-4.867870">
        <ele>1111.864</ele>
        <time>2022-02-25T04:32:56Z</time>
      </trkpt>
      <trkpt lat="40.733880" lon="-4.867930">
        <ele>1111.573</ele>
        <time>2022-02-25T04:33:36Z</time>
      </trkpt>
      <trkpt lat="40.733900" lon="-4.867970">
        <ele>1111.364</ele>
        <time>2022-02-25T04:34:16Z</time>
      </trkpt>
      <trkpt lat="40.733920" lon="-4.868030">
        <ele>1111.045</ele>
        <time>2022-02-25T04:34:56Z</time>
      </trkpt>
      <trkpt lat="40.733940" lon="-4.868080">
        <ele>1110.747</ele>
        <time>2022-02-25T04:35:36Z</time>
      </trkpt>
      <trkpt lat="40.733950" lon="-4.868130">
        <ele>1110.526</ele>
        <time>2022-02-25T04:36:16Z</time>
      </trkpt>
      <trkpt lat="40.733970" lon="-4.868180">
        <ele>1110.347</ele>
        <time>2022-02-25T04:36:56Z</time>
      </trkpt>
      <trkpt lat="40.733990" lon="-4.868240">
        <ele>1110.011</ele>
        <time>2022-02-25T04:37:36Z</time>
      </trkpt>
      <trkpt lat="40.734020" lon="-4.868310">
        <ele>1109.608</ele>
        <time>2022-02-25T04:38:16Z</time>
      </trkpt>
      <trkpt lat="40.734050" lon="-4.868380">
        <ele>1109.291</ele>
        <time>2022-02-25T04:38:56Z</time>
      </trkpt>
      <trkpt lat="40.734090" lon="-4.868460">
        <ele>1108.568</ele>
        <time>2022-02-25T04:39:36Z</time>
      </trkpt>
      <trkpt lat="40.734120" lon="-4.868500">
        <ele>1108.152</ele>
        <time>2022-02-25T04:40:16Z</time>
      </trkpt>
      <trkpt lat="40.734200" lon="-4.868640">
        <ele>1106.861</ele>
        <time>2022-02-25T04:40:56Z</time>
      </trkpt>
      <trkpt lat="40.734260" lon="-4.868750">
        <ele>1106.260</ele>
        <time>2022-02-25T04:41:36Z</time>
      </trkpt>
      <trkpt lat="40.734320" lon="-4.868830">
        <ele>1105.711</ele>
        <time>2022-02-25T04:42:16Z</time>
      </trkpt>
      <trkpt lat="40.734330" lon="-4.868850">
        <ele>1105.612</ele>
        <time>2022-02-25T04:42:56Z</time>
      </trkpt>
      <trkpt lat="40.734380" lon="-4.868930">
        <ele>1104.914</ele>
        <time>2022-02-25T04:43:36Z</time>
      </trkpt>
      <trkpt lat="40.734420" lon="-4.868990">
        <ele>1104.412</ele>
        <time>2022-02-25T04:44:16Z</time>
      </trkpt>
      <trkpt lat="40.734490" lon="-4.869070">
        <ele>1103.532</ele>
        <time>2022-02-25T04:44:56Z</time>
      </trkpt>
      <trkpt lat="40.734550" lon="-4.869140">
        <ele>1102.805</ele>
        <time>2022-02-25T04:45:36Z</time>
      </trkpt>
      <trkpt lat="40.734620" lon="-4.869210">
        <ele>1102.608</ele>
        <time>2022-02-25T04:46:16Z</time>
      </trkpt>
      <trkpt lat="40.734680" lon="-4.869260">
        <ele>1102.560</ele>
        <time>2022-02-25T04:46:56Z</time>
      </trkpt>
      <trkpt lat="40.734730" lon="-4.869300">
        <ele>1102.577</ele>
        <time>2022-02-25T04:47:36Z</time>
      </trkpt>
      <trkpt lat="40.734790" lon="-4.869330">
        <ele>1102.391</ele>
        <time>2022-02-25T04:48:16Z</time>
      </trkpt>
      <trkpt lat="40.734830" lon="-4.869350">
        <ele>1102.320</ele>
        <time>2022-02-25T04:48:56Z</time>
      </trkpt>
      <trkpt lat="40.734880" lon="-4.869350">
        <ele>1102.189</ele>
        <time>2022-02-25T04:49:36Z</time>
      </trkpt>
      <trkpt lat="40.734950" lon="-4.869350">
        <ele>1101.850</ele>
        <time>2022-02-25T04:50:16Z</time>
      </trkpt>
      <trkpt lat="40.735000" lon="-4.869350">
        <ele>1101.791</ele>
        <time>2022-02-25T04:50:56Z</time>
      </trkpt>
      <trkpt lat="40.735060" lon="-4.869340">
        <ele>1101.293</ele>
        <time>2022-02-25T04:51:36Z</time>
      </trkpt>
      <trkpt lat="40.735120" lon="-4.869340">
        <ele>1100.867</ele>
        <time>2022-02-25T04:52:16Z</time>
      </trkpt>
      <trkpt lat="40.735180" lon="-4.869340">
        <ele>1100.381</ele>
        <time>2022-02-25T04:52:56Z</time>
      </trkpt>
      <trkpt lat="40.735240" lon="-4.869330">
        <ele>1099.919</ele>
        <time>2022-02-25T04:53:36Z</time>
      </trkpt>
      <trkpt lat="40.735290" lon="-4.869320">
        <ele>1099.508</ele>
        <time>2022-02-25T04:54:16Z</time>
      </trkpt>
      <trkpt lat="40.735370" lon="-4.869300">
        <ele>1099.125</ele>
        <time>2022-02-25T04:54:56Z</time>
      </trkpt>
      <trkpt lat="40.735480" lon="-4.869260">
        <ele>1098.662</ele>
        <time>2022-02-25T04:55:36Z</time>
      </trkpt>
      <trkpt lat="40.735560" lon="-4.869230">
        <ele>1098.256</ele>
        <time>2022-02-25T04:56:16Z</time>
      </trkpt>
      <trkpt lat="40.735630" lon="-4.869210">
        <ele>1097.675</ele>
        <time>2022-02-25T04:56:56Z</time>
      </trkpt>
      <trkpt lat="40.735670" lon="-4.869210">
        <ele>1097.314</ele>
        <time>2022-02-25T04:57:36Z</time>
      </trkpt>
      <trkpt lat="40.735720" lon="-4.869200">
        <ele>1096.995</ele>
        <time>2022-02-25T04:58:16Z</time>
      </trkpt>
      <trkpt lat="40.735780" lon="-4.869190">
        <ele>1096.526</ele>
        <time>2022-02-25T04:58:56Z</time>
      </trkpt>
      <trkpt lat="40.735820" lon="-4.869190">
        <ele>1096.278</ele>
        <time>2022-02-25T04:59:36Z</time>
      </trkpt>
      <trkpt lat="40.735900" lon="-4.869200">
        <ele>1095.657</ele>
        <time>2022-02-25T05:00:16Z</time>
      </trkpt>
      <trkpt lat="40.735960" lon="-4.869200">
        <ele>1095.200</ele>
        <time>2022-02-25T05:00:56Z</time>
      </trkpt>
      <trkpt lat="40.736040" lon="-4.869200">
        <ele>1094.620</ele>
        <time>2022-02-25T05:01:36Z</time>
      </trkpt>
      <trkpt lat="40.736100" lon="-4.869220">
        <ele>1094.308</ele>
        <time>2022-02-25T05:02:16Z</time>
      </trkpt>
      <trkpt lat="40.736180" lon="-4.869230">
        <ele>1093.744</ele>
        <time>2022-02-25T05:02:56Z</time>
      </trkpt>
      <trkpt lat="40.736300" lon="-4.869260">
        <ele>1093.011</ele>
        <time>2022-02-25T05:03:36Z</time>
      </trkpt>
      <trkpt lat="40.736460" lon="-4.869300">
        <ele>1091.895</ele>
        <time>2022-02-25T05:04:16Z</time>
      </trkpt>
      <trkpt lat="40.736570" lon="-4.869330">
        <ele>1090.914</ele>
        <time>2022-02-25T05:04:56Z</time>
      </trkpt>
      <trkpt lat="40.736700" lon="-4.869370">
        <ele>1090.073</ele>
        <time>2022-02-25T05:05:36Z</time>
      </trkpt>
      <trkpt lat="40.736820" lon="-4.869410">
        <ele>1090.034</ele>
        <time>2022-02-25T05:06:16Z</time>
      </trkpt>
      <trkpt lat="40.736920" lon="-4.869440">
        <ele>1090.065</ele>
        <time>2022-02-25T05:06:56Z</time>
      </trkpt>
      <trkpt lat="40.737080" lon="-4.869500">
        <ele>1090.017</ele>
        <time>2022-02-25T05:07:36Z</time>
      </trkpt>
      <trkpt lat="40.737220" lon="-4.869550">
        <ele>1090.015</ele>
        <time>2022-02-25T05:08:16Z</time>
      </trkpt>
      <trkpt lat="40.737470" lon="-4.869660">
        <ele>1089.865</ele>
        <time>2022-02-25T05:08:56Z</time>
      </trkpt>
      <trkpt lat="40.737530" lon="-4.869690">
        <ele>1089.511</ele>
        <time>2022-02-25T05:09:36Z</time>
      </trkpt>
      <trkpt lat="40.737590" lon="-4.869710">
        <ele>1088.708</ele>
        <time>2022-02-25T05:10:16Z</time>
      </trkpt>
      <trkpt lat="40.737710" lon="-4.869760">
        <ele>1086.540</ele>
        <time>2022-02-25T05:10:56Z</time>
      </trkpt>
      <trkpt lat="40.737810" lon="-4.869800">
        <ele>1085.167</ele>
        <time>2022-02-25T05:11:36Z</time>
      </trkpt>
      <trkpt lat="40.737890" lon="-4.869830">
        <ele>1084.631</ele>
        <time>2022-02-25T05:12:16Z</time>
      </trkpt>
      <trkpt lat="40.737960" lon="-4.869850">
        <ele>1084.380</ele>
        <time>2022-02-25T05:12:56Z</time>
      </trkpt>
      <trkpt lat="40.738050" lon="-4.869880">
        <ele>1083.999</ele>
        <time>2022-02-25T05:13:36Z</time>
      </trkpt>
      <trkpt lat="40.738230" lon="-4.869910">
        <ele>1082.870</ele>
        <time>2022-02-25T05:14:16Z</time>
      </trkpt>
      <trkpt lat="40.738360" lon="-4.869930">
        <ele>1082.121</ele>
        <time>2022-02-25T05:14:56Z</time>
      </trkpt>
      <trkpt lat="40.738780" lon="-4.869970">
        <ele>1080.063</ele>
        <time>2022-02-25T05:15:36Z</time>
      </trkpt>
      <trkpt lat="40.738950" lon="-4.869990">
        <ele>1078.956</ele>
        <time>2022-02-25T05:16:16Z</time>
      </trkpt>
      <trkpt lat="40.739230" lon="-4.870030">
        <ele>1074.459</ele>
        <time>2022-02-25T05:16:56Z</time>
      </trkpt>
      <trkpt lat="40.739620" lon="-4.870070">
        <ele>1071.614</ele>
        <time>2022-02-25T05:17:36Z</time>
      </trkpt>
      <trkpt lat="40.739850" lon="-4.870100">
        <ele>1070.508</ele>
        <time>2022-02-25T05:18:16Z</time>
      </trkpt>
      <trkpt lat="40.740120" lon="-4.870140">
        <ele>1068.344</ele>
        <time>2022-02-25T05:18:56Z</time>
      </trkpt>
      <trkpt lat="40.740480" lon="-4.870180">
        <ele>1064.051</ele>
        <time>2022-02-25T05:19:36Z</time>
      </trkpt>
      <trkpt lat="40.740730" lon="-4.870210">
        <ele>1062.065</ele>
        <time>2022-02-25T05:20:16Z</time>
      </trkpt>
      <trkpt lat="40.740740" lon="-4.870210">
        <ele>1061.934</ele>
        <time>2022-02-25T05:20:56Z</time>
      </trkpt>
      <trkpt lat="40.740920" lon="-4.870240">
        <ele>1060.883</ele>
        <time>2022-02-25T05:21:36Z</time>
      </trkpt>
      <trkpt lat="40.741110" lon="-4.870260">
        <ele>1060.074</ele>
        <time>2022-02-25T05:22:16Z</time>
      </trkpt>
      <trkpt lat="40.741280" lon="-4.870290">
        <ele>1059.925</ele>
        <time>2022-02-25T05:22:56Z</time>
      </trkpt>
      <trkpt lat="40.741290" lon="-4.870290">
        <ele>1059.987</ele>
        <time>2022-02-25T05:23:36Z</time>
      </trkpt>
      <trkpt lat="40.741370" lon="-4.870310">
        <ele>1059.876</ele>
        <time>2022-02-25T05:24:16Z</time>
      </trkpt>
      <trkpt lat="40.741430" lon="-4.870330">
        <ele>1059.790</ele>
        <time>2022-02-25T05:24:56Z</time>
      </trkpt>
      <trkpt lat="40.741480" lon="-4.870340">
        <ele>1059.719</ele>
        <time>2022-02-25T05:25:36Z</time>
      </trkpt>
      <trkpt lat="40.741530" lon="-4.870350">
        <ele>1059.708</ele>
        <time>2022-02-25T05:26:16Z</time>
      </trkpt>
      <trkpt lat="40.741590" lon="-4.870370">
        <ele>1059.846</ele>
        <time>2022-02-25T05:26:56Z</time>
      </trkpt>
      <trkpt lat="40.741670" lon="-4.870400">
        <ele>1060.063</ele>
        <time>2022-02-25T05:27:36Z</time>
      </trkpt>
      <trkpt lat="40.741740" lon="-4.870430">
        <ele>1060.047</ele>
        <time>2022-02-25T05:28:16Z</time>
      </trkpt>
      <trkpt lat="40.741820" lon="-4.870460">
        <ele>1060.026</ele>
        <time>2022-02-25T05:28:56Z</time>
      </trkpt>
      <trkpt lat="40.741900" lon="-4.870490">
        <ele>1060.035</ele>
        <time>2022-02-25T05:29:36Z</time>
      </trkpt>
      <trkpt lat="40.742020" lon="-4.870550">
        <ele>1060.066</ele>
        <time>2022-02-25T05:30:16Z</time>
      </trkpt>
      <trkpt lat="40.742140" lon="-4.870600">
        <ele>1059.947</ele>
        <time>2022-02-25T05:30:56Z</time>
      </trkpt>
      <trkpt lat="40.742150" lon="-4.870600">
        <ele>1059.979</ele>
        <time>2022-02-25T05:31:36Z</time>
      </trkpt>
      <trkpt lat="40.742240" lon="-4.870640">
        <ele>1059.951</ele>
        <time>2022-02-25T05:32:16Z</time>
      </trkpt>
      <trkpt lat="40.742420" lon="-4.870720">
        <ele>1058.401</ele>
        <time>2022-02-25T05:32:56Z</time>
      </trkpt>
      <trkpt lat="40.742550" lon="-4.870770">
        <ele>1056.711</ele>
        <time>2022-02-25T05:33:36Z</time>
      </trkpt>
      <trkpt lat="40.742730" lon="-4.870840">
        <ele>1053.708</ele>
        <time>2022-02-25T05:34:16Z</time>
      </trkpt>
      <trkpt lat="40.743110" lon="-4.871000">
        <ele>1050.394</ele>
        <time>2022-02-25T05:34:56Z</time>
      </trkpt>
      <trkpt lat="40.743490" lon="-4.871150">
        <ele>1050.011</ele>
        <time>2022-02-25T05:35:36Z</time>
      </trkpt>
      <trkpt lat="40.743860" lon="-4.871310">
        <ele>1050.055</ele>
        <time>2022-02-25T05:36:16Z</time>
      </trkpt>
      <trkpt lat="40.743930" lon="-4.871340">
        <ele>1050.064</ele>
        <time>2022-02-25T05:36:56Z</time>
      </trkpt>
      <trkpt lat="40.744280" lon="-4.871490">
        <ele>1050.043</ele>
        <time>2022-02-25T05:37:36Z</time>
      </trkpt>
      <trkpt lat="40.744450" lon="-4.871580">
        <ele>1049.984</ele>
        <time>2022-02-25T05:38:16Z</time>
      </trkpt>
      <trkpt lat="40.744570" lon="-4.871650">
        <ele>1048.255</ele>
        <time>2022-02-25T05:38:56Z</time>
      </trkpt>
      <trkpt lat="40.744870" lon="-4.871810">
        <ele>1044.427</ele>
        <time>2022-02-25T05:39:36Z</time>
      </trkpt>
      <trkpt lat="40.745200" lon="-4.871980">
        <ele>1041.564</ele>
        <time>2022-02-25T05:40:16Z</time>
      </trkpt>
      <trkpt lat="40.745540" lon="-4.872160">
        <ele>1040.106</ele>
        <time>2022-02-25T05:40:56Z</time>
      </trkpt>
      <trkpt lat="40.745650" lon="-4.872220">
        <ele>1040.016</ele>
        <time>2022-02-25T05:41:36Z</time>
      </trkpt>
      <trkpt lat="40.746040" lon="-4.872420">
        <ele>1040.008</ele>
        <time>2022-02-25T05:42:16Z</time>
      </trkpt>
      <trkpt lat="40.746170" lon="-4.872490">
        <ele>1039.625</ele>
        <time>2022-02-25T05:42:56Z</time>
      </trkpt>
      <trkpt lat="40.746540" lon="-4.872690">
        <ele>1035.462</ele>
        <time>2022-02-25T05:43:36Z</time>
      </trkpt>
      <trkpt lat="40.746820" lon="-4.872830">
        <ele>1032.666</ele>
        <time>2022-02-25T05:44:16Z</time>
      </trkpt>
      <trkpt lat="40.747030" lon="-4.872950">
        <ele>1031.075</ele>
        <time>2022-02-25T05:44:56Z</time>
      </trkpt>
      <trkpt lat="40.747040" lon="-4.872950">
        <ele>1030.994</ele>
        <time>2022-02-25T05:45:36Z</time>
      </trkpt>
      <trkpt lat="40.747240" lon="-4.873070">
        <ele>1030.045</ele>
        <time>2022-02-25T05:46:16Z</time>
      </trkpt>
      <trkpt lat="40.747360" lon="-4.873140">
        <ele>1030.036</ele>
        <time>2022-02-25T05:46:56Z</time>
      </trkpt>
      <trkpt lat="40.747400" lon="-4.873160">
        <ele>1030.018</ele>
        <time>2022-02-25T05:47:36Z</time>
      </trkpt>
      <trkpt lat="40.747440" lon="-4.873190">
        <ele>1030.037</ele>
        <time>2022-02-25T05:48:16Z</time>
      </trkpt>
      <trkpt lat="40.747480" lon="-4.873220">
        <ele>1030.049</ele>
        <time>2022-02-25T05:48:56Z</time>
      </trkpt>
      <trkpt lat="40.747520" lon="-4.873260">
        <ele>1030.013</ele>
        <time>2022-02-25T05:49:36Z</time>
      </trkpt>
      <trkpt lat="40.747560" lon="-4.873300">
        <ele>1030.008</ele>
        <time>2022-02-25T05:50:16Z</time>
      </trkpt>
      <trkpt lat="40.747610" lon="-4.873360">
        <ele>1029.722</ele>
        <time>2022-02-25T05:50:56Z</time>
      </trkpt>
      <trkpt lat="40.747660" lon="-4.873430">
        <ele>1028.819</ele>
        <time>2022-02-25T05:51:36Z</time>
      </trkpt>
      <trkpt lat="40.747730" lon="-4.873530">
        <ele>1027.823</ele>
        <time>2022-02-25T05:52:16Z</time>
      </trkpt>
      <trkpt lat="40.747770" lon="-4.873600">
        <ele>1027.122</ele>
        <time>2022-02-25T05:52:56Z</time>
      </trkpt>
      <trkpt lat="40.747810" lon="-4.873660">
        <ele>1026.211</ele>
        <time>2022-02-25T05:53:36Z</time>
      </trkpt>
      <trkpt lat="40.748110" lon="-4.874160">
        <ele>1020.372</ele>
        <time>2022-02-25T05:54:16Z</time>
      </trkpt>
      <trkpt lat="40.748220" lon="-4.874350">
        <ele>1018.613</ele>
        <time>2022-02-25T05:54:56Z</time>
      </trkpt>
      <trkpt lat="40.748570" lon="-4.874890">
        <ele>1013.485</ele>
        <time>2022-02-25T05:55:36Z</time>
      </trkpt>
      <trkpt lat="40.748810" lon="-4.875260">
        <ele>1009.929</ele>
        <time>2022-02-25T05:56:16Z</time>
      </trkpt>
      <trkpt lat="40.748920" lon="-4.875430">
        <ele>1008.300</ele>
        <time>2022-02-25T05:56:56Z</time>
      </trkpt>
      <trkpt lat="40.749160" lon="-4.875810">
        <ele>1003.320</ele>
        <time>2022-02-25T05:57:36Z</time>
      </trkpt>
      <trkpt lat="40.749500" lon="-4.876340">
        <ele>997.208</ele>
        <time>2022-02-25T05:58:16Z</time>
      </trkpt>
      <trkpt lat="40.749620" lon="-4.876530">
        <ele>995.431</ele>
        <time>2022-02-25T05:58:56Z</time>
      </trkpt>
      <trkpt lat="40.749730" lon="-4.876710">
        <ele>993.618</ele>
        <time>2022-02-25T05:59:36Z</time>
      </trkpt>
      <trkpt lat="40.749730" lon="-4.876720">
        <ele>993.662</ele>
        <time>2022-02-25T06:00:16Z</time>
      </trkpt>
      <trkpt lat="40.749820" lon="-4.876870">
        <ele>991.811</ele>
        <time>2022-02-25T06:00:56Z</time>
      </trkpt>
      <trkpt lat="40.749880" lon="-4.876980">
        <ele>990.850</ele>
        <time>2022-02-25T06:01:36Z</time>
      </trkpt>
      <trkpt lat="40.749940" lon="-4.877080">
        <ele>990.331</ele>
        <time>2022-02-25T06:02:16Z</time>
      </trkpt>
      <trkpt lat="40.749990" lon="-4.877170">
        <ele>990.032</ele>
        <time>2022-02-25T06:02:56Z</time>
      </trkpt>
      <trkpt lat="40.750040" lon="-4.877290">
        <ele>990.064</ele>
        <time>2022-02-25T06:03:36Z</time>
      </trkpt>
      <trkpt lat="40.750120" lon="-4.877440">
        <ele>990.039</ele>
        <time>2022-02-25T06:04:16Z</time>
      </trkpt>
      <trkpt lat="40.750200" lon="-4.877610">
        <ele>990.001</ele>
        <time>2022-02-25T06:04:56Z</time>
      </trkpt>
      <trkpt lat="40.750230" lon="-4.877690">
        <ele>990.021</ele>
        <time>2022-02-25T06:05:36Z</time>
      </trkpt>
      <trkpt lat="40.750260" lon="-4.877750">
        <ele>990.008</ele>
        <time>2022-02-25T06:06:16Z</time>
      </trkpt>
      <trkpt lat="40.750360" lon="-4.877970">
        <ele>990.032</ele>
        <time>2022-02-25T06:06:56Z</time>
      </trkpt>
      <trkpt lat="40.750400" lon="-4.878060">
        <ele>990.059</ele>
        <time>2022-02-25T06:07:36Z</time>
      </trkpt>
      <trkpt lat="40.750440" lon="-4.878160">
        <ele>990.033</ele>
        <time>2022-02-25T06:08:16Z</time>
      </trkpt>
      <trkpt lat="40.750510" lon="-4.878320">
        <ele>990.052</ele>
        <time>2022-02-25T06:08:56Z</time>
      </trkpt>
      <trkpt lat="40.750550" lon="-4.878410">
        <ele>990.011</ele>
        <time>2022-02-25T06:09:36Z</time>
      </trkpt>
      <trkpt lat="40.750610" lon="-4.878530">
        <ele>990.192</ele>
        <time>2022-02-25T06:10:16Z</time>
      </trkpt>
      <trkpt lat="40.750690" lon="-4.878680">
        <ele>991.053</ele>
        <time>2022-02-25T06:10:56Z</time>
      </trkpt>
      <trkpt lat="40.751150" lon="-4.878440">
        <ele>991.585</ele>
        <time>2022-02-25T06:11:36Z</time>
      </trkpt>
      <trkpt lat="40.751660" lon="-4.878170">
        <ele>990.838</ele>
        <time>2022-02-25T06:12:16Z</time>
      </trkpt>
      <trkpt lat="40.752820" lon="-4.877560">
        <ele>992.670</ele>
        <time>2022-02-25T06:12:56Z</time>
      </trkpt>
      <trkpt lat="40.753490" lon="-4.877200">
        <ele>991.417</ele>
        <time>2022-02-25T06:13:36Z</time>
      </trkpt>
      <trkpt lat="40.753730" lon="-4.877330">
        <ele>992.108</ele>
        <time>2022-02-25T06:14:16Z</time>
      </trkpt>
      <trkpt lat="40.754100" lon="-4.877540">
        <ele>992.492</ele>
        <time>2022-02-25T06:14:56Z</time>
      </trkpt>
      <trkpt lat="40.754260" lon="-4.877630">
        <ele>992.549</ele>
        <time>2022-02-25T06:15:36Z</time>
      </trkpt>
      <trkpt lat="40.754330" lon="-4.877660">
        <ele>992.623</ele>
        <time>2022-02-25T06:16:16Z</time>
      </trkpt>
      <trkpt lat="40.754590" lon="-4.877820">
        <ele>993.242</ele>
        <time>2022-02-25T06:16:56Z</time>
      </trkpt>
      <trkpt lat="40.754860" lon="-4.877970">
        <ele>993.711</ele>
        <time>2022-02-25T06:17:36Z</time>
      </trkpt>
      <trkpt lat="40.755240" lon="-4.878190">
        <ele>994.572</ele>
        <time>2022-02-25T06:18:16Z</time>
      </trkpt>
      <trkpt lat="40.755250" lon="-4.878200">
        <ele>994.593</ele>
        <time>2022-02-25T06:18:56Z</time>
      </trkpt>
      <trkpt lat="40.755450" lon="-4.878310">
        <ele>994.345</ele>
        <time>2022-02-25T06:19:36Z</time>
      </trkpt>
      <trkpt lat="40.755460" lon="-4.878320">
        <ele>994.326</ele>
        <time>2022-02-25T06:20:16Z</time>
      </trkpt>
      <trkpt lat="40.755470" lon="-4.878320">
        <ele>994.347</ele>
        <time>2022-02-25T06:20:56Z</time>
      </trkpt>
      <trkpt lat="40.755500" lon="-4.878330">
        <ele>994.211</ele>
        <time>2022-02-25T06:21:36Z</time>
      </trkpt>
      <trkpt lat="40.755520" lon="-4.878340">
        <ele>994.208</ele>
        <time>2022-02-25T06:22:16Z</time>
      </trkpt>
      <trkpt lat="40.755540" lon="-4.878340">
        <ele>994.161</ele>
        <time>2022-02-25T06:22:56Z</time>
      </trkpt>
      <trkpt lat="40.755550" lon="-4.878340">
        <ele>994.068</ele>
        <time>2022-02-25T06:23:36Z</time>
      </trkpt>
      <trkpt lat="40.755570" lon="-4.878350">
        <ele>994.112</ele>
        <time>2022-02-25T06:24:16Z</time>
      </trkpt>
      <trkpt lat="40.755590" lon="-4.878350">
        <ele>994.181</ele>
        <time>2022-02-25T06:24:56Z</time>
      </trkpt>
      <trkpt lat="40.755600" lon="-4.878350">
        <ele>994.110</ele>
        <time>2022-02-25T06:25:36Z</time>
      </trkpt>
      <trkpt lat="40.755610" lon="-4.878350">
        <ele>994.181</ele>
        <time>2022-02-25T06:26:16Z</time>
      </trkpt>
      <trkpt lat="40.755630" lon="-4.878350">
        <ele>994.172</ele>
        <time>2022-02-25T06:26:56Z</time>
      </trkpt>
      <trkpt lat="40.755640" lon="-4.878340">
        <ele>994.024</ele>
        <time>2022-02-25T06:27:36Z</time>
      </trkpt>
      <trkpt lat="40.755660" lon="-4.878340">
        <ele>994.099</ele>
        <time>2022-02-25T06:28:16Z</time>
      </trkpt>
      <trkpt lat="40.755670" lon="-4.878340">
        <ele>994.007</ele>
        <time>2022-02-25T06:28:56Z</time>
      </trkpt>
      <trkpt lat="40.755680" lon="-4.878330">
        <ele>994.027</ele>
        <time>2022-02-25T06:29:36Z</time>
      </trkpt>
      <trkpt lat="40.755700" lon="-4.878330">
        <ele>994.008</ele>
        <time>2022-02-25T06:30:16Z</time>
      </trkpt>
      <trkpt lat="40.755710" lon="-4.878320">
        <ele>994.038</ele>
        <time>2022-02-25T06:30:56Z</time>
      </trkpt>
      <trkpt lat="40.755750" lon="-4.878300">
        <ele>993.925</ele>
        <time>2022-02-25T06:31:36Z</time>
      </trkpt>
      <trkpt lat="40.755790" lon="-4.878280">
        <ele>993.849</ele>
        <time>2022-02-25T06:32:16Z</time>
      </trkpt>
      <trkpt lat="40.755850" lon="-4.878250">
        <ele>993.778</ele>
        <time>2022-02-25T06:32:56Z</time>
      </trkpt>
      <trkpt lat="40.755870" lon="-4.878240">
        <ele>993.777</ele>
        <time>2022-02-25T06:33:36Z</time>
      </trkpt>
      <trkpt lat="40.755890" lon="-4.878230">
        <ele>993.688</ele>
        <time>2022-02-25T06:34:16Z</time>
      </trkpt>
      <trkpt lat="40.755930" lon="-4.878210">
        <ele>993.669</ele>
        <time>2022-02-25T06:34:56Z</time>
      </trkpt>
      <trkpt lat="40.755990" lon="-4.878190">
        <ele>993.511</ele>
        <time>2022-02-25T06:35:36Z</time>
      </trkpt>
      <trkpt lat="40.756040" lon="-4.878170">
        <ele>993.435</ele>
        <time>2022-02-25T06:36:16Z</time>
      </trkpt>
      <trkpt lat="40.756200" lon="-4.878130">
        <ele>993.286</ele>
        <time>2022-02-25T06:36:56Z</time>
      </trkpt>
      <trkpt lat="40.756570" lon="-4.878020">
        <ele>992.914</ele>
        <time>2022-02-25T06:37:36Z</time>
      </trkpt>
      <trkpt lat="40.756990" lon="-4.877890">
        <ele>992.108</ele>
        <time>2022-02-25T06:38:16Z</time>
      </trkpt>
      <trkpt lat="40.757040" lon="-4.877880">
        <ele>992.112</ele>
        <time>2022-02-25T06:38:56Z</time>
      </trkpt>
      <trkpt lat="40.757170" lon="-4.877840">
        <ele>992.269</ele>
        <time>2022-02-25T06:39:36Z</time>
      </trkpt>
      <trkpt lat="40.757400" lon="-4.877760">
        <ele>992.663</ele>
        <time>2022-02-25T06:40:16Z</time>
      </trkpt>
      <trkpt lat="40.757810" lon="-4.877670">
        <ele>993.062</ele>
        <time>2022-02-25T06:40:56Z</time>
      </trkpt>
      <trkpt lat="40.757840" lon="-4.877660">
        <ele>993.051</ele>
        <time>2022-02-25T06:41:36Z</time>
      </trkpt>
      <trkpt lat="40.758160" lon="-4.877600">
        <ele>993.042</ele>
        <time>2022-02-25T06:42:16Z</time>
      </trkpt>
      <trkpt lat="40.758770" lon="-4.877490">
        <ele>991.873</ele>
        <time>2022-02-25T06:42:56Z</time>
      </trkpt>
      <trkpt lat="40.758880" lon="-4.877470">
        <ele>991.075</ele>
        <time>2022-02-25T06:43:36Z</time>
      </trkpt>
      <trkpt lat="40.759280" lon="-4.877390">
        <ele>988.296</ele>
        <time>2022-02-25T06:44:16Z</time>
      </trkpt>
      <trkpt lat="40.759350" lon="-4.877380">
        <ele>987.931</ele>
        <time>2022-02-25T06:44:56Z</time>
      </trkpt>
      <trkpt lat="40.759390" lon="-4.877370">
        <ele>987.724</ele>
        <time>2022-02-25T06:45:36Z</time>
      </trkpt>
      <trkpt lat="40.759420" lon="-4.877370">
        <ele>987.608</ele>
        <time>2022-02-25T06:46:16Z</time>
      </trkpt>
      <trkpt lat="40.759450" lon="-4.877370">
        <ele>987.518</ele>
        <time>2022-02-25T06:46:56Z</time>
      </trkpt>
      <trkpt lat="40.759470" lon="-4.877370">
        <ele>987.465</ele>
        <time>2022-02-25T06:47:36Z</time>
      </trkpt>
      <trkpt lat="40.759500" lon="-4.877380">
        <ele>987.369</ele>
        <time>2022-02-25T06:48:16Z</time>
      </trkpt>
      <trkpt lat="40.759520" lon="-4.877390">
        <ele>987.248</ele>
        <time>2022-02-25T06:48:56Z</time>
      </trkpt>
      <trkpt lat="40.759540" lon="-4.877400">
        <ele>987.137</ele>
        <time>2022-02-25T06:49:36Z</time>
      </trkpt>
      <trkpt lat="40.759580" lon="-4.877420">
        <ele>986.968</ele>
        <time>2022-02-25T06:50:16Z</time>
      </trkpt>
      <trkpt lat="40.759620" lon="-4.877440">
        <ele>986.799</ele>
        <time>2022-02-25T06:50:56Z</time>
      </trkpt>
      <trkpt lat="40.759680" lon="-4.877470">
        <ele>986.381</ele>
        <time>2022-02-25T06:51:36Z</time>
      </trkpt>
      <trkpt lat="40.759730" lon="-4.877500">
        <ele>986.092</ele>
        <time>2022-02-25T06:52:16Z</time>
      </trkpt>
      <trkpt lat="40.759790" lon="-4.877530">
        <ele>986.173</ele>
        <time>2022-02-25T06:52:56Z</time>
      </trkpt>
      <trkpt lat="40.759860" lon="-4.877570">
        <ele>986.120</ele>
        <time>2022-02-25T06:53:36Z</time>
      </trkpt>
      <trkpt lat="40.759940" lon="-4.877610">
        <ele>986.108</ele>
        <time>2022-02-25T06:54:16Z</time>
      </trkpt>
      <trkpt lat="40.760020" lon="-4.877640">
        <ele>986.058</ele>
        <time>2022-02-25T06:54:56Z</time>
      </trkpt>
      <trkpt lat="40.760090" lon="-4.877660">
        <ele>986.045</ele>
        <time>2022-02-25T06:55:36Z</time>
      </trkpt>
      <trkpt lat="40.760130" lon="-4.877670">
        <ele>986.029</ele>
        <time>2022-02-25T06:56:16Z</time>
      </trkpt>
      <trkpt lat="40.760200" lon="-4.877690">
        <ele>986.098</ele>
        <time>2022-02-25T06:56:56Z</time>
      </trkpt>
      <trkpt lat="40.760270" lon="-4.877700">
        <ele>986.067</ele>
        <time>2022-02-25T06:57:36Z</time>
      </trkpt>
      <trkpt lat="40.760490" lon="-4.877750">
        <ele>986.068</ele>
        <time>2022-02-25T06:58:16Z</time>
      </trkpt>
      <trkpt lat="40.760590" lon="-4.877780">
        <ele>986.079</ele>
        <time>2022-02-25T06:58:56Z</time>
      </trkpt>
      <trkpt lat="40.760630" lon="-4.877790">
        <ele>986.091</ele>
        <time>2022-02-25T06:59:36Z</time>
      </trkpt>
      <trkpt lat="40.760750" lon="-4.877820">
        <ele>986.239</ele>
        <time>2022-02-25T07:00:16Z</time>
      </trkpt>
      <trkpt lat="40.760780" lon="-4.877820">
        <ele>986.201</ele>
        <time>2022-02-25T07:00:56Z</time>
      </trkpt>
      <trkpt lat="40.760800" lon="-4.877830">
        <ele>986.221</ele>
        <time>2022-02-25T07:01:36Z</time>
      </trkpt>
      <trkpt lat="40.760810" lon="-4.877830">
        <ele>986.208</ele>
        <time>2022-02-25T07:02:16Z</time>
      </trkpt>
      <trkpt lat="40.760830" lon="-4.877830">
        <ele>986.262</ele>
        <time>2022-02-25T07:02:56Z</time>
      </trkpt>
      <trkpt lat="40.760850" lon="-4.877830">
        <ele>986.269</ele>
        <time>2022-02-25T07:03:36Z</time>
      </trkpt>
      <trkpt lat="40.760880" lon="-4.877830">
        <ele>986.233</ele>
        <time>2022-02-25T07:04:16Z</time>
      </trkpt>
      <trkpt lat="40.760900" lon="-4.877820">
        <ele>986.262</ele>
        <time>2022-02-25T07:04:56Z</time>
      </trkpt>
      <trkpt lat="40.760920" lon="-4.877820">
        <ele>986.241</ele>
        <time>2022-02-25T07:05:36Z</time>
      </trkpt>
      <trkpt lat="40.760940" lon="-4.877810">
        <ele>986.162</ele>
        <time>2022-02-25T07:06:16Z</time>
      </trkpt>
      <trkpt lat="40.761010" lon="-4.877790">
        <ele>986.033</ele>
        <time>2022-02-25T07:06:56Z</time>
      </trkpt>
      <trkpt lat="40.761120" lon="-4.877750">
        <ele>986.075</ele>
        <time>2022-02-25T07:07:36Z</time>
      </trkpt>
      <trkpt lat="40.761220" lon="-4.877720">
        <ele>986.031</ele>
        <time>2022-02-25T07:08:16Z</time>
      </trkpt>
      <trkpt lat="40.761290" lon="-4.877690">
        <ele>986.061</ele>
        <time>2022-02-25T07:08:56Z</time>
      </trkpt>
      <trkpt lat="40.761520" lon="-4.877600">
        <ele>986.007</ele>
        <time>2022-02-25T07:09:36Z</time>
      </trkpt>
      <trkpt lat="40.761800" lon="-4.877490">
        <ele>987.408</ele>
        <time>2022-02-25T07:10:16Z</time>
      </trkpt>
      <trkpt lat="40.761900" lon="-4.877450">
        <ele>988.582</ele>
        <time>2022-02-25T07:10:56Z</time>
      </trkpt>
      <trkpt lat="40.762320" lon="-4.877290">
        <ele>986.369</ele>
        <time>2022-02-25T07:11:36Z</time>
      </trkpt>
      <trkpt lat="40.762510" lon="-4.877430">
        <ele>984.993</ele>
        <time>2022-02-25T07:12:16Z</time>
      </trkpt>
      <trkpt lat="40.762530" lon="-4.877440">
        <ele>984.892</ele>
        <time>2022-02-25T07:12:56Z</time>
      </trkpt>
      <trkpt lat="40.762990" lon="-4.877770">
        <ele>982.241</ele>
        <time>2022-02-25T07:13:36Z</time>
      </trkpt>
      <trkpt lat="40.763010" lon="-4.877780">
        <ele>982.212</ele>
        <time>2022-02-25T07:14:16Z</time>
      </trkpt>
      <trkpt lat="40.763150" lon="-4.877880">
        <ele>981.363</ele>
        <time>2022-02-25T07:14:56Z</time>
      </trkpt>
      <trkpt lat="40.763390" lon="-4.878060">
        <ele>980.025</ele>
        <time>2022-02-25T07:15:36Z</time>
      </trkpt>
      <trkpt lat="40.763580" lon="-4.878200">
        <ele>980.015</ele>
        <time>2022-02-25T07:16:16Z</time>
      </trkpt>
      <trkpt lat="40.763760" lon="-4.878340">
        <ele>979.565</ele>
        <time>2022-02-25T07:16:56Z</time>
      </trkpt>
      <trkpt lat="40.763780" lon="-4.878350">
        <ele>979.411</ele>
        <time>2022-02-25T07:17:36Z</time>
      </trkpt>
      <trkpt lat="40.763900" lon="-4.878430">
        <ele>978.908</ele>
        <time>2022-02-25T07:18:16Z</time>
      </trkpt>
      <trkpt lat="40.764010" lon="-4.878490">
        <ele>978.110</ele>
        <time>2022-02-25T07:18:56Z</time>
      </trkpt>
      <trkpt lat="40.764090" lon="-4.878530">
        <ele>977.697</ele>
        <time>2022-02-25T07:19:36Z</time>
      </trkpt>
      <trkpt lat="40.764150" lon="-4.878560">
        <ele>977.161</ele>
        <time>2022-02-25T07:20:16Z</time>
      </trkpt>
      <trkpt lat="40.764260" lon="-4.878610">
        <ele>977.060</ele>
        <time>2022-02-25T07:20:56Z</time>
      </trkpt>
      <trkpt lat="40.764350" lon="-4.878640">
        <ele>977.079</ele>
        <time>2022-02-25T07:21:36Z</time>
      </trkpt>
      <trkpt lat="40.764390" lon="-4.878660">
        <ele>977.090</ele>
        <time>2022-02-25T07:22:16Z</time>
      </trkpt>
      <trkpt lat="40.764440" lon="-4.878670">
        <ele>977.041</ele>
        <time>2022-02-25T07:22:56Z</time>
      </trkpt>
      <trkpt lat="40.764490" lon="-4.878680">
        <ele>976.843</ele>
        <time>2022-02-25T07:23:36Z</time>
      </trkpt>
      <trkpt lat="40.764530" lon="-4.878690">
        <ele>976.756</ele>
        <time>2022-02-25T07:24:16Z</time>
      </trkpt>
      <trkpt lat="40.764580" lon="-4.878700">
        <ele>976.559</ele>
        <time>2022-02-25T07:24:56Z</time>
      </trkpt>
      <trkpt lat="40.764620" lon="-4.878700">
        <ele>976.414</ele>
        <time>2022-02-25T07:25:36Z</time>
      </trkpt>
      <trkpt lat="40.764660" lon="-4.878710">
        <ele>976.208</ele>
        <time>2022-02-25T07:26:16Z</time>
      </trkpt>
      <trkpt lat="40.764700" lon="-4.878710">
        <ele>976.124</ele>
        <time>2022-02-25T07:26:56Z</time>
      </trkpt>
      <trkpt lat="40.764740" lon="-4.878710">
        <ele>975.971</ele>
        <time>2022-02-25T07:27:36Z</time>
      </trkpt>
      <trkpt lat="40.764780" lon="-4.878710">
        <ele>975.825</ele>
        <time>2022-02-25T07:28:16Z</time>
      </trkpt>
      <trkpt lat="40.764820" lon="-4.878710">
        <ele>975.674</ele>
        <time>2022-02-25T07:28:56Z</time>
      </trkpt>
      <trkpt lat="40.764870" lon="-4.878710">
        <ele>975.563</ele>
        <time>2022-02-25T07:29:36Z</time>
      </trkpt>
      <trkpt lat="40.764910" lon="-4.878710">
        <ele>975.314</ele>
        <time>2022-02-25T07:30:16Z</time>
      </trkpt>
      <trkpt lat="40.765520" lon="-4.878640">
        <ele>973.165</ele>
        <time>2022-02-25T07:30:56Z</time>
      </trkpt>
      <trkpt lat="40.766070" lon="-4.878570">
        <ele>971.167</ele>
        <time>2022-02-25T07:31:36Z</time>
      </trkpt>
      <trkpt lat="40.766420" lon="-4.878530">
        <ele>970.042</ele>
        <time>2022-02-25T07:32:16Z</time>
      </trkpt>
      <trkpt lat="40.767230" lon="-4.878420">
        <ele>968.322</ele>
        <time>2022-02-25T07:32:56Z</time>
      </trkpt>
      <trkpt lat="40.767670" lon="-4.878360">
        <ele>967.414</ele>
        <time>2022-02-25T07:33:36Z</time>
      </trkpt>
      <trkpt lat="40.767850" lon="-4.878340">
        <ele>966.708</ele>
        <time>2022-02-25T07:34:16Z</time>
      </trkpt>
      <trkpt lat="40.768290" lon="-4.878280">
        <ele>966.033</ele>
        <time>2022-02-25T07:34:56Z</time>
      </trkpt>
      <trkpt lat="40.769370" lon="-4.878160">
        <ele>963.370</ele>
        <time>2022-02-25T07:35:36Z</time>
      </trkpt>
      <trkpt lat="40.769640" lon="-4.878130">
        <ele>962.314</ele>
        <time>2022-02-25T07:36:16Z</time>
      </trkpt>
      <trkpt lat="40.769990" lon="-4.878080">
        <ele>961.013</ele>
        <time>2022-02-25T07:36:56Z</time>
      </trkpt>
      <trkpt lat="40.770740" lon="-4.877980">
        <ele>959.592</ele>
        <time>2022-02-25T07:37:36Z</time>
      </trkpt>
      <trkpt lat="40.771260" lon="-4.877910">
        <ele>958.083</ele>
        <time>2022-02-25T07:38:16Z</time>
      </trkpt>
      <trkpt lat="40.771430" lon="-4.877890">
        <ele>957.434</ele>
        <time>2022-02-25T07:38:56Z</time>
      </trkpt>
      <trkpt lat="40.771730" lon="-4.877850">
        <ele>956.696</ele>
        <time>2022-02-25T07:39:36Z</time>
      </trkpt>
      <trkpt lat="40.772290" lon="-4.877780">
        <ele>954.879</ele>
        <time>2022-02-25T07:40:16Z</time>
      </trkpt>
      <trkpt lat="40.772690" lon="-4.877730">
        <ele>954.005</ele>
        <time>2022-02-25T07:40:56Z</time>
      </trkpt>
      <trkpt lat="40.772820" lon="-4.877710">
        <ele>953.825</ele>
        <time>2022-02-25T07:41:36Z</time>
      </trkpt>
      <trkpt lat="40.773220" lon="-4.877660">
        <ele>951.808</ele>
        <time>2022-02-25T07:42:16Z</time>
      </trkpt>
      <trkpt lat="40.773460" lon="-4.877630">
        <ele>950.846</ele>
        <time>2022-02-25T07:42:56Z</time>
      </trkpt>
      <trkpt lat="40.773960" lon="-4.877570">
        <ele>949.853</ele>
        <time>2022-02-25T07:43:36Z</time>
      </trkpt>
      <trkpt lat="40.774230" lon="-4.877530">
        <ele>949.157</ele>
        <time>2022-02-25T07:44:16Z</time>
      </trkpt>
      <trkpt lat="40.774340" lon="-4.877520">
        <ele>949.076</ele>
        <time>2022-02-25T07:44:56Z</time>
      </trkpt>
      <trkpt lat="40.774480" lon="-4.877520">
        <ele>949.035</ele>
        <time>2022-02-25T07:45:36Z</time>
      </trkpt>
      <trkpt lat="40.774560" lon="-4.877520">
        <ele>949.086</ele>
        <time>2022-02-25T07:46:16Z</time>
      </trkpt>
      <trkpt lat="40.774610" lon="-4.877530">
        <ele>949.097</ele>
        <time>2022-02-25T07:46:56Z</time>
      </trkpt>
      <trkpt lat="40.774670" lon="-4.877550">
        <ele>949.069</ele>
        <time>2022-02-25T07:47:36Z</time>
      </trkpt>
      <trkpt lat="40.774710" lon="-4.877560">
        <ele>949.069</ele>
        <time>2022-02-25T07:48:16Z</time>
      </trkpt>
      <trkpt lat="40.774750" lon="-4.877580">
        <ele>949.004</ele>
        <time>2022-02-25T07:48:56Z</time>
      </trkpt>
      <trkpt lat="40.774790" lon="-4.877600">
        <ele>949.024</ele>
        <time>2022-02-25T07:49:36Z</time>
      </trkpt>
      <trkpt lat="40.774830" lon="-4.877630">
        <ele>949.008</ele>
        <time>2022-02-25T07:50:16Z</time>
      </trkpt>
      <trkpt lat="40.774940" lon="-4.877700">
        <ele>949.035</ele>
        <time>2022-02-25T07:50:56Z</time>
      </trkpt>
      <trkpt lat="40.774970" lon="-4.877720">
        <ele>949.052</ele>
        <time>2022-02-25T07:51:36Z</time>
      </trkpt>
      <trkpt lat="40.775010" lon="-4.877760">
        <ele>949.016</ele>
        <time>2022-02-25T07:52:16Z</time>
      </trkpt>
      <trkpt lat="40.775050" lon="-4.877790">
        <ele>948.885</ele>
        <time>2022-02-25T07:52:56Z</time>
      </trkpt>
      <trkpt lat="40.775080" lon="-4.877810">
        <ele>948.724</ele>
        <time>2022-02-25T07:53:36Z</time>
      </trkpt>
      <trkpt lat="40.775090" lon="-4.877830">
        <ele>948.735</ele>
        <time>2022-02-25T07:54:16Z</time>
      </trkpt>
      <trkpt lat="40.775150" lon="-4.877870">
        <ele>948.526</ele>
        <time>2022-02-25T07:54:56Z</time>
      </trkpt>
      <trkpt lat="40.775310" lon="-4.877980">
        <ele>948.098</ele>
        <time>2022-02-25T07:55:36Z</time>
      </trkpt>
      <trkpt lat="40.775490" lon="-4.878130">
        <ele>948.195</ele>
        <time>2022-02-25T07:56:16Z</time>
      </trkpt>
      <trkpt lat="40.775530" lon="-4.878190">
        <ele>948.049</ele>
        <time>2022-02-25T07:56:56Z</time>
      </trkpt>
      <trkpt lat="40.775590" lon="-4.878280">
        <ele>948.023</ele>
        <time>2022-02-25T07:57:36Z</time>
      </trkpt>
      <trkpt lat="40.775680" lon="-4.878420">
        <ele>948.208</ele>
        <time>2022-02-25T07:58:16Z</time>
      </trkpt>
      <trkpt lat="40.775730" lon="-4.878470">
        <ele>948.228</ele>
        <time>2022-02-25T07:58:56Z</time>
      </trkpt>
      <trkpt lat="40.775770" lon="-4.878500">
        <ele>948.135</ele>
        <time>2022-02-25T07:59:36Z</time>
      </trkpt>
      <trkpt lat="40.775840" lon="-4.878520">
        <ele>948.089</ele>
        <time>2022-02-25T08:00:16Z</time>
      </trkpt>
      <trkpt lat="40.776180" lon="-4.878650">
        <ele>947.128</ele>
        <time>2022-02-25T08:00:56Z</time>
      </trkpt>
      <trkpt lat="40.776300" lon="-4.878690">
        <ele>947.167</ele>
        <time>2022-02-25T08:01:36Z</time>
      </trkpt>
      <trkpt lat="40.776330" lon="-4.878700">
        <ele>947.128</ele>
        <time>2022-02-25T08:02:16Z</time>
      </trkpt>
      <trkpt lat="40.776540" lon="-4.878770">
        <ele>946.539</ele>
        <time>2022-02-25T08:02:56Z</time>
      </trkpt>
      <trkpt lat="40.776560" lon="-4.878770">
        <ele>946.451</ele>
        <time>2022-02-25T08:03:36Z</time>
      </trkpt>
      <trkpt lat="40.776750" lon="-4.878840">
        <ele>946.072</ele>
        <time>2022-02-25T08:04:16Z</time>
      </trkpt>
      <trkpt lat="40.776970" lon="-4.878920">
        <ele>945.813</ele>
        <time>2022-02-25T08:04:56Z</time>
      </trkpt>
      <trkpt lat="40.777100" lon="-4.878960">
        <ele>945.314</ele>
        <time>2022-02-25T08:05:36Z</time>
      </trkpt>
      <trkpt lat="40.777120" lon="-4.878960">
        <ele>945.308</ele>
        <time>2022-02-25T08:06:16Z</time>
      </trkpt>
      <trkpt lat="40.777170" lon="-4.878970">
        <ele>945.156</ele>
        <time>2022-02-25T08:06:56Z</time>
      </trkpt>
      <trkpt lat="40.777220" lon="-4.878960">
        <ele>945.083</ele>
        <time>2022-02-25T08:07:36Z</time>
      </trkpt>
      <trkpt lat="40.777420" lon="-4.878860">
        <ele>945.017</ele>
        <time>2022-02-25T08:08:16Z</time>
      </trkpt>
      <trkpt lat="40.777620" lon="-4.878780">
        <ele>944.676</ele>
        <time>2022-02-25T08:08:56Z</time>
      </trkpt>
      <trkpt lat="40.777640" lon="-4.878740">
        <ele>944.555</ele>
        <time>2022-02-25T08:09:36Z</time>
      </trkpt>
      <trkpt lat="40.777720" lon="-4.878690">
        <ele>944.236</ele>
        <time>2022-02-25T08:10:16Z</time>
      </trkpt>
      <trkpt lat="40.777890" lon="-4.878610">
        <ele>944.017</ele>
        <time>2022-02-25T08:10:56Z</time>
      </trkpt>
      <trkpt lat="40.777920" lon="-4.878590">
        <ele>944.099</ele>
        <time>2022-02-25T08:11:36Z</time>
      </trkpt>
      <trkpt lat="40.778090" lon="-4.878540">
        <ele>943.734</ele>
        <time>2022-02-25T08:12:16Z</time>
      </trkpt>
      <trkpt lat="40.778250" lon="-4.878470">
        <ele>943.155</ele>
        <time>2022-02-25T08:12:56Z</time>
      </trkpt>
      <trkpt lat="40.778320" lon="-4.878460">
        <ele>943.010</ele>
        <time>2022-02-25T08:13:36Z</time>
      </trkpt>
      <trkpt lat="40.779780" lon="-4.878200">
        <ele>940.008</ele>
        <time>2022-02-25T08:14:16Z</time>
      </trkpt>
      <trkpt lat="40.780480" lon="-4.878080">
        <ele>940.052</ele>
        <time>2022-02-25T08:14:56Z</time>
      </trkpt>
      <trkpt lat="40.780850" lon="-4.878010">
        <ele>940.079</ele>
        <time>2022-02-25T08:15:36Z</time>
      </trkpt>
      <trkpt lat="40.782540" lon="-4.877740">
        <ele>940.053</ele>
        <time>2022-02-25T08:16:16Z</time>
      </trkpt>
      <trkpt lat="40.782570" lon="-4.877740">
        <ele>940.062</ele>
        <time>2022-02-25T08:16:56Z</time>
      </trkpt>
      <trkpt lat="40.783530" lon="-4.877580">
        <ele>940.011</ele>
        <time>2022-02-25T08:17:36Z</time>
      </trkpt>
      <trkpt lat="40.784240" lon="-4.877460">
        <ele>940.092</ele>
        <time>2022-02-25T08:18:16Z</time>
      </trkpt>
      <trkpt lat="40.784720" lon="-4.877390">
        <ele>940.063</ele>
        <time>2022-02-25T08:18:56Z</time>
      </trkpt>
      <trkpt lat="40.784780" lon="-4.877380">
        <ele>940.035</ele>
        <time>2022-02-25T08:19:36Z</time>
      </trkpt>
      <trkpt lat="40.785040" lon="-4.877330">
        <ele>940.027</ele>
        <time>2022-02-25T08:20:16Z</time>
      </trkpt>
      <trkpt lat="40.785490" lon="-4.877250">
        <ele>940.068</ele>
        <time>2022-02-25T08:20:56Z</time>
      </trkpt>
      <trkpt lat="40.786290" lon="-4.877110">
        <ele>940.014</ele>
        <time>2022-02-25T08:21:36Z</time>
      </trkpt>
      <trkpt lat="40.786740" lon="-4.877030">
        <ele>940.008</ele>
        <time>2022-02-25T08:22:16Z</time>
      </trkpt>
      <trkpt lat="40.786950" lon="-4.876990">
        <ele>940.081</ele>
        <time>2022-02-25T08:22:56Z</time>
      </trkpt>
      <trkpt lat="40.787210" lon="-4.876980">
        <ele>940.038</ele>
        <time>2022-02-25T08:23:36Z</time>
      </trkpt>
      <trkpt lat="40.787360" lon="-4.876980">
        <ele>940.022</ele>
        <time>2022-02-25T08:24:16Z</time>
      </trkpt>
      <trkpt lat="40.787640" lon="-4.877030">
        <ele>940.021</ele>
        <time>2022-02-25T08:24:56Z</time>
      </trkpt>
      <trkpt lat="40.788420" lon="-4.877240">
        <ele>940.010</ele>
        <time>2022-02-25T08:25:36Z</time>
      </trkpt>
      <trkpt lat="40.788520" lon="-4.877260">
        <ele>940.061</ele>
        <time>2022-02-25T08:26:16Z</time>
      </trkpt>
      <trkpt lat="40.788730" lon="-4.877320">
        <ele>940.032</ele>
        <time>2022-02-25T08:26:56Z</time>
      </trkpt>
      <trkpt lat="40.789050" lon="-4.877400">
        <ele>940.034</ele>
        <time>2022-02-25T08:27:36Z</time>
      </trkpt>
      <trkpt lat="40.790290" lon="-4.877720">
        <ele>942.348</ele>
        <time>2022-02-25T08:28:16Z</time>
      </trkpt>
      <trkpt lat="40.790530" lon="-4.877770">
        <ele>944.861</ele>
        <time>2022-02-25T08:28:56Z</time>
      </trkpt>
      <trkpt lat="40.790700" lon="-4.877790">
        <ele>946.017</ele>
        <time>2022-02-25T08:29:36Z</time>
      </trkpt>
      <trkpt lat="40.790880" lon="-4.877800">
        <ele>947.208</ele>
        <time>2022-02-25T08:30:16Z</time>
      </trkpt>
      <trkpt lat="40.791000" lon="-4.877790">
        <ele>948.163</ele>
        <time>2022-02-25T08:30:56Z</time>
      </trkpt>
      <trkpt lat="40.791260" lon="-4.877770">
        <ele>949.020</ele>
        <time>2022-02-25T08:31:36Z</time>
      </trkpt>
      <trkpt lat="40.791430" lon="-4.877750">
        <ele>949.144</ele>
        <time>2022-02-25T08:32:16Z</time>
      </trkpt>
      <trkpt lat="40.791900" lon="-4.877710">
        <ele>949.293</ele>
        <time>2022-02-25T08:32:56Z</time>
      </trkpt>
      <trkpt lat="40.791930" lon="-4.877700">
        <ele>949.352</ele>
        <time>2022-02-25T08:33:36Z</time>
      </trkpt>
      <trkpt lat="40.792080" lon="-4.877690">
        <ele>948.873</ele>
        <time>2022-02-25T08:34:16Z</time>
      </trkpt>
      <trkpt lat="40.792190" lon="-4.877650">
        <ele>948.614</ele>
        <time>2022-02-25T08:34:56Z</time>
      </trkpt>
      <trkpt lat="40.792320" lon="-4.877580">
        <ele>948.476</ele>
        <time>2022-02-25T08:35:36Z</time>
      </trkpt>
      <trkpt lat="40.792470" lon="-4.877500">
        <ele>948.137</ele>
        <time>2022-02-25T08:36:16Z</time>
      </trkpt>
      <trkpt lat="40.792580" lon="-4.877430">
        <ele>948.049</ele>
        <time>2022-02-25T08:36:56Z</time>
      </trkpt>
      <trkpt lat="40.792910" lon="-4.877220">
        <ele>947.513</ele>
        <time>2022-02-25T08:37:36Z</time>
      </trkpt>
      <trkpt lat="40.793140" lon="-4.877070">
        <ele>947.108</ele>
        <time>2022-02-25T08:38:16Z</time>
      </trkpt>
      <trkpt lat="40.793850" lon="-4.876610">
        <ele>945.362</ele>
        <time>2022-02-25T08:38:56Z</time>
      </trkpt>
      <trkpt lat="40.793870" lon="-4.876590">
        <ele>945.359</ele>
        <time>2022-02-25T08:39:36Z</time>
      </trkpt>
      <trkpt lat="40.794030" lon="-4.876490">
        <ele>945.193</ele>
        <time>2022-02-25T08:40:16Z</time>
      </trkpt>
      <trkpt lat="40.794100" lon="-4.876440">
        <ele>945.152</ele>
        <time>2022-02-25T08:40:56Z</time>
      </trkpt>
      <trkpt lat="40.794350" lon="-4.876270">
        <ele>944.311</ele>
        <time>2022-02-25T08:41:36Z</time>
      </trkpt>
      <trkpt lat="40.794510" lon="-4.876160">
        <ele>943.872</ele>
        <time>2022-02-25T08:42:16Z</time>
      </trkpt>
      <trkpt lat="40.795010" lon="-4.875830">
        <ele>943.023</ele>
        <time>2022-02-25T08:42:56Z</time>
      </trkpt>
      <trkpt lat="40.795070" lon="-4.875790">
        <ele>942.885</ele>
        <time>2022-02-25T08:43:36Z</time>
      </trkpt>
      <trkpt lat="40.795150" lon="-4.875740">
        <ele>942.641</ele>
        <time>2022-02-25T08:44:16Z</time>
      </trkpt>
      <trkpt lat="40.795640" lon="-4.875420">
        <ele>941.981</ele>
        <time>2022-02-25T08:44:56Z</time>
      </trkpt>
      <trkpt lat="40.795800" lon="-4.875310">
        <ele>941.209</ele>
        <time>2022-02-25T08:45:36Z</time>
      </trkpt>
      <trkpt lat="40.796920" lon="-4.874560">
        <ele>940.008</ele>
        <time>2022-02-25T08:46:16Z</time>
      </trkpt>
      <trkpt lat="40.797000" lon="-4.874520">
        <ele>940.053</ele>
        <time>2022-02-25T08:46:56Z</time>
      </trkpt>
      <trkpt lat="40.797160" lon="-4.874410">
        <ele>940.020</ele>
        <time>2022-02-25T08:47:36Z</time>
      </trkpt>
      <trkpt lat="40.797560" lon="-4.874140">
        <ele>940.064</ele>
        <time>2022-02-25T08:48:16Z</time>
      </trkpt>
      <trkpt lat="40.797670" lon="-4.874070">
        <ele>940.033</ele>
        <time>2022-02-25T08:48:56Z</time>
      </trkpt>
      <trkpt lat="40.798560" lon="-4.873390">
        <ele>940.092</ele>
        <time>2022-02-25T08:49:36Z</time>
      </trkpt>
      <trkpt lat="40.799190" lon="-4.872900">
        <ele>940.093</ele>
        <time>2022-02-25T08:50:16Z</time>
      </trkpt>
      <trkpt lat="40.799300" lon="-4.872820">
        <ele>940.044</ele>
        <time>2022-02-25T08:50:56Z</time>
      </trkpt>
      <trkpt lat="40.799470" lon="-4.872670">
        <ele>940.066</ele>
        <time>2022-02-25T08:51:36Z</time>
      </trkpt>
      <trkpt lat="40.799580" lon="-4.872570">
        <ele>940.063</ele>
        <time>2022-02-25T08:52:16Z</time>
      </trkpt>
      <trkpt lat="40.799750" lon="-4.872300">
        <ele>940.044</ele>
        <time>2022-02-25T08:52:56Z</time>
      </trkpt>
      <trkpt lat="40.799970" lon="-4.871940">
        <ele>940.018</ele>
        <time>2022-02-25T08:53:36Z</time>
      </trkpt>
      <trkpt lat="40.800020" lon="-4.871840">
        <ele>940.008</ele>
        <time>2022-02-25T08:54:16Z</time>
      </trkpt>
      <trkpt lat="40.800110" lon="-4.871660">
        <ele>940.045</ele>
        <time>2022-02-25T08:54:56Z</time>
      </trkpt>
      <trkpt lat="40.800120" lon="-4.871640">
        <ele>940.042</ele>
        <time>2022-02-25T08:55:36Z</time>
      </trkpt>
      <trkpt lat="40.800180" lon="-4.871480">
        <ele>940.036</ele>
        <time>2022-02-25T08:56:16Z</time>
      </trkpt>
      <trkpt lat="40.800230" lon="-4.871320">
        <ele>940.085</ele>
        <time>2022-02-25T08:56:56Z</time>
      </trkpt>
      <trkpt lat="40.800260" lon="-4.871210">
        <ele>940.084</ele>
        <time>2022-02-25T08:57:36Z</time>
      </trkpt>
      <trkpt lat="40.800280" lon="-4.871120">
        <ele>940.025</ele>
        <time>2022-02-25T08:58:16Z</time>
      </trkpt>
      <trkpt lat="40.800300" lon="-4.871060">
        <ele>940.016</ele>
        <time>2022-02-25T08:58:56Z</time>
      </trkpt>
      <trkpt lat="40.800320" lon="-4.870960">
        <ele>940.098</ele>
        <time>2022-02-25T08:59:36Z</time>
      </trkpt>
      <trkpt lat="40.800330" lon="-4.870850">
        <ele>940.088</ele>
        <time>2022-02-25T09:00:16Z</time>
      </trkpt>
      <trkpt lat="40.800330" lon="-4.870810">
        <ele>940.024</ele>
        <time>2022-02-25T09:00:56Z</time>
      </trkpt>
      <trkpt lat="40.800330" lon="-4.870720">
        <ele>940.026</ele>
        <time>2022-02-25T09:01:36Z</time>
      </trkpt>
      <trkpt lat="40.800340" lon="-4.870570">
        <ele>940.008</ele>
        <time>2022-02-25T09:02:16Z</time>
      </trkpt>
      <trkpt lat="40.800360" lon="-4.870460">
        <ele>940.087</ele>
        <time>2022-02-25T09:02:56Z</time>
      </trkpt>
      <trkpt lat="40.800380" lon="-4.870370">
        <ele>940.064</ele>
        <time>2022-02-25T09:03:36Z</time>
      </trkpt>
      <trkpt lat="40.800440" lon="-4.870210">
        <ele>940.088</ele>
        <time>2022-02-25T09:04:16Z</time>
      </trkpt>
      <trkpt lat="40.800490" lon="-4.870120">
        <ele>940.057</ele>
        <time>2022-02-25T09:04:56Z</time>
      </trkpt>
      <trkpt lat="40.800550" lon="-4.870040">
        <ele>940.076</ele>
        <time>2022-02-25T09:05:36Z</time>
      </trkpt>
      <trkpt lat="40.800650" lon="-4.869920">
        <ele>940.047</ele>
        <time>2022-02-25T09:06:16Z</time>
      </trkpt>
      <trkpt lat="40.800710" lon="-4.869860">
        <ele>940.018</ele>
        <time>2022-02-25T09:06:56Z</time>
      </trkpt>
      <trkpt lat="40.800730" lon="-4.869850">
        <ele>940.040</ele>
        <time>2022-02-25T09:07:36Z</time>
      </trkpt>
      <trkpt lat="40.801000" lon="-4.869730">
        <ele>940.025</ele>
        <time>2022-02-25T09:08:16Z</time>
      </trkpt>
      <trkpt lat="40.801350" lon="-4.869580">
        <ele>940.026</ele>
        <time>2022-02-25T09:08:56Z</time>
      </trkpt>
      <trkpt lat="40.801380" lon="-4.869570">
        <ele>940.008</ele>
        <time>2022-02-25T09:09:36Z</time>
      </trkpt>
      <trkpt lat="40.801530" lon="-4.869520">
        <ele>940.008</ele>
        <time>2022-02-25T09:10:16Z</time>
      </trkpt>
      <trkpt lat="40.801600" lon="-4.869500">
        <ele>940.061</ele>
        <time>2022-02-25T09:10:56Z</time>
      </trkpt>
      <trkpt lat="40.801598" lon="-4.869500">
        <ele>940.018</ele>
        <time>2022-02-25T09:11:36Z</time>
      </trkpt>
      <trkpt lat="40.801610" lon="-4.869560">
        <ele>940.072</ele>
        <time>2022-02-25T09:12:16Z</time>
      </trkpt>
      <trkpt lat="40.801630" lon="-4.869610">
        <ele>940.051</ele>
        <time>2022-02-25T09:12:56Z</time>
      </trkpt>
      <trkpt lat="40.801680" lon="-4.869810">
        <ele>940.040</ele>
        <time>2022-02-25T09:13:36Z</time>
      </trkpt>
      <trkpt lat="40.801760" lon="-4.870080">
        <ele>940.011</ele>
        <time>2022-02-25T09:14:16Z</time>
      </trkpt>
      <trkpt lat="40.801850" lon="-4.870450">
        <ele>940.012</ele>
        <time>2022-02-25T09:14:56Z</time>
      </trkpt>
      <trkpt lat="40.801920" lon="-4.870660">
        <ele>940.014</ele>
        <time>2022-02-25T09:15:36Z</time>
      </trkpt>
      <trkpt lat="40.801980" lon="-4.870850">
        <ele>940.074</ele>
        <time>2022-02-25T09:16:16Z</time>
      </trkpt>
      <trkpt lat="40.802030" lon="-4.871000">
        <ele>940.056</ele>
        <time>2022-02-25T09:16:56Z</time>
      </trkpt>
      <trkpt lat="40.802090" lon="-4.871130">
        <ele>940.021</ele>
        <time>2022-02-25T09:17:36Z</time>
      </trkpt>
      <trkpt lat="40.802130" lon="-4.871230">
        <ele>940.008</ele>
        <time>2022-02-25T09:18:16Z</time>
      </trkpt>
      <trkpt lat="40.802170" lon="-4.871320">
        <ele>940.056</ele>
        <time>2022-02-25T09:18:56Z</time>
      </trkpt>
      <trkpt lat="40.802220" lon="-4.871420">
        <ele>940.053</ele>
        <time>2022-02-25T09:19:36Z</time>
      </trkpt>
      <trkpt lat="40.802250" lon="-4.871480">
        <ele>940.097</ele>
        <time>2022-02-25T09:20:16Z</time>
      </trkpt>
      <trkpt lat="40.802280" lon="-4.871550">
        <ele>940.036</ele>
        <time>2022-02-25T09:20:56Z</time>
      </trkpt>
      <trkpt lat="40.802360" lon="-4.871730">
        <ele>940.055</ele>
        <time>2022-02-25T09:21:36Z</time>
      </trkpt>
      <trkpt lat="40.802680" lon="-4.872420">
        <ele>940.036</ele>
        <time>2022-02-25T09:22:16Z</time>
      </trkpt>
      <trkpt lat="40.802700" lon="-4.872470">
        <ele>940.067</ele>
        <time>2022-02-25T09:22:56Z</time>
      </trkpt>
      <trkpt lat="40.802870" lon="-4.872810">
        <ele>939.719</ele>
        <time>2022-02-25T09:23:36Z</time>
      </trkpt>
      <trkpt lat="40.802870" lon="-4.872830">
        <ele>939.754</ele>
        <time>2022-02-25T09:24:16Z</time>
      </trkpt>
      <trkpt lat="40.803270" lon="-4.873670">
        <ele>934.456</ele>
        <time>2022-02-25T09:24:56Z</time>
      </trkpt>
      <trkpt lat="40.803320" lon="-4.873760">
        <ele>933.311</ele>
        <time>2022-02-25T09:25:36Z</time>
      </trkpt>
      <trkpt lat="40.803370" lon="-4.873870">
        <ele>932.908</ele>
        <time>2022-02-25T09:26:16Z</time>
      </trkpt>
      <trkpt lat="40.803650" lon="-4.874490">
        <ele>931.764</ele>
        <time>2022-02-25T09:26:56Z</time>
      </trkpt>
      <trkpt lat="40.803720" lon="-4.874630">
        <ele>931.261</ele>
        <time>2022-02-25T09:27:36Z</time>
      </trkpt>
      <trkpt lat="40.803890" lon="-4.874990">
        <ele>931.085</ele>
        <time>2022-02-25T09:28:16Z</time>
      </trkpt>
      <trkpt lat="40.803980" lon="-4.875180">
        <ele>932.074</ele>
        <time>2022-02-25T09:28:56Z</time>
      </trkpt>
      <trkpt lat="40.804040" lon="-4.875310">
        <ele>932.593</ele>
        <time>2022-02-25T09:29:36Z</time>
      </trkpt>
      <trkpt lat="40.804090" lon="-4.875430">
        <ele>932.354</ele>
        <time>2022-02-25T09:30:16Z</time>
      </trkpt>
      <trkpt lat="40.804340" lon="-4.875980">
        <ele>932.265</ele>
        <time>2022-02-25T09:30:56Z</time>
      </trkpt>
      <trkpt lat="40.804480" lon="-4.876270">
        <ele>932.087</ele>
        <time>2022-02-25T09:31:36Z</time>
      </trkpt>
      <trkpt lat="40.804910" lon="-4.877200">
        <ele>931.345</ele>
        <time>2022-02-25T09:32:16Z</time>
      </trkpt>
      <trkpt lat="40.804940" lon="-4.877270">
        <ele>931.247</ele>
        <time>2022-02-25T09:32:56Z</time>
      </trkpt>
      <trkpt lat="40.805260" lon="-4.877960">
        <ele>931.011</ele>
        <time>2022-02-25T09:33:36Z</time>
      </trkpt>
      <trkpt lat="40.805430" lon="-4.878320">
        <ele>931.008</ele>
        <time>2022-02-25T09:34:16Z</time>
      </trkpt>
      <trkpt lat="40.805450" lon="-4.878360">
        <ele>931.053</ele>
        <time>2022-02-25T09:34:56Z</time>
      </trkpt>
      <trkpt lat="40.805570" lon="-4.878620">
        <ele>930.960</ele>
        <time>2022-02-25T09:35:36Z</time>
      </trkpt>
      <trkpt lat="40.805670" lon="-4.878860">
        <ele>930.134</ele>
        <time>2022-02-25T09:36:16Z</time>
      </trkpt>
      <trkpt lat="40.805780" lon="-4.879100">
        <ele>930.053</ele>
        <time>2022-02-25T09:36:56Z</time>
      </trkpt>
      <trkpt lat="40.805940" lon="-4.879440">
        <ele>930.012</ele>
        <time>2022-02-25T09:37:36Z</time>
      </trkpt>
      <trkpt lat="40.806070" lon="-4.879720">
        <ele>930.023</ele>
        <time>2022-02-25T09:38:16Z</time>
      </trkpt>
      <trkpt lat="40.806250" lon="-4.880120">
        <ele>930.054</ele>
        <time>2022-02-25T09:38:56Z</time>
      </trkpt>
      <trkpt lat="40.806400" lon="-4.880430">
        <ele>930.036</ele>
        <time>2022-02-25T09:39:36Z</time>
      </trkpt>
      <trkpt lat="40.806710" lon="-4.881100">
        <ele>930.061</ele>
        <time>2022-02-25T09:40:16Z</time>
      </trkpt>
      <trkpt lat="40.806820" lon="-4.881330">
        <ele>930.021</ele>
        <time>2022-02-25T09:40:56Z</time>
      </trkpt>
      <trkpt lat="40.806900" lon="-4.881500">
        <ele>930.013</ele>
        <time>2022-02-25T09:41:36Z</time>
      </trkpt>
      <trkpt lat="40.806910" lon="-4.881540">
        <ele>930.008</ele>
        <time>2022-02-25T09:42:16Z</time>
      </trkpt>
      <trkpt lat="40.807010" lon="-4.881740">
        <ele>930.095</ele>
        <time>2022-02-25T09:42:56Z</time>
      </trkpt>
      <trkpt lat="40.807430" lon="-4.882650">
        <ele>930.092</ele>
        <time>2022-02-25T09:43:36Z</time>
      </trkpt>
      <trkpt lat="40.807760" lon="-4.883360">
        <ele>929.056</ele>
        <time>2022-02-25T09:44:16Z</time>
      </trkpt>
      <trkpt lat="40.807930" lon="-4.883730">
        <ele>929.045</ele>
        <time>2022-02-25T09:44:56Z</time>
      </trkpt>
      <trkpt lat="40.808230" lon="-4.884370">
        <ele>929.044</ele>
        <time>2022-02-25T09:45:36Z</time>
      </trkpt>
      <trkpt lat="40.808320" lon="-4.884570">
        <ele>929.035</ele>
        <time>2022-02-25T09:46:16Z</time>
      </trkpt>
      <trkpt lat="40.808390" lon="-4.884710">
        <ele>929.076</ele>
        <time>2022-02-25T09:46:56Z</time>
      </trkpt>
      <trkpt lat="40.808730" lon="-4.885440">
        <ele>929.818</ele>
        <time>2022-02-25T09:47:36Z</time>
      </trkpt>
      <trkpt lat="40.809010" lon="-4.886050">
        <ele>929.651</ele>
        <time>2022-02-25T09:48:16Z</time>
      </trkpt>
      <trkpt lat="40.809090" lon="-4.886220">
        <ele>929.201</ele>
        <time>2022-02-25T09:48:56Z</time>
      </trkpt>
      <trkpt lat="40.809350" lon="-4.886790">
        <ele>929.011</ele>
        <time>2022-02-25T09:49:36Z</time>
      </trkpt>
      <trkpt lat="40.809400" lon="-4.886890">
        <ele>929.008</ele>
        <time>2022-02-25T09:50:16Z</time>
      </trkpt>
      <trkpt lat="40.809400" lon="-4.886900">
        <ele>929.064</ele>
        <time>2022-02-25T09:50:56Z</time>
      </trkpt>
      <trkpt lat="40.809450" lon="-4.887000">
        <ele>929.011</ele>
        <time>2022-02-25T09:51:36Z</time>
      </trkpt>
      <trkpt lat="40.809520" lon="-4.887170">
        <ele>929.085</ele>
        <time>2022-02-25T09:52:16Z</time>
      </trkpt>
      <trkpt lat="40.809880" lon="-4.887930">
        <ele>928.484</ele>
        <time>2022-02-25T09:52:56Z</time>
      </trkpt>
      <trkpt lat="40.810020" lon="-4.888210">
        <ele>928.073</ele>
        <time>2022-02-25T09:53:36Z</time>
      </trkpt>
      <trkpt lat="40.810290" lon="-4.888790">
        <ele>928.084</ele>
        <time>2022-02-25T09:54:16Z</time>
      </trkpt>
      <trkpt lat="40.810330" lon="-4.888900">
        <ele>928.095</ele>
        <time>2022-02-25T09:54:56Z</time>
      </trkpt>
      <trkpt lat="40.810520" lon="-4.889290">
        <ele>927.637</ele>
        <time>2022-02-25T09:55:36Z</time>
      </trkpt>
      <trkpt lat="40.810870" lon="-4.890070">
        <ele>927.053</ele>
        <time>2022-02-25T09:56:16Z</time>
      </trkpt>
      <trkpt lat="40.811250" lon="-4.890880">
        <ele>926.804</ele>
        <time>2022-02-25T09:56:56Z</time>
      </trkpt>
      <trkpt lat="40.811710" lon="-4.891860">
        <ele>926.014</ele>
        <time>2022-02-25T09:57:36Z</time>
      </trkpt>
      <trkpt lat="40.811800" lon="-4.892040">
        <ele>925.808</ele>
        <time>2022-02-25T09:58:16Z</time>
      </trkpt>
      <trkpt lat="40.811940" lon="-4.892350">
        <ele>925.084</ele>
        <time>2022-02-25T09:58:56Z</time>
      </trkpt>
      <trkpt lat="40.812170" lon="-4.892860">
        <ele>925.051</ele>
        <time>2022-02-25T09:59:36Z</time>
      </trkpt>
      <trkpt lat="40.812400" lon="-4.893350">
        <ele>925.025</ele>
        <time>2022-02-25T10:00:16Z</time>
      </trkpt>
      <trkpt lat="40.812510" lon="-4.893610">
        <ele>924.014</ele>
        <time>2022-02-25T10:00:56Z</time>
      </trkpt>
      <trkpt lat="40.812870" lon="-4.894380">
        <ele>924.013</ele>
        <time>2022-02-25T10:01:36Z</time>
      </trkpt>
      <trkpt lat="40.813520" lon="-4.895780">
        <ele>923.064</ele>
        <time>2022-02-25T10:02:16Z</time>
      </trkpt>
      <trkpt lat="40.814180" lon="-4.897180">
        <ele>922.085</ele>
        <time>2022-02-25T10:02:56Z</time>
      </trkpt>
      <trkpt lat="40.814930" lon="-4.898820">
        <ele>920.277</ele>
        <time>2022-02-25T10:03:36Z</time>
      </trkpt>
      <trkpt lat="40.814950" lon="-4.898860">
        <ele>920.124</ele>
        <time>2022-02-25T10:04:16Z</time>
      </trkpt>
      <trkpt lat="40.815170" lon="-4.899330">
        <ele>920.004</ele>
        <time>2022-02-25T10:04:56Z</time>
      </trkpt>
      <trkpt lat="40.815800" lon="-4.900680">
        <ele>920.014</ele>
        <time>2022-02-25T10:05:36Z</time>
      </trkpt>
      <trkpt lat="40.815890" lon="-4.900880">
        <ele>920.008</ele>
        <time>2022-02-25T10:06:16Z</time>
      </trkpt>
      <trkpt lat="40.816060" lon="-4.901250">
        <ele>920.051</ele>
        <time>2022-02-25T10:06:56Z</time>
      </trkpt>
      <trkpt lat="40.816710" lon="-4.902650">
        <ele>920.018</ele>
        <time>2022-02-25T10:07:36Z</time>
      </trkpt>
      <trkpt lat="40.816920" lon="-4.903110">
        <ele>920.032</ele>
        <time>2022-02-25T10:08:16Z</time>
      </trkpt>
      <trkpt lat="40.817180" lon="-4.903660">
        <ele>920.081</ele>
        <time>2022-02-25T10:08:56Z</time>
      </trkpt>
      <trkpt lat="40.817460" lon="-4.904260">
        <ele>920.030</ele>
        <time>2022-02-25T10:09:36Z</time>
      </trkpt>
      <trkpt lat="40.817800" lon="-4.904990">
        <ele>920.021</ele>
        <time>2022-02-25T10:10:16Z</time>
      </trkpt>
      <trkpt lat="40.818330" lon="-4.906110">
        <ele>920.012</ele>
        <time>2022-02-25T10:10:56Z</time>
      </trkpt>
      <trkpt lat="40.818970" lon="-4.907520">
        <ele>920.014</ele>
        <time>2022-02-25T10:11:36Z</time>
      </trkpt>
      <trkpt lat="40.819440" lon="-4.908520">
        <ele>920.087</ele>
        <time>2022-02-25T10:12:16Z</time>
      </trkpt>
      <trkpt lat="40.819460" lon="-4.908570">
        <ele>920.042</ele>
        <time>2022-02-25T10:12:56Z</time>
      </trkpt>
      <trkpt lat="40.819720" lon="-4.909130">
        <ele>920.026</ele>
        <time>2022-02-25T10:13:36Z</time>
      </trkpt>
      <trkpt lat="40.819730" lon="-4.909160">
        <ele>920.008</ele>
        <time>2022-02-25T10:14:16Z</time>
      </trkpt>
      <trkpt lat="40.820110" lon="-4.909950">
        <ele>921.817</ele>
        <time>2022-02-25T10:14:56Z</time>
      </trkpt>
      <trkpt lat="40.820290" lon="-4.910340">
        <ele>922.014</ele>
        <time>2022-02-25T10:15:36Z</time>
      </trkpt>
      <trkpt lat="40.820480" lon="-4.910750">
        <ele>922.068</ele>
        <time>2022-02-25T10:16:16Z</time>
      </trkpt>
      <trkpt lat="40.820860" lon="-4.911570">
        <ele>923.787</ele>
        <time>2022-02-25T10:16:56Z</time>
      </trkpt>
      <trkpt lat="40.822180" lon="-4.914410">
        <ele>927.076</ele>
        <time>2022-02-25T10:17:36Z</time>
      </trkpt>
      <trkpt lat="40.822310" lon="-4.914680">
        <ele>927.077</ele>
        <time>2022-02-25T10:18:16Z</time>
      </trkpt>
      <trkpt lat="40.822790" lon="-4.915730">
        <ele>928.018</ele>
        <time>2022-02-25T10:18:56Z</time>
      </trkpt>
      <trkpt lat="40.823180" lon="-4.916560">
        <ele>928.020</ele>
        <time>2022-02-25T10:19:36Z</time>
      </trkpt>
      <trkpt lat="40.823410" lon="-4.917050">
        <ele>929.044</ele>
        <time>2022-02-25T10:20:16Z</time>
      </trkpt>
      <trkpt lat="40.823460" lon="-4.917160">
        <ele>929.005</ele>
        <time>2022-02-25T10:20:56Z</time>
      </trkpt>
      <trkpt lat="40.823510" lon="-4.917270">
        <ele>929.015</ele>
        <time>2022-02-25T10:21:36Z</time>
      </trkpt>
      <trkpt lat="40.823640" lon="-4.917550">
        <ele>929.008</ele>
        <time>2022-02-25T10:22:16Z</time>
      </trkpt>
      <trkpt lat="40.823990" lon="-4.918310">
        <ele>929.983</ele>
        <time>2022-02-25T10:22:56Z</time>
      </trkpt>
      <trkpt lat="40.824120" lon="-4.918580">
        <ele>930.070</ele>
        <time>2022-02-25T10:23:36Z</time>
      </trkpt>
      <trkpt lat="40.824380" lon="-4.919160">
        <ele>930.254</ele>
        <time>2022-02-25T10:24:16Z</time>
      </trkpt>
      <trkpt lat="40.824530" lon="-4.919510">
        <ele>930.713</ele>
        <time>2022-02-25T10:24:56Z</time>
      </trkpt>
      <trkpt lat="40.824620" lon="-4.919740">
        <ele>930.462</ele>
        <time>2022-02-25T10:25:36Z</time>
      </trkpt>
      <trkpt lat="40.824740" lon="-4.920060">
        <ele>930.043</ele>
        <time>2022-02-25T10:26:16Z</time>
      </trkpt>
      <trkpt lat="40.824800" lon="-4.920250">
        <ele>930.044</ele>
        <time>2022-02-25T10:26:56Z</time>
      </trkpt>
      <trkpt lat="40.824880" lon="-4.920460">
        <ele>930.066</ele>
        <time>2022-02-25T10:27:36Z</time>
      </trkpt>
      <trkpt lat="40.825030" lon="-4.920890">
        <ele>930.252</ele>
        <time>2022-02-25T10:28:16Z</time>
      </trkpt>
      <trkpt lat="40.825290" lon="-4.921650">
        <ele>931.053</ele>
        <time>2022-02-25T10:28:56Z</time>
      </trkpt>
      <trkpt lat="40.825330" lon="-4.921750">
        <ele>931.408</ele>
        <time>2022-02-25T10:29:36Z</time>
      </trkpt>
      <trkpt lat="40.825410" lon="-4.921990">
        <ele>932.008</ele>
        <time>2022-02-25T10:30:16Z</time>
      </trkpt>
      <trkpt lat="40.825500" lon="-4.922280">
        <ele>932.244</ele>
        <time>2022-02-25T10:30:56Z</time>
      </trkpt>
      <trkpt lat="40.825630" lon="-4.922660">
        <ele>933.041</ele>
        <time>2022-02-25T10:31:36Z</time>
      </trkpt>
      <trkpt lat="40.825980" lon="-4.923660">
        <ele>934.785</ele>
        <time>2022-02-25T10:32:16Z</time>
      </trkpt>
      <trkpt lat="40.826210" lon="-4.924340">
        <ele>936.294</ele>
        <time>2022-02-25T10:32:56Z</time>
      </trkpt>
      <trkpt lat="40.826600" lon="-4.925450">
        <ele>937.943</ele>
        <time>2022-02-25T10:33:36Z</time>
      </trkpt>
      <trkpt lat="40.826920" lon="-4.926390">
        <ele>939.934</ele>
        <time>2022-02-25T10:34:16Z</time>
      </trkpt>
      <trkpt lat="40.826990" lon="-4.926610">
        <ele>940.015</ele>
        <time>2022-02-25T10:34:56Z</time>
      </trkpt>
      <trkpt lat="40.827220" lon="-4.927280">
        <ele>940.087</ele>
        <time>2022-02-25T10:35:36Z</time>
      </trkpt>
      <trkpt lat="40.827450" lon="-4.927910">
        <ele>940.097</ele>
        <time>2022-02-25T10:36:16Z</time>
      </trkpt>
      <trkpt lat="40.827570" lon="-4.928230">
        <ele>940.023</ele>
        <time>2022-02-25T10:36:56Z</time>
      </trkpt>
      <trkpt lat="40.827680" lon="-4.928480">
        <ele>940.025</ele>
        <time>2022-02-25T10:37:36Z</time>
      </trkpt>
      <trkpt lat="40.827790" lon="-4.928730">
        <ele>940.008</ele>
        <time>2022-02-25T10:38:16Z</time>
      </trkpt>
      <trkpt lat="40.827840" lon="-4.928850">
        <ele>940.028</ele>
        <time>2022-02-25T10:38:56Z</time>
      </trkpt>
      <trkpt lat="40.828110" lon="-4.929390">
        <ele>940.045</ele>
        <time>2022-02-25T10:39:36Z</time>
      </trkpt>
      <trkpt lat="40.828280" lon="-4.929740">
        <ele>940.059</ele>
        <time>2022-02-25T10:40:16Z</time>
      </trkpt>
      <trkpt lat="40.828550" lon="-4.930280">
        <ele>939.268</ele>
        <time>2022-02-25T10:40:56Z</time>
      </trkpt>
      <trkpt lat="40.829140" lon="-4.931520">
        <ele>937.287</ele>
        <time>2022-02-25T10:41:36Z</time>
      </trkpt>
      <trkpt lat="40.829150" lon="-4.931540">
        <ele>937.198</ele>
        <time>2022-02-25T10:42:16Z</time>
      </trkpt>
      <trkpt lat="40.829340" lon="-4.931940">
        <ele>937.489</ele>
        <time>2022-02-25T10:42:56Z</time>
      </trkpt>
      <trkpt lat="40.829650" lon="-4.932580">
        <ele>937.351</ele>
        <time>2022-02-25T10:43:36Z</time>
      </trkpt>
      <trkpt lat="40.829800" lon="-4.932910">
        <ele>937.343</ele>
        <time>2022-02-25T10:44:16Z</time>
      </trkpt>
      <trkpt lat="40.830310" lon="-4.933980">
        <ele>939.364</ele>
        <time>2022-02-25T10:44:56Z</time>
      </trkpt>
      <trkpt lat="40.830770" lon="-4.934960">
        <ele>941.910</ele>
        <time>2022-02-25T10:45:36Z</time>
      </trkpt>
      <trkpt lat="40.830980" lon="-4.935390">
        <ele>942.708</ele>
        <time>2022-02-25T10:46:16Z</time>
      </trkpt>
      <trkpt lat="40.831310" lon="-4.936080">
        <ele>943.383</ele>
        <time>2022-02-25T10:46:56Z</time>
      </trkpt>
      <trkpt lat="40.831850" lon="-4.937210">
        <ele>946.060</ele>
        <time>2022-02-25T10:47:36Z</time>
      </trkpt>
      <trkpt lat="40.831970" lon="-4.937460">
        <ele>947.014</ele>
        <time>2022-02-25T10:48:16Z</time>
      </trkpt>
      <trkpt lat="40.832310" lon="-4.938200">
        <ele>949.723</ele>
        <time>2022-02-25T10:48:56Z</time>
      </trkpt>
      <trkpt lat="40.832700" lon="-4.939000">
        <ele>950.072</ele>
        <time>2022-02-25T10:49:36Z</time>
      </trkpt>
      <trkpt lat="40.833030" lon="-4.939680">
        <ele>950.053</ele>
        <time>2022-02-25T10:50:16Z</time>
      </trkpt>
      <trkpt lat="40.833090" lon="-4.939800">
        <ele>949.644</ele>
        <time>2022-02-25T10:50:56Z</time>
      </trkpt>
      <trkpt lat="40.833190" lon="-4.940000">
        <ele>948.516</ele>
        <time>2022-02-25T10:51:36Z</time>
      </trkpt>
      <trkpt lat="40.833480" lon="-4.940600">
        <ele>948.642</ele>
        <time>2022-02-25T10:52:16Z</time>
      </trkpt>
      <trkpt lat="40.833540" lon="-4.940720">
        <ele>948.722</ele>
        <time>2022-02-25T10:52:56Z</time>
      </trkpt>
      <trkpt lat="40.833920" lon="-4.941520">
        <ele>947.914</ele>
        <time>2022-02-25T10:53:36Z</time>
      </trkpt>
      <trkpt lat="40.834860" lon="-4.943500">
        <ele>951.108</ele>
        <time>2022-02-25T10:54:16Z</time>
      </trkpt>
      <trkpt lat="40.834920" lon="-4.943630">
        <ele>951.423</ele>
        <time>2022-02-25T10:54:56Z</time>
      </trkpt>
      <trkpt lat="40.835210" lon="-4.944240">
        <ele>951.540</ele>
        <time>2022-02-25T10:55:36Z</time>
      </trkpt>
      <trkpt lat="40.835590" lon="-4.945040">
        <ele>954.514</ele>
        <time>2022-02-25T10:56:16Z</time>
      </trkpt>
      <trkpt lat="40.836050" lon="-4.946020">
        <ele>958.973</ele>
        <time>2022-02-25T10:56:56Z</time>
      </trkpt>
      <trkpt lat="40.836140" lon="-4.946200">
        <ele>959.192</ele>
        <time>2022-02-25T10:57:36Z</time>
      </trkpt>
      <trkpt lat="40.836230" lon="-4.946380">
        <ele>959.413</ele>
        <time>2022-02-25T10:58:16Z</time>
      </trkpt>
      <trkpt lat="40.836360" lon="-4.946600">
        <ele>960.024</ele>
        <time>2022-02-25T10:58:56Z</time>
      </trkpt>
      <trkpt lat="40.836440" lon="-4.946730">
        <ele>959.856</ele>
        <time>2022-02-25T10:59:36Z</time>
      </trkpt>
      <trkpt lat="40.836500" lon="-4.946800">
        <ele>959.553</ele>
        <time>2022-02-25T11:00:16Z</time>
      </trkpt>
      <trkpt lat="40.836570" lon="-4.946900">
        <ele>959.204</ele>
        <time>2022-02-25T11:00:56Z</time>
      </trkpt>
      <trkpt lat="40.836740" lon="-4.947100">
        <ele>959.014</ele>
        <time>2022-02-25T11:01:36Z</time>
      </trkpt>
      <trkpt lat="40.836930" lon="-4.947310">
        <ele>959.008</ele>
        <time>2022-02-25T11:02:16Z</time>
      </trkpt>
      <trkpt lat="40.837230" lon="-4.947630">
        <ele>958.554</ele>
        <time>2022-02-25T11:02:56Z</time>
      </trkpt>
      <trkpt lat="40.837460" lon="-4.947870">
        <ele>956.911</ele>
        <time>2022-02-25T11:03:36Z</time>
      </trkpt>
      <trkpt lat="40.837620" lon="-4.948040">
        <ele>955.215</ele>
        <time>2022-02-25T11:04:16Z</time>
      </trkpt>
      <trkpt lat="40.838100" lon="-4.948540">
        <ele>950.834</ele>
        <time>2022-02-25T11:04:56Z</time>
      </trkpt>
      <trkpt lat="40.838420" lon="-4.948870">
        <ele>950.653</ele>
        <time>2022-02-25T11:05:36Z</time>
      </trkpt>
      <trkpt lat="40.838760" lon="-4.949240">
        <ele>950.314</ele>
        <time>2022-02-25T11:06:16Z</time>
      </trkpt>
      <trkpt lat="40.839010" lon="-4.949510">
        <ele>950.785</ele>
        <time>2022-02-25T11:06:56Z</time>
      </trkpt>
      <trkpt lat="40.839060" lon="-4.949560">
        <ele>950.617</ele>
        <time>2022-02-25T11:07:36Z</time>
      </trkpt>
      <trkpt lat="40.839150" lon="-4.949660">
        <ele>950.898</ele>
        <time>2022-02-25T11:08:16Z</time>
      </trkpt>
      <trkpt lat="40.839540" lon="-4.950100">
        <ele>951.215</ele>
        <time>2022-02-25T11:08:56Z</time>
      </trkpt>
      <trkpt lat="40.839560" lon="-4.950120">
        <ele>951.326</ele>
        <time>2022-02-25T11:09:36Z</time>
      </trkpt>
      <trkpt lat="40.840000" lon="-4.950600">
        <ele>951.208</ele>
        <time>2022-02-25T11:10:16Z</time>
      </trkpt>
      <trkpt lat="40.840110" lon="-4.950720">
        <ele>951.288</ele>
        <time>2022-02-25T11:10:56Z</time>
      </trkpt>
      <trkpt lat="40.840640" lon="-4.951310">
        <ele>952.745</ele>
        <time>2022-02-25T11:11:36Z</time>
      </trkpt>
      <trkpt lat="40.841080" lon="-4.951780">
        <ele>954.059</ele>
        <time>2022-02-25T11:12:16Z</time>
      </trkpt>
      <trkpt lat="40.842730" lon="-4.953550">
        <ele>953.828</ele>
        <time>2022-02-25T11:12:56Z</time>
      </trkpt>
      <trkpt lat="40.842930" lon="-4.953780">
        <ele>953.557</ele>
        <time>2022-02-25T11:13:36Z</time>
      </trkpt>
      <trkpt lat="40.843370" lon="-4.954250">
        <ele>953.368</ele>
        <time>2022-02-25T11:14:16Z</time>
      </trkpt>
      <trkpt lat="40.844670" lon="-4.955660">
        <ele>952.459</ele>
        <time>2022-02-25T11:14:56Z</time>
      </trkpt>
      <trkpt lat="40.844780" lon="-4.955780">
        <ele>953.221</ele>
        <time>2022-02-25T11:15:36Z</time>
      </trkpt>
      <trkpt lat="40.845360" lon="-4.956420">
        <ele>958.423</ele>
        <time>2022-02-25T11:16:16Z</time>
      </trkpt>
      <trkpt lat="40.845400" lon="-4.956460">
        <ele>958.783</ele>
        <time>2022-02-25T11:16:56Z</time>
      </trkpt>
      <trkpt lat="40.845980" lon="-4.957090">
        <ele>961.611</ele>
        <time>2022-02-25T11:17:36Z</time>
      </trkpt>
      <trkpt lat="40.846150" lon="-4.957300">
        <ele>963.208</ele>
        <time>2022-02-25T11:18:16Z</time>
      </trkpt>
      <trkpt lat="40.846190" lon="-4.957340">
        <ele>963.391</ele>
        <time>2022-02-25T11:18:56Z</time>
      </trkpt>
      <trkpt lat="40.846320" lon="-4.957510">
        <ele>963.338</ele>
        <time>2022-02-25T11:19:36Z</time>
      </trkpt>
      <trkpt lat="40.846430" lon="-4.957680">
        <ele>963.692</ele>
        <time>2022-02-25T11:20:16Z</time>
      </trkpt>
      <trkpt lat="40.846520" lon="-4.957830">
        <ele>963.681</ele>
        <time>2022-02-25T11:20:56Z</time>
      </trkpt>
      <trkpt lat="40.846620" lon="-4.958000">
        <ele>963.840</ele>
        <time>2022-02-25T11:21:36Z</time>
      </trkpt>
      <trkpt lat="40.846770" lon="-4.958270">
        <ele>963.691</ele>
        <time>2022-02-25T11:22:16Z</time>
      </trkpt>
      <trkpt lat="40.847060" lon="-4.958850">
        <ele>963.542</ele>
        <time>2022-02-25T11:22:56Z</time>
      </trkpt>
      <trkpt lat="40.847260" lon="-4.959250">
        <ele>963.984</ele>
        <time>2022-02-25T11:23:36Z</time>
      </trkpt>
      <trkpt lat="40.847630" lon="-4.960000">
        <ele>963.575</ele>
        <time>2022-02-25T11:24:16Z</time>
      </trkpt>
      <trkpt lat="40.847730" lon="-4.960180">
        <ele>963.228</ele>
        <time>2022-02-25T11:24:56Z</time>
      </trkpt>
      <trkpt lat="40.847880" lon="-4.960490">
        <ele>962.620</ele>
        <time>2022-02-25T11:25:36Z</time>
      </trkpt>
      <trkpt lat="40.848270" lon="-4.961290">
        <ele>961.208</ele>
        <time>2022-02-25T11:26:16Z</time>
      </trkpt>
      <trkpt lat="40.848560" lon="-4.961900">
        <ele>961.026</ele>
        <time>2022-02-25T11:26:56Z</time>
      </trkpt>
      <trkpt lat="40.848690" lon="-4.962140">
        <ele>960.793</ele>
        <time>2022-02-25T11:27:36Z</time>
      </trkpt>
      <trkpt lat="40.848700" lon="-4.962170">
        <ele>960.747</ele>
        <time>2022-02-25T11:28:16Z</time>
      </trkpt>
      <trkpt lat="40.848960" lon="-4.962510">
        <ele>960.076</ele>
        <time>2022-02-25T11:28:56Z</time>
      </trkpt>
      <trkpt lat="40.848970" lon="-4.962510">
        <ele>960.075</ele>
        <time>2022-02-25T11:29:36Z</time>
      </trkpt>
      <trkpt lat="40.848980" lon="-4.962510">
        <ele>960.026</ele>
        <time>2022-02-25T11:30:16Z</time>
      </trkpt>
      <trkpt lat="40.848980" lon="-4.962520">
        <ele>960.067</ele>
        <time>2022-02-25T11:30:56Z</time>
      </trkpt>
      <trkpt lat="40.848990" lon="-4.962520">
        <ele>960.029</ele>
        <time>2022-02-25T11:31:36Z</time>
      </trkpt>
      <trkpt lat="40.849000" lon="-4.962520">
        <ele>960.049</ele>
        <time>2022-02-25T11:32:16Z</time>
      </trkpt>
      <trkpt lat="40.849000" lon="-4.962530">
        <ele>960.002</ele>
        <time>2022-02-25T11:32:56Z</time>
      </trkpt>
      <trkpt lat="40.849010" lon="-4.962530">
        <ele>960.022</ele>
        <time>2022-02-25T11:33:36Z</time>
      </trkpt>
      <trkpt lat="40.849020" lon="-4.962540">
        <ele>960.008</ele>
        <time>2022-02-25T11:34:16Z</time>
      </trkpt>
      <trkpt lat="40.849030" lon="-4.962540">
        <ele>960.043</ele>
        <time>2022-02-25T11:34:56Z</time>
      </trkpt>
      <trkpt lat="40.849030" lon="-4.962550">
        <ele>960.070</ele>
        <time>2022-02-25T11:35:36Z</time>
      </trkpt>
      <trkpt lat="40.849030" lon="-4.962560">
        <ele>960.074</ele>
        <time>2022-02-25T11:36:16Z</time>
      </trkpt>
      <trkpt lat="40.849040" lon="-4.962560">
        <ele>960.053</ele>
        <time>2022-02-25T11:36:56Z</time>
      </trkpt>
      <trkpt lat="40.849040" lon="-4.962570">
        <ele>960.022</ele>
        <time>2022-02-25T11:37:36Z</time>
      </trkpt>
      <trkpt lat="40.849050" lon="-4.962570">
        <ele>960.093</ele>
        <time>2022-02-25T11:38:16Z</time>
      </trkpt>
      <trkpt lat="40.849050" lon="-4.962580">
        <ele>960.054</ele>
        <time>2022-02-25T11:38:56Z</time>
      </trkpt>
      <trkpt lat="40.849050" lon="-4.962590">
        <ele>960.086</ele>
        <time>2022-02-25T11:39:36Z</time>
      </trkpt>
      <trkpt lat="40.849060" lon="-4.962600">
        <ele>960.053</ele>
        <time>2022-02-25T11:40:16Z</time>
      </trkpt>
      <trkpt lat="40.849060" lon="-4.962610">
        <ele>960.004</ele>
        <time>2022-02-25T11:40:56Z</time>
      </trkpt>
      <trkpt lat="40.849060" lon="-4.962620">
        <ele>960.014</ele>
        <time>2022-02-25T11:41:36Z</time>
      </trkpt>
      <trkpt lat="40.849070" lon="-4.962630">
        <ele>960.008</ele>
        <time>2022-02-25T11:42:16Z</time>
      </trkpt>
      <trkpt lat="40.849070" lon="-4.962640">
        <ele>960.044</ele>
        <time>2022-02-25T11:42:56Z</time>
      </trkpt>
      <trkpt lat="40.849070" lon="-4.962650">
        <ele>960.051</ele>
        <time>2022-02-25T11:43:36Z</time>
      </trkpt>
      <trkpt lat="40.849070" lon="-4.962660">
        <ele>960.075</ele>
        <time>2022-02-25T11:44:16Z</time>
      </trkpt>
      <trkpt lat="40.849070" lon="-4.962670">
        <ele>960.024</ele>
        <time>2022-02-25T11:44:56Z</time>
      </trkpt>
      <trkpt lat="40.849070" lon="-4.962680">
        <ele>960.033</ele>
        <time>2022-02-25T11:45:36Z</time>
      </trkpt>
      <trkpt lat="40.849070" lon="-4.962690">
        <ele>960.064</ele>
        <time>2022-02-25T11:46:16Z</time>
      </trkpt>
      <trkpt lat="40.849060" lon="-4.962700">
        <ele>960.075</ele>
        <time>2022-02-25T11:46:56Z</time>
      </trkpt>
      <trkpt lat="40.849060" lon="-4.962710">
        <ele>960.057</ele>
        <time>2022-02-25T11:47:36Z</time>
      </trkpt>
      <trkpt lat="40.849060" lon="-4.962720">
        <ele>960.085</ele>
        <time>2022-02-25T11:48:16Z</time>
      </trkpt>
      <trkpt lat="40.849060" lon="-4.962730">
        <ele>960.089</ele>
        <time>2022-02-25T11:48:56Z</time>
      </trkpt>
      <trkpt lat="40.849050" lon="-4.962740">
        <ele>960.017</ele>
        <time>2022-02-25T11:49:36Z</time>
      </trkpt>
      <trkpt lat="40.849140" lon="-4.962980">
        <ele>960.008</ele>
        <time>2022-02-25T11:50:16Z</time>
      </trkpt>
      <trkpt lat="40.849250" lon="-4.963260">
        <ele>960.057</ele>
        <time>2022-02-25T11:50:56Z</time>
      </trkpt>
      <trkpt lat="40.849410" lon="-4.963570">
        <ele>960.014</ele>
        <time>2022-02-25T11:51:36Z</time>
      </trkpt>
      <trkpt lat="40.850000" lon="-4.964720">
        <ele>960.068</ele>
        <time>2022-02-25T11:52:16Z</time>
      </trkpt>
      <trkpt lat="40.850300" lon="-4.965310">
        <ele>960.057</ele>
        <time>2022-02-25T11:52:56Z</time>
      </trkpt>
      <trkpt lat="40.850440" lon="-4.965580">
        <ele>960.026</ele>
        <time>2022-02-25T11:53:36Z</time>
      </trkpt>
      <trkpt lat="40.850470" lon="-4.965640">
        <ele>960.017</ele>
        <time>2022-02-25T11:54:16Z</time>
      </trkpt>
      <trkpt lat="40.850960" lon="-4.966610">
        <ele>960.938</ele>
        <time>2022-02-25T11:54:56Z</time>
      </trkpt>
      <trkpt lat="40.850970" lon="-4.966630">
        <ele>960.990</ele>
        <time>2022-02-25T11:55:36Z</time>
      </trkpt>
      <trkpt lat="40.851270" lon="-4.967230">
        <ele>961.057</ele>
        <time>2022-02-25T11:56:16Z</time>
      </trkpt>
      <trkpt lat="40.851350" lon="-4.967400">
        <ele>961.000</ele>
        <time>2022-02-25T11:56:56Z</time>
      </trkpt>
      <trkpt lat="40.851950" lon="-4.968590">
        <ele>960.020</ele>
        <time>2022-02-25T11:57:36Z</time>
      </trkpt>
      <trkpt lat="40.852420" lon="-4.969530">
        <ele>959.508</ele>
        <time>2022-02-25T11:58:16Z</time>
      </trkpt>
      <trkpt lat="40.853020" lon="-4.970750">
        <ele>958.134</ele>
        <time>2022-02-25T11:58:56Z</time>
      </trkpt>
      <trkpt lat="40.853300" lon="-4.971320">
        <ele>957.121</ele>
        <time>2022-02-25T11:59:36Z</time>
      </trkpt>
      <trkpt lat="40.853900" lon="-4.972540">
        <ele>958.055</ele>
        <time>2022-02-25T12:00:16Z</time>
      </trkpt>
      <trkpt lat="40.854540" lon="-4.973860">
        <ele>958.784</ele>
        <time>2022-02-25T12:00:56Z</time>
      </trkpt>
      <trkpt lat="40.854830" lon="-4.974450">
        <ele>958.683</ele>
        <time>2022-02-25T12:01:36Z</time>
      </trkpt>
      <trkpt lat="40.855200" lon="-4.975190">
        <ele>959.034</ele>
        <time>2022-02-25T12:02:16Z</time>
      </trkpt>
      <trkpt lat="40.855890" lon="-4.976580">
        <ele>959.015</ele>
        <time>2022-02-25T12:02:56Z</time>
      </trkpt>
      <trkpt lat="40.856670" lon="-4.978150">
        <ele>959.387</ele>
        <time>2022-02-25T12:03:36Z</time>
      </trkpt>
      <trkpt lat="40.856680" lon="-4.978170">
        <ele>959.391</ele>
        <time>2022-02-25T12:04:16Z</time>
      </trkpt>
      <trkpt lat="40.857300" lon="-4.979410">
        <ele>955.781</ele>
        <time>2022-02-25T12:04:56Z</time>
      </trkpt>
      <trkpt lat="40.857680" lon="-4.980150">
        <ele>955.019</ele>
        <time>2022-02-25T12:05:36Z</time>
      </trkpt>
      <trkpt lat="40.857930" lon="-4.980690">
        <ele>954.508</ele>
        <time>2022-02-25T12:06:16Z</time>
      </trkpt>
      <trkpt lat="40.858250" lon="-4.981320">
        <ele>954.378</ele>
        <time>2022-02-25T12:06:56Z</time>
      </trkpt>
      <trkpt lat="40.858530" lon="-4.981820">
        <ele>954.235</ele>
        <time>2022-02-25T12:07:36Z</time>
      </trkpt>
      <trkpt lat="40.858590" lon="-4.981930">
        <ele>954.119</ele>
        <time>2022-02-25T12:08:16Z</time>
      </trkpt>
      <trkpt lat="40.858860" lon="-4.982460">
        <ele>953.178</ele>
        <time>2022-02-25T12:08:56Z</time>
      </trkpt>
      <trkpt lat="40.859030" lon="-4.982830">
        <ele>952.487</ele>
        <time>2022-02-25T12:09:36Z</time>
      </trkpt>
      <trkpt lat="40.859070" lon="-4.982930">
        <ele>952.288</ele>
        <time>2022-02-25T12:10:16Z</time>
      </trkpt>
      <trkpt lat="40.859150" lon="-4.983100">
        <ele>952.079</ele>
        <time>2022-02-25T12:10:56Z</time>
      </trkpt>
      <trkpt lat="40.859340" lon="-4.983540">
        <ele>951.161</ele>
        <time>2022-02-25T12:11:36Z</time>
      </trkpt>
      <trkpt lat="40.859430" lon="-4.983750">
        <ele>950.585</ele>
        <time>2022-02-25T12:12:16Z</time>
      </trkpt>
      <trkpt lat="40.859450" lon="-4.983800">
        <ele>950.389</ele>
        <time>2022-02-25T12:12:56Z</time>
      </trkpt>
      <trkpt lat="40.859600" lon="-4.984150">
        <ele>950.017</ele>
        <time>2022-02-25T12:13:36Z</time>
      </trkpt>
      <trkpt lat="40.859720" lon="-4.984570">
        <ele>950.008</ele>
        <time>2022-02-25T12:14:16Z</time>
      </trkpt>
      <trkpt lat="40.860160" lon="-4.986230">
        <ele>935.687</ele>
        <time>2022-02-25T12:14:56Z</time>
      </trkpt>
      <trkpt lat="40.860210" lon="-4.986460">
        <ele>934.564</ele>
        <time>2022-02-25T12:15:36Z</time>
      </trkpt>
      <trkpt lat="40.860450" lon="-4.987370">
        <ele>931.588</ele>
        <time>2022-02-25T12:16:16Z</time>
      </trkpt>
      <trkpt lat="40.860510" lon="-4.987590">
        <ele>929.727</ele>
        <time>2022-02-25T12:16:56Z</time>
      </trkpt>
      <trkpt lat="40.860580" lon="-4.987860">
        <ele>927.196</ele>
        <time>2022-02-25T12:17:36Z</time>
      </trkpt>
      <trkpt lat="40.860720" lon="-4.988280">
        <ele>923.637</ele>
        <time>2022-02-25T12:18:16Z</time>
      </trkpt>
      <trkpt lat="40.860810" lon="-4.988510">
        <ele>921.988</ele>
        <time>2022-02-25T12:18:56Z</time>
      </trkpt>
      <trkpt lat="40.860870" lon="-4.988670">
        <ele>920.650</ele>
        <time>2022-02-25T12:19:36Z</time>
      </trkpt>
      <trkpt lat="40.860930" lon="-4.988810">
        <ele>919.657</ele>
        <time>2022-02-25T12:20:16Z</time>
      </trkpt>
      <trkpt lat="40.861000" lon="-4.988960">
        <ele>919.000</ele>
        <time>2022-02-25T12:20:56Z</time>
      </trkpt>
      <trkpt lat="40.861080" lon="-4.989130">
        <ele>919.020</ele>
        <time>2022-02-25T12:21:36Z</time>
      </trkpt>
      <trkpt lat="40.861160" lon="-4.989290">
        <ele>918.608</ele>
        <time>2022-02-25T12:22:16Z</time>
      </trkpt>
      <trkpt lat="40.861270" lon="-4.989460">
        <ele>918.084</ele>
        <time>2022-02-25T12:22:56Z</time>
      </trkpt>
      <trkpt lat="40.861290" lon="-4.989490">
        <ele>918.061</ele>
        <time>2022-02-25T12:23:36Z</time>
      </trkpt>
      <trkpt lat="40.861380" lon="-4.989640">
        <ele>918.035</ele>
        <time>2022-02-25T12:24:16Z</time>
      </trkpt>
      <trkpt lat="40.861480" lon="-4.989800">
        <ele>918.054</ele>
        <time>2022-02-25T12:24:56Z</time>
      </trkpt>
      <trkpt lat="40.861500" lon="-4.989820">
        <ele>918.033</ele>
        <time>2022-02-25T12:25:36Z</time>
      </trkpt>
      <trkpt lat="40.861650" lon="-4.990050">
        <ele>917.814</ele>
        <time>2022-02-25T12:26:16Z</time>
      </trkpt>
      <trkpt lat="40.861860" lon="-4.990360">
        <ele>917.475</ele>
        <time>2022-02-25T12:26:56Z</time>
      </trkpt>
      <trkpt lat="40.862330" lon="-4.991060">
        <ele>915.247</ele>
        <time>2022-02-25T12:27:36Z</time>
      </trkpt>
      <trkpt lat="40.863050" lon="-4.992130">
        <ele>911.059</ele>
        <time>2022-02-25T12:28:16Z</time>
      </trkpt>
      <trkpt lat="40.863170" lon="-4.992310">
        <ele>910.703</ele>
        <time>2022-02-25T12:28:56Z</time>
      </trkpt>
      <trkpt lat="40.863430" lon="-4.992690">
        <ele>910.023</ele>
        <time>2022-02-25T12:29:36Z</time>
      </trkpt>
      <trkpt lat="40.863530" lon="-4.992830">
        <ele>910.008</ele>
        <time>2022-02-25T12:30:16Z</time>
      </trkpt>
      <trkpt lat="40.863910" lon="-4.993370">
        <ele>910.044</ele>
        <time>2022-02-25T12:30:56Z</time>
      </trkpt>
      <trkpt lat="40.864020" lon="-4.993530">
        <ele>910.061</ele>
        <time>2022-02-25T12:31:36Z</time>
      </trkpt>
      <trkpt lat="40.864260" lon="-4.993890">
        <ele>910.085</ele>
        <time>2022-02-25T12:32:16Z</time>
      </trkpt>
      <trkpt lat="40.864500" lon="-4.994240">
        <ele>910.024</ele>
        <time>2022-02-25T12:32:56Z</time>
      </trkpt>
      <trkpt lat="40.864500" lon="-4.994250">
        <ele>910.013</ele>
        <time>2022-02-25T12:33:36Z</time>
      </trkpt>
      <trkpt lat="40.864620" lon="-4.994420">
        <ele>910.034</ele>
        <time>2022-02-25T12:34:16Z</time>
      </trkpt>
      <trkpt lat="40.864810" lon="-4.994690">
        <ele>910.025</ele>
        <time>2022-02-25T12:34:56Z</time>
      </trkpt>
      <trkpt lat="40.864860" lon="-4.994770">
        <ele>910.077</ele>
        <time>2022-02-25T12:35:36Z</time>
      </trkpt>
      <trkpt lat="40.865090" lon="-4.995130">
        <ele>910.534</ele>
        <time>2022-02-25T12:36:16Z</time>
      </trkpt>
      <trkpt lat="40.865270" lon="-4.995410">
        <ele>911.555</ele>
        <time>2022-02-25T12:36:56Z</time>
      </trkpt>
      <trkpt lat="40.865440" lon="-4.995700">
        <ele>913.010</ele>
        <time>2022-02-25T12:37:36Z</time>
      </trkpt>
      <trkpt lat="40.865550" lon="-4.995910">
        <ele>914.308</ele>
        <time>2022-02-25T12:38:16Z</time>
      </trkpt>
      <trkpt lat="40.865580" lon="-4.995980">
        <ele>914.572</ele>
        <time>2022-02-25T12:38:56Z</time>
      </trkpt>
      <trkpt lat="40.865650" lon="-4.996120">
        <ele>915.129</ele>
        <time>2022-02-25T12:39:36Z</time>
      </trkpt>
      <trkpt lat="40.865740" lon="-4.996320">
        <ele>916.053</ele>
        <time>2022-02-25T12:40:16Z</time>
      </trkpt>
      <trkpt lat="40.865880" lon="-4.996660">
        <ele>917.572</ele>
        <time>2022-02-25T12:40:56Z</time>
      </trkpt>
      <trkpt lat="40.865910" lon="-4.996740">
        <ele>917.421</ele>
        <time>2022-02-25T12:41:36Z</time>
      </trkpt>
      <trkpt lat="40.866060" lon="-4.997180">
        <ele>917.452</ele>
        <time>2022-02-25T12:42:16Z</time>
      </trkpt>
      <trkpt lat="40.866140" lon="-4.997420">
        <ele>917.043</ele>
        <time>2022-02-25T12:42:56Z</time>
      </trkpt>
      <trkpt lat="40.866170" lon="-4.997500">
        <ele>917.015</ele>
        <time>2022-02-25T12:43:36Z</time>
      </trkpt>
      <trkpt lat="40.866230" lon="-4.997750">
        <ele>917.573</ele>
        <time>2022-02-25T12:44:16Z</time>
      </trkpt>
      <trkpt lat="40.866540" lon="-4.998900">
        <ele>920.085</ele>
        <time>2022-02-25T12:44:56Z</time>
      </trkpt>
      <trkpt lat="40.866630" lon="-4.999230">
        <ele>920.013</ele>
        <time>2022-02-25T12:45:36Z</time>
      </trkpt>
      <trkpt lat="40.867060" lon="-5.000830">
        <ele>922.008</ele>
        <time>2022-02-25T12:46:16Z</time>
      </trkpt>
      <trkpt lat="40.867610" lon="-5.002880">
        <ele>925.486</ele>
        <time>2022-02-25T12:46:56Z</time>
      </trkpt>
      <trkpt lat="40.867680" lon="-5.003130">
        <ele>926.163</ele>
        <time>2022-02-25T12:47:36Z</time>
      </trkpt>
      <trkpt lat="40.867680" lon="-5.003150">
        <ele>926.127</ele>
        <time>2022-02-25T12:48:16Z</time>
      </trkpt>
      <trkpt lat="40.867870" lon="-5.003880">
        <ele>927.086</ele>
        <time>2022-02-25T12:48:56Z</time>
      </trkpt>
      <trkpt lat="40.868010" lon="-5.004490">
        <ele>928.365</ele>
        <time>2022-02-25T12:49:36Z</time>
      </trkpt>
      <trkpt lat="40.868050" lon="-5.004700">
        <ele>928.966</ele>
        <time>2022-02-25T12:50:16Z</time>
      </trkpt>
      <trkpt lat="40.868070" lon="-5.004930">
        <ele>929.797</ele>
        <time>2022-02-25T12:50:56Z</time>
      </trkpt>
      <trkpt lat="40.868110" lon="-5.005260">
        <ele>930.029</ele>
        <time>2022-02-25T12:51:36Z</time>
      </trkpt>
      <trkpt lat="40.868130" lon="-5.005670">
        <ele>930.028</ele>
        <time>2022-02-25T12:52:16Z</time>
      </trkpt>
      <trkpt lat="40.868130" lon="-5.005940">
        <ele>930.089</ele>
        <time>2022-02-25T12:52:56Z</time>
      </trkpt>
      <trkpt lat="40.868120" lon="-5.006300">
        <ele>930.017</ele>
        <time>2022-02-25T12:53:36Z</time>
      </trkpt>
      <trkpt lat="40.868110" lon="-5.006360">
        <ele>930.008</ele>
        <time>2022-02-25T12:54:16Z</time>
      </trkpt>
      <trkpt lat="40.868080" lon="-5.006740">
        <ele>930.081</ele>
        <time>2022-02-25T12:54:56Z</time>
      </trkpt>
      <trkpt lat="40.868030" lon="-5.007190">
        <ele>930.118</ele>
        <time>2022-02-25T12:55:36Z</time>
      </trkpt>
      <trkpt lat="40.868010" lon="-5.007410">
        <ele>930.212</ele>
        <time>2022-02-25T12:56:16Z</time>
      </trkpt>
      <trkpt lat="40.867990" lon="-5.007540">
        <ele>930.261</ele>
        <time>2022-02-25T12:56:56Z</time>
      </trkpt>
      <trkpt lat="40.867910" lon="-5.008220">
        <ele>930.580</ele>
        <time>2022-02-25T12:57:36Z</time>
      </trkpt>
      <trkpt lat="40.867860" lon="-5.008750">
        <ele>930.781</ele>
        <time>2022-02-25T12:58:16Z</time>
      </trkpt>
      <trkpt lat="40.867840" lon="-5.009380">
        <ele>930.872</ele>
        <time>2022-02-25T12:58:56Z</time>
      </trkpt>
      <trkpt lat="40.867880" lon="-5.010000">
        <ele>930.654</ele>
        <time>2022-02-25T12:59:36Z</time>
      </trkpt>
      <trkpt lat="40.867910" lon="-5.010260">
        <ele>930.091</ele>
        <time>2022-02-25T13:00:16Z</time>
      </trkpt>
      <trkpt lat="40.867920" lon="-5.010410">
        <ele>930.081</ele>
        <time>2022-02-25T13:00:56Z</time>
      </trkpt>
      <trkpt lat="40.867950" lon="-5.010600">
        <ele>930.019</ele>
        <time>2022-02-25T13:01:36Z</time>
      </trkpt>
      <trkpt lat="40.867970" lon="-5.010760">
        <ele>930.008</ele>
        <time>2022-02-25T13:02:16Z</time>
      </trkpt>
      <trkpt lat="40.868040" lon="-5.011040">
        <ele>930.028</ele>
        <time>2022-02-25T13:02:56Z</time>
      </trkpt>
      <trkpt lat="40.868080" lon="-5.011180">
        <ele>930.075</ele>
        <time>2022-02-25T13:03:36Z</time>
      </trkpt>
      <trkpt lat="40.868230" lon="-5.011740">
        <ele>930.029</ele>
        <time>2022-02-25T13:04:16Z</time>
      </trkpt>
      <trkpt lat="40.868240" lon="-5.011800">
        <ele>930.068</ele>
        <time>2022-02-25T13:04:56Z</time>
      </trkpt>
      <trkpt lat="40.868350" lon="-5.012180">
        <ele>931.057</ele>
        <time>2022-02-25T13:05:36Z</time>
      </trkpt>
      <trkpt lat="40.868390" lon="-5.012300">
        <ele>931.948</ele>
        <time>2022-02-25T13:06:16Z</time>
      </trkpt>
      <trkpt lat="40.868420" lon="-5.012400">
        <ele>932.639</ele>
        <time>2022-02-25T13:06:56Z</time>
      </trkpt>
      <trkpt lat="40.868470" lon="-5.012590">
        <ele>933.861</ele>
        <time>2022-02-25T13:07:36Z</time>
      </trkpt>
      <trkpt lat="40.868480" lon="-5.012620">
        <ele>934.044</ele>
        <time>2022-02-25T13:08:16Z</time>
      </trkpt>
      <trkpt lat="40.868820" lon="-5.013720">
        <ele>939.905</ele>
        <time>2022-02-25T13:08:56Z</time>
      </trkpt>
      <trkpt lat="40.868930" lon="-5.014060">
        <ele>942.015</ele>
        <time>2022-02-25T13:09:36Z</time>
      </trkpt>
      <trkpt lat="40.869010" lon="-5.014340">
        <ele>943.508</ele>
        <time>2022-02-25T13:10:16Z</time>
      </trkpt>
      <trkpt lat="40.869030" lon="-5.014380">
        <ele>943.893</ele>
        <time>2022-02-25T13:10:56Z</time>
      </trkpt>
      <trkpt lat="40.869100" lon="-5.014600">
        <ele>944.710</ele>
        <time>2022-02-25T13:11:36Z</time>
      </trkpt>
      <trkpt lat="40.869200" lon="-5.014900">
        <ele>945.614</ele>
        <time>2022-02-25T13:12:16Z</time>
      </trkpt>
      <trkpt lat="40.869220" lon="-5.014930">
        <ele>945.653</ele>
        <time>2022-02-25T13:12:56Z</time>
      </trkpt>
      <trkpt lat="40.869460" lon="-5.015480">
        <ele>945.992</ele>
        <time>2022-02-25T13:13:36Z</time>
      </trkpt>
      <trkpt lat="40.869540" lon="-5.015640">
        <ele>945.483</ele>
        <time>2022-02-25T13:14:16Z</time>
      </trkpt>
      <trkpt lat="40.869590" lon="-5.015740">
        <ele>945.324</ele>
        <time>2022-02-25T13:14:56Z</time>
      </trkpt>
      <trkpt lat="40.869990" lon="-5.016540">
        <ele>944.066</ele>
        <time>2022-02-25T13:15:36Z</time>
      </trkpt>
      <trkpt lat="40.870030" lon="-5.016620">
        <ele>943.948</ele>
        <time>2022-02-25T13:16:16Z</time>
      </trkpt>
      <trkpt lat="40.870040" lon="-5.016630">
        <ele>943.961</ele>
        <time>2022-02-25T13:16:56Z</time>
      </trkpt>
      <trkpt lat="40.870930" lon="-5.018360">
        <ele>940.017</ele>
        <time>2022-02-25T13:17:36Z</time>
      </trkpt>
      <trkpt lat="40.871150" lon="-5.018790">
        <ele>940.008</ele>
        <time>2022-02-25T13:18:16Z</time>
      </trkpt>
      <trkpt lat="40.871390" lon="-5.019250">
        <ele>939.763</ele>
        <time>2022-02-25T13:18:56Z</time>
      </trkpt>
      <trkpt lat="40.871600" lon="-5.019650">
        <ele>939.080</ele>
        <time>2022-02-25T13:19:36Z</time>
      </trkpt>
      <trkpt lat="40.871660" lon="-5.019770">
        <ele>939.014</ele>
        <time>2022-02-25T13:20:16Z</time>
      </trkpt>
      <trkpt lat="40.871750" lon="-5.019950">
        <ele>938.443</ele>
        <time>2022-02-25T13:20:56Z</time>
      </trkpt>
      <trkpt lat="40.871760" lon="-5.019960">
        <ele>938.372</ele>
        <time>2022-02-25T13:21:36Z</time>
      </trkpt>
      <trkpt lat="40.871870" lon="-5.020190">
        <ele>938.023</ele>
        <time>2022-02-25T13:22:16Z</time>
      </trkpt>
      <trkpt lat="40.872060" lon="-5.020560">
        <ele>938.284</ele>
        <time>2022-02-25T13:22:56Z</time>
      </trkpt>
      <trkpt lat="40.872090" lon="-5.020620">
        <ele>938.126</ele>
        <time>2022-02-25T13:23:36Z</time>
      </trkpt>
      <trkpt lat="40.872320" lon="-5.021060">
        <ele>938.293</ele>
        <time>2022-02-25T13:24:16Z</time>
      </trkpt>
      <trkpt lat="40.872570" lon="-5.021540">
        <ele>937.865</ele>
        <time>2022-02-25T13:24:56Z</time>
      </trkpt>
      <trkpt lat="40.872670" lon="-5.021740">
        <ele>937.221</ele>
        <time>2022-02-25T13:25:36Z</time>
      </trkpt>
      <trkpt lat="40.872770" lon="-5.021940">
        <ele>936.108</ele>
        <time>2022-02-25T13:26:16Z</time>
      </trkpt>
      <trkpt lat="40.872870" lon="-5.022130">
        <ele>936.478</ele>
        <time>2022-02-25T13:26:56Z</time>
      </trkpt>
      <trkpt lat="40.872880" lon="-5.022150">
        <ele>936.525</ele>
        <time>2022-02-25T13:27:36Z</time>
      </trkpt>
      <trkpt lat="40.873370" lon="-5.023110">
        <ele>936.949</ele>
        <time>2022-02-25T13:28:16Z</time>
      </trkpt>
      <trkpt lat="40.873610" lon="-5.023560">
        <ele>937.098</ele>
        <time>2022-02-25T13:28:56Z</time>
      </trkpt>
      <trkpt lat="40.873850" lon="-5.024010">
        <ele>939.367</ele>
        <time>2022-02-25T13:29:36Z</time>
      </trkpt>
      <trkpt lat="40.874050" lon="-5.024410">
        <ele>940.138</ele>
        <time>2022-02-25T13:30:16Z</time>
      </trkpt>
      <trkpt lat="40.874240" lon="-5.024800">
        <ele>941.589</ele>
        <time>2022-02-25T13:30:56Z</time>
      </trkpt>
      <trkpt lat="40.874340" lon="-5.025010">
        <ele>942.341</ele>
        <time>2022-02-25T13:31:36Z</time>
      </trkpt>
      <trkpt lat="40.874580" lon="-5.025550">
        <ele>943.089</ele>
        <time>2022-02-25T13:32:16Z</time>
      </trkpt>
      <trkpt lat="40.874730" lon="-5.025940">
        <ele>943.006</ele>
        <time>2022-02-25T13:32:56Z</time>
      </trkpt>
      <trkpt lat="40.874780" lon="-5.026100">
        <ele>943.026</ele>
        <time>2022-02-25T13:33:36Z</time>
      </trkpt>
      <trkpt lat="40.874840" lon="-5.026250">
        <ele>943.308</ele>
        <time>2022-02-25T13:34:16Z</time>
      </trkpt>
      <trkpt lat="40.875000" lon="-5.026750">
        <ele>943.087</ele>
        <time>2022-02-25T13:34:56Z</time>
      </trkpt>
      <trkpt lat="40.875160" lon="-5.027360">
        <ele>943.054</ele>
        <time>2022-02-25T13:35:36Z</time>
      </trkpt>
      <trkpt lat="40.875260" lon="-5.027790">
        <ele>943.078</ele>
        <time>2022-02-25T13:36:16Z</time>
      </trkpt>
      <trkpt lat="40.875310" lon="-5.028050">
        <ele>942.977</ele>
        <time>2022-02-25T13:36:56Z</time>
      </trkpt>
      <trkpt lat="40.875380" lon="-5.028400">
        <ele>942.446</ele>
        <time>2022-02-25T13:37:36Z</time>
      </trkpt>
      <trkpt lat="40.875780" lon="-5.030820">
        <ele>940.037</ele>
        <time>2022-02-25T13:38:16Z</time>
      </trkpt>
      <trkpt lat="40.875930" lon="-5.031760">
        <ele>940.088</ele>
        <time>2022-02-25T13:38:56Z</time>
      </trkpt>
      <trkpt lat="40.876000" lon="-5.032220">
        <ele>940.030</ele>
        <time>2022-02-25T13:39:36Z</time>
      </trkpt>
      <trkpt lat="40.876010" lon="-5.032230">
        <ele>940.089</ele>
        <time>2022-02-25T13:40:16Z</time>
      </trkpt>
      <trkpt lat="40.876110" lon="-5.032880">
        <ele>940.006</ele>
        <time>2022-02-25T13:40:56Z</time>
      </trkpt>
      <trkpt lat="40.876180" lon="-5.033260">
        <ele>940.026</ele>
        <time>2022-02-25T13:41:36Z</time>
      </trkpt>
      <trkpt lat="40.876610" lon="-5.035800">
        <ele>940.908</ele>
        <time>2022-02-25T13:42:16Z</time>
      </trkpt>
      <trkpt lat="40.876610" lon="-5.035810">
        <ele>940.977</ele>
        <time>2022-02-25T13:42:56Z</time>
      </trkpt>
      <trkpt lat="40.876650" lon="-5.036040">
        <ele>941.724</ele>
        <time>2022-02-25T13:43:36Z</time>
      </trkpt>
      <trkpt lat="40.876740" lon="-5.036610">
        <ele>942.798</ele>
        <time>2022-02-25T13:44:16Z</time>
      </trkpt>
      <trkpt lat="40.876870" lon="-5.037400">
        <ele>944.937</ele>
        <time>2022-02-25T13:44:56Z</time>
      </trkpt>
      <trkpt lat="40.876990" lon="-5.038130">
        <ele>946.136</ele>
        <time>2022-02-25T13:45:36Z</time>
      </trkpt>
      <trkpt lat="40.877090" lon="-5.038700">
        <ele>947.857</ele>
        <time>2022-02-25T13:46:16Z</time>
      </trkpt>
      <trkpt lat="40.877140" lon="-5.039050">
        <ele>948.598</ele>
        <time>2022-02-25T13:46:56Z</time>
      </trkpt>
      <trkpt lat="40.877170" lon="-5.039240">
        <ele>948.690</ele>
        <time>2022-02-25T13:47:36Z</time>
      </trkpt>
      <trkpt lat="40.877220" lon="-5.039670">
        <ele>949.811</ele>
        <time>2022-02-25T13:48:16Z</time>
      </trkpt>
      <trkpt lat="40.877230" lon="-5.039860">
        <ele>950.421</ele>
        <time>2022-02-25T13:48:56Z</time>
      </trkpt>
      <trkpt lat="40.877230" lon="-5.040080">
        <ele>950.903</ele>
        <time>2022-02-25T13:49:36Z</time>
      </trkpt>
      <trkpt lat="40.877230" lon="-5.040370">
        <ele>951.008</ele>
        <time>2022-02-25T13:50:16Z</time>
      </trkpt>
      <trkpt lat="40.877190" lon="-5.040960">
        <ele>952.380</ele>
        <time>2022-02-25T13:50:56Z</time>
      </trkpt>
      <trkpt lat="40.877170" lon="-5.041190">
        <ele>952.827</ele>
        <time>2022-02-25T13:51:36Z</time>
      </trkpt>
      <trkpt lat="40.877150" lon="-5.041430">
        <ele>953.691</ele>
        <time>2022-02-25T13:52:16Z</time>
      </trkpt>
      <trkpt lat="40.877130" lon="-5.041670">
        <ele>954.030</ele>
        <time>2022-02-25T13:52:56Z</time>
      </trkpt>
      <trkpt lat="40.877100" lon="-5.042140">
        <ele>953.639</ele>
        <time>2022-02-25T13:53:36Z</time>
      </trkpt>
      <trkpt lat="40.877080" lon="-5.042380">
        <ele>953.070</ele>
        <time>2022-02-25T13:54:16Z</time>
      </trkpt>
      <trkpt lat="40.877010" lon="-5.043290">
        <ele>950.971</ele>
        <time>2022-02-25T13:54:56Z</time>
      </trkpt>
      <trkpt lat="40.877010" lon="-5.043320">
        <ele>950.823</ele>
        <time>2022-02-25T13:55:36Z</time>
      </trkpt>
      <trkpt lat="40.877010" lon="-5.043330">
        <ele>950.876</ele>
        <time>2022-02-25T13:56:16Z</time>
      </trkpt>
      <trkpt lat="40.876990" lon="-5.043560">
        <ele>950.790</ele>
        <time>2022-02-25T13:56:56Z</time>
      </trkpt>
      <trkpt lat="40.876910" lon="-5.044750">
        <ele>948.019</ele>
        <time>2022-02-25T13:57:36Z</time>
      </trkpt>
      <trkpt lat="40.876760" lon="-5.046700">
        <ele>944.708</ele>
        <time>2022-02-25T13:58:16Z</time>
      </trkpt>
      <trkpt lat="40.876700" lon="-5.047560">
        <ele>944.026</ele>
        <time>2022-02-25T13:58:56Z</time>
      </trkpt>
      <trkpt lat="40.876670" lon="-5.047880">
        <ele>944.063</ele>
        <time>2022-02-25T13:59:36Z</time>
      </trkpt>
      <trkpt lat="40.876530" lon="-5.049780">
        <ele>943.017</ele>
        <time>2022-02-25T14:00:16Z</time>
      </trkpt>
      <trkpt lat="40.876440" lon="-5.050990">
        <ele>942.856</ele>
        <time>2022-02-25T14:00:56Z</time>
      </trkpt>
      <trkpt lat="40.876350" lon="-5.052200">
        <ele>942.095</ele>
        <time>2022-02-25T14:01:36Z</time>
      </trkpt>
      <trkpt lat="40.876330" lon="-5.052420">
        <ele>942.046</ele>
        <time>2022-02-25T14:02:16Z</time>
      </trkpt>
      <trkpt lat="40.876260" lon="-5.053380">
        <ele>941.477</ele>
        <time>2022-02-25T14:02:56Z</time>
      </trkpt>
      <trkpt lat="40.876220" lon="-5.054020">
        <ele>941.049</ele>
        <time>2022-02-25T14:03:36Z</time>
      </trkpt>
      <trkpt lat="40.876210" lon="-5.054140">
        <ele>941.068</ele>
        <time>2022-02-25T14:04:16Z</time>
      </trkpt>
      <trkpt lat="40.876210" lon="-5.054180">
        <ele>941.042</ele>
        <time>2022-02-25T14:04:56Z</time>
      </trkpt>
      <trkpt lat="40.876210" lon="-5.054210">
        <ele>941.026</ele>
        <time>2022-02-25T14:05:36Z</time>
      </trkpt>
      <trkpt lat="40.876210" lon="-5.054250">
        <ele>941.008</ele>
        <time>2022-02-25T14:06:16Z</time>
      </trkpt>
      <trkpt lat="40.876210" lon="-5.054300">
        <ele>941.055</ele>
        <time>2022-02-25T14:06:56Z</time>
      </trkpt>
      <trkpt lat="40.876210" lon="-5.054360">
        <ele>941.072</ele>
        <time>2022-02-25T14:07:36Z</time>
      </trkpt>
      <trkpt lat="40.876210" lon="-5.054410">
        <ele>941.046</ele>
        <time>2022-02-25T14:08:16Z</time>
      </trkpt>
      <trkpt lat="40.876210" lon="-5.054460">
        <ele>941.035</ele>
        <time>2022-02-25T14:08:56Z</time>
      </trkpt>
      <trkpt lat="40.876220" lon="-5.054520">
        <ele>940.954</ele>
        <time>2022-02-25T14:09:36Z</time>
      </trkpt>
      <trkpt lat="40.876240" lon="-5.054620">
        <ele>940.755</ele>
        <time>2022-02-25T14:10:16Z</time>
      </trkpt>
      <trkpt lat="40.876280" lon="-5.054740">
        <ele>940.436</ele>
        <time>2022-02-25T14:10:56Z</time>
      </trkpt>
      <trkpt lat="40.876282" lon="-5.054737">
        <ele>940.498</ele>
        <time>2022-02-25T14:11:36Z</time>
      </trkpt>
      <trkpt lat="40.876300" lon="-5.054750">
        <ele>940.375</ele>
        <time>2022-02-25T14:12:16Z</time>
      </trkpt>
      <trkpt lat="40.876350" lon="-5.054800">
        <ele>940.128</ele>
        <time>2022-02-25T14:12:56Z</time>
      </trkpt>
      <trkpt lat="40.876390" lon="-5.054870">
        <ele>940.020</ele>
        <time>2022-02-25T14:13:36Z</time>
      </trkpt>
      <trkpt lat="40.876410" lon="-5.054910">
        <ele>940.008</ele>
        <time>2022-02-25T14:14:16Z</time>
      </trkpt>
      <trkpt lat="40.876430" lon="-5.054970">
        <ele>940.016</ele>
        <time>2022-02-25T14:14:56Z</time>
      </trkpt>
      <trkpt lat="40.876440" lon="-5.055040">
        <ele>940.053</ele>
        <time>2022-02-25T14:15:36Z</time>
      </trkpt>
      <trkpt lat="40.876440" lon="-5.055090">
        <ele>940.047</ele>
        <time>2022-02-25T14:16:16Z</time>
      </trkpt>
      <trkpt lat="40.876450" lon="-5.055140">
        <ele>940.016</ele>
        <time>2022-02-25T14:16:56Z</time>
      </trkpt>
      <trkpt lat="40.876570" lon="-5.055330">
        <ele>940.015</ele>
        <time>2022-02-25T14:17:36Z</time>
      </trkpt>
      <trkpt lat="40.876700" lon="-5.055470">
        <ele>940.126</ele>
        <time>2022-02-25T14:18:16Z</time>
      </trkpt>
      <trkpt lat="40.876910" lon="-5.055580">
        <ele>940.937</ele>
        <time>2022-02-25T14:18:56Z</time>
      </trkpt>
      <trkpt lat="40.877050" lon="-5.055670">
        <ele>941.099</ele>
        <time>2022-02-25T14:19:36Z</time>
      </trkpt>
      <trkpt lat="40.877200" lon="-5.055760">
        <ele>941.046</ele>
        <time>2022-02-25T14:20:16Z</time>
      </trkpt>
      <trkpt lat="40.877470" lon="-5.055940">
        <ele>940.788</ele>
        <time>2022-02-25T14:20:56Z</time>
      </trkpt>
      <trkpt lat="40.877550" lon="-5.055950">
        <ele>940.516</ele>
        <time>2022-02-25T14:21:36Z</time>
      </trkpt>
      <trkpt lat="40.877610" lon="-5.055960">
        <ele>940.308</ele>
        <time>2022-02-25T14:22:16Z</time>
      </trkpt>
      <trkpt lat="40.877760" lon="-5.055950">
        <ele>940.013</ele>
        <time>2022-02-25T14:22:56Z</time>
      </trkpt>
      <trkpt lat="40.877763" lon="-5.055953">
        <ele>940.080</ele>
        <time>2022-02-25T14:23:36Z</time>
      </trkpt>
      <trkpt lat="40.877790" lon="-5.055930">
        <ele>940.034</ele>
        <time>2022-02-25T14:24:16Z</time>
      </trkpt>
      <trkpt lat="40.877810" lon="-5.055910">
        <ele>940.093</ele>
        <time>2022-02-25T14:24:56Z</time>
      </trkpt>
      <trkpt lat="40.877830" lon="-5.055900">
        <ele>940.052</ele>
        <time>2022-02-25T14:25:36Z</time>
      </trkpt>
      <trkpt lat="40.877860" lon="-5.055880">
        <ele>940.033</ele>
        <time>2022-02-25T14:26:16Z</time>
      </trkpt>
      <trkpt lat="40.877880" lon="-5.055870">
        <ele>940.034</ele>
        <time>2022-02-25T14:26:56Z</time>
      </trkpt>
      <trkpt lat="40.877910" lon="-5.055860">
        <ele>940.016</ele>
        <time>2022-02-25T14:27:36Z</time>
      </trkpt>
      <trkpt lat="40.877930" lon="-5.055850">
        <ele>940.041</ele>
        <time>2022-02-25T14:28:16Z</time>
      </trkpt>
      <trkpt lat="40.877960" lon="-5.055850">
        <ele>940.081</ele>
        <time>2022-02-25T14:28:56Z</time>
      </trkpt>
      <trkpt lat="40.877980" lon="-5.055840">
        <ele>940.009</ele>
        <time>2022-02-25T14:29:36Z</time>
      </trkpt>
      <trkpt lat="40.878000" lon="-5.055840">
        <ele>940.008</ele>
        <time>2022-02-25T14:30:16Z</time>
      </trkpt>
      <trkpt lat="40.878020" lon="-5.055850">
        <ele>940.013</ele>
        <time>2022-02-25T14:30:56Z</time>
      </trkpt>
      <trkpt lat="40.878040" lon="-5.055850">
        <ele>940.090</ele>
        <time>2022-02-25T14:31:36Z</time>
      </trkpt>
      <trkpt lat="40.878070" lon="-5.055860">
        <ele>940.094</ele>
        <time>2022-02-25T14:32:16Z</time>
      </trkpt>
      <trkpt lat="40.878090" lon="-5.055870">
        <ele>940.083</ele>
        <time>2022-02-25T14:32:56Z</time>
      </trkpt>
      <trkpt lat="40.878110" lon="-5.055880">
        <ele>940.042</ele>
        <time>2022-02-25T14:33:36Z</time>
      </trkpt>
      <trkpt lat="40.878130" lon="-5.055890">
        <ele>940.063</ele>
        <time>2022-02-25T14:34:16Z</time>
      </trkpt>
      <trkpt lat="40.878150" lon="-5.055900">
        <ele>940.094</ele>
        <time>2022-02-25T14:34:56Z</time>
      </trkpt>
      <trkpt lat="40.878170" lon="-5.055920">
        <ele>940.036</ele>
        <time>2022-02-25T14:35:36Z</time>
      </trkpt>
      <trkpt lat="40.878190" lon="-5.055940">
        <ele>940.065</ele>
        <time>2022-02-25T14:36:16Z</time>
      </trkpt>
      <trkpt lat="40.878210" lon="-5.055970">
        <ele>940.068</ele>
        <time>2022-02-25T14:36:56Z</time>
      </trkpt>
      <trkpt lat="40.878220" lon="-5.055990">
        <ele>940.014</ele>
        <time>2022-02-25T14:37:36Z</time>
      </trkpt>
      <trkpt lat="40.878240" lon="-5.056020">
        <ele>940.008</ele>
        <time>2022-02-25T14:38:16Z</time>
      </trkpt>
      <trkpt lat="40.878250" lon="-5.056050">
        <ele>940.095</ele>
        <time>2022-02-25T14:38:56Z</time>
      </trkpt>
      <trkpt lat="40.878270" lon="-5.056070">
        <ele>940.092</ele>
        <time>2022-02-25T14:39:36Z</time>
      </trkpt>
      <trkpt lat="40.878280" lon="-5.056120">
        <ele>940.066</ele>
        <time>2022-02-25T14:40:16Z</time>
      </trkpt>
      <trkpt lat="40.878290" lon="-5.056160">
        <ele>940.025</ele>
        <time>2022-02-25T14:40:56Z</time>
      </trkpt>
      <trkpt lat="40.878300" lon="-5.056200">
        <ele>940.054</ele>
        <time>2022-02-25T14:41:36Z</time>
      </trkpt>
      <trkpt lat="40.878300" lon="-5.056240">
        <ele>940.095</ele>
        <time>2022-02-25T14:42:16Z</time>
      </trkpt>
      <trkpt lat="40.878310" lon="-5.056280">
        <ele>940.026</ele>
        <time>2022-02-25T14:42:56Z</time>
      </trkpt>
      <trkpt lat="40.878300" lon="-5.056320">
        <ele>940.078</ele>
        <time>2022-02-25T14:43:36Z</time>
      </trkpt>
      <trkpt lat="40.878300" lon="-5.056370">
        <ele>940.061</ele>
        <time>2022-02-25T14:44:16Z</time>
      </trkpt>
      <trkpt lat="40.878290" lon="-5.056410">
        <ele>940.021</ele>
        <time>2022-02-25T14:44:56Z</time>
      </trkpt>
      <trkpt lat="40.878280" lon="-5.056450">
        <ele>940.013</ele>
        <time>2022-02-25T14:45:36Z</time>
      </trkpt>
      <trkpt lat="40.878270" lon="-5.056470">
        <ele>940.008</ele>
        <time>2022-02-25T14:46:16Z</time>
      </trkpt>
      <trkpt lat="40.878270" lon="-5.056480">
        <ele>940.055</ele>
        <time>2022-02-25T14:46:56Z</time>
      </trkpt>
      <trkpt lat="40.878260" lon="-5.056490">
        <ele>940.012</ele>
        <time>2022-02-25T14:47:36Z</time>
      </trkpt>
      <trkpt lat="40.878260" lon="-5.056510">
        <ele>940.016</ele>
        <time>2022-02-25T14:48:16Z</time>
      </trkpt>
      <trkpt lat="40.878250" lon="-5.056520">
        <ele>940.025</ele>
        <time>2022-02-25T14:48:56Z</time>
      </trkpt>
      <trkpt lat="40.878240" lon="-5.056540">
        <ele>940.074</ele>
        <time>2022-02-25T14:49:36Z</time>
      </trkpt>
      <trkpt lat="40.878230" lon="-5.056550">
        <ele>940.075</ele>
        <time>2022-02-25T14:50:16Z</time>
      </trkpt>
      <trkpt lat="40.878220" lon="-5.056570">
        <ele>940.016</ele>
        <time>2022-02-25T14:50:56Z</time>
      </trkpt>
      <trkpt lat="40.878200" lon="-5.056590">
        <ele>940.028</ele>
        <time>2022-02-25T14:51:36Z</time>
      </trkpt>
      <trkpt lat="40.878190" lon="-5.056600">
        <ele>940.084</ele>
        <time>2022-02-25T14:52:16Z</time>
      </trkpt>
      <trkpt lat="40.878150" lon="-5.056630">
        <ele>940.007</ele>
        <time>2022-02-25T14:52:56Z</time>
      </trkpt>
      <trkpt lat="40.878100" lon="-5.056860">
        <ele>940.017</ele>
        <time>2022-02-25T14:53:36Z</time>
      </trkpt>
      <trkpt lat="40.878080" lon="-5.057030">
        <ele>940.008</ele>
        <time>2022-02-25T14:54:16Z</time>
      </trkpt>
      <trkpt lat="40.878070" lon="-5.057120">
        <ele>940.027</ele>
        <time>2022-02-25T14:54:56Z</time>
      </trkpt>
      <trkpt lat="40.878060" lon="-5.057200">
        <ele>940.064</ele>
        <time>2022-02-25T14:55:36Z</time>
      </trkpt>
      <trkpt lat="40.878050" lon="-5.057290">
        <ele>940.058</ele>
        <time>2022-02-25T14:56:16Z</time>
      </trkpt>
      <trkpt lat="40.878040" lon="-5.057400">
        <ele>940.077</ele>
        <time>2022-02-25T14:56:56Z</time>
      </trkpt>
      <trkpt lat="40.878030" lon="-5.057510">
        <ele>940.036</ele>
        <time>2022-02-25T14:57:36Z</time>
      </trkpt>
      <trkpt lat="40.878010" lon="-5.057670">
        <ele>940.087</ele>
        <time>2022-02-25T14:58:16Z</time>
      </trkpt>
      <trkpt lat="40.877980" lon="-5.057860">
        <ele>940.088</ele>
        <time>2022-02-25T14:58:56Z</time>
      </trkpt>
      <trkpt lat="40.877980" lon="-5.057890">
        <ele>940.090</ele>
        <time>2022-02-25T14:59:36Z</time>
      </trkpt>
      <trkpt lat="40.877940" lon="-5.058050">
        <ele>940.086</ele>
        <time>2022-02-25T15:00:16Z</time>
      </trkpt>
      <trkpt lat="40.877880" lon="-5.058240">
        <ele>940.060</ele>
        <time>2022-02-25T15:00:56Z</time>
      </trkpt>
      <trkpt lat="40.877830" lon="-5.058360">
        <ele>940.026</ele>
        <time>2022-02-25T15:01:36Z</time>
      </trkpt>
      <trkpt lat="40.877800" lon="-5.058420">
        <ele>940.008</ele>
        <time>2022-02-25T15:02:16Z</time>
      </trkpt>
      <trkpt lat="40.877730" lon="-5.058560">
        <ele>940.037</ele>
        <time>2022-02-25T15:02:56Z</time>
      </trkpt>
      <trkpt lat="40.877660" lon="-5.058680">
        <ele>940.034</ele>
        <time>2022-02-25T15:03:36Z</time>
      </trkpt>
      <trkpt lat="40.877640" lon="-5.058710">
        <ele>940.088</ele>
        <time>2022-02-25T15:04:16Z</time>
      </trkpt>
      <trkpt lat="40.877540" lon="-5.058850">
        <ele>940.037</ele>
        <time>2022-02-25T15:04:56Z</time>
      </trkpt>
      <trkpt lat="40.877510" lon="-5.058890">
        <ele>940.066</ele>
        <time>2022-02-25T15:05:36Z</time>
      </trkpt>
      <trkpt lat="40.877440" lon="-5.058960">
        <ele>940.037</ele>
        <time>2022-02-25T15:06:16Z</time>
      </trkpt>
      <trkpt lat="40.877370" lon="-5.059040">
        <ele>940.088</ele>
        <time>2022-02-25T15:06:56Z</time>
      </trkpt>
      <trkpt lat="40.877070" lon="-5.059290">
        <ele>940.030</ele>
        <time>2022-02-25T15:07:36Z</time>
      </trkpt>
      <trkpt lat="40.876710" lon="-5.059630">
        <ele>940.073</ele>
        <time>2022-02-25T15:08:16Z</time>
      </trkpt>
      <trkpt lat="40.876510" lon="-5.059850">
        <ele>936.985</ele>
        <time>2022-02-25T15:08:56Z</time>
      </trkpt>
      <trkpt lat="40.876430" lon="-5.059950">
        <ele>935.013</ele>
        <time>2022-02-25T15:09:36Z</time>
      </trkpt>
      <trkpt lat="40.876350" lon="-5.060050">
        <ele>934.008</ele>
        <time>2022-02-25T15:10:16Z</time>
      </trkpt>
      <trkpt lat="40.876280" lon="-5.060150">
        <ele>934.096</ele>
        <time>2022-02-25T15:10:56Z</time>
      </trkpt>
      <trkpt lat="40.876210" lon="-5.060270">
        <ele>934.063</ele>
        <time>2022-02-25T15:11:36Z</time>
      </trkpt>
      <trkpt lat="40.876120" lon="-5.060420">
        <ele>933.567</ele>
        <time>2022-02-25T15:12:16Z</time>
      </trkpt>
      <trkpt lat="40.876000" lon="-5.060650">
        <ele>933.376</ele>
        <time>2022-02-25T15:12:56Z</time>
      </trkpt>
      <trkpt lat="40.875890" lon="-5.060900">
        <ele>932.815</ele>
        <time>2022-02-25T15:13:36Z</time>
      </trkpt>
      <trkpt lat="40.875810" lon="-5.061120">
        <ele>932.266</ele>
        <time>2022-02-25T15:14:16Z</time>
      </trkpt>
      <trkpt lat="40.875750" lon="-5.061320">
        <ele>932.437</ele>
        <time>2022-02-25T15:14:56Z</time>
      </trkpt>
      <trkpt lat="40.875740" lon="-5.061350">
        <ele>932.449</ele>
        <time>2022-02-25T15:15:36Z</time>
      </trkpt>
      <trkpt lat="40.875690" lon="-5.061580">
        <ele>931.813</ele>
        <time>2022-02-25T15:16:16Z</time>
      </trkpt>
      <trkpt lat="40.875680" lon="-5.061620">
        <ele>931.743</ele>
        <time>2022-02-25T15:16:56Z</time>
      </trkpt>
      <trkpt lat="40.875640" lon="-5.061800">
        <ele>931.707</ele>
        <time>2022-02-25T15:17:36Z</time>
      </trkpt>
      <trkpt lat="40.875640" lon="-5.061810">
        <ele>931.708</ele>
        <time>2022-02-25T15:18:16Z</time>
      </trkpt>
      <trkpt lat="40.875610" lon="-5.062040">
        <ele>931.580</ele>
        <time>2022-02-25T15:18:56Z</time>
      </trkpt>
      <trkpt lat="40.875600" lon="-5.062130">
        <ele>931.237</ele>
        <time>2022-02-25T15:19:36Z</time>
      </trkpt>
      <trkpt lat="40.875560" lon="-5.062560">
        <ele>930.881</ele>
        <time>2022-02-25T15:20:16Z</time>
      </trkpt>
      <trkpt lat="40.875480" lon="-5.063690">
        <ele>928.580</ele>
        <time>2022-02-25T15:20:56Z</time>
      </trkpt>
      <trkpt lat="40.875440" lon="-5.064170">
        <ele>927.849</ele>
        <time>2022-02-25T15:21:36Z</time>
      </trkpt>
      <trkpt lat="40.875430" lon="-5.064320">
        <ele>927.930</ele>
        <time>2022-02-25T15:22:16Z</time>
      </trkpt>
      <trkpt lat="40.875430" lon="-5.064400">
        <ele>927.921</ele>
        <time>2022-02-25T15:22:56Z</time>
      </trkpt>
      <trkpt lat="40.875410" lon="-5.064640">
        <ele>927.353</ele>
        <time>2022-02-25T15:23:36Z</time>
      </trkpt>
      <trkpt lat="40.875390" lon="-5.064880">
        <ele>927.055</ele>
        <time>2022-02-25T15:24:16Z</time>
      </trkpt>
      <trkpt lat="40.875370" lon="-5.065120">
        <ele>927.007</ele>
        <time>2022-02-25T15:24:56Z</time>
      </trkpt>
      <trkpt lat="40.875360" lon="-5.065350">
        <ele>926.917</ele>
        <time>2022-02-25T15:25:36Z</time>
      </trkpt>
      <trkpt lat="40.875340" lon="-5.065620">
        <ele>926.308</ele>
        <time>2022-02-25T15:26:16Z</time>
      </trkpt>
      <trkpt lat="40.875320" lon="-5.065830">
        <ele>926.534</ele>
        <time>2022-02-25T15:26:56Z</time>
      </trkpt>
      <trkpt lat="40.875280" lon="-5.066540">
        <ele>926.051</ele>
        <time>2022-02-25T15:27:36Z</time>
      </trkpt>
      <trkpt lat="40.875270" lon="-5.066610">
        <ele>926.125</ele>
        <time>2022-02-25T15:28:16Z</time>
      </trkpt>
      <trkpt lat="40.875260" lon="-5.066770">
        <ele>925.874</ele>
        <time>2022-02-25T15:28:56Z</time>
      </trkpt>
      <trkpt lat="40.875250" lon="-5.066840">
        <ele>925.713</ele>
        <time>2022-02-25T15:29:36Z</time>
      </trkpt>
      <trkpt lat="40.875240" lon="-5.066980">
        <ele>925.584</ele>
        <time>2022-02-25T15:30:16Z</time>
      </trkpt>
      <trkpt lat="40.875220" lon="-5.067120">
        <ele>925.855</ele>
        <time>2022-02-25T15:30:56Z</time>
      </trkpt>
      <trkpt lat="40.875180" lon="-5.067390">
        <ele>925.667</ele>
        <time>2022-02-25T15:31:36Z</time>
      </trkpt>
      <trkpt lat="40.875160" lon="-5.067470">
        <ele>925.415</ele>
        <time>2022-02-25T15:32:16Z</time>
      </trkpt>
      <trkpt lat="40.875130" lon="-5.067630">
        <ele>924.765</ele>
        <time>2022-02-25T15:32:56Z</time>
      </trkpt>
      <trkpt lat="40.875110" lon="-5.067700">
        <ele>924.411</ele>
        <time>2022-02-25T15:33:36Z</time>
      </trkpt>
      <trkpt lat="40.875060" lon="-5.067880">
        <ele>923.708</ele>
        <time>2022-02-25T15:34:16Z</time>
      </trkpt>
      <trkpt lat="40.874980" lon="-5.068140">
        <ele>922.980</ele>
        <time>2022-02-25T15:34:56Z</time>
      </trkpt>
      <trkpt lat="40.874910" lon="-5.068360">
        <ele>923.777</ele>
        <time>2022-02-25T15:35:36Z</time>
      </trkpt>
      <trkpt lat="40.874840" lon="-5.068580">
        <ele>923.221</ele>
        <time>2022-02-25T15:36:16Z</time>
      </trkpt>
      <trkpt lat="40.874790" lon="-5.068730">
        <ele>922.290</ele>
        <time>2022-02-25T15:36:56Z</time>
      </trkpt>
      <trkpt lat="40.874750" lon="-5.068870">
        <ele>920.399</ele>
        <time>2022-02-25T15:37:36Z</time>
      </trkpt>
      <trkpt lat="40.874720" lon="-5.069000">
        <ele>920.040</ele>
        <time>2022-02-25T15:38:16Z</time>
      </trkpt>
      <trkpt lat="40.874660" lon="-5.069230">
        <ele>920.371</ele>
        <time>2022-02-25T15:38:56Z</time>
      </trkpt>
      <trkpt lat="40.874640" lon="-5.069370">
        <ele>920.213</ele>
        <time>2022-02-25T15:39:36Z</time>
      </trkpt>
      <trkpt lat="40.874610" lon="-5.069570">
        <ele>920.058</ele>
        <time>2022-02-25T15:40:16Z</time>
      </trkpt>
      <trkpt lat="40.874590" lon="-5.069720">
        <ele>920.052</ele>
        <time>2022-02-25T15:40:56Z</time>
      </trkpt>
      <trkpt lat="40.874590" lon="-5.069740">
        <ele>920.017</ele>
        <time>2022-02-25T15:41:36Z</time>
      </trkpt>
      <trkpt lat="40.874580" lon="-5.069880">
        <ele>920.008</ele>
        <time>2022-02-25T15:42:16Z</time>
      </trkpt>
      <trkpt lat="40.874580" lon="-5.069960">
        <ele>920.044</ele>
        <time>2022-02-25T15:42:56Z</time>
      </trkpt>
      <trkpt lat="40.874570" lon="-5.070180">
        <ele>920.011</ele>
        <time>2022-02-25T15:43:36Z</time>
      </trkpt>
      <trkpt lat="40.874570" lon="-5.070200">
        <ele>920.045</ele>
        <time>2022-02-25T15:44:16Z</time>
      </trkpt>
      <trkpt lat="40.874590" lon="-5.070520">
        <ele>920.064</ele>
        <time>2022-02-25T15:44:56Z</time>
      </trkpt>
      <trkpt lat="40.874600" lon="-5.070670">
        <ele>920.053</ele>
        <time>2022-02-25T15:45:36Z</time>
      </trkpt>
      <trkpt lat="40.874620" lon="-5.070910">
        <ele>920.084</ele>
        <time>2022-02-25T15:46:16Z</time>
      </trkpt>
      <trkpt lat="40.874620" lon="-5.070950">
        <ele>920.065</ele>
        <time>2022-02-25T15:46:56Z</time>
      </trkpt>
      <trkpt lat="40.874680" lon="-5.071520">
        <ele>920.087</ele>
        <time>2022-02-25T15:47:36Z</time>
      </trkpt>
      <trkpt lat="40.874690" lon="-5.071610">
        <ele>920.068</ele>
        <time>2022-02-25T15:48:16Z</time>
      </trkpt>
      <trkpt lat="40.874690" lon="-5.071640">
        <ele>920.042</ele>
        <time>2022-02-25T15:48:56Z</time>
      </trkpt>
      <trkpt lat="40.874700" lon="-5.071720">
        <ele>920.026</ele>
        <time>2022-02-25T15:49:36Z</time>
      </trkpt>
      <trkpt lat="40.874720" lon="-5.071990">
        <ele>920.008</ele>
        <time>2022-02-25T15:50:16Z</time>
      </trkpt>
      <trkpt lat="40.874840" lon="-5.073150">
        <ele>920.045</ele>
        <time>2022-02-25T15:50:56Z</time>
      </trkpt>
      <trkpt lat="40.874880" lon="-5.073640">
        <ele>920.052</ele>
        <time>2022-02-25T15:51:36Z</time>
      </trkpt>
      <trkpt lat="40.874950" lon="-5.074330">
        <ele>920.636</ele>
        <time>2022-02-25T15:52:16Z</time>
      </trkpt>
      <trkpt lat="40.875000" lon="-5.074840">
        <ele>921.445</ele>
        <time>2022-02-25T15:52:56Z</time>
      </trkpt>
      <trkpt lat="40.875030" lon="-5.075080">
        <ele>922.314</ele>
        <time>2022-02-25T15:53:36Z</time>
      </trkpt>
      <trkpt lat="40.875110" lon="-5.075930">
        <ele>924.035</ele>
        <time>2022-02-25T15:54:16Z</time>
      </trkpt>
      <trkpt lat="40.875120" lon="-5.076020">
        <ele>924.066</ele>
        <time>2022-02-25T15:54:56Z</time>
      </trkpt>
      <trkpt lat="40.875140" lon="-5.076260">
        <ele>924.578</ele>
        <time>2022-02-25T15:55:36Z</time>
      </trkpt>
      <trkpt lat="40.875280" lon="-5.077670">
        <ele>928.089</ele>
        <time>2022-02-25T15:56:16Z</time>
      </trkpt>
      <trkpt lat="40.875330" lon="-5.078200">
        <ele>929.006</ele>
        <time>2022-02-25T15:56:56Z</time>
      </trkpt>
      <trkpt lat="40.875350" lon="-5.078380">
        <ele>929.226</ele>
        <time>2022-02-25T15:57:36Z</time>
      </trkpt>
      <trkpt lat="40.875360" lon="-5.078450">
        <ele>929.408</ele>
        <time>2022-02-25T15:58:16Z</time>
      </trkpt>
      <trkpt lat="40.875370" lon="-5.078620">
        <ele>930.097</ele>
        <time>2022-02-25T15:58:56Z</time>
      </trkpt>
      <trkpt lat="40.875420" lon="-5.079090">
        <ele>931.454</ele>
        <time>2022-02-25T15:59:36Z</time>
      </trkpt>
      <trkpt lat="40.875440" lon="-5.079320">
        <ele>931.788</ele>
        <time>2022-02-25T16:00:16Z</time>
      </trkpt>
      <trkpt lat="40.875460" lon="-5.079560">
        <ele>932.497</ele>
        <time>2022-02-25T16:00:56Z</time>
      </trkpt>
      <trkpt lat="40.875510" lon="-5.080030">
        <ele>933.316</ele>
        <time>2022-02-25T16:01:36Z</time>
      </trkpt>
      <trkpt lat="40.875530" lon="-5.080270">
        <ele>934.147</ele>
        <time>2022-02-25T16:02:16Z</time>
      </trkpt>
      <trkpt lat="40.875580" lon="-5.080740">
        <ele>935.028</ele>
        <time>2022-02-25T16:02:56Z</time>
      </trkpt>
      <trkpt lat="40.875600" lon="-5.080970">
        <ele>935.420</ele>
        <time>2022-02-25T16:03:36Z</time>
      </trkpt>
      <trkpt lat="40.875650" lon="-5.081440">
        <ele>936.788</ele>
        <time>2022-02-25T16:04:16Z</time>
      </trkpt>
      <trkpt lat="40.875720" lon="-5.082150">
        <ele>938.124</ele>
        <time>2022-02-25T16:04:56Z</time>
      </trkpt>
      <trkpt lat="40.875740" lon="-5.082390">
        <ele>938.526</ele>
        <time>2022-02-25T16:05:36Z</time>
      </trkpt>
      <trkpt lat="40.875760" lon="-5.082630">
        <ele>938.908</ele>
        <time>2022-02-25T16:06:16Z</time>
      </trkpt>
      <trkpt lat="40.875800" lon="-5.083100">
        <ele>940.097</ele>
        <time>2022-02-25T16:06:56Z</time>
      </trkpt>
      <trkpt lat="40.875880" lon="-5.083910">
        <ele>940.054</ele>
        <time>2022-02-25T16:07:36Z</time>
      </trkpt>
      <trkpt lat="40.875890" lon="-5.083990">
        <ele>940.018</ele>
        <time>2022-02-25T16:08:16Z</time>
      </trkpt>
      <trkpt lat="40.875920" lon="-5.084330">
        <ele>940.017</ele>
        <time>2022-02-25T16:08:56Z</time>
      </trkpt>
      <trkpt lat="40.875930" lon="-5.084390">
        <ele>940.056</ele>
        <time>2022-02-25T16:09:36Z</time>
      </trkpt>
      <trkpt lat="40.875960" lon="-5.084830">
        <ele>940.027</ele>
        <time>2022-02-25T16:10:16Z</time>
      </trkpt>
      <trkpt lat="40.875980" lon="-5.085110">
        <ele>940.018</ele>
        <time>2022-02-25T16:10:56Z</time>
      </trkpt>
      <trkpt lat="40.875980" lon="-5.085320">
        <ele>940.060</ele>
        <time>2022-02-25T16:11:36Z</time>
      </trkpt>
      <trkpt lat="40.876000" lon="-5.085580">
        <ele>940.067</ele>
        <time>2022-02-25T16:12:16Z</time>
      </trkpt>
      <trkpt lat="40.875990" lon="-5.085900">
        <ele>940.081</ele>
        <time>2022-02-25T16:12:56Z</time>
      </trkpt>
      <trkpt lat="40.875990" lon="-5.086240">
        <ele>940.019</ele>
        <time>2022-02-25T16:13:36Z</time>
      </trkpt>
      <trkpt lat="40.875990" lon="-5.086540">
        <ele>940.008</ele>
        <time>2022-02-25T16:14:16Z</time>
      </trkpt>
      <trkpt lat="40.875980" lon="-5.086820">
        <ele>940.015</ele>
        <time>2022-02-25T16:14:56Z</time>
      </trkpt>
      <trkpt lat="40.875970" lon="-5.087230">
        <ele>940.072</ele>
        <time>2022-02-25T16:15:36Z</time>
      </trkpt>
      <trkpt lat="40.875970" lon="-5.087460">
        <ele>940.036</ele>
        <time>2022-02-25T16:16:16Z</time>
      </trkpt>
      <trkpt lat="40.875960" lon="-5.087700">
        <ele>940.055</ele>
        <time>2022-02-25T16:16:56Z</time>
      </trkpt>
      <trkpt lat="40.875950" lon="-5.087940">
        <ele>940.024</ele>
        <time>2022-02-25T16:17:36Z</time>
      </trkpt>
      <trkpt lat="40.875950" lon="-5.087970">
        <ele>940.075</ele>
        <time>2022-02-25T16:18:16Z</time>
      </trkpt>
      <trkpt lat="40.875930" lon="-5.088890">
        <ele>940.016</ele>
        <time>2022-02-25T16:18:56Z</time>
      </trkpt>
      <trkpt lat="40.875920" lon="-5.089130">
        <ele>940.058</ele>
        <time>2022-02-25T16:19:36Z</time>
      </trkpt>
      <trkpt lat="40.875920" lon="-5.089370">
        <ele>940.019</ele>
        <time>2022-02-25T16:20:16Z</time>
      </trkpt>
      <trkpt lat="40.875920" lon="-5.089440">
        <ele>940.009</ele>
        <time>2022-02-25T16:20:56Z</time>
      </trkpt>
      <trkpt lat="40.875890" lon="-5.090210">
        <ele>941.619</ele>
        <time>2022-02-25T16:21:36Z</time>
      </trkpt>
      <trkpt lat="40.875890" lon="-5.090320">
        <ele>941.808</ele>
        <time>2022-02-25T16:22:16Z</time>
      </trkpt>
      <trkpt lat="40.875870" lon="-5.090790">
        <ele>942.730</ele>
        <time>2022-02-25T16:22:56Z</time>
      </trkpt>
      <trkpt lat="40.875870" lon="-5.091030">
        <ele>942.997</ele>
        <time>2022-02-25T16:23:36Z</time>
      </trkpt>
      <trkpt lat="40.875860" lon="-5.091270">
        <ele>943.411</ele>
        <time>2022-02-25T16:24:16Z</time>
      </trkpt>
      <trkpt lat="40.875850" lon="-5.091510">
        <ele>943.510</ele>
        <time>2022-02-25T16:24:56Z</time>
      </trkpt>
      <trkpt lat="40.875840" lon="-5.091740">
        <ele>943.289</ele>
        <time>2022-02-25T16:25:36Z</time>
      </trkpt>
      <trkpt lat="40.875840" lon="-5.091980">
        <ele>944.050</ele>
        <time>2022-02-25T16:26:16Z</time>
      </trkpt>
      <trkpt lat="40.875810" lon="-5.092690">
        <ele>944.851</ele>
        <time>2022-02-25T16:26:56Z</time>
      </trkpt>
      <trkpt lat="40.875810" lon="-5.092940">
        <ele>945.143</ele>
        <time>2022-02-25T16:27:36Z</time>
      </trkpt>
      <trkpt lat="40.875810" lon="-5.092960">
        <ele>945.175</ele>
        <time>2022-02-25T16:28:16Z</time>
      </trkpt>
      <trkpt lat="40.875790" lon="-5.093440">
        <ele>946.228</ele>
        <time>2022-02-25T16:28:56Z</time>
      </trkpt>
      <trkpt lat="40.875760" lon="-5.094460">
        <ele>948.020</ele>
        <time>2022-02-25T16:29:36Z</time>
      </trkpt>
      <trkpt lat="40.875750" lon="-5.094820">
        <ele>948.508</ele>
        <time>2022-02-25T16:30:16Z</time>
      </trkpt>
      <trkpt lat="40.875740" lon="-5.095180">
        <ele>949.286</ele>
        <time>2022-02-25T16:30:56Z</time>
      </trkpt>
      <trkpt lat="40.875730" lon="-5.095480">
        <ele>949.843</ele>
        <time>2022-02-25T16:31:36Z</time>
      </trkpt>
      <trkpt lat="40.875720" lon="-5.095720">
        <ele>950.037</ele>
        <time>2022-02-25T16:32:16Z</time>
      </trkpt>
      <trkpt lat="40.875710" lon="-5.095960">
        <ele>950.026</ele>
        <time>2022-02-25T16:32:56Z</time>
      </trkpt>
      <trkpt lat="40.875710" lon="-5.096190">
        <ele>950.025</ele>
        <time>2022-02-25T16:33:36Z</time>
      </trkpt>
      <trkpt lat="40.875690" lon="-5.096890">
        <ele>950.056</ele>
        <time>2022-02-25T16:34:16Z</time>
      </trkpt>
      <trkpt lat="40.875690" lon="-5.096940">
        <ele>950.087</ele>
        <time>2022-02-25T16:34:56Z</time>
      </trkpt>
      <trkpt lat="40.875690" lon="-5.097000">
        <ele>950.059</ele>
        <time>2022-02-25T16:35:36Z</time>
      </trkpt>
      <trkpt lat="40.875690" lon="-5.097230">
        <ele>950.036</ele>
        <time>2022-02-25T16:36:16Z</time>
      </trkpt>
      <trkpt lat="40.875680" lon="-5.097430">
        <ele>950.017</ele>
        <time>2022-02-25T16:36:56Z</time>
      </trkpt>
      <trkpt lat="40.875690" lon="-5.097860">
        <ele>950.018</ele>
        <time>2022-02-25T16:37:36Z</time>
      </trkpt>
      <trkpt lat="40.875690" lon="-5.097950">
        <ele>950.008</ele>
        <time>2022-02-25T16:38:16Z</time>
      </trkpt>
      <trkpt lat="40.875690" lon="-5.098120">
        <ele>949.952</ele>
        <time>2022-02-25T16:38:56Z</time>
      </trkpt>
      <trkpt lat="40.875690" lon="-5.098290">
        <ele>949.629</ele>
        <time>2022-02-25T16:39:36Z</time>
      </trkpt>
      <trkpt lat="40.875690" lon="-5.098670">
        <ele>949.593</ele>
        <time>2022-02-25T16:40:16Z</time>
      </trkpt>
      <trkpt lat="40.875690" lon="-5.099330">
        <ele>949.542</ele>
        <time>2022-02-25T16:40:56Z</time>
      </trkpt>
      <trkpt lat="40.875690" lon="-5.099730">
        <ele>950.061</ele>
        <time>2022-02-25T16:41:36Z</time>
      </trkpt>
      <trkpt lat="40.875710" lon="-5.099800">
        <ele>950.072</ele>
        <time>2022-02-25T16:42:16Z</time>
      </trkpt>
      <trkpt lat="40.875720" lon="-5.100110">
        <ele>950.423</ele>
        <time>2022-02-25T16:42:56Z</time>
      </trkpt>
      <trkpt lat="40.875720" lon="-5.100350">
        <ele>950.415</ele>
        <time>2022-02-25T16:43:36Z</time>
      </trkpt>
      <trkpt lat="40.875740" lon="-5.101300">
        <ele>950.329</ele>
        <time>2022-02-25T16:44:16Z</time>
      </trkpt>
      <trkpt lat="40.875740" lon="-5.101940">
        <ele>951.300</ele>
        <time>2022-02-25T16:44:56Z</time>
      </trkpt>
      <trkpt lat="40.875740" lon="-5.102200">
        <ele>951.320</ele>
        <time>2022-02-25T16:45:36Z</time>
      </trkpt>
      <trkpt lat="40.875740" lon="-5.102310">
        <ele>951.308</ele>
        <time>2022-02-25T16:46:16Z</time>
      </trkpt>
      <trkpt lat="40.875730" lon="-5.102460">
        <ele>951.421</ele>
        <time>2022-02-25T16:46:56Z</time>
      </trkpt>
      <trkpt lat="40.875730" lon="-5.102650">
        <ele>951.458</ele>
        <time>2022-02-25T16:47:36Z</time>
      </trkpt>
      <trkpt lat="40.875720" lon="-5.102820">
        <ele>951.462</ele>
        <time>2022-02-25T16:48:16Z</time>
      </trkpt>
      <trkpt lat="40.875690" lon="-5.103230">
        <ele>951.531</ele>
        <time>2022-02-25T16:48:56Z</time>
      </trkpt>
      <trkpt lat="40.875670" lon="-5.103400">
        <ele>951.660</ele>
        <time>2022-02-25T16:49:36Z</time>
      </trkpt>
      <trkpt lat="40.875620" lon="-5.103970">
        <ele>952.681</ele>
        <time>2022-02-25T16:50:16Z</time>
      </trkpt>
      <trkpt lat="40.875610" lon="-5.104010">
        <ele>952.742</ele>
        <time>2022-02-25T16:50:56Z</time>
      </trkpt>
      <trkpt lat="40.875590" lon="-5.104100">
        <ele>952.854</ele>
        <time>2022-02-25T16:51:36Z</time>
      </trkpt>
      <trkpt lat="40.875570" lon="-5.104530">
        <ele>953.366</ele>
        <time>2022-02-25T16:52:16Z</time>
      </trkpt>
      <trkpt lat="40.875520" lon="-5.105240">
        <ele>955.029</ele>
        <time>2022-02-25T16:52:56Z</time>
      </trkpt>
      <trkpt lat="40.875490" lon="-5.105620">
        <ele>955.221</ele>
        <time>2022-02-25T16:53:36Z</time>
      </trkpt>
      <trkpt lat="40.875430" lon="-5.106630">
        <ele>956.508</ele>
        <time>2022-02-25T16:54:16Z</time>
      </trkpt>
      <trkpt lat="40.875390" lon="-5.107140">
        <ele>957.475</ele>
        <time>2022-02-25T16:54:56Z</time>
      </trkpt>
      <trkpt lat="40.875380" lon="-5.107370">
        <ele>957.662</ele>
        <time>2022-02-25T16:55:36Z</time>
      </trkpt>
      <trkpt lat="40.875360" lon="-5.107690">
        <ele>957.966</ele>
        <time>2022-02-25T16:56:16Z</time>
      </trkpt>
      <trkpt lat="40.875310" lon="-5.108560">
        <ele>959.035</ele>
        <time>2022-02-25T16:56:56Z</time>
      </trkpt>
      <trkpt lat="40.875300" lon="-5.108800">
        <ele>959.024</ele>
        <time>2022-02-25T16:57:36Z</time>
      </trkpt>
      <trkpt lat="40.875290" lon="-5.108910">
        <ele>959.185</ele>
        <time>2022-02-25T16:58:16Z</time>
      </trkpt>
      <trkpt lat="40.875290" lon="-5.109340">
        <ele>960.026</ele>
        <time>2022-02-25T16:58:56Z</time>
      </trkpt>
      <trkpt lat="40.875310" lon="-5.109670">
        <ele>960.068</ele>
        <time>2022-02-25T16:59:36Z</time>
      </trkpt>
      <trkpt lat="40.875330" lon="-5.109950">
        <ele>960.088</ele>
        <time>2022-02-25T17:00:16Z</time>
      </trkpt>
      <trkpt lat="40.875360" lon="-5.110190">
        <ele>960.024</ele>
        <time>2022-02-25T17:00:56Z</time>
      </trkpt>
      <trkpt lat="40.875380" lon="-5.110330">
        <ele>960.026</ele>
        <time>2022-02-25T17:01:36Z</time>
      </trkpt>
      <trkpt lat="40.875410" lon="-5.110490">
        <ele>960.008</ele>
        <time>2022-02-25T17:02:16Z</time>
      </trkpt>
      <trkpt lat="40.875470" lon="-5.110750">
        <ele>960.017</ele>
        <time>2022-02-25T17:02:56Z</time>
      </trkpt>
      <trkpt lat="40.875540" lon="-5.111040">
        <ele>960.024</ele>
        <time>2022-02-25T17:03:36Z</time>
      </trkpt>
      <trkpt lat="40.875550" lon="-5.111070">
        <ele>960.038</ele>
        <time>2022-02-25T17:04:16Z</time>
      </trkpt>
      <trkpt lat="40.875610" lon="-5.111290">
        <ele>960.047</ele>
        <time>2022-02-25T17:04:56Z</time>
      </trkpt>
      <trkpt lat="40.875630" lon="-5.111360">
        <ele>960.036</ele>
        <time>2022-02-25T17:05:36Z</time>
      </trkpt>
      <trkpt lat="40.875860" lon="-5.112150">
        <ele>960.077</ele>
        <time>2022-02-25T17:06:16Z</time>
      </trkpt>
      <trkpt lat="40.875870" lon="-5.112180">
        <ele>960.028</ele>
        <time>2022-02-25T17:06:56Z</time>
      </trkpt>
      <trkpt lat="40.875940" lon="-5.112400">
        <ele>960.030</ele>
        <time>2022-02-25T17:07:36Z</time>
      </trkpt>
      <trkpt lat="40.876000" lon="-5.112610">
        <ele>960.018</ele>
        <time>2022-02-25T17:08:16Z</time>
      </trkpt>
      <trkpt lat="40.876010" lon="-5.112620">
        <ele>960.098</ele>
        <time>2022-02-25T17:08:56Z</time>
      </trkpt>
      <trkpt lat="40.876060" lon="-5.112780">
        <ele>960.017</ele>
        <time>2022-02-25T17:09:36Z</time>
      </trkpt>
      <trkpt lat="40.876070" lon="-5.112840">
        <ele>960.008</ele>
        <time>2022-02-25T17:10:16Z</time>
      </trkpt>
      <trkpt lat="40.876140" lon="-5.113060">
        <ele>960.090</ele>
        <time>2022-02-25T17:10:56Z</time>
      </trkpt>
      <trkpt lat="40.876200" lon="-5.113250">
        <ele>959.597</ele>
        <time>2022-02-25T17:11:36Z</time>
      </trkpt>
      <trkpt lat="40.876340" lon="-5.113700">
        <ele>959.851</ele>
        <time>2022-02-25T17:12:16Z</time>
      </trkpt>
      <trkpt lat="40.876410" lon="-5.113940">
        <ele>959.880</ele>
        <time>2022-02-25T17:12:56Z</time>
      </trkpt>
      <trkpt lat="40.876440" lon="-5.114040">
        <ele>959.619</ele>
        <time>2022-02-25T17:13:36Z</time>
      </trkpt>
      <trkpt lat="40.876480" lon="-5.114150">
        <ele>959.460</ele>
        <time>2022-02-25T17:14:16Z</time>
      </trkpt>
      <trkpt lat="40.876720" lon="-5.114950">
        <ele>958.481</ele>
        <time>2022-02-25T17:14:56Z</time>
      </trkpt>
      <trkpt lat="40.876850" lon="-5.115370">
        <ele>958.483</ele>
        <time>2022-02-25T17:15:36Z</time>
      </trkpt>
      <trkpt lat="40.876930" lon="-5.115610">
        <ele>958.067</ele>
        <time>2022-02-25T17:16:16Z</time>
      </trkpt>
      <trkpt lat="40.877000" lon="-5.115830">
        <ele>958.081</ele>
        <time>2022-02-25T17:16:56Z</time>
      </trkpt>
      <trkpt lat="40.877060" lon="-5.116050">
        <ele>958.019</ele>
        <time>2022-02-25T17:17:36Z</time>
      </trkpt>
      <trkpt lat="40.877130" lon="-5.116270">
        <ele>957.808</ele>
        <time>2022-02-25T17:18:16Z</time>
      </trkpt>
      <trkpt lat="40.877200" lon="-5.116490">
        <ele>957.625</ele>
        <time>2022-02-25T17:18:56Z</time>
      </trkpt>
      <trkpt lat="40.877270" lon="-5.116710">
        <ele>957.022</ele>
        <time>2022-02-25T17:19:36Z</time>
      </trkpt>
      <trkpt lat="40.877470" lon="-5.117370">
        <ele>956.516</ele>
        <time>2022-02-25T17:20:16Z</time>
      </trkpt>
      <trkpt lat="40.877540" lon="-5.117590">
        <ele>956.025</ele>
        <time>2022-02-25T17:20:56Z</time>
      </trkpt>
      <trkpt lat="40.877610" lon="-5.117810">
        <ele>955.674</ele>
        <time>2022-02-25T17:21:36Z</time>
      </trkpt>
      <trkpt lat="40.877670" lon="-5.118030">
        <ele>955.425</ele>
        <time>2022-02-25T17:22:16Z</time>
      </trkpt>
      <trkpt lat="40.877740" lon="-5.118250">
        <ele>954.436</ele>
        <time>2022-02-25T17:22:56Z</time>
      </trkpt>
      <trkpt lat="40.877850" lon="-5.118620">
        <ele>953.298</ele>
        <time>2022-02-25T17:23:36Z</time>
      </trkpt>
      <trkpt lat="40.877880" lon="-5.118700">
        <ele>952.845</ele>
        <time>2022-02-25T17:24:16Z</time>
      </trkpt>
      <trkpt lat="40.877940" lon="-5.118920">
        <ele>951.647</ele>
        <time>2022-02-25T17:24:56Z</time>
      </trkpt>
      <trkpt lat="40.878010" lon="-5.119140">
        <ele>950.511</ele>
        <time>2022-02-25T17:25:36Z</time>
      </trkpt>
      <trkpt lat="40.878480" lon="-5.120680">
        <ele>947.008</ele>
        <time>2022-02-25T17:26:16Z</time>
      </trkpt>
      <trkpt lat="40.878690" lon="-5.121360">
        <ele>945.793</ele>
        <time>2022-02-25T17:26:56Z</time>
      </trkpt>
      <trkpt lat="40.878700" lon="-5.121370">
        <ele>945.740</ele>
        <time>2022-02-25T17:27:36Z</time>
      </trkpt>
      <trkpt lat="40.878840" lon="-5.121840">
        <ele>943.764</ele>
        <time>2022-02-25T17:28:16Z</time>
      </trkpt>
      <trkpt lat="40.879060" lon="-5.122540">
        <ele>940.733</ele>
        <time>2022-02-25T17:28:56Z</time>
      </trkpt>
      <trkpt lat="40.879190" lon="-5.122980">
        <ele>940.042</ele>
        <time>2022-02-25T17:29:36Z</time>
      </trkpt>
      <trkpt lat="40.879260" lon="-5.123200">
        <ele>940.073</ele>
        <time>2022-02-25T17:30:16Z</time>
      </trkpt>
      <trkpt lat="40.879280" lon="-5.123250">
        <ele>940.074</ele>
        <time>2022-02-25T17:30:56Z</time>
      </trkpt>
      <trkpt lat="40.879330" lon="-5.123420">
        <ele>940.016</ele>
        <time>2022-02-25T17:31:36Z</time>
      </trkpt>
      <trkpt lat="40.879410" lon="-5.123680">
        <ele>940.084</ele>
        <time>2022-02-25T17:32:16Z</time>
      </trkpt>
      <trkpt lat="40.879470" lon="-5.123860">
        <ele>940.007</ele>
        <time>2022-02-25T17:32:56Z</time>
      </trkpt>
      <trkpt lat="40.879670" lon="-5.124520">
        <ele>936.817</ele>
        <time>2022-02-25T17:33:36Z</time>
      </trkpt>
      <trkpt lat="40.879730" lon="-5.124700">
        <ele>936.208</ele>
        <time>2022-02-25T17:34:16Z</time>
      </trkpt>
      <trkpt lat="40.880070" lon="-5.125840">
        <ele>932.567</ele>
        <time>2022-02-25T17:34:56Z</time>
      </trkpt>
      <trkpt lat="40.880080" lon="-5.125850">
        <ele>932.464</ele>
        <time>2022-02-25T17:35:36Z</time>
      </trkpt>
      <trkpt lat="40.880260" lon="-5.126430">
        <ele>932.328</ele>
        <time>2022-02-25T17:36:16Z</time>
      </trkpt>
      <trkpt lat="40.880280" lon="-5.126500">
        <ele>932.437</ele>
        <time>2022-02-25T17:36:56Z</time>
      </trkpt>
      <trkpt lat="40.880380" lon="-5.126810">
        <ele>933.126</ele>
        <time>2022-02-25T17:37:36Z</time>
      </trkpt>
      <trkpt lat="40.880550" lon="-5.127380">
        <ele>933.617</ele>
        <time>2022-02-25T17:38:16Z</time>
      </trkpt>
      <trkpt lat="40.880580" lon="-5.127460">
        <ele>933.968</ele>
        <time>2022-02-25T17:38:56Z</time>
      </trkpt>
      <trkpt lat="40.880630" lon="-5.127650">
        <ele>934.510</ele>
        <time>2022-02-25T17:39:36Z</time>
      </trkpt>
      <trkpt lat="40.880720" lon="-5.127910">
        <ele>935.564</ele>
        <time>2022-02-25T17:40:16Z</time>
      </trkpt>
      <trkpt lat="40.880760" lon="-5.128060">
        <ele>936.006</ele>
        <time>2022-02-25T17:40:56Z</time>
      </trkpt>
      <trkpt lat="40.880840" lon="-5.128330">
        <ele>936.016</ele>
        <time>2022-02-25T17:41:36Z</time>
      </trkpt>
      <trkpt lat="40.880960" lon="-5.128720">
        <ele>937.408</ele>
        <time>2022-02-25T17:42:16Z</time>
      </trkpt>
      <trkpt lat="40.881100" lon="-5.129160">
        <ele>938.095</ele>
        <time>2022-02-25T17:42:56Z</time>
      </trkpt>
      <trkpt lat="40.881310" lon="-5.129850">
        <ele>939.642</ele>
        <time>2022-02-25T17:43:36Z</time>
      </trkpt>
      <trkpt lat="40.881860" lon="-5.131620">
        <ele>941.626</ele>
        <time>2022-02-25T17:44:16Z</time>
      </trkpt>
      <trkpt lat="40.882370" lon="-5.133260">
        <ele>943.915</ele>
        <time>2022-02-25T17:44:56Z</time>
      </trkpt>
      <trkpt lat="40.882400" lon="-5.133370">
        <ele>944.134</ele>
        <time>2022-02-25T17:45:36Z</time>
      </trkpt>
      <trkpt lat="40.882470" lon="-5.133590">
        <ele>944.955</ele>
        <time>2022-02-25T17:46:16Z</time>
      </trkpt>
      <trkpt lat="40.883080" lon="-5.135570">
        <ele>948.036</ele>
        <time>2022-02-25T17:46:56Z</time>
      </trkpt>
      <trkpt lat="40.883080" lon="-5.135600">
        <ele>948.198</ele>
        <time>2022-02-25T17:47:36Z</time>
      </trkpt>
      <trkpt lat="40.883140" lon="-5.135790">
        <ele>948.625</ele>
        <time>2022-02-25T17:48:16Z</time>
      </trkpt>
      <trkpt lat="40.883210" lon="-5.136010">
        <ele>948.826</ele>
        <time>2022-02-25T17:48:56Z</time>
      </trkpt>
      <trkpt lat="40.883270" lon="-5.136200">
        <ele>949.108</ele>
        <time>2022-02-25T17:49:36Z</time>
      </trkpt>
      <trkpt lat="40.883280" lon="-5.136230">
        <ele>949.108</ele>
        <time>2022-02-25T17:50:16Z</time>
      </trkpt>
      <trkpt lat="40.883380" lon="-5.136540">
        <ele>949.511</ele>
        <time>2022-02-25T17:50:56Z</time>
      </trkpt>
      <trkpt lat="40.883450" lon="-5.136710">
        <ele>949.678</ele>
        <time>2022-02-25T17:51:36Z</time>
      </trkpt>
      <trkpt lat="40.883520" lon="-5.136870">
        <ele>949.862</ele>
        <time>2022-02-25T17:52:16Z</time>
      </trkpt>
      <trkpt lat="40.883540" lon="-5.136920">
        <ele>949.981</ele>
        <time>2022-02-25T17:52:56Z</time>
      </trkpt>
      <trkpt lat="40.883610" lon="-5.137080">
        <ele>950.010</ele>
        <time>2022-02-25T17:53:36Z</time>
      </trkpt>
      <trkpt lat="40.883630" lon="-5.137110">
        <ele>949.951</ele>
        <time>2022-02-25T17:54:16Z</time>
      </trkpt>
      <trkpt lat="40.883720" lon="-5.137290">
        <ele>949.772</ele>
        <time>2022-02-25T17:54:56Z</time>
      </trkpt>
      <trkpt lat="40.883830" lon="-5.137470">
        <ele>949.934</ele>
        <time>2022-02-25T17:55:36Z</time>
      </trkpt>
      <trkpt lat="40.883920" lon="-5.137620">
        <ele>949.965</ele>
        <time>2022-02-25T17:56:16Z</time>
      </trkpt>
      <trkpt lat="40.883940" lon="-5.137640">
        <ele>949.868</ele>
        <time>2022-02-25T17:56:56Z</time>
      </trkpt>
      <trkpt lat="40.884060" lon="-5.137810">
        <ele>949.514</ele>
        <time>2022-02-25T17:57:36Z</time>
      </trkpt>
      <trkpt lat="40.884100" lon="-5.137860">
        <ele>949.508</ele>
        <time>2022-02-25T17:58:16Z</time>
      </trkpt>
      <trkpt lat="40.884240" lon="-5.138030">
        <ele>949.725</ele>
        <time>2022-02-25T17:58:56Z</time>
      </trkpt>
      <trkpt lat="40.884350" lon="-5.138160">
        <ele>949.362</ele>
        <time>2022-02-25T17:59:36Z</time>
      </trkpt>
      <trkpt lat="40.884470" lon="-5.138270">
        <ele>948.966</ele>
        <time>2022-02-25T18:00:16Z</time>
      </trkpt>
      <trkpt lat="40.884620" lon="-5.138410">
        <ele>947.445</ele>
        <time>2022-02-25T18:00:56Z</time>
      </trkpt>
      <trkpt lat="40.884630" lon="-5.138420">
        <ele>947.284</ele>
        <time>2022-02-25T18:01:36Z</time>
      </trkpt>
      <trkpt lat="40.884770" lon="-5.138530">
        <ele>945.165</ele>
        <time>2022-02-25T18:02:16Z</time>
      </trkpt>
      <trkpt lat="40.884860" lon="-5.138600">
        <ele>944.116</ele>
        <time>2022-02-25T18:02:56Z</time>
      </trkpt>
      <trkpt lat="40.885100" lon="-5.138750">
        <ele>942.788</ele>
        <time>2022-02-25T18:03:36Z</time>
      </trkpt>
      <trkpt lat="40.885260" lon="-5.138840">
        <ele>942.345</ele>
        <time>2022-02-25T18:04:16Z</time>
      </trkpt>
      <trkpt lat="40.885300" lon="-5.138860">
        <ele>942.247</ele>
        <time>2022-02-25T18:04:56Z</time>
      </trkpt>
      <trkpt lat="40.885430" lon="-5.138920">
        <ele>941.811</ele>
        <time>2022-02-25T18:05:36Z</time>
      </trkpt>
      <trkpt lat="40.885460" lon="-5.138940">
        <ele>941.808</ele>
        <time>2022-02-25T18:06:16Z</time>
      </trkpt>
      <trkpt lat="40.885830" lon="-5.139090">
        <ele>941.333</ele>
        <time>2022-02-25T18:06:56Z</time>
      </trkpt>
      <trkpt lat="40.886070" lon="-5.139180">
        <ele>941.040</ele>
        <time>2022-02-25T18:07:36Z</time>
      </trkpt>
      <trkpt lat="40.886270" lon="-5.139260">
        <ele>938.284</ele>
        <time>2022-02-25T18:08:16Z</time>
      </trkpt>
      <trkpt lat="40.886470" lon="-5.139360">
        <ele>935.593</ele>
        <time>2022-02-25T18:08:56Z</time>
      </trkpt>
      <trkpt lat="40.886710" lon="-5.139500">
        <ele>934.482</ele>
        <time>2022-02-25T18:09:36Z</time>
      </trkpt>
      <trkpt lat="40.886780" lon="-5.139550">
        <ele>933.873</ele>
        <time>2022-02-25T18:10:16Z</time>
      </trkpt>
      <trkpt lat="40.886950" lon="-5.139670">
        <ele>932.454</ele>
        <time>2022-02-25T18:10:56Z</time>
      </trkpt>
      <trkpt lat="40.887230" lon="-5.139920">
        <ele>930.636</ele>
        <time>2022-02-25T18:11:36Z</time>
      </trkpt>
      <trkpt lat="40.887370" lon="-5.140070">
        <ele>930.023</ele>
        <time>2022-02-25T18:12:16Z</time>
      </trkpt>
      <trkpt lat="40.887520" lon="-5.140240">
        <ele>930.083</ele>
        <time>2022-02-25T18:12:56Z</time>
      </trkpt>
      <trkpt lat="40.887630" lon="-5.140390">
        <ele>930.011</ele>
        <time>2022-02-25T18:13:36Z</time>
      </trkpt>
      <trkpt lat="40.887730" lon="-5.140540">
        <ele>930.008</ele>
        <time>2022-02-25T18:14:16Z</time>
      </trkpt>
      <trkpt lat="40.887820" lon="-5.140680">
        <ele>930.021</ele>
        <time>2022-02-25T18:14:56Z</time>
      </trkpt>
      <trkpt lat="40.887870" lon="-5.140770">
        <ele>930.048</ele>
        <time>2022-02-25T18:15:36Z</time>
      </trkpt>
      <trkpt lat="40.887910" lon="-5.140850">
        <ele>930.052</ele>
        <time>2022-02-25T18:16:16Z</time>
      </trkpt>
      <trkpt lat="40.887990" lon="-5.141000">
        <ele>930.041</ele>
        <time>2022-02-25T18:16:56Z</time>
      </trkpt>
      <trkpt lat="40.888090" lon="-5.141220">
        <ele>930.040</ele>
        <time>2022-02-25T18:17:36Z</time>
      </trkpt>
      <trkpt lat="40.888250" lon="-5.141580">
        <ele>930.041</ele>
        <time>2022-02-25T18:18:16Z</time>
      </trkpt>
      <trkpt lat="40.888340" lon="-5.141790">
        <ele>930.042</ele>
        <time>2022-02-25T18:18:56Z</time>
      </trkpt>
      <trkpt lat="40.888540" lon="-5.142260">
        <ele>930.094</ele>
        <time>2022-02-25T18:19:36Z</time>
      </trkpt>
      <trkpt lat="40.888680" lon="-5.142580">
        <ele>930.063</ele>
        <time>2022-02-25T18:20:16Z</time>
      </trkpt>
      <trkpt lat="40.888690" lon="-5.142620">
        <ele>930.044</ele>
        <time>2022-02-25T18:20:56Z</time>
      </trkpt>
      <trkpt lat="40.888940" lon="-5.143180">
        <ele>930.018</ele>
        <time>2022-02-25T18:21:36Z</time>
      </trkpt>
      <trkpt lat="40.889210" lon="-5.143810">
        <ele>930.008</ele>
        <time>2022-02-25T18:22:16Z</time>
      </trkpt>
      <trkpt lat="40.889390" lon="-5.144200">
        <ele>930.025</ele>
        <time>2022-02-25T18:22:56Z</time>
      </trkpt>
      <trkpt lat="40.889990" lon="-5.145570">
        <ele>931.962</ele>
        <time>2022-02-25T18:23:36Z</time>
      </trkpt>
      <trkpt lat="40.890170" lon="-5.145990">
        <ele>932.056</ele>
        <time>2022-02-25T18:24:16Z</time>
      </trkpt>
      <trkpt lat="40.890280" lon="-5.146240">
        <ele>932.055</ele>
        <time>2022-02-25T18:24:56Z</time>
      </trkpt>
      <trkpt lat="40.890390" lon="-5.146470">
        <ele>932.324</ele>
        <time>2022-02-25T18:25:36Z</time>
      </trkpt>
      <trkpt lat="40.890510" lon="-5.146720">
        <ele>933.035</ele>
        <time>2022-02-25T18:26:16Z</time>
      </trkpt>
      <trkpt lat="40.890620" lon="-5.146910">
        <ele>933.026</ele>
        <time>2022-02-25T18:26:56Z</time>
      </trkpt>
      <trkpt lat="40.891040" lon="-5.147670">
        <ele>933.058</ele>
        <time>2022-02-25T18:27:36Z</time>
      </trkpt>
      <trkpt lat="40.891150" lon="-5.147870">
        <ele>933.068</ele>
        <time>2022-02-25T18:28:16Z</time>
      </trkpt>
      <trkpt lat="40.891490" lon="-5.148470">
        <ele>933.042</ele>
        <time>2022-02-25T18:28:56Z</time>
      </trkpt>
      <trkpt lat="40.892760" lon="-5.150730">
        <ele>932.126</ele>
        <time>2022-02-25T18:29:36Z</time>
      </trkpt>
      <trkpt lat="40.893590" lon="-5.152210">
        <ele>931.008</ele>
        <time>2022-02-25T18:30:16Z</time>
      </trkpt>
      <trkpt lat="40.894850" lon="-5.154450">
        <ele>930.535</ele>
        <time>2022-02-25T18:30:56Z</time>
      </trkpt>
      <trkpt lat="40.895220" lon="-5.155110">
        <ele>930.092</ele>
        <time>2022-02-25T18:31:36Z</time>
      </trkpt>
      <trkpt lat="40.895600" lon="-5.155790">
        <ele>929.126</ele>
        <time>2022-02-25T18:32:16Z</time>
      </trkpt>
      <trkpt lat="40.895610" lon="-5.155810">
        <ele>929.125</ele>
        <time>2022-02-25T18:32:56Z</time>
      </trkpt>
      <trkpt lat="40.896570" lon="-5.157510">
        <ele>926.394</ele>
        <time>2022-02-25T18:33:36Z</time>
      </trkpt>
      <trkpt lat="40.897580" lon="-5.159300">
        <ele>922.075</ele>
        <time>2022-02-25T18:34:16Z</time>
      </trkpt>
      <trkpt lat="40.897640" lon="-5.159410">
        <ele>922.026</ele>
        <time>2022-02-25T18:34:56Z</time>
      </trkpt>
      <trkpt lat="40.897910" lon="-5.159890">
        <ele>921.098</ele>
        <time>2022-02-25T18:35:36Z</time>
      </trkpt>
      <trkpt lat="40.898010" lon="-5.160070">
        <ele>920.863</ele>
        <time>2022-02-25T18:36:16Z</time>
      </trkpt>
      <trkpt lat="40.898220" lon="-5.160440">
        <ele>918.544</ele>
        <time>2022-02-25T18:36:56Z</time>
      </trkpt>
      <trkpt lat="40.898350" lon="-5.160690">
        <ele>917.018</ele>
        <time>2022-02-25T18:37:36Z</time>
      </trkpt>
      <trkpt lat="40.898430" lon="-5.160860">
        <ele>916.608</ele>
        <time>2022-02-25T18:38:16Z</time>
      </trkpt>
      <trkpt lat="40.898610" lon="-5.161250">
        <ele>915.535</ele>
        <time>2022-02-25T18:38:56Z</time>
      </trkpt>
      <trkpt lat="40.898750" lon="-5.161610">
        <ele>914.652</ele>
        <time>2022-02-25T18:39:36Z</time>
      </trkpt>
      <trkpt lat="40.898850" lon="-5.161890">
        <ele>914.056</ele>
        <time>2022-02-25T18:40:16Z</time>
      </trkpt>
      <trkpt lat="40.898940" lon="-5.162180">
        <ele>913.215</ele>
        <time>2022-02-25T18:40:56Z</time>
      </trkpt>
      <trkpt lat="40.899050" lon="-5.162550">
        <ele>912.824</ele>
        <time>2022-02-25T18:41:36Z</time>
      </trkpt>
      <trkpt lat="40.899080" lon="-5.162640">
        <ele>912.515</ele>
        <time>2022-02-25T18:42:16Z</time>
      </trkpt>
      <trkpt lat="40.899110" lon="-5.162790">
        <ele>912.016</ele>
        <time>2022-02-25T18:42:56Z</time>
      </trkpt>
      <trkpt lat="40.899170" lon="-5.163060">
        <ele>912.078</ele>
        <time>2022-02-25T18:43:36Z</time>
      </trkpt>
      <trkpt lat="40.899240" lon="-5.163430">
        <ele>911.028</ele>
        <time>2022-02-25T18:44:16Z</time>
      </trkpt>
      <trkpt lat="40.899260" lon="-5.163550">
        <ele>911.089</ele>
        <time>2022-02-25T18:44:56Z</time>
      </trkpt>
      <trkpt lat="40.899280" lon="-5.163650">
        <ele>910.917</ele>
        <time>2022-02-25T18:45:36Z</time>
      </trkpt>
      <trkpt lat="40.899300" lon="-5.163780">
        <ele>910.408</ele>
        <time>2022-02-25T18:46:16Z</time>
      </trkpt>
      <trkpt lat="40.899310" lon="-5.163880">
        <ele>910.041</ele>
        <time>2022-02-25T18:46:56Z</time>
      </trkpt>
      <trkpt lat="40.899350" lon="-5.164170">
        <ele>910.028</ele>
        <time>2022-02-25T18:47:36Z</time>
      </trkpt>
      <trkpt lat="40.899380" lon="-5.164490">
        <ele>910.082</ele>
        <time>2022-02-25T18:48:16Z</time>
      </trkpt>
      <trkpt lat="40.899410" lon="-5.164800">
        <ele>910.031</ele>
        <time>2022-02-25T18:48:56Z</time>
      </trkpt>
      <trkpt lat="40.899440" lon="-5.165110">
        <ele>910.460</ele>
        <time>2022-02-25T18:49:36Z</time>
      </trkpt>
      <trkpt lat="40.899560" lon="-5.166200">
        <ele>912.071</ele>
        <time>2022-02-25T18:50:16Z</time>
      </trkpt>
      <trkpt lat="40.899630" lon="-5.166900">
        <ele>913.032</ele>
        <time>2022-02-25T18:50:56Z</time>
      </trkpt>
      <trkpt lat="40.899700" lon="-5.167570">
        <ele>914.024</ele>
        <time>2022-02-25T18:51:36Z</time>
      </trkpt>
      <trkpt lat="40.899920" lon="-5.169690">
        <ele>916.965</ele>
        <time>2022-02-25T18:52:16Z</time>
      </trkpt>
      <trkpt lat="40.899970" lon="-5.170170">
        <ele>917.168</ele>
        <time>2022-02-25T18:52:56Z</time>
      </trkpt>
      <trkpt lat="40.899990" lon="-5.170400">
        <ele>917.514</ele>
        <time>2022-02-25T18:53:36Z</time>
      </trkpt>
      <trkpt lat="40.900040" lon="-5.170870">
        <ele>918.008</ele>
        <time>2022-02-25T18:54:16Z</time>
      </trkpt>
      <trkpt lat="40.900040" lon="-5.170880">
        <ele>918.075</ele>
        <time>2022-02-25T18:54:56Z</time>
      </trkpt>
      <trkpt lat="40.900160" lon="-5.172050">
        <ele>919.752</ele>
        <time>2022-02-25T18:55:36Z</time>
      </trkpt>
      <trkpt lat="40.900180" lon="-5.172230">
        <ele>920.026</ele>
        <time>2022-02-25T18:56:16Z</time>
      </trkpt>
      <trkpt lat="40.900280" lon="-5.173180">
        <ele>921.085</ele>
        <time>2022-02-25T18:56:56Z</time>
      </trkpt>
      <trkpt lat="40.900340" lon="-5.173750">
        <ele>921.034</ele>
        <time>2022-02-25T18:57:36Z</time>
      </trkpt>
      <trkpt lat="40.900350" lon="-5.173890">
        <ele>921.075</ele>
        <time>2022-02-25T18:58:16Z</time>
      </trkpt>
      <trkpt lat="40.900370" lon="-5.173990">
        <ele>921.016</ele>
        <time>2022-02-25T18:58:56Z</time>
      </trkpt>
      <trkpt lat="40.900420" lon="-5.174410">
        <ele>921.488</ele>
        <time>2022-02-25T18:59:36Z</time>
      </trkpt>
      <trkpt lat="40.900480" lon="-5.174850">
        <ele>921.669</ele>
        <time>2022-02-25T19:00:16Z</time>
      </trkpt>
      <trkpt lat="40.900540" lon="-5.175280">
        <ele>922.004</ele>
        <time>2022-02-25T19:00:56Z</time>
      </trkpt>
      <trkpt lat="40.900600" lon="-5.175670">
        <ele>921.724</ele>
        <time>2022-02-25T19:01:36Z</time>
      </trkpt>
      <trkpt lat="40.900670" lon="-5.176080">
        <ele>921.608</ele>
        <time>2022-02-25T19:02:16Z</time>
      </trkpt>
      <trkpt lat="40.900740" lon="-5.176430">
        <ele>922.355</ele>
        <time>2022-02-25T19:02:56Z</time>
      </trkpt>
      <trkpt lat="40.900810" lon="-5.176780">
        <ele>922.172</ele>
        <time>2022-02-25T19:03:36Z</time>
      </trkpt>
      <trkpt lat="40.900860" lon="-5.176890">
        <ele>922.036</ele>
        <time>2022-02-25T19:04:16Z</time>
      </trkpt>
      <trkpt lat="40.900990" lon="-5.177410">
        <ele>921.485</ele>
        <time>2022-02-25T19:04:56Z</time>
      </trkpt>
      <trkpt lat="40.901070" lon="-5.177720">
        <ele>921.154</ele>
        <time>2022-02-25T19:05:36Z</time>
      </trkpt>
      <trkpt lat="40.901160" lon="-5.178020">
        <ele>921.095</ele>
        <time>2022-02-25T19:06:16Z</time>
      </trkpt>
      <trkpt lat="40.901270" lon="-5.178410">
        <ele>921.086</ele>
        <time>2022-02-25T19:06:56Z</time>
      </trkpt>
      <trkpt lat="40.901380" lon="-5.178770">
        <ele>921.068</ele>
        <time>2022-02-25T19:07:36Z</time>
      </trkpt>
      <trkpt lat="40.901560" lon="-5.179340">
        <ele>920.057</ele>
        <time>2022-02-25T19:08:16Z</time>
      </trkpt>
      <trkpt lat="40.901630" lon="-5.179550">
        <ele>920.000</ele>
        <time>2022-02-25T19:08:56Z</time>
      </trkpt>
      <trkpt lat="40.901760" lon="-5.179920">
        <ele>920.020</ele>
        <time>2022-02-25T19:09:36Z</time>
      </trkpt>
      <trkpt lat="40.901950" lon="-5.180470">
        <ele>920.008</ele>
        <time>2022-02-25T19:10:16Z</time>
      </trkpt>
      <trkpt lat="40.901960" lon="-5.180510">
        <ele>920.024</ele>
        <time>2022-02-25T19:10:56Z</time>
      </trkpt>
      <trkpt lat="40.902090" lon="-5.180890">
        <ele>920.031</ele>
        <time>2022-02-25T19:11:36Z</time>
      </trkpt>
      <trkpt lat="40.902220" lon="-5.181240">
        <ele>920.095</ele>
        <time>2022-02-25T19:12:16Z</time>
      </trkpt>
      <trkpt lat="40.902250" lon="-5.181370">
        <ele>920.084</ele>
        <time>2022-02-25T19:12:56Z</time>
      </trkpt>
      <trkpt lat="40.902370" lon="-5.181670">
        <ele>920.033</ele>
        <time>2022-02-25T19:13:36Z</time>
      </trkpt>
      <trkpt lat="40.902490" lon="-5.181990">
        <ele>920.054</ele>
        <time>2022-02-25T19:14:16Z</time>
      </trkpt>
      <trkpt lat="40.902600" lon="-5.182280">
        <ele>920.055</ele>
        <time>2022-02-25T19:14:56Z</time>
      </trkpt>
      <trkpt lat="40.902990" lon="-5.183290">
        <ele>919.817</ele>
        <time>2022-02-25T19:15:36Z</time>
      </trkpt>
      <trkpt lat="40.903800" lon="-5.185410">
        <ele>915.234</ele>
        <time>2022-02-25T19:16:16Z</time>
      </trkpt>
      <trkpt lat="40.904490" lon="-5.187200">
        <ele>913.055</ele>
        <time>2022-02-25T19:16:56Z</time>
      </trkpt>
      <trkpt lat="40.904780" lon="-5.187960">
        <ele>912.110</ele>
        <time>2022-02-25T19:17:36Z</time>
      </trkpt>
      <trkpt lat="40.905020" lon="-5.188600">
        <ele>912.008</ele>
        <time>2022-02-25T19:18:16Z</time>
      </trkpt>
      <trkpt lat="40.905070" lon="-5.188710">
        <ele>911.722</ele>
        <time>2022-02-25T19:18:56Z</time>
      </trkpt>
      <trkpt lat="40.905100" lon="-5.188810">
        <ele>911.569</ele>
        <time>2022-02-25T19:19:36Z</time>
      </trkpt>
      <trkpt lat="40.905180" lon="-5.189020">
        <ele>911.323</ele>
        <time>2022-02-25T19:20:16Z</time>
      </trkpt>
      <trkpt lat="40.905200" lon="-5.189060">
        <ele>911.322</ele>
        <time>2022-02-25T19:20:56Z</time>
      </trkpt>
      <trkpt lat="40.905260" lon="-5.189240">
        <ele>911.041</ele>
        <time>2022-02-25T19:21:36Z</time>
      </trkpt>
      <trkpt lat="40.905330" lon="-5.189430">
        <ele>911.032</ele>
        <time>2022-02-25T19:22:16Z</time>
      </trkpt>
      <trkpt lat="40.905430" lon="-5.189690">
        <ele>911.023</ele>
        <time>2022-02-25T19:22:56Z</time>
      </trkpt>
      <trkpt lat="40.905520" lon="-5.189940">
        <ele>911.045</ele>
        <time>2022-02-25T19:23:36Z</time>
      </trkpt>
      <trkpt lat="40.905610" lon="-5.190210">
        <ele>910.224</ele>
        <time>2022-02-25T19:24:16Z</time>
      </trkpt>
      <trkpt lat="40.905720" lon="-5.190530">
        <ele>910.004</ele>
        <time>2022-02-25T19:24:56Z</time>
      </trkpt>
      <trkpt lat="40.905720" lon="-5.190540">
        <ele>910.014</ele>
        <time>2022-02-25T19:25:36Z</time>
      </trkpt>
      <trkpt lat="40.905790" lon="-5.190750">
        <ele>910.008</ele>
        <time>2022-02-25T19:26:16Z</time>
      </trkpt>
      <trkpt lat="40.905820" lon="-5.190840">
        <ele>910.061</ele>
        <time>2022-02-25T19:26:56Z</time>
      </trkpt>
      <trkpt lat="40.905910" lon="-5.191160">
        <ele>909.018</ele>
        <time>2022-02-25T19:27:36Z</time>
      </trkpt>
      <trkpt lat="40.905980" lon="-5.191380">
        <ele>908.512</ele>
        <time>2022-02-25T19:28:16Z</time>
      </trkpt>
      <trkpt lat="40.906050" lon="-5.191620">
        <ele>908.041</ele>
        <time>2022-02-25T19:28:56Z</time>
      </trkpt>
      <trkpt lat="40.906140" lon="-5.191960">
        <ele>906.840</ele>
        <time>2022-02-25T19:29:36Z</time>
      </trkpt>
      <trkpt lat="40.906210" lon="-5.192240">
        <ele>906.011</ele>
        <time>2022-02-25T19:30:16Z</time>
      </trkpt>
      <trkpt lat="40.906280" lon="-5.192500">
        <ele>905.462</ele>
        <time>2022-02-25T19:30:56Z</time>
      </trkpt>
      <trkpt lat="40.906310" lon="-5.192650">
        <ele>905.124</ele>
        <time>2022-02-25T19:31:36Z</time>
      </trkpt>
      <trkpt lat="40.906320" lon="-5.192700">
        <ele>905.163</ele>
        <time>2022-02-25T19:32:16Z</time>
      </trkpt>
      <trkpt lat="40.906350" lon="-5.192830">
        <ele>904.844</ele>
        <time>2022-02-25T19:32:56Z</time>
      </trkpt>
      <trkpt lat="40.906640" lon="-5.194200">
        <ele>901.918</ele>
        <time>2022-02-25T19:33:36Z</time>
      </trkpt>
      <trkpt lat="40.906680" lon="-5.194370">
        <ele>901.308</ele>
        <time>2022-02-25T19:34:16Z</time>
      </trkpt>
      <trkpt lat="40.906682" lon="-5.194374">
        <ele>901.265</ele>
        <time>2022-02-25T19:34:56Z</time>
      </trkpt>
      <trkpt lat="40.906770" lon="-5.194520">
        <ele>900.952</ele>
        <time>2022-02-25T19:35:36Z</time>
      </trkpt>
      <trkpt lat="40.906830" lon="-5.194720">
        <ele>900.446</ele>
        <time>2022-02-25T19:36:16Z</time>
      </trkpt>
      <trkpt lat="40.906880" lon="-5.194870">
        <ele>900.175</ele>
        <time>2022-02-25T19:36:56Z</time>
      </trkpt>
      <trkpt lat="40.907000" lon="-5.195120">
        <ele>899.514</ele>
        <time>2022-02-25T19:37:36Z</time>
      </trkpt>
      <trkpt lat="40.907120" lon="-5.195340">
        <ele>899.055</ele>
        <time>2022-02-25T19:38:16Z</time>
      </trkpt>
      <trkpt lat="40.907200" lon="-5.195460">
        <ele>899.086</ele>
        <time>2022-02-25T19:38:56Z</time>
      </trkpt>
      <trkpt lat="40.907290" lon="-5.195600">
        <ele>898.698</ele>
        <time>2022-02-25T19:39:36Z</time>
      </trkpt>
      <trkpt lat="40.907390" lon="-5.195740">
        <ele>898.117</ele>
        <time>2022-02-25T19:40:16Z</time>
      </trkpt>
      <trkpt lat="40.908190" lon="-5.196870">
        <ele>895.187</ele>
        <time>2022-02-25T19:40:56Z</time>
      </trkpt>
      <trkpt lat="40.908350" lon="-5.197080">
        <ele>895.015</ele>
        <time>2022-02-25T19:41:36Z</time>
      </trkpt>
      <trkpt lat="40.908400" lon="-5.197140">
        <ele>894.808</ele>
        <time>2022-02-25T19:42:16Z</time>
      </trkpt>
      <trkpt lat="40.908403" lon="-5.197142">
        <ele>894.840</ele>
        <time>2022-02-25T19:42:56Z</time>
      </trkpt>
      <trkpt lat="40.908490" lon="-5.197330">
        <ele>894.327</ele>
        <time>2022-02-25T19:43:36Z</time>
      </trkpt>
      <trkpt lat="40.908530" lon="-5.197430">
        <ele>894.111</ele>
        <time>2022-02-25T19:44:16Z</time>
      </trkpt>
      <trkpt lat="40.908580" lon="-5.197470">
        <ele>894.060</ele>
        <time>2022-02-25T19:44:56Z</time>
      </trkpt>
      <trkpt lat="40.908490" lon="-5.197590">
        <ele>894.029</ele>
        <time>2022-02-25T19:45:36Z</time>
      </trkpt>
      <trkpt lat="40.908270" lon="-5.197850">
        <ele>894.010</ele>
        <time>2022-02-25T19:46:16Z</time>
      </trkpt>
      <trkpt lat="40.907930" lon="-5.198270">
        <ele>894.081</ele>
        <time>2022-02-25T19:46:56Z</time>
      </trkpt>
      <trkpt lat="40.907800" lon="-5.198430">
        <ele>894.043</ele>
        <time>2022-02-25T19:47:36Z</time>
      </trkpt>
      <trkpt lat="40.907790" lon="-5.198440">
        <ele>894.033</ele>
        <time>2022-02-25T19:48:16Z</time>
      </trkpt>
      <trkpt lat="40.907660" lon="-5.198590">
        <ele>894.023</ele>
        <time>2022-02-25T19:48:56Z</time>
      </trkpt>
      <trkpt lat="40.907660" lon="-5.198600">
        <ele>894.015</ele>
        <time>2022-02-25T19:49:36Z</time>
      </trkpt>
      <trkpt lat="40.907570" lon="-5.198710">
        <ele>893.908</ele>
        <time>2022-02-25T19:50:16Z</time>
      </trkpt>
      <trkpt lat="40.907540" lon="-5.198740">
        <ele>893.972</ele>
        <time>2022-02-25T19:50:56Z</time>
      </trkpt>
      <trkpt lat="40.907530" lon="-5.198770">
        <ele>893.999</ele>
        <time>2022-02-25T19:51:36Z</time>
      </trkpt>
      <trkpt lat="40.907420" lon="-5.198950">
        <ele>894.053</ele>
        <time>2022-02-25T19:52:16Z</time>
      </trkpt>
      <trkpt lat="40.907422" lon="-5.198945">
        <ele>894.012</ele>
        <time>2022-02-25T19:52:56Z</time>
      </trkpt>
      <trkpt lat="40.907430" lon="-5.198970">
        <ele>894.031</ele>
        <time>2022-02-25T19:53:36Z</time>
      </trkpt>
      <trkpt lat="40.907430" lon="-5.199000">
        <ele>894.042</ele>
        <time>2022-02-25T19:54:16Z</time>
      </trkpt>
      <trkpt lat="40.907430" lon="-5.199020">
        <ele>894.043</ele>
        <time>2022-02-25T19:54:56Z</time>
      </trkpt>
      <trkpt lat="40.907430" lon="-5.199040">
        <ele>894.065</ele>
        <time>2022-02-25T19:55:36Z</time>
      </trkpt>
      <trkpt lat="40.907430" lon="-5.199070">
        <ele>894.059</ele>
        <time>2022-02-25T19:56:16Z</time>
      </trkpt>
      <trkpt lat="40.907430" lon="-5.199080">
        <ele>894.003</ele>
        <time>2022-02-25T19:56:56Z</time>
      </trkpt>
      <trkpt lat="40.907430" lon="-5.199090">
        <ele>894.023</ele>
        <time>2022-02-25T19:57:36Z</time>
      </trkpt>
      <trkpt lat="40.907420" lon="-5.199110">
        <ele>894.008</ele>
        <time>2022-02-25T19:58:16Z</time>
      </trkpt>
      <trkpt lat="40.907420" lon="-5.199140">
        <ele>894.014</ele>
        <time>2022-02-25T19:58:56Z</time>
      </trkpt>
      <trkpt lat="40.907410" lon="-5.199160">
        <ele>894.051</ele>
        <time>2022-02-25T19:59:36Z</time>
      </trkpt>
      <trkpt lat="40.907400" lon="-5.199180">
        <ele>894.025</ele>
        <time>2022-02-25T20:00:16Z</time>
      </trkpt>
      <trkpt lat="40.907390" lon="-5.199200">
        <ele>894.084</ele>
        <time>2022-02-25T20:00:56Z</time>
      </trkpt>
      <trkpt lat="40.907380" lon="-5.199220">
        <ele>894.083</ele>
        <time>2022-02-25T20:01:36Z</time>
      </trkpt>
      <trkpt lat="40.907370" lon="-5.199230">
        <ele>894.064</ele>
        <time>2022-02-25T20:02:16Z</time>
      </trkpt>
      <trkpt lat="40.907350" lon="-5.199250">
        <ele>894.065</ele>
        <time>2022-02-25T20:02:56Z</time>
      </trkpt>
      <trkpt lat="40.907340" lon="-5.199260">
        <ele>894.017</ele>
        <time>2022-02-25T20:03:36Z</time>
      </trkpt>
      <trkpt lat="40.907330" lon="-5.199270">
        <ele>894.056</ele>
        <time>2022-02-25T20:04:16Z</time>
      </trkpt>
      <trkpt lat="40.907330" lon="-5.199330">
        <ele>894.059</ele>
        <time>2022-02-25T20:04:56Z</time>
      </trkpt>
      <trkpt lat="40.907320" lon="-5.199380">
        <ele>894.014</ele>
        <time>2022-02-25T20:05:36Z</time>
      </trkpt>
      <trkpt lat="40.907320" lon="-5.199450">
        <ele>894.008</ele>
        <time>2022-02-25T20:06:16Z</time>
      </trkpt>
      <trkpt lat="40.907320" lon="-5.199490">
        <ele>894.054</ele>
        <time>2022-02-25T20:06:56Z</time>
      </trkpt>
      <trkpt lat="40.907320" lon="-5.199510">
        <ele>894.021</ele>
        <time>2022-02-25T20:07:36Z</time>
      </trkpt>
      <trkpt lat="40.907310" lon="-5.199550">
        <ele>894.075</ele>
        <time>2022-02-25T20:08:16Z</time>
      </trkpt>
      <trkpt lat="40.907300" lon="-5.199610">
        <ele>894.014</ele>
        <time>2022-02-25T20:08:56Z</time>
      </trkpt>
      <trkpt lat="40.907470" lon="-5.200970">
        <ele>893.153</ele>
        <time>2022-02-25T20:09:36Z</time>
      </trkpt>
      <trkpt lat="40.907520" lon="-5.201370">
        <ele>893.064</ele>
        <time>2022-02-25T20:10:16Z</time>
      </trkpt>
      <trkpt lat="40.907550" lon="-5.201460">
        <ele>893.035</ele>
        <time>2022-02-25T20:10:56Z</time>
      </trkpt>
      <trkpt lat="40.907610" lon="-5.201710">
        <ele>892.967</ele>
        <time>2022-02-25T20:11:36Z</time>
      </trkpt>
      <trkpt lat="40.907613" lon="-5.201715">
        <ele>892.935</ele>
        <time>2022-02-25T20:12:16Z</time>
      </trkpt>
      <trkpt lat="40.907630" lon="-5.201710">
        <ele>892.986</ele>
        <time>2022-02-25T20:12:56Z</time>
      </trkpt>
      <trkpt lat="40.907650" lon="-5.201720">
        <ele>892.914</ele>
        <time>2022-02-25T20:13:36Z</time>
      </trkpt>
      <trkpt lat="40.907680" lon="-5.201730">
        <ele>892.908</ele>
        <time>2022-02-25T20:14:16Z</time>
      </trkpt>
      <trkpt lat="40.907700" lon="-5.201740">
        <ele>892.822</ele>
        <time>2022-02-25T20:14:56Z</time>
      </trkpt>
      <trkpt lat="40.907720" lon="-5.201750">
        <ele>892.869</ele>
        <time>2022-02-25T20:15:36Z</time>
      </trkpt>
      <trkpt lat="40.907730" lon="-5.201760">
        <ele>892.733</ele>
        <time>2022-02-25T20:16:16Z</time>
      </trkpt>
      <trkpt lat="40.907750" lon="-5.201780">
        <ele>892.682</ele>
        <time>2022-02-25T20:16:56Z</time>
      </trkpt>
      <trkpt lat="40.907770" lon="-5.201800">
        <ele>892.511</ele>
        <time>2022-02-25T20:17:36Z</time>
      </trkpt>
      <trkpt lat="40.907780" lon="-5.201820">
        <ele>892.432</ele>
        <time>2022-02-25T20:18:16Z</time>
      </trkpt>
      <trkpt lat="40.907790" lon="-5.201850">
        <ele>892.393</ele>
        <time>2022-02-25T20:18:56Z</time>
      </trkpt>
      <trkpt lat="40.907800" lon="-5.201870">
        <ele>892.275</ele>
        <time>2022-02-25T20:19:36Z</time>
      </trkpt>
      <trkpt lat="40.907810" lon="-5.201900">
        <ele>892.181</ele>
        <time>2022-02-25T20:20:16Z</time>
      </trkpt>
      <trkpt lat="40.907820" lon="-5.201930">
        <ele>892.061</ele>
        <time>2022-02-25T20:20:56Z</time>
      </trkpt>
      <trkpt lat="40.907820" lon="-5.201950">
        <ele>892.017</ele>
        <time>2022-02-25T20:21:36Z</time>
      </trkpt>
      <trkpt lat="40.907830" lon="-5.201980">
        <ele>892.008</ele>
        <time>2022-02-25T20:22:16Z</time>
      </trkpt>
      <trkpt lat="40.907830" lon="-5.202010">
        <ele>892.097</ele>
        <time>2022-02-25T20:22:56Z</time>
      </trkpt>
      <trkpt lat="40.907830" lon="-5.202040">
        <ele>892.084</ele>
        <time>2022-02-25T20:23:36Z</time>
      </trkpt>
      <trkpt lat="40.907820" lon="-5.202060">
        <ele>892.078</ele>
        <time>2022-02-25T20:24:16Z</time>
      </trkpt>
      <trkpt lat="40.907960" lon="-5.202170">
        <ele>892.057</ele>
        <time>2022-02-25T20:24:56Z</time>
      </trkpt>
      <trkpt lat="40.907990" lon="-5.202260">
        <ele>892.026</ele>
        <time>2022-02-25T20:25:36Z</time>
      </trkpt>
      <trkpt lat="40.908040" lon="-5.202290">
        <ele>892.087</ele>
        <time>2022-02-25T20:26:16Z</time>
      </trkpt>
      <trkpt lat="40.908120" lon="-5.202350">
        <ele>892.048</ele>
        <time>2022-02-25T20:26:56Z</time>
      </trkpt>
      <trkpt lat="40.908360" lon="-5.202520">
        <ele>891.990</ele>
        <time>2022-02-25T20:27:36Z</time>
      </trkpt>
      <trkpt lat="40.908510" lon="-5.202640">
        <ele>891.492</ele>
        <time>2022-02-25T20:28:16Z</time>
      </trkpt>
      <trkpt lat="40.908620" lon="-5.202720">
        <ele>891.073</ele>
        <time>2022-02-25T20:28:56Z</time>
      </trkpt>
      <trkpt lat="40.909170" lon="-5.203130">
        <ele>890.320</ele>
        <time>2022-02-25T20:29:36Z</time>
      </trkpt>
      <trkpt lat="40.909420" lon="-5.203330">
        <ele>890.108</ele>
        <time>2022-02-25T20:30:16Z</time>
      </trkpt>
      <trkpt lat="40.909530" lon="-5.203420">
        <ele>890.058</ele>
        <time>2022-02-25T20:30:56Z</time>
      </trkpt>
      <trkpt lat="40.909920" lon="-5.203750">
        <ele>890.015</ele>
        <time>2022-02-25T20:31:36Z</time>
      </trkpt>
      <trkpt lat="40.910150" lon="-5.203910">
        <ele>890.069</ele>
        <time>2022-02-25T20:32:16Z</time>
      </trkpt>
      <trkpt lat="40.910180" lon="-5.203920">
        <ele>890.058</ele>
        <time>2022-02-25T20:32:56Z</time>
      </trkpt>
      <trkpt lat="40.910380" lon="-5.204010">
        <ele>890.057</ele>
        <time>2022-02-25T20:33:36Z</time>
      </trkpt>
      <trkpt lat="40.910550" lon="-5.204060">
        <ele>890.058</ele>
        <time>2022-02-25T20:34:16Z</time>
      </trkpt>
      <trkpt lat="40.910790" lon="-5.204130">
        <ele>890.099</ele>
        <time>2022-02-25T20:34:56Z</time>
      </trkpt>
      <trkpt lat="40.911100" lon="-5.204200">
        <ele>890.071</ele>
        <time>2022-02-25T20:35:36Z</time>
      </trkpt>
      <trkpt lat="40.913550" lon="-5.204710">
        <ele>890.098</ele>
        <time>2022-02-25T20:36:16Z</time>
      </trkpt>
      <trkpt lat="40.913920" lon="-5.204790">
        <ele>890.015</ele>
        <time>2022-02-25T20:36:56Z</time>
      </trkpt>
      <trkpt lat="40.913980" lon="-5.204810">
        <ele>890.026</ele>
        <time>2022-02-25T20:37:36Z</time>
      </trkpt>
      <trkpt lat="40.914090" lon="-5.204830">
        <ele>890.008</ele>
        <time>2022-02-25T20:38:16Z</time>
      </trkpt>
      <trkpt lat="40.914150" lon="-5.204850">
        <ele>890.088</ele>
        <time>2022-02-25T20:38:56Z</time>
      </trkpt>
      <trkpt lat="40.914860" lon="-5.205010">
        <ele>890.045</ele>
        <time>2022-02-25T20:39:36Z</time>
      </trkpt>
      <trkpt lat="40.915040" lon="-5.205050">
        <ele>890.039</ele>
        <time>2022-02-25T20:40:16Z</time>
      </trkpt>
      <trkpt lat="40.915100" lon="-5.205060">
        <ele>890.098</ele>
        <time>2022-02-25T20:40:56Z</time>
      </trkpt>
      <trkpt lat="40.915690" lon="-5.205190">
        <ele>890.017</ele>
        <time>2022-02-25T20:41:36Z</time>
      </trkpt>
      <trkpt lat="40.915930" lon="-5.205240">
        <ele>890.078</ele>
        <time>2022-02-25T20:42:16Z</time>
      </trkpt>
      <trkpt lat="40.916040" lon="-5.205270">
        <ele>890.019</ele>
        <time>2022-02-25T20:42:56Z</time>
      </trkpt>
      <trkpt lat="40.916100" lon="-5.205280">
        <ele>890.021</ele>
        <time>2022-02-25T20:43:36Z</time>
      </trkpt>
      <trkpt lat="40.916850" lon="-5.205450">
        <ele>880.044</ele>
        <time>2022-02-25T20:44:16Z</time>
      </trkpt>
      <trkpt lat="40.917470" lon="-5.205580">
        <ele>880.005</ele>
        <time>2022-02-25T20:44:56Z</time>
      </trkpt>
      <trkpt lat="40.917500" lon="-5.205600">
        <ele>880.015</ele>
        <time>2022-02-25T20:45:36Z</time>
      </trkpt>
      <trkpt lat="40.917640" lon="-5.205630">
        <ele>880.008</ele>
        <time>2022-02-25T20:46:16Z</time>
      </trkpt>
      <trkpt lat="40.917990" lon="-5.205700">
        <ele>880.083</ele>
        <time>2022-02-25T20:46:56Z</time>
      </trkpt>
      <trkpt lat="40.918410" lon="-5.205790">
        <ele>880.020</ele>
        <time>2022-02-25T20:47:36Z</time>
      </trkpt>
      <trkpt lat="40.918760" lon="-5.205870">
        <ele>880.014</ele>
        <time>2022-02-25T20:48:16Z</time>
      </trkpt>
      <trkpt lat="40.919120" lon="-5.205940">
        <ele>880.063</ele>
        <time>2022-02-25T20:48:56Z</time>
      </trkpt>
      <trkpt lat="40.919300" lon="-5.205980">
        <ele>880.092</ele>
        <time>2022-02-25T20:49:36Z</time>
      </trkpt>
      <trkpt lat="40.919470" lon="-5.206020">
        <ele>880.033</ele>
        <time>2022-02-25T20:50:16Z</time>
      </trkpt>
      <trkpt lat="40.919710" lon="-5.206070">
        <ele>880.064</ele>
        <time>2022-02-25T20:50:56Z</time>
      </trkpt>
      <trkpt lat="40.919950" lon="-5.206130">
        <ele>880.046</ele>
        <time>2022-02-25T20:51:36Z</time>
      </trkpt>
      <trkpt lat="40.920540" lon="-5.206270">
        <ele>880.089</ele>
        <time>2022-02-25T20:52:16Z</time>
      </trkpt>
      <trkpt lat="40.920620" lon="-5.206280">
        <ele>880.006</ele>
        <time>2022-02-25T20:52:56Z</time>
      </trkpt>
      <trkpt lat="40.920740" lon="-5.206300">
        <ele>880.026</ele>
        <time>2022-02-25T20:53:36Z</time>
      </trkpt>
      <trkpt lat="40.920940" lon="-5.206320">
        <ele>880.008</ele>
        <time>2022-02-25T20:54:16Z</time>
      </trkpt>
      <trkpt lat="40.921040" lon="-5.206330">
        <ele>880.087</ele>
        <time>2022-02-25T20:54:56Z</time>
      </trkpt>
      <trkpt lat="40.921200" lon="-5.206320">
        <ele>880.094</ele>
        <time>2022-02-25T20:55:36Z</time>
      </trkpt>
      <trkpt lat="40.921270" lon="-5.206320">
        <ele>880.098</ele>
        <time>2022-02-25T20:56:16Z</time>
      </trkpt>
      <trkpt lat="40.921580" lon="-5.206300">
        <ele>880.057</ele>
        <time>2022-02-25T20:56:56Z</time>
      </trkpt>
      <trkpt lat="40.921700" lon="-5.206290">
        <ele>880.026</ele>
        <time>2022-02-25T20:57:36Z</time>
      </trkpt>
      <trkpt lat="40.921930" lon="-5.206260">
        <ele>880.077</ele>
        <time>2022-02-25T20:58:16Z</time>
      </trkpt>
      <trkpt lat="40.922060" lon="-5.206240">
        <ele>880.098</ele>
        <time>2022-02-25T20:58:56Z</time>
      </trkpt>
      <trkpt lat="40.922780" lon="-5.206160">
        <ele>880.060</ele>
        <time>2022-02-25T20:59:36Z</time>
      </trkpt>
      <trkpt lat="40.922850" lon="-5.206160">
        <ele>880.078</ele>
        <time>2022-02-25T21:00:16Z</time>
      </trkpt>
      <trkpt lat="40.923140" lon="-5.206150">
        <ele>880.033</ele>
        <time>2022-02-25T21:00:56Z</time>
      </trkpt>
      <trkpt lat="40.923540" lon="-5.206120">
        <ele>880.026</ele>
        <time>2022-02-25T21:01:36Z</time>
      </trkpt>
      <trkpt lat="40.924080" lon="-5.206080">
        <ele>880.008</ele>
        <time>2022-02-25T21:02:16Z</time>
      </trkpt>
      <trkpt lat="40.925960" lon="-5.205930">
        <ele>880.026</ele>
        <time>2022-02-25T21:02:56Z</time>
      </trkpt>
      <trkpt lat="40.926100" lon="-5.205910">
        <ele>880.043</ele>
        <time>2022-02-25T21:03:36Z</time>
      </trkpt>
      <trkpt lat="40.926410" lon="-5.205890">
        <ele>880.027</ele>
        <time>2022-02-25T21:04:16Z</time>
      </trkpt>
      <trkpt lat="40.928210" lon="-5.205760">
        <ele>879.026</ele>
        <time>2022-02-25T21:04:56Z</time>
      </trkpt>
      <trkpt lat="40.928810" lon="-5.205720">
        <ele>879.075</ele>
        <time>2022-02-25T21:05:36Z</time>
      </trkpt>
      <trkpt lat="40.928960" lon="-5.205710">
        <ele>879.076</ele>
        <time>2022-02-25T21:06:16Z</time>
      </trkpt>
      <trkpt lat="40.929080" lon="-5.205720">
        <ele>879.067</ele>
        <time>2022-02-25T21:06:56Z</time>
      </trkpt>
      <trkpt lat="40.929270" lon="-5.205750">
        <ele>879.069</ele>
        <time>2022-02-25T21:07:36Z</time>
      </trkpt>
      <trkpt lat="40.929640" lon="-5.205820">
        <ele>879.041</ele>
        <time>2022-02-25T21:08:16Z</time>
      </trkpt>
      <trkpt lat="40.929820" lon="-5.205860">
        <ele>879.081</ele>
        <time>2022-02-25T21:08:56Z</time>
      </trkpt>
      <trkpt lat="40.931060" lon="-5.206110">
        <ele>880.009</ele>
        <time>2022-02-25T21:09:36Z</time>
      </trkpt>
      <trkpt lat="40.931240" lon="-5.206150">
        <ele>880.008</ele>
        <time>2022-02-25T21:10:16Z</time>
      </trkpt>
      <trkpt lat="40.931420" lon="-5.206180">
        <ele>880.013</ele>
        <time>2022-02-25T21:10:56Z</time>
      </trkpt>
      <trkpt lat="40.931450" lon="-5.206190">
        <ele>880.060</ele>
        <time>2022-02-25T21:11:36Z</time>
      </trkpt>
      <trkpt lat="40.931780" lon="-5.206230">
        <ele>879.614</ele>
        <time>2022-02-25T21:12:16Z</time>
      </trkpt>
      <trkpt lat="40.932320" lon="-5.206240">
        <ele>878.073</ele>
        <time>2022-02-25T21:12:56Z</time>
      </trkpt>
      <trkpt lat="40.932860" lon="-5.206260">
        <ele>877.722</ele>
        <time>2022-02-25T21:13:36Z</time>
      </trkpt>
      <trkpt lat="40.933040" lon="-5.206260">
        <ele>877.113</ele>
        <time>2022-02-25T21:14:16Z</time>
      </trkpt>
      <trkpt lat="40.934340" lon="-5.206300">
        <ele>876.034</ele>
        <time>2022-02-25T21:14:56Z</time>
      </trkpt>
      <trkpt lat="40.934960" lon="-5.206310">
        <ele>875.036</ele>
        <time>2022-02-25T21:15:36Z</time>
      </trkpt>
      <trkpt lat="40.935170" lon="-5.206330">
        <ele>874.545</ele>
        <time>2022-02-25T21:16:16Z</time>
      </trkpt>
      <trkpt lat="40.935190" lon="-5.206340">
        <ele>874.447</ele>
        <time>2022-02-25T21:16:56Z</time>
      </trkpt>
      <trkpt lat="40.935370" lon="-5.206380">
        <ele>874.011</ele>
        <time>2022-02-25T21:17:36Z</time>
      </trkpt>
      <trkpt lat="40.935650" lon="-5.206470">
        <ele>874.008</ele>
        <time>2022-02-25T21:18:16Z</time>
      </trkpt>
      <trkpt lat="40.936560" lon="-5.206830">
        <ele>873.063</ele>
        <time>2022-02-25T21:18:56Z</time>
      </trkpt>
      <trkpt lat="40.936760" lon="-5.206890">
        <ele>872.780</ele>
        <time>2022-02-25T21:19:36Z</time>
      </trkpt>
      <trkpt lat="40.936820" lon="-5.206910">
        <ele>872.464</ele>
        <time>2022-02-25T21:20:16Z</time>
      </trkpt>
      <trkpt lat="40.936990" lon="-5.206950">
        <ele>872.013</ele>
        <time>2022-02-25T21:20:56Z</time>
      </trkpt>
      <trkpt lat="40.937190" lon="-5.206970">
        <ele>872.042</ele>
        <time>2022-02-25T21:21:36Z</time>
      </trkpt>
      <trkpt lat="40.937540" lon="-5.206980">
        <ele>871.073</ele>
        <time>2022-02-25T21:22:16Z</time>
      </trkpt>
      <trkpt lat="40.937650" lon="-5.206980">
        <ele>871.074</ele>
        <time>2022-02-25T21:22:56Z</time>
      </trkpt>
      <trkpt lat="40.937750" lon="-5.206990">
        <ele>871.026</ele>
        <time>2022-02-25T21:23:36Z</time>
      </trkpt>
      <trkpt lat="40.938880" lon="-5.207030">
        <ele>870.069</ele>
        <time>2022-02-25T21:24:16Z</time>
      </trkpt>
      <trkpt lat="40.939260" lon="-5.207050">
        <ele>870.004</ele>
        <time>2022-02-25T21:24:56Z</time>
      </trkpt>
      <trkpt lat="40.939350" lon="-5.207050">
        <ele>870.024</ele>
        <time>2022-02-25T21:25:36Z</time>
      </trkpt>
      <trkpt lat="40.939500" lon="-5.207070">
        <ele>870.008</ele>
        <time>2022-02-25T21:26:16Z</time>
      </trkpt>
      <trkpt lat="40.939530" lon="-5.207080">
        <ele>870.035</ele>
        <time>2022-02-25T21:26:56Z</time>
      </trkpt>
      <trkpt lat="40.940180" lon="-5.207310">
        <ele>869.782</ele>
        <time>2022-02-25T21:27:36Z</time>
      </trkpt>
      <trkpt lat="40.940310" lon="-5.207360">
        <ele>869.546</ele>
        <time>2022-02-25T21:28:16Z</time>
      </trkpt>
      <trkpt lat="40.940870" lon="-5.207550">
        <ele>869.155</ele>
        <time>2022-02-25T21:28:56Z</time>
      </trkpt>
      <trkpt lat="40.940910" lon="-5.207560">
        <ele>869.244</ele>
        <time>2022-02-25T21:29:36Z</time>
      </trkpt>
      <trkpt lat="40.941080" lon="-5.207620">
        <ele>869.535</ele>
        <time>2022-02-25T21:30:16Z</time>
      </trkpt>
      <trkpt lat="40.941130" lon="-5.207640">
        <ele>869.586</ele>
        <time>2022-02-25T21:30:56Z</time>
      </trkpt>
      <trkpt lat="40.941290" lon="-5.207670">
        <ele>869.848</ele>
        <time>2022-02-25T21:31:36Z</time>
      </trkpt>
      <trkpt lat="40.941300" lon="-5.207680">
        <ele>869.876</ele>
        <time>2022-02-25T21:32:16Z</time>
      </trkpt>
      <trkpt lat="40.941340" lon="-5.207680">
        <ele>869.990</ele>
        <time>2022-02-25T21:32:56Z</time>
      </trkpt>
      <trkpt lat="40.941380" lon="-5.207680">
        <ele>870.019</ele>
        <time>2022-02-25T21:33:36Z</time>
      </trkpt>
      <trkpt lat="40.941670" lon="-5.207630">
        <ele>870.008</ele>
        <time>2022-02-25T21:34:16Z</time>
      </trkpt>
      <trkpt lat="40.941720" lon="-5.207640">
        <ele>870.046</ele>
        <time>2022-02-25T21:34:56Z</time>
      </trkpt>
      <trkpt lat="40.941790" lon="-5.207670">
        <ele>870.033</ele>
        <time>2022-02-25T21:35:36Z</time>
      </trkpt>
      <trkpt lat="40.941840" lon="-5.207700">
        <ele>870.077</ele>
        <time>2022-02-25T21:36:16Z</time>
      </trkpt>
      <trkpt lat="40.941950" lon="-5.207780">
        <ele>870.046</ele>
        <time>2022-02-25T21:36:56Z</time>
      </trkpt>
      <trkpt lat="40.942070" lon="-5.207880">
        <ele>870.015</ele>
        <time>2022-02-25T21:37:36Z</time>
      </trkpt>
      <trkpt lat="40.942230" lon="-5.207990">
        <ele>870.076</ele>
        <time>2022-02-25T21:38:16Z</time>
      </trkpt>
      <trkpt lat="40.942270" lon="-5.208020">
        <ele>870.037</ele>
        <time>2022-02-25T21:38:56Z</time>
      </trkpt>
      <trkpt lat="40.942580" lon="-5.208170">
        <ele>869.649</ele>
        <time>2022-02-25T21:39:36Z</time>
      </trkpt>
      <trkpt lat="40.942910" lon="-5.208330">
        <ele>869.594</ele>
        <time>2022-02-25T21:40:16Z</time>
      </trkpt>
      <trkpt lat="40.942960" lon="-5.208350">
        <ele>869.657</ele>
        <time>2022-02-25T21:40:56Z</time>
      </trkpt>
      <trkpt lat="40.942990" lon="-5.208370">
        <ele>869.722</ele>
        <time>2022-02-25T21:41:36Z</time>
      </trkpt>
      <trkpt lat="40.943010" lon="-5.208400">
        <ele>869.608</ele>
        <time>2022-02-25T21:42:16Z</time>
      </trkpt>
      <trkpt lat="40.943060" lon="-5.208440">
        <ele>869.638</ele>
        <time>2022-02-25T21:42:56Z</time>
      </trkpt>
      <trkpt lat="40.943300" lon="-5.208770">
        <ele>869.915</ele>
        <time>2022-02-25T21:43:36Z</time>
      </trkpt>
      <trkpt lat="40.943820" lon="-5.209430">
        <ele>870.039</ele>
        <time>2022-02-25T21:44:16Z</time>
      </trkpt>
      <trkpt lat="40.944880" lon="-5.210790">
        <ele>869.098</ele>
        <time>2022-02-25T21:44:56Z</time>
      </trkpt>
      <trkpt lat="40.945110" lon="-5.211090">
        <ele>869.097</ele>
        <time>2022-02-25T21:45:36Z</time>
      </trkpt>
      <trkpt lat="40.945450" lon="-5.211520">
        <ele>868.788</ele>
        <time>2022-02-25T21:46:16Z</time>
      </trkpt>
      <trkpt lat="40.945760" lon="-5.211910">
        <ele>868.069</ele>
        <time>2022-02-25T21:46:56Z</time>
      </trkpt>
      <trkpt lat="40.945890" lon="-5.212080">
        <ele>868.011</ele>
        <time>2022-02-25T21:47:36Z</time>
      </trkpt>
      <trkpt lat="40.945910" lon="-5.212100">
        <ele>868.096</ele>
        <time>2022-02-25T21:48:16Z</time>
      </trkpt>
      <trkpt lat="40.946000" lon="-5.212210">
        <ele>868.031</ele>
        <time>2022-02-25T21:48:56Z</time>
      </trkpt>
      <trkpt lat="40.946090" lon="-5.212340">
        <ele>868.024</ele>
        <time>2022-02-25T21:49:36Z</time>
      </trkpt>
      <trkpt lat="40.946400" lon="-5.212740">
        <ele>868.008</ele>
        <time>2022-02-25T21:50:16Z</time>
      </trkpt>
      <trkpt lat="40.946670" lon="-5.213070">
        <ele>867.018</ele>
        <time>2022-02-25T21:50:56Z</time>
      </trkpt>
      <trkpt lat="40.946730" lon="-5.213120">
        <ele>867.015</ele>
        <time>2022-02-25T21:51:36Z</time>
      </trkpt>
      <trkpt lat="40.946800" lon="-5.213220">
        <ele>867.079</ele>
        <time>2022-02-25T21:52:16Z</time>
      </trkpt>
      <trkpt lat="40.947310" lon="-5.213890">
        <ele>866.048</ele>
        <time>2022-02-25T21:52:56Z</time>
      </trkpt>
      <trkpt lat="40.947440" lon="-5.214060">
        <ele>866.027</ele>
        <time>2022-02-25T21:53:36Z</time>
      </trkpt>
      <trkpt lat="40.947800" lon="-5.214520">
        <ele>866.028</ele>
        <time>2022-02-25T21:54:16Z</time>
      </trkpt>
      <trkpt lat="40.950260" lon="-5.217660">
        <ele>863.029</ele>
        <time>2022-02-25T21:54:56Z</time>
      </trkpt>
      <trkpt lat="40.950500" lon="-5.217970">
        <ele>863.061</ele>
        <time>2022-02-25T21:55:36Z</time>
      </trkpt>
      <trkpt lat="40.951150" lon="-5.218830">
        <ele>863.017</ele>
        <time>2022-02-25T21:56:16Z</time>
      </trkpt>
      <trkpt lat="40.951280" lon="-5.218990">
        <ele>863.087</ele>
        <time>2022-02-25T21:56:56Z</time>
      </trkpt>
      <trkpt lat="40.951920" lon="-5.219830">
        <ele>863.015</ele>
        <time>2022-02-25T21:57:36Z</time>
      </trkpt>
      <trkpt lat="40.952030" lon="-5.219970">
        <ele>863.008</ele>
        <time>2022-02-25T21:58:16Z</time>
      </trkpt>
      <trkpt lat="40.952420" lon="-5.220470">
        <ele>862.310</ele>
        <time>2022-02-25T21:58:56Z</time>
      </trkpt>
      <trkpt lat="40.952470" lon="-5.220520">
        <ele>862.117</ele>
        <time>2022-02-25T21:59:36Z</time>
      </trkpt>
      <trkpt lat="40.952580" lon="-5.220650">
        <ele>862.061</ele>
        <time>2022-02-25T22:00:16Z</time>
      </trkpt>
      <trkpt lat="40.952710" lon="-5.220810">
        <ele>862.020</ele>
        <time>2022-02-25T22:00:56Z</time>
      </trkpt>
      <trkpt lat="40.952840" lon="-5.220970">
        <ele>862.099</ele>
        <time>2022-02-25T22:01:36Z</time>
      </trkpt>
      <trkpt lat="40.952970" lon="-5.221140">
        <ele>862.030</ele>
        <time>2022-02-25T22:02:16Z</time>
      </trkpt>
      <trkpt lat="40.953100" lon="-5.221300">
        <ele>862.031</ele>
        <time>2022-02-25T22:02:56Z</time>
      </trkpt>
      <trkpt lat="40.953670" lon="-5.222000">
        <ele>861.063</ele>
        <time>2022-02-25T22:03:36Z</time>
      </trkpt>
      <trkpt lat="40.953760" lon="-5.222120">
        <ele>861.035</ele>
        <time>2022-02-25T22:04:16Z</time>
      </trkpt>
      <trkpt lat="40.953880" lon="-5.222280">
        <ele>861.086</ele>
        <time>2022-02-25T22:04:56Z</time>
      </trkpt>
      <trkpt lat="40.954010" lon="-5.222450">
        <ele>861.014</ele>
        <time>2022-02-25T22:05:36Z</time>
      </trkpt>
      <trkpt lat="40.954140" lon="-5.222610">
        <ele>861.008</ele>
        <time>2022-02-25T22:06:16Z</time>
      </trkpt>
      <trkpt lat="40.954920" lon="-5.223610">
        <ele>860.012</ele>
        <time>2022-02-25T22:06:56Z</time>
      </trkpt>
      <trkpt lat="40.955430" lon="-5.224270">
        <ele>860.089</ele>
        <time>2022-02-25T22:07:36Z</time>
      </trkpt>
      <trkpt lat="40.955650" lon="-5.224550">
        <ele>860.063</ele>
        <time>2022-02-25T22:08:16Z</time>
      </trkpt>
      <trkpt lat="40.956730" lon="-5.225920">
        <ele>860.082</ele>
        <time>2022-02-25T22:08:56Z</time>
      </trkpt>
      <trkpt lat="40.956860" lon="-5.226090">
        <ele>860.051</ele>
        <time>2022-02-25T22:09:36Z</time>
      </trkpt>
      <trkpt lat="40.957240" lon="-5.226570">
        <ele>860.042</ele>
        <time>2022-02-25T22:10:16Z</time>
      </trkpt>
      <trkpt lat="40.957380" lon="-5.226740">
        <ele>860.063</ele>
        <time>2022-02-25T22:10:56Z</time>
      </trkpt>
      <trkpt lat="40.957630" lon="-5.227070">
        <ele>860.065</ele>
        <time>2022-02-25T22:11:36Z</time>
      </trkpt>
      <trkpt lat="40.957760" lon="-5.227240">
        <ele>860.054</ele>
        <time>2022-02-25T22:12:16Z</time>
      </trkpt>
      <trkpt lat="40.958130" lon="-5.227730">
        <ele>860.056</ele>
        <time>2022-02-25T22:12:56Z</time>
      </trkpt>
      <trkpt lat="40.958360" lon="-5.228000">
        <ele>860.011</ele>
        <time>2022-02-25T22:13:36Z</time>
      </trkpt>
      <trkpt lat="40.958400" lon="-5.228050">
        <ele>860.008</ele>
        <time>2022-02-25T22:14:16Z</time>
      </trkpt>
      <trkpt lat="40.958480" lon="-5.228150">
        <ele>860.064</ele>
        <time>2022-02-25T22:14:56Z</time>
      </trkpt>
      <trkpt lat="40.958540" lon="-5.228220">
        <ele>860.041</ele>
        <time>2022-02-25T22:15:36Z</time>
      </trkpt>
      <trkpt lat="40.958570" lon="-5.228260">
        <ele>860.095</ele>
        <time>2022-02-25T22:16:16Z</time>
      </trkpt>
      <trkpt lat="40.958720" lon="-5.228440">
        <ele>860.094</ele>
        <time>2022-02-25T22:16:56Z</time>
      </trkpt>
      <trkpt lat="40.959310" lon="-5.229210">
        <ele>860.013</ele>
        <time>2022-02-25T22:17:36Z</time>
      </trkpt>
      <trkpt lat="40.959570" lon="-5.229540">
        <ele>860.014</ele>
        <time>2022-02-25T22:18:16Z</time>
      </trkpt>
      <trkpt lat="40.960480" lon="-5.230710">
        <ele>860.015</ele>
        <time>2022-02-25T22:18:56Z</time>
      </trkpt>
      <trkpt lat="40.961120" lon="-5.231540">
        <ele>859.047</ele>
        <time>2022-02-25T22:19:36Z</time>
      </trkpt>
      <trkpt lat="40.962130" lon="-5.232840">
        <ele>856.574</ele>
        <time>2022-02-25T22:20:16Z</time>
      </trkpt>
      <trkpt lat="40.963460" lon="-5.234550">
        <ele>855.256</ele>
        <time>2022-02-25T22:20:56Z</time>
      </trkpt>
      <trkpt lat="40.963970" lon="-5.235210">
        <ele>855.021</ele>
        <time>2022-02-25T22:21:36Z</time>
      </trkpt>
      <trkpt lat="40.964080" lon="-5.235350">
        <ele>855.108</ele>
        <time>2022-02-25T22:22:16Z</time>
      </trkpt>
      <trkpt lat="40.964230" lon="-5.235540">
        <ele>855.036</ele>
        <time>2022-02-25T22:22:56Z</time>
      </trkpt>
      <trkpt lat="40.965200" lon="-5.236770">
        <ele>854.013</ele>
        <time>2022-02-25T22:23:36Z</time>
      </trkpt>
      <trkpt lat="40.965530" lon="-5.237190">
        <ele>853.167</ele>
        <time>2022-02-25T22:24:16Z</time>
      </trkpt>
      <trkpt lat="40.966770" lon="-5.238770">
        <ele>852.096</ele>
        <time>2022-02-25T22:24:56Z</time>
      </trkpt>
      <trkpt lat="40.967210" lon="-5.239340">
        <ele>851.035</ele>
        <time>2022-02-25T22:25:36Z</time>
      </trkpt>
      <trkpt lat="40.967340" lon="-5.239500">
        <ele>851.016</ele>
        <time>2022-02-25T22:26:16Z</time>
      </trkpt>
      <trkpt lat="40.967490" lon="-5.239720">
        <ele>851.017</ele>
        <time>2022-02-25T22:26:56Z</time>
      </trkpt>
      <trkpt lat="40.967920" lon="-5.240260">
        <ele>850.529</ele>
        <time>2022-02-25T22:27:36Z</time>
      </trkpt>
      <trkpt lat="40.967980" lon="-5.240340">
        <ele>850.314</ele>
        <time>2022-02-25T22:28:16Z</time>
      </trkpt>
      <trkpt lat="40.968740" lon="-5.241330">
        <ele>850.054</ele>
        <time>2022-02-25T22:28:56Z</time>
      </trkpt>
      <trkpt lat="40.969130" lon="-5.241830">
        <ele>850.009</ele>
        <time>2022-02-25T22:29:36Z</time>
      </trkpt>
      <trkpt lat="40.969210" lon="-5.241930">
        <ele>850.008</ele>
        <time>2022-02-25T22:30:16Z</time>
      </trkpt>
      <trkpt lat="40.970350" lon="-5.243370">
        <ele>850.030</ele>
        <time>2022-02-25T22:30:56Z</time>
      </trkpt>
      <trkpt lat="40.970370" lon="-5.243400">
        <ele>850.017</ele>
        <time>2022-02-25T22:31:36Z</time>
      </trkpt>
      <trkpt lat="40.970430" lon="-5.243470">
        <ele>850.031</ele>
        <time>2022-02-25T22:32:16Z</time>
      </trkpt>
      <trkpt lat="40.970450" lon="-5.243500">
        <ele>850.020</ele>
        <time>2022-02-25T22:32:56Z</time>
      </trkpt>
      <trkpt lat="40.970550" lon="-5.243620">
        <ele>850.079</ele>
        <time>2022-02-25T22:33:36Z</time>
      </trkpt>
      <trkpt lat="40.970870" lon="-5.244020">
        <ele>850.060</ele>
        <time>2022-02-25T22:34:16Z</time>
      </trkpt>
      <trkpt lat="40.971120" lon="-5.244360">
        <ele>850.051</ele>
        <time>2022-02-25T22:34:56Z</time>
      </trkpt>
      <trkpt lat="40.971670" lon="-5.245060">
        <ele>850.023</ele>
        <time>2022-02-25T22:35:36Z</time>
      </trkpt>
      <trkpt lat="40.971770" lon="-5.245180">
        <ele>850.039</ele>
        <time>2022-02-25T22:36:16Z</time>
      </trkpt>
      <trkpt lat="40.971960" lon="-5.245420">
        <ele>850.001</ele>
        <time>2022-02-25T22:36:56Z</time>
      </trkpt>
      <trkpt lat="40.972160" lon="-5.245680">
        <ele>850.021</ele>
        <time>2022-02-25T22:37:36Z</time>
      </trkpt>
      <trkpt lat="40.972290" lon="-5.245850">
        <ele>850.008</ele>
        <time>2022-02-25T22:38:16Z</time>
      </trkpt>
      <trkpt lat="40.973180" lon="-5.247020">
        <ele>850.072</ele>
        <time>2022-02-25T22:38:56Z</time>
      </trkpt>
      <trkpt lat="40.973310" lon="-5.247190">
        <ele>850.099</ele>
        <time>2022-02-25T22:39:36Z</time>
      </trkpt>
      <trkpt lat="40.974330" lon="-5.248520">
        <ele>850.073</ele>
        <time>2022-02-25T22:40:16Z</time>
      </trkpt>
      <trkpt lat="40.974460" lon="-5.248690">
        <ele>850.032</ele>
        <time>2022-02-25T22:40:56Z</time>
      </trkpt>
      <trkpt lat="40.975040" lon="-5.249440">
        <ele>850.031</ele>
        <time>2022-02-25T22:41:36Z</time>
      </trkpt>
      <trkpt lat="40.975990" lon="-5.250670">
        <ele>848.092</ele>
        <time>2022-02-25T22:42:16Z</time>
      </trkpt>
      <trkpt lat="40.976010" lon="-5.250690">
        <ele>848.013</ele>
        <time>2022-02-25T22:42:56Z</time>
      </trkpt>
      <trkpt lat="40.976960" lon="-5.251930">
        <ele>847.025</ele>
        <time>2022-02-25T22:43:36Z</time>
      </trkpt>
      <trkpt lat="40.977090" lon="-5.252090">
        <ele>847.077</ele>
        <time>2022-02-25T22:44:16Z</time>
      </trkpt>
      <trkpt lat="40.977330" lon="-5.252420">
        <ele>847.061</ele>
        <time>2022-02-25T22:44:56Z</time>
      </trkpt>
      <trkpt lat="40.977380" lon="-5.252460">
        <ele>847.027</ele>
        <time>2022-02-25T22:45:36Z</time>
      </trkpt>
      <trkpt lat="40.977470" lon="-5.252590">
        <ele>847.008</ele>
        <time>2022-02-25T22:46:16Z</time>
      </trkpt>
      <trkpt lat="40.977550" lon="-5.252680">
        <ele>846.836</ele>
        <time>2022-02-25T22:46:56Z</time>
      </trkpt>
      <trkpt lat="40.977730" lon="-5.252920">
        <ele>846.223</ele>
        <time>2022-02-25T22:47:36Z</time>
      </trkpt>
      <trkpt lat="40.978510" lon="-5.253910">
        <ele>845.417</ele>
        <time>2022-02-25T22:48:16Z</time>
      </trkpt>
      <trkpt lat="40.978770" lon="-5.254240">
        <ele>845.056</ele>
        <time>2022-02-25T22:48:56Z</time>
      </trkpt>
      <trkpt lat="40.979160" lon="-5.254730">
        <ele>845.015</ele>
        <time>2022-02-25T22:49:36Z</time>
      </trkpt>
      <trkpt lat="40.979450" lon="-5.255100">
        <ele>845.056</ele>
        <time>2022-02-25T22:50:16Z</time>
      </trkpt>
      <trkpt lat="40.979570" lon="-5.255230">
        <ele>845.037</ele>
        <time>2022-02-25T22:50:56Z</time>
      </trkpt>
      <trkpt lat="40.979950" lon="-5.255710">
        <ele>844.299</ele>
        <time>2022-02-25T22:51:36Z</time>
      </trkpt>
      <trkpt lat="40.980210" lon="-5.256040">
        <ele>844.763</ele>
        <time>2022-02-25T22:52:16Z</time>
      </trkpt>
      <trkpt lat="40.980930" lon="-5.256970">
        <ele>844.044</ele>
        <time>2022-02-25T22:52:56Z</time>
      </trkpt>
      <trkpt lat="40.980940" lon="-5.256980">
        <ele>844.018</ele>
        <time>2022-02-25T22:53:36Z</time>
      </trkpt>
      <trkpt lat="40.980980" lon="-5.257040">
        <ele>844.008</ele>
        <time>2022-02-25T22:54:16Z</time>
      </trkpt>
      <trkpt lat="40.981050" lon="-5.257130">
        <ele>844.015</ele>
        <time>2022-02-25T22:54:56Z</time>
      </trkpt>
      <trkpt lat="40.981180" lon="-5.257290">
        <ele>844.022</ele>
        <time>2022-02-25T22:55:36Z</time>
      </trkpt>
      <trkpt lat="40.981370" lon="-5.257540">
        <ele>844.056</ele>
        <time>2022-02-25T22:56:16Z</time>
      </trkpt>
      <trkpt lat="40.981430" lon="-5.257630">
        <ele>844.045</ele>
        <time>2022-02-25T22:56:56Z</time>
      </trkpt>
      <trkpt lat="40.981530" lon="-5.257740">
        <ele>844.054</ele>
        <time>2022-02-25T22:57:36Z</time>
      </trkpt>
      <trkpt lat="40.981540" lon="-5.257750">
        <ele>844.095</ele>
        <time>2022-02-25T22:58:16Z</time>
      </trkpt>
      <trkpt lat="40.981780" lon="-5.258080">
        <ele>844.086</ele>
        <time>2022-02-25T22:58:56Z</time>
      </trkpt>
      <trkpt lat="40.982160" lon="-5.258590">
        <ele>843.218</ele>
        <time>2022-02-25T22:59:36Z</time>
      </trkpt>
      <trkpt lat="40.982660" lon="-5.259260">
        <ele>843.083</ele>
        <time>2022-02-25T23:00:16Z</time>
      </trkpt>
      <trkpt lat="40.982830" lon="-5.259480">
        <ele>843.025</ele>
        <time>2022-02-25T23:00:56Z</time>
      </trkpt>
      <trkpt lat="40.983140" lon="-5.259780">
        <ele>843.017</ele>
        <time>2022-02-25T23:01:36Z</time>
      </trkpt>
      <trkpt lat="40.983190" lon="-5.259820">
        <ele>843.008</ele>
        <time>2022-02-25T23:02:16Z</time>
      </trkpt>
      <trkpt lat="40.983220" lon="-5.259850">
        <ele>843.017</ele>
        <time>2022-02-25T23:02:56Z</time>
      </trkpt>
      <trkpt lat="40.983260" lon="-5.259890">
        <ele>843.024</ele>
        <time>2022-02-25T23:03:36Z</time>
      </trkpt>
      <trkpt lat="40.983490" lon="-5.260060">
        <ele>843.078</ele>
        <time>2022-02-25T23:04:16Z</time>
      </trkpt>
      <trkpt lat="40.983550" lon="-5.260090">
        <ele>843.017</ele>
        <time>2022-02-25T23:04:56Z</time>
      </trkpt>
      <trkpt lat="40.983990" lon="-5.260430">
        <ele>843.016</ele>
        <time>2022-02-25T23:05:36Z</time>
      </trkpt>
      <trkpt lat="40.984610" lon="-5.260920">
        <ele>842.477</ele>
        <time>2022-02-25T23:06:16Z</time>
      </trkpt>
      <trkpt lat="40.985540" lon="-5.261650">
        <ele>842.098</ele>
        <time>2022-02-25T23:06:56Z</time>
      </trkpt>
      <trkpt lat="40.986310" lon="-5.262250">
        <ele>841.040</ele>
        <time>2022-02-25T23:07:36Z</time>
      </trkpt>
      <trkpt lat="40.986400" lon="-5.262310">
        <ele>841.099</ele>
        <time>2022-02-25T23:08:16Z</time>
      </trkpt>
      <trkpt lat="40.987010" lon="-5.262800">
        <ele>840.807</ele>
        <time>2022-02-25T23:08:56Z</time>
      </trkpt>
      <trkpt lat="40.987680" lon="-5.263310">
        <ele>840.027</ele>
        <time>2022-02-25T23:09:36Z</time>
      </trkpt>
      <trkpt lat="40.988300" lon="-5.263790">
        <ele>840.008</ele>
        <time>2022-02-25T23:10:16Z</time>
      </trkpt>
      <trkpt lat="40.988940" lon="-5.264280">
        <ele>840.088</ele>
        <time>2022-02-25T23:10:56Z</time>
      </trkpt>
      <trkpt lat="40.989080" lon="-5.264390">
        <ele>840.095</ele>
        <time>2022-02-25T23:11:36Z</time>
      </trkpt>
      <trkpt lat="40.989150" lon="-5.264460">
        <ele>840.079</ele>
        <time>2022-02-25T23:12:16Z</time>
      </trkpt>
      <trkpt lat="40.989290" lon="-5.264560">
        <ele>840.038</ele>
        <time>2022-02-25T23:12:56Z</time>
      </trkpt>
      <trkpt lat="40.989490" lon="-5.264710">
        <ele>840.047</ele>
        <time>2022-02-25T23:13:36Z</time>
      </trkpt>
      <trkpt lat="40.989680" lon="-5.264870">
        <ele>840.098</ele>
        <time>2022-02-25T23:14:16Z</time>
      </trkpt>
      <trkpt lat="40.989700" lon="-5.264880">
        <ele>840.049</ele>
        <time>2022-02-25T23:14:56Z</time>
      </trkpt>
      <trkpt lat="40.990330" lon="-5.265360">
        <ele>840.021</ele>
        <time>2022-02-25T23:15:36Z</time>
      </trkpt>
      <trkpt lat="40.990810" lon="-5.265740">
        <ele>840.094</ele>
        <time>2022-02-25T23:16:16Z</time>
      </trkpt>
      <trkpt lat="40.990950" lon="-5.265870">
        <ele>840.057</ele>
        <time>2022-02-25T23:16:56Z</time>
      </trkpt>
      <trkpt lat="40.991100" lon="-5.265980">
        <ele>840.022</ele>
        <time>2022-02-25T23:17:36Z</time>
      </trkpt>
      <trkpt lat="40.991540" lon="-5.266330">
        <ele>840.008</ele>
        <time>2022-02-25T23:18:16Z</time>
      </trkpt>
      <trkpt lat="40.991560" lon="-5.266340">
        <ele>840.048</ele>
        <time>2022-02-25T23:18:56Z</time>
      </trkpt>
      <trkpt lat="40.992630" lon="-5.267140">
        <ele>840.045</ele>
        <time>2022-02-25T23:19:36Z</time>
      </trkpt>
      <trkpt lat="40.992740" lon="-5.267280">
        <ele>840.099</ele>
        <time>2022-02-25T23:20:16Z</time>
      </trkpt>
      <trkpt lat="40.993700" lon="-5.268020">
        <ele>840.098</ele>
        <time>2022-02-25T23:20:56Z</time>
      </trkpt>
      <trkpt lat="40.994940" lon="-5.268990">
        <ele>840.067</ele>
        <time>2022-02-25T23:21:36Z</time>
      </trkpt>
      <trkpt lat="40.996180" lon="-5.269960">
        <ele>840.058</ele>
        <time>2022-02-25T23:22:16Z</time>
      </trkpt>
      <trkpt lat="40.997010" lon="-5.270610">
        <ele>840.059</ele>
        <time>2022-02-25T23:22:56Z</time>
      </trkpt>
      <trkpt lat="40.997270" lon="-5.270800">
        <ele>840.071</ele>
        <time>2022-02-25T23:23:36Z</time>
      </trkpt>
      <trkpt lat="40.999390" lon="-5.272450">
        <ele>840.035</ele>
        <time>2022-02-25T23:24:16Z</time>
      </trkpt>
      <trkpt lat="40.999440" lon="-5.272490">
        <ele>840.086</ele>
        <time>2022-02-25T23:24:56Z</time>
      </trkpt>
      <trkpt lat="40.999860" lon="-5.272820">
        <ele>840.014</ele>
        <time>2022-02-25T23:25:36Z</time>
      </trkpt>
      <trkpt lat="41.000180" lon="-5.273070">
        <ele>838.008</ele>
        <time>2022-02-25T23:26:16Z</time>
      </trkpt>
      <trkpt lat="41.001110" lon="-5.273800">
        <ele>839.342</ele>
        <time>2022-02-25T23:26:56Z</time>
      </trkpt>
      <trkpt lat="41.001260" lon="-5.273920">
        <ele>839.469</ele>
        <time>2022-02-25T23:27:36Z</time>
      </trkpt>
      <trkpt lat="41.001420" lon="-5.274040">
        <ele>838.763</ele>
        <time>2022-02-25T23:28:16Z</time>
      </trkpt>
      <trkpt lat="41.001570" lon="-5.274160">
        <ele>837.412</ele>
        <time>2022-02-25T23:28:56Z</time>
      </trkpt>
      <trkpt lat="41.002040" lon="-5.274520">
        <ele>832.081</ele>
        <time>2022-02-25T23:29:36Z</time>
      </trkpt>
      <trkpt lat="41.002500" lon="-5.274890">
        <ele>831.442</ele>
        <time>2022-02-25T23:30:16Z</time>
      </trkpt>
      <trkpt lat="41.002870" lon="-5.275180">
        <ele>831.623</ele>
        <time>2022-02-25T23:30:56Z</time>
      </trkpt>
      <trkpt lat="41.003080" lon="-5.275350">
        <ele>831.885</ele>
        <time>2022-02-25T23:31:36Z</time>
      </trkpt>
      <trkpt lat="41.003120" lon="-5.275380">
        <ele>831.757</ele>
        <time>2022-02-25T23:32:16Z</time>
      </trkpt>
      <trkpt lat="41.003580" lon="-5.275740">
        <ele>832.900</ele>
        <time>2022-02-25T23:32:56Z</time>
      </trkpt>
      <trkpt lat="41.004760" lon="-5.276670">
        <ele>837.020</ele>
        <time>2022-02-25T23:33:36Z</time>
      </trkpt>
      <trkpt lat="41.005130" lon="-5.276960">
        <ele>837.508</ele>
        <time>2022-02-25T23:34:16Z</time>
      </trkpt>
      <trkpt lat="41.005280" lon="-5.277080">
        <ele>838.054</ele>
        <time>2022-02-25T23:34:56Z</time>
      </trkpt>
      <trkpt lat="41.005440" lon="-5.277200">
        <ele>838.051</ele>
        <time>2022-02-25T23:35:36Z</time>
      </trkpt>
      <trkpt lat="41.006250" lon="-5.277850">
        <ele>837.595</ele>
        <time>2022-02-25T23:36:16Z</time>
      </trkpt>
      <trkpt lat="41.007280" lon="-5.278670">
        <ele>836.214</ele>
        <time>2022-02-25T23:36:56Z</time>
      </trkpt>
      <trkpt lat="41.008120" lon="-5.279340">
        <ele>836.863</ele>
        <time>2022-02-25T23:37:36Z</time>
      </trkpt>
      <trkpt lat="41.008240" lon="-5.279430">
        <ele>836.334</ele>
        <time>2022-02-25T23:38:16Z</time>
      </trkpt>
      <trkpt lat="41.008290" lon="-5.279470">
        <ele>836.275</ele>
        <time>2022-02-25T23:38:56Z</time>
      </trkpt>
      <trkpt lat="41.008600" lon="-5.279710">
        <ele>836.097</ele>
        <time>2022-02-25T23:39:36Z</time>
      </trkpt>
      <trkpt lat="41.009060" lon="-5.280080">
        <ele>835.561</ele>
        <time>2022-02-25T23:40:16Z</time>
      </trkpt>
      <trkpt lat="41.009830" lon="-5.280700">
        <ele>833.821</ele>
        <time>2022-02-25T23:40:56Z</time>
      </trkpt>
      <trkpt lat="41.009980" lon="-5.280820">
        <ele>834.913</ele>
        <time>2022-02-25T23:41:36Z</time>
      </trkpt>
      <trkpt lat="41.010590" lon="-5.281310">
        <ele>833.108</ele>
        <time>2022-02-25T23:42:16Z</time>
      </trkpt>
      <trkpt lat="41.010950" lon="-5.281590">
        <ele>833.075</ele>
        <time>2022-02-25T23:42:56Z</time>
      </trkpt>
      <trkpt lat="41.011370" lon="-5.281930">
        <ele>833.032</ele>
        <time>2022-02-25T23:43:36Z</time>
      </trkpt>
      <trkpt lat="41.011520" lon="-5.282050">
        <ele>833.046</ele>
        <time>2022-02-25T23:44:16Z</time>
      </trkpt>
      <trkpt lat="41.011830" lon="-5.282300">
        <ele>832.165</ele>
        <time>2022-02-25T23:44:56Z</time>
      </trkpt>
      <trkpt lat="41.013520" lon="-5.283650">
        <ele>832.274</ele>
        <time>2022-02-25T23:45:36Z</time>
      </trkpt>
      <trkpt lat="41.013830" lon="-5.283900">
        <ele>831.085</ele>
        <time>2022-02-25T23:46:16Z</time>
      </trkpt>
      <trkpt lat="41.014290" lon="-5.284270">
        <ele>832.786</ele>
        <time>2022-02-25T23:46:56Z</time>
      </trkpt>
      <trkpt lat="41.014600" lon="-5.284520">
        <ele>834.938</ele>
        <time>2022-02-25T23:47:36Z</time>
      </trkpt>
      <trkpt lat="41.014760" lon="-5.284640">
        <ele>835.239</ele>
        <time>2022-02-25T23:48:16Z</time>
      </trkpt>
      <trkpt lat="41.014870" lon="-5.284730">
        <ele>835.001</ele>
        <time>2022-02-25T23:48:56Z</time>
      </trkpt>
      <trkpt lat="41.015530" lon="-5.285250">
        <ele>835.021</ele>
        <time>2022-02-25T23:49:36Z</time>
      </trkpt>
      <trkpt lat="41.015680" lon="-5.285380">
        <ele>834.708</ele>
        <time>2022-02-25T23:50:16Z</time>
      </trkpt>
      <trkpt lat="41.015830" lon="-5.285500">
        <ele>834.872</ele>
        <time>2022-02-25T23:50:56Z</time>
      </trkpt>
      <trkpt lat="41.015990" lon="-5.285620">
        <ele>834.459</ele>
        <time>2022-02-25T23:51:36Z</time>
      </trkpt>
      <trkpt lat="41.016150" lon="-5.285740">
        <ele>833.963</ele>
        <time>2022-02-25T23:52:16Z</time>
      </trkpt>
      <trkpt lat="41.016180" lon="-5.285770">
        <ele>833.882</ele>
        <time>2022-02-25T23:52:56Z</time>
      </trkpt>
      <trkpt lat="41.016790" lon="-5.286260">
        <ele>832.351</ele>
        <time>2022-02-25T23:53:36Z</time>
      </trkpt>
      <trkpt lat="41.018190" lon="-5.287390">
        <ele>829.942</ele>
        <time>2022-02-25T23:54:16Z</time>
      </trkpt>
      <trkpt lat="41.018640" lon="-5.287740">
        <ele>828.993</ele>
        <time>2022-02-25T23:54:56Z</time>
      </trkpt>
      <trkpt lat="41.019250" lon="-5.288240">
        <ele>828.275</ele>
        <time>2022-02-25T23:55:36Z</time>
      </trkpt>
      <trkpt lat="41.019380" lon="-5.288340">
        <ele>828.072</ele>
        <time>2022-02-25T23:56:16Z</time>
      </trkpt>
      <trkpt lat="41.019410" lon="-5.288360">
        <ele>828.013</ele>
        <time>2022-02-25T23:56:56Z</time>
      </trkpt>
      <trkpt lat="41.020180" lon="-5.288970">
        <ele>827.114</ele>
        <time>2022-02-25T23:57:36Z</time>
      </trkpt>
      <trkpt lat="41.020330" lon="-5.289100">
        <ele>827.208</ele>
        <time>2022-02-25T23:58:16Z</time>
      </trkpt>
      <trkpt lat="41.021100" lon="-5.289710">
        <ele>830.096</ele>
        <time>2022-02-25T23:58:56Z</time>
      </trkpt>
      <trkpt lat="41.021410" lon="-5.289960">
        <ele>831.033</ele>
        <time>2022-02-25T23:59:36Z</time>
      </trkpt>
      <trkpt lat="41.021480" lon="-5.290010">
        <ele>831.097</ele>
        <time>2022-02-26T00:00:16Z</time>
      </trkpt>
      <trkpt lat="41.021570" lon="-5.290080">
        <ele>831.036</ele>
        <time>2022-02-26T00:00:56Z</time>
      </trkpt>
      <trkpt lat="41.022340" lon="-5.290700">
        <ele>829.145</ele>
        <time>2022-02-26T00:01:36Z</time>
      </trkpt>
      <trkpt lat="41.022490" lon="-5.290820">
        <ele>828.166</ele>
        <time>2022-02-26T00:02:16Z</time>
      </trkpt>
      <trkpt lat="41.022510" lon="-5.290830">
        <ele>828.047</ele>
        <time>2022-02-26T00:02:56Z</time>
      </trkpt>
      <trkpt lat="41.024030" lon="-5.292050">
        <ele>828.769</ele>
        <time>2022-02-26T00:03:36Z</time>
      </trkpt>
      <trkpt lat="41.024190" lon="-5.292170">
        <ele>828.777</ele>
        <time>2022-02-26T00:04:16Z</time>
      </trkpt>
      <trkpt lat="41.025180" lon="-5.292960">
        <ele>828.361</ele>
        <time>2022-02-26T00:04:56Z</time>
      </trkpt>
      <trkpt lat="41.025230" lon="-5.293000">
        <ele>828.627</ele>
        <time>2022-02-26T00:05:36Z</time>
      </trkpt>
      <trkpt lat="41.025260" lon="-5.293020">
        <ele>828.808</ele>
        <time>2022-02-26T00:06:16Z</time>
      </trkpt>
      <trkpt lat="41.025410" lon="-5.293140">
        <ele>828.796</ele>
        <time>2022-02-26T00:06:56Z</time>
      </trkpt>
      <trkpt lat="41.025420" lon="-5.293130">
        <ele>828.683</ele>
        <time>2022-02-26T00:07:36Z</time>
      </trkpt>
      <trkpt lat="41.025430" lon="-5.293110">
        <ele>828.617</ele>
        <time>2022-02-26T00:08:16Z</time>
      </trkpt>
      <trkpt lat="41.025440" lon="-5.293100">
        <ele>828.556</ele>
        <time>2022-02-26T00:08:56Z</time>
      </trkpt>
      <trkpt lat="41.025450" lon="-5.293090">
        <ele>828.545</ele>
        <time>2022-02-26T00:09:36Z</time>
      </trkpt>
      <trkpt lat="41.025460" lon="-5.293080">
        <ele>828.466</ele>
        <time>2022-02-26T00:10:16Z</time>
      </trkpt>
      <trkpt lat="41.025470" lon="-5.293070">
        <ele>828.337</ele>
        <time>2022-02-26T00:10:56Z</time>
      </trkpt>
      <trkpt lat="41.025490" lon="-5.293060">
        <ele>828.289</ele>
        <time>2022-02-26T00:11:36Z</time>
      </trkpt>
      <trkpt lat="41.025500" lon="-5.293050">
        <ele>828.289</ele>
        <time>2022-02-26T00:12:16Z</time>
      </trkpt>
      <trkpt lat="41.025520" lon="-5.293050">
        <ele>828.106</ele>
        <time>2022-02-26T00:12:56Z</time>
      </trkpt>
      <trkpt lat="41.025530" lon="-5.293040">
        <ele>828.026</ele>
        <time>2022-02-26T00:13:36Z</time>
      </trkpt>
      <trkpt lat="41.025540" lon="-5.293040">
        <ele>828.008</ele>
        <time>2022-02-26T00:14:16Z</time>
      </trkpt>
      <trkpt lat="41.025560" lon="-5.293040">
        <ele>827.917</ele>
        <time>2022-02-26T00:14:56Z</time>
      </trkpt>
      <trkpt lat="41.025570" lon="-5.293040">
        <ele>827.914</ele>
        <time>2022-02-26T00:15:36Z</time>
      </trkpt>
      <trkpt lat="41.025580" lon="-5.293040">
        <ele>827.958</ele>
        <time>2022-02-26T00:16:16Z</time>
      </trkpt>
      <trkpt lat="41.025581" lon="-5.293040">
        <ele>827.917</ele>
        <time>2022-02-26T00:16:56Z</time>
      </trkpt>
      <trkpt lat="41.025590" lon="-5.293040">
        <ele>827.896</ele>
        <time>2022-02-26T00:17:36Z</time>
      </trkpt>
      <trkpt lat="41.025600" lon="-5.293050">
        <ele>827.847</ele>
        <time>2022-02-26T00:18:16Z</time>
      </trkpt>
      <trkpt lat="41.025620" lon="-5.293050">
        <ele>827.718</ele>
        <time>2022-02-26T00:18:56Z</time>
      </trkpt>
      <trkpt lat="41.025630" lon="-5.293060">
        <ele>827.730</ele>
        <time>2022-02-26T00:19:36Z</time>
      </trkpt>
      <trkpt lat="41.025640" lon="-5.293070">
        <ele>827.751</ele>
        <time>2022-02-26T00:20:16Z</time>
      </trkpt>
      <trkpt lat="41.025660" lon="-5.293080">
        <ele>827.701</ele>
        <time>2022-02-26T00:20:56Z</time>
      </trkpt>
      <trkpt lat="41.025670" lon="-5.293090">
        <ele>827.711</ele>
        <time>2022-02-26T00:21:36Z</time>
      </trkpt>
      <trkpt lat="41.025667" lon="-5.293090">
        <ele>827.708</ele>
        <time>2022-02-26T00:22:16Z</time>
      </trkpt>
      <trkpt lat="41.025680" lon="-5.293110">
        <ele>827.714</ele>
        <time>2022-02-26T00:22:56Z</time>
      </trkpt>
      <trkpt lat="41.025690" lon="-5.293130">
        <ele>827.881</ele>
        <time>2022-02-26T00:23:36Z</time>
      </trkpt>
      <trkpt lat="41.025700" lon="-5.293150">
        <ele>827.815</ele>
        <time>2022-02-26T00:24:16Z</time>
      </trkpt>
      <trkpt lat="41.025700" lon="-5.293160">
        <ele>827.974</ele>
        <time>2022-02-26T00:24:56Z</time>
      </trkpt>
      <trkpt lat="41.025710" lon="-5.293180">
        <ele>827.933</ele>
        <time>2022-02-26T00:25:36Z</time>
      </trkpt>
      <trkpt lat="41.025710" lon="-5.293190">
        <ele>827.914</ele>
        <time>2022-02-26T00:26:16Z</time>
      </trkpt>
      <trkpt lat="41.025710" lon="-5.293200">
        <ele>828.015</ele>
        <time>2022-02-26T00:26:56Z</time>
      </trkpt>
      <trkpt lat="41.025720" lon="-5.293220">
        <ele>828.037</ele>
        <time>2022-02-26T00:27:36Z</time>
      </trkpt>
      <trkpt lat="41.025720" lon="-5.293240">
        <ele>828.166</ele>
        <time>2022-02-26T00:28:16Z</time>
      </trkpt>
      <trkpt lat="41.025720" lon="-5.293260">
        <ele>828.129</ele>
        <time>2022-02-26T00:28:56Z</time>
      </trkpt>
      <trkpt lat="41.025720" lon="-5.293280">
        <ele>828.221</ele>
        <time>2022-02-26T00:29:36Z</time>
      </trkpt>
      <trkpt lat="41.025720" lon="-5.293300">
        <ele>828.308</ele>
        <time>2022-02-26T00:30:16Z</time>
      </trkpt>
      <trkpt lat="41.025710" lon="-5.293310">
        <ele>828.485</ele>
        <time>2022-02-26T00:30:56Z</time>
      </trkpt>
      <trkpt lat="41.025710" lon="-5.293330">
        <ele>828.492</ele>
        <time>2022-02-26T00:31:36Z</time>
      </trkpt>
      <trkpt lat="41.025700" lon="-5.293350">
        <ele>828.596</ele>
        <time>2022-02-26T00:32:16Z</time>
      </trkpt>
      <trkpt lat="41.025700" lon="-5.293370">
        <ele>828.555</ele>
        <time>2022-02-26T00:32:56Z</time>
      </trkpt>
      <trkpt lat="41.025698" lon="-5.293368">
        <ele>828.514</ele>
        <time>2022-02-26T00:33:36Z</time>
      </trkpt>
      <trkpt lat="41.025800" lon="-5.293450">
        <ele>828.115</ele>
        <time>2022-02-26T00:34:16Z</time>
      </trkpt>
      <trkpt lat="41.026310" lon="-5.293860">
        <ele>825.626</ele>
        <time>2022-02-26T00:34:56Z</time>
      </trkpt>
      <trkpt lat="41.026470" lon="-5.293990">
        <ele>824.758</ele>
        <time>2022-02-26T00:35:36Z</time>
      </trkpt>
      <trkpt lat="41.026620" lon="-5.294110">
        <ele>823.576</ele>
        <time>2022-02-26T00:36:16Z</time>
      </trkpt>
      <trkpt lat="41.027240" lon="-5.294600">
        <ele>823.490</ele>
        <time>2022-02-26T00:36:56Z</time>
      </trkpt>
      <trkpt lat="41.027540" lon="-5.294850">
        <ele>821.819</ele>
        <time>2022-02-26T00:37:36Z</time>
      </trkpt>
      <trkpt lat="41.028470" lon="-5.295590">
        <ele>817.808</ele>
        <time>2022-02-26T00:38:16Z</time>
      </trkpt>
      <trkpt lat="41.028620" lon="-5.295720">
        <ele>815.836</ele>
        <time>2022-02-26T00:38:56Z</time>
      </trkpt>
      <trkpt lat="41.028680" lon="-5.295760">
        <ele>815.223</ele>
        <time>2022-02-26T00:39:36Z</time>
      </trkpt>
      <trkpt lat="41.028730" lon="-5.295810">
        <ele>814.797</ele>
        <time>2022-02-26T00:40:16Z</time>
      </trkpt>
      <trkpt lat="41.028770" lon="-5.295840">
        <ele>814.486</ele>
        <time>2022-02-26T00:40:56Z</time>
      </trkpt>
      <trkpt lat="41.028930" lon="-5.295970">
        <ele>812.425</ele>
        <time>2022-02-26T00:41:36Z</time>
      </trkpt>
      <trkpt lat="41.029080" lon="-5.296090">
        <ele>811.896</ele>
        <time>2022-02-26T00:42:16Z</time>
      </trkpt>
      <trkpt lat="41.029390" lon="-5.296340">
        <ele>812.877</ele>
        <time>2022-02-26T00:42:56Z</time>
      </trkpt>
      <trkpt lat="41.029690" lon="-5.296590">
        <ele>814.859</ele>
        <time>2022-02-26T00:43:36Z</time>
      </trkpt>
      <trkpt lat="41.029760" lon="-5.296640">
        <ele>815.592</ele>
        <time>2022-02-26T00:44:16Z</time>
      </trkpt>
      <trkpt lat="41.029830" lon="-5.296700">
        <ele>816.773</ele>
        <time>2022-02-26T00:44:56Z</time>
      </trkpt>
      <trkpt lat="41.029850" lon="-5.296710">
        <ele>817.120</ele>
        <time>2022-02-26T00:45:36Z</time>
      </trkpt>
      <trkpt lat="41.029880" lon="-5.296740">
        <ele>817.608</ele>
        <time>2022-02-26T00:46:16Z</time>
      </trkpt>
      <trkpt lat="41.030000" lon="-5.296830">
        <ele>819.688</ele>
        <time>2022-02-26T00:46:56Z</time>
      </trkpt>
      <trkpt lat="41.030160" lon="-5.296960">
        <ele>820.665</ele>
        <time>2022-02-26T00:47:36Z</time>
      </trkpt>
      <trkpt lat="41.030470" lon="-5.297210">
        <ele>821.329</ele>
        <time>2022-02-26T00:48:16Z</time>
      </trkpt>
      <trkpt lat="41.030620" lon="-5.297330">
        <ele>821.198</ele>
        <time>2022-02-26T00:48:56Z</time>
      </trkpt>
      <trkpt lat="41.031080" lon="-5.297690">
        <ele>822.327</ele>
        <time>2022-02-26T00:49:36Z</time>
      </trkpt>
      <trkpt lat="41.031240" lon="-5.297810">
        <ele>824.398</ele>
        <time>2022-02-26T00:50:16Z</time>
      </trkpt>
      <trkpt lat="41.032160" lon="-5.298550">
        <ele>828.469</ele>
        <time>2022-02-26T00:50:56Z</time>
      </trkpt>
      <trkpt lat="41.032320" lon="-5.298670">
        <ele>829.091</ele>
        <time>2022-02-26T00:51:36Z</time>
      </trkpt>
      <trkpt lat="41.032630" lon="-5.298910">
        <ele>829.094</ele>
        <time>2022-02-26T00:52:16Z</time>
      </trkpt>
      <trkpt lat="41.032780" lon="-5.299040">
        <ele>829.057</ele>
        <time>2022-02-26T00:52:56Z</time>
      </trkpt>
      <trkpt lat="41.033350" lon="-5.299490">
        <ele>830.022</ele>
        <time>2022-02-26T00:53:36Z</time>
      </trkpt>
      <trkpt lat="41.033530" lon="-5.299620">
        <ele>829.708</ele>
        <time>2022-02-26T00:54:16Z</time>
      </trkpt>
      <trkpt lat="41.033610" lon="-5.299700">
        <ele>829.958</ele>
        <time>2022-02-26T00:54:56Z</time>
      </trkpt>
      <trkpt lat="41.033670" lon="-5.299750">
        <ele>830.195</ele>
        <time>2022-02-26T00:55:36Z</time>
      </trkpt>
      <trkpt lat="41.033700" lon="-5.299780">
        <ele>830.359</ele>
        <time>2022-02-26T00:56:16Z</time>
      </trkpt>
      <trkpt lat="41.033760" lon="-5.299820">
        <ele>830.548</ele>
        <time>2022-02-26T00:56:56Z</time>
      </trkpt>
      <trkpt lat="41.034070" lon="-5.300060">
        <ele>832.217</ele>
        <time>2022-02-26T00:57:36Z</time>
      </trkpt>
      <trkpt lat="41.034090" lon="-5.300070">
        <ele>832.398</ele>
        <time>2022-02-26T00:58:16Z</time>
      </trkpt>
      <trkpt lat="41.034860" lon="-5.300690">
        <ele>833.289</ele>
        <time>2022-02-26T00:58:56Z</time>
      </trkpt>
      <trkpt lat="41.035010" lon="-5.300810">
        <ele>834.091</ele>
        <time>2022-02-26T00:59:36Z</time>
      </trkpt>
      <trkpt lat="41.035170" lon="-5.300930">
        <ele>834.983</ele>
        <time>2022-02-26T01:00:16Z</time>
      </trkpt>
      <trkpt lat="41.035780" lon="-5.301430">
        <ele>835.025</ele>
        <time>2022-02-26T01:00:56Z</time>
      </trkpt>
      <trkpt lat="41.035940" lon="-5.301550">
        <ele>835.217</ele>
        <time>2022-02-26T01:01:36Z</time>
      </trkpt>
      <trkpt lat="41.037320" lon="-5.302660">
        <ele>839.708</ele>
        <time>2022-02-26T01:02:16Z</time>
      </trkpt>
      <trkpt lat="41.037630" lon="-5.302900">
        <ele>841.587</ele>
        <time>2022-02-26T01:02:56Z</time>
      </trkpt>
      <trkpt lat="41.038400" lon="-5.303520">
        <ele>840.124</ele>
        <time>2022-02-26T01:03:36Z</time>
      </trkpt>
      <trkpt lat="41.038560" lon="-5.303640">
        <ele>839.268</ele>
        <time>2022-02-26T01:04:16Z</time>
      </trkpt>
      <trkpt lat="41.039110" lon="-5.304080">
        <ele>840.447</ele>
        <time>2022-02-26T01:04:56Z</time>
      </trkpt>
      <trkpt lat="41.039250" lon="-5.304180">
        <ele>841.036</ele>
        <time>2022-02-26T01:05:36Z</time>
      </trkpt>
      <trkpt lat="41.039380" lon="-5.304290">
        <ele>841.037</ele>
        <time>2022-02-26T01:06:16Z</time>
      </trkpt>
      <trkpt lat="41.040420" lon="-5.305120">
        <ele>839.958</ele>
        <time>2022-02-26T01:06:56Z</time>
      </trkpt>
      <trkpt lat="41.040580" lon="-5.305250">
        <ele>839.850</ele>
        <time>2022-02-26T01:07:36Z</time>
      </trkpt>
      <trkpt lat="41.040810" lon="-5.305420">
        <ele>839.694</ele>
        <time>2022-02-26T01:08:16Z</time>
      </trkpt>
      <trkpt lat="41.041390" lon="-5.305910">
        <ele>841.357</ele>
        <time>2022-02-26T01:08:56Z</time>
      </trkpt>
      <trkpt lat="41.041430" lon="-5.305930">
        <ele>841.522</ele>
        <time>2022-02-26T01:09:36Z</time>
      </trkpt>
      <trkpt lat="41.041810" lon="-5.306240">
        <ele>844.008</ele>
        <time>2022-02-26T01:10:16Z</time>
      </trkpt>
      <trkpt lat="41.042120" lon="-5.306500">
        <ele>845.898</ele>
        <time>2022-02-26T01:10:56Z</time>
      </trkpt>
      <trkpt lat="41.042180" lon="-5.306540">
        <ele>845.945</ele>
        <time>2022-02-26T01:11:36Z</time>
      </trkpt>
      <trkpt lat="41.042850" lon="-5.307060">
        <ele>846.659</ele>
        <time>2022-02-26T01:12:16Z</time>
      </trkpt>
      <trkpt lat="41.042890" lon="-5.307090">
        <ele>846.768</ele>
        <time>2022-02-26T01:12:56Z</time>
      </trkpt>
      <trkpt lat="41.043010" lon="-5.307190">
        <ele>847.087</ele>
        <time>2022-02-26T01:13:36Z</time>
      </trkpt>
      <trkpt lat="41.043470" lon="-5.307570">
        <ele>845.638</ele>
        <time>2022-02-26T01:14:16Z</time>
      </trkpt>
      <trkpt lat="41.043690" lon="-5.307750">
        <ele>846.999</ele>
        <time>2022-02-26T01:14:56Z</time>
      </trkpt>
      <trkpt lat="41.043770" lon="-5.307810">
        <ele>847.041</ele>
        <time>2022-02-26T01:15:36Z</time>
      </trkpt>
      <trkpt lat="41.044080" lon="-5.308060">
        <ele>847.012</ele>
        <time>2022-02-26T01:16:16Z</time>
      </trkpt>
      <trkpt lat="41.044390" lon="-5.308300">
        <ele>847.032</ele>
        <time>2022-02-26T01:16:56Z</time>
      </trkpt>
      <trkpt lat="41.044400" lon="-5.308300">
        <ele>847.005</ele>
        <time>2022-02-26T01:17:36Z</time>
      </trkpt>
      <trkpt lat="41.045750" lon="-5.309380">
        <ele>851.908</ele>
        <time>2022-02-26T01:18:16Z</time>
      </trkpt>
      <trkpt lat="41.045770" lon="-5.309400">
        <ele>852.050</ele>
        <time>2022-02-26T01:18:56Z</time>
      </trkpt>
      <trkpt lat="41.045970" lon="-5.309570">
        <ele>851.877</ele>
        <time>2022-02-26T01:19:36Z</time>
      </trkpt>
      <trkpt lat="41.046050" lon="-5.309660">
        <ele>851.411</ele>
        <time>2022-02-26T01:20:16Z</time>
      </trkpt>
      <trkpt lat="41.046060" lon="-5.309670">
        <ele>851.360</ele>
        <time>2022-02-26T01:20:56Z</time>
      </trkpt>
      <trkpt lat="41.046120" lon="-5.309740">
        <ele>851.189</ele>
        <time>2022-02-26T01:21:36Z</time>
      </trkpt>
      <trkpt lat="41.046270" lon="-5.309910">
        <ele>852.450</ele>
        <time>2022-02-26T01:22:16Z</time>
      </trkpt>
      <trkpt lat="41.046330" lon="-5.309990">
        <ele>852.831</ele>
        <time>2022-02-26T01:22:56Z</time>
      </trkpt>
      <trkpt lat="41.046360" lon="-5.310040">
        <ele>853.143</ele>
        <time>2022-02-26T01:23:36Z</time>
      </trkpt>
      <trkpt lat="41.046420" lon="-5.310130">
        <ele>853.467</ele>
        <time>2022-02-26T01:24:16Z</time>
      </trkpt>
      <trkpt lat="41.046490" lon="-5.310250">
        <ele>853.681</ele>
        <time>2022-02-26T01:24:56Z</time>
      </trkpt>
      <trkpt lat="41.046550" lon="-5.310370">
        <ele>854.119</ele>
        <time>2022-02-26T01:25:36Z</time>
      </trkpt>
      <trkpt lat="41.046620" lon="-5.310510">
        <ele>854.808</ele>
        <time>2022-02-26T01:26:16Z</time>
      </trkpt>
      <trkpt lat="41.046650" lon="-5.310570">
        <ele>855.125</ele>
        <time>2022-02-26T01:26:56Z</time>
      </trkpt>
      <trkpt lat="41.046770" lon="-5.310890">
        <ele>855.192</ele>
        <time>2022-02-26T01:27:36Z</time>
      </trkpt>
      <trkpt lat="41.046850" lon="-5.311180">
        <ele>853.026</ele>
        <time>2022-02-26T01:28:16Z</time>
      </trkpt>
      <trkpt lat="41.046910" lon="-5.311550">
        <ele>850.215</ele>
        <time>2022-02-26T01:28:56Z</time>
      </trkpt>
      <trkpt lat="41.046930" lon="-5.311910">
        <ele>848.394</ele>
        <time>2022-02-26T01:29:36Z</time>
      </trkpt>
      <trkpt lat="41.046930" lon="-5.312170">
        <ele>846.595</ele>
        <time>2022-02-26T01:30:16Z</time>
      </trkpt>
      <trkpt lat="41.046850" lon="-5.313120">
        <ele>840.636</ele>
        <time>2022-02-26T01:30:56Z</time>
      </trkpt>
      <trkpt lat="41.046820" lon="-5.313350">
        <ele>838.358</ele>
        <time>2022-02-26T01:31:36Z</time>
      </trkpt>
      <trkpt lat="41.046790" lon="-5.313710">
        <ele>834.863</ele>
        <time>2022-02-26T01:32:16Z</time>
      </trkpt>
      <trkpt lat="41.046760" lon="-5.314060">
        <ele>833.144</ele>
        <time>2022-02-26T01:32:56Z</time>
      </trkpt>
      <trkpt lat="41.046760" lon="-5.314080">
        <ele>833.118</ele>
        <time>2022-02-26T01:33:36Z</time>
      </trkpt>
      <trkpt lat="41.046600" lon="-5.315830">
        <ele>828.708</ele>
        <time>2022-02-26T01:34:16Z</time>
      </trkpt>
      <trkpt lat="41.046590" lon="-5.315990">
        <ele>828.175</ele>
        <time>2022-02-26T01:34:56Z</time>
      </trkpt>
      <trkpt lat="41.046600" lon="-5.316070">
        <ele>827.732</ele>
        <time>2022-02-26T01:35:36Z</time>
      </trkpt>
      <trkpt lat="41.046630" lon="-5.316470">
        <ele>825.826</ele>
        <time>2022-02-26T01:36:16Z</time>
      </trkpt>
      <trkpt lat="41.046690" lon="-5.316780">
        <ele>824.655</ele>
        <time>2022-02-26T01:36:56Z</time>
      </trkpt>
      <trkpt lat="41.046760" lon="-5.317080">
        <ele>823.234</ele>
        <time>2022-02-26T01:37:36Z</time>
      </trkpt>
      <trkpt lat="41.046890" lon="-5.317430">
        <ele>822.075</ele>
        <time>2022-02-26T01:38:16Z</time>
      </trkpt>
      <trkpt lat="41.046920" lon="-5.317510">
        <ele>822.036</ele>
        <time>2022-02-26T01:38:56Z</time>
      </trkpt>
      <trkpt lat="41.047010" lon="-5.317680">
        <ele>821.178</ele>
        <time>2022-02-26T01:39:36Z</time>
      </trkpt>
      <trkpt lat="41.047180" lon="-5.317940">
        <ele>818.979</ele>
        <time>2022-02-26T01:40:16Z</time>
      </trkpt>
      <trkpt lat="41.047260" lon="-5.318080">
        <ele>817.705</ele>
        <time>2022-02-26T01:40:56Z</time>
      </trkpt>
      <trkpt lat="41.047340" lon="-5.318180">
        <ele>816.925</ele>
        <time>2022-02-26T01:41:36Z</time>
      </trkpt>
      <trkpt lat="41.047440" lon="-5.318290">
        <ele>816.208</ele>
        <time>2022-02-26T01:42:16Z</time>
      </trkpt>
      <trkpt lat="41.047760" lon="-5.318620">
        <ele>815.016</ele>
        <time>2022-02-26T01:42:56Z</time>
      </trkpt>
      <trkpt lat="41.047910" lon="-5.318760">
        <ele>813.733</ele>
        <time>2022-02-26T01:43:36Z</time>
      </trkpt>
      <trkpt lat="41.048200" lon="-5.319050">
        <ele>810.147</ele>
        <time>2022-02-26T01:44:16Z</time>
      </trkpt>
      <trkpt lat="41.048900" lon="-5.319760">
        <ele>809.776</ele>
        <time>2022-02-26T01:44:56Z</time>
      </trkpt>
      <trkpt lat="41.048910" lon="-5.319770">
        <ele>809.645</ele>
        <time>2022-02-26T01:45:36Z</time>
      </trkpt>
      <trkpt lat="41.049040" lon="-5.319880">
        <ele>808.656</ele>
        <time>2022-02-26T01:46:16Z</time>
      </trkpt>
      <trkpt lat="41.049060" lon="-5.319900">
        <ele>808.597</ele>
        <time>2022-02-26T01:46:56Z</time>
      </trkpt>
      <trkpt lat="41.049500" lon="-5.320340">
        <ele>807.479</ele>
        <time>2022-02-26T01:47:36Z</time>
      </trkpt>
      <trkpt lat="41.049510" lon="-5.320350">
        <ele>807.327</ele>
        <time>2022-02-26T01:48:16Z</time>
      </trkpt>
      <trkpt lat="41.049810" lon="-5.320620">
        <ele>806.468</ele>
        <time>2022-02-26T01:48:56Z</time>
      </trkpt>
      <trkpt lat="41.049860" lon="-5.320670">
        <ele>806.614</ele>
        <time>2022-02-26T01:49:36Z</time>
      </trkpt>
      <trkpt lat="41.049960" lon="-5.320760">
        <ele>806.808</ele>
        <time>2022-02-26T01:50:16Z</time>
      </trkpt>
      <trkpt lat="41.050230" lon="-5.321030">
        <ele>807.141</ele>
        <time>2022-02-26T01:50:56Z</time>
      </trkpt>
      <trkpt lat="41.050660" lon="-5.321450">
        <ele>805.178</ele>
        <time>2022-02-26T01:51:36Z</time>
      </trkpt>
      <trkpt lat="41.050670" lon="-5.321460">
        <ele>805.092</ele>
        <time>2022-02-26T01:52:16Z</time>
      </trkpt>
      <trkpt lat="41.051500" lon="-5.322240">
        <ele>805.031</ele>
        <time>2022-02-26T01:52:56Z</time>
      </trkpt>
      <trkpt lat="41.051870" lon="-5.322610">
        <ele>804.860</ele>
        <time>2022-02-26T01:53:36Z</time>
      </trkpt>
      <trkpt lat="41.052950" lon="-5.323670">
        <ele>804.141</ele>
        <time>2022-02-26T01:54:16Z</time>
      </trkpt>
      <trkpt lat="41.053210" lon="-5.323900">
        <ele>804.032</ele>
        <time>2022-02-26T01:54:56Z</time>
      </trkpt>
      <trkpt lat="41.054020" lon="-5.324690">
        <ele>805.124</ele>
        <time>2022-02-26T01:55:36Z</time>
      </trkpt>
      <trkpt lat="41.054350" lon="-5.325010">
        <ele>803.329</ele>
        <time>2022-02-26T01:56:16Z</time>
      </trkpt>
      <trkpt lat="41.054940" lon="-5.325550">
        <ele>802.000</ele>
        <time>2022-02-26T01:56:56Z</time>
      </trkpt>
      <trkpt lat="41.055100" lon="-5.325700">
        <ele>802.520</ele>
        <time>2022-02-26T01:57:36Z</time>
      </trkpt>
      <trkpt lat="41.055610" lon="-5.326170">
        <ele>804.008</ele>
        <time>2022-02-26T01:58:16Z</time>
      </trkpt>
      <trkpt lat="41.055810" lon="-5.326310">
        <ele>803.381</ele>
        <time>2022-02-26T01:58:56Z</time>
      </trkpt>
      <trkpt lat="41.055980" lon="-5.326350">
        <ele>802.678</ele>
        <time>2022-02-26T01:59:36Z</time>
      </trkpt>
      <trkpt lat="41.056140" lon="-5.326320">
        <ele>802.212</ele>
        <time>2022-02-26T02:00:16Z</time>
      </trkpt>
      <trkpt lat="41.056280" lon="-5.326260">
        <ele>802.281</ele>
        <time>2022-02-26T02:00:56Z</time>
      </trkpt>
      <trkpt lat="41.056430" lon="-5.326190">
        <ele>801.970</ele>
        <time>2022-02-26T02:01:36Z</time>
      </trkpt>
      <trkpt lat="41.056460" lon="-5.326170">
        <ele>801.831</ele>
        <time>2022-02-26T02:02:16Z</time>
      </trkpt>
      <trkpt lat="41.056550" lon="-5.326110">
        <ele>801.422</ele>
        <time>2022-02-26T02:02:56Z</time>
      </trkpt>
      <trkpt lat="41.056900" lon="-5.325900">
        <ele>802.234</ele>
        <time>2022-02-26T02:03:36Z</time>
      </trkpt>
      <trkpt lat="41.057340" lon="-5.325640">
        <ele>802.049</ele>
        <time>2022-02-26T02:04:16Z</time>
      </trkpt>
      <trkpt lat="41.057910" lon="-5.325300">
        <ele>801.602</ele>
        <time>2022-02-26T02:04:56Z</time>
      </trkpt>
      <trkpt lat="41.058570" lon="-5.324920">
        <ele>799.922</ele>
        <time>2022-02-26T02:05:36Z</time>
      </trkpt>
      <trkpt lat="41.058620" lon="-5.324890">
        <ele>800.108</ele>
        <time>2022-02-26T02:06:16Z</time>
      </trkpt>
      <trkpt lat="41.058740" lon="-5.324820">
        <ele>800.613</ele>
        <time>2022-02-26T02:06:56Z</time>
      </trkpt>
      <trkpt lat="41.059070" lon="-5.324630">
        <ele>800.350</ele>
        <time>2022-02-26T02:07:36Z</time>
      </trkpt>
      <trkpt lat="41.059650" lon="-5.324290">
        <ele>800.914</ele>
        <time>2022-02-26T02:08:16Z</time>
      </trkpt>
      <trkpt lat="41.060210" lon="-5.323950">
        <ele>800.563</ele>
        <time>2022-02-26T02:08:56Z</time>
      </trkpt>
      <trkpt lat="41.060220" lon="-5.323950">
        <ele>800.482</ele>
        <time>2022-02-26T02:09:36Z</time>
      </trkpt>
      <trkpt lat="41.060380" lon="-5.323860">
        <ele>799.643</ele>
        <time>2022-02-26T02:10:16Z</time>
      </trkpt>
      <trkpt lat="41.060400" lon="-5.323850">
        <ele>799.644</ele>
        <time>2022-02-26T02:10:56Z</time>
      </trkpt>
      <trkpt lat="41.062380" lon="-5.322720">
        <ele>797.016</ele>
        <time>2022-02-26T02:11:36Z</time>
      </trkpt>
      <trkpt lat="41.062700" lon="-5.322540">
        <ele>796.998</ele>
        <time>2022-02-26T02:12:16Z</time>
      </trkpt>
      <trkpt lat="41.065360" lon="-5.320990">
        <ele>797.015</ele>
        <time>2022-02-26T02:12:56Z</time>
      </trkpt>
      <trkpt lat="41.065390" lon="-5.320960">
        <ele>797.026</ele>
        <time>2022-02-26T02:13:36Z</time>
      </trkpt>
      <trkpt lat="41.066670" lon="-5.320230">
        <ele>795.008</ele>
        <time>2022-02-26T02:14:16Z</time>
      </trkpt>
      <trkpt lat="41.067940" lon="-5.319500">
        <ele>796.018</ele>
        <time>2022-02-26T02:14:56Z</time>
      </trkpt>
      <trkpt lat="41.068820" lon="-5.319000">
        <ele>797.155</ele>
        <time>2022-02-26T02:15:36Z</time>
      </trkpt>
      <trkpt lat="41.069310" lon="-5.318710">
        <ele>795.849</ele>
        <time>2022-02-26T02:16:16Z</time>
      </trkpt>
      <trkpt lat="41.070800" lon="-5.317860">
        <ele>796.028</ele>
        <time>2022-02-26T02:16:56Z</time>
      </trkpt>
      <trkpt lat="41.070960" lon="-5.317760">
        <ele>796.017</ele>
        <time>2022-02-26T02:17:36Z</time>
      </trkpt>
      <trkpt lat="41.071290" lon="-5.317570">
        <ele>795.418</ele>
        <time>2022-02-26T02:18:16Z</time>
      </trkpt>
      <trkpt lat="41.076180" lon="-5.314750">
        <ele>795.029</ele>
        <time>2022-02-26T02:18:56Z</time>
      </trkpt>
      <trkpt lat="41.077730" lon="-5.313860">
        <ele>796.281</ele>
        <time>2022-02-26T02:19:36Z</time>
      </trkpt>
      <trkpt lat="41.079410" lon="-5.312880">
        <ele>797.481</ele>
        <time>2022-02-26T02:20:16Z</time>
      </trkpt>
      <trkpt lat="41.079420" lon="-5.312880">
        <ele>797.461</ele>
        <time>2022-02-26T02:20:56Z</time>
      </trkpt>
      <trkpt lat="41.080410" lon="-5.312300">
        <ele>795.317</ele>
        <time>2022-02-26T02:21:36Z</time>
      </trkpt>
      <trkpt lat="41.080570" lon="-5.312210">
        <ele>795.908</ele>
        <time>2022-02-26T02:22:16Z</time>
      </trkpt>
      <trkpt lat="41.080740" lon="-5.312110">
        <ele>795.377</ele>
        <time>2022-02-26T02:22:56Z</time>
      </trkpt>
      <trkpt lat="41.081220" lon="-5.311830">
        <ele>794.824</ele>
        <time>2022-02-26T02:23:36Z</time>
      </trkpt>
      <trkpt lat="41.081390" lon="-5.311730">
        <ele>795.098</ele>
        <time>2022-02-26T02:24:16Z</time>
      </trkpt>
      <trkpt lat="41.081560" lon="-5.311630">
        <ele>795.787</ele>
        <time>2022-02-26T02:24:56Z</time>
      </trkpt>
      <trkpt lat="41.083510" lon="-5.310490">
        <ele>795.396</ele>
        <time>2022-02-26T02:25:36Z</time>
      </trkpt>
      <trkpt lat="41.083540" lon="-5.310480">
        <ele>795.257</ele>
        <time>2022-02-26T02:26:16Z</time>
      </trkpt>
      <trkpt lat="41.084520" lon="-5.309910">
        <ele>791.748</ele>
        <time>2022-02-26T02:26:56Z</time>
      </trkpt>
      <trkpt lat="41.084750" lon="-5.309780">
        <ele>793.330</ele>
        <time>2022-02-26T02:27:36Z</time>
      </trkpt>
      <trkpt lat="41.084850" lon="-5.309720">
        <ele>793.447</ele>
        <time>2022-02-26T02:28:16Z</time>
      </trkpt>
      <trkpt lat="41.085050" lon="-5.309600">
        <ele>793.429</ele>
        <time>2022-02-26T02:28:56Z</time>
      </trkpt>
      <trkpt lat="41.085380" lon="-5.309410">
        <ele>794.221</ele>
        <time>2022-02-26T02:29:36Z</time>
      </trkpt>
      <trkpt lat="41.086210" lon="-5.308930">
        <ele>791.208</ele>
        <time>2022-02-26T02:30:16Z</time>
      </trkpt>
      <trkpt lat="41.087850" lon="-5.307970">
        <ele>792.243</ele>
        <time>2022-02-26T02:30:56Z</time>
      </trkpt>
      <trkpt lat="41.088020" lon="-5.307870">
        <ele>791.460</ele>
        <time>2022-02-26T02:31:36Z</time>
      </trkpt>
      <trkpt lat="41.088680" lon="-5.307490">
        <ele>790.024</ele>
        <time>2022-02-26T02:32:16Z</time>
      </trkpt>
      <trkpt lat="41.088840" lon="-5.307390">
        <ele>790.493</ele>
        <time>2022-02-26T02:32:56Z</time>
      </trkpt>
      <trkpt lat="41.089010" lon="-5.307300">
        <ele>790.482</ele>
        <time>2022-02-26T02:33:36Z</time>
      </trkpt>
      <trkpt lat="41.089830" lon="-5.306820">
        <ele>791.133</ele>
        <time>2022-02-26T02:34:16Z</time>
      </trkpt>
      <trkpt lat="41.090490" lon="-5.306440">
        <ele>791.284</ele>
        <time>2022-02-26T02:34:56Z</time>
      </trkpt>
      <trkpt lat="41.091600" lon="-5.305800">
        <ele>790.736</ele>
        <time>2022-02-26T02:35:36Z</time>
      </trkpt>
      <trkpt lat="41.091930" lon="-5.305610">
        <ele>788.428</ele>
        <time>2022-02-26T02:36:16Z</time>
      </trkpt>
      <trkpt lat="41.092090" lon="-5.305510">
        <ele>789.089</ele>
        <time>2022-02-26T02:36:56Z</time>
      </trkpt>
      <trkpt lat="41.092260" lon="-5.305420">
        <ele>790.317</ele>
        <time>2022-02-26T02:37:36Z</time>
      </trkpt>
      <trkpt lat="41.092820" lon="-5.305090">
        <ele>791.008</ele>
        <time>2022-02-26T02:38:16Z</time>
      </trkpt>
      <trkpt lat="41.093080" lon="-5.304940">
        <ele>788.831</ele>
        <time>2022-02-26T02:38:56Z</time>
      </trkpt>
      <trkpt lat="41.093170" lon="-5.304890">
        <ele>788.648</ele>
        <time>2022-02-26T02:39:36Z</time>
      </trkpt>
      <trkpt lat="41.093740" lon="-5.304560">
        <ele>789.852</ele>
        <time>2022-02-26T02:40:16Z</time>
      </trkpt>
      <trkpt lat="41.093910" lon="-5.304470">
        <ele>790.361</ele>
        <time>2022-02-26T02:40:56Z</time>
      </trkpt>
      <trkpt lat="41.094570" lon="-5.304080">
        <ele>787.660</ele>
        <time>2022-02-26T02:41:36Z</time>
      </trkpt>
      <trkpt lat="41.094730" lon="-5.303990">
        <ele>786.151</ele>
        <time>2022-02-26T02:42:16Z</time>
      </trkpt>
      <trkpt lat="41.095060" lon="-5.303800">
        <ele>786.862</ele>
        <time>2022-02-26T02:42:56Z</time>
      </trkpt>
      <trkpt lat="41.095220" lon="-5.303710">
        <ele>787.384</ele>
        <time>2022-02-26T02:43:36Z</time>
      </trkpt>
      <trkpt lat="41.095230" lon="-5.303700">
        <ele>787.318</ele>
        <time>2022-02-26T02:44:16Z</time>
      </trkpt>
      <trkpt lat="41.095890" lon="-5.303320">
        <ele>787.098</ele>
        <time>2022-02-26T02:44:56Z</time>
      </trkpt>
      <trkpt lat="41.096050" lon="-5.303220">
        <ele>786.617</ele>
        <time>2022-02-26T02:45:36Z</time>
      </trkpt>
      <trkpt lat="41.096220" lon="-5.303130">
        <ele>786.208</ele>
        <time>2022-02-26T02:46:16Z</time>
      </trkpt>
      <trkpt lat="41.097060" lon="-5.302640">
        <ele>783.330</ele>
        <time>2022-02-26T02:46:56Z</time>
      </trkpt>
      <trkpt lat="41.097540" lon="-5.302360">
        <ele>784.637</ele>
        <time>2022-02-26T02:47:36Z</time>
      </trkpt>
      <trkpt lat="41.097700" lon="-5.302270">
        <ele>785.091</ele>
        <time>2022-02-26T02:48:16Z</time>
      </trkpt>
      <trkpt lat="41.098200" lon="-5.301980">
        <ele>783.130</ele>
        <time>2022-02-26T02:48:56Z</time>
      </trkpt>
      <trkpt lat="41.098280" lon="-5.301930">
        <ele>782.359</ele>
        <time>2022-02-26T02:49:36Z</time>
      </trkpt>
      <trkpt lat="41.098360" lon="-5.301890">
        <ele>781.810</ele>
        <time>2022-02-26T02:50:16Z</time>
      </trkpt>
      <trkpt lat="41.098380" lon="-5.301880">
        <ele>781.861</ele>
        <time>2022-02-26T02:50:56Z</time>
      </trkpt>
      <trkpt lat="41.098530" lon="-5.301790">
        <ele>781.433</ele>
        <time>2022-02-26T02:51:36Z</time>
      </trkpt>
      <trkpt lat="41.098690" lon="-5.301700">
        <ele>781.742</ele>
        <time>2022-02-26T02:52:16Z</time>
      </trkpt>
      <trkpt lat="41.099240" lon="-5.301380">
        <ele>785.222</ele>
        <time>2022-02-26T02:52:56Z</time>
      </trkpt>
      <trkpt lat="41.099900" lon="-5.301000">
        <ele>784.214</ele>
        <time>2022-02-26T02:53:36Z</time>
      </trkpt>
      <trkpt lat="41.100250" lon="-5.300800">
        <ele>784.608</ele>
        <time>2022-02-26T02:54:16Z</time>
      </trkpt>
      <trkpt lat="41.100370" lon="-5.300730">
        <ele>785.363</ele>
        <time>2022-02-26T02:54:56Z</time>
      </trkpt>
      <trkpt lat="41.100700" lon="-5.300540">
        <ele>786.430</ele>
        <time>2022-02-26T02:55:36Z</time>
      </trkpt>
      <trkpt lat="41.101360" lon="-5.300160">
        <ele>784.644</ele>
        <time>2022-02-26T02:56:16Z</time>
      </trkpt>
      <trkpt lat="41.101520" lon="-5.300060">
        <ele>784.793</ele>
        <time>2022-02-26T02:56:56Z</time>
      </trkpt>
      <trkpt lat="41.101680" lon="-5.299970">
        <ele>785.012</ele>
        <time>2022-02-26T02:57:36Z</time>
      </trkpt>
      <trkpt lat="41.102050" lon="-5.299750">
        <ele>786.533</ele>
        <time>2022-02-26T02:58:16Z</time>
      </trkpt>
      <trkpt lat="41.103100" lon="-5.299140">
        <ele>786.134</ele>
        <time>2022-02-26T02:58:56Z</time>
      </trkpt>
      <trkpt lat="41.103680" lon="-5.298820">
        <ele>784.836</ele>
        <time>2022-02-26T02:59:36Z</time>
      </trkpt>
      <trkpt lat="41.103740" lon="-5.298790">
        <ele>784.677</ele>
        <time>2022-02-26T03:00:16Z</time>
      </trkpt>
      <trkpt lat="41.103770" lon="-5.298780">
        <ele>784.661</ele>
        <time>2022-02-26T03:00:56Z</time>
      </trkpt>
      <trkpt lat="41.103810" lon="-5.298760">
        <ele>784.527</ele>
        <time>2022-02-26T03:01:36Z</time>
      </trkpt>
      <trkpt lat="41.103930" lon="-5.298730">
        <ele>784.508</ele>
        <time>2022-02-26T03:02:16Z</time>
      </trkpt>
      <trkpt lat="41.103950" lon="-5.298720">
        <ele>784.586</ele>
        <time>2022-02-26T03:02:56Z</time>
      </trkpt>
      <trkpt lat="41.103970" lon="-5.298720">
        <ele>784.533</ele>
        <time>2022-02-26T03:03:36Z</time>
      </trkpt>
      <trkpt lat="41.104030" lon="-5.298700">
        <ele>784.587</ele>
        <time>2022-02-26T03:04:16Z</time>
      </trkpt>
      <trkpt lat="41.104050" lon="-5.298700">
        <ele>784.546</ele>
        <time>2022-02-26T03:04:56Z</time>
      </trkpt>
      <trkpt lat="41.104080" lon="-5.298700">
        <ele>784.565</ele>
        <time>2022-02-26T03:05:36Z</time>
      </trkpt>
      <trkpt lat="41.104120" lon="-5.298690">
        <ele>784.516</ele>
        <time>2022-02-26T03:06:16Z</time>
      </trkpt>
      <trkpt lat="41.104170" lon="-5.298690">
        <ele>784.677</ele>
        <time>2022-02-26T03:06:56Z</time>
      </trkpt>
      <trkpt lat="41.104310" lon="-5.298680">
        <ele>784.969</ele>
        <time>2022-02-26T03:07:36Z</time>
      </trkpt>
      <trkpt lat="41.104770" lon="-5.298680">
        <ele>787.288</ele>
        <time>2022-02-26T03:08:16Z</time>
      </trkpt>
      <trkpt lat="41.105310" lon="-5.298680">
        <ele>786.224</ele>
        <time>2022-02-26T03:08:56Z</time>
      </trkpt>
      <trkpt lat="41.106210" lon="-5.298690">
        <ele>782.426</ele>
        <time>2022-02-26T03:09:36Z</time>
      </trkpt>
      <trkpt lat="41.106390" lon="-5.298690">
        <ele>781.308</ele>
        <time>2022-02-26T03:10:16Z</time>
      </trkpt>
      <trkpt lat="41.106610" lon="-5.298690">
        <ele>779.927</ele>
        <time>2022-02-26T03:10:56Z</time>
      </trkpt>
      <trkpt lat="41.107380" lon="-5.298690">
        <ele>780.744</ele>
        <time>2022-02-26T03:11:36Z</time>
      </trkpt>
      <trkpt lat="41.107940" lon="-5.298690">
        <ele>782.068</ele>
        <time>2022-02-26T03:12:16Z</time>
      </trkpt>
      <trkpt lat="41.108480" lon="-5.298690">
        <ele>778.737</ele>
        <time>2022-02-26T03:12:56Z</time>
      </trkpt>
      <trkpt lat="41.108660" lon="-5.298690">
        <ele>777.156</ele>
        <time>2022-02-26T03:13:36Z</time>
      </trkpt>
      <trkpt lat="41.108820" lon="-5.298690">
        <ele>776.567</ele>
        <time>2022-02-26T03:14:16Z</time>
      </trkpt>
      <trkpt lat="41.108840" lon="-5.298690">
        <ele>776.598</ele>
        <time>2022-02-26T03:14:56Z</time>
      </trkpt>
      <trkpt lat="41.109020" lon="-5.298690">
        <ele>776.170</ele>
        <time>2022-02-26T03:15:36Z</time>
      </trkpt>
      <trkpt lat="41.109180" lon="-5.298690">
        <ele>776.018</ele>
        <time>2022-02-26T03:16:16Z</time>
      </trkpt>
      <trkpt lat="41.109200" lon="-5.298690">
        <ele>775.998</ele>
        <time>2022-02-26T03:16:56Z</time>
      </trkpt>
      <trkpt lat="41.109240" lon="-5.298690">
        <ele>775.817</ele>
        <time>2022-02-26T03:17:36Z</time>
      </trkpt>
      <trkpt lat="41.109380" lon="-5.298690">
        <ele>775.508</ele>
        <time>2022-02-26T03:18:16Z</time>
      </trkpt>
      <trkpt lat="41.109540" lon="-5.298690">
        <ele>776.210</ele>
        <time>2022-02-26T03:18:56Z</time>
      </trkpt>
      <trkpt lat="41.109560" lon="-5.298690">
        <ele>776.467</ele>
        <time>2022-02-26T03:19:36Z</time>
      </trkpt>
      <trkpt lat="41.109910" lon="-5.298690">
        <ele>780.751</ele>
        <time>2022-02-26T03:20:16Z</time>
      </trkpt>
      <trkpt lat="41.110100" lon="-5.298690">
        <ele>782.720</ele>
        <time>2022-02-26T03:20:56Z</time>
      </trkpt>
      <trkpt lat="41.110440" lon="-5.298680">
        <ele>784.469</ele>
        <time>2022-02-26T03:21:36Z</time>
      </trkpt>
      <trkpt lat="41.110460" lon="-5.298680">
        <ele>784.540</ele>
        <time>2022-02-26T03:22:16Z</time>
      </trkpt>
      <trkpt lat="41.110650" lon="-5.298680">
        <ele>784.521</ele>
        <time>2022-02-26T03:22:56Z</time>
      </trkpt>
      <trkpt lat="41.110800" lon="-5.298680">
        <ele>784.173</ele>
        <time>2022-02-26T03:23:36Z</time>
      </trkpt>
      <trkpt lat="41.110820" lon="-5.298680">
        <ele>784.031</ele>
        <time>2022-02-26T03:24:16Z</time>
      </trkpt>
      <trkpt lat="41.111000" lon="-5.298690">
        <ele>783.461</ele>
        <time>2022-02-26T03:24:56Z</time>
      </trkpt>
      <trkpt lat="41.111170" lon="-5.298690">
        <ele>783.107</ele>
        <time>2022-02-26T03:25:36Z</time>
      </trkpt>
      <trkpt lat="41.111720" lon="-5.298690">
        <ele>783.208</ele>
        <time>2022-02-26T03:26:16Z</time>
      </trkpt>
      <trkpt lat="41.111850" lon="-5.298690">
        <ele>783.162</ele>
        <time>2022-02-26T03:26:56Z</time>
      </trkpt>
      <trkpt lat="41.113200" lon="-5.298690">
        <ele>779.239</ele>
        <time>2022-02-26T03:27:36Z</time>
      </trkpt>
      <trkpt lat="41.113340" lon="-5.298690">
        <ele>778.763</ele>
        <time>2022-02-26T03:28:16Z</time>
      </trkpt>
      <trkpt lat="41.113440" lon="-5.298670">
        <ele>778.512</ele>
        <time>2022-02-26T03:28:56Z</time>
      </trkpt>
      <trkpt lat="41.113520" lon="-5.298660">
        <ele>778.341</ele>
        <time>2022-02-26T03:29:36Z</time>
      </trkpt>
      <trkpt lat="41.113700" lon="-5.298650">
        <ele>778.092</ele>
        <time>2022-02-26T03:30:16Z</time>
      </trkpt>
      <trkpt lat="41.113880" lon="-5.298640">
        <ele>778.083</ele>
        <time>2022-02-26T03:30:56Z</time>
      </trkpt>
      <trkpt lat="41.113930" lon="-5.298640">
        <ele>778.095</ele>
        <time>2022-02-26T03:31:36Z</time>
      </trkpt>
      <trkpt lat="41.114280" lon="-5.298620">
        <ele>777.211</ele>
        <time>2022-02-26T03:32:16Z</time>
      </trkpt>
      <trkpt lat="41.114350" lon="-5.298620">
        <ele>776.721</ele>
        <time>2022-02-26T03:32:56Z</time>
      </trkpt>
      <trkpt lat="41.114890" lon="-5.298620">
        <ele>776.003</ele>
        <time>2022-02-26T03:33:36Z</time>
      </trkpt>
      <trkpt lat="41.114920" lon="-5.298620">
        <ele>776.008</ele>
        <time>2022-02-26T03:34:16Z</time>
      </trkpt>
      <trkpt lat="41.114918" lon="-5.298618">
        <ele>776.010</ele>
        <time>2022-02-26T03:34:56Z</time>
      </trkpt>
      <trkpt lat="41.115020" lon="-5.298620">
        <ele>776.087</ele>
        <time>2022-02-26T03:35:36Z</time>
      </trkpt>
      <trkpt lat="41.115150" lon="-5.298620">
        <ele>775.561</ele>
        <time>2022-02-26T03:36:16Z</time>
      </trkpt>
      <trkpt lat="41.115560" lon="-5.298620">
        <ele>774.010</ele>
        <time>2022-02-26T03:36:56Z</time>
      </trkpt>
      <trkpt lat="41.115720" lon="-5.298620">
        <ele>774.089</ele>
        <time>2022-02-26T03:37:36Z</time>
      </trkpt>
      <trkpt lat="41.115970" lon="-5.298640">
        <ele>773.920</ele>
        <time>2022-02-26T03:38:16Z</time>
      </trkpt>
      <trkpt lat="41.116150" lon="-5.298650">
        <ele>774.321</ele>
        <time>2022-02-26T03:38:56Z</time>
      </trkpt>
      <trkpt lat="41.116300" lon="-5.298670">
        <ele>775.433</ele>
        <time>2022-02-26T03:39:36Z</time>
      </trkpt>
      <trkpt lat="41.116460" lon="-5.298710">
        <ele>776.312</ele>
        <time>2022-02-26T03:40:16Z</time>
      </trkpt>
      <trkpt lat="41.116640" lon="-5.298710">
        <ele>776.932</ele>
        <time>2022-02-26T03:40:56Z</time>
      </trkpt>
      <trkpt lat="41.116760" lon="-5.298720">
        <ele>777.505</ele>
        <time>2022-02-26T03:41:36Z</time>
      </trkpt>
      <trkpt lat="41.116820" lon="-5.298720">
        <ele>777.908</ele>
        <time>2022-02-26T03:42:16Z</time>
      </trkpt>
      <trkpt lat="41.116920" lon="-5.298720">
        <ele>778.510</ele>
        <time>2022-02-26T03:42:56Z</time>
      </trkpt>
      <trkpt lat="41.117000" lon="-5.298720">
        <ele>779.297</ele>
        <time>2022-02-26T03:43:36Z</time>
      </trkpt>
      <trkpt lat="41.117240" lon="-5.298710">
        <ele>781.821</ele>
        <time>2022-02-26T03:44:16Z</time>
      </trkpt>
      <trkpt lat="41.117340" lon="-5.298710">
        <ele>782.680</ele>
        <time>2022-02-26T03:44:56Z</time>
      </trkpt>
      <trkpt lat="41.117430" lon="-5.298710">
        <ele>783.469</ele>
        <time>2022-02-26T03:45:36Z</time>
      </trkpt>
      <trkpt lat="41.117540" lon="-5.298710">
        <ele>784.120</ele>
        <time>2022-02-26T03:46:16Z</time>
      </trkpt>
      <trkpt lat="41.117840" lon="-5.298700">
        <ele>784.851</ele>
        <time>2022-02-26T03:46:56Z</time>
      </trkpt>
      <trkpt lat="41.117900" lon="-5.298700">
        <ele>784.783</ele>
        <time>2022-02-26T03:47:36Z</time>
      </trkpt>
      <trkpt lat="41.118020" lon="-5.298710">
        <ele>784.463</ele>
        <time>2022-02-26T03:48:16Z</time>
      </trkpt>
      <trkpt lat="41.118030" lon="-5.298710">
        <ele>784.444</ele>
        <time>2022-02-26T03:48:56Z</time>
      </trkpt>
      <trkpt lat="41.118210" lon="-5.298720">
        <ele>784.418</ele>
        <time>2022-02-26T03:49:36Z</time>
      </trkpt>
      <trkpt lat="41.118280" lon="-5.298730">
        <ele>784.408</ele>
        <time>2022-02-26T03:50:16Z</time>
      </trkpt>
      <trkpt lat="41.118310" lon="-5.298740">
        <ele>784.565</ele>
        <time>2022-02-26T03:50:56Z</time>
      </trkpt>
      <trkpt lat="41.118350" lon="-5.298750">
        <ele>784.572</ele>
        <time>2022-02-26T03:51:36Z</time>
      </trkpt>
      <trkpt lat="41.118550" lon="-5.298810">
        <ele>784.996</ele>
        <time>2022-02-26T03:52:16Z</time>
      </trkpt>
      <trkpt lat="41.118610" lon="-5.298840">
        <ele>785.095</ele>
        <time>2022-02-26T03:52:56Z</time>
      </trkpt>
      <trkpt lat="41.118720" lon="-5.298890">
        <ele>784.674</ele>
        <time>2022-02-26T03:53:36Z</time>
      </trkpt>
      <trkpt lat="41.118860" lon="-5.298960">
        <ele>784.165</ele>
        <time>2022-02-26T03:54:16Z</time>
      </trkpt>
      <trkpt lat="41.118930" lon="-5.298990">
        <ele>784.166</ele>
        <time>2022-02-26T03:54:56Z</time>
      </trkpt>
      <trkpt lat="41.119000" lon="-5.299030">
        <ele>784.438</ele>
        <time>2022-02-26T03:55:36Z</time>
      </trkpt>
      <trkpt lat="41.119080" lon="-5.299080">
        <ele>784.762</ele>
        <time>2022-02-26T03:56:16Z</time>
      </trkpt>
      <trkpt lat="41.119160" lon="-5.299140">
        <ele>785.083</ele>
        <time>2022-02-26T03:56:56Z</time>
      </trkpt>
      <trkpt lat="41.119230" lon="-5.299200">
        <ele>785.111</ele>
        <time>2022-02-26T03:57:36Z</time>
      </trkpt>
      <trkpt lat="41.119230" lon="-5.299210">
        <ele>785.108</ele>
        <time>2022-02-26T03:58:16Z</time>
      </trkpt>
      <trkpt lat="41.119290" lon="-5.299270">
        <ele>785.255</ele>
        <time>2022-02-26T03:58:56Z</time>
      </trkpt>
      <trkpt lat="41.119370" lon="-5.299330">
        <ele>785.212</ele>
        <time>2022-02-26T03:59:36Z</time>
      </trkpt>
      <trkpt lat="41.119440" lon="-5.299410">
        <ele>785.096</ele>
        <time>2022-02-26T04:00:16Z</time>
      </trkpt>
      <trkpt lat="41.119510" lon="-5.299500">
        <ele>784.655</ele>
        <time>2022-02-26T04:00:56Z</time>
      </trkpt>
      <trkpt lat="41.119600" lon="-5.299610">
        <ele>784.274</ele>
        <time>2022-02-26T04:01:36Z</time>
      </trkpt>
      <trkpt lat="41.119640" lon="-5.299670">
        <ele>784.235</ele>
        <time>2022-02-26T04:02:16Z</time>
      </trkpt>
      <trkpt lat="41.119670" lon="-5.299710">
        <ele>784.226</ele>
        <time>2022-02-26T04:02:56Z</time>
      </trkpt>
      <trkpt lat="41.119750" lon="-5.299820">
        <ele>783.758</ele>
        <time>2022-02-26T04:03:36Z</time>
      </trkpt>
      <trkpt lat="41.119810" lon="-5.299920">
        <ele>783.319</ele>
        <time>2022-02-26T04:04:16Z</time>
      </trkpt>
      <trkpt lat="41.119870" lon="-5.300030">
        <ele>783.009</ele>
        <time>2022-02-26T04:04:56Z</time>
      </trkpt>
      <trkpt lat="41.119880" lon="-5.300030">
        <ele>782.919</ele>
        <time>2022-02-26T04:05:36Z</time>
      </trkpt>
      <trkpt lat="41.119950" lon="-5.300160">
        <ele>782.808</ele>
        <time>2022-02-26T04:06:16Z</time>
      </trkpt>
      <trkpt lat="41.119980" lon="-5.300220">
        <ele>782.990</ele>
        <time>2022-02-26T04:06:56Z</time>
      </trkpt>
      <trkpt lat="41.120020" lon="-5.300280">
        <ele>782.957</ele>
        <time>2022-02-26T04:07:36Z</time>
      </trkpt>
      <trkpt lat="41.120150" lon="-5.300520">
        <ele>782.181</ele>
        <time>2022-02-26T04:08:16Z</time>
      </trkpt>
      <trkpt lat="41.120420" lon="-5.300980">
        <ele>781.790</ele>
        <time>2022-02-26T04:08:56Z</time>
      </trkpt>
      <trkpt lat="41.120530" lon="-5.301180">
        <ele>780.899</ele>
        <time>2022-02-26T04:09:36Z</time>
      </trkpt>
      <trkpt lat="41.120630" lon="-5.301370">
        <ele>780.150</ele>
        <time>2022-02-26T04:10:16Z</time>
      </trkpt>
      <trkpt lat="41.120740" lon="-5.301560">
        <ele>780.081</ele>
        <time>2022-02-26T04:10:56Z</time>
      </trkpt>
      <trkpt lat="41.120780" lon="-5.301630">
        <ele>780.053</ele>
        <time>2022-02-26T04:11:36Z</time>
      </trkpt>
      <trkpt lat="41.120850" lon="-5.301750">
        <ele>780.436</ele>
        <time>2022-02-26T04:12:16Z</time>
      </trkpt>
      <trkpt lat="41.120960" lon="-5.301930">
        <ele>781.017</ele>
        <time>2022-02-26T04:12:56Z</time>
      </trkpt>
      <trkpt lat="41.121640" lon="-5.303080">
        <ele>779.918</ele>
        <time>2022-02-26T04:13:36Z</time>
      </trkpt>
      <trkpt lat="41.122410" lon="-5.304380">
        <ele>780.308</ele>
        <time>2022-02-26T04:14:16Z</time>
      </trkpt>
      <trkpt lat="41.122520" lon="-5.304560">
        <ele>780.692</ele>
        <time>2022-02-26T04:14:56Z</time>
      </trkpt>
      <trkpt lat="41.122610" lon="-5.304720">
        <ele>780.469</ele>
        <time>2022-02-26T04:15:36Z</time>
      </trkpt>
      <trkpt lat="41.122890" lon="-5.305200">
        <ele>780.223</ele>
        <time>2022-02-26T04:16:16Z</time>
      </trkpt>
      <trkpt lat="41.123070" lon="-5.305500">
        <ele>780.832</ele>
        <time>2022-02-26T04:16:56Z</time>
      </trkpt>
      <trkpt lat="41.123740" lon="-5.306630">
        <ele>780.021</ele>
        <time>2022-02-26T04:17:36Z</time>
      </trkpt>
      <trkpt lat="41.123870" lon="-5.306860">
        <ele>780.732</ele>
        <time>2022-02-26T04:18:16Z</time>
      </trkpt>
      <trkpt lat="41.124010" lon="-5.307100">
        <ele>781.133</ele>
        <time>2022-02-26T04:18:56Z</time>
      </trkpt>
      <trkpt lat="41.124390" lon="-5.307750">
        <ele>782.845</ele>
        <time>2022-02-26T04:19:36Z</time>
      </trkpt>
      <trkpt lat="41.124900" lon="-5.308600">
        <ele>780.323</ele>
        <time>2022-02-26T04:20:16Z</time>
      </trkpt>
      <trkpt lat="41.125090" lon="-5.308930">
        <ele>782.583</ele>
        <time>2022-02-26T04:20:56Z</time>
      </trkpt>
      <trkpt lat="41.125580" lon="-5.309750">
        <ele>781.211</ele>
        <time>2022-02-26T04:21:36Z</time>
      </trkpt>
      <trkpt lat="41.125870" lon="-5.310240">
        <ele>782.108</ele>
        <time>2022-02-26T04:22:16Z</time>
      </trkpt>
      <trkpt lat="41.126800" lon="-5.311830">
        <ele>785.611</ele>
        <time>2022-02-26T04:22:56Z</time>
      </trkpt>
      <trkpt lat="41.127020" lon="-5.312200">
        <ele>786.678</ele>
        <time>2022-02-26T04:23:36Z</time>
      </trkpt>
      <trkpt lat="41.127800" lon="-5.313520">
        <ele>787.172</ele>
        <time>2022-02-26T04:24:16Z</time>
      </trkpt>
      <trkpt lat="41.127910" lon="-5.313710">
        <ele>787.191</ele>
        <time>2022-02-26T04:24:56Z</time>
      </trkpt>
      <trkpt lat="41.127990" lon="-5.313850">
        <ele>786.960</ele>
        <time>2022-02-26T04:25:36Z</time>
      </trkpt>
      <trkpt lat="41.128130" lon="-5.314090">
        <ele>786.131</ele>
        <time>2022-02-26T04:26:16Z</time>
      </trkpt>
      <trkpt lat="41.128570" lon="-5.314840">
        <ele>787.112</ele>
        <time>2022-02-26T04:26:56Z</time>
      </trkpt>
      <trkpt lat="41.129090" lon="-5.315740">
        <ele>788.784</ele>
        <time>2022-02-26T04:27:36Z</time>
      </trkpt>
      <trkpt lat="41.129230" lon="-5.315970">
        <ele>789.169</ele>
        <time>2022-02-26T04:28:16Z</time>
      </trkpt>
      <trkpt lat="41.129340" lon="-5.316160">
        <ele>789.704</ele>
        <time>2022-02-26T04:28:56Z</time>
      </trkpt>
      <trkpt lat="41.130150" lon="-5.317510">
        <ele>791.024</ele>
        <time>2022-02-26T04:29:36Z</time>
      </trkpt>
      <trkpt lat="41.130680" lon="-5.318430">
        <ele>792.008</ele>
        <time>2022-02-26T04:30:16Z</time>
      </trkpt>
      <trkpt lat="41.130780" lon="-5.318610">
        <ele>792.065</ele>
        <time>2022-02-26T04:30:56Z</time>
      </trkpt>
      <trkpt lat="41.131110" lon="-5.319180">
        <ele>793.022</ele>
        <time>2022-02-26T04:31:36Z</time>
      </trkpt>
      <trkpt lat="41.131340" lon="-5.319540">
        <ele>791.736</ele>
        <time>2022-02-26T04:32:16Z</time>
      </trkpt>
      <trkpt lat="41.131380" lon="-5.319600">
        <ele>791.575</ele>
        <time>2022-02-26T04:32:56Z</time>
      </trkpt>
      <trkpt lat="41.131460" lon="-5.319720">
        <ele>791.064</ele>
        <time>2022-02-26T04:33:36Z</time>
      </trkpt>
      <trkpt lat="41.131540" lon="-5.319820">
        <ele>791.045</ele>
        <time>2022-02-26T04:34:16Z</time>
      </trkpt>
      <trkpt lat="41.131720" lon="-5.320050">
        <ele>791.046</ele>
        <time>2022-02-26T04:34:56Z</time>
      </trkpt>
      <trkpt lat="41.131800" lon="-5.320140">
        <ele>791.098</ele>
        <time>2022-02-26T04:35:36Z</time>
      </trkpt>
      <trkpt lat="41.131860" lon="-5.320200">
        <ele>791.098</ele>
        <time>2022-02-26T04:36:16Z</time>
      </trkpt>
      <trkpt lat="41.132500" lon="-5.320820">
        <ele>786.115</ele>
        <time>2022-02-26T04:36:56Z</time>
      </trkpt>
      <trkpt lat="41.132660" lon="-5.320950">
        <ele>784.026</ele>
        <time>2022-02-26T04:37:36Z</time>
      </trkpt>
      <trkpt lat="41.132830" lon="-5.321050">
        <ele>782.308</ele>
        <time>2022-02-26T04:38:16Z</time>
      </trkpt>
      <trkpt lat="41.133080" lon="-5.321170">
        <ele>780.878</ele>
        <time>2022-02-26T04:38:56Z</time>
      </trkpt>
      <trkpt lat="41.133960" lon="-5.321480">
        <ele>778.875</ele>
        <time>2022-02-26T04:39:36Z</time>
      </trkpt>
      <trkpt lat="41.134300" lon="-5.321600">
        <ele>777.349</ele>
        <time>2022-02-26T04:40:16Z</time>
      </trkpt>
      <trkpt lat="41.134410" lon="-5.321640">
        <ele>777.038</ele>
        <time>2022-02-26T04:40:56Z</time>
      </trkpt>
      <trkpt lat="41.134700" lon="-5.321750">
        <ele>778.217</ele>
        <time>2022-02-26T04:41:36Z</time>
      </trkpt>
      <trkpt lat="41.134780" lon="-5.321780">
        <ele>778.248</ele>
        <time>2022-02-26T04:42:16Z</time>
      </trkpt>
      <trkpt lat="41.134840" lon="-5.321820">
        <ele>778.189</ele>
        <time>2022-02-26T04:42:56Z</time>
      </trkpt>
      <trkpt lat="41.134910" lon="-5.321870">
        <ele>778.131</ele>
        <time>2022-02-26T04:43:36Z</time>
      </trkpt>
      <trkpt lat="41.134960" lon="-5.321920">
        <ele>778.198</ele>
        <time>2022-02-26T04:44:16Z</time>
      </trkpt>
      <trkpt lat="41.135010" lon="-5.321970">
        <ele>777.915</ele>
        <time>2022-02-26T04:44:56Z</time>
      </trkpt>
      <trkpt lat="41.135060" lon="-5.322060">
        <ele>777.626</ele>
        <time>2022-02-26T04:45:36Z</time>
      </trkpt>
      <trkpt lat="41.135070" lon="-5.322070">
        <ele>777.508</ele>
        <time>2022-02-26T04:46:16Z</time>
      </trkpt>
      <trkpt lat="41.135120" lon="-5.322150">
        <ele>777.128</ele>
        <time>2022-02-26T04:46:56Z</time>
      </trkpt>
      <trkpt lat="41.135190" lon="-5.322300">
        <ele>776.995</ele>
        <time>2022-02-26T04:47:36Z</time>
      </trkpt>
      <trkpt lat="41.135240" lon="-5.322430">
        <ele>777.039</ele>
        <time>2022-02-26T04:48:16Z</time>
      </trkpt>
      <trkpt lat="41.135260" lon="-5.322480">
        <ele>777.138</ele>
        <time>2022-02-26T04:48:56Z</time>
      </trkpt>
      <trkpt lat="41.135280" lon="-5.322610">
        <ele>777.457</ele>
        <time>2022-02-26T04:49:36Z</time>
      </trkpt>
      <trkpt lat="41.135280" lon="-5.322650">
        <ele>777.568</ele>
        <time>2022-02-26T04:50:16Z</time>
      </trkpt>
      <trkpt lat="41.135300" lon="-5.322860">
        <ele>777.619</ele>
        <time>2022-02-26T04:50:56Z</time>
      </trkpt>
      <trkpt lat="41.135330" lon="-5.323610">
        <ele>774.991</ele>
        <time>2022-02-26T04:51:36Z</time>
      </trkpt>
      <trkpt lat="41.135340" lon="-5.323710">
        <ele>774.131</ele>
        <time>2022-02-26T04:52:16Z</time>
      </trkpt>
      <trkpt lat="41.135350" lon="-5.323800">
        <ele>773.461</ele>
        <time>2022-02-26T04:52:56Z</time>
      </trkpt>
      <trkpt lat="41.135350" lon="-5.323820">
        <ele>773.307</ele>
        <time>2022-02-26T04:53:36Z</time>
      </trkpt>
      <trkpt lat="41.135360" lon="-5.323910">
        <ele>772.808</ele>
        <time>2022-02-26T04:54:16Z</time>
      </trkpt>
      <trkpt lat="41.135400" lon="-5.324010">
        <ele>772.242</ele>
        <time>2022-02-26T04:54:56Z</time>
      </trkpt>
      <trkpt lat="41.135460" lon="-5.324140">
        <ele>771.769</ele>
        <time>2022-02-26T04:55:36Z</time>
      </trkpt>
      <trkpt lat="41.135820" lon="-5.324950">
        <ele>764.473</ele>
        <time>2022-02-26T04:56:16Z</time>
      </trkpt>
      <trkpt lat="41.135920" lon="-5.325160">
        <ele>763.752</ele>
        <time>2022-02-26T04:56:56Z</time>
      </trkpt>
      <trkpt lat="41.135950" lon="-5.325240">
        <ele>763.641</ele>
        <time>2022-02-26T04:57:36Z</time>
      </trkpt>
      <trkpt lat="41.135990" lon="-5.325300">
        <ele>763.472</ele>
        <time>2022-02-26T04:58:16Z</time>
      </trkpt>
      <trkpt lat="41.136070" lon="-5.325380">
        <ele>762.863</ele>
        <time>2022-02-26T04:58:56Z</time>
      </trkpt>
      <trkpt lat="41.136080" lon="-5.325400">
        <ele>762.785</ele>
        <time>2022-02-26T04:59:36Z</time>
      </trkpt>
      <trkpt lat="41.136270" lon="-5.325570">
        <ele>760.822</ele>
        <time>2022-02-26T05:00:16Z</time>
      </trkpt>
      <trkpt lat="41.136410" lon="-5.325710">
        <ele>759.462</ele>
        <time>2022-02-26T05:00:56Z</time>
      </trkpt>
      <trkpt lat="41.136500" lon="-5.325800">
        <ele>758.808</ele>
        <time>2022-02-26T05:01:36Z</time>
      </trkpt>
      <trkpt lat="41.136550" lon="-5.325870">
        <ele>758.308</ele>
        <time>2022-02-26T05:02:16Z</time>
      </trkpt>
      <trkpt lat="41.136610" lon="-5.325950">
        <ele>757.811</ele>
        <time>2022-02-26T05:02:56Z</time>
      </trkpt>
      <trkpt lat="41.136690" lon="-5.326090">
        <ele>757.198</ele>
        <time>2022-02-26T05:03:36Z</time>
      </trkpt>
      <trkpt lat="41.136760" lon="-5.326210">
        <ele>756.922</ele>
        <time>2022-02-26T05:04:16Z</time>
      </trkpt>
      <trkpt lat="41.136820" lon="-5.326370">
        <ele>756.591</ele>
        <time>2022-02-26T05:04:56Z</time>
      </trkpt>
      <trkpt lat="41.136870" lon="-5.326560">
        <ele>757.210</ele>
        <time>2022-02-26T05:05:36Z</time>
      </trkpt>
      <trkpt lat="41.136930" lon="-5.326790">
        <ele>758.071</ele>
        <time>2022-02-26T05:06:16Z</time>
      </trkpt>
      <trkpt lat="41.136980" lon="-5.327050">
        <ele>758.012</ele>
        <time>2022-02-26T05:06:56Z</time>
      </trkpt>
      <trkpt lat="41.137060" lon="-5.327340">
        <ele>757.884</ele>
        <time>2022-02-26T05:07:36Z</time>
      </trkpt>
      <trkpt lat="41.137190" lon="-5.327690">
        <ele>757.118</ele>
        <time>2022-02-26T05:08:16Z</time>
      </trkpt>
      <trkpt lat="41.137210" lon="-5.327720">
        <ele>757.098</ele>
        <time>2022-02-26T05:08:56Z</time>
      </trkpt>
      <trkpt lat="41.137330" lon="-5.328000">
        <ele>757.317</ele>
        <time>2022-02-26T05:09:36Z</time>
      </trkpt>
      <trkpt lat="41.137450" lon="-5.328270">
        <ele>757.708</ele>
        <time>2022-02-26T05:10:16Z</time>
      </trkpt>
      <trkpt lat="41.137510" lon="-5.328400">
        <ele>758.360</ele>
        <time>2022-02-26T05:10:56Z</time>
      </trkpt>
      <trkpt lat="41.137600" lon="-5.328610">
        <ele>759.727</ele>
        <time>2022-02-26T05:11:36Z</time>
      </trkpt>
      <trkpt lat="41.137690" lon="-5.328810">
        <ele>761.181</ele>
        <time>2022-02-26T05:12:16Z</time>
      </trkpt>
      <trkpt lat="41.138060" lon="-5.329640">
        <ele>765.780</ele>
        <time>2022-02-26T05:12:56Z</time>
      </trkpt>
      <trkpt lat="41.138180" lon="-5.329920">
        <ele>764.639</ele>
        <time>2022-02-26T05:13:36Z</time>
      </trkpt>
      <trkpt lat="41.138240" lon="-5.330050">
        <ele>764.370</ele>
        <time>2022-02-26T05:14:16Z</time>
      </trkpt>
      <trkpt lat="41.138290" lon="-5.330160">
        <ele>764.211</ele>
        <time>2022-02-26T05:14:56Z</time>
      </trkpt>
      <trkpt lat="41.138350" lon="-5.330320">
        <ele>764.173</ele>
        <time>2022-02-26T05:15:36Z</time>
      </trkpt>
      <trkpt lat="41.138530" lon="-5.330760">
        <ele>764.398</ele>
        <time>2022-02-26T05:16:16Z</time>
      </trkpt>
      <trkpt lat="41.138760" lon="-5.331230">
        <ele>763.715</ele>
        <time>2022-02-26T05:16:56Z</time>
      </trkpt>
      <trkpt lat="41.138850" lon="-5.331430">
        <ele>763.126</ele>
        <time>2022-02-26T05:17:36Z</time>
      </trkpt>
      <trkpt lat="41.138910" lon="-5.331540">
        <ele>763.008</ele>
        <time>2022-02-26T05:18:16Z</time>
      </trkpt>
      <trkpt lat="41.138930" lon="-5.331590">
        <ele>763.028</ele>
        <time>2022-02-26T05:18:56Z</time>
      </trkpt>
      <trkpt lat="41.138950" lon="-5.331630">
        <ele>763.025</ele>
        <time>2022-02-26T05:19:36Z</time>
      </trkpt>
      <trkpt lat="41.138950" lon="-5.331640">
        <ele>763.079</ele>
        <time>2022-02-26T05:20:16Z</time>
      </trkpt>
      <trkpt lat="41.139000" lon="-5.331760">
        <ele>763.338</ele>
        <time>2022-02-26T05:20:56Z</time>
      </trkpt>
      <trkpt lat="41.139120" lon="-5.332060">
        <ele>764.487</ele>
        <time>2022-02-26T05:21:36Z</time>
      </trkpt>
      <trkpt lat="41.139210" lon="-5.332260">
        <ele>765.398</ele>
        <time>2022-02-26T05:22:16Z</time>
      </trkpt>
      <trkpt lat="41.139280" lon="-5.332440">
        <ele>765.549</ele>
        <time>2022-02-26T05:22:56Z</time>
      </trkpt>
      <trkpt lat="41.139300" lon="-5.332470">
        <ele>765.521</ele>
        <time>2022-02-26T05:23:36Z</time>
      </trkpt>
      <trkpt lat="41.139370" lon="-5.332690">
        <ele>766.753</ele>
        <time>2022-02-26T05:24:16Z</time>
      </trkpt>
      <trkpt lat="41.139450" lon="-5.332910">
        <ele>769.504</ele>
        <time>2022-02-26T05:24:56Z</time>
      </trkpt>
      <trkpt lat="41.139510" lon="-5.333080">
        <ele>772.014</ele>
        <time>2022-02-26T05:25:36Z</time>
      </trkpt>
      <trkpt lat="41.139530" lon="-5.333120">
        <ele>772.308</ele>
        <time>2022-02-26T05:26:16Z</time>
      </trkpt>
      <trkpt lat="41.139560" lon="-5.333240">
        <ele>772.844</ele>
        <time>2022-02-26T05:26:56Z</time>
      </trkpt>
      <trkpt lat="41.139590" lon="-5.333340">
        <ele>773.081</ele>
        <time>2022-02-26T05:27:36Z</time>
      </trkpt>
      <trkpt lat="41.139660" lon="-5.333560">
        <ele>772.675</ele>
        <time>2022-02-26T05:28:16Z</time>
      </trkpt>
      <trkpt lat="41.139670" lon="-5.333610">
        <ele>772.454</ele>
        <time>2022-02-26T05:28:56Z</time>
      </trkpt>
      <trkpt lat="41.139790" lon="-5.334010">
        <ele>774.173</ele>
        <time>2022-02-26T05:29:36Z</time>
      </trkpt>
      <trkpt lat="41.139860" lon="-5.334230">
        <ele>775.184</ele>
        <time>2022-02-26T05:30:16Z</time>
      </trkpt>
      <trkpt lat="41.139920" lon="-5.334450">
        <ele>775.715</ele>
        <time>2022-02-26T05:30:56Z</time>
      </trkpt>
      <trkpt lat="41.139990" lon="-5.334680">
        <ele>776.897</ele>
        <time>2022-02-26T05:31:36Z</time>
      </trkpt>
      <trkpt lat="41.140050" lon="-5.334900">
        <ele>777.833</ele>
        <time>2022-02-26T05:32:16Z</time>
      </trkpt>
      <trkpt lat="41.140120" lon="-5.335120">
        <ele>779.123</ele>
        <time>2022-02-26T05:32:56Z</time>
      </trkpt>
      <trkpt lat="41.140180" lon="-5.335340">
        <ele>780.415</ele>
        <time>2022-02-26T05:33:36Z</time>
      </trkpt>
      <trkpt lat="41.140250" lon="-5.335570">
        <ele>780.908</ele>
        <time>2022-02-26T05:34:16Z</time>
      </trkpt>
      <trkpt lat="41.140310" lon="-5.335790">
        <ele>781.262</ele>
        <time>2022-02-26T05:34:56Z</time>
      </trkpt>
      <trkpt lat="41.140790" lon="-5.337470">
        <ele>785.819</ele>
        <time>2022-02-26T05:35:36Z</time>
      </trkpt>
      <trkpt lat="41.140930" lon="-5.337900">
        <ele>786.563</ele>
        <time>2022-02-26T05:36:16Z</time>
      </trkpt>
      <trkpt lat="41.141010" lon="-5.338060">
        <ele>787.362</ele>
        <time>2022-02-26T05:36:56Z</time>
      </trkpt>
      <trkpt lat="41.141170" lon="-5.338370">
        <ele>788.741</ele>
        <time>2022-02-26T05:37:36Z</time>
      </trkpt>
      <trkpt lat="41.141280" lon="-5.338570">
        <ele>790.262</ele>
        <time>2022-02-26T05:38:16Z</time>
      </trkpt>
      <trkpt lat="41.141480" lon="-5.338960">
        <ele>790.873</ele>
        <time>2022-02-26T05:38:56Z</time>
      </trkpt>
      <trkpt lat="41.141580" lon="-5.339150">
        <ele>790.795</ele>
        <time>2022-02-26T05:39:36Z</time>
      </trkpt>
      <trkpt lat="41.141690" lon="-5.339350">
        <ele>790.572</ele>
        <time>2022-02-26T05:40:16Z</time>
      </trkpt>
      <trkpt lat="41.141700" lon="-5.339360">
        <ele>790.613</ele>
        <time>2022-02-26T05:40:56Z</time>
      </trkpt>
      <trkpt lat="41.141910" lon="-5.339760">
        <ele>792.514</ele>
        <time>2022-02-26T05:41:36Z</time>
      </trkpt>
      <trkpt lat="41.142220" lon="-5.340340">
        <ele>792.808</ele>
        <time>2022-02-26T05:42:16Z</time>
      </trkpt>
      <trkpt lat="41.142740" lon="-5.341320">
        <ele>794.126</ele>
        <time>2022-02-26T05:42:56Z</time>
      </trkpt>
      <trkpt lat="41.143020" lon="-5.341840">
        <ele>793.933</ele>
        <time>2022-02-26T05:43:36Z</time>
      </trkpt>
      <trkpt lat="41.143120" lon="-5.342040">
        <ele>794.087</ele>
        <time>2022-02-26T05:44:16Z</time>
      </trkpt>
      <trkpt lat="41.143840" lon="-5.343410">
        <ele>797.136</ele>
        <time>2022-02-26T05:44:56Z</time>
      </trkpt>
      <trkpt lat="41.143940" lon="-5.343610">
        <ele>798.045</ele>
        <time>2022-02-26T05:45:36Z</time>
      </trkpt>
      <trkpt lat="41.144090" lon="-5.343900">
        <ele>798.016</ele>
        <time>2022-02-26T05:46:16Z</time>
      </trkpt>
      <trkpt lat="41.144870" lon="-5.345370">
        <ele>799.887</ele>
        <time>2022-02-26T05:46:56Z</time>
      </trkpt>
      <trkpt lat="41.145190" lon="-5.345970">
        <ele>801.179</ele>
        <time>2022-02-26T05:47:36Z</time>
      </trkpt>
      <trkpt lat="41.145990" lon="-5.347510">
        <ele>805.198</ele>
        <time>2022-02-26T05:48:16Z</time>
      </trkpt>
      <trkpt lat="41.146330" lon="-5.348080">
        <ele>806.715</ele>
        <time>2022-02-26T05:48:56Z</time>
      </trkpt>
      <trkpt lat="41.146570" lon="-5.348440">
        <ele>808.326</ele>
        <time>2022-02-26T05:49:36Z</time>
      </trkpt>
      <trkpt lat="41.147960" lon="-5.350400">
        <ele>815.708</ele>
        <time>2022-02-26T05:50:16Z</time>
      </trkpt>
      <trkpt lat="41.148010" lon="-5.350470">
        <ele>816.348</ele>
        <time>2022-02-26T05:50:56Z</time>
      </trkpt>
      <trkpt lat="41.148140" lon="-5.350630">
        <ele>817.025</ele>
        <time>2022-02-26T05:51:36Z</time>
      </trkpt>
      <trkpt lat="41.148270" lon="-5.350800">
        <ele>817.189</ele>
        <time>2022-02-26T05:52:16Z</time>
      </trkpt>
      <trkpt lat="41.148290" lon="-5.350820">
        <ele>817.138</ele>
        <time>2022-02-26T05:52:56Z</time>
      </trkpt>
      <trkpt lat="41.148460" lon="-5.351030">
        <ele>817.697</ele>
        <time>2022-02-26T05:53:36Z</time>
      </trkpt>
      <trkpt lat="41.149000" lon="-5.351700">
        <ele>817.618</ele>
        <time>2022-02-26T05:54:16Z</time>
      </trkpt>
      <trkpt lat="41.149130" lon="-5.351860">
        <ele>817.159</ele>
        <time>2022-02-26T05:54:56Z</time>
      </trkpt>
      <trkpt lat="41.149260" lon="-5.352030">
        <ele>817.211</ele>
        <time>2022-02-26T05:55:36Z</time>
      </trkpt>
      <trkpt lat="41.149400" lon="-5.352190">
        <ele>817.178</ele>
        <time>2022-02-26T05:56:16Z</time>
      </trkpt>
      <trkpt lat="41.149530" lon="-5.352350">
        <ele>817.933</ele>
        <time>2022-02-26T05:56:56Z</time>
      </trkpt>
      <trkpt lat="41.149660" lon="-5.352510">
        <ele>818.826</ele>
        <time>2022-02-26T05:57:36Z</time>
      </trkpt>
      <trkpt lat="41.149790" lon="-5.352680">
        <ele>819.608</ele>
        <time>2022-02-26T05:58:16Z</time>
      </trkpt>
      <trkpt lat="41.149920" lon="-5.352840">
        <ele>821.476</ele>
        <time>2022-02-26T05:58:56Z</time>
      </trkpt>
      <trkpt lat="41.149960" lon="-5.352880">
        <ele>821.953</ele>
        <time>2022-02-26T05:59:36Z</time>
      </trkpt>
      <trkpt lat="41.149990" lon="-5.352930">
        <ele>822.477</ele>
        <time>2022-02-26T06:00:16Z</time>
      </trkpt>
      <trkpt lat="41.150580" lon="-5.353650">
        <ele>827.116</ele>
        <time>2022-02-26T06:00:56Z</time>
      </trkpt>
      <trkpt lat="41.150640" lon="-5.353730">
        <ele>827.245</ele>
        <time>2022-02-26T06:01:36Z</time>
      </trkpt>
      <trkpt lat="41.150710" lon="-5.353820">
        <ele>827.126</ele>
        <time>2022-02-26T06:02:16Z</time>
      </trkpt>
      <trkpt lat="41.150740" lon="-5.353870">
        <ele>827.027</ele>
        <time>2022-02-26T06:02:56Z</time>
      </trkpt>
      <trkpt lat="41.151050" lon="-5.354330">
        <ele>826.499</ele>
        <time>2022-02-26T06:03:36Z</time>
      </trkpt>
      <trkpt lat="41.152130" lon="-5.355980">
        <ele>827.279</ele>
        <time>2022-02-26T06:04:16Z</time>
      </trkpt>
      <trkpt lat="41.152490" lon="-5.356540">
        <ele>826.905</ele>
        <time>2022-02-26T06:04:56Z</time>
      </trkpt>
      <trkpt lat="41.152960" lon="-5.357260">
        <ele>824.025</ele>
        <time>2022-02-26T06:05:36Z</time>
      </trkpt>
      <trkpt lat="41.152960" lon="-5.357270">
        <ele>824.008</ele>
        <time>2022-02-26T06:06:16Z</time>
      </trkpt>
      <trkpt lat="41.153080" lon="-5.357440">
        <ele>824.056</ele>
        <time>2022-02-26T06:06:56Z</time>
      </trkpt>
      <trkpt lat="41.153350" lon="-5.357830">
        <ele>823.863</ele>
        <time>2022-02-26T06:07:36Z</time>
      </trkpt>
      <trkpt lat="41.153450" lon="-5.357960">
        <ele>823.237</ele>
        <time>2022-02-26T06:08:16Z</time>
      </trkpt>
      <trkpt lat="41.153590" lon="-5.358110">
        <ele>823.076</ele>
        <time>2022-02-26T06:08:56Z</time>
      </trkpt>
      <trkpt lat="41.153780" lon="-5.358290">
        <ele>821.985</ele>
        <time>2022-02-26T06:09:36Z</time>
      </trkpt>
      <trkpt lat="41.153890" lon="-5.358390">
        <ele>821.076</ele>
        <time>2022-02-26T06:10:16Z</time>
      </trkpt>
      <trkpt lat="41.153960" lon="-5.358450">
        <ele>821.027</ele>
        <time>2022-02-26T06:10:56Z</time>
      </trkpt>
      <trkpt lat="41.154350" lon="-5.358770">
        <ele>820.829</ele>
        <time>2022-02-26T06:11:36Z</time>
      </trkpt>
      <trkpt lat="41.155110" lon="-5.359400">
        <ele>822.692</ele>
        <time>2022-02-26T06:12:16Z</time>
      </trkpt>
      <trkpt lat="41.155260" lon="-5.359530">
        <ele>822.673</ele>
        <time>2022-02-26T06:12:56Z</time>
      </trkpt>
      <trkpt lat="41.155850" lon="-5.360020">
        <ele>820.920</ele>
        <time>2022-02-26T06:13:36Z</time>
      </trkpt>
      <trkpt lat="41.156560" lon="-5.360640">
        <ele>822.508</ele>
        <time>2022-02-26T06:14:16Z</time>
      </trkpt>
      <trkpt lat="41.156750" lon="-5.360810">
        <ele>824.278</ele>
        <time>2022-02-26T06:14:56Z</time>
      </trkpt>
      <trkpt lat="41.157170" lon="-5.361180">
        <ele>826.035</ele>
        <time>2022-02-26T06:15:36Z</time>
      </trkpt>
      <trkpt lat="41.157350" lon="-5.361340">
        <ele>826.429</ele>
        <time>2022-02-26T06:16:16Z</time>
      </trkpt>
      <trkpt lat="41.157500" lon="-5.361470">
        <ele>826.438</ele>
        <time>2022-02-26T06:16:56Z</time>
      </trkpt>
      <trkpt lat="41.157590" lon="-5.361540">
        <ele>825.997</ele>
        <time>2022-02-26T06:17:36Z</time>
      </trkpt>
      <trkpt lat="41.157650" lon="-5.361600">
        <ele>825.538</ele>
        <time>2022-02-26T06:18:16Z</time>
      </trkpt>
      <trkpt lat="41.158100" lon="-5.361990">
        <ele>821.889</ele>
        <time>2022-02-26T06:18:56Z</time>
      </trkpt>
      <trkpt lat="41.158110" lon="-5.362000">
        <ele>821.831</ele>
        <time>2022-02-26T06:19:36Z</time>
      </trkpt>
      <trkpt lat="41.158250" lon="-5.362120">
        <ele>821.073</ele>
        <time>2022-02-26T06:20:16Z</time>
      </trkpt>
      <trkpt lat="41.158860" lon="-5.362630">
        <ele>818.585</ele>
        <time>2022-02-26T06:20:56Z</time>
      </trkpt>
      <trkpt lat="41.158900" lon="-5.362670">
        <ele>818.113</ele>
        <time>2022-02-26T06:21:36Z</time>
      </trkpt>
      <trkpt lat="41.159000" lon="-5.362740">
        <ele>816.908</ele>
        <time>2022-02-26T06:22:16Z</time>
      </trkpt>
      <trkpt lat="41.159110" lon="-5.362820">
        <ele>815.926</ele>
        <time>2022-02-26T06:22:56Z</time>
      </trkpt>
      <trkpt lat="41.159210" lon="-5.362890">
        <ele>814.763</ele>
        <time>2022-02-26T06:23:36Z</time>
      </trkpt>
      <trkpt lat="41.159410" lon="-5.363020">
        <ele>812.317</ele>
        <time>2022-02-26T06:24:16Z</time>
      </trkpt>
      <trkpt lat="41.159470" lon="-5.363060">
        <ele>812.026</ele>
        <time>2022-02-26T06:24:56Z</time>
      </trkpt>
      <trkpt lat="41.159500" lon="-5.363080">
        <ele>812.055</ele>
        <time>2022-02-26T06:25:36Z</time>
      </trkpt>
      <trkpt lat="41.159550" lon="-5.363110">
        <ele>812.036</ele>
        <time>2022-02-26T06:26:16Z</time>
      </trkpt>
      <trkpt lat="41.159890" lon="-5.363300">
        <ele>810.337</ele>
        <time>2022-02-26T06:26:56Z</time>
      </trkpt>
      <trkpt lat="41.160500" lon="-5.363630">
        <ele>803.259</ele>
        <time>2022-02-26T06:27:36Z</time>
      </trkpt>
      <trkpt lat="41.160660" lon="-5.363720">
        <ele>803.526</ele>
        <time>2022-02-26T06:28:16Z</time>
      </trkpt>
      <trkpt lat="41.160980" lon="-5.363890">
        <ele>803.047</ele>
        <time>2022-02-26T06:28:56Z</time>
      </trkpt>
      <trkpt lat="41.161140" lon="-5.363990">
        <ele>802.411</ele>
        <time>2022-02-26T06:29:36Z</time>
      </trkpt>
      <trkpt lat="41.161470" lon="-5.364170">
        <ele>799.408</ele>
        <time>2022-02-26T06:30:16Z</time>
      </trkpt>
      <trkpt lat="41.161640" lon="-5.364270">
        <ele>797.811</ele>
        <time>2022-02-26T06:30:56Z</time>
      </trkpt>
      <trkpt lat="41.161810" lon="-5.364360">
        <ele>796.838</ele>
        <time>2022-02-26T06:31:36Z</time>
      </trkpt>
      <trkpt lat="41.161860" lon="-5.364390">
        <ele>796.572</ele>
        <time>2022-02-26T06:32:16Z</time>
      </trkpt>
      <trkpt lat="41.161980" lon="-5.364460">
        <ele>796.191</ele>
        <time>2022-02-26T06:32:56Z</time>
      </trkpt>
      <trkpt lat="41.162130" lon="-5.364550">
        <ele>796.080</ele>
        <time>2022-02-26T06:33:36Z</time>
      </trkpt>
      <trkpt lat="41.162310" lon="-5.364640">
        <ele>795.861</ele>
        <time>2022-02-26T06:34:16Z</time>
      </trkpt>
      <trkpt lat="41.162470" lon="-5.364740">
        <ele>795.892</ele>
        <time>2022-02-26T06:34:56Z</time>
      </trkpt>
      <trkpt lat="41.162560" lon="-5.364790">
        <ele>796.014</ele>
        <time>2022-02-26T06:35:36Z</time>
      </trkpt>
      <trkpt lat="41.162730" lon="-5.364880">
        <ele>796.381</ele>
        <time>2022-02-26T06:36:16Z</time>
      </trkpt>
      <trkpt lat="41.162810" lon="-5.364920">
        <ele>796.161</ele>
        <time>2022-02-26T06:36:56Z</time>
      </trkpt>
      <trkpt lat="41.163000" lon="-5.365010">
        <ele>795.217</ele>
        <time>2022-02-26T06:37:36Z</time>
      </trkpt>
      <trkpt lat="41.163260" lon="-5.365110">
        <ele>793.108</ele>
        <time>2022-02-26T06:38:16Z</time>
      </trkpt>
      <trkpt lat="41.164770" lon="-5.365570">
        <ele>789.857</ele>
        <time>2022-02-26T06:38:56Z</time>
      </trkpt>
      <trkpt lat="41.164900" lon="-5.365600">
        <ele>789.524</ele>
        <time>2022-02-26T06:39:36Z</time>
      </trkpt>
      <trkpt lat="41.165250" lon="-5.365700">
        <ele>790.088</ele>
        <time>2022-02-26T06:40:16Z</time>
      </trkpt>
      <trkpt lat="41.165500" lon="-5.365730">
        <ele>790.027</ele>
        <time>2022-02-26T06:40:56Z</time>
      </trkpt>
      <trkpt lat="41.165610" lon="-5.365740">
        <ele>790.056</ele>
        <time>2022-02-26T06:41:36Z</time>
      </trkpt>
      <trkpt lat="41.165720" lon="-5.365740">
        <ele>790.087</ele>
        <time>2022-02-26T06:42:16Z</time>
      </trkpt>
      <trkpt lat="41.165920" lon="-5.365740">
        <ele>790.068</ele>
        <time>2022-02-26T06:42:56Z</time>
      </trkpt>
      <trkpt lat="41.166150" lon="-5.365740">
        <ele>789.970</ele>
        <time>2022-02-26T06:43:36Z</time>
      </trkpt>
      <trkpt lat="41.166320" lon="-5.365730">
        <ele>789.519</ele>
        <time>2022-02-26T06:44:16Z</time>
      </trkpt>
      <trkpt lat="41.166610" lon="-5.365720">
        <ele>789.409</ele>
        <time>2022-02-26T06:44:56Z</time>
      </trkpt>
      <trkpt lat="41.166820" lon="-5.365710">
        <ele>789.419</ele>
        <time>2022-02-26T06:45:36Z</time>
      </trkpt>
      <trkpt lat="41.167270" lon="-5.365700">
        <ele>788.808</ele>
        <time>2022-02-26T06:46:16Z</time>
      </trkpt>
      <trkpt lat="41.167400" lon="-5.365700">
        <ele>788.490</ele>
        <time>2022-02-26T06:46:56Z</time>
      </trkpt>
      <trkpt lat="41.167530" lon="-5.365690">
        <ele>788.147</ele>
        <time>2022-02-26T06:47:36Z</time>
      </trkpt>
      <trkpt lat="41.167630" lon="-5.365690">
        <ele>788.211</ele>
        <time>2022-02-26T06:48:16Z</time>
      </trkpt>
      <trkpt lat="41.167710" lon="-5.365690">
        <ele>788.450</ele>
        <time>2022-02-26T06:48:56Z</time>
      </trkpt>
      <trkpt lat="41.168140" lon="-5.365680">
        <ele>788.379</ele>
        <time>2022-02-26T06:49:36Z</time>
      </trkpt>
      <trkpt lat="41.168290" lon="-5.365680">
        <ele>788.150</ele>
        <time>2022-02-26T06:50:16Z</time>
      </trkpt>
      <trkpt lat="41.168320" lon="-5.365680">
        <ele>788.021</ele>
        <time>2022-02-26T06:50:56Z</time>
      </trkpt>
      <trkpt lat="41.168380" lon="-5.365690">
        <ele>788.013</ele>
        <time>2022-02-26T06:51:36Z</time>
      </trkpt>
      <trkpt lat="41.168480" lon="-5.365700">
        <ele>788.061</ele>
        <time>2022-02-26T06:52:16Z</time>
      </trkpt>
      <trkpt lat="41.168580" lon="-5.365710">
        <ele>788.021</ele>
        <time>2022-02-26T06:52:56Z</time>
      </trkpt>
      <trkpt lat="41.168690" lon="-5.365730">
        <ele>788.013</ele>
        <time>2022-02-26T06:53:36Z</time>
      </trkpt>
      <trkpt lat="41.168770" lon="-5.365740">
        <ele>788.008</ele>
        <time>2022-02-26T06:54:16Z</time>
      </trkpt>
      <trkpt lat="41.168820" lon="-5.365760">
        <ele>788.065</ele>
        <time>2022-02-26T06:54:56Z</time>
      </trkpt>
      <trkpt lat="41.168960" lon="-5.365770">
        <ele>787.982</ele>
        <time>2022-02-26T06:55:36Z</time>
      </trkpt>
      <trkpt lat="41.169670" lon="-5.365890">
        <ele>784.616</ele>
        <time>2022-02-26T06:56:16Z</time>
      </trkpt>
      <trkpt lat="41.170000" lon="-5.365940">
        <ele>782.835</ele>
        <time>2022-02-26T06:56:56Z</time>
      </trkpt>
      <trkpt lat="41.170330" lon="-5.365990">
        <ele>783.534</ele>
        <time>2022-02-26T06:57:36Z</time>
      </trkpt>
      <trkpt lat="41.170490" lon="-5.366010">
        <ele>783.135</ele>
        <time>2022-02-26T06:58:16Z</time>
      </trkpt>
      <trkpt lat="41.170650" lon="-5.366040">
        <ele>782.736</ele>
        <time>2022-02-26T06:58:56Z</time>
      </trkpt>
      <trkpt lat="41.170780" lon="-5.366070">
        <ele>782.358</ele>
        <time>2022-02-26T06:59:36Z</time>
      </trkpt>
      <trkpt lat="41.170900" lon="-5.366110">
        <ele>782.513</ele>
        <time>2022-02-26T07:00:16Z</time>
      </trkpt>
      <trkpt lat="41.170920" lon="-5.366120">
        <ele>782.643</ele>
        <time>2022-02-26T07:00:56Z</time>
      </trkpt>
      <trkpt lat="41.171080" lon="-5.366180">
        <ele>784.007</ele>
        <time>2022-02-26T07:01:36Z</time>
      </trkpt>
      <trkpt lat="41.171170" lon="-5.366230">
        <ele>784.808</ele>
        <time>2022-02-26T07:02:16Z</time>
      </trkpt>
      <trkpt lat="41.171300" lon="-5.366310">
        <ele>786.480</ele>
        <time>2022-02-26T07:02:56Z</time>
      </trkpt>
      <trkpt lat="41.171400" lon="-5.366380">
        <ele>788.067</ele>
        <time>2022-02-26T07:03:36Z</time>
      </trkpt>
      <trkpt lat="41.171520" lon="-5.366480">
        <ele>790.491</ele>
        <time>2022-02-26T07:04:16Z</time>
      </trkpt>
      <trkpt lat="41.171640" lon="-5.366590">
        <ele>792.920</ele>
        <time>2022-02-26T07:04:56Z</time>
      </trkpt>
      <trkpt lat="41.171750" lon="-5.366700">
        <ele>794.729</ele>
        <time>2022-02-26T07:05:36Z</time>
      </trkpt>
      <trkpt lat="41.171810" lon="-5.366780">
        <ele>795.480</ele>
        <time>2022-02-26T07:06:16Z</time>
      </trkpt>
      <trkpt lat="41.171910" lon="-5.366910">
        <ele>796.661</ele>
        <time>2022-02-26T07:06:56Z</time>
      </trkpt>
      <trkpt lat="41.172000" lon="-5.367030">
        <ele>797.053</ele>
        <time>2022-02-26T07:07:36Z</time>
      </trkpt>
      <trkpt lat="41.172070" lon="-5.367140">
        <ele>797.045</ele>
        <time>2022-02-26T07:08:16Z</time>
      </trkpt>
      <trkpt lat="41.172080" lon="-5.367150">
        <ele>797.047</ele>
        <time>2022-02-26T07:08:56Z</time>
      </trkpt>
      <trkpt lat="41.172120" lon="-5.367220">
        <ele>797.011</ele>
        <time>2022-02-26T07:09:36Z</time>
      </trkpt>
      <trkpt lat="41.172180" lon="-5.367340">
        <ele>797.008</ele>
        <time>2022-02-26T07:10:16Z</time>
      </trkpt>
      <trkpt lat="41.172220" lon="-5.367400">
        <ele>797.053</ele>
        <time>2022-02-26T07:10:56Z</time>
      </trkpt>
      <trkpt lat="41.172260" lon="-5.367510">
        <ele>797.230</ele>
        <time>2022-02-26T07:11:36Z</time>
      </trkpt>
      <trkpt lat="41.172280" lon="-5.367540">
        <ele>797.534</ele>
        <time>2022-02-26T07:12:16Z</time>
      </trkpt>
      <trkpt lat="41.172330" lon="-5.367650">
        <ele>798.323</ele>
        <time>2022-02-26T07:12:56Z</time>
      </trkpt>
      <trkpt lat="41.172390" lon="-5.367830">
        <ele>799.382</ele>
        <time>2022-02-26T07:13:36Z</time>
      </trkpt>
      <trkpt lat="41.172430" lon="-5.367960">
        <ele>800.173</ele>
        <time>2022-02-26T07:14:16Z</time>
      </trkpt>
      <trkpt lat="41.172450" lon="-5.368030">
        <ele>800.724</ele>
        <time>2022-02-26T07:14:56Z</time>
      </trkpt>
      <trkpt lat="41.172500" lon="-5.368210">
        <ele>802.116</ele>
        <time>2022-02-26T07:15:36Z</time>
      </trkpt>
      <trkpt lat="41.172540" lon="-5.368400">
        <ele>803.111</ele>
        <time>2022-02-26T07:16:16Z</time>
      </trkpt>
      <trkpt lat="41.172560" lon="-5.368600">
        <ele>803.721</ele>
        <time>2022-02-26T07:16:56Z</time>
      </trkpt>
      <trkpt lat="41.172590" lon="-5.368770">
        <ele>803.903</ele>
        <time>2022-02-26T07:17:36Z</time>
      </trkpt>
      <trkpt lat="41.172600" lon="-5.368920">
        <ele>803.908</ele>
        <time>2022-02-26T07:18:16Z</time>
      </trkpt>
      <trkpt lat="41.172600" lon="-5.369010">
        <ele>803.690</ele>
        <time>2022-02-26T07:18:56Z</time>
      </trkpt>
      <trkpt lat="41.172600" lon="-5.369140">
        <ele>803.117</ele>
        <time>2022-02-26T07:19:36Z</time>
      </trkpt>
      <trkpt lat="41.172610" lon="-5.369190">
        <ele>802.981</ele>
        <time>2022-02-26T07:20:16Z</time>
      </trkpt>
      <trkpt lat="41.172630" lon="-5.369420">
        <ele>801.760</ele>
        <time>2022-02-26T07:20:56Z</time>
      </trkpt>
      <trkpt lat="41.172650" lon="-5.369710">
        <ele>800.589</ele>
        <time>2022-02-26T07:21:36Z</time>
      </trkpt>
      <trkpt lat="41.172654" lon="-5.369712">
        <ele>800.570</ele>
        <time>2022-02-26T07:22:16Z</time>
      </trkpt>
      <trkpt lat="41.172680" lon="-5.369740">
        <ele>800.481</ele>
        <time>2022-02-26T07:22:56Z</time>
      </trkpt>
      <trkpt lat="41.172700" lon="-5.369760">
        <ele>800.343</ele>
        <time>2022-02-26T07:23:36Z</time>
      </trkpt>
      <trkpt lat="41.172720" lon="-5.369800">
        <ele>800.226</ele>
        <time>2022-02-26T07:24:16Z</time>
      </trkpt>
      <trkpt lat="41.172730" lon="-5.369830">
        <ele>800.247</ele>
        <time>2022-02-26T07:24:56Z</time>
      </trkpt>
      <trkpt lat="41.172730" lon="-5.369840">
        <ele>800.211</ele>
        <time>2022-02-26T07:25:36Z</time>
      </trkpt>
      <trkpt lat="41.172740" lon="-5.369870">
        <ele>800.108</ele>
        <time>2022-02-26T07:26:16Z</time>
      </trkpt>
      <trkpt lat="41.172750" lon="-5.369890">
        <ele>800.111</ele>
        <time>2022-02-26T07:26:56Z</time>
      </trkpt>
      <trkpt lat="41.172750" lon="-5.369900">
        <ele>800.138</ele>
        <time>2022-02-26T07:27:36Z</time>
      </trkpt>
      <trkpt lat="41.172760" lon="-5.369940">
        <ele>800.132</ele>
        <time>2022-02-26T07:28:16Z</time>
      </trkpt>
      <trkpt lat="41.172760" lon="-5.369980">
        <ele>800.111</ele>
        <time>2022-02-26T07:28:56Z</time>
      </trkpt>
      <trkpt lat="41.172760" lon="-5.370020">
        <ele>800.180</ele>
        <time>2022-02-26T07:29:36Z</time>
      </trkpt>
      <trkpt lat="41.172750" lon="-5.370060">
        <ele>800.381</ele>
        <time>2022-02-26T07:30:16Z</time>
      </trkpt>
      <trkpt lat="41.172750" lon="-5.370080">
        <ele>800.442</ele>
        <time>2022-02-26T07:30:56Z</time>
      </trkpt>
      <trkpt lat="41.172750" lon="-5.370100">
        <ele>800.544</ele>
        <time>2022-02-26T07:31:36Z</time>
      </trkpt>
      <trkpt lat="41.172740" lon="-5.370140">
        <ele>800.695</ele>
        <time>2022-02-26T07:32:16Z</time>
      </trkpt>
      <trkpt lat="41.172720" lon="-5.370170">
        <ele>800.849</ele>
        <time>2022-02-26T07:32:56Z</time>
      </trkpt>
      <trkpt lat="41.172700" lon="-5.370200">
        <ele>801.023</ele>
        <time>2022-02-26T07:33:36Z</time>
      </trkpt>
      <trkpt lat="41.172680" lon="-5.370230">
        <ele>801.208</ele>
        <time>2022-02-26T07:34:16Z</time>
      </trkpt>
      <trkpt lat="41.172660" lon="-5.370260">
        <ele>801.468</ele>
        <time>2022-02-26T07:34:56Z</time>
      </trkpt>
      <trkpt lat="41.172640" lon="-5.370280">
        <ele>801.555</ele>
        <time>2022-02-26T07:35:36Z</time>
      </trkpt>
      <trkpt lat="41.172610" lon="-5.370300">
        <ele>801.669</ele>
        <time>2022-02-26T07:36:16Z</time>
      </trkpt>
      <trkpt lat="41.172580" lon="-5.370320">
        <ele>801.668</ele>
        <time>2022-02-26T07:36:56Z</time>
      </trkpt>
      <trkpt lat="41.172560" lon="-5.370330">
        <ele>801.737</ele>
        <time>2022-02-26T07:37:36Z</time>
      </trkpt>
      <trkpt lat="41.172460" lon="-5.370510">
        <ele>801.368</ele>
        <time>2022-02-26T07:38:16Z</time>
      </trkpt>
      <trkpt lat="41.172460" lon="-5.370530">
        <ele>801.299</ele>
        <time>2022-02-26T07:38:56Z</time>
      </trkpt>
      <trkpt lat="41.172450" lon="-5.370560">
        <ele>801.291</ele>
        <time>2022-02-26T07:39:36Z</time>
      </trkpt>
      <trkpt lat="41.172410" lon="-5.370750">
        <ele>801.191</ele>
        <time>2022-02-26T07:40:16Z</time>
      </trkpt>
      <trkpt lat="41.172410" lon="-5.370800">
        <ele>801.081</ele>
        <time>2022-02-26T07:40:56Z</time>
      </trkpt>
      <trkpt lat="41.172410" lon="-5.370870">
        <ele>801.019</ele>
        <time>2022-02-26T07:41:36Z</time>
      </trkpt>
      <trkpt lat="41.172380" lon="-5.371030">
        <ele>801.008</ele>
        <time>2022-02-26T07:42:16Z</time>
      </trkpt>
      <trkpt lat="41.172380" lon="-5.371060">
        <ele>801.018</ele>
        <time>2022-02-26T07:42:56Z</time>
      </trkpt>
      <trkpt lat="41.172380" lon="-5.371210">
        <ele>801.265</ele>
        <time>2022-02-26T07:43:36Z</time>
      </trkpt>
      <trkpt lat="41.172380" lon="-5.371280">
        <ele>801.349</ele>
        <time>2022-02-26T07:44:16Z</time>
      </trkpt>
      <trkpt lat="41.172410" lon="-5.371530">
        <ele>802.298</ele>
        <time>2022-02-26T07:44:56Z</time>
      </trkpt>
      <trkpt lat="41.172440" lon="-5.371710">
        <ele>803.297</ele>
        <time>2022-02-26T07:45:36Z</time>
      </trkpt>
      <trkpt lat="41.172490" lon="-5.371980">
        <ele>804.018</ele>
        <time>2022-02-26T07:46:16Z</time>
      </trkpt>
      <trkpt lat="41.172540" lon="-5.372140">
        <ele>804.029</ele>
        <time>2022-02-26T07:46:56Z</time>
      </trkpt>
      <trkpt lat="41.172560" lon="-5.372200">
        <ele>804.061</ele>
        <time>2022-02-26T07:47:36Z</time>
      </trkpt>
      <trkpt lat="41.172580" lon="-5.372280">
        <ele>804.213</ele>
        <time>2022-02-26T07:48:16Z</time>
      </trkpt>
      <trkpt lat="41.172630" lon="-5.372420">
        <ele>804.743</ele>
        <time>2022-02-26T07:48:56Z</time>
      </trkpt>
      <trkpt lat="41.172640" lon="-5.372450">
        <ele>804.807</ele>
        <time>2022-02-26T07:49:36Z</time>
      </trkpt>
      <trkpt lat="41.172710" lon="-5.372610">
        <ele>805.308</ele>
        <time>2022-02-26T07:50:16Z</time>
      </trkpt>
      <trkpt lat="41.172780" lon="-5.372760">
        <ele>806.070</ele>
        <time>2022-02-26T07:50:56Z</time>
      </trkpt>
      <trkpt lat="41.172780" lon="-5.372780">
        <ele>806.037</ele>
        <time>2022-02-26T07:51:36Z</time>
      </trkpt>
      <trkpt lat="41.172810" lon="-5.372830">
        <ele>806.441</ele>
        <time>2022-02-26T07:52:16Z</time>
      </trkpt>
      <trkpt lat="41.172840" lon="-5.372890">
        <ele>806.850</ele>
        <time>2022-02-26T07:52:56Z</time>
      </trkpt>
      <trkpt lat="41.172920" lon="-5.373020">
        <ele>807.589</ele>
        <time>2022-02-26T07:53:36Z</time>
      </trkpt>
      <trkpt lat="41.172980" lon="-5.373110">
        <ele>807.850</ele>
        <time>2022-02-26T07:54:16Z</time>
      </trkpt>
      <trkpt lat="41.173040" lon="-5.373200">
        <ele>808.011</ele>
        <time>2022-02-26T07:54:56Z</time>
      </trkpt>
      <trkpt lat="41.173100" lon="-5.373280">
        <ele>808.313</ele>
        <time>2022-02-26T07:55:36Z</time>
      </trkpt>
      <trkpt lat="41.173170" lon="-5.373360">
        <ele>808.963</ele>
        <time>2022-02-26T07:56:16Z</time>
      </trkpt>
      <trkpt lat="41.173260" lon="-5.373470">
        <ele>809.644</ele>
        <time>2022-02-26T07:56:56Z</time>
      </trkpt>
      <trkpt lat="41.173350" lon="-5.373560">
        <ele>810.118</ele>
        <time>2022-02-26T07:57:36Z</time>
      </trkpt>
      <trkpt lat="41.173390" lon="-5.373590">
        <ele>810.208</ele>
        <time>2022-02-26T07:58:16Z</time>
      </trkpt>
      <trkpt lat="41.173540" lon="-5.373730">
        <ele>810.185</ele>
        <time>2022-02-26T07:58:56Z</time>
      </trkpt>
      <trkpt lat="41.173600" lon="-5.373790">
        <ele>809.742</ele>
        <time>2022-02-26T07:59:36Z</time>
      </trkpt>
      <trkpt lat="41.173830" lon="-5.374010">
        <ele>809.746</ele>
        <time>2022-02-26T08:00:16Z</time>
      </trkpt>
      <trkpt lat="41.173910" lon="-5.374080">
        <ele>810.115</ele>
        <time>2022-02-26T08:00:56Z</time>
      </trkpt>
      <trkpt lat="41.173920" lon="-5.374090">
        <ele>810.214</ele>
        <time>2022-02-26T08:01:36Z</time>
      </trkpt>
      <trkpt lat="41.174020" lon="-5.374180">
        <ele>811.065</ele>
        <time>2022-02-26T08:02:16Z</time>
      </trkpt>
      <trkpt lat="41.174070" lon="-5.374230">
        <ele>811.586</ele>
        <time>2022-02-26T08:02:56Z</time>
      </trkpt>
      <trkpt lat="41.174200" lon="-5.374350">
        <ele>812.878</ele>
        <time>2022-02-26T08:03:36Z</time>
      </trkpt>
      <trkpt lat="41.174360" lon="-5.374490">
        <ele>813.799</ele>
        <time>2022-02-26T08:04:16Z</time>
      </trkpt>
      <trkpt lat="41.174470" lon="-5.374600">
        <ele>813.907</ele>
        <time>2022-02-26T08:04:56Z</time>
      </trkpt>
      <trkpt lat="41.174570" lon="-5.374690">
        <ele>813.627</ele>
        <time>2022-02-26T08:05:36Z</time>
      </trkpt>
      <trkpt lat="41.174700" lon="-5.374810">
        <ele>813.108</ele>
        <time>2022-02-26T08:06:16Z</time>
      </trkpt>
      <trkpt lat="41.174810" lon="-5.374900">
        <ele>813.198</ele>
        <time>2022-02-26T08:06:56Z</time>
      </trkpt>
      <trkpt lat="41.174990" lon="-5.375070">
        <ele>812.795</ele>
        <time>2022-02-26T08:07:36Z</time>
      </trkpt>
      <trkpt lat="41.175400" lon="-5.375450">
        <ele>813.959</ele>
        <time>2022-02-26T08:08:16Z</time>
      </trkpt>
      <trkpt lat="41.175660" lon="-5.375710">
        <ele>811.518</ele>
        <time>2022-02-26T08:08:56Z</time>
      </trkpt>
      <trkpt lat="41.175760" lon="-5.375810">
        <ele>810.747</ele>
        <time>2022-02-26T08:09:36Z</time>
      </trkpt>
      <trkpt lat="41.175820" lon="-5.375890">
        <ele>810.348</ele>
        <time>2022-02-26T08:10:16Z</time>
      </trkpt>
      <trkpt lat="41.175870" lon="-5.375950">
        <ele>810.269</ele>
        <time>2022-02-26T08:10:56Z</time>
      </trkpt>
      <trkpt lat="41.175950" lon="-5.376060">
        <ele>810.071</ele>
        <time>2022-02-26T08:11:36Z</time>
      </trkpt>
      <trkpt lat="41.175960" lon="-5.376080">
        <ele>810.054</ele>
        <time>2022-02-26T08:12:16Z</time>
      </trkpt>
      <trkpt lat="41.176030" lon="-5.376190">
        <ele>809.956</ele>
        <time>2022-02-26T08:12:56Z</time>
      </trkpt>
      <trkpt lat="41.176060" lon="-5.376240">
        <ele>809.811</ele>
        <time>2022-02-26T08:13:36Z</time>
      </trkpt>
      <trkpt lat="41.176110" lon="-5.376330">
        <ele>809.808</ele>
        <time>2022-02-26T08:14:16Z</time>
      </trkpt>
      <trkpt lat="41.176230" lon="-5.376580">
        <ele>809.814</ele>
        <time>2022-02-26T08:14:56Z</time>
      </trkpt>
      <trkpt lat="41.176370" lon="-5.376900">
        <ele>809.941</ele>
        <time>2022-02-26T08:15:36Z</time>
      </trkpt>
      <trkpt lat="41.176510" lon="-5.377250">
        <ele>809.115</ele>
        <time>2022-02-26T08:16:16Z</time>
      </trkpt>
      <trkpt lat="41.176520" lon="-5.377270">
        <ele>809.094</ele>
        <time>2022-02-26T08:16:56Z</time>
      </trkpt>
      <trkpt lat="41.176590" lon="-5.377440">
        <ele>808.083</ele>
        <time>2022-02-26T08:17:36Z</time>
      </trkpt>
      <trkpt lat="41.176610" lon="-5.377480">
        <ele>807.774</ele>
        <time>2022-02-26T08:18:16Z</time>
      </trkpt>
      <trkpt lat="41.176680" lon="-5.377650">
        <ele>807.025</ele>
        <time>2022-02-26T08:18:56Z</time>
      </trkpt>
      <trkpt lat="41.176750" lon="-5.377790">
        <ele>806.727</ele>
        <time>2022-02-26T08:19:36Z</time>
      </trkpt>
      <trkpt lat="41.176810" lon="-5.377900">
        <ele>806.562</ele>
        <time>2022-02-26T08:20:16Z</time>
      </trkpt>
      <trkpt lat="41.176870" lon="-5.378010">
        <ele>806.383</ele>
        <time>2022-02-26T08:20:56Z</time>
      </trkpt>
      <trkpt lat="41.176930" lon="-5.378100">
        <ele>806.211</ele>
        <time>2022-02-26T08:21:36Z</time>
      </trkpt>
      <trkpt lat="41.176980" lon="-5.378180">
        <ele>806.508</ele>
        <time>2022-02-26T08:22:16Z</time>
      </trkpt>
      <trkpt lat="41.177060" lon="-5.378280">
        <ele>806.945</ele>
        <time>2022-02-26T08:22:56Z</time>
      </trkpt>
      <trkpt lat="41.177130" lon="-5.378380">
        <ele>807.282</ele>
        <time>2022-02-26T08:23:36Z</time>
      </trkpt>
      <trkpt lat="41.177180" lon="-5.378440">
        <ele>807.456</ele>
        <time>2022-02-26T08:24:16Z</time>
      </trkpt>
      <trkpt lat="41.177220" lon="-5.378490">
        <ele>807.645</ele>
        <time>2022-02-26T08:24:56Z</time>
      </trkpt>
      <trkpt lat="41.177260" lon="-5.378530">
        <ele>807.614</ele>
        <time>2022-02-26T08:25:36Z</time>
      </trkpt>
      <trkpt lat="41.177320" lon="-5.378580">
        <ele>807.685</ele>
        <time>2022-02-26T08:26:16Z</time>
      </trkpt>
      <trkpt lat="41.177410" lon="-5.378670">
        <ele>807.316</ele>
        <time>2022-02-26T08:26:56Z</time>
      </trkpt>
      <trkpt lat="41.177500" lon="-5.378750">
        <ele>807.098</ele>
        <time>2022-02-26T08:27:36Z</time>
      </trkpt>
      <trkpt lat="41.177590" lon="-5.378830">
        <ele>807.638</ele>
        <time>2022-02-26T08:28:16Z</time>
      </trkpt>
      <trkpt lat="41.177900" lon="-5.379060">
        <ele>810.770</ele>
        <time>2022-02-26T08:28:56Z</time>
      </trkpt>
      <trkpt lat="41.178120" lon="-5.379220">
        <ele>811.917</ele>
        <time>2022-02-26T08:29:36Z</time>
      </trkpt>
      <trkpt lat="41.178320" lon="-5.379370">
        <ele>812.708</ele>
        <time>2022-02-26T08:30:16Z</time>
      </trkpt>
      <trkpt lat="41.178490" lon="-5.379520">
        <ele>813.722</ele>
        <time>2022-02-26T08:30:56Z</time>
      </trkpt>
      <trkpt lat="41.178610" lon="-5.379630">
        <ele>814.729</ele>
        <time>2022-02-26T08:31:36Z</time>
      </trkpt>
      <trkpt lat="41.178690" lon="-5.379720">
        <ele>815.053</ele>
        <time>2022-02-26T08:32:16Z</time>
      </trkpt>
      <trkpt lat="41.178750" lon="-5.379780">
        <ele>814.922</ele>
        <time>2022-02-26T08:32:56Z</time>
      </trkpt>
      <trkpt lat="41.178830" lon="-5.379890">
        <ele>814.931</ele>
        <time>2022-02-26T08:33:36Z</time>
      </trkpt>
      <trkpt lat="41.178910" lon="-5.380000">
        <ele>815.092</ele>
        <time>2022-02-26T08:34:16Z</time>
      </trkpt>
      <trkpt lat="41.178980" lon="-5.380090">
        <ele>814.863</ele>
        <time>2022-02-26T08:34:56Z</time>
      </trkpt>
      <trkpt lat="41.179050" lon="-5.380190">
        <ele>814.775</ele>
        <time>2022-02-26T08:35:36Z</time>
      </trkpt>
      <trkpt lat="41.179180" lon="-5.380390">
        <ele>814.635</ele>
        <time>2022-02-26T08:36:16Z</time>
      </trkpt>
      <trkpt lat="41.179270" lon="-5.380540">
        <ele>814.486</ele>
        <time>2022-02-26T08:36:56Z</time>
      </trkpt>
      <trkpt lat="41.179410" lon="-5.380780">
        <ele>814.214</ele>
        <time>2022-02-26T08:37:36Z</time>
      </trkpt>
      <trkpt lat="41.180070" lon="-5.381900">
        <ele>814.908</ele>
        <time>2022-02-26T08:38:16Z</time>
      </trkpt>
      <trkpt lat="41.180210" lon="-5.382120">
        <ele>815.622</ele>
        <time>2022-02-26T08:38:56Z</time>
      </trkpt>
      <trkpt lat="41.180370" lon="-5.382390">
        <ele>815.739</ele>
        <time>2022-02-26T08:39:36Z</time>
      </trkpt>
      <trkpt lat="41.180500" lon="-5.382600">
        <ele>815.893</ele>
        <time>2022-02-26T08:40:16Z</time>
      </trkpt>
      <trkpt lat="41.180940" lon="-5.383370">
        <ele>818.482</ele>
        <time>2022-02-26T08:40:56Z</time>
      </trkpt>
      <trkpt lat="41.180980" lon="-5.383440">
        <ele>818.571</ele>
        <time>2022-02-26T08:41:36Z</time>
      </trkpt>
      <trkpt lat="41.181090" lon="-5.383630">
        <ele>818.962</ele>
        <time>2022-02-26T08:42:16Z</time>
      </trkpt>
      <trkpt lat="41.181380" lon="-5.384130">
        <ele>819.193</ele>
        <time>2022-02-26T08:42:56Z</time>
      </trkpt>
      <trkpt lat="41.181790" lon="-5.384820">
        <ele>819.135</ele>
        <time>2022-02-26T08:43:36Z</time>
      </trkpt>
      <trkpt lat="41.182200" lon="-5.385520">
        <ele>820.055</ele>
        <time>2022-02-26T08:44:16Z</time>
      </trkpt>
      <trkpt lat="41.182220" lon="-5.385550">
        <ele>820.007</ele>
        <time>2022-02-26T08:44:56Z</time>
      </trkpt>
      <trkpt lat="41.182310" lon="-5.385700">
        <ele>820.317</ele>
        <time>2022-02-26T08:45:36Z</time>
      </trkpt>
      <trkpt lat="41.182490" lon="-5.386020">
        <ele>821.208</ele>
        <time>2022-02-26T08:46:16Z</time>
      </trkpt>
      <trkpt lat="41.182640" lon="-5.386270">
        <ele>821.474</ele>
        <time>2022-02-26T08:46:56Z</time>
      </trkpt>
      <trkpt lat="41.182660" lon="-5.386300">
        <ele>821.571</ele>
        <time>2022-02-26T08:47:36Z</time>
      </trkpt>
      <trkpt lat="41.182980" lon="-5.386860">
        <ele>821.685</ele>
        <time>2022-02-26T08:48:16Z</time>
      </trkpt>
      <trkpt lat="41.183150" lon="-5.387140">
        <ele>822.914</ele>
        <time>2022-02-26T08:48:56Z</time>
      </trkpt>
      <trkpt lat="41.183360" lon="-5.387510">
        <ele>824.313</ele>
        <time>2022-02-26T08:49:36Z</time>
      </trkpt>
      <trkpt lat="41.183430" lon="-5.387620">
        <ele>824.624</ele>
        <time>2022-02-26T08:50:16Z</time>
      </trkpt>
      <trkpt lat="41.183490" lon="-5.387730">
        <ele>824.965</ele>
        <time>2022-02-26T08:50:56Z</time>
      </trkpt>
      <trkpt lat="41.183570" lon="-5.387890">
        <ele>825.247</ele>
        <time>2022-02-26T08:51:36Z</time>
      </trkpt>
      <trkpt lat="41.183620" lon="-5.387980">
        <ele>825.434</ele>
        <time>2022-02-26T08:52:16Z</time>
      </trkpt>
      <trkpt lat="41.183620" lon="-5.388000">
        <ele>825.355</ele>
        <time>2022-02-26T08:52:56Z</time>
      </trkpt>
      <trkpt lat="41.183710" lon="-5.388180">
        <ele>826.010</ele>
        <time>2022-02-26T08:53:36Z</time>
      </trkpt>
      <trkpt lat="41.183860" lon="-5.388480">
        <ele>826.608</ele>
        <time>2022-02-26T08:54:16Z</time>
      </trkpt>
      <trkpt lat="41.184170" lon="-5.389170">
        <ele>827.042</ele>
        <time>2022-02-26T08:54:56Z</time>
      </trkpt>
      <trkpt lat="41.184840" lon="-5.390630">
        <ele>833.829</ele>
        <time>2022-02-26T08:55:36Z</time>
      </trkpt>
      <trkpt lat="41.184870" lon="-5.390710">
        <ele>834.163</ele>
        <time>2022-02-26T08:56:16Z</time>
      </trkpt>
      <trkpt lat="41.185020" lon="-5.391040">
        <ele>834.472</ele>
        <time>2022-02-26T08:56:56Z</time>
      </trkpt>
      <trkpt lat="41.185110" lon="-5.391250">
        <ele>834.821</ele>
        <time>2022-02-26T08:57:36Z</time>
      </trkpt>
      <trkpt lat="41.185210" lon="-5.391460">
        <ele>835.662</ele>
        <time>2022-02-26T08:58:16Z</time>
      </trkpt>
      <trkpt lat="41.185530" lon="-5.392150">
        <ele>836.953</ele>
        <time>2022-02-26T08:58:56Z</time>
      </trkpt>
      <trkpt lat="41.185600" lon="-5.392310">
        <ele>836.725</ele>
        <time>2022-02-26T08:59:36Z</time>
      </trkpt>
      <trkpt lat="41.185850" lon="-5.392860">
        <ele>836.442</ele>
        <time>2022-02-26T09:00:16Z</time>
      </trkpt>
      <trkpt lat="41.186160" lon="-5.393570">
        <ele>839.922</ele>
        <time>2022-02-26T09:00:56Z</time>
      </trkpt>
      <trkpt lat="41.186340" lon="-5.393950">
        <ele>840.614</ele>
        <time>2022-02-26T09:01:36Z</time>
      </trkpt>
      <trkpt lat="41.186400" lon="-5.394080">
        <ele>840.308</ele>
        <time>2022-02-26T09:02:16Z</time>
      </trkpt>
      <trkpt lat="41.186460" lon="-5.394200">
        <ele>840.233</ele>
        <time>2022-02-26T09:02:56Z</time>
      </trkpt>
      <trkpt lat="41.186780" lon="-5.394900">
        <ele>842.870</ele>
        <time>2022-02-26T09:03:36Z</time>
      </trkpt>
      <trkpt lat="41.186980" lon="-5.395350">
        <ele>843.374</ele>
        <time>2022-02-26T09:04:16Z</time>
      </trkpt>
      <trkpt lat="41.187150" lon="-5.395740">
        <ele>844.563</ele>
        <time>2022-02-26T09:04:56Z</time>
      </trkpt>
      <trkpt lat="41.187250" lon="-5.395950">
        <ele>844.012</ele>
        <time>2022-02-26T09:05:36Z</time>
      </trkpt>
      <trkpt lat="41.187360" lon="-5.396180">
        <ele>842.463</ele>
        <time>2022-02-26T09:06:16Z</time>
      </trkpt>
      <trkpt lat="41.187510" lon="-5.396530">
        <ele>842.164</ele>
        <time>2022-02-26T09:06:56Z</time>
      </trkpt>
      <trkpt lat="41.187680" lon="-5.396920">
        <ele>842.136</ele>
        <time>2022-02-26T09:07:36Z</time>
      </trkpt>
      <trkpt lat="41.187890" lon="-5.397420">
        <ele>842.385</ele>
        <time>2022-02-26T09:08:16Z</time>
      </trkpt>
      <trkpt lat="41.188030" lon="-5.397790">
        <ele>843.089</ele>
        <time>2022-02-26T09:08:56Z</time>
      </trkpt>
      <trkpt lat="41.188200" lon="-5.398260">
        <ele>844.417</ele>
        <time>2022-02-26T09:09:36Z</time>
      </trkpt>
      <trkpt lat="41.188220" lon="-5.398290">
        <ele>844.508</ele>
        <time>2022-02-26T09:10:16Z</time>
      </trkpt>
      <trkpt lat="41.188290" lon="-5.398500">
        <ele>844.827</ele>
        <time>2022-02-26T09:10:56Z</time>
      </trkpt>
      <trkpt lat="41.188370" lon="-5.398680">
        <ele>845.214</ele>
        <time>2022-02-26T09:11:36Z</time>
      </trkpt>
      <trkpt lat="41.188400" lon="-5.398780">
        <ele>845.598</ele>
        <time>2022-02-26T09:12:16Z</time>
      </trkpt>
      <trkpt lat="41.188490" lon="-5.398980">
        <ele>845.177</ele>
        <time>2022-02-26T09:12:56Z</time>
      </trkpt>
      <trkpt lat="41.188580" lon="-5.399190">
        <ele>844.156</ele>
        <time>2022-02-26T09:13:36Z</time>
      </trkpt>
      <trkpt lat="41.188690" lon="-5.399400">
        <ele>844.037</ele>
        <time>2022-02-26T09:14:16Z</time>
      </trkpt>
      <trkpt lat="41.188740" lon="-5.399500">
        <ele>844.318</ele>
        <time>2022-02-26T09:14:56Z</time>
      </trkpt>
      <trkpt lat="41.188770" lon="-5.399550">
        <ele>844.690</ele>
        <time>2022-02-26T09:15:36Z</time>
      </trkpt>
      <trkpt lat="41.188840" lon="-5.399690">
        <ele>845.612</ele>
        <time>2022-02-26T09:16:16Z</time>
      </trkpt>
      <trkpt lat="41.188950" lon="-5.399890">
        <ele>847.332</ele>
        <time>2022-02-26T09:16:56Z</time>
      </trkpt>
      <trkpt lat="41.189250" lon="-5.400450">
        <ele>846.605</ele>
        <time>2022-02-26T09:17:36Z</time>
      </trkpt>
      <trkpt lat="41.189340" lon="-5.400630">
        <ele>846.608</ele>
        <time>2022-02-26T09:18:16Z</time>
      </trkpt>
      <trkpt lat="41.189410" lon="-5.400800">
        <ele>847.090</ele>
        <time>2022-02-26T09:18:56Z</time>
      </trkpt>
      <trkpt lat="41.189490" lon="-5.400980">
        <ele>847.027</ele>
        <time>2022-02-26T09:19:36Z</time>
      </trkpt>
      <trkpt lat="41.189530" lon="-5.401090">
        <ele>847.361</ele>
        <time>2022-02-26T09:20:16Z</time>
      </trkpt>
      <trkpt lat="41.189550" lon="-5.401140">
        <ele>847.450</ele>
        <time>2022-02-26T09:20:56Z</time>
      </trkpt>
      <trkpt lat="41.189590" lon="-5.401250">
        <ele>847.899</ele>
        <time>2022-02-26T09:21:36Z</time>
      </trkpt>
      <trkpt lat="41.189610" lon="-5.401310">
        <ele>847.960</ele>
        <time>2022-02-26T09:22:16Z</time>
      </trkpt>
      <trkpt lat="41.189610" lon="-5.401340">
        <ele>847.971</ele>
        <time>2022-02-26T09:22:56Z</time>
      </trkpt>
      <trkpt lat="41.189730" lon="-5.401750">
        <ele>847.763</ele>
        <time>2022-02-26T09:23:36Z</time>
      </trkpt>
      <trkpt lat="41.189860" lon="-5.402200">
        <ele>844.221</ele>
        <time>2022-02-26T09:24:16Z</time>
      </trkpt>
      <trkpt lat="41.189870" lon="-5.402230">
        <ele>843.941</ele>
        <time>2022-02-26T09:24:56Z</time>
      </trkpt>
      <trkpt lat="41.189990" lon="-5.402650">
        <ele>841.505</ele>
        <time>2022-02-26T09:25:36Z</time>
      </trkpt>
      <trkpt lat="41.190060" lon="-5.402900">
        <ele>841.208</ele>
        <time>2022-02-26T09:26:16Z</time>
      </trkpt>
      <trkpt lat="41.190110" lon="-5.403100">
        <ele>841.741</ele>
        <time>2022-02-26T09:26:56Z</time>
      </trkpt>
      <trkpt lat="41.190140" lon="-5.403210">
        <ele>841.878</ele>
        <time>2022-02-26T09:27:36Z</time>
      </trkpt>
      <trkpt lat="41.190190" lon="-5.403460">
        <ele>841.512</ele>
        <time>2022-02-26T09:28:16Z</time>
      </trkpt>
      <trkpt lat="41.190270" lon="-5.403860">
        <ele>841.011</ele>
        <time>2022-02-26T09:28:56Z</time>
      </trkpt>
      <trkpt lat="41.190280" lon="-5.403920">
        <ele>841.050</ele>
        <time>2022-02-26T09:29:36Z</time>
      </trkpt>
      <trkpt lat="41.190330" lon="-5.404260">
        <ele>841.431</ele>
        <time>2022-02-26T09:30:16Z</time>
      </trkpt>
      <trkpt lat="41.190420" lon="-5.404810">
        <ele>841.522</ele>
        <time>2022-02-26T09:30:56Z</time>
      </trkpt>
      <trkpt lat="41.190470" lon="-5.405090">
        <ele>841.884</ele>
        <time>2022-02-26T09:31:36Z</time>
      </trkpt>
      <trkpt lat="41.190560" lon="-5.405620">
        <ele>841.843</ele>
        <time>2022-02-26T09:32:16Z</time>
      </trkpt>
      <trkpt lat="41.190590" lon="-5.405790">
        <ele>841.164</ele>
        <time>2022-02-26T09:32:56Z</time>
      </trkpt>
      <trkpt lat="41.190670" lon="-5.406260">
        <ele>841.010</ele>
        <time>2022-02-26T09:33:36Z</time>
      </trkpt>
      <trkpt lat="41.190700" lon="-5.406430">
        <ele>841.108</ele>
        <time>2022-02-26T09:34:16Z</time>
      </trkpt>
      <trkpt lat="41.190750" lon="-5.406720">
        <ele>841.343</ele>
        <time>2022-02-26T09:34:56Z</time>
      </trkpt>
      <trkpt lat="41.190800" lon="-5.406960">
        <ele>841.150</ele>
        <time>2022-02-26T09:35:36Z</time>
      </trkpt>
      <trkpt lat="41.190830" lon="-5.407150">
        <ele>841.024</ele>
        <time>2022-02-26T09:36:16Z</time>
      </trkpt>
      <trkpt lat="41.190880" lon="-5.407340">
        <ele>841.423</ele>
        <time>2022-02-26T09:36:56Z</time>
      </trkpt>
      <trkpt lat="41.190940" lon="-5.407620">
        <ele>842.322</ele>
        <time>2022-02-26T09:37:36Z</time>
      </trkpt>
      <trkpt lat="41.190950" lon="-5.407640">
        <ele>842.393</ele>
        <time>2022-02-26T09:38:16Z</time>
      </trkpt>
      <trkpt lat="41.191110" lon="-5.408240">
        <ele>843.744</ele>
        <time>2022-02-26T09:38:56Z</time>
      </trkpt>
      <trkpt lat="41.191290" lon="-5.408870">
        <ele>845.046</ele>
        <time>2022-02-26T09:39:36Z</time>
      </trkpt>
      <trkpt lat="41.191320" lon="-5.408980">
        <ele>845.082</ele>
        <time>2022-02-26T09:40:16Z</time>
      </trkpt>
      <trkpt lat="41.191390" lon="-5.409210">
        <ele>845.343</ele>
        <time>2022-02-26T09:40:56Z</time>
      </trkpt>
      <trkpt lat="41.191530" lon="-5.409740">
        <ele>847.017</ele>
        <time>2022-02-26T09:41:36Z</time>
      </trkpt>
      <trkpt lat="41.191560" lon="-5.409830">
        <ele>846.808</ele>
        <time>2022-02-26T09:42:16Z</time>
      </trkpt>
      <trkpt lat="41.191620" lon="-5.410060">
        <ele>846.077</ele>
        <time>2022-02-26T09:42:56Z</time>
      </trkpt>
      <trkpt lat="41.191680" lon="-5.410260">
        <ele>845.054</ele>
        <time>2022-02-26T09:43:36Z</time>
      </trkpt>
      <trkpt lat="41.191730" lon="-5.410440">
        <ele>844.158</ele>
        <time>2022-02-26T09:44:16Z</time>
      </trkpt>
      <trkpt lat="41.191820" lon="-5.410730">
        <ele>843.487</ele>
        <time>2022-02-26T09:44:56Z</time>
      </trkpt>
      <trkpt lat="41.191860" lon="-5.410850">
        <ele>843.316</ele>
        <time>2022-02-26T09:45:36Z</time>
      </trkpt>
      <trkpt lat="41.191890" lon="-5.410940">
        <ele>843.567</ele>
        <time>2022-02-26T09:46:16Z</time>
      </trkpt>
      <trkpt lat="41.191940" lon="-5.411100">
        <ele>844.068</ele>
        <time>2022-02-26T09:46:56Z</time>
      </trkpt>
      <trkpt lat="41.192090" lon="-5.411530">
        <ele>843.090</ele>
        <time>2022-02-26T09:47:36Z</time>
      </trkpt>
      <trkpt lat="41.192230" lon="-5.411910">
        <ele>841.136</ele>
        <time>2022-02-26T09:48:16Z</time>
      </trkpt>
      <trkpt lat="41.192310" lon="-5.412170">
        <ele>840.217</ele>
        <time>2022-02-26T09:48:56Z</time>
      </trkpt>
      <trkpt lat="41.192340" lon="-5.412250">
        <ele>840.118</ele>
        <time>2022-02-26T09:49:36Z</time>
      </trkpt>
      <trkpt lat="41.192420" lon="-5.412530">
        <ele>841.008</ele>
        <time>2022-02-26T09:50:16Z</time>
      </trkpt>
      <trkpt lat="41.192460" lon="-5.412700">
        <ele>841.142</ele>
        <time>2022-02-26T09:50:56Z</time>
      </trkpt>
      <trkpt lat="41.192520" lon="-5.413010">
        <ele>841.839</ele>
        <time>2022-02-26T09:51:36Z</time>
      </trkpt>
      <trkpt lat="41.192590" lon="-5.413400">
        <ele>841.683</ele>
        <time>2022-02-26T09:52:16Z</time>
      </trkpt>
      <trkpt lat="41.192600" lon="-5.413510">
        <ele>841.022</ele>
        <time>2022-02-26T09:52:56Z</time>
      </trkpt>
      <trkpt lat="41.192670" lon="-5.413960">
        <ele>839.421</ele>
        <time>2022-02-26T09:53:36Z</time>
      </trkpt>
      <trkpt lat="41.192840" lon="-5.415040">
        <ele>837.682</ele>
        <time>2022-02-26T09:54:16Z</time>
      </trkpt>
      <trkpt lat="41.192880" lon="-5.415320">
        <ele>836.593</ele>
        <time>2022-02-26T09:54:56Z</time>
      </trkpt>
      <trkpt lat="41.192890" lon="-5.415390">
        <ele>836.225</ele>
        <time>2022-02-26T09:55:36Z</time>
      </trkpt>
      <trkpt lat="41.192910" lon="-5.415470">
        <ele>835.847</ele>
        <time>2022-02-26T09:56:16Z</time>
      </trkpt>
      <trkpt lat="41.192910" lon="-5.415480">
        <ele>835.829</ele>
        <time>2022-02-26T09:56:56Z</time>
      </trkpt>
      <trkpt lat="41.192940" lon="-5.415670">
        <ele>835.021</ele>
        <time>2022-02-26T09:57:36Z</time>
      </trkpt>
      <trkpt lat="41.192950" lon="-5.415790">
        <ele>834.508</ele>
        <time>2022-02-26T09:58:16Z</time>
      </trkpt>
      <trkpt lat="41.193010" lon="-5.416160">
        <ele>834.313</ele>
        <time>2022-02-26T09:58:56Z</time>
      </trkpt>
      <trkpt lat="41.193110" lon="-5.416900">
        <ele>838.590</ele>
        <time>2022-02-26T09:59:36Z</time>
      </trkpt>
      <trkpt lat="41.193220" lon="-5.417590">
        <ele>839.564</ele>
        <time>2022-02-26T10:00:16Z</time>
      </trkpt>
      <trkpt lat="41.193270" lon="-5.417900">
        <ele>837.943</ele>
        <time>2022-02-26T10:00:56Z</time>
      </trkpt>
      <trkpt lat="41.193270" lon="-5.417910">
        <ele>837.952</ele>
        <time>2022-02-26T10:01:36Z</time>
      </trkpt>
      <trkpt lat="41.193340" lon="-5.418350">
        <ele>836.083</ele>
        <time>2022-02-26T10:02:16Z</time>
      </trkpt>
      <trkpt lat="41.193350" lon="-5.418360">
        <ele>836.064</ele>
        <time>2022-02-26T10:02:56Z</time>
      </trkpt>
      <trkpt lat="41.193390" lon="-5.418570">
        <ele>835.836</ele>
        <time>2022-02-26T10:03:36Z</time>
      </trkpt>
      <trkpt lat="41.193430" lon="-5.418730">
        <ele>835.278</ele>
        <time>2022-02-26T10:04:16Z</time>
      </trkpt>
      <trkpt lat="41.193460" lon="-5.418810">
        <ele>834.833</ele>
        <time>2022-02-26T10:04:56Z</time>
      </trkpt>
      <trkpt lat="41.193480" lon="-5.418860">
        <ele>834.626</ele>
        <time>2022-02-26T10:05:36Z</time>
      </trkpt>
      <trkpt lat="41.193510" lon="-5.418960">
        <ele>834.408</ele>
        <time>2022-02-26T10:06:16Z</time>
      </trkpt>
      <trkpt lat="41.193550" lon="-5.419090">
        <ele>834.296</ele>
        <time>2022-02-26T10:06:56Z</time>
      </trkpt>
      <trkpt lat="41.193610" lon="-5.419240">
        <ele>834.073</ele>
        <time>2022-02-26T10:07:36Z</time>
      </trkpt>
      <trkpt lat="41.193680" lon="-5.419400">
        <ele>834.217</ele>
        <time>2022-02-26T10:08:16Z</time>
      </trkpt>
      <trkpt lat="41.193710" lon="-5.419450">
        <ele>834.466</ele>
        <time>2022-02-26T10:08:56Z</time>
      </trkpt>
      <trkpt lat="41.193750" lon="-5.419530">
        <ele>835.085</ele>
        <time>2022-02-26T10:09:36Z</time>
      </trkpt>
      <trkpt lat="41.193830" lon="-5.419690">
        <ele>835.976</ele>
        <time>2022-02-26T10:10:16Z</time>
      </trkpt>
      <trkpt lat="41.193920" lon="-5.419840">
        <ele>836.537</ele>
        <time>2022-02-26T10:10:56Z</time>
      </trkpt>
      <trkpt lat="41.194020" lon="-5.420010">
        <ele>837.089</ele>
        <time>2022-02-26T10:11:36Z</time>
      </trkpt>
      <trkpt lat="41.194100" lon="-5.420120">
        <ele>837.026</ele>
        <time>2022-02-26T10:12:16Z</time>
      </trkpt>
      <trkpt lat="41.194190" lon="-5.420240">
        <ele>837.047</ele>
        <time>2022-02-26T10:12:56Z</time>
      </trkpt>
      <trkpt lat="41.194340" lon="-5.420430">
        <ele>837.011</ele>
        <time>2022-02-26T10:13:36Z</time>
      </trkpt>
      <trkpt lat="41.194500" lon="-5.420610">
        <ele>837.008</ele>
        <time>2022-02-26T10:14:16Z</time>
      </trkpt>
      <trkpt lat="41.194630" lon="-5.420740">
        <ele>837.031</ele>
        <time>2022-02-26T10:14:56Z</time>
      </trkpt>
      <trkpt lat="41.194910" lon="-5.421000">
        <ele>837.688</ele>
        <time>2022-02-26T10:15:36Z</time>
      </trkpt>
      <trkpt lat="41.195230" lon="-5.421280">
        <ele>838.672</ele>
        <time>2022-02-26T10:16:16Z</time>
      </trkpt>
      <trkpt lat="41.195500" lon="-5.421520">
        <ele>839.841</ele>
        <time>2022-02-26T10:16:56Z</time>
      </trkpt>
      <trkpt lat="41.195540" lon="-5.421550">
        <ele>840.110</ele>
        <time>2022-02-26T10:17:36Z</time>
      </trkpt>
      <trkpt lat="41.195750" lon="-5.421770">
        <ele>841.391</ele>
        <time>2022-02-26T10:18:16Z</time>
      </trkpt>
      <trkpt lat="41.195830" lon="-5.421860">
        <ele>841.742</ele>
        <time>2022-02-26T10:18:56Z</time>
      </trkpt>
      <trkpt lat="41.195890" lon="-5.421930">
        <ele>841.744</ele>
        <time>2022-02-26T10:19:36Z</time>
      </trkpt>
      <trkpt lat="41.195960" lon="-5.422050">
        <ele>841.584</ele>
        <time>2022-02-26T10:20:16Z</time>
      </trkpt>
      <trkpt lat="41.196110" lon="-5.422290">
        <ele>841.007</ele>
        <time>2022-02-26T10:20:56Z</time>
      </trkpt>
      <trkpt lat="41.196190" lon="-5.422440">
        <ele>840.717</ele>
        <time>2022-02-26T10:21:36Z</time>
      </trkpt>
      <trkpt lat="41.196260" lon="-5.422580">
        <ele>840.608</ele>
        <time>2022-02-26T10:22:16Z</time>
      </trkpt>
      <trkpt lat="41.196320" lon="-5.422740">
        <ele>840.957</ele>
        <time>2022-02-26T10:22:56Z</time>
      </trkpt>
      <trkpt lat="41.196370" lon="-5.422880">
        <ele>841.474</ele>
        <time>2022-02-26T10:23:36Z</time>
      </trkpt>
      <trkpt lat="41.196410" lon="-5.423030">
        <ele>841.838</ele>
        <time>2022-02-26T10:24:16Z</time>
      </trkpt>
      <trkpt lat="41.196410" lon="-5.423040">
        <ele>841.917</ele>
        <time>2022-02-26T10:24:56Z</time>
      </trkpt>
      <trkpt lat="41.196460" lon="-5.423220">
        <ele>842.346</ele>
        <time>2022-02-26T10:25:36Z</time>
      </trkpt>
      <trkpt lat="41.196470" lon="-5.423260">
        <ele>842.417</ele>
        <time>2022-02-26T10:26:16Z</time>
      </trkpt>
      <trkpt lat="41.196500" lon="-5.423400">
        <ele>842.658</ele>
        <time>2022-02-26T10:26:56Z</time>
      </trkpt>
      <trkpt lat="41.196520" lon="-5.423570">
        <ele>842.580</ele>
        <time>2022-02-26T10:27:36Z</time>
      </trkpt>
      <trkpt lat="41.196540" lon="-5.423730">
        <ele>842.029</ele>
        <time>2022-02-26T10:28:16Z</time>
      </trkpt>
      <trkpt lat="41.196540" lon="-5.423750">
        <ele>842.000</ele>
        <time>2022-02-26T10:28:56Z</time>
      </trkpt>
      <trkpt lat="41.196550" lon="-5.423890">
        <ele>841.420</ele>
        <time>2022-02-26T10:29:36Z</time>
      </trkpt>
      <trkpt lat="41.196550" lon="-5.423960">
        <ele>841.208</ele>
        <time>2022-02-26T10:30:16Z</time>
      </trkpt>
      <trkpt lat="41.196550" lon="-5.424060">
        <ele>840.831</ele>
        <time>2022-02-26T10:30:56Z</time>
      </trkpt>
      <trkpt lat="41.196550" lon="-5.424300">
        <ele>839.968</ele>
        <time>2022-02-26T10:31:36Z</time>
      </trkpt>
      <trkpt lat="41.196530" lon="-5.424670">
        <ele>839.132</ele>
        <time>2022-02-26T10:32:16Z</time>
      </trkpt>
      <trkpt lat="41.196500" lon="-5.425120">
        <ele>840.911</ele>
        <time>2022-02-26T10:32:56Z</time>
      </trkpt>
      <trkpt lat="41.196480" lon="-5.425360">
        <ele>842.340</ele>
        <time>2022-02-26T10:33:36Z</time>
      </trkpt>
      <trkpt lat="41.196450" lon="-5.425920">
        <ele>842.751</ele>
        <time>2022-02-26T10:34:16Z</time>
      </trkpt>
      <trkpt lat="41.196410" lon="-5.426470">
        <ele>841.022</ele>
        <time>2022-02-26T10:34:56Z</time>
      </trkpt>
      <trkpt lat="41.196410" lon="-5.426500">
        <ele>841.034</ele>
        <time>2022-02-26T10:35:36Z</time>
      </trkpt>
      <trkpt lat="41.196400" lon="-5.426790">
        <ele>841.022</ele>
        <time>2022-02-26T10:36:16Z</time>
      </trkpt>
      <trkpt lat="41.196400" lon="-5.427080">
        <ele>841.062</ele>
        <time>2022-02-26T10:36:56Z</time>
      </trkpt>
      <trkpt lat="41.196410" lon="-5.427230">
        <ele>841.008</ele>
        <time>2022-02-26T10:37:36Z</time>
      </trkpt>
      <trkpt lat="41.196430" lon="-5.427420">
        <ele>841.108</ele>
        <time>2022-02-26T10:38:16Z</time>
      </trkpt>
      <trkpt lat="41.196430" lon="-5.427450">
        <ele>841.151</ele>
        <time>2022-02-26T10:38:56Z</time>
      </trkpt>
      <trkpt lat="41.196460" lon="-5.427630">
        <ele>841.328</ele>
        <time>2022-02-26T10:39:36Z</time>
      </trkpt>
      <trkpt lat="41.196470" lon="-5.427690">
        <ele>841.382</ele>
        <time>2022-02-26T10:40:16Z</time>
      </trkpt>
      <trkpt lat="41.196520" lon="-5.427950">
        <ele>841.591</ele>
        <time>2022-02-26T10:40:56Z</time>
      </trkpt>
      <trkpt lat="41.196600" lon="-5.428380">
        <ele>842.990</ele>
        <time>2022-02-26T10:41:36Z</time>
      </trkpt>
      <trkpt lat="41.196610" lon="-5.428410">
        <ele>843.031</ele>
        <time>2022-02-26T10:42:16Z</time>
      </trkpt>
      <trkpt lat="41.196650" lon="-5.428610">
        <ele>843.942</ele>
        <time>2022-02-26T10:42:56Z</time>
      </trkpt>
      <trkpt lat="41.196650" lon="-5.428620">
        <ele>843.994</ele>
        <time>2022-02-26T10:43:36Z</time>
      </trkpt>
      <trkpt lat="41.196700" lon="-5.428840">
        <ele>844.189</ele>
        <time>2022-02-26T10:44:16Z</time>
      </trkpt>
      <trkpt lat="41.196750" lon="-5.429070">
        <ele>844.306</ele>
        <time>2022-02-26T10:44:56Z</time>
      </trkpt>
      <trkpt lat="41.196780" lon="-5.429170">
        <ele>844.426</ele>
        <time>2022-02-26T10:45:36Z</time>
      </trkpt>
      <trkpt lat="41.196830" lon="-5.429350">
        <ele>845.208</ele>
        <time>2022-02-26T10:46:16Z</time>
      </trkpt>
      <trkpt lat="41.196890" lon="-5.429510">
        <ele>845.947</ele>
        <time>2022-02-26T10:46:56Z</time>
      </trkpt>
      <trkpt lat="41.196970" lon="-5.429740">
        <ele>846.084</ele>
        <time>2022-02-26T10:47:36Z</time>
      </trkpt>
      <trkpt lat="41.197100" lon="-5.430060">
        <ele>846.828</ele>
        <time>2022-02-26T10:48:16Z</time>
      </trkpt>
      <trkpt lat="41.197200" lon="-5.430300">
        <ele>848.817</ele>
        <time>2022-02-26T10:48:56Z</time>
      </trkpt>
      <trkpt lat="41.197430" lon="-5.430850">
        <ele>852.656</ele>
        <time>2022-02-26T10:49:36Z</time>
      </trkpt>
      <trkpt lat="41.197640" lon="-5.431330">
        <ele>854.427</ele>
        <time>2022-02-26T10:50:16Z</time>
      </trkpt>
      <trkpt lat="41.197750" lon="-5.431600">
        <ele>854.978</ele>
        <time>2022-02-26T10:50:56Z</time>
      </trkpt>
      <trkpt lat="41.197890" lon="-5.431920">
        <ele>854.240</ele>
        <time>2022-02-26T10:51:36Z</time>
      </trkpt>
      <trkpt lat="41.197930" lon="-5.432020">
        <ele>853.971</ele>
        <time>2022-02-26T10:52:16Z</time>
      </trkpt>
      <trkpt lat="41.198100" lon="-5.432430">
        <ele>852.741</ele>
        <time>2022-02-26T10:52:56Z</time>
      </trkpt>
      <trkpt lat="41.198170" lon="-5.432600">
        <ele>852.515</ele>
        <time>2022-02-26T10:53:36Z</time>
      </trkpt>
      <trkpt lat="41.198370" lon="-5.433030">
        <ele>852.808</ele>
        <time>2022-02-26T10:54:16Z</time>
      </trkpt>
      <trkpt lat="41.198540" lon="-5.433410">
        <ele>853.786</ele>
        <time>2022-02-26T10:54:56Z</time>
      </trkpt>
      <trkpt lat="41.198560" lon="-5.433450">
        <ele>853.983</ele>
        <time>2022-02-26T10:55:36Z</time>
      </trkpt>
      <trkpt lat="41.198650" lon="-5.433640">
        <ele>855.387</ele>
        <time>2022-02-26T10:56:16Z</time>
      </trkpt>
      <trkpt lat="41.198810" lon="-5.433970">
        <ele>858.136</ele>
        <time>2022-02-26T10:56:56Z</time>
      </trkpt>
      <trkpt lat="41.198980" lon="-5.434310">
        <ele>858.865</ele>
        <time>2022-02-26T10:57:36Z</time>
      </trkpt>
      <trkpt lat="41.199030" lon="-5.434420">
        <ele>858.546</ele>
        <time>2022-02-26T10:58:16Z</time>
      </trkpt>
      <trkpt lat="41.199080" lon="-5.434550">
        <ele>857.817</ele>
        <time>2022-02-26T10:58:56Z</time>
      </trkpt>
      <trkpt lat="41.199140" lon="-5.434700">
        <ele>856.479</ele>
        <time>2022-02-26T10:59:36Z</time>
      </trkpt>
      <trkpt lat="41.199180" lon="-5.434810">
        <ele>855.987</ele>
        <time>2022-02-26T11:00:16Z</time>
      </trkpt>
      <trkpt lat="41.199230" lon="-5.434960">
        <ele>855.542</ele>
        <time>2022-02-26T11:00:56Z</time>
      </trkpt>
      <trkpt lat="41.199260" lon="-5.435060">
        <ele>855.526</ele>
        <time>2022-02-26T11:01:36Z</time>
      </trkpt>
      <trkpt lat="41.199320" lon="-5.435240">
        <ele>855.308</ele>
        <time>2022-02-26T11:02:16Z</time>
      </trkpt>
      <trkpt lat="41.199430" lon="-5.435640">
        <ele>850.987</ele>
        <time>2022-02-26T11:02:56Z</time>
      </trkpt>
      <trkpt lat="41.199570" lon="-5.436140">
        <ele>849.664</ele>
        <time>2022-02-26T11:03:36Z</time>
      </trkpt>
      <trkpt lat="41.199630" lon="-5.436370">
        <ele>850.048</ele>
        <time>2022-02-26T11:04:16Z</time>
      </trkpt>
      <trkpt lat="41.199640" lon="-5.436410">
        <ele>850.077</ele>
        <time>2022-02-26T11:04:56Z</time>
      </trkpt>
      <trkpt lat="41.199690" lon="-5.436550">
        <ele>850.026</ele>
        <time>2022-02-26T11:05:36Z</time>
      </trkpt>
      <trkpt lat="41.199740" lon="-5.436740">
        <ele>849.947</ele>
        <time>2022-02-26T11:06:16Z</time>
      </trkpt>
      <trkpt lat="41.199780" lon="-5.436850">
        <ele>849.758</ele>
        <time>2022-02-26T11:06:56Z</time>
      </trkpt>
      <trkpt lat="41.199820" lon="-5.436960">
        <ele>849.340</ele>
        <time>2022-02-26T11:07:36Z</time>
      </trkpt>
      <trkpt lat="41.199880" lon="-5.437110">
        <ele>848.939</ele>
        <time>2022-02-26T11:08:16Z</time>
      </trkpt>
      <trkpt lat="41.199930" lon="-5.437210">
        <ele>849.001</ele>
        <time>2022-02-26T11:08:56Z</time>
      </trkpt>
      <trkpt lat="41.199970" lon="-5.437280">
        <ele>849.021</ele>
        <time>2022-02-26T11:09:36Z</time>
      </trkpt>
      <trkpt lat="41.200060" lon="-5.437440">
        <ele>848.608</ele>
        <time>2022-02-26T11:10:16Z</time>
      </trkpt>
      <trkpt lat="41.200230" lon="-5.437710">
        <ele>847.242</ele>
        <time>2022-02-26T11:10:56Z</time>
      </trkpt>
      <trkpt lat="41.200460" lon="-5.438090">
        <ele>845.239</ele>
        <time>2022-02-26T11:11:36Z</time>
      </trkpt>
      <trkpt lat="41.200710" lon="-5.438490">
        <ele>843.223</ele>
        <time>2022-02-26T11:12:16Z</time>
      </trkpt>
      <trkpt lat="41.200760" lon="-5.438570">
        <ele>843.012</ele>
        <time>2022-02-26T11:12:56Z</time>
      </trkpt>
      <trkpt lat="41.200840" lon="-5.438700">
        <ele>842.731</ele>
        <time>2022-02-26T11:13:36Z</time>
      </trkpt>
      <trkpt lat="41.200900" lon="-5.438830">
        <ele>842.042</ele>
        <time>2022-02-26T11:14:16Z</time>
      </trkpt>
      <trkpt lat="41.201020" lon="-5.439080">
        <ele>840.613</ele>
        <time>2022-02-26T11:14:56Z</time>
      </trkpt>
      <trkpt lat="41.201120" lon="-5.439360">
        <ele>839.355</ele>
        <time>2022-02-26T11:15:36Z</time>
      </trkpt>
      <trkpt lat="41.201180" lon="-5.439540">
        <ele>838.778</ele>
        <time>2022-02-26T11:16:16Z</time>
      </trkpt>
      <trkpt lat="41.201200" lon="-5.439610">
        <ele>838.533</ele>
        <time>2022-02-26T11:16:56Z</time>
      </trkpt>
      <trkpt lat="41.201270" lon="-5.439830">
        <ele>838.126</ele>
        <time>2022-02-26T11:17:36Z</time>
      </trkpt>
      <trkpt lat="41.201350" lon="-5.440050">
        <ele>838.308</ele>
        <time>2022-02-26T11:18:16Z</time>
      </trkpt>
      <trkpt lat="41.201480" lon="-5.440460">
        <ele>839.236</ele>
        <time>2022-02-26T11:18:56Z</time>
      </trkpt>
      <trkpt lat="41.201640" lon="-5.440920">
        <ele>840.553</ele>
        <time>2022-02-26T11:19:36Z</time>
      </trkpt>
      <trkpt lat="41.201720" lon="-5.441150">
        <ele>840.567</ele>
        <time>2022-02-26T11:20:16Z</time>
      </trkpt>
      <trkpt lat="41.201850" lon="-5.441580">
        <ele>840.556</ele>
        <time>2022-02-26T11:20:56Z</time>
      </trkpt>
      <trkpt lat="41.201870" lon="-5.441640">
        <ele>840.745</ele>
        <time>2022-02-26T11:21:36Z</time>
      </trkpt>
      <trkpt lat="41.202070" lon="-5.442230">
        <ele>842.926</ele>
        <time>2022-02-26T11:22:16Z</time>
      </trkpt>
      <trkpt lat="41.202250" lon="-5.442810">
        <ele>844.297</ele>
        <time>2022-02-26T11:22:56Z</time>
      </trkpt>
      <trkpt lat="41.202280" lon="-5.442900">
        <ele>844.659</ele>
        <time>2022-02-26T11:23:36Z</time>
      </trkpt>
      <trkpt lat="41.202350" lon="-5.443120">
        <ele>845.195</ele>
        <time>2022-02-26T11:24:16Z</time>
      </trkpt>
      <trkpt lat="41.202380" lon="-5.443200">
        <ele>845.349</ele>
        <time>2022-02-26T11:24:56Z</time>
      </trkpt>
      <trkpt lat="41.202500" lon="-5.443540">
        <ele>846.023</ele>
        <time>2022-02-26T11:25:36Z</time>
      </trkpt>
      <trkpt lat="41.202570" lon="-5.443770">
        <ele>846.208</ele>
        <time>2022-02-26T11:26:16Z</time>
      </trkpt>
      <trkpt lat="41.202650" lon="-5.443990">
        <ele>845.978</ele>
        <time>2022-02-26T11:26:56Z</time>
      </trkpt>
      <trkpt lat="41.202690" lon="-5.444130">
        <ele>845.695</ele>
        <time>2022-02-26T11:27:36Z</time>
      </trkpt>
      <trkpt lat="41.202720" lon="-5.444210">
        <ele>845.419</ele>
        <time>2022-02-26T11:28:16Z</time>
      </trkpt>
      <trkpt lat="41.202790" lon="-5.444430">
        <ele>844.968</ele>
        <time>2022-02-26T11:28:56Z</time>
      </trkpt>
      <trkpt lat="41.202860" lon="-5.444660">
        <ele>844.487</ele>
        <time>2022-02-26T11:29:36Z</time>
      </trkpt>
      <trkpt lat="41.203020" lon="-5.445140">
        <ele>843.848</ele>
        <time>2022-02-26T11:30:16Z</time>
      </trkpt>
      <trkpt lat="41.203100" lon="-5.445400">
        <ele>844.319</ele>
        <time>2022-02-26T11:30:56Z</time>
      </trkpt>
      <trkpt lat="41.203180" lon="-5.445650">
        <ele>844.741</ele>
        <time>2022-02-26T11:31:36Z</time>
      </trkpt>
      <trkpt lat="41.203210" lon="-5.445750">
        <ele>844.846</ele>
        <time>2022-02-26T11:32:16Z</time>
      </trkpt>
      <trkpt lat="41.203260" lon="-5.445940">
        <ele>844.688</ele>
        <time>2022-02-26T11:32:56Z</time>
      </trkpt>
      <trkpt lat="41.203310" lon="-5.446130">
        <ele>843.916</ele>
        <time>2022-02-26T11:33:36Z</time>
      </trkpt>
      <trkpt lat="41.203390" lon="-5.446430">
        <ele>843.308</ele>
        <time>2022-02-26T11:34:16Z</time>
      </trkpt>
      <trkpt lat="41.203490" lon="-5.446840">
        <ele>844.553</ele>
        <time>2022-02-26T11:34:56Z</time>
      </trkpt>
      <trkpt lat="41.203500" lon="-5.446900">
        <ele>844.730</ele>
        <time>2022-02-26T11:35:36Z</time>
      </trkpt>
      <trkpt lat="41.203550" lon="-5.447110">
        <ele>845.084</ele>
        <time>2022-02-26T11:36:16Z</time>
      </trkpt>
      <trkpt lat="41.203600" lon="-5.447340">
        <ele>845.573</ele>
        <time>2022-02-26T11:36:56Z</time>
      </trkpt>
      <trkpt lat="41.203620" lon="-5.447420">
        <ele>845.792</ele>
        <time>2022-02-26T11:37:36Z</time>
      </trkpt>
      <trkpt lat="41.203720" lon="-5.447840">
        <ele>847.143</ele>
        <time>2022-02-26T11:38:16Z</time>
      </trkpt>
      <trkpt lat="41.203750" lon="-5.447950">
        <ele>847.394</ele>
        <time>2022-02-26T11:38:56Z</time>
      </trkpt>
      <trkpt lat="41.203800" lon="-5.448150">
        <ele>848.046</ele>
        <time>2022-02-26T11:39:36Z</time>
      </trkpt>
      <trkpt lat="41.203940" lon="-5.448800">
        <ele>850.681</ele>
        <time>2022-02-26T11:40:16Z</time>
      </trkpt>
      <trkpt lat="41.204080" lon="-5.449410">
        <ele>850.761</ele>
        <time>2022-02-26T11:40:56Z</time>
      </trkpt>
      <trkpt lat="41.204170" lon="-5.449780">
        <ele>851.017</ele>
        <time>2022-02-26T11:41:36Z</time>
      </trkpt>
      <trkpt lat="41.204230" lon="-5.450050">
        <ele>851.408</ele>
        <time>2022-02-26T11:42:16Z</time>
      </trkpt>
      <trkpt lat="41.204290" lon="-5.450290">
        <ele>851.437</ele>
        <time>2022-02-26T11:42:56Z</time>
      </trkpt>
      <trkpt lat="41.204370" lon="-5.450600">
        <ele>851.794</ele>
        <time>2022-02-26T11:43:36Z</time>
      </trkpt>
      <trkpt lat="41.204420" lon="-5.450830">
        <ele>851.958</ele>
        <time>2022-02-26T11:44:16Z</time>
      </trkpt>
      <trkpt lat="41.204450" lon="-5.450910">
        <ele>852.367</ele>
        <time>2022-02-26T11:44:56Z</time>
      </trkpt>
      <trkpt lat="41.204520" lon="-5.451130">
        <ele>853.346</ele>
        <time>2022-02-26T11:45:36Z</time>
      </trkpt>
      <trkpt lat="41.204590" lon="-5.451360">
        <ele>854.017</ele>
        <time>2022-02-26T11:46:16Z</time>
      </trkpt>
      <trkpt lat="41.204600" lon="-5.451390">
        <ele>854.058</ele>
        <time>2022-02-26T11:46:56Z</time>
      </trkpt>
      <trkpt lat="41.204660" lon="-5.451570">
        <ele>853.590</ele>
        <time>2022-02-26T11:47:36Z</time>
      </trkpt>
      <trkpt lat="41.204770" lon="-5.451890">
        <ele>851.996</ele>
        <time>2022-02-26T11:48:16Z</time>
      </trkpt>
      <trkpt lat="41.204980" lon="-5.452510">
        <ele>851.031</ele>
        <time>2022-02-26T11:48:56Z</time>
      </trkpt>
      <trkpt lat="41.205030" lon="-5.452660">
        <ele>850.924</ele>
        <time>2022-02-26T11:49:36Z</time>
      </trkpt>
      <trkpt lat="41.205060" lon="-5.452770">
        <ele>850.808</ele>
        <time>2022-02-26T11:50:16Z</time>
      </trkpt>
      <trkpt lat="41.205180" lon="-5.453110">
        <ele>850.278</ele>
        <time>2022-02-26T11:50:56Z</time>
      </trkpt>
      <trkpt lat="41.205280" lon="-5.453390">
        <ele>849.845</ele>
        <time>2022-02-26T11:51:36Z</time>
      </trkpt>
      <trkpt lat="41.205370" lon="-5.453630">
        <ele>848.789</ele>
        <time>2022-02-26T11:52:16Z</time>
      </trkpt>
      <trkpt lat="41.205390" lon="-5.453670">
        <ele>848.628</ele>
        <time>2022-02-26T11:52:56Z</time>
      </trkpt>
      <trkpt lat="41.205410" lon="-5.453700">
        <ele>848.597</ele>
        <time>2022-02-26T11:53:36Z</time>
      </trkpt>
      <trkpt lat="41.205430" lon="-5.453750">
        <ele>848.518</ele>
        <time>2022-02-26T11:54:16Z</time>
      </trkpt>
      <trkpt lat="41.205520" lon="-5.453970">
        <ele>848.289</ele>
        <time>2022-02-26T11:54:56Z</time>
      </trkpt>
      <trkpt lat="41.205630" lon="-5.454240">
        <ele>848.551</ele>
        <time>2022-02-26T11:55:36Z</time>
      </trkpt>
      <trkpt lat="41.205640" lon="-5.454250">
        <ele>848.642</ele>
        <time>2022-02-26T11:56:16Z</time>
      </trkpt>
      <trkpt lat="41.205690" lon="-5.454350">
        <ele>849.122</ele>
        <time>2022-02-26T11:56:56Z</time>
      </trkpt>
      <trkpt lat="41.205690" lon="-5.454360">
        <ele>849.214</ele>
        <time>2022-02-26T11:57:36Z</time>
      </trkpt>
      <trkpt lat="41.205760" lon="-5.454480">
        <ele>849.908</ele>
        <time>2022-02-26T11:58:16Z</time>
      </trkpt>
      <trkpt lat="41.205830" lon="-5.454620">
        <ele>850.683</ele>
        <time>2022-02-26T11:58:56Z</time>
      </trkpt>
      <trkpt lat="41.205835" lon="-5.454616">
        <ele>850.650</ele>
        <time>2022-02-26T11:59:36Z</time>
      </trkpt>
      <trkpt lat="41.205840" lon="-5.454690">
        <ele>850.924</ele>
        <time>2022-02-26T12:00:16Z</time>
      </trkpt>
      <trkpt lat="41.205840" lon="-5.454730">
        <ele>851.073</ele>
        <time>2022-02-26T12:00:56Z</time>
      </trkpt>
      <trkpt lat="41.205790" lon="-5.455010">
        <ele>850.982</ele>
        <time>2022-02-26T12:01:36Z</time>
      </trkpt>
      <trkpt lat="41.205740" lon="-5.455180">
        <ele>849.963</ele>
        <time>2022-02-26T12:02:16Z</time>
      </trkpt>
      <trkpt lat="41.205730" lon="-5.455240">
        <ele>849.664</ele>
        <time>2022-02-26T12:02:56Z</time>
      </trkpt>
      <trkpt lat="41.205690" lon="-5.455410">
        <ele>848.856</ele>
        <time>2022-02-26T12:03:36Z</time>
      </trkpt>
      <trkpt lat="41.205640" lon="-5.455610">
        <ele>848.746</ele>
        <time>2022-02-26T12:04:16Z</time>
      </trkpt>
      <trkpt lat="41.205590" lon="-5.455770">
        <ele>850.188</ele>
        <time>2022-02-26T12:04:56Z</time>
      </trkpt>
      <trkpt lat="41.205550" lon="-5.455860">
        <ele>851.316</ele>
        <time>2022-02-26T12:05:36Z</time>
      </trkpt>
      <trkpt lat="41.205490" lon="-5.455960">
        <ele>852.808</ele>
        <time>2022-02-26T12:06:16Z</time>
      </trkpt>
      <trkpt lat="41.205450" lon="-5.456030">
        <ele>853.973</ele>
        <time>2022-02-26T12:06:56Z</time>
      </trkpt>
      <trkpt lat="41.205450" lon="-5.456040">
        <ele>854.020</ele>
        <time>2022-02-26T12:07:36Z</time>
      </trkpt>
      <trkpt lat="41.205360" lon="-5.456160">
        <ele>855.554</ele>
        <time>2022-02-26T12:08:16Z</time>
      </trkpt>
      <trkpt lat="41.205210" lon="-5.456400">
        <ele>855.773</ele>
        <time>2022-02-26T12:08:56Z</time>
      </trkpt>
      <trkpt lat="41.205140" lon="-5.456530">
        <ele>854.792</ele>
        <time>2022-02-26T12:09:36Z</time>
      </trkpt>
      <trkpt lat="41.205110" lon="-5.456590">
        <ele>854.483</ele>
        <time>2022-02-26T12:10:16Z</time>
      </trkpt>
      <trkpt lat="41.205090" lon="-5.456620">
        <ele>854.214</ele>
        <time>2022-02-26T12:10:56Z</time>
      </trkpt>
      <trkpt lat="41.205030" lon="-5.456750">
        <ele>853.626</ele>
        <time>2022-02-26T12:11:36Z</time>
      </trkpt>
      <trkpt lat="41.205010" lon="-5.456820">
        <ele>853.418</ele>
        <time>2022-02-26T12:12:16Z</time>
      </trkpt>
      <trkpt lat="41.204990" lon="-5.456870">
        <ele>853.498</ele>
        <time>2022-02-26T12:12:56Z</time>
      </trkpt>
      <trkpt lat="41.204990" lon="-5.456880">
        <ele>853.417</ele>
        <time>2022-02-26T12:13:36Z</time>
      </trkpt>
      <trkpt lat="41.204980" lon="-5.456960">
        <ele>853.208</ele>
        <time>2022-02-26T12:14:16Z</time>
      </trkpt>
      <trkpt lat="41.204970" lon="-5.457020">
        <ele>853.260</ele>
        <time>2022-02-26T12:14:56Z</time>
      </trkpt>
      <trkpt lat="41.204970" lon="-5.457110">
        <ele>852.947</ele>
        <time>2022-02-26T12:15:36Z</time>
      </trkpt>
      <trkpt lat="41.204970" lon="-5.457180">
        <ele>852.771</ele>
        <time>2022-02-26T12:16:16Z</time>
      </trkpt>
      <trkpt lat="41.204980" lon="-5.457260">
        <ele>852.480</ele>
        <time>2022-02-26T12:16:56Z</time>
      </trkpt>
      <trkpt lat="41.204990" lon="-5.457340">
        <ele>852.299</ele>
        <time>2022-02-26T12:17:36Z</time>
      </trkpt>
      <trkpt lat="41.204990" lon="-5.457350">
        <ele>852.210</ele>
        <time>2022-02-26T12:18:16Z</time>
      </trkpt>
      <trkpt lat="41.205020" lon="-5.457510">
        <ele>851.761</ele>
        <time>2022-02-26T12:18:56Z</time>
      </trkpt>
      <trkpt lat="41.205070" lon="-5.457690">
        <ele>850.363</ele>
        <time>2022-02-26T12:19:36Z</time>
      </trkpt>
      <trkpt lat="41.205210" lon="-5.458290">
        <ele>847.156</ele>
        <time>2022-02-26T12:20:16Z</time>
      </trkpt>
      <trkpt lat="41.205240" lon="-5.458420">
        <ele>845.959</ele>
        <time>2022-02-26T12:20:56Z</time>
      </trkpt>
      <trkpt lat="41.205250" lon="-5.458500">
        <ele>845.214</ele>
        <time>2022-02-26T12:21:36Z</time>
      </trkpt>
      <trkpt lat="41.205260" lon="-5.458550">
        <ele>844.708</ele>
        <time>2022-02-26T12:22:16Z</time>
      </trkpt>
      <trkpt lat="41.205280" lon="-5.458650">
        <ele>843.724</ele>
        <time>2022-02-26T12:22:56Z</time>
      </trkpt>
      <trkpt lat="41.205280" lon="-5.458690">
        <ele>843.471</ele>
        <time>2022-02-26T12:23:36Z</time>
      </trkpt>
      <trkpt lat="41.205270" lon="-5.458760">
        <ele>843.025</ele>
        <time>2022-02-26T12:24:16Z</time>
      </trkpt>
      <trkpt lat="41.205270" lon="-5.458790">
        <ele>842.854</ele>
        <time>2022-02-26T12:24:56Z</time>
      </trkpt>
      <trkpt lat="41.205250" lon="-5.458840">
        <ele>842.733</ele>
        <time>2022-02-26T12:25:36Z</time>
      </trkpt>
      <trkpt lat="41.205210" lon="-5.458920">
        <ele>842.314</ele>
        <time>2022-02-26T12:26:16Z</time>
      </trkpt>
      <trkpt lat="41.205100" lon="-5.459110">
        <ele>840.795</ele>
        <time>2022-02-26T12:26:56Z</time>
      </trkpt>
      <trkpt lat="41.205030" lon="-5.459210">
        <ele>839.967</ele>
        <time>2022-02-26T12:27:36Z</time>
      </trkpt>
      <trkpt lat="41.204940" lon="-5.459310">
        <ele>839.013</ele>
        <time>2022-02-26T12:28:16Z</time>
      </trkpt>
      <trkpt lat="41.204870" lon="-5.459380">
        <ele>838.543</ele>
        <time>2022-02-26T12:28:56Z</time>
      </trkpt>
      <trkpt lat="41.204750" lon="-5.459480">
        <ele>838.107</ele>
        <time>2022-02-26T12:29:36Z</time>
      </trkpt>
      <trkpt lat="41.204520" lon="-5.459650">
        <ele>838.008</ele>
        <time>2022-02-26T12:30:16Z</time>
      </trkpt>
      <trkpt lat="41.204440" lon="-5.459700">
        <ele>838.390</ele>
        <time>2022-02-26T12:30:56Z</time>
      </trkpt>
      <trkpt lat="41.204360" lon="-5.459770">
        <ele>837.477</ele>
        <time>2022-02-26T12:31:36Z</time>
      </trkpt>
      <trkpt lat="41.204290" lon="-5.459840">
        <ele>836.831</ele>
        <time>2022-02-26T12:32:16Z</time>
      </trkpt>
      <trkpt lat="41.204220" lon="-5.459910">
        <ele>836.490</ele>
        <time>2022-02-26T12:32:56Z</time>
      </trkpt>
      <trkpt lat="41.204190" lon="-5.459940">
        <ele>836.339</ele>
        <time>2022-02-26T12:33:36Z</time>
      </trkpt>
      <trkpt lat="41.204150" lon="-5.459990">
        <ele>836.220</ele>
        <time>2022-02-26T12:34:16Z</time>
      </trkpt>
      <trkpt lat="41.204140" lon="-5.460000">
        <ele>836.211</ele>
        <time>2022-02-26T12:34:56Z</time>
      </trkpt>
      <trkpt lat="41.204130" lon="-5.460020">
        <ele>836.353</ele>
        <time>2022-02-26T12:35:36Z</time>
      </trkpt>
      <trkpt lat="41.204100" lon="-5.460080">
        <ele>836.578</ele>
        <time>2022-02-26T12:36:16Z</time>
      </trkpt>
      <trkpt lat="41.204070" lon="-5.460160">
        <ele>836.733</ele>
        <time>2022-02-26T12:36:56Z</time>
      </trkpt>
      <trkpt lat="41.204040" lon="-5.460240">
        <ele>836.926</ele>
        <time>2022-02-26T12:37:36Z</time>
      </trkpt>
      <trkpt lat="41.203990" lon="-5.460450">
        <ele>836.708</ele>
        <time>2022-02-26T12:38:16Z</time>
      </trkpt>
      <trkpt lat="41.203950" lon="-5.460680">
        <ele>835.796</ele>
        <time>2022-02-26T12:38:56Z</time>
      </trkpt>
      <trkpt lat="41.203910" lon="-5.460920">
        <ele>833.663</ele>
        <time>2022-02-26T12:39:36Z</time>
      </trkpt>
      <trkpt lat="41.203890" lon="-5.461140">
        <ele>830.837</ele>
        <time>2022-02-26T12:40:16Z</time>
      </trkpt>
      <trkpt lat="41.203880" lon="-5.461180">
        <ele>830.636</ele>
        <time>2022-02-26T12:40:56Z</time>
      </trkpt>
      <trkpt lat="41.203870" lon="-5.461370">
        <ele>829.355</ele>
        <time>2022-02-26T12:41:36Z</time>
      </trkpt>
      <trkpt lat="41.203860" lon="-5.461440">
        <ele>829.346</ele>
        <time>2022-02-26T12:42:16Z</time>
      </trkpt>
      <trkpt lat="41.203860" lon="-5.461590">
        <ele>829.237</ele>
        <time>2022-02-26T12:42:56Z</time>
      </trkpt>
      <trkpt lat="41.203860" lon="-5.461610">
        <ele>829.169</ele>
        <time>2022-02-26T12:43:36Z</time>
      </trkpt>
      <trkpt lat="41.203870" lon="-5.461720">
        <ele>828.787</ele>
        <time>2022-02-26T12:44:16Z</time>
      </trkpt>
      <trkpt lat="41.203890" lon="-5.461850">
        <ele>827.742</ele>
        <time>2022-02-26T12:44:56Z</time>
      </trkpt>
      <trkpt lat="41.203900" lon="-5.461940">
        <ele>827.126</ele>
        <time>2022-02-26T12:45:36Z</time>
      </trkpt>
      <trkpt lat="41.203910" lon="-5.462030">
        <ele>826.708</ele>
        <time>2022-02-26T12:46:16Z</time>
      </trkpt>
      <trkpt lat="41.203920" lon="-5.462080">
        <ele>826.677</ele>
        <time>2022-02-26T12:46:56Z</time>
      </trkpt>
      <trkpt lat="41.203950" lon="-5.462190">
        <ele>826.134</ele>
        <time>2022-02-26T12:47:36Z</time>
      </trkpt>
      <trkpt lat="41.203980" lon="-5.462320">
        <ele>825.648</ele>
        <time>2022-02-26T12:48:16Z</time>
      </trkpt>
      <trkpt lat="41.204010" lon="-5.462420">
        <ele>825.317</ele>
        <time>2022-02-26T12:48:56Z</time>
      </trkpt>
      <trkpt lat="41.204040" lon="-5.462510">
        <ele>824.936</ele>
        <time>2022-02-26T12:49:36Z</time>
      </trkpt>
      <trkpt lat="41.204090" lon="-5.462680">
        <ele>823.437</ele>
        <time>2022-02-26T12:50:16Z</time>
      </trkpt>
      <trkpt lat="41.204120" lon="-5.462740">
        <ele>822.738</ele>
        <time>2022-02-26T12:50:56Z</time>
      </trkpt>
      <trkpt lat="41.204140" lon="-5.462780">
        <ele>822.210</ele>
        <time>2022-02-26T12:51:36Z</time>
      </trkpt>
      <trkpt lat="41.204170" lon="-5.462840">
        <ele>821.832</ele>
        <time>2022-02-26T12:52:16Z</time>
      </trkpt>
      <trkpt lat="41.204170" lon="-5.462842">
        <ele>821.892</ele>
        <time>2022-02-26T12:52:56Z</time>
      </trkpt>
      <trkpt lat="41.204200" lon="-5.462860">
        <ele>821.811</ele>
        <time>2022-02-26T12:53:36Z</time>
      </trkpt>
      <trkpt lat="41.204230" lon="-5.462880">
        <ele>821.808</ele>
        <time>2022-02-26T12:54:16Z</time>
      </trkpt>
      <trkpt lat="41.204260" lon="-5.462890">
        <ele>821.892</ele>
        <time>2022-02-26T12:54:56Z</time>
      </trkpt>
      <trkpt lat="41.204280" lon="-5.462900">
        <ele>821.879</ele>
        <time>2022-02-26T12:55:36Z</time>
      </trkpt>
      <trkpt lat="41.204310" lon="-5.462900">
        <ele>821.893</ele>
        <time>2022-02-26T12:56:16Z</time>
      </trkpt>
      <trkpt lat="41.204350" lon="-5.462900">
        <ele>821.992</ele>
        <time>2022-02-26T12:56:56Z</time>
      </trkpt>
      <trkpt lat="41.204380" lon="-5.462900">
        <ele>822.061</ele>
        <time>2022-02-26T12:57:36Z</time>
      </trkpt>
      <trkpt lat="41.204590" lon="-5.462860">
        <ele>822.022</ele>
        <time>2022-02-26T12:58:16Z</time>
      </trkpt>
      <trkpt lat="41.204680" lon="-5.462860">
        <ele>821.873</ele>
        <time>2022-02-26T12:58:56Z</time>
      </trkpt>
      <trkpt lat="41.204720" lon="-5.462860">
        <ele>821.755</ele>
        <time>2022-02-26T12:59:36Z</time>
      </trkpt>
      <trkpt lat="41.204740" lon="-5.462860">
        <ele>821.765</ele>
        <time>2022-02-26T13:00:16Z</time>
      </trkpt>
      <trkpt lat="41.204760" lon="-5.462870">
        <ele>821.668</ele>
        <time>2022-02-26T13:00:56Z</time>
      </trkpt>
      <trkpt lat="41.204790" lon="-5.462890">
        <ele>821.514</ele>
        <time>2022-02-26T13:01:36Z</time>
      </trkpt>
      <trkpt lat="41.204810" lon="-5.462910">
        <ele>821.408</ele>
        <time>2022-02-26T13:02:16Z</time>
      </trkpt>
      <trkpt lat="41.204860" lon="-5.462960">
        <ele>821.265</ele>
        <time>2022-02-26T13:02:56Z</time>
      </trkpt>
      <trkpt lat="41.204930" lon="-5.463040">
        <ele>821.092</ele>
        <time>2022-02-26T13:03:36Z</time>
      </trkpt>
      <trkpt lat="41.205090" lon="-5.463230">
        <ele>820.136</ele>
        <time>2022-02-26T13:04:16Z</time>
      </trkpt>
      <trkpt lat="41.205260" lon="-5.463440">
        <ele>820.875</ele>
        <time>2022-02-26T13:04:56Z</time>
      </trkpt>
      <trkpt lat="41.205350" lon="-5.463550">
        <ele>821.644</ele>
        <time>2022-02-26T13:05:36Z</time>
      </trkpt>
      <trkpt lat="41.205420" lon="-5.463630">
        <ele>822.145</ele>
        <time>2022-02-26T13:06:16Z</time>
      </trkpt>
      <trkpt lat="41.205440" lon="-5.463630">
        <ele>822.136</ele>
        <time>2022-02-26T13:06:56Z</time>
      </trkpt>
      <trkpt lat="41.205490" lon="-5.463650">
        <ele>822.368</ele>
        <time>2022-02-26T13:07:36Z</time>
      </trkpt>
      <trkpt lat="41.205520" lon="-5.463650">
        <ele>822.352</ele>
        <time>2022-02-26T13:08:16Z</time>
      </trkpt>
      <trkpt lat="41.205580" lon="-5.463650">
        <ele>822.453</ele>
        <time>2022-02-26T13:08:56Z</time>
      </trkpt>
      <trkpt lat="41.205730" lon="-5.463650">
        <ele>823.008</ele>
        <time>2022-02-26T13:09:36Z</time>
      </trkpt>
      <trkpt lat="41.205770" lon="-5.463680">
        <ele>823.508</ele>
        <time>2022-02-26T13:10:16Z</time>
      </trkpt>
      <trkpt lat="41.205790" lon="-5.463700">
        <ele>823.814</ele>
        <time>2022-02-26T13:10:56Z</time>
      </trkpt>
      <trkpt lat="41.205810" lon="-5.463720">
        <ele>824.141</ele>
        <time>2022-02-26T13:11:36Z</time>
      </trkpt>
      <trkpt lat="41.205850" lon="-5.463760">
        <ele>824.725</ele>
        <time>2022-02-26T13:12:16Z</time>
      </trkpt>
      <trkpt lat="41.205880" lon="-5.463770">
        <ele>825.164</ele>
        <time>2022-02-26T13:12:56Z</time>
      </trkpt>
      <trkpt lat="41.205890" lon="-5.463770">
        <ele>825.113</ele>
        <time>2022-02-26T13:13:36Z</time>
      </trkpt>
      <trkpt lat="41.205900" lon="-5.463780">
        <ele>825.314</ele>
        <time>2022-02-26T13:14:16Z</time>
      </trkpt>
      <trkpt lat="41.205910" lon="-5.463780">
        <ele>825.465</ele>
        <time>2022-02-26T13:14:56Z</time>
      </trkpt>
      <trkpt lat="41.205940" lon="-5.463870">
        <ele>826.647</ele>
        <time>2022-02-26T13:15:36Z</time>
      </trkpt>
      <trkpt lat="41.205960" lon="-5.463920">
        <ele>827.132</ele>
        <time>2022-02-26T13:16:16Z</time>
      </trkpt>
      <trkpt lat="41.206040" lon="-5.464060">
        <ele>828.492</ele>
        <time>2022-02-26T13:16:56Z</time>
      </trkpt>
      <trkpt lat="41.206070" lon="-5.464110">
        <ele>828.711</ele>
        <time>2022-02-26T13:17:36Z</time>
      </trkpt>
      <trkpt lat="41.206100" lon="-5.464170">
        <ele>829.008</ele>
        <time>2022-02-26T13:18:16Z</time>
      </trkpt>
      <trkpt lat="41.206110" lon="-5.464210">
        <ele>828.852</ele>
        <time>2022-02-26T13:18:56Z</time>
      </trkpt>
      <trkpt lat="41.206130" lon="-5.464240">
        <ele>828.649</ele>
        <time>2022-02-26T13:19:36Z</time>
      </trkpt>
      <trkpt lat="41.206130" lon="-5.464270">
        <ele>828.573</ele>
        <time>2022-02-26T13:20:16Z</time>
      </trkpt>
      <trkpt lat="41.206150" lon="-5.464310">
        <ele>828.272</ele>
        <time>2022-02-26T13:20:56Z</time>
      </trkpt>
      <trkpt lat="41.206146" lon="-5.464311">
        <ele>828.251</ele>
        <time>2022-02-26T13:21:36Z</time>
      </trkpt>
      <trkpt lat="41.206150" lon="-5.464350">
        <ele>828.072</ele>
        <time>2022-02-26T13:22:16Z</time>
      </trkpt>
      <trkpt lat="41.206140" lon="-5.464380">
        <ele>828.063</ele>
        <time>2022-02-26T13:22:56Z</time>
      </trkpt>
      <trkpt lat="41.206130" lon="-5.464420">
        <ele>827.995</ele>
        <time>2022-02-26T13:23:36Z</time>
      </trkpt>
      <trkpt lat="41.206120" lon="-5.464470">
        <ele>827.832</ele>
        <time>2022-02-26T13:24:16Z</time>
      </trkpt>
      <trkpt lat="41.206080" lon="-5.464570">
        <ele>827.792</ele>
        <time>2022-02-26T13:24:56Z</time>
      </trkpt>
      <trkpt lat="41.206000" lon="-5.464710">
        <ele>827.411</ele>
        <time>2022-02-26T13:25:36Z</time>
      </trkpt>
      <trkpt lat="41.205900" lon="-5.464890">
        <ele>827.608</ele>
        <time>2022-02-26T13:26:16Z</time>
      </trkpt>
      <trkpt lat="41.205898" lon="-5.464889">
        <ele>827.622</ele>
        <time>2022-02-26T13:26:56Z</time>
      </trkpt>
      <trkpt lat="41.206070" lon="-5.465230">
        <ele>827.079</ele>
        <time>2022-02-26T13:27:36Z</time>
      </trkpt>
      <trkpt lat="41.206070" lon="-5.465240">
        <ele>827.093</ele>
        <time>2022-02-26T13:28:16Z</time>
      </trkpt>
      <trkpt lat="41.206210" lon="-5.465390">
        <ele>827.072</ele>
        <time>2022-02-26T13:28:56Z</time>
      </trkpt>
      <trkpt lat="41.206220" lon="-5.465400">
        <ele>827.091</ele>
        <time>2022-02-26T13:29:36Z</time>
      </trkpt>
      <trkpt lat="41.206260" lon="-5.465440">
        <ele>827.072</ele>
        <time>2022-02-26T13:30:16Z</time>
      </trkpt>
      <trkpt lat="41.206290" lon="-5.465460">
        <ele>827.073</ele>
        <time>2022-02-26T13:30:56Z</time>
      </trkpt>
      <trkpt lat="41.206310" lon="-5.465470">
        <ele>827.085</ele>
        <time>2022-02-26T13:31:36Z</time>
      </trkpt>
      <trkpt lat="41.206330" lon="-5.465480">
        <ele>826.925</ele>
        <time>2022-02-26T13:32:16Z</time>
      </trkpt>
      <trkpt lat="41.206390" lon="-5.465490">
        <ele>826.826</ele>
        <time>2022-02-26T13:32:56Z</time>
      </trkpt>
      <trkpt lat="41.206410" lon="-5.465490">
        <ele>826.608</ele>
        <time>2022-02-26T13:33:36Z</time>
      </trkpt>
      <trkpt lat="41.206430" lon="-5.465480">
        <ele>826.408</ele>
        <time>2022-02-26T13:34:16Z</time>
      </trkpt>
      <trkpt lat="41.206450" lon="-5.465460">
        <ele>826.281</ele>
        <time>2022-02-26T13:34:56Z</time>
      </trkpt>
      <trkpt lat="41.206470" lon="-5.465440">
        <ele>826.098</ele>
        <time>2022-02-26T13:35:36Z</time>
      </trkpt>
      <trkpt lat="41.206490" lon="-5.465410">
        <ele>825.712</ele>
        <time>2022-02-26T13:36:16Z</time>
      </trkpt>
      <trkpt lat="41.206510" lon="-5.465340">
        <ele>825.421</ele>
        <time>2022-02-26T13:36:56Z</time>
      </trkpt>
      <trkpt lat="41.206540" lon="-5.465330">
        <ele>825.160</ele>
        <time>2022-02-26T13:37:36Z</time>
      </trkpt>
      <trkpt lat="41.206570" lon="-5.465330">
        <ele>824.961</ele>
        <time>2022-02-26T13:38:16Z</time>
      </trkpt>
      <trkpt lat="41.206620" lon="-5.465340">
        <ele>824.622</ele>
        <time>2022-02-26T13:38:56Z</time>
      </trkpt>
      <trkpt lat="41.206670" lon="-5.465370">
        <ele>824.384</ele>
        <time>2022-02-26T13:39:36Z</time>
      </trkpt>
      <trkpt lat="41.206720" lon="-5.465400">
        <ele>823.869</ele>
        <time>2022-02-26T13:40:16Z</time>
      </trkpt>
      <trkpt lat="41.206780" lon="-5.465460">
        <ele>823.204</ele>
        <time>2022-02-26T13:40:56Z</time>
      </trkpt>
      <trkpt lat="41.206820" lon="-5.465510">
        <ele>822.724</ele>
        <time>2022-02-26T13:41:36Z</time>
      </trkpt>
      <trkpt lat="41.206880" lon="-5.465610">
        <ele>821.908</ele>
        <time>2022-02-26T13:42:16Z</time>
      </trkpt>
      <trkpt lat="41.206910" lon="-5.465670">
        <ele>821.515</ele>
        <time>2022-02-26T13:42:56Z</time>
      </trkpt>
      <trkpt lat="41.206920" lon="-5.465720">
        <ele>821.482</ele>
        <time>2022-02-26T13:43:36Z</time>
      </trkpt>
      <trkpt lat="41.206940" lon="-5.465810">
        <ele>821.126</ele>
        <time>2022-02-26T13:44:16Z</time>
      </trkpt>
      <trkpt lat="41.206940" lon="-5.465890">
        <ele>820.975</ele>
        <time>2022-02-26T13:44:56Z</time>
      </trkpt>
      <trkpt lat="41.206950" lon="-5.466190">
        <ele>819.344</ele>
        <time>2022-02-26T13:45:36Z</time>
      </trkpt>
      <trkpt lat="41.206960" lon="-5.466530">
        <ele>816.845</ele>
        <time>2022-02-26T13:46:16Z</time>
      </trkpt>
      <trkpt lat="41.206930" lon="-5.466960">
        <ele>815.156</ele>
        <time>2022-02-26T13:46:56Z</time>
      </trkpt>
      <trkpt lat="41.206920" lon="-5.467180">
        <ele>814.418</ele>
        <time>2022-02-26T13:47:36Z</time>
      </trkpt>
      <trkpt lat="41.206920" lon="-5.467280">
        <ele>814.259</ele>
        <time>2022-02-26T13:48:16Z</time>
      </trkpt>
      <trkpt lat="41.206930" lon="-5.467320">
        <ele>814.103</ele>
        <time>2022-02-26T13:48:56Z</time>
      </trkpt>
      <trkpt lat="41.206940" lon="-5.467350">
        <ele>814.023</ele>
        <time>2022-02-26T13:49:36Z</time>
      </trkpt>
      <trkpt lat="41.206950" lon="-5.467380">
        <ele>814.008</ele>
        <time>2022-02-26T13:50:16Z</time>
      </trkpt>
      <trkpt lat="41.206990" lon="-5.467450">
        <ele>813.874</ele>
        <time>2022-02-26T13:50:56Z</time>
      </trkpt>
      <trkpt lat="41.207020" lon="-5.467500">
        <ele>813.751</ele>
        <time>2022-02-26T13:51:36Z</time>
      </trkpt>
      <trkpt lat="41.207110" lon="-5.467590">
        <ele>813.435</ele>
        <time>2022-02-26T13:52:16Z</time>
      </trkpt>
      <trkpt lat="41.207150" lon="-5.467630">
        <ele>813.324</ele>
        <time>2022-02-26T13:52:56Z</time>
      </trkpt>
      <trkpt lat="41.207220" lon="-5.467690">
        <ele>813.053</ele>
        <time>2022-02-26T13:53:36Z</time>
      </trkpt>
      <trkpt lat="41.207360" lon="-5.467780">
        <ele>813.084</ele>
        <time>2022-02-26T13:54:16Z</time>
      </trkpt>
      <trkpt lat="41.207530" lon="-5.467880">
        <ele>813.475</ele>
        <time>2022-02-26T13:54:56Z</time>
      </trkpt>
      <trkpt lat="41.207610" lon="-5.467920">
        <ele>813.747</ele>
        <time>2022-02-26T13:55:36Z</time>
      </trkpt>
      <trkpt lat="41.207640" lon="-5.467930">
        <ele>813.874</ele>
        <time>2022-02-26T13:56:16Z</time>
      </trkpt>
      <trkpt lat="41.207680" lon="-5.467950">
        <ele>813.956</ele>
        <time>2022-02-26T13:56:56Z</time>
      </trkpt>
      <trkpt lat="41.207740" lon="-5.467970">
        <ele>814.021</ele>
        <time>2022-02-26T13:57:36Z</time>
      </trkpt>
      <trkpt lat="41.207810" lon="-5.467980">
        <ele>814.008</ele>
        <time>2022-02-26T13:58:16Z</time>
      </trkpt>
      <trkpt lat="41.207820" lon="-5.467980">
        <ele>814.036</ele>
        <time>2022-02-26T13:58:56Z</time>
      </trkpt>
      <trkpt lat="41.207880" lon="-5.467990">
        <ele>813.993</ele>
        <time>2022-02-26T13:59:36Z</time>
      </trkpt>
      <trkpt lat="41.208010" lon="-5.468000">
        <ele>813.857</ele>
        <time>2022-02-26T14:00:16Z</time>
      </trkpt>
      <trkpt lat="41.208090" lon="-5.468000">
        <ele>813.836</ele>
        <time>2022-02-26T14:00:56Z</time>
      </trkpt>
      <trkpt lat="41.208090" lon="-5.468002">
        <ele>813.835</ele>
        <time>2022-02-26T14:01:36Z</time>
      </trkpt>
      <trkpt lat="41.208140" lon="-5.468050">
        <ele>814.096</ele>
        <time>2022-02-26T14:02:16Z</time>
      </trkpt>
      <trkpt lat="41.208160" lon="-5.468070">
        <ele>814.037</ele>
        <time>2022-02-26T14:02:56Z</time>
      </trkpt>
      <trkpt lat="41.208170" lon="-5.468090">
        <ele>814.159</ele>
        <time>2022-02-26T14:03:36Z</time>
      </trkpt>
      <trkpt lat="41.208190" lon="-5.468120">
        <ele>814.157</ele>
        <time>2022-02-26T14:04:16Z</time>
      </trkpt>
      <trkpt lat="41.208200" lon="-5.468170">
        <ele>814.200</ele>
        <time>2022-02-26T14:04:56Z</time>
      </trkpt>
      <trkpt lat="41.208200" lon="-5.468210">
        <ele>814.320</ele>
        <time>2022-02-26T14:05:36Z</time>
      </trkpt>
      <trkpt lat="41.208200" lon="-5.468310">
        <ele>814.508</ele>
        <time>2022-02-26T14:06:16Z</time>
      </trkpt>
      <trkpt lat="41.208200" lon="-5.468380">
        <ele>814.764</ele>
        <time>2022-02-26T14:06:56Z</time>
      </trkpt>
      <trkpt lat="41.208200" lon="-5.468470">
        <ele>815.061</ele>
        <time>2022-02-26T14:07:36Z</time>
      </trkpt>
      <trkpt lat="41.208170" lon="-5.468660">
        <ele>815.765</ele>
        <time>2022-02-26T14:08:16Z</time>
      </trkpt>
      <trkpt lat="41.208130" lon="-5.468890">
        <ele>817.024</ele>
        <time>2022-02-26T14:08:56Z</time>
      </trkpt>
      <trkpt lat="41.208090" lon="-5.469130">
        <ele>817.943</ele>
        <time>2022-02-26T14:09:36Z</time>
      </trkpt>
      <trkpt lat="41.208050" lon="-5.469400">
        <ele>818.894</ele>
        <time>2022-02-26T14:10:16Z</time>
      </trkpt>
      <trkpt lat="41.207990" lon="-5.469750">
        <ele>819.765</ele>
        <time>2022-02-26T14:10:56Z</time>
      </trkpt>
      <trkpt lat="41.207920" lon="-5.470170">
        <ele>821.847</ele>
        <time>2022-02-26T14:11:36Z</time>
      </trkpt>
      <trkpt lat="41.207910" lon="-5.470270">
        <ele>822.453</ele>
        <time>2022-02-26T14:12:16Z</time>
      </trkpt>
      <trkpt lat="41.207900" lon="-5.470400">
        <ele>822.804</ele>
        <time>2022-02-26T14:12:56Z</time>
      </trkpt>
      <trkpt lat="41.207900" lon="-5.470500">
        <ele>823.214</ele>
        <time>2022-02-26T14:13:36Z</time>
      </trkpt>
      <trkpt lat="41.207900" lon="-5.470530">
        <ele>823.308</ele>
        <time>2022-02-26T14:14:16Z</time>
      </trkpt>
      <trkpt lat="41.207900" lon="-5.470710">
        <ele>824.094</ele>
        <time>2022-02-26T14:14:56Z</time>
      </trkpt>
      <trkpt lat="41.207900" lon="-5.470770">
        <ele>824.241</ele>
        <time>2022-02-26T14:15:36Z</time>
      </trkpt>
      <trkpt lat="41.207920" lon="-5.470930">
        <ele>825.695</ele>
        <time>2022-02-26T14:16:16Z</time>
      </trkpt>
      <trkpt lat="41.207930" lon="-5.471010">
        <ele>826.544</ele>
        <time>2022-02-26T14:16:56Z</time>
      </trkpt>
      <trkpt lat="41.207960" lon="-5.471240">
        <ele>828.913</ele>
        <time>2022-02-26T14:17:36Z</time>
      </trkpt>
      <trkpt lat="41.208010" lon="-5.471550">
        <ele>831.334</ele>
        <time>2022-02-26T14:18:16Z</time>
      </trkpt>
      <trkpt lat="41.208110" lon="-5.472190">
        <ele>830.525</ele>
        <time>2022-02-26T14:18:56Z</time>
      </trkpt>
      <trkpt lat="41.208140" lon="-5.472410">
        <ele>829.837</ele>
        <time>2022-02-26T14:19:36Z</time>
      </trkpt>
      <trkpt lat="41.208180" lon="-5.472760">
        <ele>829.678</ele>
        <time>2022-02-26T14:20:16Z</time>
      </trkpt>
      <trkpt lat="41.208270" lon="-5.473380">
        <ele>830.533</ele>
        <time>2022-02-26T14:20:56Z</time>
      </trkpt>
      <trkpt lat="41.208390" lon="-5.474120">
        <ele>831.026</ele>
        <time>2022-02-26T14:21:36Z</time>
      </trkpt>
      <trkpt lat="41.208410" lon="-5.474260">
        <ele>830.808</ele>
        <time>2022-02-26T14:22:16Z</time>
      </trkpt>
      <trkpt lat="41.208500" lon="-5.474890">
        <ele>830.676</ele>
        <time>2022-02-26T14:22:56Z</time>
      </trkpt>
      <trkpt lat="41.208580" lon="-5.475420">
        <ele>829.923</ele>
        <time>2022-02-26T14:23:36Z</time>
      </trkpt>
      <trkpt lat="41.208650" lon="-5.475810">
        <ele>830.497</ele>
        <time>2022-02-26T14:24:16Z</time>
      </trkpt>
      <trkpt lat="41.208670" lon="-5.475920">
        <ele>831.116</ele>
        <time>2022-02-26T14:24:56Z</time>
      </trkpt>
      <trkpt lat="41.208700" lon="-5.475990">
        <ele>831.795</ele>
        <time>2022-02-26T14:25:36Z</time>
      </trkpt>
      <trkpt lat="41.208700" lon="-5.476010">
        <ele>831.826</ele>
        <time>2022-02-26T14:26:16Z</time>
      </trkpt>
      <trkpt lat="41.208730" lon="-5.476080">
        <ele>832.387</ele>
        <time>2022-02-26T14:26:56Z</time>
      </trkpt>
      <trkpt lat="41.208780" lon="-5.476170">
        <ele>832.829</ele>
        <time>2022-02-26T14:27:36Z</time>
      </trkpt>
      <trkpt lat="41.208800" lon="-5.476210">
        <ele>833.073</ele>
        <time>2022-02-26T14:28:16Z</time>
      </trkpt>
      <trkpt lat="41.208830" lon="-5.476250">
        <ele>833.385</ele>
        <time>2022-02-26T14:28:56Z</time>
      </trkpt>
      <trkpt lat="41.208860" lon="-5.476290">
        <ele>833.513</ele>
        <time>2022-02-26T14:29:36Z</time>
      </trkpt>
      <trkpt lat="41.208890" lon="-5.476320">
        <ele>833.808</ele>
        <time>2022-02-26T14:30:16Z</time>
      </trkpt>
      <trkpt lat="41.209150" lon="-5.476520">
        <ele>834.916</ele>
        <time>2022-02-26T14:30:56Z</time>
      </trkpt>
      <trkpt lat="41.209550" lon="-5.476800">
        <ele>834.513</ele>
        <time>2022-02-26T14:31:36Z</time>
      </trkpt>
      <trkpt lat="41.210020" lon="-5.477120">
        <ele>835.147</ele>
        <time>2022-02-26T14:32:16Z</time>
      </trkpt>
      <trkpt lat="41.210260" lon="-5.477290">
        <ele>836.036</ele>
        <time>2022-02-26T14:32:56Z</time>
      </trkpt>
      <trkpt lat="41.210470" lon="-5.477440">
        <ele>836.785</ele>
        <time>2022-02-26T14:33:36Z</time>
      </trkpt>
      <trkpt lat="41.210510" lon="-5.477460">
        <ele>836.846</ele>
        <time>2022-02-26T14:34:16Z</time>
      </trkpt>
      <trkpt lat="41.210650" lon="-5.477540">
        <ele>837.097</ele>
        <time>2022-02-26T14:34:56Z</time>
      </trkpt>
      <trkpt lat="41.210730" lon="-5.477580">
        <ele>837.279</ele>
        <time>2022-02-26T14:35:36Z</time>
      </trkpt>
      <trkpt lat="41.210830" lon="-5.477620">
        <ele>837.456</ele>
        <time>2022-02-26T14:36:16Z</time>
      </trkpt>
      <trkpt lat="41.210860" lon="-5.477620">
        <ele>837.459</ele>
        <time>2022-02-26T14:36:56Z</time>
      </trkpt>
      <trkpt lat="41.210890" lon="-5.477630">
        <ele>837.514</ele>
        <time>2022-02-26T14:37:36Z</time>
      </trkpt>
      <trkpt lat="41.210940" lon="-5.477650">
        <ele>837.508</ele>
        <time>2022-02-26T14:38:16Z</time>
      </trkpt>
      <trkpt lat="41.211020" lon="-5.477660">
        <ele>837.624</ele>
        <time>2022-02-26T14:38:56Z</time>
      </trkpt>
      <trkpt lat="41.211070" lon="-5.477660">
        <ele>837.681</ele>
        <time>2022-02-26T14:39:36Z</time>
      </trkpt>
      <trkpt lat="41.211120" lon="-5.477660">
        <ele>837.615</ele>
        <time>2022-02-26T14:40:16Z</time>
      </trkpt>
      <trkpt lat="41.211180" lon="-5.477650">
        <ele>837.834</ele>
        <time>2022-02-26T14:40:56Z</time>
      </trkpt>
      <trkpt lat="41.211230" lon="-5.477650">
        <ele>838.053</ele>
        <time>2022-02-26T14:41:36Z</time>
      </trkpt>
      <trkpt lat="41.211280" lon="-5.477640">
        <ele>838.114</ele>
        <time>2022-02-26T14:42:16Z</time>
      </trkpt>
      <trkpt lat="41.211310" lon="-5.477620">
        <ele>838.135</ele>
        <time>2022-02-26T14:42:56Z</time>
      </trkpt>
      <trkpt lat="41.211430" lon="-5.477580">
        <ele>838.577</ele>
        <time>2022-02-26T14:43:36Z</time>
      </trkpt>
      <trkpt lat="41.211428" lon="-5.477577">
        <ele>838.586</ele>
        <time>2022-02-26T14:44:16Z</time>
      </trkpt>
      <trkpt lat="41.211520" lon="-5.477540">
        <ele>839.060</ele>
        <time>2022-02-26T14:44:56Z</time>
      </trkpt>
      <trkpt lat="41.211590" lon="-5.477520">
        <ele>839.526</ele>
        <time>2022-02-26T14:45:36Z</time>
      </trkpt>
      <trkpt lat="41.211620" lon="-5.477510">
        <ele>839.708</ele>
        <time>2022-02-26T14:46:16Z</time>
      </trkpt>
      <trkpt lat="41.211670" lon="-5.477500">
        <ele>840.037</ele>
        <time>2022-02-26T14:46:56Z</time>
      </trkpt>
      <trkpt lat="41.211700" lon="-5.477520">
        <ele>839.844</ele>
        <time>2022-02-26T14:47:36Z</time>
      </trkpt>
      <trkpt lat="41.211770" lon="-5.477590">
        <ele>839.458</ele>
        <time>2022-02-26T14:48:16Z</time>
      </trkpt>
      <trkpt lat="41.211773" lon="-5.477586">
        <ele>839.497</ele>
        <time>2022-02-26T14:48:56Z</time>
      </trkpt>
      <trkpt lat="41.211860" lon="-5.477750">
        <ele>839.236</ele>
        <time>2022-02-26T14:49:36Z</time>
      </trkpt>
      <trkpt lat="41.211890" lon="-5.477800">
        <ele>839.327</ele>
        <time>2022-02-26T14:50:16Z</time>
      </trkpt>
      <trkpt lat="41.211910" lon="-5.477840">
        <ele>839.548</ele>
        <time>2022-02-26T14:50:56Z</time>
      </trkpt>
      <trkpt lat="41.211940" lon="-5.477890">
        <ele>839.890</ele>
        <time>2022-02-26T14:51:36Z</time>
      </trkpt>
      <trkpt lat="41.211990" lon="-5.477960">
        <ele>840.524</ele>
        <time>2022-02-26T14:52:16Z</time>
      </trkpt>
      <trkpt lat="41.212110" lon="-5.478150">
        <ele>842.304</ele>
        <time>2022-02-26T14:52:56Z</time>
      </trkpt>
      <trkpt lat="41.212190" lon="-5.478240">
        <ele>843.214</ele>
        <time>2022-02-26T14:53:36Z</time>
      </trkpt>
      <trkpt lat="41.212310" lon="-5.478410">
        <ele>843.908</ele>
        <time>2022-02-26T14:54:16Z</time>
      </trkpt>
      <trkpt lat="41.212470" lon="-5.478610">
        <ele>843.131</ele>
        <time>2022-02-26T14:54:56Z</time>
      </trkpt>
      <trkpt lat="41.212480" lon="-5.478620">
        <ele>843.158</ele>
        <time>2022-02-26T14:55:36Z</time>
      </trkpt>
      <trkpt lat="41.212490" lon="-5.478650">
        <ele>843.012</ele>
        <time>2022-02-26T14:56:16Z</time>
      </trkpt>
      <trkpt lat="41.212510" lon="-5.478690">
        <ele>842.951</ele>
        <time>2022-02-26T14:56:56Z</time>
      </trkpt>
      <trkpt lat="41.212870" lon="-5.479150">
        <ele>841.360</ele>
        <time>2022-02-26T14:57:36Z</time>
      </trkpt>
      <trkpt lat="41.213030" lon="-5.479360">
        <ele>840.981</ele>
        <time>2022-02-26T14:58:16Z</time>
      </trkpt>
      <trkpt lat="41.213150" lon="-5.479530">
        <ele>840.452</ele>
        <time>2022-02-26T14:58:56Z</time>
      </trkpt>
      <trkpt lat="41.213280" lon="-5.479700">
        <ele>840.174</ele>
        <time>2022-02-26T14:59:36Z</time>
      </trkpt>
      <trkpt lat="41.213580" lon="-5.480100">
        <ele>841.927</ele>
        <time>2022-02-26T15:00:16Z</time>
      </trkpt>
      <trkpt lat="41.214080" lon="-5.480750">
        <ele>839.168</ele>
        <time>2022-02-26T15:00:56Z</time>
      </trkpt>
      <trkpt lat="41.214340" lon="-5.481060">
        <ele>838.014</ele>
        <time>2022-02-26T15:01:36Z</time>
      </trkpt>
      <trkpt lat="41.214380" lon="-5.481120">
        <ele>838.008</ele>
        <time>2022-02-26T15:02:16Z</time>
      </trkpt>
      <trkpt lat="41.214670" lon="-5.481470">
        <ele>837.051</ele>
        <time>2022-02-26T15:02:56Z</time>
      </trkpt>
      <trkpt lat="41.214780" lon="-5.481600">
        <ele>835.888</ele>
        <time>2022-02-26T15:03:36Z</time>
      </trkpt>
      <trkpt lat="41.214910" lon="-5.481760">
        <ele>834.612</ele>
        <time>2022-02-26T15:04:16Z</time>
      </trkpt>
      <trkpt lat="41.215010" lon="-5.481880">
        <ele>834.061</ele>
        <time>2022-02-26T15:04:56Z</time>
      </trkpt>
      <trkpt lat="41.215050" lon="-5.481920">
        <ele>834.090</ele>
        <time>2022-02-26T15:05:36Z</time>
      </trkpt>
      <trkpt lat="41.215180" lon="-5.482080">
        <ele>834.371</ele>
        <time>2022-02-26T15:06:16Z</time>
      </trkpt>
      <trkpt lat="41.215210" lon="-5.482120">
        <ele>834.592</ele>
        <time>2022-02-26T15:06:56Z</time>
      </trkpt>
      <trkpt lat="41.215320" lon="-5.482250">
        <ele>834.964</ele>
        <time>2022-02-26T15:07:36Z</time>
      </trkpt>
      <trkpt lat="41.215370" lon="-5.482310">
        <ele>834.745</ele>
        <time>2022-02-26T15:08:16Z</time>
      </trkpt>
      <trkpt lat="41.215400" lon="-5.482360">
        <ele>834.547</ele>
        <time>2022-02-26T15:08:56Z</time>
      </trkpt>
      <trkpt lat="41.215440" lon="-5.482410">
        <ele>834.311</ele>
        <time>2022-02-26T15:09:36Z</time>
      </trkpt>
      <trkpt lat="41.215710" lon="-5.482730">
        <ele>832.908</ele>
        <time>2022-02-26T15:10:16Z</time>
      </trkpt>
      <trkpt lat="41.215770" lon="-5.482810">
        <ele>832.633</ele>
        <time>2022-02-26T15:10:56Z</time>
      </trkpt>
      <trkpt lat="41.216070" lon="-5.483170">
        <ele>833.510</ele>
        <time>2022-02-26T15:11:36Z</time>
      </trkpt>
      <trkpt lat="41.216460" lon="-5.483640">
        <ele>833.894</ele>
        <time>2022-02-26T15:12:16Z</time>
      </trkpt>
      <trkpt lat="41.216510" lon="-5.483700">
        <ele>833.783</ele>
        <time>2022-02-26T15:12:56Z</time>
      </trkpt>
      <trkpt lat="41.216640" lon="-5.483860">
        <ele>833.932</ele>
        <time>2022-02-26T15:13:36Z</time>
      </trkpt>
      <trkpt lat="41.216850" lon="-5.484120">
        <ele>834.843</ele>
        <time>2022-02-26T15:14:16Z</time>
      </trkpt>
      <trkpt lat="41.217160" lon="-5.484510">
        <ele>832.894</ele>
        <time>2022-02-26T15:14:56Z</time>
      </trkpt>
      <trkpt lat="41.217190" lon="-5.484550">
        <ele>832.626</ele>
        <time>2022-02-26T15:15:36Z</time>
      </trkpt>
      <trkpt lat="41.217290" lon="-5.484680">
        <ele>831.968</ele>
        <time>2022-02-26T15:16:16Z</time>
      </trkpt>
      <trkpt lat="41.217430" lon="-5.484840">
        <ele>830.742</ele>
        <time>2022-02-26T15:16:56Z</time>
      </trkpt>
      <trkpt lat="41.217560" lon="-5.485010">
        <ele>830.026</ele>
        <time>2022-02-26T15:17:36Z</time>
      </trkpt>
      <trkpt lat="41.217590" lon="-5.485050">
        <ele>829.808</ele>
        <time>2022-02-26T15:18:16Z</time>
      </trkpt>
      <trkpt lat="41.217690" lon="-5.485170">
        <ele>829.445</ele>
        <time>2022-02-26T15:18:56Z</time>
      </trkpt>
      <trkpt lat="41.217920" lon="-5.485460">
        <ele>828.382</ele>
        <time>2022-02-26T15:19:36Z</time>
      </trkpt>
      <trkpt lat="41.217960" lon="-5.485490">
        <ele>828.276</ele>
        <time>2022-02-26T15:20:16Z</time>
      </trkpt>
      <trkpt lat="41.218000" lon="-5.485560">
        <ele>828.095</ele>
        <time>2022-02-26T15:20:56Z</time>
      </trkpt>
      <trkpt lat="41.218070" lon="-5.485640">
        <ele>828.034</ele>
        <time>2022-02-26T15:21:36Z</time>
      </trkpt>
      <trkpt lat="41.218310" lon="-5.485920">
        <ele>828.375</ele>
        <time>2022-02-26T15:22:16Z</time>
      </trkpt>
      <trkpt lat="41.218610" lon="-5.486300">
        <ele>829.746</ele>
        <time>2022-02-26T15:22:56Z</time>
      </trkpt>
      <trkpt lat="41.218630" lon="-5.486330">
        <ele>829.628</ele>
        <time>2022-02-26T15:23:36Z</time>
      </trkpt>
      <trkpt lat="41.218740" lon="-5.486470">
        <ele>829.083</ele>
        <time>2022-02-26T15:24:16Z</time>
      </trkpt>
      <trkpt lat="41.218750" lon="-5.486480">
        <ele>829.025</ele>
        <time>2022-02-26T15:24:56Z</time>
      </trkpt>
      <trkpt lat="41.218940" lon="-5.486710">
        <ele>828.817</ele>
        <time>2022-02-26T15:25:36Z</time>
      </trkpt>
      <trkpt lat="41.219080" lon="-5.486880">
        <ele>828.808</ele>
        <time>2022-02-26T15:26:16Z</time>
      </trkpt>
      <trkpt lat="41.219230" lon="-5.487040">
        <ele>829.157</ele>
        <time>2022-02-26T15:26:56Z</time>
      </trkpt>
      <trkpt lat="41.219370" lon="-5.487190">
        <ele>829.174</ele>
        <time>2022-02-26T15:27:36Z</time>
      </trkpt>
      <trkpt lat="41.219420" lon="-5.487250">
        <ele>828.938</ele>
        <time>2022-02-26T15:28:16Z</time>
      </trkpt>
      <trkpt lat="41.219530" lon="-5.487360">
        <ele>828.267</ele>
        <time>2022-02-26T15:28:56Z</time>
      </trkpt>
      <trkpt lat="41.219640" lon="-5.487450">
        <ele>827.546</ele>
        <time>2022-02-26T15:29:36Z</time>
      </trkpt>
      <trkpt lat="41.219820" lon="-5.487600">
        <ele>826.237</ele>
        <time>2022-02-26T15:30:16Z</time>
      </trkpt>
      <trkpt lat="41.219970" lon="-5.487700">
        <ele>826.088</ele>
        <time>2022-02-26T15:30:56Z</time>
      </trkpt>
      <trkpt lat="41.220130" lon="-5.487800">
        <ele>826.060</ele>
        <time>2022-02-26T15:31:36Z</time>
      </trkpt>
      <trkpt lat="41.220480" lon="-5.487980">
        <ele>824.715</ele>
        <time>2022-02-26T15:32:16Z</time>
      </trkpt>
      <trkpt lat="41.220860" lon="-5.488160">
        <ele>823.765</ele>
        <time>2022-02-26T15:32:56Z</time>
      </trkpt>
      <trkpt lat="41.221220" lon="-5.488320">
        <ele>823.211</ele>
        <time>2022-02-26T15:33:36Z</time>
      </trkpt>
      <trkpt lat="41.221240" lon="-5.488330">
        <ele>823.108</ele>
        <time>2022-02-26T15:34:16Z</time>
      </trkpt>
      <trkpt lat="41.221440" lon="-5.488380">
        <ele>821.890</ele>
        <time>2022-02-26T15:34:56Z</time>
      </trkpt>
      <trkpt lat="41.221640" lon="-5.488450">
        <ele>821.137</ele>
        <time>2022-02-26T15:35:36Z</time>
      </trkpt>
      <trkpt lat="41.221780" lon="-5.488500">
        <ele>821.011</ele>
        <time>2022-02-26T15:36:16Z</time>
      </trkpt>
      <trkpt lat="41.221820" lon="-5.488510">
        <ele>821.020</ele>
        <time>2022-02-26T15:36:56Z</time>
      </trkpt>
      <trkpt lat="41.222170" lon="-5.488640">
        <ele>820.159</ele>
        <time>2022-02-26T15:37:36Z</time>
      </trkpt>
      <trkpt lat="41.222510" lon="-5.488760">
        <ele>818.420</ele>
        <time>2022-02-26T15:38:16Z</time>
      </trkpt>
      <trkpt lat="41.222880" lon="-5.488890">
        <ele>815.391</ele>
        <time>2022-02-26T15:38:56Z</time>
      </trkpt>
      <trkpt lat="41.223210" lon="-5.489000">
        <ele>814.483</ele>
        <time>2022-02-26T15:39:36Z</time>
      </trkpt>
      <trkpt lat="41.223230" lon="-5.489010">
        <ele>814.428</ele>
        <time>2022-02-26T15:40:16Z</time>
      </trkpt>
      <trkpt lat="41.223540" lon="-5.489120">
        <ele>813.689</ele>
        <time>2022-02-26T15:40:56Z</time>
      </trkpt>
      <trkpt lat="41.223560" lon="-5.489120">
        <ele>813.517</ele>
        <time>2022-02-26T15:41:36Z</time>
      </trkpt>
      <trkpt lat="41.223910" lon="-5.489200">
        <ele>812.008</ele>
        <time>2022-02-26T15:42:16Z</time>
      </trkpt>
      <trkpt lat="41.223920" lon="-5.489160">
        <ele>812.031</ele>
        <time>2022-02-26T15:42:56Z</time>
      </trkpt>
      <trkpt lat="41.223930" lon="-5.489130">
        <ele>812.138</ele>
        <time>2022-02-26T15:43:36Z</time>
      </trkpt>
      <trkpt lat="41.223950" lon="-5.489100">
        <ele>812.262</ele>
        <time>2022-02-26T15:44:16Z</time>
      </trkpt>
      <trkpt lat="41.223960" lon="-5.489070">
        <ele>812.361</ele>
        <time>2022-02-26T15:44:56Z</time>
      </trkpt>
      <trkpt lat="41.223980" lon="-5.489050">
        <ele>812.420</ele>
        <time>2022-02-26T15:45:36Z</time>
      </trkpt>
      <trkpt lat="41.224000" lon="-5.489030">
        <ele>812.571</ele>
        <time>2022-02-26T15:46:16Z</time>
      </trkpt>
      <trkpt lat="41.224020" lon="-5.489010">
        <ele>812.612</ele>
        <time>2022-02-26T15:46:56Z</time>
      </trkpt>
      <trkpt lat="41.224040" lon="-5.489000">
        <ele>812.644</ele>
        <time>2022-02-26T15:47:36Z</time>
      </trkpt>
      <trkpt lat="41.224070" lon="-5.488980">
        <ele>812.762</ele>
        <time>2022-02-26T15:48:16Z</time>
      </trkpt>
      <trkpt lat="41.224080" lon="-5.488980">
        <ele>812.783</ele>
        <time>2022-02-26T15:48:56Z</time>
      </trkpt>
      <trkpt lat="41.224090" lon="-5.488980">
        <ele>812.711</ele>
        <time>2022-02-26T15:49:36Z</time>
      </trkpt>
      <trkpt lat="41.224120" lon="-5.488970">
        <ele>812.708</ele>
        <time>2022-02-26T15:50:16Z</time>
      </trkpt>
      <trkpt lat="41.224140" lon="-5.488970">
        <ele>812.785</ele>
        <time>2022-02-26T15:50:56Z</time>
      </trkpt>
      <trkpt lat="41.224160" lon="-5.488970">
        <ele>812.722</ele>
        <time>2022-02-26T15:51:36Z</time>
      </trkpt>
      <trkpt lat="41.224190" lon="-5.488980">
        <ele>812.776</ele>
        <time>2022-02-26T15:52:16Z</time>
      </trkpt>
      <trkpt lat="41.224210" lon="-5.488990">
        <ele>812.625</ele>
        <time>2022-02-26T15:52:56Z</time>
      </trkpt>
      <trkpt lat="41.224240" lon="-5.489000">
        <ele>812.644</ele>
        <time>2022-02-26T15:53:36Z</time>
      </trkpt>
      <trkpt lat="41.224260" lon="-5.489010">
        <ele>812.655</ele>
        <time>2022-02-26T15:54:16Z</time>
      </trkpt>
      <trkpt lat="41.224280" lon="-5.489040">
        <ele>812.556</ele>
        <time>2022-02-26T15:54:56Z</time>
      </trkpt>
      <trkpt lat="41.224300" lon="-5.489060">
        <ele>812.488</ele>
        <time>2022-02-26T15:55:36Z</time>
      </trkpt>
      <trkpt lat="41.224320" lon="-5.489080">
        <ele>812.391</ele>
        <time>2022-02-26T15:56:16Z</time>
      </trkpt>
      <trkpt lat="41.224340" lon="-5.489110">
        <ele>812.281</ele>
        <time>2022-02-26T15:56:56Z</time>
      </trkpt>
      <trkpt lat="41.224350" lon="-5.489140">
        <ele>812.119</ele>
        <time>2022-02-26T15:57:36Z</time>
      </trkpt>
      <trkpt lat="41.224360" lon="-5.489170">
        <ele>812.008</ele>
        <time>2022-02-26T15:58:16Z</time>
      </trkpt>
      <trkpt lat="41.224370" lon="-5.489200">
        <ele>811.978</ele>
        <time>2022-02-26T15:58:56Z</time>
      </trkpt>
      <trkpt lat="41.224370" lon="-5.489230">
        <ele>811.885</ele>
        <time>2022-02-26T15:59:36Z</time>
      </trkpt>
      <trkpt lat="41.224370" lon="-5.489260">
        <ele>811.799</ele>
        <time>2022-02-26T16:00:16Z</time>
      </trkpt>
      <trkpt lat="41.224370" lon="-5.489300">
        <ele>811.538</ele>
        <time>2022-02-26T16:00:56Z</time>
      </trkpt>
      <trkpt lat="41.224370" lon="-5.489330">
        <ele>811.427</ele>
        <time>2022-02-26T16:01:36Z</time>
      </trkpt>
      <trkpt lat="41.224372" lon="-5.489330">
        <ele>811.458</ele>
        <time>2022-02-26T16:02:16Z</time>
      </trkpt>
      <trkpt lat="41.224840" lon="-5.489460">
        <ele>808.519</ele>
        <time>2022-02-26T16:02:56Z</time>
      </trkpt>
      <trkpt lat="41.224860" lon="-5.489460">
        <ele>808.521</ele>
        <time>2022-02-26T16:03:36Z</time>
      </trkpt>
      <trkpt lat="41.225010" lon="-5.489510">
        <ele>808.085</ele>
        <time>2022-02-26T16:04:16Z</time>
      </trkpt>
      <trkpt lat="41.225210" lon="-5.489560">
        <ele>808.889</ele>
        <time>2022-02-26T16:04:56Z</time>
      </trkpt>
      <trkpt lat="41.225390" lon="-5.489630">
        <ele>809.017</ele>
        <time>2022-02-26T16:05:36Z</time>
      </trkpt>
      <trkpt lat="41.225570" lon="-5.489720">
        <ele>808.908</ele>
        <time>2022-02-26T16:06:16Z</time>
      </trkpt>
      <trkpt lat="41.225710" lon="-5.489790">
        <ele>808.417</ele>
        <time>2022-02-26T16:06:56Z</time>
      </trkpt>
      <trkpt lat="41.225860" lon="-5.489890">
        <ele>808.064</ele>
        <time>2022-02-26T16:07:36Z</time>
      </trkpt>
      <trkpt lat="41.225920" lon="-5.489940">
        <ele>807.958</ele>
        <time>2022-02-26T16:08:16Z</time>
      </trkpt>
      <trkpt lat="41.226030" lon="-5.490040">
        <ele>808.117</ele>
        <time>2022-02-26T16:08:56Z</time>
      </trkpt>
      <trkpt lat="41.226160" lon="-5.490160">
        <ele>808.576</ele>
        <time>2022-02-26T16:09:36Z</time>
      </trkpt>
      <trkpt lat="41.226340" lon="-5.490320">
        <ele>809.067</ele>
        <time>2022-02-26T16:10:16Z</time>
      </trkpt>
      <trkpt lat="41.226620" lon="-5.490600">
        <ele>808.398</ele>
        <time>2022-02-26T16:10:56Z</time>
      </trkpt>
      <trkpt lat="41.226770" lon="-5.490760">
        <ele>807.930</ele>
        <time>2022-02-26T16:11:36Z</time>
      </trkpt>
      <trkpt lat="41.226840" lon="-5.490830">
        <ele>807.715</ele>
        <time>2022-02-26T16:12:16Z</time>
      </trkpt>
      <trkpt lat="41.227400" lon="-5.491440">
        <ele>805.665</ele>
        <time>2022-02-26T16:12:56Z</time>
      </trkpt>
      <trkpt lat="41.227880" lon="-5.491980">
        <ele>802.711</ele>
        <time>2022-02-26T16:13:36Z</time>
      </trkpt>
      <trkpt lat="41.228080" lon="-5.492210">
        <ele>801.108</ele>
        <time>2022-02-26T16:14:16Z</time>
      </trkpt>
      <trkpt lat="41.228560" lon="-5.492760">
        <ele>800.860</ele>
        <time>2022-02-26T16:14:56Z</time>
      </trkpt>
      <trkpt lat="41.228559" lon="-5.492759">
        <ele>800.827</ele>
        <time>2022-02-26T16:15:36Z</time>
      </trkpt>
      <trkpt lat="41.228610" lon="-5.492810">
        <ele>801.111</ele>
        <time>2022-02-26T16:16:16Z</time>
      </trkpt>
      <trkpt lat="41.228730" lon="-5.492980">
        <ele>801.430</ele>
        <time>2022-02-26T16:16:56Z</time>
      </trkpt>
      <trkpt lat="41.228860" lon="-5.493150">
        <ele>801.789</ele>
        <time>2022-02-26T16:17:36Z</time>
      </trkpt>
      <trkpt lat="41.228890" lon="-5.493190">
        <ele>802.070</ele>
        <time>2022-02-26T16:18:16Z</time>
      </trkpt>
      <trkpt lat="41.229220" lon="-5.493670">
        <ele>804.051</ele>
        <time>2022-02-26T16:18:56Z</time>
      </trkpt>
      <trkpt lat="41.229440" lon="-5.493990">
        <ele>804.073</ele>
        <time>2022-02-26T16:19:36Z</time>
      </trkpt>
      <trkpt lat="41.229620" lon="-5.494240">
        <ele>803.463</ele>
        <time>2022-02-26T16:20:16Z</time>
      </trkpt>
      <trkpt lat="41.229750" lon="-5.494410">
        <ele>803.044</ele>
        <time>2022-02-26T16:20:56Z</time>
      </trkpt>
      <trkpt lat="41.229840" lon="-5.494520">
        <ele>803.318</ele>
        <time>2022-02-26T16:21:36Z</time>
      </trkpt>
      <trkpt lat="41.229840" lon="-5.494530">
        <ele>803.308</ele>
        <time>2022-02-26T16:22:16Z</time>
      </trkpt>
      <trkpt lat="41.229940" lon="-5.494650">
        <ele>803.745</ele>
        <time>2022-02-26T16:22:56Z</time>
      </trkpt>
      <trkpt lat="41.230110" lon="-5.494850">
        <ele>803.692</ele>
        <time>2022-02-26T16:23:36Z</time>
      </trkpt>
      <trkpt lat="41.230160" lon="-5.494910">
        <ele>803.486</ele>
        <time>2022-02-26T16:24:16Z</time>
      </trkpt>
      <trkpt lat="41.230240" lon="-5.495010">
        <ele>803.155</ele>
        <time>2022-02-26T16:24:56Z</time>
      </trkpt>
      <trkpt lat="41.230260" lon="-5.495020">
        <ele>803.154</ele>
        <time>2022-02-26T16:25:36Z</time>
      </trkpt>
      <trkpt lat="41.230320" lon="-5.495100">
        <ele>802.975</ele>
        <time>2022-02-26T16:26:16Z</time>
      </trkpt>
      <trkpt lat="41.230370" lon="-5.495190">
        <ele>802.966</ele>
        <time>2022-02-26T16:26:56Z</time>
      </trkpt>
      <trkpt lat="41.230480" lon="-5.495370">
        <ele>803.088</ele>
        <time>2022-02-26T16:27:36Z</time>
      </trkpt>
      <trkpt lat="41.230480" lon="-5.495366">
        <ele>803.075</ele>
        <time>2022-02-26T16:28:16Z</time>
      </trkpt>
      <trkpt lat="41.230550" lon="-5.495300">
        <ele>803.028</ele>
        <time>2022-02-26T16:28:56Z</time>
      </trkpt>
      <trkpt lat="41.230650" lon="-5.495210">
        <ele>803.020</ele>
        <time>2022-02-26T16:29:36Z</time>
      </trkpt>
      <trkpt lat="41.230800" lon="-5.495080">
        <ele>802.508</ele>
        <time>2022-02-26T16:30:16Z</time>
      </trkpt>
      <trkpt lat="41.230850" lon="-5.495040">
        <ele>802.386</ele>
        <time>2022-02-26T16:30:56Z</time>
      </trkpt>
      <trkpt lat="41.230950" lon="-5.494950">
        <ele>801.613</ele>
        <time>2022-02-26T16:31:36Z</time>
      </trkpt>
      <trkpt lat="41.231100" lon="-5.494830">
        <ele>800.837</ele>
        <time>2022-02-26T16:32:16Z</time>
      </trkpt>
      <trkpt lat="41.231220" lon="-5.494730">
        <ele>799.716</ele>
        <time>2022-02-26T16:32:56Z</time>
      </trkpt>
      <trkpt lat="41.231250" lon="-5.494720">
        <ele>799.545</ele>
        <time>2022-02-26T16:33:36Z</time>
      </trkpt>
      <trkpt lat="41.231330" lon="-5.494670">
        <ele>798.876</ele>
        <time>2022-02-26T16:34:16Z</time>
      </trkpt>
      <trkpt lat="41.231450" lon="-5.494610">
        <ele>798.087</ele>
        <time>2022-02-26T16:34:56Z</time>
      </trkpt>
      <trkpt lat="41.231580" lon="-5.494560">
        <ele>797.169</ele>
        <time>2022-02-26T16:35:36Z</time>
      </trkpt>
      <trkpt lat="41.231690" lon="-5.494520">
        <ele>796.574</ele>
        <time>2022-02-26T16:36:16Z</time>
      </trkpt>
      <trkpt lat="41.231760" lon="-5.494480">
        <ele>796.256</ele>
        <time>2022-02-26T16:36:56Z</time>
      </trkpt>
      <trkpt lat="41.231830" lon="-5.494450">
        <ele>796.021</ele>
        <time>2022-02-26T16:37:36Z</time>
      </trkpt>
      <trkpt lat="41.232010" lon="-5.494300">
        <ele>795.408</ele>
        <time>2022-02-26T16:38:16Z</time>
      </trkpt>
      <trkpt lat="41.232040" lon="-5.494280">
        <ele>795.346</ele>
        <time>2022-02-26T16:38:56Z</time>
      </trkpt>
      <trkpt lat="41.232130" lon="-5.494200">
        <ele>795.043</ele>
        <time>2022-02-26T16:39:36Z</time>
      </trkpt>
      <trkpt lat="41.232180" lon="-5.494160">
        <ele>795.047</ele>
        <time>2022-02-26T16:40:16Z</time>
      </trkpt>
      <trkpt lat="41.232280" lon="-5.494110">
        <ele>795.056</ele>
        <time>2022-02-26T16:40:56Z</time>
      </trkpt>
      <trkpt lat="41.232360" lon="-5.494090">
        <ele>794.855</ele>
        <time>2022-02-26T16:41:36Z</time>
      </trkpt>
      <trkpt lat="41.232370" lon="-5.494090">
        <ele>794.786</ele>
        <time>2022-02-26T16:42:16Z</time>
      </trkpt>
      <trkpt lat="41.232460" lon="-5.494090">
        <ele>794.487</ele>
        <time>2022-02-26T16:42:56Z</time>
      </trkpt>
      <trkpt lat="41.232510" lon="-5.494090">
        <ele>794.349</ele>
        <time>2022-02-26T16:43:36Z</time>
      </trkpt>
      <trkpt lat="41.232590" lon="-5.494110">
        <ele>794.238</ele>
        <time>2022-02-26T16:44:16Z</time>
      </trkpt>
      <trkpt lat="41.232660" lon="-5.494120">
        <ele>794.270</ele>
        <time>2022-02-26T16:44:56Z</time>
      </trkpt>
      <trkpt lat="41.232860" lon="-5.494180">
        <ele>794.017</ele>
        <time>2022-02-26T16:45:36Z</time>
      </trkpt>
      <trkpt lat="41.232960" lon="-5.494200">
        <ele>793.908</ele>
        <time>2022-02-26T16:46:16Z</time>
      </trkpt>
      <trkpt lat="41.233330" lon="-5.494270">
        <ele>794.662</ele>
        <time>2022-02-26T16:46:56Z</time>
      </trkpt>
      <trkpt lat="41.233334" lon="-5.494274">
        <ele>794.679</ele>
        <time>2022-02-26T16:47:36Z</time>
      </trkpt>
      <trkpt lat="41.233370" lon="-5.494500">
        <ele>794.073</ele>
        <time>2022-02-26T16:48:16Z</time>
      </trkpt>
      <trkpt lat="41.233420" lon="-5.494590">
        <ele>794.082</ele>
        <time>2022-02-26T16:48:56Z</time>
      </trkpt>
      <trkpt lat="41.233610" lon="-5.494790">
        <ele>794.011</ele>
        <time>2022-02-26T16:49:36Z</time>
      </trkpt>
      <trkpt lat="41.234160" lon="-5.495360">
        <ele>793.362</ele>
        <time>2022-02-26T16:50:16Z</time>
      </trkpt>
      <trkpt lat="41.234240" lon="-5.495450">
        <ele>793.563</ele>
        <time>2022-02-26T16:50:56Z</time>
      </trkpt>
      <trkpt lat="41.234370" lon="-5.495580">
        <ele>793.355</ele>
        <time>2022-02-26T16:51:36Z</time>
      </trkpt>
      <trkpt lat="41.234450" lon="-5.495680">
        <ele>793.042</ele>
        <time>2022-02-26T16:52:16Z</time>
      </trkpt>
      <trkpt lat="41.234510" lon="-5.495760">
        <ele>793.022</ele>
        <time>2022-02-26T16:52:56Z</time>
      </trkpt>
      <trkpt lat="41.234520" lon="-5.495780">
        <ele>793.014</ele>
        <time>2022-02-26T16:53:36Z</time>
      </trkpt>
      <trkpt lat="41.234590" lon="-5.495880">
        <ele>792.908</ele>
        <time>2022-02-26T16:54:16Z</time>
      </trkpt>
      <trkpt lat="41.234640" lon="-5.496020">
        <ele>792.583</ele>
        <time>2022-02-26T16:54:56Z</time>
      </trkpt>
      <trkpt lat="41.234680" lon="-5.496150">
        <ele>792.030</ele>
        <time>2022-02-26T16:55:36Z</time>
      </trkpt>
      <trkpt lat="41.234690" lon="-5.496170">
        <ele>791.964</ele>
        <time>2022-02-26T16:56:16Z</time>
      </trkpt>
      <trkpt lat="41.234750" lon="-5.496400">
        <ele>791.063</ele>
        <time>2022-02-26T16:56:56Z</time>
      </trkpt>
      <trkpt lat="41.234770" lon="-5.496520">
        <ele>790.922</ele>
        <time>2022-02-26T16:57:36Z</time>
      </trkpt>
      <trkpt lat="41.234780" lon="-5.496590">
        <ele>790.863</ele>
        <time>2022-02-26T16:58:16Z</time>
      </trkpt>
      <trkpt lat="41.234790" lon="-5.496710">
        <ele>790.654</ele>
        <time>2022-02-26T16:58:56Z</time>
      </trkpt>
      <trkpt lat="41.234810" lon="-5.496810">
        <ele>790.356</ele>
        <time>2022-02-26T16:59:36Z</time>
      </trkpt>
      <trkpt lat="41.234810" lon="-5.496900">
        <ele>790.162</ele>
        <time>2022-02-26T17:00:16Z</time>
      </trkpt>
      <trkpt lat="41.234820" lon="-5.497000">
        <ele>790.183</ele>
        <time>2022-02-26T17:00:56Z</time>
      </trkpt>
      <trkpt lat="41.234810" lon="-5.497210">
        <ele>790.711</ele>
        <time>2022-02-26T17:01:36Z</time>
      </trkpt>
      <trkpt lat="41.234770" lon="-5.497460">
        <ele>791.708</ele>
        <time>2022-02-26T17:02:16Z</time>
      </trkpt>
      <trkpt lat="41.234750" lon="-5.497620">
        <ele>791.915</ele>
        <time>2022-02-26T17:02:56Z</time>
      </trkpt>
      <trkpt lat="41.234740" lon="-5.497680">
        <ele>792.022</ele>
        <time>2022-02-26T17:03:36Z</time>
      </trkpt>
      <trkpt lat="41.234700" lon="-5.497930">
        <ele>792.086</ele>
        <time>2022-02-26T17:04:16Z</time>
      </trkpt>
      <trkpt lat="41.234680" lon="-5.498090">
        <ele>792.145</ele>
        <time>2022-02-26T17:04:56Z</time>
      </trkpt>
      <trkpt lat="41.234640" lon="-5.498250">
        <ele>792.724</ele>
        <time>2022-02-26T17:05:36Z</time>
      </trkpt>
      <trkpt lat="41.234620" lon="-5.498450">
        <ele>793.095</ele>
        <time>2022-02-26T17:06:16Z</time>
      </trkpt>
      <trkpt lat="41.234620" lon="-5.498500">
        <ele>793.036</ele>
        <time>2022-02-26T17:06:56Z</time>
      </trkpt>
      <trkpt lat="41.234600" lon="-5.498740">
        <ele>793.098</ele>
        <time>2022-02-26T17:07:36Z</time>
      </trkpt>
      <trkpt lat="41.234600" lon="-5.498750">
        <ele>793.031</ele>
        <time>2022-02-26T17:08:16Z</time>
      </trkpt>
      <trkpt lat="41.234590" lon="-5.498790">
        <ele>793.061</ele>
        <time>2022-02-26T17:08:56Z</time>
      </trkpt>
      <trkpt lat="41.234560" lon="-5.499210">
        <ele>793.207</ele>
        <time>2022-02-26T17:09:36Z</time>
      </trkpt>
      <trkpt lat="41.234570" lon="-5.499290">
        <ele>793.608</ele>
        <time>2022-02-26T17:10:16Z</time>
      </trkpt>
      <trkpt lat="41.234570" lon="-5.499300">
        <ele>793.772</ele>
        <time>2022-02-26T17:10:56Z</time>
      </trkpt>
      <trkpt lat="41.234570" lon="-5.499320">
        <ele>793.889</ele>
        <time>2022-02-26T17:11:36Z</time>
      </trkpt>
      <trkpt lat="41.234610" lon="-5.499530">
        <ele>794.993</ele>
        <time>2022-02-26T17:12:16Z</time>
      </trkpt>
      <trkpt lat="41.234614" lon="-5.499534">
        <ele>794.932</ele>
        <time>2022-02-26T17:12:56Z</time>
      </trkpt>
      <trkpt lat="41.234620" lon="-5.499540">
        <ele>795.021</ele>
        <time>2022-02-26T17:13:36Z</time>
      </trkpt>
      <trkpt lat="41.234630" lon="-5.499550">
        <ele>795.042</ele>
        <time>2022-02-26T17:14:16Z</time>
      </trkpt>
      <trkpt lat="41.234640" lon="-5.499560">
        <ele>795.153</ele>
        <time>2022-02-26T17:14:56Z</time>
      </trkpt>
      <trkpt lat="41.234650" lon="-5.499570">
        <ele>795.225</ele>
        <time>2022-02-26T17:15:36Z</time>
      </trkpt>
      <trkpt lat="41.234650" lon="-5.499580">
        <ele>795.238</ele>
        <time>2022-02-26T17:16:16Z</time>
      </trkpt>
      <trkpt lat="41.234660" lon="-5.499600">
        <ele>795.370</ele>
        <time>2022-02-26T17:16:56Z</time>
      </trkpt>
      <trkpt lat="41.234670" lon="-5.499610">
        <ele>795.417</ele>
        <time>2022-02-26T17:17:36Z</time>
      </trkpt>
      <trkpt lat="41.234670" lon="-5.499620">
        <ele>795.408</ele>
        <time>2022-02-26T17:18:16Z</time>
      </trkpt>
      <trkpt lat="41.234680" lon="-5.499630">
        <ele>795.552</ele>
        <time>2022-02-26T17:18:56Z</time>
      </trkpt>
      <trkpt lat="41.234680" lon="-5.499660">
        <ele>795.689</ele>
        <time>2022-02-26T17:19:36Z</time>
      </trkpt>
      <trkpt lat="41.234690" lon="-5.499660">
        <ele>795.753</ele>
        <time>2022-02-26T17:20:16Z</time>
      </trkpt>
      <trkpt lat="41.234920" lon="-5.499780">
        <ele>796.242</ele>
        <time>2022-02-26T17:20:56Z</time>
      </trkpt>
      <trkpt lat="41.235050" lon="-5.499860">
        <ele>796.571</ele>
        <time>2022-02-26T17:21:36Z</time>
      </trkpt>
      <trkpt lat="41.235140" lon="-5.499910">
        <ele>796.722</ele>
        <time>2022-02-26T17:22:16Z</time>
      </trkpt>
      <trkpt lat="41.235210" lon="-5.499990">
        <ele>797.023</ele>
        <time>2022-02-26T17:22:56Z</time>
      </trkpt>
      <trkpt lat="41.235260" lon="-5.500020">
        <ele>797.195</ele>
        <time>2022-02-26T17:23:36Z</time>
      </trkpt>
      <trkpt lat="41.235530" lon="-5.500190">
        <ele>798.429</ele>
        <time>2022-02-26T17:24:16Z</time>
      </trkpt>
      <trkpt lat="41.235620" lon="-5.500250">
        <ele>798.800</ele>
        <time>2022-02-26T17:24:56Z</time>
      </trkpt>
      <trkpt lat="41.235710" lon="-5.500310">
        <ele>799.220</ele>
        <time>2022-02-26T17:25:36Z</time>
      </trkpt>
      <trkpt lat="41.235780" lon="-5.500350">
        <ele>799.308</ele>
        <time>2022-02-26T17:26:16Z</time>
      </trkpt>
      <trkpt lat="41.235860" lon="-5.500410">
        <ele>799.491</ele>
        <time>2022-02-26T17:26:56Z</time>
      </trkpt>
      <trkpt lat="41.235940" lon="-5.500460">
        <ele>799.428</ele>
        <time>2022-02-26T17:27:36Z</time>
      </trkpt>
      <trkpt lat="41.236110" lon="-5.500560">
        <ele>799.092</ele>
        <time>2022-02-26T17:28:16Z</time>
      </trkpt>
      <trkpt lat="41.236480" lon="-5.500800">
        <ele>802.511</ele>
        <time>2022-02-26T17:28:56Z</time>
      </trkpt>
      <trkpt lat="41.236810" lon="-5.501020">
        <ele>805.260</ele>
        <time>2022-02-26T17:29:36Z</time>
      </trkpt>
      <trkpt lat="41.236910" lon="-5.501090">
        <ele>805.881</ele>
        <time>2022-02-26T17:30:16Z</time>
      </trkpt>
      <trkpt lat="41.237030" lon="-5.501170">
        <ele>806.552</ele>
        <time>2022-02-26T17:30:56Z</time>
      </trkpt>
      <trkpt lat="41.237150" lon="-5.501250">
        <ele>806.924</ele>
        <time>2022-02-26T17:31:36Z</time>
      </trkpt>
      <trkpt lat="41.237300" lon="-5.501370">
        <ele>807.058</ele>
        <time>2022-02-26T17:32:16Z</time>
      </trkpt>
      <trkpt lat="41.237530" lon="-5.501540">
        <ele>806.952</ele>
        <time>2022-02-26T17:32:56Z</time>
      </trkpt>
      <trkpt lat="41.237830" lon="-5.501780">
        <ele>805.717</ele>
        <time>2022-02-26T17:33:36Z</time>
      </trkpt>
      <trkpt lat="41.238140" lon="-5.502020">
        <ele>804.808</ele>
        <time>2022-02-26T17:34:16Z</time>
      </trkpt>
      <trkpt lat="41.238400" lon="-5.502230">
        <ele>805.594</ele>
        <time>2022-02-26T17:34:56Z</time>
      </trkpt>
      <trkpt lat="41.238650" lon="-5.502440">
        <ele>807.061</ele>
        <time>2022-02-26T17:35:36Z</time>
      </trkpt>
      <trkpt lat="41.238780" lon="-5.502540">
        <ele>807.175</ele>
        <time>2022-02-26T17:36:16Z</time>
      </trkpt>
      <trkpt lat="41.238970" lon="-5.502680">
        <ele>807.064</ele>
        <time>2022-02-26T17:36:56Z</time>
      </trkpt>
      <trkpt lat="41.239080" lon="-5.502780">
        <ele>807.013</ele>
        <time>2022-02-26T17:37:36Z</time>
      </trkpt>
      <trkpt lat="41.239110" lon="-5.502810">
        <ele>807.044</ele>
        <time>2022-02-26T17:38:16Z</time>
      </trkpt>
      <trkpt lat="41.239170" lon="-5.502860">
        <ele>807.075</ele>
        <time>2022-02-26T17:38:56Z</time>
      </trkpt>
      <trkpt lat="41.239340" lon="-5.503000">
        <ele>807.187</ele>
        <time>2022-02-26T17:39:36Z</time>
      </trkpt>
      <trkpt lat="41.239710" lon="-5.503300">
        <ele>808.144</ele>
        <time>2022-02-26T17:40:16Z</time>
      </trkpt>
      <trkpt lat="41.239800" lon="-5.503370">
        <ele>808.805</ele>
        <time>2022-02-26T17:40:56Z</time>
      </trkpt>
      <trkpt lat="41.239960" lon="-5.503490">
        <ele>810.115</ele>
        <time>2022-02-26T17:41:36Z</time>
      </trkpt>
      <trkpt lat="41.239980" lon="-5.503510">
        <ele>810.208</ele>
        <time>2022-02-26T17:42:16Z</time>
      </trkpt>
      <trkpt lat="41.240110" lon="-5.503620">
        <ele>811.613</ele>
        <time>2022-02-26T17:42:56Z</time>
      </trkpt>
      <trkpt lat="41.240260" lon="-5.503750">
        <ele>813.730</ele>
        <time>2022-02-26T17:43:36Z</time>
      </trkpt>
      <trkpt lat="41.240540" lon="-5.503980">
        <ele>815.934</ele>
        <time>2022-02-26T17:44:16Z</time>
      </trkpt>
      <trkpt lat="41.240830" lon="-5.504220">
        <ele>816.483</ele>
        <time>2022-02-26T17:44:56Z</time>
      </trkpt>
      <trkpt lat="41.240870" lon="-5.504250">
        <ele>817.012</ele>
        <time>2022-02-26T17:45:36Z</time>
      </trkpt>
      <trkpt lat="41.240900" lon="-5.504260">
        <ele>817.413</ele>
        <time>2022-02-26T17:46:16Z</time>
      </trkpt>
      <trkpt lat="41.240960" lon="-5.504300">
        <ele>818.334</ele>
        <time>2022-02-26T17:46:56Z</time>
      </trkpt>
      <trkpt lat="41.241040" lon="-5.504340">
        <ele>819.576</ele>
        <time>2022-02-26T17:47:36Z</time>
      </trkpt>
      <trkpt lat="41.241110" lon="-5.504380">
        <ele>820.514</ele>
        <time>2022-02-26T17:48:16Z</time>
      </trkpt>
      <trkpt lat="41.241170" lon="-5.504400">
        <ele>821.354</ele>
        <time>2022-02-26T17:48:56Z</time>
      </trkpt>
      <trkpt lat="41.241210" lon="-5.504420">
        <ele>821.909</ele>
        <time>2022-02-26T17:49:36Z</time>
      </trkpt>
      <trkpt lat="41.241380" lon="-5.504480">
        <ele>824.008</ele>
        <time>2022-02-26T17:50:16Z</time>
      </trkpt>
      <trkpt lat="41.241920" lon="-5.504560">
        <ele>830.360</ele>
        <time>2022-02-26T17:50:56Z</time>
      </trkpt>
      <trkpt lat="41.241940" lon="-5.504560">
        <ele>830.597</ele>
        <time>2022-02-26T17:51:36Z</time>
      </trkpt>
      <trkpt lat="41.242100" lon="-5.504600">
        <ele>830.831</ele>
        <time>2022-02-26T17:52:16Z</time>
      </trkpt>
      <trkpt lat="41.242160" lon="-5.504610">
        <ele>830.940</ele>
        <time>2022-02-26T17:52:56Z</time>
      </trkpt>
      <trkpt lat="41.242210" lon="-5.504610">
        <ele>831.099</ele>
        <time>2022-02-26T17:53:36Z</time>
      </trkpt>
      <trkpt lat="41.242270" lon="-5.504630">
        <ele>830.850</ele>
        <time>2022-02-26T17:54:16Z</time>
      </trkpt>
      <trkpt lat="41.242320" lon="-5.504640">
        <ele>830.611</ele>
        <time>2022-02-26T17:54:56Z</time>
      </trkpt>
      <trkpt lat="41.242360" lon="-5.504650">
        <ele>830.543</ele>
        <time>2022-02-26T17:55:36Z</time>
      </trkpt>
      <trkpt lat="41.242470" lon="-5.504680">
        <ele>830.172</ele>
        <time>2022-02-26T17:56:16Z</time>
      </trkpt>
      <trkpt lat="41.242520" lon="-5.504700">
        <ele>829.913</ele>
        <time>2022-02-26T17:56:56Z</time>
      </trkpt>
      <trkpt lat="41.242580" lon="-5.504720">
        <ele>829.414</ele>
        <time>2022-02-26T17:57:36Z</time>
      </trkpt>
      <trkpt lat="41.242630" lon="-5.504740">
        <ele>829.108</ele>
        <time>2022-02-26T17:58:16Z</time>
      </trkpt>
      <trkpt lat="41.242680" lon="-5.504760">
        <ele>828.736</ele>
        <time>2022-02-26T17:58:56Z</time>
      </trkpt>
      <trkpt lat="41.242740" lon="-5.504780">
        <ele>828.353</ele>
        <time>2022-02-26T17:59:36Z</time>
      </trkpt>
      <trkpt lat="41.242960" lon="-5.504890">
        <ele>827.187</ele>
        <time>2022-02-26T18:00:16Z</time>
      </trkpt>
      <trkpt lat="41.242970" lon="-5.504890">
        <ele>827.076</ele>
        <time>2022-02-26T18:00:56Z</time>
      </trkpt>
      <trkpt lat="41.243350" lon="-5.505050">
        <ele>827.545</ele>
        <time>2022-02-26T18:01:36Z</time>
      </trkpt>
      <trkpt lat="41.243700" lon="-5.505200">
        <ele>830.786</ele>
        <time>2022-02-26T18:02:16Z</time>
      </trkpt>
      <trkpt lat="41.243850" lon="-5.505270">
        <ele>832.677</ele>
        <time>2022-02-26T18:02:56Z</time>
      </trkpt>
      <trkpt lat="41.243970" lon="-5.505320">
        <ele>833.449</ele>
        <time>2022-02-26T18:03:36Z</time>
      </trkpt>
      <trkpt lat="41.244130" lon="-5.505390">
        <ele>834.375</ele>
        <time>2022-02-26T18:04:16Z</time>
      </trkpt>
      <trkpt lat="41.244160" lon="-5.505400">
        <ele>834.428</ele>
        <time>2022-02-26T18:04:56Z</time>
      </trkpt>
      <trkpt lat="41.244270" lon="-5.505440">
        <ele>835.120</ele>
        <time>2022-02-26T18:05:36Z</time>
      </trkpt>
      <trkpt lat="41.244540" lon="-5.505560">
        <ele>836.008</ele>
        <time>2022-02-26T18:06:16Z</time>
      </trkpt>
      <trkpt lat="41.244830" lon="-5.505690">
        <ele>836.126</ele>
        <time>2022-02-26T18:06:56Z</time>
      </trkpt>
      <trkpt lat="41.244970" lon="-5.505750">
        <ele>835.893</ele>
        <time>2022-02-26T18:07:36Z</time>
      </trkpt>
      <trkpt lat="41.244971" lon="-5.505748">
        <ele>835.847</ele>
        <time>2022-02-26T18:08:16Z</time>
      </trkpt>
      <trkpt lat="41.245070" lon="-5.505800">
        <ele>836.156</ele>
        <time>2022-02-26T18:08:56Z</time>
      </trkpt>
      <trkpt lat="41.245090" lon="-5.505820">
        <ele>836.345</ele>
        <time>2022-02-26T18:09:36Z</time>
      </trkpt>
      <trkpt lat="41.245190" lon="-5.505810">
        <ele>836.616</ele>
        <time>2022-02-26T18:10:16Z</time>
      </trkpt>
      <trkpt lat="41.245270" lon="-5.505780">
        <ele>836.847</ele>
        <time>2022-02-26T18:10:56Z</time>
      </trkpt>
      <trkpt lat="41.245330" lon="-5.505730">
        <ele>837.259</ele>
        <time>2022-02-26T18:11:36Z</time>
      </trkpt>
      <trkpt lat="41.245430" lon="-5.505710">
        <ele>838.211</ele>
        <time>2022-02-26T18:12:16Z</time>
      </trkpt>
      <trkpt lat="41.245433" lon="-5.505711">
        <ele>838.221</ele>
        <time>2022-02-26T18:12:56Z</time>
      </trkpt>
      <trkpt lat="41.245670" lon="-5.506050">
        <ele>840.403</ele>
        <time>2022-02-26T18:13:36Z</time>
      </trkpt>
      <trkpt lat="41.245670" lon="-5.506060">
        <ele>840.408</ele>
        <time>2022-02-26T18:14:16Z</time>
      </trkpt>
      <trkpt lat="41.245860" lon="-5.506360">
        <ele>842.080</ele>
        <time>2022-02-26T18:14:56Z</time>
      </trkpt>
      <trkpt lat="41.245990" lon="-5.506530">
        <ele>843.157</ele>
        <time>2022-02-26T18:15:36Z</time>
      </trkpt>
      <trkpt lat="41.246060" lon="-5.506640">
        <ele>843.781</ele>
        <time>2022-02-26T18:16:16Z</time>
      </trkpt>
      <trkpt lat="41.246100" lon="-5.506690">
        <ele>844.010</ele>
        <time>2022-02-26T18:16:56Z</time>
      </trkpt>
      <trkpt lat="41.246310" lon="-5.507000">
        <ele>846.679</ele>
        <time>2022-02-26T18:17:36Z</time>
      </trkpt>
      <trkpt lat="41.246470" lon="-5.507240">
        <ele>848.980</ele>
        <time>2022-02-26T18:18:16Z</time>
      </trkpt>
      <trkpt lat="41.246550" lon="-5.507370">
        <ele>850.021</ele>
        <time>2022-02-26T18:18:56Z</time>
      </trkpt>
      <trkpt lat="41.246590" lon="-5.507420">
        <ele>850.413</ele>
        <time>2022-02-26T18:19:36Z</time>
      </trkpt>
      <trkpt lat="41.246690" lon="-5.507580">
        <ele>851.154</ele>
        <time>2022-02-26T18:20:16Z</time>
      </trkpt>
      <trkpt lat="41.246710" lon="-5.507600">
        <ele>851.156</ele>
        <time>2022-02-26T18:20:56Z</time>
      </trkpt>
      <trkpt lat="41.246730" lon="-5.507700">
        <ele>851.111</ele>
        <time>2022-02-26T18:21:36Z</time>
      </trkpt>
      <trkpt lat="41.246810" lon="-5.507820">
        <ele>850.908</ele>
        <time>2022-02-26T18:22:16Z</time>
      </trkpt>
      <trkpt lat="41.246960" lon="-5.508060">
        <ele>850.954</ele>
        <time>2022-02-26T18:22:56Z</time>
      </trkpt>
      <trkpt lat="41.247130" lon="-5.508290">
        <ele>849.581</ele>
        <time>2022-02-26T18:23:36Z</time>
      </trkpt>
      <trkpt lat="41.247280" lon="-5.508500">
        <ele>849.285</ele>
        <time>2022-02-26T18:24:16Z</time>
      </trkpt>
      <trkpt lat="41.247300" lon="-5.508530">
        <ele>849.134</ele>
        <time>2022-02-26T18:24:56Z</time>
      </trkpt>
      <trkpt lat="41.247420" lon="-5.508660">
        <ele>848.853</ele>
        <time>2022-02-26T18:25:36Z</time>
      </trkpt>
      <trkpt lat="41.247460" lon="-5.508700">
        <ele>848.834</ele>
        <time>2022-02-26T18:26:16Z</time>
      </trkpt>
      <trkpt lat="41.247560" lon="-5.508800">
        <ele>849.415</ele>
        <time>2022-02-26T18:26:56Z</time>
      </trkpt>
      <trkpt lat="41.247710" lon="-5.508950">
        <ele>850.497</ele>
        <time>2022-02-26T18:27:36Z</time>
      </trkpt>
      <trkpt lat="41.247780" lon="-5.509000">
        <ele>850.894</ele>
        <time>2022-02-26T18:28:16Z</time>
      </trkpt>
      <trkpt lat="41.247850" lon="-5.509060">
        <ele>851.457</ele>
        <time>2022-02-26T18:28:56Z</time>
      </trkpt>
      <trkpt lat="41.247860" lon="-5.509070">
        <ele>851.522</ele>
        <time>2022-02-26T18:29:36Z</time>
      </trkpt>
      <trkpt lat="41.247910" lon="-5.509110">
        <ele>852.008</ele>
        <time>2022-02-26T18:30:16Z</time>
      </trkpt>
      <trkpt lat="41.248040" lon="-5.509200">
        <ele>853.358</ele>
        <time>2022-02-26T18:30:56Z</time>
      </trkpt>
      <trkpt lat="41.248050" lon="-5.509210">
        <ele>853.475</ele>
        <time>2022-02-26T18:31:36Z</time>
      </trkpt>
      <trkpt lat="41.248130" lon="-5.509250">
        <ele>854.429</ele>
        <time>2022-02-26T18:32:16Z</time>
      </trkpt>
      <trkpt lat="41.248180" lon="-5.509290">
        <ele>855.088</ele>
        <time>2022-02-26T18:32:56Z</time>
      </trkpt>
      <trkpt lat="41.248200" lon="-5.509300">
        <ele>855.267</ele>
        <time>2022-02-26T18:33:36Z</time>
      </trkpt>
      <trkpt lat="41.248360" lon="-5.509390">
        <ele>856.598</ele>
        <time>2022-02-26T18:34:16Z</time>
      </trkpt>
      <trkpt lat="41.248550" lon="-5.509520">
        <ele>856.229</ele>
        <time>2022-02-26T18:34:56Z</time>
      </trkpt>
      <trkpt lat="41.248570" lon="-5.509530">
        <ele>856.141</ele>
        <time>2022-02-26T18:35:36Z</time>
      </trkpt>
      <trkpt lat="41.248600" lon="-5.509540">
        <ele>856.077</ele>
        <time>2022-02-26T18:36:16Z</time>
      </trkpt>
      <trkpt lat="41.248670" lon="-5.509580">
        <ele>855.561</ele>
        <time>2022-02-26T18:36:56Z</time>
      </trkpt>
      <trkpt lat="41.248750" lon="-5.509620">
        <ele>854.727</ele>
        <time>2022-02-26T18:37:36Z</time>
      </trkpt>
      <trkpt lat="41.248840" lon="-5.509670">
        <ele>853.708</ele>
        <time>2022-02-26T18:38:16Z</time>
      </trkpt>
      <trkpt lat="41.248920" lon="-5.509710">
        <ele>852.936</ele>
        <time>2022-02-26T18:38:56Z</time>
      </trkpt>
      <trkpt lat="41.249000" lon="-5.509760">
        <ele>852.463</ele>
        <time>2022-02-26T18:39:36Z</time>
      </trkpt>
      <trkpt lat="41.249170" lon="-5.509870">
        <ele>850.997</ele>
        <time>2022-02-26T18:40:16Z</time>
      </trkpt>
      <trkpt lat="41.249180" lon="-5.509880">
        <ele>850.826</ele>
        <time>2022-02-26T18:40:56Z</time>
      </trkpt>
      <trkpt lat="41.249330" lon="-5.509960">
        <ele>849.755</ele>
        <time>2022-02-26T18:41:36Z</time>
      </trkpt>
      <trkpt lat="41.249450" lon="-5.510030">
        <ele>848.646</ele>
        <time>2022-02-26T18:42:16Z</time>
      </trkpt>
      <trkpt lat="41.249730" lon="-5.510200">
        <ele>844.517</ele>
        <time>2022-02-26T18:42:56Z</time>
      </trkpt>
      <trkpt lat="41.249830" lon="-5.510240">
        <ele>843.569</ele>
        <time>2022-02-26T18:43:36Z</time>
      </trkpt>
      <trkpt lat="41.250000" lon="-5.510330">
        <ele>841.841</ele>
        <time>2022-02-26T18:44:16Z</time>
      </trkpt>
      <trkpt lat="41.250010" lon="-5.510340">
        <ele>841.781</ele>
        <time>2022-02-26T18:44:56Z</time>
      </trkpt>
      <trkpt lat="41.250160" lon="-5.510410">
        <ele>840.709</ele>
        <time>2022-02-26T18:45:36Z</time>
      </trkpt>
      <trkpt lat="41.250170" lon="-5.510420">
        <ele>840.608</ele>
        <time>2022-02-26T18:46:16Z</time>
      </trkpt>
      <trkpt lat="41.250220" lon="-5.510430">
        <ele>840.263</ele>
        <time>2022-02-26T18:46:56Z</time>
      </trkpt>
      <trkpt lat="41.250290" lon="-5.510460">
        <ele>839.620</ele>
        <time>2022-02-26T18:47:36Z</time>
      </trkpt>
      <trkpt lat="41.250340" lon="-5.510470">
        <ele>839.144</ele>
        <time>2022-02-26T18:48:16Z</time>
      </trkpt>
      <trkpt lat="41.250560" lon="-5.510530">
        <ele>837.143</ele>
        <time>2022-02-26T18:48:56Z</time>
      </trkpt>
      <trkpt lat="41.250620" lon="-5.510540">
        <ele>836.882</ele>
        <time>2022-02-26T18:49:36Z</time>
      </trkpt>
      <trkpt lat="41.250690" lon="-5.510550">
        <ele>836.563</ele>
        <time>2022-02-26T18:50:16Z</time>
      </trkpt>
      <trkpt lat="41.250870" lon="-5.510570">
        <ele>835.944</ele>
        <time>2022-02-26T18:50:56Z</time>
      </trkpt>
      <trkpt lat="41.250990" lon="-5.510590">
        <ele>835.526</ele>
        <time>2022-02-26T18:51:36Z</time>
      </trkpt>
      <trkpt lat="41.251050" lon="-5.510600">
        <ele>835.399</ele>
        <time>2022-02-26T18:52:16Z</time>
      </trkpt>
      <trkpt lat="41.251130" lon="-5.510610">
        <ele>835.307</ele>
        <time>2022-02-26T18:52:56Z</time>
      </trkpt>
      <trkpt lat="41.251210" lon="-5.510610">
        <ele>835.627</ele>
        <time>2022-02-26T18:53:36Z</time>
      </trkpt>
      <trkpt lat="41.251230" lon="-5.510610">
        <ele>835.608</ele>
        <time>2022-02-26T18:54:16Z</time>
      </trkpt>
      <trkpt lat="41.251530" lon="-5.510630">
        <ele>835.198</ele>
        <time>2022-02-26T18:54:56Z</time>
      </trkpt>
      <trkpt lat="41.251770" lon="-5.510660">
        <ele>833.495</ele>
        <time>2022-02-26T18:55:36Z</time>
      </trkpt>
      <trkpt lat="41.251830" lon="-5.510670">
        <ele>833.119</ele>
        <time>2022-02-26T18:56:16Z</time>
      </trkpt>
      <trkpt lat="41.251950" lon="-5.510700">
        <ele>832.558</ele>
        <time>2022-02-26T18:56:56Z</time>
      </trkpt>
      <trkpt lat="41.252020" lon="-5.510720">
        <ele>832.587</ele>
        <time>2022-02-26T18:57:36Z</time>
      </trkpt>
      <trkpt lat="41.252100" lon="-5.510740">
        <ele>832.548</ele>
        <time>2022-02-26T18:58:16Z</time>
      </trkpt>
      <trkpt lat="41.252180" lon="-5.510770">
        <ele>832.379</ele>
        <time>2022-02-26T18:58:56Z</time>
      </trkpt>
      <trkpt lat="41.252340" lon="-5.510840">
        <ele>832.961</ele>
        <time>2022-02-26T18:59:36Z</time>
      </trkpt>
      <trkpt lat="41.252410" lon="-5.510870">
        <ele>833.624</ele>
        <time>2022-02-26T19:00:16Z</time>
      </trkpt>
      <trkpt lat="41.252490" lon="-5.510920">
        <ele>834.504</ele>
        <time>2022-02-26T19:00:56Z</time>
      </trkpt>
      <trkpt lat="41.252560" lon="-5.510960">
        <ele>835.414</ele>
        <time>2022-02-26T19:01:36Z</time>
      </trkpt>
      <trkpt lat="41.252640" lon="-5.511010">
        <ele>836.608</ele>
        <time>2022-02-26T19:02:16Z</time>
      </trkpt>
      <trkpt lat="41.252790" lon="-5.511110">
        <ele>838.961</ele>
        <time>2022-02-26T19:02:56Z</time>
      </trkpt>
      <trkpt lat="41.252860" lon="-5.511170">
        <ele>839.198</ele>
        <time>2022-02-26T19:03:36Z</time>
      </trkpt>
      <trkpt lat="41.252920" lon="-5.511220">
        <ele>839.312</ele>
        <time>2022-02-26T19:04:16Z</time>
      </trkpt>
      <trkpt lat="41.252990" lon="-5.511300">
        <ele>839.651</ele>
        <time>2022-02-26T19:04:56Z</time>
      </trkpt>
      <trkpt lat="41.253170" lon="-5.511500">
        <ele>839.220</ele>
        <time>2022-02-26T19:05:36Z</time>
      </trkpt>
      <trkpt lat="41.253290" lon="-5.511660">
        <ele>838.391</ele>
        <time>2022-02-26T19:06:16Z</time>
      </trkpt>
      <trkpt lat="41.253330" lon="-5.511730">
        <ele>838.012</ele>
        <time>2022-02-26T19:06:56Z</time>
      </trkpt>
      <trkpt lat="41.253340" lon="-5.511740">
        <ele>838.014</ele>
        <time>2022-02-26T19:07:36Z</time>
      </trkpt>
      <trkpt lat="41.253380" lon="-5.511830">
        <ele>837.951</ele>
        <time>2022-02-26T19:08:16Z</time>
      </trkpt>
      <trkpt lat="41.253430" lon="-5.511910">
        <ele>838.001</ele>
        <time>2022-02-26T19:08:56Z</time>
      </trkpt>
      <trkpt lat="41.253480" lon="-5.512000">
        <ele>838.011</ele>
        <time>2022-02-26T19:09:36Z</time>
      </trkpt>
      <trkpt lat="41.253520" lon="-5.512100">
        <ele>838.008</ele>
        <time>2022-02-26T19:10:16Z</time>
      </trkpt>
      <trkpt lat="41.253530" lon="-5.512120">
        <ele>838.064</ele>
        <time>2022-02-26T19:10:56Z</time>
      </trkpt>
      <trkpt lat="41.253560" lon="-5.512180">
        <ele>838.071</ele>
        <time>2022-02-26T19:11:36Z</time>
      </trkpt>
      <trkpt lat="41.253600" lon="-5.512270">
        <ele>838.035</ele>
        <time>2022-02-26T19:12:16Z</time>
      </trkpt>
      <trkpt lat="41.253630" lon="-5.512360">
        <ele>838.024</ele>
        <time>2022-02-26T19:12:56Z</time>
      </trkpt>
      <trkpt lat="41.253670" lon="-5.512450">
        <ele>838.013</ele>
        <time>2022-02-26T19:13:36Z</time>
      </trkpt>
      <trkpt lat="41.253700" lon="-5.512540">
        <ele>838.044</ele>
        <time>2022-02-26T19:14:16Z</time>
      </trkpt>
      <trkpt lat="41.253760" lon="-5.512740">
        <ele>838.095</ele>
        <time>2022-02-26T19:14:56Z</time>
      </trkpt>
      <trkpt lat="41.253830" lon="-5.513030">
        <ele>837.317</ele>
        <time>2022-02-26T19:15:36Z</time>
      </trkpt>
      <trkpt lat="41.253880" lon="-5.513220">
        <ele>837.022</ele>
        <time>2022-02-26T19:16:16Z</time>
      </trkpt>
      <trkpt lat="41.253940" lon="-5.513440">
        <ele>836.862</ele>
        <time>2022-02-26T19:16:56Z</time>
      </trkpt>
      <trkpt lat="41.253980" lon="-5.513590">
        <ele>836.708</ele>
        <time>2022-02-26T19:17:36Z</time>
      </trkpt>
      <trkpt lat="41.254120" lon="-5.514150">
        <ele>837.308</ele>
        <time>2022-02-26T19:18:16Z</time>
      </trkpt>
      <trkpt lat="41.254180" lon="-5.514340">
        <ele>837.681</ele>
        <time>2022-02-26T19:18:56Z</time>
      </trkpt>
      <trkpt lat="41.254210" lon="-5.514440">
        <ele>838.018</ele>
        <time>2022-02-26T19:19:36Z</time>
      </trkpt>
      <trkpt lat="41.254240" lon="-5.514530">
        <ele>838.362</ele>
        <time>2022-02-26T19:20:16Z</time>
      </trkpt>
      <trkpt lat="41.254260" lon="-5.514560">
        <ele>838.461</ele>
        <time>2022-02-26T19:20:56Z</time>
      </trkpt>
      <trkpt lat="41.254290" lon="-5.514630">
        <ele>838.720</ele>
        <time>2022-02-26T19:21:36Z</time>
      </trkpt>
      <trkpt lat="41.254320" lon="-5.514730">
        <ele>839.091</ele>
        <time>2022-02-26T19:22:16Z</time>
      </trkpt>
      <trkpt lat="41.254360" lon="-5.514820">
        <ele>839.462</ele>
        <time>2022-02-26T19:22:56Z</time>
      </trkpt>
      <trkpt lat="41.254410" lon="-5.514910">
        <ele>839.744</ele>
        <time>2022-02-26T19:23:36Z</time>
      </trkpt>
      <trkpt lat="41.254450" lon="-5.515010">
        <ele>839.958</ele>
        <time>2022-02-26T19:24:16Z</time>
      </trkpt>
      <trkpt lat="41.254470" lon="-5.515060">
        <ele>839.752</ele>
        <time>2022-02-26T19:24:56Z</time>
      </trkpt>
      <trkpt lat="41.254490" lon="-5.515090">
        <ele>839.617</ele>
        <time>2022-02-26T19:25:36Z</time>
      </trkpt>
      <trkpt lat="41.254540" lon="-5.515180">
        <ele>839.208</ele>
        <time>2022-02-26T19:26:16Z</time>
      </trkpt>
      <trkpt lat="41.254600" lon="-5.515280">
        <ele>839.014</ele>
        <time>2022-02-26T19:26:56Z</time>
      </trkpt>
      <trkpt lat="41.254650" lon="-5.515350">
        <ele>838.331</ele>
        <time>2022-02-26T19:27:36Z</time>
      </trkpt>
      <trkpt lat="41.254940" lon="-5.515780">
        <ele>833.445</ele>
        <time>2022-02-26T19:28:16Z</time>
      </trkpt>
      <trkpt lat="41.254940" lon="-5.515790">
        <ele>833.454</ele>
        <time>2022-02-26T19:28:56Z</time>
      </trkpt>
      <trkpt lat="41.255300" lon="-5.516340">
        <ele>831.243</ele>
        <time>2022-02-26T19:29:36Z</time>
      </trkpt>
      <trkpt lat="41.255360" lon="-5.516440">
        <ele>830.984</ele>
        <time>2022-02-26T19:30:16Z</time>
      </trkpt>
      <trkpt lat="41.255410" lon="-5.516540">
        <ele>830.585</ele>
        <time>2022-02-26T19:30:56Z</time>
      </trkpt>
      <trkpt lat="41.255520" lon="-5.516740">
        <ele>829.247</ele>
        <time>2022-02-26T19:31:36Z</time>
      </trkpt>
      <trkpt lat="41.255620" lon="-5.516970">
        <ele>828.873</ele>
        <time>2022-02-26T19:32:16Z</time>
      </trkpt>
      <trkpt lat="41.255710" lon="-5.517200">
        <ele>828.485</ele>
        <time>2022-02-26T19:32:56Z</time>
      </trkpt>
      <trkpt lat="41.255780" lon="-5.517450">
        <ele>828.313</ele>
        <time>2022-02-26T19:33:36Z</time>
      </trkpt>
      <trkpt lat="41.255820" lon="-5.517550">
        <ele>828.108</ele>
        <time>2022-02-26T19:34:16Z</time>
      </trkpt>
      <trkpt lat="41.255960" lon="-5.518130">
        <ele>824.036</ele>
        <time>2022-02-26T19:34:56Z</time>
      </trkpt>
      <trkpt lat="41.255990" lon="-5.518260">
        <ele>823.183</ele>
        <time>2022-02-26T19:35:36Z</time>
      </trkpt>
      <trkpt lat="41.256070" lon="-5.518580">
        <ele>821.847</ele>
        <time>2022-02-26T19:36:16Z</time>
      </trkpt>
      <trkpt lat="41.256130" lon="-5.518810">
        <ele>821.476</ele>
        <time>2022-02-26T19:36:56Z</time>
      </trkpt>
      <trkpt lat="41.256230" lon="-5.519100">
        <ele>820.825</ele>
        <time>2022-02-26T19:37:36Z</time>
      </trkpt>
      <trkpt lat="41.256340" lon="-5.519350">
        <ele>819.546</ele>
        <time>2022-02-26T19:38:16Z</time>
      </trkpt>
      <trkpt lat="41.256430" lon="-5.519520">
        <ele>818.747</ele>
        <time>2022-02-26T19:38:56Z</time>
      </trkpt>
      <trkpt lat="41.256550" lon="-5.519740">
        <ele>817.339</ele>
        <time>2022-02-26T19:39:36Z</time>
      </trkpt>
      <trkpt lat="41.256560" lon="-5.519750">
        <ele>817.264</ele>
        <time>2022-02-26T19:40:16Z</time>
      </trkpt>
      <trkpt lat="41.256630" lon="-5.519860">
        <ele>816.206</ele>
        <time>2022-02-26T19:40:56Z</time>
      </trkpt>
      <trkpt lat="41.256670" lon="-5.519920">
        <ele>815.616</ele>
        <time>2022-02-26T19:41:36Z</time>
      </trkpt>
      <trkpt lat="41.256680" lon="-5.519940">
        <ele>815.408</ele>
        <time>2022-02-26T19:42:16Z</time>
      </trkpt>
      <trkpt lat="41.256780" lon="-5.520070">
        <ele>814.575</ele>
        <time>2022-02-26T19:42:56Z</time>
      </trkpt>
      <trkpt lat="41.256860" lon="-5.520170">
        <ele>813.582</ele>
        <time>2022-02-26T19:43:36Z</time>
      </trkpt>
      <trkpt lat="41.256990" lon="-5.520320">
        <ele>812.316</ele>
        <time>2022-02-26T19:44:16Z</time>
      </trkpt>
      <trkpt lat="41.257020" lon="-5.520360">
        <ele>812.485</ele>
        <time>2022-02-26T19:44:56Z</time>
      </trkpt>
      <trkpt lat="41.257460" lon="-5.520830">
        <ele>811.064</ele>
        <time>2022-02-26T19:45:36Z</time>
      </trkpt>
      <trkpt lat="41.257620" lon="-5.521010">
        <ele>810.045</ele>
        <time>2022-02-26T19:46:16Z</time>
      </trkpt>
      <trkpt lat="41.257850" lon="-5.521240">
        <ele>809.066</ele>
        <time>2022-02-26T19:46:56Z</time>
      </trkpt>
      <trkpt lat="41.258100" lon="-5.521470">
        <ele>806.038</ele>
        <time>2022-02-26T19:47:36Z</time>
      </trkpt>
      <trkpt lat="41.258700" lon="-5.521960">
        <ele>800.344</ele>
        <time>2022-02-26T19:48:16Z</time>
      </trkpt>
      <trkpt lat="41.258720" lon="-5.521980">
        <ele>800.105</ele>
        <time>2022-02-26T19:48:56Z</time>
      </trkpt>
      <trkpt lat="41.258820" lon="-5.522070">
        <ele>799.415</ele>
        <time>2022-02-26T19:49:36Z</time>
      </trkpt>
      <trkpt lat="41.258870" lon="-5.522110">
        <ele>799.108</ele>
        <time>2022-02-26T19:50:16Z</time>
      </trkpt>
      <trkpt lat="41.259020" lon="-5.522250">
        <ele>797.513</ele>
        <time>2022-02-26T19:50:56Z</time>
      </trkpt>
      <trkpt lat="41.259340" lon="-5.522530">
        <ele>795.420</ele>
        <time>2022-02-26T19:51:36Z</time>
      </trkpt>
      <trkpt lat="41.259470" lon="-5.522660">
        <ele>795.764</ele>
        <time>2022-02-26T19:52:16Z</time>
      </trkpt>
      <trkpt lat="41.259480" lon="-5.522670">
        <ele>795.723</ele>
        <time>2022-02-26T19:52:56Z</time>
      </trkpt>
      <trkpt lat="41.259760" lon="-5.522930">
        <ele>796.592</ele>
        <time>2022-02-26T19:53:36Z</time>
      </trkpt>
      <trkpt lat="41.259800" lon="-5.522960">
        <ele>796.633</ele>
        <time>2022-02-26T19:54:16Z</time>
      </trkpt>
      <trkpt lat="41.259930" lon="-5.523070">
        <ele>796.394</ele>
        <time>2022-02-26T19:54:56Z</time>
      </trkpt>
      <trkpt lat="41.260070" lon="-5.523180">
        <ele>795.476</ele>
        <time>2022-02-26T19:55:36Z</time>
      </trkpt>
      <trkpt lat="41.260220" lon="-5.523300">
        <ele>794.371</ele>
        <time>2022-02-26T19:56:16Z</time>
      </trkpt>
      <trkpt lat="41.260330" lon="-5.523380">
        <ele>794.041</ele>
        <time>2022-02-26T19:56:56Z</time>
      </trkpt>
      <trkpt lat="41.260380" lon="-5.523410">
        <ele>793.915</ele>
        <time>2022-02-26T19:57:36Z</time>
      </trkpt>
      <trkpt lat="41.260540" lon="-5.523510">
        <ele>793.708</ele>
        <time>2022-02-26T19:58:16Z</time>
      </trkpt>
      <trkpt lat="41.260710" lon="-5.523620">
        <ele>793.566</ele>
        <time>2022-02-26T19:58:56Z</time>
      </trkpt>
      <trkpt lat="41.260730" lon="-5.523630">
        <ele>793.573</ele>
        <time>2022-02-26T19:59:36Z</time>
      </trkpt>
      <trkpt lat="41.260800" lon="-5.523660">
        <ele>793.537</ele>
        <time>2022-02-26T20:00:16Z</time>
      </trkpt>
      <trkpt lat="41.260960" lon="-5.523750">
        <ele>794.546</ele>
        <time>2022-02-26T20:00:56Z</time>
      </trkpt>
      <trkpt lat="41.261460" lon="-5.524020">
        <ele>797.995</ele>
        <time>2022-02-26T20:01:36Z</time>
      </trkpt>
      <trkpt lat="41.262150" lon="-5.524390">
        <ele>804.016</ele>
        <time>2022-02-26T20:02:16Z</time>
      </trkpt>
      <trkpt lat="41.262460" lon="-5.524600">
        <ele>807.887</ele>
        <time>2022-02-26T20:02:56Z</time>
      </trkpt>
      <trkpt lat="41.262670" lon="-5.524780">
        <ele>809.499</ele>
        <time>2022-02-26T20:03:36Z</time>
      </trkpt>
      <trkpt lat="41.262770" lon="-5.524870">
        <ele>810.123</ele>
        <time>2022-02-26T20:04:16Z</time>
      </trkpt>
      <trkpt lat="41.262880" lon="-5.525000">
        <ele>811.483</ele>
        <time>2022-02-26T20:04:56Z</time>
      </trkpt>
      <trkpt lat="41.262960" lon="-5.525110">
        <ele>812.211</ele>
        <time>2022-02-26T20:05:36Z</time>
      </trkpt>
      <trkpt lat="41.263010" lon="-5.525190">
        <ele>812.608</ele>
        <time>2022-02-26T20:06:16Z</time>
      </trkpt>
      <trkpt lat="41.263060" lon="-5.525280">
        <ele>813.011</ele>
        <time>2022-02-26T20:06:56Z</time>
      </trkpt>
      <trkpt lat="41.263120" lon="-5.525380">
        <ele>814.288</ele>
        <time>2022-02-26T20:07:36Z</time>
      </trkpt>
      <trkpt lat="41.263240" lon="-5.525620">
        <ele>816.632</ele>
        <time>2022-02-26T20:08:16Z</time>
      </trkpt>
      <trkpt lat="41.263410" lon="-5.525990">
        <ele>819.081</ele>
        <time>2022-02-26T20:08:56Z</time>
      </trkpt>
      <trkpt lat="41.263410" lon="-5.526000">
        <ele>819.090</ele>
        <time>2022-02-26T20:09:36Z</time>
      </trkpt>
      <trkpt lat="41.263490" lon="-5.526200">
        <ele>819.411</ele>
        <time>2022-02-26T20:10:16Z</time>
      </trkpt>
      <trkpt lat="41.263580" lon="-5.526410">
        <ele>819.032</ele>
        <time>2022-02-26T20:10:56Z</time>
      </trkpt>
      <trkpt lat="41.263670" lon="-5.526620">
        <ele>819.044</ele>
        <time>2022-02-26T20:11:36Z</time>
      </trkpt>
      <trkpt lat="41.263750" lon="-5.526830">
        <ele>818.739</ele>
        <time>2022-02-26T20:12:16Z</time>
      </trkpt>
      <trkpt lat="41.263900" lon="-5.527260">
        <ele>819.001</ele>
        <time>2022-02-26T20:12:56Z</time>
      </trkpt>
      <trkpt lat="41.263990" lon="-5.527590">
        <ele>818.521</ele>
        <time>2022-02-26T20:13:36Z</time>
      </trkpt>
      <trkpt lat="41.264010" lon="-5.527710">
        <ele>818.608</ele>
        <time>2022-02-26T20:14:16Z</time>
      </trkpt>
      <trkpt lat="41.264050" lon="-5.527950">
        <ele>817.652</ele>
        <time>2022-02-26T20:14:56Z</time>
      </trkpt>
      <trkpt lat="41.264060" lon="-5.527990">
        <ele>817.459</ele>
        <time>2022-02-26T20:15:36Z</time>
      </trkpt>
      <trkpt lat="41.264080" lon="-5.528180">
        <ele>816.593</ele>
        <time>2022-02-26T20:16:16Z</time>
      </trkpt>
      <trkpt lat="41.264090" lon="-5.528250">
        <ele>816.292</ele>
        <time>2022-02-26T20:16:56Z</time>
      </trkpt>
      <trkpt lat="41.264100" lon="-5.528420">
        <ele>815.871</ele>
        <time>2022-02-26T20:17:36Z</time>
      </trkpt>
      <trkpt lat="41.264100" lon="-5.528470">
        <ele>815.662</ele>
        <time>2022-02-26T20:18:16Z</time>
      </trkpt>
      <trkpt lat="41.264100" lon="-5.528640">
        <ele>815.393</ele>
        <time>2022-02-26T20:18:56Z</time>
      </trkpt>
      <trkpt lat="41.264090" lon="-5.528810">
        <ele>815.755</ele>
        <time>2022-02-26T20:19:36Z</time>
      </trkpt>
      <trkpt lat="41.264070" lon="-5.528960">
        <ele>816.068</ele>
        <time>2022-02-26T20:20:16Z</time>
      </trkpt>
      <trkpt lat="41.264040" lon="-5.529130">
        <ele>816.442</ele>
        <time>2022-02-26T20:20:56Z</time>
      </trkpt>
      <trkpt lat="41.264040" lon="-5.529150">
        <ele>816.426</ele>
        <time>2022-02-26T20:21:36Z</time>
      </trkpt>
      <trkpt lat="41.263830" lon="-5.530060">
        <ele>813.308</ele>
        <time>2022-02-26T20:22:16Z</time>
      </trkpt>
      <trkpt lat="41.263790" lon="-5.530280">
        <ele>813.245</ele>
        <time>2022-02-26T20:22:56Z</time>
      </trkpt>
      <trkpt lat="41.263750" lon="-5.530460">
        <ele>813.532</ele>
        <time>2022-02-26T20:23:36Z</time>
      </trkpt>
      <trkpt lat="41.263720" lon="-5.530660">
        <ele>813.226</ele>
        <time>2022-02-26T20:24:16Z</time>
      </trkpt>
      <trkpt lat="41.263710" lon="-5.530910">
        <ele>811.685</ele>
        <time>2022-02-26T20:24:56Z</time>
      </trkpt>
      <trkpt lat="41.263700" lon="-5.531070">
        <ele>810.484</ele>
        <time>2022-02-26T20:25:36Z</time>
      </trkpt>
      <trkpt lat="41.263700" lon="-5.531290">
        <ele>809.215</ele>
        <time>2022-02-26T20:26:16Z</time>
      </trkpt>
      <trkpt lat="41.263710" lon="-5.531490">
        <ele>808.496</ele>
        <time>2022-02-26T20:26:56Z</time>
      </trkpt>
      <trkpt lat="41.263730" lon="-5.531660">
        <ele>808.078</ele>
        <time>2022-02-26T20:27:36Z</time>
      </trkpt>
      <trkpt lat="41.263730" lon="-5.531700">
        <ele>807.973</ele>
        <time>2022-02-26T20:28:16Z</time>
      </trkpt>
      <trkpt lat="41.263760" lon="-5.531870">
        <ele>807.385</ele>
        <time>2022-02-26T20:28:56Z</time>
      </trkpt>
      <trkpt lat="41.263770" lon="-5.531930">
        <ele>807.113</ele>
        <time>2022-02-26T20:29:36Z</time>
      </trkpt>
      <trkpt lat="41.263810" lon="-5.532080">
        <ele>806.208</ele>
        <time>2022-02-26T20:30:16Z</time>
      </trkpt>
      <trkpt lat="41.263830" lon="-5.532160">
        <ele>805.666</ele>
        <time>2022-02-26T20:30:56Z</time>
      </trkpt>
      <trkpt lat="41.263880" lon="-5.532320">
        <ele>805.023</ele>
        <time>2022-02-26T20:31:36Z</time>
      </trkpt>
      <trkpt lat="41.263930" lon="-5.532470">
        <ele>804.957</ele>
        <time>2022-02-26T20:32:16Z</time>
      </trkpt>
      <trkpt lat="41.263980" lon="-5.532590">
        <ele>804.756</ele>
        <time>2022-02-26T20:32:56Z</time>
      </trkpt>
      <trkpt lat="41.263990" lon="-5.532630">
        <ele>804.615</ele>
        <time>2022-02-26T20:33:36Z</time>
      </trkpt>
      <trkpt lat="41.264060" lon="-5.532770">
        <ele>804.456</ele>
        <time>2022-02-26T20:34:16Z</time>
      </trkpt>
      <trkpt lat="41.264070" lon="-5.532800">
        <ele>804.457</ele>
        <time>2022-02-26T20:34:56Z</time>
      </trkpt>
      <trkpt lat="41.264190" lon="-5.532990">
        <ele>804.029</ele>
        <time>2022-02-26T20:35:36Z</time>
      </trkpt>
      <trkpt lat="41.264220" lon="-5.533020">
        <ele>804.072</ele>
        <time>2022-02-26T20:36:16Z</time>
      </trkpt>
      <trkpt lat="41.264650" lon="-5.533720">
        <ele>803.413</ele>
        <time>2022-02-26T20:36:56Z</time>
      </trkpt>
      <trkpt lat="41.264760" lon="-5.533900">
        <ele>801.814</ele>
        <time>2022-02-26T20:37:36Z</time>
      </trkpt>
      <trkpt lat="41.264870" lon="-5.534090">
        <ele>800.008</ele>
        <time>2022-02-26T20:38:16Z</time>
      </trkpt>
      <trkpt lat="41.265950" lon="-5.535850">
        <ele>794.926</ele>
        <time>2022-02-26T20:38:56Z</time>
      </trkpt>
      <trkpt lat="41.266060" lon="-5.536020">
        <ele>793.763</ele>
        <time>2022-02-26T20:39:36Z</time>
      </trkpt>
      <trkpt lat="41.266420" lon="-5.536590">
        <ele>791.917</ele>
        <time>2022-02-26T20:40:16Z</time>
      </trkpt>
      <trkpt lat="41.266530" lon="-5.536770">
        <ele>791.776</ele>
        <time>2022-02-26T20:40:56Z</time>
      </trkpt>
      <trkpt lat="41.266610" lon="-5.536890">
        <ele>791.845</ele>
        <time>2022-02-26T20:41:36Z</time>
      </trkpt>
      <trkpt lat="41.266650" lon="-5.536950">
        <ele>792.096</ele>
        <time>2022-02-26T20:42:16Z</time>
      </trkpt>
      <trkpt lat="41.266690" lon="-5.537000">
        <ele>791.977</ele>
        <time>2022-02-26T20:42:56Z</time>
      </trkpt>
      <trkpt lat="41.266770" lon="-5.537120">
        <ele>791.629</ele>
        <time>2022-02-26T20:43:36Z</time>
      </trkpt>
      <trkpt lat="41.266850" lon="-5.537240">
        <ele>791.325</ele>
        <time>2022-02-26T20:44:16Z</time>
      </trkpt>
      <trkpt lat="41.266890" lon="-5.537300">
        <ele>791.126</ele>
        <time>2022-02-26T20:44:56Z</time>
      </trkpt>
      <trkpt lat="41.267140" lon="-5.537660">
        <ele>790.108</ele>
        <time>2022-02-26T20:45:36Z</time>
      </trkpt>
      <trkpt lat="41.267260" lon="-5.537830">
        <ele>790.008</ele>
        <time>2022-02-26T20:46:16Z</time>
      </trkpt>
      <trkpt lat="41.267530" lon="-5.538230">
        <ele>788.971</ele>
        <time>2022-02-26T20:46:56Z</time>
      </trkpt>
      <trkpt lat="41.267620" lon="-5.538360">
        <ele>788.768</ele>
        <time>2022-02-26T20:47:36Z</time>
      </trkpt>
      <trkpt lat="41.267620" lon="-5.538370">
        <ele>788.792</ele>
        <time>2022-02-26T20:48:16Z</time>
      </trkpt>
      <trkpt lat="41.267740" lon="-5.538540">
        <ele>788.911</ele>
        <time>2022-02-26T20:48:56Z</time>
      </trkpt>
      <trkpt lat="41.267860" lon="-5.538720">
        <ele>790.180</ele>
        <time>2022-02-26T20:49:36Z</time>
      </trkpt>
      <trkpt lat="41.268000" lon="-5.538940">
        <ele>792.071</ele>
        <time>2022-02-26T20:50:16Z</time>
      </trkpt>
      <trkpt lat="41.268110" lon="-5.539060">
        <ele>792.882</ele>
        <time>2022-02-26T20:50:56Z</time>
      </trkpt>
      <trkpt lat="41.268210" lon="-5.539170">
        <ele>793.644</ele>
        <time>2022-02-26T20:51:36Z</time>
      </trkpt>
      <trkpt lat="41.268390" lon="-5.539360">
        <ele>794.934</ele>
        <time>2022-02-26T20:52:16Z</time>
      </trkpt>
      <trkpt lat="41.268410" lon="-5.539380">
        <ele>795.055</ele>
        <time>2022-02-26T20:52:56Z</time>
      </trkpt>
      <trkpt lat="41.268590" lon="-5.539540">
        <ele>795.910</ele>
        <time>2022-02-26T20:53:36Z</time>
      </trkpt>
      <trkpt lat="41.268700" lon="-5.539620">
        <ele>796.308</ele>
        <time>2022-02-26T20:54:16Z</time>
      </trkpt>
      <trkpt lat="41.268810" lon="-5.539710">
        <ele>796.732</ele>
        <time>2022-02-26T20:54:56Z</time>
      </trkpt>
      <trkpt lat="41.268980" lon="-5.539800">
        <ele>797.669</ele>
        <time>2022-02-26T20:55:36Z</time>
      </trkpt>
      <trkpt lat="41.269140" lon="-5.539890">
        <ele>798.393</ele>
        <time>2022-02-26T20:56:16Z</time>
      </trkpt>
      <trkpt lat="41.269260" lon="-5.539950">
        <ele>798.852</ele>
        <time>2022-02-26T20:56:56Z</time>
      </trkpt>
      <trkpt lat="41.269310" lon="-5.539970">
        <ele>799.121</ele>
        <time>2022-02-26T20:57:36Z</time>
      </trkpt>
      <trkpt lat="41.269480" lon="-5.540020">
        <ele>800.232</ele>
        <time>2022-02-26T20:58:16Z</time>
      </trkpt>
      <trkpt lat="41.269630" lon="-5.540080">
        <ele>801.033</ele>
        <time>2022-02-26T20:58:56Z</time>
      </trkpt>
      <trkpt lat="41.269820" lon="-5.540110">
        <ele>801.445</ele>
        <time>2022-02-26T20:59:36Z</time>
      </trkpt>
      <trkpt lat="41.270200" lon="-5.540190">
        <ele>803.464</ele>
        <time>2022-02-26T21:00:16Z</time>
      </trkpt>
      <trkpt lat="41.270420" lon="-5.540240">
        <ele>805.506</ele>
        <time>2022-02-26T21:00:56Z</time>
      </trkpt>
      <trkpt lat="41.270690" lon="-5.540300">
        <ele>807.716</ele>
        <time>2022-02-26T21:01:36Z</time>
      </trkpt>
      <trkpt lat="41.271780" lon="-5.540600">
        <ele>825.708</ele>
        <time>2022-02-26T21:02:16Z</time>
      </trkpt>
      <trkpt lat="41.272050" lon="-5.540680">
        <ele>827.595</ele>
        <time>2022-02-26T21:02:56Z</time>
      </trkpt>
      <trkpt lat="41.272140" lon="-5.540700">
        <ele>828.142</ele>
        <time>2022-02-26T21:03:36Z</time>
      </trkpt>
      <trkpt lat="41.272310" lon="-5.540760">
        <ele>829.256</ele>
        <time>2022-02-26T21:04:16Z</time>
      </trkpt>
      <trkpt lat="41.272490" lon="-5.540810">
        <ele>830.035</ele>
        <time>2022-02-26T21:04:56Z</time>
      </trkpt>
      <trkpt lat="41.272660" lon="-5.540860">
        <ele>828.864</ele>
        <time>2022-02-26T21:05:36Z</time>
      </trkpt>
      <trkpt lat="41.273010" lon="-5.540970">
        <ele>826.745</ele>
        <time>2022-02-26T21:06:16Z</time>
      </trkpt>
      <trkpt lat="41.273190" lon="-5.541020">
        <ele>826.766</ele>
        <time>2022-02-26T21:06:56Z</time>
      </trkpt>
      <trkpt lat="41.273360" lon="-5.541070">
        <ele>826.858</ele>
        <time>2022-02-26T21:07:36Z</time>
      </trkpt>
      <trkpt lat="41.273820" lon="-5.541210">
        <ele>824.113</ele>
        <time>2022-02-26T21:08:16Z</time>
      </trkpt>
      <trkpt lat="41.274520" lon="-5.541440">
        <ele>819.843</ele>
        <time>2022-02-26T21:08:56Z</time>
      </trkpt>
      <trkpt lat="41.274870" lon="-5.541550">
        <ele>820.307</ele>
        <time>2022-02-26T21:09:36Z</time>
      </trkpt>
      <trkpt lat="41.274900" lon="-5.541560">
        <ele>820.408</ele>
        <time>2022-02-26T21:10:16Z</time>
      </trkpt>
      <trkpt lat="41.274950" lon="-5.541570">
        <ele>820.720</ele>
        <time>2022-02-26T21:10:56Z</time>
      </trkpt>
      <trkpt lat="41.275050" lon="-5.541600">
        <ele>820.637</ele>
        <time>2022-02-26T21:11:36Z</time>
      </trkpt>
      <trkpt lat="41.275150" lon="-5.541640">
        <ele>819.971</ele>
        <time>2022-02-26T21:12:16Z</time>
      </trkpt>
      <trkpt lat="41.275570" lon="-5.541770">
        <ele>820.150</ele>
        <time>2022-02-26T21:12:56Z</time>
      </trkpt>
      <trkpt lat="41.275750" lon="-5.541820">
        <ele>820.079</ele>
        <time>2022-02-26T21:13:36Z</time>
      </trkpt>
      <trkpt lat="41.276980" lon="-5.542200">
        <ele>820.930</ele>
        <time>2022-02-26T21:14:16Z</time>
      </trkpt>
      <trkpt lat="41.277150" lon="-5.542250">
        <ele>821.181</ele>
        <time>2022-02-26T21:14:56Z</time>
      </trkpt>
      <trkpt lat="41.277290" lon="-5.542300">
        <ele>821.553</ele>
        <time>2022-02-26T21:15:36Z</time>
      </trkpt>
      <trkpt lat="41.277330" lon="-5.542310">
        <ele>821.642</ele>
        <time>2022-02-26T21:16:16Z</time>
      </trkpt>
      <trkpt lat="41.277500" lon="-5.542370">
        <ele>822.022</ele>
        <time>2022-02-26T21:16:56Z</time>
      </trkpt>
      <trkpt lat="41.277650" lon="-5.542430">
        <ele>822.014</ele>
        <time>2022-02-26T21:17:36Z</time>
      </trkpt>
      <trkpt lat="41.277820" lon="-5.542530">
        <ele>822.008</ele>
        <time>2022-02-26T21:18:16Z</time>
      </trkpt>
      <trkpt lat="41.277980" lon="-5.542630">
        <ele>822.113</ele>
        <time>2022-02-26T21:18:56Z</time>
      </trkpt>
      <trkpt lat="41.278080" lon="-5.542690">
        <ele>822.220</ele>
        <time>2022-02-26T21:19:36Z</time>
      </trkpt>
      <trkpt lat="41.278300" lon="-5.542840">
        <ele>820.814</ele>
        <time>2022-02-26T21:20:16Z</time>
      </trkpt>
      <trkpt lat="41.279120" lon="-5.543360">
        <ele>814.083</ele>
        <time>2022-02-26T21:20:56Z</time>
      </trkpt>
      <trkpt lat="41.279280" lon="-5.543460">
        <ele>812.092</ele>
        <time>2022-02-26T21:21:36Z</time>
      </trkpt>
      <trkpt lat="41.279440" lon="-5.543560">
        <ele>810.273</ele>
        <time>2022-02-26T21:22:16Z</time>
      </trkpt>
      <trkpt lat="41.279770" lon="-5.543770">
        <ele>808.094</ele>
        <time>2022-02-26T21:22:56Z</time>
      </trkpt>
      <trkpt lat="41.280090" lon="-5.543970">
        <ele>805.426</ele>
        <time>2022-02-26T21:23:36Z</time>
      </trkpt>
      <trkpt lat="41.280310" lon="-5.544120">
        <ele>804.795</ele>
        <time>2022-02-26T21:24:16Z</time>
      </trkpt>
      <trkpt lat="41.280590" lon="-5.544290">
        <ele>804.349</ele>
        <time>2022-02-26T21:24:56Z</time>
      </trkpt>
      <trkpt lat="41.281020" lon="-5.544550">
        <ele>800.923</ele>
        <time>2022-02-26T21:25:36Z</time>
      </trkpt>
      <trkpt lat="41.281280" lon="-5.544740">
        <ele>798.908</ele>
        <time>2022-02-26T21:26:16Z</time>
      </trkpt>
      <trkpt lat="41.281460" lon="-5.544860">
        <ele>799.178</ele>
        <time>2022-02-26T21:26:56Z</time>
      </trkpt>
      <trkpt lat="41.281600" lon="-5.544970">
        <ele>800.555</ele>
        <time>2022-02-26T21:27:36Z</time>
      </trkpt>
      <trkpt lat="41.281870" lon="-5.545180">
        <ele>804.519</ele>
        <time>2022-02-26T21:28:16Z</time>
      </trkpt>
      <trkpt lat="41.282090" lon="-5.545400">
        <ele>806.978</ele>
        <time>2022-02-26T21:28:56Z</time>
      </trkpt>
      <trkpt lat="41.282210" lon="-5.545510">
        <ele>807.717</ele>
        <time>2022-02-26T21:29:36Z</time>
      </trkpt>
      <trkpt lat="41.282290" lon="-5.545580">
        <ele>807.958</ele>
        <time>2022-02-26T21:30:16Z</time>
      </trkpt>
      <trkpt lat="41.282440" lon="-5.545760">
        <ele>808.779</ele>
        <time>2022-02-26T21:30:56Z</time>
      </trkpt>
      <trkpt lat="41.282480" lon="-5.545820">
        <ele>809.031</ele>
        <time>2022-02-26T21:31:36Z</time>
      </trkpt>
      <trkpt lat="41.282610" lon="-5.545980">
        <ele>808.699</ele>
        <time>2022-02-26T21:32:16Z</time>
      </trkpt>
      <trkpt lat="41.282650" lon="-5.546030">
        <ele>808.507</ele>
        <time>2022-02-26T21:32:56Z</time>
      </trkpt>
      <trkpt lat="41.282860" lon="-5.546340">
        <ele>807.927</ele>
        <time>2022-02-26T21:33:36Z</time>
      </trkpt>
      <trkpt lat="41.283080" lon="-5.546670">
        <ele>807.908</ele>
        <time>2022-02-26T21:34:16Z</time>
      </trkpt>
      <trkpt lat="41.283550" lon="-5.547360">
        <ele>805.338</ele>
        <time>2022-02-26T21:34:56Z</time>
      </trkpt>
      <trkpt lat="41.283580" lon="-5.547410">
        <ele>805.115</ele>
        <time>2022-02-26T21:35:36Z</time>
      </trkpt>
      <trkpt lat="41.283680" lon="-5.547600">
        <ele>804.689</ele>
        <time>2022-02-26T21:36:16Z</time>
      </trkpt>
      <trkpt lat="41.283710" lon="-5.547650">
        <ele>804.588</ele>
        <time>2022-02-26T21:36:56Z</time>
      </trkpt>
      <trkpt lat="41.283810" lon="-5.547870">
        <ele>804.487</ele>
        <time>2022-02-26T21:37:36Z</time>
      </trkpt>
      <trkpt lat="41.283980" lon="-5.548280">
        <ele>802.928</ele>
        <time>2022-02-26T21:38:16Z</time>
      </trkpt>
      <trkpt lat="41.284040" lon="-5.548430">
        <ele>802.659</ele>
        <time>2022-02-26T21:38:56Z</time>
      </trkpt>
      <trkpt lat="41.284130" lon="-5.548640">
        <ele>803.021</ele>
        <time>2022-02-26T21:39:36Z</time>
      </trkpt>
      <trkpt lat="41.284140" lon="-5.548660">
        <ele>803.061</ele>
        <time>2022-02-26T21:40:16Z</time>
      </trkpt>
      <trkpt lat="41.284230" lon="-5.548840">
        <ele>802.121</ele>
        <time>2022-02-26T21:40:56Z</time>
      </trkpt>
      <trkpt lat="41.284330" lon="-5.549030">
        <ele>800.913</ele>
        <time>2022-02-26T21:41:36Z</time>
      </trkpt>
      <trkpt lat="41.284470" lon="-5.549290">
        <ele>799.808</ele>
        <time>2022-02-26T21:42:16Z</time>
      </trkpt>
      <trkpt lat="41.284560" lon="-5.549430">
        <ele>799.525</ele>
        <time>2022-02-26T21:42:56Z</time>
      </trkpt>
      <trkpt lat="41.284610" lon="-5.549490">
        <ele>799.652</ele>
        <time>2022-02-26T21:43:36Z</time>
      </trkpt>
      <trkpt lat="41.284740" lon="-5.549620">
        <ele>799.466</ele>
        <time>2022-02-26T21:44:16Z</time>
      </trkpt>
      <trkpt lat="41.284800" lon="-5.549680">
        <ele>798.865</ele>
        <time>2022-02-26T21:44:56Z</time>
      </trkpt>
      <trkpt lat="41.284990" lon="-5.549830">
        <ele>796.184</ele>
        <time>2022-02-26T21:45:36Z</time>
      </trkpt>
      <trkpt lat="41.285000" lon="-5.549840">
        <ele>796.095</ele>
        <time>2022-02-26T21:46:16Z</time>
      </trkpt>
      <trkpt lat="41.285120" lon="-5.549930">
        <ele>795.186</ele>
        <time>2022-02-26T21:46:56Z</time>
      </trkpt>
      <trkpt lat="41.285270" lon="-5.550030">
        <ele>794.218</ele>
        <time>2022-02-26T21:47:36Z</time>
      </trkpt>
      <trkpt lat="41.285480" lon="-5.550130">
        <ele>794.565</ele>
        <time>2022-02-26T21:48:16Z</time>
      </trkpt>
      <trkpt lat="41.285570" lon="-5.550180">
        <ele>794.468</ele>
        <time>2022-02-26T21:48:56Z</time>
      </trkpt>
      <trkpt lat="41.285810" lon="-5.550300">
        <ele>794.814</ele>
        <time>2022-02-26T21:49:36Z</time>
      </trkpt>
      <trkpt lat="41.286040" lon="-5.550420">
        <ele>794.908</ele>
        <time>2022-02-26T21:50:16Z</time>
      </trkpt>
      <trkpt lat="41.286150" lon="-5.550480">
        <ele>794.795</ele>
        <time>2022-02-26T21:50:56Z</time>
      </trkpt>
      <trkpt lat="41.286200" lon="-5.550510">
        <ele>794.412</ele>
        <time>2022-02-26T21:51:36Z</time>
      </trkpt>
      <trkpt lat="41.286450" lon="-5.550640">
        <ele>792.516</ele>
        <time>2022-02-26T21:52:16Z</time>
      </trkpt>
      <trkpt lat="41.286590" lon="-5.550710">
        <ele>792.185</ele>
        <time>2022-02-26T21:52:56Z</time>
      </trkpt>
      <trkpt lat="41.286790" lon="-5.550810">
        <ele>792.914</ele>
        <time>2022-02-26T21:53:36Z</time>
      </trkpt>
      <trkpt lat="41.287180" lon="-5.551010">
        <ele>795.615</ele>
        <time>2022-02-26T21:54:16Z</time>
      </trkpt>
      <trkpt lat="41.287520" lon="-5.551180">
        <ele>797.126</ele>
        <time>2022-02-26T21:54:56Z</time>
      </trkpt>
      <trkpt lat="41.287680" lon="-5.551260">
        <ele>797.658</ele>
        <time>2022-02-26T21:55:36Z</time>
      </trkpt>
      <trkpt lat="41.288530" lon="-5.551680">
        <ele>804.182</ele>
        <time>2022-02-26T21:56:16Z</time>
      </trkpt>
      <trkpt lat="41.288660" lon="-5.551750">
        <ele>805.143</ele>
        <time>2022-02-26T21:56:56Z</time>
      </trkpt>
      <trkpt lat="41.288700" lon="-5.551770">
        <ele>805.317</ele>
        <time>2022-02-26T21:57:36Z</time>
      </trkpt>
      <trkpt lat="41.289040" lon="-5.551910">
        <ele>807.208</ele>
        <time>2022-02-26T21:58:16Z</time>
      </trkpt>
      <trkpt lat="41.289080" lon="-5.551920">
        <ele>807.527</ele>
        <time>2022-02-26T21:58:56Z</time>
      </trkpt>
      <trkpt lat="41.289130" lon="-5.551950">
        <ele>807.724</ele>
        <time>2022-02-26T21:59:36Z</time>
      </trkpt>
      <trkpt lat="41.289560" lon="-5.552120">
        <ele>809.318</ele>
        <time>2022-02-26T22:00:16Z</time>
      </trkpt>
      <trkpt lat="41.290100" lon="-5.552380">
        <ele>814.797</ele>
        <time>2022-02-26T22:00:56Z</time>
      </trkpt>
      <trkpt lat="41.290410" lon="-5.552570">
        <ele>816.646</ele>
        <time>2022-02-26T22:01:36Z</time>
      </trkpt>
      <trkpt lat="41.290540" lon="-5.552650">
        <ele>816.257</ele>
        <time>2022-02-26T22:02:16Z</time>
      </trkpt>
      <trkpt lat="41.290670" lon="-5.552760">
        <ele>816.018</ele>
        <time>2022-02-26T22:02:56Z</time>
      </trkpt>
      <trkpt lat="41.290730" lon="-5.552820">
        <ele>815.930</ele>
        <time>2022-02-26T22:03:36Z</time>
      </trkpt>
      <trkpt lat="41.290800" lon="-5.552900">
        <ele>815.793</ele>
        <time>2022-02-26T22:04:16Z</time>
      </trkpt>
      <trkpt lat="41.291120" lon="-5.553260">
        <ele>814.965</ele>
        <time>2022-02-26T22:04:56Z</time>
      </trkpt>
      <trkpt lat="41.291680" lon="-5.553970">
        <ele>812.421</ele>
        <time>2022-02-26T22:05:36Z</time>
      </trkpt>
      <trkpt lat="41.291770" lon="-5.554090">
        <ele>813.408</ele>
        <time>2022-02-26T22:06:16Z</time>
      </trkpt>
      <trkpt lat="41.291870" lon="-5.554240">
        <ele>814.978</ele>
        <time>2022-02-26T22:06:56Z</time>
      </trkpt>
      <trkpt lat="41.291980" lon="-5.554380">
        <ele>816.935</ele>
        <time>2022-02-26T22:07:36Z</time>
      </trkpt>
      <trkpt lat="41.292230" lon="-5.554730">
        <ele>820.969</ele>
        <time>2022-02-26T22:08:16Z</time>
      </trkpt>
      <trkpt lat="41.292490" lon="-5.555060">
        <ele>818.358</ele>
        <time>2022-02-26T22:08:56Z</time>
      </trkpt>
      <trkpt lat="41.292620" lon="-5.555220">
        <ele>817.897</ele>
        <time>2022-02-26T22:09:36Z</time>
      </trkpt>
      <trkpt lat="41.292680" lon="-5.555300">
        <ele>817.938</ele>
        <time>2022-02-26T22:10:16Z</time>
      </trkpt>
      <trkpt lat="41.293060" lon="-5.555820">
        <ele>819.939</ele>
        <time>2022-02-26T22:10:56Z</time>
      </trkpt>
      <trkpt lat="41.293460" lon="-5.556340">
        <ele>821.191</ele>
        <time>2022-02-26T22:11:36Z</time>
      </trkpt>
      <trkpt lat="41.293640" lon="-5.556570">
        <ele>818.927</ele>
        <time>2022-02-26T22:12:16Z</time>
      </trkpt>
      <trkpt lat="41.294020" lon="-5.557080">
        <ele>818.868</ele>
        <time>2022-02-26T22:12:56Z</time>
      </trkpt>
      <trkpt lat="41.294040" lon="-5.557100">
        <ele>818.814</ele>
        <time>2022-02-26T22:13:36Z</time>
      </trkpt>
      <trkpt lat="41.294190" lon="-5.557290">
        <ele>818.908</ele>
        <time>2022-02-26T22:14:16Z</time>
      </trkpt>
      <trkpt lat="41.294400" lon="-5.557580">
        <ele>819.821</ele>
        <time>2022-02-26T22:14:56Z</time>
      </trkpt>
      <trkpt lat="41.294900" lon="-5.558260">
        <ele>826.948</ele>
        <time>2022-02-26T22:15:36Z</time>
      </trkpt>
      <trkpt lat="41.294910" lon="-5.558270">
        <ele>827.132</ele>
        <time>2022-02-26T22:16:16Z</time>
      </trkpt>
      <trkpt lat="41.295010" lon="-5.558410">
        <ele>828.871</ele>
        <time>2022-02-26T22:16:56Z</time>
      </trkpt>
      <trkpt lat="41.295140" lon="-5.558630">
        <ele>831.610</ele>
        <time>2022-02-26T22:17:36Z</time>
      </trkpt>
      <trkpt lat="41.295370" lon="-5.559000">
        <ele>833.341</ele>
        <time>2022-02-26T22:18:16Z</time>
      </trkpt>
      <trkpt lat="41.295520" lon="-5.559270">
        <ele>832.372</ele>
        <time>2022-02-26T22:18:56Z</time>
      </trkpt>
      <trkpt lat="41.295930" lon="-5.559930">
        <ele>830.794</ele>
        <time>2022-02-26T22:19:36Z</time>
      </trkpt>
      <trkpt lat="41.296180" lon="-5.560330">
        <ele>830.615</ele>
        <time>2022-02-26T22:20:16Z</time>
      </trkpt>
      <trkpt lat="41.296190" lon="-5.560360">
        <ele>830.565</ele>
        <time>2022-02-26T22:20:56Z</time>
      </trkpt>
      <trkpt lat="41.296870" lon="-5.561430">
        <ele>835.111</ele>
        <time>2022-02-26T22:21:36Z</time>
      </trkpt>
      <trkpt lat="41.296980" lon="-5.561610">
        <ele>835.108</ele>
        <time>2022-02-26T22:22:16Z</time>
      </trkpt>
      <trkpt lat="41.297100" lon="-5.561790">
        <ele>835.610</ele>
        <time>2022-02-26T22:22:56Z</time>
      </trkpt>
      <trkpt lat="41.297200" lon="-5.561970">
        <ele>836.127</ele>
        <time>2022-02-26T22:23:36Z</time>
      </trkpt>
      <trkpt lat="41.297210" lon="-5.561990">
        <ele>836.311</ele>
        <time>2022-02-26T22:24:16Z</time>
      </trkpt>
      <trkpt lat="41.297250" lon="-5.562060">
        <ele>836.910</ele>
        <time>2022-02-26T22:24:56Z</time>
      </trkpt>
      <trkpt lat="41.297280" lon="-5.562130">
        <ele>837.459</ele>
        <time>2022-02-26T22:25:36Z</time>
      </trkpt>
      <trkpt lat="41.297310" lon="-5.562180">
        <ele>837.720</ele>
        <time>2022-02-26T22:26:16Z</time>
      </trkpt>
      <trkpt lat="41.297360" lon="-5.562290">
        <ele>838.121</ele>
        <time>2022-02-26T22:26:56Z</time>
      </trkpt>
      <trkpt lat="41.297400" lon="-5.562390">
        <ele>838.283</ele>
        <time>2022-02-26T22:27:36Z</time>
      </trkpt>
      <trkpt lat="41.297420" lon="-5.562430">
        <ele>838.234</ele>
        <time>2022-02-26T22:28:16Z</time>
      </trkpt>
      <trkpt lat="41.297710" lon="-5.563250">
        <ele>837.355</ele>
        <time>2022-02-26T22:28:56Z</time>
      </trkpt>
      <trkpt lat="41.297730" lon="-5.563330">
        <ele>837.310</ele>
        <time>2022-02-26T22:29:36Z</time>
      </trkpt>
      <trkpt lat="41.297780" lon="-5.563470">
        <ele>836.008</ele>
        <time>2022-02-26T22:30:16Z</time>
      </trkpt>
      <trkpt lat="41.297940" lon="-5.563910">
        <ele>834.432</ele>
        <time>2022-02-26T22:30:56Z</time>
      </trkpt>
      <trkpt lat="41.298090" lon="-5.564340">
        <ele>834.079</ele>
        <time>2022-02-26T22:31:36Z</time>
      </trkpt>
      <trkpt lat="41.298210" lon="-5.564710">
        <ele>834.543</ele>
        <time>2022-02-26T22:32:16Z</time>
      </trkpt>
      <trkpt lat="41.298250" lon="-5.564820">
        <ele>835.132</ele>
        <time>2022-02-26T22:32:56Z</time>
      </trkpt>
      <trkpt lat="41.298280" lon="-5.564910">
        <ele>835.571</ele>
        <time>2022-02-26T22:33:36Z</time>
      </trkpt>
      <trkpt lat="41.298390" lon="-5.565210">
        <ele>837.412</ele>
        <time>2022-02-26T22:34:16Z</time>
      </trkpt>
      <trkpt lat="41.298520" lon="-5.565590">
        <ele>838.783</ele>
        <time>2022-02-26T22:34:56Z</time>
      </trkpt>
      <trkpt lat="41.298690" lon="-5.566090">
        <ele>840.255</ele>
        <time>2022-02-26T22:35:36Z</time>
      </trkpt>
      <trkpt lat="41.298730" lon="-5.566200">
        <ele>840.734</ele>
        <time>2022-02-26T22:36:16Z</time>
      </trkpt>
      <trkpt lat="41.298810" lon="-5.566410">
        <ele>841.855</ele>
        <time>2022-02-26T22:36:56Z</time>
      </trkpt>
      <trkpt lat="41.298850" lon="-5.566510">
        <ele>842.710</ele>
        <time>2022-02-26T22:37:36Z</time>
      </trkpt>
      <trkpt lat="41.298880" lon="-5.566570">
        <ele>843.308</ele>
        <time>2022-02-26T22:38:16Z</time>
      </trkpt>
      <trkpt lat="41.298940" lon="-5.566710">
        <ele>844.532</ele>
        <time>2022-02-26T22:38:56Z</time>
      </trkpt>
      <trkpt lat="41.298960" lon="-5.566750">
        <ele>844.729</ele>
        <time>2022-02-26T22:39:36Z</time>
      </trkpt>
      <trkpt lat="41.299050" lon="-5.566920">
        <ele>845.553</ele>
        <time>2022-02-26T22:40:16Z</time>
      </trkpt>
      <trkpt lat="41.299060" lon="-5.566940">
        <ele>845.632</ele>
        <time>2022-02-26T22:40:56Z</time>
      </trkpt>
      <trkpt lat="41.299160" lon="-5.567100">
        <ele>846.011</ele>
        <time>2022-02-26T22:41:36Z</time>
      </trkpt>
      <trkpt lat="41.299410" lon="-5.567450">
        <ele>848.572</ele>
        <time>2022-02-26T22:42:16Z</time>
      </trkpt>
      <trkpt lat="41.299650" lon="-5.567790">
        <ele>851.293</ele>
        <time>2022-02-26T22:42:56Z</time>
      </trkpt>
      <trkpt lat="41.299780" lon="-5.567960">
        <ele>851.635</ele>
        <time>2022-02-26T22:43:36Z</time>
      </trkpt>
      <trkpt lat="41.299960" lon="-5.568210">
        <ele>851.914</ele>
        <time>2022-02-26T22:44:16Z</time>
      </trkpt>
      <trkpt lat="41.300020" lon="-5.568320">
        <ele>852.054</ele>
        <time>2022-02-26T22:44:56Z</time>
      </trkpt>
      <trkpt lat="41.300200" lon="-5.568630">
        <ele>852.309</ele>
        <time>2022-02-26T22:45:36Z</time>
      </trkpt>
      <trkpt lat="41.300240" lon="-5.568700">
        <ele>852.208</ele>
        <time>2022-02-26T22:46:16Z</time>
      </trkpt>
      <trkpt lat="41.300450" lon="-5.569090">
        <ele>850.860</ele>
        <time>2022-02-26T22:46:56Z</time>
      </trkpt>
      <trkpt lat="41.300550" lon="-5.569280">
        <ele>850.037</ele>
        <time>2022-02-26T22:47:36Z</time>
      </trkpt>
      <trkpt lat="41.300650" lon="-5.569480">
        <ele>849.371</ele>
        <time>2022-02-26T22:48:16Z</time>
      </trkpt>
      <trkpt lat="41.300760" lon="-5.569670">
        <ele>848.530</ele>
        <time>2022-02-26T22:48:56Z</time>
      </trkpt>
      <trkpt lat="41.300760" lon="-5.569680">
        <ele>848.589</ele>
        <time>2022-02-26T22:49:36Z</time>
      </trkpt>
      <trkpt lat="41.301090" lon="-5.570430">
        <ele>845.590</ele>
        <time>2022-02-26T22:50:16Z</time>
      </trkpt>
      <trkpt lat="41.301090" lon="-5.570440">
        <ele>845.551</ele>
        <time>2022-02-26T22:50:56Z</time>
      </trkpt>
      <trkpt lat="41.301160" lon="-5.570650">
        <ele>844.423</ele>
        <time>2022-02-26T22:51:36Z</time>
      </trkpt>
      <trkpt lat="41.301450" lon="-5.571520">
        <ele>840.774</ele>
        <time>2022-02-26T22:52:16Z</time>
      </trkpt>
      <trkpt lat="41.301460" lon="-5.571540">
        <ele>840.656</ele>
        <time>2022-02-26T22:52:56Z</time>
      </trkpt>
      <trkpt lat="41.301520" lon="-5.571740">
        <ele>839.921</ele>
        <time>2022-02-26T22:53:36Z</time>
      </trkpt>
      <trkpt lat="41.301660" lon="-5.572180">
        <ele>838.208</ele>
        <time>2022-02-26T22:54:16Z</time>
      </trkpt>
      <trkpt lat="41.301880" lon="-5.572840">
        <ele>835.666</ele>
        <time>2022-02-26T22:54:56Z</time>
      </trkpt>
      <trkpt lat="41.301950" lon="-5.573060">
        <ele>835.063</ele>
        <time>2022-02-26T22:55:36Z</time>
      </trkpt>
      <trkpt lat="41.302020" lon="-5.573300">
        <ele>835.387</ele>
        <time>2022-02-26T22:56:16Z</time>
      </trkpt>
      <trkpt lat="41.302300" lon="-5.574170">
        <ele>832.656</ele>
        <time>2022-02-26T22:56:56Z</time>
      </trkpt>
      <trkpt lat="41.302360" lon="-5.574390">
        <ele>833.445</ele>
        <time>2022-02-26T22:57:36Z</time>
      </trkpt>
      <trkpt lat="41.302430" lon="-5.574610">
        <ele>833.946</ele>
        <time>2022-02-26T22:58:16Z</time>
      </trkpt>
      <trkpt lat="41.302570" lon="-5.575050">
        <ele>833.787</ele>
        <time>2022-02-26T22:58:56Z</time>
      </trkpt>
      <trkpt lat="41.302590" lon="-5.575100">
        <ele>833.629</ele>
        <time>2022-02-26T22:59:36Z</time>
      </trkpt>
      <trkpt lat="41.302610" lon="-5.575160">
        <ele>833.429</ele>
        <time>2022-02-26T23:00:16Z</time>
      </trkpt>
      <trkpt lat="41.302650" lon="-5.575270">
        <ele>832.900</ele>
        <time>2022-02-26T23:00:56Z</time>
      </trkpt>
      <trkpt lat="41.302850" lon="-5.575840">
        <ele>830.020</ele>
        <time>2022-02-26T23:01:36Z</time>
      </trkpt>
      <trkpt lat="41.302890" lon="-5.575930">
        <ele>829.408</ele>
        <time>2022-02-26T23:02:16Z</time>
      </trkpt>
      <trkpt lat="41.303060" lon="-5.576290">
        <ele>826.351</ele>
        <time>2022-02-26T23:02:56Z</time>
      </trkpt>
      <trkpt lat="41.303160" lon="-5.576470">
        <ele>824.418</ele>
        <time>2022-02-26T23:03:36Z</time>
      </trkpt>
      <trkpt lat="41.303220" lon="-5.576560">
        <ele>823.482</ele>
        <time>2022-02-26T23:04:16Z</time>
      </trkpt>
      <trkpt lat="41.303370" lon="-5.576750">
        <ele>821.441</ele>
        <time>2022-02-26T23:04:56Z</time>
      </trkpt>
      <trkpt lat="41.303430" lon="-5.576820">
        <ele>820.680</ele>
        <time>2022-02-26T23:05:36Z</time>
      </trkpt>
      <trkpt lat="41.303450" lon="-5.576840">
        <ele>820.331</ele>
        <time>2022-02-26T23:06:16Z</time>
      </trkpt>
      <trkpt lat="41.303530" lon="-5.576920">
        <ele>819.072</ele>
        <time>2022-02-26T23:06:56Z</time>
      </trkpt>
      <trkpt lat="41.303550" lon="-5.576940">
        <ele>818.734</ele>
        <time>2022-02-26T23:07:36Z</time>
      </trkpt>
      <trkpt lat="41.303590" lon="-5.576980">
        <ele>817.716</ele>
        <time>2022-02-26T23:08:16Z</time>
      </trkpt>
      <trkpt lat="41.303680" lon="-5.577050">
        <ele>815.476</ele>
        <time>2022-02-26T23:08:56Z</time>
      </trkpt>
      <trkpt lat="41.303970" lon="-5.577320">
        <ele>810.513</ele>
        <time>2022-02-26T23:09:36Z</time>
      </trkpt>
      <trkpt lat="41.304600" lon="-5.577880">
        <ele>811.208</ele>
        <time>2022-02-26T23:10:16Z</time>
      </trkpt>
      <trkpt lat="41.304790" lon="-5.578040">
        <ele>809.630</ele>
        <time>2022-02-26T23:10:56Z</time>
      </trkpt>
      <trkpt lat="41.304940" lon="-5.578160">
        <ele>808.097</ele>
        <time>2022-02-26T23:11:36Z</time>
      </trkpt>
      <trkpt lat="41.305230" lon="-5.578390">
        <ele>805.151</ele>
        <time>2022-02-26T23:12:16Z</time>
      </trkpt>
      <trkpt lat="41.305390" lon="-5.578560">
        <ele>803.360</ele>
        <time>2022-02-26T23:12:56Z</time>
      </trkpt>
      <trkpt lat="41.305440" lon="-5.578600">
        <ele>802.889</ele>
        <time>2022-02-26T23:13:36Z</time>
      </trkpt>
      <trkpt lat="41.305540" lon="-5.578690">
        <ele>801.860</ele>
        <time>2022-02-26T23:14:16Z</time>
      </trkpt>
      <trkpt lat="41.306020" lon="-5.579110">
        <ele>800.651</ele>
        <time>2022-02-26T23:14:56Z</time>
      </trkpt>
      <trkpt lat="41.306210" lon="-5.579280">
        <ele>801.393</ele>
        <time>2022-02-26T23:15:36Z</time>
      </trkpt>
      <trkpt lat="41.306640" lon="-5.579660">
        <ele>797.389</ele>
        <time>2022-02-26T23:16:16Z</time>
      </trkpt>
      <trkpt lat="41.306710" lon="-5.579720">
        <ele>796.806</ele>
        <time>2022-02-26T23:16:56Z</time>
      </trkpt>
      <trkpt lat="41.306940" lon="-5.579890">
        <ele>797.226</ele>
        <time>2022-02-26T23:17:36Z</time>
      </trkpt>
      <trkpt lat="41.306980" lon="-5.579920">
        <ele>797.508</ele>
        <time>2022-02-26T23:18:16Z</time>
      </trkpt>
      <trkpt lat="41.307040" lon="-5.579960">
        <ele>797.897</ele>
        <time>2022-02-26T23:18:56Z</time>
      </trkpt>
      <trkpt lat="41.307270" lon="-5.580070">
        <ele>797.964</ele>
        <time>2022-02-26T23:19:36Z</time>
      </trkpt>
      <trkpt lat="41.307290" lon="-5.580080">
        <ele>797.868</ele>
        <time>2022-02-26T23:20:16Z</time>
      </trkpt>
      <trkpt lat="41.307420" lon="-5.580150">
        <ele>796.617</ele>
        <time>2022-02-26T23:20:56Z</time>
      </trkpt>
      <trkpt lat="41.307950" lon="-5.580380">
        <ele>796.916</ele>
        <time>2022-02-26T23:21:36Z</time>
      </trkpt>
      <trkpt lat="41.308310" lon="-5.580540">
        <ele>800.867</ele>
        <time>2022-02-26T23:22:16Z</time>
      </trkpt>
      <trkpt lat="41.308410" lon="-5.580580">
        <ele>800.298</ele>
        <time>2022-02-26T23:22:56Z</time>
      </trkpt>
      <trkpt lat="41.308480" lon="-5.580620">
        <ele>799.430</ele>
        <time>2022-02-26T23:23:36Z</time>
      </trkpt>
      <trkpt lat="41.308490" lon="-5.580620">
        <ele>799.394</ele>
        <time>2022-02-26T23:24:16Z</time>
      </trkpt>
      <trkpt lat="41.308950" lon="-5.580930">
        <ele>797.157</ele>
        <time>2022-02-26T23:24:56Z</time>
      </trkpt>
      <trkpt lat="41.308980" lon="-5.580950">
        <ele>797.022</ele>
        <time>2022-02-26T23:25:36Z</time>
      </trkpt>
      <trkpt lat="41.309080" lon="-5.581030">
        <ele>796.508</ele>
        <time>2022-02-26T23:26:16Z</time>
      </trkpt>
      <trkpt lat="41.309300" lon="-5.581220">
        <ele>795.198</ele>
        <time>2022-02-26T23:26:56Z</time>
      </trkpt>
      <trkpt lat="41.309420" lon="-5.581340">
        <ele>794.385</ele>
        <time>2022-02-26T23:27:36Z</time>
      </trkpt>
      <trkpt lat="41.309610" lon="-5.581560">
        <ele>794.029</ele>
        <time>2022-02-26T23:28:16Z</time>
      </trkpt>
      <trkpt lat="41.309670" lon="-5.581640">
        <ele>793.998</ele>
        <time>2022-02-26T23:28:56Z</time>
      </trkpt>
      <trkpt lat="41.309700" lon="-5.581680">
        <ele>793.997</ele>
        <time>2022-02-26T23:29:36Z</time>
      </trkpt>
      <trkpt lat="41.309750" lon="-5.581760">
        <ele>794.118</ele>
        <time>2022-02-26T23:30:16Z</time>
      </trkpt>
      <trkpt lat="41.309810" lon="-5.581880">
        <ele>794.399</ele>
        <time>2022-02-26T23:30:56Z</time>
      </trkpt>
      <trkpt lat="41.309880" lon="-5.582000">
        <ele>794.351</ele>
        <time>2022-02-26T23:31:36Z</time>
      </trkpt>
      <trkpt lat="41.309990" lon="-5.582220">
        <ele>793.039</ele>
        <time>2022-02-26T23:32:16Z</time>
      </trkpt>
      <trkpt lat="41.310030" lon="-5.582290">
        <ele>792.401</ele>
        <time>2022-02-26T23:32:56Z</time>
      </trkpt>
      <trkpt lat="41.310070" lon="-5.582350">
        <ele>791.821</ele>
        <time>2022-02-26T23:33:36Z</time>
      </trkpt>
      <trkpt lat="41.310130" lon="-5.582430">
        <ele>791.008</ele>
        <time>2022-02-26T23:34:16Z</time>
      </trkpt>
      <trkpt lat="41.310220" lon="-5.582540">
        <ele>789.922</ele>
        <time>2022-02-26T23:34:56Z</time>
      </trkpt>
      <trkpt lat="41.310750" lon="-5.582820">
        <ele>787.369</ele>
        <time>2022-02-26T23:35:36Z</time>
      </trkpt>
      <trkpt lat="41.311520" lon="-5.583200">
        <ele>784.873</ele>
        <time>2022-02-26T23:36:16Z</time>
      </trkpt>
      <trkpt lat="41.312150" lon="-5.583560">
        <ele>782.732</ele>
        <time>2022-02-26T23:36:56Z</time>
      </trkpt>
      <trkpt lat="41.312250" lon="-5.583630">
        <ele>781.981</ele>
        <time>2022-02-26T23:37:36Z</time>
      </trkpt>
      <trkpt lat="41.312840" lon="-5.584020">
        <ele>779.692</ele>
        <time>2022-02-26T23:38:16Z</time>
      </trkpt>
      <trkpt lat="41.313210" lon="-5.584330">
        <ele>778.113</ele>
        <time>2022-02-26T23:38:56Z</time>
      </trkpt>
      <trkpt lat="41.313240" lon="-5.584350">
        <ele>777.955</ele>
        <time>2022-02-26T23:39:36Z</time>
      </trkpt>
      <trkpt lat="41.313590" lon="-5.584630">
        <ele>776.163</ele>
        <time>2022-02-26T23:40:16Z</time>
      </trkpt>
      <trkpt lat="41.313800" lon="-5.584810">
        <ele>775.244</ele>
        <time>2022-02-26T23:40:56Z</time>
      </trkpt>
      <trkpt lat="41.313950" lon="-5.584940">
        <ele>774.218</ele>
        <time>2022-02-26T23:41:36Z</time>
      </trkpt>
      <trkpt lat="41.314300" lon="-5.585240">
        <ele>770.408</ele>
        <time>2022-02-26T23:42:16Z</time>
      </trkpt>
      <trkpt lat="41.314710" lon="-5.585590">
        <ele>767.085</ele>
        <time>2022-02-26T23:42:56Z</time>
      </trkpt>
      <trkpt lat="41.314720" lon="-5.585600">
        <ele>767.072</ele>
        <time>2022-02-26T23:43:36Z</time>
      </trkpt>
      <trkpt lat="41.314920" lon="-5.585750">
        <ele>766.186</ele>
        <time>2022-02-26T23:44:16Z</time>
      </trkpt>
      <trkpt lat="41.314970" lon="-5.585750">
        <ele>765.815</ele>
        <time>2022-02-26T23:44:56Z</time>
      </trkpt>
      <trkpt lat="41.315100" lon="-5.585800">
        <ele>766.034</ele>
        <time>2022-02-26T23:45:36Z</time>
      </trkpt>
      <trkpt lat="41.315103" lon="-5.585802">
        <ele>766.045</ele>
        <time>2022-02-26T23:46:16Z</time>
      </trkpt>
      <trkpt lat="41.315110" lon="-5.585800">
        <ele>766.086</ele>
        <time>2022-02-26T23:46:56Z</time>
      </trkpt>
      <trkpt lat="41.315130" lon="-5.585790">
        <ele>766.088</ele>
        <time>2022-02-26T23:47:36Z</time>
      </trkpt>
      <trkpt lat="41.315140" lon="-5.585790">
        <ele>766.042</ele>
        <time>2022-02-26T23:48:16Z</time>
      </trkpt>
      <trkpt lat="41.315160" lon="-5.585790">
        <ele>766.022</ele>
        <time>2022-02-26T23:48:56Z</time>
      </trkpt>
      <trkpt lat="41.315180" lon="-5.585790">
        <ele>766.014</ele>
        <time>2022-02-26T23:49:36Z</time>
      </trkpt>
      <trkpt lat="41.315200" lon="-5.585790">
        <ele>766.108</ele>
        <time>2022-02-26T23:50:16Z</time>
      </trkpt>
      <trkpt lat="41.315210" lon="-5.585790">
        <ele>766.183</ele>
        <time>2022-02-26T23:50:56Z</time>
      </trkpt>
      <trkpt lat="41.315230" lon="-5.585790">
        <ele>766.180</ele>
        <time>2022-02-26T23:51:36Z</time>
      </trkpt>
      <trkpt lat="41.315240" lon="-5.585790">
        <ele>766.194</ele>
        <time>2022-02-26T23:52:16Z</time>
      </trkpt>
      <trkpt lat="41.315370" lon="-5.585720">
        <ele>766.943</ele>
        <time>2022-02-26T23:52:56Z</time>
      </trkpt>
      <trkpt lat="41.315410" lon="-5.585710">
        <ele>767.282</ele>
        <time>2022-02-26T23:53:36Z</time>
      </trkpt>
      <trkpt lat="41.315420" lon="-5.585710">
        <ele>767.263</ele>
        <time>2022-02-26T23:54:16Z</time>
      </trkpt>
      <trkpt lat="41.315430" lon="-5.585690">
        <ele>767.344</ele>
        <time>2022-02-26T23:54:56Z</time>
      </trkpt>
      <trkpt lat="41.315480" lon="-5.585660">
        <ele>767.636</ele>
        <time>2022-02-26T23:55:36Z</time>
      </trkpt>
      <trkpt lat="41.315610" lon="-5.585590">
        <ele>767.837</ele>
        <time>2022-02-26T23:56:16Z</time>
      </trkpt>
      <trkpt lat="41.315670" lon="-5.585570">
        <ele>767.649</ele>
        <time>2022-02-26T23:56:56Z</time>
      </trkpt>
      <trkpt lat="41.315750" lon="-5.585540">
        <ele>767.313</ele>
        <time>2022-02-26T23:57:36Z</time>
      </trkpt>
      <trkpt lat="41.315820" lon="-5.585520">
        <ele>767.108</ele>
        <time>2022-02-26T23:58:16Z</time>
      </trkpt>
      <trkpt lat="41.316400" lon="-5.585300">
        <ele>765.822</ele>
        <time>2022-02-26T23:58:56Z</time>
      </trkpt>
      <trkpt lat="41.316760" lon="-5.585190">
        <ele>763.679</ele>
        <time>2022-02-26T23:59:36Z</time>
      </trkpt>
      <trkpt lat="41.317300" lon="-5.585000">
        <ele>763.073</ele>
        <time>2022-02-27T00:00:16Z</time>
      </trkpt>
      <trkpt lat="41.317600" lon="-5.584890">
        <ele>762.112</ele>
        <time>2022-02-27T00:00:56Z</time>
      </trkpt>
      <trkpt lat="41.317810" lon="-5.584810">
        <ele>760.561</ele>
        <time>2022-02-27T00:01:36Z</time>
      </trkpt>
      <trkpt lat="41.318640" lon="-5.584530">
        <ele>762.352</ele>
        <time>2022-02-27T00:02:16Z</time>
      </trkpt>
      <trkpt lat="41.318750" lon="-5.584490">
        <ele>761.853</ele>
        <time>2022-02-27T00:02:56Z</time>
      </trkpt>
      <trkpt lat="41.318890" lon="-5.584420">
        <ele>760.825</ele>
        <time>2022-02-27T00:03:36Z</time>
      </trkpt>
      <trkpt lat="41.318990" lon="-5.584370">
        <ele>759.895</ele>
        <time>2022-02-27T00:04:16Z</time>
      </trkpt>
      <trkpt lat="41.319060" lon="-5.584310">
        <ele>759.149</ele>
        <time>2022-02-27T00:04:56Z</time>
      </trkpt>
      <trkpt lat="41.319150" lon="-5.584230">
        <ele>758.323</ele>
        <time>2022-02-27T00:05:36Z</time>
      </trkpt>
      <trkpt lat="41.319550" lon="-5.583850">
        <ele>758.408</ele>
        <time>2022-02-27T00:06:16Z</time>
      </trkpt>
      <trkpt lat="41.319830" lon="-5.583630">
        <ele>759.968</ele>
        <time>2022-02-27T00:06:56Z</time>
      </trkpt>
      <trkpt lat="41.320030" lon="-5.583490">
        <ele>759.945</ele>
        <time>2022-02-27T00:07:36Z</time>
      </trkpt>
      <trkpt lat="41.320050" lon="-5.583480">
        <ele>759.859</ele>
        <time>2022-02-27T00:08:16Z</time>
      </trkpt>
      <trkpt lat="41.320190" lon="-5.583410">
        <ele>759.688</ele>
        <time>2022-02-27T00:08:56Z</time>
      </trkpt>
      <trkpt lat="41.320470" lon="-5.583310">
        <ele>755.817</ele>
        <time>2022-02-27T00:09:36Z</time>
      </trkpt>
      <trkpt lat="41.321340" lon="-5.583090">
        <ele>754.818</ele>
        <time>2022-02-27T00:10:16Z</time>
      </trkpt>
      <trkpt lat="41.321450" lon="-5.583060">
        <ele>755.219</ele>
        <time>2022-02-27T00:10:56Z</time>
      </trkpt>
      <trkpt lat="41.321480" lon="-5.583050">
        <ele>755.371</ele>
        <time>2022-02-27T00:11:36Z</time>
      </trkpt>
      <trkpt lat="41.321630" lon="-5.583000">
        <ele>755.985</ele>
        <time>2022-02-27T00:12:16Z</time>
      </trkpt>
      <trkpt lat="41.321730" lon="-5.582950">
        <ele>756.489</ele>
        <time>2022-02-27T00:12:56Z</time>
      </trkpt>
      <trkpt lat="41.322060" lon="-5.582750">
        <ele>759.017</ele>
        <time>2022-02-27T00:13:36Z</time>
      </trkpt>
      <trkpt lat="41.322630" lon="-5.582440">
        <ele>756.208</ele>
        <time>2022-02-27T00:14:16Z</time>
      </trkpt>
      <trkpt lat="41.323630" lon="-5.581900">
        <ele>751.037</ele>
        <time>2022-02-27T00:14:56Z</time>
      </trkpt>
      <trkpt lat="41.324260" lon="-5.581560">
        <ele>751.444</ele>
        <time>2022-02-27T00:15:36Z</time>
      </trkpt>
      <trkpt lat="41.324300" lon="-5.581540">
        <ele>751.388</ele>
        <time>2022-02-27T00:16:16Z</time>
      </trkpt>
      <trkpt lat="41.325460" lon="-5.580910">
        <ele>749.197</ele>
        <time>2022-02-27T00:16:56Z</time>
      </trkpt>
      <trkpt lat="41.325560" lon="-5.580850">
        <ele>748.996</ele>
        <time>2022-02-27T00:17:36Z</time>
      </trkpt>
      <trkpt lat="41.326080" lon="-5.580570">
        <ele>750.997</ele>
        <time>2022-02-27T00:18:16Z</time>
      </trkpt>
      <trkpt lat="41.326390" lon="-5.580380">
        <ele>752.688</ele>
        <time>2022-02-27T00:18:56Z</time>
      </trkpt>
      <trkpt lat="41.326710" lon="-5.580200">
        <ele>752.260</ele>
        <time>2022-02-27T00:19:36Z</time>
      </trkpt>
      <trkpt lat="41.327700" lon="-5.579600">
        <ele>749.061</ele>
        <time>2022-02-27T00:20:16Z</time>
      </trkpt>
      <trkpt lat="41.327870" lon="-5.579500">
        <ele>748.721</ele>
        <time>2022-02-27T00:20:56Z</time>
      </trkpt>
      <trkpt lat="41.328160" lon="-5.579320">
        <ele>749.213</ele>
        <time>2022-02-27T00:21:36Z</time>
      </trkpt>
      <trkpt lat="41.328360" lon="-5.579200">
        <ele>749.608</ele>
        <time>2022-02-27T00:22:16Z</time>
      </trkpt>
      <trkpt lat="41.328500" lon="-5.579120">
        <ele>749.945</ele>
        <time>2022-02-27T00:22:56Z</time>
      </trkpt>
      <trkpt lat="41.328520" lon="-5.579110">
        <ele>749.912</ele>
        <time>2022-02-27T00:23:36Z</time>
      </trkpt>
      <trkpt lat="41.328780" lon="-5.579000">
        <ele>750.486</ele>
        <time>2022-02-27T00:24:16Z</time>
      </trkpt>
      <trkpt lat="41.328980" lon="-5.578940">
        <ele>751.215</ele>
        <time>2022-02-27T00:24:56Z</time>
      </trkpt>
      <trkpt lat="41.328976" lon="-5.578942">
        <ele>751.214</ele>
        <time>2022-02-27T00:25:36Z</time>
      </trkpt>
      <trkpt lat="41.329260" lon="-5.578880">
        <ele>753.195</ele>
        <time>2022-02-27T00:26:16Z</time>
      </trkpt>
      <trkpt lat="41.329300" lon="-5.578860">
        <ele>753.366</ele>
        <time>2022-02-27T00:26:56Z</time>
      </trkpt>
      <trkpt lat="41.329520" lon="-5.578810">
        <ele>753.638</ele>
        <time>2022-02-27T00:27:36Z</time>
      </trkpt>
      <trkpt lat="41.329870" lon="-5.578730">
        <ele>751.614</ele>
        <time>2022-02-27T00:28:16Z</time>
      </trkpt>
      <trkpt lat="41.330050" lon="-5.578690">
        <ele>749.754</ele>
        <time>2022-02-27T00:28:56Z</time>
      </trkpt>
      <trkpt lat="41.330220" lon="-5.578640">
        <ele>748.409</ele>
        <time>2022-02-27T00:29:36Z</time>
      </trkpt>
      <trkpt lat="41.330320" lon="-5.578620">
        <ele>747.608</ele>
        <time>2022-02-27T00:30:16Z</time>
      </trkpt>
      <trkpt lat="41.330400" lon="-5.578600">
        <ele>747.270</ele>
        <time>2022-02-27T00:30:56Z</time>
      </trkpt>
      <trkpt lat="41.330760" lon="-5.578540">
        <ele>746.647</ele>
        <time>2022-02-27T00:31:36Z</time>
      </trkpt>
      <trkpt lat="41.331000" lon="-5.578490">
        <ele>746.961</ele>
        <time>2022-02-27T00:32:16Z</time>
      </trkpt>
      <trkpt lat="41.331070" lon="-5.578490">
        <ele>746.930</ele>
        <time>2022-02-27T00:32:56Z</time>
      </trkpt>
      <trkpt lat="41.331560" lon="-5.578450">
        <ele>746.529</ele>
        <time>2022-02-27T00:33:36Z</time>
      </trkpt>
      <trkpt lat="41.331620" lon="-5.578450">
        <ele>746.390</ele>
        <time>2022-02-27T00:34:16Z</time>
      </trkpt>
      <trkpt lat="41.332020" lon="-5.578380">
        <ele>746.791</ele>
        <time>2022-02-27T00:34:56Z</time>
      </trkpt>
      <trkpt lat="41.332080" lon="-5.578370">
        <ele>746.793</ele>
        <time>2022-02-27T00:35:36Z</time>
      </trkpt>
      <trkpt lat="41.332200" lon="-5.578350">
        <ele>746.927</ele>
        <time>2022-02-27T00:36:16Z</time>
      </trkpt>
      <trkpt lat="41.332320" lon="-5.578330">
        <ele>747.468</ele>
        <time>2022-02-27T00:36:56Z</time>
      </trkpt>
      <trkpt lat="41.332380" lon="-5.578340">
        <ele>747.514</ele>
        <time>2022-02-27T00:37:36Z</time>
      </trkpt>
      <trkpt lat="41.332460" lon="-5.578340">
        <ele>747.808</ele>
        <time>2022-02-27T00:38:16Z</time>
      </trkpt>
      <trkpt lat="41.332700" lon="-5.578390">
        <ele>747.671</ele>
        <time>2022-02-27T00:38:56Z</time>
      </trkpt>
      <trkpt lat="41.332880" lon="-5.578430">
        <ele>747.828</ele>
        <time>2022-02-27T00:39:36Z</time>
      </trkpt>
      <trkpt lat="41.333000" lon="-5.578460">
        <ele>748.352</ele>
        <time>2022-02-27T00:40:16Z</time>
      </trkpt>
      <trkpt lat="41.333100" lon="-5.578480">
        <ele>748.671</ele>
        <time>2022-02-27T00:40:56Z</time>
      </trkpt>
      <trkpt lat="41.333110" lon="-5.578490">
        <ele>748.610</ele>
        <time>2022-02-27T00:41:36Z</time>
      </trkpt>
      <trkpt lat="41.333700" lon="-5.578630">
        <ele>749.121</ele>
        <time>2022-02-27T00:42:16Z</time>
      </trkpt>
      <trkpt lat="41.334150" lon="-5.578740">
        <ele>746.312</ele>
        <time>2022-02-27T00:42:56Z</time>
      </trkpt>
      <trkpt lat="41.334940" lon="-5.578930">
        <ele>745.934</ele>
        <time>2022-02-27T00:43:36Z</time>
      </trkpt>
      <trkpt lat="41.335050" lon="-5.578950">
        <ele>745.328</ele>
        <time>2022-02-27T00:44:16Z</time>
      </trkpt>
      <trkpt lat="41.335120" lon="-5.578970">
        <ele>744.589</ele>
        <time>2022-02-27T00:44:56Z</time>
      </trkpt>
      <trkpt lat="41.335470" lon="-5.579050">
        <ele>740.917</ele>
        <time>2022-02-27T00:45:36Z</time>
      </trkpt>
      <trkpt lat="41.335650" lon="-5.579090">
        <ele>739.908</ele>
        <time>2022-02-27T00:46:16Z</time>
      </trkpt>
      <trkpt lat="41.336180" lon="-5.579220">
        <ele>739.171</ele>
        <time>2022-02-27T00:46:56Z</time>
      </trkpt>
      <trkpt lat="41.336179" lon="-5.579220">
        <ele>739.128</ele>
        <time>2022-02-27T00:47:36Z</time>
      </trkpt>
      <trkpt lat="41.336240" lon="-5.579730">
        <ele>739.532</ele>
        <time>2022-02-27T00:48:16Z</time>
      </trkpt>
      <trkpt lat="41.336290" lon="-5.580080">
        <ele>739.291</ele>
        <time>2022-02-27T00:48:56Z</time>
      </trkpt>
      <trkpt lat="41.336300" lon="-5.580130">
        <ele>739.360</ele>
        <time>2022-02-27T00:49:36Z</time>
      </trkpt>
      <trkpt lat="41.336350" lon="-5.580440">
        <ele>739.991</ele>
        <time>2022-02-27T00:50:16Z</time>
      </trkpt>
      <trkpt lat="41.336400" lon="-5.580660">
        <ele>740.482</ele>
        <time>2022-02-27T00:50:56Z</time>
      </trkpt>
      <trkpt lat="41.336470" lon="-5.580860">
        <ele>741.434</ele>
        <time>2022-02-27T00:51:36Z</time>
      </trkpt>
      <trkpt lat="41.336480" lon="-5.580900">
        <ele>741.525</ele>
        <time>2022-02-27T00:52:16Z</time>
      </trkpt>
      <trkpt lat="41.336630" lon="-5.581220">
        <ele>742.026</ele>
        <time>2022-02-27T00:52:56Z</time>
      </trkpt>
      <trkpt lat="41.336660" lon="-5.581260">
        <ele>742.008</ele>
        <time>2022-02-27T00:53:36Z</time>
      </trkpt>
      <trkpt lat="41.336760" lon="-5.581450">
        <ele>741.808</ele>
        <time>2022-02-27T00:54:16Z</time>
      </trkpt>
      <trkpt lat="41.336910" lon="-5.581730">
        <ele>743.311</ele>
        <time>2022-02-27T00:54:56Z</time>
      </trkpt>
      <trkpt lat="41.337050" lon="-5.581980">
        <ele>744.678</ele>
        <time>2022-02-27T00:55:36Z</time>
      </trkpt>
      <trkpt lat="41.337080" lon="-5.582030">
        <ele>744.572</ele>
        <time>2022-02-27T00:56:16Z</time>
      </trkpt>
      <trkpt lat="41.337170" lon="-5.582170">
        <ele>744.211</ele>
        <time>2022-02-27T00:56:56Z</time>
      </trkpt>
      <trkpt lat="41.337320" lon="-5.582400">
        <ele>744.470</ele>
        <time>2022-02-27T00:57:36Z</time>
      </trkpt>
      <trkpt lat="41.337600" lon="-5.582760">
        <ele>744.451</ele>
        <time>2022-02-27T00:58:16Z</time>
      </trkpt>
      <trkpt lat="41.337710" lon="-5.582890">
        <ele>744.862</ele>
        <time>2022-02-27T00:58:56Z</time>
      </trkpt>
      <trkpt lat="41.337730" lon="-5.582920">
        <ele>744.854</ele>
        <time>2022-02-27T00:59:36Z</time>
      </trkpt>
      <trkpt lat="41.337760" lon="-5.582950">
        <ele>744.982</ele>
        <time>2022-02-27T01:00:16Z</time>
      </trkpt>
      <trkpt lat="41.337780" lon="-5.582970">
        <ele>745.043</ele>
        <time>2022-02-27T01:00:56Z</time>
      </trkpt>
      <trkpt lat="41.337850" lon="-5.583060">
        <ele>745.017</ele>
        <time>2022-02-27T01:01:36Z</time>
      </trkpt>
      <trkpt lat="41.338000" lon="-5.583190">
        <ele>745.108</ele>
        <time>2022-02-27T01:02:16Z</time>
      </trkpt>
      <trkpt lat="41.338240" lon="-5.583360">
        <ele>745.057</ele>
        <time>2022-02-27T01:02:56Z</time>
      </trkpt>
      <trkpt lat="41.338580" lon="-5.583530">
        <ele>745.654</ele>
        <time>2022-02-27T01:03:36Z</time>
      </trkpt>
      <trkpt lat="41.338730" lon="-5.583600">
        <ele>746.078</ele>
        <time>2022-02-27T01:04:16Z</time>
      </trkpt>
      <trkpt lat="41.338900" lon="-5.583690">
        <ele>746.957</ele>
        <time>2022-02-27T01:04:56Z</time>
      </trkpt>
      <trkpt lat="41.338980" lon="-5.583730">
        <ele>747.556</ele>
        <time>2022-02-27T01:05:36Z</time>
      </trkpt>
      <trkpt lat="41.339360" lon="-5.583940">
        <ele>750.297</ele>
        <time>2022-02-27T01:06:16Z</time>
      </trkpt>
      <trkpt lat="41.339390" lon="-5.583960">
        <ele>750.618</ele>
        <time>2022-02-27T01:06:56Z</time>
      </trkpt>
      <trkpt lat="41.339710" lon="-5.584160">
        <ele>751.050</ele>
        <time>2022-02-27T01:07:36Z</time>
      </trkpt>
      <trkpt lat="41.340240" lon="-5.584470">
        <ele>754.977</ele>
        <time>2022-02-27T01:08:16Z</time>
      </trkpt>
      <trkpt lat="41.340380" lon="-5.584540">
        <ele>755.061</ele>
        <time>2022-02-27T01:08:56Z</time>
      </trkpt>
      <trkpt lat="41.340410" lon="-5.584560">
        <ele>755.027</ele>
        <time>2022-02-27T01:09:36Z</time>
      </trkpt>
      <trkpt lat="41.340550" lon="-5.584620">
        <ele>755.008</ele>
        <time>2022-02-27T01:10:16Z</time>
      </trkpt>
      <trkpt lat="41.340730" lon="-5.584710">
        <ele>754.326</ele>
        <time>2022-02-27T01:10:56Z</time>
      </trkpt>
      <trkpt lat="41.341020" lon="-5.584850">
        <ele>754.123</ele>
        <time>2022-02-27T01:11:36Z</time>
      </trkpt>
      <trkpt lat="41.341230" lon="-5.584930">
        <ele>754.677</ele>
        <time>2022-02-27T01:12:16Z</time>
      </trkpt>
      <trkpt lat="41.341620" lon="-5.585040">
        <ele>754.266</ele>
        <time>2022-02-27T01:12:56Z</time>
      </trkpt>
      <trkpt lat="41.342070" lon="-5.585170">
        <ele>754.235</ele>
        <time>2022-02-27T01:13:36Z</time>
      </trkpt>
      <trkpt lat="41.342360" lon="-5.585290">
        <ele>754.566</ele>
        <time>2022-02-27T01:14:16Z</time>
      </trkpt>
      <trkpt lat="41.342590" lon="-5.585420">
        <ele>752.287</ele>
        <time>2022-02-27T01:14:56Z</time>
      </trkpt>
      <trkpt lat="41.342650" lon="-5.585460">
        <ele>751.459</ele>
        <time>2022-02-27T01:15:36Z</time>
      </trkpt>
      <trkpt lat="41.342970" lon="-5.585670">
        <ele>748.351</ele>
        <time>2022-02-27T01:16:16Z</time>
      </trkpt>
      <trkpt lat="41.343130" lon="-5.585780">
        <ele>747.501</ele>
        <time>2022-02-27T01:16:56Z</time>
      </trkpt>
      <trkpt lat="41.343290" lon="-5.585880">
        <ele>747.311</ele>
        <time>2022-02-27T01:17:36Z</time>
      </trkpt>
      <trkpt lat="41.343440" lon="-5.585980">
        <ele>747.708</ele>
        <time>2022-02-27T01:18:16Z</time>
      </trkpt>
      <trkpt lat="41.343450" lon="-5.585990">
        <ele>747.814</ele>
        <time>2022-02-27T01:18:56Z</time>
      </trkpt>
      <trkpt lat="41.343620" lon="-5.586100">
        <ele>748.941</ele>
        <time>2022-02-27T01:19:36Z</time>
      </trkpt>
      <trkpt lat="41.343700" lon="-5.586150">
        <ele>749.265</ele>
        <time>2022-02-27T01:20:16Z</time>
      </trkpt>
      <trkpt lat="41.343780" lon="-5.586200">
        <ele>749.534</ele>
        <time>2022-02-27T01:20:56Z</time>
      </trkpt>
      <trkpt lat="41.344410" lon="-5.586650">
        <ele>750.223</ele>
        <time>2022-02-27T01:21:36Z</time>
      </trkpt>
      <trkpt lat="41.344430" lon="-5.586660">
        <ele>750.174</ele>
        <time>2022-02-27T01:22:16Z</time>
      </trkpt>
      <trkpt lat="41.344720" lon="-5.586890">
        <ele>749.075</ele>
        <time>2022-02-27T01:22:56Z</time>
      </trkpt>
      <trkpt lat="41.344730" lon="-5.586900">
        <ele>749.097</ele>
        <time>2022-02-27T01:23:36Z</time>
      </trkpt>
      <trkpt lat="41.344870" lon="-5.587040">
        <ele>749.919</ele>
        <time>2022-02-27T01:24:16Z</time>
      </trkpt>
      <trkpt lat="41.344910" lon="-5.587080">
        <ele>750.209</ele>
        <time>2022-02-27T01:24:56Z</time>
      </trkpt>
      <trkpt lat="41.345100" lon="-5.587310">
        <ele>751.019</ele>
        <time>2022-02-27T01:25:36Z</time>
      </trkpt>
      <trkpt lat="41.345130" lon="-5.587360">
        <ele>751.008</ele>
        <time>2022-02-27T01:26:16Z</time>
      </trkpt>
      <trkpt lat="41.345250" lon="-5.587550">
        <ele>751.020</ele>
        <time>2022-02-27T01:26:56Z</time>
      </trkpt>
      <trkpt lat="41.345310" lon="-5.587660">
        <ele>751.147</ele>
        <time>2022-02-27T01:27:36Z</time>
      </trkpt>
      <trkpt lat="41.345430" lon="-5.587930">
        <ele>751.841</ele>
        <time>2022-02-27T01:28:16Z</time>
      </trkpt>
      <trkpt lat="41.345520" lon="-5.588230">
        <ele>753.470</ele>
        <time>2022-02-27T01:28:56Z</time>
      </trkpt>
      <trkpt lat="41.345520" lon="-5.588240">
        <ele>753.419</ele>
        <time>2022-02-27T01:29:36Z</time>
      </trkpt>
      <trkpt lat="41.345525" lon="-5.588238">
        <ele>753.460</ele>
        <time>2022-02-27T01:30:16Z</time>
      </trkpt>
      <trkpt lat="41.345560" lon="-5.588240">
        <ele>753.771</ele>
        <time>2022-02-27T01:30:56Z</time>
      </trkpt>
      <trkpt lat="41.345580" lon="-5.588250">
        <ele>753.883</ele>
        <time>2022-02-27T01:31:36Z</time>
      </trkpt>
      <trkpt lat="41.345590" lon="-5.588250">
        <ele>753.826</ele>
        <time>2022-02-27T01:32:16Z</time>
      </trkpt>
      <trkpt lat="41.345600" lon="-5.588270">
        <ele>753.947</ele>
        <time>2022-02-27T01:32:56Z</time>
      </trkpt>
      <trkpt lat="41.345650" lon="-5.588330">
        <ele>754.311</ele>
        <time>2022-02-27T01:33:36Z</time>
      </trkpt>
      <trkpt lat="41.345670" lon="-5.588340">
        <ele>754.408</ele>
        <time>2022-02-27T01:34:16Z</time>
      </trkpt>
      <trkpt lat="41.345680" lon="-5.588350">
        <ele>754.541</ele>
        <time>2022-02-27T01:34:56Z</time>
      </trkpt>
      <trkpt lat="41.345690" lon="-5.588350">
        <ele>754.518</ele>
        <time>2022-02-27T01:35:36Z</time>
      </trkpt>
      <trkpt lat="41.345710" lon="-5.588350">
        <ele>754.612</ele>
        <time>2022-02-27T01:36:16Z</time>
      </trkpt>
      <trkpt lat="41.345740" lon="-5.588350">
        <ele>754.791</ele>
        <time>2022-02-27T01:36:56Z</time>
      </trkpt>
      <trkpt lat="41.345750" lon="-5.588350">
        <ele>754.760</ele>
        <time>2022-02-27T01:37:36Z</time>
      </trkpt>
      <trkpt lat="41.345780" lon="-5.588350">
        <ele>754.931</ele>
        <time>2022-02-27T01:38:16Z</time>
      </trkpt>
      <trkpt lat="41.345790" lon="-5.588350">
        <ele>754.912</ele>
        <time>2022-02-27T01:38:56Z</time>
      </trkpt>
      <trkpt lat="41.345810" lon="-5.588350">
        <ele>755.044</ele>
        <time>2022-02-27T01:39:36Z</time>
      </trkpt>
      <trkpt lat="41.345890" lon="-5.588360">
        <ele>755.139</ele>
        <time>2022-02-27T01:40:16Z</time>
      </trkpt>
      <trkpt lat="41.346200" lon="-5.588320">
        <ele>754.701</ele>
        <time>2022-02-27T01:40:56Z</time>
      </trkpt>
      <trkpt lat="41.346350" lon="-5.588330">
        <ele>754.121</ele>
        <time>2022-02-27T01:41:36Z</time>
      </trkpt>
      <trkpt lat="41.346500" lon="-5.588360">
        <ele>754.108</ele>
        <time>2022-02-27T01:42:16Z</time>
      </trkpt>
      <trkpt lat="41.346620" lon="-5.588370">
        <ele>754.182</ele>
        <time>2022-02-27T01:42:56Z</time>
      </trkpt>
      <trkpt lat="41.347160" lon="-5.588520">
        <ele>754.529</ele>
        <time>2022-02-27T01:43:36Z</time>
      </trkpt>
      <trkpt lat="41.347380" lon="-5.588580">
        <ele>753.543</ele>
        <time>2022-02-27T01:44:16Z</time>
      </trkpt>
      <trkpt lat="41.347390" lon="-5.588580">
        <ele>753.562</ele>
        <time>2022-02-27T01:44:56Z</time>
      </trkpt>
      <trkpt lat="41.347490" lon="-5.588620">
        <ele>753.061</ele>
        <time>2022-02-27T01:45:36Z</time>
      </trkpt>
      <trkpt lat="41.347550" lon="-5.588660">
        <ele>752.982</ele>
        <time>2022-02-27T01:46:16Z</time>
      </trkpt>
      <trkpt lat="41.347690" lon="-5.588700">
        <ele>752.913</ele>
        <time>2022-02-27T01:46:56Z</time>
      </trkpt>
      <trkpt lat="41.347860" lon="-5.588760">
        <ele>752.745</ele>
        <time>2022-02-27T01:47:36Z</time>
      </trkpt>
      <trkpt lat="41.348010" lon="-5.588800">
        <ele>752.276</ele>
        <time>2022-02-27T01:48:16Z</time>
      </trkpt>
      <trkpt lat="41.348210" lon="-5.588860">
        <ele>751.490</ele>
        <time>2022-02-27T01:48:56Z</time>
      </trkpt>
      <trkpt lat="41.348670" lon="-5.588980">
        <ele>750.919</ele>
        <time>2022-02-27T01:49:36Z</time>
      </trkpt>
      <trkpt lat="41.348710" lon="-5.588990">
        <ele>750.908</ele>
        <time>2022-02-27T01:50:16Z</time>
      </trkpt>
      <trkpt lat="41.349000" lon="-5.589070">
        <ele>750.316</ele>
        <time>2022-02-27T01:50:56Z</time>
      </trkpt>
      <trkpt lat="41.349460" lon="-5.589260">
        <ele>747.333</ele>
        <time>2022-02-27T01:51:36Z</time>
      </trkpt>
      <trkpt lat="41.349630" lon="-5.589340">
        <ele>746.167</ele>
        <time>2022-02-27T01:52:16Z</time>
      </trkpt>
      <trkpt lat="41.349790" lon="-5.589420">
        <ele>745.276</ele>
        <time>2022-02-27T01:52:56Z</time>
      </trkpt>
      <trkpt lat="41.349800" lon="-5.589430">
        <ele>745.135</ele>
        <time>2022-02-27T01:53:36Z</time>
      </trkpt>
      <trkpt lat="41.350090" lon="-5.589600">
        <ele>743.646</ele>
        <time>2022-02-27T01:54:16Z</time>
      </trkpt>
      <trkpt lat="41.350230" lon="-5.589680">
        <ele>742.517</ele>
        <time>2022-02-27T01:54:56Z</time>
      </trkpt>
      <trkpt lat="41.350240" lon="-5.589680">
        <ele>742.449</ele>
        <time>2022-02-27T01:55:36Z</time>
      </trkpt>
      <trkpt lat="41.350520" lon="-5.589860">
        <ele>741.943</ele>
        <time>2022-02-27T01:56:16Z</time>
      </trkpt>
      <trkpt lat="41.350690" lon="-5.589960">
        <ele>741.364</ele>
        <time>2022-02-27T01:56:56Z</time>
      </trkpt>
      <trkpt lat="41.351150" lon="-5.590240">
        <ele>738.410</ele>
        <time>2022-02-27T01:57:36Z</time>
      </trkpt>
      <trkpt lat="41.351680" lon="-5.590570">
        <ele>737.808</ele>
        <time>2022-02-27T01:58:16Z</time>
      </trkpt>
      <trkpt lat="41.352080" lon="-5.590810">
        <ele>734.673</ele>
        <time>2022-02-27T01:58:56Z</time>
      </trkpt>
      <trkpt lat="41.352200" lon="-5.590880">
        <ele>734.110</ele>
        <time>2022-02-27T01:59:36Z</time>
      </trkpt>
      <trkpt lat="41.352460" lon="-5.591050">
        <ele>733.314</ele>
        <time>2022-02-27T02:00:16Z</time>
      </trkpt>
      <trkpt lat="41.353010" lon="-5.591390">
        <ele>729.323</ele>
        <time>2022-02-27T02:00:56Z</time>
      </trkpt>
      <trkpt lat="41.353320" lon="-5.591610">
        <ele>729.932</ele>
        <time>2022-02-27T02:01:36Z</time>
      </trkpt>
      <trkpt lat="41.353430" lon="-5.591710">
        <ele>731.373</ele>
        <time>2022-02-27T02:02:16Z</time>
      </trkpt>
      <trkpt lat="41.353490" lon="-5.591770">
        <ele>732.114</ele>
        <time>2022-02-27T02:02:56Z</time>
      </trkpt>
      <trkpt lat="41.353830" lon="-5.592090">
        <ele>733.656</ele>
        <time>2022-02-27T02:03:36Z</time>
      </trkpt>
      <trkpt lat="41.353890" lon="-5.592140">
        <ele>733.622</ele>
        <time>2022-02-27T02:04:16Z</time>
      </trkpt>
      <trkpt lat="41.353920" lon="-5.592170">
        <ele>733.462</ele>
        <time>2022-02-27T02:04:56Z</time>
      </trkpt>
      <trkpt lat="41.354210" lon="-5.592460">
        <ele>733.008</ele>
        <time>2022-02-27T02:05:36Z</time>
      </trkpt>
      <trkpt lat="41.354270" lon="-5.592530">
        <ele>733.008</ele>
        <time>2022-02-27T02:06:16Z</time>
      </trkpt>
      <trkpt lat="41.354450" lon="-5.592710">
        <ele>733.731</ele>
        <time>2022-02-27T02:06:56Z</time>
      </trkpt>
      <trkpt lat="41.354510" lon="-5.592760">
        <ele>733.348</ele>
        <time>2022-02-27T02:07:36Z</time>
      </trkpt>
      <trkpt lat="41.354590" lon="-5.592850">
        <ele>733.032</ele>
        <time>2022-02-27T02:08:16Z</time>
      </trkpt>
      <trkpt lat="41.354700" lon="-5.592960">
        <ele>733.161</ele>
        <time>2022-02-27T02:08:56Z</time>
      </trkpt>
      <trkpt lat="41.354840" lon="-5.593100">
        <ele>734.550</ele>
        <time>2022-02-27T02:09:36Z</time>
      </trkpt>
      <trkpt lat="41.354850" lon="-5.593120">
        <ele>734.731</ele>
        <time>2022-02-27T02:10:16Z</time>
      </trkpt>
      <trkpt lat="41.355170" lon="-5.593460">
        <ele>738.422</ele>
        <time>2022-02-27T02:10:56Z</time>
      </trkpt>
      <trkpt lat="41.355400" lon="-5.593720">
        <ele>740.124</ele>
        <time>2022-02-27T02:11:36Z</time>
      </trkpt>
      <trkpt lat="41.355480" lon="-5.593820">
        <ele>740.758</ele>
        <time>2022-02-27T02:12:16Z</time>
      </trkpt>
      <trkpt lat="41.355750" lon="-5.594180">
        <ele>743.552</ele>
        <time>2022-02-27T02:12:56Z</time>
      </trkpt>
      <trkpt lat="41.355880" lon="-5.594340">
        <ele>744.617</ele>
        <time>2022-02-27T02:13:36Z</time>
      </trkpt>
      <trkpt lat="41.355890" lon="-5.594360">
        <ele>744.708</ele>
        <time>2022-02-27T02:14:16Z</time>
      </trkpt>
      <trkpt lat="41.356100" lon="-5.594670">
        <ele>745.874</ele>
        <time>2022-02-27T02:14:56Z</time>
      </trkpt>
      <trkpt lat="41.356120" lon="-5.594700">
        <ele>745.991</ele>
        <time>2022-02-27T02:15:36Z</time>
      </trkpt>
      <trkpt lat="41.356230" lon="-5.594880">
        <ele>746.745</ele>
        <time>2022-02-27T02:16:16Z</time>
      </trkpt>
      <trkpt lat="41.356340" lon="-5.595050">
        <ele>747.244</ele>
        <time>2022-02-27T02:16:56Z</time>
      </trkpt>
      <trkpt lat="41.356460" lon="-5.595260">
        <ele>747.293</ele>
        <time>2022-02-27T02:17:36Z</time>
      </trkpt>
      <trkpt lat="41.356500" lon="-5.595320">
        <ele>747.574</ele>
        <time>2022-02-27T02:18:16Z</time>
      </trkpt>
      <trkpt lat="41.356910" lon="-5.596000">
        <ele>750.435</ele>
        <time>2022-02-27T02:18:56Z</time>
      </trkpt>
      <trkpt lat="41.357050" lon="-5.596210">
        <ele>751.477</ele>
        <time>2022-02-27T02:19:36Z</time>
      </trkpt>
      <trkpt lat="41.357420" lon="-5.596840">
        <ele>751.798</ele>
        <time>2022-02-27T02:20:16Z</time>
      </trkpt>
      <trkpt lat="41.357620" lon="-5.597180">
        <ele>752.415</ele>
        <time>2022-02-27T02:20:56Z</time>
      </trkpt>
      <trkpt lat="41.357650" lon="-5.597220">
        <ele>752.526</ele>
        <time>2022-02-27T02:21:36Z</time>
      </trkpt>
      <trkpt lat="41.357860" lon="-5.597550">
        <ele>752.208</ele>
        <time>2022-02-27T02:22:16Z</time>
      </trkpt>
      <trkpt lat="41.358060" lon="-5.597820">
        <ele>753.488</ele>
        <time>2022-02-27T02:22:56Z</time>
      </trkpt>
      <trkpt lat="41.358120" lon="-5.597900">
        <ele>754.755</ele>
        <time>2022-02-27T02:23:36Z</time>
      </trkpt>
      <trkpt lat="41.358250" lon="-5.598040">
        <ele>757.639</ele>
        <time>2022-02-27T02:24:16Z</time>
      </trkpt>
      <trkpt lat="41.358280" lon="-5.598070">
        <ele>758.428</ele>
        <time>2022-02-27T02:24:56Z</time>
      </trkpt>
      <trkpt lat="41.358340" lon="-5.598130">
        <ele>759.927</ele>
        <time>2022-02-27T02:25:36Z</time>
      </trkpt>
      <trkpt lat="41.358560" lon="-5.598330">
        <ele>764.498</ele>
        <time>2022-02-27T02:26:16Z</time>
      </trkpt>
      <trkpt lat="41.358870" lon="-5.598610">
        <ele>767.969</ele>
        <time>2022-02-27T02:26:56Z</time>
      </trkpt>
      <trkpt lat="41.358940" lon="-5.598670">
        <ele>768.541</ele>
        <time>2022-02-27T02:27:36Z</time>
      </trkpt>
      <trkpt lat="41.359170" lon="-5.598860">
        <ele>769.095</ele>
        <time>2022-02-27T02:28:16Z</time>
      </trkpt>
      <trkpt lat="41.359210" lon="-5.598890">
        <ele>769.049</ele>
        <time>2022-02-27T02:28:56Z</time>
      </trkpt>
      <trkpt lat="41.359410" lon="-5.599090">
        <ele>769.823</ele>
        <time>2022-02-27T02:29:36Z</time>
      </trkpt>
      <trkpt lat="41.359460" lon="-5.599150">
        <ele>769.908</ele>
        <time>2022-02-27T02:30:16Z</time>
      </trkpt>
      <trkpt lat="41.359590" lon="-5.599310">
        <ele>770.568</ele>
        <time>2022-02-27T02:30:56Z</time>
      </trkpt>
      <trkpt lat="41.359720" lon="-5.599480">
        <ele>771.045</ele>
        <time>2022-02-27T02:31:36Z</time>
      </trkpt>
      <trkpt lat="41.359800" lon="-5.599600">
        <ele>770.469</ele>
        <time>2022-02-27T02:32:16Z</time>
      </trkpt>
      <trkpt lat="41.359850" lon="-5.599660">
        <ele>770.198</ele>
        <time>2022-02-27T02:32:56Z</time>
      </trkpt>
      <trkpt lat="41.359970" lon="-5.599840">
        <ele>768.837</ele>
        <time>2022-02-27T02:33:36Z</time>
      </trkpt>
      <trkpt lat="41.360080" lon="-5.600010">
        <ele>767.788</ele>
        <time>2022-02-27T02:34:16Z</time>
      </trkpt>
      <trkpt lat="41.360460" lon="-5.600580">
        <ele>765.169</ele>
        <time>2022-02-27T02:34:56Z</time>
      </trkpt>
      <trkpt lat="41.360810" lon="-5.601090">
        <ele>764.111</ele>
        <time>2022-02-27T02:35:36Z</time>
      </trkpt>
      <trkpt lat="41.360940" lon="-5.601290">
        <ele>764.073</ele>
        <time>2022-02-27T02:36:16Z</time>
      </trkpt>
      <trkpt lat="41.361130" lon="-5.601590">
        <ele>764.685</ele>
        <time>2022-02-27T02:36:56Z</time>
      </trkpt>
      <trkpt lat="41.361330" lon="-5.601960">
        <ele>764.413</ele>
        <time>2022-02-27T02:37:36Z</time>
      </trkpt>
      <trkpt lat="41.361870" lon="-5.602920">
        <ele>761.508</ele>
        <time>2022-02-27T02:38:16Z</time>
      </trkpt>
      <trkpt lat="41.361890" lon="-5.602950">
        <ele>761.646</ele>
        <time>2022-02-27T02:38:56Z</time>
      </trkpt>
      <trkpt lat="41.361980" lon="-5.603100">
        <ele>762.273</ele>
        <time>2022-02-27T02:39:36Z</time>
      </trkpt>
      <trkpt lat="41.361980" lon="-5.603110">
        <ele>762.257</ele>
        <time>2022-02-27T02:40:16Z</time>
      </trkpt>
      <trkpt lat="41.362000" lon="-5.603130">
        <ele>762.326</ele>
        <time>2022-02-27T02:40:56Z</time>
      </trkpt>
      <trkpt lat="41.362030" lon="-5.603180">
        <ele>762.625</ele>
        <time>2022-02-27T02:41:36Z</time>
      </trkpt>
      <trkpt lat="41.362310" lon="-5.603690">
        <ele>765.046</ele>
        <time>2022-02-27T02:42:16Z</time>
      </trkpt>
      <trkpt lat="41.362410" lon="-5.603880">
        <ele>765.387</ele>
        <time>2022-02-27T02:42:56Z</time>
      </trkpt>
      <trkpt lat="41.362880" lon="-5.604720">
        <ele>767.019</ele>
        <time>2022-02-27T02:43:36Z</time>
      </trkpt>
      <trkpt lat="41.363050" lon="-5.605040">
        <ele>768.032</ele>
        <time>2022-02-27T02:44:16Z</time>
      </trkpt>
      <trkpt lat="41.363380" lon="-5.605640">
        <ele>767.492</ele>
        <time>2022-02-27T02:44:56Z</time>
      </trkpt>
      <trkpt lat="41.363600" lon="-5.606050">
        <ele>769.811</ele>
        <time>2022-02-27T02:45:36Z</time>
      </trkpt>
      <trkpt lat="41.364020" lon="-5.606800">
        <ele>769.308</ele>
        <time>2022-02-27T02:46:16Z</time>
      </trkpt>
      <trkpt lat="41.364030" lon="-5.606800">
        <ele>769.252</ele>
        <time>2022-02-27T02:46:56Z</time>
      </trkpt>
      <trkpt lat="41.364240" lon="-5.607180">
        <ele>771.039</ele>
        <time>2022-02-27T02:47:36Z</time>
      </trkpt>
      <trkpt lat="41.364450" lon="-5.607570">
        <ele>771.843</ele>
        <time>2022-02-27T02:48:16Z</time>
      </trkpt>
      <trkpt lat="41.364880" lon="-5.608340">
        <ele>777.382</ele>
        <time>2022-02-27T02:48:56Z</time>
      </trkpt>
      <trkpt lat="41.365200" lon="-5.608920">
        <ele>779.841</ele>
        <time>2022-02-27T02:49:36Z</time>
      </trkpt>
      <trkpt lat="41.365310" lon="-5.609110">
        <ele>780.962</ele>
        <time>2022-02-27T02:50:16Z</time>
      </trkpt>
      <trkpt lat="41.365390" lon="-5.609260">
        <ele>781.633</ele>
        <time>2022-02-27T02:50:56Z</time>
      </trkpt>
      <trkpt lat="41.365490" lon="-5.609420">
        <ele>782.085</ele>
        <time>2022-02-27T02:51:36Z</time>
      </trkpt>
      <trkpt lat="41.365570" lon="-5.609520">
        <ele>782.398</ele>
        <time>2022-02-27T02:52:16Z</time>
      </trkpt>
      <trkpt lat="41.365660" lon="-5.609650">
        <ele>782.915</ele>
        <time>2022-02-27T02:52:56Z</time>
      </trkpt>
      <trkpt lat="41.365710" lon="-5.609700">
        <ele>783.026</ele>
        <time>2022-02-27T02:53:36Z</time>
      </trkpt>
      <trkpt lat="41.365820" lon="-5.609830">
        <ele>783.008</ele>
        <time>2022-02-27T02:54:16Z</time>
      </trkpt>
      <trkpt lat="41.365970" lon="-5.609970">
        <ele>784.138</ele>
        <time>2022-02-27T02:54:56Z</time>
      </trkpt>
      <trkpt lat="41.366210" lon="-5.610190">
        <ele>785.165</ele>
        <time>2022-02-27T02:55:36Z</time>
      </trkpt>
      <trkpt lat="41.366550" lon="-5.610460">
        <ele>786.219</ele>
        <time>2022-02-27T02:56:16Z</time>
      </trkpt>
      <trkpt lat="41.366660" lon="-5.610540">
        <ele>786.158</ele>
        <time>2022-02-27T02:56:56Z</time>
      </trkpt>
      <trkpt lat="41.367020" lon="-5.610830">
        <ele>784.357</ele>
        <time>2022-02-27T02:57:36Z</time>
      </trkpt>
      <trkpt lat="41.368390" lon="-5.611930">
        <ele>790.088</ele>
        <time>2022-02-27T02:58:16Z</time>
      </trkpt>
      <trkpt lat="41.368640" lon="-5.612130">
        <ele>790.749</ele>
        <time>2022-02-27T02:58:56Z</time>
      </trkpt>
      <trkpt lat="41.368710" lon="-5.612190">
        <ele>790.911</ele>
        <time>2022-02-27T02:59:36Z</time>
      </trkpt>
      <trkpt lat="41.369020" lon="-5.612430">
        <ele>792.288</ele>
        <time>2022-02-27T03:00:16Z</time>
      </trkpt>
      <trkpt lat="41.369170" lon="-5.612560">
        <ele>793.424</ele>
        <time>2022-02-27T03:00:56Z</time>
      </trkpt>
      <trkpt lat="41.369280" lon="-5.612640">
        <ele>793.826</ele>
        <time>2022-02-27T03:01:36Z</time>
      </trkpt>
      <trkpt lat="41.369670" lon="-5.612970">
        <ele>793.408</ele>
        <time>2022-02-27T03:02:16Z</time>
      </trkpt>
      <trkpt lat="41.369950" lon="-5.613170">
        <ele>793.887</ele>
        <time>2022-02-27T03:02:56Z</time>
      </trkpt>
      <trkpt lat="41.370100" lon="-5.613280">
        <ele>794.754</ele>
        <time>2022-02-27T03:03:36Z</time>
      </trkpt>
      <trkpt lat="41.370140" lon="-5.613300">
        <ele>794.948</ele>
        <time>2022-02-27T03:04:16Z</time>
      </trkpt>
      <trkpt lat="41.370270" lon="-5.613370">
        <ele>795.947</ele>
        <time>2022-02-27T03:04:56Z</time>
      </trkpt>
      <trkpt lat="41.370360" lon="-5.613420">
        <ele>796.696</ele>
        <time>2022-02-27T03:05:36Z</time>
      </trkpt>
      <trkpt lat="41.370640" lon="-5.613530">
        <ele>798.097</ele>
        <time>2022-02-27T03:06:16Z</time>
      </trkpt>
      <trkpt lat="41.371230" lon="-5.613740">
        <ele>798.358</ele>
        <time>2022-02-27T03:06:56Z</time>
      </trkpt>
      <trkpt lat="41.371480" lon="-5.613820">
        <ele>798.090</ele>
        <time>2022-02-27T03:07:36Z</time>
      </trkpt>
      <trkpt lat="41.371650" lon="-5.613880">
        <ele>798.034</ele>
        <time>2022-02-27T03:08:16Z</time>
      </trkpt>
      <trkpt lat="41.371970" lon="-5.613970">
        <ele>798.555</ele>
        <time>2022-02-27T03:08:56Z</time>
      </trkpt>
      <trkpt lat="41.372120" lon="-5.614030">
        <ele>800.110</ele>
        <time>2022-02-27T03:09:36Z</time>
      </trkpt>
      <trkpt lat="41.372290" lon="-5.614100">
        <ele>801.308</ele>
        <time>2022-02-27T03:10:16Z</time>
      </trkpt>
      <trkpt lat="41.372520" lon="-5.614190">
        <ele>802.042</ele>
        <time>2022-02-27T03:10:56Z</time>
      </trkpt>
      <trkpt lat="41.372640" lon="-5.614230">
        <ele>802.399</ele>
        <time>2022-02-27T03:11:36Z</time>
      </trkpt>
      <trkpt lat="41.372810" lon="-5.614280">
        <ele>802.723</ele>
        <time>2022-02-27T03:12:16Z</time>
      </trkpt>
      <trkpt lat="41.373030" lon="-5.614350">
        <ele>803.242</ele>
        <time>2022-02-27T03:12:56Z</time>
      </trkpt>
      <trkpt lat="41.373160" lon="-5.614410">
        <ele>802.721</ele>
        <time>2022-02-27T03:13:36Z</time>
      </trkpt>
      <trkpt lat="41.373260" lon="-5.614460">
        <ele>802.272</ele>
        <time>2022-02-27T03:14:16Z</time>
      </trkpt>
      <trkpt lat="41.373450" lon="-5.614550">
        <ele>801.553</ele>
        <time>2022-02-27T03:14:56Z</time>
      </trkpt>
      <trkpt lat="41.373500" lon="-5.614580">
        <ele>801.265</ele>
        <time>2022-02-27T03:15:36Z</time>
      </trkpt>
      <trkpt lat="41.373630" lon="-5.614660">
        <ele>800.483</ele>
        <time>2022-02-27T03:16:16Z</time>
      </trkpt>
      <trkpt lat="41.373660" lon="-5.614690">
        <ele>800.225</ele>
        <time>2022-02-27T03:16:56Z</time>
      </trkpt>
      <trkpt lat="41.373940" lon="-5.614890">
        <ele>799.817</ele>
        <time>2022-02-27T03:17:36Z</time>
      </trkpt>
      <trkpt lat="41.374570" lon="-5.615380">
        <ele>798.508</ele>
        <time>2022-02-27T03:18:16Z</time>
      </trkpt>
      <trkpt lat="41.375260" lon="-5.615910">
        <ele>798.767</ele>
        <time>2022-02-27T03:18:56Z</time>
      </trkpt>
      <trkpt lat="41.375840" lon="-5.616350">
        <ele>796.024</ele>
        <time>2022-02-27T03:19:36Z</time>
      </trkpt>
      <trkpt lat="41.375850" lon="-5.616350">
        <ele>795.938</ele>
        <time>2022-02-27T03:20:16Z</time>
      </trkpt>
      <trkpt lat="41.376670" lon="-5.616990">
        <ele>793.217</ele>
        <time>2022-02-27T03:20:56Z</time>
      </trkpt>
      <trkpt lat="41.376830" lon="-5.617110">
        <ele>793.846</ele>
        <time>2022-02-27T03:21:36Z</time>
      </trkpt>
      <trkpt lat="41.377690" lon="-5.617760">
        <ele>793.697</ele>
        <time>2022-02-27T03:22:16Z</time>
      </trkpt>
      <trkpt lat="41.377920" lon="-5.617940">
        <ele>793.528</ele>
        <time>2022-02-27T03:22:56Z</time>
      </trkpt>
      <trkpt lat="41.380260" lon="-5.619730">
        <ele>795.110</ele>
        <time>2022-02-27T03:23:36Z</time>
      </trkpt>
      <trkpt lat="41.380380" lon="-5.619820">
        <ele>795.484</ele>
        <time>2022-02-27T03:24:16Z</time>
      </trkpt>
      <trkpt lat="41.381510" lon="-5.620690">
        <ele>791.107</ele>
        <time>2022-02-27T03:24:56Z</time>
      </trkpt>
      <trkpt lat="41.382290" lon="-5.621290">
        <ele>790.517</ele>
        <time>2022-02-27T03:25:36Z</time>
      </trkpt>
      <trkpt lat="41.383220" lon="-5.622010">
        <ele>791.608</ele>
        <time>2022-02-27T03:26:16Z</time>
      </trkpt>
      <trkpt lat="41.383380" lon="-5.622130">
        <ele>791.697</ele>
        <time>2022-02-27T03:26:56Z</time>
      </trkpt>
      <trkpt lat="41.383490" lon="-5.622210">
        <ele>791.474</ele>
        <time>2022-02-27T03:27:36Z</time>
      </trkpt>
      <trkpt lat="41.384270" lon="-5.622800">
        <ele>790.258</ele>
        <time>2022-02-27T03:28:16Z</time>
      </trkpt>
      <trkpt lat="41.384560" lon="-5.623030">
        <ele>792.237</ele>
        <time>2022-02-27T03:28:56Z</time>
      </trkpt>
      <trkpt lat="41.385090" lon="-5.623430">
        <ele>792.766</ele>
        <time>2022-02-27T03:29:36Z</time>
      </trkpt>
      <trkpt lat="41.385560" lon="-5.623790">
        <ele>792.677</ele>
        <time>2022-02-27T03:30:16Z</time>
      </trkpt>
      <trkpt lat="41.386030" lon="-5.624140">
        <ele>794.918</ele>
        <time>2022-02-27T03:30:56Z</time>
      </trkpt>
      <trkpt lat="41.386660" lon="-5.624630">
        <ele>796.030</ele>
        <time>2022-02-27T03:31:36Z</time>
      </trkpt>
      <trkpt lat="41.386940" lon="-5.624850">
        <ele>796.946</ele>
        <time>2022-02-27T03:32:16Z</time>
      </trkpt>
      <trkpt lat="41.387750" lon="-5.625450">
        <ele>798.588</ele>
        <time>2022-02-27T03:32:56Z</time>
      </trkpt>
      <trkpt lat="41.388070" lon="-5.625710">
        <ele>801.116</ele>
        <time>2022-02-27T03:33:36Z</time>
      </trkpt>
      <trkpt lat="41.388220" lon="-5.625820">
        <ele>800.808</ele>
        <time>2022-02-27T03:34:16Z</time>
      </trkpt>
      <trkpt lat="41.388270" lon="-5.625860">
        <ele>800.393</ele>
        <time>2022-02-27T03:34:56Z</time>
      </trkpt>
      <trkpt lat="41.388370" lon="-5.625950">
        <ele>799.470</ele>
        <time>2022-02-27T03:35:36Z</time>
      </trkpt>
      <trkpt lat="41.388390" lon="-5.625970">
        <ele>799.334</ele>
        <time>2022-02-27T03:36:16Z</time>
      </trkpt>
      <trkpt lat="41.388530" lon="-5.626100">
        <ele>798.323</ele>
        <time>2022-02-27T03:36:56Z</time>
      </trkpt>
      <trkpt lat="41.388990" lon="-5.626430">
        <ele>799.042</ele>
        <time>2022-02-27T03:37:36Z</time>
      </trkpt>
      <trkpt lat="41.389280" lon="-5.626650">
        <ele>798.653</ele>
        <time>2022-02-27T03:38:16Z</time>
      </trkpt>
      <trkpt lat="41.389930" lon="-5.627130">
        <ele>797.084</ele>
        <time>2022-02-27T03:38:56Z</time>
      </trkpt>
      <trkpt lat="41.390120" lon="-5.627270">
        <ele>795.716</ele>
        <time>2022-02-27T03:39:36Z</time>
      </trkpt>
      <trkpt lat="41.390960" lon="-5.627930">
        <ele>793.128</ele>
        <time>2022-02-27T03:40:16Z</time>
      </trkpt>
      <trkpt lat="41.391220" lon="-5.628130">
        <ele>793.389</ele>
        <time>2022-02-27T03:40:56Z</time>
      </trkpt>
      <trkpt lat="41.391740" lon="-5.628520">
        <ele>793.517</ele>
        <time>2022-02-27T03:41:36Z</time>
      </trkpt>
      <trkpt lat="41.392290" lon="-5.628930">
        <ele>793.008</ele>
        <time>2022-02-27T03:42:16Z</time>
      </trkpt>
      <trkpt lat="41.392320" lon="-5.628950">
        <ele>792.981</ele>
        <time>2022-02-27T03:42:56Z</time>
      </trkpt>
      <trkpt lat="41.392370" lon="-5.628990">
        <ele>792.888</ele>
        <time>2022-02-27T03:43:36Z</time>
      </trkpt>
      <trkpt lat="41.392630" lon="-5.629190">
        <ele>792.582</ele>
        <time>2022-02-27T03:44:16Z</time>
      </trkpt>
      <trkpt lat="41.393020" lon="-5.629480">
        <ele>794.151</ele>
        <time>2022-02-27T03:44:56Z</time>
      </trkpt>
      <trkpt lat="41.393260" lon="-5.629660">
        <ele>794.840</ele>
        <time>2022-02-27T03:45:36Z</time>
      </trkpt>
      <trkpt lat="41.393410" lon="-5.629780">
        <ele>795.221</ele>
        <time>2022-02-27T03:46:16Z</time>
      </trkpt>
      <trkpt lat="41.394020" lon="-5.630250">
        <ele>796.012</ele>
        <time>2022-02-27T03:46:56Z</time>
      </trkpt>
      <trkpt lat="41.394980" lon="-5.630980">
        <ele>796.034</ele>
        <time>2022-02-27T03:47:36Z</time>
      </trkpt>
      <trkpt lat="41.395280" lon="-5.631220">
        <ele>798.456</ele>
        <time>2022-02-27T03:48:16Z</time>
      </trkpt>
      <trkpt lat="41.395750" lon="-5.631580">
        <ele>799.259</ele>
        <time>2022-02-27T03:48:56Z</time>
      </trkpt>
      <trkpt lat="41.395800" lon="-5.631620">
        <ele>799.114</ele>
        <time>2022-02-27T03:49:36Z</time>
      </trkpt>
      <trkpt lat="41.396830" lon="-5.632410">
        <ele>796.608</ele>
        <time>2022-02-27T03:50:16Z</time>
      </trkpt>
      <trkpt lat="41.397160" lon="-5.632660">
        <ele>796.164</ele>
        <time>2022-02-27T03:50:56Z</time>
      </trkpt>
      <trkpt lat="41.397880" lon="-5.633210">
        <ele>794.971</ele>
        <time>2022-02-27T03:51:36Z</time>
      </trkpt>
      <trkpt lat="41.398980" lon="-5.634050">
        <ele>794.145</ele>
        <time>2022-02-27T03:52:16Z</time>
      </trkpt>
      <trkpt lat="41.399030" lon="-5.634100">
        <ele>793.754</ele>
        <time>2022-02-27T03:52:56Z</time>
      </trkpt>
      <trkpt lat="41.399190" lon="-5.634210">
        <ele>793.053</ele>
        <time>2022-02-27T03:53:36Z</time>
      </trkpt>
      <trkpt lat="41.400150" lon="-5.634950">
        <ele>793.584</ele>
        <time>2022-02-27T03:54:16Z</time>
      </trkpt>
      <trkpt lat="41.400290" lon="-5.635040">
        <ele>793.155</ele>
        <time>2022-02-27T03:54:56Z</time>
      </trkpt>
      <trkpt lat="41.400440" lon="-5.635160">
        <ele>792.997</ele>
        <time>2022-02-27T03:55:36Z</time>
      </trkpt>
      <trkpt lat="41.401270" lon="-5.635800">
        <ele>792.668</ele>
        <time>2022-02-27T03:56:16Z</time>
      </trkpt>
      <trkpt lat="41.401690" lon="-5.636130">
        <ele>796.142</ele>
        <time>2022-02-27T03:56:56Z</time>
      </trkpt>
      <trkpt lat="41.402300" lon="-5.636600">
        <ele>797.226</ele>
        <time>2022-02-27T03:57:36Z</time>
      </trkpt>
      <trkpt lat="41.402460" lon="-5.636730">
        <ele>796.808</ele>
        <time>2022-02-27T03:58:16Z</time>
      </trkpt>
      <trkpt lat="41.402500" lon="-5.636760">
        <ele>796.715</ele>
        <time>2022-02-27T03:58:56Z</time>
      </trkpt>
      <trkpt lat="41.402910" lon="-5.637070">
        <ele>800.072</ele>
        <time>2022-02-27T03:59:36Z</time>
      </trkpt>
      <trkpt lat="41.403370" lon="-5.637430">
        <ele>802.936</ele>
        <time>2022-02-27T04:00:16Z</time>
      </trkpt>
      <trkpt lat="41.403590" lon="-5.637610">
        <ele>803.335</ele>
        <time>2022-02-27T04:00:56Z</time>
      </trkpt>
      <trkpt lat="41.403780" lon="-5.637740">
        <ele>800.164</ele>
        <time>2022-02-27T04:01:36Z</time>
      </trkpt>
      <trkpt lat="41.403840" lon="-5.637790">
        <ele>799.335</ele>
        <time>2022-02-27T04:02:16Z</time>
      </trkpt>
      <trkpt lat="41.403920" lon="-5.637840">
        <ele>798.436</ele>
        <time>2022-02-27T04:02:56Z</time>
      </trkpt>
      <trkpt lat="41.404080" lon="-5.637980">
        <ele>796.528</ele>
        <time>2022-02-27T04:03:36Z</time>
      </trkpt>
      <trkpt lat="41.404210" lon="-5.638120">
        <ele>795.975</ele>
        <time>2022-02-27T04:04:16Z</time>
      </trkpt>
      <trkpt lat="41.404280" lon="-5.638200">
        <ele>795.828</ele>
        <time>2022-02-27T04:04:56Z</time>
      </trkpt>
      <trkpt lat="41.404320" lon="-5.638250">
        <ele>795.820</ele>
        <time>2022-02-27T04:05:36Z</time>
      </trkpt>
      <trkpt lat="41.404440" lon="-5.638410">
        <ele>795.708</ele>
        <time>2022-02-27T04:06:16Z</time>
      </trkpt>
      <trkpt lat="41.404590" lon="-5.638690">
        <ele>793.396</ele>
        <time>2022-02-27T04:06:56Z</time>
      </trkpt>
      <trkpt lat="41.404740" lon="-5.638940">
        <ele>791.563</ele>
        <time>2022-02-27T04:07:36Z</time>
      </trkpt>
      <trkpt lat="41.404850" lon="-5.639120">
        <ele>789.387</ele>
        <time>2022-02-27T04:08:16Z</time>
      </trkpt>
      <trkpt lat="41.404950" lon="-5.639270">
        <ele>787.386</ele>
        <time>2022-02-27T04:08:56Z</time>
      </trkpt>
      <trkpt lat="41.405220" lon="-5.639700">
        <ele>782.655</ele>
        <time>2022-02-27T04:09:36Z</time>
      </trkpt>
      <trkpt lat="41.405330" lon="-5.639840">
        <ele>781.816</ele>
        <time>2022-02-27T04:10:16Z</time>
      </trkpt>
      <trkpt lat="41.405390" lon="-5.639910">
        <ele>781.627</ele>
        <time>2022-02-27T04:10:56Z</time>
      </trkpt>
      <trkpt lat="41.405470" lon="-5.639990">
        <ele>781.389</ele>
        <time>2022-02-27T04:11:36Z</time>
      </trkpt>
      <trkpt lat="41.405560" lon="-5.640090">
        <ele>781.063</ele>
        <time>2022-02-27T04:12:16Z</time>
      </trkpt>
      <trkpt lat="41.405640" lon="-5.640150">
        <ele>780.744</ele>
        <time>2022-02-27T04:12:56Z</time>
      </trkpt>
      <trkpt lat="41.405680" lon="-5.640190">
        <ele>780.418</ele>
        <time>2022-02-27T04:13:36Z</time>
      </trkpt>
      <trkpt lat="41.406070" lon="-5.640500">
        <ele>777.408</ele>
        <time>2022-02-27T04:14:16Z</time>
      </trkpt>
      <trkpt lat="41.406390" lon="-5.640750">
        <ele>775.395</ele>
        <time>2022-02-27T04:14:56Z</time>
      </trkpt>
      <trkpt lat="41.407230" lon="-5.641400">
        <ele>770.082</ele>
        <time>2022-02-27T04:15:36Z</time>
      </trkpt>
      <trkpt lat="41.407480" lon="-5.641590">
        <ele>768.656</ele>
        <time>2022-02-27T04:16:16Z</time>
      </trkpt>
      <trkpt lat="41.407760" lon="-5.641800">
        <ele>762.885</ele>
        <time>2022-02-27T04:16:56Z</time>
      </trkpt>
      <trkpt lat="41.407940" lon="-5.641910">
        <ele>759.024</ele>
        <time>2022-02-27T04:17:36Z</time>
      </trkpt>
      <trkpt lat="41.407960" lon="-5.641920">
        <ele>758.695</ele>
        <time>2022-02-27T04:18:16Z</time>
      </trkpt>
      <trkpt lat="41.408120" lon="-5.642010">
        <ele>755.956</ele>
        <time>2022-02-27T04:18:56Z</time>
      </trkpt>
      <trkpt lat="41.408130" lon="-5.642010">
        <ele>755.848</ele>
        <time>2022-02-27T04:19:36Z</time>
      </trkpt>
      <trkpt lat="41.408310" lon="-5.642080">
        <ele>754.244</ele>
        <time>2022-02-27T04:20:16Z</time>
      </trkpt>
      <trkpt lat="41.408470" lon="-5.642110">
        <ele>753.305</ele>
        <time>2022-02-27T04:20:56Z</time>
      </trkpt>
      <trkpt lat="41.408500" lon="-5.642120">
        <ele>753.115</ele>
        <time>2022-02-27T04:21:36Z</time>
      </trkpt>
      <trkpt lat="41.408650" lon="-5.642150">
        <ele>752.308</ele>
        <time>2022-02-27T04:22:16Z</time>
      </trkpt>
      <trkpt lat="41.408730" lon="-5.642160">
        <ele>751.973</ele>
        <time>2022-02-27T04:22:56Z</time>
      </trkpt>
      <trkpt lat="41.408740" lon="-5.642160">
        <ele>751.980</ele>
        <time>2022-02-27T04:23:36Z</time>
      </trkpt>
      <trkpt lat="41.409370" lon="-5.642220">
        <ele>748.614</ele>
        <time>2022-02-27T04:24:16Z</time>
      </trkpt>
      <trkpt lat="41.409380" lon="-5.642220">
        <ele>748.553</ele>
        <time>2022-02-27T04:24:56Z</time>
      </trkpt>
      <trkpt lat="41.410280" lon="-5.642270">
        <ele>741.872</ele>
        <time>2022-02-27T04:25:36Z</time>
      </trkpt>
      <trkpt lat="41.410630" lon="-5.642310">
        <ele>742.163</ele>
        <time>2022-02-27T04:26:16Z</time>
      </trkpt>
      <trkpt lat="41.410820" lon="-5.642330">
        <ele>742.814</ele>
        <time>2022-02-27T04:26:56Z</time>
      </trkpt>
      <trkpt lat="41.410980" lon="-5.642350">
        <ele>742.986</ele>
        <time>2022-02-27T04:27:36Z</time>
      </trkpt>
      <trkpt lat="41.411000" lon="-5.642360">
        <ele>742.894</ele>
        <time>2022-02-27T04:28:16Z</time>
      </trkpt>
      <trkpt lat="41.411160" lon="-5.642410">
        <ele>742.457</ele>
        <time>2022-02-27T04:28:56Z</time>
      </trkpt>
      <trkpt lat="41.411180" lon="-5.642420">
        <ele>742.322</ele>
        <time>2022-02-27T04:29:36Z</time>
      </trkpt>
      <trkpt lat="41.411330" lon="-5.642470">
        <ele>741.308</ele>
        <time>2022-02-27T04:30:16Z</time>
      </trkpt>
      <trkpt lat="41.411390" lon="-5.642490">
        <ele>741.088</ele>
        <time>2022-02-27T04:30:56Z</time>
      </trkpt>
      <trkpt lat="41.411920" lon="-5.642740">
        <ele>738.125</ele>
        <time>2022-02-27T04:31:36Z</time>
      </trkpt>
      <trkpt lat="41.412540" lon="-5.643060">
        <ele>735.959</ele>
        <time>2022-02-27T04:32:16Z</time>
      </trkpt>
      <trkpt lat="41.412840" lon="-5.643240">
        <ele>735.428</ele>
        <time>2022-02-27T04:32:56Z</time>
      </trkpt>
      <trkpt lat="41.412900" lon="-5.643270">
        <ele>735.277</ele>
        <time>2022-02-27T04:33:36Z</time>
      </trkpt>
      <trkpt lat="41.413190" lon="-5.643500">
        <ele>734.178</ele>
        <time>2022-02-27T04:34:16Z</time>
      </trkpt>
      <trkpt lat="41.413420" lon="-5.643720">
        <ele>732.029</ele>
        <time>2022-02-27T04:34:56Z</time>
      </trkpt>
      <trkpt lat="41.413870" lon="-5.644140">
        <ele>727.261</ele>
        <time>2022-02-27T04:35:36Z</time>
      </trkpt>
      <trkpt lat="41.414170" lon="-5.644450">
        <ele>726.051</ele>
        <time>2022-02-27T04:36:16Z</time>
      </trkpt>
      <trkpt lat="41.414180" lon="-5.644460">
        <ele>726.001</ele>
        <time>2022-02-27T04:36:56Z</time>
      </trkpt>
      <trkpt lat="41.414360" lon="-5.644700">
        <ele>725.911</ele>
        <time>2022-02-27T04:37:36Z</time>
      </trkpt>
      <trkpt lat="41.414580" lon="-5.645010">
        <ele>728.008</ele>
        <time>2022-02-27T04:38:16Z</time>
      </trkpt>
      <trkpt lat="41.414770" lon="-5.645300">
        <ele>729.834</ele>
        <time>2022-02-27T04:38:56Z</time>
      </trkpt>
      <trkpt lat="41.414900" lon="-5.645500">
        <ele>729.421</ele>
        <time>2022-02-27T04:39:36Z</time>
      </trkpt>
      <trkpt lat="41.414980" lon="-5.645660">
        <ele>728.775</ele>
        <time>2022-02-27T04:40:16Z</time>
      </trkpt>
      <trkpt lat="41.415100" lon="-5.645920">
        <ele>727.394</ele>
        <time>2022-02-27T04:40:56Z</time>
      </trkpt>
      <trkpt lat="41.415210" lon="-5.646180">
        <ele>726.493</ele>
        <time>2022-02-27T04:41:36Z</time>
      </trkpt>
      <trkpt lat="41.415230" lon="-5.646220">
        <ele>726.534</ele>
        <time>2022-02-27T04:42:16Z</time>
      </trkpt>
      <trkpt lat="41.415270" lon="-5.646320">
        <ele>726.835</ele>
        <time>2022-02-27T04:42:56Z</time>
      </trkpt>
      <trkpt lat="41.415300" lon="-5.646430">
        <ele>726.867</ele>
        <time>2022-02-27T04:43:36Z</time>
      </trkpt>
      <trkpt lat="41.415320" lon="-5.646480">
        <ele>726.675</ele>
        <time>2022-02-27T04:44:16Z</time>
      </trkpt>
      <trkpt lat="41.415320" lon="-5.646500">
        <ele>726.628</ele>
        <time>2022-02-27T04:44:56Z</time>
      </trkpt>
      <trkpt lat="41.415330" lon="-5.646540">
        <ele>726.520</ele>
        <time>2022-02-27T04:45:36Z</time>
      </trkpt>
      <trkpt lat="41.415340" lon="-5.646560">
        <ele>726.408</ele>
        <time>2022-02-27T04:46:16Z</time>
      </trkpt>
      <trkpt lat="41.415350" lon="-5.646580">
        <ele>726.486</ele>
        <time>2022-02-27T04:46:56Z</time>
      </trkpt>
      <trkpt lat="41.415460" lon="-5.647120">
        <ele>724.453</ele>
        <time>2022-02-27T04:47:36Z</time>
      </trkpt>
      <trkpt lat="41.415480" lon="-5.647180">
        <ele>724.237</ele>
        <time>2022-02-27T04:48:16Z</time>
      </trkpt>
      <trkpt lat="41.415600" lon="-5.647860">
        <ele>725.926</ele>
        <time>2022-02-27T04:48:56Z</time>
      </trkpt>
      <trkpt lat="41.415680" lon="-5.648280">
        <ele>725.725</ele>
        <time>2022-02-27T04:49:36Z</time>
      </trkpt>
      <trkpt lat="41.415700" lon="-5.648340">
        <ele>725.466</ele>
        <time>2022-02-27T04:50:16Z</time>
      </trkpt>
      <trkpt lat="41.415730" lon="-5.648450">
        <ele>724.547</ele>
        <time>2022-02-27T04:50:56Z</time>
      </trkpt>
      <trkpt lat="41.415780" lon="-5.648660">
        <ele>723.069</ele>
        <time>2022-02-27T04:51:36Z</time>
      </trkpt>
      <trkpt lat="41.415930" lon="-5.649230">
        <ele>719.341</ele>
        <time>2022-02-27T04:52:16Z</time>
      </trkpt>
      <trkpt lat="41.416070" lon="-5.649710">
        <ele>718.081</ele>
        <time>2022-02-27T04:52:56Z</time>
      </trkpt>
      <trkpt lat="41.416100" lon="-5.649800">
        <ele>717.709</ele>
        <time>2022-02-27T04:53:36Z</time>
      </trkpt>
      <trkpt lat="41.416110" lon="-5.649820">
        <ele>717.608</ele>
        <time>2022-02-27T04:54:16Z</time>
      </trkpt>
      <trkpt lat="41.416150" lon="-5.649950">
        <ele>717.213</ele>
        <time>2022-02-27T04:54:56Z</time>
      </trkpt>
      <trkpt lat="41.416180" lon="-5.650020">
        <ele>716.940</ele>
        <time>2022-02-27T04:55:36Z</time>
      </trkpt>
      <trkpt lat="41.416180" lon="-5.650030">
        <ele>716.964</ele>
        <time>2022-02-27T04:56:16Z</time>
      </trkpt>
      <trkpt lat="41.416210" lon="-5.650140">
        <ele>716.593</ele>
        <time>2022-02-27T04:56:56Z</time>
      </trkpt>
      <trkpt lat="41.416270" lon="-5.650270">
        <ele>716.062</ele>
        <time>2022-02-27T04:57:36Z</time>
      </trkpt>
      <trkpt lat="41.416330" lon="-5.650410">
        <ele>715.563</ele>
        <time>2022-02-27T04:58:16Z</time>
      </trkpt>
      <trkpt lat="41.416350" lon="-5.650450">
        <ele>715.444</ele>
        <time>2022-02-27T04:58:56Z</time>
      </trkpt>
      <trkpt lat="41.416400" lon="-5.650550">
        <ele>715.066</ele>
        <time>2022-02-27T04:59:36Z</time>
      </trkpt>
      <trkpt lat="41.416480" lon="-5.650700">
        <ele>713.542</ele>
        <time>2022-02-27T05:00:16Z</time>
      </trkpt>
      <trkpt lat="41.416540" lon="-5.650820">
        <ele>712.022</ele>
        <time>2022-02-27T05:00:56Z</time>
      </trkpt>
      <trkpt lat="41.416630" lon="-5.650950">
        <ele>710.414</ele>
        <time>2022-02-27T05:01:36Z</time>
      </trkpt>
      <trkpt lat="41.416810" lon="-5.651220">
        <ele>708.208</ele>
        <time>2022-02-27T05:02:16Z</time>
      </trkpt>
      <trkpt lat="41.416880" lon="-5.651310">
        <ele>707.653</ele>
        <time>2022-02-27T05:02:56Z</time>
      </trkpt>
      <trkpt lat="41.416920" lon="-5.651370">
        <ele>707.120</ele>
        <time>2022-02-27T05:03:36Z</time>
      </trkpt>
      <trkpt lat="41.417030" lon="-5.651490">
        <ele>706.684</ele>
        <time>2022-02-27T05:04:16Z</time>
      </trkpt>
      <trkpt lat="41.417080" lon="-5.651530">
        <ele>706.343</ele>
        <time>2022-02-27T05:04:56Z</time>
      </trkpt>
      <trkpt lat="41.417160" lon="-5.651610">
        <ele>705.682</ele>
        <time>2022-02-27T05:05:36Z</time>
      </trkpt>
      <trkpt lat="41.417170" lon="-5.651620">
        <ele>705.533</ele>
        <time>2022-02-27T05:06:16Z</time>
      </trkpt>
      <trkpt lat="41.417650" lon="-5.651960">
        <ele>704.454</ele>
        <time>2022-02-27T05:06:56Z</time>
      </trkpt>
      <trkpt lat="41.418100" lon="-5.652230">
        <ele>703.096</ele>
        <time>2022-02-27T05:07:36Z</time>
      </trkpt>
      <trkpt lat="41.418130" lon="-5.652240">
        <ele>703.067</ele>
        <time>2022-02-27T05:08:16Z</time>
      </trkpt>
      <trkpt lat="41.418180" lon="-5.652260">
        <ele>703.081</ele>
        <time>2022-02-27T05:08:56Z</time>
      </trkpt>
      <trkpt lat="41.418300" lon="-5.652320">
        <ele>703.019</ele>
        <time>2022-02-27T05:09:36Z</time>
      </trkpt>
      <trkpt lat="41.418560" lon="-5.652430">
        <ele>701.208</ele>
        <time>2022-02-27T05:10:16Z</time>
      </trkpt>
      <trkpt lat="41.418750" lon="-5.652490">
        <ele>699.545</ele>
        <time>2022-02-27T05:10:56Z</time>
      </trkpt>
      <trkpt lat="41.418850" lon="-5.652520">
        <ele>698.352</ele>
        <time>2022-02-27T05:11:36Z</time>
      </trkpt>
      <trkpt lat="41.418930" lon="-5.652540">
        <ele>697.676</ele>
        <time>2022-02-27T05:12:16Z</time>
      </trkpt>
      <trkpt lat="41.419050" lon="-5.652570">
        <ele>696.665</ele>
        <time>2022-02-27T05:12:56Z</time>
      </trkpt>
      <trkpt lat="41.419130" lon="-5.652580">
        <ele>696.064</ele>
        <time>2022-02-27T05:13:36Z</time>
      </trkpt>
      <trkpt lat="41.419190" lon="-5.652590">
        <ele>695.645</ele>
        <time>2022-02-27T05:14:16Z</time>
      </trkpt>
      <trkpt lat="41.419310" lon="-5.652600">
        <ele>695.176</ele>
        <time>2022-02-27T05:14:56Z</time>
      </trkpt>
      <trkpt lat="41.419390" lon="-5.652610">
        <ele>694.838</ele>
        <time>2022-02-27T05:15:36Z</time>
      </trkpt>
      <trkpt lat="41.419550" lon="-5.652610">
        <ele>694.157</ele>
        <time>2022-02-27T05:16:16Z</time>
      </trkpt>
      <trkpt lat="41.419690" lon="-5.652600">
        <ele>693.500</ele>
        <time>2022-02-27T05:16:56Z</time>
      </trkpt>
      <trkpt lat="41.419800" lon="-5.652600">
        <ele>693.020</ele>
        <time>2022-02-27T05:17:36Z</time>
      </trkpt>
      <trkpt lat="41.420010" lon="-5.652580">
        <ele>692.008</ele>
        <time>2022-02-27T05:18:16Z</time>
      </trkpt>
      <trkpt lat="41.420030" lon="-5.652570">
        <ele>691.964</ele>
        <time>2022-02-27T05:18:56Z</time>
      </trkpt>
      <trkpt lat="41.420130" lon="-5.652560">
        <ele>691.551</ele>
        <time>2022-02-27T05:19:36Z</time>
      </trkpt>
      <trkpt lat="41.420190" lon="-5.652530">
        <ele>691.395</ele>
        <time>2022-02-27T05:20:16Z</time>
      </trkpt>
      <trkpt lat="41.420290" lon="-5.652520">
        <ele>691.064</ele>
        <time>2022-02-27T05:20:56Z</time>
      </trkpt>
      <trkpt lat="41.420440" lon="-5.652510">
        <ele>690.463</ele>
        <time>2022-02-27T05:21:36Z</time>
      </trkpt>
      <trkpt lat="41.420610" lon="-5.652500">
        <ele>690.064</ele>
        <time>2022-02-27T05:22:16Z</time>
      </trkpt>
      <trkpt lat="41.420710" lon="-5.652500">
        <ele>690.015</ele>
        <time>2022-02-27T05:22:56Z</time>
      </trkpt>
      <trkpt lat="41.420780" lon="-5.652530">
        <ele>690.187</ele>
        <time>2022-02-27T05:23:36Z</time>
      </trkpt>
      <trkpt lat="41.420800" lon="-5.652540">
        <ele>690.158</ele>
        <time>2022-02-27T05:24:16Z</time>
      </trkpt>
      <trkpt lat="41.420840" lon="-5.652560">
        <ele>690.252</ele>
        <time>2022-02-27T05:24:56Z</time>
      </trkpt>
      <trkpt lat="41.420920" lon="-5.652590">
        <ele>690.617</ele>
        <time>2022-02-27T05:25:36Z</time>
      </trkpt>
      <trkpt lat="41.421040" lon="-5.652630">
        <ele>691.208</ele>
        <time>2022-02-27T05:26:16Z</time>
      </trkpt>
      <trkpt lat="41.421120" lon="-5.652660">
        <ele>691.684</ele>
        <time>2022-02-27T05:26:56Z</time>
      </trkpt>
      <trkpt lat="41.421270" lon="-5.652740">
        <ele>692.541</ele>
        <time>2022-02-27T05:27:36Z</time>
      </trkpt>
      <trkpt lat="41.421300" lon="-5.652760">
        <ele>692.715</ele>
        <time>2022-02-27T05:28:16Z</time>
      </trkpt>
      <trkpt lat="41.421390" lon="-5.652820">
        <ele>692.824</ele>
        <time>2022-02-27T05:28:56Z</time>
      </trkpt>
      <trkpt lat="41.421440" lon="-5.652850">
        <ele>692.723</ele>
        <time>2022-02-27T05:29:36Z</time>
      </trkpt>
      <trkpt lat="41.421520" lon="-5.652920">
        <ele>692.254</ele>
        <time>2022-02-27T05:30:16Z</time>
      </trkpt>
      <trkpt lat="41.421610" lon="-5.653010">
        <ele>691.525</ele>
        <time>2022-02-27T05:30:56Z</time>
      </trkpt>
      <trkpt lat="41.421660" lon="-5.653070">
        <ele>691.017</ele>
        <time>2022-02-27T05:31:36Z</time>
      </trkpt>
      <trkpt lat="41.421730" lon="-5.653140">
        <ele>690.125</ele>
        <time>2022-02-27T05:32:16Z</time>
      </trkpt>
      <trkpt lat="41.421750" lon="-5.653160">
        <ele>689.826</ele>
        <time>2022-02-27T05:32:56Z</time>
      </trkpt>
      <trkpt lat="41.421900" lon="-5.653370">
        <ele>688.208</ele>
        <time>2022-02-27T05:33:36Z</time>
      </trkpt>
      <trkpt lat="41.421940" lon="-5.653430">
        <ele>687.708</ele>
        <time>2022-02-27T05:34:16Z</time>
      </trkpt>
      <trkpt lat="41.421940" lon="-5.653450">
        <ele>687.671</ele>
        <time>2022-02-27T05:34:56Z</time>
      </trkpt>
      <trkpt lat="41.421980" lon="-5.653510">
        <ele>687.168</ele>
        <time>2022-02-27T05:35:36Z</time>
      </trkpt>
      <trkpt lat="41.422030" lon="-5.653630">
        <ele>686.382</ele>
        <time>2022-02-27T05:36:16Z</time>
      </trkpt>
      <trkpt lat="41.422050" lon="-5.653660">
        <ele>686.121</ele>
        <time>2022-02-27T05:36:56Z</time>
      </trkpt>
      <trkpt lat="41.422250" lon="-5.653990">
        <ele>683.290</ele>
        <time>2022-02-27T05:37:36Z</time>
      </trkpt>
      <trkpt lat="41.422260" lon="-5.654010">
        <ele>683.021</ele>
        <time>2022-02-27T05:38:16Z</time>
      </trkpt>
      <trkpt lat="41.422360" lon="-5.654200">
        <ele>681.432</ele>
        <time>2022-02-27T05:38:56Z</time>
      </trkpt>
      <trkpt lat="41.422670" lon="-5.654730">
        <ele>681.164</ele>
        <time>2022-02-27T05:39:36Z</time>
      </trkpt>
      <trkpt lat="41.422830" lon="-5.655010">
        <ele>682.674</ele>
        <time>2022-02-27T05:40:16Z</time>
      </trkpt>
      <trkpt lat="41.422880" lon="-5.655090">
        <ele>682.156</ele>
        <time>2022-02-27T05:40:56Z</time>
      </trkpt>
      <trkpt lat="41.423150" lon="-5.655560">
        <ele>679.721</ele>
        <time>2022-02-27T05:41:36Z</time>
      </trkpt>
      <trkpt lat="41.423210" lon="-5.655670">
        <ele>680.708</ele>
        <time>2022-02-27T05:42:16Z</time>
      </trkpt>
      <trkpt lat="41.423430" lon="-5.656050">
        <ele>684.376</ele>
        <time>2022-02-27T05:42:56Z</time>
      </trkpt>
      <trkpt lat="41.423440" lon="-5.656070">
        <ele>684.473</ele>
        <time>2022-02-27T05:43:36Z</time>
      </trkpt>
      <trkpt lat="41.423530" lon="-5.656240">
        <ele>684.887</ele>
        <time>2022-02-27T05:44:16Z</time>
      </trkpt>
      <trkpt lat="41.423730" lon="-5.656600">
        <ele>685.386</ele>
        <time>2022-02-27T05:44:56Z</time>
      </trkpt>
      <trkpt lat="41.423920" lon="-5.656930">
        <ele>687.125</ele>
        <time>2022-02-27T05:45:36Z</time>
      </trkpt>
      <trkpt lat="41.424040" lon="-5.657120">
        <ele>688.776</ele>
        <time>2022-02-27T05:46:16Z</time>
      </trkpt>
      <trkpt lat="41.424120" lon="-5.657240">
        <ele>689.717</ele>
        <time>2022-02-27T05:46:56Z</time>
      </trkpt>
      <trkpt lat="41.424310" lon="-5.657530">
        <ele>690.769</ele>
        <time>2022-02-27T05:47:36Z</time>
      </trkpt>
      <trkpt lat="41.424470" lon="-5.657750">
        <ele>693.022</ele>
        <time>2022-02-27T05:48:16Z</time>
      </trkpt>
      <trkpt lat="41.424660" lon="-5.657980">
        <ele>696.662</ele>
        <time>2022-02-27T05:48:56Z</time>
      </trkpt>
      <trkpt lat="41.425200" lon="-5.658540">
        <ele>700.508</ele>
        <time>2022-02-27T05:49:36Z</time>
      </trkpt>
      <trkpt lat="41.425760" lon="-5.659140">
        <ele>705.008</ele>
        <time>2022-02-27T05:50:16Z</time>
      </trkpt>
      <trkpt lat="41.425800" lon="-5.659170">
        <ele>705.771</ele>
        <time>2022-02-27T05:50:56Z</time>
      </trkpt>
      <trkpt lat="41.426070" lon="-5.659480">
        <ele>707.068</ele>
        <time>2022-02-27T05:51:36Z</time>
      </trkpt>
      <trkpt lat="41.426210" lon="-5.659630">
        <ele>707.622</ele>
        <time>2022-02-27T05:52:16Z</time>
      </trkpt>
      <trkpt lat="41.426380" lon="-5.659810">
        <ele>709.261</ele>
        <time>2022-02-27T05:52:56Z</time>
      </trkpt>
      <trkpt lat="41.426490" lon="-5.659940">
        <ele>709.740</ele>
        <time>2022-02-27T05:53:36Z</time>
      </trkpt>
      <trkpt lat="41.426620" lon="-5.660080">
        <ele>710.381</ele>
        <time>2022-02-27T05:54:16Z</time>
      </trkpt>
      <trkpt lat="41.426890" lon="-5.660420">
        <ele>709.982</ele>
        <time>2022-02-27T05:54:56Z</time>
      </trkpt>
      <trkpt lat="41.427020" lon="-5.660580">
        <ele>709.834</ele>
        <time>2022-02-27T05:55:36Z</time>
      </trkpt>
      <trkpt lat="41.427180" lon="-5.660770">
        <ele>709.317</ele>
        <time>2022-02-27T05:56:16Z</time>
      </trkpt>
      <trkpt lat="41.427290" lon="-5.660900">
        <ele>709.087</ele>
        <time>2022-02-27T05:56:56Z</time>
      </trkpt>
      <trkpt lat="41.427380" lon="-5.661000">
        <ele>709.015</ele>
        <time>2022-02-27T05:57:36Z</time>
      </trkpt>
      <trkpt lat="41.427710" lon="-5.661340">
        <ele>708.008</ele>
        <time>2022-02-27T05:58:16Z</time>
      </trkpt>
      <trkpt lat="41.428190" lon="-5.661830">
        <ele>705.960</ele>
        <time>2022-02-27T05:58:56Z</time>
      </trkpt>
      <trkpt lat="41.428290" lon="-5.661930">
        <ele>704.447</ele>
        <time>2022-02-27T05:59:36Z</time>
      </trkpt>
      <trkpt lat="41.428530" lon="-5.662170">
        <ele>703.371</ele>
        <time>2022-02-27T06:00:16Z</time>
      </trkpt>
      <trkpt lat="41.429100" lon="-5.662760">
        <ele>704.810</ele>
        <time>2022-02-27T06:00:56Z</time>
      </trkpt>
      <trkpt lat="41.429240" lon="-5.662900">
        <ele>705.099</ele>
        <time>2022-02-27T06:01:36Z</time>
      </trkpt>
      <trkpt lat="41.430380" lon="-5.664070">
        <ele>706.040</ele>
        <time>2022-02-27T06:02:16Z</time>
      </trkpt>
      <trkpt lat="41.430450" lon="-5.664140">
        <ele>706.561</ele>
        <time>2022-02-27T06:02:56Z</time>
      </trkpt>
      <trkpt lat="41.430520" lon="-5.664220">
        <ele>706.913</ele>
        <time>2022-02-27T06:03:36Z</time>
      </trkpt>
      <trkpt lat="41.431080" lon="-5.664830">
        <ele>706.851</ele>
        <time>2022-02-27T06:04:16Z</time>
      </trkpt>
      <trkpt lat="41.431140" lon="-5.664900">
        <ele>707.201</ele>
        <time>2022-02-27T06:04:56Z</time>
      </trkpt>
      <trkpt lat="41.431710" lon="-5.665490">
        <ele>710.711</ele>
        <time>2022-02-27T06:05:36Z</time>
      </trkpt>
      <trkpt lat="41.432050" lon="-5.665900">
        <ele>712.908</ele>
        <time>2022-02-27T06:06:16Z</time>
      </trkpt>
      <trkpt lat="41.432110" lon="-5.665970">
        <ele>712.714</ele>
        <time>2022-02-27T06:06:56Z</time>
      </trkpt>
      <trkpt lat="41.432180" lon="-5.666070">
        <ele>712.361</ele>
        <time>2022-02-27T06:07:36Z</time>
      </trkpt>
      <trkpt lat="41.432300" lon="-5.666250">
        <ele>711.515</ele>
        <time>2022-02-27T06:08:16Z</time>
      </trkpt>
      <trkpt lat="41.433020" lon="-5.667440">
        <ele>709.924</ele>
        <time>2022-02-27T06:08:56Z</time>
      </trkpt>
      <trkpt lat="41.433400" lon="-5.668060">
        <ele>711.033</ele>
        <time>2022-02-27T06:09:36Z</time>
      </trkpt>
      <trkpt lat="41.433880" lon="-5.668880">
        <ele>710.164</ele>
        <time>2022-02-27T06:10:16Z</time>
      </trkpt>
      <trkpt lat="41.433910" lon="-5.668940">
        <ele>709.755</ele>
        <time>2022-02-27T06:10:56Z</time>
      </trkpt>
      <trkpt lat="41.434030" lon="-5.669130">
        <ele>708.637</ele>
        <time>2022-02-27T06:11:36Z</time>
      </trkpt>
      <trkpt lat="41.434520" lon="-5.669960">
        <ele>708.697</ele>
        <time>2022-02-27T06:12:16Z</time>
      </trkpt>
      <trkpt lat="41.434620" lon="-5.670160">
        <ele>709.323</ele>
        <time>2022-02-27T06:12:56Z</time>
      </trkpt>
      <trkpt lat="41.434780" lon="-5.670570">
        <ele>709.125</ele>
        <time>2022-02-27T06:13:36Z</time>
      </trkpt>
      <trkpt lat="41.435080" lon="-5.671350">
        <ele>708.308</ele>
        <time>2022-02-27T06:14:16Z</time>
      </trkpt>
      <trkpt lat="41.435160" lon="-5.671570">
        <ele>709.568</ele>
        <time>2022-02-27T06:14:56Z</time>
      </trkpt>
      <trkpt lat="41.435330" lon="-5.672020">
        <ele>711.245</ele>
        <time>2022-02-27T06:15:36Z</time>
      </trkpt>
      <trkpt lat="41.435550" lon="-5.672640">
        <ele>711.019</ele>
        <time>2022-02-27T06:16:16Z</time>
      </trkpt>
      <trkpt lat="41.435630" lon="-5.672860">
        <ele>710.278</ele>
        <time>2022-02-27T06:16:56Z</time>
      </trkpt>
      <trkpt lat="41.435940" lon="-5.673690">
        <ele>710.897</ele>
        <time>2022-02-27T06:17:36Z</time>
      </trkpt>
      <trkpt lat="41.435990" lon="-5.673880">
        <ele>710.698</ele>
        <time>2022-02-27T06:18:16Z</time>
      </trkpt>
      <trkpt lat="41.436020" lon="-5.674040">
        <ele>710.519</ele>
        <time>2022-02-27T06:18:56Z</time>
      </trkpt>
      <trkpt lat="41.436040" lon="-5.674100">
        <ele>710.591</ele>
        <time>2022-02-27T06:19:36Z</time>
      </trkpt>
      <trkpt lat="41.436150" lon="-5.675100">
        <ele>707.421</ele>
        <time>2022-02-27T06:20:16Z</time>
      </trkpt>
      <trkpt lat="41.436160" lon="-5.675160">
        <ele>707.641</ele>
        <time>2022-02-27T06:20:56Z</time>
      </trkpt>
      <trkpt lat="41.436190" lon="-5.675510">
        <ele>708.605</ele>
        <time>2022-02-27T06:21:36Z</time>
      </trkpt>
      <trkpt lat="41.436210" lon="-5.675810">
        <ele>709.608</ele>
        <time>2022-02-27T06:22:16Z</time>
      </trkpt>
      <trkpt lat="41.436250" lon="-5.676170">
        <ele>709.811</ele>
        <time>2022-02-27T06:22:56Z</time>
      </trkpt>
      <trkpt lat="41.436260" lon="-5.676300">
        <ele>709.378</ele>
        <time>2022-02-27T06:23:36Z</time>
      </trkpt>
      <trkpt lat="41.436280" lon="-5.676480">
        <ele>708.922</ele>
        <time>2022-02-27T06:24:16Z</time>
      </trkpt>
      <trkpt lat="41.436310" lon="-5.676650">
        <ele>708.711</ele>
        <time>2022-02-27T06:24:56Z</time>
      </trkpt>
      <trkpt lat="41.436340" lon="-5.676780">
        <ele>708.820</ele>
        <time>2022-02-27T06:25:36Z</time>
      </trkpt>
      <trkpt lat="41.436380" lon="-5.676890">
        <ele>709.051</ele>
        <time>2022-02-27T06:26:16Z</time>
      </trkpt>
      <trkpt lat="41.436430" lon="-5.677030">
        <ele>709.282</ele>
        <time>2022-02-27T06:26:56Z</time>
      </trkpt>
      <trkpt lat="41.436480" lon="-5.677130">
        <ele>709.514</ele>
        <time>2022-02-27T06:27:36Z</time>
      </trkpt>
      <trkpt lat="41.436580" lon="-5.677280">
        <ele>710.628</ele>
        <time>2022-02-27T06:28:16Z</time>
      </trkpt>
      <trkpt lat="41.436650" lon="-5.677370">
        <ele>711.489</ele>
        <time>2022-02-27T06:28:56Z</time>
      </trkpt>
      <trkpt lat="41.436710" lon="-5.677430">
        <ele>711.817</ele>
        <time>2022-02-27T06:29:36Z</time>
      </trkpt>
      <trkpt lat="41.436810" lon="-5.677520">
        <ele>712.008</ele>
        <time>2022-02-27T06:30:16Z</time>
      </trkpt>
      <trkpt lat="41.436970" lon="-5.677620">
        <ele>712.041</ele>
        <time>2022-02-27T06:30:56Z</time>
      </trkpt>
      <trkpt lat="41.437390" lon="-5.677800">
        <ele>711.458</ele>
        <time>2022-02-27T06:31:36Z</time>
      </trkpt>
      <trkpt lat="41.437650" lon="-5.677910">
        <ele>710.522</ele>
        <time>2022-02-27T06:32:16Z</time>
      </trkpt>
      <trkpt lat="41.438230" lon="-5.678150">
        <ele>708.681</ele>
        <time>2022-02-27T06:32:56Z</time>
      </trkpt>
      <trkpt lat="41.438730" lon="-5.678370">
        <ele>708.480</ele>
        <time>2022-02-27T06:33:36Z</time>
      </trkpt>
      <trkpt lat="41.439020" lon="-5.678500">
        <ele>708.941</ele>
        <time>2022-02-27T06:34:16Z</time>
      </trkpt>
      <trkpt lat="41.439390" lon="-5.678640">
        <ele>709.052</ele>
        <time>2022-02-27T06:34:56Z</time>
      </trkpt>
      <trkpt lat="41.439560" lon="-5.678680">
        <ele>709.094</ele>
        <time>2022-02-27T06:35:36Z</time>
      </trkpt>
      <trkpt lat="41.439690" lon="-5.678700">
        <ele>709.046</ele>
        <time>2022-02-27T06:36:16Z</time>
      </trkpt>
      <trkpt lat="41.439850" lon="-5.678700">
        <ele>709.388</ele>
        <time>2022-02-27T06:36:56Z</time>
      </trkpt>
      <trkpt lat="41.440040" lon="-5.678690">
        <ele>709.916</ele>
        <time>2022-02-27T06:37:36Z</time>
      </trkpt>
      <trkpt lat="41.440060" lon="-5.678690">
        <ele>710.008</ele>
        <time>2022-02-27T06:38:16Z</time>
      </trkpt>
      <trkpt lat="41.440240" lon="-5.678650">
        <ele>710.893</ele>
        <time>2022-02-27T06:38:56Z</time>
      </trkpt>
      <trkpt lat="41.440420" lon="-5.678610">
        <ele>711.590</ele>
        <time>2022-02-27T06:39:36Z</time>
      </trkpt>
      <trkpt lat="41.441120" lon="-5.678420">
        <ele>713.424</ele>
        <time>2022-02-27T06:40:16Z</time>
      </trkpt>
      <trkpt lat="41.441300" lon="-5.678370">
        <ele>713.293</ele>
        <time>2022-02-27T06:40:56Z</time>
      </trkpt>
      <trkpt lat="41.441570" lon="-5.678300">
        <ele>714.972</ele>
        <time>2022-02-27T06:41:36Z</time>
      </trkpt>
      <trkpt lat="41.441810" lon="-5.678250">
        <ele>716.423</ele>
        <time>2022-02-27T06:42:16Z</time>
      </trkpt>
      <trkpt lat="41.442030" lon="-5.678220">
        <ele>716.894</ele>
        <time>2022-02-27T06:42:56Z</time>
      </trkpt>
      <trkpt lat="41.442270" lon="-5.678210">
        <ele>716.366</ele>
        <time>2022-02-27T06:43:36Z</time>
      </trkpt>
      <trkpt lat="41.442450" lon="-5.678200">
        <ele>715.741</ele>
        <time>2022-02-27T06:44:16Z</time>
      </trkpt>
      <trkpt lat="41.442650" lon="-5.678230">
        <ele>715.281</ele>
        <time>2022-02-27T06:44:56Z</time>
      </trkpt>
      <trkpt lat="41.442660" lon="-5.678230">
        <ele>715.209</ele>
        <time>2022-02-27T06:45:36Z</time>
      </trkpt>
      <trkpt lat="41.442780" lon="-5.678260">
        <ele>715.008</ele>
        <time>2022-02-27T06:46:16Z</time>
      </trkpt>
      <trkpt lat="41.443050" lon="-5.678330">
        <ele>715.043</ele>
        <time>2022-02-27T06:46:56Z</time>
      </trkpt>
      <trkpt lat="41.443270" lon="-5.678410">
        <ele>714.750</ele>
        <time>2022-02-27T06:47:36Z</time>
      </trkpt>
      <trkpt lat="41.443340" lon="-5.678450">
        <ele>714.874</ele>
        <time>2022-02-27T06:48:16Z</time>
      </trkpt>
      <trkpt lat="41.443510" lon="-5.678520">
        <ele>715.383</ele>
        <time>2022-02-27T06:48:56Z</time>
      </trkpt>
      <trkpt lat="41.443610" lon="-5.678580">
        <ele>715.812</ele>
        <time>2022-02-27T06:49:36Z</time>
      </trkpt>
      <trkpt lat="41.443680" lon="-5.678610">
        <ele>715.753</ele>
        <time>2022-02-27T06:50:16Z</time>
      </trkpt>
      <trkpt lat="41.443910" lon="-5.678750">
        <ele>714.844</ele>
        <time>2022-02-27T06:50:56Z</time>
      </trkpt>
      <trkpt lat="41.444090" lon="-5.678880">
        <ele>713.596</ele>
        <time>2022-02-27T06:51:36Z</time>
      </trkpt>
      <trkpt lat="41.444290" lon="-5.679050">
        <ele>713.534</ele>
        <time>2022-02-27T06:52:16Z</time>
      </trkpt>
      <trkpt lat="41.444480" lon="-5.679210">
        <ele>713.255</ele>
        <time>2022-02-27T06:52:56Z</time>
      </trkpt>
      <trkpt lat="41.444510" lon="-5.679240">
        <ele>713.310</ele>
        <time>2022-02-27T06:53:36Z</time>
      </trkpt>
      <trkpt lat="41.444590" lon="-5.679320">
        <ele>713.608</ele>
        <time>2022-02-27T06:54:16Z</time>
      </trkpt>
      <trkpt lat="41.444730" lon="-5.679470">
        <ele>714.062</ele>
        <time>2022-02-27T06:54:56Z</time>
      </trkpt>
      <trkpt lat="41.444830" lon="-5.679590">
        <ele>714.039</ele>
        <time>2022-02-27T06:55:36Z</time>
      </trkpt>
      <trkpt lat="41.445140" lon="-5.679930">
        <ele>713.543</ele>
        <time>2022-02-27T06:56:16Z</time>
      </trkpt>
      <trkpt lat="41.445550" lon="-5.680370">
        <ele>713.092</ele>
        <time>2022-02-27T06:56:56Z</time>
      </trkpt>
      <trkpt lat="41.445980" lon="-5.680810">
        <ele>710.581</ele>
        <time>2022-02-27T06:57:36Z</time>
      </trkpt>
      <trkpt lat="41.446450" lon="-5.681370">
        <ele>707.432</ele>
        <time>2022-02-27T06:58:16Z</time>
      </trkpt>
      <trkpt lat="41.446890" lon="-5.681910">
        <ele>708.723</ele>
        <time>2022-02-27T06:58:56Z</time>
      </trkpt>
      <trkpt lat="41.446980" lon="-5.682020">
        <ele>709.115</ele>
        <time>2022-02-27T06:59:36Z</time>
      </trkpt>
      <trkpt lat="41.447350" lon="-5.682460">
        <ele>707.635</ele>
        <time>2022-02-27T07:00:16Z</time>
      </trkpt>
      <trkpt lat="41.447390" lon="-5.682490">
        <ele>707.486</ele>
        <time>2022-02-27T07:00:56Z</time>
      </trkpt>
      <trkpt lat="41.447670" lon="-5.682780">
        <ele>707.414</ele>
        <time>2022-02-27T07:01:36Z</time>
      </trkpt>
      <trkpt lat="41.447670" lon="-5.682790">
        <ele>707.408</ele>
        <time>2022-02-27T07:02:16Z</time>
      </trkpt>
      <trkpt lat="41.447850" lon="-5.682940">
        <ele>707.922</ele>
        <time>2022-02-27T07:02:56Z</time>
      </trkpt>
      <trkpt lat="41.447930" lon="-5.683010">
        <ele>707.849</ele>
        <time>2022-02-27T07:03:36Z</time>
      </trkpt>
      <trkpt lat="41.448110" lon="-5.683140">
        <ele>707.563</ele>
        <time>2022-02-27T07:04:16Z</time>
      </trkpt>
      <trkpt lat="41.448370" lon="-5.683300">
        <ele>708.952</ele>
        <time>2022-02-27T07:04:56Z</time>
      </trkpt>
      <trkpt lat="41.448680" lon="-5.683460">
        <ele>708.431</ele>
        <time>2022-02-27T07:05:36Z</time>
      </trkpt>
      <trkpt lat="41.449180" lon="-5.683660">
        <ele>706.472</ele>
        <time>2022-02-27T07:06:16Z</time>
      </trkpt>
      <trkpt lat="41.449290" lon="-5.683700">
        <ele>707.283</ele>
        <time>2022-02-27T07:06:56Z</time>
      </trkpt>
      <trkpt lat="41.450240" lon="-5.684060">
        <ele>703.945</ele>
        <time>2022-02-27T07:07:36Z</time>
      </trkpt>
      <trkpt lat="41.451000" lon="-5.684350">
        <ele>703.345</ele>
        <time>2022-02-27T07:08:16Z</time>
      </trkpt>
      <trkpt lat="41.451110" lon="-5.684390">
        <ele>703.847</ele>
        <time>2022-02-27T07:08:56Z</time>
      </trkpt>
      <trkpt lat="41.451970" lon="-5.684710">
        <ele>701.011</ele>
        <time>2022-02-27T07:09:36Z</time>
      </trkpt>
      <trkpt lat="41.452770" lon="-5.685010">
        <ele>701.108</ele>
        <time>2022-02-27T07:10:16Z</time>
      </trkpt>
      <trkpt lat="41.453090" lon="-5.685160">
        <ele>702.233</ele>
        <time>2022-02-27T07:10:56Z</time>
      </trkpt>
      <trkpt lat="41.453240" lon="-5.685250">
        <ele>702.710</ele>
        <time>2022-02-27T07:11:36Z</time>
      </trkpt>
      <trkpt lat="41.453370" lon="-5.685320">
        <ele>703.044</ele>
        <time>2022-02-27T07:12:16Z</time>
      </trkpt>
      <trkpt lat="41.453650" lon="-5.685530">
        <ele>703.023</ele>
        <time>2022-02-27T07:12:56Z</time>
      </trkpt>
      <trkpt lat="41.453790" lon="-5.685660">
        <ele>703.292</ele>
        <time>2022-02-27T07:13:36Z</time>
      </trkpt>
      <trkpt lat="41.453820" lon="-5.685690">
        <ele>703.483</ele>
        <time>2022-02-27T07:14:16Z</time>
      </trkpt>
      <trkpt lat="41.454040" lon="-5.685910">
        <ele>704.364</ele>
        <time>2022-02-27T07:14:56Z</time>
      </trkpt>
      <trkpt lat="41.454060" lon="-5.685930">
        <ele>704.336</ele>
        <time>2022-02-27T07:15:36Z</time>
      </trkpt>
      <trkpt lat="41.454190" lon="-5.686080">
        <ele>704.825</ele>
        <time>2022-02-27T07:16:16Z</time>
      </trkpt>
      <trkpt lat="41.454650" lon="-5.686710">
        <ele>703.326</ele>
        <time>2022-02-27T07:16:56Z</time>
      </trkpt>
      <trkpt lat="41.454930" lon="-5.687120">
        <ele>702.908</ele>
        <time>2022-02-27T07:17:36Z</time>
      </trkpt>
      <trkpt lat="41.454970" lon="-5.687180">
        <ele>703.008</ele>
        <time>2022-02-27T07:18:16Z</time>
      </trkpt>
      <trkpt lat="41.455400" lon="-5.687760">
        <ele>702.071</ele>
        <time>2022-02-27T07:18:56Z</time>
      </trkpt>
      <trkpt lat="41.455750" lon="-5.688260">
        <ele>703.988</ele>
        <time>2022-02-27T07:19:36Z</time>
      </trkpt>
      <trkpt lat="41.455870" lon="-5.688410">
        <ele>704.032</ele>
        <time>2022-02-27T07:20:16Z</time>
      </trkpt>
      <trkpt lat="41.456010" lon="-5.688550">
        <ele>702.721</ele>
        <time>2022-02-27T07:20:56Z</time>
      </trkpt>
      <trkpt lat="41.456160" lon="-5.688680">
        <ele>700.790</ele>
        <time>2022-02-27T07:21:36Z</time>
      </trkpt>
      <trkpt lat="41.456210" lon="-5.688730">
        <ele>700.221</ele>
        <time>2022-02-27T07:22:16Z</time>
      </trkpt>
      <trkpt lat="41.456320" lon="-5.688800">
        <ele>698.932</ele>
        <time>2022-02-27T07:22:56Z</time>
      </trkpt>
      <trkpt lat="41.456560" lon="-5.688980">
        <ele>697.234</ele>
        <time>2022-02-27T07:23:36Z</time>
      </trkpt>
      <trkpt lat="41.456640" lon="-5.689030">
        <ele>696.713</ele>
        <time>2022-02-27T07:24:16Z</time>
      </trkpt>
      <trkpt lat="41.456800" lon="-5.689140">
        <ele>695.543</ele>
        <time>2022-02-27T07:24:56Z</time>
      </trkpt>
      <trkpt lat="41.457400" lon="-5.689550">
        <ele>687.207</ele>
        <time>2022-02-27T07:25:36Z</time>
      </trkpt>
      <trkpt lat="41.457680" lon="-5.689740">
        <ele>687.008</ele>
        <time>2022-02-27T07:26:16Z</time>
      </trkpt>
      <trkpt lat="41.458230" lon="-5.690140">
        <ele>686.120</ele>
        <time>2022-02-27T07:26:56Z</time>
      </trkpt>
      <trkpt lat="41.458710" lon="-5.690480">
        <ele>677.787</ele>
        <time>2022-02-27T07:27:36Z</time>
      </trkpt>
      <trkpt lat="41.458870" lon="-5.690590">
        <ele>676.531</ele>
        <time>2022-02-27T07:28:16Z</time>
      </trkpt>
      <trkpt lat="41.459340" lon="-5.690930">
        <ele>677.820</ele>
        <time>2022-02-27T07:28:56Z</time>
      </trkpt>
      <trkpt lat="41.459820" lon="-5.691280">
        <ele>675.869</ele>
        <time>2022-02-27T07:29:36Z</time>
      </trkpt>
      <trkpt lat="41.460140" lon="-5.691500">
        <ele>674.380</ele>
        <time>2022-02-27T07:30:16Z</time>
      </trkpt>
      <trkpt lat="41.460380" lon="-5.691660">
        <ele>672.751</ele>
        <time>2022-02-27T07:30:56Z</time>
      </trkpt>
      <trkpt lat="41.460500" lon="-5.691760">
        <ele>671.373</ele>
        <time>2022-02-27T07:31:36Z</time>
      </trkpt>
      <trkpt lat="41.461420" lon="-5.692630">
        <ele>667.128</ele>
        <time>2022-02-27T07:32:16Z</time>
      </trkpt>
      <trkpt lat="41.461680" lon="-5.692860">
        <ele>667.089</ele>
        <time>2022-02-27T07:32:56Z</time>
      </trkpt>
      <trkpt lat="41.462410" lon="-5.693550">
        <ele>663.717</ele>
        <time>2022-02-27T07:33:36Z</time>
      </trkpt>
      <trkpt lat="41.462560" lon="-5.693680">
        <ele>663.308</ele>
        <time>2022-02-27T07:34:16Z</time>
      </trkpt>
      <trkpt lat="41.462800" lon="-5.693910">
        <ele>660.861</ele>
        <time>2022-02-27T07:34:56Z</time>
      </trkpt>
      <trkpt lat="41.462950" lon="-5.694050">
        <ele>659.568</ele>
        <time>2022-02-27T07:35:36Z</time>
      </trkpt>
      <trkpt lat="41.463630" lon="-5.694650">
        <ele>660.232</ele>
        <time>2022-02-27T07:36:16Z</time>
      </trkpt>
      <trkpt lat="41.464070" lon="-5.695070">
        <ele>658.151</ele>
        <time>2022-02-27T07:36:56Z</time>
      </trkpt>
      <trkpt lat="41.464220" lon="-5.695210">
        <ele>657.630</ele>
        <time>2022-02-27T07:37:36Z</time>
      </trkpt>
      <trkpt lat="41.464510" lon="-5.695490">
        <ele>657.241</ele>
        <time>2022-02-27T07:38:16Z</time>
      </trkpt>
      <trkpt lat="41.464580" lon="-5.695550">
        <ele>657.042</ele>
        <time>2022-02-27T07:38:56Z</time>
      </trkpt>
      <trkpt lat="41.465030" lon="-5.695950">
        <ele>658.564</ele>
        <time>2022-02-27T07:39:36Z</time>
      </trkpt>
      <trkpt lat="41.465150" lon="-5.696060">
        <ele>658.911</ele>
        <time>2022-02-27T07:40:16Z</time>
      </trkpt>
      <trkpt lat="41.465750" lon="-5.696610">
        <ele>655.721</ele>
        <time>2022-02-27T07:40:56Z</time>
      </trkpt>
      <trkpt lat="41.466090" lon="-5.696930">
        <ele>653.103</ele>
        <time>2022-02-27T07:41:36Z</time>
      </trkpt>
      <trkpt lat="41.466700" lon="-5.697490">
        <ele>650.308</ele>
        <time>2022-02-27T07:42:16Z</time>
      </trkpt>
      <trkpt lat="41.467860" lon="-5.698570">
        <ele>654.010</ele>
        <time>2022-02-27T07:42:56Z</time>
      </trkpt>
      <trkpt lat="41.467880" lon="-5.698590">
        <ele>654.077</ele>
        <time>2022-02-27T07:43:36Z</time>
      </trkpt>
      <trkpt lat="41.468640" lon="-5.699290">
        <ele>651.621</ele>
        <time>2022-02-27T07:44:16Z</time>
      </trkpt>
      <trkpt lat="41.468690" lon="-5.699340">
        <ele>651.660</ele>
        <time>2022-02-27T07:44:56Z</time>
      </trkpt>
      <trkpt lat="41.468750" lon="-5.699390">
        <ele>651.669</ele>
        <time>2022-02-27T07:45:36Z</time>
      </trkpt>
      <trkpt lat="41.470110" lon="-5.700670">
        <ele>650.490</ele>
        <time>2022-02-27T07:46:16Z</time>
      </trkpt>
      <trkpt lat="41.470210" lon="-5.700760">
        <ele>650.821</ele>
        <time>2022-02-27T07:46:56Z</time>
      </trkpt>
      <trkpt lat="41.471530" lon="-5.701980">
        <ele>649.473</ele>
        <time>2022-02-27T07:47:36Z</time>
      </trkpt>
      <trkpt lat="41.472720" lon="-5.703080">
        <ele>648.163</ele>
        <time>2022-02-27T07:48:16Z</time>
      </trkpt>
      <trkpt lat="41.473810" lon="-5.704090">
        <ele>646.944</ele>
        <time>2022-02-27T07:48:56Z</time>
      </trkpt>
      <trkpt lat="41.474950" lon="-5.705140">
        <ele>647.218</ele>
        <time>2022-02-27T07:49:36Z</time>
      </trkpt>
      <trkpt lat="41.475510" lon="-5.705660">
        <ele>647.108</ele>
        <time>2022-02-27T07:50:16Z</time>
      </trkpt>
      <trkpt lat="41.475790" lon="-5.705920">
        <ele>645.365</ele>
        <time>2022-02-27T07:50:56Z</time>
      </trkpt>
      <trkpt lat="41.476670" lon="-5.706740">
        <ele>642.582</ele>
        <time>2022-02-27T07:51:36Z</time>
      </trkpt>
      <trkpt lat="41.476900" lon="-5.706950">
        <ele>644.976</ele>
        <time>2022-02-27T07:52:16Z</time>
      </trkpt>
      <trkpt lat="41.479180" lon="-5.709070">
        <ele>644.355</ele>
        <time>2022-02-27T07:52:56Z</time>
      </trkpt>
      <trkpt lat="41.479820" lon="-5.709660">
        <ele>641.544</ele>
        <time>2022-02-27T07:53:36Z</time>
      </trkpt>
      <trkpt lat="41.480100" lon="-5.709910">
        <ele>643.065</ele>
        <time>2022-02-27T07:54:16Z</time>
      </trkpt>
      <trkpt lat="41.480570" lon="-5.710340">
        <ele>643.196</ele>
        <time>2022-02-27T07:54:56Z</time>
      </trkpt>
      <trkpt lat="41.480590" lon="-5.710370">
        <ele>643.178</ele>
        <time>2022-02-27T07:55:36Z</time>
      </trkpt>
      <trkpt lat="41.480710" lon="-5.710480">
        <ele>643.626</ele>
        <time>2022-02-27T07:56:16Z</time>
      </trkpt>
      <trkpt lat="41.480750" lon="-5.710510">
        <ele>643.747</ele>
        <time>2022-02-27T07:56:56Z</time>
      </trkpt>
      <trkpt lat="41.481360" lon="-5.711080">
        <ele>645.811</ele>
        <time>2022-02-27T07:57:36Z</time>
      </trkpt>
      <trkpt lat="41.481420" lon="-5.711130">
        <ele>645.808</ele>
        <time>2022-02-27T07:58:16Z</time>
      </trkpt>
      <trkpt lat="41.481490" lon="-5.711200">
        <ele>645.461</ele>
        <time>2022-02-27T07:58:56Z</time>
      </trkpt>
      <trkpt lat="41.481510" lon="-5.711220">
        <ele>645.338</ele>
        <time>2022-02-27T07:59:36Z</time>
      </trkpt>
      <trkpt lat="41.481800" lon="-5.711480">
        <ele>643.912</ele>
        <time>2022-02-27T08:00:16Z</time>
      </trkpt>
      <trkpt lat="41.482080" lon="-5.711730">
        <ele>643.011</ele>
        <time>2022-02-27T08:00:56Z</time>
      </trkpt>
      <trkpt lat="41.482100" lon="-5.711750">
        <ele>643.030</ele>
        <time>2022-02-27T08:01:36Z</time>
      </trkpt>
      <trkpt lat="41.482220" lon="-5.711860">
        <ele>643.031</ele>
        <time>2022-02-27T08:02:16Z</time>
      </trkpt>
      <trkpt lat="41.482240" lon="-5.711880">
        <ele>643.052</ele>
        <time>2022-02-27T08:02:56Z</time>
      </trkpt>
      <trkpt lat="41.482390" lon="-5.712010">
        <ele>643.054</ele>
        <time>2022-02-27T08:03:36Z</time>
      </trkpt>
      <trkpt lat="41.482580" lon="-5.712180">
        <ele>643.095</ele>
        <time>2022-02-27T08:04:16Z</time>
      </trkpt>
      <trkpt lat="41.482950" lon="-5.712530">
        <ele>644.049</ele>
        <time>2022-02-27T08:04:56Z</time>
      </trkpt>
      <trkpt lat="41.483150" lon="-5.712720">
        <ele>643.423</ele>
        <time>2022-02-27T08:05:36Z</time>
      </trkpt>
      <trkpt lat="41.483430" lon="-5.712980">
        <ele>641.708</ele>
        <time>2022-02-27T08:06:16Z</time>
      </trkpt>
      <trkpt lat="41.483510" lon="-5.713020">
        <ele>641.488</ele>
        <time>2022-02-27T08:06:56Z</time>
      </trkpt>
      <trkpt lat="41.483620" lon="-5.713100">
        <ele>640.875</ele>
        <time>2022-02-27T08:07:36Z</time>
      </trkpt>
      <trkpt lat="41.483700" lon="-5.713140">
        <ele>640.799</ele>
        <time>2022-02-27T08:08:16Z</time>
      </trkpt>
      <trkpt lat="41.483760" lon="-5.713160">
        <ele>640.678</ele>
        <time>2022-02-27T08:08:56Z</time>
      </trkpt>
      <trkpt lat="41.483830" lon="-5.713170">
        <ele>640.637</ele>
        <time>2022-02-27T08:09:36Z</time>
      </trkpt>
      <trkpt lat="41.483890" lon="-5.713160">
        <ele>640.678</ele>
        <time>2022-02-27T08:10:16Z</time>
      </trkpt>
      <trkpt lat="41.483950" lon="-5.713140">
        <ele>640.879</ele>
        <time>2022-02-27T08:10:56Z</time>
      </trkpt>
      <trkpt lat="41.484110" lon="-5.713050">
        <ele>641.011</ele>
        <time>2022-02-27T08:11:36Z</time>
      </trkpt>
      <trkpt lat="41.484114" lon="-5.713049">
        <ele>641.069</ele>
        <time>2022-02-27T08:12:16Z</time>
      </trkpt>
      <trkpt lat="41.484120" lon="-5.713040">
        <ele>641.104</ele>
        <time>2022-02-27T08:12:56Z</time>
      </trkpt>
      <trkpt lat="41.484130" lon="-5.713020">
        <ele>641.124</ele>
        <time>2022-02-27T08:13:36Z</time>
      </trkpt>
      <trkpt lat="41.484140" lon="-5.713010">
        <ele>641.208</ele>
        <time>2022-02-27T08:14:16Z</time>
      </trkpt>
      <trkpt lat="41.484150" lon="-5.713000">
        <ele>641.255</ele>
        <time>2022-02-27T08:14:56Z</time>
      </trkpt>
      <trkpt lat="41.484150" lon="-5.712990">
        <ele>641.222</ele>
        <time>2022-02-27T08:15:36Z</time>
      </trkpt>
      <trkpt lat="41.484160" lon="-5.712970">
        <ele>641.376</ele>
        <time>2022-02-27T08:16:16Z</time>
      </trkpt>
      <trkpt lat="41.484170" lon="-5.712960">
        <ele>641.375</ele>
        <time>2022-02-27T08:16:56Z</time>
      </trkpt>
      <trkpt lat="41.484180" lon="-5.712950">
        <ele>641.484</ele>
        <time>2022-02-27T08:17:36Z</time>
      </trkpt>
      <trkpt lat="41.484220" lon="-5.712910">
        <ele>641.535</ele>
        <time>2022-02-27T08:18:16Z</time>
      </trkpt>
      <trkpt lat="41.484260" lon="-5.712880">
        <ele>641.636</ele>
        <time>2022-02-27T08:18:56Z</time>
      </trkpt>
      <trkpt lat="41.484300" lon="-5.712850">
        <ele>641.738</ele>
        <time>2022-02-27T08:19:36Z</time>
      </trkpt>
      <trkpt lat="41.484340" lon="-5.712840">
        <ele>641.895</ele>
        <time>2022-02-27T08:20:16Z</time>
      </trkpt>
      <trkpt lat="41.484380" lon="-5.712830">
        <ele>641.849</ele>
        <time>2022-02-27T08:20:56Z</time>
      </trkpt>
      <trkpt lat="41.484420" lon="-5.712830">
        <ele>641.823</ele>
        <time>2022-02-27T08:21:36Z</time>
      </trkpt>
      <trkpt lat="41.484470" lon="-5.712840">
        <ele>641.708</ele>
        <time>2022-02-27T08:22:16Z</time>
      </trkpt>
      <trkpt lat="41.484510" lon="-5.712860">
        <ele>641.568</ele>
        <time>2022-02-27T08:22:56Z</time>
      </trkpt>
      <trkpt lat="41.484530" lon="-5.712870">
        <ele>641.485</ele>
        <time>2022-02-27T08:23:36Z</time>
      </trkpt>
      <trkpt lat="41.484550" lon="-5.712890">
        <ele>641.299</ele>
        <time>2022-02-27T08:24:16Z</time>
      </trkpt>
      <trkpt lat="41.484570" lon="-5.712910">
        <ele>641.188</ele>
        <time>2022-02-27T08:24:56Z</time>
      </trkpt>
      <trkpt lat="41.484590" lon="-5.712930">
        <ele>640.987</ele>
        <time>2022-02-27T08:25:36Z</time>
      </trkpt>
      <trkpt lat="41.484610" lon="-5.712950">
        <ele>640.868</ele>
        <time>2022-02-27T08:26:16Z</time>
      </trkpt>
      <trkpt lat="41.484630" lon="-5.712970">
        <ele>640.629</ele>
        <time>2022-02-27T08:26:56Z</time>
      </trkpt>
      <trkpt lat="41.484640" lon="-5.713000">
        <ele>640.561</ele>
        <time>2022-02-27T08:27:36Z</time>
      </trkpt>
      <trkpt lat="41.484660" lon="-5.713030">
        <ele>640.367</ele>
        <time>2022-02-27T08:28:16Z</time>
      </trkpt>
      <trkpt lat="41.484680" lon="-5.713070">
        <ele>640.281</ele>
        <time>2022-02-27T08:28:56Z</time>
      </trkpt>
      <trkpt lat="41.484690" lon="-5.713110">
        <ele>640.119</ele>
        <time>2022-02-27T08:29:36Z</time>
      </trkpt>
      <trkpt lat="41.484710" lon="-5.713160">
        <ele>640.008</ele>
        <time>2022-02-27T08:30:16Z</time>
      </trkpt>
      <trkpt lat="41.484710" lon="-5.713210">
        <ele>640.045</ele>
        <time>2022-02-27T08:30:56Z</time>
      </trkpt>
      <trkpt lat="41.484720" lon="-5.713260">
        <ele>640.052</ele>
        <time>2022-02-27T08:31:36Z</time>
      </trkpt>
      <trkpt lat="41.484720" lon="-5.713300">
        <ele>640.076</ele>
        <time>2022-02-27T08:32:16Z</time>
      </trkpt>
      <trkpt lat="41.484720" lon="-5.713350">
        <ele>640.175</ele>
        <time>2022-02-27T08:32:56Z</time>
      </trkpt>
      <trkpt lat="41.484710" lon="-5.713400">
        <ele>640.344</ele>
        <time>2022-02-27T08:33:36Z</time>
      </trkpt>
      <trkpt lat="41.484710" lon="-5.713420">
        <ele>640.335</ele>
        <time>2022-02-27T08:34:16Z</time>
      </trkpt>
      <trkpt lat="41.484710" lon="-5.713430">
        <ele>640.446</ele>
        <time>2022-02-27T08:34:56Z</time>
      </trkpt>
      <trkpt lat="41.484700" lon="-5.713450">
        <ele>640.518</ele>
        <time>2022-02-27T08:35:36Z</time>
      </trkpt>
      <trkpt lat="41.484700" lon="-5.713460">
        <ele>640.587</ele>
        <time>2022-02-27T08:36:16Z</time>
      </trkpt>
      <trkpt lat="41.484690" lon="-5.713480">
        <ele>640.642</ele>
        <time>2022-02-27T08:36:56Z</time>
      </trkpt>
      <trkpt lat="41.484690" lon="-5.713490">
        <ele>640.626</ele>
        <time>2022-02-27T08:37:36Z</time>
      </trkpt>
      <trkpt lat="41.484680" lon="-5.713510">
        <ele>640.708</ele>
        <time>2022-02-27T08:38:16Z</time>
      </trkpt>
      <trkpt lat="41.484680" lon="-5.713520">
        <ele>640.767</ele>
        <time>2022-02-27T08:38:56Z</time>
      </trkpt>
      <trkpt lat="41.484690" lon="-5.713680">
        <ele>641.064</ele>
        <time>2022-02-27T08:39:36Z</time>
      </trkpt>
      <trkpt lat="41.484700" lon="-5.713760">
        <ele>641.088</ele>
        <time>2022-02-27T08:40:16Z</time>
      </trkpt>
      <trkpt lat="41.484720" lon="-5.713860">
        <ele>641.097</ele>
        <time>2022-02-27T08:40:56Z</time>
      </trkpt>
      <trkpt lat="41.484740" lon="-5.713940">
        <ele>640.946</ele>
        <time>2022-02-27T08:41:36Z</time>
      </trkpt>
      <trkpt lat="41.484770" lon="-5.714020">
        <ele>640.967</ele>
        <time>2022-02-27T08:42:16Z</time>
      </trkpt>
      <trkpt lat="41.484840" lon="-5.714170">
        <ele>641.058</ele>
        <time>2022-02-27T08:42:56Z</time>
      </trkpt>
      <trkpt lat="41.484870" lon="-5.714260">
        <ele>641.070</ele>
        <time>2022-02-27T08:43:36Z</time>
      </trkpt>
      <trkpt lat="41.484920" lon="-5.714330">
        <ele>641.068</ele>
        <time>2022-02-27T08:44:16Z</time>
      </trkpt>
      <trkpt lat="41.485000" lon="-5.714480">
        <ele>640.742</ele>
        <time>2022-02-27T08:44:56Z</time>
      </trkpt>
      <trkpt lat="41.485060" lon="-5.714590">
        <ele>639.626</ele>
        <time>2022-02-27T08:45:36Z</time>
      </trkpt>
      <trkpt lat="41.485120" lon="-5.714720">
        <ele>638.608</ele>
        <time>2022-02-27T08:46:16Z</time>
      </trkpt>
      <trkpt lat="41.485180" lon="-5.714880">
        <ele>637.875</ele>
        <time>2022-02-27T08:46:56Z</time>
      </trkpt>
      <trkpt lat="41.485310" lon="-5.715220">
        <ele>638.042</ele>
        <time>2022-02-27T08:47:36Z</time>
      </trkpt>
      <trkpt lat="41.485450" lon="-5.715620">
        <ele>640.146</ele>
        <time>2022-02-27T08:48:16Z</time>
      </trkpt>
      <trkpt lat="41.485580" lon="-5.716000">
        <ele>639.985</ele>
        <time>2022-02-27T08:48:56Z</time>
      </trkpt>
      <trkpt lat="41.485720" lon="-5.716370">
        <ele>640.914</ele>
        <time>2022-02-27T08:49:36Z</time>
      </trkpt>
      <trkpt lat="41.485810" lon="-5.716650">
        <ele>640.135</ele>
        <time>2022-02-27T08:50:16Z</time>
      </trkpt>
      <trkpt lat="41.485970" lon="-5.717080">
        <ele>638.316</ele>
        <time>2022-02-27T08:50:56Z</time>
      </trkpt>
      <trkpt lat="41.486350" lon="-5.718140">
        <ele>638.018</ele>
        <time>2022-02-27T08:51:36Z</time>
      </trkpt>
      <trkpt lat="41.486380" lon="-5.718180">
        <ele>638.056</ele>
        <time>2022-02-27T08:52:16Z</time>
      </trkpt>
      <trkpt lat="41.486390" lon="-5.718190">
        <ele>638.059</ele>
        <time>2022-02-27T08:52:56Z</time>
      </trkpt>
      <trkpt lat="41.486420" lon="-5.718270">
        <ele>637.914</ele>
        <time>2022-02-27T08:53:36Z</time>
      </trkpt>
      <trkpt lat="41.486460" lon="-5.718360">
        <ele>637.808</ele>
        <time>2022-02-27T08:54:16Z</time>
      </trkpt>
      <trkpt lat="41.486490" lon="-5.718420">
        <ele>637.834</ele>
        <time>2022-02-27T08:54:56Z</time>
      </trkpt>
      <trkpt lat="41.486540" lon="-5.718500">
        <ele>637.791</ele>
        <time>2022-02-27T08:55:36Z</time>
      </trkpt>
      <trkpt lat="41.486560" lon="-5.718520">
        <ele>637.655</ele>
        <time>2022-02-27T08:56:16Z</time>
      </trkpt>
      <trkpt lat="41.486580" lon="-5.718550">
        <ele>637.614</ele>
        <time>2022-02-27T08:56:56Z</time>
      </trkpt>
      <trkpt lat="41.486720" lon="-5.718660">
        <ele>636.433</ele>
        <time>2022-02-27T08:57:36Z</time>
      </trkpt>
      <trkpt lat="41.486716" lon="-5.718657">
        <ele>636.424</ele>
        <time>2022-02-27T08:58:16Z</time>
      </trkpt>
      <trkpt lat="41.486760" lon="-5.718650">
        <ele>635.965</ele>
        <time>2022-02-27T08:58:56Z</time>
      </trkpt>
      <trkpt lat="41.486800" lon="-5.718650">
        <ele>635.597</ele>
        <time>2022-02-27T08:59:36Z</time>
      </trkpt>
      <trkpt lat="41.486840" lon="-5.718660">
        <ele>635.095</ele>
        <time>2022-02-27T09:00:16Z</time>
      </trkpt>
      <trkpt lat="41.486890" lon="-5.718670">
        <ele>634.449</ele>
        <time>2022-02-27T09:00:56Z</time>
      </trkpt>
      <trkpt lat="41.486930" lon="-5.718690">
        <ele>633.923</ele>
        <time>2022-02-27T09:01:36Z</time>
      </trkpt>
      <trkpt lat="41.486970" lon="-5.718710">
        <ele>633.708</ele>
        <time>2022-02-27T09:02:16Z</time>
      </trkpt>
      <trkpt lat="41.487010" lon="-5.718740">
        <ele>633.668</ele>
        <time>2022-02-27T09:02:56Z</time>
      </trkpt>
      <trkpt lat="41.487040" lon="-5.718770">
        <ele>633.615</ele>
        <time>2022-02-27T09:03:36Z</time>
      </trkpt>
      <trkpt lat="41.487060" lon="-5.718790">
        <ele>633.629</ele>
        <time>2022-02-27T09:04:16Z</time>
      </trkpt>
      <trkpt lat="41.487080" lon="-5.718810">
        <ele>633.698</ele>
        <time>2022-02-27T09:04:56Z</time>
      </trkpt>
      <trkpt lat="41.487090" lon="-5.718830">
        <ele>633.657</ele>
        <time>2022-02-27T09:05:36Z</time>
      </trkpt>
      <trkpt lat="41.487110" lon="-5.718850">
        <ele>633.738</ele>
        <time>2022-02-27T09:06:16Z</time>
      </trkpt>
      <trkpt lat="41.487130" lon="-5.718870">
        <ele>633.719</ele>
        <time>2022-02-27T09:06:56Z</time>
      </trkpt>
      <trkpt lat="41.487140" lon="-5.718900">
        <ele>633.721</ele>
        <time>2022-02-27T09:07:36Z</time>
      </trkpt>
      <trkpt lat="41.487150" lon="-5.718920">
        <ele>633.715</ele>
        <time>2022-02-27T09:08:16Z</time>
      </trkpt>
      <trkpt lat="41.487160" lon="-5.718950">
        <ele>633.665</ele>
        <time>2022-02-27T09:08:56Z</time>
      </trkpt>
      <trkpt lat="41.487190" lon="-5.719000">
        <ele>633.511</ele>
        <time>2022-02-27T09:09:36Z</time>
      </trkpt>
      <trkpt lat="41.487210" lon="-5.719070">
        <ele>633.308</ele>
        <time>2022-02-27T09:10:16Z</time>
      </trkpt>
      <trkpt lat="41.487230" lon="-5.719140">
        <ele>633.250</ele>
        <time>2022-02-27T09:10:56Z</time>
      </trkpt>
      <trkpt lat="41.487240" lon="-5.719200">
        <ele>633.437</ele>
        <time>2022-02-27T09:11:36Z</time>
      </trkpt>
      <trkpt lat="41.487250" lon="-5.719270">
        <ele>633.931</ele>
        <time>2022-02-27T09:12:16Z</time>
      </trkpt>
      <trkpt lat="41.487250" lon="-5.719340">
        <ele>634.410</ele>
        <time>2022-02-27T09:12:56Z</time>
      </trkpt>
      <trkpt lat="41.487240" lon="-5.719400">
        <ele>634.899</ele>
        <time>2022-02-27T09:13:36Z</time>
      </trkpt>
      <trkpt lat="41.487240" lon="-5.719410">
        <ele>634.830</ele>
        <time>2022-02-27T09:14:16Z</time>
      </trkpt>
      <trkpt lat="41.487230" lon="-5.719470">
        <ele>635.211</ele>
        <time>2022-02-27T09:14:56Z</time>
      </trkpt>
      <trkpt lat="41.487220" lon="-5.719510">
        <ele>635.563</ele>
        <time>2022-02-27T09:15:36Z</time>
      </trkpt>
      <trkpt lat="41.487210" lon="-5.719540">
        <ele>635.675</ele>
        <time>2022-02-27T09:16:16Z</time>
      </trkpt>
      <trkpt lat="41.487200" lon="-5.719570">
        <ele>635.728</ele>
        <time>2022-02-27T09:16:56Z</time>
      </trkpt>
      <trkpt lat="41.487190" lon="-5.719600">
        <ele>635.920</ele>
        <time>2022-02-27T09:17:36Z</time>
      </trkpt>
      <trkpt lat="41.487180" lon="-5.719630">
        <ele>636.008</ele>
        <time>2022-02-27T09:18:16Z</time>
      </trkpt>
      <trkpt lat="41.487170" lon="-5.719650">
        <ele>636.116</ele>
        <time>2022-02-27T09:18:56Z</time>
      </trkpt>
      <trkpt lat="41.487160" lon="-5.719680">
        <ele>636.213</ele>
        <time>2022-02-27T09:19:36Z</time>
      </trkpt>
      <trkpt lat="41.487150" lon="-5.719700">
        <ele>636.317</ele>
        <time>2022-02-27T09:20:16Z</time>
      </trkpt>
      <trkpt lat="41.487140" lon="-5.719720">
        <ele>636.486</ele>
        <time>2022-02-27T09:20:56Z</time>
      </trkpt>
      <trkpt lat="41.487130" lon="-5.719730">
        <ele>636.445</ele>
        <time>2022-02-27T09:21:36Z</time>
      </trkpt>
      <trkpt lat="41.487120" lon="-5.719740">
        <ele>636.466</ele>
        <time>2022-02-27T09:22:16Z</time>
      </trkpt>
      <trkpt lat="41.487110" lon="-5.719750">
        <ele>636.497</ele>
        <time>2022-02-27T09:22:56Z</time>
      </trkpt>
      <trkpt lat="41.487100" lon="-5.719760">
        <ele>636.479</ele>
        <time>2022-02-27T09:23:36Z</time>
      </trkpt>
      <trkpt lat="41.487100" lon="-5.719770">
        <ele>636.444</ele>
        <time>2022-02-27T09:24:16Z</time>
      </trkpt>
      <trkpt lat="41.487090" lon="-5.719780">
        <ele>636.505</ele>
        <time>2022-02-27T09:24:56Z</time>
      </trkpt>
      <trkpt lat="41.487070" lon="-5.719890">
        <ele>637.215</ele>
        <time>2022-02-27T09:25:36Z</time>
      </trkpt>
      <trkpt lat="41.487070" lon="-5.719960">
        <ele>637.708</ele>
        <time>2022-02-27T09:26:16Z</time>
      </trkpt>
      <trkpt lat="41.487070" lon="-5.720020">
        <ele>638.063</ele>
        <time>2022-02-27T09:26:56Z</time>
      </trkpt>
      <trkpt lat="41.487080" lon="-5.720060">
        <ele>638.080</ele>
        <time>2022-02-27T09:27:36Z</time>
      </trkpt>
      <trkpt lat="41.487100" lon="-5.720160">
        <ele>638.094</ele>
        <time>2022-02-27T09:28:16Z</time>
      </trkpt>
      <trkpt lat="41.487150" lon="-5.720320">
        <ele>637.763</ele>
        <time>2022-02-27T09:28:56Z</time>
      </trkpt>
      <trkpt lat="41.487160" lon="-5.720400">
        <ele>637.232</ele>
        <time>2022-02-27T09:29:36Z</time>
      </trkpt>
      <trkpt lat="41.487280" lon="-5.720720">
        <ele>635.513</ele>
        <time>2022-02-27T09:30:16Z</time>
      </trkpt>
      <trkpt lat="41.487470" lon="-5.721270">
        <ele>635.134</ele>
        <time>2022-02-27T09:30:56Z</time>
      </trkpt>
      <trkpt lat="41.487860" lon="-5.722350">
        <ele>636.286</ele>
        <time>2022-02-27T09:31:36Z</time>
      </trkpt>
      <trkpt lat="41.487920" lon="-5.722540">
        <ele>635.947</ele>
        <time>2022-02-27T09:32:16Z</time>
      </trkpt>
      <trkpt lat="41.487930" lon="-5.722570">
        <ele>635.929</ele>
        <time>2022-02-27T09:32:56Z</time>
      </trkpt>
      <trkpt lat="41.488040" lon="-5.722880">
        <ele>634.721</ele>
        <time>2022-02-27T09:33:36Z</time>
      </trkpt>
      <trkpt lat="41.488140" lon="-5.723140">
        <ele>633.608</ele>
        <time>2022-02-27T09:34:16Z</time>
      </trkpt>
      <trkpt lat="41.488330" lon="-5.723690">
        <ele>632.733</ele>
        <time>2022-02-27T09:34:56Z</time>
      </trkpt>
      <trkpt lat="41.488490" lon="-5.724120">
        <ele>632.540</ele>
        <time>2022-02-27T09:35:36Z</time>
      </trkpt>
      <trkpt lat="41.488710" lon="-5.724710">
        <ele>635.714</ele>
        <time>2022-02-27T09:36:16Z</time>
      </trkpt>
      <trkpt lat="41.488840" lon="-5.725070">
        <ele>635.023</ele>
        <time>2022-02-27T09:36:56Z</time>
      </trkpt>
      <trkpt lat="41.488900" lon="-5.725240">
        <ele>634.142</ele>
        <time>2022-02-27T09:37:36Z</time>
      </trkpt>
      <trkpt lat="41.488980" lon="-5.725480">
        <ele>634.763</ele>
        <time>2022-02-27T09:38:16Z</time>
      </trkpt>
      <trkpt lat="41.489430" lon="-5.726730">
        <ele>634.514</ele>
        <time>2022-02-27T09:38:56Z</time>
      </trkpt>
      <trkpt lat="41.489530" lon="-5.727010">
        <ele>633.086</ele>
        <time>2022-02-27T09:39:36Z</time>
      </trkpt>
      <trkpt lat="41.489960" lon="-5.728190">
        <ele>630.145</ele>
        <time>2022-02-27T09:40:16Z</time>
      </trkpt>
      <trkpt lat="41.490480" lon="-5.729650">
        <ele>631.247</ele>
        <time>2022-02-27T09:40:56Z</time>
      </trkpt>
      <trkpt lat="41.490510" lon="-5.729740">
        <ele>631.311</ele>
        <time>2022-02-27T09:41:36Z</time>
      </trkpt>
      <trkpt lat="41.490630" lon="-5.730060">
        <ele>629.808</ele>
        <time>2022-02-27T09:42:16Z</time>
      </trkpt>
      <trkpt lat="41.490720" lon="-5.730300">
        <ele>629.063</ele>
        <time>2022-02-27T09:42:56Z</time>
      </trkpt>
      <trkpt lat="41.491040" lon="-5.731160">
        <ele>629.220</ele>
        <time>2022-02-27T09:43:36Z</time>
      </trkpt>
      <trkpt lat="41.491340" lon="-5.731980">
        <ele>633.774</ele>
        <time>2022-02-27T09:44:16Z</time>
      </trkpt>
      <trkpt lat="41.491370" lon="-5.732030">
        <ele>633.673</ele>
        <time>2022-02-27T09:44:56Z</time>
      </trkpt>
      <trkpt lat="41.491690" lon="-5.732780">
        <ele>635.162</ele>
        <time>2022-02-27T09:45:36Z</time>
      </trkpt>
      <trkpt lat="41.491850" lon="-5.733210">
        <ele>636.873</ele>
        <time>2022-02-27T09:46:16Z</time>
      </trkpt>
      <trkpt lat="41.491890" lon="-5.733340">
        <ele>637.024</ele>
        <time>2022-02-27T09:46:56Z</time>
      </trkpt>
      <trkpt lat="41.492030" lon="-5.733710">
        <ele>635.286</ele>
        <time>2022-02-27T09:47:36Z</time>
      </trkpt>
      <trkpt lat="41.492070" lon="-5.733810">
        <ele>634.113</ele>
        <time>2022-02-27T09:48:16Z</time>
      </trkpt>
      <trkpt lat="41.492090" lon="-5.733880">
        <ele>633.543</ele>
        <time>2022-02-27T09:48:56Z</time>
      </trkpt>
      <trkpt lat="41.492110" lon="-5.733920">
        <ele>633.307</ele>
        <time>2022-02-27T09:49:36Z</time>
      </trkpt>
      <trkpt lat="41.492150" lon="-5.734050">
        <ele>632.708</ele>
        <time>2022-02-27T09:50:16Z</time>
      </trkpt>
      <trkpt lat="41.492260" lon="-5.734350">
        <ele>631.350</ele>
        <time>2022-02-27T09:50:56Z</time>
      </trkpt>
      <trkpt lat="41.492420" lon="-5.734780">
        <ele>630.277</ele>
        <time>2022-02-27T09:51:36Z</time>
      </trkpt>
      <trkpt lat="41.492630" lon="-5.735440">
        <ele>629.461</ele>
        <time>2022-02-27T09:52:16Z</time>
      </trkpt>
      <trkpt lat="41.492710" lon="-5.735660">
        <ele>628.490</ele>
        <time>2022-02-27T09:52:56Z</time>
      </trkpt>
      <trkpt lat="41.492770" lon="-5.735860">
        <ele>629.139</ele>
        <time>2022-02-27T09:53:36Z</time>
      </trkpt>
      <trkpt lat="41.492780" lon="-5.735890">
        <ele>629.040</ele>
        <time>2022-02-27T09:54:16Z</time>
      </trkpt>
      <trkpt lat="41.492840" lon="-5.736130">
        <ele>628.821</ele>
        <time>2022-02-27T09:54:56Z</time>
      </trkpt>
      <trkpt lat="41.493200" lon="-5.737170">
        <ele>631.223</ele>
        <time>2022-02-27T09:55:36Z</time>
      </trkpt>
      <trkpt lat="41.493300" lon="-5.737460">
        <ele>631.118</ele>
        <time>2022-02-27T09:56:16Z</time>
      </trkpt>
      <trkpt lat="41.493440" lon="-5.737860">
        <ele>630.098</ele>
        <time>2022-02-27T09:56:56Z</time>
      </trkpt>
      <trkpt lat="41.493600" lon="-5.738270">
        <ele>627.617</ele>
        <time>2022-02-27T09:57:36Z</time>
      </trkpt>
      <trkpt lat="41.493650" lon="-5.738410">
        <ele>626.908</ele>
        <time>2022-02-27T09:58:16Z</time>
      </trkpt>
      <trkpt lat="41.493760" lon="-5.738730">
        <ele>626.440</ele>
        <time>2022-02-27T09:58:56Z</time>
      </trkpt>
      <trkpt lat="41.494080" lon="-5.739640">
        <ele>628.157</ele>
        <time>2022-02-27T09:59:36Z</time>
      </trkpt>
      <trkpt lat="41.494160" lon="-5.739870">
        <ele>630.661</ele>
        <time>2022-02-27T10:00:16Z</time>
      </trkpt>
      <trkpt lat="41.494220" lon="-5.740030">
        <ele>631.350</ele>
        <time>2022-02-27T10:00:56Z</time>
      </trkpt>
      <trkpt lat="41.494290" lon="-5.740230">
        <ele>631.459</ele>
        <time>2022-02-27T10:01:36Z</time>
      </trkpt>
      <trkpt lat="41.494520" lon="-5.740850">
        <ele>628.450</ele>
        <time>2022-02-27T10:02:16Z</time>
      </trkpt>
      <trkpt lat="41.494720" lon="-5.741420">
        <ele>629.011</ele>
        <time>2022-02-27T10:02:56Z</time>
      </trkpt>
      <trkpt lat="41.494717" lon="-5.741420">
        <ele>629.063</ele>
        <time>2022-02-27T10:03:36Z</time>
      </trkpt>
      <trkpt lat="41.494810" lon="-5.741360">
        <ele>629.276</ele>
        <time>2022-02-27T10:04:16Z</time>
      </trkpt>
      <trkpt lat="41.494950" lon="-5.741280">
        <ele>629.190</ele>
        <time>2022-02-27T10:04:56Z</time>
      </trkpt>
      <trkpt lat="41.495140" lon="-5.741160">
        <ele>628.419</ele>
        <time>2022-02-27T10:05:36Z</time>
      </trkpt>
      <trkpt lat="41.495550" lon="-5.740930">
        <ele>630.608</ele>
        <time>2022-02-27T10:06:16Z</time>
      </trkpt>
      <trkpt lat="41.495551" lon="-5.740929">
        <ele>630.696</ele>
        <time>2022-02-27T10:06:56Z</time>
      </trkpt>
      <trkpt lat="41.496160" lon="-5.740510">
        <ele>631.853</ele>
        <time>2022-02-27T10:07:36Z</time>
      </trkpt>
      <trkpt lat="41.496270" lon="-5.740430">
        <ele>631.587</ele>
        <time>2022-02-27T10:08:16Z</time>
      </trkpt>
      <trkpt lat="41.496490" lon="-5.740300">
        <ele>631.456</ele>
        <time>2022-02-27T10:08:56Z</time>
      </trkpt>
      <trkpt lat="41.496510" lon="-5.740290">
        <ele>631.465</ele>
        <time>2022-02-27T10:09:36Z</time>
      </trkpt>
      <trkpt lat="41.496650" lon="-5.740200">
        <ele>632.256</ele>
        <time>2022-02-27T10:10:16Z</time>
      </trkpt>
      <trkpt lat="41.496680" lon="-5.740180">
        <ele>632.417</ele>
        <time>2022-02-27T10:10:56Z</time>
      </trkpt>
      <trkpt lat="41.496740" lon="-5.740140">
        <ele>632.539</ele>
        <time>2022-02-27T10:11:36Z</time>
      </trkpt>
      <trkpt lat="41.496770" lon="-5.740130">
        <ele>632.546</ele>
        <time>2022-02-27T10:12:16Z</time>
      </trkpt>
      <trkpt lat="41.496820" lon="-5.740100">
        <ele>632.688</ele>
        <time>2022-02-27T10:12:56Z</time>
      </trkpt>
      <trkpt lat="41.496910" lon="-5.740050">
        <ele>632.816</ele>
        <time>2022-02-27T10:13:36Z</time>
      </trkpt>
      <trkpt lat="41.496990" lon="-5.740010">
        <ele>633.008</ele>
        <time>2022-02-27T10:14:16Z</time>
      </trkpt>
      <trkpt lat="41.497030" lon="-5.739990">
        <ele>633.053</ele>
        <time>2022-02-27T10:14:56Z</time>
      </trkpt>
      <trkpt lat="41.497060" lon="-5.739980">
        <ele>633.040</ele>
        <time>2022-02-27T10:15:36Z</time>
      </trkpt>
      <trkpt lat="41.497120" lon="-5.739960">
        <ele>633.014</ele>
        <time>2022-02-27T10:16:16Z</time>
      </trkpt>
      <trkpt lat="41.497150" lon="-5.739940">
        <ele>633.023</ele>
        <time>2022-02-27T10:16:56Z</time>
      </trkpt>
      <trkpt lat="41.497180" lon="-5.739930">
        <ele>633.092</ele>
        <time>2022-02-27T10:17:36Z</time>
      </trkpt>
      <trkpt lat="41.497230" lon="-5.739920">
        <ele>633.093</ele>
        <time>2022-02-27T10:18:16Z</time>
      </trkpt>
      <trkpt lat="41.497280" lon="-5.739910">
        <ele>633.214</ele>
        <time>2022-02-27T10:18:56Z</time>
      </trkpt>
      <trkpt lat="41.497310" lon="-5.739900">
        <ele>633.356</ele>
        <time>2022-02-27T10:19:36Z</time>
      </trkpt>
      <trkpt lat="41.497350" lon="-5.739890">
        <ele>633.562</ele>
        <time>2022-02-27T10:20:16Z</time>
      </trkpt>
      <trkpt lat="41.497430" lon="-5.739880">
        <ele>633.783</ele>
        <time>2022-02-27T10:20:56Z</time>
      </trkpt>
      <trkpt lat="41.497490" lon="-5.739870">
        <ele>634.011</ele>
        <time>2022-02-27T10:21:36Z</time>
      </trkpt>
      <trkpt lat="41.497560" lon="-5.739860">
        <ele>634.208</ele>
        <time>2022-02-27T10:22:16Z</time>
      </trkpt>
      <trkpt lat="41.497630" lon="-5.739860">
        <ele>634.575</ele>
        <time>2022-02-27T10:22:56Z</time>
      </trkpt>
      <trkpt lat="41.497720" lon="-5.739850">
        <ele>634.812</ele>
        <time>2022-02-27T10:23:36Z</time>
      </trkpt>
      <trkpt lat="41.497780" lon="-5.739850">
        <ele>635.036</ele>
        <time>2022-02-27T10:24:16Z</time>
      </trkpt>
      <trkpt lat="41.497830" lon="-5.739850">
        <ele>634.895</ele>
        <time>2022-02-27T10:24:56Z</time>
      </trkpt>
      <trkpt lat="41.497970" lon="-5.739850">
        <ele>634.394</ele>
        <time>2022-02-27T10:25:36Z</time>
      </trkpt>
      <trkpt lat="41.498030" lon="-5.739850">
        <ele>634.145</ele>
        <time>2022-02-27T10:26:16Z</time>
      </trkpt>
      <trkpt lat="41.498040" lon="-5.739850">
        <ele>634.186</ele>
        <time>2022-02-27T10:26:56Z</time>
      </trkpt>
      <trkpt lat="41.498060" lon="-5.739850">
        <ele>634.038</ele>
        <time>2022-02-27T10:27:36Z</time>
      </trkpt>
      <trkpt lat="41.498330" lon="-5.739870">
        <ele>633.014</ele>
        <time>2022-02-27T10:28:16Z</time>
      </trkpt>
      <trkpt lat="41.498326" lon="-5.739869">
        <ele>633.054</ele>
        <time>2022-02-27T10:28:56Z</time>
      </trkpt>
      <trkpt lat="41.498690" lon="-5.739870">
        <ele>629.609</ele>
        <time>2022-02-27T10:29:36Z</time>
      </trkpt>
      <trkpt lat="41.499140" lon="-5.739870">
        <ele>624.808</ele>
        <time>2022-02-27T10:30:16Z</time>
      </trkpt>
      <trkpt lat="41.499680" lon="-5.739870">
        <ele>621.390</ele>
        <time>2022-02-27T10:30:56Z</time>
      </trkpt>
      <trkpt lat="41.500760" lon="-5.739880">
        <ele>626.017</ele>
        <time>2022-02-27T10:31:36Z</time>
      </trkpt>
      <trkpt lat="41.500870" lon="-5.739880">
        <ele>627.591</ele>
        <time>2022-02-27T10:32:16Z</time>
      </trkpt>
      <trkpt lat="41.500930" lon="-5.739880">
        <ele>628.670</ele>
        <time>2022-02-27T10:32:56Z</time>
      </trkpt>
      <trkpt lat="41.500990" lon="-5.739880">
        <ele>629.699</ele>
        <time>2022-02-27T10:33:36Z</time>
      </trkpt>
      <trkpt lat="41.501100" lon="-5.739880">
        <ele>631.510</ele>
        <time>2022-02-27T10:34:16Z</time>
      </trkpt>
      <trkpt lat="41.501140" lon="-5.739880">
        <ele>631.711</ele>
        <time>2022-02-27T10:34:56Z</time>
      </trkpt>
      <trkpt lat="41.501200" lon="-5.739890">
        <ele>631.693</ele>
        <time>2022-02-27T10:35:36Z</time>
      </trkpt>
      <trkpt lat="41.501380" lon="-5.739880">
        <ele>631.741</ele>
        <time>2022-02-27T10:36:16Z</time>
      </trkpt>
      <trkpt lat="41.501382" lon="-5.739880">
        <ele>631.781</ele>
        <time>2022-02-27T10:36:56Z</time>
      </trkpt>
      <trkpt lat="41.501370" lon="-5.739990">
        <ele>630.109</ele>
        <time>2022-02-27T10:37:36Z</time>
      </trkpt>
      <trkpt lat="41.501340" lon="-5.740230">
        <ele>627.508</ele>
        <time>2022-02-27T10:38:16Z</time>
      </trkpt>
      <trkpt lat="41.501300" lon="-5.740430">
        <ele>626.823</ele>
        <time>2022-02-27T10:38:56Z</time>
      </trkpt>
      <trkpt lat="41.501280" lon="-5.740560">
        <ele>626.690</ele>
        <time>2022-02-27T10:39:36Z</time>
      </trkpt>
      <trkpt lat="41.501260" lon="-5.740650">
        <ele>626.754</ele>
        <time>2022-02-27T10:40:16Z</time>
      </trkpt>
      <trkpt lat="41.501220" lon="-5.740910">
        <ele>627.283</ele>
        <time>2022-02-27T10:40:56Z</time>
      </trkpt>
      <trkpt lat="41.501210" lon="-5.740960">
        <ele>627.332</ele>
        <time>2022-02-27T10:41:36Z</time>
      </trkpt>
      <trkpt lat="41.501150" lon="-5.741310">
        <ele>627.993</ele>
        <time>2022-02-27T10:42:16Z</time>
      </trkpt>
      <trkpt lat="41.501130" lon="-5.741440">
        <ele>628.144</ele>
        <time>2022-02-27T10:42:56Z</time>
      </trkpt>
      <trkpt lat="41.501090" lon="-5.741630">
        <ele>628.746</ele>
        <time>2022-02-27T10:43:36Z</time>
      </trkpt>
      <trkpt lat="41.501080" lon="-5.741720">
        <ele>628.766</ele>
        <time>2022-02-27T10:44:16Z</time>
      </trkpt>
      <trkpt lat="41.501080" lon="-5.741730">
        <ele>628.729</ele>
        <time>2022-02-27T10:44:56Z</time>
      </trkpt>
      <trkpt lat="41.501080" lon="-5.741750">
        <ele>628.721</ele>
        <time>2022-02-27T10:45:36Z</time>
      </trkpt>
      <trkpt lat="41.501070" lon="-5.741770">
        <ele>628.608</ele>
        <time>2022-02-27T10:46:16Z</time>
      </trkpt>
      <trkpt lat="41.501060" lon="-5.741800">
        <ele>628.525</ele>
        <time>2022-02-27T10:46:56Z</time>
      </trkpt>
      <trkpt lat="41.501060" lon="-5.741830">
        <ele>628.662</ele>
        <time>2022-02-27T10:47:36Z</time>
      </trkpt>
      <trkpt lat="41.501040" lon="-5.741890">
        <ele>628.426</ele>
        <time>2022-02-27T10:48:16Z</time>
      </trkpt>
      <trkpt lat="41.501020" lon="-5.741940">
        <ele>628.315</ele>
        <time>2022-02-27T10:48:56Z</time>
      </trkpt>
      <trkpt lat="41.501020" lon="-5.741960">
        <ele>628.444</ele>
        <time>2022-02-27T10:49:36Z</time>
      </trkpt>
      <trkpt lat="41.501010" lon="-5.741980">
        <ele>628.585</ele>
        <time>2022-02-27T10:50:16Z</time>
      </trkpt>
      <trkpt lat="41.500960" lon="-5.742090">
        <ele>629.036</ele>
        <time>2022-02-27T10:50:56Z</time>
      </trkpt>
      <trkpt lat="41.500950" lon="-5.742100">
        <ele>629.028</ele>
        <time>2022-02-27T10:51:36Z</time>
      </trkpt>
      <trkpt lat="41.500930" lon="-5.742130">
        <ele>629.223</ele>
        <time>2022-02-27T10:52:16Z</time>
      </trkpt>
      <trkpt lat="41.500920" lon="-5.742160">
        <ele>629.583</ele>
        <time>2022-02-27T10:52:56Z</time>
      </trkpt>
      <trkpt lat="41.500750" lon="-5.742380">
        <ele>630.711</ele>
        <time>2022-02-27T10:53:36Z</time>
      </trkpt>
      <trkpt lat="41.500740" lon="-5.742400">
        <ele>630.808</ele>
        <time>2022-02-27T10:54:16Z</time>
      </trkpt>
      <trkpt lat="41.500720" lon="-5.742420">
        <ele>630.811</ele>
        <time>2022-02-27T10:54:56Z</time>
      </trkpt>
      <trkpt lat="41.500710" lon="-5.742450">
        <ele>631.018</ele>
        <time>2022-02-27T10:55:36Z</time>
      </trkpt>
      <trkpt lat="41.500690" lon="-5.742480">
        <ele>631.262</ele>
        <time>2022-02-27T10:56:16Z</time>
      </trkpt>
      <trkpt lat="41.500680" lon="-5.742500">
        <ele>631.371</ele>
        <time>2022-02-27T10:56:56Z</time>
      </trkpt>
      <trkpt lat="41.500660" lon="-5.742530">
        <ele>631.490</ele>
        <time>2022-02-27T10:57:36Z</time>
      </trkpt>
      <trkpt lat="41.500660" lon="-5.742540">
        <ele>631.561</ele>
        <time>2022-02-27T10:58:16Z</time>
      </trkpt>
      <trkpt lat="41.500640" lon="-5.742590">
        <ele>631.732</ele>
        <time>2022-02-27T10:58:56Z</time>
      </trkpt>
      <trkpt lat="41.500620" lon="-5.742630">
        <ele>631.914</ele>
        <time>2022-02-27T10:59:36Z</time>
      </trkpt>
      <trkpt lat="41.500610" lon="-5.742660">
        <ele>632.123</ele>
        <time>2022-02-27T11:00:16Z</time>
      </trkpt>
      <trkpt lat="41.500600" lon="-5.742680">
        <ele>632.283</ele>
        <time>2022-02-27T11:00:56Z</time>
      </trkpt>
      <trkpt lat="41.500600" lon="-5.742710">
        <ele>632.511</ele>
        <time>2022-02-27T11:01:36Z</time>
      </trkpt>
      <trkpt lat="41.500580" lon="-5.742750">
        <ele>632.808</ele>
        <time>2022-02-27T11:02:16Z</time>
      </trkpt>
      <trkpt lat="41.500570" lon="-5.742790">
        <ele>633.161</ele>
        <time>2022-02-27T11:02:56Z</time>
      </trkpt>
      <trkpt lat="41.500570" lon="-5.742810">
        <ele>633.198</ele>
        <time>2022-02-27T11:03:36Z</time>
      </trkpt>
      <trkpt lat="41.500560" lon="-5.742840">
        <ele>633.022</ele>
        <time>2022-02-27T11:04:16Z</time>
      </trkpt>
      <trkpt lat="41.500550" lon="-5.742900">
        <ele>632.991</ele>
        <time>2022-02-27T11:04:56Z</time>
      </trkpt>
      <trkpt lat="41.500540" lon="-5.742950">
        <ele>632.830</ele>
        <time>2022-02-27T11:05:36Z</time>
      </trkpt>
      <trkpt lat="41.500530" lon="-5.742990">
        <ele>632.731</ele>
        <time>2022-02-27T11:06:16Z</time>
      </trkpt>
      <trkpt lat="41.500530" lon="-5.743010">
        <ele>632.732</ele>
        <time>2022-02-27T11:06:56Z</time>
      </trkpt>
      <trkpt lat="41.500530" lon="-5.743050">
        <ele>632.784</ele>
        <time>2022-02-27T11:07:36Z</time>
      </trkpt>
      <trkpt lat="41.500530" lon="-5.743110">
        <ele>632.331</ele>
        <time>2022-02-27T11:08:16Z</time>
      </trkpt>
      <trkpt lat="41.500520" lon="-5.743160">
        <ele>631.861</ele>
        <time>2022-02-27T11:08:56Z</time>
      </trkpt>
      <trkpt lat="41.500530" lon="-5.743200">
        <ele>631.607</ele>
        <time>2022-02-27T11:09:36Z</time>
      </trkpt>
      <trkpt lat="41.500530" lon="-5.743230">
        <ele>631.408</ele>
        <time>2022-02-27T11:10:16Z</time>
      </trkpt>
      <trkpt lat="41.500530" lon="-5.743260">
        <ele>631.282</ele>
        <time>2022-02-27T11:10:56Z</time>
      </trkpt>
      <trkpt lat="41.500550" lon="-5.743760">
        <ele>628.499</ele>
        <time>2022-02-27T11:11:36Z</time>
      </trkpt>
      <trkpt lat="41.500550" lon="-5.743860">
        <ele>628.113</ele>
        <time>2022-02-27T11:12:16Z</time>
      </trkpt>
      <trkpt lat="41.500560" lon="-5.744290">
        <ele>627.162</ele>
        <time>2022-02-27T11:12:56Z</time>
      </trkpt>
      <trkpt lat="41.500560" lon="-5.744330">
        <ele>626.821</ele>
        <time>2022-02-27T11:13:36Z</time>
      </trkpt>
      <trkpt lat="41.500550" lon="-5.744410">
        <ele>626.272</ele>
        <time>2022-02-27T11:14:16Z</time>
      </trkpt>
      <trkpt lat="41.500550" lon="-5.744490">
        <ele>625.753</ele>
        <time>2022-02-27T11:14:56Z</time>
      </trkpt>
      <trkpt lat="41.500540" lon="-5.744560">
        <ele>625.215</ele>
        <time>2022-02-27T11:15:36Z</time>
      </trkpt>
      <trkpt lat="41.500540" lon="-5.744620">
        <ele>624.736</ele>
        <time>2022-02-27T11:16:16Z</time>
      </trkpt>
      <trkpt lat="41.500530" lon="-5.744700">
        <ele>624.217</ele>
        <time>2022-02-27T11:16:56Z</time>
      </trkpt>
      <trkpt lat="41.500520" lon="-5.744780">
        <ele>624.018</ele>
        <time>2022-02-27T11:17:36Z</time>
      </trkpt>
      <trkpt lat="41.500520" lon="-5.744840">
        <ele>623.908</ele>
        <time>2022-02-27T11:18:16Z</time>
      </trkpt>
      <trkpt lat="41.500430" lon="-5.745600">
        <ele>628.282</ele>
        <time>2022-02-27T11:18:56Z</time>
      </trkpt>
      <trkpt lat="41.500429" lon="-5.745602">
        <ele>628.299</ele>
        <time>2022-02-27T11:19:36Z</time>
      </trkpt>
      <trkpt lat="41.500640" lon="-5.745680">
        <ele>628.413</ele>
        <time>2022-02-27T11:20:16Z</time>
      </trkpt>
      <trkpt lat="41.500980" lon="-5.745730">
        <ele>629.512</ele>
        <time>2022-02-27T11:20:56Z</time>
      </trkpt>
      <trkpt lat="41.500990" lon="-5.745730">
        <ele>629.521</ele>
        <time>2022-02-27T11:21:36Z</time>
      </trkpt>
      <trkpt lat="41.501000" lon="-5.745730">
        <ele>629.612</ele>
        <time>2022-02-27T11:22:16Z</time>
      </trkpt>
      <trkpt lat="41.501010" lon="-5.745720">
        <ele>629.683</ele>
        <time>2022-02-27T11:22:56Z</time>
      </trkpt>
      <trkpt lat="41.501009" lon="-5.745724">
        <ele>629.645</ele>
        <time>2022-02-27T11:23:36Z</time>
      </trkpt>
      <trkpt lat="41.501030" lon="-5.745780">
        <ele>630.121</ele>
        <time>2022-02-27T11:24:16Z</time>
      </trkpt>
      <trkpt lat="41.501040" lon="-5.745780">
        <ele>630.241</ele>
        <time>2022-02-27T11:24:56Z</time>
      </trkpt>
      <trkpt lat="41.501050" lon="-5.745790">
        <ele>630.305</ele>
        <time>2022-02-27T11:25:36Z</time>
      </trkpt>
      <trkpt lat="41.501060" lon="-5.745800">
        <ele>630.408</ele>
        <time>2022-02-27T11:26:16Z</time>
      </trkpt>
      <trkpt lat="41.501080" lon="-5.745800">
        <ele>630.551</ele>
        <time>2022-02-27T11:26:56Z</time>
      </trkpt>
      <trkpt lat="41.501100" lon="-5.745810">
        <ele>630.888</ele>
        <time>2022-02-27T11:27:36Z</time>
      </trkpt>
      <trkpt lat="41.501130" lon="-5.745810">
        <ele>631.042</ele>
        <time>2022-02-27T11:28:16Z</time>
      </trkpt>
      <trkpt lat="41.501160" lon="-5.745810">
        <ele>631.421</ele>
        <time>2022-02-27T11:28:56Z</time>
      </trkpt>
      <trkpt lat="41.501300" lon="-5.745790">
        <ele>632.820</ele>
        <time>2022-02-27T11:29:36Z</time>
      </trkpt>
      <trkpt lat="41.501320" lon="-5.745790">
        <ele>633.181</ele>
        <time>2022-02-27T11:30:16Z</time>
      </trkpt>
      <trkpt lat="41.501580" lon="-5.745760">
        <ele>635.432</ele>
        <time>2022-02-27T11:30:56Z</time>
      </trkpt>
      <trkpt lat="41.501700" lon="-5.745760">
        <ele>636.664</ele>
        <time>2022-02-27T11:31:36Z</time>
      </trkpt>
      <trkpt lat="41.501920" lon="-5.745780">
        <ele>639.272</ele>
        <time>2022-02-27T11:32:16Z</time>
      </trkpt>
      <trkpt lat="41.501960" lon="-5.745780">
        <ele>639.613</ele>
        <time>2022-02-27T11:32:56Z</time>
      </trkpt>
      <trkpt lat="41.501962" lon="-5.745778">
        <ele>639.614</ele>
        <time>2022-02-27T11:33:36Z</time>
      </trkpt>
      <trkpt lat="41.502140" lon="-5.745790">
        <ele>641.608</ele>
        <time>2022-02-27T11:34:16Z</time>
      </trkpt>
      <trkpt lat="41.502230" lon="-5.745790">
        <ele>642.676</ele>
        <time>2022-02-27T11:34:56Z</time>
      </trkpt>
      <trkpt lat="41.502290" lon="-5.745810">
        <ele>643.583</ele>
        <time>2022-02-27T11:35:36Z</time>
      </trkpt>
      <trkpt lat="41.502320" lon="-5.745820">
        <ele>643.957</ele>
        <time>2022-02-27T11:36:16Z</time>
      </trkpt>
      <trkpt lat="41.502330" lon="-5.745820">
        <ele>644.026</ele>
        <time>2022-02-27T11:36:56Z</time>
      </trkpt>
      <trkpt lat="41.502340" lon="-5.745820">
        <ele>644.175</ele>
        <time>2022-02-27T11:37:36Z</time>
      </trkpt>
      <trkpt lat="41.502390" lon="-5.745850">
        <ele>645.096</ele>
        <time>2022-02-27T11:38:16Z</time>
      </trkpt>
      <trkpt lat="41.502820" lon="-5.746130">
        <ele>653.517</ele>
        <time>2022-02-27T11:38:56Z</time>
      </trkpt>
      <trkpt lat="41.503000" lon="-5.746220">
        <ele>654.879</ele>
        <time>2022-02-27T11:39:36Z</time>
      </trkpt>
      <trkpt lat="41.503160" lon="-5.746310">
        <ele>655.472</ele>
        <time>2022-02-27T11:40:16Z</time>
      </trkpt>
      <trkpt lat="41.503290" lon="-5.746390">
        <ele>655.813</ele>
        <time>2022-02-27T11:40:56Z</time>
      </trkpt>
      <trkpt lat="41.503350" lon="-5.746430">
        <ele>656.114</ele>
        <time>2022-02-27T11:41:36Z</time>
      </trkpt>
      <trkpt lat="41.503353" lon="-5.746434">
        <ele>656.108</ele>
        <time>2022-02-27T11:42:16Z</time>
      </trkpt>
      <trkpt lat="41.503300" lon="-5.746570">
        <ele>656.216</ele>
        <time>2022-02-27T11:42:56Z</time>
      </trkpt>
      <trkpt lat="41.503298" lon="-5.746570">
        <ele>656.263</ele>
        <time>2022-02-27T11:43:36Z</time>
      </trkpt>
      <trkpt lat="41.503298" lon="-5.746570">
        <ele>656.219</ele>
        <time>2022-02-23T17:25:17Z</time>
      </trkpt>
      <trkpt lat="41.503350" lon="-5.746430">
        <ele>656.109</ele>
        <time>2022-02-23T17:25:57Z</time>
      </trkpt>
      <trkpt lat="41.503353" lon="-5.746434">
        <ele>656.119</ele>
        <time>2022-02-23T17:26:37Z</time>
      </trkpt>
      <trkpt lat="41.503420" lon="-5.746280">
        <ele>656.408</ele>
        <time>2022-02-23T17:27:17Z</time>
      </trkpt>
      <trkpt lat="41.503450" lon="-5.746240">
        <ele>656.690</ele>
        <time>2022-02-23T17:27:57Z</time>
      </trkpt>
      <trkpt lat="41.503460" lon="-5.746220">
        <ele>656.727</ele>
        <time>2022-02-23T17:28:37Z</time>
      </trkpt>
      <trkpt lat="41.503490" lon="-5.746190">
        <ele>657.051</ele>
        <time>2022-02-23T17:29:17Z</time>
      </trkpt>
      <trkpt lat="41.503780" lon="-5.745780">
        <ele>660.427</ele>
        <time>2022-02-23T17:29:57Z</time>
      </trkpt>
      <trkpt lat="41.503776" lon="-5.745782">
        <ele>660.444</ele>
        <time>2022-02-23T17:30:37Z</time>
      </trkpt>
      <trkpt lat="41.503800" lon="-5.745770">
        <ele>660.645</ele>
        <time>2022-02-23T17:31:17Z</time>
      </trkpt>
      <trkpt lat="41.503820" lon="-5.745770">
        <ele>660.719</ele>
        <time>2022-02-23T17:31:57Z</time>
      </trkpt>
      <trkpt lat="41.503850" lon="-5.745760">
        <ele>661.024</ele>
        <time>2022-02-23T17:32:37Z</time>
      </trkpt>
      <trkpt lat="41.503870" lon="-5.745750">
        <ele>661.211</ele>
        <time>2022-02-23T17:33:17Z</time>
      </trkpt>
      <trkpt lat="41.503990" lon="-5.745710">
        <ele>661.821</ele>
        <time>2022-02-23T17:33:57Z</time>
      </trkpt>
      <trkpt lat="41.504090" lon="-5.745630">
        <ele>662.503</ele>
        <time>2022-02-23T17:34:37Z</time>
      </trkpt>
      <trkpt lat="41.504370" lon="-5.745480">
        <ele>661.508</ele>
        <time>2022-02-23T17:35:17Z</time>
      </trkpt>
      <trkpt lat="41.504400" lon="-5.745460">
        <ele>661.310</ele>
        <time>2022-02-23T17:35:57Z</time>
      </trkpt>
      <trkpt lat="41.504580" lon="-5.745360">
        <ele>660.567</ele>
        <time>2022-02-23T17:36:37Z</time>
      </trkpt>
      <trkpt lat="41.504600" lon="-5.745350">
        <ele>660.491</ele>
        <time>2022-02-23T17:37:17Z</time>
      </trkpt>
      <trkpt lat="41.505190" lon="-5.744970">
        <ele>660.037</ele>
        <time>2022-02-23T17:37:57Z</time>
      </trkpt>
      <trkpt lat="41.505189" lon="-5.744968">
        <ele>660.064</ele>
        <time>2022-02-23T17:38:37Z</time>
      </trkpt>
      <trkpt lat="41.505190" lon="-5.745080">
        <ele>660.095</ele>
        <time>2022-02-23T17:39:17Z</time>
      </trkpt>
      <trkpt lat="41.505190" lon="-5.745140">
        <ele>660.089</ele>
        <time>2022-02-23T17:39:57Z</time>
      </trkpt>
      <trkpt lat="41.505190" lon="-5.745220">
        <ele>660.064</ele>
        <time>2022-02-23T17:40:37Z</time>
      </trkpt>
      <trkpt lat="41.505110" lon="-5.745700">
        <ele>659.784</ele>
        <time>2022-02-23T17:41:17Z</time>
      </trkpt>
      <trkpt lat="41.505040" lon="-5.746140">
        <ele>657.607</ele>
        <time>2022-02-23T17:41:57Z</time>
      </trkpt>
      <trkpt lat="41.505000" lon="-5.746400">
        <ele>657.017</ele>
        <time>2022-02-23T17:42:37Z</time>
      </trkpt>
      <trkpt lat="41.504990" lon="-5.746770">
        <ele>655.608</ele>
        <time>2022-02-23T17:43:17Z</time>
      </trkpt>
      <trkpt lat="41.504960" lon="-5.747330">
        <ele>651.627</ele>
        <time>2022-02-23T17:43:57Z</time>
      </trkpt>
      <trkpt lat="41.504950" lon="-5.747470">
        <ele>650.914</ele>
        <time>2022-02-23T17:44:37Z</time>
      </trkpt>
      <trkpt lat="41.504920" lon="-5.747660">
        <ele>649.428</ele>
        <time>2022-02-23T17:45:17Z</time>
      </trkpt>
      <trkpt lat="41.504900" lon="-5.747780">
        <ele>648.434</ele>
        <time>2022-02-23T17:45:57Z</time>
      </trkpt>
      <trkpt lat="41.504880" lon="-5.747870">
        <ele>648.191</ele>
        <time>2022-02-23T17:46:37Z</time>
      </trkpt>
      <trkpt lat="41.504882" lon="-5.747867">
        <ele>648.122</ele>
        <time>2022-02-23T17:47:17Z</time>
      </trkpt>
      <trkpt lat="41.504880" lon="-5.748030">
        <ele>647.086</ele>
        <time>2022-02-23T17:47:57Z</time>
      </trkpt>
      <trkpt lat="41.504920" lon="-5.748230">
        <ele>646.061</ele>
        <time>2022-02-23T17:48:37Z</time>
      </trkpt>
      <trkpt lat="41.504940" lon="-5.748350">
        <ele>645.859</ele>
        <time>2022-02-23T17:49:17Z</time>
      </trkpt>
      <trkpt lat="41.504950" lon="-5.748400">
        <ele>645.803</ele>
        <time>2022-02-23T17:49:57Z</time>
      </trkpt>
      <trkpt lat="41.505010" lon="-5.748670">
        <ele>645.823</ele>
        <time>2022-02-23T17:50:37Z</time>
      </trkpt>
      <trkpt lat="41.505030" lon="-5.748720">
        <ele>645.708</ele>
        <time>2022-02-23T17:51:17Z</time>
      </trkpt>
      <trkpt lat="41.505040" lon="-5.748750">
        <ele>645.614</ele>
        <time>2022-02-23T17:51:57Z</time>
      </trkpt>
      <trkpt lat="41.505110" lon="-5.748890">
        <ele>645.051</ele>
        <time>2022-02-23T17:52:37Z</time>
      </trkpt>
      <trkpt lat="41.505106" lon="-5.748888">
        <ele>645.025</ele>
        <time>2022-02-23T17:53:17Z</time>
      </trkpt>
      <trkpt lat="41.505120" lon="-5.748890">
        <ele>645.051</ele>
        <time>2022-02-23T17:53:57Z</time>
      </trkpt>
      <trkpt lat="41.505130" lon="-5.748890">
        <ele>645.078</ele>
        <time>2022-02-23T17:54:37Z</time>
      </trkpt>
      <trkpt lat="41.505140" lon="-5.748890">
        <ele>645.059</ele>
        <time>2022-02-23T17:55:17Z</time>
      </trkpt>
      <trkpt lat="41.505150" lon="-5.748890">
        <ele>645.023</ele>
        <time>2022-02-23T17:55:57Z</time>
      </trkpt>
      <trkpt lat="41.505160" lon="-5.748900">
        <ele>644.978</ele>
        <time>2022-02-23T17:56:37Z</time>
      </trkpt>
      <trkpt lat="41.505170" lon="-5.748900">
        <ele>644.921</ele>
        <time>2022-02-23T17:57:17Z</time>
      </trkpt>
      <trkpt lat="41.505170" lon="-5.748910">
        <ele>644.941</ele>
        <time>2022-02-23T17:57:57Z</time>
      </trkpt>
      <trkpt lat="41.505180" lon="-5.748920">
        <ele>644.805</ele>
        <time>2022-02-23T17:58:37Z</time>
      </trkpt>
      <trkpt lat="41.505190" lon="-5.748930">
        <ele>644.808</ele>
        <time>2022-02-23T17:59:17Z</time>
      </trkpt>
      <trkpt lat="41.505200" lon="-5.748940">
        <ele>644.731</ele>
        <time>2022-02-23T17:59:57Z</time>
      </trkpt>
      <trkpt lat="41.505200" lon="-5.748950">
        <ele>644.678</ele>
        <time>2022-02-23T18:00:37Z</time>
      </trkpt>
      <trkpt lat="41.505200" lon="-5.748960">
        <ele>644.612</ele>
        <time>2022-02-23T18:01:17Z</time>
      </trkpt>
      <trkpt lat="41.505210" lon="-5.748960">
        <ele>644.558</ele>
        <time>2022-02-23T18:01:57Z</time>
      </trkpt>
      <trkpt lat="41.505210" lon="-5.748970">
        <ele>644.555</ele>
        <time>2022-02-23T18:02:37Z</time>
      </trkpt>
      <trkpt lat="41.505210" lon="-5.748980">
        <ele>644.496</ele>
        <time>2022-02-23T18:03:17Z</time>
      </trkpt>
      <trkpt lat="41.505210" lon="-5.748990">
        <ele>644.430</ele>
        <time>2022-02-23T18:03:57Z</time>
      </trkpt>
      <trkpt lat="41.505270" lon="-5.749060">
        <ele>643.855</ele>
        <time>2022-02-23T18:04:37Z</time>
      </trkpt>
      <trkpt lat="41.505300" lon="-5.749120">
        <ele>643.342</ele>
        <time>2022-02-23T18:05:17Z</time>
      </trkpt>
      <trkpt lat="41.505310" lon="-5.749140">
        <ele>643.122</ele>
        <time>2022-02-23T18:05:57Z</time>
      </trkpt>
      <trkpt lat="41.505330" lon="-5.749220">
        <ele>642.514</ele>
        <time>2022-02-23T18:06:37Z</time>
      </trkpt>
      <trkpt lat="41.505510" lon="-5.749580">
        <ele>641.408</ele>
        <time>2022-02-23T18:07:17Z</time>
      </trkpt>
      <trkpt lat="41.505610" lon="-5.749780">
        <ele>641.493</ele>
        <time>2022-02-23T18:07:57Z</time>
      </trkpt>
      <trkpt lat="41.505620" lon="-5.749800">
        <ele>641.490</ele>
        <time>2022-02-23T18:08:37Z</time>
      </trkpt>
      <trkpt lat="41.505720" lon="-5.750000">
        <ele>641.614</ele>
        <time>2022-02-23T18:09:17Z</time>
      </trkpt>
      <trkpt lat="41.505870" lon="-5.750330">
        <ele>640.450</ele>
        <time>2022-02-23T18:09:57Z</time>
      </trkpt>
      <trkpt lat="41.505900" lon="-5.750390">
        <ele>640.717</ele>
        <time>2022-02-23T18:10:37Z</time>
      </trkpt>
      <trkpt lat="41.506020" lon="-5.750570">
        <ele>641.018</ele>
        <time>2022-02-23T18:11:17Z</time>
      </trkpt>
      <trkpt lat="41.506090" lon="-5.750650">
        <ele>641.082</ele>
        <time>2022-02-23T18:11:57Z</time>
      </trkpt>
      <trkpt lat="41.506160" lon="-5.750700">
        <ele>641.427</ele>
        <time>2022-02-23T18:12:37Z</time>
      </trkpt>
      <trkpt lat="41.506210" lon="-5.750720">
        <ele>641.736</ele>
        <time>2022-02-23T18:13:17Z</time>
      </trkpt>
      <trkpt lat="41.506260" lon="-5.750740">
        <ele>642.117</ele>
        <time>2022-02-23T18:13:57Z</time>
      </trkpt>
      <trkpt lat="41.506320" lon="-5.750740">
        <ele>642.518</ele>
        <time>2022-02-23T18:14:37Z</time>
      </trkpt>
      <trkpt lat="41.506420" lon="-5.750750">
        <ele>643.008</ele>
        <time>2022-02-23T18:15:17Z</time>
      </trkpt>
      <trkpt lat="41.506470" lon="-5.750750">
        <ele>643.142</ele>
        <time>2022-02-23T18:15:57Z</time>
      </trkpt>
      <trkpt lat="41.506840" lon="-5.750770">
        <ele>645.339</ele>
        <time>2022-02-23T18:16:37Z</time>
      </trkpt>
      <trkpt lat="41.507180" lon="-5.750800">
        <ele>650.013</ele>
        <time>2022-02-23T18:17:17Z</time>
      </trkpt>
      <trkpt lat="41.507600" lon="-5.750810">
        <ele>653.719</ele>
        <time>2022-02-23T18:17:57Z</time>
      </trkpt>
      <trkpt lat="41.507690" lon="-5.750840">
        <ele>654.426</ele>
        <time>2022-02-23T18:18:37Z</time>
      </trkpt>
      <trkpt lat="41.507689" lon="-5.750836">
        <ele>654.417</ele>
        <time>2022-02-23T18:19:17Z</time>
      </trkpt>
      <trkpt lat="41.507830" lon="-5.751020">
        <ele>656.091</ele>
        <time>2022-02-23T18:19:57Z</time>
      </trkpt>
      <trkpt lat="41.507870" lon="-5.751070">
        <ele>656.556</ele>
        <time>2022-02-23T18:20:37Z</time>
      </trkpt>
      <trkpt lat="41.508060" lon="-5.751200">
        <ele>657.421</ele>
        <time>2022-02-23T18:21:17Z</time>
      </trkpt>
      <trkpt lat="41.508920" lon="-5.751820">
        <ele>660.141</ele>
        <time>2022-02-23T18:21:57Z</time>
      </trkpt>
      <trkpt lat="41.509030" lon="-5.751900">
        <ele>660.505</ele>
        <time>2022-02-23T18:22:37Z</time>
      </trkpt>
      <trkpt lat="41.509310" lon="-5.752100">
        <ele>662.608</ele>
        <time>2022-02-23T18:23:17Z</time>
      </trkpt>
      <trkpt lat="41.509890" lon="-5.752510">
        <ele>664.011</ele>
        <time>2022-02-23T18:23:57Z</time>
      </trkpt>
      <trkpt lat="41.510120" lon="-5.752670">
        <ele>663.978</ele>
        <time>2022-02-23T18:24:37Z</time>
      </trkpt>
      <trkpt lat="41.510210" lon="-5.752730">
        <ele>664.452</ele>
        <time>2022-02-23T18:25:17Z</time>
      </trkpt>
      <trkpt lat="41.510530" lon="-5.752960">
        <ele>664.968</ele>
        <time>2022-02-23T18:25:57Z</time>
      </trkpt>
      <trkpt lat="41.510850" lon="-5.753190">
        <ele>665.015</ele>
        <time>2022-02-23T18:26:37Z</time>
      </trkpt>
      <trkpt lat="41.511150" lon="-5.753400">
        <ele>664.616</ele>
        <time>2022-02-23T18:27:17Z</time>
      </trkpt>
      <trkpt lat="41.511170" lon="-5.753420">
        <ele>664.530</ele>
        <time>2022-02-23T18:27:57Z</time>
      </trkpt>
      <trkpt lat="41.511320" lon="-5.753530">
        <ele>663.575</ele>
        <time>2022-02-23T18:28:37Z</time>
      </trkpt>
      <trkpt lat="41.511600" lon="-5.753730">
        <ele>663.759</ele>
        <time>2022-02-23T18:29:17Z</time>
      </trkpt>
      <trkpt lat="41.511770" lon="-5.753850">
        <ele>665.103</ele>
        <time>2022-02-23T18:29:57Z</time>
      </trkpt>
      <trkpt lat="41.512380" lon="-5.754300">
        <ele>667.723</ele>
        <time>2022-02-23T18:30:37Z</time>
      </trkpt>
      <trkpt lat="41.512480" lon="-5.754370">
        <ele>668.808</ele>
        <time>2022-02-23T18:31:17Z</time>
      </trkpt>
      <trkpt lat="41.512870" lon="-5.754630">
        <ele>669.944</ele>
        <time>2022-02-23T18:31:57Z</time>
      </trkpt>
      <trkpt lat="41.513300" lon="-5.754940">
        <ele>670.721</ele>
        <time>2022-02-23T18:32:37Z</time>
      </trkpt>
      <trkpt lat="41.513530" lon="-5.755100">
        <ele>670.455</ele>
        <time>2022-02-23T18:33:17Z</time>
      </trkpt>
      <trkpt lat="41.513610" lon="-5.755150">
        <ele>670.511</ele>
        <time>2022-02-23T18:33:57Z</time>
      </trkpt>
      <trkpt lat="41.513630" lon="-5.755170">
        <ele>670.868</ele>
        <time>2022-02-23T18:34:37Z</time>
      </trkpt>
      <trkpt lat="41.513740" lon="-5.755250">
        <ele>672.669</ele>
        <time>2022-02-23T18:35:17Z</time>
      </trkpt>
      <trkpt lat="41.514370" lon="-5.755690">
        <ele>673.953</ele>
        <time>2022-02-23T18:35:57Z</time>
      </trkpt>
      <trkpt lat="41.514630" lon="-5.755880">
        <ele>671.758</ele>
        <time>2022-02-23T18:36:37Z</time>
      </trkpt>
      <trkpt lat="41.515440" lon="-5.756450">
        <ele>672.716</ele>
        <time>2022-02-23T18:37:17Z</time>
      </trkpt>
      <trkpt lat="41.515760" lon="-5.756670">
        <ele>673.076</ele>
        <time>2022-02-23T18:37:57Z</time>
      </trkpt>
      <trkpt lat="41.516450" lon="-5.757160">
        <ele>675.013</ele>
        <time>2022-02-23T18:38:37Z</time>
      </trkpt>
      <trkpt lat="41.516590" lon="-5.757260">
        <ele>674.908</ele>
        <time>2022-02-23T18:39:17Z</time>
      </trkpt>
      <trkpt lat="41.516680" lon="-5.757320">
        <ele>674.740</ele>
        <time>2022-02-23T18:39:57Z</time>
      </trkpt>
      <trkpt lat="41.517540" lon="-5.757940">
        <ele>677.667</ele>
        <time>2022-02-23T18:40:37Z</time>
      </trkpt>
      <trkpt lat="41.517880" lon="-5.758190">
        <ele>678.881</ele>
        <time>2022-02-23T18:41:17Z</time>
      </trkpt>
      <trkpt lat="41.517920" lon="-5.758220">
        <ele>678.937</ele>
        <time>2022-02-23T18:41:57Z</time>
      </trkpt>
      <trkpt lat="41.518240" lon="-5.758450">
        <ele>680.174</ele>
        <time>2022-02-23T18:42:37Z</time>
      </trkpt>
      <trkpt lat="41.518340" lon="-5.758490">
        <ele>680.725</ele>
        <time>2022-02-23T18:43:17Z</time>
      </trkpt>
      <trkpt lat="41.518610" lon="-5.758590">
        <ele>682.749</ele>
        <time>2022-02-23T18:43:57Z</time>
      </trkpt>
      <trkpt lat="41.518780" lon="-5.758630">
        <ele>682.714</ele>
        <time>2022-02-23T18:44:37Z</time>
      </trkpt>
      <trkpt lat="41.518840" lon="-5.758660">
        <ele>682.968</ele>
        <time>2022-02-23T18:45:17Z</time>
      </trkpt>
      <trkpt lat="41.518920" lon="-5.758710">
        <ele>683.542</ele>
        <time>2022-02-23T18:45:57Z</time>
      </trkpt>
      <trkpt lat="41.518920" lon="-5.758707">
        <ele>683.526</ele>
        <time>2022-02-23T18:46:37Z</time>
      </trkpt>
      <trkpt lat="41.518930" lon="-5.758700">
        <ele>683.408</ele>
        <time>2022-02-23T18:47:17Z</time>
      </trkpt>
      <trkpt lat="41.518950" lon="-5.758690">
        <ele>683.435</ele>
        <time>2022-02-23T18:47:57Z</time>
      </trkpt>
      <trkpt lat="41.518960" lon="-5.758690">
        <ele>683.422</ele>
        <time>2022-02-23T18:48:37Z</time>
      </trkpt>
      <trkpt lat="41.518980" lon="-5.758690">
        <ele>683.546</ele>
        <time>2022-02-23T18:49:17Z</time>
      </trkpt>
      <trkpt lat="41.518990" lon="-5.758690">
        <ele>683.672</ele>
        <time>2022-02-23T18:49:57Z</time>
      </trkpt>
      <trkpt lat="41.519010" lon="-5.758690">
        <ele>683.639</ele>
        <time>2022-02-23T18:50:37Z</time>
      </trkpt>
      <trkpt lat="41.519020" lon="-5.758690">
        <ele>683.750</ele>
        <time>2022-02-23T18:51:17Z</time>
      </trkpt>
      <trkpt lat="41.519030" lon="-5.758700">
        <ele>683.844</ele>
        <time>2022-02-23T18:51:57Z</time>
      </trkpt>
      <trkpt lat="41.519050" lon="-5.758700">
        <ele>683.959</ele>
        <time>2022-02-23T18:52:37Z</time>
      </trkpt>
      <trkpt lat="41.519060" lon="-5.758710">
        <ele>684.042</ele>
        <time>2022-02-23T18:53:17Z</time>
      </trkpt>
      <trkpt lat="41.519070" lon="-5.758720">
        <ele>684.122</ele>
        <time>2022-02-23T18:53:57Z</time>
      </trkpt>
      <trkpt lat="41.519090" lon="-5.758730">
        <ele>684.214</ele>
        <time>2022-02-23T18:54:37Z</time>
      </trkpt>
      <trkpt lat="41.519100" lon="-5.758750">
        <ele>684.408</ele>
        <time>2022-02-23T18:55:17Z</time>
      </trkpt>
      <trkpt lat="41.519110" lon="-5.758760">
        <ele>684.533</ele>
        <time>2022-02-23T18:55:57Z</time>
      </trkpt>
      <trkpt lat="41.519120" lon="-5.758770">
        <ele>684.560</ele>
        <time>2022-02-23T18:56:37Z</time>
      </trkpt>
      <trkpt lat="41.519130" lon="-5.758790">
        <ele>684.644</ele>
        <time>2022-02-23T18:57:17Z</time>
      </trkpt>
      <trkpt lat="41.519140" lon="-5.758800">
        <ele>684.750</ele>
        <time>2022-02-23T18:57:57Z</time>
      </trkpt>
      <trkpt lat="41.519150" lon="-5.758820">
        <ele>684.837</ele>
        <time>2022-02-23T18:58:37Z</time>
      </trkpt>
      <trkpt lat="41.519150" lon="-5.758840">
        <ele>684.958</ele>
        <time>2022-02-23T18:59:17Z</time>
      </trkpt>
      <trkpt lat="41.519160" lon="-5.758860">
        <ele>684.982</ele>
        <time>2022-02-23T18:59:57Z</time>
      </trkpt>
      <trkpt lat="41.519160" lon="-5.758880">
        <ele>685.067</ele>
        <time>2022-02-23T19:00:37Z</time>
      </trkpt>
      <trkpt lat="41.519160" lon="-5.758900">
        <ele>685.196</ele>
        <time>2022-02-23T19:01:17Z</time>
      </trkpt>
      <trkpt lat="41.519170" lon="-5.758920">
        <ele>685.331</ele>
        <time>2022-02-23T19:01:57Z</time>
      </trkpt>
      <trkpt lat="41.519300" lon="-5.759070">
        <ele>687.424</ele>
        <time>2022-02-23T19:02:37Z</time>
      </trkpt>
      <trkpt lat="41.519430" lon="-5.759230">
        <ele>689.108</ele>
        <time>2022-02-23T19:03:17Z</time>
      </trkpt>
      <trkpt lat="41.519570" lon="-5.759390">
        <ele>689.498</ele>
        <time>2022-02-23T19:03:57Z</time>
      </trkpt>
      <trkpt lat="41.519630" lon="-5.759430">
        <ele>689.325</ele>
        <time>2022-02-23T19:04:37Z</time>
      </trkpt>
      <trkpt lat="41.519760" lon="-5.759520">
        <ele>689.279</ele>
        <time>2022-02-23T19:05:17Z</time>
      </trkpt>
      <trkpt lat="41.519920" lon="-5.759640">
        <ele>689.265</ele>
        <time>2022-02-23T19:05:57Z</time>
      </trkpt>
      <trkpt lat="41.519980" lon="-5.759680">
        <ele>689.192</ele>
        <time>2022-02-23T19:06:37Z</time>
      </trkpt>
      <trkpt lat="41.520080" lon="-5.759750">
        <ele>689.233</ele>
        <time>2022-02-23T19:07:17Z</time>
      </trkpt>
      <trkpt lat="41.520190" lon="-5.759830">
        <ele>689.877</ele>
        <time>2022-02-23T19:07:57Z</time>
      </trkpt>
      <trkpt lat="41.520550" lon="-5.760080">
        <ele>690.322</ele>
        <time>2022-02-23T19:08:37Z</time>
      </trkpt>
      <trkpt lat="41.520620" lon="-5.760130">
        <ele>690.252</ele>
        <time>2022-02-23T19:09:17Z</time>
      </trkpt>
      <trkpt lat="41.521200" lon="-5.760540">
        <ele>690.053</ele>
        <time>2022-02-23T19:09:57Z</time>
      </trkpt>
      <trkpt lat="41.521490" lon="-5.760740">
        <ele>690.708</ele>
        <time>2022-02-23T19:10:37Z</time>
      </trkpt>
      <trkpt lat="41.522070" lon="-5.761150">
        <ele>689.208</ele>
        <time>2022-02-23T19:11:17Z</time>
      </trkpt>
      <trkpt lat="41.522240" lon="-5.761280">
        <ele>688.644</ele>
        <time>2022-02-23T19:11:57Z</time>
      </trkpt>
      <trkpt lat="41.522450" lon="-5.761440">
        <ele>688.271</ele>
        <time>2022-02-23T19:12:37Z</time>
      </trkpt>
      <trkpt lat="41.522470" lon="-5.761450">
        <ele>688.125</ele>
        <time>2022-02-23T19:13:17Z</time>
      </trkpt>
      <trkpt lat="41.522600" lon="-5.761540">
        <ele>688.421</ele>
        <time>2022-02-23T19:13:57Z</time>
      </trkpt>
      <trkpt lat="41.522870" lon="-5.761730">
        <ele>689.328</ele>
        <time>2022-02-23T19:14:37Z</time>
      </trkpt>
      <trkpt lat="41.523230" lon="-5.761990">
        <ele>690.629</ele>
        <time>2022-02-23T19:15:17Z</time>
      </trkpt>
      <trkpt lat="41.523650" lon="-5.762280">
        <ele>693.843</ele>
        <time>2022-02-23T19:15:57Z</time>
      </trkpt>
      <trkpt lat="41.523980" lon="-5.762520">
        <ele>693.738</ele>
        <time>2022-02-23T19:16:37Z</time>
      </trkpt>
      <trkpt lat="41.524680" lon="-5.763030">
        <ele>692.095</ele>
        <time>2022-02-23T19:17:17Z</time>
      </trkpt>
      <trkpt lat="41.524930" lon="-5.763210">
        <ele>693.149</ele>
        <time>2022-02-23T19:17:57Z</time>
      </trkpt>
      <trkpt lat="41.525150" lon="-5.763370">
        <ele>695.123</ele>
        <time>2022-02-23T19:18:37Z</time>
      </trkpt>
      <trkpt lat="41.525290" lon="-5.763490">
        <ele>696.508</ele>
        <time>2022-02-23T19:19:17Z</time>
      </trkpt>
      <trkpt lat="41.525390" lon="-5.763580">
        <ele>696.518</ele>
        <time>2022-02-23T19:19:57Z</time>
      </trkpt>
      <trkpt lat="41.525430" lon="-5.763610">
        <ele>696.595</ele>
        <time>2022-02-23T19:20:37Z</time>
      </trkpt>
      <trkpt lat="41.525550" lon="-5.763730">
        <ele>696.689</ele>
        <time>2022-02-23T19:21:17Z</time>
      </trkpt>
      <trkpt lat="41.526450" lon="-5.764610">
        <ele>696.555</ele>
        <time>2022-02-23T19:21:57Z</time>
      </trkpt>
      <trkpt lat="41.526590" lon="-5.764740">
        <ele>696.862</ele>
        <time>2022-02-23T19:22:37Z</time>
      </trkpt>
      <trkpt lat="41.526780" lon="-5.764930">
        <ele>697.953</ele>
        <time>2022-02-23T19:23:17Z</time>
      </trkpt>
      <trkpt lat="41.527350" lon="-5.765510">
        <ele>699.417</ele>
        <time>2022-02-23T19:23:57Z</time>
      </trkpt>
      <trkpt lat="41.527500" lon="-5.765660">
        <ele>700.092</ele>
        <time>2022-02-23T19:24:37Z</time>
      </trkpt>
      <trkpt lat="41.527510" lon="-5.765670">
        <ele>700.093</ele>
        <time>2022-02-23T19:25:17Z</time>
      </trkpt>
      <trkpt lat="41.527610" lon="-5.765770">
        <ele>700.065</ele>
        <time>2022-02-23T19:25:57Z</time>
      </trkpt>
      <trkpt lat="41.527680" lon="-5.765830">
        <ele>700.021</ele>
        <time>2022-02-23T19:26:37Z</time>
      </trkpt>
      <trkpt lat="41.528090" lon="-5.766240">
        <ele>697.008</ele>
        <time>2022-02-23T19:27:17Z</time>
      </trkpt>
      <trkpt lat="41.528520" lon="-5.766670">
        <ele>694.778</ele>
        <time>2022-02-23T19:27:57Z</time>
      </trkpt>
      <trkpt lat="41.528740" lon="-5.766890">
        <ele>697.065</ele>
        <time>2022-02-23T19:28:37Z</time>
      </trkpt>
      <trkpt lat="41.528960" lon="-5.767100">
        <ele>698.019</ele>
        <time>2022-02-23T19:29:17Z</time>
      </trkpt>
      <trkpt lat="41.529540" lon="-5.767670">
        <ele>692.995</ele>
        <time>2022-02-23T19:29:57Z</time>
      </trkpt>
      <trkpt lat="41.529590" lon="-5.767710">
        <ele>692.682</ele>
        <time>2022-02-23T19:30:37Z</time>
      </trkpt>
      <trkpt lat="41.529910" lon="-5.768090">
        <ele>690.293</ele>
        <time>2022-02-23T19:31:17Z</time>
      </trkpt>
      <trkpt lat="41.529980" lon="-5.768160">
        <ele>689.717</ele>
        <time>2022-02-23T19:31:57Z</time>
      </trkpt>
      <trkpt lat="41.530210" lon="-5.768470">
        <ele>688.172</ele>
        <time>2022-02-23T19:32:37Z</time>
      </trkpt>
      <trkpt lat="41.530350" lon="-5.768690">
        <ele>687.553</ele>
        <time>2022-02-23T19:33:17Z</time>
      </trkpt>
      <trkpt lat="41.530480" lon="-5.768900">
        <ele>687.004</ele>
        <time>2022-02-23T19:33:57Z</time>
      </trkpt>
      <trkpt lat="41.530520" lon="-5.768970">
        <ele>687.314</ele>
        <time>2022-02-23T19:34:37Z</time>
      </trkpt>
      <trkpt lat="41.530530" lon="-5.769000">
        <ele>687.408</ele>
        <time>2022-02-23T19:35:17Z</time>
      </trkpt>
      <trkpt lat="41.530580" lon="-5.769100">
        <ele>687.814</ele>
        <time>2022-02-23T19:35:57Z</time>
      </trkpt>
      <trkpt lat="41.530810" lon="-5.769540">
        <ele>689.221</ele>
        <time>2022-02-23T19:36:37Z</time>
      </trkpt>
      <trkpt lat="41.531170" lon="-5.770270">
        <ele>685.655</ele>
        <time>2022-02-23T19:37:17Z</time>
      </trkpt>
      <trkpt lat="41.531450" lon="-5.770820">
        <ele>677.031</ele>
        <time>2022-02-23T19:37:57Z</time>
      </trkpt>
      <trkpt lat="41.531760" lon="-5.771350">
        <ele>672.368</ele>
        <time>2022-02-23T19:38:37Z</time>
      </trkpt>
      <trkpt lat="41.531980" lon="-5.771700">
        <ele>667.919</ele>
        <time>2022-02-23T19:39:17Z</time>
      </trkpt>
      <trkpt lat="41.532010" lon="-5.771760">
        <ele>667.593</ele>
        <time>2022-02-23T19:39:57Z</time>
      </trkpt>
      <trkpt lat="41.532160" lon="-5.772000">
        <ele>665.868</ele>
        <time>2022-02-23T19:40:37Z</time>
      </trkpt>
      <trkpt lat="41.532270" lon="-5.772160">
        <ele>664.975</ele>
        <time>2022-02-23T19:41:17Z</time>
      </trkpt>
      <trkpt lat="41.532310" lon="-5.772230">
        <ele>664.328</ele>
        <time>2022-02-23T19:41:57Z</time>
      </trkpt>
      <trkpt lat="41.532350" lon="-5.772290">
        <ele>663.820</ele>
        <time>2022-02-23T19:42:37Z</time>
      </trkpt>
      <trkpt lat="41.532490" lon="-5.772480">
        <ele>662.108</ele>
        <time>2022-02-23T19:43:17Z</time>
      </trkpt>
      <trkpt lat="41.532560" lon="-5.772570">
        <ele>661.476</ele>
        <time>2022-02-23T19:43:57Z</time>
      </trkpt>
      <trkpt lat="41.532700" lon="-5.772720">
        <ele>659.853</ele>
        <time>2022-02-23T19:44:37Z</time>
      </trkpt>
      <trkpt lat="41.532850" lon="-5.772870">
        <ele>659.437</ele>
        <time>2022-02-23T19:45:17Z</time>
      </trkpt>
      <trkpt lat="41.532990" lon="-5.773010">
        <ele>659.893</ele>
        <time>2022-02-23T19:45:57Z</time>
      </trkpt>
      <trkpt lat="41.533220" lon="-5.773250">
        <ele>661.680</ele>
        <time>2022-02-23T19:46:37Z</time>
      </trkpt>
      <trkpt lat="41.533270" lon="-5.773300">
        <ele>661.891</ele>
        <time>2022-02-23T19:47:17Z</time>
      </trkpt>
      <trkpt lat="41.533300" lon="-5.773330">
        <ele>661.955</ele>
        <time>2022-02-23T19:47:57Z</time>
      </trkpt>
      <trkpt lat="41.533450" lon="-5.773480">
        <ele>662.090</ele>
        <time>2022-02-23T19:48:37Z</time>
      </trkpt>
      <trkpt lat="41.533590" lon="-5.773620">
        <ele>662.068</ele>
        <time>2022-02-23T19:49:17Z</time>
      </trkpt>
      <trkpt lat="41.533740" lon="-5.773760">
        <ele>661.942</ele>
        <time>2022-02-23T19:49:57Z</time>
      </trkpt>
      <trkpt lat="41.533790" lon="-5.773810">
        <ele>661.926</ele>
        <time>2022-02-23T19:50:37Z</time>
      </trkpt>
      <trkpt lat="41.533880" lon="-5.773890">
        <ele>662.008</ele>
        <time>2022-02-23T19:51:17Z</time>
      </trkpt>
      <trkpt lat="41.533890" lon="-5.773900">
        <ele>662.025</ele>
        <time>2022-02-23T19:51:57Z</time>
      </trkpt>
      <trkpt lat="41.533990" lon="-5.773990">
        <ele>663.252</ele>
        <time>2022-02-23T19:52:37Z</time>
      </trkpt>
      <trkpt lat="41.534080" lon="-5.774060">
        <ele>663.966</ele>
        <time>2022-02-23T19:53:17Z</time>
      </trkpt>
      <trkpt lat="41.534190" lon="-5.774130">
        <ele>664.572</ele>
        <time>2022-02-23T19:53:57Z</time>
      </trkpt>
      <trkpt lat="41.534230" lon="-5.774160">
        <ele>664.529</ele>
        <time>2022-02-23T19:54:37Z</time>
      </trkpt>
      <trkpt lat="41.534250" lon="-5.774180">
        <ele>664.680</ele>
        <time>2022-02-23T19:55:17Z</time>
      </trkpt>
      <trkpt lat="41.534340" lon="-5.774220">
        <ele>665.154</ele>
        <time>2022-02-23T19:55:57Z</time>
      </trkpt>
      <trkpt lat="41.534390" lon="-5.774240">
        <ele>665.479</ele>
        <time>2022-02-23T19:56:37Z</time>
      </trkpt>
      <trkpt lat="41.534490" lon="-5.774280">
        <ele>665.785</ele>
        <time>2022-02-23T19:57:17Z</time>
      </trkpt>
      <trkpt lat="41.534540" lon="-5.774300">
        <ele>665.589</ele>
        <time>2022-02-23T19:57:57Z</time>
      </trkpt>
      <trkpt lat="41.534570" lon="-5.774310">
        <ele>665.517</ele>
        <time>2022-02-23T19:58:37Z</time>
      </trkpt>
      <trkpt lat="41.534650" lon="-5.774320">
        <ele>665.308</ele>
        <time>2022-02-23T19:59:17Z</time>
      </trkpt>
      <trkpt lat="41.534750" lon="-5.774330">
        <ele>665.127</ele>
        <time>2022-02-23T19:59:57Z</time>
      </trkpt>
      <trkpt lat="41.534780" lon="-5.774330">
        <ele>665.164</ele>
        <time>2022-02-23T20:00:37Z</time>
      </trkpt>
      <trkpt lat="41.534820" lon="-5.774340">
        <ele>665.048</ele>
        <time>2022-02-23T20:01:17Z</time>
      </trkpt>
      <trkpt lat="41.534880" lon="-5.774340">
        <ele>665.014</ele>
        <time>2022-02-23T20:01:57Z</time>
      </trkpt>
      <trkpt lat="41.534930" lon="-5.774340">
        <ele>665.141</ele>
        <time>2022-02-23T20:02:37Z</time>
      </trkpt>
      <trkpt lat="41.534960" lon="-5.774350">
        <ele>665.052</ele>
        <time>2022-02-23T20:03:17Z</time>
      </trkpt>
      <trkpt lat="41.535050" lon="-5.774340">
        <ele>665.726</ele>
        <time>2022-02-23T20:03:57Z</time>
      </trkpt>
      <trkpt lat="41.535230" lon="-5.774340">
        <ele>667.651</ele>
        <time>2022-02-23T20:04:37Z</time>
      </trkpt>
      <trkpt lat="41.535380" lon="-5.774340">
        <ele>669.082</ele>
        <time>2022-02-23T20:05:17Z</time>
      </trkpt>
      <trkpt lat="41.535410" lon="-5.774340">
        <ele>669.343</ele>
        <time>2022-02-23T20:05:57Z</time>
      </trkpt>
      <trkpt lat="41.535590" lon="-5.774350">
        <ele>670.317</ele>
        <time>2022-02-23T20:06:37Z</time>
      </trkpt>
      <trkpt lat="41.535770" lon="-5.774350">
        <ele>669.908</ele>
        <time>2022-02-23T20:07:17Z</time>
      </trkpt>
      <trkpt lat="41.535840" lon="-5.774350">
        <ele>669.767</ele>
        <time>2022-02-23T20:07:57Z</time>
      </trkpt>
      <trkpt lat="41.536040" lon="-5.774350">
        <ele>669.424</ele>
        <time>2022-02-23T20:08:37Z</time>
      </trkpt>
      <trkpt lat="41.536150" lon="-5.774360">
        <ele>669.158</ele>
        <time>2022-02-23T20:09:17Z</time>
      </trkpt>
      <trkpt lat="41.536250" lon="-5.774370">
        <ele>668.894</ele>
        <time>2022-02-23T20:09:57Z</time>
      </trkpt>
      <trkpt lat="41.536290" lon="-5.774380">
        <ele>668.691</ele>
        <time>2022-02-23T20:10:37Z</time>
      </trkpt>
      <trkpt lat="41.536330" lon="-5.774390">
        <ele>668.522</ele>
        <time>2022-02-23T20:11:17Z</time>
      </trkpt>
      <trkpt lat="41.536380" lon="-5.774410">
        <ele>668.326</ele>
        <time>2022-02-23T20:11:57Z</time>
      </trkpt>
      <trkpt lat="41.536450" lon="-5.774430">
        <ele>667.911</ele>
        <time>2022-02-23T20:12:37Z</time>
      </trkpt>
      <trkpt lat="41.536520" lon="-5.774470">
        <ele>667.532</ele>
        <time>2022-02-23T20:13:17Z</time>
      </trkpt>
      <trkpt lat="41.536580" lon="-5.774490">
        <ele>667.392</ele>
        <time>2022-02-23T20:13:57Z</time>
      </trkpt>
      <trkpt lat="41.536620" lon="-5.774510">
        <ele>667.211</ele>
        <time>2022-02-23T20:14:37Z</time>
      </trkpt>
      <trkpt lat="41.536710" lon="-5.774570">
        <ele>666.808</ele>
        <time>2022-02-23T20:15:17Z</time>
      </trkpt>
      <trkpt lat="41.536790" lon="-5.774630">
        <ele>666.642</ele>
        <time>2022-02-23T20:15:57Z</time>
      </trkpt>
      <trkpt lat="41.536870" lon="-5.774700">
        <ele>666.399</ele>
        <time>2022-02-23T20:16:37Z</time>
      </trkpt>
      <trkpt lat="41.536930" lon="-5.774760">
        <ele>665.953</ele>
        <time>2022-02-23T20:17:17Z</time>
      </trkpt>
      <trkpt lat="41.536990" lon="-5.774830">
        <ele>665.649</ele>
        <time>2022-02-23T20:17:57Z</time>
      </trkpt>
      <trkpt lat="41.537120" lon="-5.775010">
        <ele>665.026</ele>
        <time>2022-02-23T20:18:37Z</time>
      </trkpt>
      <trkpt lat="41.537260" lon="-5.775230">
        <ele>664.357</ele>
        <time>2022-02-23T20:19:17Z</time>
      </trkpt>
      <trkpt lat="41.537400" lon="-5.775450">
        <ele>664.911</ele>
        <time>2022-02-23T20:19:57Z</time>
      </trkpt>
      <trkpt lat="41.537500" lon="-5.775610">
        <ele>665.096</ele>
        <time>2022-02-23T20:20:37Z</time>
      </trkpt>
      <trkpt lat="41.537710" lon="-5.775960">
        <ele>664.251</ele>
        <time>2022-02-23T20:21:17Z</time>
      </trkpt>
      <trkpt lat="41.537850" lon="-5.776200">
        <ele>663.201</ele>
        <time>2022-02-23T20:21:57Z</time>
      </trkpt>
      <trkpt lat="41.537970" lon="-5.776380">
        <ele>661.611</ele>
        <time>2022-02-23T20:22:37Z</time>
      </trkpt>
      <trkpt lat="41.537980" lon="-5.776390">
        <ele>661.508</ele>
        <time>2022-02-23T20:23:17Z</time>
      </trkpt>
      <trkpt lat="41.538080" lon="-5.776570">
        <ele>660.034</ele>
        <time>2022-02-23T20:23:57Z</time>
      </trkpt>
      <trkpt lat="41.538200" lon="-5.776750">
        <ele>661.181</ele>
        <time>2022-02-23T20:24:37Z</time>
      </trkpt>
      <trkpt lat="41.538230" lon="-5.776800">
        <ele>661.415</ele>
        <time>2022-02-23T20:25:17Z</time>
      </trkpt>
      <trkpt lat="41.538490" lon="-5.777230">
        <ele>662.681</ele>
        <time>2022-02-23T20:25:57Z</time>
      </trkpt>
      <trkpt lat="41.538650" lon="-5.777500">
        <ele>663.058</ele>
        <time>2022-02-23T20:26:37Z</time>
      </trkpt>
      <trkpt lat="41.538720" lon="-5.777620">
        <ele>663.489</ele>
        <time>2022-02-23T20:27:17Z</time>
      </trkpt>
      <trkpt lat="41.538970" lon="-5.778050">
        <ele>665.043</ele>
        <time>2022-02-23T20:27:57Z</time>
      </trkpt>
      <trkpt lat="41.539280" lon="-5.778550">
        <ele>665.848</ele>
        <time>2022-02-23T20:28:37Z</time>
      </trkpt>
      <trkpt lat="41.539430" lon="-5.778800">
        <ele>666.915</ele>
        <time>2022-02-23T20:29:17Z</time>
      </trkpt>
      <trkpt lat="41.539610" lon="-5.779090">
        <ele>668.465</ele>
        <time>2022-02-23T20:29:57Z</time>
      </trkpt>
      <trkpt lat="41.539790" lon="-5.779350">
        <ele>668.411</ele>
        <time>2022-02-23T20:30:37Z</time>
      </trkpt>
      <trkpt lat="41.540030" lon="-5.779700">
        <ele>666.308</ele>
        <time>2022-02-23T20:31:17Z</time>
      </trkpt>
      <trkpt lat="41.540220" lon="-5.779960">
        <ele>665.950</ele>
        <time>2022-02-23T20:31:57Z</time>
      </trkpt>
      <trkpt lat="41.540370" lon="-5.780170">
        <ele>665.997</ele>
        <time>2022-02-23T20:32:37Z</time>
      </trkpt>
      <trkpt lat="41.540470" lon="-5.780310">
        <ele>666.151</ele>
        <time>2022-02-23T20:33:17Z</time>
      </trkpt>
      <trkpt lat="41.540540" lon="-5.780450">
        <ele>666.667</ele>
        <time>2022-02-23T20:33:57Z</time>
      </trkpt>
      <trkpt lat="41.540580" lon="-5.780550">
        <ele>667.194</ele>
        <time>2022-02-23T20:34:37Z</time>
      </trkpt>
      <trkpt lat="41.540600" lon="-5.780640">
        <ele>667.255</ele>
        <time>2022-02-23T20:35:17Z</time>
      </trkpt>
      <trkpt lat="41.540630" lon="-5.780760">
        <ele>667.389</ele>
        <time>2022-02-23T20:35:57Z</time>
      </trkpt>
      <trkpt lat="41.540660" lon="-5.780900">
        <ele>667.444</ele>
        <time>2022-02-23T20:36:37Z</time>
      </trkpt>
      <trkpt lat="41.540690" lon="-5.781030">
        <ele>667.563</ele>
        <time>2022-02-23T20:37:17Z</time>
      </trkpt>
      <trkpt lat="41.540710" lon="-5.781160">
        <ele>667.644</ele>
        <time>2022-02-23T20:37:57Z</time>
      </trkpt>
      <trkpt lat="41.540740" lon="-5.781380">
        <ele>668.018</ele>
        <time>2022-02-23T20:38:37Z</time>
      </trkpt>
      <trkpt lat="41.540760" lon="-5.781610">
        <ele>668.408</ele>
        <time>2022-02-23T20:39:17Z</time>
      </trkpt>
      <trkpt lat="41.540820" lon="-5.782020">
        <ele>671.435</ele>
        <time>2022-02-23T20:39:57Z</time>
      </trkpt>
      <trkpt lat="41.540830" lon="-5.782080">
        <ele>671.992</ele>
        <time>2022-02-23T20:40:37Z</time>
      </trkpt>
      <trkpt lat="41.540920" lon="-5.782690">
        <ele>674.756</ele>
        <time>2022-02-23T20:41:17Z</time>
      </trkpt>
      <trkpt lat="41.540940" lon="-5.782790">
        <ele>674.312</ele>
        <time>2022-02-23T20:41:57Z</time>
      </trkpt>
      <trkpt lat="41.540980" lon="-5.783020">
        <ele>673.799</ele>
        <time>2022-02-23T20:42:37Z</time>
      </trkpt>
      <trkpt lat="41.541010" lon="-5.783190">
        <ele>672.880</ele>
        <time>2022-02-23T20:43:17Z</time>
      </trkpt>
      <trkpt lat="41.541070" lon="-5.783490">
        <ele>671.094</ele>
        <time>2022-02-23T20:43:57Z</time>
      </trkpt>
      <trkpt lat="41.541110" lon="-5.783720">
        <ele>669.699</ele>
        <time>2022-02-23T20:44:37Z</time>
      </trkpt>
      <trkpt lat="41.541130" lon="-5.783810">
        <ele>669.276</ele>
        <time>2022-02-23T20:45:17Z</time>
      </trkpt>
      <trkpt lat="41.541190" lon="-5.784190">
        <ele>667.390</ele>
        <time>2022-02-23T20:45:57Z</time>
      </trkpt>
      <trkpt lat="41.541230" lon="-5.784420">
        <ele>667.419</ele>
        <time>2022-02-23T20:46:37Z</time>
      </trkpt>
      <trkpt lat="41.541240" lon="-5.784510">
        <ele>667.908</ele>
        <time>2022-02-23T20:47:17Z</time>
      </trkpt>
      <trkpt lat="41.541370" lon="-5.785300">
        <ele>672.116</ele>
        <time>2022-02-23T20:47:57Z</time>
      </trkpt>
      <trkpt lat="41.541440" lon="-5.785790">
        <ele>673.733</ele>
        <time>2022-02-23T20:48:37Z</time>
      </trkpt>
      <trkpt lat="41.541500" lon="-5.786140">
        <ele>673.637</ele>
        <time>2022-02-23T20:49:17Z</time>
      </trkpt>
      <trkpt lat="41.541600" lon="-5.786810">
        <ele>673.413</ele>
        <time>2022-02-23T20:49:57Z</time>
      </trkpt>
      <trkpt lat="41.541700" lon="-5.787460">
        <ele>672.820</ele>
        <time>2022-02-23T20:50:37Z</time>
      </trkpt>
      <trkpt lat="41.541840" lon="-5.788320">
        <ele>673.631</ele>
        <time>2022-02-23T20:51:17Z</time>
      </trkpt>
      <trkpt lat="41.541840" lon="-5.788360">
        <ele>673.745</ele>
        <time>2022-02-23T20:51:57Z</time>
      </trkpt>
      <trkpt lat="41.541980" lon="-5.789230">
        <ele>674.820</ele>
        <time>2022-02-23T20:52:37Z</time>
      </trkpt>
      <trkpt lat="41.542120" lon="-5.790120">
        <ele>676.084</ele>
        <time>2022-02-23T20:53:17Z</time>
      </trkpt>
      <trkpt lat="41.542290" lon="-5.791170">
        <ele>675.807</ele>
        <time>2022-02-23T20:53:57Z</time>
      </trkpt>
      <trkpt lat="41.542420" lon="-5.792030">
        <ele>674.017</ele>
        <time>2022-02-23T20:54:37Z</time>
      </trkpt>
      <trkpt lat="41.542540" lon="-5.792820">
        <ele>676.708</ele>
        <time>2022-02-23T20:55:17Z</time>
      </trkpt>
      <trkpt lat="41.542680" lon="-5.793730">
        <ele>677.677</ele>
        <time>2022-02-23T20:55:57Z</time>
      </trkpt>
      <trkpt lat="41.542810" lon="-5.794590">
        <ele>674.784</ele>
        <time>2022-02-23T20:56:37Z</time>
      </trkpt>
      <trkpt lat="41.542820" lon="-5.794600">
        <ele>674.798</ele>
        <time>2022-02-23T20:57:17Z</time>
      </trkpt>
      <trkpt lat="41.542870" lon="-5.794990">
        <ele>674.384</ele>
        <time>2022-02-23T20:57:57Z</time>
      </trkpt>
      <trkpt lat="41.542930" lon="-5.795300">
        <ele>676.141</ele>
        <time>2022-02-23T20:58:37Z</time>
      </trkpt>
      <trkpt lat="41.542980" lon="-5.795520">
        <ele>677.332</ele>
        <time>2022-02-23T20:59:17Z</time>
      </trkpt>
      <trkpt lat="41.542990" lon="-5.795560">
        <ele>677.596</ele>
        <time>2022-02-23T20:59:57Z</time>
      </trkpt>
      <trkpt lat="41.543060" lon="-5.795810">
        <ele>677.941</ele>
        <time>2022-02-23T21:00:37Z</time>
      </trkpt>
      <trkpt lat="41.543110" lon="-5.795970">
        <ele>679.376</ele>
        <time>2022-02-23T21:01:17Z</time>
      </trkpt>
      <trkpt lat="41.543140" lon="-5.796080">
        <ele>680.190</ele>
        <time>2022-02-23T21:01:57Z</time>
      </trkpt>
      <trkpt lat="41.543180" lon="-5.796240">
        <ele>680.819</ele>
        <time>2022-02-23T21:02:37Z</time>
      </trkpt>
      <trkpt lat="41.543220" lon="-5.796360">
        <ele>681.108</ele>
        <time>2022-02-23T21:03:17Z</time>
      </trkpt>
      <trkpt lat="41.543250" lon="-5.796430">
        <ele>681.296</ele>
        <time>2022-02-23T21:03:57Z</time>
      </trkpt>
      <trkpt lat="41.543320" lon="-5.796630">
        <ele>681.823</ele>
        <time>2022-02-23T21:04:37Z</time>
      </trkpt>
      <trkpt lat="41.543380" lon="-5.796760">
        <ele>683.137</ele>
        <time>2022-02-23T21:05:17Z</time>
      </trkpt>
      <trkpt lat="41.543450" lon="-5.796920">
        <ele>684.813</ele>
        <time>2022-02-23T21:05:57Z</time>
      </trkpt>
      <trkpt lat="41.543580" lon="-5.797160">
        <ele>687.330</ele>
        <time>2022-02-23T21:06:37Z</time>
      </trkpt>
      <trkpt lat="41.543670" lon="-5.797310">
        <ele>688.851</ele>
        <time>2022-02-23T21:07:17Z</time>
      </trkpt>
      <trkpt lat="41.543680" lon="-5.797320">
        <ele>688.965</ele>
        <time>2022-02-23T21:07:57Z</time>
      </trkpt>
      <trkpt lat="41.543760" lon="-5.797450">
        <ele>689.650</ele>
        <time>2022-02-23T21:08:37Z</time>
      </trkpt>
      <trkpt lat="41.543870" lon="-5.797630">
        <ele>689.682</ele>
        <time>2022-02-23T21:09:17Z</time>
      </trkpt>
      <trkpt lat="41.544050" lon="-5.797890">
        <ele>688.643</ele>
        <time>2022-02-23T21:09:57Z</time>
      </trkpt>
      <trkpt lat="41.544240" lon="-5.798150">
        <ele>690.517</ele>
        <time>2022-02-23T21:10:37Z</time>
      </trkpt>
      <trkpt lat="41.544400" lon="-5.798340">
        <ele>693.708</ele>
        <time>2022-02-23T21:11:17Z</time>
      </trkpt>
      <trkpt lat="41.544530" lon="-5.798470">
        <ele>695.447</ele>
        <time>2022-02-23T21:11:57Z</time>
      </trkpt>
      <trkpt lat="41.544560" lon="-5.798500">
        <ele>695.864</ele>
        <time>2022-02-23T21:12:37Z</time>
      </trkpt>
      <trkpt lat="41.544680" lon="-5.798620">
        <ele>696.998</ele>
        <time>2022-02-23T21:13:17Z</time>
      </trkpt>
      <trkpt lat="41.544710" lon="-5.798640">
        <ele>697.174</ele>
        <time>2022-02-23T21:13:57Z</time>
      </trkpt>
      <trkpt lat="41.544900" lon="-5.798810">
        <ele>698.141</ele>
        <time>2022-02-23T21:14:37Z</time>
      </trkpt>
      <trkpt lat="41.545160" lon="-5.799020">
        <ele>698.032</ele>
        <time>2022-02-23T21:15:17Z</time>
      </trkpt>
      <trkpt lat="41.545470" lon="-5.799280">
        <ele>698.896</ele>
        <time>2022-02-23T21:15:57Z</time>
      </trkpt>
      <trkpt lat="41.545620" lon="-5.799400">
        <ele>698.581</ele>
        <time>2022-02-23T21:16:37Z</time>
      </trkpt>
      <trkpt lat="41.546040" lon="-5.799740">
        <ele>694.892</ele>
        <time>2022-02-23T21:17:17Z</time>
      </trkpt>
      <trkpt lat="41.546370" lon="-5.800000">
        <ele>692.273</ele>
        <time>2022-02-23T21:17:57Z</time>
      </trkpt>
      <trkpt lat="41.546670" lon="-5.800260">
        <ele>691.920</ele>
        <time>2022-02-23T21:18:37Z</time>
      </trkpt>
      <trkpt lat="41.546830" lon="-5.800380">
        <ele>693.008</ele>
        <time>2022-02-23T21:19:17Z</time>
      </trkpt>
      <trkpt lat="41.546980" lon="-5.800510">
        <ele>694.468</ele>
        <time>2022-02-23T21:19:57Z</time>
      </trkpt>
      <trkpt lat="41.547130" lon="-5.800630">
        <ele>694.685</ele>
        <time>2022-02-23T21:20:37Z</time>
      </trkpt>
      <trkpt lat="41.547440" lon="-5.800890">
        <ele>696.629</ele>
        <time>2022-02-23T21:21:17Z</time>
      </trkpt>
      <trkpt lat="41.547650" lon="-5.801060">
        <ele>698.695</ele>
        <time>2022-02-23T21:21:57Z</time>
      </trkpt>
      <trkpt lat="41.547860" lon="-5.801230">
        <ele>700.052</ele>
        <time>2022-02-23T21:22:37Z</time>
      </trkpt>
      <trkpt lat="41.548230" lon="-5.801530">
        <ele>701.643</ele>
        <time>2022-02-23T21:23:17Z</time>
      </trkpt>
      <trkpt lat="41.548840" lon="-5.802030">
        <ele>703.257</ele>
        <time>2022-02-23T21:23:57Z</time>
      </trkpt>
      <trkpt lat="41.548890" lon="-5.802060">
        <ele>703.072</ele>
        <time>2022-02-23T21:24:37Z</time>
      </trkpt>
      <trkpt lat="41.549100" lon="-5.802220">
        <ele>703.059</ele>
        <time>2022-02-23T21:25:17Z</time>
      </trkpt>
      <trkpt lat="41.549110" lon="-5.802220">
        <ele>703.003</ele>
        <time>2022-02-23T21:25:57Z</time>
      </trkpt>
      <trkpt lat="41.549330" lon="-5.802370">
        <ele>703.623</ele>
        <time>2022-02-23T21:26:37Z</time>
      </trkpt>
      <trkpt lat="41.549380" lon="-5.802400">
        <ele>703.808</ele>
        <time>2022-02-23T21:27:17Z</time>
      </trkpt>
      <trkpt lat="41.549930" lon="-5.802710">
        <ele>705.744</ele>
        <time>2022-02-23T21:27:57Z</time>
      </trkpt>
      <trkpt lat="41.550140" lon="-5.802810">
        <ele>706.041</ele>
        <time>2022-02-23T21:28:37Z</time>
      </trkpt>
      <trkpt lat="41.550300" lon="-5.802870">
        <ele>705.955</ele>
        <time>2022-02-23T21:29:17Z</time>
      </trkpt>
      <trkpt lat="41.550420" lon="-5.802920">
        <ele>705.591</ele>
        <time>2022-02-23T21:29:57Z</time>
      </trkpt>
      <trkpt lat="41.550570" lon="-5.802970">
        <ele>705.148</ele>
        <time>2022-02-23T21:30:37Z</time>
      </trkpt>
      <trkpt lat="41.550770" lon="-5.803040">
        <ele>705.839</ele>
        <time>2022-02-23T21:31:17Z</time>
      </trkpt>
      <trkpt lat="41.550870" lon="-5.803060">
        <ele>706.143</ele>
        <time>2022-02-23T21:31:57Z</time>
      </trkpt>
      <trkpt lat="41.551410" lon="-5.803240">
        <ele>704.268</ele>
        <time>2022-02-23T21:32:37Z</time>
      </trkpt>
      <trkpt lat="41.551500" lon="-5.803270">
        <ele>703.369</ele>
        <time>2022-02-23T21:33:17Z</time>
      </trkpt>
      <trkpt lat="41.552020" lon="-5.803450">
        <ele>701.604</ele>
        <time>2022-02-23T21:33:57Z</time>
      </trkpt>
      <trkpt lat="41.552030" lon="-5.803450">
        <ele>701.724</ele>
        <time>2022-02-23T21:34:37Z</time>
      </trkpt>
      <trkpt lat="41.552450" lon="-5.803580">
        <ele>705.408</ele>
        <time>2022-02-23T21:35:17Z</time>
      </trkpt>
      <trkpt lat="41.552630" lon="-5.803640">
        <ele>706.525</ele>
        <time>2022-02-23T21:35:57Z</time>
      </trkpt>
      <trkpt lat="41.552790" lon="-5.803690">
        <ele>707.122</ele>
        <time>2022-02-23T21:36:37Z</time>
      </trkpt>
      <trkpt lat="41.553670" lon="-5.803980">
        <ele>706.856</ele>
        <time>2022-02-23T21:37:17Z</time>
      </trkpt>
      <trkpt lat="41.553680" lon="-5.803980">
        <ele>706.862</ele>
        <time>2022-02-23T21:37:57Z</time>
      </trkpt>
      <trkpt lat="41.553750" lon="-5.804000">
        <ele>706.159</ele>
        <time>2022-02-23T21:38:37Z</time>
      </trkpt>
      <trkpt lat="41.554350" lon="-5.804190">
        <ele>701.790</ele>
        <time>2022-02-23T21:39:17Z</time>
      </trkpt>
      <trkpt lat="41.554440" lon="-5.804220">
        <ele>701.274</ele>
        <time>2022-02-23T21:39:57Z</time>
      </trkpt>
      <trkpt lat="41.554480" lon="-5.804230">
        <ele>701.539</ele>
        <time>2022-02-23T21:40:37Z</time>
      </trkpt>
      <trkpt lat="41.554510" lon="-5.804240">
        <ele>701.828</ele>
        <time>2022-02-23T21:41:17Z</time>
      </trkpt>
      <trkpt lat="41.554950" lon="-5.804380">
        <ele>708.089</ele>
        <time>2022-02-23T21:41:57Z</time>
      </trkpt>
      <trkpt lat="41.555470" lon="-5.804550">
        <ele>710.617</ele>
        <time>2022-02-23T21:42:37Z</time>
      </trkpt>
      <trkpt lat="41.555500" lon="-5.804560">
        <ele>710.708</ele>
        <time>2022-02-23T21:43:17Z</time>
      </trkpt>
      <trkpt lat="41.556260" lon="-5.804800">
        <ele>712.411</ele>
        <time>2022-02-23T21:43:57Z</time>
      </trkpt>
      <trkpt lat="41.556960" lon="-5.805030">
        <ele>712.128</ele>
        <time>2022-02-23T21:44:37Z</time>
      </trkpt>
      <trkpt lat="41.557130" lon="-5.805060">
        <ele>712.232</ele>
        <time>2022-02-23T21:45:17Z</time>
      </trkpt>
      <trkpt lat="41.557720" lon="-5.805250">
        <ele>714.048</ele>
        <time>2022-02-23T21:45:57Z</time>
      </trkpt>
      <trkpt lat="41.557780" lon="-5.805270">
        <ele>714.065</ele>
        <time>2022-02-23T21:46:37Z</time>
      </trkpt>
      <trkpt lat="41.557840" lon="-5.805290">
        <ele>714.396</ele>
        <time>2022-02-23T21:47:17Z</time>
      </trkpt>
      <trkpt lat="41.558010" lon="-5.805340">
        <ele>714.980</ele>
        <time>2022-02-23T21:47:57Z</time>
      </trkpt>
      <trkpt lat="41.558080" lon="-5.805350">
        <ele>715.015</ele>
        <time>2022-02-23T21:48:37Z</time>
      </trkpt>
      <trkpt lat="41.558130" lon="-5.805360">
        <ele>715.059</ele>
        <time>2022-02-23T21:49:17Z</time>
      </trkpt>
      <trkpt lat="41.558250" lon="-5.805380">
        <ele>715.003</ele>
        <time>2022-02-23T21:49:57Z</time>
      </trkpt>
      <trkpt lat="41.558400" lon="-5.805400">
        <ele>715.023</ele>
        <time>2022-02-23T21:50:37Z</time>
      </trkpt>
      <trkpt lat="41.558540" lon="-5.805410">
        <ele>715.008</ele>
        <time>2022-02-23T21:51:17Z</time>
      </trkpt>
      <trkpt lat="41.558700" lon="-5.805420">
        <ele>714.584</ele>
        <time>2022-02-23T21:51:57Z</time>
      </trkpt>
      <trkpt lat="41.558770" lon="-5.805430">
        <ele>714.121</ele>
        <time>2022-02-23T21:52:37Z</time>
      </trkpt>
      <trkpt lat="41.558820" lon="-5.805430">
        <ele>713.855</ele>
        <time>2022-02-23T21:53:17Z</time>
      </trkpt>
      <trkpt lat="41.559000" lon="-5.805420">
        <ele>713.591</ele>
        <time>2022-02-23T21:53:57Z</time>
      </trkpt>
      <trkpt lat="41.559170" lon="-5.805410">
        <ele>713.568</ele>
        <time>2022-02-23T21:54:37Z</time>
      </trkpt>
      <trkpt lat="41.559310" lon="-5.805400">
        <ele>714.029</ele>
        <time>2022-02-23T21:55:17Z</time>
      </trkpt>
      <trkpt lat="41.559770" lon="-5.805350">
        <ele>714.183</ele>
        <time>2022-02-23T21:55:57Z</time>
      </trkpt>
      <trkpt lat="41.559900" lon="-5.805340">
        <ele>713.668</ele>
        <time>2022-02-23T21:56:37Z</time>
      </trkpt>
      <trkpt lat="41.559920" lon="-5.805340">
        <ele>713.554</ele>
        <time>2022-02-23T21:57:17Z</time>
      </trkpt>
      <trkpt lat="41.560080" lon="-5.805330">
        <ele>713.256</ele>
        <time>2022-02-23T21:57:57Z</time>
      </trkpt>
      <trkpt lat="41.560220" lon="-5.805330">
        <ele>713.211</ele>
        <time>2022-02-23T21:58:37Z</time>
      </trkpt>
      <trkpt lat="41.560320" lon="-5.805340">
        <ele>713.208</ele>
        <time>2022-02-23T21:59:17Z</time>
      </trkpt>
      <trkpt lat="41.560390" lon="-5.805340">
        <ele>713.164</ele>
        <time>2022-02-23T21:59:57Z</time>
      </trkpt>
      <trkpt lat="41.560450" lon="-5.805350">
        <ele>713.191</ele>
        <time>2022-02-23T22:00:37Z</time>
      </trkpt>
      <trkpt lat="41.560510" lon="-5.805360">
        <ele>713.025</ele>
        <time>2022-02-23T22:01:17Z</time>
      </trkpt>
      <trkpt lat="41.560580" lon="-5.805370">
        <ele>712.981</ele>
        <time>2022-02-23T22:01:57Z</time>
      </trkpt>
      <trkpt lat="41.560650" lon="-5.805390">
        <ele>712.728</ele>
        <time>2022-02-23T22:02:37Z</time>
      </trkpt>
      <trkpt lat="41.560750" lon="-5.805420">
        <ele>712.359</ele>
        <time>2022-02-23T22:03:17Z</time>
      </trkpt>
      <trkpt lat="41.560880" lon="-5.805460">
        <ele>711.673</ele>
        <time>2022-02-23T22:03:57Z</time>
      </trkpt>
      <trkpt lat="41.560940" lon="-5.805490">
        <ele>711.128</ele>
        <time>2022-02-23T22:04:37Z</time>
      </trkpt>
      <trkpt lat="41.561000" lon="-5.805520">
        <ele>710.735</ele>
        <time>2022-02-23T22:05:17Z</time>
      </trkpt>
      <trkpt lat="41.561100" lon="-5.805570">
        <ele>710.286</ele>
        <time>2022-02-23T22:05:57Z</time>
      </trkpt>
      <trkpt lat="41.561110" lon="-5.805570">
        <ele>710.114</ele>
        <time>2022-02-23T22:06:37Z</time>
      </trkpt>
      <trkpt lat="41.561190" lon="-5.805610">
        <ele>710.408</ele>
        <time>2022-02-23T22:07:17Z</time>
      </trkpt>
      <trkpt lat="41.561300" lon="-5.805680">
        <ele>710.982</ele>
        <time>2022-02-23T22:07:57Z</time>
      </trkpt>
      <trkpt lat="41.561400" lon="-5.805740">
        <ele>711.429</ele>
        <time>2022-02-23T22:08:37Z</time>
      </trkpt>
      <trkpt lat="41.561500" lon="-5.805810">
        <ele>712.723</ele>
        <time>2022-02-23T22:09:17Z</time>
      </trkpt>
      <trkpt lat="41.561570" lon="-5.805870">
        <ele>713.539</ele>
        <time>2022-02-23T22:09:57Z</time>
      </trkpt>
      <trkpt lat="41.561630" lon="-5.805930">
        <ele>714.126</ele>
        <time>2022-02-23T22:10:37Z</time>
      </trkpt>
      <trkpt lat="41.561730" lon="-5.806020">
        <ele>714.987</ele>
        <time>2022-02-23T22:11:17Z</time>
      </trkpt>
      <trkpt lat="41.561820" lon="-5.806120">
        <ele>715.651</ele>
        <time>2022-02-23T22:11:57Z</time>
      </trkpt>
      <trkpt lat="41.561890" lon="-5.806190">
        <ele>716.186</ele>
        <time>2022-02-23T22:12:37Z</time>
      </trkpt>
      <trkpt lat="41.561950" lon="-5.806270">
        <ele>716.631</ele>
        <time>2022-02-23T22:13:17Z</time>
      </trkpt>
      <trkpt lat="41.562020" lon="-5.806370">
        <ele>717.261</ele>
        <time>2022-02-23T22:13:57Z</time>
      </trkpt>
      <trkpt lat="41.562100" lon="-5.806480">
        <ele>717.907</ele>
        <time>2022-02-23T22:14:37Z</time>
      </trkpt>
      <trkpt lat="41.562130" lon="-5.806530">
        <ele>718.208</ele>
        <time>2022-02-23T22:15:17Z</time>
      </trkpt>
      <trkpt lat="41.562170" lon="-5.806590">
        <ele>718.522</ele>
        <time>2022-02-23T22:15:57Z</time>
      </trkpt>
      <trkpt lat="41.562240" lon="-5.806700">
        <ele>719.169</ele>
        <time>2022-02-23T22:16:37Z</time>
      </trkpt>
      <trkpt lat="41.562250" lon="-5.806710">
        <ele>719.183</ele>
        <time>2022-02-23T22:17:17Z</time>
      </trkpt>
      <trkpt lat="41.562310" lon="-5.806830">
        <ele>719.489</ele>
        <time>2022-02-23T22:17:57Z</time>
      </trkpt>
      <trkpt lat="41.562410" lon="-5.807000">
        <ele>719.586</ele>
        <time>2022-02-23T22:18:37Z</time>
      </trkpt>
      <trkpt lat="41.562470" lon="-5.807110">
        <ele>720.147</ele>
        <time>2022-02-23T22:19:17Z</time>
      </trkpt>
      <trkpt lat="41.562550" lon="-5.807280">
        <ele>720.911</ele>
        <time>2022-02-23T22:19:57Z</time>
      </trkpt>
      <trkpt lat="41.562630" lon="-5.807460">
        <ele>720.946</ele>
        <time>2022-02-23T22:20:37Z</time>
      </trkpt>
      <trkpt lat="41.562650" lon="-5.807500">
        <ele>721.059</ele>
        <time>2022-02-23T22:21:17Z</time>
      </trkpt>
      <trkpt lat="41.562720" lon="-5.807640">
        <ele>721.503</ele>
        <time>2022-02-23T22:21:57Z</time>
      </trkpt>
      <trkpt lat="41.562750" lon="-5.807710">
        <ele>721.823</ele>
        <time>2022-02-23T22:22:37Z</time>
      </trkpt>
      <trkpt lat="41.562860" lon="-5.807940">
        <ele>721.708</ele>
        <time>2022-02-23T22:23:17Z</time>
      </trkpt>
      <trkpt lat="41.562990" lon="-5.808210">
        <ele>721.814</ele>
        <time>2022-02-23T22:23:57Z</time>
      </trkpt>
      <trkpt lat="41.563130" lon="-5.808520">
        <ele>721.651</ele>
        <time>2022-02-23T22:24:37Z</time>
      </trkpt>
      <trkpt lat="41.563230" lon="-5.808730">
        <ele>721.895</ele>
        <time>2022-02-23T22:25:17Z</time>
      </trkpt>
      <trkpt lat="41.563230" lon="-5.808740">
        <ele>721.851</ele>
        <time>2022-02-23T22:25:57Z</time>
      </trkpt>
      <trkpt lat="41.563320" lon="-5.808930">
        <ele>722.298</ele>
        <time>2022-02-23T22:26:37Z</time>
      </trkpt>
      <trkpt lat="41.563400" lon="-5.809080">
        <ele>722.089</ele>
        <time>2022-02-23T22:27:17Z</time>
      </trkpt>
      <trkpt lat="41.563420" lon="-5.809130">
        <ele>721.943</ele>
        <time>2022-02-23T22:27:57Z</time>
      </trkpt>
      <trkpt lat="41.563550" lon="-5.809410">
        <ele>720.548</ele>
        <time>2022-02-23T22:28:37Z</time>
      </trkpt>
      <trkpt lat="41.563760" lon="-5.809860">
        <ele>717.738</ele>
        <time>2022-02-23T22:29:17Z</time>
      </trkpt>
      <trkpt lat="41.563900" lon="-5.810150">
        <ele>717.070</ele>
        <time>2022-02-23T22:29:57Z</time>
      </trkpt>
      <trkpt lat="41.563930" lon="-5.810210">
        <ele>717.017</ele>
        <time>2022-02-23T22:30:37Z</time>
      </trkpt>
      <trkpt lat="41.564200" lon="-5.810750">
        <ele>717.708</ele>
        <time>2022-02-23T22:31:17Z</time>
      </trkpt>
      <trkpt lat="41.564280" lon="-5.810930">
        <ele>718.342</ele>
        <time>2022-02-23T22:31:57Z</time>
      </trkpt>
      <trkpt lat="41.564470" lon="-5.811340">
        <ele>719.769</ele>
        <time>2022-02-23T22:32:37Z</time>
      </trkpt>
      <trkpt lat="41.564490" lon="-5.811370">
        <ele>719.863</ele>
        <time>2022-02-23T22:33:17Z</time>
      </trkpt>
      <trkpt lat="41.564520" lon="-5.811430">
        <ele>719.889</ele>
        <time>2022-02-23T22:33:57Z</time>
      </trkpt>
      <trkpt lat="41.564570" lon="-5.811550">
        <ele>719.916</ele>
        <time>2022-02-23T22:34:37Z</time>
      </trkpt>
      <trkpt lat="41.564670" lon="-5.811750">
        <ele>719.327</ele>
        <time>2022-02-23T22:35:17Z</time>
      </trkpt>
      <trkpt lat="41.564690" lon="-5.811790">
        <ele>719.221</ele>
        <time>2022-02-23T22:35:57Z</time>
      </trkpt>
      <trkpt lat="41.564750" lon="-5.811930">
        <ele>718.996</ele>
        <time>2022-02-23T22:36:37Z</time>
      </trkpt>
      <trkpt lat="41.564810" lon="-5.812030">
        <ele>718.744</ele>
        <time>2022-02-23T22:37:17Z</time>
      </trkpt>
      <trkpt lat="41.564810" lon="-5.812040">
        <ele>718.705</ele>
        <time>2022-02-23T22:37:57Z</time>
      </trkpt>
      <trkpt lat="41.564870" lon="-5.812140">
        <ele>718.515</ele>
        <time>2022-02-23T22:38:37Z</time>
      </trkpt>
      <trkpt lat="41.564940" lon="-5.812250">
        <ele>718.208</ele>
        <time>2022-02-23T22:39:17Z</time>
      </trkpt>
      <trkpt lat="41.565010" lon="-5.812340">
        <ele>718.173</ele>
        <time>2022-02-23T22:39:57Z</time>
      </trkpt>
      <trkpt lat="41.565060" lon="-5.812390">
        <ele>718.690</ele>
        <time>2022-02-23T22:40:37Z</time>
      </trkpt>
      <trkpt lat="41.565060" lon="-5.812400">
        <ele>718.684</ele>
        <time>2022-02-23T22:41:17Z</time>
      </trkpt>
      <trkpt lat="41.565120" lon="-5.812460">
        <ele>719.230</ele>
        <time>2022-02-23T22:41:57Z</time>
      </trkpt>
      <trkpt lat="41.565130" lon="-5.812480">
        <ele>719.447</ele>
        <time>2022-02-23T22:42:37Z</time>
      </trkpt>
      <trkpt lat="41.565180" lon="-5.812530">
        <ele>720.038</ele>
        <time>2022-02-23T22:43:17Z</time>
      </trkpt>
      <trkpt lat="41.565190" lon="-5.812550">
        <ele>720.112</ele>
        <time>2022-02-23T22:43:57Z</time>
      </trkpt>
      <trkpt lat="41.565260" lon="-5.812620">
        <ele>720.897</ele>
        <time>2022-02-23T22:44:37Z</time>
      </trkpt>
      <trkpt lat="41.565270" lon="-5.812630">
        <ele>720.943</ele>
        <time>2022-02-23T22:45:17Z</time>
      </trkpt>
      <trkpt lat="41.565370" lon="-5.812740">
        <ele>721.764</ele>
        <time>2022-02-23T22:45:57Z</time>
      </trkpt>
      <trkpt lat="41.565470" lon="-5.812850">
        <ele>722.610</ele>
        <time>2022-02-23T22:46:37Z</time>
      </trkpt>
      <trkpt lat="41.565540" lon="-5.812930">
        <ele>723.408</ele>
        <time>2022-02-23T22:47:17Z</time>
      </trkpt>
      <trkpt lat="41.565550" lon="-5.812940">
        <ele>723.593</ele>
        <time>2022-02-23T22:47:57Z</time>
      </trkpt>
      <trkpt lat="41.565610" lon="-5.813000">
        <ele>724.080</ele>
        <time>2022-02-23T22:48:37Z</time>
      </trkpt>
      <trkpt lat="41.565690" lon="-5.813090">
        <ele>724.554</ele>
        <time>2022-02-23T22:49:17Z</time>
      </trkpt>
      <trkpt lat="41.565980" lon="-5.813400">
        <ele>726.720</ele>
        <time>2022-02-23T22:49:57Z</time>
      </trkpt>
      <trkpt lat="41.566070" lon="-5.813510">
        <ele>727.467</ele>
        <time>2022-02-23T22:50:37Z</time>
      </trkpt>
      <trkpt lat="41.566100" lon="-5.813540">
        <ele>727.748</ele>
        <time>2022-02-23T22:51:17Z</time>
      </trkpt>
      <trkpt lat="41.566150" lon="-5.813590">
        <ele>727.992</ele>
        <time>2022-02-23T22:51:57Z</time>
      </trkpt>
      <trkpt lat="41.566160" lon="-5.813620">
        <ele>728.087</ele>
        <time>2022-02-23T22:52:37Z</time>
      </trkpt>
      <trkpt lat="41.566180" lon="-5.813640">
        <ele>727.926</ele>
        <time>2022-02-23T22:53:17Z</time>
      </trkpt>
      <trkpt lat="41.566210" lon="-5.813680">
        <ele>727.847</ele>
        <time>2022-02-23T22:53:57Z</time>
      </trkpt>
      <trkpt lat="41.566290" lon="-5.813800">
        <ele>727.811</ele>
        <time>2022-02-23T22:54:37Z</time>
      </trkpt>
      <trkpt lat="41.566410" lon="-5.813980">
        <ele>727.908</ele>
        <time>2022-02-23T22:55:17Z</time>
      </trkpt>
      <trkpt lat="41.566590" lon="-5.814260">
        <ele>727.281</ele>
        <time>2022-02-23T22:55:57Z</time>
      </trkpt>
      <trkpt lat="41.566760" lon="-5.814520">
        <ele>727.678</ele>
        <time>2022-02-23T22:56:37Z</time>
      </trkpt>
      <trkpt lat="41.567030" lon="-5.814950">
        <ele>729.432</ele>
        <time>2022-02-23T22:57:17Z</time>
      </trkpt>
      <trkpt lat="41.567150" lon="-5.815130">
        <ele>728.918</ele>
        <time>2022-02-23T22:57:57Z</time>
      </trkpt>
      <trkpt lat="41.567290" lon="-5.815340">
        <ele>727.925</ele>
        <time>2022-02-23T22:58:37Z</time>
      </trkpt>
      <trkpt lat="41.567320" lon="-5.815390">
        <ele>727.996</ele>
        <time>2022-02-23T22:59:17Z</time>
      </trkpt>
      <trkpt lat="41.567340" lon="-5.815430">
        <ele>727.820</ele>
        <time>2022-02-23T22:59:57Z</time>
      </trkpt>
      <trkpt lat="41.567360" lon="-5.815470">
        <ele>727.725</ele>
        <time>2022-02-23T23:00:37Z</time>
      </trkpt>
      <trkpt lat="41.567380" lon="-5.815510">
        <ele>727.582</ele>
        <time>2022-02-23T23:01:17Z</time>
      </trkpt>
      <trkpt lat="41.567390" lon="-5.815540">
        <ele>727.443</ele>
        <time>2022-02-23T23:01:57Z</time>
      </trkpt>
      <trkpt lat="41.567400" lon="-5.815590">
        <ele>727.417</ele>
        <time>2022-02-23T23:02:37Z</time>
      </trkpt>
      <trkpt lat="41.567410" lon="-5.815640">
        <ele>727.508</ele>
        <time>2022-02-23T23:03:17Z</time>
      </trkpt>
      <trkpt lat="41.567410" lon="-5.815650">
        <ele>727.617</ele>
        <time>2022-02-23T23:03:57Z</time>
      </trkpt>
      <trkpt lat="41.567410" lon="-5.815690">
        <ele>727.724</ele>
        <time>2022-02-23T23:04:37Z</time>
      </trkpt>
      <trkpt lat="41.567400" lon="-5.815730">
        <ele>727.858</ele>
        <time>2022-02-23T23:05:17Z</time>
      </trkpt>
      <trkpt lat="41.567390" lon="-5.815800">
        <ele>727.994</ele>
        <time>2022-02-23T23:05:57Z</time>
      </trkpt>
      <trkpt lat="41.567370" lon="-5.815860">
        <ele>728.091</ele>
        <time>2022-02-23T23:06:37Z</time>
      </trkpt>
      <trkpt lat="41.567360" lon="-5.815880">
        <ele>728.072</ele>
        <time>2022-02-23T23:07:17Z</time>
      </trkpt>
      <trkpt lat="41.567260" lon="-5.816060">
        <ele>728.036</ele>
        <time>2022-02-23T23:07:57Z</time>
      </trkpt>
      <trkpt lat="41.567250" lon="-5.816080">
        <ele>728.011</ele>
        <time>2022-02-23T23:08:37Z</time>
      </trkpt>
      <trkpt lat="41.567200" lon="-5.816180">
        <ele>728.196</ele>
        <time>2022-02-23T23:09:17Z</time>
      </trkpt>
      <trkpt lat="41.567150" lon="-5.816260">
        <ele>728.331</ele>
        <time>2022-02-23T23:09:57Z</time>
      </trkpt>
      <trkpt lat="41.567130" lon="-5.816310">
        <ele>728.324</ele>
        <time>2022-02-23T23:10:37Z</time>
      </trkpt>
      <trkpt lat="41.567120" lon="-5.816360">
        <ele>728.408</ele>
        <time>2022-02-23T23:11:17Z</time>
      </trkpt>
      <trkpt lat="41.567100" lon="-5.816440">
        <ele>728.428</ele>
        <time>2022-02-23T23:11:57Z</time>
      </trkpt>
      <trkpt lat="41.567090" lon="-5.816500">
        <ele>728.585</ele>
        <time>2022-02-23T23:12:37Z</time>
      </trkpt>
      <trkpt lat="41.567090" lon="-5.816560">
        <ele>728.599</ele>
        <time>2022-02-23T23:13:17Z</time>
      </trkpt>
      <trkpt lat="41.567100" lon="-5.816620">
        <ele>728.475</ele>
        <time>2022-02-23T23:13:57Z</time>
      </trkpt>
      <trkpt lat="41.567110" lon="-5.816660">
        <ele>728.472</ele>
        <time>2022-02-23T23:14:37Z</time>
      </trkpt>
      <trkpt lat="41.567130" lon="-5.816710">
        <ele>728.523</ele>
        <time>2022-02-23T23:15:17Z</time>
      </trkpt>
      <trkpt lat="41.567140" lon="-5.816740">
        <ele>728.637</ele>
        <time>2022-02-23T23:15:57Z</time>
      </trkpt>
      <trkpt lat="41.567160" lon="-5.816780">
        <ele>728.732</ele>
        <time>2022-02-23T23:16:37Z</time>
      </trkpt>
      <trkpt lat="41.567180" lon="-5.816810">
        <ele>728.724</ele>
        <time>2022-02-23T23:17:17Z</time>
      </trkpt>
      <trkpt lat="41.567200" lon="-5.816830">
        <ele>728.704</ele>
        <time>2022-02-23T23:17:57Z</time>
      </trkpt>
      <trkpt lat="41.567230" lon="-5.816870">
        <ele>728.714</ele>
        <time>2022-02-23T23:18:37Z</time>
      </trkpt>
      <trkpt lat="41.567280" lon="-5.816920">
        <ele>728.508</ele>
        <time>2022-02-23T23:19:17Z</time>
      </trkpt>
      <trkpt lat="41.567480" lon="-5.817100">
        <ele>727.731</ele>
        <time>2022-02-23T23:19:57Z</time>
      </trkpt>
      <trkpt lat="41.567640" lon="-5.817260">
        <ele>727.188</ele>
        <time>2022-02-23T23:20:37Z</time>
      </trkpt>
      <trkpt lat="41.567940" lon="-5.817530">
        <ele>726.432</ele>
        <time>2022-02-23T23:21:17Z</time>
      </trkpt>
      <trkpt lat="41.568070" lon="-5.817650">
        <ele>725.968</ele>
        <time>2022-02-23T23:21:57Z</time>
      </trkpt>
      <trkpt lat="41.568350" lon="-5.817910">
        <ele>725.595</ele>
        <time>2022-02-23T23:22:37Z</time>
      </trkpt>
      <trkpt lat="41.568390" lon="-5.817940">
        <ele>725.796</ele>
        <time>2022-02-23T23:23:17Z</time>
      </trkpt>
      <trkpt lat="41.568540" lon="-5.818080">
        <ele>726.090</ele>
        <time>2022-02-23T23:23:57Z</time>
      </trkpt>
      <trkpt lat="41.568560" lon="-5.818100">
        <ele>726.035</ele>
        <time>2022-02-23T23:24:37Z</time>
      </trkpt>
      <trkpt lat="41.568790" lon="-5.818310">
        <ele>726.769</ele>
        <time>2022-02-23T23:25:17Z</time>
      </trkpt>
      <trkpt lat="41.568830" lon="-5.818350">
        <ele>726.704</ele>
        <time>2022-02-23T23:25:57Z</time>
      </trkpt>
      <trkpt lat="41.568970" lon="-5.818480">
        <ele>726.824</ele>
        <time>2022-02-23T23:26:37Z</time>
      </trkpt>
      <trkpt lat="41.569130" lon="-5.818620">
        <ele>726.808</ele>
        <time>2022-02-23T23:27:17Z</time>
      </trkpt>
      <trkpt lat="41.569260" lon="-5.818740">
        <ele>726.245</ele>
        <time>2022-02-23T23:27:57Z</time>
      </trkpt>
      <trkpt lat="41.569280" lon="-5.818760">
        <ele>726.112</ele>
        <time>2022-02-23T23:28:37Z</time>
      </trkpt>
      <trkpt lat="41.569510" lon="-5.818980">
        <ele>725.646</ele>
        <time>2022-02-23T23:29:17Z</time>
      </trkpt>
      <trkpt lat="41.569720" lon="-5.819170">
        <ele>727.082</ele>
        <time>2022-02-23T23:29:57Z</time>
      </trkpt>
      <trkpt lat="41.569800" lon="-5.819240">
        <ele>727.529</ele>
        <time>2022-02-23T23:30:37Z</time>
      </trkpt>
      <trkpt lat="41.570030" lon="-5.819450">
        <ele>728.960</ele>
        <time>2022-02-23T23:31:17Z</time>
      </trkpt>
      <trkpt lat="41.570170" lon="-5.819580">
        <ele>729.474</ele>
        <time>2022-02-23T23:31:57Z</time>
      </trkpt>
      <trkpt lat="41.570220" lon="-5.819630">
        <ele>729.519</ele>
        <time>2022-02-23T23:32:37Z</time>
      </trkpt>
      <trkpt lat="41.570310" lon="-5.819710">
        <ele>729.946</ele>
        <time>2022-02-23T23:33:17Z</time>
      </trkpt>
      <trkpt lat="41.570410" lon="-5.819800">
        <ele>730.688</ele>
        <time>2022-02-23T23:33:57Z</time>
      </trkpt>
      <trkpt lat="41.570550" lon="-5.819950">
        <ele>731.616</ele>
        <time>2022-02-23T23:34:37Z</time>
      </trkpt>
      <trkpt lat="41.570600" lon="-5.820000">
        <ele>731.808</ele>
        <time>2022-02-23T23:35:17Z</time>
      </trkpt>
      <trkpt lat="41.570680" lon="-5.820070">
        <ele>731.823</ele>
        <time>2022-02-23T23:35:57Z</time>
      </trkpt>
      <trkpt lat="41.570750" lon="-5.820140">
        <ele>731.810</ele>
        <time>2022-02-23T23:36:37Z</time>
      </trkpt>
      <trkpt lat="41.570780" lon="-5.820170">
        <ele>731.824</ele>
        <time>2022-02-23T23:37:17Z</time>
      </trkpt>
      <trkpt lat="41.570940" lon="-5.820370">
        <ele>731.830</ele>
        <time>2022-02-23T23:37:57Z</time>
      </trkpt>
      <trkpt lat="41.571150" lon="-5.820630">
        <ele>730.747</ele>
        <time>2022-02-23T23:38:37Z</time>
      </trkpt>
      <trkpt lat="41.571180" lon="-5.820670">
        <ele>730.598</ele>
        <time>2022-02-23T23:39:17Z</time>
      </trkpt>
      <trkpt lat="41.571280" lon="-5.820790">
        <ele>729.822</ele>
        <time>2022-02-23T23:39:57Z</time>
      </trkpt>
      <trkpt lat="41.571330" lon="-5.820850">
        <ele>729.577</ele>
        <time>2022-02-23T23:40:37Z</time>
      </trkpt>
      <trkpt lat="41.571440" lon="-5.820970">
        <ele>730.188</ele>
        <time>2022-02-23T23:41:17Z</time>
      </trkpt>
      <trkpt lat="41.571550" lon="-5.821110">
        <ele>731.024</ele>
        <time>2022-02-23T23:41:57Z</time>
      </trkpt>
      <trkpt lat="41.571630" lon="-5.821200">
        <ele>731.626</ele>
        <time>2022-02-23T23:42:37Z</time>
      </trkpt>
      <trkpt lat="41.571780" lon="-5.821390">
        <ele>733.008</ele>
        <time>2022-02-23T23:43:17Z</time>
      </trkpt>
      <trkpt lat="41.571950" lon="-5.821600">
        <ele>733.827</ele>
        <time>2022-02-23T23:43:57Z</time>
      </trkpt>
      <trkpt lat="41.571980" lon="-5.821640">
        <ele>733.984</ele>
        <time>2022-02-23T23:44:37Z</time>
      </trkpt>
      <trkpt lat="41.572080" lon="-5.821760">
        <ele>734.218</ele>
        <time>2022-02-23T23:45:17Z</time>
      </trkpt>
      <trkpt lat="41.572120" lon="-5.821820">
        <ele>734.374</ele>
        <time>2022-02-23T23:45:57Z</time>
      </trkpt>
      <trkpt lat="41.572240" lon="-5.821990">
        <ele>734.971</ele>
        <time>2022-02-23T23:46:37Z</time>
      </trkpt>
      <trkpt lat="41.572390" lon="-5.822230">
        <ele>734.412</ele>
        <time>2022-02-23T23:47:17Z</time>
      </trkpt>
      <trkpt lat="41.572440" lon="-5.822300">
        <ele>734.286</ele>
        <time>2022-02-23T23:47:57Z</time>
      </trkpt>
      <trkpt lat="41.572460" lon="-5.822330">
        <ele>734.121</ele>
        <time>2022-02-23T23:48:37Z</time>
      </trkpt>
      <trkpt lat="41.572560" lon="-5.822480">
        <ele>733.818</ele>
        <time>2022-02-23T23:49:17Z</time>
      </trkpt>
      <trkpt lat="41.572630" lon="-5.822580">
        <ele>733.798</ele>
        <time>2022-02-23T23:49:57Z</time>
      </trkpt>
      <trkpt lat="41.572680" lon="-5.822650">
        <ele>733.717</ele>
        <time>2022-02-23T23:50:37Z</time>
      </trkpt>
      <trkpt lat="41.572730" lon="-5.822710">
        <ele>733.808</ele>
        <time>2022-02-23T23:51:17Z</time>
      </trkpt>
      <trkpt lat="41.572890" lon="-5.822910">
        <ele>735.290</ele>
        <time>2022-02-23T23:51:57Z</time>
      </trkpt>
      <trkpt lat="41.573080" lon="-5.823140">
        <ele>736.127</ele>
        <time>2022-02-23T23:52:37Z</time>
      </trkpt>
      <trkpt lat="41.573190" lon="-5.823290">
        <ele>735.561</ele>
        <time>2022-02-23T23:53:17Z</time>
      </trkpt>
      <trkpt lat="41.573410" lon="-5.823550">
        <ele>733.297</ele>
        <time>2022-02-23T23:53:57Z</time>
      </trkpt>
      <trkpt lat="41.573580" lon="-5.823760">
        <ele>731.854</ele>
        <time>2022-02-23T23:54:37Z</time>
      </trkpt>
      <trkpt lat="41.573600" lon="-5.823800">
        <ele>731.855</ele>
        <time>2022-02-23T23:55:17Z</time>
      </trkpt>
      <trkpt lat="41.573730" lon="-5.823970">
        <ele>731.069</ele>
        <time>2022-02-23T23:55:57Z</time>
      </trkpt>
      <trkpt lat="41.573760" lon="-5.824020">
        <ele>730.784</ele>
        <time>2022-02-23T23:56:37Z</time>
      </trkpt>
      <trkpt lat="41.573860" lon="-5.824200">
        <ele>730.214</ele>
        <time>2022-02-23T23:57:17Z</time>
      </trkpt>
      <trkpt lat="41.573940" lon="-5.824360">
        <ele>730.654</ele>
        <time>2022-02-23T23:57:57Z</time>
      </trkpt>
      <trkpt lat="41.574210" lon="-5.824990">
        <ele>732.009</ele>
        <time>2022-02-23T23:58:37Z</time>
      </trkpt>
      <trkpt lat="41.574430" lon="-5.825500">
        <ele>732.108</ele>
        <time>2022-02-23T23:59:17Z</time>
      </trkpt>
      <trkpt lat="41.574480" lon="-5.825610">
        <ele>731.750</ele>
        <time>2022-02-23T23:59:57Z</time>
      </trkpt>
      <trkpt lat="41.574660" lon="-5.826030">
        <ele>730.827</ele>
        <time>2022-02-24T00:00:37Z</time>
      </trkpt>
      <trkpt lat="41.574930" lon="-5.826650">
        <ele>730.351</ele>
        <time>2022-02-24T00:01:17Z</time>
      </trkpt>
      <trkpt lat="41.574970" lon="-5.826750">
        <ele>730.417</ele>
        <time>2022-02-24T00:01:57Z</time>
      </trkpt>
      <trkpt lat="41.575020" lon="-5.826860">
        <ele>730.614</ele>
        <time>2022-02-24T00:02:37Z</time>
      </trkpt>
      <trkpt lat="41.575290" lon="-5.827480">
        <ele>733.035</ele>
        <time>2022-02-24T00:03:17Z</time>
      </trkpt>
      <trkpt lat="41.575320" lon="-5.827560">
        <ele>733.299</ele>
        <time>2022-02-24T00:03:57Z</time>
      </trkpt>
      <trkpt lat="41.575480" lon="-5.827890">
        <ele>734.234</ele>
        <time>2022-02-24T00:04:37Z</time>
      </trkpt>
      <trkpt lat="41.575480" lon="-5.827900">
        <ele>734.289</ele>
        <time>2022-02-24T00:05:17Z</time>
      </trkpt>
      <trkpt lat="41.575780" lon="-5.828470">
        <ele>735.706</ele>
        <time>2022-02-24T00:05:57Z</time>
      </trkpt>
      <trkpt lat="41.575980" lon="-5.828860">
        <ele>736.526</ele>
        <time>2022-02-24T00:06:37Z</time>
      </trkpt>
      <trkpt lat="41.576200" lon="-5.829270">
        <ele>738.108</ele>
        <time>2022-02-24T00:07:17Z</time>
      </trkpt>
      <trkpt lat="41.576280" lon="-5.829420">
        <ele>738.327</ele>
        <time>2022-02-24T00:07:57Z</time>
      </trkpt>
      <trkpt lat="41.576300" lon="-5.829470">
        <ele>738.594</ele>
        <time>2022-02-24T00:08:37Z</time>
      </trkpt>
      <trkpt lat="41.576470" lon="-5.829790">
        <ele>740.288</ele>
        <time>2022-02-24T00:09:17Z</time>
      </trkpt>
      <trkpt lat="41.576530" lon="-5.829890">
        <ele>740.664</ele>
        <time>2022-02-24T00:09:57Z</time>
      </trkpt>
      <trkpt lat="41.576640" lon="-5.830080">
        <ele>741.071</ele>
        <time>2022-02-24T00:10:37Z</time>
      </trkpt>
      <trkpt lat="41.576690" lon="-5.830180">
        <ele>741.132</ele>
        <time>2022-02-24T00:11:17Z</time>
      </trkpt>
      <trkpt lat="41.576750" lon="-5.830270">
        <ele>741.316</ele>
        <time>2022-02-24T00:11:57Z</time>
      </trkpt>
      <trkpt lat="41.576990" lon="-5.830660">
        <ele>740.241</ele>
        <time>2022-02-24T00:12:37Z</time>
      </trkpt>
      <trkpt lat="41.577210" lon="-5.831010">
        <ele>741.624</ele>
        <time>2022-02-24T00:13:17Z</time>
      </trkpt>
      <trkpt lat="41.577300" lon="-5.831150">
        <ele>742.204</ele>
        <time>2022-02-24T00:13:57Z</time>
      </trkpt>
      <trkpt lat="41.577570" lon="-5.831550">
        <ele>742.514</ele>
        <time>2022-02-24T00:14:37Z</time>
      </trkpt>
      <trkpt lat="41.577800" lon="-5.831840">
        <ele>743.508</ele>
        <time>2022-02-24T00:15:17Z</time>
      </trkpt>
      <trkpt lat="41.577860" lon="-5.831910">
        <ele>743.441</ele>
        <time>2022-02-24T00:15:57Z</time>
      </trkpt>
      <trkpt lat="41.578050" lon="-5.832160">
        <ele>743.258</ele>
        <time>2022-02-24T00:16:37Z</time>
      </trkpt>
      <trkpt lat="41.578210" lon="-5.832370">
        <ele>742.422</ele>
        <time>2022-02-24T00:17:17Z</time>
      </trkpt>
      <trkpt lat="41.578240" lon="-5.832420">
        <ele>742.388</ele>
        <time>2022-02-24T00:17:57Z</time>
      </trkpt>
      <trkpt lat="41.578320" lon="-5.832540">
        <ele>741.965</ele>
        <time>2022-02-24T00:18:37Z</time>
      </trkpt>
      <trkpt lat="41.578350" lon="-5.832600">
        <ele>741.536</ele>
        <time>2022-02-24T00:19:17Z</time>
      </trkpt>
      <trkpt lat="41.578390" lon="-5.832660">
        <ele>741.030</ele>
        <time>2022-02-24T00:19:57Z</time>
      </trkpt>
      <trkpt lat="41.578460" lon="-5.832790">
        <ele>740.665</ele>
        <time>2022-02-24T00:20:37Z</time>
      </trkpt>
      <trkpt lat="41.578490" lon="-5.832850">
        <ele>740.686</ele>
        <time>2022-02-24T00:21:17Z</time>
      </trkpt>
      <trkpt lat="41.578580" lon="-5.833030">
        <ele>740.960</ele>
        <time>2022-02-24T00:21:57Z</time>
      </trkpt>
      <trkpt lat="41.578660" lon="-5.833260">
        <ele>740.826</ele>
        <time>2022-02-24T00:22:37Z</time>
      </trkpt>
      <trkpt lat="41.578730" lon="-5.833460">
        <ele>740.108</ele>
        <time>2022-02-24T00:23:17Z</time>
      </trkpt>
      <trkpt lat="41.578830" lon="-5.833880">
        <ele>737.327</ele>
        <time>2022-02-24T00:23:57Z</time>
      </trkpt>
      <trkpt lat="41.578880" lon="-5.834080">
        <ele>736.354</ele>
        <time>2022-02-24T00:24:37Z</time>
      </trkpt>
      <trkpt lat="41.578890" lon="-5.834110">
        <ele>736.278</ele>
        <time>2022-02-24T00:25:17Z</time>
      </trkpt>
      <trkpt lat="41.578930" lon="-5.834240">
        <ele>736.154</ele>
        <time>2022-02-24T00:25:57Z</time>
      </trkpt>
      <trkpt lat="41.578960" lon="-5.834330">
        <ele>736.331</ele>
        <time>2022-02-24T00:26:37Z</time>
      </trkpt>
      <trkpt lat="41.578990" lon="-5.834420">
        <ele>736.472</ele>
        <time>2022-02-24T00:27:17Z</time>
      </trkpt>
      <trkpt lat="41.579040" lon="-5.834550">
        <ele>736.296</ele>
        <time>2022-02-24T00:27:57Z</time>
      </trkpt>
      <trkpt lat="41.579100" lon="-5.834700">
        <ele>735.871</ele>
        <time>2022-02-24T00:28:37Z</time>
      </trkpt>
      <trkpt lat="41.579190" lon="-5.834860">
        <ele>735.041</ele>
        <time>2022-02-24T00:29:17Z</time>
      </trkpt>
      <trkpt lat="41.579330" lon="-5.835100">
        <ele>733.481</ele>
        <time>2022-02-24T00:29:57Z</time>
      </trkpt>
      <trkpt lat="41.579350" lon="-5.835130">
        <ele>733.209</ele>
        <time>2022-02-24T00:30:37Z</time>
      </trkpt>
      <trkpt lat="41.579430" lon="-5.835240">
        <ele>732.308</ele>
        <time>2022-02-24T00:31:17Z</time>
      </trkpt>
      <trkpt lat="41.579490" lon="-5.835320">
        <ele>731.653</ele>
        <time>2022-02-24T00:31:57Z</time>
      </trkpt>
      <trkpt lat="41.579760" lon="-5.835610">
        <ele>728.910</ele>
        <time>2022-02-24T00:32:37Z</time>
      </trkpt>
      <trkpt lat="41.579880" lon="-5.835760">
        <ele>728.434</ele>
        <time>2022-02-24T00:33:17Z</time>
      </trkpt>
      <trkpt lat="41.579940" lon="-5.835830">
        <ele>728.220</ele>
        <time>2022-02-24T00:33:57Z</time>
      </trkpt>
      <trkpt lat="41.579980" lon="-5.835880">
        <ele>728.137</ele>
        <time>2022-02-24T00:34:37Z</time>
      </trkpt>
      <trkpt lat="41.580020" lon="-5.835950">
        <ele>728.128</ele>
        <time>2022-02-24T00:35:17Z</time>
      </trkpt>
      <trkpt lat="41.580070" lon="-5.836040">
        <ele>728.392</ele>
        <time>2022-02-24T00:35:57Z</time>
      </trkpt>
      <trkpt lat="41.580130" lon="-5.836130">
        <ele>728.637</ele>
        <time>2022-02-24T00:36:37Z</time>
      </trkpt>
      <trkpt lat="41.580290" lon="-5.836430">
        <ele>730.377</ele>
        <time>2022-02-24T00:37:17Z</time>
      </trkpt>
      <trkpt lat="41.580510" lon="-5.836830">
        <ele>731.661</ele>
        <time>2022-02-24T00:37:57Z</time>
      </trkpt>
      <trkpt lat="41.580690" lon="-5.837190">
        <ele>730.127</ele>
        <time>2022-02-24T00:38:37Z</time>
      </trkpt>
      <trkpt lat="41.580870" lon="-5.837580">
        <ele>729.108</ele>
        <time>2022-02-24T00:39:17Z</time>
      </trkpt>
      <trkpt lat="41.581060" lon="-5.837980">
        <ele>728.436</ele>
        <time>2022-02-24T00:39:57Z</time>
      </trkpt>
      <trkpt lat="41.581070" lon="-5.837990">
        <ele>728.363</ele>
        <time>2022-02-24T00:40:37Z</time>
      </trkpt>
      <trkpt lat="41.581330" lon="-5.838540">
        <ele>728.747</ele>
        <time>2022-02-24T00:41:17Z</time>
      </trkpt>
      <trkpt lat="41.581340" lon="-5.838580">
        <ele>728.963</ele>
        <time>2022-02-24T00:41:57Z</time>
      </trkpt>
      <trkpt lat="41.581520" lon="-5.838980">
        <ele>727.830</ele>
        <time>2022-02-24T00:42:37Z</time>
      </trkpt>
      <trkpt lat="41.581630" lon="-5.839210">
        <ele>727.131</ele>
        <time>2022-02-24T00:43:17Z</time>
      </trkpt>
      <trkpt lat="41.581820" lon="-5.839620">
        <ele>727.915</ele>
        <time>2022-02-24T00:43:57Z</time>
      </trkpt>
      <trkpt lat="41.582000" lon="-5.840000">
        <ele>727.890</ele>
        <time>2022-02-24T00:44:37Z</time>
      </trkpt>
      <trkpt lat="41.582050" lon="-5.840130">
        <ele>727.234</ele>
        <time>2022-02-24T00:45:17Z</time>
      </trkpt>
      <trkpt lat="41.582130" lon="-5.840340">
        <ele>726.155</ele>
        <time>2022-02-24T00:45:57Z</time>
      </trkpt>
      <trkpt lat="41.582320" lon="-5.840830">
        <ele>724.710</ele>
        <time>2022-02-24T00:46:37Z</time>
      </trkpt>
      <trkpt lat="41.582340" lon="-5.840890">
        <ele>724.708</ele>
        <time>2022-02-24T00:47:17Z</time>
      </trkpt>
      <trkpt lat="41.582430" lon="-5.841140">
        <ele>724.062</ele>
        <time>2022-02-24T00:47:57Z</time>
      </trkpt>
      <trkpt lat="41.582540" lon="-5.841440">
        <ele>724.029</ele>
        <time>2022-02-24T00:48:37Z</time>
      </trkpt>
      <trkpt lat="41.582660" lon="-5.841760">
        <ele>723.193</ele>
        <time>2022-02-24T00:49:17Z</time>
      </trkpt>
      <trkpt lat="41.582780" lon="-5.842070">
        <ele>722.079</ele>
        <time>2022-02-24T00:49:57Z</time>
      </trkpt>
      <trkpt lat="41.582890" lon="-5.842360">
        <ele>722.256</ele>
        <time>2022-02-24T00:50:37Z</time>
      </trkpt>
      <trkpt lat="41.582990" lon="-5.842600">
        <ele>722.877</ele>
        <time>2022-02-24T00:51:17Z</time>
      </trkpt>
      <trkpt lat="41.583080" lon="-5.842780">
        <ele>722.971</ele>
        <time>2022-02-24T00:51:57Z</time>
      </trkpt>
      <trkpt lat="41.583160" lon="-5.842920">
        <ele>722.646</ele>
        <time>2022-02-24T00:52:37Z</time>
      </trkpt>
      <trkpt lat="41.583200" lon="-5.842960">
        <ele>722.544</ele>
        <time>2022-02-24T00:53:17Z</time>
      </trkpt>
      <trkpt lat="41.583240" lon="-5.843030">
        <ele>722.305</ele>
        <time>2022-02-24T00:53:57Z</time>
      </trkpt>
      <trkpt lat="41.583370" lon="-5.843170">
        <ele>722.115</ele>
        <time>2022-02-24T00:54:37Z</time>
      </trkpt>
      <trkpt lat="41.583470" lon="-5.843270">
        <ele>721.808</ele>
        <time>2022-02-24T00:55:17Z</time>
      </trkpt>
      <trkpt lat="41.583590" lon="-5.843380">
        <ele>721.393</ele>
        <time>2022-02-24T00:55:57Z</time>
      </trkpt>
      <trkpt lat="41.583780" lon="-5.843540">
        <ele>721.110</ele>
        <time>2022-02-24T00:56:37Z</time>
      </trkpt>
      <trkpt lat="41.584030" lon="-5.843750">
        <ele>721.574</ele>
        <time>2022-02-24T00:57:17Z</time>
      </trkpt>
      <trkpt lat="41.584210" lon="-5.843900">
        <ele>721.920</ele>
        <time>2022-02-24T00:57:57Z</time>
      </trkpt>
      <trkpt lat="41.584260" lon="-5.843940">
        <ele>722.057</ele>
        <time>2022-02-24T00:58:37Z</time>
      </trkpt>
      <trkpt lat="41.584460" lon="-5.844110">
        <ele>722.438</ele>
        <time>2022-02-24T00:59:17Z</time>
      </trkpt>
      <trkpt lat="41.584700" lon="-5.844300">
        <ele>720.752</ele>
        <time>2022-02-24T00:59:57Z</time>
      </trkpt>
      <trkpt lat="41.584800" lon="-5.844390">
        <ele>720.577</ele>
        <time>2022-02-24T01:00:37Z</time>
      </trkpt>
      <trkpt lat="41.584820" lon="-5.844410">
        <ele>720.594</ele>
        <time>2022-02-24T01:01:17Z</time>
      </trkpt>
      <trkpt lat="41.584880" lon="-5.844470">
        <ele>720.557</ele>
        <time>2022-02-24T01:01:57Z</time>
      </trkpt>
      <trkpt lat="41.584940" lon="-5.844540">
        <ele>720.322</ele>
        <time>2022-02-24T01:02:37Z</time>
      </trkpt>
      <trkpt lat="41.585000" lon="-5.844620">
        <ele>720.008</ele>
        <time>2022-02-24T01:03:17Z</time>
      </trkpt>
      <trkpt lat="41.585070" lon="-5.844740">
        <ele>719.918</ele>
        <time>2022-02-24T01:03:57Z</time>
      </trkpt>
      <trkpt lat="41.585130" lon="-5.844860">
        <ele>719.555</ele>
        <time>2022-02-24T01:04:37Z</time>
      </trkpt>
      <trkpt lat="41.585170" lon="-5.844950">
        <ele>719.249</ele>
        <time>2022-02-24T01:05:17Z</time>
      </trkpt>
      <trkpt lat="41.585220" lon="-5.845080">
        <ele>718.715</ele>
        <time>2022-02-24T01:05:57Z</time>
      </trkpt>
      <trkpt lat="41.585260" lon="-5.845240">
        <ele>718.112</ele>
        <time>2022-02-24T01:06:37Z</time>
      </trkpt>
      <trkpt lat="41.585290" lon="-5.845350">
        <ele>718.013</ele>
        <time>2022-02-24T01:07:17Z</time>
      </trkpt>
      <trkpt lat="41.585300" lon="-5.845380">
        <ele>718.197</ele>
        <time>2022-02-24T01:07:57Z</time>
      </trkpt>
      <trkpt lat="41.585320" lon="-5.845530">
        <ele>718.092</ele>
        <time>2022-02-24T01:08:37Z</time>
      </trkpt>
      <trkpt lat="41.585330" lon="-5.845580">
        <ele>718.066</ele>
        <time>2022-02-24T01:09:17Z</time>
      </trkpt>
      <trkpt lat="41.585330" lon="-5.845690">
        <ele>717.929</ele>
        <time>2022-02-24T01:09:57Z</time>
      </trkpt>
      <trkpt lat="41.585330" lon="-5.845950">
        <ele>717.321</ele>
        <time>2022-02-24T01:10:37Z</time>
      </trkpt>
      <trkpt lat="41.585320" lon="-5.846340">
        <ele>715.208</ele>
        <time>2022-02-24T01:11:17Z</time>
      </trkpt>
      <trkpt lat="41.585300" lon="-5.846710">
        <ele>713.995</ele>
        <time>2022-02-24T01:11:57Z</time>
      </trkpt>
      <trkpt lat="41.585300" lon="-5.846830">
        <ele>713.982</ele>
        <time>2022-02-24T01:12:37Z</time>
      </trkpt>
      <trkpt lat="41.585320" lon="-5.846990">
        <ele>713.786</ele>
        <time>2022-02-24T01:13:17Z</time>
      </trkpt>
      <trkpt lat="41.585340" lon="-5.847150">
        <ele>713.622</ele>
        <time>2022-02-24T01:13:57Z</time>
      </trkpt>
      <trkpt lat="41.585470" lon="-5.847710">
        <ele>712.699</ele>
        <time>2022-02-24T01:14:37Z</time>
      </trkpt>
      <trkpt lat="41.585480" lon="-5.847740">
        <ele>712.560</ele>
        <time>2022-02-24T01:15:17Z</time>
      </trkpt>
      <trkpt lat="41.585530" lon="-5.847940">
        <ele>712.744</ele>
        <time>2022-02-24T01:15:57Z</time>
      </trkpt>
      <trkpt lat="41.585570" lon="-5.848090">
        <ele>712.949</ele>
        <time>2022-02-24T01:16:37Z</time>
      </trkpt>
      <trkpt lat="41.585610" lon="-5.848240">
        <ele>712.731</ele>
        <time>2022-02-24T01:17:17Z</time>
      </trkpt>
      <trkpt lat="41.585640" lon="-5.848320">
        <ele>712.461</ele>
        <time>2022-02-24T01:17:57Z</time>
      </trkpt>
      <trkpt lat="41.585710" lon="-5.848470">
        <ele>711.907</ele>
        <time>2022-02-24T01:18:37Z</time>
      </trkpt>
      <trkpt lat="41.585850" lon="-5.848670">
        <ele>711.308</ele>
        <time>2022-02-24T01:19:17Z</time>
      </trkpt>
      <trkpt lat="41.585910" lon="-5.848750">
        <ele>711.822</ele>
        <time>2022-02-24T01:19:57Z</time>
      </trkpt>
      <trkpt lat="41.586320" lon="-5.849170">
        <ele>713.039</ele>
        <time>2022-02-24T01:20:37Z</time>
      </trkpt>
      <trkpt lat="41.586470" lon="-5.849330">
        <ele>711.223</ele>
        <time>2022-02-24T01:21:17Z</time>
      </trkpt>
      <trkpt lat="41.586540" lon="-5.849410">
        <ele>710.249</ele>
        <time>2022-02-24T01:21:57Z</time>
      </trkpt>
      <trkpt lat="41.586620" lon="-5.849500">
        <ele>709.216</ele>
        <time>2022-02-24T01:22:37Z</time>
      </trkpt>
      <trkpt lat="41.586680" lon="-5.849600">
        <ele>708.437</ele>
        <time>2022-02-24T01:23:17Z</time>
      </trkpt>
      <trkpt lat="41.586750" lon="-5.849710">
        <ele>707.781</ele>
        <time>2022-02-24T01:23:57Z</time>
      </trkpt>
      <trkpt lat="41.586960" lon="-5.850080">
        <ele>707.566</ele>
        <time>2022-02-24T01:24:37Z</time>
      </trkpt>
      <trkpt lat="41.587070" lon="-5.850250">
        <ele>707.978</ele>
        <time>2022-02-24T01:25:17Z</time>
      </trkpt>
      <trkpt lat="41.587150" lon="-5.850390">
        <ele>707.633</ele>
        <time>2022-02-24T01:25:57Z</time>
      </trkpt>
      <trkpt lat="41.587240" lon="-5.850500">
        <ele>706.826</ele>
        <time>2022-02-24T01:26:37Z</time>
      </trkpt>
      <trkpt lat="41.587320" lon="-5.850580">
        <ele>705.908</ele>
        <time>2022-02-24T01:27:17Z</time>
      </trkpt>
      <trkpt lat="41.587490" lon="-5.850760">
        <ele>704.116</ele>
        <time>2022-02-24T01:27:57Z</time>
      </trkpt>
      <trkpt lat="41.587830" lon="-5.851120">
        <ele>705.133</ele>
        <time>2022-02-24T01:28:37Z</time>
      </trkpt>
      <trkpt lat="41.588030" lon="-5.851320">
        <ele>705.967</ele>
        <time>2022-02-24T01:29:17Z</time>
      </trkpt>
      <trkpt lat="41.588170" lon="-5.851460">
        <ele>705.613</ele>
        <time>2022-02-24T01:29:57Z</time>
      </trkpt>
      <trkpt lat="41.588340" lon="-5.851640">
        <ele>704.960</ele>
        <time>2022-02-24T01:30:37Z</time>
      </trkpt>
      <trkpt lat="41.588450" lon="-5.851760">
        <ele>704.561</ele>
        <time>2022-02-24T01:31:17Z</time>
      </trkpt>
      <trkpt lat="41.588600" lon="-5.851900">
        <ele>703.955</ele>
        <time>2022-02-24T01:31:57Z</time>
      </trkpt>
      <trkpt lat="41.588660" lon="-5.851970">
        <ele>703.460</ele>
        <time>2022-02-24T01:32:37Z</time>
      </trkpt>
      <trkpt lat="41.588720" lon="-5.852040">
        <ele>702.821</ele>
        <time>2022-02-24T01:33:17Z</time>
      </trkpt>
      <trkpt lat="41.588740" lon="-5.852050">
        <ele>702.641</ele>
        <time>2022-02-24T01:33:57Z</time>
      </trkpt>
      <trkpt lat="41.588840" lon="-5.852170">
        <ele>702.105</ele>
        <time>2022-02-24T01:34:37Z</time>
      </trkpt>
      <trkpt lat="41.588870" lon="-5.852210">
        <ele>702.008</ele>
        <time>2022-02-24T01:35:17Z</time>
      </trkpt>
      <trkpt lat="41.588930" lon="-5.852280">
        <ele>701.511</ele>
        <time>2022-02-24T01:35:57Z</time>
      </trkpt>
      <trkpt lat="41.589020" lon="-5.852410">
        <ele>700.778</ele>
        <time>2022-02-24T01:36:37Z</time>
      </trkpt>
      <trkpt lat="41.589250" lon="-5.852730">
        <ele>699.252</ele>
        <time>2022-02-24T01:37:17Z</time>
      </trkpt>
      <trkpt lat="41.589470" lon="-5.853050">
        <ele>698.128</ele>
        <time>2022-02-24T01:37:57Z</time>
      </trkpt>
      <trkpt lat="41.589490" lon="-5.853080">
        <ele>698.135</ele>
        <time>2022-02-24T01:38:37Z</time>
      </trkpt>
      <trkpt lat="41.589620" lon="-5.853250">
        <ele>697.946</ele>
        <time>2022-02-24T01:39:17Z</time>
      </trkpt>
      <trkpt lat="41.589820" lon="-5.853540">
        <ele>698.150</ele>
        <time>2022-02-24T01:39:57Z</time>
      </trkpt>
      <trkpt lat="41.589870" lon="-5.853600">
        <ele>698.095</ele>
        <time>2022-02-24T01:40:37Z</time>
      </trkpt>
      <trkpt lat="41.589890" lon="-5.853640">
        <ele>698.148</ele>
        <time>2022-02-24T01:41:17Z</time>
      </trkpt>
      <trkpt lat="41.589990" lon="-5.853780">
        <ele>698.661</ele>
        <time>2022-02-24T01:41:57Z</time>
      </trkpt>
      <trkpt lat="41.590020" lon="-5.853820">
        <ele>698.617</ele>
        <time>2022-02-24T01:42:37Z</time>
      </trkpt>
      <trkpt lat="41.590140" lon="-5.853980">
        <ele>698.008</ele>
        <time>2022-02-24T01:43:17Z</time>
      </trkpt>
      <trkpt lat="41.590240" lon="-5.854100">
        <ele>697.373</ele>
        <time>2022-02-24T01:43:57Z</time>
      </trkpt>
      <trkpt lat="41.590250" lon="-5.854110">
        <ele>697.220</ele>
        <time>2022-02-24T01:44:37Z</time>
      </trkpt>
      <trkpt lat="41.590370" lon="-5.854250">
        <ele>697.774</ele>
        <time>2022-02-24T01:45:17Z</time>
      </trkpt>
      <trkpt lat="41.590390" lon="-5.854260">
        <ele>697.830</ele>
        <time>2022-02-24T01:45:57Z</time>
      </trkpt>
      <trkpt lat="41.590530" lon="-5.854410">
        <ele>698.167</ele>
        <time>2022-02-24T01:46:37Z</time>
      </trkpt>
      <trkpt lat="41.590540" lon="-5.854430">
        <ele>698.078</ele>
        <time>2022-02-24T01:47:17Z</time>
      </trkpt>
      <trkpt lat="41.590720" lon="-5.854620">
        <ele>699.162</ele>
        <time>2022-02-24T01:47:57Z</time>
      </trkpt>
      <trkpt lat="41.590810" lon="-5.854710">
        <ele>699.137</ele>
        <time>2022-02-24T01:48:37Z</time>
      </trkpt>
      <trkpt lat="41.590900" lon="-5.854810">
        <ele>699.779</ele>
        <time>2022-02-24T01:49:17Z</time>
      </trkpt>
      <trkpt lat="41.591000" lon="-5.854930">
        <ele>700.205</ele>
        <time>2022-02-24T01:49:57Z</time>
      </trkpt>
      <trkpt lat="41.591070" lon="-5.855040">
        <ele>700.325</ele>
        <time>2022-02-24T01:50:37Z</time>
      </trkpt>
      <trkpt lat="41.591190" lon="-5.855220">
        <ele>700.008</ele>
        <time>2022-02-24T01:51:17Z</time>
      </trkpt>
      <trkpt lat="41.591300" lon="-5.855390">
        <ele>699.466</ele>
        <time>2022-02-24T01:51:57Z</time>
      </trkpt>
      <trkpt lat="41.591370" lon="-5.855500">
        <ele>699.073</ele>
        <time>2022-02-24T01:52:37Z</time>
      </trkpt>
      <trkpt lat="41.591380" lon="-5.855510">
        <ele>698.967</ele>
        <time>2022-02-24T01:53:17Z</time>
      </trkpt>
      <trkpt lat="41.591480" lon="-5.855650">
        <ele>699.393</ele>
        <time>2022-02-24T01:53:57Z</time>
      </trkpt>
      <trkpt lat="41.591500" lon="-5.855670">
        <ele>699.470</ele>
        <time>2022-02-24T01:54:37Z</time>
      </trkpt>
      <trkpt lat="41.591570" lon="-5.855760">
        <ele>699.711</ele>
        <time>2022-02-24T01:55:17Z</time>
      </trkpt>
      <trkpt lat="41.591720" lon="-5.855920">
        <ele>700.445</ele>
        <time>2022-02-24T01:55:57Z</time>
      </trkpt>
      <trkpt lat="41.591890" lon="-5.856060">
        <ele>700.380</ele>
        <time>2022-02-24T01:56:37Z</time>
      </trkpt>
      <trkpt lat="41.592080" lon="-5.856230">
        <ele>700.295</ele>
        <time>2022-02-24T01:57:17Z</time>
      </trkpt>
      <trkpt lat="41.592380" lon="-5.856500">
        <ele>701.449</ele>
        <time>2022-02-24T01:57:57Z</time>
      </trkpt>
      <trkpt lat="41.592560" lon="-5.856680">
        <ele>701.823</ele>
        <time>2022-02-24T01:58:37Z</time>
      </trkpt>
      <trkpt lat="41.592730" lon="-5.856880">
        <ele>701.908</ele>
        <time>2022-02-24T01:59:17Z</time>
      </trkpt>
      <trkpt lat="41.592830" lon="-5.857000">
        <ele>701.648</ele>
        <time>2022-02-24T01:59:57Z</time>
      </trkpt>
      <trkpt lat="41.592940" lon="-5.857150">
        <ele>701.165</ele>
        <time>2022-02-24T02:00:37Z</time>
      </trkpt>
      <trkpt lat="41.592980" lon="-5.857210">
        <ele>701.049</ele>
        <time>2022-02-24T02:01:17Z</time>
      </trkpt>
      <trkpt lat="41.593010" lon="-5.857240">
        <ele>701.085</ele>
        <time>2022-02-24T02:01:57Z</time>
      </trkpt>
      <trkpt lat="41.593080" lon="-5.857350">
        <ele>701.052</ele>
        <time>2022-02-24T02:02:37Z</time>
      </trkpt>
      <trkpt lat="41.593130" lon="-5.857450">
        <ele>701.043</ele>
        <time>2022-02-24T02:03:17Z</time>
      </trkpt>
      <trkpt lat="41.593400" lon="-5.857940">
        <ele>701.817</ele>
        <time>2022-02-24T02:03:57Z</time>
      </trkpt>
      <trkpt lat="41.593770" lon="-5.858520">
        <ele>700.992</ele>
        <time>2022-02-24T02:04:37Z</time>
      </trkpt>
      <trkpt lat="41.594030" lon="-5.858930">
        <ele>697.874</ele>
        <time>2022-02-24T02:05:17Z</time>
      </trkpt>
      <trkpt lat="41.594130" lon="-5.859090">
        <ele>696.456</ele>
        <time>2022-02-24T02:05:57Z</time>
      </trkpt>
      <trkpt lat="41.594320" lon="-5.859350">
        <ele>695.321</ele>
        <time>2022-02-24T02:06:37Z</time>
      </trkpt>
      <trkpt lat="41.594340" lon="-5.859370">
        <ele>695.308</ele>
        <time>2022-02-24T02:07:17Z</time>
      </trkpt>
      <trkpt lat="41.594660" lon="-5.859790">
        <ele>693.816</ele>
        <time>2022-02-24T02:07:57Z</time>
      </trkpt>
      <trkpt lat="41.594700" lon="-5.859850">
        <ele>693.613</ele>
        <time>2022-02-24T02:08:37Z</time>
      </trkpt>
      <trkpt lat="41.594740" lon="-5.859920">
        <ele>693.387</ele>
        <time>2022-02-24T02:09:17Z</time>
      </trkpt>
      <trkpt lat="41.594760" lon="-5.859960">
        <ele>693.123</ele>
        <time>2022-02-24T02:09:57Z</time>
      </trkpt>
      <trkpt lat="41.594770" lon="-5.860000">
        <ele>693.010</ele>
        <time>2022-02-24T02:10:37Z</time>
      </trkpt>
      <trkpt lat="41.594770" lon="-5.860020">
        <ele>693.051</ele>
        <time>2022-02-24T02:11:17Z</time>
      </trkpt>
      <trkpt lat="41.594830" lon="-5.860110">
        <ele>693.235</ele>
        <time>2022-02-24T02:11:57Z</time>
      </trkpt>
      <trkpt lat="41.594850" lon="-5.860120">
        <ele>693.280</ele>
        <time>2022-02-24T02:12:37Z</time>
      </trkpt>
      <trkpt lat="41.594860" lon="-5.860130">
        <ele>693.232</ele>
        <time>2022-02-24T02:13:17Z</time>
      </trkpt>
      <trkpt lat="41.594880" lon="-5.860140">
        <ele>693.392</ele>
        <time>2022-02-24T02:13:57Z</time>
      </trkpt>
      <trkpt lat="41.594900" lon="-5.860140">
        <ele>693.311</ele>
        <time>2022-02-24T02:14:37Z</time>
      </trkpt>
      <trkpt lat="41.594930" lon="-5.860140">
        <ele>693.408</ele>
        <time>2022-02-24T02:15:17Z</time>
      </trkpt>
      <trkpt lat="41.595040" lon="-5.860120">
        <ele>693.142</ele>
        <time>2022-02-24T02:15:57Z</time>
      </trkpt>
      <trkpt lat="41.595050" lon="-5.860120">
        <ele>693.119</ele>
        <time>2022-02-24T02:16:37Z</time>
      </trkpt>
      <trkpt lat="41.595080" lon="-5.860130">
        <ele>692.933</ele>
        <time>2022-02-24T02:17:17Z</time>
      </trkpt>
      <trkpt lat="41.595090" lon="-5.860140">
        <ele>692.929</ele>
        <time>2022-02-24T02:17:57Z</time>
      </trkpt>
      <trkpt lat="41.595100" lon="-5.860150">
        <ele>692.816</ele>
        <time>2022-02-24T02:18:37Z</time>
      </trkpt>
      <trkpt lat="41.595120" lon="-5.860180">
        <ele>692.827</ele>
        <time>2022-02-24T02:19:17Z</time>
      </trkpt>
      <trkpt lat="41.595150" lon="-5.860230">
        <ele>692.741</ele>
        <time>2022-02-24T02:19:57Z</time>
      </trkpt>
      <trkpt lat="41.595180" lon="-5.860270">
        <ele>692.786</ele>
        <time>2022-02-24T02:20:37Z</time>
      </trkpt>
      <trkpt lat="41.595340" lon="-5.860590">
        <ele>692.819</ele>
        <time>2022-02-24T02:21:17Z</time>
      </trkpt>
      <trkpt lat="41.595440" lon="-5.860800">
        <ele>691.709</ele>
        <time>2022-02-24T02:21:57Z</time>
      </trkpt>
      <trkpt lat="41.595510" lon="-5.860930">
        <ele>691.019</ele>
        <time>2022-02-24T02:22:37Z</time>
      </trkpt>
      <trkpt lat="41.595570" lon="-5.861090">
        <ele>689.908</ele>
        <time>2022-02-24T02:23:17Z</time>
      </trkpt>
      <trkpt lat="41.595620" lon="-5.861230">
        <ele>689.060</ele>
        <time>2022-02-24T02:23:57Z</time>
      </trkpt>
      <trkpt lat="41.595640" lon="-5.861290">
        <ele>688.667</ele>
        <time>2022-02-24T02:24:37Z</time>
      </trkpt>
      <trkpt lat="41.595650" lon="-5.861320">
        <ele>688.451</ele>
        <time>2022-02-24T02:25:17Z</time>
      </trkpt>
      <trkpt lat="41.595660" lon="-5.861360">
        <ele>688.257</ele>
        <time>2022-02-24T02:25:57Z</time>
      </trkpt>
      <trkpt lat="41.595810" lon="-5.862160">
        <ele>687.134</ele>
        <time>2022-02-24T02:26:37Z</time>
      </trkpt>
      <trkpt lat="41.595830" lon="-5.862240">
        <ele>687.015</ele>
        <time>2022-02-24T02:27:17Z</time>
      </trkpt>
      <trkpt lat="41.595970" lon="-5.863030">
        <ele>690.069</ele>
        <time>2022-02-24T02:27:57Z</time>
      </trkpt>
      <trkpt lat="41.595980" lon="-5.863060">
        <ele>690.134</ele>
        <time>2022-02-24T02:28:37Z</time>
      </trkpt>
      <trkpt lat="41.596010" lon="-5.863220">
        <ele>690.051</ele>
        <time>2022-02-24T02:29:17Z</time>
      </trkpt>
      <trkpt lat="41.596040" lon="-5.863320">
        <ele>690.001</ele>
        <time>2022-02-24T02:29:57Z</time>
      </trkpt>
      <trkpt lat="41.596070" lon="-5.863410">
        <ele>689.911</ele>
        <time>2022-02-24T02:30:37Z</time>
      </trkpt>
      <trkpt lat="41.596100" lon="-5.863520">
        <ele>689.508</ele>
        <time>2022-02-24T02:31:17Z</time>
      </trkpt>
      <trkpt lat="41.596150" lon="-5.863640">
        <ele>689.184</ele>
        <time>2022-02-24T02:31:57Z</time>
      </trkpt>
      <trkpt lat="41.596420" lon="-5.864240">
        <ele>687.081</ele>
        <time>2022-02-24T02:32:37Z</time>
      </trkpt>
      <trkpt lat="41.596480" lon="-5.864360">
        <ele>687.285</ele>
        <time>2022-02-24T02:33:17Z</time>
      </trkpt>
      <trkpt lat="41.596600" lon="-5.864630">
        <ele>687.571</ele>
        <time>2022-02-24T02:33:57Z</time>
      </trkpt>
      <trkpt lat="41.596630" lon="-5.864690">
        <ele>687.668</ele>
        <time>2022-02-24T02:34:37Z</time>
      </trkpt>
      <trkpt lat="41.596900" lon="-5.865310">
        <ele>687.549</ele>
        <time>2022-02-24T02:35:17Z</time>
      </trkpt>
      <trkpt lat="41.596990" lon="-5.865510">
        <ele>687.833</ele>
        <time>2022-02-24T02:35:57Z</time>
      </trkpt>
      <trkpt lat="41.597100" lon="-5.865760">
        <ele>688.598</ele>
        <time>2022-02-24T02:36:37Z</time>
      </trkpt>
      <trkpt lat="41.597250" lon="-5.866080">
        <ele>688.634</ele>
        <time>2022-02-24T02:37:17Z</time>
      </trkpt>
      <trkpt lat="41.597260" lon="-5.866110">
        <ele>688.655</ele>
        <time>2022-02-24T02:37:57Z</time>
      </trkpt>
      <trkpt lat="41.597320" lon="-5.866230">
        <ele>688.310</ele>
        <time>2022-02-24T02:38:37Z</time>
      </trkpt>
      <trkpt lat="41.597370" lon="-5.866310">
        <ele>688.408</ele>
        <time>2022-02-24T02:39:17Z</time>
      </trkpt>
      <trkpt lat="41.597420" lon="-5.866390">
        <ele>688.672</ele>
        <time>2022-02-24T02:39:57Z</time>
      </trkpt>
      <trkpt lat="41.597500" lon="-5.866490">
        <ele>689.329</ele>
        <time>2022-02-24T02:40:37Z</time>
      </trkpt>
      <trkpt lat="41.597660" lon="-5.866680">
        <ele>690.723</ele>
        <time>2022-02-24T02:41:17Z</time>
      </trkpt>
      <trkpt lat="41.597770" lon="-5.866790">
        <ele>691.569</ele>
        <time>2022-02-24T02:41:57Z</time>
      </trkpt>
      <trkpt lat="41.598060" lon="-5.867080">
        <ele>690.636</ele>
        <time>2022-02-24T02:42:37Z</time>
      </trkpt>
      <trkpt lat="41.598350" lon="-5.867360">
        <ele>689.667</ele>
        <time>2022-02-24T02:43:17Z</time>
      </trkpt>
      <trkpt lat="41.598760" lon="-5.867760">
        <ele>687.781</ele>
        <time>2022-02-24T02:43:57Z</time>
      </trkpt>
      <trkpt lat="41.599010" lon="-5.868010">
        <ele>686.376</ele>
        <time>2022-02-24T02:44:37Z</time>
      </trkpt>
      <trkpt lat="41.599150" lon="-5.868150">
        <ele>686.283</ele>
        <time>2022-02-24T02:45:17Z</time>
      </trkpt>
      <trkpt lat="41.599440" lon="-5.868440">
        <ele>690.125</ele>
        <time>2022-02-24T02:45:57Z</time>
      </trkpt>
      <trkpt lat="41.599580" lon="-5.868590">
        <ele>691.817</ele>
        <time>2022-02-24T02:46:37Z</time>
      </trkpt>
      <trkpt lat="41.599720" lon="-5.868720">
        <ele>692.808</ele>
        <time>2022-02-24T02:47:17Z</time>
      </trkpt>
      <trkpt lat="41.599780" lon="-5.868780">
        <ele>693.197</ele>
        <time>2022-02-24T02:47:57Z</time>
      </trkpt>
      <trkpt lat="41.599840" lon="-5.868830">
        <ele>693.234</ele>
        <time>2022-02-24T02:48:37Z</time>
      </trkpt>
      <trkpt lat="41.600020" lon="-5.868950">
        <ele>693.858</ele>
        <time>2022-02-24T02:49:17Z</time>
      </trkpt>
      <trkpt lat="41.600090" lon="-5.869000">
        <ele>694.614</ele>
        <time>2022-02-24T02:49:57Z</time>
      </trkpt>
      <trkpt lat="41.600150" lon="-5.869030">
        <ele>695.191</ele>
        <time>2022-02-24T02:50:37Z</time>
      </trkpt>
      <trkpt lat="41.600210" lon="-5.869060">
        <ele>695.492</ele>
        <time>2022-02-24T02:51:17Z</time>
      </trkpt>
      <trkpt lat="41.600260" lon="-5.869090">
        <ele>695.736</ele>
        <time>2022-02-24T02:51:57Z</time>
      </trkpt>
      <trkpt lat="41.600370" lon="-5.869150">
        <ele>696.371</ele>
        <time>2022-02-24T02:52:37Z</time>
      </trkpt>
      <trkpt lat="41.600430" lon="-5.869200">
        <ele>696.873</ele>
        <time>2022-02-24T02:53:17Z</time>
      </trkpt>
      <trkpt lat="41.600510" lon="-5.869250">
        <ele>697.285</ele>
        <time>2022-02-24T02:53:57Z</time>
      </trkpt>
      <trkpt lat="41.600570" lon="-5.869320">
        <ele>697.413</ele>
        <time>2022-02-24T02:54:37Z</time>
      </trkpt>
      <trkpt lat="41.600670" lon="-5.869430">
        <ele>697.108</ele>
        <time>2022-02-24T02:55:17Z</time>
      </trkpt>
      <trkpt lat="41.600760" lon="-5.869570">
        <ele>697.846</ele>
        <time>2022-02-24T02:55:57Z</time>
      </trkpt>
      <trkpt lat="41.600820" lon="-5.869670">
        <ele>698.573</ele>
        <time>2022-02-24T02:56:37Z</time>
      </trkpt>
      <trkpt lat="41.600820" lon="-5.869680">
        <ele>698.687</ele>
        <time>2022-02-24T02:57:17Z</time>
      </trkpt>
      <trkpt lat="41.600900" lon="-5.869880">
        <ele>699.593</ele>
        <time>2022-02-24T02:57:57Z</time>
      </trkpt>
      <trkpt lat="41.601080" lon="-5.870340">
        <ele>700.110</ele>
        <time>2022-02-24T02:58:37Z</time>
      </trkpt>
      <trkpt lat="41.601150" lon="-5.870530">
        <ele>700.021</ele>
        <time>2022-02-24T02:59:17Z</time>
      </trkpt>
      <trkpt lat="41.601160" lon="-5.870560">
        <ele>700.075</ele>
        <time>2022-02-24T02:59:57Z</time>
      </trkpt>
      <trkpt lat="41.601190" lon="-5.870700">
        <ele>700.990</ele>
        <time>2022-02-24T03:00:37Z</time>
      </trkpt>
      <trkpt lat="41.601210" lon="-5.870750">
        <ele>701.269</ele>
        <time>2022-02-24T03:01:17Z</time>
      </trkpt>
      <trkpt lat="41.601220" lon="-5.870820">
        <ele>701.504</ele>
        <time>2022-02-24T03:01:57Z</time>
      </trkpt>
      <trkpt lat="41.601250" lon="-5.870980">
        <ele>701.524</ele>
        <time>2022-02-24T03:02:37Z</time>
      </trkpt>
      <trkpt lat="41.601250" lon="-5.870990">
        <ele>701.508</ele>
        <time>2022-02-24T03:03:17Z</time>
      </trkpt>
      <trkpt lat="41.601270" lon="-5.871120">
        <ele>701.475</ele>
        <time>2022-02-24T03:03:57Z</time>
      </trkpt>
      <trkpt lat="41.601280" lon="-5.871220">
        <ele>701.072</ele>
        <time>2022-02-24T03:04:37Z</time>
      </trkpt>
      <trkpt lat="41.601290" lon="-5.871300">
        <ele>700.796</ele>
        <time>2022-02-24T03:05:17Z</time>
      </trkpt>
      <trkpt lat="41.601320" lon="-5.871720">
        <ele>700.122</ele>
        <time>2022-02-24T03:05:57Z</time>
      </trkpt>
      <trkpt lat="41.601360" lon="-5.872280">
        <ele>703.139</ele>
        <time>2022-02-24T03:06:37Z</time>
      </trkpt>
      <trkpt lat="41.601370" lon="-5.872420">
        <ele>703.710</ele>
        <time>2022-02-24T03:07:17Z</time>
      </trkpt>
      <trkpt lat="41.601380" lon="-5.872460">
        <ele>703.964</ele>
        <time>2022-02-24T03:07:57Z</time>
      </trkpt>
      <trkpt lat="41.601400" lon="-5.872570">
        <ele>704.119</ele>
        <time>2022-02-24T03:08:37Z</time>
      </trkpt>
      <trkpt lat="41.601420" lon="-5.872660">
        <ele>704.226</ele>
        <time>2022-02-24T03:09:17Z</time>
      </trkpt>
      <trkpt lat="41.601470" lon="-5.872820">
        <ele>704.447</ele>
        <time>2022-02-24T03:09:57Z</time>
      </trkpt>
      <trkpt lat="41.601510" lon="-5.872940">
        <ele>705.011</ele>
        <time>2022-02-24T03:10:37Z</time>
      </trkpt>
      <trkpt lat="41.601560" lon="-5.873050">
        <ele>705.608</ele>
        <time>2022-02-24T03:11:17Z</time>
      </trkpt>
      <trkpt lat="41.601630" lon="-5.873170">
        <ele>705.961</ele>
        <time>2022-02-24T03:11:57Z</time>
      </trkpt>
      <trkpt lat="41.601780" lon="-5.873410">
        <ele>706.568</ele>
        <time>2022-02-24T03:12:37Z</time>
      </trkpt>
      <trkpt lat="41.601890" lon="-5.873580">
        <ele>707.542</ele>
        <time>2022-02-24T03:13:17Z</time>
      </trkpt>
      <trkpt lat="41.602020" lon="-5.873760">
        <ele>708.588</ele>
        <time>2022-02-24T03:13:57Z</time>
      </trkpt>
      <trkpt lat="41.602040" lon="-5.873810">
        <ele>708.715</ele>
        <time>2022-02-24T03:14:37Z</time>
      </trkpt>
      <trkpt lat="41.602060" lon="-5.873830">
        <ele>708.826</ele>
        <time>2022-02-24T03:15:17Z</time>
      </trkpt>
      <trkpt lat="41.602100" lon="-5.873900">
        <ele>709.020</ele>
        <time>2022-02-24T03:15:57Z</time>
      </trkpt>
      <trkpt lat="41.602140" lon="-5.873990">
        <ele>709.225</ele>
        <time>2022-02-24T03:16:37Z</time>
      </trkpt>
      <trkpt lat="41.602170" lon="-5.874080">
        <ele>709.378</ele>
        <time>2022-02-24T03:17:17Z</time>
      </trkpt>
      <trkpt lat="41.602180" lon="-5.874130">
        <ele>709.333</ele>
        <time>2022-02-24T03:17:57Z</time>
      </trkpt>
      <trkpt lat="41.602210" lon="-5.874220">
        <ele>709.326</ele>
        <time>2022-02-24T03:18:37Z</time>
      </trkpt>
      <trkpt lat="41.602230" lon="-5.874330">
        <ele>709.608</ele>
        <time>2022-02-24T03:19:17Z</time>
      </trkpt>
      <trkpt lat="41.602230" lon="-5.874440">
        <ele>710.096</ele>
        <time>2022-02-24T03:19:57Z</time>
      </trkpt>
      <trkpt lat="41.602240" lon="-5.874680">
        <ele>710.813</ele>
        <time>2022-02-24T03:20:37Z</time>
      </trkpt>
      <trkpt lat="41.602240" lon="-5.874770">
        <ele>711.187</ele>
        <time>2022-02-24T03:21:17Z</time>
      </trkpt>
      <trkpt lat="41.602230" lon="-5.875220">
        <ele>713.663</ele>
        <time>2022-02-24T03:21:57Z</time>
      </trkpt>
      <trkpt lat="41.602220" lon="-5.875590">
        <ele>714.060</ele>
        <time>2022-02-24T03:22:37Z</time>
      </trkpt>
      <trkpt lat="41.602230" lon="-5.875680">
        <ele>714.051</ele>
        <time>2022-02-24T03:23:17Z</time>
      </trkpt>
      <trkpt lat="41.602240" lon="-5.875730">
        <ele>714.195</ele>
        <time>2022-02-24T03:23:57Z</time>
      </trkpt>
      <trkpt lat="41.602250" lon="-5.875770">
        <ele>714.120</ele>
        <time>2022-02-24T03:24:37Z</time>
      </trkpt>
      <trkpt lat="41.602270" lon="-5.875870">
        <ele>714.196</ele>
        <time>2022-02-24T03:25:17Z</time>
      </trkpt>
      <trkpt lat="41.602310" lon="-5.875990">
        <ele>714.131</ele>
        <time>2022-02-24T03:25:57Z</time>
      </trkpt>
      <trkpt lat="41.602370" lon="-5.876230">
        <ele>714.424</ele>
        <time>2022-02-24T03:26:37Z</time>
      </trkpt>
      <trkpt lat="41.602550" lon="-5.876840">
        <ele>717.108</ele>
        <time>2022-02-24T03:27:17Z</time>
      </trkpt>
      <trkpt lat="41.602710" lon="-5.877370">
        <ele>718.828</ele>
        <time>2022-02-24T03:27:57Z</time>
      </trkpt>
      <trkpt lat="41.602860" lon="-5.877910">
        <ele>719.945</ele>
        <time>2022-02-24T03:28:37Z</time>
      </trkpt>
      <trkpt lat="41.602940" lon="-5.878160">
        <ele>720.639</ele>
        <time>2022-02-24T03:29:17Z</time>
      </trkpt>
      <trkpt lat="41.603020" lon="-5.878440">
        <ele>720.645</ele>
        <time>2022-02-24T03:29:57Z</time>
      </trkpt>
      <trkpt lat="41.603170" lon="-5.878990">
        <ele>720.052</ele>
        <time>2022-02-24T03:30:37Z</time>
      </trkpt>
      <trkpt lat="41.603350" lon="-5.879590">
        <ele>719.423</ele>
        <time>2022-02-24T03:31:17Z</time>
      </trkpt>
      <trkpt lat="41.603420" lon="-5.879850">
        <ele>718.717</ele>
        <time>2022-02-24T03:31:57Z</time>
      </trkpt>
      <trkpt lat="41.603530" lon="-5.880220">
        <ele>718.742</ele>
        <time>2022-02-24T03:32:37Z</time>
      </trkpt>
      <trkpt lat="41.603580" lon="-5.880410">
        <ele>718.913</ele>
        <time>2022-02-24T03:33:17Z</time>
      </trkpt>
      <trkpt lat="41.603670" lon="-5.880700">
        <ele>719.243</ele>
        <time>2022-02-24T03:33:57Z</time>
      </trkpt>
      <trkpt lat="41.603720" lon="-5.880890">
        <ele>720.107</ele>
        <time>2022-02-24T03:34:37Z</time>
      </trkpt>
      <trkpt lat="41.603770" lon="-5.881070">
        <ele>721.408</ele>
        <time>2022-02-24T03:35:17Z</time>
      </trkpt>
      <trkpt lat="41.603860" lon="-5.881380">
        <ele>722.030</ele>
        <time>2022-02-24T03:35:57Z</time>
      </trkpt>
      <trkpt lat="41.603900" lon="-5.881510">
        <ele>722.927</ele>
        <time>2022-02-24T03:36:37Z</time>
      </trkpt>
      <trkpt lat="41.604030" lon="-5.881960">
        <ele>723.061</ele>
        <time>2022-02-24T03:37:17Z</time>
      </trkpt>
      <trkpt lat="41.604090" lon="-5.882220">
        <ele>723.397</ele>
        <time>2022-02-24T03:37:57Z</time>
      </trkpt>
      <trkpt lat="41.604120" lon="-5.882340">
        <ele>723.624</ele>
        <time>2022-02-24T03:38:37Z</time>
      </trkpt>
      <trkpt lat="41.604200" lon="-5.882540">
        <ele>724.275</ele>
        <time>2022-02-24T03:39:17Z</time>
      </trkpt>
      <trkpt lat="41.604220" lon="-5.882590">
        <ele>724.349</ele>
        <time>2022-02-24T03:39:57Z</time>
      </trkpt>
      <trkpt lat="41.604320" lon="-5.882820">
        <ele>724.614</ele>
        <time>2022-02-24T03:40:37Z</time>
      </trkpt>
      <trkpt lat="41.604340" lon="-5.882890">
        <ele>724.658</ele>
        <time>2022-02-24T03:41:17Z</time>
      </trkpt>
      <trkpt lat="41.604380" lon="-5.882970">
        <ele>724.852</ele>
        <time>2022-02-24T03:41:57Z</time>
      </trkpt>
      <trkpt lat="41.604430" lon="-5.883070">
        <ele>725.017</ele>
        <time>2022-02-24T03:42:37Z</time>
      </trkpt>
      <trkpt lat="41.604450" lon="-5.883110">
        <ele>725.008</ele>
        <time>2022-02-24T03:43:17Z</time>
      </trkpt>
      <trkpt lat="41.604490" lon="-5.883190">
        <ele>725.324</ele>
        <time>2022-02-24T03:43:57Z</time>
      </trkpt>
      <trkpt lat="41.604500" lon="-5.883190">
        <ele>725.471</ele>
        <time>2022-02-24T03:44:37Z</time>
      </trkpt>
      <trkpt lat="41.604650" lon="-5.883470">
        <ele>727.185</ele>
        <time>2022-02-24T03:45:17Z</time>
      </trkpt>
      <trkpt lat="41.604730" lon="-5.883640">
        <ele>728.191</ele>
        <time>2022-02-24T03:45:57Z</time>
      </trkpt>
      <trkpt lat="41.604810" lon="-5.883780">
        <ele>728.478</ele>
        <time>2022-02-24T03:46:37Z</time>
      </trkpt>
      <trkpt lat="41.604950" lon="-5.884020">
        <ele>728.049</ele>
        <time>2022-02-24T03:47:17Z</time>
      </trkpt>
      <trkpt lat="41.605130" lon="-5.884330">
        <ele>727.743</ele>
        <time>2022-02-24T03:47:57Z</time>
      </trkpt>
      <trkpt lat="41.605500" lon="-5.885000">
        <ele>730.638</ele>
        <time>2022-02-24T03:48:37Z</time>
      </trkpt>
      <trkpt lat="41.605530" lon="-5.885040">
        <ele>731.022</ele>
        <time>2022-02-24T03:49:17Z</time>
      </trkpt>
      <trkpt lat="41.605940" lon="-5.885760">
        <ele>733.962</ele>
        <time>2022-02-24T03:49:57Z</time>
      </trkpt>
      <trkpt lat="41.606160" lon="-5.886130">
        <ele>734.208</ele>
        <time>2022-02-24T03:50:37Z</time>
      </trkpt>
      <trkpt lat="41.606160" lon="-5.886140">
        <ele>734.208</ele>
        <time>2022-02-24T03:51:17Z</time>
      </trkpt>
      <trkpt lat="41.606250" lon="-5.886270">
        <ele>734.571</ele>
        <time>2022-02-24T03:51:57Z</time>
      </trkpt>
      <trkpt lat="41.606350" lon="-5.886430">
        <ele>734.918</ele>
        <time>2022-02-24T03:52:37Z</time>
      </trkpt>
      <trkpt lat="41.606880" lon="-5.887180">
        <ele>736.722</ele>
        <time>2022-02-24T03:53:17Z</time>
      </trkpt>
      <trkpt lat="41.607030" lon="-5.887390">
        <ele>736.328</ele>
        <time>2022-02-24T03:53:57Z</time>
      </trkpt>
      <trkpt lat="41.607200" lon="-5.887640">
        <ele>735.885</ele>
        <time>2022-02-24T03:54:37Z</time>
      </trkpt>
      <trkpt lat="41.607430" lon="-5.888010">
        <ele>736.546</ele>
        <time>2022-02-24T03:55:17Z</time>
      </trkpt>
      <trkpt lat="41.607610" lon="-5.888310">
        <ele>736.450</ele>
        <time>2022-02-24T03:55:57Z</time>
      </trkpt>
      <trkpt lat="41.608070" lon="-5.889130">
        <ele>737.065</ele>
        <time>2022-02-24T03:56:37Z</time>
      </trkpt>
      <trkpt lat="41.608510" lon="-5.889890">
        <ele>735.945</ele>
        <time>2022-02-24T03:57:17Z</time>
      </trkpt>
      <trkpt lat="41.608840" lon="-5.890460">
        <ele>732.147</ele>
        <time>2022-02-24T03:57:57Z</time>
      </trkpt>
      <trkpt lat="41.609500" lon="-5.891600">
        <ele>734.611</ele>
        <time>2022-02-24T03:58:37Z</time>
      </trkpt>
      <trkpt lat="41.609610" lon="-5.891790">
        <ele>735.008</ele>
        <time>2022-02-24T03:59:17Z</time>
      </trkpt>
      <trkpt lat="41.609940" lon="-5.892360">
        <ele>735.183</ele>
        <time>2022-02-24T03:59:57Z</time>
      </trkpt>
      <trkpt lat="41.610540" lon="-5.893400">
        <ele>732.070</ele>
        <time>2022-02-24T04:00:37Z</time>
      </trkpt>
      <trkpt lat="41.610740" lon="-5.893760">
        <ele>732.514</ele>
        <time>2022-02-24T04:01:17Z</time>
      </trkpt>
      <trkpt lat="41.610750" lon="-5.893780">
        <ele>732.570</ele>
        <time>2022-02-24T04:01:57Z</time>
      </trkpt>
      <trkpt lat="41.611030" lon="-5.894260">
        <ele>732.447</ele>
        <time>2022-02-24T04:02:37Z</time>
      </trkpt>
      <trkpt lat="41.611250" lon="-5.894640">
        <ele>731.478</ele>
        <time>2022-02-24T04:03:17Z</time>
      </trkpt>
      <trkpt lat="41.611350" lon="-5.894810">
        <ele>730.452</ele>
        <time>2022-02-24T04:03:57Z</time>
      </trkpt>
      <trkpt lat="41.611460" lon="-5.895020">
        <ele>728.767</ele>
        <time>2022-02-24T04:04:37Z</time>
      </trkpt>
      <trkpt lat="41.611670" lon="-5.895410">
        <ele>728.023</ele>
        <time>2022-02-24T04:05:17Z</time>
      </trkpt>
      <trkpt lat="41.611780" lon="-5.895610">
        <ele>727.383</ele>
        <time>2022-02-24T04:05:57Z</time>
      </trkpt>
      <trkpt lat="41.611890" lon="-5.895800">
        <ele>726.611</ele>
        <time>2022-02-24T04:06:37Z</time>
      </trkpt>
      <trkpt lat="41.612100" lon="-5.896190">
        <ele>724.908</ele>
        <time>2022-02-24T04:07:17Z</time>
      </trkpt>
      <trkpt lat="41.612310" lon="-5.896580">
        <ele>724.781</ele>
        <time>2022-02-24T04:07:57Z</time>
      </trkpt>
      <trkpt lat="41.612370" lon="-5.896700">
        <ele>725.118</ele>
        <time>2022-02-24T04:08:37Z</time>
      </trkpt>
      <trkpt lat="41.612600" lon="-5.897180">
        <ele>725.142</ele>
        <time>2022-02-24T04:09:17Z</time>
      </trkpt>
      <trkpt lat="41.612740" lon="-5.897460">
        <ele>725.238</ele>
        <time>2022-02-24T04:09:57Z</time>
      </trkpt>
      <trkpt lat="41.612780" lon="-5.897600">
        <ele>725.735</ele>
        <time>2022-02-24T04:10:37Z</time>
      </trkpt>
      <trkpt lat="41.612840" lon="-5.897750">
        <ele>726.186</ele>
        <time>2022-02-24T04:11:17Z</time>
      </trkpt>
      <trkpt lat="41.612920" lon="-5.898010">
        <ele>725.920</ele>
        <time>2022-02-24T04:11:57Z</time>
      </trkpt>
      <trkpt lat="41.612930" lon="-5.898040">
        <ele>725.945</ele>
        <time>2022-02-24T04:12:37Z</time>
      </trkpt>
      <trkpt lat="41.613020" lon="-5.898470">
        <ele>722.627</ele>
        <time>2022-02-24T04:13:17Z</time>
      </trkpt>
      <trkpt lat="41.613050" lon="-5.898740">
        <ele>720.168</ele>
        <time>2022-02-24T04:13:57Z</time>
      </trkpt>
      <trkpt lat="41.613050" lon="-5.898770">
        <ele>719.914</ele>
        <time>2022-02-24T04:14:37Z</time>
      </trkpt>
      <trkpt lat="41.613060" lon="-5.898900">
        <ele>719.008</ele>
        <time>2022-02-24T04:15:17Z</time>
      </trkpt>
      <trkpt lat="41.613070" lon="-5.899100">
        <ele>719.691</ele>
        <time>2022-02-24T04:15:57Z</time>
      </trkpt>
      <trkpt lat="41.613080" lon="-5.899300">
        <ele>719.668</ele>
        <time>2022-02-24T04:16:37Z</time>
      </trkpt>
      <trkpt lat="41.613090" lon="-5.899580">
        <ele>719.062</ele>
        <time>2022-02-24T04:17:17Z</time>
      </trkpt>
      <trkpt lat="41.613120" lon="-5.900300">
        <ele>716.498</ele>
        <time>2022-02-24T04:17:57Z</time>
      </trkpt>
      <trkpt lat="41.613130" lon="-5.900540">
        <ele>714.825</ele>
        <time>2022-02-24T04:18:37Z</time>
      </trkpt>
      <trkpt lat="41.613140" lon="-5.900780">
        <ele>713.146</ele>
        <time>2022-02-24T04:19:17Z</time>
      </trkpt>
      <trkpt lat="41.613150" lon="-5.901070">
        <ele>711.230</ele>
        <time>2022-02-24T04:19:57Z</time>
      </trkpt>
      <trkpt lat="41.613160" lon="-5.901260">
        <ele>710.325</ele>
        <time>2022-02-24T04:20:37Z</time>
      </trkpt>
      <trkpt lat="41.613170" lon="-5.901500">
        <ele>709.312</ele>
        <time>2022-02-24T04:21:17Z</time>
      </trkpt>
      <trkpt lat="41.613170" lon="-5.901530">
        <ele>709.232</ele>
        <time>2022-02-24T04:21:57Z</time>
      </trkpt>
      <trkpt lat="41.613180" lon="-5.901650">
        <ele>708.605</ele>
        <time>2022-02-24T04:22:37Z</time>
      </trkpt>
      <trkpt lat="41.613190" lon="-5.901740">
        <ele>708.108</ele>
        <time>2022-02-24T04:23:17Z</time>
      </trkpt>
      <trkpt lat="41.613200" lon="-5.901790">
        <ele>707.840</ele>
        <time>2022-02-24T04:23:57Z</time>
      </trkpt>
      <trkpt lat="41.613230" lon="-5.901910">
        <ele>706.947</ele>
        <time>2022-02-24T04:24:37Z</time>
      </trkpt>
      <trkpt lat="41.613250" lon="-5.901990">
        <ele>706.621</ele>
        <time>2022-02-24T04:25:17Z</time>
      </trkpt>
      <trkpt lat="41.613270" lon="-5.902070">
        <ele>706.547</ele>
        <time>2022-02-24T04:25:57Z</time>
      </trkpt>
      <trkpt lat="41.613320" lon="-5.902180">
        <ele>706.194</ele>
        <time>2022-02-24T04:26:37Z</time>
      </trkpt>
      <trkpt lat="41.613370" lon="-5.902270">
        <ele>705.915</ele>
        <time>2022-02-24T04:27:17Z</time>
      </trkpt>
      <trkpt lat="41.613450" lon="-5.902400">
        <ele>705.589</ele>
        <time>2022-02-24T04:27:57Z</time>
      </trkpt>
      <trkpt lat="41.613560" lon="-5.902530">
        <ele>703.854</ele>
        <time>2022-02-24T04:28:37Z</time>
      </trkpt>
      <trkpt lat="41.613660" lon="-5.902630">
        <ele>701.538</ele>
        <time>2022-02-24T04:29:17Z</time>
      </trkpt>
      <trkpt lat="41.613890" lon="-5.902780">
        <ele>696.070</ele>
        <time>2022-02-24T04:29:57Z</time>
      </trkpt>
      <trkpt lat="41.613920" lon="-5.902800">
        <ele>696.117</ele>
        <time>2022-02-24T04:30:37Z</time>
      </trkpt>
      <trkpt lat="41.614590" lon="-5.903180">
        <ele>694.108</ele>
        <time>2022-02-24T04:31:17Z</time>
      </trkpt>
      <trkpt lat="41.614710" lon="-5.903240">
        <ele>693.462</ele>
        <time>2022-02-24T04:31:57Z</time>
      </trkpt>
      <trkpt lat="41.614820" lon="-5.903280">
        <ele>692.029</ele>
        <time>2022-02-24T04:32:37Z</time>
      </trkpt>
      <trkpt lat="41.614960" lon="-5.903310">
        <ele>689.723</ele>
        <time>2022-02-24T04:33:17Z</time>
      </trkpt>
      <trkpt lat="41.615080" lon="-5.903320">
        <ele>688.799</ele>
        <time>2022-02-24T04:33:57Z</time>
      </trkpt>
      <trkpt lat="41.615260" lon="-5.903340">
        <ele>688.126</ele>
        <time>2022-02-24T04:34:37Z</time>
      </trkpt>
      <trkpt lat="41.615560" lon="-5.903380">
        <ele>687.827</ele>
        <time>2022-02-24T04:35:17Z</time>
      </trkpt>
      <trkpt lat="41.615630" lon="-5.903390">
        <ele>688.091</ele>
        <time>2022-02-24T04:35:57Z</time>
      </trkpt>
      <trkpt lat="41.615740" lon="-5.903420">
        <ele>688.146</ele>
        <time>2022-02-24T04:36:37Z</time>
      </trkpt>
      <trkpt lat="41.615760" lon="-5.903430">
        <ele>688.152</ele>
        <time>2022-02-24T04:37:17Z</time>
      </trkpt>
      <trkpt lat="41.615860" lon="-5.903480">
        <ele>688.453</ele>
        <time>2022-02-24T04:37:57Z</time>
      </trkpt>
      <trkpt lat="41.615950" lon="-5.903540">
        <ele>689.508</ele>
        <time>2022-02-24T04:38:37Z</time>
      </trkpt>
      <trkpt lat="41.616030" lon="-5.903620">
        <ele>690.508</ele>
        <time>2022-02-24T04:39:17Z</time>
      </trkpt>
      <trkpt lat="41.616050" lon="-5.903650">
        <ele>690.554</ele>
        <time>2022-02-24T04:39:57Z</time>
      </trkpt>
      <trkpt lat="41.616100" lon="-5.903710">
        <ele>690.851</ele>
        <time>2022-02-24T04:40:37Z</time>
      </trkpt>
      <trkpt lat="41.616170" lon="-5.903810">
        <ele>691.175</ele>
        <time>2022-02-24T04:41:17Z</time>
      </trkpt>
      <trkpt lat="41.616400" lon="-5.904240">
        <ele>690.531</ele>
        <time>2022-02-24T04:41:57Z</time>
      </trkpt>
      <trkpt lat="41.616500" lon="-5.904430">
        <ele>691.068</ele>
        <time>2022-02-24T04:42:37Z</time>
      </trkpt>
      <trkpt lat="41.617030" lon="-5.905410">
        <ele>689.949</ele>
        <time>2022-02-24T04:43:17Z</time>
      </trkpt>
      <trkpt lat="41.617170" lon="-5.905680">
        <ele>691.413</ele>
        <time>2022-02-24T04:43:57Z</time>
      </trkpt>
      <trkpt lat="41.617230" lon="-5.905810">
        <ele>692.358</ele>
        <time>2022-02-24T04:44:37Z</time>
      </trkpt>
      <trkpt lat="41.617260" lon="-5.905890">
        <ele>692.234</ele>
        <time>2022-02-24T04:45:17Z</time>
      </trkpt>
      <trkpt lat="41.617310" lon="-5.906020">
        <ele>691.955</ele>
        <time>2022-02-24T04:45:57Z</time>
      </trkpt>
      <trkpt lat="41.617330" lon="-5.906120">
        <ele>691.310</ele>
        <time>2022-02-24T04:46:37Z</time>
      </trkpt>
      <trkpt lat="41.617340" lon="-5.906240">
        <ele>690.608</ele>
        <time>2022-02-24T04:47:17Z</time>
      </trkpt>
      <trkpt lat="41.617410" lon="-5.906910">
        <ele>690.612</ele>
        <time>2022-02-24T04:47:57Z</time>
      </trkpt>
      <trkpt lat="41.617430" lon="-5.907110">
        <ele>691.249</ele>
        <time>2022-02-24T04:48:37Z</time>
      </trkpt>
      <trkpt lat="41.617440" lon="-5.907180">
        <ele>691.513</ele>
        <time>2022-02-24T04:49:17Z</time>
      </trkpt>
      <trkpt lat="41.617460" lon="-5.907300">
        <ele>692.349</ele>
        <time>2022-02-24T04:49:57Z</time>
      </trkpt>
      <trkpt lat="41.617500" lon="-5.907430">
        <ele>693.736</ele>
        <time>2022-02-24T04:50:37Z</time>
      </trkpt>
      <trkpt lat="41.617510" lon="-5.907440">
        <ele>693.997</ele>
        <time>2022-02-24T04:51:17Z</time>
      </trkpt>
      <trkpt lat="41.617530" lon="-5.907510">
        <ele>694.291</ele>
        <time>2022-02-24T04:51:57Z</time>
      </trkpt>
      <trkpt lat="41.617570" lon="-5.907580">
        <ele>694.136</ele>
        <time>2022-02-24T04:52:37Z</time>
      </trkpt>
      <trkpt lat="41.617600" lon="-5.907640">
        <ele>694.015</ele>
        <time>2022-02-24T04:53:17Z</time>
      </trkpt>
      <trkpt lat="41.617620" lon="-5.907680">
        <ele>693.965</ele>
        <time>2022-02-24T04:53:57Z</time>
      </trkpt>
      <trkpt lat="41.617660" lon="-5.907750">
        <ele>693.711</ele>
        <time>2022-02-24T04:54:37Z</time>
      </trkpt>
      <trkpt lat="41.617750" lon="-5.907860">
        <ele>693.008</ele>
        <time>2022-02-24T04:55:17Z</time>
      </trkpt>
      <trkpt lat="41.617960" lon="-5.908100">
        <ele>687.950</ele>
        <time>2022-02-24T04:55:57Z</time>
      </trkpt>
      <trkpt lat="41.617990" lon="-5.908130">
        <ele>687.337</ele>
        <time>2022-02-24T04:56:37Z</time>
      </trkpt>
      <trkpt lat="41.618030" lon="-5.908190">
        <ele>686.371</ele>
        <time>2022-02-24T04:57:17Z</time>
      </trkpt>
      <trkpt lat="41.618100" lon="-5.908280">
        <ele>685.677</ele>
        <time>2022-02-24T04:57:57Z</time>
      </trkpt>
      <trkpt lat="41.618110" lon="-5.908310">
        <ele>685.594</ele>
        <time>2022-02-24T04:58:37Z</time>
      </trkpt>
      <trkpt lat="41.618130" lon="-5.908340">
        <ele>685.565</ele>
        <time>2022-02-24T04:59:17Z</time>
      </trkpt>
      <trkpt lat="41.618180" lon="-5.908460">
        <ele>686.329</ele>
        <time>2022-02-24T04:59:57Z</time>
      </trkpt>
      <trkpt lat="41.618240" lon="-5.908620">
        <ele>687.794</ele>
        <time>2022-02-24T05:00:37Z</time>
      </trkpt>
      <trkpt lat="41.618270" lon="-5.908740">
        <ele>688.712</ele>
        <time>2022-02-24T05:01:17Z</time>
      </trkpt>
      <trkpt lat="41.618270" lon="-5.908770">
        <ele>688.832</ele>
        <time>2022-02-24T05:01:57Z</time>
      </trkpt>
      <trkpt lat="41.618310" lon="-5.908980">
        <ele>690.105</ele>
        <time>2022-02-24T05:02:37Z</time>
      </trkpt>
      <trkpt lat="41.618340" lon="-5.909210">
        <ele>691.208</ele>
        <time>2022-02-24T05:03:17Z</time>
      </trkpt>
      <trkpt lat="41.618370" lon="-5.909370">
        <ele>692.010</ele>
        <time>2022-02-24T05:03:57Z</time>
      </trkpt>
      <trkpt lat="41.618450" lon="-5.909800">
        <ele>693.347</ele>
        <time>2022-02-24T05:04:37Z</time>
      </trkpt>
      <trkpt lat="41.618510" lon="-5.910050">
        <ele>695.061</ele>
        <time>2022-02-24T05:05:17Z</time>
      </trkpt>
      <trkpt lat="41.618550" lon="-5.910140">
        <ele>695.887</ele>
        <time>2022-02-24T05:05:57Z</time>
      </trkpt>
      <trkpt lat="41.618630" lon="-5.910350">
        <ele>697.444</ele>
        <time>2022-02-24T05:06:37Z</time>
      </trkpt>
      <trkpt lat="41.618680" lon="-5.910450">
        <ele>698.085</ele>
        <time>2022-02-24T05:07:17Z</time>
      </trkpt>
      <trkpt lat="41.618740" lon="-5.910540">
        <ele>698.439</ele>
        <time>2022-02-24T05:07:57Z</time>
      </trkpt>
      <trkpt lat="41.618850" lon="-5.910690">
        <ele>697.914</ele>
        <time>2022-02-24T05:08:37Z</time>
      </trkpt>
      <trkpt lat="41.618950" lon="-5.910800">
        <ele>697.792</ele>
        <time>2022-02-24T05:09:17Z</time>
      </trkpt>
      <trkpt lat="41.619140" lon="-5.911010">
        <ele>698.273</ele>
        <time>2022-02-24T05:09:57Z</time>
      </trkpt>
      <trkpt lat="41.619280" lon="-5.911160">
        <ele>700.420</ele>
        <time>2022-02-24T05:10:37Z</time>
      </trkpt>
      <trkpt lat="41.619680" lon="-5.911620">
        <ele>706.608</ele>
        <time>2022-02-24T05:11:17Z</time>
      </trkpt>
      <trkpt lat="41.619780" lon="-5.911760">
        <ele>707.268</ele>
        <time>2022-02-24T05:11:57Z</time>
      </trkpt>
      <trkpt lat="41.619880" lon="-5.911920">
        <ele>708.315</ele>
        <time>2022-02-24T05:12:37Z</time>
      </trkpt>
      <trkpt lat="41.619940" lon="-5.912060">
        <ele>710.029</ele>
        <time>2022-02-24T05:13:17Z</time>
      </trkpt>
      <trkpt lat="41.620030" lon="-5.912320">
        <ele>712.665</ele>
        <time>2022-02-24T05:13:57Z</time>
      </trkpt>
      <trkpt lat="41.620270" lon="-5.913110">
        <ele>715.952</ele>
        <time>2022-02-24T05:14:37Z</time>
      </trkpt>
      <trkpt lat="41.620290" lon="-5.913180">
        <ele>716.213</ele>
        <time>2022-02-24T05:15:17Z</time>
      </trkpt>
      <trkpt lat="41.620390" lon="-5.913570">
        <ele>719.057</ele>
        <time>2022-02-24T05:15:57Z</time>
      </trkpt>
      <trkpt lat="41.620450" lon="-5.913790">
        <ele>719.812</ele>
        <time>2022-02-24T05:16:37Z</time>
      </trkpt>
      <trkpt lat="41.620480" lon="-5.913910">
        <ele>720.296</ele>
        <time>2022-02-24T05:17:17Z</time>
      </trkpt>
      <trkpt lat="41.620500" lon="-5.914020">
        <ele>720.031</ele>
        <time>2022-02-24T05:17:57Z</time>
      </trkpt>
      <trkpt lat="41.620550" lon="-5.914250">
        <ele>719.324</ele>
        <time>2022-02-24T05:18:37Z</time>
      </trkpt>
      <trkpt lat="41.620560" lon="-5.914310">
        <ele>719.008</ele>
        <time>2022-02-24T05:19:17Z</time>
      </trkpt>
      <trkpt lat="41.620640" lon="-5.914720">
        <ele>717.918</ele>
        <time>2022-02-24T05:19:57Z</time>
      </trkpt>
      <trkpt lat="41.620680" lon="-5.914960">
        <ele>718.885</ele>
        <time>2022-02-24T05:20:37Z</time>
      </trkpt>
      <trkpt lat="41.620700" lon="-5.915060">
        <ele>719.389</ele>
        <time>2022-02-24T05:21:17Z</time>
      </trkpt>
      <trkpt lat="41.620720" lon="-5.915190">
        <ele>719.995</ele>
        <time>2022-02-24T05:21:57Z</time>
      </trkpt>
      <trkpt lat="41.620760" lon="-5.915420">
        <ele>719.962</ele>
        <time>2022-02-24T05:22:37Z</time>
      </trkpt>
      <trkpt lat="41.620770" lon="-5.915480">
        <ele>719.683</ele>
        <time>2022-02-24T05:23:17Z</time>
      </trkpt>
      <trkpt lat="41.620820" lon="-5.915650">
        <ele>717.717</ele>
        <time>2022-02-24T05:23:57Z</time>
      </trkpt>
      <trkpt lat="41.620870" lon="-5.915860">
        <ele>714.722</ele>
        <time>2022-02-24T05:24:37Z</time>
      </trkpt>
      <trkpt lat="41.620950" lon="-5.916150">
        <ele>712.078</ele>
        <time>2022-02-24T05:25:17Z</time>
      </trkpt>
      <trkpt lat="41.621130" lon="-5.916840">
        <ele>708.933</ele>
        <time>2022-02-24T05:25:57Z</time>
      </trkpt>
      <trkpt lat="41.621220" lon="-5.917150">
        <ele>707.526</ele>
        <time>2022-02-24T05:26:37Z</time>
      </trkpt>
      <trkpt lat="41.621260" lon="-5.917360">
        <ele>705.908</ele>
        <time>2022-02-24T05:27:17Z</time>
      </trkpt>
      <trkpt lat="41.621280" lon="-5.917450">
        <ele>705.146</ele>
        <time>2022-02-24T05:27:57Z</time>
      </trkpt>
      <trkpt lat="41.621280" lon="-5.917470">
        <ele>705.043</ele>
        <time>2022-02-24T05:28:37Z</time>
      </trkpt>
      <trkpt lat="41.621300" lon="-5.917550">
        <ele>704.427</ele>
        <time>2022-02-24T05:29:17Z</time>
      </trkpt>
      <trkpt lat="41.621300" lon="-5.917660">
        <ele>703.973</ele>
        <time>2022-02-24T05:29:57Z</time>
      </trkpt>
      <trkpt lat="41.621300" lon="-5.917760">
        <ele>703.490</ele>
        <time>2022-02-24T05:30:37Z</time>
      </trkpt>
      <trkpt lat="41.621300" lon="-5.917870">
        <ele>703.041</ele>
        <time>2022-02-24T05:31:17Z</time>
      </trkpt>
      <trkpt lat="41.621290" lon="-5.918020">
        <ele>702.515</ele>
        <time>2022-02-24T05:31:57Z</time>
      </trkpt>
      <trkpt lat="41.621140" lon="-5.918860">
        <ele>697.530</ele>
        <time>2022-02-24T05:32:37Z</time>
      </trkpt>
      <trkpt lat="41.621140" lon="-5.918890">
        <ele>697.369</ele>
        <time>2022-02-24T05:33:17Z</time>
      </trkpt>
      <trkpt lat="41.621080" lon="-5.919230">
        <ele>694.904</ele>
        <time>2022-02-24T05:33:57Z</time>
      </trkpt>
      <trkpt lat="41.621040" lon="-5.919460">
        <ele>694.224</ele>
        <time>2022-02-24T05:34:37Z</time>
      </trkpt>
      <trkpt lat="41.621000" lon="-5.919700">
        <ele>694.008</ele>
        <time>2022-02-24T05:35:17Z</time>
      </trkpt>
      <trkpt lat="41.620980" lon="-5.919810">
        <ele>693.765</ele>
        <time>2022-02-24T05:35:57Z</time>
      </trkpt>
      <trkpt lat="41.620920" lon="-5.920170">
        <ele>691.872</ele>
        <time>2022-02-24T05:36:37Z</time>
      </trkpt>
      <trkpt lat="41.620880" lon="-5.920400">
        <ele>690.346</ele>
        <time>2022-02-24T05:37:17Z</time>
      </trkpt>
      <trkpt lat="41.620870" lon="-5.920440">
        <ele>690.032</ele>
        <time>2022-02-24T05:37:57Z</time>
      </trkpt>
      <trkpt lat="41.620760" lon="-5.921110">
        <ele>688.959</ele>
        <time>2022-02-24T05:38:37Z</time>
      </trkpt>
      <trkpt lat="41.620740" lon="-5.921410">
        <ele>691.870</ele>
        <time>2022-02-24T05:39:17Z</time>
      </trkpt>
      <trkpt lat="41.620740" lon="-5.921760">
        <ele>694.264</ele>
        <time>2022-02-24T05:39:57Z</time>
      </trkpt>
      <trkpt lat="41.620750" lon="-5.922030">
        <ele>695.549</ele>
        <time>2022-02-24T05:40:37Z</time>
      </trkpt>
      <trkpt lat="41.620780" lon="-5.922290">
        <ele>695.639</ele>
        <time>2022-02-24T05:41:17Z</time>
      </trkpt>
      <trkpt lat="41.620820" lon="-5.922540">
        <ele>694.701</ele>
        <time>2022-02-24T05:41:57Z</time>
      </trkpt>
      <trkpt lat="41.620870" lon="-5.922770">
        <ele>694.721</ele>
        <time>2022-02-24T05:42:37Z</time>
      </trkpt>
      <trkpt lat="41.620940" lon="-5.922990">
        <ele>694.108</ele>
        <time>2022-02-24T05:43:17Z</time>
      </trkpt>
      <trkpt lat="41.620950" lon="-5.923020">
        <ele>694.012</ele>
        <time>2022-02-24T05:43:57Z</time>
      </trkpt>
      <trkpt lat="41.621000" lon="-5.923170">
        <ele>692.649</ele>
        <time>2022-02-24T05:44:37Z</time>
      </trkpt>
      <trkpt lat="41.621020" lon="-5.923210">
        <ele>692.383</ele>
        <time>2022-02-24T05:45:17Z</time>
      </trkpt>
      <trkpt lat="41.621110" lon="-5.923450">
        <ele>689.929</ele>
        <time>2022-02-24T05:45:57Z</time>
      </trkpt>
      <trkpt lat="41.621200" lon="-5.923620">
        <ele>689.146</ele>
        <time>2022-02-24T05:46:37Z</time>
      </trkpt>
      <trkpt lat="41.621290" lon="-5.923830">
        <ele>688.617</ele>
        <time>2022-02-24T05:47:17Z</time>
      </trkpt>
      <trkpt lat="41.621520" lon="-5.924310">
        <ele>689.361</ele>
        <time>2022-02-24T05:47:57Z</time>
      </trkpt>
      <trkpt lat="41.621660" lon="-5.924650">
        <ele>689.496</ele>
        <time>2022-02-24T05:48:37Z</time>
      </trkpt>
      <trkpt lat="41.621670" lon="-5.924670">
        <ele>689.478</ele>
        <time>2022-02-24T05:49:17Z</time>
      </trkpt>
      <trkpt lat="41.621730" lon="-5.924810">
        <ele>688.933</ele>
        <time>2022-02-24T05:49:57Z</time>
      </trkpt>
      <trkpt lat="41.621780" lon="-5.925020">
        <ele>687.226</ele>
        <time>2022-02-24T05:50:37Z</time>
      </trkpt>
      <trkpt lat="41.621800" lon="-5.925100">
        <ele>685.708</ele>
        <time>2022-02-24T05:51:17Z</time>
      </trkpt>
      <trkpt lat="41.621850" lon="-5.925330">
        <ele>681.336</ele>
        <time>2022-02-24T05:51:57Z</time>
      </trkpt>
      <trkpt lat="41.621890" lon="-5.925530">
        <ele>678.013</ele>
        <time>2022-02-24T05:52:37Z</time>
      </trkpt>
      <trkpt lat="41.621890" lon="-5.925560">
        <ele>677.597</ele>
        <time>2022-02-24T05:53:17Z</time>
      </trkpt>
      <trkpt lat="41.622070" lon="-5.926490">
        <ele>670.033</ele>
        <time>2022-02-24T05:53:57Z</time>
      </trkpt>
      <trkpt lat="41.622110" lon="-5.926730">
        <ele>670.090</ele>
        <time>2022-02-24T05:54:37Z</time>
      </trkpt>
      <trkpt lat="41.622240" lon="-5.927430">
        <ele>670.091</ele>
        <time>2022-02-24T05:55:17Z</time>
      </trkpt>
      <trkpt lat="41.622290" lon="-5.927660">
        <ele>670.075</ele>
        <time>2022-02-24T05:55:57Z</time>
      </trkpt>
      <trkpt lat="41.622340" lon="-5.927970">
        <ele>670.090</ele>
        <time>2022-02-24T05:56:37Z</time>
      </trkpt>
      <trkpt lat="41.622370" lon="-5.928130">
        <ele>670.038</ele>
        <time>2022-02-24T05:57:17Z</time>
      </trkpt>
      <trkpt lat="41.622540" lon="-5.929050">
        <ele>670.070</ele>
        <time>2022-02-24T05:57:57Z</time>
      </trkpt>
      <trkpt lat="41.622700" lon="-5.929980">
        <ele>672.717</ele>
        <time>2022-02-24T05:58:37Z</time>
      </trkpt>
      <trkpt lat="41.622750" lon="-5.930210">
        <ele>675.208</ele>
        <time>2022-02-24T05:59:17Z</time>
      </trkpt>
      <trkpt lat="41.622830" lon="-5.930680">
        <ele>681.232</ele>
        <time>2022-02-24T05:59:57Z</time>
      </trkpt>
      <trkpt lat="41.622870" lon="-5.930920">
        <ele>684.969</ele>
        <time>2022-02-24T06:00:37Z</time>
      </trkpt>
      <trkpt lat="41.622890" lon="-5.931000">
        <ele>685.723</ele>
        <time>2022-02-24T06:01:17Z</time>
      </trkpt>
      <trkpt lat="41.622920" lon="-5.931150">
        <ele>686.899</ele>
        <time>2022-02-24T06:01:57Z</time>
      </trkpt>
      <trkpt lat="41.622930" lon="-5.931200">
        <ele>687.196</ele>
        <time>2022-02-24T06:02:37Z</time>
      </trkpt>
      <trkpt lat="41.622980" lon="-5.931370">
        <ele>687.787</ele>
        <time>2022-02-24T06:03:17Z</time>
      </trkpt>
      <trkpt lat="41.622990" lon="-5.931410">
        <ele>687.941</ele>
        <time>2022-02-24T06:03:57Z</time>
      </trkpt>
      <trkpt lat="41.623050" lon="-5.931560">
        <ele>688.666</ele>
        <time>2022-02-24T06:04:37Z</time>
      </trkpt>
      <trkpt lat="41.623060" lon="-5.931590">
        <ele>688.873</ele>
        <time>2022-02-24T06:05:17Z</time>
      </trkpt>
      <trkpt lat="41.623110" lon="-5.931700">
        <ele>690.285</ele>
        <time>2022-02-24T06:05:57Z</time>
      </trkpt>
      <trkpt lat="41.623160" lon="-5.931790">
        <ele>691.813</ele>
        <time>2022-02-24T06:06:37Z</time>
      </trkpt>
      <trkpt lat="41.623160" lon="-5.931810">
        <ele>692.408</ele>
        <time>2022-02-24T06:07:17Z</time>
      </trkpt>
      <trkpt lat="41.623250" lon="-5.931950">
        <ele>693.656</ele>
        <time>2022-02-24T06:07:57Z</time>
      </trkpt>
      <trkpt lat="41.623270" lon="-5.931980">
        <ele>693.973</ele>
        <time>2022-02-24T06:08:37Z</time>
      </trkpt>
      <trkpt lat="41.623340" lon="-5.932090">
        <ele>695.497</ele>
        <time>2022-02-24T06:09:17Z</time>
      </trkpt>
      <trkpt lat="41.623400" lon="-5.932150">
        <ele>694.773</ele>
        <time>2022-02-24T06:09:57Z</time>
      </trkpt>
      <trkpt lat="41.623440" lon="-5.932200">
        <ele>694.460</ele>
        <time>2022-02-24T06:10:37Z</time>
      </trkpt>
      <trkpt lat="41.623560" lon="-5.932320">
        <ele>691.241</ele>
        <time>2022-02-24T06:11:17Z</time>
      </trkpt>
      <trkpt lat="41.623630" lon="-5.932380">
        <ele>690.245</ele>
        <time>2022-02-24T06:11:57Z</time>
      </trkpt>
      <trkpt lat="41.623760" lon="-5.932470">
        <ele>690.730</ele>
        <time>2022-02-24T06:12:37Z</time>
      </trkpt>
      <trkpt lat="41.623860" lon="-5.932530">
        <ele>691.049</ele>
        <time>2022-02-24T06:13:17Z</time>
      </trkpt>
      <trkpt lat="41.624030" lon="-5.932590">
        <ele>692.102</ele>
        <time>2022-02-24T06:13:57Z</time>
      </trkpt>
      <trkpt lat="41.624370" lon="-5.932720">
        <ele>690.122</ele>
        <time>2022-02-24T06:14:37Z</time>
      </trkpt>
      <trkpt lat="41.624550" lon="-5.932790">
        <ele>688.308</ele>
        <time>2022-02-24T06:15:17Z</time>
      </trkpt>
      <trkpt lat="41.624580" lon="-5.932800">
        <ele>688.273</ele>
        <time>2022-02-24T06:15:57Z</time>
      </trkpt>
      <trkpt lat="41.624720" lon="-5.932860">
        <ele>687.910</ele>
        <time>2022-02-24T06:16:37Z</time>
      </trkpt>
      <trkpt lat="41.624810" lon="-5.932900">
        <ele>688.414</ele>
        <time>2022-02-24T06:17:17Z</time>
      </trkpt>
      <trkpt lat="41.624880" lon="-5.932950">
        <ele>688.720</ele>
        <time>2022-02-24T06:17:57Z</time>
      </trkpt>
      <trkpt lat="41.624960" lon="-5.932990">
        <ele>688.837</ele>
        <time>2022-02-24T06:18:37Z</time>
      </trkpt>
      <trkpt lat="41.625080" lon="-5.933080">
        <ele>689.018</ele>
        <time>2022-02-24T06:19:17Z</time>
      </trkpt>
      <trkpt lat="41.625180" lon="-5.933170">
        <ele>689.062</ele>
        <time>2022-02-24T06:19:57Z</time>
      </trkpt>
      <trkpt lat="41.625220" lon="-5.933210">
        <ele>689.087</ele>
        <time>2022-02-24T06:20:37Z</time>
      </trkpt>
      <trkpt lat="41.625290" lon="-5.933280">
        <ele>689.083</ele>
        <time>2022-02-24T06:21:17Z</time>
      </trkpt>
      <trkpt lat="41.625370" lon="-5.933380">
        <ele>689.625</ele>
        <time>2022-02-24T06:21:57Z</time>
      </trkpt>
      <trkpt lat="41.625430" lon="-5.933460">
        <ele>690.517</ele>
        <time>2022-02-24T06:22:37Z</time>
      </trkpt>
      <trkpt lat="41.625480" lon="-5.933540">
        <ele>691.608</ele>
        <time>2022-02-24T06:23:17Z</time>
      </trkpt>
      <trkpt lat="41.625570" lon="-5.933670">
        <ele>693.337</ele>
        <time>2022-02-24T06:23:57Z</time>
      </trkpt>
      <trkpt lat="41.625710" lon="-5.933910">
        <ele>694.144</ele>
        <time>2022-02-24T06:24:37Z</time>
      </trkpt>
      <trkpt lat="41.625780" lon="-5.934020">
        <ele>695.128</ele>
        <time>2022-02-24T06:25:17Z</time>
      </trkpt>
      <trkpt lat="41.625940" lon="-5.934280">
        <ele>697.324</ele>
        <time>2022-02-24T06:25:57Z</time>
      </trkpt>
      <trkpt lat="41.626050" lon="-5.934470">
        <ele>697.941</ele>
        <time>2022-02-24T06:26:37Z</time>
      </trkpt>
      <trkpt lat="41.626080" lon="-5.934510">
        <ele>698.062</ele>
        <time>2022-02-24T06:27:17Z</time>
      </trkpt>
      <trkpt lat="41.626150" lon="-5.934650">
        <ele>698.896</ele>
        <time>2022-02-24T06:27:57Z</time>
      </trkpt>
      <trkpt lat="41.626190" lon="-5.934720">
        <ele>699.141</ele>
        <time>2022-02-24T06:28:37Z</time>
      </trkpt>
      <trkpt lat="41.626290" lon="-5.934950">
        <ele>699.142</ele>
        <time>2022-02-24T06:29:17Z</time>
      </trkpt>
      <trkpt lat="41.626320" lon="-5.935030">
        <ele>699.522</ele>
        <time>2022-02-24T06:29:57Z</time>
      </trkpt>
      <trkpt lat="41.626370" lon="-5.935170">
        <ele>700.314</ele>
        <time>2022-02-24T06:30:37Z</time>
      </trkpt>
      <trkpt lat="41.626460" lon="-5.935450">
        <ele>701.408</ele>
        <time>2022-02-24T06:31:17Z</time>
      </trkpt>
      <trkpt lat="41.626490" lon="-5.935600">
        <ele>702.313</ele>
        <time>2022-02-24T06:31:57Z</time>
      </trkpt>
      <trkpt lat="41.626530" lon="-5.935780">
        <ele>703.130</ele>
        <time>2022-02-24T06:32:37Z</time>
      </trkpt>
      <trkpt lat="41.626630" lon="-5.936430">
        <ele>707.154</ele>
        <time>2022-02-24T06:33:17Z</time>
      </trkpt>
      <trkpt lat="41.626660" lon="-5.936640">
        <ele>708.080</ele>
        <time>2022-02-24T06:33:57Z</time>
      </trkpt>
      <trkpt lat="41.626690" lon="-5.936780">
        <ele>708.137</ele>
        <time>2022-02-24T06:34:37Z</time>
      </trkpt>
      <trkpt lat="41.626710" lon="-5.936870">
        <ele>708.198</ele>
        <time>2022-02-24T06:35:17Z</time>
      </trkpt>
      <trkpt lat="41.626760" lon="-5.937090">
        <ele>708.432</ele>
        <time>2022-02-24T06:35:57Z</time>
      </trkpt>
      <trkpt lat="41.626820" lon="-5.937270">
        <ele>708.787</ele>
        <time>2022-02-24T06:36:37Z</time>
      </trkpt>
      <trkpt lat="41.626900" lon="-5.937400">
        <ele>708.343</ele>
        <time>2022-02-24T06:37:17Z</time>
      </trkpt>
      <trkpt lat="41.626960" lon="-5.937500">
        <ele>707.964</ele>
        <time>2022-02-24T06:37:57Z</time>
      </trkpt>
      <trkpt lat="41.627000" lon="-5.937550">
        <ele>708.310</ele>
        <time>2022-02-24T06:38:37Z</time>
      </trkpt>
      <trkpt lat="41.627090" lon="-5.937650">
        <ele>708.808</ele>
        <time>2022-02-24T06:39:17Z</time>
      </trkpt>
      <trkpt lat="41.627240" lon="-5.937780">
        <ele>709.293</ele>
        <time>2022-02-24T06:39:57Z</time>
      </trkpt>
      <trkpt lat="41.627250" lon="-5.937780">
        <ele>709.340</ele>
        <time>2022-02-24T06:40:37Z</time>
      </trkpt>
      <trkpt lat="41.627380" lon="-5.937860">
        <ele>712.174</ele>
        <time>2022-02-24T06:41:17Z</time>
      </trkpt>
      <trkpt lat="41.627520" lon="-5.937900">
        <ele>713.890</ele>
        <time>2022-02-24T06:41:57Z</time>
      </trkpt>
      <trkpt lat="41.628190" lon="-5.938030">
        <ele>718.167</ele>
        <time>2022-02-24T06:42:37Z</time>
      </trkpt>
      <trkpt lat="41.628390" lon="-5.938070">
        <ele>717.928</ele>
        <time>2022-02-24T06:43:17Z</time>
      </trkpt>
      <trkpt lat="41.628520" lon="-5.938100">
        <ele>717.742</ele>
        <time>2022-02-24T06:43:57Z</time>
      </trkpt>
      <trkpt lat="41.628660" lon="-5.938160">
        <ele>717.757</ele>
        <time>2022-02-24T06:44:37Z</time>
      </trkpt>
      <trkpt lat="41.628800" lon="-5.938240">
        <ele>717.917</ele>
        <time>2022-02-24T06:45:17Z</time>
      </trkpt>
      <trkpt lat="41.628800" lon="-5.938250">
        <ele>717.987</ele>
        <time>2022-02-24T06:45:57Z</time>
      </trkpt>
      <trkpt lat="41.628900" lon="-5.938320">
        <ele>718.015</ele>
        <time>2022-02-24T06:46:37Z</time>
      </trkpt>
      <trkpt lat="41.629050" lon="-5.938440">
        <ele>719.308</ele>
        <time>2022-02-24T06:47:17Z</time>
      </trkpt>
      <trkpt lat="41.629110" lon="-5.938480">
        <ele>719.780</ele>
        <time>2022-02-24T06:47:57Z</time>
      </trkpt>
      <trkpt lat="41.629300" lon="-5.938640">
        <ele>721.737</ele>
        <time>2022-02-24T06:48:37Z</time>
      </trkpt>
      <trkpt lat="41.629420" lon="-5.938780">
        <ele>723.211</ele>
        <time>2022-02-24T06:49:17Z</time>
      </trkpt>
      <trkpt lat="41.629480" lon="-5.938870">
        <ele>724.017</ele>
        <time>2022-02-24T06:49:57Z</time>
      </trkpt>
      <trkpt lat="41.629570" lon="-5.939000">
        <ele>725.114</ele>
        <time>2022-02-24T06:50:37Z</time>
      </trkpt>
      <trkpt lat="41.629620" lon="-5.939110">
        <ele>725.755</ele>
        <time>2022-02-24T06:51:17Z</time>
      </trkpt>
      <trkpt lat="41.629770" lon="-5.939470">
        <ele>724.599</ele>
        <time>2022-02-24T06:51:57Z</time>
      </trkpt>
      <trkpt lat="41.629950" lon="-5.939890">
        <ele>723.094</ele>
        <time>2022-02-24T06:52:37Z</time>
      </trkpt>
      <trkpt lat="41.630030" lon="-5.940100">
        <ele>722.277</ele>
        <time>2022-02-24T06:53:17Z</time>
      </trkpt>
      <trkpt lat="41.630190" lon="-5.940480">
        <ele>720.561</ele>
        <time>2022-02-24T06:53:57Z</time>
      </trkpt>
      <trkpt lat="41.630380" lon="-5.940940">
        <ele>717.827</ele>
        <time>2022-02-24T06:54:37Z</time>
      </trkpt>
      <trkpt lat="41.630430" lon="-5.941060">
        <ele>716.908</ele>
        <time>2022-02-24T06:55:17Z</time>
      </trkpt>
      <trkpt lat="41.630470" lon="-5.941150">
        <ele>716.586</ele>
        <time>2022-02-24T06:55:57Z</time>
      </trkpt>
      <trkpt lat="41.630620" lon="-5.941500">
        <ele>717.813</ele>
        <time>2022-02-24T06:56:37Z</time>
      </trkpt>
      <trkpt lat="41.630690" lon="-5.941640">
        <ele>719.137</ele>
        <time>2022-02-24T06:57:17Z</time>
      </trkpt>
      <trkpt lat="41.630710" lon="-5.941660">
        <ele>719.233</ele>
        <time>2022-02-24T06:57:57Z</time>
      </trkpt>
      <trkpt lat="41.630810" lon="-5.941820">
        <ele>718.940</ele>
        <time>2022-02-24T06:58:37Z</time>
      </trkpt>
      <trkpt lat="41.630950" lon="-5.942000">
        <ele>718.161</ele>
        <time>2022-02-24T06:59:17Z</time>
      </trkpt>
      <trkpt lat="41.631080" lon="-5.942150">
        <ele>716.645</ele>
        <time>2022-02-24T06:59:57Z</time>
      </trkpt>
      <trkpt lat="41.631160" lon="-5.942250">
        <ele>715.610</ele>
        <time>2022-02-24T07:00:37Z</time>
      </trkpt>
      <trkpt lat="41.631310" lon="-5.942460">
        <ele>714.019</ele>
        <time>2022-02-24T07:01:17Z</time>
      </trkpt>
      <trkpt lat="41.631340" lon="-5.942510">
        <ele>713.609</ele>
        <time>2022-02-24T07:01:57Z</time>
      </trkpt>
      <trkpt lat="41.631370" lon="-5.942570">
        <ele>713.719</ele>
        <time>2022-02-24T07:02:37Z</time>
      </trkpt>
      <trkpt lat="41.631410" lon="-5.942650">
        <ele>714.008</ele>
        <time>2022-02-24T07:03:17Z</time>
      </trkpt>
      <trkpt lat="41.631420" lon="-5.942700">
        <ele>714.470</ele>
        <time>2022-02-24T07:03:57Z</time>
      </trkpt>
      <trkpt lat="41.631470" lon="-5.942830">
        <ele>714.847</ele>
        <time>2022-02-24T07:04:37Z</time>
      </trkpt>
      <trkpt lat="41.631490" lon="-5.942910">
        <ele>714.991</ele>
        <time>2022-02-24T07:05:17Z</time>
      </trkpt>
      <trkpt lat="41.631500" lon="-5.942940">
        <ele>715.037</ele>
        <time>2022-02-24T07:05:57Z</time>
      </trkpt>
      <trkpt lat="41.631510" lon="-5.942980">
        <ele>715.064</ele>
        <time>2022-02-24T07:06:37Z</time>
      </trkpt>
      <trkpt lat="41.631510" lon="-5.943040">
        <ele>715.165</ele>
        <time>2022-02-24T07:07:17Z</time>
      </trkpt>
      <trkpt lat="41.631520" lon="-5.943120">
        <ele>714.659</ele>
        <time>2022-02-24T07:07:57Z</time>
      </trkpt>
      <trkpt lat="41.631530" lon="-5.943180">
        <ele>714.174</ele>
        <time>2022-02-24T07:08:37Z</time>
      </trkpt>
      <trkpt lat="41.631530" lon="-5.943230">
        <ele>713.755</ele>
        <time>2022-02-24T07:09:17Z</time>
      </trkpt>
      <trkpt lat="41.631530" lon="-5.943410">
        <ele>712.407</ele>
        <time>2022-02-24T07:09:57Z</time>
      </trkpt>
      <trkpt lat="41.631510" lon="-5.943790">
        <ele>710.017</ele>
        <time>2022-02-24T07:10:37Z</time>
      </trkpt>
      <trkpt lat="41.631510" lon="-5.943900">
        <ele>709.208</ele>
        <time>2022-02-24T07:11:17Z</time>
      </trkpt>
      <trkpt lat="41.631520" lon="-5.944060">
        <ele>708.134</ele>
        <time>2022-02-24T07:11:57Z</time>
      </trkpt>
      <trkpt lat="41.631540" lon="-5.944210">
        <ele>707.311</ele>
        <time>2022-02-24T07:12:37Z</time>
      </trkpt>
      <trkpt lat="41.631550" lon="-5.944270">
        <ele>707.095</ele>
        <time>2022-02-24T07:13:17Z</time>
      </trkpt>
      <trkpt lat="41.631580" lon="-5.944420">
        <ele>706.471</ele>
        <time>2022-02-24T07:13:57Z</time>
      </trkpt>
      <trkpt lat="41.631600" lon="-5.944500">
        <ele>706.828</ele>
        <time>2022-02-24T07:14:37Z</time>
      </trkpt>
      <trkpt lat="41.631610" lon="-5.944560">
        <ele>707.419</ele>
        <time>2022-02-24T07:15:17Z</time>
      </trkpt>
      <trkpt lat="41.631660" lon="-5.944700">
        <ele>708.863</ele>
        <time>2022-02-24T07:15:57Z</time>
      </trkpt>
      <trkpt lat="41.631670" lon="-5.944720">
        <ele>708.928</ele>
        <time>2022-02-24T07:16:37Z</time>
      </trkpt>
      <trkpt lat="41.631750" lon="-5.944920">
        <ele>710.062</ele>
        <time>2022-02-24T07:17:17Z</time>
      </trkpt>
      <trkpt lat="41.631790" lon="-5.945010">
        <ele>710.383</ele>
        <time>2022-02-24T07:17:57Z</time>
      </trkpt>
      <trkpt lat="41.631800" lon="-5.945020">
        <ele>710.311</ele>
        <time>2022-02-24T07:18:37Z</time>
      </trkpt>
      <trkpt lat="41.631830" lon="-5.945070">
        <ele>710.308</ele>
        <time>2022-02-24T07:19:17Z</time>
      </trkpt>
      <trkpt lat="41.631870" lon="-5.945140">
        <ele>710.415</ele>
        <time>2022-02-24T07:19:57Z</time>
      </trkpt>
      <trkpt lat="41.631940" lon="-5.945240">
        <ele>710.622</ele>
        <time>2022-02-24T07:20:37Z</time>
      </trkpt>
      <trkpt lat="41.632200" lon="-5.945590">
        <ele>716.466</ele>
        <time>2022-02-24T07:21:17Z</time>
      </trkpt>
      <trkpt lat="41.632330" lon="-5.945760">
        <ele>717.982</ele>
        <time>2022-02-24T07:21:57Z</time>
      </trkpt>
      <trkpt lat="41.632460" lon="-5.945930">
        <ele>717.869</ele>
        <time>2022-02-24T07:22:37Z</time>
      </trkpt>
      <trkpt lat="41.632480" lon="-5.945950">
        <ele>717.740</ele>
        <time>2022-02-24T07:23:17Z</time>
      </trkpt>
      <trkpt lat="41.632680" lon="-5.946260">
        <ele>717.054</ele>
        <time>2022-02-24T07:23:57Z</time>
      </trkpt>
      <trkpt lat="41.632700" lon="-5.946290">
        <ele>716.899</ele>
        <time>2022-02-24T07:24:37Z</time>
      </trkpt>
      <trkpt lat="41.632790" lon="-5.946450">
        <ele>715.818</ele>
        <time>2022-02-24T07:25:17Z</time>
      </trkpt>
      <trkpt lat="41.632810" lon="-5.946480">
        <ele>715.698</ele>
        <time>2022-02-24T07:25:57Z</time>
      </trkpt>
      <trkpt lat="41.632900" lon="-5.946660">
        <ele>714.617</ele>
        <time>2022-02-24T07:26:37Z</time>
      </trkpt>
      <trkpt lat="41.632940" lon="-5.946760">
        <ele>714.108</ele>
        <time>2022-02-24T07:27:17Z</time>
      </trkpt>
      <trkpt lat="41.633020" lon="-5.946970">
        <ele>713.220</ele>
        <time>2022-02-24T07:27:57Z</time>
      </trkpt>
      <trkpt lat="41.633110" lon="-5.947170">
        <ele>713.357</ele>
        <time>2022-02-24T07:28:37Z</time>
      </trkpt>
      <trkpt lat="41.633200" lon="-5.947320">
        <ele>712.631</ele>
        <time>2022-02-24T07:29:17Z</time>
      </trkpt>
      <trkpt lat="41.633220" lon="-5.947360">
        <ele>712.597</ele>
        <time>2022-02-24T07:29:57Z</time>
      </trkpt>
      <trkpt lat="41.633290" lon="-5.947450">
        <ele>712.274</ele>
        <time>2022-02-24T07:30:37Z</time>
      </trkpt>
      <trkpt lat="41.633370" lon="-5.947540">
        <ele>712.395</ele>
        <time>2022-02-24T07:31:17Z</time>
      </trkpt>
      <trkpt lat="41.633380" lon="-5.947550">
        <ele>712.479</ele>
        <time>2022-02-24T07:31:57Z</time>
      </trkpt>
      <trkpt lat="41.633440" lon="-5.947600">
        <ele>712.774</ele>
        <time>2022-02-24T07:32:37Z</time>
      </trkpt>
      <trkpt lat="41.633450" lon="-5.947600">
        <ele>712.779</ele>
        <time>2022-02-24T07:33:17Z</time>
      </trkpt>
      <trkpt lat="41.633520" lon="-5.947650">
        <ele>713.105</ele>
        <time>2022-02-24T07:33:57Z</time>
      </trkpt>
      <trkpt lat="41.633610" lon="-5.947710">
        <ele>713.525</ele>
        <time>2022-02-24T07:34:37Z</time>
      </trkpt>
      <trkpt lat="41.633710" lon="-5.947770">
        <ele>714.308</ele>
        <time>2022-02-24T07:35:17Z</time>
      </trkpt>
      <trkpt lat="41.633860" lon="-5.947860">
        <ele>716.146</ele>
        <time>2022-02-24T07:35:57Z</time>
      </trkpt>
      <trkpt lat="41.633910" lon="-5.947900">
        <ele>716.873</ele>
        <time>2022-02-24T07:36:37Z</time>
      </trkpt>
      <trkpt lat="41.633970" lon="-5.947940">
        <ele>717.357</ele>
        <time>2022-02-24T07:37:17Z</time>
      </trkpt>
      <trkpt lat="41.634000" lon="-5.947960">
        <ele>717.513</ele>
        <time>2022-02-24T07:37:57Z</time>
      </trkpt>
      <trkpt lat="41.634150" lon="-5.948060">
        <ele>718.190</ele>
        <time>2022-02-24T07:38:37Z</time>
      </trkpt>
      <trkpt lat="41.634230" lon="-5.948110">
        <ele>717.851</ele>
        <time>2022-02-24T07:39:17Z</time>
      </trkpt>
      <trkpt lat="41.634310" lon="-5.948140">
        <ele>717.235</ele>
        <time>2022-02-24T07:39:57Z</time>
      </trkpt>
      <trkpt lat="41.634470" lon="-5.948190">
        <ele>716.490</ele>
        <time>2022-02-24T07:40:37Z</time>
      </trkpt>
      <trkpt lat="41.634490" lon="-5.948200">
        <ele>716.462</ele>
        <time>2022-02-24T07:41:17Z</time>
      </trkpt>
      <trkpt lat="41.634580" lon="-5.948230">
        <ele>716.483</ele>
        <time>2022-02-24T07:41:57Z</time>
      </trkpt>
      <trkpt lat="41.634870" lon="-5.948330">
        <ele>717.011</ele>
        <time>2022-02-24T07:42:37Z</time>
      </trkpt>
      <trkpt lat="41.635140" lon="-5.948420">
        <ele>717.208</ele>
        <time>2022-02-24T07:43:17Z</time>
      </trkpt>
      <trkpt lat="41.635270" lon="-5.948460">
        <ele>717.015</ele>
        <time>2022-02-24T07:43:57Z</time>
      </trkpt>
      <trkpt lat="41.635280" lon="-5.948460">
        <ele>717.022</ele>
        <time>2022-02-24T07:44:37Z</time>
      </trkpt>
      <trkpt lat="41.635330" lon="-5.948500">
        <ele>716.656</ele>
        <time>2022-02-24T07:45:17Z</time>
      </trkpt>
      <trkpt lat="41.635390" lon="-5.948560">
        <ele>716.242</ele>
        <time>2022-02-24T07:45:57Z</time>
      </trkpt>
      <trkpt lat="41.635450" lon="-5.948630">
        <ele>715.899</ele>
        <time>2022-02-24T07:46:37Z</time>
      </trkpt>
      <trkpt lat="41.635490" lon="-5.948700">
        <ele>715.540</ele>
        <time>2022-02-24T07:47:17Z</time>
      </trkpt>
      <trkpt lat="41.635530" lon="-5.948790">
        <ele>715.284</ele>
        <time>2022-02-24T07:47:57Z</time>
      </trkpt>
      <trkpt lat="41.635820" lon="-5.949660">
        <ele>715.639</ele>
        <time>2022-02-24T07:48:37Z</time>
      </trkpt>
      <trkpt lat="41.635850" lon="-5.949760">
        <ele>715.475</ele>
        <time>2022-02-24T07:49:17Z</time>
      </trkpt>
      <trkpt lat="41.635870" lon="-5.949850">
        <ele>714.328</ele>
        <time>2022-02-24T07:49:57Z</time>
      </trkpt>
      <trkpt lat="41.635890" lon="-5.949940">
        <ele>713.220</ele>
        <time>2022-02-24T07:50:37Z</time>
      </trkpt>
      <trkpt lat="41.635900" lon="-5.950030">
        <ele>712.308</ele>
        <time>2022-02-24T07:51:17Z</time>
      </trkpt>
      <trkpt lat="41.635910" lon="-5.950150">
        <ele>711.396</ele>
        <time>2022-02-24T07:51:57Z</time>
      </trkpt>
      <trkpt lat="41.635910" lon="-5.950210">
        <ele>710.853</ele>
        <time>2022-02-24T07:52:37Z</time>
      </trkpt>
      <trkpt lat="41.635910" lon="-5.950350">
        <ele>709.747</ele>
        <time>2022-02-24T07:53:17Z</time>
      </trkpt>
      <trkpt lat="41.635880" lon="-5.950620">
        <ele>708.573</ele>
        <time>2022-02-24T07:53:57Z</time>
      </trkpt>
      <trkpt lat="41.635870" lon="-5.950720">
        <ele>709.020</ele>
        <time>2022-02-24T07:54:37Z</time>
      </trkpt>
      <trkpt lat="41.635840" lon="-5.950960">
        <ele>710.341</ele>
        <time>2022-02-24T07:55:17Z</time>
      </trkpt>
      <trkpt lat="41.635760" lon="-5.951640">
        <ele>710.615</ele>
        <time>2022-02-24T07:55:57Z</time>
      </trkpt>
      <trkpt lat="41.635740" lon="-5.951880">
        <ele>710.390</ele>
        <time>2022-02-24T07:56:37Z</time>
      </trkpt>
      <trkpt lat="41.635730" lon="-5.952090">
        <ele>709.644</ele>
        <time>2022-02-24T07:57:17Z</time>
      </trkpt>
      <trkpt lat="41.635730" lon="-5.952150">
        <ele>709.305</ele>
        <time>2022-02-24T07:57:57Z</time>
      </trkpt>
      <trkpt lat="41.635740" lon="-5.952240">
        <ele>708.715</ele>
        <time>2022-02-24T07:58:37Z</time>
      </trkpt>
      <trkpt lat="41.635750" lon="-5.952400">
        <ele>708.908</ele>
        <time>2022-02-24T07:59:17Z</time>
      </trkpt>
      <trkpt lat="41.635770" lon="-5.952540">
        <ele>708.883</ele>
        <time>2022-02-24T07:59:57Z</time>
      </trkpt>
      <trkpt lat="41.635800" lon="-5.952660">
        <ele>707.990</ele>
        <time>2022-02-24T08:00:37Z</time>
      </trkpt>
      <trkpt lat="41.635980" lon="-5.953290">
        <ele>707.944</ele>
        <time>2022-02-24T08:01:17Z</time>
      </trkpt>
      <trkpt lat="41.636200" lon="-5.954030">
        <ele>708.040</ele>
        <time>2022-02-24T08:01:57Z</time>
      </trkpt>
      <trkpt lat="41.636300" lon="-5.954370">
        <ele>709.997</ele>
        <time>2022-02-24T08:02:37Z</time>
      </trkpt>
      <trkpt lat="41.636370" lon="-5.954580">
        <ele>710.458</ele>
        <time>2022-02-24T08:03:17Z</time>
      </trkpt>
      <trkpt lat="41.636470" lon="-5.954830">
        <ele>710.852</ele>
        <time>2022-02-24T08:03:57Z</time>
      </trkpt>
      <trkpt lat="41.636480" lon="-5.954860">
        <ele>710.717</ele>
        <time>2022-02-24T08:04:37Z</time>
      </trkpt>
      <trkpt lat="41.636530" lon="-5.954940">
        <ele>710.165</ele>
        <time>2022-02-24T08:05:17Z</time>
      </trkpt>
      <trkpt lat="41.636540" lon="-5.954970">
        <ele>709.968</ele>
        <time>2022-02-24T08:05:57Z</time>
      </trkpt>
      <trkpt lat="41.636560" lon="-5.955000">
        <ele>709.514</ele>
        <time>2022-02-24T08:06:37Z</time>
      </trkpt>
      <trkpt lat="41.636590" lon="-5.955050">
        <ele>708.808</ele>
        <time>2022-02-24T08:07:17Z</time>
      </trkpt>
      <trkpt lat="41.636730" lon="-5.955210">
        <ele>707.795</ele>
        <time>2022-02-24T08:07:57Z</time>
      </trkpt>
      <trkpt lat="41.636770" lon="-5.955260">
        <ele>707.852</ele>
        <time>2022-02-24T08:08:37Z</time>
      </trkpt>
      <trkpt lat="41.637060" lon="-5.955580">
        <ele>711.566</ele>
        <time>2022-02-24T08:09:17Z</time>
      </trkpt>
      <trkpt lat="41.637140" lon="-5.955670">
        <ele>713.182</ele>
        <time>2022-02-24T08:09:57Z</time>
      </trkpt>
      <trkpt lat="41.637240" lon="-5.955780">
        <ele>714.619</ele>
        <time>2022-02-24T08:10:37Z</time>
      </trkpt>
      <trkpt lat="41.637270" lon="-5.955830">
        <ele>714.840</ele>
        <time>2022-02-24T08:11:17Z</time>
      </trkpt>
      <trkpt lat="41.637310" lon="-5.955890">
        <ele>715.024</ele>
        <time>2022-02-24T08:11:57Z</time>
      </trkpt>
      <trkpt lat="41.637410" lon="-5.956050">
        <ele>715.439</ele>
        <time>2022-02-24T08:12:37Z</time>
      </trkpt>
      <trkpt lat="41.637490" lon="-5.956210">
        <ele>715.831</ele>
        <time>2022-02-24T08:13:17Z</time>
      </trkpt>
      <trkpt lat="41.637580" lon="-5.956420">
        <ele>717.561</ele>
        <time>2022-02-24T08:13:57Z</time>
      </trkpt>
      <trkpt lat="41.637780" lon="-5.956910">
        <ele>719.907</ele>
        <time>2022-02-24T08:14:37Z</time>
      </trkpt>
      <trkpt lat="41.637850" lon="-5.957090">
        <ele>720.708</ele>
        <time>2022-02-24T08:15:17Z</time>
      </trkpt>
      <trkpt lat="41.638180" lon="-5.957960">
        <ele>722.972</ele>
        <time>2022-02-24T08:15:57Z</time>
      </trkpt>
      <trkpt lat="41.638480" lon="-5.958780">
        <ele>725.139</ele>
        <time>2022-02-24T08:16:37Z</time>
      </trkpt>
      <trkpt lat="41.638710" lon="-5.959430">
        <ele>723.363</ele>
        <time>2022-02-24T08:17:17Z</time>
      </trkpt>
      <trkpt lat="41.638740" lon="-5.959510">
        <ele>724.139</ele>
        <time>2022-02-24T08:17:57Z</time>
      </trkpt>
      <trkpt lat="41.638790" lon="-5.959640">
        <ele>725.326</ele>
        <time>2022-02-24T08:18:37Z</time>
      </trkpt>
      <trkpt lat="41.638920" lon="-5.959990">
        <ele>730.097</ele>
        <time>2022-02-24T08:19:17Z</time>
      </trkpt>
      <trkpt lat="41.638950" lon="-5.960070">
        <ele>730.831</ele>
        <time>2022-02-24T08:19:57Z</time>
      </trkpt>
      <trkpt lat="41.639040" lon="-5.960270">
        <ele>733.046</ele>
        <time>2022-02-24T08:20:37Z</time>
      </trkpt>
      <trkpt lat="41.639160" lon="-5.960500">
        <ele>734.071</ele>
        <time>2022-02-24T08:21:17Z</time>
      </trkpt>
      <trkpt lat="41.639260" lon="-5.960680">
        <ele>735.341</ele>
        <time>2022-02-24T08:21:57Z</time>
      </trkpt>
      <trkpt lat="41.639410" lon="-5.960920">
        <ele>737.315</ele>
        <time>2022-02-24T08:22:37Z</time>
      </trkpt>
      <trkpt lat="41.639540" lon="-5.961120">
        <ele>737.708</ele>
        <time>2022-02-24T08:23:17Z</time>
      </trkpt>
      <trkpt lat="41.639670" lon="-5.961320">
        <ele>738.236</ele>
        <time>2022-02-24T08:23:57Z</time>
      </trkpt>
      <trkpt lat="41.639750" lon="-5.961410">
        <ele>738.473</ele>
        <time>2022-02-24T08:24:37Z</time>
      </trkpt>
      <trkpt lat="41.639850" lon="-5.961510">
        <ele>740.077</ele>
        <time>2022-02-24T08:25:17Z</time>
      </trkpt>
      <trkpt lat="41.639940" lon="-5.961590">
        <ele>741.613</ele>
        <time>2022-02-24T08:25:57Z</time>
      </trkpt>
      <trkpt lat="41.640040" lon="-5.961640">
        <ele>743.570</ele>
        <time>2022-02-24T08:26:37Z</time>
      </trkpt>
      <trkpt lat="41.640080" lon="-5.961670">
        <ele>744.551</ele>
        <time>2022-02-24T08:27:17Z</time>
      </trkpt>
      <trkpt lat="41.640230" lon="-5.961720">
        <ele>747.475</ele>
        <time>2022-02-24T08:27:57Z</time>
      </trkpt>
      <trkpt lat="41.640320" lon="-5.961740">
        <ele>748.580</ele>
        <time>2022-02-24T08:28:37Z</time>
      </trkpt>
      <trkpt lat="41.640390" lon="-5.961750">
        <ele>749.043</ele>
        <time>2022-02-24T08:29:17Z</time>
      </trkpt>
      <trkpt lat="41.640430" lon="-5.961750">
        <ele>749.264</ele>
        <time>2022-02-24T08:29:57Z</time>
      </trkpt>
      <trkpt lat="41.640500" lon="-5.961750">
        <ele>749.710</ele>
        <time>2022-02-24T08:30:37Z</time>
      </trkpt>
      <trkpt lat="41.640570" lon="-5.961740">
        <ele>750.108</ele>
        <time>2022-02-24T08:31:17Z</time>
      </trkpt>
      <trkpt lat="41.640590" lon="-5.961740">
        <ele>750.223</ele>
        <time>2022-02-24T08:31:57Z</time>
      </trkpt>
      <trkpt lat="41.640710" lon="-5.961710">
        <ele>750.610</ele>
        <time>2022-02-24T08:32:37Z</time>
      </trkpt>
      <trkpt lat="41.640870" lon="-5.961650">
        <ele>751.184</ele>
        <time>2022-02-24T08:33:17Z</time>
      </trkpt>
      <trkpt lat="41.640900" lon="-5.961640">
        <ele>751.390</ele>
        <time>2022-02-24T08:33:57Z</time>
      </trkpt>
      <trkpt lat="41.640990" lon="-5.961620">
        <ele>751.767</ele>
        <time>2022-02-24T08:34:37Z</time>
      </trkpt>
      <trkpt lat="41.641150" lon="-5.961600">
        <ele>752.338</ele>
        <time>2022-02-24T08:35:17Z</time>
      </trkpt>
      <trkpt lat="41.641220" lon="-5.961600">
        <ele>752.542</ele>
        <time>2022-02-24T08:35:57Z</time>
      </trkpt>
      <trkpt lat="41.641320" lon="-5.961610">
        <ele>752.857</ele>
        <time>2022-02-24T08:36:37Z</time>
      </trkpt>
      <trkpt lat="41.641400" lon="-5.961640">
        <ele>753.091</ele>
        <time>2022-02-24T08:37:17Z</time>
      </trkpt>
      <trkpt lat="41.641440" lon="-5.961660">
        <ele>753.081</ele>
        <time>2022-02-24T08:37:57Z</time>
      </trkpt>
      <trkpt lat="41.641550" lon="-5.961700">
        <ele>753.219</ele>
        <time>2022-02-24T08:38:37Z</time>
      </trkpt>
      <trkpt lat="41.641760" lon="-5.961790">
        <ele>754.208</ele>
        <time>2022-02-24T08:39:17Z</time>
      </trkpt>
      <trkpt lat="41.641910" lon="-5.961890">
        <ele>755.538</ele>
        <time>2022-02-24T08:39:57Z</time>
      </trkpt>
      <trkpt lat="41.642050" lon="-5.961990">
        <ele>756.115</ele>
        <time>2022-02-24T08:40:37Z</time>
      </trkpt>
      <trkpt lat="41.642170" lon="-5.962090">
        <ele>756.189</ele>
        <time>2022-02-24T08:41:17Z</time>
      </trkpt>
      <trkpt lat="41.642430" lon="-5.962370">
        <ele>757.385</ele>
        <time>2022-02-24T08:41:57Z</time>
      </trkpt>
      <trkpt lat="41.642590" lon="-5.962550">
        <ele>758.672</ele>
        <time>2022-02-24T08:42:37Z</time>
      </trkpt>
      <trkpt lat="41.642710" lon="-5.962700">
        <ele>759.513</ele>
        <time>2022-02-24T08:43:17Z</time>
      </trkpt>
      <trkpt lat="41.642820" lon="-5.962850">
        <ele>760.527</ele>
        <time>2022-02-24T08:43:57Z</time>
      </trkpt>
      <trkpt lat="41.642960" lon="-5.963080">
        <ele>761.712</ele>
        <time>2022-02-24T08:44:37Z</time>
      </trkpt>
      <trkpt lat="41.643080" lon="-5.963350">
        <ele>761.955</ele>
        <time>2022-02-24T08:45:17Z</time>
      </trkpt>
      <trkpt lat="41.643100" lon="-5.963390">
        <ele>761.607</ele>
        <time>2022-02-24T08:45:57Z</time>
      </trkpt>
      <trkpt lat="41.643190" lon="-5.963590">
        <ele>760.217</ele>
        <time>2022-02-24T08:46:37Z</time>
      </trkpt>
      <trkpt lat="41.643440" lon="-5.964150">
        <ele>761.408</ele>
        <time>2022-02-24T08:47:17Z</time>
      </trkpt>
      <trkpt lat="41.643550" lon="-5.964420">
        <ele>761.174</ele>
        <time>2022-02-24T08:47:57Z</time>
      </trkpt>
      <trkpt lat="41.643600" lon="-5.964590">
        <ele>760.541</ele>
        <time>2022-02-24T08:48:37Z</time>
      </trkpt>
      <trkpt lat="41.643640" lon="-5.964780">
        <ele>760.155</ele>
        <time>2022-02-24T08:49:17Z</time>
      </trkpt>
      <trkpt lat="41.643750" lon="-5.965340">
        <ele>760.661</ele>
        <time>2022-02-24T08:49:57Z</time>
      </trkpt>
      <trkpt lat="41.643880" lon="-5.966020">
        <ele>761.438</ele>
        <time>2022-02-24T08:50:37Z</time>
      </trkpt>
      <trkpt lat="41.644020" lon="-5.966780">
        <ele>763.219</ele>
        <time>2022-02-24T08:51:17Z</time>
      </trkpt>
      <trkpt lat="41.644030" lon="-5.966840">
        <ele>763.373</ele>
        <time>2022-02-24T08:51:57Z</time>
      </trkpt>
      <trkpt lat="41.644080" lon="-5.967090">
        <ele>763.388</ele>
        <time>2022-02-24T08:52:37Z</time>
      </trkpt>
      <trkpt lat="41.644100" lon="-5.967250">
        <ele>763.243</ele>
        <time>2022-02-24T08:53:17Z</time>
      </trkpt>
      <trkpt lat="41.644110" lon="-5.967450">
        <ele>763.264</ele>
        <time>2022-02-24T08:53:57Z</time>
      </trkpt>
      <trkpt lat="41.644120" lon="-5.967610">
        <ele>762.810</ele>
        <time>2022-02-24T08:54:37Z</time>
      </trkpt>
      <trkpt lat="41.644120" lon="-5.967800">
        <ele>762.308</ele>
        <time>2022-02-24T08:55:17Z</time>
      </trkpt>
      <trkpt lat="41.644120" lon="-5.968040">
        <ele>762.263</ele>
        <time>2022-02-24T08:55:57Z</time>
      </trkpt>
      <trkpt lat="41.644120" lon="-5.968280">
        <ele>762.230</ele>
        <time>2022-02-24T08:56:37Z</time>
      </trkpt>
      <trkpt lat="41.644120" lon="-5.968520">
        <ele>762.244</ele>
        <time>2022-02-24T08:57:17Z</time>
      </trkpt>
      <trkpt lat="41.644110" lon="-5.970240">
        <ele>760.950</ele>
        <time>2022-02-24T08:57:57Z</time>
      </trkpt>
      <trkpt lat="41.644120" lon="-5.970480">
        <ele>760.157</ele>
        <time>2022-02-24T08:58:37Z</time>
      </trkpt>
      <trkpt lat="41.644130" lon="-5.970680">
        <ele>759.598</ele>
        <time>2022-02-24T08:59:17Z</time>
      </trkpt>
      <trkpt lat="41.644140" lon="-5.970730">
        <ele>759.332</ele>
        <time>2022-02-24T08:59:57Z</time>
      </trkpt>
      <trkpt lat="41.644160" lon="-5.970920">
        <ele>758.777</ele>
        <time>2022-02-24T09:00:37Z</time>
      </trkpt>
      <trkpt lat="41.644330" lon="-5.972100">
        <ele>756.329</ele>
        <time>2022-02-24T09:01:17Z</time>
      </trkpt>
      <trkpt lat="41.644340" lon="-5.972180">
        <ele>755.900</ele>
        <time>2022-02-24T09:01:57Z</time>
      </trkpt>
      <trkpt lat="41.644520" lon="-5.973200">
        <ele>753.020</ele>
        <time>2022-02-24T09:02:37Z</time>
      </trkpt>
      <trkpt lat="41.644560" lon="-5.973430">
        <ele>753.208</ele>
        <time>2022-02-24T09:03:17Z</time>
      </trkpt>
      <trkpt lat="41.644580" lon="-5.973630">
        <ele>753.571</ele>
        <time>2022-02-24T09:03:57Z</time>
      </trkpt>
      <trkpt lat="41.644610" lon="-5.973870">
        <ele>754.078</ele>
        <time>2022-02-24T09:04:37Z</time>
      </trkpt>
      <trkpt lat="41.644630" lon="-5.974010">
        <ele>753.942</ele>
        <time>2022-02-24T09:05:17Z</time>
      </trkpt>
      <trkpt lat="41.644650" lon="-5.974200">
        <ele>753.718</ele>
        <time>2022-02-24T09:05:57Z</time>
      </trkpt>
      <trkpt lat="41.644680" lon="-5.974790">
        <ele>753.025</ele>
        <time>2022-02-24T09:06:37Z</time>
      </trkpt>
      <trkpt lat="41.644700" lon="-5.975510">
        <ele>750.426</ele>
        <time>2022-02-24T09:07:17Z</time>
      </trkpt>
      <trkpt lat="41.644710" lon="-5.975790">
        <ele>749.270</ele>
        <time>2022-02-24T09:07:57Z</time>
      </trkpt>
      <trkpt lat="41.644710" lon="-5.975830">
        <ele>749.145</ele>
        <time>2022-02-24T09:08:37Z</time>
      </trkpt>
      <trkpt lat="41.644700" lon="-5.975960">
        <ele>749.018</ele>
        <time>2022-02-24T09:09:17Z</time>
      </trkpt>
      <trkpt lat="41.644690" lon="-5.976030">
        <ele>749.098</ele>
        <time>2022-02-24T09:09:57Z</time>
      </trkpt>
      <trkpt lat="41.644690" lon="-5.976070">
        <ele>749.017</ele>
        <time>2022-02-24T09:10:37Z</time>
      </trkpt>
      <trkpt lat="41.644610" lon="-5.976770">
        <ele>748.708</ele>
        <time>2022-02-24T09:11:17Z</time>
      </trkpt>
      <trkpt lat="41.644600" lon="-5.976910">
        <ele>748.720</ele>
        <time>2022-02-24T09:11:57Z</time>
      </trkpt>
      <trkpt lat="41.644590" lon="-5.977030">
        <ele>748.427</ele>
        <time>2022-02-24T09:12:37Z</time>
      </trkpt>
      <trkpt lat="41.644600" lon="-5.977630">
        <ele>747.981</ele>
        <time>2022-02-24T09:13:17Z</time>
      </trkpt>
      <trkpt lat="41.644610" lon="-5.977950">
        <ele>747.837</ele>
        <time>2022-02-24T09:13:57Z</time>
      </trkpt>
      <trkpt lat="41.644620" lon="-5.978190">
        <ele>748.314</ele>
        <time>2022-02-24T09:14:37Z</time>
      </trkpt>
      <trkpt lat="41.644630" lon="-5.978430">
        <ele>748.485</ele>
        <time>2022-02-24T09:15:17Z</time>
      </trkpt>
      <trkpt lat="41.644640" lon="-5.978820">
        <ele>746.749</ele>
        <time>2022-02-24T09:15:57Z</time>
      </trkpt>
      <trkpt lat="41.644650" lon="-5.978910">
        <ele>746.294</ele>
        <time>2022-02-24T09:16:37Z</time>
      </trkpt>
      <trkpt lat="41.644650" lon="-5.978950">
        <ele>746.016</ele>
        <time>2022-02-24T09:17:17Z</time>
      </trkpt>
      <trkpt lat="41.644670" lon="-5.979090">
        <ele>745.576</ele>
        <time>2022-02-24T09:17:57Z</time>
      </trkpt>
      <trkpt lat="41.644680" lon="-5.979140">
        <ele>745.213</ele>
        <time>2022-02-24T09:18:37Z</time>
      </trkpt>
      <trkpt lat="41.644690" lon="-5.979220">
        <ele>745.008</ele>
        <time>2022-02-24T09:19:17Z</time>
      </trkpt>
      <trkpt lat="41.644710" lon="-5.979320">
        <ele>744.580</ele>
        <time>2022-02-24T09:19:57Z</time>
      </trkpt>
      <trkpt lat="41.644750" lon="-5.979440">
        <ele>743.937</ele>
        <time>2022-02-24T09:20:37Z</time>
      </trkpt>
      <trkpt lat="41.644790" lon="-5.979560">
        <ele>744.221</ele>
        <time>2022-02-24T09:21:17Z</time>
      </trkpt>
      <trkpt lat="41.644900" lon="-5.979800">
        <ele>744.647</ele>
        <time>2022-02-24T09:21:57Z</time>
      </trkpt>
      <trkpt lat="41.645000" lon="-5.980000">
        <ele>745.084</ele>
        <time>2022-02-24T09:22:37Z</time>
      </trkpt>
      <trkpt lat="41.645070" lon="-5.980150">
        <ele>745.915</ele>
        <time>2022-02-24T09:23:17Z</time>
      </trkpt>
      <trkpt lat="41.645190" lon="-5.980410">
        <ele>746.669</ele>
        <time>2022-02-24T09:23:57Z</time>
      </trkpt>
      <trkpt lat="41.645290" lon="-5.980610">
        <ele>747.244</ele>
        <time>2022-02-24T09:24:37Z</time>
      </trkpt>
      <trkpt lat="41.645380" lon="-5.980810">
        <ele>747.526</ele>
        <time>2022-02-24T09:25:17Z</time>
      </trkpt>
      <trkpt lat="41.645480" lon="-5.981020">
        <ele>746.647</ele>
        <time>2022-02-24T09:25:57Z</time>
      </trkpt>
      <trkpt lat="41.645580" lon="-5.981220">
        <ele>746.111</ele>
        <time>2022-02-24T09:26:37Z</time>
      </trkpt>
      <trkpt lat="41.645960" lon="-5.982030">
        <ele>750.908</ele>
        <time>2022-02-24T09:27:17Z</time>
      </trkpt>
      <trkpt lat="41.646060" lon="-5.982230">
        <ele>750.251</ele>
        <time>2022-02-24T09:27:57Z</time>
      </trkpt>
      <trkpt lat="41.646530" lon="-5.983230">
        <ele>749.958</ele>
        <time>2022-02-24T09:28:37Z</time>
      </trkpt>
      <trkpt lat="41.646850" lon="-5.983920">
        <ele>751.882</ele>
        <time>2022-02-24T09:29:17Z</time>
      </trkpt>
      <trkpt lat="41.647210" lon="-5.984670">
        <ele>753.758</ele>
        <time>2022-02-24T09:29:57Z</time>
      </trkpt>
      <trkpt lat="41.647310" lon="-5.984880">
        <ele>754.485</ele>
        <time>2022-02-24T09:30:37Z</time>
      </trkpt>
      <trkpt lat="41.647500" lon="-5.985280">
        <ele>756.086</ele>
        <time>2022-02-24T09:31:17Z</time>
      </trkpt>
      <trkpt lat="41.647890" lon="-5.986090">
        <ele>755.980</ele>
        <time>2022-02-24T09:31:57Z</time>
      </trkpt>
      <trkpt lat="41.648030" lon="-5.986380">
        <ele>756.055</ele>
        <time>2022-02-24T09:32:37Z</time>
      </trkpt>
      <trkpt lat="41.648220" lon="-5.986790">
        <ele>754.433</ele>
        <time>2022-02-24T09:33:17Z</time>
      </trkpt>
      <trkpt lat="41.648320" lon="-5.986990">
        <ele>754.223</ele>
        <time>2022-02-24T09:33:57Z</time>
      </trkpt>
      <trkpt lat="41.648440" lon="-5.987250">
        <ele>755.115</ele>
        <time>2022-02-24T09:34:37Z</time>
      </trkpt>
      <trkpt lat="41.648510" lon="-5.987400">
        <ele>755.508</ele>
        <time>2022-02-24T09:35:17Z</time>
      </trkpt>
      <trkpt lat="41.648830" lon="-5.988080">
        <ele>755.272</ele>
        <time>2022-02-24T09:35:57Z</time>
      </trkpt>
      <trkpt lat="41.649230" lon="-5.988960">
        <ele>757.239</ele>
        <time>2022-02-24T09:36:37Z</time>
      </trkpt>
      <trkpt lat="41.649270" lon="-5.989050">
        <ele>757.473</ele>
        <time>2022-02-24T09:37:17Z</time>
      </trkpt>
      <trkpt lat="41.649550" lon="-5.989720">
        <ele>758.479</ele>
        <time>2022-02-24T09:37:57Z</time>
      </trkpt>
      <trkpt lat="41.649710" lon="-5.990080">
        <ele>760.386</ele>
        <time>2022-02-24T09:38:37Z</time>
      </trkpt>
      <trkpt lat="41.649760" lon="-5.990210">
        <ele>760.547</ele>
        <time>2022-02-24T09:39:17Z</time>
      </trkpt>
      <trkpt lat="41.649880" lon="-5.990470">
        <ele>759.631</ele>
        <time>2022-02-24T09:39:57Z</time>
      </trkpt>
      <trkpt lat="41.650020" lon="-5.990770">
        <ele>758.976</ele>
        <time>2022-02-24T09:40:37Z</time>
      </trkpt>
      <trkpt lat="41.650100" lon="-5.990920">
        <ele>759.265</ele>
        <time>2022-02-24T09:41:17Z</time>
      </trkpt>
      <trkpt lat="41.650420" lon="-5.991540">
        <ele>759.068</ele>
        <time>2022-02-24T09:41:57Z</time>
      </trkpt>
      <trkpt lat="41.650790" lon="-5.992290">
        <ele>757.214</ele>
        <time>2022-02-24T09:42:37Z</time>
      </trkpt>
      <trkpt lat="41.651060" lon="-5.992800">
        <ele>758.008</ele>
        <time>2022-02-24T09:43:17Z</time>
      </trkpt>
      <trkpt lat="41.651260" lon="-5.993160">
        <ele>758.415</ele>
        <time>2022-02-24T09:43:57Z</time>
      </trkpt>
      <trkpt lat="41.651300" lon="-5.993230">
        <ele>758.672</ele>
        <time>2022-02-24T09:44:37Z</time>
      </trkpt>
      <trkpt lat="41.651330" lon="-5.993290">
        <ele>758.886</ele>
        <time>2022-02-24T09:45:17Z</time>
      </trkpt>
      <trkpt lat="41.651360" lon="-5.993320">
        <ele>759.042</ele>
        <time>2022-02-24T09:45:57Z</time>
      </trkpt>
      <trkpt lat="41.651380" lon="-5.993350">
        <ele>759.039</ele>
        <time>2022-02-24T09:46:37Z</time>
      </trkpt>
      <trkpt lat="41.651480" lon="-5.993490">
        <ele>759.020</ele>
        <time>2022-02-24T09:47:17Z</time>
      </trkpt>
      <trkpt lat="41.651520" lon="-5.993550">
        <ele>759.094</ele>
        <time>2022-02-24T09:47:57Z</time>
      </trkpt>
      <trkpt lat="41.651740" lon="-5.993810">
        <ele>758.759</ele>
        <time>2022-02-24T09:48:37Z</time>
      </trkpt>
      <trkpt lat="41.651870" lon="-5.993960">
        <ele>758.342</ele>
        <time>2022-02-24T09:49:17Z</time>
      </trkpt>
      <trkpt lat="41.651880" lon="-5.993970">
        <ele>758.222</ele>
        <time>2022-02-24T09:49:57Z</time>
      </trkpt>
      <trkpt lat="41.652160" lon="-5.994280">
        <ele>757.314</ele>
        <time>2022-02-24T09:50:37Z</time>
      </trkpt>
      <trkpt lat="41.652380" lon="-5.994570">
        <ele>755.608</ele>
        <time>2022-02-24T09:51:17Z</time>
      </trkpt>
      <trkpt lat="41.652820" lon="-5.995080">
        <ele>755.043</ele>
        <time>2022-02-24T09:51:57Z</time>
      </trkpt>
      <trkpt lat="41.652930" lon="-5.995200">
        <ele>755.020</ele>
        <time>2022-02-24T09:52:37Z</time>
      </trkpt>
      <trkpt lat="41.653170" lon="-5.995450">
        <ele>754.484</ele>
        <time>2022-02-24T09:53:17Z</time>
      </trkpt>
      <trkpt lat="41.653220" lon="-5.995530">
        <ele>754.130</ele>
        <time>2022-02-24T09:53:57Z</time>
      </trkpt>
      <trkpt lat="41.653230" lon="-5.995540">
        <ele>754.197</ele>
        <time>2022-02-24T09:54:37Z</time>
      </trkpt>
      <trkpt lat="41.653290" lon="-5.995670">
        <ele>754.088</ele>
        <time>2022-02-24T09:55:17Z</time>
      </trkpt>
      <trkpt lat="41.653330" lon="-5.995830">
        <ele>754.022</ele>
        <time>2022-02-24T09:55:57Z</time>
      </trkpt>
      <trkpt lat="41.653410" lon="-5.996120">
        <ele>754.367</ele>
        <time>2022-02-24T09:56:37Z</time>
      </trkpt>
      <trkpt lat="41.653510" lon="-5.996490">
        <ele>756.091</ele>
        <time>2022-02-24T09:57:17Z</time>
      </trkpt>
      <trkpt lat="41.653570" lon="-5.996640">
        <ele>756.881</ele>
        <time>2022-02-24T09:57:57Z</time>
      </trkpt>
      <trkpt lat="41.653660" lon="-5.996970">
        <ele>757.319</ele>
        <time>2022-02-24T09:58:37Z</time>
      </trkpt>
      <trkpt lat="41.653680" lon="-5.997050">
        <ele>757.508</ele>
        <time>2022-02-24T09:59:17Z</time>
      </trkpt>
      <trkpt lat="41.653710" lon="-5.997170">
        <ele>757.918</ele>
        <time>2022-02-24T09:59:57Z</time>
      </trkpt>
      <trkpt lat="41.653760" lon="-5.997340">
        <ele>757.875</ele>
        <time>2022-02-24T10:00:37Z</time>
      </trkpt>
      <trkpt lat="41.653810" lon="-5.997600">
        <ele>757.249</ele>
        <time>2022-02-24T10:01:17Z</time>
      </trkpt>
      <trkpt lat="41.653870" lon="-5.997760">
        <ele>757.045</ele>
        <time>2022-02-24T10:01:57Z</time>
      </trkpt>
      <trkpt lat="41.653990" lon="-5.998070">
        <ele>757.062</ele>
        <time>2022-02-24T10:02:37Z</time>
      </trkpt>
      <trkpt lat="41.654000" lon="-5.998100">
        <ele>757.113</ele>
        <time>2022-02-24T10:03:17Z</time>
      </trkpt>
      <trkpt lat="41.654010" lon="-5.998110">
        <ele>757.187</ele>
        <time>2022-02-24T10:03:57Z</time>
      </trkpt>
      <trkpt lat="41.654020" lon="-5.998130">
        <ele>757.132</ele>
        <time>2022-02-24T10:04:37Z</time>
      </trkpt>
      <trkpt lat="41.654060" lon="-5.998160">
        <ele>757.213</ele>
        <time>2022-02-24T10:05:17Z</time>
      </trkpt>
      <trkpt lat="41.654060" lon="-5.998170">
        <ele>757.343</ele>
        <time>2022-02-24T10:05:57Z</time>
      </trkpt>
      <trkpt lat="41.654150" lon="-5.998370">
        <ele>757.907</ele>
        <time>2022-02-24T10:06:37Z</time>
      </trkpt>
      <trkpt lat="41.654210" lon="-5.998490">
        <ele>758.008</ele>
        <time>2022-02-24T10:07:17Z</time>
      </trkpt>
      <trkpt lat="41.654300" lon="-5.998780">
        <ele>758.020</ele>
        <time>2022-02-24T10:07:57Z</time>
      </trkpt>
      <trkpt lat="41.654440" lon="-5.999190">
        <ele>756.937</ele>
        <time>2022-02-24T10:08:37Z</time>
      </trkpt>
      <trkpt lat="41.654490" lon="-5.999260">
        <ele>756.811</ele>
        <time>2022-02-24T10:09:17Z</time>
      </trkpt>
      <trkpt lat="41.654580" lon="-5.999440">
        <ele>756.537</ele>
        <time>2022-02-24T10:09:57Z</time>
      </trkpt>
      <trkpt lat="41.654630" lon="-5.999590">
        <ele>755.854</ele>
        <time>2022-02-24T10:10:37Z</time>
      </trkpt>
      <trkpt lat="41.654850" lon="-6.000040">
        <ele>753.335</ele>
        <time>2022-02-24T10:11:17Z</time>
      </trkpt>
      <trkpt lat="41.654980" lon="-6.000300">
        <ele>751.959</ele>
        <time>2022-02-24T10:11:57Z</time>
      </trkpt>
      <trkpt lat="41.655020" lon="-6.000370">
        <ele>751.754</ele>
        <time>2022-02-24T10:12:37Z</time>
      </trkpt>
      <trkpt lat="41.655160" lon="-6.000630">
        <ele>751.734</ele>
        <time>2022-02-24T10:13:17Z</time>
      </trkpt>
      <trkpt lat="41.655340" lon="-6.000940">
        <ele>752.255</ele>
        <time>2022-02-24T10:13:57Z</time>
      </trkpt>
      <trkpt lat="41.655740" lon="-6.001640">
        <ele>753.010</ele>
        <time>2022-02-24T10:14:37Z</time>
      </trkpt>
      <trkpt lat="41.655870" lon="-6.001860">
        <ele>752.908</ele>
        <time>2022-02-24T10:15:17Z</time>
      </trkpt>
      <trkpt lat="41.655920" lon="-6.001950">
        <ele>753.082</ele>
        <time>2022-02-24T10:15:57Z</time>
      </trkpt>
      <trkpt lat="41.656130" lon="-6.002310">
        <ele>755.769</ele>
        <time>2022-02-24T10:16:37Z</time>
      </trkpt>
      <trkpt lat="41.656240" lon="-6.002450">
        <ele>756.323</ele>
        <time>2022-02-24T10:17:17Z</time>
      </trkpt>
      <trkpt lat="41.656340" lon="-6.002570">
        <ele>756.179</ele>
        <time>2022-02-24T10:17:57Z</time>
      </trkpt>
      <trkpt lat="41.656410" lon="-6.002640">
        <ele>756.066</ele>
        <time>2022-02-24T10:18:37Z</time>
      </trkpt>
      <trkpt lat="41.656570" lon="-6.002790">
        <ele>756.097</ele>
        <time>2022-02-24T10:19:17Z</time>
      </trkpt>
      <trkpt lat="41.656700" lon="-6.002940">
        <ele>756.041</ele>
        <time>2022-02-24T10:19:57Z</time>
      </trkpt>
      <trkpt lat="41.656770" lon="-6.003020">
        <ele>756.096</ele>
        <time>2022-02-24T10:20:37Z</time>
      </trkpt>
      <trkpt lat="41.656910" lon="-6.003170">
        <ele>756.476</ele>
        <time>2022-02-24T10:21:17Z</time>
      </trkpt>
      <trkpt lat="41.656970" lon="-6.003230">
        <ele>756.790</ele>
        <time>2022-02-24T10:21:57Z</time>
      </trkpt>
      <trkpt lat="41.657190" lon="-6.003470">
        <ele>756.519</ele>
        <time>2022-02-24T10:22:37Z</time>
      </trkpt>
      <trkpt lat="41.657460" lon="-6.003760">
        <ele>756.108</ele>
        <time>2022-02-24T10:23:17Z</time>
      </trkpt>
      <trkpt lat="41.657880" lon="-6.004230">
        <ele>758.046</ele>
        <time>2022-02-24T10:23:57Z</time>
      </trkpt>
      <trkpt lat="41.658000" lon="-6.004390">
        <ele>759.683</ele>
        <time>2022-02-24T10:24:37Z</time>
      </trkpt>
      <trkpt lat="41.658040" lon="-6.004450">
        <ele>760.097</ele>
        <time>2022-02-24T10:25:17Z</time>
      </trkpt>
      <trkpt lat="41.658080" lon="-6.004520">
        <ele>760.533</ele>
        <time>2022-02-24T10:25:57Z</time>
      </trkpt>
      <trkpt lat="41.658150" lon="-6.004640">
        <ele>761.270</ele>
        <time>2022-02-24T10:26:37Z</time>
      </trkpt>
      <trkpt lat="41.658210" lon="-6.004760">
        <ele>761.491</ele>
        <time>2022-02-24T10:27:17Z</time>
      </trkpt>
      <trkpt lat="41.658240" lon="-6.004840">
        <ele>761.395</ele>
        <time>2022-02-24T10:27:57Z</time>
      </trkpt>
      <trkpt lat="41.658360" lon="-6.005110">
        <ele>761.060</ele>
        <time>2022-02-24T10:28:37Z</time>
      </trkpt>
      <trkpt lat="41.658530" lon="-6.005490">
        <ele>761.898</ele>
        <time>2022-02-24T10:29:17Z</time>
      </trkpt>
      <trkpt lat="41.658580" lon="-6.005580">
        <ele>762.115</ele>
        <time>2022-02-24T10:29:57Z</time>
      </trkpt>
      <trkpt lat="41.658720" lon="-6.005870">
        <ele>763.526</ele>
        <time>2022-02-24T10:30:37Z</time>
      </trkpt>
      <trkpt lat="41.658850" lon="-6.006130">
        <ele>764.008</ele>
        <time>2022-02-24T10:31:17Z</time>
      </trkpt>
      <trkpt lat="41.658960" lon="-6.006320">
        <ele>764.358</ele>
        <time>2022-02-24T10:31:57Z</time>
      </trkpt>
      <trkpt lat="41.659340" lon="-6.007040">
        <ele>766.855</ele>
        <time>2022-02-24T10:32:37Z</time>
      </trkpt>
      <trkpt lat="41.659380" lon="-6.007110">
        <ele>766.979</ele>
        <time>2022-02-24T10:33:17Z</time>
      </trkpt>
      <trkpt lat="41.659750" lon="-6.007790">
        <ele>767.315</ele>
        <time>2022-02-24T10:33:57Z</time>
      </trkpt>
      <trkpt lat="41.659930" lon="-6.008100">
        <ele>768.112</ele>
        <time>2022-02-24T10:34:37Z</time>
      </trkpt>
      <trkpt lat="41.660140" lon="-6.008430">
        <ele>768.573</ele>
        <time>2022-02-24T10:35:17Z</time>
      </trkpt>
      <trkpt lat="41.660160" lon="-6.008450">
        <ele>768.527</ele>
        <time>2022-02-24T10:35:57Z</time>
      </trkpt>
      <trkpt lat="41.660440" lon="-6.008870">
        <ele>769.092</ele>
        <time>2022-02-24T10:36:37Z</time>
      </trkpt>
      <trkpt lat="41.660550" lon="-6.009050">
        <ele>769.695</ele>
        <time>2022-02-24T10:37:17Z</time>
      </trkpt>
      <trkpt lat="41.660690" lon="-6.009250">
        <ele>769.749</ele>
        <time>2022-02-24T10:37:57Z</time>
      </trkpt>
      <trkpt lat="41.661000" lon="-6.009730">
        <ele>770.023</ele>
        <time>2022-02-24T10:38:37Z</time>
      </trkpt>
      <trkpt lat="41.661280" lon="-6.010170">
        <ele>771.808</ele>
        <time>2022-02-24T10:39:17Z</time>
      </trkpt>
      <trkpt lat="41.661490" lon="-6.010530">
        <ele>773.348</ele>
        <time>2022-02-24T10:39:57Z</time>
      </trkpt>
      <trkpt lat="41.661590" lon="-6.010730">
        <ele>773.945</ele>
        <time>2022-02-24T10:40:37Z</time>
      </trkpt>
      <trkpt lat="41.661680" lon="-6.010940">
        <ele>773.779</ele>
        <time>2022-02-24T10:41:17Z</time>
      </trkpt>
      <trkpt lat="41.661760" lon="-6.011140">
        <ele>773.365</ele>
        <time>2022-02-24T10:41:57Z</time>
      </trkpt>
      <trkpt lat="41.662040" lon="-6.011810">
        <ele>772.542</ele>
        <time>2022-02-24T10:42:37Z</time>
      </trkpt>
      <trkpt lat="41.662190" lon="-6.012160">
        <ele>773.823</ele>
        <time>2022-02-24T10:43:17Z</time>
      </trkpt>
      <trkpt lat="41.662350" lon="-6.012520">
        <ele>776.047</ele>
        <time>2022-02-24T10:43:57Z</time>
      </trkpt>
      <trkpt lat="41.662380" lon="-6.012610">
        <ele>776.222</ele>
        <time>2022-02-24T10:44:37Z</time>
      </trkpt>
      <trkpt lat="41.662450" lon="-6.012800">
        <ele>776.819</ele>
        <time>2022-02-24T10:45:17Z</time>
      </trkpt>
      <trkpt lat="41.662560" lon="-6.013060">
        <ele>777.009</ele>
        <time>2022-02-24T10:45:57Z</time>
      </trkpt>
      <trkpt lat="41.662620" lon="-6.013210">
        <ele>776.719</ele>
        <time>2022-02-24T10:46:37Z</time>
      </trkpt>
      <trkpt lat="41.662670" lon="-6.013390">
        <ele>776.308</ele>
        <time>2022-02-24T10:47:17Z</time>
      </trkpt>
      <trkpt lat="41.662720" lon="-6.013560">
        <ele>775.390</ele>
        <time>2022-02-24T10:47:57Z</time>
      </trkpt>
      <trkpt lat="41.662750" lon="-6.013720">
        <ele>774.697</ele>
        <time>2022-02-24T10:48:37Z</time>
      </trkpt>
      <trkpt lat="41.662760" lon="-6.013760">
        <ele>774.561</ele>
        <time>2022-02-24T10:49:17Z</time>
      </trkpt>
      <trkpt lat="41.662790" lon="-6.013980">
        <ele>773.477</ele>
        <time>2022-02-24T10:49:57Z</time>
      </trkpt>
      <trkpt lat="41.662810" lon="-6.014180">
        <ele>772.134</ele>
        <time>2022-02-24T10:50:37Z</time>
      </trkpt>
      <trkpt lat="41.662910" lon="-6.014870">
        <ele>771.575</ele>
        <time>2022-02-24T10:51:17Z</time>
      </trkpt>
      <trkpt lat="41.662930" lon="-6.014970">
        <ele>771.929</ele>
        <time>2022-02-24T10:51:57Z</time>
      </trkpt>
      <trkpt lat="41.662950" lon="-6.015070">
        <ele>772.034</ele>
        <time>2022-02-24T10:52:37Z</time>
      </trkpt>
      <trkpt lat="41.663030" lon="-6.015340">
        <ele>771.886</ele>
        <time>2022-02-24T10:53:17Z</time>
      </trkpt>
      <trkpt lat="41.663080" lon="-6.015490">
        <ele>771.360</ele>
        <time>2022-02-24T10:53:57Z</time>
      </trkpt>
      <trkpt lat="41.663130" lon="-6.015610">
        <ele>771.326</ele>
        <time>2022-02-24T10:54:37Z</time>
      </trkpt>
      <trkpt lat="41.663180" lon="-6.015720">
        <ele>771.708</ele>
        <time>2022-02-24T10:55:17Z</time>
      </trkpt>
      <trkpt lat="41.663210" lon="-6.015790">
        <ele>772.027</ele>
        <time>2022-02-24T10:55:57Z</time>
      </trkpt>
      <trkpt lat="41.663210" lon="-6.015800">
        <ele>772.084</ele>
        <time>2022-02-24T10:56:37Z</time>
      </trkpt>
      <trkpt lat="41.663500" lon="-6.016400">
        <ele>773.678</ele>
        <time>2022-02-24T10:57:17Z</time>
      </trkpt>
      <trkpt lat="41.663620" lon="-6.016660">
        <ele>774.154</ele>
        <time>2022-02-24T10:57:57Z</time>
      </trkpt>
      <trkpt lat="41.664690" lon="-6.019160">
        <ele>777.031</ele>
        <time>2022-02-24T10:58:37Z</time>
      </trkpt>
      <trkpt lat="41.664800" lon="-6.019410">
        <ele>777.072</ele>
        <time>2022-02-24T10:59:17Z</time>
      </trkpt>
      <trkpt lat="41.664930" lon="-6.019740">
        <ele>776.476</ele>
        <time>2022-02-24T10:59:57Z</time>
      </trkpt>
      <trkpt lat="41.664950" lon="-6.019770">
        <ele>776.341</ele>
        <time>2022-02-24T11:00:37Z</time>
      </trkpt>
      <trkpt lat="41.665020" lon="-6.019940">
        <ele>775.574</ele>
        <time>2022-02-24T11:01:17Z</time>
      </trkpt>
      <trkpt lat="41.665110" lon="-6.020170">
        <ele>775.256</ele>
        <time>2022-02-24T11:01:57Z</time>
      </trkpt>
      <trkpt lat="41.665220" lon="-6.020450">
        <ele>775.021</ele>
        <time>2022-02-24T11:02:37Z</time>
      </trkpt>
      <trkpt lat="41.665490" lon="-6.021250">
        <ele>779.508</ele>
        <time>2022-02-24T11:03:17Z</time>
      </trkpt>
      <trkpt lat="41.665500" lon="-6.021280">
        <ele>779.846</ele>
        <time>2022-02-24T11:03:57Z</time>
      </trkpt>
      <trkpt lat="41.665560" lon="-6.021480">
        <ele>781.353</ele>
        <time>2022-02-24T11:04:37Z</time>
      </trkpt>
      <trkpt lat="41.665760" lon="-6.022070">
        <ele>781.357</ele>
        <time>2022-02-24T11:05:17Z</time>
      </trkpt>
      <trkpt lat="41.665770" lon="-6.022100">
        <ele>781.223</ele>
        <time>2022-02-24T11:05:57Z</time>
      </trkpt>
      <trkpt lat="41.665830" lon="-6.022250">
        <ele>780.910</ele>
        <time>2022-02-24T11:06:37Z</time>
      </trkpt>
      <trkpt lat="41.665880" lon="-6.022360">
        <ele>780.811</ele>
        <time>2022-02-24T11:07:17Z</time>
      </trkpt>
      <trkpt lat="41.665930" lon="-6.022470">
        <ele>780.865</ele>
        <time>2022-02-24T11:07:57Z</time>
      </trkpt>
      <trkpt lat="41.665970" lon="-6.022540">
        <ele>780.850</ele>
        <time>2022-02-24T11:08:37Z</time>
      </trkpt>
      <trkpt lat="41.665990" lon="-6.022570">
        <ele>780.719</ele>
        <time>2022-02-24T11:09:17Z</time>
      </trkpt>
      <trkpt lat="41.666010" lon="-6.022600">
        <ele>780.709</ele>
        <time>2022-02-24T11:09:57Z</time>
      </trkpt>
      <trkpt lat="41.666030" lon="-6.022630">
        <ele>780.619</ele>
        <time>2022-02-24T11:10:37Z</time>
      </trkpt>
      <trkpt lat="41.666210" lon="-6.022900">
        <ele>780.708</ele>
        <time>2022-02-24T11:11:17Z</time>
      </trkpt>
      <trkpt lat="41.666210" lon="-6.022910">
        <ele>780.750</ele>
        <time>2022-02-24T11:11:57Z</time>
      </trkpt>
      <trkpt lat="41.666820" lon="-6.023780">
        <ele>780.297</ele>
        <time>2022-02-24T11:12:37Z</time>
      </trkpt>
      <trkpt lat="41.667300" lon="-6.024480">
        <ele>779.421</ele>
        <time>2022-02-24T11:13:17Z</time>
      </trkpt>
      <trkpt lat="41.668260" lon="-6.025870">
        <ele>777.237</ele>
        <time>2022-02-24T11:13:57Z</time>
      </trkpt>
      <trkpt lat="41.668520" lon="-6.026270">
        <ele>776.354</ele>
        <time>2022-02-24T11:14:37Z</time>
      </trkpt>
      <trkpt lat="41.668620" lon="-6.026440">
        <ele>775.895</ele>
        <time>2022-02-24T11:15:17Z</time>
      </trkpt>
      <trkpt lat="41.668680" lon="-6.026550">
        <ele>775.269</ele>
        <time>2022-02-24T11:15:57Z</time>
      </trkpt>
      <trkpt lat="41.668790" lon="-6.026770">
        <ele>774.644</ele>
        <time>2022-02-24T11:16:37Z</time>
      </trkpt>
      <trkpt lat="41.668830" lon="-6.026840">
        <ele>774.464</ele>
        <time>2022-02-24T11:17:17Z</time>
      </trkpt>
      <trkpt lat="41.668920" lon="-6.027030">
        <ele>773.906</ele>
        <time>2022-02-24T11:17:57Z</time>
      </trkpt>
      <trkpt lat="41.668920" lon="-6.027050">
        <ele>773.816</ele>
        <time>2022-02-24T11:18:37Z</time>
      </trkpt>
      <trkpt lat="41.669130" lon="-6.027530">
        <ele>772.108</ele>
        <time>2022-02-24T11:19:17Z</time>
      </trkpt>
      <trkpt lat="41.669600" lon="-6.028650">
        <ele>770.435</ele>
        <time>2022-02-24T11:19:57Z</time>
      </trkpt>
      <trkpt lat="41.670530" lon="-6.030810">
        <ele>768.122</ele>
        <time>2022-02-24T11:20:37Z</time>
      </trkpt>
      <trkpt lat="41.670750" lon="-6.031330">
        <ele>766.596</ele>
        <time>2022-02-24T11:21:17Z</time>
      </trkpt>
      <trkpt lat="41.670860" lon="-6.031610">
        <ele>765.152</ele>
        <time>2022-02-24T11:21:57Z</time>
      </trkpt>
      <trkpt lat="41.670900" lon="-6.031710">
        <ele>764.899</ele>
        <time>2022-02-24T11:22:37Z</time>
      </trkpt>
      <trkpt lat="41.670940" lon="-6.031810">
        <ele>764.620</ele>
        <time>2022-02-24T11:23:17Z</time>
      </trkpt>
      <trkpt lat="41.670980" lon="-6.031930">
        <ele>764.594</ele>
        <time>2022-02-24T11:23:57Z</time>
      </trkpt>
      <trkpt lat="41.671040" lon="-6.032120">
        <ele>764.959</ele>
        <time>2022-02-24T11:24:37Z</time>
      </trkpt>
      <trkpt lat="41.671090" lon="-6.032260">
        <ele>765.231</ele>
        <time>2022-02-24T11:25:17Z</time>
      </trkpt>
      <trkpt lat="41.671130" lon="-6.032410">
        <ele>765.761</ele>
        <time>2022-02-24T11:25:57Z</time>
      </trkpt>
      <trkpt lat="41.671140" lon="-6.032470">
        <ele>765.907</ele>
        <time>2022-02-24T11:26:37Z</time>
      </trkpt>
      <trkpt lat="41.671380" lon="-6.033450">
        <ele>765.508</ele>
        <time>2022-02-24T11:27:17Z</time>
      </trkpt>
      <trkpt lat="41.671540" lon="-6.034170">
        <ele>765.052</ele>
        <time>2022-02-24T11:27:57Z</time>
      </trkpt>
      <trkpt lat="41.671660" lon="-6.034700">
        <ele>763.089</ele>
        <time>2022-02-24T11:28:37Z</time>
      </trkpt>
      <trkpt lat="41.671670" lon="-6.034760">
        <ele>762.793</ele>
        <time>2022-02-24T11:29:17Z</time>
      </trkpt>
      <trkpt lat="41.671730" lon="-6.034990">
        <ele>761.379</ele>
        <time>2022-02-24T11:29:57Z</time>
      </trkpt>
      <trkpt lat="41.671770" lon="-6.035100">
        <ele>760.896</ele>
        <time>2022-02-24T11:30:37Z</time>
      </trkpt>
      <trkpt lat="41.671860" lon="-6.035370">
        <ele>760.447</ele>
        <time>2022-02-24T11:31:17Z</time>
      </trkpt>
      <trkpt lat="41.671930" lon="-6.035590">
        <ele>760.981</ele>
        <time>2022-02-24T11:31:57Z</time>
      </trkpt>
      <trkpt lat="41.672030" lon="-6.035860">
        <ele>761.376</ele>
        <time>2022-02-24T11:32:37Z</time>
      </trkpt>
      <trkpt lat="41.672040" lon="-6.035880">
        <ele>761.376</ele>
        <time>2022-02-24T11:33:17Z</time>
      </trkpt>
      <trkpt lat="41.672110" lon="-6.036070">
        <ele>761.690</ele>
        <time>2022-02-24T11:33:57Z</time>
      </trkpt>
      <trkpt lat="41.672250" lon="-6.036420">
        <ele>760.919</ele>
        <time>2022-02-24T11:34:37Z</time>
      </trkpt>
      <trkpt lat="41.672360" lon="-6.036660">
        <ele>760.008</ele>
        <time>2022-02-24T11:35:17Z</time>
      </trkpt>
      <trkpt lat="41.672400" lon="-6.036740">
        <ele>759.656</ele>
        <time>2022-02-24T11:35:57Z</time>
      </trkpt>
      <trkpt lat="41.672440" lon="-6.036820">
        <ele>759.313</ele>
        <time>2022-02-24T11:36:37Z</time>
      </trkpt>
      <trkpt lat="41.672790" lon="-6.037490">
        <ele>759.087</ele>
        <time>2022-02-24T11:37:17Z</time>
      </trkpt>
      <trkpt lat="41.672890" lon="-6.037720">
        <ele>758.143</ele>
        <time>2022-02-24T11:37:57Z</time>
      </trkpt>
      <trkpt lat="41.672900" lon="-6.037760">
        <ele>758.040</ele>
        <time>2022-02-24T11:38:37Z</time>
      </trkpt>
      <trkpt lat="41.672910" lon="-6.037790">
        <ele>757.921</ele>
        <time>2022-02-24T11:39:17Z</time>
      </trkpt>
      <trkpt lat="41.672950" lon="-6.037890">
        <ele>757.435</ele>
        <time>2022-02-24T11:39:57Z</time>
      </trkpt>
      <trkpt lat="41.672950" lon="-6.037920">
        <ele>757.220</ele>
        <time>2022-02-24T11:40:37Z</time>
      </trkpt>
      <trkpt lat="41.672960" lon="-6.037940">
        <ele>757.143</ele>
        <time>2022-02-24T11:41:17Z</time>
      </trkpt>
      <trkpt lat="41.672990" lon="-6.038050">
        <ele>756.664</ele>
        <time>2022-02-24T11:41:57Z</time>
      </trkpt>
      <trkpt lat="41.673010" lon="-6.038140">
        <ele>756.410</ele>
        <time>2022-02-24T11:42:37Z</time>
      </trkpt>
      <trkpt lat="41.673030" lon="-6.038220">
        <ele>756.208</ele>
        <time>2022-02-24T11:43:17Z</time>
      </trkpt>
      <trkpt lat="41.673030" lon="-6.038260">
        <ele>756.133</ele>
        <time>2022-02-24T11:43:57Z</time>
      </trkpt>
      <trkpt lat="41.673040" lon="-6.038320">
        <ele>755.960</ele>
        <time>2022-02-24T11:44:37Z</time>
      </trkpt>
      <trkpt lat="41.673060" lon="-6.038550">
        <ele>756.814</ele>
        <time>2022-02-24T11:45:17Z</time>
      </trkpt>
      <trkpt lat="41.673080" lon="-6.038660">
        <ele>757.780</ele>
        <time>2022-02-24T11:45:57Z</time>
      </trkpt>
      <trkpt lat="41.673130" lon="-6.038890">
        <ele>759.837</ele>
        <time>2022-02-24T11:46:37Z</time>
      </trkpt>
      <trkpt lat="41.673130" lon="-6.038910">
        <ele>759.838</ele>
        <time>2022-02-24T11:47:17Z</time>
      </trkpt>
      <trkpt lat="41.673140" lon="-6.038920">
        <ele>759.912</ele>
        <time>2022-02-24T11:47:57Z</time>
      </trkpt>
      <trkpt lat="41.673140" lon="-6.038940">
        <ele>759.927</ele>
        <time>2022-02-24T11:48:37Z</time>
      </trkpt>
      <trkpt lat="41.673140" lon="-6.039040">
        <ele>759.953</ele>
        <time>2022-02-24T11:49:17Z</time>
      </trkpt>
      <trkpt lat="41.673140" lon="-6.039050">
        <ele>759.904</ele>
        <time>2022-02-24T11:49:57Z</time>
      </trkpt>
      <trkpt lat="41.673140" lon="-6.039060">
        <ele>759.914</ele>
        <time>2022-02-24T11:50:37Z</time>
      </trkpt>
      <trkpt lat="41.673150" lon="-6.039090">
        <ele>760.008</ele>
        <time>2022-02-24T11:51:17Z</time>
      </trkpt>
      <trkpt lat="41.673150" lon="-6.039110">
        <ele>760.074</ele>
        <time>2022-02-24T11:51:57Z</time>
      </trkpt>
      <trkpt lat="41.673150" lon="-6.039170">
        <ele>760.031</ele>
        <time>2022-02-24T11:52:37Z</time>
      </trkpt>
      <trkpt lat="41.673150" lon="-6.039190">
        <ele>760.025</ele>
        <time>2022-02-24T11:53:17Z</time>
      </trkpt>
      <trkpt lat="41.673150" lon="-6.039220">
        <ele>760.061</ele>
        <time>2022-02-24T11:53:57Z</time>
      </trkpt>
      <trkpt lat="41.673150" lon="-6.039240">
        <ele>759.968</ele>
        <time>2022-02-24T11:54:37Z</time>
      </trkpt>
      <trkpt lat="41.673150" lon="-6.039250">
        <ele>759.929</ele>
        <time>2022-02-24T11:55:17Z</time>
      </trkpt>
      <trkpt lat="41.673180" lon="-6.039400">
        <ele>760.033</ele>
        <time>2022-02-24T11:55:57Z</time>
      </trkpt>
      <trkpt lat="41.673200" lon="-6.039500">
        <ele>760.068</ele>
        <time>2022-02-24T11:56:37Z</time>
      </trkpt>
      <trkpt lat="41.673210" lon="-6.039520">
        <ele>760.117</ele>
        <time>2022-02-24T11:57:17Z</time>
      </trkpt>
      <trkpt lat="41.673230" lon="-6.039570">
        <ele>760.387</ele>
        <time>2022-02-24T11:57:57Z</time>
      </trkpt>
      <trkpt lat="41.673360" lon="-6.040070">
        <ele>761.315</ele>
        <time>2022-02-24T11:58:37Z</time>
      </trkpt>
      <trkpt lat="41.673420" lon="-6.040280">
        <ele>761.908</ele>
        <time>2022-02-24T11:59:17Z</time>
      </trkpt>
      <trkpt lat="41.673430" lon="-6.040290">
        <ele>762.190</ele>
        <time>2022-02-24T11:59:57Z</time>
      </trkpt>
      <trkpt lat="41.673430" lon="-6.040320">
        <ele>762.147</ele>
        <time>2022-02-24T12:00:37Z</time>
      </trkpt>
      <trkpt lat="41.673430" lon="-6.040360">
        <ele>762.221</ele>
        <time>2022-02-24T12:01:17Z</time>
      </trkpt>
      <trkpt lat="41.673430" lon="-6.040430">
        <ele>762.477</ele>
        <time>2022-02-24T12:01:57Z</time>
      </trkpt>
      <trkpt lat="41.673420" lon="-6.040500">
        <ele>762.584</ele>
        <time>2022-02-24T12:02:37Z</time>
      </trkpt>
      <trkpt lat="41.673580" lon="-6.041320">
        <ele>765.795</ele>
        <time>2022-02-24T12:03:17Z</time>
      </trkpt>
      <trkpt lat="41.673630" lon="-6.041430">
        <ele>766.139</ele>
        <time>2022-02-24T12:03:57Z</time>
      </trkpt>
      <trkpt lat="41.673680" lon="-6.041520">
        <ele>766.454</ele>
        <time>2022-02-24T12:04:37Z</time>
      </trkpt>
      <trkpt lat="41.673730" lon="-6.041560">
        <ele>766.936</ele>
        <time>2022-02-24T12:05:17Z</time>
      </trkpt>
      <trkpt lat="41.673740" lon="-6.041560">
        <ele>767.117</ele>
        <time>2022-02-24T12:05:57Z</time>
      </trkpt>
      <trkpt lat="41.673860" lon="-6.041730">
        <ele>768.618</ele>
        <time>2022-02-24T12:06:37Z</time>
      </trkpt>
      <trkpt lat="41.674060" lon="-6.042070">
        <ele>770.008</ele>
        <time>2022-02-24T12:07:17Z</time>
      </trkpt>
      <trkpt lat="41.674080" lon="-6.042110">
        <ele>770.012</ele>
        <time>2022-02-24T12:07:57Z</time>
      </trkpt>
      <trkpt lat="41.674100" lon="-6.042150">
        <ele>770.079</ele>
        <time>2022-02-24T12:08:37Z</time>
      </trkpt>
      <trkpt lat="41.674280" lon="-6.042460">
        <ele>768.663</ele>
        <time>2022-02-24T12:09:17Z</time>
      </trkpt>
      <trkpt lat="41.674530" lon="-6.042860">
        <ele>768.619</ele>
        <time>2022-02-24T12:09:57Z</time>
      </trkpt>
      <trkpt lat="41.674550" lon="-6.042890">
        <ele>768.846</ele>
        <time>2022-02-24T12:10:37Z</time>
      </trkpt>
      <trkpt lat="41.674560" lon="-6.042920">
        <ele>768.847</ele>
        <time>2022-02-24T12:11:17Z</time>
      </trkpt>
      <trkpt lat="41.674570" lon="-6.042930">
        <ele>768.991</ele>
        <time>2022-02-24T12:11:57Z</time>
      </trkpt>
      <trkpt lat="41.674580" lon="-6.042950">
        <ele>769.016</ele>
        <time>2022-02-24T12:12:37Z</time>
      </trkpt>
      <trkpt lat="41.674590" lon="-6.042990">
        <ele>769.077</ele>
        <time>2022-02-24T12:13:17Z</time>
      </trkpt>
      <trkpt lat="41.674630" lon="-6.043110">
        <ele>769.361</ele>
        <time>2022-02-24T12:13:57Z</time>
      </trkpt>
      <trkpt lat="41.674760" lon="-6.043460">
        <ele>770.327</ele>
        <time>2022-02-24T12:14:37Z</time>
      </trkpt>
      <trkpt lat="41.674900" lon="-6.043790">
        <ele>771.308</ele>
        <time>2022-02-24T12:15:17Z</time>
      </trkpt>
      <trkpt lat="41.674920" lon="-6.043820">
        <ele>771.456</ele>
        <time>2022-02-24T12:15:57Z</time>
      </trkpt>
      <trkpt lat="41.675000" lon="-6.043990">
        <ele>772.073</ele>
        <time>2022-02-24T12:16:37Z</time>
      </trkpt>
      <trkpt lat="41.675040" lon="-6.044090">
        <ele>772.057</ele>
        <time>2022-02-24T12:17:17Z</time>
      </trkpt>
      <trkpt lat="41.675200" lon="-6.044470">
        <ele>770.973</ele>
        <time>2022-02-24T12:17:57Z</time>
      </trkpt>
      <trkpt lat="41.675260" lon="-6.044620">
        <ele>770.310</ele>
        <time>2022-02-24T12:18:37Z</time>
      </trkpt>
      <trkpt lat="41.675470" lon="-6.045110">
        <ele>770.521</ele>
        <time>2022-02-24T12:19:17Z</time>
      </trkpt>
      <trkpt lat="41.676010" lon="-6.046330">
        <ele>771.295</ele>
        <time>2022-02-24T12:19:57Z</time>
      </trkpt>
      <trkpt lat="41.676210" lon="-6.046800">
        <ele>771.190</ele>
        <time>2022-02-24T12:20:37Z</time>
      </trkpt>
      <trkpt lat="41.676300" lon="-6.047060">
        <ele>770.558</ele>
        <time>2022-02-24T12:21:17Z</time>
      </trkpt>
      <trkpt lat="41.676380" lon="-6.047320">
        <ele>770.052</ele>
        <time>2022-02-24T12:21:57Z</time>
      </trkpt>
      <trkpt lat="41.676420" lon="-6.047520">
        <ele>769.717</ele>
        <time>2022-02-24T12:22:37Z</time>
      </trkpt>
      <trkpt lat="41.676470" lon="-6.047680">
        <ele>769.108</ele>
        <time>2022-02-24T12:23:17Z</time>
      </trkpt>
      <trkpt lat="41.676540" lon="-6.048080">
        <ele>769.054</ele>
        <time>2022-02-24T12:23:57Z</time>
      </trkpt>
      <trkpt lat="41.676580" lon="-6.048360">
        <ele>768.661</ele>
        <time>2022-02-24T12:24:37Z</time>
      </trkpt>
      <trkpt lat="41.676610" lon="-6.048670">
        <ele>768.055</ele>
        <time>2022-02-24T12:25:17Z</time>
      </trkpt>
      <trkpt lat="41.676620" lon="-6.049050">
        <ele>768.071</ele>
        <time>2022-02-24T12:25:57Z</time>
      </trkpt>
      <trkpt lat="41.676630" lon="-6.049460">
        <ele>768.188</ele>
        <time>2022-02-24T12:26:37Z</time>
      </trkpt>
      <trkpt lat="41.676660" lon="-6.050390">
        <ele>765.629</ele>
        <time>2022-02-24T12:27:17Z</time>
      </trkpt>
      <trkpt lat="41.676740" lon="-6.051870">
        <ele>765.723</ele>
        <time>2022-02-24T12:27:57Z</time>
      </trkpt>
      <trkpt lat="41.676770" lon="-6.052570">
        <ele>763.768</ele>
        <time>2022-02-24T12:28:37Z</time>
      </trkpt>
      <trkpt lat="41.676770" lon="-6.052590">
        <ele>763.727</ele>
        <time>2022-02-24T12:29:17Z</time>
      </trkpt>
      <trkpt lat="41.676790" lon="-6.052920">
        <ele>763.068</ele>
        <time>2022-02-24T12:29:57Z</time>
      </trkpt>
      <trkpt lat="41.676810" lon="-6.053120">
        <ele>763.214</ele>
        <time>2022-02-24T12:30:37Z</time>
      </trkpt>
      <trkpt lat="41.676830" lon="-6.053280">
        <ele>763.808</ele>
        <time>2022-02-24T12:31:17Z</time>
      </trkpt>
      <trkpt lat="41.676850" lon="-6.053380">
        <ele>764.171</ele>
        <time>2022-02-24T12:31:57Z</time>
      </trkpt>
      <trkpt lat="41.676870" lon="-6.053470">
        <ele>764.488</ele>
        <time>2022-02-24T12:32:37Z</time>
      </trkpt>
      <trkpt lat="41.676900" lon="-6.053600">
        <ele>764.882</ele>
        <time>2022-02-24T12:33:17Z</time>
      </trkpt>
      <trkpt lat="41.676940" lon="-6.053740">
        <ele>765.078</ele>
        <time>2022-02-24T12:33:57Z</time>
      </trkpt>
      <trkpt lat="41.676980" lon="-6.053850">
        <ele>765.025</ele>
        <time>2022-02-24T12:34:37Z</time>
      </trkpt>
      <trkpt lat="41.677280" lon="-6.054630">
        <ele>764.926</ele>
        <time>2022-02-24T12:35:17Z</time>
      </trkpt>
      <trkpt lat="41.677620" lon="-6.055530">
        <ele>766.960</ele>
        <time>2022-02-24T12:35:57Z</time>
      </trkpt>
      <trkpt lat="41.677690" lon="-6.055730">
        <ele>768.135</ele>
        <time>2022-02-24T12:36:37Z</time>
      </trkpt>
      <trkpt lat="41.677720" lon="-6.055850">
        <ele>768.847</ele>
        <time>2022-02-24T12:37:17Z</time>
      </trkpt>
      <trkpt lat="41.677750" lon="-6.055940">
        <ele>768.929</ele>
        <time>2022-02-24T12:37:57Z</time>
      </trkpt>
      <trkpt lat="41.677770" lon="-6.056090">
        <ele>769.021</ele>
        <time>2022-02-24T12:38:37Z</time>
      </trkpt>
      <trkpt lat="41.677870" lon="-6.056760">
        <ele>763.408</ele>
        <time>2022-02-24T12:39:17Z</time>
      </trkpt>
      <trkpt lat="41.677970" lon="-6.057330">
        <ele>763.713</ele>
        <time>2022-02-24T12:39:57Z</time>
      </trkpt>
      <trkpt lat="41.678000" lon="-6.057570">
        <ele>763.910</ele>
        <time>2022-02-24T12:40:37Z</time>
      </trkpt>
      <trkpt lat="41.678010" lon="-6.057590">
        <ele>763.944</ele>
        <time>2022-02-24T12:41:17Z</time>
      </trkpt>
      <trkpt lat="41.678050" lon="-6.057800">
        <ele>763.950</ele>
        <time>2022-02-24T12:41:57Z</time>
      </trkpt>
      <trkpt lat="41.678080" lon="-6.057930">
        <ele>763.527</ele>
        <time>2022-02-24T12:42:37Z</time>
      </trkpt>
      <trkpt lat="41.678120" lon="-6.058120">
        <ele>763.428</ele>
        <time>2022-02-24T12:43:17Z</time>
      </trkpt>
      <trkpt lat="41.678170" lon="-6.058330">
        <ele>764.012</ele>
        <time>2022-02-24T12:43:57Z</time>
      </trkpt>
      <trkpt lat="41.678250" lon="-6.058580">
        <ele>764.097</ele>
        <time>2022-02-24T12:44:37Z</time>
      </trkpt>
      <trkpt lat="41.678280" lon="-6.058660">
        <ele>764.049</ele>
        <time>2022-02-24T12:45:17Z</time>
      </trkpt>
      <trkpt lat="41.678300" lon="-6.058700">
        <ele>764.002</ele>
        <time>2022-02-24T12:45:57Z</time>
      </trkpt>
      <trkpt lat="41.678380" lon="-6.058920">
        <ele>764.022</ele>
        <time>2022-02-24T12:46:37Z</time>
      </trkpt>
      <trkpt lat="41.678390" lon="-6.058970">
        <ele>764.008</ele>
        <time>2022-02-24T12:47:17Z</time>
      </trkpt>
      <trkpt lat="41.678700" lon="-6.059690">
        <ele>761.613</ele>
        <time>2022-02-24T12:47:57Z</time>
      </trkpt>
      <trkpt lat="41.678820" lon="-6.059970">
        <ele>759.310</ele>
        <time>2022-02-24T12:48:37Z</time>
      </trkpt>
      <trkpt lat="41.678910" lon="-6.060170">
        <ele>758.444</ele>
        <time>2022-02-24T12:49:17Z</time>
      </trkpt>
      <trkpt lat="41.679450" lon="-6.061420">
        <ele>753.950</ele>
        <time>2022-02-24T12:49:57Z</time>
      </trkpt>
      <trkpt lat="41.679520" lon="-6.061590">
        <ele>753.597</ele>
        <time>2022-02-24T12:50:37Z</time>
      </trkpt>
      <trkpt lat="41.679930" lon="-6.062570">
        <ele>752.368</ele>
        <time>2022-02-24T12:51:17Z</time>
      </trkpt>
      <trkpt lat="41.680010" lon="-6.062780">
        <ele>751.092</ele>
        <time>2022-02-24T12:51:57Z</time>
      </trkpt>
      <trkpt lat="41.680500" lon="-6.063940">
        <ele>749.617</ele>
        <time>2022-02-24T12:52:37Z</time>
      </trkpt>
      <trkpt lat="41.680710" lon="-6.064460">
        <ele>746.934</ele>
        <time>2022-02-24T12:53:17Z</time>
      </trkpt>
      <trkpt lat="41.680840" lon="-6.064810">
        <ele>744.755</ele>
        <time>2022-02-24T12:53:57Z</time>
      </trkpt>
      <trkpt lat="41.680870" lon="-6.064890">
        <ele>744.410</ele>
        <time>2022-02-24T12:54:37Z</time>
      </trkpt>
      <trkpt lat="41.680960" lon="-6.065150">
        <ele>744.008</ele>
        <time>2022-02-24T12:55:17Z</time>
      </trkpt>
      <trkpt lat="41.681370" lon="-6.066870">
        <ele>746.182</ele>
        <time>2022-02-24T12:55:57Z</time>
      </trkpt>
      <trkpt lat="41.681440" lon="-6.067170">
        <ele>746.029</ele>
        <time>2022-02-24T12:56:37Z</time>
      </trkpt>
      <trkpt lat="41.681580" lon="-6.067590">
        <ele>744.513</ele>
        <time>2022-02-24T12:57:17Z</time>
      </trkpt>
      <trkpt lat="41.681670" lon="-6.067830">
        <ele>743.049</ele>
        <time>2022-02-24T12:57:57Z</time>
      </trkpt>
      <trkpt lat="41.681770" lon="-6.068030">
        <ele>743.486</ele>
        <time>2022-02-24T12:58:37Z</time>
      </trkpt>
      <trkpt lat="41.681790" lon="-6.068080">
        <ele>743.427</ele>
        <time>2022-02-24T12:59:17Z</time>
      </trkpt>
      <trkpt lat="41.681900" lon="-6.068270">
        <ele>743.181</ele>
        <time>2022-02-24T12:59:57Z</time>
      </trkpt>
      <trkpt lat="41.682050" lon="-6.068490">
        <ele>742.446</ele>
        <time>2022-02-24T13:00:37Z</time>
      </trkpt>
      <trkpt lat="41.682170" lon="-6.068630">
        <ele>741.984</ele>
        <time>2022-02-24T13:01:17Z</time>
      </trkpt>
      <trkpt lat="41.682260" lon="-6.068720">
        <ele>741.507</ele>
        <time>2022-02-24T13:01:57Z</time>
      </trkpt>
      <trkpt lat="41.682570" lon="-6.068970">
        <ele>743.217</ele>
        <time>2022-02-24T13:02:37Z</time>
      </trkpt>
      <trkpt lat="41.682690" lon="-6.069050">
        <ele>743.808</ele>
        <time>2022-02-24T13:03:17Z</time>
      </trkpt>
      <trkpt lat="41.682730" lon="-6.069070">
        <ele>744.037</ele>
        <time>2022-02-24T13:03:57Z</time>
      </trkpt>
      <trkpt lat="41.682810" lon="-6.069110">
        <ele>744.424</ele>
        <time>2022-02-24T13:04:37Z</time>
      </trkpt>
      <trkpt lat="41.682970" lon="-6.069190">
        <ele>745.398</ele>
        <time>2022-02-24T13:05:17Z</time>
      </trkpt>
      <trkpt lat="41.683070" lon="-6.069240">
        <ele>745.874</ele>
        <time>2022-02-24T13:05:57Z</time>
      </trkpt>
      <trkpt lat="41.683160" lon="-6.069280">
        <ele>746.191</ele>
        <time>2022-02-24T13:06:37Z</time>
      </trkpt>
      <trkpt lat="41.683340" lon="-6.069340">
        <ele>747.182</ele>
        <time>2022-02-24T13:07:17Z</time>
      </trkpt>
      <trkpt lat="41.683880" lon="-6.069560">
        <ele>751.546</ele>
        <time>2022-02-24T13:07:57Z</time>
      </trkpt>
      <trkpt lat="41.684400" lon="-6.069760">
        <ele>750.981</ele>
        <time>2022-02-24T13:08:37Z</time>
      </trkpt>
      <trkpt lat="41.684910" lon="-6.069970">
        <ele>751.122</ele>
        <time>2022-02-24T13:09:17Z</time>
      </trkpt>
      <trkpt lat="41.685530" lon="-6.070220">
        <ele>751.262</ele>
        <time>2022-02-24T13:09:57Z</time>
      </trkpt>
      <trkpt lat="41.685600" lon="-6.070240">
        <ele>751.108</ele>
        <time>2022-02-24T13:10:37Z</time>
      </trkpt>
      <trkpt lat="41.685700" lon="-6.070280">
        <ele>751.008</ele>
        <time>2022-02-24T13:11:17Z</time>
      </trkpt>
      <trkpt lat="41.686190" lon="-6.070450">
        <ele>749.391</ele>
        <time>2022-02-24T13:11:57Z</time>
      </trkpt>
      <trkpt lat="41.686400" lon="-6.070510">
        <ele>748.958</ele>
        <time>2022-02-24T13:12:37Z</time>
      </trkpt>
      <trkpt lat="41.686410" lon="-6.070510">
        <ele>748.952</ele>
        <time>2022-02-24T13:13:17Z</time>
      </trkpt>
      <trkpt lat="41.686480" lon="-6.070530">
        <ele>748.498</ele>
        <time>2022-02-24T13:13:57Z</time>
      </trkpt>
      <trkpt lat="41.686670" lon="-6.070560">
        <ele>746.925</ele>
        <time>2022-02-24T13:14:37Z</time>
      </trkpt>
      <trkpt lat="41.686780" lon="-6.070570">
        <ele>746.126</ele>
        <time>2022-02-24T13:15:17Z</time>
      </trkpt>
      <trkpt lat="41.686940" lon="-6.070580">
        <ele>744.990</ele>
        <time>2022-02-24T13:15:57Z</time>
      </trkpt>
      <trkpt lat="41.687240" lon="-6.070570">
        <ele>743.735</ele>
        <time>2022-02-24T13:16:37Z</time>
      </trkpt>
      <trkpt lat="41.687270" lon="-6.070580">
        <ele>743.314</ele>
        <time>2022-02-24T13:17:17Z</time>
      </trkpt>
      <trkpt lat="41.687430" lon="-6.070580">
        <ele>742.254</ele>
        <time>2022-02-24T13:17:57Z</time>
      </trkpt>
      <trkpt lat="41.687520" lon="-6.070580">
        <ele>741.409</ele>
        <time>2022-02-24T13:18:37Z</time>
      </trkpt>
      <trkpt lat="41.687610" lon="-6.070590">
        <ele>740.408</ele>
        <time>2022-02-24T13:19:17Z</time>
      </trkpt>
      <trkpt lat="41.687630" lon="-6.070600">
        <ele>740.060</ele>
        <time>2022-02-24T13:19:57Z</time>
      </trkpt>
      <trkpt lat="41.687700" lon="-6.070620">
        <ele>739.117</ele>
        <time>2022-02-24T13:20:37Z</time>
      </trkpt>
      <trkpt lat="41.687780" lon="-6.070640">
        <ele>738.111</ele>
        <time>2022-02-24T13:21:17Z</time>
      </trkpt>
      <trkpt lat="41.687890" lon="-6.070690">
        <ele>737.817</ele>
        <time>2022-02-24T13:21:57Z</time>
      </trkpt>
      <trkpt lat="41.687990" lon="-6.070760">
        <ele>737.084</ele>
        <time>2022-02-24T13:22:37Z</time>
      </trkpt>
      <trkpt lat="41.688090" lon="-6.070840">
        <ele>736.655</ele>
        <time>2022-02-24T13:23:17Z</time>
      </trkpt>
      <trkpt lat="41.688220" lon="-6.070950">
        <ele>737.989</ele>
        <time>2022-02-24T13:23:57Z</time>
      </trkpt>
      <trkpt lat="41.688420" lon="-6.071140">
        <ele>739.224</ele>
        <time>2022-02-24T13:24:37Z</time>
      </trkpt>
      <trkpt lat="41.688570" lon="-6.071280">
        <ele>739.456</ele>
        <time>2022-02-24T13:25:17Z</time>
      </trkpt>
      <trkpt lat="41.688720" lon="-6.071420">
        <ele>738.159</ele>
        <time>2022-02-24T13:25:57Z</time>
      </trkpt>
      <trkpt lat="41.688860" lon="-6.071550">
        <ele>736.314</ele>
        <time>2022-02-24T13:26:37Z</time>
      </trkpt>
      <trkpt lat="41.688950" lon="-6.071630">
        <ele>735.408</ele>
        <time>2022-02-24T13:27:17Z</time>
      </trkpt>
      <trkpt lat="41.689010" lon="-6.071690">
        <ele>734.834</ele>
        <time>2022-02-24T13:27:57Z</time>
      </trkpt>
      <trkpt lat="41.689160" lon="-6.071830">
        <ele>734.061</ele>
        <time>2022-02-24T13:28:37Z</time>
      </trkpt>
      <trkpt lat="41.689330" lon="-6.071990">
        <ele>733.565</ele>
        <time>2022-02-24T13:29:17Z</time>
      </trkpt>
      <trkpt lat="41.689460" lon="-6.072100">
        <ele>733.451</ele>
        <time>2022-02-24T13:29:57Z</time>
      </trkpt>
      <trkpt lat="41.689600" lon="-6.072240">
        <ele>732.388</ele>
        <time>2022-02-24T13:30:37Z</time>
      </trkpt>
      <trkpt lat="41.689630" lon="-6.072260">
        <ele>732.299</ele>
        <time>2022-02-24T13:31:17Z</time>
      </trkpt>
      <trkpt lat="41.689880" lon="-6.072490">
        <ele>729.263</ele>
        <time>2022-02-24T13:31:57Z</time>
      </trkpt>
      <trkpt lat="41.689970" lon="-6.072550">
        <ele>728.268</ele>
        <time>2022-02-24T13:32:37Z</time>
      </trkpt>
      <trkpt lat="41.690070" lon="-6.072610">
        <ele>727.593</ele>
        <time>2022-02-24T13:33:17Z</time>
      </trkpt>
      <trkpt lat="41.690090" lon="-6.072620">
        <ele>727.465</ele>
        <time>2022-02-24T13:33:57Z</time>
      </trkpt>
      <trkpt lat="41.690160" lon="-6.072660">
        <ele>727.021</ele>
        <time>2022-02-24T13:34:37Z</time>
      </trkpt>
      <trkpt lat="41.690240" lon="-6.072690">
        <ele>726.908</ele>
        <time>2022-02-24T13:35:17Z</time>
      </trkpt>
      <trkpt lat="41.690280" lon="-6.072700">
        <ele>726.878</ele>
        <time>2022-02-24T13:35:57Z</time>
      </trkpt>
      <trkpt lat="41.690390" lon="-6.072730">
        <ele>726.485</ele>
        <time>2022-02-24T13:36:37Z</time>
      </trkpt>
      <trkpt lat="41.690530" lon="-6.072740">
        <ele>726.369</ele>
        <time>2022-02-24T13:37:17Z</time>
      </trkpt>
      <trkpt lat="41.690620" lon="-6.072730">
        <ele>725.855</ele>
        <time>2022-02-24T13:37:57Z</time>
      </trkpt>
      <trkpt lat="41.690770" lon="-6.072690">
        <ele>724.622</ele>
        <time>2022-02-24T13:38:37Z</time>
      </trkpt>
      <trkpt lat="41.690880" lon="-6.072640">
        <ele>723.513</ele>
        <time>2022-02-24T13:39:17Z</time>
      </trkpt>
      <trkpt lat="41.690940" lon="-6.072600">
        <ele>723.047</ele>
        <time>2022-02-24T13:39:57Z</time>
      </trkpt>
      <trkpt lat="41.691050" lon="-6.072530">
        <ele>722.362</ele>
        <time>2022-02-24T13:40:37Z</time>
      </trkpt>
      <trkpt lat="41.691090" lon="-6.072490">
        <ele>722.222</ele>
        <time>2022-02-24T13:41:17Z</time>
      </trkpt>
      <trkpt lat="41.691150" lon="-6.072430">
        <ele>721.762</ele>
        <time>2022-02-24T13:41:57Z</time>
      </trkpt>
      <trkpt lat="41.691290" lon="-6.072270">
        <ele>718.808</ele>
        <time>2022-02-24T13:42:37Z</time>
      </trkpt>
      <trkpt lat="41.691360" lon="-6.072160">
        <ele>716.708</ele>
        <time>2022-02-24T13:43:17Z</time>
      </trkpt>
      <trkpt lat="41.691450" lon="-6.072040">
        <ele>713.651</ele>
        <time>2022-02-24T13:43:57Z</time>
      </trkpt>
      <trkpt lat="41.691560" lon="-6.071870">
        <ele>710.738</ele>
        <time>2022-02-24T13:44:37Z</time>
      </trkpt>
      <trkpt lat="41.691630" lon="-6.071750">
        <ele>710.092</ele>
        <time>2022-02-24T13:45:17Z</time>
      </trkpt>
      <trkpt lat="41.691710" lon="-6.071620">
        <ele>709.468</ele>
        <time>2022-02-24T13:45:57Z</time>
      </trkpt>
      <trkpt lat="41.691740" lon="-6.071570">
        <ele>709.155</ele>
        <time>2022-02-24T13:46:37Z</time>
      </trkpt>
      <trkpt lat="41.691830" lon="-6.071440">
        <ele>708.176</ele>
        <time>2022-02-24T13:47:17Z</time>
      </trkpt>
      <trkpt lat="41.692050" lon="-6.071110">
        <ele>706.920</ele>
        <time>2022-02-24T13:47:57Z</time>
      </trkpt>
      <trkpt lat="41.692070" lon="-6.071080">
        <ele>706.895</ele>
        <time>2022-02-24T13:48:37Z</time>
      </trkpt>
      <trkpt lat="41.692200" lon="-6.070900">
        <ele>706.184</ele>
        <time>2022-02-24T13:49:17Z</time>
      </trkpt>
      <trkpt lat="41.692380" lon="-6.070630">
        <ele>705.907</ele>
        <time>2022-02-24T13:49:57Z</time>
      </trkpt>
      <trkpt lat="41.692620" lon="-6.070310">
        <ele>707.317</ele>
        <time>2022-02-24T13:50:37Z</time>
      </trkpt>
      <trkpt lat="41.692690" lon="-6.070210">
        <ele>707.808</ele>
        <time>2022-02-24T13:51:17Z</time>
      </trkpt>
      <trkpt lat="41.692810" lon="-6.070050">
        <ele>708.067</ele>
        <time>2022-02-24T13:51:57Z</time>
      </trkpt>
      <trkpt lat="41.692820" lon="-6.070030">
        <ele>708.154</ele>
        <time>2022-02-24T13:52:37Z</time>
      </trkpt>
      <trkpt lat="41.692930" lon="-6.069890">
        <ele>708.028</ele>
        <time>2022-02-24T13:53:17Z</time>
      </trkpt>
      <trkpt lat="41.692950" lon="-6.069870">
        <ele>707.964</ele>
        <time>2022-02-24T13:53:57Z</time>
      </trkpt>
      <trkpt lat="41.693010" lon="-6.069810">
        <ele>707.771</ele>
        <time>2022-02-24T13:54:37Z</time>
      </trkpt>
      <trkpt lat="41.693080" lon="-6.069740">
        <ele>707.222</ele>
        <time>2022-02-24T13:55:17Z</time>
      </trkpt>
      <trkpt lat="41.693100" lon="-6.069730">
        <ele>706.826</ele>
        <time>2022-02-24T13:55:57Z</time>
      </trkpt>
      <trkpt lat="41.693150" lon="-6.069680">
        <ele>705.651</ele>
        <time>2022-02-24T13:56:37Z</time>
      </trkpt>
      <trkpt lat="41.693210" lon="-6.069640">
        <ele>704.151</ele>
        <time>2022-02-24T13:57:17Z</time>
      </trkpt>
      <trkpt lat="41.693250" lon="-6.069620">
        <ele>703.101</ele>
        <time>2022-02-24T13:57:57Z</time>
      </trkpt>
      <trkpt lat="41.693330" lon="-6.069580">
        <ele>701.111</ele>
        <time>2022-02-24T13:58:37Z</time>
      </trkpt>
      <trkpt lat="41.693430" lon="-6.069550">
        <ele>699.208</ele>
        <time>2022-02-24T13:59:17Z</time>
      </trkpt>
      <trkpt lat="41.693510" lon="-6.069530">
        <ele>697.934</ele>
        <time>2022-02-24T13:59:57Z</time>
      </trkpt>
      <trkpt lat="41.693570" lon="-6.069520">
        <ele>696.931</ele>
        <time>2022-02-24T14:00:37Z</time>
      </trkpt>
      <trkpt lat="41.693610" lon="-6.069520">
        <ele>696.245</ele>
        <time>2022-02-24T14:01:17Z</time>
      </trkpt>
      <trkpt lat="41.693640" lon="-6.069520">
        <ele>695.981</ele>
        <time>2022-02-24T14:01:57Z</time>
      </trkpt>
      <trkpt lat="41.693720" lon="-6.069520">
        <ele>695.058</ele>
        <time>2022-02-24T14:02:37Z</time>
      </trkpt>
      <trkpt lat="41.693780" lon="-6.069530">
        <ele>694.389</ele>
        <time>2022-02-24T14:03:17Z</time>
      </trkpt>
      <trkpt lat="41.693790" lon="-6.069540">
        <ele>694.083</ele>
        <time>2022-02-24T14:03:57Z</time>
      </trkpt>
      <trkpt lat="41.693960" lon="-6.069590">
        <ele>692.218</ele>
        <time>2022-02-24T14:04:37Z</time>
      </trkpt>
      <trkpt lat="41.693970" lon="-6.069590">
        <ele>692.156</ele>
        <time>2022-02-24T14:05:17Z</time>
      </trkpt>
      <trkpt lat="41.694050" lon="-6.069630">
        <ele>691.459</ele>
        <time>2022-02-24T14:05:57Z</time>
      </trkpt>
      <trkpt lat="41.694130" lon="-6.069670">
        <ele>690.714</ele>
        <time>2022-02-24T14:06:37Z</time>
      </trkpt>
      <trkpt lat="41.694140" lon="-6.069680">
        <ele>690.608</ele>
        <time>2022-02-24T14:07:17Z</time>
      </trkpt>
      <trkpt lat="41.694220" lon="-6.069750">
        <ele>689.774</ele>
        <time>2022-02-24T14:07:57Z</time>
      </trkpt>
      <trkpt lat="41.694280" lon="-6.069800">
        <ele>689.471</ele>
        <time>2022-02-24T14:08:37Z</time>
      </trkpt>
      <trkpt lat="41.694350" lon="-6.069880">
        <ele>689.135</ele>
        <time>2022-02-24T14:09:17Z</time>
      </trkpt>
      <trkpt lat="41.694410" lon="-6.069960">
        <ele>689.051</ele>
        <time>2022-02-24T14:09:57Z</time>
      </trkpt>
      <trkpt lat="41.694420" lon="-6.069970">
        <ele>689.018</ele>
        <time>2022-02-24T14:10:37Z</time>
      </trkpt>
      <trkpt lat="41.694500" lon="-6.070110">
        <ele>688.619</ele>
        <time>2022-02-24T14:11:17Z</time>
      </trkpt>
      <trkpt lat="41.694520" lon="-6.070160">
        <ele>688.563</ele>
        <time>2022-02-24T14:11:57Z</time>
      </trkpt>
      <trkpt lat="41.694570" lon="-6.070240">
        <ele>688.168</ele>
        <time>2022-02-24T14:12:37Z</time>
      </trkpt>
      <trkpt lat="41.694610" lon="-6.070360">
        <ele>687.999</ele>
        <time>2022-02-24T14:13:17Z</time>
      </trkpt>
      <trkpt lat="41.694670" lon="-6.070520">
        <ele>687.907</ele>
        <time>2022-02-24T14:13:57Z</time>
      </trkpt>
      <trkpt lat="41.694770" lon="-6.070800">
        <ele>689.327</ele>
        <time>2022-02-24T14:14:37Z</time>
      </trkpt>
      <trkpt lat="41.694890" lon="-6.071140">
        <ele>694.308</ele>
        <time>2022-02-24T14:15:17Z</time>
      </trkpt>
      <trkpt lat="41.694950" lon="-6.071340">
        <ele>696.678</ele>
        <time>2022-02-24T14:15:57Z</time>
      </trkpt>
      <trkpt lat="41.695010" lon="-6.071530">
        <ele>698.375</ele>
        <time>2022-02-24T14:16:37Z</time>
      </trkpt>
      <trkpt lat="41.695020" lon="-6.071560">
        <ele>698.619</ele>
        <time>2022-02-24T14:17:17Z</time>
      </trkpt>
      <trkpt lat="41.695080" lon="-6.071760">
        <ele>700.545</ele>
        <time>2022-02-24T14:17:57Z</time>
      </trkpt>
      <trkpt lat="41.695140" lon="-6.072010">
        <ele>701.882</ele>
        <time>2022-02-24T14:18:37Z</time>
      </trkpt>
      <trkpt lat="41.695180" lon="-6.072160">
        <ele>702.273</ele>
        <time>2022-02-24T14:19:17Z</time>
      </trkpt>
      <trkpt lat="41.695220" lon="-6.072420">
        <ele>700.357</ele>
        <time>2022-02-24T14:19:57Z</time>
      </trkpt>
      <trkpt lat="41.695250" lon="-6.072720">
        <ele>697.452</ele>
        <time>2022-02-24T14:20:37Z</time>
      </trkpt>
      <trkpt lat="41.695250" lon="-6.072730">
        <ele>697.399</ele>
        <time>2022-02-24T14:21:17Z</time>
      </trkpt>
      <trkpt lat="41.695240" lon="-6.072930">
        <ele>697.407</ele>
        <time>2022-02-24T14:21:57Z</time>
      </trkpt>
      <trkpt lat="41.695240" lon="-6.073140">
        <ele>698.927</ele>
        <time>2022-02-24T14:22:37Z</time>
      </trkpt>
      <trkpt lat="41.695220" lon="-6.073330">
        <ele>700.808</ele>
        <time>2022-02-24T14:23:17Z</time>
      </trkpt>
      <trkpt lat="41.695190" lon="-6.073560">
        <ele>704.278</ele>
        <time>2022-02-24T14:23:57Z</time>
      </trkpt>
      <trkpt lat="41.695150" lon="-6.073750">
        <ele>706.175</ele>
        <time>2022-02-24T14:24:37Z</time>
      </trkpt>
      <trkpt lat="41.695080" lon="-6.073980">
        <ele>707.679</ele>
        <time>2022-02-24T14:25:17Z</time>
      </trkpt>
      <trkpt lat="41.694990" lon="-6.074270">
        <ele>708.495</ele>
        <time>2022-02-24T14:25:57Z</time>
      </trkpt>
      <trkpt lat="41.694980" lon="-6.074300">
        <ele>708.532</ele>
        <time>2022-02-24T14:26:37Z</time>
      </trkpt>
      <trkpt lat="41.694910" lon="-6.074520">
        <ele>709.343</ele>
        <time>2022-02-24T14:27:17Z</time>
      </trkpt>
      <trkpt lat="41.694890" lon="-6.074580">
        <ele>709.567</ele>
        <time>2022-02-24T14:27:57Z</time>
      </trkpt>
      <trkpt lat="41.694840" lon="-6.074740">
        <ele>710.192</ele>
        <time>2022-02-24T14:28:37Z</time>
      </trkpt>
      <trkpt lat="41.694810" lon="-6.074840">
        <ele>710.772</ele>
        <time>2022-02-24T14:29:17Z</time>
      </trkpt>
      <trkpt lat="41.694790" lon="-6.074970">
        <ele>711.313</ele>
        <time>2022-02-24T14:29:57Z</time>
      </trkpt>
      <trkpt lat="41.694790" lon="-6.074980">
        <ele>711.414</ele>
        <time>2022-02-24T14:30:37Z</time>
      </trkpt>
      <trkpt lat="41.694770" lon="-6.075210">
        <ele>712.708</ele>
        <time>2022-02-24T14:31:17Z</time>
      </trkpt>
      <trkpt lat="41.694780" lon="-6.075450">
        <ele>714.416</ele>
        <time>2022-02-24T14:31:57Z</time>
      </trkpt>
      <trkpt lat="41.694780" lon="-6.075480">
        <ele>714.723</ele>
        <time>2022-02-24T14:32:37Z</time>
      </trkpt>
      <trkpt lat="41.694810" lon="-6.075680">
        <ele>715.857</ele>
        <time>2022-02-24T14:33:17Z</time>
      </trkpt>
      <trkpt lat="41.694810" lon="-6.075690">
        <ele>715.843</ele>
        <time>2022-02-24T14:33:57Z</time>
      </trkpt>
      <trkpt lat="41.694850" lon="-6.075920">
        <ele>716.520</ele>
        <time>2022-02-24T14:34:37Z</time>
      </trkpt>
      <trkpt lat="41.694950" lon="-6.076480">
        <ele>716.741</ele>
        <time>2022-02-24T14:35:17Z</time>
      </trkpt>
      <trkpt lat="41.695020" lon="-6.076860">
        <ele>718.125</ele>
        <time>2022-02-24T14:35:57Z</time>
      </trkpt>
      <trkpt lat="41.695060" lon="-6.077090">
        <ele>719.690</ele>
        <time>2022-02-24T14:36:37Z</time>
      </trkpt>
      <trkpt lat="41.695060" lon="-6.077100">
        <ele>719.751</ele>
        <time>2022-02-24T14:37:17Z</time>
      </trkpt>
      <trkpt lat="41.695200" lon="-6.077850">
        <ele>723.401</ele>
        <time>2022-02-24T14:37:57Z</time>
      </trkpt>
      <trkpt lat="41.695230" lon="-6.078030">
        <ele>724.511</ele>
        <time>2022-02-24T14:38:37Z</time>
      </trkpt>
      <trkpt lat="41.695270" lon="-6.078260">
        <ele>726.408</ele>
        <time>2022-02-24T14:39:17Z</time>
      </trkpt>
      <trkpt lat="41.695290" lon="-6.078370">
        <ele>727.224</ele>
        <time>2022-02-24T14:39:57Z</time>
      </trkpt>
      <trkpt lat="41.695350" lon="-6.078690">
        <ele>728.481</ele>
        <time>2022-02-24T14:40:37Z</time>
      </trkpt>
      <trkpt lat="41.695360" lon="-6.078730">
        <ele>728.795</ele>
        <time>2022-02-24T14:41:17Z</time>
      </trkpt>
      <trkpt lat="41.695410" lon="-6.078960">
        <ele>729.671</ele>
        <time>2022-02-24T14:41:57Z</time>
      </trkpt>
      <trkpt lat="41.695430" lon="-6.079040">
        <ele>729.948</ele>
        <time>2022-02-24T14:42:37Z</time>
      </trkpt>
      <trkpt lat="41.695470" lon="-6.079190">
        <ele>730.549</ele>
        <time>2022-02-24T14:43:17Z</time>
      </trkpt>
      <trkpt lat="41.695490" lon="-6.079250">
        <ele>730.943</ele>
        <time>2022-02-24T14:43:57Z</time>
      </trkpt>
      <trkpt lat="41.695550" lon="-6.079400">
        <ele>731.878</ele>
        <time>2022-02-24T14:44:37Z</time>
      </trkpt>
      <trkpt lat="41.695570" lon="-6.079430">
        <ele>732.192</ele>
        <time>2022-02-24T14:45:17Z</time>
      </trkpt>
      <trkpt lat="41.695660" lon="-6.079600">
        <ele>733.373</ele>
        <time>2022-02-24T14:45:57Z</time>
      </trkpt>
      <trkpt lat="41.695770" lon="-6.079750">
        <ele>733.820</ele>
        <time>2022-02-24T14:46:37Z</time>
      </trkpt>
      <trkpt lat="41.696000" lon="-6.079980">
        <ele>735.908</ele>
        <time>2022-02-24T14:47:17Z</time>
      </trkpt>
      <trkpt lat="41.696070" lon="-6.080060">
        <ele>736.648</ele>
        <time>2022-02-24T14:47:57Z</time>
      </trkpt>
      <trkpt lat="41.696220" lon="-6.080200">
        <ele>738.365</ele>
        <time>2022-02-24T14:48:37Z</time>
      </trkpt>
      <trkpt lat="41.696370" lon="-6.080330">
        <ele>739.699</ele>
        <time>2022-02-24T14:49:17Z</time>
      </trkpt>
      <trkpt lat="41.696490" lon="-6.080450">
        <ele>740.555</ele>
        <time>2022-02-24T14:49:57Z</time>
      </trkpt>
      <trkpt lat="41.696510" lon="-6.080480">
        <ele>740.662</ele>
        <time>2022-02-24T14:50:37Z</time>
      </trkpt>
      <trkpt lat="41.696780" lon="-6.080760">
        <ele>744.153</ele>
        <time>2022-02-24T14:51:17Z</time>
      </trkpt>
      <trkpt lat="41.696930" lon="-6.080940">
        <ele>745.777</ele>
        <time>2022-02-24T14:51:57Z</time>
      </trkpt>
      <trkpt lat="41.696950" lon="-6.080960">
        <ele>746.062</ele>
        <time>2022-02-24T14:52:37Z</time>
      </trkpt>
      <trkpt lat="41.697060" lon="-6.081110">
        <ele>748.256</ele>
        <time>2022-02-24T14:53:17Z</time>
      </trkpt>
      <trkpt lat="41.697120" lon="-6.081190">
        <ele>749.259</ele>
        <time>2022-02-24T14:53:57Z</time>
      </trkpt>
      <trkpt lat="41.697180" lon="-6.081280">
        <ele>749.814</ele>
        <time>2022-02-24T14:54:37Z</time>
      </trkpt>
      <trkpt lat="41.697280" lon="-6.081440">
        <ele>750.608</ele>
        <time>2022-02-24T14:55:17Z</time>
      </trkpt>
      <trkpt lat="41.697300" lon="-6.081460">
        <ele>750.744</ele>
        <time>2022-02-24T14:55:57Z</time>
      </trkpt>
      <trkpt lat="41.697420" lon="-6.081650">
        <ele>751.741</ele>
        <time>2022-02-24T14:56:37Z</time>
      </trkpt>
      <trkpt lat="41.697560" lon="-6.081870">
        <ele>752.185</ele>
        <time>2022-02-24T14:57:17Z</time>
      </trkpt>
      <trkpt lat="41.697650" lon="-6.082010">
        <ele>752.111</ele>
        <time>2022-02-24T14:57:57Z</time>
      </trkpt>
      <trkpt lat="41.697770" lon="-6.082190">
        <ele>752.928</ele>
        <time>2022-02-24T14:58:37Z</time>
      </trkpt>
      <trkpt lat="41.697840" lon="-6.082300">
        <ele>753.289</ele>
        <time>2022-02-24T14:59:17Z</time>
      </trkpt>
      <trkpt lat="41.698110" lon="-6.082670">
        <ele>754.163</ele>
        <time>2022-02-24T14:59:57Z</time>
      </trkpt>
      <trkpt lat="41.698380" lon="-6.083030">
        <ele>754.368</ele>
        <time>2022-02-24T15:00:37Z</time>
      </trkpt>
      <trkpt lat="41.698530" lon="-6.083210">
        <ele>756.079</ele>
        <time>2022-02-24T15:01:17Z</time>
      </trkpt>
      <trkpt lat="41.698800" lon="-6.083540">
        <ele>757.905</ele>
        <time>2022-02-24T15:01:57Z</time>
      </trkpt>
      <trkpt lat="41.698990" lon="-6.083790">
        <ele>758.525</ele>
        <time>2022-02-24T15:02:37Z</time>
      </trkpt>
      <trkpt lat="41.699060" lon="-6.083870">
        <ele>758.708</ele>
        <time>2022-02-24T15:03:17Z</time>
      </trkpt>
      <trkpt lat="41.699200" lon="-6.084080">
        <ele>759.056</ele>
        <time>2022-02-24T15:03:57Z</time>
      </trkpt>
      <trkpt lat="41.699290" lon="-6.084230">
        <ele>759.023</ele>
        <time>2022-02-24T15:04:37Z</time>
      </trkpt>
      <trkpt lat="41.699410" lon="-6.084420">
        <ele>759.087</ele>
        <time>2022-02-24T15:05:17Z</time>
      </trkpt>
      <trkpt lat="41.699430" lon="-6.084450">
        <ele>759.033</ele>
        <time>2022-02-24T15:05:57Z</time>
      </trkpt>
      <trkpt lat="41.699440" lon="-6.084480">
        <ele>759.080</ele>
        <time>2022-02-24T15:06:37Z</time>
      </trkpt>
      <trkpt lat="41.699490" lon="-6.084560">
        <ele>759.161</ele>
        <time>2022-02-24T15:07:17Z</time>
      </trkpt>
      <trkpt lat="41.699550" lon="-6.084670">
        <ele>759.125</ele>
        <time>2022-02-24T15:07:57Z</time>
      </trkpt>
      <trkpt lat="41.699580" lon="-6.084730">
        <ele>759.020</ele>
        <time>2022-02-24T15:08:37Z</time>
      </trkpt>
      <trkpt lat="41.699710" lon="-6.085100">
        <ele>759.048</ele>
        <time>2022-02-24T15:09:17Z</time>
      </trkpt>
      <trkpt lat="41.699770" lon="-6.085340">
        <ele>758.961</ele>
        <time>2022-02-24T15:09:57Z</time>
      </trkpt>
      <trkpt lat="41.699810" lon="-6.085560">
        <ele>758.317</ele>
        <time>2022-02-24T15:10:37Z</time>
      </trkpt>
      <trkpt lat="41.699830" lon="-6.085760">
        <ele>758.808</ele>
        <time>2022-02-24T15:11:17Z</time>
      </trkpt>
      <trkpt lat="41.699850" lon="-6.085950">
        <ele>759.453</ele>
        <time>2022-02-24T15:11:57Z</time>
      </trkpt>
      <trkpt lat="41.699860" lon="-6.086160">
        <ele>760.290</ele>
        <time>2022-02-24T15:12:37Z</time>
      </trkpt>
      <trkpt lat="41.699890" lon="-6.086620">
        <ele>761.314</ele>
        <time>2022-02-24T15:13:17Z</time>
      </trkpt>
      <trkpt lat="41.699910" lon="-6.087010">
        <ele>761.870</ele>
        <time>2022-02-24T15:13:57Z</time>
      </trkpt>
      <trkpt lat="41.699910" lon="-6.087130">
        <ele>761.527</ele>
        <time>2022-02-24T15:14:37Z</time>
      </trkpt>
      <trkpt lat="41.699920" lon="-6.087250">
        <ele>761.318</ele>
        <time>2022-02-24T15:15:17Z</time>
      </trkpt>
      <trkpt lat="41.699930" lon="-6.087620">
        <ele>761.042</ele>
        <time>2022-02-24T15:15:57Z</time>
      </trkpt>
      <trkpt lat="41.699930" lon="-6.087730">
        <ele>760.887</ele>
        <time>2022-02-24T15:16:37Z</time>
      </trkpt>
      <trkpt lat="41.699940" lon="-6.088130">
        <ele>759.246</ele>
        <time>2022-02-24T15:17:17Z</time>
      </trkpt>
      <trkpt lat="41.699950" lon="-6.088580">
        <ele>757.588</ele>
        <time>2022-02-24T15:17:57Z</time>
      </trkpt>
      <trkpt lat="41.699960" lon="-6.088960">
        <ele>756.116</ele>
        <time>2022-02-24T15:18:37Z</time>
      </trkpt>
      <trkpt lat="41.699960" lon="-6.089180">
        <ele>754.708</ele>
        <time>2022-02-24T15:19:17Z</time>
      </trkpt>
      <trkpt lat="41.699980" lon="-6.089550">
        <ele>755.283</ele>
        <time>2022-02-24T15:19:57Z</time>
      </trkpt>
      <trkpt lat="41.699990" lon="-6.090040">
        <ele>756.180</ele>
        <time>2022-02-24T15:20:37Z</time>
      </trkpt>
      <trkpt lat="41.700010" lon="-6.090520">
        <ele>757.084</ele>
        <time>2022-02-24T15:21:17Z</time>
      </trkpt>
      <trkpt lat="41.700010" lon="-6.090770">
        <ele>757.030</ele>
        <time>2022-02-24T15:21:57Z</time>
      </trkpt>
      <trkpt lat="41.700010" lon="-6.090950">
        <ele>757.017</ele>
        <time>2022-02-24T15:22:37Z</time>
      </trkpt>
      <trkpt lat="41.699990" lon="-6.091060">
        <ele>757.038</ele>
        <time>2022-02-24T15:23:17Z</time>
      </trkpt>
      <trkpt lat="41.699990" lon="-6.091090">
        <ele>757.082</ele>
        <time>2022-02-24T15:23:57Z</time>
      </trkpt>
      <trkpt lat="41.699960" lon="-6.091210">
        <ele>756.617</ele>
        <time>2022-02-24T15:24:37Z</time>
      </trkpt>
      <trkpt lat="41.699930" lon="-6.091350">
        <ele>756.155</ele>
        <time>2022-02-24T15:25:17Z</time>
      </trkpt>
      <trkpt lat="41.699880" lon="-6.091500">
        <ele>756.007</ele>
        <time>2022-02-24T15:25:57Z</time>
      </trkpt>
      <trkpt lat="41.699790" lon="-6.091760">
        <ele>756.017</ele>
        <time>2022-02-24T15:26:37Z</time>
      </trkpt>
      <trkpt lat="41.699760" lon="-6.091840">
        <ele>756.008</ele>
        <time>2022-02-24T15:27:17Z</time>
      </trkpt>
      <trkpt lat="41.699720" lon="-6.091980">
        <ele>756.044</ele>
        <time>2022-02-24T15:27:57Z</time>
      </trkpt>
      <trkpt lat="41.699640" lon="-6.092210">
        <ele>756.021</ele>
        <time>2022-02-24T15:28:37Z</time>
      </trkpt>
      <trkpt lat="41.699580" lon="-6.092420">
        <ele>755.645</ele>
        <time>2022-02-24T15:29:17Z</time>
      </trkpt>
      <trkpt lat="41.699520" lon="-6.092650">
        <ele>754.971</ele>
        <time>2022-02-24T15:29:57Z</time>
      </trkpt>
      <trkpt lat="41.699510" lon="-6.092680">
        <ele>754.758</ele>
        <time>2022-02-24T15:30:37Z</time>
      </trkpt>
      <trkpt lat="41.699430" lon="-6.093050">
        <ele>753.099</ele>
        <time>2022-02-24T15:31:17Z</time>
      </trkpt>
      <trkpt lat="41.699420" lon="-6.093110">
        <ele>752.783</ele>
        <time>2022-02-24T15:31:57Z</time>
      </trkpt>
      <trkpt lat="41.699370" lon="-6.093330">
        <ele>751.718</ele>
        <time>2022-02-24T15:32:37Z</time>
      </trkpt>
      <trkpt lat="41.699320" lon="-6.093610">
        <ele>749.691</ele>
        <time>2022-02-24T15:33:17Z</time>
      </trkpt>
      <trkpt lat="41.699250" lon="-6.093920">
        <ele>746.481</ele>
        <time>2022-02-24T15:33:57Z</time>
      </trkpt>
      <trkpt lat="41.699210" lon="-6.094150">
        <ele>744.019</ele>
        <time>2022-02-24T15:34:37Z</time>
      </trkpt>
      <trkpt lat="41.699180" lon="-6.094270">
        <ele>743.208</ele>
        <time>2022-02-24T15:35:17Z</time>
      </trkpt>
      <trkpt lat="41.699140" lon="-6.094470">
        <ele>742.398</ele>
        <time>2022-02-24T15:35:57Z</time>
      </trkpt>
      <trkpt lat="41.699090" lon="-6.094730">
        <ele>742.595</ele>
        <time>2022-02-24T15:36:37Z</time>
      </trkpt>
      <trkpt lat="41.699040" lon="-6.095090">
        <ele>741.929</ele>
        <time>2022-02-24T15:37:17Z</time>
      </trkpt>
      <trkpt lat="41.699020" lon="-6.095210">
        <ele>741.685</ele>
        <time>2022-02-24T15:37:57Z</time>
      </trkpt>
      <trkpt lat="41.699010" lon="-6.095310">
        <ele>741.492</ele>
        <time>2022-02-24T15:38:37Z</time>
      </trkpt>
      <trkpt lat="41.699000" lon="-6.095460">
        <ele>741.183</ele>
        <time>2022-02-24T15:39:17Z</time>
      </trkpt>
      <trkpt lat="41.698990" lon="-6.095670">
        <ele>740.977</ele>
        <time>2022-02-24T15:39:57Z</time>
      </trkpt>
      <trkpt lat="41.698990" lon="-6.095900">
        <ele>740.232</ele>
        <time>2022-02-24T15:40:37Z</time>
      </trkpt>
      <trkpt lat="41.699010" lon="-6.096090">
        <ele>738.729</ele>
        <time>2022-02-24T15:41:17Z</time>
      </trkpt>
      <trkpt lat="41.699040" lon="-6.096340">
        <ele>736.800</ele>
        <time>2022-02-24T15:41:57Z</time>
      </trkpt>
      <trkpt lat="41.699050" lon="-6.096410">
        <ele>736.220</ele>
        <time>2022-02-24T15:42:37Z</time>
      </trkpt>
      <trkpt lat="41.699080" lon="-6.096550">
        <ele>735.008</ele>
        <time>2022-02-24T15:43:17Z</time>
      </trkpt>
      <trkpt lat="41.699100" lon="-6.096640">
        <ele>734.241</ele>
        <time>2022-02-24T15:43:57Z</time>
      </trkpt>
      <trkpt lat="41.699150" lon="-6.096850">
        <ele>731.568</ele>
        <time>2022-02-24T15:44:37Z</time>
      </trkpt>
      <trkpt lat="41.699150" lon="-6.096870">
        <ele>731.242</ele>
        <time>2022-02-24T15:45:17Z</time>
      </trkpt>
      <trkpt lat="41.699200" lon="-6.097080">
        <ele>728.618</ele>
        <time>2022-02-24T15:45:57Z</time>
      </trkpt>
      <trkpt lat="41.699210" lon="-6.097100">
        <ele>728.495</ele>
        <time>2022-02-24T15:46:37Z</time>
      </trkpt>
      <trkpt lat="41.699260" lon="-6.097280">
        <ele>726.346</ele>
        <time>2022-02-24T15:47:17Z</time>
      </trkpt>
      <trkpt lat="41.699270" lon="-6.097320">
        <ele>725.920</ele>
        <time>2022-02-24T15:47:57Z</time>
      </trkpt>
      <trkpt lat="41.699470" lon="-6.098040">
        <ele>718.535</ele>
        <time>2022-02-24T15:48:37Z</time>
      </trkpt>
      <trkpt lat="41.699500" lon="-6.098140">
        <ele>717.929</ele>
        <time>2022-02-24T15:49:17Z</time>
      </trkpt>
      <trkpt lat="41.699550" lon="-6.098300">
        <ele>717.000</ele>
        <time>2022-02-24T15:49:57Z</time>
      </trkpt>
      <trkpt lat="41.699600" lon="-6.098490">
        <ele>715.720</ele>
        <time>2022-02-24T15:50:37Z</time>
      </trkpt>
      <trkpt lat="41.699640" lon="-6.098590">
        <ele>714.908</ele>
        <time>2022-02-24T15:51:17Z</time>
      </trkpt>
      <trkpt lat="41.699710" lon="-6.098810">
        <ele>713.571</ele>
        <time>2022-02-24T15:51:57Z</time>
      </trkpt>
      <trkpt lat="41.699790" lon="-6.099020">
        <ele>712.698</ele>
        <time>2022-02-24T15:52:37Z</time>
      </trkpt>
      <trkpt lat="41.699800" lon="-6.099040">
        <ele>712.482</ele>
        <time>2022-02-24T15:53:17Z</time>
      </trkpt>
      <trkpt lat="41.699830" lon="-6.099120">
        <ele>711.998</ele>
        <time>2022-02-24T15:53:57Z</time>
      </trkpt>
      <trkpt lat="41.699880" lon="-6.099230">
        <ele>710.975</ele>
        <time>2022-02-24T15:54:37Z</time>
      </trkpt>
      <trkpt lat="41.699890" lon="-6.099270">
        <ele>710.586</ele>
        <time>2022-02-24T15:55:17Z</time>
      </trkpt>
      <trkpt lat="41.699970" lon="-6.099440">
        <ele>708.950</ele>
        <time>2022-02-24T15:55:57Z</time>
      </trkpt>
      <trkpt lat="41.700000" lon="-6.099490">
        <ele>708.745</ele>
        <time>2022-02-24T15:56:37Z</time>
      </trkpt>
      <trkpt lat="41.700080" lon="-6.099640">
        <ele>708.069</ele>
        <time>2022-02-24T15:57:17Z</time>
      </trkpt>
      <trkpt lat="41.700170" lon="-6.099820">
        <ele>706.304</ele>
        <time>2022-02-24T15:57:57Z</time>
      </trkpt>
      <trkpt lat="41.700180" lon="-6.099840">
        <ele>706.124</ele>
        <time>2022-02-24T15:58:37Z</time>
      </trkpt>
      <trkpt lat="41.700270" lon="-6.100040">
        <ele>704.308</ele>
        <time>2022-02-24T15:59:17Z</time>
      </trkpt>
      <trkpt lat="41.700280" lon="-6.100060">
        <ele>704.215</ele>
        <time>2022-02-24T15:59:57Z</time>
      </trkpt>
      <trkpt lat="41.700370" lon="-6.100270">
        <ele>702.482</ele>
        <time>2022-02-24T16:00:37Z</time>
      </trkpt>
      <trkpt lat="41.700440" lon="-6.100470">
        <ele>701.466</ele>
        <time>2022-02-24T16:01:17Z</time>
      </trkpt>
      <trkpt lat="41.700470" lon="-6.100610">
        <ele>700.572</ele>
        <time>2022-02-24T16:01:57Z</time>
      </trkpt>
      <trkpt lat="41.700510" lon="-6.100800">
        <ele>698.859</ele>
        <time>2022-02-24T16:02:37Z</time>
      </trkpt>
      <trkpt lat="41.700530" lon="-6.101010">
        <ele>696.060</ele>
        <time>2022-02-24T16:03:17Z</time>
      </trkpt>
      <trkpt lat="41.700560" lon="-6.101220">
        <ele>693.114</ele>
        <time>2022-02-24T16:03:57Z</time>
      </trkpt>
      <trkpt lat="41.700610" lon="-6.101680">
        <ele>686.919</ele>
        <time>2022-02-24T16:04:37Z</time>
      </trkpt>
      <trkpt lat="41.700620" lon="-6.101770">
        <ele>686.193</ele>
        <time>2022-02-24T16:05:17Z</time>
      </trkpt>
      <trkpt lat="41.700640" lon="-6.101920">
        <ele>684.865</ele>
        <time>2022-02-24T16:05:57Z</time>
      </trkpt>
      <trkpt lat="41.700650" lon="-6.102060">
        <ele>685.121</ele>
        <time>2022-02-24T16:06:37Z</time>
      </trkpt>
      <trkpt lat="41.700660" lon="-6.102160">
        <ele>685.608</ele>
        <time>2022-02-24T16:07:17Z</time>
      </trkpt>
      <trkpt lat="41.700660" lon="-6.102210">
        <ele>685.858</ele>
        <time>2022-02-24T16:07:57Z</time>
      </trkpt>
      <trkpt lat="41.700660" lon="-6.102340">
        <ele>688.375</ele>
        <time>2022-02-24T16:08:37Z</time>
      </trkpt>
      <trkpt lat="41.700661" lon="-6.102340">
        <ele>688.369</ele>
        <time>2022-02-24T16:09:17Z</time>
      </trkpt>
      <trkpt lat="41.700750" lon="-6.102310">
        <ele>689.535</ele>
        <time>2022-02-24T16:09:57Z</time>
      </trkpt>
      <trkpt lat="41.700910" lon="-6.102240">
        <ele>691.452</ele>
        <time>2022-02-24T16:10:37Z</time>
      </trkpt>
      <trkpt lat="41.701120" lon="-6.102160">
        <ele>694.263</ele>
        <time>2022-02-24T16:11:17Z</time>
      </trkpt>
      <trkpt lat="41.701350" lon="-6.102060">
        <ele>696.867</ele>
        <time>2022-02-24T16:11:57Z</time>
      </trkpt>
      <trkpt lat="41.701430" lon="-6.102030">
        <ele>697.892</ele>
        <time>2022-02-24T16:12:37Z</time>
      </trkpt>
      <trkpt lat="41.701520" lon="-6.101990">
        <ele>698.792</ele>
        <time>2022-02-24T16:13:17Z</time>
      </trkpt>
      <trkpt lat="41.701790" lon="-6.101860">
        <ele>699.373</ele>
        <time>2022-02-24T16:13:57Z</time>
      </trkpt>
      <trkpt lat="41.702060" lon="-6.101690">
        <ele>695.220</ele>
        <time>2022-02-24T16:14:37Z</time>
      </trkpt>
      <trkpt lat="41.702250" lon="-6.101520">
        <ele>692.208</ele>
        <time>2022-02-24T16:15:17Z</time>
      </trkpt>
      <trkpt lat="41.702480" lon="-6.101320">
        <ele>691.828</ele>
        <time>2022-02-24T16:15:57Z</time>
      </trkpt>
      <trkpt lat="41.702700" lon="-6.101060">
        <ele>691.575</ele>
        <time>2022-02-24T16:16:37Z</time>
      </trkpt>
      <trkpt lat="41.702740" lon="-6.101010">
        <ele>691.649</ele>
        <time>2022-02-24T16:17:17Z</time>
      </trkpt>
      <trkpt lat="41.702880" lon="-6.100850">
        <ele>691.775</ele>
        <time>2022-02-24T16:17:57Z</time>
      </trkpt>
      <trkpt lat="41.702900" lon="-6.100830">
        <ele>691.812</ele>
        <time>2022-02-24T16:18:37Z</time>
      </trkpt>
      <trkpt lat="41.703010" lon="-6.100690">
        <ele>692.693</ele>
        <time>2022-02-24T16:19:17Z</time>
      </trkpt>
      <trkpt lat="41.703150" lon="-6.100530">
        <ele>693.677</ele>
        <time>2022-02-24T16:19:57Z</time>
      </trkpt>
      <trkpt lat="41.703190" lon="-6.100480">
        <ele>693.972</ele>
        <time>2022-02-24T16:20:37Z</time>
      </trkpt>
      <trkpt lat="41.703330" lon="-6.100340">
        <ele>693.924</ele>
        <time>2022-02-24T16:21:17Z</time>
      </trkpt>
      <trkpt lat="41.703480" lon="-6.100220">
        <ele>693.704</ele>
        <time>2022-02-24T16:21:57Z</time>
      </trkpt>
      <trkpt lat="41.703610" lon="-6.100160">
        <ele>693.514</ele>
        <time>2022-02-24T16:22:37Z</time>
      </trkpt>
      <trkpt lat="41.703660" lon="-6.100130">
        <ele>693.308</ele>
        <time>2022-02-24T16:23:17Z</time>
      </trkpt>
      <trkpt lat="41.703780" lon="-6.100100">
        <ele>694.261</ele>
        <time>2022-02-24T16:23:57Z</time>
      </trkpt>
      <trkpt lat="41.703820" lon="-6.100090">
        <ele>694.528</ele>
        <time>2022-02-24T16:24:37Z</time>
      </trkpt>
      <trkpt lat="41.703960" lon="-6.100080">
        <ele>695.862</ele>
        <time>2022-02-24T16:25:17Z</time>
      </trkpt>
      <trkpt lat="41.704000" lon="-6.100080">
        <ele>696.288</ele>
        <time>2022-02-24T16:25:57Z</time>
      </trkpt>
      <trkpt lat="41.704140" lon="-6.100080">
        <ele>697.645</ele>
        <time>2022-02-24T16:26:37Z</time>
      </trkpt>
      <trkpt lat="41.704150" lon="-6.100080">
        <ele>697.736</ele>
        <time>2022-02-24T16:27:17Z</time>
      </trkpt>
      <trkpt lat="41.704250" lon="-6.100080">
        <ele>697.380</ele>
        <time>2022-02-24T16:27:57Z</time>
      </trkpt>
      <trkpt lat="41.704360" lon="-6.100070">
        <ele>696.445</ele>
        <time>2022-02-24T16:28:37Z</time>
      </trkpt>
      <trkpt lat="41.704440" lon="-6.100050">
        <ele>695.628</ele>
        <time>2022-02-24T16:29:17Z</time>
      </trkpt>
      <trkpt lat="41.704500" lon="-6.100030">
        <ele>694.989</ele>
        <time>2022-02-24T16:29:57Z</time>
      </trkpt>
      <trkpt lat="41.704650" lon="-6.099990">
        <ele>693.617</ele>
        <time>2022-02-24T16:30:37Z</time>
      </trkpt>
      <trkpt lat="41.704670" lon="-6.099980">
        <ele>693.408</ele>
        <time>2022-02-24T16:31:17Z</time>
      </trkpt>
      <trkpt lat="41.705030" lon="-6.099900">
        <ele>693.661</ele>
        <time>2022-02-24T16:31:57Z</time>
      </trkpt>
      <trkpt lat="41.705200" lon="-6.099860">
        <ele>694.978</ele>
        <time>2022-02-24T16:32:37Z</time>
      </trkpt>
      <trkpt lat="41.705320" lon="-6.099830">
        <ele>695.972</ele>
        <time>2022-02-24T16:33:17Z</time>
      </trkpt>
      <trkpt lat="41.705560" lon="-6.099760">
        <ele>698.338</ele>
        <time>2022-02-24T16:33:57Z</time>
      </trkpt>
      <trkpt lat="41.705680" lon="-6.099720">
        <ele>698.495</ele>
        <time>2022-02-24T16:34:37Z</time>
      </trkpt>
      <trkpt lat="41.705730" lon="-6.099700">
        <ele>698.556</ele>
        <time>2022-02-24T16:35:17Z</time>
      </trkpt>
      <trkpt lat="41.705880" lon="-6.099640">
        <ele>699.210</ele>
        <time>2022-02-24T16:35:57Z</time>
      </trkpt>
      <trkpt lat="41.705900" lon="-6.099630">
        <ele>699.525</ele>
        <time>2022-02-24T16:36:37Z</time>
      </trkpt>
      <trkpt lat="41.705990" lon="-6.099580">
        <ele>700.842</ele>
        <time>2022-02-24T16:37:17Z</time>
      </trkpt>
      <trkpt lat="41.706200" lon="-6.099450">
        <ele>705.322</ele>
        <time>2022-02-24T16:37:57Z</time>
      </trkpt>
      <trkpt lat="41.706230" lon="-6.099430">
        <ele>706.114</ele>
        <time>2022-02-24T16:38:37Z</time>
      </trkpt>
      <trkpt lat="41.706460" lon="-6.099270">
        <ele>710.208</ele>
        <time>2022-02-24T16:39:17Z</time>
      </trkpt>
      <trkpt lat="41.706550" lon="-6.099210">
        <ele>710.843</ele>
        <time>2022-02-24T16:39:57Z</time>
      </trkpt>
      <trkpt lat="41.706710" lon="-6.099090">
        <ele>711.040</ele>
        <time>2022-02-24T16:40:37Z</time>
      </trkpt>
      <trkpt lat="41.706840" lon="-6.098980">
        <ele>710.964</ele>
        <time>2022-02-24T16:41:17Z</time>
      </trkpt>
      <trkpt lat="41.706850" lon="-6.098960">
        <ele>710.780</ele>
        <time>2022-02-24T16:41:57Z</time>
      </trkpt>
      <trkpt lat="41.706920" lon="-6.098880">
        <ele>710.557</ele>
        <time>2022-02-24T16:42:37Z</time>
      </trkpt>
      <trkpt lat="41.707010" lon="-6.098670">
        <ele>710.398</ele>
        <time>2022-02-24T16:43:17Z</time>
      </trkpt>
      <trkpt lat="41.707060" lon="-6.098570">
        <ele>710.682</ele>
        <time>2022-02-24T16:43:57Z</time>
      </trkpt>
      <trkpt lat="41.707110" lon="-6.098430">
        <ele>710.557</ele>
        <time>2022-02-24T16:44:37Z</time>
      </trkpt>
      <trkpt lat="41.707150" lon="-6.098360">
        <ele>710.786</ele>
        <time>2022-02-24T16:45:17Z</time>
      </trkpt>
      <trkpt lat="41.707240" lon="-6.098190">
        <ele>710.860</ele>
        <time>2022-02-24T16:45:57Z</time>
      </trkpt>
      <trkpt lat="41.707260" lon="-6.098160">
        <ele>710.926</ele>
        <time>2022-02-24T16:46:37Z</time>
      </trkpt>
      <trkpt lat="41.707400" lon="-6.097960">
        <ele>711.908</ele>
        <time>2022-02-24T16:47:17Z</time>
      </trkpt>
      <trkpt lat="41.707520" lon="-6.097850">
        <ele>712.817</ele>
        <time>2022-02-24T16:47:57Z</time>
      </trkpt>
      <trkpt lat="41.707590" lon="-6.097790">
        <ele>713.164</ele>
        <time>2022-02-24T16:48:37Z</time>
      </trkpt>
      <trkpt lat="41.707680" lon="-6.097720">
        <ele>713.558</ele>
        <time>2022-02-24T16:49:17Z</time>
      </trkpt>
      <trkpt lat="41.708020" lon="-6.097470">
        <ele>713.614</ele>
        <time>2022-02-24T16:49:57Z</time>
      </trkpt>
      <trkpt lat="41.708150" lon="-6.097370">
        <ele>713.771</ele>
        <time>2022-02-24T16:50:37Z</time>
      </trkpt>
      <trkpt lat="41.708410" lon="-6.097180">
        <ele>713.692</ele>
        <time>2022-02-24T16:51:17Z</time>
      </trkpt>
      <trkpt lat="41.708460" lon="-6.097130">
        <ele>713.936</ele>
        <time>2022-02-24T16:51:57Z</time>
      </trkpt>
      <trkpt lat="41.708630" lon="-6.097000">
        <ele>714.221</ele>
        <time>2022-02-24T16:52:37Z</time>
      </trkpt>
      <trkpt lat="41.708760" lon="-6.096900">
        <ele>714.481</ele>
        <time>2022-02-24T16:53:17Z</time>
      </trkpt>
      <trkpt lat="41.708860" lon="-6.096860">
        <ele>714.661</ele>
        <time>2022-02-24T16:53:57Z</time>
      </trkpt>
      <trkpt lat="41.708990" lon="-6.096840">
        <ele>714.817</ele>
        <time>2022-02-24T16:54:37Z</time>
      </trkpt>
      <trkpt lat="41.709120" lon="-6.096840">
        <ele>714.808</ele>
        <time>2022-02-24T16:55:17Z</time>
      </trkpt>
      <trkpt lat="41.709250" lon="-6.096860">
        <ele>715.137</ele>
        <time>2022-02-24T16:55:57Z</time>
      </trkpt>
      <trkpt lat="41.709370" lon="-6.096870">
        <ele>715.874</ele>
        <time>2022-02-24T16:56:37Z</time>
      </trkpt>
      <trkpt lat="41.709490" lon="-6.096900">
        <ele>716.568</ele>
        <time>2022-02-24T16:57:17Z</time>
      </trkpt>
      <trkpt lat="41.709510" lon="-6.096900">
        <ele>716.724</ele>
        <time>2022-02-24T16:57:57Z</time>
      </trkpt>
      <trkpt lat="41.709640" lon="-6.096950">
        <ele>717.541</ele>
        <time>2022-02-24T16:58:37Z</time>
      </trkpt>
      <trkpt lat="41.709660" lon="-6.096960">
        <ele>717.752</ele>
        <time>2022-02-24T16:59:17Z</time>
      </trkpt>
      <trkpt lat="41.709800" lon="-6.097020">
        <ele>719.296</ele>
        <time>2022-02-24T16:59:57Z</time>
      </trkpt>
      <trkpt lat="41.710060" lon="-6.097140">
        <ele>720.491</ele>
        <time>2022-02-24T17:00:37Z</time>
      </trkpt>
      <trkpt lat="41.710170" lon="-6.097190">
        <ele>720.311</ele>
        <time>2022-02-24T17:01:17Z</time>
      </trkpt>
      <trkpt lat="41.710310" lon="-6.097260">
        <ele>720.221</ele>
        <time>2022-02-24T17:01:57Z</time>
      </trkpt>
      <trkpt lat="41.710340" lon="-6.097280">
        <ele>720.403</ele>
        <time>2022-02-24T17:02:37Z</time>
      </trkpt>
      <trkpt lat="41.710510" lon="-6.097350">
        <ele>720.908</ele>
        <time>2022-02-24T17:03:17Z</time>
      </trkpt>
      <trkpt lat="41.710530" lon="-6.097360">
        <ele>720.960</ele>
        <time>2022-02-24T17:03:57Z</time>
      </trkpt>
      <trkpt lat="41.710680" lon="-6.097430">
        <ele>721.267</ele>
        <time>2022-02-24T17:04:37Z</time>
      </trkpt>
      <trkpt lat="41.710790" lon="-6.097490">
        <ele>721.031</ele>
        <time>2022-02-24T17:05:17Z</time>
      </trkpt>
      <trkpt lat="41.710850" lon="-6.097510">
        <ele>721.377</ele>
        <time>2022-02-24T17:05:57Z</time>
      </trkpt>
      <trkpt lat="41.711010" lon="-6.097570">
        <ele>723.314</ele>
        <time>2022-02-24T17:06:37Z</time>
      </trkpt>
      <trkpt lat="41.711020" lon="-6.097580">
        <ele>723.445</ele>
        <time>2022-02-24T17:07:17Z</time>
      </trkpt>
      <trkpt lat="41.711190" lon="-6.097630">
        <ele>724.889</ele>
        <time>2022-02-24T17:07:57Z</time>
      </trkpt>
      <trkpt lat="41.711200" lon="-6.097630">
        <ele>724.994</ele>
        <time>2022-02-24T17:08:37Z</time>
      </trkpt>
      <trkpt lat="41.711330" lon="-6.097670">
        <ele>725.767</ele>
        <time>2022-02-24T17:09:17Z</time>
      </trkpt>
      <trkpt lat="41.711370" lon="-6.097680">
        <ele>725.981</ele>
        <time>2022-02-24T17:09:57Z</time>
      </trkpt>
      <trkpt lat="41.711460" lon="-6.097690">
        <ele>726.019</ele>
        <time>2022-02-24T17:10:37Z</time>
      </trkpt>
      <trkpt lat="41.711600" lon="-6.097700">
        <ele>726.108</ele>
        <time>2022-02-24T17:11:17Z</time>
      </trkpt>
      <trkpt lat="41.711750" lon="-6.097690">
        <ele>726.265</ele>
        <time>2022-02-24T17:11:57Z</time>
      </trkpt>
      <trkpt lat="41.711940" lon="-6.097650">
        <ele>726.482</ele>
        <time>2022-02-24T17:12:37Z</time>
      </trkpt>
      <trkpt lat="41.712070" lon="-6.097620">
        <ele>727.596</ele>
        <time>2022-02-24T17:13:17Z</time>
      </trkpt>
      <trkpt lat="41.712190" lon="-6.097580">
        <ele>728.542</ele>
        <time>2022-02-24T17:13:57Z</time>
      </trkpt>
      <trkpt lat="41.712260" lon="-6.097550">
        <ele>729.419</ele>
        <time>2022-02-24T17:14:37Z</time>
      </trkpt>
      <trkpt lat="41.712330" lon="-6.097530">
        <ele>730.430</ele>
        <time>2022-02-24T17:15:17Z</time>
      </trkpt>
      <trkpt lat="41.712440" lon="-6.097460">
        <ele>732.364</ele>
        <time>2022-02-24T17:15:57Z</time>
      </trkpt>
      <trkpt lat="41.712550" lon="-6.097390">
        <ele>733.629</ele>
        <time>2022-02-24T17:16:37Z</time>
      </trkpt>
      <trkpt lat="41.712650" lon="-6.097300">
        <ele>734.059</ele>
        <time>2022-02-24T17:17:17Z</time>
      </trkpt>
      <trkpt lat="41.712750" lon="-6.097200">
        <ele>734.203</ele>
        <time>2022-02-24T17:17:57Z</time>
      </trkpt>
      <trkpt lat="41.712850" lon="-6.097060">
        <ele>735.123</ele>
        <time>2022-02-24T17:18:37Z</time>
      </trkpt>
      <trkpt lat="41.712860" lon="-6.097040">
        <ele>735.208</ele>
        <time>2022-02-24T17:19:17Z</time>
      </trkpt>
      <trkpt lat="41.712960" lon="-6.096890">
        <ele>735.654</ele>
        <time>2022-02-24T17:19:57Z</time>
      </trkpt>
      <trkpt lat="41.713070" lon="-6.096690">
        <ele>735.971</ele>
        <time>2022-02-24T17:20:37Z</time>
      </trkpt>
      <trkpt lat="41.713200" lon="-6.096490">
        <ele>736.085</ele>
        <time>2022-02-24T17:21:17Z</time>
      </trkpt>
      <trkpt lat="41.713390" lon="-6.096260">
        <ele>735.821</ele>
        <time>2022-02-24T17:21:57Z</time>
      </trkpt>
      <trkpt lat="41.713540" lon="-6.096130">
        <ele>736.768</ele>
        <time>2022-02-24T17:22:37Z</time>
      </trkpt>
      <trkpt lat="41.713650" lon="-6.096040">
        <ele>737.659</ele>
        <time>2022-02-24T17:23:17Z</time>
      </trkpt>
      <trkpt lat="41.713940" lon="-6.095860">
        <ele>738.223</ele>
        <time>2022-02-24T17:23:57Z</time>
      </trkpt>
      <trkpt lat="41.713960" lon="-6.095850">
        <ele>738.388</ele>
        <time>2022-02-24T17:24:37Z</time>
      </trkpt>
      <trkpt lat="41.714120" lon="-6.095760">
        <ele>739.799</ele>
        <time>2022-02-24T17:25:17Z</time>
      </trkpt>
      <trkpt lat="41.714210" lon="-6.095710">
        <ele>740.307</ele>
        <time>2022-02-24T17:25:57Z</time>
      </trkpt>
      <trkpt lat="41.714290" lon="-6.095660">
        <ele>740.827</ele>
        <time>2022-02-24T17:26:37Z</time>
      </trkpt>
      <trkpt lat="41.714360" lon="-6.095610">
        <ele>741.008</ele>
        <time>2022-02-24T17:27:17Z</time>
      </trkpt>
      <trkpt lat="41.714560" lon="-6.095410">
        <ele>741.228</ele>
        <time>2022-02-24T17:27:57Z</time>
      </trkpt>
      <trkpt lat="41.714730" lon="-6.095210">
        <ele>740.035</ele>
        <time>2022-02-24T17:28:37Z</time>
      </trkpt>
      <trkpt lat="41.714880" lon="-6.095080">
        <ele>739.659</ele>
        <time>2022-02-24T17:29:17Z</time>
      </trkpt>
      <trkpt lat="41.715000" lon="-6.094980">
        <ele>739.125</ele>
        <time>2022-02-24T17:29:57Z</time>
      </trkpt>
      <trkpt lat="41.715020" lon="-6.094970">
        <ele>739.272</ele>
        <time>2022-02-24T17:30:37Z</time>
      </trkpt>
      <trkpt lat="41.715130" lon="-6.094930">
        <ele>740.183</ele>
        <time>2022-02-24T17:31:17Z</time>
      </trkpt>
      <trkpt lat="41.715200" lon="-6.094900">
        <ele>740.527</ele>
        <time>2022-02-24T17:31:57Z</time>
      </trkpt>
      <trkpt lat="41.715280" lon="-6.094880">
        <ele>741.032</ele>
        <time>2022-02-24T17:32:37Z</time>
      </trkpt>
      <trkpt lat="41.715550" lon="-6.094840">
        <ele>742.017</ele>
        <time>2022-02-24T17:33:17Z</time>
      </trkpt>
      <trkpt lat="41.715560" lon="-6.094840">
        <ele>742.087</ele>
        <time>2022-02-24T17:33:57Z</time>
      </trkpt>
      <trkpt lat="41.715730" lon="-6.094800">
        <ele>742.815</ele>
        <time>2022-02-24T17:34:37Z</time>
      </trkpt>
      <trkpt lat="41.715880" lon="-6.094770">
        <ele>743.308</ele>
        <time>2022-02-24T17:35:17Z</time>
      </trkpt>
      <trkpt lat="41.716290" lon="-6.094720">
        <ele>744.790</ele>
        <time>2022-02-24T17:35:57Z</time>
      </trkpt>
      <trkpt lat="41.716570" lon="-6.094680">
        <ele>746.027</ele>
        <time>2022-02-24T17:36:37Z</time>
      </trkpt>
      <trkpt lat="41.716870" lon="-6.094570">
        <ele>748.981</ele>
        <time>2022-02-24T17:37:17Z</time>
      </trkpt>
      <trkpt lat="41.716970" lon="-6.094520">
        <ele>749.977</ele>
        <time>2022-02-24T17:37:57Z</time>
      </trkpt>
      <trkpt lat="41.717150" lon="-6.094430">
        <ele>751.514</ele>
        <time>2022-02-24T17:38:37Z</time>
      </trkpt>
      <trkpt lat="41.717530" lon="-6.094280">
        <ele>753.625</ele>
        <time>2022-02-24T17:39:17Z</time>
      </trkpt>
      <trkpt lat="41.717760" lon="-6.094200">
        <ele>753.979</ele>
        <time>2022-02-24T17:39:57Z</time>
      </trkpt>
      <trkpt lat="41.718020" lon="-6.094140">
        <ele>756.074</ele>
        <time>2022-02-24T17:40:37Z</time>
      </trkpt>
      <trkpt lat="41.718180" lon="-6.094130">
        <ele>756.343</ele>
        <time>2022-02-24T17:41:17Z</time>
      </trkpt>
      <trkpt lat="41.718370" lon="-6.094120">
        <ele>756.664</ele>
        <time>2022-02-24T17:41:57Z</time>
      </trkpt>
      <trkpt lat="41.718400" lon="-6.094120">
        <ele>756.710</ele>
        <time>2022-02-24T17:42:37Z</time>
      </trkpt>
      <trkpt lat="41.718930" lon="-6.094110">
        <ele>760.608</ele>
        <time>2022-02-24T17:43:17Z</time>
      </trkpt>
      <trkpt lat="41.719250" lon="-6.094080">
        <ele>761.853</ele>
        <time>2022-02-24T17:43:57Z</time>
      </trkpt>
      <trkpt lat="41.719440" lon="-6.094080">
        <ele>762.370</ele>
        <time>2022-02-24T17:44:37Z</time>
      </trkpt>
      <trkpt lat="41.719550" lon="-6.094080">
        <ele>762.344</ele>
        <time>2022-02-24T17:45:17Z</time>
      </trkpt>
      <trkpt lat="41.719760" lon="-6.094090">
        <ele>762.420</ele>
        <time>2022-02-24T17:45:57Z</time>
      </trkpt>
      <trkpt lat="41.719910" lon="-6.094110">
        <ele>762.937</ele>
        <time>2022-02-24T17:46:37Z</time>
      </trkpt>
      <trkpt lat="41.720130" lon="-6.094140">
        <ele>763.668</ele>
        <time>2022-02-24T17:47:17Z</time>
      </trkpt>
      <trkpt lat="41.720340" lon="-6.094180">
        <ele>764.352</ele>
        <time>2022-02-24T17:47:57Z</time>
      </trkpt>
      <trkpt lat="41.720520" lon="-6.094220">
        <ele>765.167</ele>
        <time>2022-02-24T17:48:37Z</time>
      </trkpt>
      <trkpt lat="41.720720" lon="-6.094280">
        <ele>766.094</ele>
        <time>2022-02-24T17:49:17Z</time>
      </trkpt>
      <trkpt lat="41.720870" lon="-6.094340">
        <ele>766.857</ele>
        <time>2022-02-24T17:49:57Z</time>
      </trkpt>
      <trkpt lat="41.720900" lon="-6.094350">
        <ele>766.922</ele>
        <time>2022-02-24T17:50:37Z</time>
      </trkpt>
      <trkpt lat="41.721080" lon="-6.094440">
        <ele>767.908</ele>
        <time>2022-02-24T17:51:17Z</time>
      </trkpt>
      <trkpt lat="41.721310" lon="-6.094560">
        <ele>768.118</ele>
        <time>2022-02-24T17:51:57Z</time>
      </trkpt>
      <trkpt lat="41.721540" lon="-6.094690">
        <ele>768.085</ele>
        <time>2022-02-24T17:52:37Z</time>
      </trkpt>
      <trkpt lat="41.721780" lon="-6.094790">
        <ele>768.799</ele>
        <time>2022-02-24T17:53:17Z</time>
      </trkpt>
      <trkpt lat="41.722070" lon="-6.094890">
        <ele>770.895</ele>
        <time>2022-02-24T17:53:57Z</time>
      </trkpt>
      <trkpt lat="41.722250" lon="-6.094930">
        <ele>772.442</ele>
        <time>2022-02-24T17:54:37Z</time>
      </trkpt>
      <trkpt lat="41.722410" lon="-6.094950">
        <ele>773.423</ele>
        <time>2022-02-24T17:55:17Z</time>
      </trkpt>
      <trkpt lat="41.722670" lon="-6.094980">
        <ele>773.447</ele>
        <time>2022-02-24T17:55:57Z</time>
      </trkpt>
      <trkpt lat="41.722950" lon="-6.095050">
        <ele>774.442</ele>
        <time>2022-02-24T17:56:37Z</time>
      </trkpt>
      <trkpt lat="41.723200" lon="-6.095120">
        <ele>776.091</ele>
        <time>2022-02-24T17:57:17Z</time>
      </trkpt>
      <trkpt lat="41.723290" lon="-6.095160">
        <ele>776.381</ele>
        <time>2022-02-24T17:57:57Z</time>
      </trkpt>
      <trkpt lat="41.723410" lon="-6.095210">
        <ele>776.219</ele>
        <time>2022-02-24T17:58:37Z</time>
      </trkpt>
      <trkpt lat="41.723470" lon="-6.095240">
        <ele>776.108</ele>
        <time>2022-02-24T17:59:17Z</time>
      </trkpt>
      <trkpt lat="41.723560" lon="-6.095290">
        <ele>776.118</ele>
        <time>2022-02-24T17:59:57Z</time>
      </trkpt>
      <trkpt lat="41.724040" lon="-6.095530">
        <ele>777.625</ele>
        <time>2022-02-24T18:00:37Z</time>
      </trkpt>
      <trkpt lat="41.724140" lon="-6.095580">
        <ele>778.789</ele>
        <time>2022-02-24T18:01:17Z</time>
      </trkpt>
      <trkpt lat="41.724300" lon="-6.095670">
        <ele>780.025</ele>
        <time>2022-02-24T18:01:57Z</time>
      </trkpt>
      <trkpt lat="41.724640" lon="-6.095860">
        <ele>782.292</ele>
        <time>2022-02-24T18:02:37Z</time>
      </trkpt>
      <trkpt lat="41.724650" lon="-6.095860">
        <ele>782.333</ele>
        <time>2022-02-24T18:03:17Z</time>
      </trkpt>
      <trkpt lat="41.724800" lon="-6.095950">
        <ele>783.397</ele>
        <time>2022-02-24T18:03:57Z</time>
      </trkpt>
      <trkpt lat="41.724970" lon="-6.096050">
        <ele>783.932</ele>
        <time>2022-02-24T18:04:37Z</time>
      </trkpt>
      <trkpt lat="41.725070" lon="-6.096100">
        <ele>784.536</ele>
        <time>2022-02-24T18:05:17Z</time>
      </trkpt>
      <trkpt lat="41.725410" lon="-6.096280">
        <ele>786.017</ele>
        <time>2022-02-24T18:05:57Z</time>
      </trkpt>
      <trkpt lat="41.725520" lon="-6.096340">
        <ele>786.018</ele>
        <time>2022-02-24T18:06:37Z</time>
      </trkpt>
      <trkpt lat="41.725590" lon="-6.096380">
        <ele>786.208</ele>
        <time>2022-02-24T18:07:17Z</time>
      </trkpt>
      <trkpt lat="41.725620" lon="-6.096390">
        <ele>786.522</ele>
        <time>2022-02-24T18:07:57Z</time>
      </trkpt>
      <trkpt lat="41.725690" lon="-6.096410">
        <ele>787.099</ele>
        <time>2022-02-24T18:08:37Z</time>
      </trkpt>
      <trkpt lat="41.725790" lon="-6.096450">
        <ele>787.773</ele>
        <time>2022-02-24T18:09:17Z</time>
      </trkpt>
      <trkpt lat="41.725860" lon="-6.096460">
        <ele>788.299</ele>
        <time>2022-02-24T18:09:57Z</time>
      </trkpt>
      <trkpt lat="41.725950" lon="-6.096480">
        <ele>788.876</ele>
        <time>2022-02-24T18:10:37Z</time>
      </trkpt>
      <trkpt lat="41.726090" lon="-6.096490">
        <ele>789.847</ele>
        <time>2022-02-24T18:11:17Z</time>
      </trkpt>
      <trkpt lat="41.726220" lon="-6.096500">
        <ele>791.261</ele>
        <time>2022-02-24T18:11:57Z</time>
      </trkpt>
      <trkpt lat="41.726260" lon="-6.096510">
        <ele>791.676</ele>
        <time>2022-02-24T18:12:37Z</time>
      </trkpt>
      <trkpt lat="41.726400" lon="-6.096530">
        <ele>793.063</ele>
        <time>2022-02-24T18:13:17Z</time>
      </trkpt>
      <trkpt lat="41.726480" lon="-6.096540">
        <ele>793.344</ele>
        <time>2022-02-24T18:13:57Z</time>
      </trkpt>
      <trkpt lat="41.726720" lon="-6.096590">
        <ele>794.118</ele>
        <time>2022-02-24T18:14:37Z</time>
      </trkpt>
      <trkpt lat="41.726750" lon="-6.096600">
        <ele>794.108</ele>
        <time>2022-02-24T18:15:17Z</time>
      </trkpt>
      <trkpt lat="41.726930" lon="-6.096660">
        <ele>794.065</ele>
        <time>2022-02-24T18:15:57Z</time>
      </trkpt>
      <trkpt lat="41.727070" lon="-6.096700">
        <ele>794.582</ele>
        <time>2022-02-24T18:16:37Z</time>
      </trkpt>
      <trkpt lat="41.727530" lon="-6.096830">
        <ele>795.536</ele>
        <time>2022-02-24T18:17:17Z</time>
      </trkpt>
      <trkpt lat="41.727990" lon="-6.096980">
        <ele>796.612</ele>
        <time>2022-02-24T18:17:57Z</time>
      </trkpt>
      <trkpt lat="41.728310" lon="-6.097080">
        <ele>798.339</ele>
        <time>2022-02-24T18:18:37Z</time>
      </trkpt>
      <trkpt lat="41.728780" lon="-6.097210">
        <ele>800.720</ele>
        <time>2022-02-24T18:19:17Z</time>
      </trkpt>
      <trkpt lat="41.728860" lon="-6.097230">
        <ele>800.834</ele>
        <time>2022-02-24T18:19:57Z</time>
      </trkpt>
      <trkpt lat="41.729180" lon="-6.097290">
        <ele>801.539</ele>
        <time>2022-02-24T18:20:37Z</time>
      </trkpt>
      <trkpt lat="41.729220" lon="-6.097300">
        <ele>801.458</ele>
        <time>2022-02-24T18:21:17Z</time>
      </trkpt>
      <trkpt lat="41.729570" lon="-6.097370">
        <ele>801.252</ele>
        <time>2022-02-24T18:21:57Z</time>
      </trkpt>
      <trkpt lat="41.729730" lon="-6.097410">
        <ele>801.317</ele>
        <time>2022-02-24T18:22:37Z</time>
      </trkpt>
      <trkpt lat="41.729750" lon="-6.097410">
        <ele>801.308</ele>
        <time>2022-02-24T18:23:17Z</time>
      </trkpt>
      <trkpt lat="41.729930" lon="-6.097450">
        <ele>800.614</ele>
        <time>2022-02-24T18:23:57Z</time>
      </trkpt>
      <trkpt lat="41.730070" lon="-6.097470">
        <ele>800.441</ele>
        <time>2022-02-24T18:24:37Z</time>
      </trkpt>
      <trkpt lat="41.730110" lon="-6.097480">
        <ele>800.525</ele>
        <time>2022-02-24T18:25:17Z</time>
      </trkpt>
      <trkpt lat="41.730280" lon="-6.097520">
        <ele>800.911</ele>
        <time>2022-02-24T18:25:57Z</time>
      </trkpt>
      <trkpt lat="41.730490" lon="-6.097570">
        <ele>801.118</ele>
        <time>2022-02-24T18:26:37Z</time>
      </trkpt>
      <trkpt lat="41.730640" lon="-6.097600">
        <ele>800.449</ele>
        <time>2022-02-24T18:27:17Z</time>
      </trkpt>
      <trkpt lat="41.730820" lon="-6.097630">
        <ele>799.193</ele>
        <time>2022-02-24T18:27:57Z</time>
      </trkpt>
      <trkpt lat="41.730850" lon="-6.097640">
        <ele>798.818</ele>
        <time>2022-02-24T18:28:37Z</time>
      </trkpt>
      <trkpt lat="41.731050" lon="-6.097660">
        <ele>797.059</ele>
        <time>2022-02-24T18:29:17Z</time>
      </trkpt>
      <trkpt lat="41.731220" lon="-6.097650">
        <ele>796.103</ele>
        <time>2022-02-24T18:29:57Z</time>
      </trkpt>
      <trkpt lat="41.731320" lon="-6.097640">
        <ele>795.723</ele>
        <time>2022-02-24T18:30:37Z</time>
      </trkpt>
      <trkpt lat="41.731580" lon="-6.097600">
        <ele>795.608</ele>
        <time>2022-02-24T18:31:17Z</time>
      </trkpt>
      <trkpt lat="41.731600" lon="-6.097590">
        <ele>795.714</ele>
        <time>2022-02-24T18:31:57Z</time>
      </trkpt>
      <trkpt lat="41.731750" lon="-6.097560">
        <ele>796.241</ele>
        <time>2022-02-24T18:32:37Z</time>
      </trkpt>
      <trkpt lat="41.731910" lon="-6.097530">
        <ele>797.055</ele>
        <time>2022-02-24T18:33:17Z</time>
      </trkpt>
      <trkpt lat="41.731950" lon="-6.097520">
        <ele>797.151</ele>
        <time>2022-02-24T18:33:57Z</time>
      </trkpt>
      <trkpt lat="41.732130" lon="-6.097480">
        <ele>797.648</ele>
        <time>2022-02-24T18:34:37Z</time>
      </trkpt>
      <trkpt lat="41.732300" lon="-6.097440">
        <ele>798.639</ele>
        <time>2022-02-24T18:35:17Z</time>
      </trkpt>
      <trkpt lat="41.732410" lon="-6.097420">
        <ele>799.443</ele>
        <time>2022-02-24T18:35:57Z</time>
      </trkpt>
      <trkpt lat="41.732480" lon="-6.097410">
        <ele>799.968</ele>
        <time>2022-02-24T18:36:37Z</time>
      </trkpt>
      <trkpt lat="41.732970" lon="-6.097300">
        <ele>802.264</ele>
        <time>2022-02-24T18:37:17Z</time>
      </trkpt>
      <trkpt lat="41.733020" lon="-6.097290">
        <ele>802.406</ele>
        <time>2022-02-24T18:37:57Z</time>
      </trkpt>
      <trkpt lat="41.733550" lon="-6.097190">
        <ele>804.616</ele>
        <time>2022-02-24T18:38:37Z</time>
      </trkpt>
      <trkpt lat="41.733590" lon="-6.097180">
        <ele>804.808</ele>
        <time>2022-02-24T18:39:17Z</time>
      </trkpt>
      <trkpt lat="41.733730" lon="-6.097150">
        <ele>806.455</ele>
        <time>2022-02-24T18:39:57Z</time>
      </trkpt>
      <trkpt lat="41.733900" lon="-6.097120">
        <ele>808.522</ele>
        <time>2022-02-24T18:40:37Z</time>
      </trkpt>
      <trkpt lat="41.734260" lon="-6.097040">
        <ele>811.896</ele>
        <time>2022-02-24T18:41:17Z</time>
      </trkpt>
      <trkpt lat="41.734350" lon="-6.097030">
        <ele>812.252</ele>
        <time>2022-02-24T18:41:57Z</time>
      </trkpt>
      <trkpt lat="41.734440" lon="-6.097010">
        <ele>812.729</ele>
        <time>2022-02-24T18:42:37Z</time>
      </trkpt>
      <trkpt lat="41.734620" lon="-6.096970">
        <ele>813.520</ele>
        <time>2022-02-24T18:43:17Z</time>
      </trkpt>
      <trkpt lat="41.734970" lon="-6.096900">
        <ele>815.224</ele>
        <time>2022-02-24T18:43:57Z</time>
      </trkpt>
      <trkpt lat="41.735000" lon="-6.096890">
        <ele>815.479</ele>
        <time>2022-02-24T18:44:37Z</time>
      </trkpt>
      <trkpt lat="41.735150" lon="-6.096850">
        <ele>817.742</ele>
        <time>2022-02-24T18:45:17Z</time>
      </trkpt>
      <trkpt lat="41.735330" lon="-6.096810">
        <ele>820.022</ele>
        <time>2022-02-24T18:45:57Z</time>
      </trkpt>
      <trkpt lat="41.735580" lon="-6.096750">
        <ele>822.914</ele>
        <time>2022-02-24T18:46:37Z</time>
      </trkpt>
      <trkpt lat="41.735940" lon="-6.096640">
        <ele>826.208</ele>
        <time>2022-02-24T18:47:17Z</time>
      </trkpt>
      <trkpt lat="41.736030" lon="-6.096600">
        <ele>827.253</ele>
        <time>2022-02-24T18:47:57Z</time>
      </trkpt>
      <trkpt lat="41.736200" lon="-6.096540">
        <ele>828.850</ele>
        <time>2022-02-24T18:48:37Z</time>
      </trkpt>
      <trkpt lat="41.736430" lon="-6.096460">
        <ele>830.984</ele>
        <time>2022-02-24T18:49:17Z</time>
      </trkpt>
      <trkpt lat="41.736550" lon="-6.096420">
        <ele>831.560</ele>
        <time>2022-02-24T18:49:57Z</time>
      </trkpt>
      <trkpt lat="41.736720" lon="-6.096360">
        <ele>832.557</ele>
        <time>2022-02-24T18:50:37Z</time>
      </trkpt>
      <trkpt lat="41.736900" lon="-6.096300">
        <ele>833.798</ele>
        <time>2022-02-24T18:51:17Z</time>
      </trkpt>
      <trkpt lat="41.736990" lon="-6.096270">
        <ele>833.982</ele>
        <time>2022-02-24T18:51:57Z</time>
      </trkpt>
      <trkpt lat="41.737070" lon="-6.096250">
        <ele>833.867</ele>
        <time>2022-02-24T18:52:37Z</time>
      </trkpt>
      <trkpt lat="41.737590" lon="-6.096090">
        <ele>832.687</ele>
        <time>2022-02-24T18:53:17Z</time>
      </trkpt>
      <trkpt lat="41.737600" lon="-6.096090">
        <ele>832.642</ele>
        <time>2022-02-24T18:53:57Z</time>
      </trkpt>
      <trkpt lat="41.737770" lon="-6.096030">
        <ele>833.726</ele>
        <time>2022-02-24T18:54:37Z</time>
      </trkpt>
      <trkpt lat="41.737940" lon="-6.095980">
        <ele>835.008</ele>
        <time>2022-02-24T18:55:17Z</time>
      </trkpt>
      <trkpt lat="41.737950" lon="-6.095980">
        <ele>835.127</ele>
        <time>2022-02-24T18:55:57Z</time>
      </trkpt>
      <trkpt lat="41.738120" lon="-6.095920">
        <ele>836.634</ele>
        <time>2022-02-24T18:56:37Z</time>
      </trkpt>
      <trkpt lat="41.738300" lon="-6.095860">
        <ele>838.658</ele>
        <time>2022-02-24T18:57:17Z</time>
      </trkpt>
      <trkpt lat="41.738380" lon="-6.095830">
        <ele>839.764</ele>
        <time>2022-02-24T18:57:57Z</time>
      </trkpt>
      <trkpt lat="41.738470" lon="-6.095790">
        <ele>841.051</ele>
        <time>2022-02-24T18:58:37Z</time>
      </trkpt>
      <trkpt lat="41.738820" lon="-6.095670">
        <ele>844.992</ele>
        <time>2022-02-24T18:59:17Z</time>
      </trkpt>
      <trkpt lat="41.738990" lon="-6.095610">
        <ele>847.386</ele>
        <time>2022-02-24T18:59:57Z</time>
      </trkpt>
      <trkpt lat="41.739160" lon="-6.095560">
        <ele>849.941</ele>
        <time>2022-02-24T19:00:37Z</time>
      </trkpt>
      <trkpt lat="41.739170" lon="-6.095560">
        <ele>850.089</ele>
        <time>2022-02-24T19:01:17Z</time>
      </trkpt>
      <trkpt lat="41.739340" lon="-6.095490">
        <ele>851.706</ele>
        <time>2022-02-24T19:01:57Z</time>
      </trkpt>
      <trkpt lat="41.739520" lon="-6.095430">
        <ele>853.626</ele>
        <time>2022-02-24T19:02:37Z</time>
      </trkpt>
      <trkpt lat="41.739690" lon="-6.095370">
        <ele>855.408</ele>
        <time>2022-02-24T19:03:17Z</time>
      </trkpt>
      <trkpt lat="41.739860" lon="-6.095310">
        <ele>856.977</ele>
        <time>2022-02-24T19:03:57Z</time>
      </trkpt>
      <trkpt lat="41.739950" lon="-6.095280">
        <ele>857.654</ele>
        <time>2022-02-24T19:04:37Z</time>
      </trkpt>
      <trkpt lat="41.740040" lon="-6.095240">
        <ele>858.728</ele>
        <time>2022-02-24T19:05:17Z</time>
      </trkpt>
      <trkpt lat="41.740060" lon="-6.095230">
        <ele>858.984</ele>
        <time>2022-02-24T19:05:57Z</time>
      </trkpt>
      <trkpt lat="41.740130" lon="-6.095180">
        <ele>859.881</ele>
        <time>2022-02-24T19:06:37Z</time>
      </trkpt>
      <trkpt lat="41.740160" lon="-6.095160">
        <ele>860.152</ele>
        <time>2022-02-24T19:07:17Z</time>
      </trkpt>
      <trkpt lat="41.740200" lon="-6.095130">
        <ele>860.516</ele>
        <time>2022-02-24T19:07:57Z</time>
      </trkpt>
      <trkpt lat="41.740260" lon="-6.095050">
        <ele>860.911</ele>
        <time>2022-02-24T19:08:37Z</time>
      </trkpt>
      <trkpt lat="41.740330" lon="-6.094970">
        <ele>861.596</ele>
        <time>2022-02-24T19:09:17Z</time>
      </trkpt>
      <trkpt lat="41.740390" lon="-6.094890">
        <ele>862.031</ele>
        <time>2022-02-24T19:09:57Z</time>
      </trkpt>
      <trkpt lat="41.740420" lon="-6.094850">
        <ele>862.324</ele>
        <time>2022-02-24T19:10:37Z</time>
      </trkpt>
      <trkpt lat="41.740450" lon="-6.094790">
        <ele>862.508</ele>
        <time>2022-02-24T19:11:17Z</time>
      </trkpt>
      <trkpt lat="41.740480" lon="-6.094720">
        <ele>862.748</ele>
        <time>2022-02-24T19:11:57Z</time>
      </trkpt>
      <trkpt lat="41.740530" lon="-6.094600">
        <ele>862.945</ele>
        <time>2022-02-24T19:12:37Z</time>
      </trkpt>
      <trkpt lat="41.740531" lon="-6.094605">
        <ele>862.999</ele>
        <time>2022-02-24T19:13:17Z</time>
      </trkpt>
      <trkpt lat="41.740560" lon="-6.094720">
        <ele>863.095</ele>
        <time>2022-02-24T19:13:57Z</time>
      </trkpt>
      <trkpt lat="41.740590" lon="-6.094850">
        <ele>863.052</ele>
        <time>2022-02-24T19:14:37Z</time>
      </trkpt>
      <trkpt lat="41.740600" lon="-6.094960">
        <ele>863.013</ele>
        <time>2022-02-24T19:15:17Z</time>
      </trkpt>
      <trkpt lat="41.740610" lon="-6.095060">
        <ele>863.037</ele>
        <time>2022-02-24T19:15:57Z</time>
      </trkpt>
      <trkpt lat="41.740620" lon="-6.095120">
        <ele>863.062</ele>
        <time>2022-02-24T19:16:37Z</time>
      </trkpt>
      <trkpt lat="41.740620" lon="-6.095160">
        <ele>863.083</ele>
        <time>2022-02-24T19:17:17Z</time>
      </trkpt>
      <trkpt lat="41.740630" lon="-6.095200">
        <ele>863.025</ele>
        <time>2022-02-24T19:17:57Z</time>
      </trkpt>
      <trkpt lat="41.740640" lon="-6.095290">
        <ele>863.017</ele>
        <time>2022-02-24T19:18:37Z</time>
      </trkpt>
      <trkpt lat="41.740660" lon="-6.095440">
        <ele>862.608</ele>
        <time>2022-02-24T19:19:17Z</time>
      </trkpt>
      <trkpt lat="41.740670" lon="-6.095520">
        <ele>862.537</ele>
        <time>2022-02-24T19:19:57Z</time>
      </trkpt>
      <trkpt lat="41.740680" lon="-6.095600">
        <ele>862.444</ele>
        <time>2022-02-24T19:20:37Z</time>
      </trkpt>
      <trkpt lat="41.740690" lon="-6.095670">
        <ele>862.558</ele>
        <time>2022-02-24T19:21:17Z</time>
      </trkpt>
      <trkpt lat="41.740690" lon="-6.095680">
        <ele>862.554</ele>
        <time>2022-02-24T19:21:57Z</time>
      </trkpt>
      <trkpt lat="41.740720" lon="-6.095910">
        <ele>862.571</ele>
        <time>2022-02-24T19:22:37Z</time>
      </trkpt>
      <trkpt lat="41.740730" lon="-6.096080">
        <ele>862.392</ele>
        <time>2022-02-24T19:23:17Z</time>
      </trkpt>
      <trkpt lat="41.740740" lon="-6.096150">
        <ele>862.546</ele>
        <time>2022-02-24T19:23:57Z</time>
      </trkpt>
      <trkpt lat="41.740760" lon="-6.096310">
        <ele>863.261</ele>
        <time>2022-02-24T19:24:37Z</time>
      </trkpt>
      <trkpt lat="41.740810" lon="-6.096790">
        <ele>863.818</ele>
        <time>2022-02-24T19:25:17Z</time>
      </trkpt>
      <trkpt lat="41.740940" lon="-6.097980">
        <ele>866.698</ele>
        <time>2022-02-24T19:25:57Z</time>
      </trkpt>
      <trkpt lat="41.741030" lon="-6.098760">
        <ele>868.617</ele>
        <time>2022-02-24T19:26:37Z</time>
      </trkpt>
      <trkpt lat="41.741050" lon="-6.098950">
        <ele>869.008</ele>
        <time>2022-02-24T19:27:17Z</time>
      </trkpt>
      <trkpt lat="41.741060" lon="-6.099000">
        <ele>869.140</ele>
        <time>2022-02-24T19:27:57Z</time>
      </trkpt>
      <trkpt lat="41.741080" lon="-6.099240">
        <ele>869.577</ele>
        <time>2022-02-24T19:28:37Z</time>
      </trkpt>
      <trkpt lat="41.741110" lon="-6.099480">
        <ele>869.061</ele>
        <time>2022-02-24T19:29:17Z</time>
      </trkpt>
      <trkpt lat="41.741140" lon="-6.099720">
        <ele>869.177</ele>
        <time>2022-02-24T19:29:57Z</time>
      </trkpt>
      <trkpt lat="41.741140" lon="-6.099770">
        <ele>869.374</ele>
        <time>2022-02-24T19:30:37Z</time>
      </trkpt>
      <trkpt lat="41.741220" lon="-6.100430">
        <ele>872.235</ele>
        <time>2022-02-24T19:31:17Z</time>
      </trkpt>
      <trkpt lat="41.741230" lon="-6.100480">
        <ele>872.379</ele>
        <time>2022-02-24T19:31:57Z</time>
      </trkpt>
      <trkpt lat="41.741250" lon="-6.100670">
        <ele>872.974</ele>
        <time>2022-02-24T19:32:37Z</time>
      </trkpt>
      <trkpt lat="41.741250" lon="-6.100720">
        <ele>873.135</ele>
        <time>2022-02-24T19:33:17Z</time>
      </trkpt>
      <trkpt lat="41.741270" lon="-6.100830">
        <ele>873.686</ele>
        <time>2022-02-24T19:33:57Z</time>
      </trkpt>
      <trkpt lat="41.741280" lon="-6.100950">
        <ele>873.614</ele>
        <time>2022-02-24T19:34:37Z</time>
      </trkpt>
      <trkpt lat="41.741300" lon="-6.101110">
        <ele>873.708</ele>
        <time>2022-02-24T19:35:17Z</time>
      </trkpt>
      <trkpt lat="41.741310" lon="-6.101150">
        <ele>873.832</ele>
        <time>2022-02-24T19:35:57Z</time>
      </trkpt>
      <trkpt lat="41.741340" lon="-6.101360">
        <ele>874.689</ele>
        <time>2022-02-24T19:36:37Z</time>
      </trkpt>
      <trkpt lat="41.741340" lon="-6.101380">
        <ele>874.613</ele>
        <time>2022-02-24T19:37:17Z</time>
      </trkpt>
      <trkpt lat="41.741370" lon="-6.101620">
        <ele>874.939</ele>
        <time>2022-02-24T19:37:57Z</time>
      </trkpt>
      <trkpt lat="41.741380" lon="-6.101670">
        <ele>874.966</ele>
        <time>2022-02-24T19:38:37Z</time>
      </trkpt>
      <trkpt lat="41.741410" lon="-6.101850">
        <ele>875.847</ele>
        <time>2022-02-24T19:39:17Z</time>
      </trkpt>
      <trkpt lat="41.741430" lon="-6.101920">
        <ele>876.231</ele>
        <time>2022-02-24T19:39:57Z</time>
      </trkpt>
      <trkpt lat="41.741470" lon="-6.102080">
        <ele>877.186</ele>
        <time>2022-02-24T19:40:37Z</time>
      </trkpt>
      <trkpt lat="41.741500" lon="-6.102210">
        <ele>877.888</ele>
        <time>2022-02-24T19:41:17Z</time>
      </trkpt>
      <trkpt lat="41.741530" lon="-6.102310">
        <ele>878.324</ele>
        <time>2022-02-24T19:41:57Z</time>
      </trkpt>
      <trkpt lat="41.741590" lon="-6.102540">
        <ele>879.426</ele>
        <time>2022-02-24T19:42:37Z</time>
      </trkpt>
      <trkpt lat="41.741650" lon="-6.102760">
        <ele>879.908</ele>
        <time>2022-02-24T19:43:17Z</time>
      </trkpt>
      <trkpt lat="41.741710" lon="-6.102990">
        <ele>879.447</ele>
        <time>2022-02-24T19:43:57Z</time>
      </trkpt>
      <trkpt lat="41.741740" lon="-6.103080">
        <ele>879.224</ele>
        <time>2022-02-24T19:44:37Z</time>
      </trkpt>
      <trkpt lat="41.741770" lon="-6.103220">
        <ele>878.878</ele>
        <time>2022-02-24T19:45:17Z</time>
      </trkpt>
      <trkpt lat="41.741810" lon="-6.103350">
        <ele>878.544</ele>
        <time>2022-02-24T19:45:57Z</time>
      </trkpt>
      <trkpt lat="41.741830" lon="-6.103450">
        <ele>878.291</ele>
        <time>2022-02-24T19:46:37Z</time>
      </trkpt>
      <trkpt lat="41.741950" lon="-6.103900">
        <ele>877.062</ele>
        <time>2022-02-24T19:47:17Z</time>
      </trkpt>
      <trkpt lat="41.742010" lon="-6.104130">
        <ele>877.776</ele>
        <time>2022-02-24T19:47:57Z</time>
      </trkpt>
      <trkpt lat="41.742010" lon="-6.104160">
        <ele>877.731</ele>
        <time>2022-02-24T19:48:37Z</time>
      </trkpt>
      <trkpt lat="41.742060" lon="-6.104360">
        <ele>877.995</ele>
        <time>2022-02-24T19:49:17Z</time>
      </trkpt>
      <trkpt lat="41.742120" lon="-6.104610">
        <ele>877.849</ele>
        <time>2022-02-24T19:49:57Z</time>
      </trkpt>
      <trkpt lat="41.742170" lon="-6.104820">
        <ele>877.523</ele>
        <time>2022-02-24T19:50:37Z</time>
      </trkpt>
      <trkpt lat="41.742230" lon="-6.105050">
        <ele>876.808</ele>
        <time>2022-02-24T19:51:17Z</time>
      </trkpt>
      <trkpt lat="41.742240" lon="-6.105090">
        <ele>876.718</ele>
        <time>2022-02-24T19:51:57Z</time>
      </trkpt>
      <trkpt lat="41.742290" lon="-6.105270">
        <ele>875.895</ele>
        <time>2022-02-24T19:52:37Z</time>
      </trkpt>
      <trkpt lat="41.742350" lon="-6.105500">
        <ele>874.369</ele>
        <time>2022-02-24T19:53:17Z</time>
      </trkpt>
      <trkpt lat="41.742380" lon="-6.105590">
        <ele>873.845</ele>
        <time>2022-02-24T19:53:57Z</time>
      </trkpt>
      <trkpt lat="41.742410" lon="-6.105730">
        <ele>872.972</ele>
        <time>2022-02-24T19:54:37Z</time>
      </trkpt>
      <trkpt lat="41.742540" lon="-6.106170">
        <ele>870.553</ele>
        <time>2022-02-24T19:55:17Z</time>
      </trkpt>
      <trkpt lat="41.742690" lon="-6.106620">
        <ele>869.297</ele>
        <time>2022-02-24T19:55:57Z</time>
      </trkpt>
      <trkpt lat="41.742720" lon="-6.106730">
        <ele>869.132</ele>
        <time>2022-02-24T19:56:37Z</time>
      </trkpt>
      <trkpt lat="41.742760" lon="-6.106840">
        <ele>869.061</ele>
        <time>2022-02-24T19:57:17Z</time>
      </trkpt>
      <trkpt lat="41.742830" lon="-6.107060">
        <ele>868.421</ele>
        <time>2022-02-24T19:57:57Z</time>
      </trkpt>
      <trkpt lat="41.742880" lon="-6.107220">
        <ele>868.013</ele>
        <time>2022-02-24T19:58:37Z</time>
      </trkpt>
      <trkpt lat="41.742900" lon="-6.107280">
        <ele>867.808</ele>
        <time>2022-02-24T19:59:17Z</time>
      </trkpt>
      <trkpt lat="41.742970" lon="-6.107510">
        <ele>867.025</ele>
        <time>2022-02-24T19:59:57Z</time>
      </trkpt>
      <trkpt lat="41.742990" lon="-6.107580">
        <ele>866.982</ele>
        <time>2022-02-24T20:00:37Z</time>
      </trkpt>
      <trkpt lat="41.743110" lon="-6.107950">
        <ele>866.336</ele>
        <time>2022-02-24T20:01:17Z</time>
      </trkpt>
      <trkpt lat="41.743120" lon="-6.107970">
        <ele>866.232</ele>
        <time>2022-02-24T20:01:57Z</time>
      </trkpt>
      <trkpt lat="41.743250" lon="-6.108380">
        <ele>868.299</ele>
        <time>2022-02-24T20:02:37Z</time>
      </trkpt>
      <trkpt lat="41.743320" lon="-6.108610">
        <ele>869.020</ele>
        <time>2022-02-24T20:03:17Z</time>
      </trkpt>
      <trkpt lat="41.743360" lon="-6.108720">
        <ele>869.334</ele>
        <time>2022-02-24T20:03:57Z</time>
      </trkpt>
      <trkpt lat="41.743440" lon="-6.108980">
        <ele>870.339</ele>
        <time>2022-02-24T20:04:37Z</time>
      </trkpt>
      <trkpt lat="41.743530" lon="-6.109280">
        <ele>872.093</ele>
        <time>2022-02-24T20:05:17Z</time>
      </trkpt>
      <trkpt lat="41.743600" lon="-6.109500">
        <ele>873.065</ele>
        <time>2022-02-24T20:05:57Z</time>
      </trkpt>
      <trkpt lat="41.743640" lon="-6.109630">
        <ele>872.921</ele>
        <time>2022-02-24T20:06:37Z</time>
      </trkpt>
      <trkpt lat="41.743650" lon="-6.109660">
        <ele>872.908</ele>
        <time>2022-02-24T20:07:17Z</time>
      </trkpt>
      <trkpt lat="41.743680" lon="-6.109800">
        <ele>873.198</ele>
        <time>2022-02-24T20:07:57Z</time>
      </trkpt>
      <trkpt lat="41.743690" lon="-6.109910">
        <ele>873.285</ele>
        <time>2022-02-24T20:08:37Z</time>
      </trkpt>
      <trkpt lat="41.743700" lon="-6.110130">
        <ele>873.569</ele>
        <time>2022-02-24T20:09:17Z</time>
      </trkpt>
      <trkpt lat="41.743700" lon="-6.110140">
        <ele>873.545</ele>
        <time>2022-02-24T20:09:57Z</time>
      </trkpt>
      <trkpt lat="41.743720" lon="-6.110370">
        <ele>873.772</ele>
        <time>2022-02-24T20:10:37Z</time>
      </trkpt>
      <trkpt lat="41.743720" lon="-6.110420">
        <ele>873.673</ele>
        <time>2022-02-24T20:11:17Z</time>
      </trkpt>
      <trkpt lat="41.743740" lon="-6.110660">
        <ele>873.117</ele>
        <time>2022-02-24T20:11:57Z</time>
      </trkpt>
      <trkpt lat="41.743750" lon="-6.110850">
        <ele>872.422</ele>
        <time>2022-02-24T20:12:37Z</time>
      </trkpt>
      <trkpt lat="41.743750" lon="-6.110950">
        <ele>872.197</ele>
        <time>2022-02-24T20:13:17Z</time>
      </trkpt>
      <trkpt lat="41.743770" lon="-6.111220">
        <ele>871.023</ele>
        <time>2022-02-24T20:13:57Z</time>
      </trkpt>
      <trkpt lat="41.743790" lon="-6.111590">
        <ele>869.625</ele>
        <time>2022-02-24T20:14:37Z</time>
      </trkpt>
      <trkpt lat="41.743810" lon="-6.112030">
        <ele>867.508</ele>
        <time>2022-02-24T20:15:17Z</time>
      </trkpt>
      <trkpt lat="41.743810" lon="-6.112060">
        <ele>867.388</ele>
        <time>2022-02-24T20:15:57Z</time>
      </trkpt>
      <trkpt lat="41.743820" lon="-6.112250">
        <ele>866.155</ele>
        <time>2022-02-24T20:16:37Z</time>
      </trkpt>
      <trkpt lat="41.743840" lon="-6.112420">
        <ele>865.639</ele>
        <time>2022-02-24T20:17:17Z</time>
      </trkpt>
      <trkpt lat="41.743860" lon="-6.112520">
        <ele>865.495</ele>
        <time>2022-02-24T20:17:57Z</time>
      </trkpt>
      <trkpt lat="41.743890" lon="-6.112620">
        <ele>864.742</ele>
        <time>2022-02-24T20:18:37Z</time>
      </trkpt>
      <trkpt lat="41.743940" lon="-6.112730">
        <ele>863.993</ele>
        <time>2022-02-24T20:19:17Z</time>
      </trkpt>
      <trkpt lat="41.743940" lon="-6.112750">
        <ele>863.627</ele>
        <time>2022-02-24T20:19:57Z</time>
      </trkpt>
      <trkpt lat="41.744030" lon="-6.112940">
        <ele>862.822</ele>
        <time>2022-02-24T20:20:37Z</time>
      </trkpt>
      <trkpt lat="41.744340" lon="-6.113550">
        <ele>859.787</ele>
        <time>2022-02-24T20:21:17Z</time>
      </trkpt>
      <trkpt lat="41.744440" lon="-6.113740">
        <ele>859.042</ele>
        <time>2022-02-24T20:21:57Z</time>
      </trkpt>
      <trkpt lat="41.744540" lon="-6.113940">
        <ele>858.026</ele>
        <time>2022-02-24T20:22:37Z</time>
      </trkpt>
      <trkpt lat="41.744750" lon="-6.114350">
        <ele>855.108</ele>
        <time>2022-02-24T20:23:17Z</time>
      </trkpt>
      <trkpt lat="41.745150" lon="-6.115130">
        <ele>850.167</ele>
        <time>2022-02-24T20:23:57Z</time>
      </trkpt>
      <trkpt lat="41.745290" lon="-6.115410">
        <ele>848.694</ele>
        <time>2022-02-24T20:24:37Z</time>
      </trkpt>
      <trkpt lat="41.745350" lon="-6.115530">
        <ele>847.318</ele>
        <time>2022-02-24T20:25:17Z</time>
      </trkpt>
      <trkpt lat="41.745450" lon="-6.115730">
        <ele>845.144</ele>
        <time>2022-02-24T20:25:57Z</time>
      </trkpt>
      <trkpt lat="41.745490" lon="-6.115810">
        <ele>844.351</ele>
        <time>2022-02-24T20:26:37Z</time>
      </trkpt>
      <trkpt lat="41.745630" lon="-6.116090">
        <ele>843.122</ele>
        <time>2022-02-24T20:27:17Z</time>
      </trkpt>
      <trkpt lat="41.745650" lon="-6.116130">
        <ele>842.856</ele>
        <time>2022-02-24T20:27:57Z</time>
      </trkpt>
      <trkpt lat="41.745750" lon="-6.116330">
        <ele>840.461</ele>
        <time>2022-02-24T20:28:37Z</time>
      </trkpt>
      <trkpt lat="41.745950" lon="-6.116730">
        <ele>835.082</ele>
        <time>2022-02-24T20:29:17Z</time>
      </trkpt>
      <trkpt lat="41.746030" lon="-6.116890">
        <ele>834.143</ele>
        <time>2022-02-24T20:29:57Z</time>
      </trkpt>
      <trkpt lat="41.746120" lon="-6.117050">
        <ele>833.317</ele>
        <time>2022-02-24T20:30:37Z</time>
      </trkpt>
      <trkpt lat="41.746150" lon="-6.117130">
        <ele>832.708</ele>
        <time>2022-02-24T20:31:17Z</time>
      </trkpt>
      <trkpt lat="41.746400" lon="-6.117620">
        <ele>827.687</ele>
        <time>2022-02-24T20:31:57Z</time>
      </trkpt>
      <trkpt lat="41.746450" lon="-6.117720">
        <ele>826.274</ele>
        <time>2022-02-24T20:32:37Z</time>
      </trkpt>
      <trkpt lat="41.746490" lon="-6.117760">
        <ele>825.568</ele>
        <time>2022-02-24T20:33:17Z</time>
      </trkpt>
      <trkpt lat="41.746520" lon="-6.117800">
        <ele>824.924</ele>
        <time>2022-02-24T20:33:57Z</time>
      </trkpt>
      <trkpt lat="41.746590" lon="-6.117870">
        <ele>824.051</ele>
        <time>2022-02-24T20:34:37Z</time>
      </trkpt>
      <trkpt lat="41.746630" lon="-6.117900">
        <ele>823.482</ele>
        <time>2022-02-24T20:35:17Z</time>
      </trkpt>
      <trkpt lat="41.746670" lon="-6.117930">
        <ele>822.916</ele>
        <time>2022-02-24T20:35:57Z</time>
      </trkpt>
      <trkpt lat="41.746760" lon="-6.117960">
        <ele>822.611</ele>
        <time>2022-02-24T20:36:37Z</time>
      </trkpt>
      <trkpt lat="41.746980" lon="-6.118050">
        <ele>822.116</ele>
        <time>2022-02-24T20:37:17Z</time>
      </trkpt>
      <trkpt lat="41.747010" lon="-6.118050">
        <ele>822.376</ele>
        <time>2022-02-24T20:37:57Z</time>
      </trkpt>
      <trkpt lat="41.747190" lon="-6.118100">
        <ele>823.013</ele>
        <time>2022-02-24T20:38:37Z</time>
      </trkpt>
      <trkpt lat="41.747290" lon="-6.118130">
        <ele>823.408</ele>
        <time>2022-02-24T20:39:17Z</time>
      </trkpt>
      <trkpt lat="41.747360" lon="-6.118150">
        <ele>823.560</ele>
        <time>2022-02-24T20:39:57Z</time>
      </trkpt>
      <trkpt lat="41.747460" lon="-6.118180">
        <ele>823.557</ele>
        <time>2022-02-24T20:40:37Z</time>
      </trkpt>
      <trkpt lat="41.747540" lon="-6.118200">
        <ele>823.031</ele>
        <time>2022-02-24T20:41:17Z</time>
      </trkpt>
      <trkpt lat="41.747538" lon="-6.118203">
        <ele>823.157</ele>
        <time>2022-02-24T20:41:57Z</time>
      </trkpt>
      <trkpt lat="41.747550" lon="-6.118210">
        <ele>822.914</ele>
        <time>2022-02-24T20:42:37Z</time>
      </trkpt>
      <trkpt lat="41.747690" lon="-6.118250">
        <ele>821.235</ele>
        <time>2022-02-24T20:43:17Z</time>
      </trkpt>
      <trkpt lat="41.747720" lon="-6.118260">
        <ele>820.939</ele>
        <time>2022-02-24T20:43:57Z</time>
      </trkpt>
      <trkpt lat="41.747820" lon="-6.118300">
        <ele>819.114</ele>
        <time>2022-02-24T20:44:37Z</time>
      </trkpt>
      <trkpt lat="41.747890" lon="-6.118320">
        <ele>817.235</ele>
        <time>2022-02-24T20:45:17Z</time>
      </trkpt>
      <trkpt lat="41.747990" lon="-6.118350">
        <ele>814.686</ele>
        <time>2022-02-24T20:45:57Z</time>
      </trkpt>
      <trkpt lat="41.748070" lon="-6.118370">
        <ele>812.514</ele>
        <time>2022-02-24T20:46:37Z</time>
      </trkpt>
      <trkpt lat="41.748170" lon="-6.118400">
        <ele>810.608</ele>
        <time>2022-02-24T20:47:17Z</time>
      </trkpt>
      <trkpt lat="41.748250" lon="-6.118440">
        <ele>809.072</ele>
        <time>2022-02-24T20:47:57Z</time>
      </trkpt>
      <trkpt lat="41.748280" lon="-6.118450">
        <ele>808.559</ele>
        <time>2022-02-24T20:48:37Z</time>
      </trkpt>
      <trkpt lat="41.748310" lon="-6.118460">
        <ele>807.943</ele>
        <time>2022-02-24T20:49:17Z</time>
      </trkpt>
      <trkpt lat="41.748340" lon="-6.118470">
        <ele>807.519</ele>
        <time>2022-02-24T20:49:57Z</time>
      </trkpt>
      <trkpt lat="41.748360" lon="-6.118500">
        <ele>807.566</ele>
        <time>2022-02-24T20:50:37Z</time>
      </trkpt>
      <trkpt lat="41.748400" lon="-6.118540">
        <ele>807.457</ele>
        <time>2022-02-24T20:51:17Z</time>
      </trkpt>
      <trkpt lat="41.748480" lon="-6.118630">
        <ele>807.561</ele>
        <time>2022-02-24T20:51:57Z</time>
      </trkpt>
      <trkpt lat="41.748530" lon="-6.118710">
        <ele>807.676</ele>
        <time>2022-02-24T20:52:37Z</time>
      </trkpt>
      <trkpt lat="41.748610" lon="-6.118810">
        <ele>808.047</ele>
        <time>2022-02-24T20:53:17Z</time>
      </trkpt>
      <trkpt lat="41.748770" lon="-6.118930">
        <ele>806.629</ele>
        <time>2022-02-24T20:53:57Z</time>
      </trkpt>
      <trkpt lat="41.748930" lon="-6.119050">
        <ele>805.021</ele>
        <time>2022-02-24T20:54:37Z</time>
      </trkpt>
      <trkpt lat="41.749070" lon="-6.119150">
        <ele>803.108</ele>
        <time>2022-02-24T20:55:17Z</time>
      </trkpt>
      <trkpt lat="41.749170" lon="-6.119200">
        <ele>802.083</ele>
        <time>2022-02-24T20:55:57Z</time>
      </trkpt>
      <trkpt lat="41.749290" lon="-6.119240">
        <ele>801.280</ele>
        <time>2022-02-24T20:56:37Z</time>
      </trkpt>
      <trkpt lat="41.749380" lon="-6.119270">
        <ele>800.814</ele>
        <time>2022-02-24T20:57:17Z</time>
      </trkpt>
      <trkpt lat="41.749440" lon="-6.119320">
        <ele>800.630</ele>
        <time>2022-02-24T20:57:57Z</time>
      </trkpt>
      <trkpt lat="41.749510" lon="-6.119380">
        <ele>800.717</ele>
        <time>2022-02-24T20:58:37Z</time>
      </trkpt>
      <trkpt lat="41.749530" lon="-6.119410">
        <ele>800.838</ele>
        <time>2022-02-24T20:59:17Z</time>
      </trkpt>
      <trkpt lat="41.749560" lon="-6.119450">
        <ele>801.022</ele>
        <time>2022-02-24T20:59:57Z</time>
      </trkpt>
      <trkpt lat="41.749610" lon="-6.119520">
        <ele>801.157</ele>
        <time>2022-02-24T21:00:37Z</time>
      </trkpt>
      <trkpt lat="41.749650" lon="-6.119580">
        <ele>801.227</ele>
        <time>2022-02-24T21:01:17Z</time>
      </trkpt>
      <trkpt lat="41.749700" lon="-6.119650">
        <ele>801.668</ele>
        <time>2022-02-24T21:01:57Z</time>
      </trkpt>
      <trkpt lat="41.749690" lon="-6.119760">
        <ele>801.814</ele>
        <time>2022-02-24T21:02:37Z</time>
      </trkpt>
      <trkpt lat="41.749680" lon="-6.119850">
        <ele>801.708</ele>
        <time>2022-02-24T21:03:17Z</time>
      </trkpt>
      <trkpt lat="41.749680" lon="-6.119890">
        <ele>801.731</ele>
        <time>2022-02-24T21:03:57Z</time>
      </trkpt>
      <trkpt lat="41.749680" lon="-6.119930">
        <ele>801.718</ele>
        <time>2022-02-24T21:04:37Z</time>
      </trkpt>
      <trkpt lat="41.749690" lon="-6.120020">
        <ele>801.862</ele>
        <time>2022-02-24T21:05:17Z</time>
      </trkpt>
      <trkpt lat="41.749720" lon="-6.120100">
        <ele>802.098</ele>
        <time>2022-02-24T21:05:57Z</time>
      </trkpt>
      <trkpt lat="41.749750" lon="-6.120280">
        <ele>802.525</ele>
        <time>2022-02-24T21:06:37Z</time>
      </trkpt>
      <trkpt lat="41.749760" lon="-6.120330">
        <ele>802.896</ele>
        <time>2022-02-24T21:07:17Z</time>
      </trkpt>
      <trkpt lat="41.749830" lon="-6.120640">
        <ele>805.090</ele>
        <time>2022-02-24T21:07:57Z</time>
      </trkpt>
      <trkpt lat="41.749870" lon="-6.120800">
        <ele>806.485</ele>
        <time>2022-02-24T21:08:37Z</time>
      </trkpt>
      <trkpt lat="41.749890" lon="-6.120910">
        <ele>807.052</ele>
        <time>2022-02-24T21:09:17Z</time>
      </trkpt>
      <trkpt lat="41.749930" lon="-6.121070">
        <ele>807.753</ele>
        <time>2022-02-24T21:09:57Z</time>
      </trkpt>
      <trkpt lat="41.749950" lon="-6.121240">
        <ele>807.908</ele>
        <time>2022-02-24T21:10:37Z</time>
      </trkpt>
      <trkpt lat="41.749960" lon="-6.121430">
        <ele>807.908</ele>
        <time>2022-02-24T21:11:17Z</time>
      </trkpt>
      <trkpt lat="41.749960" lon="-6.121510">
        <ele>807.654</ele>
        <time>2022-02-24T21:11:57Z</time>
      </trkpt>
      <trkpt lat="41.749960" lon="-6.121560">
        <ele>807.471</ele>
        <time>2022-02-24T21:12:37Z</time>
      </trkpt>
      <trkpt lat="41.749960" lon="-6.121590">
        <ele>807.335</ele>
        <time>2022-02-24T21:13:17Z</time>
      </trkpt>
      <trkpt lat="41.749970" lon="-6.121620">
        <ele>807.291</ele>
        <time>2022-02-24T21:13:57Z</time>
      </trkpt>
      <trkpt lat="41.749990" lon="-6.121660">
        <ele>807.098</ele>
        <time>2022-02-24T21:14:37Z</time>
      </trkpt>
      <trkpt lat="41.750040" lon="-6.121700">
        <ele>806.829</ele>
        <time>2022-02-24T21:15:17Z</time>
      </trkpt>
      <trkpt lat="41.750045" lon="-6.121699">
        <ele>806.773</ele>
        <time>2022-02-24T21:15:57Z</time>
      </trkpt>
      <trkpt lat="41.750090" lon="-6.121690">
        <ele>806.698</ele>
        <time>2022-02-24T21:16:37Z</time>
      </trkpt>
      <trkpt lat="41.750130" lon="-6.121690">
        <ele>806.516</ele>
        <time>2022-02-24T21:17:17Z</time>
      </trkpt>
      <trkpt lat="41.750140" lon="-6.121690">
        <ele>806.576</ele>
        <time>2022-02-24T21:17:57Z</time>
      </trkpt>
      <trkpt lat="41.750170" lon="-6.121700">
        <ele>806.313</ele>
        <time>2022-02-24T21:18:37Z</time>
      </trkpt>
      <trkpt lat="41.750200" lon="-6.121720">
        <ele>806.208</ele>
        <time>2022-02-24T21:19:17Z</time>
      </trkpt>
      <trkpt lat="41.750230" lon="-6.121740">
        <ele>806.180</ele>
        <time>2022-02-24T21:19:57Z</time>
      </trkpt>
      <trkpt lat="41.750300" lon="-6.121790">
        <ele>806.087</ele>
        <time>2022-02-24T21:20:37Z</time>
      </trkpt>
      <trkpt lat="41.750350" lon="-6.121850">
        <ele>806.091</ele>
        <time>2022-02-24T21:21:17Z</time>
      </trkpt>
      <trkpt lat="41.750380" lon="-6.121900">
        <ele>806.097</ele>
        <time>2022-02-24T21:21:57Z</time>
      </trkpt>
      <trkpt lat="41.750420" lon="-6.121970">
        <ele>805.994</ele>
        <time>2022-02-24T21:22:37Z</time>
      </trkpt>
      <trkpt lat="41.750440" lon="-6.122020">
        <ele>805.755</ele>
        <time>2022-02-24T21:23:17Z</time>
      </trkpt>
      <trkpt lat="41.750470" lon="-6.122120">
        <ele>805.449</ele>
        <time>2022-02-24T21:23:57Z</time>
      </trkpt>
      <trkpt lat="41.750470" lon="-6.122130">
        <ele>805.344</ele>
        <time>2022-02-24T21:24:37Z</time>
      </trkpt>
      <trkpt lat="41.750540" lon="-6.122280">
        <ele>804.649</ele>
        <time>2022-02-24T21:25:17Z</time>
      </trkpt>
      <trkpt lat="41.750570" lon="-6.122320">
        <ele>804.302</ele>
        <time>2022-02-24T21:25:57Z</time>
      </trkpt>
      <trkpt lat="41.750610" lon="-6.122390">
        <ele>803.922</ele>
        <time>2022-02-24T21:26:37Z</time>
      </trkpt>
      <trkpt lat="41.750730" lon="-6.122530">
        <ele>803.508</ele>
        <time>2022-02-24T21:27:17Z</time>
      </trkpt>
      <trkpt lat="41.750810" lon="-6.122630">
        <ele>803.453</ele>
        <time>2022-02-24T21:27:57Z</time>
      </trkpt>
      <trkpt lat="41.750840" lon="-6.122670">
        <ele>803.480</ele>
        <time>2022-02-24T21:28:37Z</time>
      </trkpt>
      <trkpt lat="41.751000" lon="-6.122840">
        <ele>802.074</ele>
        <time>2022-02-24T21:29:17Z</time>
      </trkpt>
      <trkpt lat="41.751010" lon="-6.122850">
        <ele>801.940</ele>
        <time>2022-02-24T21:29:57Z</time>
      </trkpt>
      <trkpt lat="41.751140" lon="-6.122990">
        <ele>800.237</ele>
        <time>2022-02-24T21:30:37Z</time>
      </trkpt>
      <trkpt lat="41.751280" lon="-6.123140">
        <ele>798.498</ele>
        <time>2022-02-24T21:31:17Z</time>
      </trkpt>
      <trkpt lat="41.751430" lon="-6.123270">
        <ele>797.462</ele>
        <time>2022-02-24T21:31:57Z</time>
      </trkpt>
      <trkpt lat="41.751580" lon="-6.123410">
        <ele>797.787</ele>
        <time>2022-02-24T21:32:37Z</time>
      </trkpt>
      <trkpt lat="41.751690" lon="-6.123500">
        <ele>798.191</ele>
        <time>2022-02-24T21:33:17Z</time>
      </trkpt>
      <trkpt lat="41.751730" lon="-6.123540">
        <ele>798.381</ele>
        <time>2022-02-24T21:33:57Z</time>
      </trkpt>
      <trkpt lat="41.751810" lon="-6.123610">
        <ele>798.519</ele>
        <time>2022-02-24T21:34:37Z</time>
      </trkpt>
      <trkpt lat="41.751940" lon="-6.123720">
        <ele>799.408</ele>
        <time>2022-02-24T21:35:17Z</time>
      </trkpt>
      <trkpt lat="41.752040" lon="-6.123790">
        <ele>800.018</ele>
        <time>2022-02-24T21:35:57Z</time>
      </trkpt>
      <trkpt lat="41.752190" lon="-6.123910">
        <ele>801.095</ele>
        <time>2022-02-24T21:36:37Z</time>
      </trkpt>
      <trkpt lat="41.752220" lon="-6.123930">
        <ele>801.389</ele>
        <time>2022-02-24T21:37:17Z</time>
      </trkpt>
      <trkpt lat="41.752350" lon="-6.124020">
        <ele>802.695</ele>
        <time>2022-02-24T21:37:57Z</time>
      </trkpt>
      <trkpt lat="41.752430" lon="-6.124070">
        <ele>803.322</ele>
        <time>2022-02-24T21:38:37Z</time>
      </trkpt>
      <trkpt lat="41.752510" lon="-6.124130">
        <ele>803.983</ele>
        <time>2022-02-24T21:39:17Z</time>
      </trkpt>
      <trkpt lat="41.752670" lon="-6.124220">
        <ele>804.277</ele>
        <time>2022-02-24T21:39:57Z</time>
      </trkpt>
      <trkpt lat="41.752680" lon="-6.124230">
        <ele>804.212</ele>
        <time>2022-02-24T21:40:37Z</time>
      </trkpt>
      <trkpt lat="41.752780" lon="-6.124290">
        <ele>804.441</ele>
        <time>2022-02-24T21:41:17Z</time>
      </trkpt>
      <trkpt lat="41.752840" lon="-6.124320">
        <ele>804.481</ele>
        <time>2022-02-24T21:41:57Z</time>
      </trkpt>
      <trkpt lat="41.752940" lon="-6.124360">
        <ele>804.309</ele>
        <time>2022-02-24T21:42:37Z</time>
      </trkpt>
      <trkpt lat="41.753090" lon="-6.124420">
        <ele>804.008</ele>
        <time>2022-02-24T21:43:17Z</time>
      </trkpt>
      <trkpt lat="41.753210" lon="-6.124470">
        <ele>803.923</ele>
        <time>2022-02-24T21:43:57Z</time>
      </trkpt>
      <trkpt lat="41.753330" lon="-6.124490">
        <ele>803.830</ele>
        <time>2022-02-24T21:44:37Z</time>
      </trkpt>
      <trkpt lat="41.753360" lon="-6.124490">
        <ele>803.984</ele>
        <time>2022-02-24T21:45:17Z</time>
      </trkpt>
      <trkpt lat="41.753450" lon="-6.124490">
        <ele>804.370</ele>
        <time>2022-02-24T21:45:57Z</time>
      </trkpt>
      <trkpt lat="41.753540" lon="-6.124460">
        <ele>804.777</ele>
        <time>2022-02-24T21:46:37Z</time>
      </trkpt>
      <trkpt lat="41.753590" lon="-6.124450">
        <ele>804.948</ele>
        <time>2022-02-24T21:47:17Z</time>
      </trkpt>
      <trkpt lat="41.753690" lon="-6.124390">
        <ele>805.712</ele>
        <time>2022-02-24T21:47:57Z</time>
      </trkpt>
      <trkpt lat="41.753800" lon="-6.124320">
        <ele>806.587</ele>
        <time>2022-02-24T21:48:37Z</time>
      </trkpt>
      <trkpt lat="41.753880" lon="-6.124260">
        <ele>807.035</ele>
        <time>2022-02-24T21:49:17Z</time>
      </trkpt>
      <trkpt lat="41.754170" lon="-6.124030">
        <ele>808.586</ele>
        <time>2022-02-24T21:49:57Z</time>
      </trkpt>
      <trkpt lat="41.754190" lon="-6.124020">
        <ele>808.614</ele>
        <time>2022-02-24T21:50:37Z</time>
      </trkpt>
      <trkpt lat="41.754320" lon="-6.123910">
        <ele>809.508</ele>
        <time>2022-02-24T21:51:17Z</time>
      </trkpt>
      <trkpt lat="41.754350" lon="-6.123900">
        <ele>809.632</ele>
        <time>2022-02-24T21:51:57Z</time>
      </trkpt>
      <trkpt lat="41.754580" lon="-6.123720">
        <ele>812.259</ele>
        <time>2022-02-24T21:52:37Z</time>
      </trkpt>
      <trkpt lat="41.754790" lon="-6.123560">
        <ele>814.423</ele>
        <time>2022-02-24T21:53:17Z</time>
      </trkpt>
      <trkpt lat="41.754820" lon="-6.123540">
        <ele>814.689</ele>
        <time>2022-02-24T21:53:57Z</time>
      </trkpt>
      <trkpt lat="41.754950" lon="-6.123430">
        <ele>815.536</ele>
        <time>2022-02-24T21:54:37Z</time>
      </trkpt>
      <trkpt lat="41.755070" lon="-6.123340">
        <ele>816.577</ele>
        <time>2022-02-24T21:55:17Z</time>
      </trkpt>
      <trkpt lat="41.755190" lon="-6.123260">
        <ele>817.581</ele>
        <time>2022-02-24T21:55:57Z</time>
      </trkpt>
      <trkpt lat="41.755390" lon="-6.123140">
        <ele>818.866</ele>
        <time>2022-02-24T21:56:37Z</time>
      </trkpt>
      <trkpt lat="41.755520" lon="-6.123070">
        <ele>819.721</ele>
        <time>2022-02-24T21:57:17Z</time>
      </trkpt>
      <trkpt lat="41.755670" lon="-6.122990">
        <ele>821.441</ele>
        <time>2022-02-24T21:57:57Z</time>
      </trkpt>
      <trkpt lat="41.755820" lon="-6.122920">
        <ele>822.905</ele>
        <time>2022-02-24T21:58:37Z</time>
      </trkpt>
      <trkpt lat="41.756020" lon="-6.122830">
        <ele>824.908</ele>
        <time>2022-02-24T21:59:17Z</time>
      </trkpt>
      <trkpt lat="41.756250" lon="-6.122750">
        <ele>826.571</ele>
        <time>2022-02-24T21:59:57Z</time>
      </trkpt>
      <trkpt lat="41.756310" lon="-6.122730">
        <ele>826.818</ele>
        <time>2022-02-24T22:00:37Z</time>
      </trkpt>
      <trkpt lat="41.756490" lon="-6.122680">
        <ele>828.132</ele>
        <time>2022-02-24T22:01:17Z</time>
      </trkpt>
      <trkpt lat="41.756490" lon="-6.122670">
        <ele>828.178</ele>
        <time>2022-02-24T22:01:57Z</time>
      </trkpt>
      <trkpt lat="41.756830" lon="-6.122590">
        <ele>831.285</ele>
        <time>2022-02-24T22:02:37Z</time>
      </trkpt>
      <trkpt lat="41.757200" lon="-6.122520">
        <ele>833.866</ele>
        <time>2022-02-24T22:03:17Z</time>
      </trkpt>
      <trkpt lat="41.757230" lon="-6.122510">
        <ele>834.050</ele>
        <time>2022-02-24T22:03:57Z</time>
      </trkpt>
      <trkpt lat="41.757390" lon="-6.122480">
        <ele>834.715</ele>
        <time>2022-02-24T22:04:37Z</time>
      </trkpt>
      <trkpt lat="41.757570" lon="-6.122460">
        <ele>836.033</ele>
        <time>2022-02-24T22:05:17Z</time>
      </trkpt>
      <trkpt lat="41.757700" lon="-6.122440">
        <ele>837.623</ele>
        <time>2022-02-24T22:05:57Z</time>
      </trkpt>
      <trkpt lat="41.757750" lon="-6.122430">
        <ele>838.215</ele>
        <time>2022-02-24T22:06:37Z</time>
      </trkpt>
      <trkpt lat="41.757940" lon="-6.122410">
        <ele>839.808</ele>
        <time>2022-02-24T22:07:17Z</time>
      </trkpt>
      <trkpt lat="41.758100" lon="-6.122420">
        <ele>840.992</ele>
        <time>2022-02-24T22:07:57Z</time>
      </trkpt>
      <trkpt lat="41.758280" lon="-6.122460">
        <ele>842.049</ele>
        <time>2022-02-24T22:08:37Z</time>
      </trkpt>
      <trkpt lat="41.758460" lon="-6.122520">
        <ele>844.163</ele>
        <time>2022-02-24T22:09:17Z</time>
      </trkpt>
      <trkpt lat="41.758810" lon="-6.122620">
        <ele>848.599</ele>
        <time>2022-02-24T22:09:57Z</time>
      </trkpt>
      <trkpt lat="41.758890" lon="-6.122640">
        <ele>849.586</ele>
        <time>2022-02-24T22:10:37Z</time>
      </trkpt>
      <trkpt lat="41.758990" lon="-6.122670">
        <ele>850.147</ele>
        <time>2022-02-24T22:11:17Z</time>
      </trkpt>
      <trkpt lat="41.759120" lon="-6.122710">
        <ele>850.991</ele>
        <time>2022-02-24T22:11:57Z</time>
      </trkpt>
      <trkpt lat="41.759410" lon="-6.122800">
        <ele>850.926</ele>
        <time>2022-02-24T22:12:37Z</time>
      </trkpt>
      <trkpt lat="41.759510" lon="-6.122830">
        <ele>851.051</ele>
        <time>2022-02-24T22:13:17Z</time>
      </trkpt>
      <trkpt lat="41.759690" lon="-6.122880">
        <ele>851.201</ele>
        <time>2022-02-24T22:13:57Z</time>
      </trkpt>
      <trkpt lat="41.759770" lon="-6.122900">
        <ele>851.311</ele>
        <time>2022-02-24T22:14:37Z</time>
      </trkpt>
      <trkpt lat="41.759870" lon="-6.122930">
        <ele>851.408</ele>
        <time>2022-02-24T22:15:17Z</time>
      </trkpt>
      <trkpt lat="41.760150" lon="-6.123000">
        <ele>852.544</ele>
        <time>2022-02-24T22:15:57Z</time>
      </trkpt>
      <trkpt lat="41.760520" lon="-6.123100">
        <ele>854.441</ele>
        <time>2022-02-24T22:16:37Z</time>
      </trkpt>
      <trkpt lat="41.760920" lon="-6.123220">
        <ele>853.695</ele>
        <time>2022-02-24T22:17:17Z</time>
      </trkpt>
      <trkpt lat="41.761070" lon="-6.123260">
        <ele>854.091</ele>
        <time>2022-02-24T22:17:57Z</time>
      </trkpt>
      <trkpt lat="41.761100" lon="-6.123270">
        <ele>854.268</ele>
        <time>2022-02-24T22:18:37Z</time>
      </trkpt>
      <trkpt lat="41.761180" lon="-6.123300">
        <ele>854.679</ele>
        <time>2022-02-24T22:19:17Z</time>
      </trkpt>
      <trkpt lat="41.761270" lon="-6.123340">
        <ele>855.173</ele>
        <time>2022-02-24T22:19:57Z</time>
      </trkpt>
      <trkpt lat="41.761360" lon="-6.123390">
        <ele>855.668</ele>
        <time>2022-02-24T22:20:37Z</time>
      </trkpt>
      <trkpt lat="41.761430" lon="-6.123440">
        <ele>856.148</ele>
        <time>2022-02-24T22:21:17Z</time>
      </trkpt>
      <trkpt lat="41.761520" lon="-6.123480">
        <ele>857.161</ele>
        <time>2022-02-24T22:21:57Z</time>
      </trkpt>
      <trkpt lat="41.761600" lon="-6.123520">
        <ele>858.117</ele>
        <time>2022-02-24T22:22:37Z</time>
      </trkpt>
      <trkpt lat="41.761710" lon="-6.123580">
        <ele>859.808</ele>
        <time>2022-02-24T22:23:17Z</time>
      </trkpt>
      <trkpt lat="41.761770" lon="-6.123610">
        <ele>860.993</ele>
        <time>2022-02-24T22:23:57Z</time>
      </trkpt>
      <trkpt lat="41.761870" lon="-6.123660">
        <ele>862.310</ele>
        <time>2022-02-24T22:24:37Z</time>
      </trkpt>
      <trkpt lat="41.761940" lon="-6.123700">
        <ele>863.344</ele>
        <time>2022-02-24T22:25:17Z</time>
      </trkpt>
      <trkpt lat="41.762100" lon="-6.123800">
        <ele>865.860</ele>
        <time>2022-02-24T22:25:57Z</time>
      </trkpt>
      <trkpt lat="41.762230" lon="-6.123880">
        <ele>868.287</ele>
        <time>2022-02-24T22:26:37Z</time>
      </trkpt>
      <trkpt lat="41.762260" lon="-6.123900">
        <ele>868.688</ele>
        <time>2022-02-24T22:27:17Z</time>
      </trkpt>
      <trkpt lat="41.762480" lon="-6.124030">
        <ele>872.142</ele>
        <time>2022-02-24T22:27:57Z</time>
      </trkpt>
      <trkpt lat="41.762590" lon="-6.124090">
        <ele>873.637</ele>
        <time>2022-02-24T22:28:37Z</time>
      </trkpt>
      <trkpt lat="41.762710" lon="-6.124160">
        <ele>875.033</ele>
        <time>2022-02-24T22:29:17Z</time>
      </trkpt>
      <trkpt lat="41.762760" lon="-6.124190">
        <ele>875.523</ele>
        <time>2022-02-24T22:29:57Z</time>
      </trkpt>
      <trkpt lat="41.762890" lon="-6.124260">
        <ele>876.115</ele>
        <time>2022-02-24T22:30:37Z</time>
      </trkpt>
      <trkpt lat="41.763090" lon="-6.124370">
        <ele>876.508</ele>
        <time>2022-02-24T22:31:17Z</time>
      </trkpt>
      <trkpt lat="41.763220" lon="-6.124440">
        <ele>877.432</ele>
        <time>2022-02-24T22:31:57Z</time>
      </trkpt>
      <trkpt lat="41.763460" lon="-6.124560">
        <ele>878.919</ele>
        <time>2022-02-24T22:32:37Z</time>
      </trkpt>
      <trkpt lat="41.763670" lon="-6.124630">
        <ele>879.993</ele>
        <time>2022-02-24T22:33:17Z</time>
      </trkpt>
      <trkpt lat="41.764000" lon="-6.124710">
        <ele>882.749</ele>
        <time>2022-02-24T22:33:57Z</time>
      </trkpt>
      <trkpt lat="41.764130" lon="-6.124740">
        <ele>884.356</ele>
        <time>2022-02-24T22:34:37Z</time>
      </trkpt>
      <trkpt lat="41.764410" lon="-6.124800">
        <ele>887.187</ele>
        <time>2022-02-24T22:35:17Z</time>
      </trkpt>
      <trkpt lat="41.764650" lon="-6.124840">
        <ele>888.231</ele>
        <time>2022-02-24T22:35:57Z</time>
      </trkpt>
      <trkpt lat="41.764980" lon="-6.124920">
        <ele>890.496</ele>
        <time>2022-02-24T22:36:37Z</time>
      </trkpt>
      <trkpt lat="41.765280" lon="-6.124980">
        <ele>893.264</ele>
        <time>2022-02-24T22:37:17Z</time>
      </trkpt>
      <trkpt lat="41.765540" lon="-6.125030">
        <ele>895.806</ele>
        <time>2022-02-24T22:37:57Z</time>
      </trkpt>
      <trkpt lat="41.765550" lon="-6.125040">
        <ele>895.916</ele>
        <time>2022-02-24T22:38:37Z</time>
      </trkpt>
      <trkpt lat="41.765770" lon="-6.125100">
        <ele>896.808</ele>
        <time>2022-02-24T22:39:17Z</time>
      </trkpt>
      <trkpt lat="41.765900" lon="-6.125170">
        <ele>896.865</ele>
        <time>2022-02-24T22:39:57Z</time>
      </trkpt>
      <trkpt lat="41.765920" lon="-6.125180">
        <ele>896.722</ele>
        <time>2022-02-24T22:40:37Z</time>
      </trkpt>
      <trkpt lat="41.766010" lon="-6.125240">
        <ele>896.416</ele>
        <time>2022-02-24T22:41:17Z</time>
      </trkpt>
      <trkpt lat="41.766060" lon="-6.125280">
        <ele>896.292</ele>
        <time>2022-02-24T22:41:57Z</time>
      </trkpt>
      <trkpt lat="41.766150" lon="-6.125350">
        <ele>895.839</ele>
        <time>2022-02-24T22:42:37Z</time>
      </trkpt>
      <trkpt lat="41.766220" lon="-6.125400">
        <ele>895.350</ele>
        <time>2022-02-24T22:43:17Z</time>
      </trkpt>
      <trkpt lat="41.766320" lon="-6.125480">
        <ele>894.554</ele>
        <time>2022-02-24T22:43:57Z</time>
      </trkpt>
      <trkpt lat="41.766370" lon="-6.125520">
        <ele>894.149</ele>
        <time>2022-02-24T22:44:37Z</time>
      </trkpt>
      <trkpt lat="41.766420" lon="-6.125570">
        <ele>894.046</ele>
        <time>2022-02-24T22:45:17Z</time>
      </trkpt>
      <trkpt lat="41.766520" lon="-6.125650">
        <ele>894.288</ele>
        <time>2022-02-24T22:45:57Z</time>
      </trkpt>
      <trkpt lat="41.766610" lon="-6.125730">
        <ele>894.516</ele>
        <time>2022-02-24T22:46:37Z</time>
      </trkpt>
      <trkpt lat="41.766770" lon="-6.125870">
        <ele>893.208</ele>
        <time>2022-02-24T22:47:17Z</time>
      </trkpt>
      <trkpt lat="41.766890" lon="-6.125990">
        <ele>891.163</ele>
        <time>2022-02-24T22:47:57Z</time>
      </trkpt>
      <trkpt lat="41.766960" lon="-6.126080">
        <ele>889.780</ele>
        <time>2022-02-24T22:48:37Z</time>
      </trkpt>
      <trkpt lat="41.767030" lon="-6.126170">
        <ele>888.014</ele>
        <time>2022-02-24T22:49:17Z</time>
      </trkpt>
      <trkpt lat="41.767550" lon="-6.126860">
        <ele>882.520</ele>
        <time>2022-02-24T22:49:57Z</time>
      </trkpt>
      <trkpt lat="41.767750" lon="-6.127140">
        <ele>880.237</ele>
        <time>2022-02-24T22:50:37Z</time>
      </trkpt>
      <trkpt lat="41.767970" lon="-6.127440">
        <ele>875.838</ele>
        <time>2022-02-24T22:51:17Z</time>
      </trkpt>
      <trkpt lat="41.768350" lon="-6.127960">
        <ele>870.462</ele>
        <time>2022-02-24T22:51:57Z</time>
      </trkpt>
      <trkpt lat="41.768480" lon="-6.128130">
        <ele>868.947</ele>
        <time>2022-02-24T22:52:37Z</time>
      </trkpt>
      <trkpt lat="41.768690" lon="-6.128410">
        <ele>866.892</ele>
        <time>2022-02-24T22:53:17Z</time>
      </trkpt>
      <trkpt lat="41.768980" lon="-6.128770">
        <ele>862.273</ele>
        <time>2022-02-24T22:53:57Z</time>
      </trkpt>
      <trkpt lat="41.769000" lon="-6.128800">
        <ele>861.920</ele>
        <time>2022-02-24T22:54:37Z</time>
      </trkpt>
      <trkpt lat="41.769050" lon="-6.128860">
        <ele>861.008</ele>
        <time>2022-02-24T22:55:17Z</time>
      </trkpt>
      <trkpt lat="41.769140" lon="-6.128940">
        <ele>859.798</ele>
        <time>2022-02-24T22:55:57Z</time>
      </trkpt>
      <trkpt lat="41.769200" lon="-6.129000">
        <ele>858.745</ele>
        <time>2022-02-24T22:56:37Z</time>
      </trkpt>
      <trkpt lat="41.769290" lon="-6.129080">
        <ele>857.339</ele>
        <time>2022-02-24T22:57:17Z</time>
      </trkpt>
      <trkpt lat="41.769440" lon="-6.129210">
        <ele>855.495</ele>
        <time>2022-02-24T22:57:57Z</time>
      </trkpt>
      <trkpt lat="41.769590" lon="-6.129350">
        <ele>853.222</ele>
        <time>2022-02-24T22:58:37Z</time>
      </trkpt>
      <trkpt lat="41.769840" lon="-6.129570">
        <ele>849.653</ele>
        <time>2022-02-24T22:59:17Z</time>
      </trkpt>
      <trkpt lat="41.770040" lon="-6.129740">
        <ele>846.827</ele>
        <time>2022-02-24T22:59:57Z</time>
      </trkpt>
      <trkpt lat="41.770190" lon="-6.129870">
        <ele>846.042</ele>
        <time>2022-02-24T23:00:37Z</time>
      </trkpt>
      <trkpt lat="41.770340" lon="-6.130000">
        <ele>844.829</ele>
        <time>2022-02-24T23:01:17Z</time>
      </trkpt>
      <trkpt lat="41.770490" lon="-6.130130">
        <ele>843.900</ele>
        <time>2022-02-24T23:01:57Z</time>
      </trkpt>
      <trkpt lat="41.770650" lon="-6.130260">
        <ele>842.720</ele>
        <time>2022-02-24T23:02:37Z</time>
      </trkpt>
      <trkpt lat="41.770800" lon="-6.130390">
        <ele>841.708</ele>
        <time>2022-02-24T23:03:17Z</time>
      </trkpt>
      <trkpt lat="41.770950" lon="-6.130520">
        <ele>841.211</ele>
        <time>2022-02-24T23:03:57Z</time>
      </trkpt>
      <trkpt lat="41.771100" lon="-6.130640">
        <ele>840.438</ele>
        <time>2022-02-24T23:04:37Z</time>
      </trkpt>
      <trkpt lat="41.771220" lon="-6.130740">
        <ele>841.112</ele>
        <time>2022-02-24T23:05:17Z</time>
      </trkpt>
      <trkpt lat="41.771510" lon="-6.131000">
        <ele>843.598</ele>
        <time>2022-02-24T23:05:57Z</time>
      </trkpt>
      <trkpt lat="41.771860" lon="-6.131250">
        <ele>845.745</ele>
        <time>2022-02-24T23:06:37Z</time>
      </trkpt>
      <trkpt lat="41.772050" lon="-6.131400">
        <ele>845.776</ele>
        <time>2022-02-24T23:07:17Z</time>
      </trkpt>
      <trkpt lat="41.772150" lon="-6.131480">
        <ele>845.650</ele>
        <time>2022-02-24T23:07:57Z</time>
      </trkpt>
      <trkpt lat="41.772210" lon="-6.131530">
        <ele>845.425</ele>
        <time>2022-02-24T23:08:37Z</time>
      </trkpt>
      <trkpt lat="41.772330" lon="-6.131620">
        <ele>844.978</ele>
        <time>2022-02-24T23:09:17Z</time>
      </trkpt>
      <trkpt lat="41.772360" lon="-6.131640">
        <ele>844.833</ele>
        <time>2022-02-24T23:09:57Z</time>
      </trkpt>
      <trkpt lat="41.772510" lon="-6.131730">
        <ele>844.626</ele>
        <time>2022-02-24T23:10:37Z</time>
      </trkpt>
      <trkpt lat="41.772530" lon="-6.131740">
        <ele>844.508</ele>
        <time>2022-02-24T23:11:17Z</time>
      </trkpt>
      <trkpt lat="41.772590" lon="-6.131770">
        <ele>844.416</ele>
        <time>2022-02-24T23:11:57Z</time>
      </trkpt>
      <trkpt lat="41.772660" lon="-6.131800">
        <ele>844.313</ele>
        <time>2022-02-24T23:12:37Z</time>
      </trkpt>
      <trkpt lat="41.772700" lon="-6.131800">
        <ele>844.447</ele>
        <time>2022-02-24T23:13:17Z</time>
      </trkpt>
      <trkpt lat="41.772880" lon="-6.131840">
        <ele>844.063</ele>
        <time>2022-02-24T23:13:57Z</time>
      </trkpt>
      <trkpt lat="41.772890" lon="-6.131840">
        <ele>844.030</ele>
        <time>2022-02-24T23:14:37Z</time>
      </trkpt>
      <trkpt lat="41.773260" lon="-6.131890">
        <ele>842.521</ele>
        <time>2022-02-24T23:15:17Z</time>
      </trkpt>
      <trkpt lat="41.773540" lon="-6.131940">
        <ele>842.055</ele>
        <time>2022-02-24T23:15:57Z</time>
      </trkpt>
      <trkpt lat="41.773590" lon="-6.131950">
        <ele>842.020</ele>
        <time>2022-02-24T23:16:37Z</time>
      </trkpt>
      <trkpt lat="41.773770" lon="-6.131980">
        <ele>841.347</ele>
        <time>2022-02-24T23:17:17Z</time>
      </trkpt>
      <trkpt lat="41.773850" lon="-6.131990">
        <ele>841.029</ele>
        <time>2022-02-24T23:17:57Z</time>
      </trkpt>
      <trkpt lat="41.773950" lon="-6.132010">
        <ele>840.221</ele>
        <time>2022-02-24T23:18:37Z</time>
      </trkpt>
      <trkpt lat="41.774100" lon="-6.132050">
        <ele>838.608</ele>
        <time>2022-02-24T23:19:17Z</time>
      </trkpt>
      <trkpt lat="41.774130" lon="-6.132060">
        <ele>838.313</ele>
        <time>2022-02-24T23:19:57Z</time>
      </trkpt>
      <trkpt lat="41.774270" lon="-6.132100">
        <ele>838.010</ele>
        <time>2022-02-24T23:20:37Z</time>
      </trkpt>
      <trkpt lat="41.774300" lon="-6.132110">
        <ele>838.054</ele>
        <time>2022-02-24T23:21:17Z</time>
      </trkpt>
      <trkpt lat="41.774480" lon="-6.132180">
        <ele>838.170</ele>
        <time>2022-02-24T23:21:57Z</time>
      </trkpt>
      <trkpt lat="41.774500" lon="-6.132180">
        <ele>838.257</ele>
        <time>2022-02-24T23:22:37Z</time>
      </trkpt>
      <trkpt lat="41.774800" lon="-6.132280">
        <ele>838.988</ele>
        <time>2022-02-24T23:23:17Z</time>
      </trkpt>
      <trkpt lat="41.774830" lon="-6.132290">
        <ele>838.982</ele>
        <time>2022-02-24T23:23:57Z</time>
      </trkpt>
      <trkpt lat="41.775000" lon="-6.132340">
        <ele>839.097</ele>
        <time>2022-02-24T23:24:37Z</time>
      </trkpt>
      <trkpt lat="41.775180" lon="-6.132380">
        <ele>840.037</ele>
        <time>2022-02-24T23:25:17Z</time>
      </trkpt>
      <trkpt lat="41.775270" lon="-6.132400">
        <ele>840.649</ele>
        <time>2022-02-24T23:25:57Z</time>
      </trkpt>
      <trkpt lat="41.775360" lon="-6.132420">
        <ele>841.313</ele>
        <time>2022-02-24T23:26:37Z</time>
      </trkpt>
      <trkpt lat="41.775420" lon="-6.132430">
        <ele>841.808</ele>
        <time>2022-02-24T23:27:17Z</time>
      </trkpt>
      <trkpt lat="41.775540" lon="-6.132440">
        <ele>842.752</ele>
        <time>2022-02-24T23:27:57Z</time>
      </trkpt>
      <trkpt lat="41.775630" lon="-6.132450">
        <ele>843.369</ele>
        <time>2022-02-24T23:28:37Z</time>
      </trkpt>
      <trkpt lat="41.775710" lon="-6.132460">
        <ele>843.943</ele>
        <time>2022-02-24T23:29:17Z</time>
      </trkpt>
      <trkpt lat="41.775840" lon="-6.132460">
        <ele>844.819</ele>
        <time>2022-02-24T23:29:57Z</time>
      </trkpt>
      <trkpt lat="41.775890" lon="-6.132450">
        <ele>845.056</ele>
        <time>2022-02-24T23:30:37Z</time>
      </trkpt>
      <trkpt lat="41.775990" lon="-6.132440">
        <ele>845.667</ele>
        <time>2022-02-24T23:31:17Z</time>
      </trkpt>
      <trkpt lat="41.776070" lon="-6.132440">
        <ele>846.141</ele>
        <time>2022-02-24T23:31:57Z</time>
      </trkpt>
      <trkpt lat="41.776170" lon="-6.132420">
        <ele>846.596</ele>
        <time>2022-02-24T23:32:37Z</time>
      </trkpt>
      <trkpt lat="41.776260" lon="-6.132400">
        <ele>846.873</ele>
        <time>2022-02-24T23:33:17Z</time>
      </trkpt>
      <trkpt lat="41.776330" lon="-6.132390">
        <ele>847.185</ele>
        <time>2022-02-24T23:33:57Z</time>
      </trkpt>
      <trkpt lat="41.776390" lon="-6.132390">
        <ele>847.413</ele>
        <time>2022-02-24T23:34:37Z</time>
      </trkpt>
      <trkpt lat="41.776510" lon="-6.132380">
        <ele>847.908</ele>
        <time>2022-02-24T23:35:17Z</time>
      </trkpt>
      <trkpt lat="41.776690" lon="-6.132370">
        <ele>848.786</ele>
        <time>2022-02-24T23:35:57Z</time>
      </trkpt>
      <trkpt lat="41.776710" lon="-6.132370">
        <ele>848.873</ele>
        <time>2022-02-24T23:36:37Z</time>
      </trkpt>
      <trkpt lat="41.776860" lon="-6.132380">
        <ele>849.727</ele>
        <time>2022-02-24T23:37:17Z</time>
      </trkpt>
      <trkpt lat="41.776960" lon="-6.132390">
        <ele>850.253</ele>
        <time>2022-02-24T23:37:57Z</time>
      </trkpt>
      <trkpt lat="41.777270" lon="-6.132410">
        <ele>851.020</ele>
        <time>2022-02-24T23:38:37Z</time>
      </trkpt>
      <trkpt lat="41.777400" lon="-6.132420">
        <ele>850.991</ele>
        <time>2022-02-24T23:39:17Z</time>
      </trkpt>
      <trkpt lat="41.777630" lon="-6.132430">
        <ele>850.785</ele>
        <time>2022-02-24T23:39:57Z</time>
      </trkpt>
      <trkpt lat="41.777860" lon="-6.132440">
        <ele>850.610</ele>
        <time>2022-02-24T23:40:37Z</time>
      </trkpt>
      <trkpt lat="41.778080" lon="-6.132470">
        <ele>850.279</ele>
        <time>2022-02-24T23:41:17Z</time>
      </trkpt>
      <trkpt lat="41.778120" lon="-6.132480">
        <ele>850.305</ele>
        <time>2022-02-24T23:41:57Z</time>
      </trkpt>
      <trkpt lat="41.778300" lon="-6.132530">
        <ele>850.925</ele>
        <time>2022-02-24T23:42:37Z</time>
      </trkpt>
      <trkpt lat="41.778360" lon="-6.132550">
        <ele>851.108</ele>
        <time>2022-02-24T23:43:17Z</time>
      </trkpt>
      <trkpt lat="41.778470" lon="-6.132600">
        <ele>851.356</ele>
        <time>2022-02-24T23:43:57Z</time>
      </trkpt>
      <trkpt lat="41.778640" lon="-6.132670">
        <ele>851.643</ele>
        <time>2022-02-24T23:44:37Z</time>
      </trkpt>
      <trkpt lat="41.778810" lon="-6.132740">
        <ele>852.687</ele>
        <time>2022-02-24T23:45:17Z</time>
      </trkpt>
      <trkpt lat="41.778910" lon="-6.132780">
        <ele>853.243</ele>
        <time>2022-02-24T23:45:57Z</time>
      </trkpt>
      <trkpt lat="41.779160" lon="-6.132890">
        <ele>855.910</ele>
        <time>2022-02-24T23:46:37Z</time>
      </trkpt>
      <trkpt lat="41.779330" lon="-6.132960">
        <ele>857.861</ele>
        <time>2022-02-24T23:47:17Z</time>
      </trkpt>
      <trkpt lat="41.779500" lon="-6.133030">
        <ele>859.695</ele>
        <time>2022-02-24T23:47:57Z</time>
      </trkpt>
      <trkpt lat="41.779610" lon="-6.133080">
        <ele>860.880</ele>
        <time>2022-02-24T23:48:37Z</time>
      </trkpt>
      <trkpt lat="41.779670" lon="-6.133100">
        <ele>861.596</ele>
        <time>2022-02-24T23:49:17Z</time>
      </trkpt>
      <trkpt lat="41.779850" lon="-6.133170">
        <ele>862.931</ele>
        <time>2022-02-24T23:49:57Z</time>
      </trkpt>
      <trkpt lat="41.780010" lon="-6.133270">
        <ele>864.124</ele>
        <time>2022-02-24T23:50:37Z</time>
      </trkpt>
      <trkpt lat="41.780060" lon="-6.133290">
        <ele>864.808</ele>
        <time>2022-02-24T23:51:17Z</time>
      </trkpt>
      <trkpt lat="41.780170" lon="-6.133380">
        <ele>866.438</ele>
        <time>2022-02-24T23:51:57Z</time>
      </trkpt>
      <trkpt lat="41.780190" lon="-6.133390">
        <ele>866.745</ele>
        <time>2022-02-24T23:52:37Z</time>
      </trkpt>
      <trkpt lat="41.780300" lon="-6.133500">
        <ele>868.279</ele>
        <time>2022-02-24T23:53:17Z</time>
      </trkpt>
      <trkpt lat="41.780310" lon="-6.133520">
        <ele>868.375</ele>
        <time>2022-02-24T23:53:57Z</time>
      </trkpt>
      <trkpt lat="41.780440" lon="-6.133650">
        <ele>869.892</ele>
        <time>2022-02-24T23:54:37Z</time>
      </trkpt>
      <trkpt lat="41.780450" lon="-6.133670">
        <ele>869.943</ele>
        <time>2022-02-24T23:55:17Z</time>
      </trkpt>
      <trkpt lat="41.780570" lon="-6.133850">
        <ele>871.267</ele>
        <time>2022-02-24T23:55:57Z</time>
      </trkpt>
      <trkpt lat="41.780690" lon="-6.134030">
        <ele>872.722</ele>
        <time>2022-02-24T23:56:37Z</time>
      </trkpt>
      <trkpt lat="41.780810" lon="-6.134210">
        <ele>874.077</ele>
        <time>2022-02-24T23:57:17Z</time>
      </trkpt>
      <trkpt lat="41.780930" lon="-6.134400">
        <ele>875.961</ele>
        <time>2022-02-24T23:57:57Z</time>
      </trkpt>
      <trkpt lat="41.781030" lon="-6.134570">
        <ele>877.627</ele>
        <time>2022-02-24T23:58:37Z</time>
      </trkpt>
      <trkpt lat="41.781040" lon="-6.134590">
        <ele>877.808</ele>
        <time>2022-02-24T23:59:17Z</time>
      </trkpt>
      <trkpt lat="41.781150" lon="-6.134770">
        <ele>879.336</ele>
        <time>2022-02-24T23:59:57Z</time>
      </trkpt>
      <trkpt lat="41.781260" lon="-6.134960">
        <ele>880.573</ele>
        <time>2022-02-25T00:00:37Z</time>
      </trkpt>
      <trkpt lat="41.781280" lon="-6.134980">
        <ele>880.857</ele>
        <time>2022-02-25T00:01:17Z</time>
      </trkpt>
      <trkpt lat="41.781510" lon="-6.135390">
        <ele>882.983</ele>
        <time>2022-02-25T00:01:57Z</time>
      </trkpt>
      <trkpt lat="41.781600" lon="-6.135530">
        <ele>883.540</ele>
        <time>2022-02-25T00:02:37Z</time>
      </trkpt>
      <trkpt lat="41.781700" lon="-6.135690">
        <ele>884.481</ele>
        <time>2022-02-25T00:03:17Z</time>
      </trkpt>
      <trkpt lat="41.781710" lon="-6.135710">
        <ele>884.585</ele>
        <time>2022-02-25T00:03:57Z</time>
      </trkpt>
      <trkpt lat="41.781830" lon="-6.135890">
        <ele>885.650</ele>
        <time>2022-02-25T00:04:37Z</time>
      </trkpt>
      <trkpt lat="41.781970" lon="-6.136060">
        <ele>886.456</ele>
        <time>2022-02-25T00:05:17Z</time>
      </trkpt>
      <trkpt lat="41.782030" lon="-6.136140">
        <ele>886.659</ele>
        <time>2022-02-25T00:05:57Z</time>
      </trkpt>
      <trkpt lat="41.782100" lon="-6.136220">
        <ele>886.914</ele>
        <time>2022-02-25T00:06:37Z</time>
      </trkpt>
      <trkpt lat="41.782220" lon="-6.136380">
        <ele>887.008</ele>
        <time>2022-02-25T00:07:17Z</time>
      </trkpt>
      <trkpt lat="41.782230" lon="-6.136390">
        <ele>887.164</ele>
        <time>2022-02-25T00:07:57Z</time>
      </trkpt>
      <trkpt lat="41.782370" lon="-6.136540">
        <ele>888.341</ele>
        <time>2022-02-25T00:08:37Z</time>
      </trkpt>
      <trkpt lat="41.782450" lon="-6.136630">
        <ele>888.885</ele>
        <time>2022-02-25T00:09:17Z</time>
      </trkpt>
      <trkpt lat="41.782500" lon="-6.136700">
        <ele>889.051</ele>
        <time>2022-02-25T00:09:57Z</time>
      </trkpt>
      <trkpt lat="41.782640" lon="-6.136860">
        <ele>889.738</ele>
        <time>2022-02-25T00:10:37Z</time>
      </trkpt>
      <trkpt lat="41.782690" lon="-6.136920">
        <ele>889.739</ele>
        <time>2022-02-25T00:11:17Z</time>
      </trkpt>
      <trkpt lat="41.782770" lon="-6.137020">
        <ele>890.023</ele>
        <time>2022-02-25T00:11:57Z</time>
      </trkpt>
      <trkpt lat="41.782870" lon="-6.137160">
        <ele>890.148</ele>
        <time>2022-02-25T00:12:37Z</time>
      </trkpt>
      <trkpt lat="41.782890" lon="-6.137200">
        <ele>890.011</ele>
        <time>2022-02-25T00:13:17Z</time>
      </trkpt>
      <trkpt lat="41.783020" lon="-6.137370">
        <ele>889.621</ele>
        <time>2022-02-25T00:13:57Z</time>
      </trkpt>
      <trkpt lat="41.783050" lon="-6.137400">
        <ele>889.403</ele>
        <time>2022-02-25T00:14:37Z</time>
      </trkpt>
      <trkpt lat="41.783150" lon="-6.137530">
        <ele>889.008</ele>
        <time>2022-02-25T00:15:17Z</time>
      </trkpt>
      <trkpt lat="41.783240" lon="-6.137640">
        <ele>888.880</ele>
        <time>2022-02-25T00:15:57Z</time>
      </trkpt>
      <trkpt lat="41.783280" lon="-6.137700">
        <ele>888.667</ele>
        <time>2022-02-25T00:16:37Z</time>
      </trkpt>
      <trkpt lat="41.783410" lon="-6.137860">
        <ele>887.811</ele>
        <time>2022-02-25T00:17:17Z</time>
      </trkpt>
      <trkpt lat="41.783450" lon="-6.137900">
        <ele>887.557</ele>
        <time>2022-02-25T00:17:57Z</time>
      </trkpt>
      <trkpt lat="41.783630" lon="-6.138130">
        <ele>884.844</ele>
        <time>2022-02-25T00:18:37Z</time>
      </trkpt>
      <trkpt lat="41.783680" lon="-6.138190">
        <ele>884.465</ele>
        <time>2022-02-25T00:19:17Z</time>
      </trkpt>
      <trkpt lat="41.783800" lon="-6.138340">
        <ele>883.039</ele>
        <time>2022-02-25T00:19:57Z</time>
      </trkpt>
      <trkpt lat="41.783870" lon="-6.138430">
        <ele>882.524</ele>
        <time>2022-02-25T00:20:37Z</time>
      </trkpt>
      <trkpt lat="41.784040" lon="-6.138630">
        <ele>880.958</ele>
        <time>2022-02-25T00:21:17Z</time>
      </trkpt>
      <trkpt lat="41.784180" lon="-6.138790">
        <ele>879.552</ele>
        <time>2022-02-25T00:21:57Z</time>
      </trkpt>
      <trkpt lat="41.784270" lon="-6.138890">
        <ele>878.517</ele>
        <time>2022-02-25T00:22:37Z</time>
      </trkpt>
      <trkpt lat="41.784450" lon="-6.139110">
        <ele>876.708</ele>
        <time>2022-02-25T00:23:17Z</time>
      </trkpt>
      <trkpt lat="41.784480" lon="-6.139140">
        <ele>876.464</ele>
        <time>2022-02-25T00:23:57Z</time>
      </trkpt>
      <trkpt lat="41.784580" lon="-6.139280">
        <ele>874.691</ele>
        <time>2022-02-25T00:24:37Z</time>
      </trkpt>
      <trkpt lat="41.784600" lon="-6.139300">
        <ele>874.325</ele>
        <time>2022-02-25T00:25:17Z</time>
      </trkpt>
      <trkpt lat="41.784710" lon="-6.139440">
        <ele>872.241</ele>
        <time>2022-02-25T00:25:57Z</time>
      </trkpt>
      <trkpt lat="41.784800" lon="-6.139550">
        <ele>870.088</ele>
        <time>2022-02-25T00:26:37Z</time>
      </trkpt>
      <trkpt lat="41.784850" lon="-6.139600">
        <ele>868.969</ele>
        <time>2022-02-25T00:27:17Z</time>
      </trkpt>
      <trkpt lat="41.784980" lon="-6.139760">
        <ele>866.683</ele>
        <time>2022-02-25T00:27:57Z</time>
      </trkpt>
      <trkpt lat="41.785090" lon="-6.139950">
        <ele>866.018</ele>
        <time>2022-02-25T00:28:37Z</time>
      </trkpt>
      <trkpt lat="41.785110" lon="-6.139990">
        <ele>865.969</ele>
        <time>2022-02-25T00:29:17Z</time>
      </trkpt>
      <trkpt lat="41.785150" lon="-6.140040">
        <ele>865.404</ele>
        <time>2022-02-25T00:29:57Z</time>
      </trkpt>
      <trkpt lat="41.785300" lon="-6.140320">
        <ele>864.124</ele>
        <time>2022-02-25T00:30:37Z</time>
      </trkpt>
      <trkpt lat="41.785440" lon="-6.140510">
        <ele>863.908</ele>
        <time>2022-02-25T00:31:17Z</time>
      </trkpt>
      <trkpt lat="41.785450" lon="-6.140530">
        <ele>864.075</ele>
        <time>2022-02-25T00:31:57Z</time>
      </trkpt>
      <trkpt lat="41.785540" lon="-6.140620">
        <ele>863.682</ele>
        <time>2022-02-25T00:32:37Z</time>
      </trkpt>
      <trkpt lat="41.785580" lon="-6.140650">
        <ele>863.286</ele>
        <time>2022-02-25T00:33:17Z</time>
      </trkpt>
      <trkpt lat="41.785600" lon="-6.140670">
        <ele>863.022</ele>
        <time>2022-02-25T00:33:57Z</time>
      </trkpt>
      <trkpt lat="41.785710" lon="-6.140740">
        <ele>861.219</ele>
        <time>2022-02-25T00:34:37Z</time>
      </trkpt>
      <trkpt lat="41.785740" lon="-6.140750">
        <ele>860.670</ele>
        <time>2022-02-25T00:35:17Z</time>
      </trkpt>
      <trkpt lat="41.785840" lon="-6.140790">
        <ele>858.794</ele>
        <time>2022-02-25T00:35:57Z</time>
      </trkpt>
      <trkpt lat="41.785920" lon="-6.140800">
        <ele>857.679</ele>
        <time>2022-02-25T00:36:37Z</time>
      </trkpt>
      <trkpt lat="41.785960" lon="-6.140810">
        <ele>857.121</ele>
        <time>2022-02-25T00:37:17Z</time>
      </trkpt>
      <trkpt lat="41.786090" lon="-6.140840">
        <ele>855.341</ele>
        <time>2022-02-25T00:37:57Z</time>
      </trkpt>
      <trkpt lat="41.786200" lon="-6.140870">
        <ele>854.305</ele>
        <time>2022-02-25T00:38:37Z</time>
      </trkpt>
      <trkpt lat="41.786270" lon="-6.140890">
        <ele>853.608</ele>
        <time>2022-02-25T00:39:17Z</time>
      </trkpt>
      <trkpt lat="41.786500" lon="-6.140970">
        <ele>850.221</ele>
        <time>2022-02-25T00:39:57Z</time>
      </trkpt>
      <trkpt lat="41.786620" lon="-6.141020">
        <ele>848.118</ele>
        <time>2022-02-25T00:40:37Z</time>
      </trkpt>
      <trkpt lat="41.786650" lon="-6.141040">
        <ele>847.512</ele>
        <time>2022-02-25T00:41:17Z</time>
      </trkpt>
      <trkpt lat="41.786710" lon="-6.141060">
        <ele>846.648</ele>
        <time>2022-02-25T00:41:57Z</time>
      </trkpt>
      <trkpt lat="41.786960" lon="-6.141170">
        <ele>843.285</ele>
        <time>2022-02-25T00:42:37Z</time>
      </trkpt>
      <trkpt lat="41.786980" lon="-6.141170">
        <ele>843.156</ele>
        <time>2022-02-25T00:43:17Z</time>
      </trkpt>
      <trkpt lat="41.787130" lon="-6.141230">
        <ele>842.870</ele>
        <time>2022-02-25T00:43:57Z</time>
      </trkpt>
      <trkpt lat="41.787200" lon="-6.141250">
        <ele>842.675</ele>
        <time>2022-02-25T00:44:37Z</time>
      </trkpt>
      <trkpt lat="41.787400" lon="-6.141290">
        <ele>842.419</ele>
        <time>2022-02-25T00:45:17Z</time>
      </trkpt>
      <trkpt lat="41.787630" lon="-6.141290">
        <ele>840.909</ele>
        <time>2022-02-25T00:45:57Z</time>
      </trkpt>
      <trkpt lat="41.787890" lon="-6.141260">
        <ele>838.719</ele>
        <time>2022-02-25T00:46:37Z</time>
      </trkpt>
      <trkpt lat="41.788030" lon="-6.141240">
        <ele>838.008</ele>
        <time>2022-02-25T00:47:17Z</time>
      </trkpt>
      <trkpt lat="41.788140" lon="-6.141230">
        <ele>837.720</ele>
        <time>2022-02-25T00:47:57Z</time>
      </trkpt>
      <trkpt lat="41.788320" lon="-6.141140">
        <ele>837.177</ele>
        <time>2022-02-25T00:48:37Z</time>
      </trkpt>
      <trkpt lat="41.788380" lon="-6.141100">
        <ele>836.671</ele>
        <time>2022-02-25T00:49:17Z</time>
      </trkpt>
      <trkpt lat="41.788450" lon="-6.141030">
        <ele>836.027</ele>
        <time>2022-02-25T00:49:57Z</time>
      </trkpt>
      <trkpt lat="41.788660" lon="-6.140800">
        <ele>834.174</ele>
        <time>2022-02-25T00:50:37Z</time>
      </trkpt>
      <trkpt lat="41.788800" lon="-6.140670">
        <ele>831.625</ele>
        <time>2022-02-25T00:51:17Z</time>
      </trkpt>
      <trkpt lat="41.788870" lon="-6.140610">
        <ele>830.599</ele>
        <time>2022-02-25T00:51:57Z</time>
      </trkpt>
      <trkpt lat="41.789060" lon="-6.140460">
        <ele>829.744</ele>
        <time>2022-02-25T00:52:37Z</time>
      </trkpt>
      <trkpt lat="41.789110" lon="-6.140420">
        <ele>829.535</ele>
        <time>2022-02-25T00:53:17Z</time>
      </trkpt>
      <trkpt lat="41.789210" lon="-6.140360">
        <ele>829.286</ele>
        <time>2022-02-25T00:53:57Z</time>
      </trkpt>
      <trkpt lat="41.789270" lon="-6.140320">
        <ele>829.114</ele>
        <time>2022-02-25T00:54:37Z</time>
      </trkpt>
      <trkpt lat="41.789330" lon="-6.140290">
        <ele>829.008</ele>
        <time>2022-02-25T00:55:17Z</time>
      </trkpt>
      <trkpt lat="41.789510" lon="-6.140190">
        <ele>827.712</ele>
        <time>2022-02-25T00:55:57Z</time>
      </trkpt>
      <trkpt lat="41.789700" lon="-6.140110">
        <ele>825.619</ele>
        <time>2022-02-25T00:56:37Z</time>
      </trkpt>
      <trkpt lat="41.789830" lon="-6.140070">
        <ele>824.093</ele>
        <time>2022-02-25T00:57:17Z</time>
      </trkpt>
      <trkpt lat="41.789960" lon="-6.140040">
        <ele>822.579</ele>
        <time>2022-02-25T00:57:57Z</time>
      </trkpt>
      <trkpt lat="41.790020" lon="-6.140020">
        <ele>822.096</ele>
        <time>2022-02-25T00:58:37Z</time>
      </trkpt>
      <trkpt lat="41.790310" lon="-6.139990">
        <ele>822.097</ele>
        <time>2022-02-25T00:59:17Z</time>
      </trkpt>
      <trkpt lat="41.790620" lon="-6.139990">
        <ele>821.711</ele>
        <time>2022-02-25T00:59:57Z</time>
      </trkpt>
      <trkpt lat="41.790850" lon="-6.140000">
        <ele>820.936</ele>
        <time>2022-02-25T01:00:37Z</time>
      </trkpt>
      <trkpt lat="41.791010" lon="-6.140010">
        <ele>819.857</ele>
        <time>2022-02-25T01:01:17Z</time>
      </trkpt>
      <trkpt lat="41.791030" lon="-6.140010">
        <ele>819.700</ele>
        <time>2022-02-25T01:01:57Z</time>
      </trkpt>
      <trkpt lat="41.791310" lon="-6.140070">
        <ele>817.920</ele>
        <time>2022-02-25T01:02:37Z</time>
      </trkpt>
      <trkpt lat="41.791550" lon="-6.140110">
        <ele>816.008</ele>
        <time>2022-02-25T01:03:17Z</time>
      </trkpt>
      <trkpt lat="41.791900" lon="-6.140170">
        <ele>813.344</ele>
        <time>2022-02-25T01:03:57Z</time>
      </trkpt>
      <trkpt lat="41.792100" lon="-6.140210">
        <ele>812.651</ele>
        <time>2022-02-25T01:04:37Z</time>
      </trkpt>
      <trkpt lat="41.792280" lon="-6.140240">
        <ele>811.945</ele>
        <time>2022-02-25T01:05:17Z</time>
      </trkpt>
      <trkpt lat="41.792600" lon="-6.140300">
        <ele>810.561</ele>
        <time>2022-02-25T01:05:57Z</time>
      </trkpt>
      <trkpt lat="41.792840" lon="-6.140350">
        <ele>809.428</ele>
        <time>2022-02-25T01:06:37Z</time>
      </trkpt>
      <trkpt lat="41.793060" lon="-6.140390">
        <ele>808.059</ele>
        <time>2022-02-25T01:07:17Z</time>
      </trkpt>
      <trkpt lat="41.793390" lon="-6.140460">
        <ele>805.643</ele>
        <time>2022-02-25T01:07:57Z</time>
      </trkpt>
      <trkpt lat="41.793700" lon="-6.140540">
        <ele>803.768</ele>
        <time>2022-02-25T01:08:37Z</time>
      </trkpt>
      <trkpt lat="41.793740" lon="-6.140550">
        <ele>803.533</ele>
        <time>2022-02-25T01:09:17Z</time>
      </trkpt>
      <trkpt lat="41.794000" lon="-6.140620">
        <ele>802.023</ele>
        <time>2022-02-25T01:09:57Z</time>
      </trkpt>
      <trkpt lat="41.794100" lon="-6.140640">
        <ele>801.215</ele>
        <time>2022-02-25T01:10:37Z</time>
      </trkpt>
      <trkpt lat="41.794280" lon="-6.140650">
        <ele>799.808</ele>
        <time>2022-02-25T01:11:17Z</time>
      </trkpt>
      <trkpt lat="41.794410" lon="-6.140670">
        <ele>798.862</ele>
        <time>2022-02-25T01:11:57Z</time>
      </trkpt>
      <trkpt lat="41.794470" lon="-6.140680">
        <ele>798.479</ele>
        <time>2022-02-25T01:12:37Z</time>
      </trkpt>
      <trkpt lat="41.794530" lon="-6.140700">
        <ele>797.983</ele>
        <time>2022-02-25T01:13:17Z</time>
      </trkpt>
      <trkpt lat="41.794610" lon="-6.140750">
        <ele>797.149</ele>
        <time>2022-02-25T01:13:57Z</time>
      </trkpt>
      <trkpt lat="41.794710" lon="-6.140820">
        <ele>796.186</ele>
        <time>2022-02-25T01:14:37Z</time>
      </trkpt>
      <trkpt lat="41.794800" lon="-6.140920">
        <ele>795.377</ele>
        <time>2022-02-25T01:15:17Z</time>
      </trkpt>
      <trkpt lat="41.795000" lon="-6.141090">
        <ele>793.221</ele>
        <time>2022-02-25T01:15:57Z</time>
      </trkpt>
      <trkpt lat="41.795040" lon="-6.141120">
        <ele>793.076</ele>
        <time>2022-02-25T01:16:37Z</time>
      </trkpt>
      <trkpt lat="41.795120" lon="-6.141190">
        <ele>792.761</ele>
        <time>2022-02-25T01:17:17Z</time>
      </trkpt>
      <trkpt lat="41.795240" lon="-6.141270">
        <ele>792.421</ele>
        <time>2022-02-25T01:17:57Z</time>
      </trkpt>
      <trkpt lat="41.795320" lon="-6.141320">
        <ele>792.413</ele>
        <time>2022-02-25T01:18:37Z</time>
      </trkpt>
      <trkpt lat="41.795360" lon="-6.141350">
        <ele>792.408</ele>
        <time>2022-02-25T01:19:17Z</time>
      </trkpt>
      <trkpt lat="41.795480" lon="-6.141400">
        <ele>792.775</ele>
        <time>2022-02-25T01:19:57Z</time>
      </trkpt>
      <trkpt lat="41.795660" lon="-6.141480">
        <ele>793.072</ele>
        <time>2022-02-25T01:20:37Z</time>
      </trkpt>
      <trkpt lat="41.795700" lon="-6.141500">
        <ele>793.036</ele>
        <time>2022-02-25T01:21:17Z</time>
      </trkpt>
      <trkpt lat="41.795850" lon="-6.141550">
        <ele>793.052</ele>
        <time>2022-02-25T01:21:57Z</time>
      </trkpt>
      <trkpt lat="41.795930" lon="-6.141570">
        <ele>792.979</ele>
        <time>2022-02-25T01:22:37Z</time>
      </trkpt>
      <trkpt lat="41.796000" lon="-6.141590">
        <ele>792.810</ele>
        <time>2022-02-25T01:23:17Z</time>
      </trkpt>
      <trkpt lat="41.796220" lon="-6.141640">
        <ele>792.944</ele>
        <time>2022-02-25T01:23:57Z</time>
      </trkpt>
      <trkpt lat="41.796360" lon="-6.141670">
        <ele>793.089</ele>
        <time>2022-02-25T01:24:37Z</time>
      </trkpt>
      <trkpt lat="41.796480" lon="-6.141690">
        <ele>793.768</ele>
        <time>2022-02-25T01:25:17Z</time>
      </trkpt>
      <trkpt lat="41.796760" lon="-6.141710">
        <ele>795.742</ele>
        <time>2022-02-25T01:25:57Z</time>
      </trkpt>
      <trkpt lat="41.796790" lon="-6.141720">
        <ele>795.926</ele>
        <time>2022-02-25T01:26:37Z</time>
      </trkpt>
      <trkpt lat="41.796960" lon="-6.141720">
        <ele>797.208</ele>
        <time>2022-02-25T01:27:17Z</time>
      </trkpt>
      <trkpt lat="41.796970" lon="-6.141720">
        <ele>797.365</ele>
        <time>2022-02-25T01:27:57Z</time>
      </trkpt>
      <trkpt lat="41.797150" lon="-6.141730">
        <ele>799.252</ele>
        <time>2022-02-25T01:28:37Z</time>
      </trkpt>
      <trkpt lat="41.797270" lon="-6.141730">
        <ele>800.296</ele>
        <time>2022-02-25T01:29:17Z</time>
      </trkpt>
      <trkpt lat="41.797690" lon="-6.141780">
        <ele>802.632</ele>
        <time>2022-02-25T01:29:57Z</time>
      </trkpt>
      <trkpt lat="41.797870" lon="-6.141820">
        <ele>804.369</ele>
        <time>2022-02-25T01:30:37Z</time>
      </trkpt>
      <trkpt lat="41.798040" lon="-6.141850">
        <ele>805.940</ele>
        <time>2022-02-25T01:31:17Z</time>
      </trkpt>
      <trkpt lat="41.798220" lon="-6.141910">
        <ele>807.954</ele>
        <time>2022-02-25T01:31:57Z</time>
      </trkpt>
      <trkpt lat="41.798260" lon="-6.141920">
        <ele>808.359</ele>
        <time>2022-02-25T01:32:37Z</time>
      </trkpt>
      <trkpt lat="41.798390" lon="-6.141980">
        <ele>809.197</ele>
        <time>2022-02-25T01:33:17Z</time>
      </trkpt>
      <trkpt lat="41.798410" lon="-6.141990">
        <ele>809.223</ele>
        <time>2022-02-25T01:33:57Z</time>
      </trkpt>
      <trkpt lat="41.798550" lon="-6.142080">
        <ele>809.525</ele>
        <time>2022-02-25T01:34:37Z</time>
      </trkpt>
      <trkpt lat="41.798560" lon="-6.142090">
        <ele>809.508</ele>
        <time>2022-02-25T01:35:17Z</time>
      </trkpt>
      <trkpt lat="41.798720" lon="-6.142210">
        <ele>809.638</ele>
        <time>2022-02-25T01:35:57Z</time>
      </trkpt>
      <trkpt lat="41.798730" lon="-6.142220">
        <ele>809.635</ele>
        <time>2022-02-25T01:36:37Z</time>
      </trkpt>
      <trkpt lat="41.798890" lon="-6.142340">
        <ele>809.439</ele>
        <time>2022-02-25T01:37:17Z</time>
      </trkpt>
      <trkpt lat="41.799040" lon="-6.142470">
        <ele>809.555</ele>
        <time>2022-02-25T01:37:57Z</time>
      </trkpt>
      <trkpt lat="41.799190" lon="-6.142610">
        <ele>808.832</ele>
        <time>2022-02-25T01:38:37Z</time>
      </trkpt>
      <trkpt lat="41.799340" lon="-6.142740">
        <ele>806.783</ele>
        <time>2022-02-25T01:39:17Z</time>
      </trkpt>
      <trkpt lat="41.799480" lon="-6.142870">
        <ele>804.827</ele>
        <time>2022-02-25T01:39:57Z</time>
      </trkpt>
      <trkpt lat="41.799630" lon="-6.143010">
        <ele>803.832</ele>
        <time>2022-02-25T01:40:37Z</time>
      </trkpt>
      <trkpt lat="41.799690" lon="-6.143070">
        <ele>803.262</ele>
        <time>2022-02-25T01:41:17Z</time>
      </trkpt>
      <trkpt lat="41.799770" lon="-6.143150">
        <ele>802.583</ele>
        <time>2022-02-25T01:41:57Z</time>
      </trkpt>
      <trkpt lat="41.799840" lon="-6.143200">
        <ele>802.311</ele>
        <time>2022-02-25T01:42:37Z</time>
      </trkpt>
      <trkpt lat="41.799860" lon="-6.143200">
        <ele>802.208</ele>
        <time>2022-02-25T01:43:17Z</time>
      </trkpt>
      <trkpt lat="41.799910" lon="-6.143230">
        <ele>802.115</ele>
        <time>2022-02-25T01:43:57Z</time>
      </trkpt>
      <trkpt lat="41.799990" lon="-6.143250">
        <ele>802.022</ele>
        <time>2022-02-25T01:44:37Z</time>
      </trkpt>
      <trkpt lat="41.800080" lon="-6.143260">
        <ele>802.356</ele>
        <time>2022-02-25T01:45:17Z</time>
      </trkpt>
      <trkpt lat="41.800290" lon="-6.143270">
        <ele>803.082</ele>
        <time>2022-02-25T01:45:57Z</time>
      </trkpt>
      <trkpt lat="41.800470" lon="-6.143280">
        <ele>802.959</ele>
        <time>2022-02-25T01:46:37Z</time>
      </trkpt>
      <trkpt lat="41.800510" lon="-6.143290">
        <ele>802.950</ele>
        <time>2022-02-25T01:47:17Z</time>
      </trkpt>
      <trkpt lat="41.800650" lon="-6.143300">
        <ele>802.614</ele>
        <time>2022-02-25T01:47:57Z</time>
      </trkpt>
      <trkpt lat="41.800820" lon="-6.143310">
        <ele>802.089</ele>
        <time>2022-02-25T01:48:37Z</time>
      </trkpt>
      <trkpt lat="41.801000" lon="-6.143320">
        <ele>802.041</ele>
        <time>2022-02-25T01:49:17Z</time>
      </trkpt>
      <trkpt lat="41.801040" lon="-6.143320">
        <ele>802.081</ele>
        <time>2022-02-25T01:49:57Z</time>
      </trkpt>
      <trkpt lat="41.801360" lon="-6.143350">
        <ele>801.909</ele>
        <time>2022-02-25T01:50:37Z</time>
      </trkpt>
      <trkpt lat="41.801540" lon="-6.143370">
        <ele>801.908</ele>
        <time>2022-02-25T01:51:17Z</time>
      </trkpt>
      <trkpt lat="41.801660" lon="-6.143380">
        <ele>802.023</ele>
        <time>2022-02-25T01:51:57Z</time>
      </trkpt>
      <trkpt lat="41.801720" lon="-6.143380">
        <ele>802.430</ele>
        <time>2022-02-25T01:52:37Z</time>
      </trkpt>
      <trkpt lat="41.802080" lon="-6.143410">
        <ele>805.544</ele>
        <time>2022-02-25T01:53:17Z</time>
      </trkpt>
      <trkpt lat="41.802140" lon="-6.143420">
        <ele>806.120</ele>
        <time>2022-02-25T01:53:57Z</time>
      </trkpt>
      <trkpt lat="41.802260" lon="-6.143420">
        <ele>807.237</ele>
        <time>2022-02-25T01:54:37Z</time>
      </trkpt>
      <trkpt lat="41.802380" lon="-6.143430">
        <ele>807.958</ele>
        <time>2022-02-25T01:55:17Z</time>
      </trkpt>
      <trkpt lat="41.802390" lon="-6.143430">
        <ele>808.092</ele>
        <time>2022-02-25T01:55:57Z</time>
      </trkpt>
      <trkpt lat="41.802410" lon="-6.143430">
        <ele>808.137</ele>
        <time>2022-02-25T01:56:37Z</time>
      </trkpt>
      <trkpt lat="41.802440" lon="-6.143450">
        <ele>808.229</ele>
        <time>2022-02-25T01:57:17Z</time>
      </trkpt>
      <trkpt lat="41.802450" lon="-6.143460">
        <ele>808.300</ele>
        <time>2022-02-25T01:57:57Z</time>
      </trkpt>
      <trkpt lat="41.802470" lon="-6.143470">
        <ele>808.320</ele>
        <time>2022-02-25T01:58:37Z</time>
      </trkpt>
      <trkpt lat="41.802480" lon="-6.143490">
        <ele>808.308</ele>
        <time>2022-02-25T01:59:17Z</time>
      </trkpt>
      <trkpt lat="41.802480" lon="-6.143510">
        <ele>808.381</ele>
        <time>2022-02-25T01:59:57Z</time>
      </trkpt>
      <trkpt lat="41.802490" lon="-6.143520">
        <ele>808.328</ele>
        <time>2022-02-25T02:00:37Z</time>
      </trkpt>
      <trkpt lat="41.802490" lon="-6.143550">
        <ele>808.222</ele>
        <time>2022-02-25T02:01:17Z</time>
      </trkpt>
      <trkpt lat="41.802492" lon="-6.143551">
        <ele>808.278</ele>
        <time>2022-02-25T02:01:57Z</time>
      </trkpt>
      <trkpt lat="41.802510" lon="-6.143630">
        <ele>808.055</ele>
        <time>2022-02-25T02:02:37Z</time>
      </trkpt>
      <trkpt lat="41.802530" lon="-6.143770">
        <ele>807.676</ele>
        <time>2022-02-25T02:03:17Z</time>
      </trkpt>
      <trkpt lat="41.802540" lon="-6.143880">
        <ele>807.320</ele>
        <time>2022-02-25T02:03:57Z</time>
      </trkpt>
      <trkpt lat="41.802540" lon="-6.143890">
        <ele>807.345</ele>
        <time>2022-02-25T02:04:37Z</time>
      </trkpt>
      <trkpt lat="41.802550" lon="-6.144090">
        <ele>807.276</ele>
        <time>2022-02-25T02:05:17Z</time>
      </trkpt>
      <trkpt lat="41.802570" lon="-6.144180">
        <ele>807.390</ele>
        <time>2022-02-25T02:05:57Z</time>
      </trkpt>
      <trkpt lat="41.802610" lon="-6.144390">
        <ele>807.419</ele>
        <time>2022-02-25T02:06:37Z</time>
      </trkpt>
      <trkpt lat="41.802640" lon="-6.144520">
        <ele>807.508</ele>
        <time>2022-02-25T02:07:17Z</time>
      </trkpt>
      <trkpt lat="41.802710" lon="-6.144730">
        <ele>807.856</ele>
        <time>2022-02-25T02:07:57Z</time>
      </trkpt>
      <trkpt lat="41.802720" lon="-6.144780">
        <ele>808.033</ele>
        <time>2022-02-25T02:08:37Z</time>
      </trkpt>
      <trkpt lat="41.802780" lon="-6.144910">
        <ele>808.767</ele>
        <time>2022-02-25T02:09:17Z</time>
      </trkpt>
      <trkpt lat="41.802830" lon="-6.145030">
        <ele>809.843</ele>
        <time>2022-02-25T02:09:57Z</time>
      </trkpt>
      <trkpt lat="41.802850" lon="-6.145080">
        <ele>810.310</ele>
        <time>2022-02-25T02:10:37Z</time>
      </trkpt>
      <trkpt lat="41.802990" lon="-6.145310">
        <ele>812.681</ele>
        <time>2022-02-25T02:11:17Z</time>
      </trkpt>
      <trkpt lat="41.803050" lon="-6.145380">
        <ele>813.365</ele>
        <time>2022-02-25T02:11:57Z</time>
      </trkpt>
      <trkpt lat="41.803090" lon="-6.145430">
        <ele>813.720</ele>
        <time>2022-02-25T02:12:37Z</time>
      </trkpt>
      <trkpt lat="41.803160" lon="-6.145500">
        <ele>814.283</ele>
        <time>2022-02-25T02:13:17Z</time>
      </trkpt>
      <trkpt lat="41.803230" lon="-6.145580">
        <ele>814.625</ele>
        <time>2022-02-25T02:13:57Z</time>
      </trkpt>
      <trkpt lat="41.803280" lon="-6.145770">
        <ele>814.817</ele>
        <time>2022-02-25T02:14:37Z</time>
      </trkpt>
      <trkpt lat="41.803290" lon="-6.145830">
        <ele>814.808</ele>
        <time>2022-02-25T02:15:17Z</time>
      </trkpt>
      <trkpt lat="41.803310" lon="-6.145970">
        <ele>814.927</ele>
        <time>2022-02-25T02:15:57Z</time>
      </trkpt>
      <trkpt lat="41.803330" lon="-6.146070">
        <ele>815.024</ele>
        <time>2022-02-25T02:16:37Z</time>
      </trkpt>
      <trkpt lat="41.803350" lon="-6.146240">
        <ele>815.198</ele>
        <time>2022-02-25T02:17:17Z</time>
      </trkpt>
      <trkpt lat="41.803380" lon="-6.146510">
        <ele>815.594</ele>
        <time>2022-02-25T02:17:57Z</time>
      </trkpt>
      <trkpt lat="41.803390" lon="-6.146570">
        <ele>815.791</ele>
        <time>2022-02-25T02:18:37Z</time>
      </trkpt>
      <trkpt lat="41.803410" lon="-6.146630">
        <ele>815.932</ele>
        <time>2022-02-25T02:19:17Z</time>
      </trkpt>
      <trkpt lat="41.803450" lon="-6.146760">
        <ele>816.026</ele>
        <time>2022-02-25T02:19:57Z</time>
      </trkpt>
      <trkpt lat="41.803520" lon="-6.146920">
        <ele>816.031</ele>
        <time>2022-02-25T02:20:37Z</time>
      </trkpt>
      <trkpt lat="41.803530" lon="-6.146940">
        <ele>816.021</ele>
        <time>2022-02-25T02:21:17Z</time>
      </trkpt>
      <trkpt lat="41.803630" lon="-6.147150">
        <ele>815.941</ele>
        <time>2022-02-25T02:21:57Z</time>
      </trkpt>
      <trkpt lat="41.803760" lon="-6.147430">
        <ele>815.505</ele>
        <time>2022-02-25T02:22:37Z</time>
      </trkpt>
      <trkpt lat="41.803790" lon="-6.147490">
        <ele>815.408</ele>
        <time>2022-02-25T02:23:17Z</time>
      </trkpt>
      <trkpt lat="41.803990" lon="-6.147890">
        <ele>813.931</ele>
        <time>2022-02-25T02:23:57Z</time>
      </trkpt>
      <trkpt lat="41.804090" lon="-6.148090">
        <ele>812.428</ele>
        <time>2022-02-25T02:24:37Z</time>
      </trkpt>
      <trkpt lat="41.804100" lon="-6.148100">
        <ele>812.332</ele>
        <time>2022-02-25T02:25:17Z</time>
      </trkpt>
      <trkpt lat="41.804290" lon="-6.148490">
        <ele>810.088</ele>
        <time>2022-02-25T02:25:57Z</time>
      </trkpt>
      <trkpt lat="41.804360" lon="-6.148620">
        <ele>809.375</ele>
        <time>2022-02-25T02:26:37Z</time>
      </trkpt>
      <trkpt lat="41.804390" lon="-6.148690">
        <ele>809.046</ele>
        <time>2022-02-25T02:27:17Z</time>
      </trkpt>
      <trkpt lat="41.804600" lon="-6.149090">
        <ele>807.080</ele>
        <time>2022-02-25T02:27:57Z</time>
      </trkpt>
      <trkpt lat="41.804690" lon="-6.149290">
        <ele>806.585</ele>
        <time>2022-02-25T02:28:37Z</time>
      </trkpt>
      <trkpt lat="41.804910" lon="-6.149780">
        <ele>805.975</ele>
        <time>2022-02-25T02:29:17Z</time>
      </trkpt>
      <trkpt lat="41.805130" lon="-6.150340">
        <ele>804.728</ele>
        <time>2022-02-25T02:29:57Z</time>
      </trkpt>
      <trkpt lat="41.805150" lon="-6.150370">
        <ele>804.520</ele>
        <time>2022-02-25T02:30:37Z</time>
      </trkpt>
      <trkpt lat="41.805260" lon="-6.150690">
        <ele>803.008</ele>
        <time>2022-02-25T02:31:17Z</time>
      </trkpt>
      <trkpt lat="41.805280" lon="-6.150760">
        <ele>803.086</ele>
        <time>2022-02-25T02:31:57Z</time>
      </trkpt>
      <trkpt lat="41.805280" lon="-6.150780">
        <ele>803.073</ele>
        <time>2022-02-25T02:32:37Z</time>
      </trkpt>
      <trkpt lat="41.805290" lon="-6.150820">
        <ele>803.087</ele>
        <time>2022-02-25T02:33:17Z</time>
      </trkpt>
      <trkpt lat="41.805320" lon="-6.151010">
        <ele>803.223</ele>
        <time>2022-02-25T02:33:57Z</time>
      </trkpt>
      <trkpt lat="41.805330" lon="-6.151110">
        <ele>803.250</ele>
        <time>2022-02-25T02:34:37Z</time>
      </trkpt>
      <trkpt lat="41.805340" lon="-6.151250">
        <ele>803.351</ele>
        <time>2022-02-25T02:35:17Z</time>
      </trkpt>
      <trkpt lat="41.805350" lon="-6.151330">
        <ele>803.585</ele>
        <time>2022-02-25T02:35:57Z</time>
      </trkpt>
      <trkpt lat="41.805380" lon="-6.151580">
        <ele>803.040</ele>
        <time>2022-02-25T02:36:37Z</time>
      </trkpt>
      <trkpt lat="41.805510" lon="-6.152190">
        <ele>801.021</ele>
        <time>2022-02-25T02:37:17Z</time>
      </trkpt>
      <trkpt lat="41.805530" lon="-6.152290">
        <ele>800.941</ele>
        <time>2022-02-25T02:37:57Z</time>
      </trkpt>
      <trkpt lat="41.805610" lon="-6.152560">
        <ele>801.405</ele>
        <time>2022-02-25T02:38:37Z</time>
      </trkpt>
      <trkpt lat="41.805680" lon="-6.152790">
        <ele>801.908</ele>
        <time>2022-02-25T02:39:17Z</time>
      </trkpt>
      <trkpt lat="41.805770" lon="-6.153000">
        <ele>802.511</ele>
        <time>2022-02-25T02:39:57Z</time>
      </trkpt>
      <trkpt lat="41.805850" lon="-6.153200">
        <ele>802.538</ele>
        <time>2022-02-25T02:40:37Z</time>
      </trkpt>
      <trkpt lat="41.806050" lon="-6.153650">
        <ele>802.822</ele>
        <time>2022-02-25T02:41:17Z</time>
      </trkpt>
      <trkpt lat="41.806070" lon="-6.153690">
        <ele>802.958</ele>
        <time>2022-02-25T02:41:57Z</time>
      </trkpt>
      <trkpt lat="41.806160" lon="-6.153900">
        <ele>803.045</ele>
        <time>2022-02-25T02:42:37Z</time>
      </trkpt>
      <trkpt lat="41.806250" lon="-6.154110">
        <ele>803.016</ele>
        <time>2022-02-25T02:43:17Z</time>
      </trkpt>
      <trkpt lat="41.806470" lon="-6.154630">
        <ele>805.580</ele>
        <time>2022-02-25T02:43:57Z</time>
      </trkpt>
      <trkpt lat="41.806600" lon="-6.154980">
        <ele>808.285</ele>
        <time>2022-02-25T02:44:37Z</time>
      </trkpt>
      <trkpt lat="41.806770" lon="-6.155380">
        <ele>808.692</ele>
        <time>2022-02-25T02:45:17Z</time>
      </trkpt>
      <trkpt lat="41.806850" lon="-6.155590">
        <ele>808.573</ele>
        <time>2022-02-25T02:45:57Z</time>
      </trkpt>
      <trkpt lat="41.806960" lon="-6.155840">
        <ele>808.020</ele>
        <time>2022-02-25T02:46:37Z</time>
      </trkpt>
      <trkpt lat="41.807030" lon="-6.155960">
        <ele>808.008</ele>
        <time>2022-02-25T02:47:17Z</time>
      </trkpt>
      <trkpt lat="41.807090" lon="-6.156060">
        <ele>808.028</ele>
        <time>2022-02-25T02:47:57Z</time>
      </trkpt>
      <trkpt lat="41.807290" lon="-6.156350">
        <ele>808.045</ele>
        <time>2022-02-25T02:48:37Z</time>
      </trkpt>
      <trkpt lat="41.807300" lon="-6.156360">
        <ele>808.039</ele>
        <time>2022-02-25T02:49:17Z</time>
      </trkpt>
      <trkpt lat="41.807410" lon="-6.156540">
        <ele>808.935</ele>
        <time>2022-02-25T02:49:57Z</time>
      </trkpt>
      <trkpt lat="41.807490" lon="-6.156680">
        <ele>810.152</ele>
        <time>2022-02-25T02:50:37Z</time>
      </trkpt>
      <trkpt lat="41.807560" lon="-6.156790">
        <ele>811.163</ele>
        <time>2022-02-25T02:51:17Z</time>
      </trkpt>
      <trkpt lat="41.807640" lon="-6.156900">
        <ele>812.267</ele>
        <time>2022-02-25T02:51:57Z</time>
      </trkpt>
      <trkpt lat="41.807670" lon="-6.156930">
        <ele>812.562</ele>
        <time>2022-02-25T02:52:37Z</time>
      </trkpt>
      <trkpt lat="41.807800" lon="-6.157150">
        <ele>813.737</ele>
        <time>2022-02-25T02:53:17Z</time>
      </trkpt>
      <trkpt lat="41.807940" lon="-6.157430">
        <ele>814.049</ele>
        <time>2022-02-25T02:53:57Z</time>
      </trkpt>
      <trkpt lat="41.807970" lon="-6.157480">
        <ele>814.013</ele>
        <time>2022-02-25T02:54:37Z</time>
      </trkpt>
      <trkpt lat="41.808000" lon="-6.157530">
        <ele>814.008</ele>
        <time>2022-02-25T02:55:17Z</time>
      </trkpt>
      <trkpt lat="41.808040" lon="-6.157630">
        <ele>814.052</ele>
        <time>2022-02-25T02:55:57Z</time>
      </trkpt>
      <trkpt lat="41.808070" lon="-6.157680">
        <ele>814.039</ele>
        <time>2022-02-25T02:56:37Z</time>
      </trkpt>
      <trkpt lat="41.808090" lon="-6.157720">
        <ele>814.023</ele>
        <time>2022-02-25T02:57:17Z</time>
      </trkpt>
      <trkpt lat="41.808140" lon="-6.157840">
        <ele>813.769</ele>
        <time>2022-02-25T02:57:57Z</time>
      </trkpt>
      <trkpt lat="41.808160" lon="-6.157890">
        <ele>813.426</ele>
        <time>2022-02-25T02:58:37Z</time>
      </trkpt>
      <trkpt lat="41.808180" lon="-6.157960">
        <ele>813.087</ele>
        <time>2022-02-25T02:59:17Z</time>
      </trkpt>
      <trkpt lat="41.808210" lon="-6.158080">
        <ele>812.451</ele>
        <time>2022-02-25T02:59:57Z</time>
      </trkpt>
      <trkpt lat="41.808240" lon="-6.158190">
        <ele>812.216</ele>
        <time>2022-02-25T03:00:37Z</time>
      </trkpt>
      <trkpt lat="41.808270" lon="-6.158310">
        <ele>812.072</ele>
        <time>2022-02-25T03:01:17Z</time>
      </trkpt>
      <trkpt lat="41.808330" lon="-6.158570">
        <ele>811.213</ele>
        <time>2022-02-25T03:01:57Z</time>
      </trkpt>
      <trkpt lat="41.808380" lon="-6.158800">
        <ele>810.214</ele>
        <time>2022-02-25T03:02:37Z</time>
      </trkpt>
      <trkpt lat="41.808410" lon="-6.158900">
        <ele>809.708</ele>
        <time>2022-02-25T03:03:17Z</time>
      </trkpt>
      <trkpt lat="41.808480" lon="-6.159190">
        <ele>808.426</ele>
        <time>2022-02-25T03:03:57Z</time>
      </trkpt>
      <trkpt lat="41.808510" lon="-6.159330">
        <ele>808.143</ele>
        <time>2022-02-25T03:04:37Z</time>
      </trkpt>
      <trkpt lat="41.808530" lon="-6.159440">
        <ele>808.097</ele>
        <time>2022-02-25T03:05:17Z</time>
      </trkpt>
      <trkpt lat="41.808540" lon="-6.159500">
        <ele>808.033</ele>
        <time>2022-02-25T03:05:57Z</time>
      </trkpt>
      <trkpt lat="41.808550" lon="-6.159590">
        <ele>808.010</ele>
        <time>2022-02-25T03:06:37Z</time>
      </trkpt>
      <trkpt lat="41.808570" lon="-6.159730">
        <ele>808.011</ele>
        <time>2022-02-25T03:07:17Z</time>
      </trkpt>
      <trkpt lat="41.808580" lon="-6.159810">
        <ele>808.055</ele>
        <time>2022-02-25T03:07:57Z</time>
      </trkpt>
      <trkpt lat="41.808600" lon="-6.159910">
        <ele>808.060</ele>
        <time>2022-02-25T03:08:37Z</time>
      </trkpt>
      <trkpt lat="41.808600" lon="-6.159970">
        <ele>808.042</ele>
        <time>2022-02-25T03:09:17Z</time>
      </trkpt>
      <trkpt lat="41.808600" lon="-6.160000">
        <ele>808.022</ele>
        <time>2022-02-25T03:09:57Z</time>
      </trkpt>
      <trkpt lat="41.808620" lon="-6.160130">
        <ele>808.014</ele>
        <time>2022-02-25T03:10:37Z</time>
      </trkpt>
      <trkpt lat="41.808630" lon="-6.160220">
        <ele>808.008</ele>
        <time>2022-02-25T03:11:17Z</time>
      </trkpt>
      <trkpt lat="41.808630" lon="-6.160370">
        <ele>807.743</ele>
        <time>2022-02-25T03:11:57Z</time>
      </trkpt>
      <trkpt lat="41.808630" lon="-6.160480">
        <ele>807.390</ele>
        <time>2022-02-25T03:12:37Z</time>
      </trkpt>
      <trkpt lat="41.808630" lon="-6.160530">
        <ele>807.124</ele>
        <time>2022-02-25T03:13:17Z</time>
      </trkpt>
      <trkpt lat="41.808620" lon="-6.160620">
        <ele>806.840</ele>
        <time>2022-02-25T03:13:57Z</time>
      </trkpt>
      <trkpt lat="41.808620" lon="-6.160670">
        <ele>806.637</ele>
        <time>2022-02-25T03:14:37Z</time>
      </trkpt>
      <trkpt lat="41.808610" lon="-6.160870">
        <ele>805.768</ele>
        <time>2022-02-25T03:15:17Z</time>
      </trkpt>
      <trkpt lat="41.808600" lon="-6.160930">
        <ele>805.472</ele>
        <time>2022-02-25T03:15:57Z</time>
      </trkpt>
      <trkpt lat="41.808590" lon="-6.161040">
        <ele>804.697</ele>
        <time>2022-02-25T03:16:37Z</time>
      </trkpt>
      <trkpt lat="41.808580" lon="-6.161080">
        <ele>804.445</ele>
        <time>2022-02-25T03:17:17Z</time>
      </trkpt>
      <trkpt lat="41.808580" lon="-6.161120">
        <ele>804.247</ele>
        <time>2022-02-25T03:17:57Z</time>
      </trkpt>
      <trkpt lat="41.808580" lon="-6.161170">
        <ele>804.211</ele>
        <time>2022-02-25T03:18:37Z</time>
      </trkpt>
      <trkpt lat="41.808590" lon="-6.161250">
        <ele>804.108</ele>
        <time>2022-02-25T03:19:17Z</time>
      </trkpt>
      <trkpt lat="41.808590" lon="-6.161650">
        <ele>804.143</ele>
        <time>2022-02-25T03:19:57Z</time>
      </trkpt>
      <trkpt lat="41.808600" lon="-6.161780">
        <ele>804.030</ele>
        <time>2022-02-25T03:20:37Z</time>
      </trkpt>
      <trkpt lat="41.808610" lon="-6.162220">
        <ele>803.074</ele>
        <time>2022-02-25T03:21:17Z</time>
      </trkpt>
      <trkpt lat="41.808610" lon="-6.162360">
        <ele>802.550</ele>
        <time>2022-02-25T03:21:57Z</time>
      </trkpt>
      <trkpt lat="41.808610" lon="-6.162460">
        <ele>802.167</ele>
        <time>2022-02-25T03:22:37Z</time>
      </trkpt>
      <trkpt lat="41.808620" lon="-6.162700">
        <ele>802.068</ele>
        <time>2022-02-25T03:23:17Z</time>
      </trkpt>
      <trkpt lat="41.808630" lon="-6.162860">
        <ele>802.142</ele>
        <time>2022-02-25T03:23:57Z</time>
      </trkpt>
      <trkpt lat="41.808630" lon="-6.162900">
        <ele>802.117</ele>
        <time>2022-02-25T03:24:37Z</time>
      </trkpt>
      <trkpt lat="41.808640" lon="-6.163060">
        <ele>802.195</ele>
        <time>2022-02-25T03:25:17Z</time>
      </trkpt>
      <trkpt lat="41.808660" lon="-6.163180">
        <ele>801.749</ele>
        <time>2022-02-25T03:25:57Z</time>
      </trkpt>
      <trkpt lat="41.808670" lon="-6.163300">
        <ele>801.323</ele>
        <time>2022-02-25T03:26:37Z</time>
      </trkpt>
      <trkpt lat="41.808680" lon="-6.163380">
        <ele>801.208</ele>
        <time>2022-02-25T03:27:17Z</time>
      </trkpt>
      <trkpt lat="41.808690" lon="-6.163500">
        <ele>801.168</ele>
        <time>2022-02-25T03:27:57Z</time>
      </trkpt>
      <trkpt lat="41.808720" lon="-6.163700">
        <ele>800.845</ele>
        <time>2022-02-25T03:28:37Z</time>
      </trkpt>
      <trkpt lat="41.808750" lon="-6.163890">
        <ele>800.519</ele>
        <time>2022-02-25T03:29:17Z</time>
      </trkpt>
      <trkpt lat="41.808780" lon="-6.164000">
        <ele>800.215</ele>
        <time>2022-02-25T03:29:57Z</time>
      </trkpt>
      <trkpt lat="41.808800" lon="-6.164120">
        <ele>799.892</ele>
        <time>2022-02-25T03:30:37Z</time>
      </trkpt>
      <trkpt lat="41.808840" lon="-6.164250">
        <ele>799.843</ele>
        <time>2022-02-25T03:31:17Z</time>
      </trkpt>
      <trkpt lat="41.808900" lon="-6.164430">
        <ele>800.047</ele>
        <time>2022-02-25T03:31:57Z</time>
      </trkpt>
      <trkpt lat="41.808910" lon="-6.164480">
        <ele>800.092</ele>
        <time>2022-02-25T03:32:37Z</time>
      </trkpt>
      <trkpt lat="41.808940" lon="-6.164530">
        <ele>800.071</ele>
        <time>2022-02-25T03:33:17Z</time>
      </trkpt>
      <trkpt lat="41.809000" lon="-6.164660">
        <ele>800.041</ele>
        <time>2022-02-25T03:33:57Z</time>
      </trkpt>
      <trkpt lat="41.809070" lon="-6.164800">
        <ele>799.715</ele>
        <time>2022-02-25T03:34:37Z</time>
      </trkpt>
      <trkpt lat="41.809280" lon="-6.165210">
        <ele>798.608</ele>
        <time>2022-02-25T03:35:17Z</time>
      </trkpt>
      <trkpt lat="41.809410" lon="-6.165400">
        <ele>797.676</ele>
        <time>2022-02-25T03:35:57Z</time>
      </trkpt>
      <trkpt lat="41.809530" lon="-6.165620">
        <ele>796.693</ele>
        <time>2022-02-25T03:36:37Z</time>
      </trkpt>
      <trkpt lat="41.809590" lon="-6.165730">
        <ele>796.187</ele>
        <time>2022-02-25T03:37:17Z</time>
      </trkpt>
      <trkpt lat="41.809620" lon="-6.165790">
        <ele>795.813</ele>
        <time>2022-02-25T03:37:57Z</time>
      </trkpt>
      <trkpt lat="41.809640" lon="-6.165850">
        <ele>795.760</ele>
        <time>2022-02-25T03:38:37Z</time>
      </trkpt>
      <trkpt lat="41.809650" lon="-6.165910">
        <ele>795.731</ele>
        <time>2022-02-25T03:39:17Z</time>
      </trkpt>
      <trkpt lat="41.809660" lon="-6.165960">
        <ele>795.875</ele>
        <time>2022-02-25T03:39:57Z</time>
      </trkpt>
      <trkpt lat="41.809680" lon="-6.166060">
        <ele>795.890</ele>
        <time>2022-02-25T03:40:37Z</time>
      </trkpt>
      <trkpt lat="41.809700" lon="-6.166240">
        <ele>796.452</ele>
        <time>2022-02-25T03:41:17Z</time>
      </trkpt>
      <trkpt lat="41.809720" lon="-6.166380">
        <ele>797.053</ele>
        <time>2022-02-25T03:41:57Z</time>
      </trkpt>
      <trkpt lat="41.809740" lon="-6.166510">
        <ele>797.108</ele>
        <time>2022-02-25T03:42:37Z</time>
      </trkpt>
      <trkpt lat="41.809780" lon="-6.166650">
        <ele>797.208</ele>
        <time>2022-02-25T03:43:17Z</time>
      </trkpt>
      <trkpt lat="41.809820" lon="-6.166820">
        <ele>797.064</ele>
        <time>2022-02-25T03:43:57Z</time>
      </trkpt>
      <trkpt lat="41.809850" lon="-6.166950">
        <ele>796.981</ele>
        <time>2022-02-25T03:44:37Z</time>
      </trkpt>
      <trkpt lat="41.809900" lon="-6.167100">
        <ele>797.575</ele>
        <time>2022-02-25T03:45:17Z</time>
      </trkpt>
      <trkpt lat="41.809960" lon="-6.167210">
        <ele>797.911</ele>
        <time>2022-02-25T03:45:57Z</time>
      </trkpt>
      <trkpt lat="41.809970" lon="-6.167240">
        <ele>797.918</ele>
        <time>2022-02-25T03:46:37Z</time>
      </trkpt>
      <trkpt lat="41.810040" lon="-6.167380">
        <ele>797.969</ele>
        <time>2022-02-25T03:47:17Z</time>
      </trkpt>
      <trkpt lat="41.810090" lon="-6.167490">
        <ele>797.733</ele>
        <time>2022-02-25T03:47:57Z</time>
      </trkpt>
      <trkpt lat="41.810150" lon="-6.167660">
        <ele>797.898</ele>
        <time>2022-02-25T03:48:37Z</time>
      </trkpt>
      <trkpt lat="41.810250" lon="-6.167880">
        <ele>798.019</ele>
        <time>2022-02-25T03:49:17Z</time>
      </trkpt>
      <trkpt lat="41.810340" lon="-6.168080">
        <ele>797.909</ele>
        <time>2022-02-25T03:49:57Z</time>
      </trkpt>
      <trkpt lat="41.810400" lon="-6.168180">
        <ele>797.619</ele>
        <time>2022-02-25T03:50:37Z</time>
      </trkpt>
      <trkpt lat="41.810430" lon="-6.168230">
        <ele>797.408</ele>
        <time>2022-02-25T03:51:17Z</time>
      </trkpt>
      <trkpt lat="41.810460" lon="-6.168290">
        <ele>797.210</ele>
        <time>2022-02-25T03:51:57Z</time>
      </trkpt>
      <trkpt lat="41.810490" lon="-6.168360">
        <ele>797.087</ele>
        <time>2022-02-25T03:52:37Z</time>
      </trkpt>
      <trkpt lat="41.810510" lon="-6.168400">
        <ele>797.011</ele>
        <time>2022-02-25T03:53:17Z</time>
      </trkpt>
      <trkpt lat="41.810520" lon="-6.168440">
        <ele>797.057</ele>
        <time>2022-02-25T03:53:57Z</time>
      </trkpt>
      <trkpt lat="41.810530" lon="-6.168460">
        <ele>797.074</ele>
        <time>2022-02-25T03:54:37Z</time>
      </trkpt>
      <trkpt lat="41.810550" lon="-6.168520">
        <ele>797.035</ele>
        <time>2022-02-25T03:55:17Z</time>
      </trkpt>
      <trkpt lat="41.810570" lon="-6.168590">
        <ele>797.089</ele>
        <time>2022-02-25T03:55:57Z</time>
      </trkpt>
      <trkpt lat="41.810590" lon="-6.168670">
        <ele>796.994</ele>
        <time>2022-02-25T03:56:37Z</time>
      </trkpt>
      <trkpt lat="41.810600" lon="-6.168750">
        <ele>796.875</ele>
        <time>2022-02-25T03:57:17Z</time>
      </trkpt>
      <trkpt lat="41.810620" lon="-6.168830">
        <ele>796.828</ele>
        <time>2022-02-25T03:57:57Z</time>
      </trkpt>
      <trkpt lat="41.810650" lon="-6.168940">
        <ele>796.520</ele>
        <time>2022-02-25T03:58:37Z</time>
      </trkpt>
      <trkpt lat="41.810670" lon="-6.169010">
        <ele>796.308</ele>
        <time>2022-02-25T03:59:17Z</time>
      </trkpt>
      <trkpt lat="41.810680" lon="-6.169060">
        <ele>796.236</ele>
        <time>2022-02-25T03:59:57Z</time>
      </trkpt>
      <trkpt lat="41.810710" lon="-6.169180">
        <ele>796.013</ele>
        <time>2022-02-25T04:00:37Z</time>
      </trkpt>
      <trkpt lat="41.810740" lon="-6.169290">
        <ele>795.637</ele>
        <time>2022-02-25T04:01:17Z</time>
      </trkpt>
      <trkpt lat="41.810790" lon="-6.169580">
        <ele>795.043</ele>
        <time>2022-02-25T04:01:57Z</time>
      </trkpt>
      <trkpt lat="41.810800" lon="-6.169590">
        <ele>795.010</ele>
        <time>2022-02-25T04:02:37Z</time>
      </trkpt>
      <trkpt lat="41.810810" lon="-6.169720">
        <ele>795.011</ele>
        <time>2022-02-25T04:03:17Z</time>
      </trkpt>
      <trkpt lat="41.810810" lon="-6.169770">
        <ele>795.285</ele>
        <time>2022-02-25T04:03:57Z</time>
      </trkpt>
      <trkpt lat="41.810810" lon="-6.169820">
        <ele>795.450</ele>
        <time>2022-02-25T04:04:37Z</time>
      </trkpt>
      <trkpt lat="41.810820" lon="-6.169830">
        <ele>795.448</ele>
        <time>2022-02-25T04:05:17Z</time>
      </trkpt>
      <trkpt lat="41.810820" lon="-6.169890">
        <ele>795.661</ele>
        <time>2022-02-25T04:05:57Z</time>
      </trkpt>
      <trkpt lat="41.810820" lon="-6.169950">
        <ele>795.817</ele>
        <time>2022-02-25T04:06:37Z</time>
      </trkpt>
      <trkpt lat="41.810820" lon="-6.170010">
        <ele>796.008</ele>
        <time>2022-02-25T04:07:17Z</time>
      </trkpt>
      <trkpt lat="41.810830" lon="-6.170060">
        <ele>796.033</ele>
        <time>2022-02-25T04:07:57Z</time>
      </trkpt>
      <trkpt lat="41.810840" lon="-6.170120">
        <ele>796.070</ele>
        <time>2022-02-25T04:08:37Z</time>
      </trkpt>
      <trkpt lat="41.810850" lon="-6.170190">
        <ele>796.094</ele>
        <time>2022-02-25T04:09:17Z</time>
      </trkpt>
      <trkpt lat="41.810870" lon="-6.170240">
        <ele>796.190</ele>
        <time>2022-02-25T04:09:57Z</time>
      </trkpt>
      <trkpt lat="41.810880" lon="-6.170290">
        <ele>796.217</ele>
        <time>2022-02-25T04:10:37Z</time>
      </trkpt>
      <trkpt lat="41.810890" lon="-6.170320">
        <ele>796.298</ele>
        <time>2022-02-25T04:11:17Z</time>
      </trkpt>
      <trkpt lat="41.810920" lon="-6.170390">
        <ele>796.372</ele>
        <time>2022-02-25T04:11:57Z</time>
      </trkpt>
      <trkpt lat="41.810960" lon="-6.170460">
        <ele>796.597</ele>
        <time>2022-02-25T04:12:37Z</time>
      </trkpt>
      <trkpt lat="41.810990" lon="-6.170510">
        <ele>796.655</ele>
        <time>2022-02-25T04:13:17Z</time>
      </trkpt>
      <trkpt lat="41.811030" lon="-6.170570">
        <ele>796.707</ele>
        <time>2022-02-25T04:13:57Z</time>
      </trkpt>
      <trkpt lat="41.811080" lon="-6.170630">
        <ele>796.917</ele>
        <time>2022-02-25T04:14:37Z</time>
      </trkpt>
      <trkpt lat="41.811140" lon="-6.170700">
        <ele>797.008</ele>
        <time>2022-02-25T04:15:17Z</time>
      </trkpt>
      <trkpt lat="41.811280" lon="-6.170860">
        <ele>797.074</ele>
        <time>2022-02-25T04:15:57Z</time>
      </trkpt>
      <trkpt lat="41.811560" lon="-6.171180">
        <ele>797.441</ele>
        <time>2022-02-25T04:16:37Z</time>
      </trkpt>
      <trkpt lat="41.811660" lon="-6.171290">
        <ele>797.395</ele>
        <time>2022-02-25T04:17:17Z</time>
      </trkpt>
      <trkpt lat="41.811800" lon="-6.171440">
        <ele>797.081</ele>
        <time>2022-02-25T04:17:57Z</time>
      </trkpt>
      <trkpt lat="41.811920" lon="-6.171570">
        <ele>797.078</ele>
        <time>2022-02-25T04:18:37Z</time>
      </trkpt>
      <trkpt lat="41.812080" lon="-6.171730">
        <ele>797.359</ele>
        <time>2022-02-25T04:19:17Z</time>
      </trkpt>
      <trkpt lat="41.812160" lon="-6.171800">
        <ele>797.353</ele>
        <time>2022-02-25T04:19:57Z</time>
      </trkpt>
      <trkpt lat="41.812220" lon="-6.171850">
        <ele>797.378</ele>
        <time>2022-02-25T04:20:37Z</time>
      </trkpt>
      <trkpt lat="41.812670" lon="-6.172250">
        <ele>796.315</ele>
        <time>2022-02-25T04:21:17Z</time>
      </trkpt>
      <trkpt lat="41.812830" lon="-6.172380">
        <ele>795.565</ele>
        <time>2022-02-25T04:21:57Z</time>
      </trkpt>
      <trkpt lat="41.813170" lon="-6.172640">
        <ele>795.911</ele>
        <time>2022-02-25T04:22:37Z</time>
      </trkpt>
      <trkpt lat="41.813210" lon="-6.172670">
        <ele>795.908</ele>
        <time>2022-02-25T04:23:17Z</time>
      </trkpt>
      <trkpt lat="41.813206" lon="-6.172674">
        <ele>795.920</ele>
        <time>2022-02-25T04:23:57Z</time>
      </trkpt>
      <trkpt lat="41.813270" lon="-6.172730">
        <ele>795.987</ele>
        <time>2022-02-25T04:24:37Z</time>
      </trkpt>
      <trkpt lat="41.813290" lon="-6.172760">
        <ele>795.941</ele>
        <time>2022-02-25T04:25:17Z</time>
      </trkpt>
      <trkpt lat="41.813310" lon="-6.172800">
        <ele>796.037</ele>
        <time>2022-02-25T04:25:57Z</time>
      </trkpt>
      <trkpt lat="41.813320" lon="-6.172800">
        <ele>796.064</ele>
        <time>2022-02-25T04:26:37Z</time>
      </trkpt>
      <trkpt lat="41.813330" lon="-6.172820">
        <ele>796.165</ele>
        <time>2022-02-25T04:27:17Z</time>
      </trkpt>
      <trkpt lat="41.813340" lon="-6.172860">
        <ele>796.389</ele>
        <time>2022-02-25T04:27:57Z</time>
      </trkpt>
      <trkpt lat="41.813360" lon="-6.172900">
        <ele>796.564</ele>
        <time>2022-02-25T04:28:37Z</time>
      </trkpt>
      <trkpt lat="41.813370" lon="-6.172940">
        <ele>796.789</ele>
        <time>2022-02-25T04:29:17Z</time>
      </trkpt>
      <trkpt lat="41.813390" lon="-6.172990">
        <ele>797.006</ele>
        <time>2022-02-25T04:29:57Z</time>
      </trkpt>
      <trkpt lat="41.813420" lon="-6.173060">
        <ele>797.326</ele>
        <time>2022-02-25T04:30:37Z</time>
      </trkpt>
      <trkpt lat="41.813440" lon="-6.173100">
        <ele>797.208</ele>
        <time>2022-02-25T04:31:17Z</time>
      </trkpt>
      <trkpt lat="41.813450" lon="-6.173120">
        <ele>797.257</ele>
        <time>2022-02-25T04:31:57Z</time>
      </trkpt>
      <trkpt lat="41.813490" lon="-6.173220">
        <ele>797.034</ele>
        <time>2022-02-25T04:32:37Z</time>
      </trkpt>
      <trkpt lat="41.813530" lon="-6.173310">
        <ele>796.878</ele>
        <time>2022-02-25T04:33:17Z</time>
      </trkpt>
      <trkpt lat="41.813570" lon="-6.173420">
        <ele>796.914</ele>
        <time>2022-02-25T04:33:57Z</time>
      </trkpt>
      <trkpt lat="41.813640" lon="-6.173580">
        <ele>797.011</ele>
        <time>2022-02-25T04:34:37Z</time>
      </trkpt>
      <trkpt lat="41.813640" lon="-6.173590">
        <ele>797.062</ele>
        <time>2022-02-25T04:35:17Z</time>
      </trkpt>
      <trkpt lat="41.813810" lon="-6.173910">
        <ele>796.036</ele>
        <time>2022-02-25T04:35:57Z</time>
      </trkpt>
      <trkpt lat="41.813840" lon="-6.173960">
        <ele>796.091</ele>
        <time>2022-02-25T04:36:37Z</time>
      </trkpt>
      <trkpt lat="41.813870" lon="-6.174020">
        <ele>796.032</ele>
        <time>2022-02-25T04:37:17Z</time>
      </trkpt>
      <trkpt lat="41.813910" lon="-6.174100">
        <ele>795.992</ele>
        <time>2022-02-25T04:37:57Z</time>
      </trkpt>
      <trkpt lat="41.814030" lon="-6.174250">
        <ele>795.611</ele>
        <time>2022-02-25T04:38:37Z</time>
      </trkpt>
      <trkpt lat="41.814120" lon="-6.174360">
        <ele>795.708</ele>
        <time>2022-02-25T04:39:17Z</time>
      </trkpt>
      <trkpt lat="41.814220" lon="-6.174460">
        <ele>795.852</ele>
        <time>2022-02-25T04:39:57Z</time>
      </trkpt>
      <trkpt lat="41.814330" lon="-6.174580">
        <ele>795.279</ele>
        <time>2022-02-25T04:40:37Z</time>
      </trkpt>
      <trkpt lat="41.814360" lon="-6.174610">
        <ele>795.123</ele>
        <time>2022-02-25T04:41:17Z</time>
      </trkpt>
      <trkpt lat="41.814650" lon="-6.174890">
        <ele>795.419</ele>
        <time>2022-02-25T04:41:57Z</time>
      </trkpt>
      <trkpt lat="41.814790" lon="-6.175040">
        <ele>795.146</ele>
        <time>2022-02-25T04:42:37Z</time>
      </trkpt>
      <trkpt lat="41.814800" lon="-6.175040">
        <ele>795.177</ele>
        <time>2022-02-25T04:43:17Z</time>
      </trkpt>
      <trkpt lat="41.814930" lon="-6.175200">
        <ele>795.031</ele>
        <time>2022-02-25T04:43:57Z</time>
      </trkpt>
      <trkpt lat="41.814970" lon="-6.175230">
        <ele>795.166</ele>
        <time>2022-02-25T04:44:37Z</time>
      </trkpt>
      <trkpt lat="41.815140" lon="-6.175460">
        <ele>794.754</ele>
        <time>2022-02-25T04:45:17Z</time>
      </trkpt>
      <trkpt lat="41.815141" lon="-6.175458">
        <ele>794.756</ele>
        <time>2022-02-25T04:45:57Z</time>
      </trkpt>
      <trkpt lat="41.815120" lon="-6.175680">
        <ele>794.911</ele>
        <time>2022-02-25T04:46:37Z</time>
      </trkpt>
      <trkpt lat="41.815090" lon="-6.176160">
        <ele>795.308</ele>
        <time>2022-02-25T04:47:17Z</time>
      </trkpt>
      <trkpt lat="41.815080" lon="-6.176300">
        <ele>795.364</ele>
        <time>2022-02-25T04:47:57Z</time>
      </trkpt>
      <trkpt lat="41.815050" lon="-6.176640">
        <ele>794.131</ele>
        <time>2022-02-25T04:48:37Z</time>
      </trkpt>
      <trkpt lat="41.815030" lon="-6.176880">
        <ele>792.525</ele>
        <time>2022-02-25T04:49:17Z</time>
      </trkpt>
      <trkpt lat="41.815020" lon="-6.176970">
        <ele>791.931</ele>
        <time>2022-02-25T04:49:57Z</time>
      </trkpt>
      <trkpt lat="41.814980" lon="-6.177540">
        <ele>790.878</ele>
        <time>2022-02-25T04:50:37Z</time>
      </trkpt>
      <trkpt lat="41.814970" lon="-6.177720">
        <ele>790.739</ele>
        <time>2022-02-25T04:51:17Z</time>
      </trkpt>
      <trkpt lat="41.814950" lon="-6.177960">
        <ele>790.083</ele>
        <time>2022-02-25T04:51:57Z</time>
      </trkpt>
      <trkpt lat="41.814930" lon="-6.178270">
        <ele>788.818</ele>
        <time>2022-02-25T04:52:37Z</time>
      </trkpt>
      <trkpt lat="41.814920" lon="-6.178370">
        <ele>788.236</ele>
        <time>2022-02-25T04:53:17Z</time>
      </trkpt>
      <trkpt lat="41.814920" lon="-6.178620">
        <ele>787.017</ele>
        <time>2022-02-25T04:53:57Z</time>
      </trkpt>
      <trkpt lat="41.814930" lon="-6.178690">
        <ele>787.218</ele>
        <time>2022-02-25T04:54:37Z</time>
      </trkpt>
      <trkpt lat="41.814940" lon="-6.178770">
        <ele>787.408</ele>
        <time>2022-02-25T04:55:17Z</time>
      </trkpt>
      <trkpt lat="41.814970" lon="-6.178840">
        <ele>787.792</ele>
        <time>2022-02-25T04:55:57Z</time>
      </trkpt>
      <trkpt lat="41.814990" lon="-6.178920">
        <ele>788.129</ele>
        <time>2022-02-25T04:56:37Z</time>
      </trkpt>
      <trkpt lat="41.815020" lon="-6.179000">
        <ele>788.443</ele>
        <time>2022-02-25T04:57:17Z</time>
      </trkpt>
      <trkpt lat="41.815050" lon="-6.179060">
        <ele>788.669</ele>
        <time>2022-02-25T04:57:57Z</time>
      </trkpt>
      <trkpt lat="41.815150" lon="-6.179270">
        <ele>789.466</ele>
        <time>2022-02-25T04:58:37Z</time>
      </trkpt>
      <trkpt lat="41.815290" lon="-6.179580">
        <ele>791.017</ele>
        <time>2022-02-25T04:59:17Z</time>
      </trkpt>
      <trkpt lat="41.815340" lon="-6.179680">
        <ele>791.281</ele>
        <time>2022-02-25T04:59:57Z</time>
      </trkpt>
      <trkpt lat="41.815410" lon="-6.179820">
        <ele>791.846</ele>
        <time>2022-02-25T05:00:37Z</time>
      </trkpt>
      <trkpt lat="41.815500" lon="-6.179990">
        <ele>792.873</ele>
        <time>2022-02-25T05:01:17Z</time>
      </trkpt>
      <trkpt lat="41.815540" lon="-6.180070">
        <ele>793.985</ele>
        <time>2022-02-25T05:01:57Z</time>
      </trkpt>
      <trkpt lat="41.815560" lon="-6.180100">
        <ele>794.413</ele>
        <time>2022-02-25T05:02:37Z</time>
      </trkpt>
      <trkpt lat="41.815610" lon="-6.180170">
        <ele>795.308</ele>
        <time>2022-02-25T05:03:17Z</time>
      </trkpt>
      <trkpt lat="41.815640" lon="-6.180210">
        <ele>795.846</ele>
        <time>2022-02-25T05:03:57Z</time>
      </trkpt>
      <trkpt lat="41.815670" lon="-6.180240">
        <ele>796.153</ele>
        <time>2022-02-25T05:04:37Z</time>
      </trkpt>
      <trkpt lat="41.815720" lon="-6.180280">
        <ele>796.457</ele>
        <time>2022-02-25T05:05:17Z</time>
      </trkpt>
      <trkpt lat="41.815760" lon="-6.180310">
        <ele>796.663</ele>
        <time>2022-02-25T05:05:57Z</time>
      </trkpt>
      <trkpt lat="41.815790" lon="-6.180330">
        <ele>796.770</ele>
        <time>2022-02-25T05:06:37Z</time>
      </trkpt>
      <trkpt lat="41.815840" lon="-6.180350">
        <ele>796.871</ele>
        <time>2022-02-25T05:07:17Z</time>
      </trkpt>
      <trkpt lat="41.815880" lon="-6.180370">
        <ele>797.145</ele>
        <time>2022-02-25T05:07:57Z</time>
      </trkpt>
      <trkpt lat="41.815930" lon="-6.180380">
        <ele>797.220</ele>
        <time>2022-02-25T05:08:37Z</time>
      </trkpt>
      <trkpt lat="41.815980" lon="-6.180400">
        <ele>797.665</ele>
        <time>2022-02-25T05:09:17Z</time>
      </trkpt>
      <trkpt lat="41.816130" lon="-6.180430">
        <ele>798.368</ele>
        <time>2022-02-25T05:09:57Z</time>
      </trkpt>
      <trkpt lat="41.816240" lon="-6.180460">
        <ele>799.114</ele>
        <time>2022-02-25T05:10:37Z</time>
      </trkpt>
      <trkpt lat="41.816380" lon="-6.180500">
        <ele>800.208</ele>
        <time>2022-02-25T05:11:17Z</time>
      </trkpt>
      <trkpt lat="41.816610" lon="-6.180560">
        <ele>801.875</ele>
        <time>2022-02-25T05:11:57Z</time>
      </trkpt>
      <trkpt lat="41.816740" lon="-6.180590">
        <ele>802.692</ele>
        <time>2022-02-25T05:12:37Z</time>
      </trkpt>
      <trkpt lat="41.816850" lon="-6.180630">
        <ele>803.566</ele>
        <time>2022-02-25T05:13:17Z</time>
      </trkpt>
      <trkpt lat="41.816910" lon="-6.180640">
        <ele>803.892</ele>
        <time>2022-02-25T05:13:57Z</time>
      </trkpt>
      <trkpt lat="41.817100" lon="-6.180700">
        <ele>805.419</ele>
        <time>2022-02-25T05:14:37Z</time>
      </trkpt>
      <trkpt lat="41.817220" lon="-6.180730">
        <ele>806.590</ele>
        <time>2022-02-25T05:15:17Z</time>
      </trkpt>
      <trkpt lat="41.817250" lon="-6.180740">
        <ele>806.724</ele>
        <time>2022-02-25T05:15:57Z</time>
      </trkpt>
      <trkpt lat="41.817270" lon="-6.180740">
        <ele>806.819</ele>
        <time>2022-02-25T05:16:37Z</time>
      </trkpt>
      <trkpt lat="41.817380" lon="-6.180760">
        <ele>807.464</ele>
        <time>2022-02-25T05:17:17Z</time>
      </trkpt>
      <trkpt lat="41.817490" lon="-6.180770">
        <ele>807.806</ele>
        <time>2022-02-25T05:17:57Z</time>
      </trkpt>
      <trkpt lat="41.817570" lon="-6.180770">
        <ele>808.616</ele>
        <time>2022-02-25T05:18:37Z</time>
      </trkpt>
      <trkpt lat="41.817690" lon="-6.180770">
        <ele>809.808</ele>
        <time>2022-02-25T05:19:17Z</time>
      </trkpt>
      <trkpt lat="41.818040" lon="-6.180720">
        <ele>812.985</ele>
        <time>2022-02-25T05:19:57Z</time>
      </trkpt>
      <trkpt lat="41.818220" lon="-6.180700">
        <ele>812.632</ele>
        <time>2022-02-25T05:20:37Z</time>
      </trkpt>
      <trkpt lat="41.818240" lon="-6.180700">
        <ele>812.676</ele>
        <time>2022-02-25T05:21:17Z</time>
      </trkpt>
      <trkpt lat="41.818400" lon="-6.180680">
        <ele>812.182</ele>
        <time>2022-02-25T05:21:57Z</time>
      </trkpt>
      <trkpt lat="41.818510" lon="-6.180670">
        <ele>811.789</ele>
        <time>2022-02-25T05:22:37Z</time>
      </trkpt>
      <trkpt lat="41.818580" lon="-6.180660">
        <ele>811.530</ele>
        <time>2022-02-25T05:23:17Z</time>
      </trkpt>
      <trkpt lat="41.818600" lon="-6.180660">
        <ele>811.544</ele>
        <time>2022-02-25T05:23:57Z</time>
      </trkpt>
      <trkpt lat="41.818690" lon="-6.180640">
        <ele>810.829</ele>
        <time>2022-02-25T05:24:37Z</time>
      </trkpt>
      <trkpt lat="41.818780" lon="-6.180620">
        <ele>810.287</ele>
        <time>2022-02-25T05:25:17Z</time>
      </trkpt>
      <trkpt lat="41.818820" lon="-6.180600">
        <ele>809.842</ele>
        <time>2022-02-25T05:25:57Z</time>
      </trkpt>
      <trkpt lat="41.818860" lon="-6.180580">
        <ele>809.426</ele>
        <time>2022-02-25T05:26:37Z</time>
      </trkpt>
      <trkpt lat="41.818910" lon="-6.180550">
        <ele>809.208</ele>
        <time>2022-02-25T05:27:17Z</time>
      </trkpt>
      <trkpt lat="41.818930" lon="-6.180540">
        <ele>809.397</ele>
        <time>2022-02-25T05:27:57Z</time>
      </trkpt>
      <trkpt lat="41.818960" lon="-6.180520">
        <ele>809.414</ele>
        <time>2022-02-25T05:28:37Z</time>
      </trkpt>
      <trkpt lat="41.819000" lon="-6.180480">
        <ele>809.548</ele>
        <time>2022-02-25T05:29:17Z</time>
      </trkpt>
      <trkpt lat="41.819060" lon="-6.180430">
        <ele>809.834</ele>
        <time>2022-02-25T05:29:57Z</time>
      </trkpt>
      <trkpt lat="41.819080" lon="-6.180410">
        <ele>809.951</ele>
        <time>2022-02-25T05:30:37Z</time>
      </trkpt>
      <trkpt lat="41.819130" lon="-6.180360">
        <ele>810.162</ele>
        <time>2022-02-25T05:31:17Z</time>
      </trkpt>
      <trkpt lat="41.819170" lon="-6.180320">
        <ele>810.356</ele>
        <time>2022-02-25T05:31:57Z</time>
      </trkpt>
      <trkpt lat="41.819220" lon="-6.180260">
        <ele>810.491</ele>
        <time>2022-02-25T05:32:37Z</time>
      </trkpt>
      <trkpt lat="41.819230" lon="-6.180250">
        <ele>810.578</ele>
        <time>2022-02-25T05:33:17Z</time>
      </trkpt>
      <trkpt lat="41.819370" lon="-6.180130">
        <ele>811.133</ele>
        <time>2022-02-25T05:33:57Z</time>
      </trkpt>
      <trkpt lat="41.819380" lon="-6.180120">
        <ele>811.226</ele>
        <time>2022-02-25T05:34:37Z</time>
      </trkpt>
      <trkpt lat="41.819470" lon="-6.180060">
        <ele>811.708</ele>
        <time>2022-02-25T05:35:17Z</time>
      </trkpt>
      <trkpt lat="41.819550" lon="-6.180010">
        <ele>811.916</ele>
        <time>2022-02-25T05:35:57Z</time>
      </trkpt>
      <trkpt lat="41.819630" lon="-6.179970">
        <ele>812.153</ele>
        <time>2022-02-25T05:36:37Z</time>
      </trkpt>
      <trkpt lat="41.819700" lon="-6.179940">
        <ele>812.457</ele>
        <time>2022-02-25T05:37:17Z</time>
      </trkpt>
      <trkpt lat="41.819720" lon="-6.179930">
        <ele>812.593</ele>
        <time>2022-02-25T05:37:57Z</time>
      </trkpt>
      <trkpt lat="41.819810" lon="-6.179900">
        <ele>813.280</ele>
        <time>2022-02-25T05:38:37Z</time>
      </trkpt>
      <trkpt lat="41.819890" lon="-6.179860">
        <ele>813.851</ele>
        <time>2022-02-25T05:39:17Z</time>
      </trkpt>
      <trkpt lat="41.819980" lon="-6.179840">
        <ele>814.655</ele>
        <time>2022-02-25T05:39:57Z</time>
      </trkpt>
      <trkpt lat="41.820070" lon="-6.179820">
        <ele>814.930</ele>
        <time>2022-02-25T05:40:37Z</time>
      </trkpt>
      <trkpt lat="41.820160" lon="-6.179820">
        <ele>815.182</ele>
        <time>2022-02-25T05:41:17Z</time>
      </trkpt>
      <trkpt lat="41.820180" lon="-6.179820">
        <ele>815.243</ele>
        <time>2022-02-25T05:41:57Z</time>
      </trkpt>
      <trkpt lat="41.820250" lon="-6.179840">
        <ele>815.617</ele>
        <time>2022-02-25T05:42:37Z</time>
      </trkpt>
      <trkpt lat="41.820300" lon="-6.179850">
        <ele>815.808</ele>
        <time>2022-02-25T05:43:17Z</time>
      </trkpt>
      <trkpt lat="41.820340" lon="-6.179870">
        <ele>816.097</ele>
        <time>2022-02-25T05:43:57Z</time>
      </trkpt>
      <trkpt lat="41.820370" lon="-6.179900">
        <ele>816.474</ele>
        <time>2022-02-25T05:44:37Z</time>
      </trkpt>
      <trkpt lat="41.820400" lon="-6.179940">
        <ele>817.078</ele>
        <time>2022-02-25T05:45:17Z</time>
      </trkpt>
      <trkpt lat="41.820470" lon="-6.180020">
        <ele>818.264</ele>
        <time>2022-02-25T05:45:57Z</time>
      </trkpt>
      <trkpt lat="41.820590" lon="-6.180210">
        <ele>819.991</ele>
        <time>2022-02-25T05:46:37Z</time>
      </trkpt>
      <trkpt lat="41.820640" lon="-6.180290">
        <ele>820.272</ele>
        <time>2022-02-25T05:47:17Z</time>
      </trkpt>
      <trkpt lat="41.820900" lon="-6.180740">
        <ele>824.986</ele>
        <time>2022-02-25T05:47:57Z</time>
      </trkpt>
      <trkpt lat="41.820900" lon="-6.180750">
        <ele>825.141</ele>
        <time>2022-02-25T05:48:37Z</time>
      </trkpt>
      <trkpt lat="41.821000" lon="-6.180940">
        <ele>826.286</ele>
        <time>2022-02-25T05:49:17Z</time>
      </trkpt>
      <trkpt lat="41.821140" lon="-6.181180">
        <ele>827.160</ele>
        <time>2022-02-25T05:49:57Z</time>
      </trkpt>
      <trkpt lat="41.821190" lon="-6.181280">
        <ele>827.426</ele>
        <time>2022-02-25T05:50:37Z</time>
      </trkpt>
      <trkpt lat="41.821220" lon="-6.181320">
        <ele>827.508</ele>
        <time>2022-02-25T05:51:17Z</time>
      </trkpt>
      <trkpt lat="41.821280" lon="-6.181420">
        <ele>828.067</ele>
        <time>2022-02-25T05:51:57Z</time>
      </trkpt>
      <trkpt lat="41.821330" lon="-6.181510">
        <ele>828.294</ele>
        <time>2022-02-25T05:52:37Z</time>
      </trkpt>
      <trkpt lat="41.821370" lon="-6.181560">
        <ele>828.348</ele>
        <time>2022-02-25T05:53:17Z</time>
      </trkpt>
      <trkpt lat="41.821420" lon="-6.181650">
        <ele>828.984</ele>
        <time>2022-02-25T05:53:57Z</time>
      </trkpt>
      <trkpt lat="41.821490" lon="-6.181740">
        <ele>829.431</ele>
        <time>2022-02-25T05:54:37Z</time>
      </trkpt>
      <trkpt lat="41.821560" lon="-6.181820">
        <ele>829.892</ele>
        <time>2022-02-25T05:55:17Z</time>
      </trkpt>
      <trkpt lat="41.821600" lon="-6.181870">
        <ele>829.966</ele>
        <time>2022-02-25T05:55:57Z</time>
      </trkpt>
      <trkpt lat="41.821640" lon="-6.181900">
        <ele>829.951</ele>
        <time>2022-02-25T05:56:37Z</time>
      </trkpt>
      <trkpt lat="41.821680" lon="-6.181930">
        <ele>830.024</ele>
        <time>2022-02-25T05:57:17Z</time>
      </trkpt>
      <trkpt lat="41.821720" lon="-6.181960">
        <ele>830.504</ele>
        <time>2022-02-25T05:57:57Z</time>
      </trkpt>
      <trkpt lat="41.821740" lon="-6.181970">
        <ele>830.714</ele>
        <time>2022-02-25T05:58:37Z</time>
      </trkpt>
      <trkpt lat="41.821810" lon="-6.182000">
        <ele>831.408</ele>
        <time>2022-02-25T05:59:17Z</time>
      </trkpt>
      <trkpt lat="41.821890" lon="-6.182030">
        <ele>832.281</ele>
        <time>2022-02-25T05:59:57Z</time>
      </trkpt>
      <trkpt lat="41.822000" lon="-6.182060">
        <ele>833.358</ele>
        <time>2022-02-25T06:00:37Z</time>
      </trkpt>
      <trkpt lat="41.822280" lon="-6.182140">
        <ele>836.012</ele>
        <time>2022-02-25T06:01:17Z</time>
      </trkpt>
      <trkpt lat="41.822280" lon="-6.182150">
        <ele>836.048</ele>
        <time>2022-02-25T06:01:57Z</time>
      </trkpt>
      <trkpt lat="41.822630" lon="-6.182250">
        <ele>837.535</ele>
        <time>2022-02-25T06:02:37Z</time>
      </trkpt>
      <trkpt lat="41.822750" lon="-6.182280">
        <ele>837.976</ele>
        <time>2022-02-25T06:03:17Z</time>
      </trkpt>
      <trkpt lat="41.822980" lon="-6.182360">
        <ele>838.070</ele>
        <time>2022-02-25T06:03:57Z</time>
      </trkpt>
      <trkpt lat="41.823160" lon="-6.182420">
        <ele>838.055</ele>
        <time>2022-02-25T06:04:37Z</time>
      </trkpt>
      <trkpt lat="41.824030" lon="-6.182700">
        <ele>839.934</ele>
        <time>2022-02-25T06:05:17Z</time>
      </trkpt>
      <trkpt lat="41.824410" lon="-6.182820">
        <ele>840.155</ele>
        <time>2022-02-25T06:05:57Z</time>
      </trkpt>
      <trkpt lat="41.824420" lon="-6.182820">
        <ele>840.110</ele>
        <time>2022-02-25T06:06:37Z</time>
      </trkpt>
      <trkpt lat="41.824560" lon="-6.182860">
        <ele>841.008</ele>
        <time>2022-02-25T06:07:17Z</time>
      </trkpt>
      <trkpt lat="41.824810" lon="-6.182930">
        <ele>842.232</ele>
        <time>2022-02-25T06:07:57Z</time>
      </trkpt>
      <trkpt lat="41.825270" lon="-6.183080">
        <ele>842.039</ele>
        <time>2022-02-25T06:08:37Z</time>
      </trkpt>
      <trkpt lat="41.825550" lon="-6.183170">
        <ele>842.053</ele>
        <time>2022-02-25T06:09:17Z</time>
      </trkpt>
      <trkpt lat="41.825900" lon="-6.183290">
        <ele>843.679</ele>
        <time>2022-02-25T06:09:57Z</time>
      </trkpt>
      <trkpt lat="41.826070" lon="-6.183340">
        <ele>844.746</ele>
        <time>2022-02-25T06:10:37Z</time>
      </trkpt>
      <trkpt lat="41.826140" lon="-6.183360">
        <ele>844.917</ele>
        <time>2022-02-25T06:11:17Z</time>
      </trkpt>
      <trkpt lat="41.826320" lon="-6.183420">
        <ele>844.771</ele>
        <time>2022-02-25T06:11:57Z</time>
      </trkpt>
      <trkpt lat="41.827190" lon="-6.183700">
        <ele>846.246</ele>
        <time>2022-02-25T06:12:37Z</time>
      </trkpt>
      <trkpt lat="41.827770" lon="-6.183880">
        <ele>847.026</ele>
        <time>2022-02-25T06:13:17Z</time>
      </trkpt>
      <trkpt lat="41.827890" lon="-6.183920">
        <ele>846.947</ele>
        <time>2022-02-25T06:13:57Z</time>
      </trkpt>
      <trkpt lat="41.828060" lon="-6.183980">
        <ele>847.011</ele>
        <time>2022-02-25T06:14:37Z</time>
      </trkpt>
      <trkpt lat="41.828760" lon="-6.184200">
        <ele>848.008</ele>
        <time>2022-02-25T06:15:17Z</time>
      </trkpt>
      <trkpt lat="41.828970" lon="-6.184270">
        <ele>847.911</ele>
        <time>2022-02-25T06:15:57Z</time>
      </trkpt>
      <trkpt lat="41.829990" lon="-6.184580">
        <ele>847.018</ele>
        <time>2022-02-25T06:16:37Z</time>
      </trkpt>
      <trkpt lat="41.830170" lon="-6.184630">
        <ele>846.582</ele>
        <time>2022-02-25T06:17:17Z</time>
      </trkpt>
      <trkpt lat="41.830190" lon="-6.184640">
        <ele>846.498</ele>
        <time>2022-02-25T06:17:57Z</time>
      </trkpt>
      <trkpt lat="41.830340" lon="-6.184690">
        <ele>846.345</ele>
        <time>2022-02-25T06:18:37Z</time>
      </trkpt>
      <trkpt lat="41.830520" lon="-6.184740">
        <ele>846.946</ele>
        <time>2022-02-25T06:19:17Z</time>
      </trkpt>
      <trkpt lat="41.831040" lon="-6.184910">
        <ele>847.370</ele>
        <time>2022-02-25T06:19:57Z</time>
      </trkpt>
      <trkpt lat="41.831110" lon="-6.184930">
        <ele>847.065</ele>
        <time>2022-02-25T06:20:37Z</time>
      </trkpt>
      <trkpt lat="41.831270" lon="-6.185000">
        <ele>846.464</ele>
        <time>2022-02-25T06:21:17Z</time>
      </trkpt>
      <trkpt lat="41.831390" lon="-6.185040">
        <ele>846.006</ele>
        <time>2022-02-25T06:21:57Z</time>
      </trkpt>
      <trkpt lat="41.831420" lon="-6.185050">
        <ele>846.016</ele>
        <time>2022-02-25T06:22:37Z</time>
      </trkpt>
      <trkpt lat="41.831520" lon="-6.185080">
        <ele>846.008</ele>
        <time>2022-02-25T06:23:17Z</time>
      </trkpt>
      <trkpt lat="41.831560" lon="-6.185100">
        <ele>846.075</ele>
        <time>2022-02-25T06:23:57Z</time>
      </trkpt>
      <trkpt lat="41.831730" lon="-6.185150">
        <ele>846.042</ele>
        <time>2022-02-25T06:24:37Z</time>
      </trkpt>
      <trkpt lat="41.831900" lon="-6.185200">
        <ele>846.086</ele>
        <time>2022-02-25T06:25:17Z</time>
      </trkpt>
      <trkpt lat="41.832030" lon="-6.185250">
        <ele>846.682</ele>
        <time>2022-02-25T06:25:57Z</time>
      </trkpt>
      <trkpt lat="41.832850" lon="-6.185520">
        <ele>850.249</ele>
        <time>2022-02-25T06:26:37Z</time>
      </trkpt>
      <trkpt lat="41.833250" lon="-6.185650">
        <ele>851.880</ele>
        <time>2022-02-25T06:27:17Z</time>
      </trkpt>
      <trkpt lat="41.833550" lon="-6.185740">
        <ele>852.054</ele>
        <time>2022-02-25T06:27:57Z</time>
      </trkpt>
      <trkpt lat="41.833730" lon="-6.185800">
        <ele>852.489</ele>
        <time>2022-02-25T06:28:37Z</time>
      </trkpt>
      <trkpt lat="41.833870" lon="-6.185840">
        <ele>852.946</ele>
        <time>2022-02-25T06:29:17Z</time>
      </trkpt>
      <trkpt lat="41.833900" lon="-6.185850">
        <ele>852.988</ele>
        <time>2022-02-25T06:29:57Z</time>
      </trkpt>
      <trkpt lat="41.834320" lon="-6.185980">
        <ele>853.616</ele>
        <time>2022-02-25T06:30:37Z</time>
      </trkpt>
      <trkpt lat="41.834430" lon="-6.186020">
        <ele>853.908</ele>
        <time>2022-02-25T06:31:17Z</time>
      </trkpt>
      <trkpt lat="41.834800" lon="-6.186140">
        <ele>854.013</ele>
        <time>2022-02-25T06:31:57Z</time>
      </trkpt>
      <trkpt lat="41.835230" lon="-6.186280">
        <ele>854.980</ele>
        <time>2022-02-25T06:32:37Z</time>
      </trkpt>
      <trkpt lat="41.835580" lon="-6.186380">
        <ele>854.164</ele>
        <time>2022-02-25T06:33:17Z</time>
      </trkpt>
      <trkpt lat="41.836000" lon="-6.186510">
        <ele>855.450</ele>
        <time>2022-02-25T06:33:57Z</time>
      </trkpt>
      <trkpt lat="41.836080" lon="-6.186540">
        <ele>855.897</ele>
        <time>2022-02-25T06:34:37Z</time>
      </trkpt>
      <trkpt lat="41.836180" lon="-6.186570">
        <ele>856.188</ele>
        <time>2022-02-25T06:35:17Z</time>
      </trkpt>
      <trkpt lat="41.836530" lon="-6.186680">
        <ele>856.042</ele>
        <time>2022-02-25T06:35:57Z</time>
      </trkpt>
      <trkpt lat="41.836690" lon="-6.186730">
        <ele>855.717</ele>
        <time>2022-02-25T06:36:37Z</time>
      </trkpt>
      <trkpt lat="41.836700" lon="-6.186730">
        <ele>855.762</ele>
        <time>2022-02-25T06:37:17Z</time>
      </trkpt>
      <trkpt lat="41.837440" lon="-6.186970">
        <ele>857.583</ele>
        <time>2022-02-25T06:37:57Z</time>
      </trkpt>
      <trkpt lat="41.837780" lon="-6.187080">
        <ele>858.011</ele>
        <time>2022-02-25T06:38:37Z</time>
      </trkpt>
      <trkpt lat="41.838080" lon="-6.187180">
        <ele>857.208</ele>
        <time>2022-02-25T06:39:17Z</time>
      </trkpt>
      <trkpt lat="41.838270" lon="-6.187240">
        <ele>856.935</ele>
        <time>2022-02-25T06:39:57Z</time>
      </trkpt>
      <trkpt lat="41.838610" lon="-6.187350">
        <ele>856.532</ele>
        <time>2022-02-25T06:40:37Z</time>
      </trkpt>
      <trkpt lat="41.838970" lon="-6.187460">
        <ele>854.826</ele>
        <time>2022-02-25T06:41:17Z</time>
      </trkpt>
      <trkpt lat="41.839140" lon="-6.187520">
        <ele>854.032</ele>
        <time>2022-02-25T06:41:57Z</time>
      </trkpt>
      <trkpt lat="41.839320" lon="-6.187580">
        <ele>853.399</ele>
        <time>2022-02-25T06:42:37Z</time>
      </trkpt>
      <trkpt lat="41.839390" lon="-6.187600">
        <ele>853.160</ele>
        <time>2022-02-25T06:43:17Z</time>
      </trkpt>
      <trkpt lat="41.839540" lon="-6.187640">
        <ele>853.054</ele>
        <time>2022-02-25T06:43:57Z</time>
      </trkpt>
      <trkpt lat="41.839560" lon="-6.187650">
        <ele>853.069</ele>
        <time>2022-02-25T06:44:37Z</time>
      </trkpt>
      <trkpt lat="41.839580" lon="-6.187660">
        <ele>853.029</ele>
        <time>2022-02-25T06:45:17Z</time>
      </trkpt>
      <trkpt lat="41.839750" lon="-6.187720">
        <ele>852.900</ele>
        <time>2022-02-25T06:45:57Z</time>
      </trkpt>
      <trkpt lat="41.839790" lon="-6.187730">
        <ele>852.820</ele>
        <time>2022-02-25T06:46:37Z</time>
      </trkpt>
      <trkpt lat="41.839980" lon="-6.187810">
        <ele>852.108</ele>
        <time>2022-02-25T06:47:17Z</time>
      </trkpt>
      <trkpt lat="41.840060" lon="-6.187850">
        <ele>851.851</ele>
        <time>2022-02-25T06:47:57Z</time>
      </trkpt>
      <trkpt lat="41.840070" lon="-6.187860">
        <ele>851.788</ele>
        <time>2022-02-25T06:48:37Z</time>
      </trkpt>
      <trkpt lat="41.840110" lon="-6.187890">
        <ele>851.692</ele>
        <time>2022-02-25T06:49:17Z</time>
      </trkpt>
      <trkpt lat="41.840170" lon="-6.187950">
        <ele>851.498</ele>
        <time>2022-02-25T06:49:57Z</time>
      </trkpt>
      <trkpt lat="41.840230" lon="-6.188010">
        <ele>851.265</ele>
        <time>2022-02-25T06:50:37Z</time>
      </trkpt>
      <trkpt lat="41.840300" lon="-6.188110">
        <ele>851.166</ele>
        <time>2022-02-25T06:51:17Z</time>
      </trkpt>
      <trkpt lat="41.840420" lon="-6.188300">
        <ele>851.520</ele>
        <time>2022-02-25T06:51:57Z</time>
      </trkpt>
      <trkpt lat="41.840460" lon="-6.188370">
        <ele>851.785</ele>
        <time>2022-02-25T06:52:37Z</time>
      </trkpt>
      <trkpt lat="41.840710" lon="-6.188780">
        <ele>852.855</ele>
        <time>2022-02-25T06:53:17Z</time>
      </trkpt>
      <trkpt lat="41.840880" lon="-6.189050">
        <ele>852.907</ele>
        <time>2022-02-25T06:53:57Z</time>
      </trkpt>
      <trkpt lat="41.840920" lon="-6.189140">
        <ele>852.717</ele>
        <time>2022-02-25T06:54:37Z</time>
      </trkpt>
      <trkpt lat="41.840970" lon="-6.189240">
        <ele>852.508</ele>
        <time>2022-02-25T06:55:17Z</time>
      </trkpt>
      <trkpt lat="41.841010" lon="-6.189340">
        <ele>852.444</ele>
        <time>2022-02-25T06:55:57Z</time>
      </trkpt>
      <trkpt lat="41.841030" lon="-6.189390">
        <ele>852.311</ele>
        <time>2022-02-25T06:56:37Z</time>
      </trkpt>
      <trkpt lat="41.841040" lon="-6.189450">
        <ele>852.385</ele>
        <time>2022-02-25T06:57:17Z</time>
      </trkpt>
      <trkpt lat="41.841070" lon="-6.189550">
        <ele>852.121</ele>
        <time>2022-02-25T06:57:57Z</time>
      </trkpt>
      <trkpt lat="41.841100" lon="-6.189680">
        <ele>852.058</ele>
        <time>2022-02-25T06:58:37Z</time>
      </trkpt>
      <trkpt lat="41.841130" lon="-6.189840">
        <ele>852.089</ele>
        <time>2022-02-25T06:59:17Z</time>
      </trkpt>
      <trkpt lat="41.841140" lon="-6.189940">
        <ele>852.153</ele>
        <time>2022-02-25T06:59:57Z</time>
      </trkpt>
      <trkpt lat="41.841190" lon="-6.190280">
        <ele>853.318</ele>
        <time>2022-02-25T07:00:37Z</time>
      </trkpt>
      <trkpt lat="41.841250" lon="-6.190670">
        <ele>854.918</ele>
        <time>2022-02-25T07:01:17Z</time>
      </trkpt>
      <trkpt lat="41.841270" lon="-6.190770">
        <ele>855.398</ele>
        <time>2022-02-25T07:01:57Z</time>
      </trkpt>
      <trkpt lat="41.841330" lon="-6.191240">
        <ele>855.117</ele>
        <time>2022-02-25T07:02:37Z</time>
      </trkpt>
      <trkpt lat="41.841350" lon="-6.191350">
        <ele>854.908</ele>
        <time>2022-02-25T07:03:17Z</time>
      </trkpt>
      <trkpt lat="41.841370" lon="-6.191480">
        <ele>854.630</ele>
        <time>2022-02-25T07:03:57Z</time>
      </trkpt>
      <trkpt lat="41.841380" lon="-6.191520">
        <ele>854.517</ele>
        <time>2022-02-25T07:04:37Z</time>
      </trkpt>
      <trkpt lat="41.841400" lon="-6.191660">
        <ele>854.011</ele>
        <time>2022-02-25T07:05:17Z</time>
      </trkpt>
      <trkpt lat="41.841420" lon="-6.191740">
        <ele>854.067</ele>
        <time>2022-02-25T07:05:57Z</time>
      </trkpt>
      <trkpt lat="41.841430" lon="-6.191790">
        <ele>854.174</ele>
        <time>2022-02-25T07:06:37Z</time>
      </trkpt>
      <trkpt lat="41.841450" lon="-6.191850">
        <ele>854.125</ele>
        <time>2022-02-25T07:07:17Z</time>
      </trkpt>
      <trkpt lat="41.841470" lon="-6.191930">
        <ele>854.379</ele>
        <time>2022-02-25T07:07:57Z</time>
      </trkpt>
      <trkpt lat="41.841500" lon="-6.192020">
        <ele>854.914</ele>
        <time>2022-02-25T07:08:37Z</time>
      </trkpt>
      <trkpt lat="41.841540" lon="-6.192120">
        <ele>855.862</ele>
        <time>2022-02-25T07:09:17Z</time>
      </trkpt>
      <trkpt lat="41.841560" lon="-6.192180">
        <ele>856.383</ele>
        <time>2022-02-25T07:09:57Z</time>
      </trkpt>
      <trkpt lat="41.841650" lon="-6.192380">
        <ele>857.511</ele>
        <time>2022-02-25T07:10:37Z</time>
      </trkpt>
      <trkpt lat="41.841920" lon="-6.192970">
        <ele>858.208</ele>
        <time>2022-02-25T07:11:17Z</time>
      </trkpt>
      <trkpt lat="41.842090" lon="-6.193330">
        <ele>858.555</ele>
        <time>2022-02-25T07:11:57Z</time>
      </trkpt>
      <trkpt lat="41.842110" lon="-6.193370">
        <ele>858.782</ele>
        <time>2022-02-25T07:12:37Z</time>
      </trkpt>
      <trkpt lat="41.842190" lon="-6.193540">
        <ele>859.616</ele>
        <time>2022-02-25T07:13:17Z</time>
      </trkpt>
      <trkpt lat="41.842330" lon="-6.193870">
        <ele>861.032</ele>
        <time>2022-02-25T07:13:57Z</time>
      </trkpt>
      <trkpt lat="41.842460" lon="-6.194160">
        <ele>860.999</ele>
        <time>2022-02-25T07:14:37Z</time>
      </trkpt>
      <trkpt lat="41.842620" lon="-6.194520">
        <ele>859.720</ele>
        <time>2022-02-25T07:15:17Z</time>
      </trkpt>
      <trkpt lat="41.842650" lon="-6.194570">
        <ele>859.564</ele>
        <time>2022-02-25T07:15:57Z</time>
      </trkpt>
      <trkpt lat="41.842930" lon="-6.195190">
        <ele>854.699</ele>
        <time>2022-02-25T07:16:37Z</time>
      </trkpt>
      <trkpt lat="41.843020" lon="-6.195400">
        <ele>853.168</ele>
        <time>2022-02-25T07:17:17Z</time>
      </trkpt>
      <trkpt lat="41.843150" lon="-6.195690">
        <ele>852.242</ele>
        <time>2022-02-25T07:17:57Z</time>
      </trkpt>
      <trkpt lat="41.843260" lon="-6.195940">
        <ele>852.226</ele>
        <time>2022-02-25T07:18:37Z</time>
      </trkpt>
      <trkpt lat="41.843340" lon="-6.196110">
        <ele>852.008</ele>
        <time>2022-02-25T07:19:17Z</time>
      </trkpt>
      <trkpt lat="41.843430" lon="-6.196310">
        <ele>852.815</ele>
        <time>2022-02-25T07:19:57Z</time>
      </trkpt>
      <trkpt lat="41.843440" lon="-6.196340">
        <ele>852.962</ele>
        <time>2022-02-25T07:20:37Z</time>
      </trkpt>
      <trkpt lat="41.843450" lon="-6.196360">
        <ele>852.996</ele>
        <time>2022-02-25T07:21:17Z</time>
      </trkpt>
      <trkpt lat="41.843660" lon="-6.196810">
        <ele>855.542</ele>
        <time>2022-02-25T07:21:57Z</time>
      </trkpt>
      <trkpt lat="41.843710" lon="-6.196930">
        <ele>855.959</ele>
        <time>2022-02-25T07:22:37Z</time>
      </trkpt>
      <trkpt lat="41.843980" lon="-6.197510">
        <ele>858.440</ele>
        <time>2022-02-25T07:23:17Z</time>
      </trkpt>
      <trkpt lat="41.844000" lon="-6.197550">
        <ele>858.674</ele>
        <time>2022-02-25T07:23:57Z</time>
      </trkpt>
      <trkpt lat="41.844090" lon="-6.197760">
        <ele>859.779</ele>
        <time>2022-02-25T07:24:37Z</time>
      </trkpt>
      <trkpt lat="41.844130" lon="-6.197840">
        <ele>860.199</ele>
        <time>2022-02-25T07:25:17Z</time>
      </trkpt>
      <trkpt lat="41.844180" lon="-6.197960">
        <ele>860.707</ele>
        <time>2022-02-25T07:25:57Z</time>
      </trkpt>
      <trkpt lat="41.844370" lon="-6.198370">
        <ele>861.027</ele>
        <time>2022-02-25T07:26:37Z</time>
      </trkpt>
      <trkpt lat="41.844400" lon="-6.198440">
        <ele>861.008</ele>
        <time>2022-02-25T07:27:17Z</time>
      </trkpt>
      <trkpt lat="41.844460" lon="-6.198570">
        <ele>861.078</ele>
        <time>2022-02-25T07:27:57Z</time>
      </trkpt>
      <trkpt lat="41.844630" lon="-6.198950">
        <ele>860.575</ele>
        <time>2022-02-25T07:28:37Z</time>
      </trkpt>
      <trkpt lat="41.844730" lon="-6.199130">
        <ele>860.169</ele>
        <time>2022-02-25T07:29:17Z</time>
      </trkpt>
      <trkpt lat="41.844760" lon="-6.199180">
        <ele>860.065</ele>
        <time>2022-02-25T07:29:57Z</time>
      </trkpt>
      <trkpt lat="41.844790" lon="-6.199230">
        <ele>859.832</ele>
        <time>2022-02-25T07:30:37Z</time>
      </trkpt>
      <trkpt lat="41.844820" lon="-6.199290">
        <ele>859.623</ele>
        <time>2022-02-25T07:31:17Z</time>
      </trkpt>
      <trkpt lat="41.844870" lon="-6.199360">
        <ele>859.397</ele>
        <time>2022-02-25T07:31:57Z</time>
      </trkpt>
      <trkpt lat="41.844880" lon="-6.199380">
        <ele>859.272</ele>
        <time>2022-02-25T07:32:37Z</time>
      </trkpt>
      <trkpt lat="41.844950" lon="-6.199430">
        <ele>859.126</ele>
        <time>2022-02-25T07:33:17Z</time>
      </trkpt>
      <trkpt lat="41.845050" lon="-6.199500">
        <ele>859.147</ele>
        <time>2022-02-25T07:33:57Z</time>
      </trkpt>
      <trkpt lat="41.845060" lon="-6.199490">
        <ele>859.211</ele>
        <time>2022-02-25T07:34:37Z</time>
      </trkpt>
      <trkpt lat="41.845070" lon="-6.199490">
        <ele>859.208</ele>
        <time>2022-02-25T07:35:17Z</time>
      </trkpt>
      <trkpt lat="41.845080" lon="-6.199490">
        <ele>859.221</ele>
        <time>2022-02-25T07:35:57Z</time>
      </trkpt>
      <trkpt lat="41.845090" lon="-6.199490">
        <ele>859.348</ele>
        <time>2022-02-25T07:36:37Z</time>
      </trkpt>
      <trkpt lat="41.845100" lon="-6.199490">
        <ele>859.372</ele>
        <time>2022-02-25T07:37:17Z</time>
      </trkpt>
      <trkpt lat="41.845110" lon="-6.199490">
        <ele>859.358</ele>
        <time>2022-02-25T07:37:57Z</time>
      </trkpt>
      <trkpt lat="41.845107" lon="-6.199489">
        <ele>859.355</ele>
        <time>2022-02-25T07:38:37Z</time>
      </trkpt>
      <trkpt lat="41.845110" lon="-6.199260">
        <ele>860.176</ele>
        <time>2022-02-25T07:39:17Z</time>
      </trkpt>
      <trkpt lat="41.845110" lon="-6.199000">
        <ele>860.850</ele>
        <time>2022-02-25T07:39:57Z</time>
      </trkpt>
      <trkpt lat="41.845110" lon="-6.198810">
        <ele>860.955</ele>
        <time>2022-02-25T07:40:37Z</time>
      </trkpt>
      <trkpt lat="41.845110" lon="-6.198200">
        <ele>859.773</ele>
        <time>2022-02-25T07:41:17Z</time>
      </trkpt>
      <trkpt lat="41.845110" lon="-6.197970">
        <ele>859.485</ele>
        <time>2022-02-25T07:41:57Z</time>
      </trkpt>
      <trkpt lat="41.845110" lon="-6.197790">
        <ele>859.413</ele>
        <time>2022-02-25T07:42:37Z</time>
      </trkpt>
      <trkpt lat="41.845120" lon="-6.197610">
        <ele>859.808</ele>
        <time>2022-02-25T07:43:17Z</time>
      </trkpt>
      <trkpt lat="41.845130" lon="-6.197460">
        <ele>860.276</ele>
        <time>2022-02-25T07:43:57Z</time>
      </trkpt>
      <trkpt lat="41.845150" lon="-6.197300">
        <ele>861.173</ele>
        <time>2022-02-25T07:44:37Z</time>
      </trkpt>
      <trkpt lat="41.845150" lon="-6.197240">
        <ele>861.457</ele>
        <time>2022-02-25T07:45:17Z</time>
      </trkpt>
      <trkpt lat="41.845160" lon="-6.197180">
        <ele>861.733</ele>
        <time>2022-02-25T07:45:57Z</time>
      </trkpt>
      <trkpt lat="41.845190" lon="-6.197010">
        <ele>862.420</ele>
        <time>2022-02-25T07:46:37Z</time>
      </trkpt>
      <trkpt lat="41.845190" lon="-6.197000">
        <ele>862.521</ele>
        <time>2022-02-25T07:47:17Z</time>
      </trkpt>
      <trkpt lat="41.845210" lon="-6.196890">
        <ele>862.675</ele>
        <time>2022-02-25T07:47:57Z</time>
      </trkpt>
      <trkpt lat="41.845240" lon="-6.196780">
        <ele>862.370</ele>
        <time>2022-02-25T07:48:37Z</time>
      </trkpt>
      <trkpt lat="41.845240" lon="-6.196770">
        <ele>862.218</ele>
        <time>2022-02-25T07:49:17Z</time>
      </trkpt>
      <trkpt lat="41.845270" lon="-6.196660">
        <ele>861.998</ele>
        <time>2022-02-25T07:49:57Z</time>
      </trkpt>
      <trkpt lat="41.845310" lon="-6.196540">
        <ele>861.517</ele>
        <time>2022-02-25T07:50:37Z</time>
      </trkpt>
      <trkpt lat="41.845340" lon="-6.196450">
        <ele>861.008</ele>
        <time>2022-02-25T07:51:17Z</time>
      </trkpt>
      <trkpt lat="41.845410" lon="-6.196270">
        <ele>859.990</ele>
        <time>2022-02-25T07:51:57Z</time>
      </trkpt>
      <trkpt lat="41.845470" lon="-6.196110">
        <ele>859.027</ele>
        <time>2022-02-25T07:52:37Z</time>
      </trkpt>
      <trkpt lat="41.845510" lon="-6.196010">
        <ele>858.681</ele>
        <time>2022-02-25T07:53:17Z</time>
      </trkpt>
      <trkpt lat="41.845560" lon="-6.195910">
        <ele>858.387</ele>
        <time>2022-02-25T07:53:57Z</time>
      </trkpt>
      <trkpt lat="41.845650" lon="-6.195700">
        <ele>857.394</ele>
        <time>2022-02-25T07:54:37Z</time>
      </trkpt>
      <trkpt lat="41.845720" lon="-6.195570">
        <ele>857.015</ele>
        <time>2022-02-25T07:55:17Z</time>
      </trkpt>
      <trkpt lat="41.845750" lon="-6.195500">
        <ele>857.039</ele>
        <time>2022-02-25T07:55:57Z</time>
      </trkpt>
      <trkpt lat="41.845940" lon="-6.195090">
        <ele>857.644</ele>
        <time>2022-02-25T07:56:37Z</time>
      </trkpt>
      <trkpt lat="41.845980" lon="-6.195000">
        <ele>858.017</ele>
        <time>2022-02-25T07:57:17Z</time>
      </trkpt>
      <trkpt lat="41.846040" lon="-6.194890">
        <ele>858.887</ele>
        <time>2022-02-25T07:57:57Z</time>
      </trkpt>
      <trkpt lat="41.846140" lon="-6.194680">
        <ele>860.215</ele>
        <time>2022-02-25T07:58:37Z</time>
      </trkpt>
      <trkpt lat="41.846220" lon="-6.194520">
        <ele>861.108</ele>
        <time>2022-02-25T07:59:17Z</time>
      </trkpt>
      <trkpt lat="41.846240" lon="-6.194480">
        <ele>861.340</ele>
        <time>2022-02-25T07:59:57Z</time>
      </trkpt>
      <trkpt lat="41.846450" lon="-6.194050">
        <ele>863.457</ele>
        <time>2022-02-25T08:00:37Z</time>
      </trkpt>
      <trkpt lat="41.846630" lon="-6.193680">
        <ele>864.011</ele>
        <time>2022-02-25T08:01:17Z</time>
      </trkpt>
      <trkpt lat="41.846660" lon="-6.193630">
        <ele>864.017</ele>
        <time>2022-02-25T08:01:57Z</time>
      </trkpt>
      <trkpt lat="41.846730" lon="-6.193470">
        <ele>864.824</ele>
        <time>2022-02-25T08:02:37Z</time>
      </trkpt>
      <trkpt lat="41.846820" lon="-6.193290">
        <ele>865.765</ele>
        <time>2022-02-25T08:03:17Z</time>
      </trkpt>
      <trkpt lat="41.846830" lon="-6.193270">
        <ele>865.839</ele>
        <time>2022-02-25T08:03:57Z</time>
      </trkpt>
      <trkpt lat="41.846930" lon="-6.193070">
        <ele>866.964</ele>
        <time>2022-02-25T08:04:37Z</time>
      </trkpt>
      <trkpt lat="41.846970" lon="-6.192980">
        <ele>867.362</ele>
        <time>2022-02-25T08:05:17Z</time>
      </trkpt>
      <trkpt lat="41.847030" lon="-6.192870">
        <ele>867.783</ele>
        <time>2022-02-25T08:05:57Z</time>
      </trkpt>
      <trkpt lat="41.847120" lon="-6.192670">
        <ele>868.011</ele>
        <time>2022-02-25T08:06:37Z</time>
      </trkpt>
      <trkpt lat="41.847220" lon="-6.192460">
        <ele>868.008</ele>
        <time>2022-02-25T08:07:17Z</time>
      </trkpt>
      <trkpt lat="41.847360" lon="-6.192140">
        <ele>867.515</ele>
        <time>2022-02-25T08:07:57Z</time>
      </trkpt>
      <trkpt lat="41.847410" lon="-6.192020">
        <ele>867.372</ele>
        <time>2022-02-25T08:08:37Z</time>
      </trkpt>
      <trkpt lat="41.847490" lon="-6.191800">
        <ele>867.046</ele>
        <time>2022-02-25T08:09:17Z</time>
      </trkpt>
      <trkpt lat="41.847490" lon="-6.191780">
        <ele>867.032</ele>
        <time>2022-02-25T08:09:57Z</time>
      </trkpt>
      <trkpt lat="41.847500" lon="-6.191750">
        <ele>867.039</ele>
        <time>2022-02-25T08:10:37Z</time>
      </trkpt>
      <trkpt lat="41.847550" lon="-6.191590">
        <ele>867.060</ele>
        <time>2022-02-25T08:11:17Z</time>
      </trkpt>
      <trkpt lat="41.847620" lon="-6.191360">
        <ele>867.454</ele>
        <time>2022-02-25T08:11:57Z</time>
      </trkpt>
      <trkpt lat="41.847660" lon="-6.191160">
        <ele>867.629</ele>
        <time>2022-02-25T08:12:37Z</time>
      </trkpt>
      <trkpt lat="41.847690" lon="-6.190990">
        <ele>868.187</ele>
        <time>2022-02-25T08:13:17Z</time>
      </trkpt>
      <trkpt lat="41.847710" lon="-6.190900">
        <ele>868.542</ele>
        <time>2022-02-25T08:13:57Z</time>
      </trkpt>
      <trkpt lat="41.847710" lon="-6.190860">
        <ele>868.726</ele>
        <time>2022-02-25T08:14:37Z</time>
      </trkpt>
      <trkpt lat="41.847730" lon="-6.190720">
        <ele>868.808</ele>
        <time>2022-02-25T08:15:17Z</time>
      </trkpt>
      <trkpt lat="41.847750" lon="-6.190530">
        <ele>868.977</ele>
        <time>2022-02-25T08:15:57Z</time>
      </trkpt>
      <trkpt lat="41.847760" lon="-6.190410">
        <ele>868.914</ele>
        <time>2022-02-25T08:16:37Z</time>
      </trkpt>
      <trkpt lat="41.847770" lon="-6.190240">
        <ele>869.018</ele>
        <time>2022-02-25T08:17:17Z</time>
      </trkpt>
      <trkpt lat="41.847770" lon="-6.190180">
        <ele>869.094</ele>
        <time>2022-02-25T08:17:57Z</time>
      </trkpt>
      <trkpt lat="41.847770" lon="-6.190100">
        <ele>869.041</ele>
        <time>2022-02-25T08:18:37Z</time>
      </trkpt>
      <trkpt lat="41.847770" lon="-6.189980">
        <ele>869.022</ele>
        <time>2022-02-25T08:19:17Z</time>
      </trkpt>
      <trkpt lat="41.847770" lon="-6.189940">
        <ele>869.066</ele>
        <time>2022-02-25T08:19:57Z</time>
      </trkpt>
      <trkpt lat="41.847770" lon="-6.189840">
        <ele>869.061</ele>
        <time>2022-02-25T08:20:37Z</time>
      </trkpt>
      <trkpt lat="41.847770" lon="-6.189710">
        <ele>868.981</ele>
        <time>2022-02-25T08:21:17Z</time>
      </trkpt>
      <trkpt lat="41.847770" lon="-6.189700">
        <ele>868.861</ele>
        <time>2022-02-25T08:21:57Z</time>
      </trkpt>
      <trkpt lat="41.847760" lon="-6.189570">
        <ele>867.817</ele>
        <time>2022-02-25T08:22:37Z</time>
      </trkpt>
      <trkpt lat="41.847750" lon="-6.189430">
        <ele>866.908</ele>
        <time>2022-02-25T08:23:17Z</time>
      </trkpt>
      <trkpt lat="41.847730" lon="-6.189290">
        <ele>866.887</ele>
        <time>2022-02-25T08:23:57Z</time>
      </trkpt>
      <trkpt lat="41.847690" lon="-6.188950">
        <ele>867.294</ele>
        <time>2022-02-25T08:24:37Z</time>
      </trkpt>
      <trkpt lat="41.847660" lon="-6.188740">
        <ele>866.468</ele>
        <time>2022-02-25T08:25:17Z</time>
      </trkpt>
      <trkpt lat="41.847650" lon="-6.188640">
        <ele>865.864</ele>
        <time>2022-02-25T08:25:57Z</time>
      </trkpt>
      <trkpt lat="41.847630" lon="-6.188510">
        <ele>865.441</ele>
        <time>2022-02-25T08:26:37Z</time>
      </trkpt>
      <trkpt lat="41.847590" lon="-6.188270">
        <ele>864.942</ele>
        <time>2022-02-25T08:27:17Z</time>
      </trkpt>
      <trkpt lat="41.847590" lon="-6.188220">
        <ele>864.896</ele>
        <time>2022-02-25T08:27:57Z</time>
      </trkpt>
      <trkpt lat="41.847530" lon="-6.187850">
        <ele>864.221</ele>
        <time>2022-02-25T08:28:37Z</time>
      </trkpt>
      <trkpt lat="41.847530" lon="-6.187800">
        <ele>864.252</ele>
        <time>2022-02-25T08:29:17Z</time>
      </trkpt>
      <trkpt lat="41.847490" lon="-6.187560">
        <ele>865.553</ele>
        <time>2022-02-25T08:29:57Z</time>
      </trkpt>
      <trkpt lat="41.847460" lon="-6.187370">
        <ele>866.208</ele>
        <time>2022-02-25T08:30:37Z</time>
      </trkpt>
      <trkpt lat="41.847390" lon="-6.186880">
        <ele>866.108</ele>
        <time>2022-02-25T08:31:17Z</time>
      </trkpt>
      <trkpt lat="41.847390" lon="-6.186830">
        <ele>866.054</ele>
        <time>2022-02-25T08:31:57Z</time>
      </trkpt>
      <trkpt lat="41.847270" lon="-6.185990">
        <ele>863.641</ele>
        <time>2022-02-25T08:32:37Z</time>
      </trkpt>
      <trkpt lat="41.847250" lon="-6.185810">
        <ele>863.145</ele>
        <time>2022-02-25T08:33:17Z</time>
      </trkpt>
      <trkpt lat="41.847240" lon="-6.185760">
        <ele>863.111</ele>
        <time>2022-02-25T08:33:57Z</time>
      </trkpt>
      <trkpt lat="41.847230" lon="-6.185660">
        <ele>863.098</ele>
        <time>2022-02-25T08:34:37Z</time>
      </trkpt>
      <trkpt lat="41.847220" lon="-6.185530">
        <ele>863.149</ele>
        <time>2022-02-25T08:35:17Z</time>
      </trkpt>
      <trkpt lat="41.847220" lon="-6.185410">
        <ele>863.573</ele>
        <time>2022-02-25T08:35:57Z</time>
      </trkpt>
      <trkpt lat="41.847220" lon="-6.185290">
        <ele>864.068</ele>
        <time>2022-02-25T08:36:37Z</time>
      </trkpt>
      <trkpt lat="41.847220" lon="-6.185160">
        <ele>864.014</ele>
        <time>2022-02-25T08:37:17Z</time>
      </trkpt>
      <trkpt lat="41.847230" lon="-6.185040">
        <ele>864.054</ele>
        <time>2022-02-25T08:37:57Z</time>
      </trkpt>
      <trkpt lat="41.847230" lon="-6.185030">
        <ele>864.009</ele>
        <time>2022-02-25T08:38:37Z</time>
      </trkpt>
      <trkpt lat="41.847240" lon="-6.184910">
        <ele>864.008</ele>
        <time>2022-02-25T08:39:17Z</time>
      </trkpt>
      <trkpt lat="41.847260" lon="-6.184820">
        <ele>864.050</ele>
        <time>2022-02-25T08:39:57Z</time>
      </trkpt>
      <trkpt lat="41.847260" lon="-6.184800">
        <ele>864.037</ele>
        <time>2022-02-25T08:40:37Z</time>
      </trkpt>
      <trkpt lat="41.847280" lon="-6.184710">
        <ele>864.091</ele>
        <time>2022-02-25T08:41:17Z</time>
      </trkpt>
      <trkpt lat="41.847310" lon="-6.184570">
        <ele>864.267</ele>
        <time>2022-02-25T08:41:57Z</time>
      </trkpt>
      <trkpt lat="41.847340" lon="-6.184470">
        <ele>864.484</ele>
        <time>2022-02-25T08:42:37Z</time>
      </trkpt>
      <trkpt lat="41.847360" lon="-6.184410">
        <ele>864.695</ele>
        <time>2022-02-25T08:43:17Z</time>
      </trkpt>
      <trkpt lat="41.847410" lon="-6.184270">
        <ele>865.529</ele>
        <time>2022-02-25T08:43:57Z</time>
      </trkpt>
      <trkpt lat="41.847450" lon="-6.184170">
        <ele>866.454</ele>
        <time>2022-02-25T08:44:37Z</time>
      </trkpt>
      <trkpt lat="41.847510" lon="-6.184030">
        <ele>868.642</ele>
        <time>2022-02-25T08:45:17Z</time>
      </trkpt>
      <trkpt lat="41.847570" lon="-6.183910">
        <ele>870.322</ele>
        <time>2022-02-25T08:45:57Z</time>
      </trkpt>
      <trkpt lat="41.847610" lon="-6.183840">
        <ele>870.814</ele>
        <time>2022-02-25T08:46:37Z</time>
      </trkpt>
      <trkpt lat="41.847630" lon="-6.183790">
        <ele>870.908</ele>
        <time>2022-02-25T08:47:17Z</time>
      </trkpt>
      <trkpt lat="41.847700" lon="-6.183690">
        <ele>871.413</ele>
        <time>2022-02-25T08:47:57Z</time>
      </trkpt>
      <trkpt lat="41.847780" lon="-6.183590">
        <ele>871.840</ele>
        <time>2022-02-25T08:48:37Z</time>
      </trkpt>
      <trkpt lat="41.847850" lon="-6.183500">
        <ele>871.434</ele>
        <time>2022-02-25T08:49:17Z</time>
      </trkpt>
      <trkpt lat="41.847930" lon="-6.183420">
        <ele>871.460</ele>
        <time>2022-02-25T08:49:57Z</time>
      </trkpt>
      <trkpt lat="41.848020" lon="-6.183340">
        <ele>871.867</ele>
        <time>2022-02-25T08:50:37Z</time>
      </trkpt>
      <trkpt lat="41.848150" lon="-6.183220">
        <ele>871.778</ele>
        <time>2022-02-25T08:51:17Z</time>
      </trkpt>
      <trkpt lat="41.848440" lon="-6.183030">
        <ele>872.472</ele>
        <time>2022-02-25T08:51:57Z</time>
      </trkpt>
      <trkpt lat="41.848670" lon="-6.182910">
        <ele>873.027</ele>
        <time>2022-02-25T08:52:37Z</time>
      </trkpt>
      <trkpt lat="41.849050" lon="-6.182710">
        <ele>873.138</ele>
        <time>2022-02-25T08:53:17Z</time>
      </trkpt>
      <trkpt lat="41.849410" lon="-6.182520">
        <ele>873.970</ele>
        <time>2022-02-25T08:53:57Z</time>
      </trkpt>
      <trkpt lat="41.849930" lon="-6.182260">
        <ele>877.417</ele>
        <time>2022-02-25T08:54:37Z</time>
      </trkpt>
      <trkpt lat="41.850510" lon="-6.181970">
        <ele>883.508</ele>
        <time>2022-02-25T08:55:17Z</time>
      </trkpt>
      <trkpt lat="41.850760" lon="-6.181840">
        <ele>884.082</ele>
        <time>2022-02-25T08:55:57Z</time>
      </trkpt>
      <trkpt lat="41.851080" lon="-6.181670">
        <ele>884.979</ele>
        <time>2022-02-25T08:56:37Z</time>
      </trkpt>
      <trkpt lat="41.851260" lon="-6.181580">
        <ele>885.313</ele>
        <time>2022-02-25T08:57:17Z</time>
      </trkpt>
      <trkpt lat="41.851380" lon="-6.181510">
        <ele>885.659</ele>
        <time>2022-02-25T08:57:57Z</time>
      </trkpt>
      <trkpt lat="41.851600" lon="-6.181410">
        <ele>885.846</ele>
        <time>2022-02-25T08:58:37Z</time>
      </trkpt>
      <trkpt lat="41.851880" lon="-6.181270">
        <ele>886.927</ele>
        <time>2022-02-25T08:59:17Z</time>
      </trkpt>
      <trkpt lat="41.852240" lon="-6.181090">
        <ele>890.141</ele>
        <time>2022-02-25T08:59:57Z</time>
      </trkpt>
      <trkpt lat="41.852440" lon="-6.180990">
        <ele>890.996</ele>
        <time>2022-02-25T09:00:37Z</time>
      </trkpt>
      <trkpt lat="41.852580" lon="-6.180920">
        <ele>890.918</ele>
        <time>2022-02-25T09:01:17Z</time>
      </trkpt>
      <trkpt lat="41.852610" lon="-6.180900">
        <ele>890.998</ele>
        <time>2022-02-25T09:01:57Z</time>
      </trkpt>
      <trkpt lat="41.852770" lon="-6.180830">
        <ele>891.017</ele>
        <time>2022-02-25T09:02:37Z</time>
      </trkpt>
      <trkpt lat="41.852780" lon="-6.180820">
        <ele>891.008</ele>
        <time>2022-02-25T09:03:17Z</time>
      </trkpt>
      <trkpt lat="41.852900" lon="-6.180770">
        <ele>891.310</ele>
        <time>2022-02-25T09:03:57Z</time>
      </trkpt>
      <trkpt lat="41.852950" lon="-6.180750">
        <ele>891.567</ele>
        <time>2022-02-25T09:04:37Z</time>
      </trkpt>
      <trkpt lat="41.853010" lon="-6.180730">
        <ele>891.711</ele>
        <time>2022-02-25T09:05:17Z</time>
      </trkpt>
      <trkpt lat="41.853150" lon="-6.180690">
        <ele>892.567</ele>
        <time>2022-02-25T09:05:57Z</time>
      </trkpt>
      <trkpt lat="41.853380" lon="-6.180630">
        <ele>893.964</ele>
        <time>2022-02-25T09:06:37Z</time>
      </trkpt>
      <trkpt lat="41.853840" lon="-6.180520">
        <ele>895.065</ele>
        <time>2022-02-25T09:07:17Z</time>
      </trkpt>
      <trkpt lat="41.854010" lon="-6.180480">
        <ele>895.169</ele>
        <time>2022-02-25T09:07:57Z</time>
      </trkpt>
      <trkpt lat="41.854030" lon="-6.180480">
        <ele>895.124</ele>
        <time>2022-02-25T09:08:37Z</time>
      </trkpt>
      <trkpt lat="41.854370" lon="-6.180400">
        <ele>897.193</ele>
        <time>2022-02-25T09:09:17Z</time>
      </trkpt>
      <trkpt lat="41.854540" lon="-6.180360">
        <ele>899.065</ele>
        <time>2022-02-25T09:09:57Z</time>
      </trkpt>
      <trkpt lat="41.855260" lon="-6.180210">
        <ele>903.321</ele>
        <time>2022-02-25T09:10:37Z</time>
      </trkpt>
      <trkpt lat="41.855370" lon="-6.180190">
        <ele>903.308</ele>
        <time>2022-02-25T09:11:17Z</time>
      </trkpt>
      <trkpt lat="41.855580" lon="-6.180140">
        <ele>903.538</ele>
        <time>2022-02-25T09:11:57Z</time>
      </trkpt>
      <trkpt lat="41.855610" lon="-6.180140">
        <ele>903.695</ele>
        <time>2022-02-25T09:12:37Z</time>
      </trkpt>
      <trkpt lat="41.855630" lon="-6.180140">
        <ele>903.669</ele>
        <time>2022-02-25T09:13:17Z</time>
      </trkpt>
      <trkpt lat="41.855720" lon="-6.180120">
        <ele>903.945</ele>
        <time>2022-02-25T09:13:57Z</time>
      </trkpt>
      <trkpt lat="41.855830" lon="-6.180110">
        <ele>904.292</ele>
        <time>2022-02-25T09:14:37Z</time>
      </trkpt>
      <trkpt lat="41.855930" lon="-6.180100">
        <ele>904.373</ele>
        <time>2022-02-25T09:15:17Z</time>
      </trkpt>
      <trkpt lat="41.855990" lon="-6.180100">
        <ele>904.377</ele>
        <time>2022-02-25T09:15:57Z</time>
      </trkpt>
      <trkpt lat="41.856030" lon="-6.180100">
        <ele>904.372</ele>
        <time>2022-02-25T09:16:37Z</time>
      </trkpt>
      <trkpt lat="41.856170" lon="-6.180110">
        <ele>904.375</ele>
        <time>2022-02-25T09:17:17Z</time>
      </trkpt>
      <trkpt lat="41.856260" lon="-6.180110">
        <ele>904.528</ele>
        <time>2022-02-25T09:17:57Z</time>
      </trkpt>
      <trkpt lat="41.856350" lon="-6.180110">
        <ele>904.720</ele>
        <time>2022-02-25T09:18:37Z</time>
      </trkpt>
      <trkpt lat="41.856680" lon="-6.180130">
        <ele>906.708</ele>
        <time>2022-02-25T09:19:17Z</time>
      </trkpt>
      <trkpt lat="41.856970" lon="-6.180150">
        <ele>909.126</ele>
        <time>2022-02-25T09:19:57Z</time>
      </trkpt>
      <trkpt lat="41.857210" lon="-6.180170">
        <ele>910.393</ele>
        <time>2022-02-25T09:20:37Z</time>
      </trkpt>
      <trkpt lat="41.857370" lon="-6.180190">
        <ele>909.667</ele>
        <time>2022-02-25T09:21:17Z</time>
      </trkpt>
      <trkpt lat="41.857430" lon="-6.180200">
        <ele>909.343</ele>
        <time>2022-02-25T09:21:57Z</time>
      </trkpt>
      <trkpt lat="41.857490" lon="-6.180210">
        <ele>909.070</ele>
        <time>2022-02-25T09:22:37Z</time>
      </trkpt>
      <trkpt lat="41.857590" lon="-6.180250">
        <ele>908.631</ele>
        <time>2022-02-25T09:23:17Z</time>
      </trkpt>
      <trkpt lat="41.857680" lon="-6.180280">
        <ele>908.415</ele>
        <time>2022-02-25T09:23:57Z</time>
      </trkpt>
      <trkpt lat="41.857730" lon="-6.180300">
        <ele>908.270</ele>
        <time>2022-02-25T09:24:37Z</time>
      </trkpt>
      <trkpt lat="41.857900" lon="-6.180390">
        <ele>908.364</ele>
        <time>2022-02-25T09:25:17Z</time>
      </trkpt>
      <trkpt lat="41.857910" lon="-6.180400">
        <ele>908.406</ele>
        <time>2022-02-25T09:25:57Z</time>
      </trkpt>
      <trkpt lat="41.858050" lon="-6.180480">
        <ele>909.216</ele>
        <time>2022-02-25T09:26:37Z</time>
      </trkpt>
      <trkpt lat="41.858220" lon="-6.180590">
        <ele>909.508</ele>
        <time>2022-02-25T09:27:17Z</time>
      </trkpt>
      <trkpt lat="41.858390" lon="-6.180720">
        <ele>909.195</ele>
        <time>2022-02-25T09:27:57Z</time>
      </trkpt>
      <trkpt lat="41.858520" lon="-6.180830">
        <ele>909.372</ele>
        <time>2022-02-25T09:28:37Z</time>
      </trkpt>
      <trkpt lat="41.858630" lon="-6.180920">
        <ele>910.026</ele>
        <time>2022-02-25T09:29:17Z</time>
      </trkpt>
      <trkpt lat="41.858700" lon="-6.180990">
        <ele>910.312</ele>
        <time>2022-02-25T09:29:57Z</time>
      </trkpt>
      <trkpt lat="41.858790" lon="-6.181080">
        <ele>911.169</ele>
        <time>2022-02-25T09:30:37Z</time>
      </trkpt>
      <trkpt lat="41.858830" lon="-6.181140">
        <ele>911.860</ele>
        <time>2022-02-25T09:31:17Z</time>
      </trkpt>
      <trkpt lat="41.858860" lon="-6.181180">
        <ele>912.274</ele>
        <time>2022-02-25T09:31:57Z</time>
      </trkpt>
      <trkpt lat="41.858940" lon="-6.181270">
        <ele>912.729</ele>
        <time>2022-02-25T09:32:37Z</time>
      </trkpt>
      <trkpt lat="41.858960" lon="-6.181300">
        <ele>912.969</ele>
        <time>2022-02-25T09:33:17Z</time>
      </trkpt>
      <trkpt lat="41.859050" lon="-6.181410">
        <ele>913.504</ele>
        <time>2022-02-25T09:33:57Z</time>
      </trkpt>
      <trkpt lat="41.859280" lon="-6.181760">
        <ele>913.424</ele>
        <time>2022-02-25T09:34:37Z</time>
      </trkpt>
      <trkpt lat="41.859510" lon="-6.182090">
        <ele>913.808</ele>
        <time>2022-02-25T09:35:17Z</time>
      </trkpt>
      <trkpt lat="41.859620" lon="-6.182240">
        <ele>914.625</ele>
        <time>2022-02-25T09:35:57Z</time>
      </trkpt>
      <trkpt lat="41.859800" lon="-6.182500">
        <ele>914.362</ele>
        <time>2022-02-25T09:36:37Z</time>
      </trkpt>
      <trkpt lat="41.860120" lon="-6.182960">
        <ele>910.756</ele>
        <time>2022-02-25T09:37:17Z</time>
      </trkpt>
      <trkpt lat="41.860410" lon="-6.183380">
        <ele>913.212</ele>
        <time>2022-02-25T09:37:57Z</time>
      </trkpt>
      <trkpt lat="41.860540" lon="-6.183570">
        <ele>914.619</ele>
        <time>2022-02-25T09:38:37Z</time>
      </trkpt>
      <trkpt lat="41.860740" lon="-6.183850">
        <ele>914.350</ele>
        <time>2022-02-25T09:39:17Z</time>
      </trkpt>
      <trkpt lat="41.860880" lon="-6.184070">
        <ele>915.054</ele>
        <time>2022-02-25T09:39:57Z</time>
      </trkpt>
      <trkpt lat="41.861100" lon="-6.184380">
        <ele>915.429</ele>
        <time>2022-02-25T09:40:37Z</time>
      </trkpt>
      <trkpt lat="41.861510" lon="-6.184970">
        <ele>912.247</ele>
        <time>2022-02-25T09:41:17Z</time>
      </trkpt>
      <trkpt lat="41.861770" lon="-6.185330">
        <ele>913.429</ele>
        <time>2022-02-25T09:41:57Z</time>
      </trkpt>
      <trkpt lat="41.862090" lon="-6.185790">
        <ele>915.121</ele>
        <time>2022-02-25T09:42:37Z</time>
      </trkpt>
      <trkpt lat="41.862170" lon="-6.185910">
        <ele>915.308</ele>
        <time>2022-02-25T09:43:17Z</time>
      </trkpt>
      <trkpt lat="41.862210" lon="-6.185970">
        <ele>915.623</ele>
        <time>2022-02-25T09:43:57Z</time>
      </trkpt>
      <trkpt lat="41.862330" lon="-6.186150">
        <ele>915.440</ele>
        <time>2022-02-25T09:44:37Z</time>
      </trkpt>
      <trkpt lat="41.862400" lon="-6.186240">
        <ele>915.014</ele>
        <time>2022-02-25T09:45:17Z</time>
      </trkpt>
      <trkpt lat="41.862460" lon="-6.186320">
        <ele>914.940</ele>
        <time>2022-02-25T09:45:57Z</time>
      </trkpt>
      <trkpt lat="41.862540" lon="-6.186440">
        <ele>914.427</ele>
        <time>2022-02-25T09:46:37Z</time>
      </trkpt>
      <trkpt lat="41.862580" lon="-6.186490">
        <ele>913.838</ele>
        <time>2022-02-25T09:47:17Z</time>
      </trkpt>
      <trkpt lat="41.862640" lon="-6.186570">
        <ele>913.352</ele>
        <time>2022-02-25T09:47:57Z</time>
      </trkpt>
      <trkpt lat="41.862710" lon="-6.186660">
        <ele>912.947</ele>
        <time>2022-02-25T09:48:37Z</time>
      </trkpt>
      <trkpt lat="41.862770" lon="-6.186730">
        <ele>912.694</ele>
        <time>2022-02-25T09:49:17Z</time>
      </trkpt>
      <trkpt lat="41.862850" lon="-6.186820">
        <ele>912.457</ele>
        <time>2022-02-25T09:49:57Z</time>
      </trkpt>
      <trkpt lat="41.862880" lon="-6.186870">
        <ele>912.522</ele>
        <time>2022-02-25T09:50:37Z</time>
      </trkpt>
      <trkpt lat="41.862980" lon="-6.186980">
        <ele>912.808</ele>
        <time>2022-02-25T09:51:17Z</time>
      </trkpt>
      <trkpt lat="41.863020" lon="-6.187020">
        <ele>912.848</ele>
        <time>2022-02-25T09:51:57Z</time>
      </trkpt>
      <trkpt lat="41.863130" lon="-6.187130">
        <ele>912.955</ele>
        <time>2022-02-25T09:52:37Z</time>
      </trkpt>
      <trkpt lat="41.863240" lon="-6.187250">
        <ele>913.769</ele>
        <time>2022-02-25T09:53:17Z</time>
      </trkpt>
      <trkpt lat="41.863270" lon="-6.187280">
        <ele>913.925</ele>
        <time>2022-02-25T09:53:57Z</time>
      </trkpt>
      <trkpt lat="41.863700" lon="-6.187710">
        <ele>914.612</ele>
        <time>2022-02-25T09:54:37Z</time>
      </trkpt>
      <trkpt lat="41.863760" lon="-6.187780">
        <ele>915.023</ele>
        <time>2022-02-25T09:55:17Z</time>
      </trkpt>
      <trkpt lat="41.863860" lon="-6.187880">
        <ele>915.457</ele>
        <time>2022-02-25T09:55:57Z</time>
      </trkpt>
      <trkpt lat="41.864150" lon="-6.188180">
        <ele>916.522</ele>
        <time>2022-02-25T09:56:37Z</time>
      </trkpt>
      <trkpt lat="41.864250" lon="-6.188280">
        <ele>916.963</ele>
        <time>2022-02-25T09:57:17Z</time>
      </trkpt>
      <trkpt lat="41.864560" lon="-6.188590">
        <ele>917.444</ele>
        <time>2022-02-25T09:57:57Z</time>
      </trkpt>
      <trkpt lat="41.864590" lon="-6.188620">
        <ele>917.618</ele>
        <time>2022-02-25T09:58:37Z</time>
      </trkpt>
      <trkpt lat="41.864730" lon="-6.188760">
        <ele>919.108</ele>
        <time>2022-02-25T09:59:17Z</time>
      </trkpt>
      <trkpt lat="41.864870" lon="-6.188910">
        <ele>920.215</ele>
        <time>2022-02-25T09:59:57Z</time>
      </trkpt>
      <trkpt lat="41.864940" lon="-6.188980">
        <ele>920.662</ele>
        <time>2022-02-25T10:00:37Z</time>
      </trkpt>
      <trkpt lat="41.865020" lon="-6.189050">
        <ele>920.456</ele>
        <time>2022-02-25T10:01:17Z</time>
      </trkpt>
      <trkpt lat="41.865170" lon="-6.189190">
        <ele>919.242</ele>
        <time>2022-02-25T10:01:57Z</time>
      </trkpt>
      <trkpt lat="41.865180" lon="-6.189200">
        <ele>919.169</ele>
        <time>2022-02-25T10:02:37Z</time>
      </trkpt>
      <trkpt lat="41.865260" lon="-6.189250">
        <ele>918.080</ele>
        <time>2022-02-25T10:03:17Z</time>
      </trkpt>
      <trkpt lat="41.865320" lon="-6.189280">
        <ele>917.244</ele>
        <time>2022-02-25T10:03:57Z</time>
      </trkpt>
      <trkpt lat="41.865330" lon="-6.189280">
        <ele>917.199</ele>
        <time>2022-02-25T10:04:37Z</time>
      </trkpt>
      <trkpt lat="41.865380" lon="-6.189300">
        <ele>916.542</ele>
        <time>2022-02-25T10:05:17Z</time>
      </trkpt>
      <trkpt lat="41.865460" lon="-6.189300">
        <ele>915.422</ele>
        <time>2022-02-25T10:05:57Z</time>
      </trkpt>
      <trkpt lat="41.865510" lon="-6.189300">
        <ele>914.614</ele>
        <time>2022-02-25T10:06:37Z</time>
      </trkpt>
      <trkpt lat="41.865540" lon="-6.189300">
        <ele>914.208</ele>
        <time>2022-02-25T10:07:17Z</time>
      </trkpt>
      <trkpt lat="41.865620" lon="-6.189290">
        <ele>914.533</ele>
        <time>2022-02-25T10:07:57Z</time>
      </trkpt>
      <trkpt lat="41.865680" lon="-6.189260">
        <ele>914.970</ele>
        <time>2022-02-25T10:08:37Z</time>
      </trkpt>
      <trkpt lat="41.865690" lon="-6.189260">
        <ele>915.084</ele>
        <time>2022-02-25T10:09:17Z</time>
      </trkpt>
      <trkpt lat="41.865760" lon="-6.189230">
        <ele>915.550</ele>
        <time>2022-02-25T10:09:57Z</time>
      </trkpt>
      <trkpt lat="41.865790" lon="-6.189200">
        <ele>915.747</ele>
        <time>2022-02-25T10:10:37Z</time>
      </trkpt>
      <trkpt lat="41.865820" lon="-6.189170">
        <ele>915.928</ele>
        <time>2022-02-25T10:11:17Z</time>
      </trkpt>
      <trkpt lat="41.865840" lon="-6.189150">
        <ele>916.172</ele>
        <time>2022-02-25T10:11:57Z</time>
      </trkpt>
      <trkpt lat="41.865870" lon="-6.189110">
        <ele>916.577</ele>
        <time>2022-02-25T10:12:37Z</time>
      </trkpt>
      <trkpt lat="41.865910" lon="-6.189010">
        <ele>916.932</ele>
        <time>2022-02-25T10:13:17Z</time>
      </trkpt>
      <trkpt lat="41.865940" lon="-6.188920">
        <ele>917.292</ele>
        <time>2022-02-25T10:13:57Z</time>
      </trkpt>
      <trkpt lat="41.865950" lon="-6.188850">
        <ele>917.311</ele>
        <time>2022-02-25T10:14:37Z</time>
      </trkpt>
      <trkpt lat="41.865940" lon="-6.188770">
        <ele>917.408</ele>
        <time>2022-02-25T10:15:17Z</time>
      </trkpt>
      <trkpt lat="41.865940" lon="-6.188700">
        <ele>917.692</ele>
        <time>2022-02-25T10:15:57Z</time>
      </trkpt>
      <trkpt lat="41.865940" lon="-6.188610">
        <ele>917.869</ele>
        <time>2022-02-25T10:16:37Z</time>
      </trkpt>
      <trkpt lat="41.865930" lon="-6.188460">
        <ele>918.893</ele>
        <time>2022-02-25T10:17:17Z</time>
      </trkpt>
      <trkpt lat="41.865930" lon="-6.188370">
        <ele>919.499</ele>
        <time>2022-02-25T10:17:57Z</time>
      </trkpt>
      <trkpt lat="41.865950" lon="-6.188270">
        <ele>920.376</ele>
        <time>2022-02-25T10:18:37Z</time>
      </trkpt>
      <trkpt lat="41.865970" lon="-6.188230">
        <ele>920.747</ele>
        <time>2022-02-25T10:19:17Z</time>
      </trkpt>
      <trkpt lat="41.865980" lon="-6.188180">
        <ele>921.251</ele>
        <time>2022-02-25T10:19:57Z</time>
      </trkpt>
      <trkpt lat="41.866040" lon="-6.188110">
        <ele>922.116</ele>
        <time>2022-02-25T10:20:37Z</time>
      </trkpt>
      <trkpt lat="41.866100" lon="-6.188060">
        <ele>922.988</ele>
        <time>2022-02-25T10:21:17Z</time>
      </trkpt>
      <trkpt lat="41.866170" lon="-6.188020">
        <ele>923.524</ele>
        <time>2022-02-25T10:21:57Z</time>
      </trkpt>
      <trkpt lat="41.866220" lon="-6.188010">
        <ele>923.926</ele>
        <time>2022-02-25T10:22:37Z</time>
      </trkpt>
      <trkpt lat="41.866290" lon="-6.188010">
        <ele>924.308</ele>
        <time>2022-02-25T10:23:17Z</time>
      </trkpt>
      <trkpt lat="41.866370" lon="-6.188010">
        <ele>924.997</ele>
        <time>2022-02-25T10:23:57Z</time>
      </trkpt>
      <trkpt lat="41.866440" lon="-6.188020">
        <ele>924.894</ele>
        <time>2022-02-25T10:24:37Z</time>
      </trkpt>
      <trkpt lat="41.866490" lon="-6.188040">
        <ele>924.688</ele>
        <time>2022-02-25T10:25:17Z</time>
      </trkpt>
      <trkpt lat="41.866550" lon="-6.188080">
        <ele>924.544</ele>
        <time>2022-02-25T10:25:57Z</time>
      </trkpt>
      <trkpt lat="41.866620" lon="-6.188130">
        <ele>924.641</ele>
        <time>2022-02-25T10:26:37Z</time>
      </trkpt>
      <trkpt lat="41.866640" lon="-6.188150">
        <ele>924.732</ele>
        <time>2022-02-25T10:27:17Z</time>
      </trkpt>
      <trkpt lat="41.867050" lon="-6.188480">
        <ele>927.846</ele>
        <time>2022-02-25T10:27:57Z</time>
      </trkpt>
      <trkpt lat="41.867080" lon="-6.188510">
        <ele>927.731</ele>
        <time>2022-02-25T10:28:37Z</time>
      </trkpt>
      <trkpt lat="41.867480" lon="-6.188830">
        <ele>930.169</ele>
        <time>2022-02-25T10:29:17Z</time>
      </trkpt>
      <trkpt lat="41.867700" lon="-6.189010">
        <ele>933.504</ele>
        <time>2022-02-25T10:29:57Z</time>
      </trkpt>
      <trkpt lat="41.867850" lon="-6.189140">
        <ele>935.124</ele>
        <time>2022-02-25T10:30:37Z</time>
      </trkpt>
      <trkpt lat="41.867960" lon="-6.189230">
        <ele>935.808</ele>
        <time>2022-02-25T10:31:17Z</time>
      </trkpt>
      <trkpt lat="41.868000" lon="-6.189270">
        <ele>936.485</ele>
        <time>2022-02-25T10:31:57Z</time>
      </trkpt>
      <trkpt lat="41.868140" lon="-6.189410">
        <ele>938.742</ele>
        <time>2022-02-25T10:32:37Z</time>
      </trkpt>
      <trkpt lat="41.868190" lon="-6.189460">
        <ele>939.246</ele>
        <time>2022-02-25T10:33:17Z</time>
      </trkpt>
      <trkpt lat="41.868400" lon="-6.189680">
        <ele>940.722</ele>
        <time>2022-02-25T10:33:57Z</time>
      </trkpt>
      <trkpt lat="41.868420" lon="-6.189710">
        <ele>940.919</ele>
        <time>2022-02-25T10:34:37Z</time>
      </trkpt>
      <trkpt lat="41.868480" lon="-6.189780">
        <ele>940.980</ele>
        <time>2022-02-25T10:35:17Z</time>
      </trkpt>
      <trkpt lat="41.868550" lon="-6.189880">
        <ele>941.214</ele>
        <time>2022-02-25T10:35:57Z</time>
      </trkpt>
      <trkpt lat="41.868560" lon="-6.189890">
        <ele>941.349</ele>
        <time>2022-02-25T10:36:37Z</time>
      </trkpt>
      <trkpt lat="41.868660" lon="-6.190060">
        <ele>942.234</ele>
        <time>2022-02-25T10:37:17Z</time>
      </trkpt>
      <trkpt lat="41.868780" lon="-6.190260">
        <ele>943.355</ele>
        <time>2022-02-25T10:37:57Z</time>
      </trkpt>
      <trkpt lat="41.868800" lon="-6.190310">
        <ele>943.710</ele>
        <time>2022-02-25T10:38:37Z</time>
      </trkpt>
      <trkpt lat="41.868880" lon="-6.190460">
        <ele>944.708</ele>
        <time>2022-02-25T10:39:17Z</time>
      </trkpt>
      <trkpt lat="41.869050" lon="-6.190760">
        <ele>945.292</ele>
        <time>2022-02-25T10:39:57Z</time>
      </trkpt>
      <trkpt lat="41.869180" lon="-6.191010">
        <ele>945.719</ele>
        <time>2022-02-25T10:40:37Z</time>
      </trkpt>
      <trkpt lat="41.869270" lon="-6.191170">
        <ele>945.843</ele>
        <time>2022-02-25T10:41:17Z</time>
      </trkpt>
      <trkpt lat="41.869340" lon="-6.191290">
        <ele>945.869</ele>
        <time>2022-02-25T10:41:57Z</time>
      </trkpt>
      <trkpt lat="41.869360" lon="-6.191330">
        <ele>945.956</ele>
        <time>2022-02-25T10:42:37Z</time>
      </trkpt>
      <trkpt lat="41.869390" lon="-6.191380">
        <ele>945.917</ele>
        <time>2022-02-25T10:43:17Z</time>
      </trkpt>
      <trkpt lat="41.869470" lon="-6.191500">
        <ele>946.681</ele>
        <time>2022-02-25T10:43:57Z</time>
      </trkpt>
      <trkpt lat="41.869570" lon="-6.191610">
        <ele>946.866</ele>
        <time>2022-02-25T10:44:37Z</time>
      </trkpt>
      <trkpt lat="41.869620" lon="-6.191670">
        <ele>946.956</ele>
        <time>2022-02-25T10:45:17Z</time>
      </trkpt>
      <trkpt lat="41.869750" lon="-6.191810">
        <ele>947.659</ele>
        <time>2022-02-25T10:45:57Z</time>
      </trkpt>
      <trkpt lat="41.869760" lon="-6.191820">
        <ele>947.614</ele>
        <time>2022-02-25T10:46:37Z</time>
      </trkpt>
      <trkpt lat="41.870030" lon="-6.192130">
        <ele>947.208</ele>
        <time>2022-02-25T10:47:17Z</time>
      </trkpt>
      <trkpt lat="41.870170" lon="-6.192290">
        <ele>947.094</ele>
        <time>2022-02-25T10:47:57Z</time>
      </trkpt>
      <trkpt lat="41.870440" lon="-6.192620">
        <ele>948.241</ele>
        <time>2022-02-25T10:48:37Z</time>
      </trkpt>
      <trkpt lat="41.870570" lon="-6.192780">
        <ele>948.855</ele>
        <time>2022-02-25T10:49:17Z</time>
      </trkpt>
      <trkpt lat="41.870640" lon="-6.192850">
        <ele>949.541</ele>
        <time>2022-02-25T10:49:57Z</time>
      </trkpt>
      <trkpt lat="41.870700" lon="-6.192930">
        <ele>950.278</ele>
        <time>2022-02-25T10:50:37Z</time>
      </trkpt>
      <trkpt lat="41.870980" lon="-6.193250">
        <ele>951.279</ele>
        <time>2022-02-25T10:51:17Z</time>
      </trkpt>
      <trkpt lat="41.871140" lon="-6.193440">
        <ele>952.473</ele>
        <time>2022-02-25T10:51:57Z</time>
      </trkpt>
      <trkpt lat="41.871250" lon="-6.193560">
        <ele>953.538</ele>
        <time>2022-02-25T10:52:37Z</time>
      </trkpt>
      <trkpt lat="41.871530" lon="-6.193870">
        <ele>954.274</ele>
        <time>2022-02-25T10:53:17Z</time>
      </trkpt>
      <trkpt lat="41.871610" lon="-6.193960">
        <ele>954.356</ele>
        <time>2022-02-25T10:53:57Z</time>
      </trkpt>
      <trkpt lat="41.871670" lon="-6.194020">
        <ele>954.321</ele>
        <time>2022-02-25T10:54:37Z</time>
      </trkpt>
      <trkpt lat="41.871810" lon="-6.194180">
        <ele>954.708</ele>
        <time>2022-02-25T10:55:17Z</time>
      </trkpt>
      <trkpt lat="41.871930" lon="-6.194310">
        <ele>955.496</ele>
        <time>2022-02-25T10:55:57Z</time>
      </trkpt>
      <trkpt lat="41.872260" lon="-6.194670">
        <ele>955.333</ele>
        <time>2022-02-25T10:56:37Z</time>
      </trkpt>
      <trkpt lat="41.872460" lon="-6.194930">
        <ele>953.677</ele>
        <time>2022-02-25T10:57:17Z</time>
      </trkpt>
      <trkpt lat="41.872640" lon="-6.195180">
        <ele>953.953</ele>
        <time>2022-02-25T10:57:57Z</time>
      </trkpt>
      <trkpt lat="41.872720" lon="-6.195270">
        <ele>953.970</ele>
        <time>2022-02-25T10:58:37Z</time>
      </trkpt>
      <trkpt lat="41.872970" lon="-6.195610">
        <ele>958.381</ele>
        <time>2022-02-25T10:59:17Z</time>
      </trkpt>
      <trkpt lat="41.873010" lon="-6.195660">
        <ele>958.665</ele>
        <time>2022-02-25T10:59:57Z</time>
      </trkpt>
      <trkpt lat="41.873330" lon="-6.196120">
        <ele>959.290</ele>
        <time>2022-02-25T11:00:37Z</time>
      </trkpt>
      <trkpt lat="41.873640" lon="-6.196540">
        <ele>961.549</ele>
        <time>2022-02-25T11:01:17Z</time>
      </trkpt>
      <trkpt lat="41.873930" lon="-6.196960">
        <ele>965.702</ele>
        <time>2022-02-25T11:01:57Z</time>
      </trkpt>
      <trkpt lat="41.873970" lon="-6.197010">
        <ele>966.122</ele>
        <time>2022-02-25T11:02:37Z</time>
      </trkpt>
      <trkpt lat="41.874090" lon="-6.197180">
        <ele>967.008</ele>
        <time>2022-02-25T11:03:17Z</time>
      </trkpt>
      <trkpt lat="41.874310" lon="-6.197460">
        <ele>965.553</ele>
        <time>2022-02-25T11:03:57Z</time>
      </trkpt>
      <trkpt lat="41.874660" lon="-6.197940">
        <ele>965.240</ele>
        <time>2022-02-25T11:04:37Z</time>
      </trkpt>
      <trkpt lat="41.874850" lon="-6.198210">
        <ele>965.764</ele>
        <time>2022-02-25T11:05:17Z</time>
      </trkpt>
      <trkpt lat="41.874980" lon="-6.198390">
        <ele>965.260</ele>
        <time>2022-02-25T11:05:57Z</time>
      </trkpt>
      <trkpt lat="41.875100" lon="-6.198560">
        <ele>966.347</ele>
        <time>2022-02-25T11:06:37Z</time>
      </trkpt>
      <trkpt lat="41.875130" lon="-6.198620">
        <ele>966.748</ele>
        <time>2022-02-25T11:07:17Z</time>
      </trkpt>
      <trkpt lat="41.875190" lon="-6.198730">
        <ele>966.952</ele>
        <time>2022-02-25T11:07:57Z</time>
      </trkpt>
      <trkpt lat="41.875220" lon="-6.198810">
        <ele>967.217</ele>
        <time>2022-02-25T11:08:37Z</time>
      </trkpt>
      <trkpt lat="41.875270" lon="-6.198920">
        <ele>967.521</ele>
        <time>2022-02-25T11:09:17Z</time>
      </trkpt>
      <trkpt lat="41.875330" lon="-6.199100">
        <ele>968.541</ele>
        <time>2022-02-25T11:09:57Z</time>
      </trkpt>
      <trkpt lat="41.875440" lon="-6.199400">
        <ele>969.605</ele>
        <time>2022-02-25T11:10:37Z</time>
      </trkpt>
      <trkpt lat="41.875520" lon="-6.199630">
        <ele>970.108</ele>
        <time>2022-02-25T11:11:17Z</time>
      </trkpt>
      <trkpt lat="41.875560" lon="-6.199760">
        <ele>970.471</ele>
        <time>2022-02-25T11:11:57Z</time>
      </trkpt>
      <trkpt lat="41.875590" lon="-6.199850">
        <ele>971.148</ele>
        <time>2022-02-25T11:12:37Z</time>
      </trkpt>
      <trkpt lat="41.875710" lon="-6.200200">
        <ele>973.162</ele>
        <time>2022-02-25T11:13:17Z</time>
      </trkpt>
      <trkpt lat="41.875890" lon="-6.200730">
        <ele>974.778</ele>
        <time>2022-02-25T11:13:57Z</time>
      </trkpt>
      <trkpt lat="41.875930" lon="-6.200850">
        <ele>975.145</ele>
        <time>2022-02-25T11:14:37Z</time>
      </trkpt>
      <trkpt lat="41.875960" lon="-6.200950">
        <ele>975.576</ele>
        <time>2022-02-25T11:15:17Z</time>
      </trkpt>
      <trkpt lat="41.876060" lon="-6.201260">
        <ele>976.490</ele>
        <time>2022-02-25T11:15:57Z</time>
      </trkpt>
      <trkpt lat="41.876260" lon="-6.201830">
        <ele>975.715</ele>
        <time>2022-02-25T11:16:37Z</time>
      </trkpt>
      <trkpt lat="41.876280" lon="-6.201900">
        <ele>975.727</ele>
        <time>2022-02-25T11:17:17Z</time>
      </trkpt>
      <trkpt lat="41.876330" lon="-6.202050">
        <ele>975.968</ele>
        <time>2022-02-25T11:17:57Z</time>
      </trkpt>
      <trkpt lat="41.876390" lon="-6.202220">
        <ele>976.014</ele>
        <time>2022-02-25T11:18:37Z</time>
      </trkpt>
      <trkpt lat="41.876410" lon="-6.202270">
        <ele>976.308</ele>
        <time>2022-02-25T11:19:17Z</time>
      </trkpt>
      <trkpt lat="41.876480" lon="-6.202450">
        <ele>976.961</ele>
        <time>2022-02-25T11:19:57Z</time>
      </trkpt>
      <trkpt lat="41.876550" lon="-6.202630">
        <ele>977.888</ele>
        <time>2022-02-25T11:20:37Z</time>
      </trkpt>
      <trkpt lat="41.876570" lon="-6.202690">
        <ele>978.242</ele>
        <time>2022-02-25T11:21:17Z</time>
      </trkpt>
      <trkpt lat="41.876600" lon="-6.202750">
        <ele>978.698</ele>
        <time>2022-02-25T11:21:57Z</time>
      </trkpt>
      <trkpt lat="41.876670" lon="-6.202900">
        <ele>979.725</ele>
        <time>2022-02-25T11:22:37Z</time>
      </trkpt>
      <trkpt lat="41.876860" lon="-6.203230">
        <ele>982.986</ele>
        <time>2022-02-25T11:23:17Z</time>
      </trkpt>
      <trkpt lat="41.877230" lon="-6.203850">
        <ele>986.340</ele>
        <time>2022-02-25T11:23:57Z</time>
      </trkpt>
      <trkpt lat="41.877250" lon="-6.203880">
        <ele>986.585</ele>
        <time>2022-02-25T11:24:37Z</time>
      </trkpt>
      <trkpt lat="41.877340" lon="-6.204040">
        <ele>986.412</ele>
        <time>2022-02-25T11:25:17Z</time>
      </trkpt>
      <trkpt lat="41.877540" lon="-6.204390">
        <ele>986.332</ele>
        <time>2022-02-25T11:25:57Z</time>
      </trkpt>
      <trkpt lat="41.877560" lon="-6.204420">
        <ele>986.405</ele>
        <time>2022-02-25T11:26:37Z</time>
      </trkpt>
      <trkpt lat="41.877670" lon="-6.204610">
        <ele>987.808</ele>
        <time>2022-02-25T11:27:17Z</time>
      </trkpt>
      <trkpt lat="41.877890" lon="-6.204970">
        <ele>990.060</ele>
        <time>2022-02-25T11:27:57Z</time>
      </trkpt>
      <trkpt lat="41.878270" lon="-6.205600">
        <ele>989.677</ele>
        <time>2022-02-25T11:28:37Z</time>
      </trkpt>
      <trkpt lat="41.878350" lon="-6.205740">
        <ele>990.221</ele>
        <time>2022-02-25T11:29:17Z</time>
      </trkpt>
      <trkpt lat="41.878610" lon="-6.206180">
        <ele>990.537</ele>
        <time>2022-02-25T11:29:57Z</time>
      </trkpt>
      <trkpt lat="41.878910" lon="-6.206680">
        <ele>993.074</ele>
        <time>2022-02-25T11:30:37Z</time>
      </trkpt>
      <trkpt lat="41.878930" lon="-6.206720">
        <ele>993.085</ele>
        <time>2022-02-25T11:31:17Z</time>
      </trkpt>
      <trkpt lat="41.879020" lon="-6.206870">
        <ele>992.989</ele>
        <time>2022-02-25T11:31:57Z</time>
      </trkpt>
      <trkpt lat="41.879130" lon="-6.207060">
        <ele>992.784</ele>
        <time>2022-02-25T11:32:37Z</time>
      </trkpt>
      <trkpt lat="41.879240" lon="-6.207250">
        <ele>992.928</ele>
        <time>2022-02-25T11:33:17Z</time>
      </trkpt>
      <trkpt lat="41.879260" lon="-6.207270">
        <ele>993.089</ele>
        <time>2022-02-25T11:33:57Z</time>
      </trkpt>
      <trkpt lat="41.879590" lon="-6.207850">
        <ele>996.517</ele>
        <time>2022-02-25T11:34:37Z</time>
      </trkpt>
      <trkpt lat="41.880100" lon="-6.208700">
        <ele>999.008</ele>
        <time>2022-02-25T11:35:17Z</time>
      </trkpt>
      <trkpt lat="41.880370" lon="-6.209140">
        <ele>1000.531</ele>
        <time>2022-02-25T11:35:57Z</time>
      </trkpt>
      <trkpt lat="41.880480" lon="-6.209330">
        <ele>1000.928</ele>
        <time>2022-02-25T11:36:37Z</time>
      </trkpt>
      <trkpt lat="41.880980" lon="-6.210150">
        <ele>1002.372</ele>
        <time>2022-02-25T11:37:17Z</time>
      </trkpt>
      <trkpt lat="41.881050" lon="-6.210270">
        <ele>1002.278</ele>
        <time>2022-02-25T11:37:57Z</time>
      </trkpt>
      <trkpt lat="41.881090" lon="-6.210320">
        <ele>1002.255</ele>
        <time>2022-02-25T11:38:37Z</time>
      </trkpt>
      <trkpt lat="41.881340" lon="-6.210680">
        <ele>1001.466</ele>
        <time>2022-02-25T11:39:17Z</time>
      </trkpt>
      <trkpt lat="41.881350" lon="-6.210690">
        <ele>1001.340</ele>
        <time>2022-02-25T11:39:57Z</time>
      </trkpt>
      <trkpt lat="41.881580" lon="-6.211030">
        <ele>998.965</ele>
        <time>2022-02-25T11:40:37Z</time>
      </trkpt>
      <trkpt lat="41.881790" lon="-6.211320">
        <ele>998.851</ele>
        <time>2022-02-25T11:41:17Z</time>
      </trkpt>
      <trkpt lat="41.882250" lon="-6.211950">
        <ele>993.801</ele>
        <time>2022-02-25T11:41:57Z</time>
      </trkpt>
      <trkpt lat="41.882460" lon="-6.212250">
        <ele>992.611</ele>
        <time>2022-02-25T11:42:37Z</time>
      </trkpt>
      <trkpt lat="41.882570" lon="-6.212410">
        <ele>991.408</ele>
        <time>2022-02-25T11:43:17Z</time>
      </trkpt>
      <trkpt lat="41.882580" lon="-6.212420">
        <ele>991.354</ele>
        <time>2022-02-25T11:43:57Z</time>
      </trkpt>
      <trkpt lat="41.882860" lon="-6.212790">
        <ele>989.911</ele>
        <time>2022-02-25T11:44:37Z</time>
      </trkpt>
      <trkpt lat="41.882960" lon="-6.212930">
        <ele>989.535</ele>
        <time>2022-02-25T11:45:17Z</time>
      </trkpt>
      <trkpt lat="41.883080" lon="-6.213090">
        <ele>989.091</ele>
        <time>2022-02-25T11:45:57Z</time>
      </trkpt>
      <trkpt lat="41.883450" lon="-6.213570">
        <ele>987.198</ele>
        <time>2022-02-25T11:46:37Z</time>
      </trkpt>
      <trkpt lat="41.883600" lon="-6.213780">
        <ele>986.469</ele>
        <time>2022-02-25T11:47:17Z</time>
      </trkpt>
      <trkpt lat="41.883640" lon="-6.213820">
        <ele>986.013</ele>
        <time>2022-02-25T11:47:57Z</time>
      </trkpt>
      <trkpt lat="41.883710" lon="-6.213910">
        <ele>985.248</ele>
        <time>2022-02-25T11:48:37Z</time>
      </trkpt>
      <trkpt lat="41.883750" lon="-6.213960">
        <ele>984.648</ele>
        <time>2022-02-25T11:49:17Z</time>
      </trkpt>
      <trkpt lat="41.883810" lon="-6.214000">
        <ele>983.761</ele>
        <time>2022-02-25T11:49:57Z</time>
      </trkpt>
      <trkpt lat="41.883870" lon="-6.214040">
        <ele>982.817</ele>
        <time>2022-02-25T11:50:37Z</time>
      </trkpt>
      <trkpt lat="41.883930" lon="-6.214070">
        <ele>982.308</ele>
        <time>2022-02-25T11:51:17Z</time>
      </trkpt>
      <trkpt lat="41.883980" lon="-6.214080">
        <ele>981.973</ele>
        <time>2022-02-25T11:51:57Z</time>
      </trkpt>
      <trkpt lat="41.884030" lon="-6.214090">
        <ele>981.640</ele>
        <time>2022-02-25T11:52:37Z</time>
      </trkpt>
      <trkpt lat="41.884070" lon="-6.214100">
        <ele>981.334</ele>
        <time>2022-02-25T11:53:17Z</time>
      </trkpt>
      <trkpt lat="41.884110" lon="-6.214100">
        <ele>981.050</ele>
        <time>2022-02-25T11:53:57Z</time>
      </trkpt>
      <trkpt lat="41.884160" lon="-6.214110">
        <ele>980.697</ele>
        <time>2022-02-25T11:54:37Z</time>
      </trkpt>
      <trkpt lat="41.884220" lon="-6.214110">
        <ele>980.818</ele>
        <time>2022-02-25T11:55:17Z</time>
      </trkpt>
      <trkpt lat="41.884250" lon="-6.214100">
        <ele>980.822</ele>
        <time>2022-02-25T11:55:57Z</time>
      </trkpt>
      <trkpt lat="41.884280" lon="-6.214100">
        <ele>980.977</ele>
        <time>2022-02-25T11:56:37Z</time>
      </trkpt>
      <trkpt lat="41.884330" lon="-6.214090">
        <ele>981.075</ele>
        <time>2022-02-25T11:57:17Z</time>
      </trkpt>
      <trkpt lat="41.884380" lon="-6.214070">
        <ele>981.128</ele>
        <time>2022-02-25T11:57:57Z</time>
      </trkpt>
      <trkpt lat="41.884430" lon="-6.214050">
        <ele>981.120</ele>
        <time>2022-02-25T11:58:37Z</time>
      </trkpt>
      <trkpt lat="41.884500" lon="-6.214010">
        <ele>981.908</ele>
        <time>2022-02-25T11:59:17Z</time>
      </trkpt>
      <trkpt lat="41.884560" lon="-6.213970">
        <ele>982.776</ele>
        <time>2022-02-25T11:59:57Z</time>
      </trkpt>
      <trkpt lat="41.884590" lon="-6.213940">
        <ele>983.083</ele>
        <time>2022-02-25T12:00:37Z</time>
      </trkpt>
      <trkpt lat="41.884690" lon="-6.213830">
        <ele>983.877</ele>
        <time>2022-02-25T12:01:17Z</time>
      </trkpt>
      <trkpt lat="41.884730" lon="-6.213790">
        <ele>984.173</ele>
        <time>2022-02-25T12:01:57Z</time>
      </trkpt>
      <trkpt lat="41.884880" lon="-6.213650">
        <ele>985.390</ele>
        <time>2022-02-25T12:02:37Z</time>
      </trkpt>
      <trkpt lat="41.884920" lon="-6.213620">
        <ele>985.721</ele>
        <time>2022-02-25T12:03:17Z</time>
      </trkpt>
      <trkpt lat="41.885020" lon="-6.213510">
        <ele>985.345</ele>
        <time>2022-02-25T12:03:57Z</time>
      </trkpt>
      <trkpt lat="41.885170" lon="-6.213370">
        <ele>983.920</ele>
        <time>2022-02-25T12:04:37Z</time>
      </trkpt>
      <trkpt lat="41.885290" lon="-6.213260">
        <ele>982.787</ele>
        <time>2022-02-25T12:05:17Z</time>
      </trkpt>
      <trkpt lat="41.885310" lon="-6.213230">
        <ele>982.342</ele>
        <time>2022-02-25T12:05:57Z</time>
      </trkpt>
      <trkpt lat="41.885630" lon="-6.212900">
        <ele>979.726</ele>
        <time>2022-02-25T12:06:37Z</time>
      </trkpt>
      <trkpt lat="41.885740" lon="-6.212790">
        <ele>979.208</ele>
        <time>2022-02-25T12:07:17Z</time>
      </trkpt>
      <trkpt lat="41.885890" lon="-6.212650">
        <ele>978.077</ele>
        <time>2022-02-25T12:07:57Z</time>
      </trkpt>
      <trkpt lat="41.885930" lon="-6.212610">
        <ele>977.594</ele>
        <time>2022-02-25T12:08:37Z</time>
      </trkpt>
      <trkpt lat="41.886040" lon="-6.212510">
        <ele>976.058</ele>
        <time>2022-02-25T12:09:17Z</time>
      </trkpt>
      <trkpt lat="41.886180" lon="-6.212370">
        <ele>975.334</ele>
        <time>2022-02-25T12:09:57Z</time>
      </trkpt>
      <trkpt lat="41.886290" lon="-6.212270">
        <ele>975.421</ele>
        <time>2022-02-25T12:10:37Z</time>
      </trkpt>
      <trkpt lat="41.886330" lon="-6.212230">
        <ele>975.462</ele>
        <time>2022-02-25T12:11:17Z</time>
      </trkpt>
      <trkpt lat="41.886620" lon="-6.211940">
        <ele>971.986</ele>
        <time>2022-02-25T12:11:57Z</time>
      </trkpt>
      <trkpt lat="41.886740" lon="-6.211820">
        <ele>969.651</ele>
        <time>2022-02-25T12:12:37Z</time>
      </trkpt>
      <trkpt lat="41.886890" lon="-6.211680">
        <ele>967.285</ele>
        <time>2022-02-25T12:13:17Z</time>
      </trkpt>
      <trkpt lat="41.887140" lon="-6.211450">
        <ele>965.189</ele>
        <time>2022-02-25T12:13:57Z</time>
      </trkpt>
      <trkpt lat="41.887500" lon="-6.211110">
        <ele>965.017</ele>
        <time>2022-02-25T12:14:37Z</time>
      </trkpt>
      <trkpt lat="41.888050" lon="-6.210570">
        <ele>957.108</ele>
        <time>2022-02-25T12:15:17Z</time>
      </trkpt>
      <trkpt lat="41.888310" lon="-6.210320">
        <ele>956.267</ele>
        <time>2022-02-25T12:15:57Z</time>
      </trkpt>
      <trkpt lat="41.888400" lon="-6.210220">
        <ele>955.614</ele>
        <time>2022-02-25T12:16:37Z</time>
      </trkpt>
      <trkpt lat="41.888470" lon="-6.210140">
        <ele>955.088</ele>
        <time>2022-02-25T12:17:17Z</time>
      </trkpt>
      <trkpt lat="41.888560" lon="-6.210020">
        <ele>954.314</ele>
        <time>2022-02-25T12:17:57Z</time>
      </trkpt>
      <trkpt lat="41.888690" lon="-6.209830">
        <ele>953.031</ele>
        <time>2022-02-25T12:18:37Z</time>
      </trkpt>
      <trkpt lat="41.889090" lon="-6.209180">
        <ele>947.132</ele>
        <time>2022-02-25T12:19:17Z</time>
      </trkpt>
      <trkpt lat="41.889280" lon="-6.208860">
        <ele>945.766</ele>
        <time>2022-02-25T12:19:57Z</time>
      </trkpt>
      <trkpt lat="41.889370" lon="-6.208710">
        <ele>945.331</ele>
        <time>2022-02-25T12:20:37Z</time>
      </trkpt>
      <trkpt lat="41.889770" lon="-6.208050">
        <ele>941.665</ele>
        <time>2022-02-25T12:21:17Z</time>
      </trkpt>
      <trkpt lat="41.889880" lon="-6.207870">
        <ele>940.668</ele>
        <time>2022-02-25T12:21:57Z</time>
      </trkpt>
      <trkpt lat="41.890510" lon="-6.206830">
        <ele>936.614</ele>
        <time>2022-02-25T12:22:37Z</time>
      </trkpt>
      <trkpt lat="41.890560" lon="-6.206740">
        <ele>936.208</ele>
        <time>2022-02-25T12:23:17Z</time>
      </trkpt>
      <trkpt lat="41.890920" lon="-6.206160">
        <ele>933.485</ele>
        <time>2022-02-25T12:23:57Z</time>
      </trkpt>
      <trkpt lat="41.891340" lon="-6.205450">
        <ele>931.562</ele>
        <time>2022-02-25T12:24:37Z</time>
      </trkpt>
      <trkpt lat="41.891410" lon="-6.205340">
        <ele>931.626</ele>
        <time>2022-02-25T12:25:17Z</time>
      </trkpt>
      <trkpt lat="41.891560" lon="-6.205120">
        <ele>931.122</ele>
        <time>2022-02-25T12:25:57Z</time>
      </trkpt>
      <trkpt lat="41.891680" lon="-6.204910">
        <ele>930.589</ele>
        <time>2022-02-25T12:26:37Z</time>
      </trkpt>
      <trkpt lat="41.891770" lon="-6.204790">
        <ele>929.420</ele>
        <time>2022-02-25T12:27:17Z</time>
      </trkpt>
      <trkpt lat="41.891870" lon="-6.204680">
        <ele>928.544</ele>
        <time>2022-02-25T12:27:57Z</time>
      </trkpt>
      <trkpt lat="41.891960" lon="-6.204580">
        <ele>927.979</ele>
        <time>2022-02-25T12:28:37Z</time>
      </trkpt>
      <trkpt lat="41.891970" lon="-6.204570">
        <ele>927.946</ele>
        <time>2022-02-25T12:29:17Z</time>
      </trkpt>
      <trkpt lat="41.892110" lon="-6.204450">
        <ele>927.488</ele>
        <time>2022-02-25T12:29:57Z</time>
      </trkpt>
      <trkpt lat="41.892200" lon="-6.204370">
        <ele>927.116</ele>
        <time>2022-02-25T12:30:37Z</time>
      </trkpt>
      <trkpt lat="41.892610" lon="-6.204010">
        <ele>924.908</ele>
        <time>2022-02-25T12:31:17Z</time>
      </trkpt>
      <trkpt lat="41.892830" lon="-6.203830">
        <ele>923.833</ele>
        <time>2022-02-25T12:31:57Z</time>
      </trkpt>
      <trkpt lat="41.892940" lon="-6.203720">
        <ele>923.430</ele>
        <time>2022-02-25T12:32:37Z</time>
      </trkpt>
      <trkpt lat="41.893090" lon="-6.203590">
        <ele>922.644</ele>
        <time>2022-02-25T12:33:17Z</time>
      </trkpt>
      <trkpt lat="41.893260" lon="-6.203450">
        <ele>920.890</ele>
        <time>2022-02-25T12:33:57Z</time>
      </trkpt>
      <trkpt lat="41.893400" lon="-6.203330">
        <ele>919.577</ele>
        <time>2022-02-25T12:34:37Z</time>
      </trkpt>
      <trkpt lat="41.893550" lon="-6.203200">
        <ele>919.378</ele>
        <time>2022-02-25T12:35:17Z</time>
      </trkpt>
      <trkpt lat="41.893700" lon="-6.203070">
        <ele>919.022</ele>
        <time>2022-02-25T12:35:57Z</time>
      </trkpt>
      <trkpt lat="41.894340" lon="-6.202530">
        <ele>915.427</ele>
        <time>2022-02-25T12:36:37Z</time>
      </trkpt>
      <trkpt lat="41.894400" lon="-6.202480">
        <ele>915.185</ele>
        <time>2022-02-25T12:37:17Z</time>
      </trkpt>
      <trkpt lat="41.894530" lon="-6.202370">
        <ele>914.289</ele>
        <time>2022-02-25T12:37:57Z</time>
      </trkpt>
      <trkpt lat="41.894680" lon="-6.202230">
        <ele>913.217</ele>
        <time>2022-02-25T12:38:37Z</time>
      </trkpt>
      <trkpt lat="41.894830" lon="-6.202110">
        <ele>912.408</ele>
        <time>2022-02-25T12:39:17Z</time>
      </trkpt>
      <trkpt lat="41.895010" lon="-6.202000">
        <ele>912.047</ele>
        <time>2022-02-25T12:39:57Z</time>
      </trkpt>
      <trkpt lat="41.895180" lon="-6.201910">
        <ele>911.314</ele>
        <time>2022-02-25T12:40:37Z</time>
      </trkpt>
      <trkpt lat="41.895210" lon="-6.201890">
        <ele>911.228</ele>
        <time>2022-02-25T12:41:17Z</time>
      </trkpt>
      <trkpt lat="41.895720" lon="-6.201640">
        <ele>909.694</ele>
        <time>2022-02-25T12:41:57Z</time>
      </trkpt>
      <trkpt lat="41.895820" lon="-6.201590">
        <ele>909.631</ele>
        <time>2022-02-25T12:42:37Z</time>
      </trkpt>
      <trkpt lat="41.895890" lon="-6.201560">
        <ele>909.932</ele>
        <time>2022-02-25T12:43:17Z</time>
      </trkpt>
      <trkpt lat="41.896430" lon="-6.201280">
        <ele>909.496</ele>
        <time>2022-02-25T12:43:57Z</time>
      </trkpt>
      <trkpt lat="41.896610" lon="-6.201180">
        <ele>908.371</ele>
        <time>2022-02-25T12:44:37Z</time>
      </trkpt>
      <trkpt lat="41.896740" lon="-6.201090">
        <ele>907.894</ele>
        <time>2022-02-25T12:45:17Z</time>
      </trkpt>
      <trkpt lat="41.896770" lon="-6.201060">
        <ele>907.757</ele>
        <time>2022-02-25T12:45:57Z</time>
      </trkpt>
      <trkpt lat="41.897310" lon="-6.200580">
        <ele>907.022</ele>
        <time>2022-02-25T12:46:37Z</time>
      </trkpt>
      <trkpt lat="41.897580" lon="-6.200350">
        <ele>904.808</ele>
        <time>2022-02-25T12:47:17Z</time>
      </trkpt>
      <trkpt lat="41.897760" lon="-6.200180">
        <ele>904.128</ele>
        <time>2022-02-25T12:47:57Z</time>
      </trkpt>
      <trkpt lat="41.898220" lon="-6.199770">
        <ele>904.375</ele>
        <time>2022-02-25T12:48:37Z</time>
      </trkpt>
      <trkpt lat="41.898250" lon="-6.199730">
        <ele>904.339</ele>
        <time>2022-02-25T12:49:17Z</time>
      </trkpt>
      <trkpt lat="41.898280" lon="-6.199700">
        <ele>904.255</ele>
        <time>2022-02-25T12:49:57Z</time>
      </trkpt>
      <trkpt lat="41.898310" lon="-6.199670">
        <ele>904.182</ele>
        <time>2022-02-25T12:50:37Z</time>
      </trkpt>
      <trkpt lat="41.898330" lon="-6.199640">
        <ele>904.083</ele>
        <time>2022-02-25T12:51:17Z</time>
      </trkpt>
      <trkpt lat="41.898400" lon="-6.199550">
        <ele>903.527</ele>
        <time>2022-02-25T12:51:57Z</time>
      </trkpt>
      <trkpt lat="41.898450" lon="-6.199490">
        <ele>903.262</ele>
        <time>2022-02-25T12:52:37Z</time>
      </trkpt>
      <trkpt lat="41.898460" lon="-6.199470">
        <ele>903.149</ele>
        <time>2022-02-25T12:53:17Z</time>
      </trkpt>
      <trkpt lat="41.898490" lon="-6.199420">
        <ele>902.802</ele>
        <time>2022-02-25T12:53:57Z</time>
      </trkpt>
      <trkpt lat="41.898488" lon="-6.199425">
        <ele>902.822</ele>
        <time>2022-02-25T12:54:37Z</time>
      </trkpt>
      <trkpt lat="41.898550" lon="-6.199610">
        <ele>902.408</ele>
        <time>2022-02-25T12:55:17Z</time>
      </trkpt>
      <trkpt lat="41.898560" lon="-6.199640">
        <ele>902.413</ele>
        <time>2022-02-25T12:55:57Z</time>
      </trkpt>
      <trkpt lat="41.898570" lon="-6.199700">
        <ele>902.380</ele>
        <time>2022-02-25T12:56:37Z</time>
      </trkpt>
      <trkpt lat="41.898570" lon="-6.199760">
        <ele>902.354</ele>
        <time>2022-02-25T12:57:17Z</time>
      </trkpt>
      <trkpt lat="41.898580" lon="-6.199810">
        <ele>902.290</ele>
        <time>2022-02-25T12:57:57Z</time>
      </trkpt>
      <trkpt lat="41.898580" lon="-6.199850">
        <ele>902.217</ele>
        <time>2022-02-25T12:58:37Z</time>
      </trkpt>
      <trkpt lat="41.898590" lon="-6.200060">
        <ele>902.158</ele>
        <time>2022-02-25T12:59:17Z</time>
      </trkpt>
      <trkpt lat="41.898600" lon="-6.200200">
        <ele>902.142</ele>
        <time>2022-02-25T12:59:57Z</time>
      </trkpt>
      <trkpt lat="41.898610" lon="-6.200350">
        <ele>901.757</ele>
        <time>2022-02-25T13:00:37Z</time>
      </trkpt>
      <trkpt lat="41.898620" lon="-6.200420">
        <ele>901.433</ele>
        <time>2022-02-25T13:01:17Z</time>
      </trkpt>
      <trkpt lat="41.898640" lon="-6.200550">
        <ele>900.723</ele>
        <time>2022-02-25T13:01:57Z</time>
      </trkpt>
      <trkpt lat="41.898700" lon="-6.200890">
        <ele>899.915</ele>
        <time>2022-02-25T13:02:37Z</time>
      </trkpt>
      <trkpt lat="41.898720" lon="-6.200990">
        <ele>899.508</ele>
        <time>2022-02-25T13:03:17Z</time>
      </trkpt>
      <trkpt lat="41.898740" lon="-6.201130">
        <ele>899.112</ele>
        <time>2022-02-25T13:03:57Z</time>
      </trkpt>
      <trkpt lat="41.898810" lon="-6.201530">
        <ele>898.669</ele>
        <time>2022-02-25T13:04:37Z</time>
      </trkpt>
      <trkpt lat="41.898820" lon="-6.201600">
        <ele>898.533</ele>
        <time>2022-02-25T13:05:17Z</time>
      </trkpt>
      <trkpt lat="41.898870" lon="-6.201840">
        <ele>898.119</ele>
        <time>2022-02-25T13:05:57Z</time>
      </trkpt>
      <trkpt lat="41.898910" lon="-6.202070">
        <ele>897.916</ele>
        <time>2022-02-25T13:06:37Z</time>
      </trkpt>
      <trkpt lat="41.898920" lon="-6.202150">
        <ele>897.947</ele>
        <time>2022-02-25T13:07:17Z</time>
      </trkpt>
      <trkpt lat="41.898960" lon="-6.202400">
        <ele>897.981</ele>
        <time>2022-02-25T13:07:57Z</time>
      </trkpt>
      <trkpt lat="41.899000" lon="-6.202700">
        <ele>898.086</ele>
        <time>2022-02-25T13:08:37Z</time>
      </trkpt>
      <trkpt lat="41.899010" lon="-6.202780">
        <ele>898.072</ele>
        <time>2022-02-25T13:09:17Z</time>
      </trkpt>
      <trkpt lat="41.899030" lon="-6.202860">
        <ele>897.713</ele>
        <time>2022-02-25T13:09:57Z</time>
      </trkpt>
      <trkpt lat="41.899050" lon="-6.202950">
        <ele>897.414</ele>
        <time>2022-02-25T13:10:37Z</time>
      </trkpt>
      <trkpt lat="41.899070" lon="-6.203010">
        <ele>897.208</ele>
        <time>2022-02-25T13:11:17Z</time>
      </trkpt>
      <trkpt lat="41.899080" lon="-6.203040">
        <ele>897.176</ele>
        <time>2022-02-25T13:11:57Z</time>
      </trkpt>
      <trkpt lat="41.899130" lon="-6.203160">
        <ele>897.023</ele>
        <time>2022-02-25T13:12:37Z</time>
      </trkpt>
      <trkpt lat="41.899170" lon="-6.203230">
        <ele>897.057</ele>
        <time>2022-02-25T13:13:17Z</time>
      </trkpt>
      <trkpt lat="41.899210" lon="-6.203290">
        <ele>897.063</ele>
        <time>2022-02-25T13:13:57Z</time>
      </trkpt>
      <trkpt lat="41.899300" lon="-6.203400">
        <ele>897.110</ele>
        <time>2022-02-25T13:14:37Z</time>
      </trkpt>
      <trkpt lat="41.899330" lon="-6.203430">
        <ele>897.111</ele>
        <time>2022-02-25T13:15:17Z</time>
      </trkpt>
      <trkpt lat="41.899360" lon="-6.203470">
        <ele>897.115</ele>
        <time>2022-02-25T13:15:57Z</time>
      </trkpt>
      <trkpt lat="41.899410" lon="-6.203550">
        <ele>897.130</ele>
        <time>2022-02-25T13:16:37Z</time>
      </trkpt>
      <trkpt lat="41.899430" lon="-6.203600">
        <ele>897.015</ele>
        <time>2022-02-25T13:17:17Z</time>
      </trkpt>
      <trkpt lat="41.899440" lon="-6.203620">
        <ele>897.065</ele>
        <time>2022-02-25T13:17:57Z</time>
      </trkpt>
      <trkpt lat="41.899460" lon="-6.203650">
        <ele>897.111</ele>
        <time>2022-02-25T13:18:37Z</time>
      </trkpt>
      <trkpt lat="41.899500" lon="-6.203750">
        <ele>897.408</ele>
        <time>2022-02-25T13:19:17Z</time>
      </trkpt>
      <trkpt lat="41.899530" lon="-6.203830">
        <ele>897.680</ele>
        <time>2022-02-25T13:19:57Z</time>
      </trkpt>
      <trkpt lat="41.899540" lon="-6.203860">
        <ele>897.797</ele>
        <time>2022-02-25T13:20:37Z</time>
      </trkpt>
      <trkpt lat="41.899580" lon="-6.204000">
        <ele>898.291</ele>
        <time>2022-02-25T13:21:17Z</time>
      </trkpt>
      <trkpt lat="41.899590" lon="-6.204060">
        <ele>898.347</ele>
        <time>2022-02-25T13:21:57Z</time>
      </trkpt>
      <trkpt lat="41.899640" lon="-6.204290">
        <ele>899.594</ele>
        <time>2022-02-25T13:22:37Z</time>
      </trkpt>
      <trkpt lat="41.899720" lon="-6.204660">
        <ele>901.845</ele>
        <time>2022-02-25T13:23:17Z</time>
      </trkpt>
      <trkpt lat="41.899790" lon="-6.205000">
        <ele>904.069</ele>
        <time>2022-02-25T13:23:57Z</time>
      </trkpt>
      <trkpt lat="41.899890" lon="-6.205460">
        <ele>904.634</ele>
        <time>2022-02-25T13:24:37Z</time>
      </trkpt>
      <trkpt lat="41.899900" lon="-6.205460">
        <ele>904.638</ele>
        <time>2022-02-25T13:25:17Z</time>
      </trkpt>
      <trkpt lat="41.899950" lon="-6.205700">
        <ele>904.870</ele>
        <time>2022-02-25T13:25:57Z</time>
      </trkpt>
      <trkpt lat="41.900020" lon="-6.205990">
        <ele>905.517</ele>
        <time>2022-02-25T13:26:37Z</time>
      </trkpt>
      <trkpt lat="41.900050" lon="-6.206160">
        <ele>906.008</ele>
        <time>2022-02-25T13:27:17Z</time>
      </trkpt>
      <trkpt lat="41.900100" lon="-6.206390">
        <ele>906.682</ele>
        <time>2022-02-25T13:27:57Z</time>
      </trkpt>
      <trkpt lat="41.900170" lon="-6.206710">
        <ele>905.939</ele>
        <time>2022-02-25T13:28:37Z</time>
      </trkpt>
      <trkpt lat="41.900310" lon="-6.207320">
        <ele>905.183</ele>
        <time>2022-02-25T13:29:17Z</time>
      </trkpt>
      <trkpt lat="41.900370" lon="-6.207560">
        <ele>905.359</ele>
        <time>2022-02-25T13:29:57Z</time>
      </trkpt>
      <trkpt lat="41.900520" lon="-6.208250">
        <ele>906.156</ele>
        <time>2022-02-25T13:30:37Z</time>
      </trkpt>
      <trkpt lat="41.900580" lon="-6.208550">
        <ele>906.217</ele>
        <time>2022-02-25T13:31:17Z</time>
      </trkpt>
      <trkpt lat="41.900620" lon="-6.208770">
        <ele>906.511</ele>
        <time>2022-02-25T13:31:57Z</time>
      </trkpt>
      <trkpt lat="41.900640" lon="-6.208950">
        <ele>906.536</ele>
        <time>2022-02-25T13:32:37Z</time>
      </trkpt>
      <trkpt lat="41.900640" lon="-6.208960">
        <ele>906.588</ele>
        <time>2022-02-25T13:33:17Z</time>
      </trkpt>
      <trkpt lat="41.900670" lon="-6.209150">
        <ele>906.424</ele>
        <time>2022-02-25T13:33:57Z</time>
      </trkpt>
      <trkpt lat="41.900700" lon="-6.209390">
        <ele>906.526</ele>
        <time>2022-02-25T13:34:37Z</time>
      </trkpt>
      <trkpt lat="41.900770" lon="-6.209890">
        <ele>907.008</ele>
        <time>2022-02-25T13:35:17Z</time>
      </trkpt>
      <trkpt lat="41.900840" lon="-6.210340">
        <ele>906.167</ele>
        <time>2022-02-25T13:35:57Z</time>
      </trkpt>
      <trkpt lat="41.900850" lon="-6.210470">
        <ele>906.134</ele>
        <time>2022-02-25T13:36:37Z</time>
      </trkpt>
      <trkpt lat="41.900870" lon="-6.210580">
        <ele>906.368</ele>
        <time>2022-02-25T13:37:17Z</time>
      </trkpt>
      <trkpt lat="41.900920" lon="-6.210950">
        <ele>907.184</ele>
        <time>2022-02-25T13:37:57Z</time>
      </trkpt>
      <trkpt lat="41.901000" lon="-6.211460">
        <ele>909.571</ele>
        <time>2022-02-25T13:38:37Z</time>
      </trkpt>
      <trkpt lat="41.901060" lon="-6.211760">
        <ele>910.682</ele>
        <time>2022-02-25T13:39:17Z</time>
      </trkpt>
      <trkpt lat="41.901090" lon="-6.211920">
        <ele>911.016</ele>
        <time>2022-02-25T13:39:57Z</time>
      </trkpt>
      <trkpt lat="41.901180" lon="-6.212310">
        <ele>910.811</ele>
        <time>2022-02-25T13:40:37Z</time>
      </trkpt>
      <trkpt lat="41.901300" lon="-6.212800">
        <ele>910.817</ele>
        <time>2022-02-25T13:41:17Z</time>
      </trkpt>
      <trkpt lat="41.901320" lon="-6.212910">
        <ele>911.687</ele>
        <time>2022-02-25T13:41:57Z</time>
      </trkpt>
      <trkpt lat="41.901380" lon="-6.213140">
        <ele>913.215</ele>
        <time>2022-02-25T13:42:37Z</time>
      </trkpt>
      <trkpt lat="41.901510" lon="-6.213730">
        <ele>914.808</ele>
        <time>2022-02-25T13:43:17Z</time>
      </trkpt>
      <trkpt lat="41.901640" lon="-6.214300">
        <ele>914.080</ele>
        <time>2022-02-25T13:43:57Z</time>
      </trkpt>
      <trkpt lat="41.901690" lon="-6.214530">
        <ele>914.577</ele>
        <time>2022-02-25T13:44:37Z</time>
      </trkpt>
      <trkpt lat="41.901740" lon="-6.214760">
        <ele>915.491</ele>
        <time>2022-02-25T13:45:17Z</time>
      </trkpt>
      <trkpt lat="41.901760" lon="-6.214840">
        <ele>915.847</ele>
        <time>2022-02-25T13:45:57Z</time>
      </trkpt>
      <trkpt lat="41.901790" lon="-6.214990">
        <ele>916.444</ele>
        <time>2022-02-25T13:46:37Z</time>
      </trkpt>
      <trkpt lat="41.901850" lon="-6.215220">
        <ele>916.765</ele>
        <time>2022-02-25T13:47:17Z</time>
      </trkpt>
      <trkpt lat="41.901900" lon="-6.215450">
        <ele>917.529</ele>
        <time>2022-02-25T13:47:57Z</time>
      </trkpt>
      <trkpt lat="41.901980" lon="-6.215810">
        <ele>918.344</ele>
        <time>2022-02-25T13:48:37Z</time>
      </trkpt>
      <trkpt lat="41.902010" lon="-6.215910">
        <ele>918.221</ele>
        <time>2022-02-25T13:49:17Z</time>
      </trkpt>
      <trkpt lat="41.902240" lon="-6.216940">
        <ele>918.341</ele>
        <time>2022-02-25T13:49:57Z</time>
      </trkpt>
      <trkpt lat="41.902280" lon="-6.217100">
        <ele>919.305</ele>
        <time>2022-02-25T13:50:37Z</time>
      </trkpt>
      <trkpt lat="41.902430" lon="-6.217770">
        <ele>920.008</ele>
        <time>2022-02-25T13:51:17Z</time>
      </trkpt>
      <trkpt lat="41.902550" lon="-6.218290">
        <ele>923.281</ele>
        <time>2022-02-25T13:51:57Z</time>
      </trkpt>
      <trkpt lat="41.902600" lon="-6.218480">
        <ele>923.428</ele>
        <time>2022-02-25T13:52:37Z</time>
      </trkpt>
      <trkpt lat="41.902640" lon="-6.218690">
        <ele>923.452</ele>
        <time>2022-02-25T13:53:17Z</time>
      </trkpt>
      <trkpt lat="41.902640" lon="-6.218710">
        <ele>923.368</ele>
        <time>2022-02-25T13:53:57Z</time>
      </trkpt>
      <trkpt lat="41.902680" lon="-6.218880">
        <ele>923.345</ele>
        <time>2022-02-25T13:54:37Z</time>
      </trkpt>
      <trkpt lat="41.902700" lon="-6.219050">
        <ele>923.496</ele>
        <time>2022-02-25T13:55:17Z</time>
      </trkpt>
      <trkpt lat="41.902770" lon="-6.219420">
        <ele>923.190</ele>
        <time>2022-02-25T13:55:57Z</time>
      </trkpt>
      <trkpt lat="41.902780" lon="-6.219510">
        <ele>923.075</ele>
        <time>2022-02-25T13:56:37Z</time>
      </trkpt>
      <trkpt lat="41.902880" lon="-6.220100">
        <ele>923.216</ele>
        <time>2022-02-25T13:57:17Z</time>
      </trkpt>
      <trkpt lat="41.902960" lon="-6.220510">
        <ele>925.576</ele>
        <time>2022-02-25T13:57:57Z</time>
      </trkpt>
      <trkpt lat="41.902970" lon="-6.220600">
        <ele>925.713</ele>
        <time>2022-02-25T13:58:37Z</time>
      </trkpt>
      <trkpt lat="41.903020" lon="-6.220830">
        <ele>925.808</ele>
        <time>2022-02-25T13:59:17Z</time>
      </trkpt>
      <trkpt lat="41.903020" lon="-6.220850">
        <ele>925.820</ele>
        <time>2022-02-25T13:59:57Z</time>
      </trkpt>
      <trkpt lat="41.903060" lon="-6.221090">
        <ele>926.067</ele>
        <time>2022-02-25T14:00:37Z</time>
      </trkpt>
      <trkpt lat="41.903090" lon="-6.221310">
        <ele>926.191</ele>
        <time>2022-02-25T14:01:17Z</time>
      </trkpt>
      <trkpt lat="41.903120" lon="-6.221530">
        <ele>926.227</ele>
        <time>2022-02-25T14:01:57Z</time>
      </trkpt>
      <trkpt lat="41.903140" lon="-6.221700">
        <ele>926.244</ele>
        <time>2022-02-25T14:02:37Z</time>
      </trkpt>
      <trkpt lat="41.903150" lon="-6.221780">
        <ele>926.135</ele>
        <time>2022-02-25T14:03:17Z</time>
      </trkpt>
      <trkpt lat="41.903150" lon="-6.221860">
        <ele>925.959</ele>
        <time>2022-02-25T14:03:57Z</time>
      </trkpt>
      <trkpt lat="41.903160" lon="-6.221970">
        <ele>925.844</ele>
        <time>2022-02-25T14:04:37Z</time>
      </trkpt>
      <trkpt lat="41.903160" lon="-6.222020">
        <ele>926.024</ele>
        <time>2022-02-25T14:05:17Z</time>
      </trkpt>
      <trkpt lat="41.903160" lon="-6.222090">
        <ele>926.304</ele>
        <time>2022-02-25T14:05:57Z</time>
      </trkpt>
      <trkpt lat="41.903160" lon="-6.222260">
        <ele>926.914</ele>
        <time>2022-02-25T14:06:37Z</time>
      </trkpt>
      <trkpt lat="41.903160" lon="-6.222290">
        <ele>927.108</ele>
        <time>2022-02-25T14:07:17Z</time>
      </trkpt>
      <trkpt lat="41.903160" lon="-6.222440">
        <ele>927.841</ele>
        <time>2022-02-25T14:07:57Z</time>
      </trkpt>
      <trkpt lat="41.903150" lon="-6.222500">
        <ele>928.018</ele>
        <time>2022-02-25T14:08:37Z</time>
      </trkpt>
      <trkpt lat="41.903150" lon="-6.222620">
        <ele>928.282</ele>
        <time>2022-02-25T14:09:17Z</time>
      </trkpt>
      <trkpt lat="41.903140" lon="-6.222740">
        <ele>928.268</ele>
        <time>2022-02-25T14:09:57Z</time>
      </trkpt>
      <trkpt lat="41.903130" lon="-6.222780">
        <ele>928.175</ele>
        <time>2022-02-25T14:10:37Z</time>
      </trkpt>
      <trkpt lat="41.903100" lon="-6.223020">
        <ele>928.586</ele>
        <time>2022-02-25T14:11:17Z</time>
      </trkpt>
      <trkpt lat="41.903060" lon="-6.223220">
        <ele>929.840</ele>
        <time>2022-02-25T14:11:57Z</time>
      </trkpt>
      <trkpt lat="41.903060" lon="-6.223230">
        <ele>929.985</ele>
        <time>2022-02-25T14:12:37Z</time>
      </trkpt>
      <trkpt lat="41.903020" lon="-6.223450">
        <ele>931.574</ele>
        <time>2022-02-25T14:13:17Z</time>
      </trkpt>
      <trkpt lat="41.903000" lon="-6.223520">
        <ele>931.756</ele>
        <time>2022-02-25T14:13:57Z</time>
      </trkpt>
      <trkpt lat="41.902990" lon="-6.223620">
        <ele>932.321</ele>
        <time>2022-02-25T14:14:37Z</time>
      </trkpt>
      <trkpt lat="41.902980" lon="-6.223740">
        <ele>932.608</ele>
        <time>2022-02-25T14:15:17Z</time>
      </trkpt>
      <trkpt lat="41.902970" lon="-6.223850">
        <ele>932.986</ele>
        <time>2022-02-25T14:15:57Z</time>
      </trkpt>
      <trkpt lat="41.902980" lon="-6.223930">
        <ele>933.273</ele>
        <time>2022-02-25T14:16:37Z</time>
      </trkpt>
      <trkpt lat="41.902980" lon="-6.223980">
        <ele>933.317</ele>
        <time>2022-02-25T14:17:17Z</time>
      </trkpt>
      <trkpt lat="41.902980" lon="-6.224130">
        <ele>933.413</ele>
        <time>2022-02-25T14:17:57Z</time>
      </trkpt>
      <trkpt lat="41.902990" lon="-6.224170">
        <ele>933.580</ele>
        <time>2022-02-25T14:18:37Z</time>
      </trkpt>
      <trkpt lat="41.903000" lon="-6.224310">
        <ele>933.651</ele>
        <time>2022-02-25T14:19:17Z</time>
      </trkpt>
      <trkpt lat="41.903030" lon="-6.224580">
        <ele>934.245</ele>
        <time>2022-02-25T14:19:57Z</time>
      </trkpt>
      <trkpt lat="41.903050" lon="-6.224890">
        <ele>935.590</ele>
        <time>2022-02-25T14:20:37Z</time>
      </trkpt>
      <trkpt lat="41.903060" lon="-6.224930">
        <ele>935.879</ele>
        <time>2022-02-25T14:21:17Z</time>
      </trkpt>
      <trkpt lat="41.903070" lon="-6.225130">
        <ele>936.705</ele>
        <time>2022-02-25T14:21:57Z</time>
      </trkpt>
      <trkpt lat="41.903100" lon="-6.225370">
        <ele>937.525</ele>
        <time>2022-02-25T14:22:37Z</time>
      </trkpt>
      <trkpt lat="41.903100" lon="-6.225410">
        <ele>937.508</ele>
        <time>2022-02-25T14:23:17Z</time>
      </trkpt>
      <trkpt lat="41.903120" lon="-6.225660">
        <ele>938.086</ele>
        <time>2022-02-25T14:23:57Z</time>
      </trkpt>
      <trkpt lat="41.903140" lon="-6.225870">
        <ele>938.723</ele>
        <time>2022-02-25T14:24:37Z</time>
      </trkpt>
      <trkpt lat="41.903170" lon="-6.226030">
        <ele>939.287</ele>
        <time>2022-02-25T14:25:17Z</time>
      </trkpt>
      <trkpt lat="41.903210" lon="-6.226210">
        <ele>940.053</ele>
        <time>2022-02-25T14:25:57Z</time>
      </trkpt>
      <trkpt lat="41.903230" lon="-6.226310">
        <ele>940.550</ele>
        <time>2022-02-25T14:26:37Z</time>
      </trkpt>
      <trkpt lat="41.903280" lon="-6.226490">
        <ele>941.791</ele>
        <time>2022-02-25T14:27:17Z</time>
      </trkpt>
      <trkpt lat="41.903290" lon="-6.226540">
        <ele>942.015</ele>
        <time>2022-02-25T14:27:57Z</time>
      </trkpt>
      <trkpt lat="41.903350" lon="-6.226770">
        <ele>942.860</ele>
        <time>2022-02-25T14:28:37Z</time>
      </trkpt>
      <trkpt lat="41.903420" lon="-6.227020">
        <ele>942.646</ele>
        <time>2022-02-25T14:29:17Z</time>
      </trkpt>
      <trkpt lat="41.903530" lon="-6.227450">
        <ele>941.688</ele>
        <time>2022-02-25T14:29:57Z</time>
      </trkpt>
      <trkpt lat="41.903590" lon="-6.227680">
        <ele>942.416</ele>
        <time>2022-02-25T14:30:37Z</time>
      </trkpt>
      <trkpt lat="41.903630" lon="-6.227810">
        <ele>943.108</ele>
        <time>2022-02-25T14:31:17Z</time>
      </trkpt>
      <trkpt lat="41.903660" lon="-6.227910">
        <ele>943.333</ele>
        <time>2022-02-25T14:31:57Z</time>
      </trkpt>
      <trkpt lat="41.903820" lon="-6.228510">
        <ele>943.880</ele>
        <time>2022-02-25T14:32:37Z</time>
      </trkpt>
      <trkpt lat="41.903960" lon="-6.229030">
        <ele>945.194</ele>
        <time>2022-02-25T14:33:17Z</time>
      </trkpt>
      <trkpt lat="41.904030" lon="-6.229270">
        <ele>947.190</ele>
        <time>2022-02-25T14:33:57Z</time>
      </trkpt>
      <trkpt lat="41.904120" lon="-6.229630">
        <ele>949.427</ele>
        <time>2022-02-25T14:34:37Z</time>
      </trkpt>
      <trkpt lat="41.904210" lon="-6.229950">
        <ele>950.078</ele>
        <time>2022-02-25T14:35:17Z</time>
      </trkpt>
      <trkpt lat="41.904250" lon="-6.230070">
        <ele>950.252</ele>
        <time>2022-02-25T14:35:57Z</time>
      </trkpt>
      <trkpt lat="41.904340" lon="-6.230400">
        <ele>950.457</ele>
        <time>2022-02-25T14:36:37Z</time>
      </trkpt>
      <trkpt lat="41.904340" lon="-6.230410">
        <ele>950.478</ele>
        <time>2022-02-25T14:37:17Z</time>
      </trkpt>
      <trkpt lat="41.904380" lon="-6.230550">
        <ele>950.233</ele>
        <time>2022-02-25T14:37:57Z</time>
      </trkpt>
      <trkpt lat="41.904390" lon="-6.230580">
        <ele>950.326</ele>
        <time>2022-02-25T14:38:37Z</time>
      </trkpt>
      <trkpt lat="41.904410" lon="-6.230630">
        <ele>950.408</ele>
        <time>2022-02-25T14:39:17Z</time>
      </trkpt>
      <trkpt lat="41.904440" lon="-6.230720">
        <ele>950.656</ele>
        <time>2022-02-25T14:39:57Z</time>
      </trkpt>
      <trkpt lat="41.904530" lon="-6.230960">
        <ele>951.083</ele>
        <time>2022-02-25T14:40:37Z</time>
      </trkpt>
      <trkpt lat="41.904560" lon="-6.231040">
        <ele>951.047</ele>
        <time>2022-02-25T14:41:17Z</time>
      </trkpt>
      <trkpt lat="41.904620" lon="-6.231170">
        <ele>951.013</ele>
        <time>2022-02-25T14:41:57Z</time>
      </trkpt>
      <trkpt lat="41.904660" lon="-6.231290">
        <ele>951.040</ele>
        <time>2022-02-25T14:42:37Z</time>
      </trkpt>
      <trkpt lat="41.904700" lon="-6.231380">
        <ele>951.011</ele>
        <time>2022-02-25T14:43:17Z</time>
      </trkpt>
      <trkpt lat="41.904770" lon="-6.231540">
        <ele>950.335</ele>
        <time>2022-02-25T14:43:57Z</time>
      </trkpt>
      <trkpt lat="41.904790" lon="-6.231590">
        <ele>950.050</ele>
        <time>2022-02-25T14:44:37Z</time>
      </trkpt>
      <trkpt lat="41.904880" lon="-6.231780">
        <ele>949.096</ele>
        <time>2022-02-25T14:45:17Z</time>
      </trkpt>
      <trkpt lat="41.904980" lon="-6.232010">
        <ele>948.131</ele>
        <time>2022-02-25T14:45:57Z</time>
      </trkpt>
      <trkpt lat="41.905010" lon="-6.232080">
        <ele>948.024</ele>
        <time>2022-02-25T14:46:37Z</time>
      </trkpt>
      <trkpt lat="41.905080" lon="-6.232250">
        <ele>948.008</ele>
        <time>2022-02-25T14:47:17Z</time>
      </trkpt>
      <trkpt lat="41.905130" lon="-6.232350">
        <ele>948.028</ele>
        <time>2022-02-25T14:47:57Z</time>
      </trkpt>
      <trkpt lat="41.905160" lon="-6.232420">
        <ele>948.095</ele>
        <time>2022-02-25T14:48:37Z</time>
      </trkpt>
      <trkpt lat="41.905200" lon="-6.232490">
        <ele>948.099</ele>
        <time>2022-02-25T14:49:17Z</time>
      </trkpt>
      <trkpt lat="41.905270" lon="-6.232620">
        <ele>947.665</ele>
        <time>2022-02-25T14:49:57Z</time>
      </trkpt>
      <trkpt lat="41.905340" lon="-6.232770">
        <ele>947.012</ele>
        <time>2022-02-25T14:50:37Z</time>
      </trkpt>
      <trkpt lat="41.905380" lon="-6.232840">
        <ele>946.813</ele>
        <time>2022-02-25T14:51:17Z</time>
      </trkpt>
      <trkpt lat="41.905460" lon="-6.233000">
        <ele>946.277</ele>
        <time>2022-02-25T14:51:57Z</time>
      </trkpt>
      <trkpt lat="41.905490" lon="-6.233080">
        <ele>945.992</ele>
        <time>2022-02-25T14:52:37Z</time>
      </trkpt>
      <trkpt lat="41.905540" lon="-6.233190">
        <ele>945.573</ele>
        <time>2022-02-25T14:53:17Z</time>
      </trkpt>
      <trkpt lat="41.905550" lon="-6.233210">
        <ele>945.485</ele>
        <time>2022-02-25T14:53:57Z</time>
      </trkpt>
      <trkpt lat="41.905580" lon="-6.233290">
        <ele>945.413</ele>
        <time>2022-02-25T14:54:37Z</time>
      </trkpt>
      <trkpt lat="41.905610" lon="-6.233390">
        <ele>945.508</ele>
        <time>2022-02-25T14:55:17Z</time>
      </trkpt>
      <trkpt lat="41.905640" lon="-6.233510">
        <ele>945.716</ele>
        <time>2022-02-25T14:55:57Z</time>
      </trkpt>
      <trkpt lat="41.905680" lon="-6.233660">
        <ele>945.963</ele>
        <time>2022-02-25T14:56:37Z</time>
      </trkpt>
      <trkpt lat="41.905730" lon="-6.233890">
        <ele>946.327</ele>
        <time>2022-02-25T14:57:17Z</time>
      </trkpt>
      <trkpt lat="41.905740" lon="-6.233990">
        <ele>946.213</ele>
        <time>2022-02-25T14:57:57Z</time>
      </trkpt>
      <trkpt lat="41.905770" lon="-6.234130">
        <ele>946.320</ele>
        <time>2022-02-25T14:58:37Z</time>
      </trkpt>
      <trkpt lat="41.905770" lon="-6.234150">
        <ele>946.341</ele>
        <time>2022-02-25T14:59:17Z</time>
      </trkpt>
      <trkpt lat="41.905790" lon="-6.234260">
        <ele>946.595</ele>
        <time>2022-02-25T14:59:57Z</time>
      </trkpt>
      <trkpt lat="41.905790" lon="-6.234370">
        <ele>946.430</ele>
        <time>2022-02-25T15:00:37Z</time>
      </trkpt>
      <trkpt lat="41.905800" lon="-6.234410">
        <ele>946.536</ele>
        <time>2022-02-25T15:01:17Z</time>
      </trkpt>
      <trkpt lat="41.905810" lon="-6.234640">
        <ele>946.017</ele>
        <time>2022-02-25T15:01:57Z</time>
      </trkpt>
      <trkpt lat="41.905820" lon="-6.234960">
        <ele>944.118</ele>
        <time>2022-02-25T15:02:37Z</time>
      </trkpt>
      <trkpt lat="41.905830" lon="-6.235330">
        <ele>943.008</ele>
        <time>2022-02-25T15:03:17Z</time>
      </trkpt>
      <trkpt lat="41.905840" lon="-6.235520">
        <ele>943.112</ele>
        <time>2022-02-25T15:03:57Z</time>
      </trkpt>
      <trkpt lat="41.905840" lon="-6.235570">
        <ele>943.089</ele>
        <time>2022-02-25T15:04:37Z</time>
      </trkpt>
      <trkpt lat="41.905850" lon="-6.235810">
        <ele>942.363</ele>
        <time>2022-02-25T15:05:17Z</time>
      </trkpt>
      <trkpt lat="41.905860" lon="-6.235990">
        <ele>941.249</ele>
        <time>2022-02-25T15:05:57Z</time>
      </trkpt>
      <trkpt lat="41.905860" lon="-6.236060">
        <ele>940.786</ele>
        <time>2022-02-25T15:06:37Z</time>
      </trkpt>
      <trkpt lat="41.905870" lon="-6.236300">
        <ele>939.257</ele>
        <time>2022-02-25T15:07:17Z</time>
      </trkpt>
      <trkpt lat="41.905890" lon="-6.236530">
        <ele>938.221</ele>
        <time>2022-02-25T15:07:57Z</time>
      </trkpt>
      <trkpt lat="41.905910" lon="-6.237020">
        <ele>938.496</ele>
        <time>2022-02-25T15:08:37Z</time>
      </trkpt>
      <trkpt lat="41.905920" lon="-6.237080">
        <ele>938.312</ele>
        <time>2022-02-25T15:09:17Z</time>
      </trkpt>
      <trkpt lat="41.905930" lon="-6.237250">
        <ele>937.832</ele>
        <time>2022-02-25T15:09:57Z</time>
      </trkpt>
      <trkpt lat="41.905950" lon="-6.237400">
        <ele>936.605</ele>
        <time>2022-02-25T15:10:37Z</time>
      </trkpt>
      <trkpt lat="41.905970" lon="-6.237530">
        <ele>935.608</ele>
        <time>2022-02-25T15:11:17Z</time>
      </trkpt>
      <trkpt lat="41.906000" lon="-6.237630">
        <ele>934.610</ele>
        <time>2022-02-25T15:11:57Z</time>
      </trkpt>
      <trkpt lat="41.906010" lon="-6.237670">
        <ele>934.267</ele>
        <time>2022-02-25T15:12:37Z</time>
      </trkpt>
      <trkpt lat="41.906040" lon="-6.237760">
        <ele>933.031</ele>
        <time>2022-02-25T15:13:17Z</time>
      </trkpt>
      <trkpt lat="41.906050" lon="-6.237810">
        <ele>932.677</ele>
        <time>2022-02-25T15:13:57Z</time>
      </trkpt>
      <trkpt lat="41.906060" lon="-6.237820">
        <ele>932.634</ele>
        <time>2022-02-25T15:14:37Z</time>
      </trkpt>
      <trkpt lat="41.906140" lon="-6.238020">
        <ele>932.545</ele>
        <time>2022-02-25T15:15:17Z</time>
      </trkpt>
      <trkpt lat="41.906170" lon="-6.238100">
        <ele>932.369</ele>
        <time>2022-02-25T15:15:57Z</time>
      </trkpt>
      <trkpt lat="41.906340" lon="-6.238420">
        <ele>931.124</ele>
        <time>2022-02-25T15:16:37Z</time>
      </trkpt>
      <trkpt lat="41.906480" lon="-6.238710">
        <ele>931.089</ele>
        <time>2022-02-25T15:17:17Z</time>
      </trkpt>
      <trkpt lat="41.906660" lon="-6.239130">
        <ele>932.106</ele>
        <time>2022-02-25T15:17:57Z</time>
      </trkpt>
      <trkpt lat="41.906700" lon="-6.239250">
        <ele>932.126</ele>
        <time>2022-02-25T15:18:37Z</time>
      </trkpt>
      <trkpt lat="41.906790" lon="-6.239470">
        <ele>932.408</ele>
        <time>2022-02-25T15:19:17Z</time>
      </trkpt>
      <trkpt lat="41.906840" lon="-6.239610">
        <ele>932.097</ele>
        <time>2022-02-25T15:19:57Z</time>
      </trkpt>
      <trkpt lat="41.906870" lon="-6.239680">
        <ele>931.874</ele>
        <time>2022-02-25T15:20:37Z</time>
      </trkpt>
      <trkpt lat="41.907190" lon="-6.240550">
        <ele>930.358</ele>
        <time>2022-02-25T15:21:17Z</time>
      </trkpt>
      <trkpt lat="41.907270" lon="-6.240760">
        <ele>929.614</ele>
        <time>2022-02-25T15:21:57Z</time>
      </trkpt>
      <trkpt lat="41.907320" lon="-6.240900">
        <ele>928.811</ele>
        <time>2022-02-25T15:22:37Z</time>
      </trkpt>
      <trkpt lat="41.907350" lon="-6.240980">
        <ele>928.242</ele>
        <time>2022-02-25T15:23:17Z</time>
      </trkpt>
      <trkpt lat="41.907420" lon="-6.241200">
        <ele>927.016</ele>
        <time>2022-02-25T15:23:57Z</time>
      </trkpt>
      <trkpt lat="41.907460" lon="-6.241330">
        <ele>926.811</ele>
        <time>2022-02-25T15:24:37Z</time>
      </trkpt>
      <trkpt lat="41.907480" lon="-6.241430">
        <ele>926.853</ele>
        <time>2022-02-25T15:25:17Z</time>
      </trkpt>
      <trkpt lat="41.907550" lon="-6.241730">
        <ele>928.804</ele>
        <time>2022-02-25T15:25:57Z</time>
      </trkpt>
      <trkpt lat="41.907580" lon="-6.241890">
        <ele>928.714</ele>
        <time>2022-02-25T15:26:37Z</time>
      </trkpt>
      <trkpt lat="41.907630" lon="-6.242130">
        <ele>927.708</ele>
        <time>2022-02-25T15:27:17Z</time>
      </trkpt>
      <trkpt lat="41.907640" lon="-6.242160">
        <ele>927.614</ele>
        <time>2022-02-25T15:27:57Z</time>
      </trkpt>
      <trkpt lat="41.907690" lon="-6.242360">
        <ele>926.751</ele>
        <time>2022-02-25T15:28:37Z</time>
      </trkpt>
      <trkpt lat="41.907730" lon="-6.242560">
        <ele>926.355</ele>
        <time>2022-02-25T15:29:17Z</time>
      </trkpt>
      <trkpt lat="41.907750" lon="-6.242830">
        <ele>926.461</ele>
        <time>2022-02-25T15:29:57Z</time>
      </trkpt>
      <trkpt lat="41.907760" lon="-6.242910">
        <ele>926.328</ele>
        <time>2022-02-25T15:30:37Z</time>
      </trkpt>
      <trkpt lat="41.907750" lon="-6.243210">
        <ele>925.559</ele>
        <time>2022-02-25T15:31:17Z</time>
      </trkpt>
      <trkpt lat="41.907720" lon="-6.243630">
        <ele>923.853</ele>
        <time>2022-02-25T15:31:57Z</time>
      </trkpt>
      <trkpt lat="41.907720" lon="-6.244040">
        <ele>923.818</ele>
        <time>2022-02-25T15:32:37Z</time>
      </trkpt>
      <trkpt lat="41.907730" lon="-6.244280">
        <ele>922.851</ele>
        <time>2022-02-25T15:33:17Z</time>
      </trkpt>
      <trkpt lat="41.907770" lon="-6.245040">
        <ele>916.701</ele>
        <time>2022-02-25T15:33:57Z</time>
      </trkpt>
      <trkpt lat="41.907800" lon="-6.245780">
        <ele>915.611</ele>
        <time>2022-02-25T15:34:37Z</time>
      </trkpt>
      <trkpt lat="41.907810" lon="-6.245990">
        <ele>916.408</ele>
        <time>2022-02-25T15:35:17Z</time>
      </trkpt>
      <trkpt lat="41.907830" lon="-6.246200">
        <ele>917.374</ele>
        <time>2022-02-25T15:35:57Z</time>
      </trkpt>
      <trkpt lat="41.907890" lon="-6.246490">
        <ele>918.141</ele>
        <time>2022-02-25T15:36:37Z</time>
      </trkpt>
      <trkpt lat="41.908120" lon="-6.247660">
        <ele>913.995</ele>
        <time>2022-02-25T15:37:17Z</time>
      </trkpt>
      <trkpt lat="41.908120" lon="-6.247700">
        <ele>913.731</ele>
        <time>2022-02-25T15:37:57Z</time>
      </trkpt>
      <trkpt lat="41.908170" lon="-6.247890">
        <ele>913.798</ele>
        <time>2022-02-25T15:38:37Z</time>
      </trkpt>
      <trkpt lat="41.908270" lon="-6.248310">
        <ele>912.129</ele>
        <time>2022-02-25T15:39:17Z</time>
      </trkpt>
      <trkpt lat="41.908280" lon="-6.248350">
        <ele>911.913</ele>
        <time>2022-02-25T15:39:57Z</time>
      </trkpt>
      <trkpt lat="41.908330" lon="-6.248580">
        <ele>910.378</ele>
        <time>2022-02-25T15:40:37Z</time>
      </trkpt>
      <trkpt lat="41.908420" lon="-6.249010">
        <ele>908.628</ele>
        <time>2022-02-25T15:41:17Z</time>
      </trkpt>
      <trkpt lat="41.908480" lon="-6.249280">
        <ele>907.389</ele>
        <time>2022-02-25T15:41:57Z</time>
      </trkpt>
      <trkpt lat="41.908530" lon="-6.249500">
        <ele>906.517</ele>
        <time>2022-02-25T15:42:37Z</time>
      </trkpt>
      <trkpt lat="41.908600" lon="-6.249790">
        <ele>905.408</ele>
        <time>2022-02-25T15:43:17Z</time>
      </trkpt>
      <trkpt lat="41.908670" lon="-6.250030">
        <ele>904.751</ele>
        <time>2022-02-25T15:43:57Z</time>
      </trkpt>
      <trkpt lat="41.908720" lon="-6.250190">
        <ele>904.688</ele>
        <time>2022-02-25T15:44:37Z</time>
      </trkpt>
      <trkpt lat="41.908840" lon="-6.250550">
        <ele>903.552</ele>
        <time>2022-02-25T15:45:17Z</time>
      </trkpt>
      <trkpt lat="41.909050" lon="-6.251190">
        <ele>903.218</ele>
        <time>2022-02-25T15:45:57Z</time>
      </trkpt>
      <trkpt lat="41.909080" lon="-6.251290">
        <ele>902.865</ele>
        <time>2022-02-25T15:46:37Z</time>
      </trkpt>
      <trkpt lat="41.909160" lon="-6.251510">
        <ele>902.176</ele>
        <time>2022-02-25T15:47:17Z</time>
      </trkpt>
      <trkpt lat="41.909160" lon="-6.251520">
        <ele>902.030</ele>
        <time>2022-02-25T15:47:57Z</time>
      </trkpt>
      <trkpt lat="41.909220" lon="-6.251660">
        <ele>901.495</ele>
        <time>2022-02-25T15:48:37Z</time>
      </trkpt>
      <trkpt lat="41.909250" lon="-6.251720">
        <ele>901.467</ele>
        <time>2022-02-25T15:49:17Z</time>
      </trkpt>
      <trkpt lat="41.909270" lon="-6.251770">
        <ele>901.281</ele>
        <time>2022-02-25T15:49:57Z</time>
      </trkpt>
      <trkpt lat="41.909330" lon="-6.251900">
        <ele>900.819</ele>
        <time>2022-02-25T15:50:37Z</time>
      </trkpt>
      <trkpt lat="41.909340" lon="-6.251930">
        <ele>900.708</ele>
        <time>2022-02-25T15:51:17Z</time>
      </trkpt>
      <trkpt lat="41.909400" lon="-6.252040">
        <ele>900.445</ele>
        <time>2022-02-25T15:51:57Z</time>
      </trkpt>
      <trkpt lat="41.909450" lon="-6.252130">
        <ele>900.472</ele>
        <time>2022-02-25T15:52:37Z</time>
      </trkpt>
      <trkpt lat="41.909490" lon="-6.252190">
        <ele>900.326</ele>
        <time>2022-02-25T15:53:17Z</time>
      </trkpt>
      <trkpt lat="41.909590" lon="-6.252370">
        <ele>900.072</ele>
        <time>2022-02-25T15:53:57Z</time>
      </trkpt>
      <trkpt lat="41.909710" lon="-6.252540">
        <ele>899.749</ele>
        <time>2022-02-25T15:54:37Z</time>
      </trkpt>
      <trkpt lat="41.909850" lon="-6.252720">
        <ele>898.390</ele>
        <time>2022-02-25T15:55:17Z</time>
      </trkpt>
      <trkpt lat="41.909940" lon="-6.252830">
        <ele>897.614</ele>
        <time>2022-02-25T15:55:57Z</time>
      </trkpt>
      <trkpt lat="41.909980" lon="-6.252880">
        <ele>897.319</ele>
        <time>2022-02-25T15:56:37Z</time>
      </trkpt>
      <trkpt lat="41.910070" lon="-6.253000">
        <ele>896.614</ele>
        <time>2022-02-25T15:57:17Z</time>
      </trkpt>
      <trkpt lat="41.910090" lon="-6.253030">
        <ele>896.554</ele>
        <time>2022-02-25T15:57:57Z</time>
      </trkpt>
      <trkpt lat="41.910160" lon="-6.253120">
        <ele>896.209</ele>
        <time>2022-02-25T15:58:37Z</time>
      </trkpt>
      <trkpt lat="41.910220" lon="-6.253200">
        <ele>895.908</ele>
        <time>2022-02-25T15:59:17Z</time>
      </trkpt>
      <trkpt lat="41.910280" lon="-6.253290">
        <ele>895.360</ele>
        <time>2022-02-25T15:59:57Z</time>
      </trkpt>
      <trkpt lat="41.910320" lon="-6.253360">
        <ele>895.217</ele>
        <time>2022-02-25T16:00:37Z</time>
      </trkpt>
      <trkpt lat="41.910380" lon="-6.253470">
        <ele>895.231</ele>
        <time>2022-02-25T16:01:17Z</time>
      </trkpt>
      <trkpt lat="41.910420" lon="-6.253550">
        <ele>895.247</ele>
        <time>2022-02-25T16:01:57Z</time>
      </trkpt>
      <trkpt lat="41.910430" lon="-6.253570">
        <ele>895.244</ele>
        <time>2022-02-25T16:02:37Z</time>
      </trkpt>
      <trkpt lat="41.910490" lon="-6.253700">
        <ele>895.585</ele>
        <time>2022-02-25T16:03:17Z</time>
      </trkpt>
      <trkpt lat="41.910510" lon="-6.253750">
        <ele>895.619</ele>
        <time>2022-02-25T16:03:57Z</time>
      </trkpt>
      <trkpt lat="41.910550" lon="-6.253860">
        <ele>895.914</ele>
        <time>2022-02-25T16:04:37Z</time>
      </trkpt>
      <trkpt lat="41.910600" lon="-6.253960">
        <ele>896.392</ele>
        <time>2022-02-25T16:05:17Z</time>
      </trkpt>
      <trkpt lat="41.910620" lon="-6.254020">
        <ele>896.473</ele>
        <time>2022-02-25T16:05:57Z</time>
      </trkpt>
      <trkpt lat="41.910680" lon="-6.254150">
        <ele>896.520</ele>
        <time>2022-02-25T16:06:37Z</time>
      </trkpt>
      <trkpt lat="41.910740" lon="-6.254270">
        <ele>896.208</ele>
        <time>2022-02-25T16:07:17Z</time>
      </trkpt>
      <trkpt lat="41.910790" lon="-6.254370">
        <ele>896.098</ele>
        <time>2022-02-25T16:07:57Z</time>
      </trkpt>
      <trkpt lat="41.910820" lon="-6.254420">
        <ele>896.055</ele>
        <time>2022-02-25T16:08:37Z</time>
      </trkpt>
      <trkpt lat="41.910900" lon="-6.254560">
        <ele>895.659</ele>
        <time>2022-02-25T16:09:17Z</time>
      </trkpt>
      <trkpt lat="41.910930" lon="-6.254610">
        <ele>895.545</ele>
        <time>2022-02-25T16:09:57Z</time>
      </trkpt>
      <trkpt lat="41.910970" lon="-6.254690">
        <ele>895.352</ele>
        <time>2022-02-25T16:10:37Z</time>
      </trkpt>
      <trkpt lat="41.911000" lon="-6.254760">
        <ele>895.283</ele>
        <time>2022-02-25T16:11:17Z</time>
      </trkpt>
      <trkpt lat="41.911010" lon="-6.254780">
        <ele>895.247</ele>
        <time>2022-02-25T16:11:57Z</time>
      </trkpt>
      <trkpt lat="41.911050" lon="-6.254870">
        <ele>895.262</ele>
        <time>2022-02-25T16:12:37Z</time>
      </trkpt>
      <trkpt lat="41.911100" lon="-6.255030">
        <ele>894.788</ele>
        <time>2022-02-25T16:13:17Z</time>
      </trkpt>
      <trkpt lat="41.911160" lon="-6.255190">
        <ele>894.324</ele>
        <time>2022-02-25T16:13:57Z</time>
      </trkpt>
      <trkpt lat="41.911160" lon="-6.255200">
        <ele>894.226</ele>
        <time>2022-02-25T16:14:37Z</time>
      </trkpt>
      <trkpt lat="41.911210" lon="-6.255350">
        <ele>894.108</ele>
        <time>2022-02-25T16:15:17Z</time>
      </trkpt>
      <trkpt lat="41.911230" lon="-6.255420">
        <ele>894.027</ele>
        <time>2022-02-25T16:15:57Z</time>
      </trkpt>
      <trkpt lat="41.911270" lon="-6.255540">
        <ele>893.854</ele>
        <time>2022-02-25T16:16:37Z</time>
      </trkpt>
      <trkpt lat="41.911300" lon="-6.255640">
        <ele>893.938</ele>
        <time>2022-02-25T16:17:17Z</time>
      </trkpt>
      <trkpt lat="41.911320" lon="-6.255720">
        <ele>894.174</ele>
        <time>2022-02-25T16:17:57Z</time>
      </trkpt>
      <trkpt lat="41.911370" lon="-6.255870">
        <ele>894.731</ele>
        <time>2022-02-25T16:18:37Z</time>
      </trkpt>
      <trkpt lat="41.911380" lon="-6.255910">
        <ele>894.962</ele>
        <time>2022-02-25T16:19:17Z</time>
      </trkpt>
      <trkpt lat="41.911420" lon="-6.256070">
        <ele>895.496</ele>
        <time>2022-02-25T16:19:57Z</time>
      </trkpt>
      <trkpt lat="41.911430" lon="-6.256090">
        <ele>895.611</ele>
        <time>2022-02-25T16:20:37Z</time>
      </trkpt>
      <trkpt lat="41.911440" lon="-6.256160">
        <ele>895.623</ele>
        <time>2022-02-25T16:21:17Z</time>
      </trkpt>
      <trkpt lat="41.911460" lon="-6.256280">
        <ele>895.683</ele>
        <time>2022-02-25T16:21:57Z</time>
      </trkpt>
      <trkpt lat="41.911480" lon="-6.256420">
        <ele>895.411</ele>
        <time>2022-02-25T16:22:37Z</time>
      </trkpt>
      <trkpt lat="41.911490" lon="-6.256550">
        <ele>894.708</ele>
        <time>2022-02-25T16:23:17Z</time>
      </trkpt>
      <trkpt lat="41.911510" lon="-6.256760">
        <ele>893.581</ele>
        <time>2022-02-25T16:23:57Z</time>
      </trkpt>
      <trkpt lat="41.911530" lon="-6.256970">
        <ele>892.538</ele>
        <time>2022-02-25T16:24:37Z</time>
      </trkpt>
      <trkpt lat="41.911540" lon="-6.257050">
        <ele>892.572</ele>
        <time>2022-02-25T16:25:17Z</time>
      </trkpt>
      <trkpt lat="41.911550" lon="-6.257130">
        <ele>892.558</ele>
        <time>2022-02-25T16:25:57Z</time>
      </trkpt>
      <trkpt lat="41.911560" lon="-6.257290">
        <ele>892.685</ele>
        <time>2022-02-25T16:26:37Z</time>
      </trkpt>
      <trkpt lat="41.911560" lon="-6.257300">
        <ele>892.696</ele>
        <time>2022-02-25T16:27:17Z</time>
      </trkpt>
      <trkpt lat="41.911590" lon="-6.257450">
        <ele>893.120</ele>
        <time>2022-02-25T16:27:57Z</time>
      </trkpt>
      <trkpt lat="41.911600" lon="-6.257520">
        <ele>893.245</ele>
        <time>2022-02-25T16:28:37Z</time>
      </trkpt>
      <trkpt lat="41.911620" lon="-6.257620">
        <ele>892.858</ele>
        <time>2022-02-25T16:29:17Z</time>
      </trkpt>
      <trkpt lat="41.911650" lon="-6.257750">
        <ele>892.152</ele>
        <time>2022-02-25T16:29:57Z</time>
      </trkpt>
      <trkpt lat="41.911660" lon="-6.257770">
        <ele>892.017</ele>
        <time>2022-02-25T16:30:37Z</time>
      </trkpt>
      <trkpt lat="41.911700" lon="-6.257940">
        <ele>891.708</ele>
        <time>2022-02-25T16:31:17Z</time>
      </trkpt>
      <trkpt lat="41.911710" lon="-6.257980">
        <ele>891.744</ele>
        <time>2022-02-25T16:31:57Z</time>
      </trkpt>
      <trkpt lat="41.911740" lon="-6.258130">
        <ele>891.961</ele>
        <time>2022-02-25T16:32:37Z</time>
      </trkpt>
      <trkpt lat="41.911760" lon="-6.258220">
        <ele>892.215</ele>
        <time>2022-02-25T16:33:17Z</time>
      </trkpt>
      <trkpt lat="41.911780" lon="-6.258300">
        <ele>892.631</ele>
        <time>2022-02-25T16:33:57Z</time>
      </trkpt>
      <trkpt lat="41.911810" lon="-6.258450">
        <ele>893.148</ele>
        <time>2022-02-25T16:34:37Z</time>
      </trkpt>
      <trkpt lat="41.911820" lon="-6.258510">
        <ele>893.219</ele>
        <time>2022-02-25T16:35:17Z</time>
      </trkpt>
      <trkpt lat="41.911850" lon="-6.258680">
        <ele>893.163</ele>
        <time>2022-02-25T16:35:57Z</time>
      </trkpt>
      <trkpt lat="41.911860" lon="-6.258710">
        <ele>893.118</ele>
        <time>2022-02-25T16:36:37Z</time>
      </trkpt>
      <trkpt lat="41.911900" lon="-6.258920">
        <ele>892.063</ele>
        <time>2022-02-25T16:37:17Z</time>
      </trkpt>
      <trkpt lat="41.911940" lon="-6.259090">
        <ele>890.844</ele>
        <time>2022-02-25T16:37:57Z</time>
      </trkpt>
      <trkpt lat="41.911940" lon="-6.259150">
        <ele>890.118</ele>
        <time>2022-02-25T16:38:37Z</time>
      </trkpt>
      <trkpt lat="41.911960" lon="-6.259260">
        <ele>889.708</ele>
        <time>2022-02-25T16:39:17Z</time>
      </trkpt>
      <trkpt lat="41.911980" lon="-6.259440">
        <ele>888.935</ele>
        <time>2022-02-25T16:39:57Z</time>
      </trkpt>
      <trkpt lat="41.912000" lon="-6.259630">
        <ele>889.352</ele>
        <time>2022-02-25T16:40:37Z</time>
      </trkpt>
      <trkpt lat="41.912020" lon="-6.259840">
        <ele>889.276</ele>
        <time>2022-02-25T16:41:17Z</time>
      </trkpt>
      <trkpt lat="41.912050" lon="-6.260030">
        <ele>889.062</ele>
        <time>2022-02-25T16:41:57Z</time>
      </trkpt>
      <trkpt lat="41.912060" lon="-6.260100">
        <ele>888.719</ele>
        <time>2022-02-25T16:42:37Z</time>
      </trkpt>
      <trkpt lat="41.912070" lon="-6.260160">
        <ele>888.440</ele>
        <time>2022-02-25T16:43:17Z</time>
      </trkpt>
      <trkpt lat="41.912090" lon="-6.260290">
        <ele>887.544</ele>
        <time>2022-02-25T16:43:57Z</time>
      </trkpt>
      <trkpt lat="41.912100" lon="-6.260340">
        <ele>887.219</ele>
        <time>2022-02-25T16:44:37Z</time>
      </trkpt>
      <trkpt lat="41.912120" lon="-6.260420">
        <ele>886.981</ele>
        <time>2022-02-25T16:45:17Z</time>
      </trkpt>
      <trkpt lat="41.912160" lon="-6.260580">
        <ele>886.361</ele>
        <time>2022-02-25T16:45:57Z</time>
      </trkpt>
      <trkpt lat="41.912200" lon="-6.260750">
        <ele>886.117</ele>
        <time>2022-02-25T16:46:37Z</time>
      </trkpt>
      <trkpt lat="41.912260" lon="-6.260970">
        <ele>886.108</ele>
        <time>2022-02-25T16:47:17Z</time>
      </trkpt>
      <trkpt lat="41.912280" lon="-6.261030">
        <ele>886.287</ele>
        <time>2022-02-25T16:47:57Z</time>
      </trkpt>
      <trkpt lat="41.912320" lon="-6.261170">
        <ele>886.054</ele>
        <time>2022-02-25T16:48:37Z</time>
      </trkpt>
      <trkpt lat="41.912400" lon="-6.261440">
        <ele>885.348</ele>
        <time>2022-02-25T16:49:17Z</time>
      </trkpt>
      <trkpt lat="41.912460" lon="-6.261620">
        <ele>884.924</ele>
        <time>2022-02-25T16:49:57Z</time>
      </trkpt>
      <trkpt lat="41.912480" lon="-6.261660">
        <ele>884.861</ele>
        <time>2022-02-25T16:50:37Z</time>
      </trkpt>
      <trkpt lat="41.912540" lon="-6.261840">
        <ele>883.722</ele>
        <time>2022-02-25T16:51:17Z</time>
      </trkpt>
      <trkpt lat="41.912560" lon="-6.261900">
        <ele>883.326</ele>
        <time>2022-02-25T16:51:57Z</time>
      </trkpt>
      <trkpt lat="41.912600" lon="-6.262060">
        <ele>882.521</ele>
        <time>2022-02-25T16:52:37Z</time>
      </trkpt>
      <trkpt lat="41.912630" lon="-6.262170">
        <ele>881.965</ele>
        <time>2022-02-25T16:53:17Z</time>
      </trkpt>
      <trkpt lat="41.912710" lon="-6.262460">
        <ele>881.468</ele>
        <time>2022-02-25T16:53:57Z</time>
      </trkpt>
      <trkpt lat="41.912780" lon="-6.262770">
        <ele>881.014</ele>
        <time>2022-02-25T16:54:37Z</time>
      </trkpt>
      <trkpt lat="41.912910" lon="-6.263280">
        <ele>877.408</ele>
        <time>2022-02-25T16:55:17Z</time>
      </trkpt>
      <trkpt lat="41.913010" lon="-6.263590">
        <ele>876.045</ele>
        <time>2022-02-25T16:55:57Z</time>
      </trkpt>
      <trkpt lat="41.913130" lon="-6.263930">
        <ele>876.782</ele>
        <time>2022-02-25T16:56:37Z</time>
      </trkpt>
      <trkpt lat="41.913240" lon="-6.264250">
        <ele>878.596</ele>
        <time>2022-02-25T16:57:17Z</time>
      </trkpt>
      <trkpt lat="41.913260" lon="-6.264300">
        <ele>878.672</ele>
        <time>2022-02-25T16:57:57Z</time>
      </trkpt>
      <trkpt lat="41.913400" lon="-6.264660">
        <ele>879.239</ele>
        <time>2022-02-25T16:58:37Z</time>
      </trkpt>
      <trkpt lat="41.913560" lon="-6.265030">
        <ele>879.050</ele>
        <time>2022-02-25T16:59:17Z</time>
      </trkpt>
      <trkpt lat="41.913680" lon="-6.265330">
        <ele>878.124</ele>
        <time>2022-02-25T16:59:57Z</time>
      </trkpt>
      <trkpt lat="41.913760" lon="-6.265520">
        <ele>876.919</ele>
        <time>2022-02-25T17:00:37Z</time>
      </trkpt>
      <trkpt lat="41.913780" lon="-6.265560">
        <ele>876.627</ele>
        <time>2022-02-25T17:01:17Z</time>
      </trkpt>
      <trkpt lat="41.913880" lon="-6.265760">
        <ele>876.268</ele>
        <time>2022-02-25T17:01:57Z</time>
      </trkpt>
      <trkpt lat="41.913980" lon="-6.265930">
        <ele>876.214</ele>
        <time>2022-02-25T17:02:37Z</time>
      </trkpt>
      <trkpt lat="41.914120" lon="-6.266150">
        <ele>875.608</ele>
        <time>2022-02-25T17:03:17Z</time>
      </trkpt>
      <trkpt lat="41.914330" lon="-6.266460">
        <ele>874.671</ele>
        <time>2022-02-25T17:03:57Z</time>
      </trkpt>
      <trkpt lat="41.914470" lon="-6.266650">
        <ele>873.338</ele>
        <time>2022-02-25T17:04:37Z</time>
      </trkpt>
      <trkpt lat="41.914560" lon="-6.266750">
        <ele>872.562</ele>
        <time>2022-02-25T17:05:17Z</time>
      </trkpt>
      <trkpt lat="41.914590" lon="-6.266780">
        <ele>872.348</ele>
        <time>2022-02-25T17:05:57Z</time>
      </trkpt>
      <trkpt lat="41.914670" lon="-6.266850">
        <ele>871.885</ele>
        <time>2022-02-25T17:06:37Z</time>
      </trkpt>
      <trkpt lat="41.914740" lon="-6.266910">
        <ele>871.576</ele>
        <time>2022-02-25T17:07:17Z</time>
      </trkpt>
      <trkpt lat="41.914780" lon="-6.266940">
        <ele>871.390</ele>
        <time>2022-02-25T17:07:57Z</time>
      </trkpt>
      <trkpt lat="41.914880" lon="-6.267000">
        <ele>871.145</ele>
        <time>2022-02-25T17:08:37Z</time>
      </trkpt>
      <trkpt lat="41.914910" lon="-6.267010">
        <ele>871.166</ele>
        <time>2022-02-25T17:09:17Z</time>
      </trkpt>
      <trkpt lat="41.915020" lon="-6.267070">
        <ele>871.329</ele>
        <time>2022-02-25T17:09:57Z</time>
      </trkpt>
      <trkpt lat="41.915070" lon="-6.267100">
        <ele>871.621</ele>
        <time>2022-02-25T17:10:37Z</time>
      </trkpt>
      <trkpt lat="41.915190" lon="-6.267150">
        <ele>872.608</ele>
        <time>2022-02-25T17:11:17Z</time>
      </trkpt>
      <trkpt lat="41.915420" lon="-6.267240">
        <ele>874.085</ele>
        <time>2022-02-25T17:11:57Z</time>
      </trkpt>
      <trkpt lat="41.915470" lon="-6.267260">
        <ele>874.352</ele>
        <time>2022-02-25T17:12:37Z</time>
      </trkpt>
      <trkpt lat="41.915690" lon="-6.267370">
        <ele>874.596</ele>
        <time>2022-02-25T17:13:17Z</time>
      </trkpt>
      <trkpt lat="41.915930" lon="-6.267480">
        <ele>874.182</ele>
        <time>2022-02-25T17:13:57Z</time>
      </trkpt>
      <trkpt lat="41.916020" lon="-6.267530">
        <ele>873.919</ele>
        <time>2022-02-25T17:14:37Z</time>
      </trkpt>
      <trkpt lat="41.916080" lon="-6.267560">
        <ele>873.830</ele>
        <time>2022-02-25T17:15:17Z</time>
      </trkpt>
      <trkpt lat="41.916130" lon="-6.267600">
        <ele>873.894</ele>
        <time>2022-02-25T17:15:57Z</time>
      </trkpt>
      <trkpt lat="41.916180" lon="-6.267630">
        <ele>874.029</ele>
        <time>2022-02-25T17:16:37Z</time>
      </trkpt>
      <trkpt lat="41.916230" lon="-6.267680">
        <ele>874.118</ele>
        <time>2022-02-25T17:17:17Z</time>
      </trkpt>
      <trkpt lat="41.916250" lon="-6.267700">
        <ele>874.198</ele>
        <time>2022-02-25T17:17:57Z</time>
      </trkpt>
      <trkpt lat="41.916260" lon="-6.267720">
        <ele>874.017</ele>
        <time>2022-02-25T17:18:37Z</time>
      </trkpt>
      <trkpt lat="41.916310" lon="-6.267780">
        <ele>873.708</ele>
        <time>2022-02-25T17:19:17Z</time>
      </trkpt>
      <trkpt lat="41.916380" lon="-6.267870">
        <ele>873.010</ele>
        <time>2022-02-25T17:19:57Z</time>
      </trkpt>
      <trkpt lat="41.916420" lon="-6.267930">
        <ele>872.447</ele>
        <time>2022-02-25T17:20:37Z</time>
      </trkpt>
      <trkpt lat="41.916500" lon="-6.268020">
        <ele>871.431</ele>
        <time>2022-02-25T17:21:17Z</time>
      </trkpt>
      <trkpt lat="41.916510" lon="-6.268030">
        <ele>871.347</ele>
        <time>2022-02-25T17:21:57Z</time>
      </trkpt>
      <trkpt lat="41.916570" lon="-6.268090">
        <ele>870.954</ele>
        <time>2022-02-25T17:22:37Z</time>
      </trkpt>
      <trkpt lat="41.916630" lon="-6.268160">
        <ele>870.765</ele>
        <time>2022-02-25T17:23:17Z</time>
      </trkpt>
      <trkpt lat="41.916700" lon="-6.268230">
        <ele>870.349</ele>
        <time>2022-02-25T17:23:57Z</time>
      </trkpt>
      <trkpt lat="41.916820" lon="-6.268330">
        <ele>869.524</ele>
        <time>2022-02-25T17:24:37Z</time>
      </trkpt>
      <trkpt lat="41.916910" lon="-6.268410">
        <ele>869.147</ele>
        <time>2022-02-25T17:25:17Z</time>
      </trkpt>
      <trkpt lat="41.916950" lon="-6.268450">
        <ele>869.029</ele>
        <time>2022-02-25T17:25:57Z</time>
      </trkpt>
      <trkpt lat="41.916970" lon="-6.268470">
        <ele>869.221</ele>
        <time>2022-02-25T17:26:37Z</time>
      </trkpt>
      <trkpt lat="41.917020" lon="-6.268520">
        <ele>869.508</ele>
        <time>2022-02-25T17:27:17Z</time>
      </trkpt>
      <trkpt lat="41.917070" lon="-6.268580">
        <ele>869.643</ele>
        <time>2022-02-25T17:27:57Z</time>
      </trkpt>
      <trkpt lat="41.917130" lon="-6.268650">
        <ele>869.420</ele>
        <time>2022-02-25T17:28:37Z</time>
      </trkpt>
      <trkpt lat="41.917250" lon="-6.268830">
        <ele>868.724</ele>
        <time>2022-02-25T17:29:17Z</time>
      </trkpt>
      <trkpt lat="41.917340" lon="-6.268970">
        <ele>868.710</ele>
        <time>2022-02-25T17:29:57Z</time>
      </trkpt>
      <trkpt lat="41.917420" lon="-6.269080">
        <ele>868.837</ele>
        <time>2022-02-25T17:30:37Z</time>
      </trkpt>
      <trkpt lat="41.917460" lon="-6.269130">
        <ele>868.858</ele>
        <time>2022-02-25T17:31:17Z</time>
      </trkpt>
      <trkpt lat="41.917490" lon="-6.269180">
        <ele>868.852</ele>
        <time>2022-02-25T17:31:57Z</time>
      </trkpt>
      <trkpt lat="41.917570" lon="-6.269280">
        <ele>868.837</ele>
        <time>2022-02-25T17:32:37Z</time>
      </trkpt>
      <trkpt lat="41.917660" lon="-6.269370">
        <ele>868.854</ele>
        <time>2022-02-25T17:33:17Z</time>
      </trkpt>
      <trkpt lat="41.917780" lon="-6.269500">
        <ele>868.656</ele>
        <time>2022-02-25T17:33:57Z</time>
      </trkpt>
      <trkpt lat="41.917870" lon="-6.269590">
        <ele>868.611</ele>
        <time>2022-02-25T17:34:37Z</time>
      </trkpt>
      <trkpt lat="41.917900" lon="-6.269630">
        <ele>868.508</ele>
        <time>2022-02-25T17:35:17Z</time>
      </trkpt>
      <trkpt lat="41.918070" lon="-6.269800">
        <ele>868.214</ele>
        <time>2022-02-25T17:35:57Z</time>
      </trkpt>
      <trkpt lat="41.918250" lon="-6.269970">
        <ele>867.661</ele>
        <time>2022-02-25T17:36:37Z</time>
      </trkpt>
      <trkpt lat="41.918330" lon="-6.270070">
        <ele>867.235</ele>
        <time>2022-02-25T17:37:17Z</time>
      </trkpt>
      <trkpt lat="41.918420" lon="-6.270170">
        <ele>866.831</ele>
        <time>2022-02-25T17:37:57Z</time>
      </trkpt>
      <trkpt lat="41.918440" lon="-6.270190">
        <ele>866.738</ele>
        <time>2022-02-25T17:38:37Z</time>
      </trkpt>
      <trkpt lat="41.918500" lon="-6.270280">
        <ele>866.219</ele>
        <time>2022-02-25T17:39:17Z</time>
      </trkpt>
      <trkpt lat="41.918560" lon="-6.270360">
        <ele>866.323</ele>
        <time>2022-02-25T17:39:57Z</time>
      </trkpt>
      <trkpt lat="41.918580" lon="-6.270400">
        <ele>866.388</ele>
        <time>2022-02-25T17:40:37Z</time>
      </trkpt>
      <trkpt lat="41.918650" lon="-6.270500">
        <ele>866.698</ele>
        <time>2022-02-25T17:41:17Z</time>
      </trkpt>
      <trkpt lat="41.918740" lon="-6.270630">
        <ele>867.015</ele>
        <time>2022-02-25T17:41:57Z</time>
      </trkpt>
      <trkpt lat="41.918790" lon="-6.270730">
        <ele>866.926</ele>
        <time>2022-02-25T17:42:37Z</time>
      </trkpt>
      <trkpt lat="41.918800" lon="-6.270750">
        <ele>866.908</ele>
        <time>2022-02-25T17:43:17Z</time>
      </trkpt>
      <trkpt lat="41.918870" lon="-6.270880">
        <ele>866.618</ele>
        <time>2022-02-25T17:43:57Z</time>
      </trkpt>
      <trkpt lat="41.918890" lon="-6.270940">
        <ele>866.255</ele>
        <time>2022-02-25T17:44:37Z</time>
      </trkpt>
      <trkpt lat="41.918920" lon="-6.271010">
        <ele>866.139</ele>
        <time>2022-02-25T17:45:17Z</time>
      </trkpt>
      <trkpt lat="41.918960" lon="-6.271160">
        <ele>865.785</ele>
        <time>2022-02-25T17:45:57Z</time>
      </trkpt>
      <trkpt lat="41.918970" lon="-6.271170">
        <ele>865.862</ele>
        <time>2022-02-25T17:46:37Z</time>
      </trkpt>
      <trkpt lat="41.919000" lon="-6.271290">
        <ele>865.733</ele>
        <time>2022-02-25T17:47:17Z</time>
      </trkpt>
      <trkpt lat="41.919030" lon="-6.271380">
        <ele>865.557</ele>
        <time>2022-02-25T17:47:57Z</time>
      </trkpt>
      <trkpt lat="41.919060" lon="-6.271460">
        <ele>865.612</ele>
        <time>2022-02-25T17:48:37Z</time>
      </trkpt>
      <trkpt lat="41.919120" lon="-6.271590">
        <ele>865.877</ele>
        <time>2022-02-25T17:49:17Z</time>
      </trkpt>
      <trkpt lat="41.919190" lon="-6.271730">
        <ele>866.361</ele>
        <time>2022-02-25T17:49:57Z</time>
      </trkpt>
      <trkpt lat="41.919270" lon="-6.271910">
        <ele>867.227</ele>
        <time>2022-02-25T17:50:37Z</time>
      </trkpt>
      <trkpt lat="41.919310" lon="-6.272000">
        <ele>867.008</ele>
        <time>2022-02-25T17:51:17Z</time>
      </trkpt>
      <trkpt lat="41.919360" lon="-6.272100">
        <ele>866.646</ele>
        <time>2022-02-25T17:51:57Z</time>
      </trkpt>
      <trkpt lat="41.919450" lon="-6.272280">
        <ele>865.433</ele>
        <time>2022-02-25T17:52:37Z</time>
      </trkpt>
      <trkpt lat="41.919550" lon="-6.272490">
        <ele>863.997</ele>
        <time>2022-02-25T17:53:17Z</time>
      </trkpt>
      <trkpt lat="41.919660" lon="-6.272740">
        <ele>862.083</ele>
        <time>2022-02-25T17:53:57Z</time>
      </trkpt>
      <trkpt lat="41.919730" lon="-6.272910">
        <ele>861.260</ele>
        <time>2022-02-25T17:54:37Z</time>
      </trkpt>
      <trkpt lat="41.919740" lon="-6.272930">
        <ele>861.281</ele>
        <time>2022-02-25T17:55:17Z</time>
      </trkpt>
      <trkpt lat="41.919820" lon="-6.273110">
        <ele>861.565</ele>
        <time>2022-02-25T17:55:57Z</time>
      </trkpt>
      <trkpt lat="41.919820" lon="-6.273120">
        <ele>861.490</ele>
        <time>2022-02-25T17:56:37Z</time>
      </trkpt>
      <trkpt lat="41.919920" lon="-6.273320">
        <ele>861.942</ele>
        <time>2022-02-25T17:57:17Z</time>
      </trkpt>
      <trkpt lat="41.919930" lon="-6.273340">
        <ele>862.022</ele>
        <time>2022-02-25T17:57:57Z</time>
      </trkpt>
      <trkpt lat="41.920010" lon="-6.273530">
        <ele>862.414</ele>
        <time>2022-02-25T17:58:37Z</time>
      </trkpt>
      <trkpt lat="41.920040" lon="-6.273590">
        <ele>862.708</ele>
        <time>2022-02-25T17:59:17Z</time>
      </trkpt>
      <trkpt lat="41.920100" lon="-6.273740">
        <ele>863.373</ele>
        <time>2022-02-25T17:59:57Z</time>
      </trkpt>
      <trkpt lat="41.920160" lon="-6.273870">
        <ele>863.870</ele>
        <time>2022-02-25T18:00:37Z</time>
      </trkpt>
      <trkpt lat="41.920190" lon="-6.273950">
        <ele>863.984</ele>
        <time>2022-02-25T18:01:17Z</time>
      </trkpt>
      <trkpt lat="41.920250" lon="-6.274090">
        <ele>864.060</ele>
        <time>2022-02-25T18:01:57Z</time>
      </trkpt>
      <trkpt lat="41.920270" lon="-6.274170">
        <ele>863.937</ele>
        <time>2022-02-25T18:02:37Z</time>
      </trkpt>
      <trkpt lat="41.920350" lon="-6.274380">
        <ele>864.128</ele>
        <time>2022-02-25T18:03:17Z</time>
      </trkpt>
      <trkpt lat="41.920440" lon="-6.274650">
        <ele>864.862</ele>
        <time>2022-02-25T18:03:57Z</time>
      </trkpt>
      <trkpt lat="41.920500" lon="-6.274820">
        <ele>865.467</ele>
        <time>2022-02-25T18:04:37Z</time>
      </trkpt>
      <trkpt lat="41.920530" lon="-6.274940">
        <ele>865.769</ele>
        <time>2022-02-25T18:05:17Z</time>
      </trkpt>
      <trkpt lat="41.920630" lon="-6.275300">
        <ele>865.004</ele>
        <time>2022-02-25T18:05:57Z</time>
      </trkpt>
      <trkpt lat="41.920720" lon="-6.275620">
        <ele>862.924</ele>
        <time>2022-02-25T18:06:37Z</time>
      </trkpt>
      <trkpt lat="41.920830" lon="-6.276030">
        <ele>862.208</ele>
        <time>2022-02-25T18:07:17Z</time>
      </trkpt>
      <trkpt lat="41.920870" lon="-6.276190">
        <ele>862.215</ele>
        <time>2022-02-25T18:07:57Z</time>
      </trkpt>
      <trkpt lat="41.920900" lon="-6.276300">
        <ele>862.122</ele>
        <time>2022-02-25T18:08:37Z</time>
      </trkpt>
      <trkpt lat="41.920960" lon="-6.276550">
        <ele>862.236</ele>
        <time>2022-02-25T18:09:17Z</time>
      </trkpt>
      <trkpt lat="41.920990" lon="-6.276640">
        <ele>862.562</ele>
        <time>2022-02-25T18:09:57Z</time>
      </trkpt>
      <trkpt lat="41.921000" lon="-6.276700">
        <ele>862.489</ele>
        <time>2022-02-25T18:10:37Z</time>
      </trkpt>
      <trkpt lat="41.921070" lon="-6.276910">
        <ele>861.990</ele>
        <time>2022-02-25T18:11:17Z</time>
      </trkpt>
      <trkpt lat="41.921160" lon="-6.277190">
        <ele>861.854</ele>
        <time>2022-02-25T18:11:57Z</time>
      </trkpt>
      <trkpt lat="41.921280" lon="-6.277510">
        <ele>861.379</ele>
        <time>2022-02-25T18:12:37Z</time>
      </trkpt>
      <trkpt lat="41.921280" lon="-6.277520">
        <ele>861.216</ele>
        <time>2022-02-25T18:13:17Z</time>
      </trkpt>
      <trkpt lat="41.921410" lon="-6.277860">
        <ele>859.776</ele>
        <time>2022-02-25T18:13:57Z</time>
      </trkpt>
      <trkpt lat="41.921520" lon="-6.278140">
        <ele>859.413</ele>
        <time>2022-02-25T18:14:37Z</time>
      </trkpt>
      <trkpt lat="41.921570" lon="-6.278260">
        <ele>859.408</ele>
        <time>2022-02-25T18:15:17Z</time>
      </trkpt>
      <trkpt lat="41.921610" lon="-6.278350">
        <ele>859.310</ele>
        <time>2022-02-25T18:15:57Z</time>
      </trkpt>
      <trkpt lat="41.921620" lon="-6.278380">
        <ele>859.237</ele>
        <time>2022-02-25T18:16:37Z</time>
      </trkpt>
      <trkpt lat="41.921640" lon="-6.278430">
        <ele>859.021</ele>
        <time>2022-02-25T18:17:17Z</time>
      </trkpt>
      <trkpt lat="41.921690" lon="-6.278510">
        <ele>858.987</ele>
        <time>2022-02-25T18:17:57Z</time>
      </trkpt>
      <trkpt lat="41.921720" lon="-6.278570">
        <ele>858.764</ele>
        <time>2022-02-25T18:18:37Z</time>
      </trkpt>
      <trkpt lat="41.921750" lon="-6.278620">
        <ele>858.565</ele>
        <time>2022-02-25T18:19:17Z</time>
      </trkpt>
      <trkpt lat="41.921820" lon="-6.278730">
        <ele>858.219</ele>
        <time>2022-02-25T18:19:57Z</time>
      </trkpt>
      <trkpt lat="41.921880" lon="-6.278820">
        <ele>858.064</ele>
        <time>2022-02-25T18:20:37Z</time>
      </trkpt>
      <trkpt lat="41.921930" lon="-6.278880">
        <ele>858.098</ele>
        <time>2022-02-25T18:21:17Z</time>
      </trkpt>
      <trkpt lat="41.921980" lon="-6.278940">
        <ele>857.615</ele>
        <time>2022-02-25T18:21:57Z</time>
      </trkpt>
      <trkpt lat="41.922030" lon="-6.278980">
        <ele>857.426</ele>
        <time>2022-02-25T18:22:37Z</time>
      </trkpt>
      <trkpt lat="41.922070" lon="-6.279020">
        <ele>857.208</ele>
        <time>2022-02-25T18:23:17Z</time>
      </trkpt>
      <trkpt lat="41.922130" lon="-6.279050">
        <ele>857.368</ele>
        <time>2022-02-25T18:23:57Z</time>
      </trkpt>
      <trkpt lat="41.922190" lon="-6.279080">
        <ele>857.425</ele>
        <time>2022-02-25T18:24:37Z</time>
      </trkpt>
      <trkpt lat="41.922270" lon="-6.279100">
        <ele>857.579</ele>
        <time>2022-02-25T18:25:17Z</time>
      </trkpt>
      <trkpt lat="41.922340" lon="-6.279110">
        <ele>857.425</ele>
        <time>2022-02-25T18:25:57Z</time>
      </trkpt>
      <trkpt lat="41.922410" lon="-6.279100">
        <ele>857.542</ele>
        <time>2022-02-25T18:26:37Z</time>
      </trkpt>
      <trkpt lat="41.922470" lon="-6.279100">
        <ele>857.583</ele>
        <time>2022-02-25T18:27:17Z</time>
      </trkpt>
      <trkpt lat="41.922560" lon="-6.279090">
        <ele>857.697</ele>
        <time>2022-02-25T18:27:57Z</time>
      </trkpt>
      <trkpt lat="41.922640" lon="-6.279070">
        <ele>857.912</ele>
        <time>2022-02-25T18:28:37Z</time>
      </trkpt>
      <trkpt lat="41.922820" lon="-6.279040">
        <ele>858.288</ele>
        <time>2022-02-25T18:29:17Z</time>
      </trkpt>
      <trkpt lat="41.922960" lon="-6.279000">
        <ele>858.124</ele>
        <time>2022-02-25T18:29:57Z</time>
      </trkpt>
      <trkpt lat="41.922980" lon="-6.278990">
        <ele>858.226</ele>
        <time>2022-02-25T18:30:37Z</time>
      </trkpt>
      <trkpt lat="41.923040" lon="-6.278970">
        <ele>858.208</ele>
        <time>2022-02-25T18:31:17Z</time>
      </trkpt>
      <trkpt lat="41.923120" lon="-6.278930">
        <ele>857.717</ele>
        <time>2022-02-25T18:31:57Z</time>
      </trkpt>
      <trkpt lat="41.923250" lon="-6.278860">
        <ele>856.584</ele>
        <time>2022-02-25T18:32:37Z</time>
      </trkpt>
      <trkpt lat="41.923410" lon="-6.278750">
        <ele>855.978</ele>
        <time>2022-02-25T18:33:17Z</time>
      </trkpt>
      <trkpt lat="41.923560" lon="-6.278650">
        <ele>855.424</ele>
        <time>2022-02-25T18:33:57Z</time>
      </trkpt>
      <trkpt lat="41.923760" lon="-6.278510">
        <ele>855.441</ele>
        <time>2022-02-25T18:34:37Z</time>
      </trkpt>
      <trkpt lat="41.923920" lon="-6.278390">
        <ele>856.042</ele>
        <time>2022-02-25T18:35:17Z</time>
      </trkpt>
      <trkpt lat="41.923950" lon="-6.278360">
        <ele>856.246</ele>
        <time>2022-02-25T18:35:57Z</time>
      </trkpt>
      <trkpt lat="41.924070" lon="-6.278260">
        <ele>856.551</ele>
        <time>2022-02-25T18:36:37Z</time>
      </trkpt>
      <trkpt lat="41.924100" lon="-6.278230">
        <ele>856.653</ele>
        <time>2022-02-25T18:37:17Z</time>
      </trkpt>
      <trkpt lat="41.924220" lon="-6.278130">
        <ele>856.504</ele>
        <time>2022-02-25T18:37:57Z</time>
      </trkpt>
      <trkpt lat="41.924360" lon="-6.277980">
        <ele>855.814</ele>
        <time>2022-02-25T18:38:37Z</time>
      </trkpt>
      <trkpt lat="41.924390" lon="-6.277950">
        <ele>855.508</ele>
        <time>2022-02-25T18:39:17Z</time>
      </trkpt>
      <trkpt lat="41.924510" lon="-6.277840">
        <ele>854.214</ele>
        <time>2022-02-25T18:39:57Z</time>
      </trkpt>
      <trkpt lat="41.924530" lon="-6.277800">
        <ele>854.041</ele>
        <time>2022-02-25T18:40:37Z</time>
      </trkpt>
      <trkpt lat="41.924660" lon="-6.277650">
        <ele>851.735</ele>
        <time>2022-02-25T18:41:17Z</time>
      </trkpt>
      <trkpt lat="41.924770" lon="-6.277500">
        <ele>850.561</ele>
        <time>2022-02-25T18:41:57Z</time>
      </trkpt>
      <trkpt lat="41.924790" lon="-6.277470">
        <ele>850.558</ele>
        <time>2022-02-25T18:42:37Z</time>
      </trkpt>
      <trkpt lat="41.924900" lon="-6.277320">
        <ele>850.039</ele>
        <time>2022-02-25T18:43:17Z</time>
      </trkpt>
      <trkpt lat="41.924920" lon="-6.277290">
        <ele>849.863</ele>
        <time>2022-02-25T18:43:57Z</time>
      </trkpt>
      <trkpt lat="41.925000" lon="-6.277190">
        <ele>849.288</ele>
        <time>2022-02-25T18:44:37Z</time>
      </trkpt>
      <trkpt lat="41.925090" lon="-6.277070">
        <ele>848.667</ele>
        <time>2022-02-25T18:45:17Z</time>
      </trkpt>
      <trkpt lat="41.925180" lon="-6.276970">
        <ele>847.681</ele>
        <time>2022-02-25T18:45:57Z</time>
      </trkpt>
      <trkpt lat="41.925260" lon="-6.276910">
        <ele>846.619</ele>
        <time>2022-02-25T18:46:37Z</time>
      </trkpt>
      <trkpt lat="41.925350" lon="-6.276830">
        <ele>845.908</ele>
        <time>2022-02-25T18:47:17Z</time>
      </trkpt>
      <trkpt lat="41.925430" lon="-6.276770">
        <ele>845.435</ele>
        <time>2022-02-25T18:47:57Z</time>
      </trkpt>
      <trkpt lat="41.925490" lon="-6.276730">
        <ele>845.182</ele>
        <time>2022-02-25T18:48:37Z</time>
      </trkpt>
      <trkpt lat="41.925570" lon="-6.276680">
        <ele>844.816</ele>
        <time>2022-02-25T18:49:17Z</time>
      </trkpt>
      <trkpt lat="41.925630" lon="-6.276640">
        <ele>844.622</ele>
        <time>2022-02-25T18:49:57Z</time>
      </trkpt>
      <trkpt lat="41.925660" lon="-6.276630">
        <ele>844.549</ele>
        <time>2022-02-25T18:50:37Z</time>
      </trkpt>
      <trkpt lat="41.925690" lon="-6.276610">
        <ele>844.340</ele>
        <time>2022-02-25T18:51:17Z</time>
      </trkpt>
      <trkpt lat="41.925750" lon="-6.276580">
        <ele>844.094</ele>
        <time>2022-02-25T18:51:57Z</time>
      </trkpt>
      <trkpt lat="41.925810" lon="-6.276570">
        <ele>843.599</ele>
        <time>2022-02-25T18:52:37Z</time>
      </trkpt>
      <trkpt lat="41.925860" lon="-6.276560">
        <ele>843.298</ele>
        <time>2022-02-25T18:53:17Z</time>
      </trkpt>
      <trkpt lat="41.925930" lon="-6.276560">
        <ele>842.715</ele>
        <time>2022-02-25T18:53:57Z</time>
      </trkpt>
      <trkpt lat="41.926030" lon="-6.276580">
        <ele>841.926</ele>
        <time>2022-02-25T18:54:37Z</time>
      </trkpt>
      <trkpt lat="41.926090" lon="-6.276590">
        <ele>841.408</ele>
        <time>2022-02-25T18:55:17Z</time>
      </trkpt>
      <trkpt lat="41.926120" lon="-6.276600">
        <ele>841.268</ele>
        <time>2022-02-25T18:55:57Z</time>
      </trkpt>
      <trkpt lat="41.926240" lon="-6.276640">
        <ele>840.265</ele>
        <time>2022-02-25T18:56:37Z</time>
      </trkpt>
      <trkpt lat="41.926380" lon="-6.276690">
        <ele>839.149</ele>
        <time>2022-02-25T18:57:17Z</time>
      </trkpt>
      <trkpt lat="41.926490" lon="-6.276760">
        <ele>839.015</ele>
        <time>2022-02-25T18:57:57Z</time>
      </trkpt>
      <trkpt lat="41.926570" lon="-6.276830">
        <ele>839.032</ele>
        <time>2022-02-25T18:58:37Z</time>
      </trkpt>
      <trkpt lat="41.926670" lon="-6.276900">
        <ele>839.053</ele>
        <time>2022-02-25T18:59:17Z</time>
      </trkpt>
      <trkpt lat="41.926750" lon="-6.276980">
        <ele>839.367</ele>
        <time>2022-02-25T18:59:57Z</time>
      </trkpt>
      <trkpt lat="41.926850" lon="-6.277070">
        <ele>840.082</ele>
        <time>2022-02-25T19:00:37Z</time>
      </trkpt>
      <trkpt lat="41.926960" lon="-6.277170">
        <ele>840.985</ele>
        <time>2022-02-25T19:01:17Z</time>
      </trkpt>
      <trkpt lat="41.927030" lon="-6.277250">
        <ele>841.489</ele>
        <time>2022-02-25T19:01:57Z</time>
      </trkpt>
      <trkpt lat="41.927100" lon="-6.277300">
        <ele>842.017</ele>
        <time>2022-02-25T19:02:37Z</time>
      </trkpt>
      <trkpt lat="41.927140" lon="-6.277320">
        <ele>842.308</ele>
        <time>2022-02-25T19:03:17Z</time>
      </trkpt>
      <trkpt lat="41.927160" lon="-6.277340">
        <ele>842.587</ele>
        <time>2022-02-25T19:03:57Z</time>
      </trkpt>
      <trkpt lat="41.927210" lon="-6.277360">
        <ele>842.954</ele>
        <time>2022-02-25T19:04:37Z</time>
      </trkpt>
      <trkpt lat="41.927260" lon="-6.277370">
        <ele>843.188</ele>
        <time>2022-02-25T19:05:17Z</time>
      </trkpt>
      <trkpt lat="41.927310" lon="-6.277380">
        <ele>843.114</ele>
        <time>2022-02-25T19:05:57Z</time>
      </trkpt>
      <trkpt lat="41.927350" lon="-6.277380">
        <ele>843.161</ele>
        <time>2022-02-25T19:06:37Z</time>
      </trkpt>
      <trkpt lat="41.927410" lon="-6.277370">
        <ele>843.142</ele>
        <time>2022-02-25T19:07:17Z</time>
      </trkpt>
      <trkpt lat="41.927460" lon="-6.277350">
        <ele>842.966</ele>
        <time>2022-02-25T19:07:57Z</time>
      </trkpt>
      <trkpt lat="41.927490" lon="-6.277340">
        <ele>842.841</ele>
        <time>2022-02-25T19:08:37Z</time>
      </trkpt>
      <trkpt lat="41.927540" lon="-6.277330">
        <ele>843.147</ele>
        <time>2022-02-25T19:09:17Z</time>
      </trkpt>
      <trkpt lat="41.927590" lon="-6.277300">
        <ele>843.329</ele>
        <time>2022-02-25T19:09:57Z</time>
      </trkpt>
      <trkpt lat="41.927660" lon="-6.277250">
        <ele>843.421</ele>
        <time>2022-02-25T19:10:37Z</time>
      </trkpt>
      <trkpt lat="41.927670" lon="-6.277250">
        <ele>843.508</ele>
        <time>2022-02-25T19:11:17Z</time>
      </trkpt>
      <trkpt lat="41.927770" lon="-6.277170">
        <ele>843.953</ele>
        <time>2022-02-25T19:11:57Z</time>
      </trkpt>
      <trkpt lat="41.927870" lon="-6.277080">
        <ele>845.280</ele>
        <time>2022-02-25T19:12:37Z</time>
      </trkpt>
      <trkpt lat="41.927980" lon="-6.276970">
        <ele>846.344</ele>
        <time>2022-02-25T19:13:17Z</time>
      </trkpt>
      <trkpt lat="41.928070" lon="-6.276890">
        <ele>846.860</ele>
        <time>2022-02-25T19:13:57Z</time>
      </trkpt>
      <trkpt lat="41.928210" lon="-6.276750">
        <ele>846.587</ele>
        <time>2022-02-25T19:14:37Z</time>
      </trkpt>
      <trkpt lat="41.928300" lon="-6.276650">
        <ele>845.918</ele>
        <time>2022-02-25T19:15:17Z</time>
      </trkpt>
      <trkpt lat="41.928400" lon="-6.276560">
        <ele>845.872</ele>
        <time>2022-02-25T19:15:57Z</time>
      </trkpt>
      <trkpt lat="41.928460" lon="-6.276510">
        <ele>845.677</ele>
        <time>2022-02-25T19:16:37Z</time>
      </trkpt>
      <trkpt lat="41.928500" lon="-6.276490">
        <ele>845.679</ele>
        <time>2022-02-25T19:17:17Z</time>
      </trkpt>
      <trkpt lat="41.928540" lon="-6.276470">
        <ele>845.505</ele>
        <time>2022-02-25T19:17:57Z</time>
      </trkpt>
      <trkpt lat="41.928560" lon="-6.276460">
        <ele>845.525</ele>
        <time>2022-02-25T19:18:37Z</time>
      </trkpt>
      <trkpt lat="41.928580" lon="-6.276450">
        <ele>845.408</ele>
        <time>2022-02-25T19:19:17Z</time>
      </trkpt>
      <trkpt lat="41.928630" lon="-6.276440">
        <ele>845.456</ele>
        <time>2022-02-25T19:19:57Z</time>
      </trkpt>
      <trkpt lat="41.928680" lon="-6.276430">
        <ele>845.393</ele>
        <time>2022-02-25T19:20:37Z</time>
      </trkpt>
      <trkpt lat="41.928740" lon="-6.276420">
        <ele>845.277</ele>
        <time>2022-02-25T19:21:17Z</time>
      </trkpt>
      <trkpt lat="41.928820" lon="-6.276410">
        <ele>845.263</ele>
        <time>2022-02-25T19:21:57Z</time>
      </trkpt>
      <trkpt lat="41.928880" lon="-6.276410">
        <ele>845.210</ele>
        <time>2022-02-25T19:22:37Z</time>
      </trkpt>
      <trkpt lat="41.928950" lon="-6.276410">
        <ele>845.261</ele>
        <time>2022-02-25T19:23:17Z</time>
      </trkpt>
      <trkpt lat="41.929020" lon="-6.276420">
        <ele>845.215</ele>
        <time>2022-02-25T19:23:57Z</time>
      </trkpt>
      <trkpt lat="41.929070" lon="-6.276430">
        <ele>845.350</ele>
        <time>2022-02-25T19:24:37Z</time>
      </trkpt>
      <trkpt lat="41.929090" lon="-6.276430">
        <ele>845.322</ele>
        <time>2022-02-25T19:25:17Z</time>
      </trkpt>
      <trkpt lat="41.929120" lon="-6.276440">
        <ele>845.462</ele>
        <time>2022-02-25T19:25:57Z</time>
      </trkpt>
      <trkpt lat="41.929180" lon="-6.276460">
        <ele>845.508</ele>
        <time>2022-02-25T19:26:37Z</time>
      </trkpt>
      <trkpt lat="41.929230" lon="-6.276490">
        <ele>845.908</ele>
        <time>2022-02-25T19:27:17Z</time>
      </trkpt>
      <trkpt lat="41.929260" lon="-6.276510">
        <ele>846.121</ele>
        <time>2022-02-25T19:27:57Z</time>
      </trkpt>
      <trkpt lat="41.929290" lon="-6.276530">
        <ele>846.228</ele>
        <time>2022-02-25T19:28:37Z</time>
      </trkpt>
      <trkpt lat="41.929380" lon="-6.276590">
        <ele>846.762</ele>
        <time>2022-02-25T19:29:17Z</time>
      </trkpt>
      <trkpt lat="41.929420" lon="-6.276620">
        <ele>846.878</ele>
        <time>2022-02-25T19:29:57Z</time>
      </trkpt>
      <trkpt lat="41.929490" lon="-6.276670">
        <ele>847.455</ele>
        <time>2022-02-25T19:30:37Z</time>
      </trkpt>
      <trkpt lat="41.929620" lon="-6.276770">
        <ele>849.116</ele>
        <time>2022-02-25T19:31:17Z</time>
      </trkpt>
      <trkpt lat="41.929730" lon="-6.276870">
        <ele>850.560</ele>
        <time>2022-02-25T19:31:57Z</time>
      </trkpt>
      <trkpt lat="41.929750" lon="-6.276890">
        <ele>850.645</ele>
        <time>2022-02-25T19:32:37Z</time>
      </trkpt>
      <trkpt lat="41.929870" lon="-6.277010">
        <ele>851.569</ele>
        <time>2022-02-25T19:33:17Z</time>
      </trkpt>
      <trkpt lat="41.929890" lon="-6.277030">
        <ele>851.604</ele>
        <time>2022-02-25T19:33:57Z</time>
      </trkpt>
      <trkpt lat="41.930000" lon="-6.277140">
        <ele>852.424</ele>
        <time>2022-02-25T19:34:37Z</time>
      </trkpt>
      <trkpt lat="41.930020" lon="-6.277160">
        <ele>852.708</ele>
        <time>2022-02-25T19:35:17Z</time>
      </trkpt>
      <trkpt lat="41.930100" lon="-6.277250">
        <ele>853.845</ele>
        <time>2022-02-25T19:35:57Z</time>
      </trkpt>
      <trkpt lat="41.930150" lon="-6.277320">
        <ele>854.212</ele>
        <time>2022-02-25T19:36:37Z</time>
      </trkpt>
      <trkpt lat="41.930180" lon="-6.277360">
        <ele>854.536</ele>
        <time>2022-02-25T19:37:17Z</time>
      </trkpt>
      <trkpt lat="41.930250" lon="-6.277470">
        <ele>854.912</ele>
        <time>2022-02-25T19:37:57Z</time>
      </trkpt>
      <trkpt lat="41.930270" lon="-6.277500">
        <ele>855.049</ele>
        <time>2022-02-25T19:38:37Z</time>
      </trkpt>
      <trkpt lat="41.930350" lon="-6.277660">
        <ele>855.090</ele>
        <time>2022-02-25T19:39:17Z</time>
      </trkpt>
      <trkpt lat="41.930490" lon="-6.277940">
        <ele>855.794</ele>
        <time>2022-02-25T19:39:57Z</time>
      </trkpt>
      <trkpt lat="41.930600" lon="-6.278160">
        <ele>856.159</ele>
        <time>2022-02-25T19:40:37Z</time>
      </trkpt>
      <trkpt lat="41.930680" lon="-6.278300">
        <ele>856.029</ele>
        <time>2022-02-25T19:41:17Z</time>
      </trkpt>
      <trkpt lat="41.930720" lon="-6.278370">
        <ele>856.100</ele>
        <time>2022-02-25T19:41:57Z</time>
      </trkpt>
      <trkpt lat="41.930780" lon="-6.278500">
        <ele>856.620</ele>
        <time>2022-02-25T19:42:37Z</time>
      </trkpt>
      <trkpt lat="41.930840" lon="-6.278610">
        <ele>856.908</ele>
        <time>2022-02-25T19:43:17Z</time>
      </trkpt>
      <trkpt lat="41.930880" lon="-6.278700">
        <ele>857.591</ele>
        <time>2022-02-25T19:43:57Z</time>
      </trkpt>
      <trkpt lat="41.930960" lon="-6.278880">
        <ele>858.578</ele>
        <time>2022-02-25T19:44:37Z</time>
      </trkpt>
      <trkpt lat="41.931060" lon="-6.279100">
        <ele>860.042</ele>
        <time>2022-02-25T19:45:17Z</time>
      </trkpt>
      <trkpt lat="41.931100" lon="-6.279200">
        <ele>860.688</ele>
        <time>2022-02-25T19:45:57Z</time>
      </trkpt>
      <trkpt lat="41.931170" lon="-6.279330">
        <ele>861.795</ele>
        <time>2022-02-25T19:46:37Z</time>
      </trkpt>
      <trkpt lat="41.931230" lon="-6.279440">
        <ele>862.236</ele>
        <time>2022-02-25T19:47:17Z</time>
      </trkpt>
      <trkpt lat="41.931300" lon="-6.279540">
        <ele>862.240</ele>
        <time>2022-02-25T19:47:57Z</time>
      </trkpt>
      <trkpt lat="41.931330" lon="-6.279580">
        <ele>862.295</ele>
        <time>2022-02-25T19:48:37Z</time>
      </trkpt>
      <trkpt lat="41.931360" lon="-6.279610">
        <ele>862.147</ele>
        <time>2022-02-25T19:49:17Z</time>
      </trkpt>
      <trkpt lat="41.931430" lon="-6.279690">
        <ele>862.129</ele>
        <time>2022-02-25T19:49:57Z</time>
      </trkpt>
      <trkpt lat="41.931500" lon="-6.279740">
        <ele>861.521</ele>
        <time>2022-02-25T19:50:37Z</time>
      </trkpt>
      <trkpt lat="41.931560" lon="-6.279780">
        <ele>861.008</ele>
        <time>2022-02-25T19:51:17Z</time>
      </trkpt>
      <trkpt lat="41.931620" lon="-6.279810">
        <ele>860.353</ele>
        <time>2022-02-25T19:51:57Z</time>
      </trkpt>
      <trkpt lat="41.931690" lon="-6.279820">
        <ele>859.730</ele>
        <time>2022-02-25T19:52:37Z</time>
      </trkpt>
      <trkpt lat="41.931770" lon="-6.279830">
        <ele>859.814</ele>
        <time>2022-02-25T19:53:17Z</time>
      </trkpt>
      <trkpt lat="41.931830" lon="-6.279830">
        <ele>859.820</ele>
        <time>2022-02-25T19:53:57Z</time>
      </trkpt>
      <trkpt lat="41.931890" lon="-6.279820">
        <ele>859.747</ele>
        <time>2022-02-25T19:54:37Z</time>
      </trkpt>
      <trkpt lat="41.931950" lon="-6.279790">
        <ele>859.588</ele>
        <time>2022-02-25T19:55:17Z</time>
      </trkpt>
      <trkpt lat="41.931990" lon="-6.279770">
        <ele>859.652</ele>
        <time>2022-02-25T19:55:57Z</time>
      </trkpt>
      <trkpt lat="41.932010" lon="-6.279760">
        <ele>859.717</ele>
        <time>2022-02-25T19:56:37Z</time>
      </trkpt>
      <trkpt lat="41.932110" lon="-6.279700">
        <ele>860.078</ele>
        <time>2022-02-25T19:57:17Z</time>
      </trkpt>
      <trkpt lat="41.932160" lon="-6.279670">
        <ele>860.233</ele>
        <time>2022-02-25T19:57:57Z</time>
      </trkpt>
      <trkpt lat="41.932390" lon="-6.279520">
        <ele>860.626</ele>
        <time>2022-02-25T19:58:37Z</time>
      </trkpt>
      <trkpt lat="41.932470" lon="-6.279470">
        <ele>860.908</ele>
        <time>2022-02-25T19:59:17Z</time>
      </trkpt>
      <trkpt lat="41.932540" lon="-6.279430">
        <ele>861.196</ele>
        <time>2022-02-25T19:59:57Z</time>
      </trkpt>
      <trkpt lat="41.932620" lon="-6.279390">
        <ele>861.223</ele>
        <time>2022-02-25T20:00:37Z</time>
      </trkpt>
      <trkpt lat="41.932680" lon="-6.279370">
        <ele>861.437</ele>
        <time>2022-02-25T20:01:17Z</time>
      </trkpt>
      <trkpt lat="41.932800" lon="-6.279330">
        <ele>861.753</ele>
        <time>2022-02-25T20:01:57Z</time>
      </trkpt>
      <trkpt lat="41.932960" lon="-6.279270">
        <ele>862.340</ele>
        <time>2022-02-25T20:02:37Z</time>
      </trkpt>
      <trkpt lat="41.933140" lon="-6.279220">
        <ele>862.721</ele>
        <time>2022-02-25T20:03:17Z</time>
      </trkpt>
      <trkpt lat="41.933240" lon="-6.279200">
        <ele>862.985</ele>
        <time>2022-02-25T20:03:57Z</time>
      </trkpt>
      <trkpt lat="41.933330" lon="-6.279190">
        <ele>863.210</ele>
        <time>2022-02-25T20:04:37Z</time>
      </trkpt>
      <trkpt lat="41.933390" lon="-6.279180">
        <ele>863.163</ele>
        <time>2022-02-25T20:05:17Z</time>
      </trkpt>
      <trkpt lat="41.933410" lon="-6.279180">
        <ele>863.144</ele>
        <time>2022-02-25T20:05:57Z</time>
      </trkpt>
      <trkpt lat="41.933510" lon="-6.279180">
        <ele>863.118</ele>
        <time>2022-02-25T20:06:37Z</time>
      </trkpt>
      <trkpt lat="41.933570" lon="-6.279180">
        <ele>863.108</ele>
        <time>2022-02-25T20:07:17Z</time>
      </trkpt>
      <trkpt lat="41.933600" lon="-6.279180">
        <ele>863.055</ele>
        <time>2022-02-25T20:07:57Z</time>
      </trkpt>
      <trkpt lat="41.933690" lon="-6.279190">
        <ele>862.552</ele>
        <time>2022-02-25T20:08:37Z</time>
      </trkpt>
      <trkpt lat="41.933820" lon="-6.279210">
        <ele>861.556</ele>
        <time>2022-02-25T20:09:17Z</time>
      </trkpt>
      <trkpt lat="41.933960" lon="-6.279230">
        <ele>860.562</ele>
        <time>2022-02-25T20:09:57Z</time>
      </trkpt>
      <trkpt lat="41.934050" lon="-6.279250">
        <ele>860.039</ele>
        <time>2022-02-25T20:10:37Z</time>
      </trkpt>
      <trkpt lat="41.934120" lon="-6.279260">
        <ele>859.630</ele>
        <time>2022-02-25T20:11:17Z</time>
      </trkpt>
      <trkpt lat="41.934220" lon="-6.279290">
        <ele>859.424</ele>
        <time>2022-02-25T20:11:57Z</time>
      </trkpt>
      <trkpt lat="41.934310" lon="-6.279320">
        <ele>859.319</ele>
        <time>2022-02-25T20:12:37Z</time>
      </trkpt>
      <trkpt lat="41.934400" lon="-6.279350">
        <ele>859.176</ele>
        <time>2022-02-25T20:13:17Z</time>
      </trkpt>
      <trkpt lat="41.934480" lon="-6.279380">
        <ele>859.090</ele>
        <time>2022-02-25T20:13:57Z</time>
      </trkpt>
      <trkpt lat="41.934560" lon="-6.279420">
        <ele>859.019</ele>
        <time>2022-02-25T20:14:37Z</time>
      </trkpt>
      <trkpt lat="41.934640" lon="-6.279470">
        <ele>859.008</ele>
        <time>2022-02-25T20:15:17Z</time>
      </trkpt>
      <trkpt lat="41.934720" lon="-6.279530">
        <ele>859.046</ele>
        <time>2022-02-25T20:15:57Z</time>
      </trkpt>
      <trkpt lat="41.934790" lon="-6.279600">
        <ele>858.763</ele>
        <time>2022-02-25T20:16:37Z</time>
      </trkpt>
      <trkpt lat="41.934860" lon="-6.279680">
        <ele>858.277</ele>
        <time>2022-02-25T20:17:17Z</time>
      </trkpt>
      <trkpt lat="41.934910" lon="-6.279760">
        <ele>857.583</ele>
        <time>2022-02-25T20:17:57Z</time>
      </trkpt>
      <trkpt lat="41.934960" lon="-6.279840">
        <ele>856.660</ele>
        <time>2022-02-25T20:18:37Z</time>
      </trkpt>
      <trkpt lat="41.935030" lon="-6.280000">
        <ele>854.821</ele>
        <time>2022-02-25T20:19:17Z</time>
      </trkpt>
      <trkpt lat="41.935110" lon="-6.280170">
        <ele>855.255</ele>
        <time>2022-02-25T20:19:57Z</time>
      </trkpt>
      <trkpt lat="41.935130" lon="-6.280200">
        <ele>855.290</ele>
        <time>2022-02-25T20:20:37Z</time>
      </trkpt>
      <trkpt lat="41.935200" lon="-6.280380">
        <ele>856.243</ele>
        <time>2022-02-25T20:21:17Z</time>
      </trkpt>
      <trkpt lat="41.935210" lon="-6.280400">
        <ele>856.464</ele>
        <time>2022-02-25T20:21:57Z</time>
      </trkpt>
      <trkpt lat="41.935280" lon="-6.280550">
        <ele>857.910</ele>
        <time>2022-02-25T20:22:37Z</time>
      </trkpt>
      <trkpt lat="41.935320" lon="-6.280650">
        <ele>858.208</ele>
        <time>2022-02-25T20:23:17Z</time>
      </trkpt>
      <trkpt lat="41.935380" lon="-6.280760">
        <ele>858.463</ele>
        <time>2022-02-25T20:23:57Z</time>
      </trkpt>
      <trkpt lat="41.935500" lon="-6.280930">
        <ele>857.650</ele>
        <time>2022-02-25T20:24:37Z</time>
      </trkpt>
      <trkpt lat="41.935530" lon="-6.280950">
        <ele>857.344</ele>
        <time>2022-02-25T20:25:17Z</time>
      </trkpt>
      <trkpt lat="41.935600" lon="-6.281050">
        <ele>856.590</ele>
        <time>2022-02-25T20:25:57Z</time>
      </trkpt>
      <trkpt lat="41.935670" lon="-6.281100">
        <ele>855.727</ele>
        <time>2022-02-25T20:26:37Z</time>
      </trkpt>
      <trkpt lat="41.935670" lon="-6.281110">
        <ele>855.878</ele>
        <time>2022-02-25T20:27:17Z</time>
      </trkpt>
      <trkpt lat="41.935740" lon="-6.281160">
        <ele>855.392</ele>
        <time>2022-02-25T20:27:57Z</time>
      </trkpt>
      <trkpt lat="41.935800" lon="-6.281200">
        <ele>855.077</ele>
        <time>2022-02-25T20:28:37Z</time>
      </trkpt>
      <trkpt lat="41.935880" lon="-6.281230">
        <ele>854.999</ele>
        <time>2022-02-25T20:29:17Z</time>
      </trkpt>
      <trkpt lat="41.935950" lon="-6.281250">
        <ele>855.007</ele>
        <time>2022-02-25T20:29:57Z</time>
      </trkpt>
      <trkpt lat="41.936000" lon="-6.281270">
        <ele>855.127</ele>
        <time>2022-02-25T20:30:37Z</time>
      </trkpt>
      <trkpt lat="41.936030" lon="-6.281270">
        <ele>855.108</ele>
        <time>2022-02-25T20:31:17Z</time>
      </trkpt>
      <trkpt lat="41.936110" lon="-6.281290">
        <ele>855.358</ele>
        <time>2022-02-25T20:31:57Z</time>
      </trkpt>
      <trkpt lat="41.936180" lon="-6.281290">
        <ele>855.465</ele>
        <time>2022-02-25T20:32:37Z</time>
      </trkpt>
      <trkpt lat="41.936390" lon="-6.281310">
        <ele>855.739</ele>
        <time>2022-02-25T20:33:17Z</time>
      </trkpt>
      <trkpt lat="41.936460" lon="-6.281320">
        <ele>855.585</ele>
        <time>2022-02-25T20:33:57Z</time>
      </trkpt>
      <trkpt lat="41.936520" lon="-6.281350">
        <ele>855.492</ele>
        <time>2022-02-25T20:34:37Z</time>
      </trkpt>
      <trkpt lat="41.936600" lon="-6.281380">
        <ele>855.283</ele>
        <time>2022-02-25T20:35:17Z</time>
      </trkpt>
      <trkpt lat="41.936660" lon="-6.281420">
        <ele>855.187</ele>
        <time>2022-02-25T20:35:57Z</time>
      </trkpt>
      <trkpt lat="41.936710" lon="-6.281460">
        <ele>855.122</ele>
        <time>2022-02-25T20:36:37Z</time>
      </trkpt>
      <trkpt lat="41.936760" lon="-6.281510">
        <ele>855.126</ele>
        <time>2022-02-25T20:37:17Z</time>
      </trkpt>
      <trkpt lat="41.936850" lon="-6.281600">
        <ele>855.147</ele>
        <time>2022-02-25T20:37:57Z</time>
      </trkpt>
      <trkpt lat="41.936860" lon="-6.281610">
        <ele>855.111</ele>
        <time>2022-02-25T20:38:37Z</time>
      </trkpt>
      <trkpt lat="41.936930" lon="-6.281690">
        <ele>855.108</ele>
        <time>2022-02-25T20:39:17Z</time>
      </trkpt>
      <trkpt lat="41.936980" lon="-6.281750">
        <ele>855.251</ele>
        <time>2022-02-25T20:39:57Z</time>
      </trkpt>
      <trkpt lat="41.937030" lon="-6.281820">
        <ele>855.298</ele>
        <time>2022-02-25T20:40:37Z</time>
      </trkpt>
      <trkpt lat="41.937070" lon="-6.281890">
        <ele>855.432</ele>
        <time>2022-02-25T20:41:17Z</time>
      </trkpt>
      <trkpt lat="41.937090" lon="-6.281940">
        <ele>855.548</ele>
        <time>2022-02-25T20:41:57Z</time>
      </trkpt>
      <trkpt lat="41.937110" lon="-6.281970">
        <ele>855.545</ele>
        <time>2022-02-25T20:42:37Z</time>
      </trkpt>
      <trkpt lat="41.937140" lon="-6.282070">
        <ele>855.746</ele>
        <time>2022-02-25T20:43:17Z</time>
      </trkpt>
      <trkpt lat="41.937144" lon="-6.282069">
        <ele>855.730</ele>
        <time>2022-02-25T20:43:57Z</time>
      </trkpt>
      <trkpt lat="41.937260" lon="-6.282110">
        <ele>855.585</ele>
        <time>2022-02-25T20:44:37Z</time>
      </trkpt>
      <trkpt lat="41.937320" lon="-6.282140">
        <ele>855.428</ele>
        <time>2022-02-25T20:45:17Z</time>
      </trkpt>
      <trkpt lat="41.937350" lon="-6.282150">
        <ele>855.389</ele>
        <time>2022-02-25T20:45:57Z</time>
      </trkpt>
      <trkpt lat="41.937440" lon="-6.282200">
        <ele>855.117</ele>
        <time>2022-02-25T20:46:37Z</time>
      </trkpt>
      <trkpt lat="41.937660" lon="-6.282330">
        <ele>854.108</ele>
        <time>2022-02-25T20:47:17Z</time>
      </trkpt>
      <trkpt lat="41.937980" lon="-6.282520">
        <ele>851.231</ele>
        <time>2022-02-25T20:47:57Z</time>
      </trkpt>
      <trkpt lat="41.938140" lon="-6.282610">
        <ele>850.318</ele>
        <time>2022-02-25T20:48:37Z</time>
      </trkpt>
      <trkpt lat="41.938310" lon="-6.282710">
        <ele>850.472</ele>
        <time>2022-02-25T20:49:17Z</time>
      </trkpt>
      <trkpt lat="41.938390" lon="-6.282760">
        <ele>850.888</ele>
        <time>2022-02-25T20:49:57Z</time>
      </trkpt>
      <trkpt lat="41.938740" lon="-6.282970">
        <ele>852.145</ele>
        <time>2022-02-25T20:50:37Z</time>
      </trkpt>
      <trkpt lat="41.938820" lon="-6.283010">
        <ele>852.046</ele>
        <time>2022-02-25T20:51:17Z</time>
      </trkpt>
      <trkpt lat="41.938890" lon="-6.283060">
        <ele>852.050</ele>
        <time>2022-02-25T20:51:57Z</time>
      </trkpt>
      <trkpt lat="41.938960" lon="-6.283100">
        <ele>851.935</ele>
        <time>2022-02-25T20:52:37Z</time>
      </trkpt>
      <trkpt lat="41.939080" lon="-6.283200">
        <ele>851.855</ele>
        <time>2022-02-25T20:53:17Z</time>
      </trkpt>
      <trkpt lat="41.939170" lon="-6.283300">
        <ele>851.907</ele>
        <time>2022-02-25T20:53:57Z</time>
      </trkpt>
      <trkpt lat="41.939250" lon="-6.283380">
        <ele>852.217</ele>
        <time>2022-02-25T20:54:37Z</time>
      </trkpt>
      <trkpt lat="41.939320" lon="-6.283460">
        <ele>852.508</ele>
        <time>2022-02-25T20:55:17Z</time>
      </trkpt>
      <trkpt lat="41.939400" lon="-6.283550">
        <ele>852.824</ele>
        <time>2022-02-25T20:55:57Z</time>
      </trkpt>
      <trkpt lat="41.939480" lon="-6.283660">
        <ele>853.311</ele>
        <time>2022-02-25T20:56:37Z</time>
      </trkpt>
      <trkpt lat="41.939620" lon="-6.283830">
        <ele>854.455</ele>
        <time>2022-02-25T20:57:17Z</time>
      </trkpt>
      <trkpt lat="41.939650" lon="-6.283860">
        <ele>854.631</ele>
        <time>2022-02-25T20:57:57Z</time>
      </trkpt>
      <trkpt lat="41.939830" lon="-6.284080">
        <ele>855.378</ele>
        <time>2022-02-25T20:58:37Z</time>
      </trkpt>
      <trkpt lat="41.939940" lon="-6.284220">
        <ele>856.019</ele>
        <time>2022-02-25T20:59:17Z</time>
      </trkpt>
      <trkpt lat="41.940120" lon="-6.284440">
        <ele>857.413</ele>
        <time>2022-02-25T20:59:57Z</time>
      </trkpt>
      <trkpt lat="41.940200" lon="-6.284540">
        <ele>858.468</ele>
        <time>2022-02-25T21:00:37Z</time>
      </trkpt>
      <trkpt lat="41.940270" lon="-6.284630">
        <ele>859.395</ele>
        <time>2022-02-25T21:01:17Z</time>
      </trkpt>
      <trkpt lat="41.940320" lon="-6.284690">
        <ele>859.649</ele>
        <time>2022-02-25T21:01:57Z</time>
      </trkpt>
      <trkpt lat="41.940360" lon="-6.284730">
        <ele>859.723</ele>
        <time>2022-02-25T21:02:37Z</time>
      </trkpt>
      <trkpt lat="41.940380" lon="-6.284750">
        <ele>859.708</ele>
        <time>2022-02-25T21:03:17Z</time>
      </trkpt>
      <trkpt lat="41.940400" lon="-6.284760">
        <ele>859.628</ele>
        <time>2022-02-25T21:03:57Z</time>
      </trkpt>
      <trkpt lat="41.940440" lon="-6.284790">
        <ele>859.525</ele>
        <time>2022-02-25T21:04:37Z</time>
      </trkpt>
      <trkpt lat="41.940442" lon="-6.284789">
        <ele>859.539</ele>
        <time>2022-02-25T21:05:17Z</time>
      </trkpt>
      <trkpt lat="41.940440" lon="-6.284850">
        <ele>859.695</ele>
        <time>2022-02-25T21:05:57Z</time>
      </trkpt>
      <trkpt lat="41.940440" lon="-6.284880">
        <ele>859.712</ele>
        <time>2022-02-25T21:06:37Z</time>
      </trkpt>
      <trkpt lat="41.940440" lon="-6.284920">
        <ele>859.733</ele>
        <time>2022-02-25T21:07:17Z</time>
      </trkpt>
      <trkpt lat="41.940440" lon="-6.284970">
        <ele>859.837</ele>
        <time>2022-02-25T21:07:57Z</time>
      </trkpt>
      <trkpt lat="41.940470" lon="-6.285070">
        <ele>859.592</ele>
        <time>2022-02-25T21:08:37Z</time>
      </trkpt>
      <trkpt lat="41.940590" lon="-6.285360">
        <ele>858.895</ele>
        <time>2022-02-25T21:09:17Z</time>
      </trkpt>
      <trkpt lat="41.940670" lon="-6.285530">
        <ele>858.549</ele>
        <time>2022-02-25T21:09:57Z</time>
      </trkpt>
      <trkpt lat="41.940740" lon="-6.285690">
        <ele>858.223</ele>
        <time>2022-02-25T21:10:37Z</time>
      </trkpt>
      <trkpt lat="41.940790" lon="-6.285780">
        <ele>858.008</ele>
        <time>2022-02-25T21:11:17Z</time>
      </trkpt>
      <trkpt lat="41.941090" lon="-6.286330">
        <ele>858.968</ele>
        <time>2022-02-25T21:11:57Z</time>
      </trkpt>
      <trkpt lat="41.941140" lon="-6.286430">
        <ele>858.785</ele>
        <time>2022-02-25T21:12:37Z</time>
      </trkpt>
      <trkpt lat="41.941180" lon="-6.286520">
        <ele>858.569</ele>
        <time>2022-02-25T21:13:17Z</time>
      </trkpt>
      <trkpt lat="41.941200" lon="-6.286600">
        <ele>858.535</ele>
        <time>2022-02-25T21:13:57Z</time>
      </trkpt>
      <trkpt lat="41.941220" lon="-6.286680">
        <ele>858.742</ele>
        <time>2022-02-25T21:14:37Z</time>
      </trkpt>
      <trkpt lat="41.941240" lon="-6.286770">
        <ele>859.123</ele>
        <time>2022-02-25T21:15:17Z</time>
      </trkpt>
      <trkpt lat="41.941300" lon="-6.287120">
        <ele>860.937</ele>
        <time>2022-02-25T21:15:57Z</time>
      </trkpt>
      <trkpt lat="41.941340" lon="-6.287300">
        <ele>861.452</ele>
        <time>2022-02-25T21:16:37Z</time>
      </trkpt>
      <trkpt lat="41.941370" lon="-6.287420">
        <ele>861.158</ele>
        <time>2022-02-25T21:17:17Z</time>
      </trkpt>
      <trkpt lat="41.941370" lon="-6.287450">
        <ele>861.152</ele>
        <time>2022-02-25T21:17:57Z</time>
      </trkpt>
      <trkpt lat="41.941380" lon="-6.287540">
        <ele>861.217</ele>
        <time>2022-02-25T21:18:37Z</time>
      </trkpt>
      <trkpt lat="41.941390" lon="-6.287630">
        <ele>861.508</ele>
        <time>2022-02-25T21:19:17Z</time>
      </trkpt>
      <trkpt lat="41.941420" lon="-6.287980">
        <ele>861.164</ele>
        <time>2022-02-25T21:19:57Z</time>
      </trkpt>
      <trkpt lat="41.941430" lon="-6.288040">
        <ele>860.911</ele>
        <time>2022-02-25T21:20:37Z</time>
      </trkpt>
      <trkpt lat="41.941450" lon="-6.288100">
        <ele>860.895</ele>
        <time>2022-02-25T21:21:17Z</time>
      </trkpt>
      <trkpt lat="41.941460" lon="-6.288130">
        <ele>860.741</ele>
        <time>2022-02-25T21:21:57Z</time>
      </trkpt>
      <trkpt lat="41.941480" lon="-6.288170">
        <ele>860.788</ele>
        <time>2022-02-25T21:22:37Z</time>
      </trkpt>
      <trkpt lat="41.941570" lon="-6.288320">
        <ele>860.399</ele>
        <time>2022-02-25T21:23:17Z</time>
      </trkpt>
      <trkpt lat="41.941600" lon="-6.288370">
        <ele>860.633</ele>
        <time>2022-02-25T21:23:57Z</time>
      </trkpt>
      <trkpt lat="41.941720" lon="-6.288560">
        <ele>862.328</ele>
        <time>2022-02-25T21:24:37Z</time>
      </trkpt>
      <trkpt lat="41.941850" lon="-6.288770">
        <ele>863.562</ele>
        <time>2022-02-25T21:25:17Z</time>
      </trkpt>
      <trkpt lat="41.941900" lon="-6.288860">
        <ele>864.083</ele>
        <time>2022-02-25T21:25:57Z</time>
      </trkpt>
      <trkpt lat="41.941930" lon="-6.288930">
        <ele>864.211</ele>
        <time>2022-02-25T21:26:37Z</time>
      </trkpt>
      <trkpt lat="41.941970" lon="-6.289010">
        <ele>864.308</ele>
        <time>2022-02-25T21:27:17Z</time>
      </trkpt>
      <trkpt lat="41.942070" lon="-6.289300">
        <ele>864.575</ele>
        <time>2022-02-25T21:27:57Z</time>
      </trkpt>
      <trkpt lat="41.942120" lon="-6.289440">
        <ele>864.432</ele>
        <time>2022-02-25T21:28:37Z</time>
      </trkpt>
      <trkpt lat="41.942170" lon="-6.289570">
        <ele>864.616</ele>
        <time>2022-02-25T21:29:17Z</time>
      </trkpt>
      <trkpt lat="41.942190" lon="-6.289660">
        <ele>864.912</ele>
        <time>2022-02-25T21:29:57Z</time>
      </trkpt>
      <trkpt lat="41.942200" lon="-6.289660">
        <ele>864.929</ele>
        <time>2022-02-25T21:30:37Z</time>
      </trkpt>
      <trkpt lat="41.942210" lon="-6.289730">
        <ele>865.110</ele>
        <time>2022-02-25T21:31:17Z</time>
      </trkpt>
      <trkpt lat="41.942230" lon="-6.289840">
        <ele>865.444</ele>
        <time>2022-02-25T21:31:57Z</time>
      </trkpt>
      <trkpt lat="41.942270" lon="-6.289930">
        <ele>865.679</ele>
        <time>2022-02-25T21:32:37Z</time>
      </trkpt>
      <trkpt lat="41.942290" lon="-6.289980">
        <ele>865.779</ele>
        <time>2022-02-25T21:33:17Z</time>
      </trkpt>
      <trkpt lat="41.942320" lon="-6.290040">
        <ele>865.905</ele>
        <time>2022-02-25T21:33:57Z</time>
      </trkpt>
      <trkpt lat="41.942350" lon="-6.290090">
        <ele>866.225</ele>
        <time>2022-02-25T21:34:37Z</time>
      </trkpt>
      <trkpt lat="41.942370" lon="-6.290120">
        <ele>866.308</ele>
        <time>2022-02-25T21:35:17Z</time>
      </trkpt>
      <trkpt lat="41.942400" lon="-6.290150">
        <ele>866.466</ele>
        <time>2022-02-25T21:35:57Z</time>
      </trkpt>
      <trkpt lat="41.942440" lon="-6.290190">
        <ele>866.653</ele>
        <time>2022-02-25T21:36:37Z</time>
      </trkpt>
      <trkpt lat="41.942490" lon="-6.290240">
        <ele>866.897</ele>
        <time>2022-02-25T21:37:17Z</time>
      </trkpt>
      <trkpt lat="41.942610" lon="-6.290330">
        <ele>867.513</ele>
        <time>2022-02-25T21:37:57Z</time>
      </trkpt>
      <trkpt lat="41.942620" lon="-6.290340">
        <ele>867.620</ele>
        <time>2022-02-25T21:38:37Z</time>
      </trkpt>
      <trkpt lat="41.942840" lon="-6.290500">
        <ele>868.041</ele>
        <time>2022-02-25T21:39:17Z</time>
      </trkpt>
      <trkpt lat="41.942990" lon="-6.290610">
        <ele>868.295</ele>
        <time>2022-02-25T21:39:57Z</time>
      </trkpt>
      <trkpt lat="41.943230" lon="-6.290800">
        <ele>868.920</ele>
        <time>2022-02-25T21:40:37Z</time>
      </trkpt>
      <trkpt lat="41.943340" lon="-6.290880">
        <ele>869.262</ele>
        <time>2022-02-25T21:41:17Z</time>
      </trkpt>
      <trkpt lat="41.943500" lon="-6.291000">
        <ele>869.283</ele>
        <time>2022-02-25T21:41:57Z</time>
      </trkpt>
      <trkpt lat="41.943630" lon="-6.291110">
        <ele>868.911</ele>
        <time>2022-02-25T21:42:37Z</time>
      </trkpt>
      <trkpt lat="41.943720" lon="-6.291190">
        <ele>868.508</ele>
        <time>2022-02-25T21:43:17Z</time>
      </trkpt>
      <trkpt lat="41.943740" lon="-6.291210">
        <ele>868.425</ele>
        <time>2022-02-25T21:43:57Z</time>
      </trkpt>
      <trkpt lat="41.943830" lon="-6.291310">
        <ele>868.192</ele>
        <time>2022-02-25T21:44:37Z</time>
      </trkpt>
      <trkpt lat="41.943930" lon="-6.291440">
        <ele>868.016</ele>
        <time>2022-02-25T21:45:17Z</time>
      </trkpt>
      <trkpt lat="41.944030" lon="-6.291580">
        <ele>868.262</ele>
        <time>2022-02-25T21:45:57Z</time>
      </trkpt>
      <trkpt lat="41.944130" lon="-6.291730">
        <ele>868.449</ele>
        <time>2022-02-25T21:46:37Z</time>
      </trkpt>
      <trkpt lat="41.944220" lon="-6.291890">
        <ele>868.690</ele>
        <time>2022-02-25T21:47:17Z</time>
      </trkpt>
      <trkpt lat="41.944300" lon="-6.292060">
        <ele>868.974</ele>
        <time>2022-02-25T21:47:57Z</time>
      </trkpt>
      <trkpt lat="41.944310" lon="-6.292090">
        <ele>869.089</ele>
        <time>2022-02-25T21:48:37Z</time>
      </trkpt>
      <trkpt lat="41.944370" lon="-6.292230">
        <ele>869.318</ele>
        <time>2022-02-25T21:49:17Z</time>
      </trkpt>
      <trkpt lat="41.944440" lon="-6.292450">
        <ele>869.898</ele>
        <time>2022-02-25T21:49:57Z</time>
      </trkpt>
      <trkpt lat="41.944480" lon="-6.292570">
        <ele>870.217</ele>
        <time>2022-02-25T21:50:37Z</time>
      </trkpt>
      <trkpt lat="41.944520" lon="-6.292720">
        <ele>870.608</ele>
        <time>2022-02-25T21:51:17Z</time>
      </trkpt>
      <trkpt lat="41.944550" lon="-6.292880">
        <ele>871.040</ele>
        <time>2022-02-25T21:51:57Z</time>
      </trkpt>
      <trkpt lat="41.944580" lon="-6.293050">
        <ele>871.587</ele>
        <time>2022-02-25T21:52:37Z</time>
      </trkpt>
      <trkpt lat="41.944590" lon="-6.293140">
        <ele>871.681</ele>
        <time>2022-02-25T21:53:17Z</time>
      </trkpt>
      <trkpt lat="41.944600" lon="-6.293200">
        <ele>871.647</ele>
        <time>2022-02-25T21:53:57Z</time>
      </trkpt>
      <trkpt lat="41.944610" lon="-6.293360">
        <ele>871.864</ele>
        <time>2022-02-25T21:54:37Z</time>
      </trkpt>
      <trkpt lat="41.944610" lon="-6.293380">
        <ele>871.885</ele>
        <time>2022-02-25T21:55:17Z</time>
      </trkpt>
      <trkpt lat="41.944610" lon="-6.293510">
        <ele>871.899</ele>
        <time>2022-02-25T21:55:57Z</time>
      </trkpt>
      <trkpt lat="41.944610" lon="-6.293650">
        <ele>871.894</ele>
        <time>2022-02-25T21:56:37Z</time>
      </trkpt>
      <trkpt lat="41.944610" lon="-6.293800">
        <ele>871.851</ele>
        <time>2022-02-25T21:57:17Z</time>
      </trkpt>
      <trkpt lat="41.944600" lon="-6.293960">
        <ele>872.001</ele>
        <time>2022-02-25T21:57:57Z</time>
      </trkpt>
      <trkpt lat="41.944590" lon="-6.294100">
        <ele>872.411</ele>
        <time>2022-02-25T21:58:37Z</time>
      </trkpt>
      <trkpt lat="41.944580" lon="-6.294230">
        <ele>872.508</ele>
        <time>2022-02-25T21:59:17Z</time>
      </trkpt>
      <trkpt lat="41.944560" lon="-6.294360">
        <ele>872.644</ele>
        <time>2022-02-25T21:59:57Z</time>
      </trkpt>
      <trkpt lat="41.944560" lon="-6.294410">
        <ele>872.651</ele>
        <time>2022-02-25T22:00:37Z</time>
      </trkpt>
      <trkpt lat="41.944550" lon="-6.294630">
        <ele>872.025</ele>
        <time>2022-02-25T22:01:17Z</time>
      </trkpt>
      <trkpt lat="41.944550" lon="-6.294840">
        <ele>871.651</ele>
        <time>2022-02-25T22:01:57Z</time>
      </trkpt>
      <trkpt lat="41.944550" lon="-6.294890">
        <ele>871.648</ele>
        <time>2022-02-25T22:02:37Z</time>
      </trkpt>
      <trkpt lat="41.944560" lon="-6.295040">
        <ele>871.729</ele>
        <time>2022-02-25T22:03:17Z</time>
      </trkpt>
      <trkpt lat="41.944570" lon="-6.295210">
        <ele>872.363</ele>
        <time>2022-02-25T22:03:57Z</time>
      </trkpt>
      <trkpt lat="41.944590" lon="-6.295370">
        <ele>873.158</ele>
        <time>2022-02-25T22:04:37Z</time>
      </trkpt>
      <trkpt lat="41.944610" lon="-6.295520">
        <ele>874.129</ele>
        <time>2022-02-25T22:05:17Z</time>
      </trkpt>
      <trkpt lat="41.944640" lon="-6.295690">
        <ele>874.800</ele>
        <time>2022-02-25T22:05:57Z</time>
      </trkpt>
      <trkpt lat="41.944690" lon="-6.295880">
        <ele>875.320</ele>
        <time>2022-02-25T22:06:37Z</time>
      </trkpt>
      <trkpt lat="41.944750" lon="-6.296110">
        <ele>876.008</ele>
        <time>2022-02-25T22:07:17Z</time>
      </trkpt>
      <trkpt lat="41.944850" lon="-6.296470">
        <ele>876.251</ele>
        <time>2022-02-25T22:07:57Z</time>
      </trkpt>
      <trkpt lat="41.944920" lon="-6.296750">
        <ele>876.988</ele>
        <time>2022-02-25T22:08:37Z</time>
      </trkpt>
      <trkpt lat="41.944970" lon="-6.296920">
        <ele>877.992</ele>
        <time>2022-02-25T22:09:17Z</time>
      </trkpt>
      <trkpt lat="41.945050" lon="-6.297200">
        <ele>879.728</ele>
        <time>2022-02-25T22:09:57Z</time>
      </trkpt>
      <trkpt lat="41.945110" lon="-6.297410">
        <ele>880.745</ele>
        <time>2022-02-25T22:10:37Z</time>
      </trkpt>
      <trkpt lat="41.945240" lon="-6.297930">
        <ele>879.846</ele>
        <time>2022-02-25T22:11:17Z</time>
      </trkpt>
      <trkpt lat="41.945310" lon="-6.298200">
        <ele>879.110</ele>
        <time>2022-02-25T22:11:57Z</time>
      </trkpt>
      <trkpt lat="41.945350" lon="-6.298380">
        <ele>879.185</ele>
        <time>2022-02-25T22:12:37Z</time>
      </trkpt>
      <trkpt lat="41.945390" lon="-6.298570">
        <ele>879.214</ele>
        <time>2022-02-25T22:13:17Z</time>
      </trkpt>
      <trkpt lat="41.945390" lon="-6.298580">
        <ele>879.354</ele>
        <time>2022-02-25T22:13:57Z</time>
      </trkpt>
      <trkpt lat="41.945410" lon="-6.298750">
        <ele>879.909</ele>
        <time>2022-02-25T22:14:37Z</time>
      </trkpt>
      <trkpt lat="41.945440" lon="-6.298960">
        <ele>880.308</ele>
        <time>2022-02-25T22:15:17Z</time>
      </trkpt>
      <trkpt lat="41.945480" lon="-6.299370">
        <ele>881.460</ele>
        <time>2022-02-25T22:15:57Z</time>
      </trkpt>
      <trkpt lat="41.945530" lon="-6.299860">
        <ele>883.727</ele>
        <time>2022-02-25T22:16:37Z</time>
      </trkpt>
      <trkpt lat="41.945570" lon="-6.300310">
        <ele>883.971</ele>
        <time>2022-02-25T22:17:17Z</time>
      </trkpt>
      <trkpt lat="41.945580" lon="-6.300490">
        <ele>883.817</ele>
        <time>2022-02-25T22:17:57Z</time>
      </trkpt>
      <trkpt lat="41.945610" lon="-6.300800">
        <ele>884.314</ele>
        <time>2022-02-25T22:18:37Z</time>
      </trkpt>
      <trkpt lat="41.945640" lon="-6.301070">
        <ele>885.225</ele>
        <time>2022-02-25T22:19:17Z</time>
      </trkpt>
      <trkpt lat="41.945660" lon="-6.301270">
        <ele>886.059</ele>
        <time>2022-02-25T22:19:57Z</time>
      </trkpt>
      <trkpt lat="41.945670" lon="-6.301420">
        <ele>886.714</ele>
        <time>2022-02-25T22:20:37Z</time>
      </trkpt>
      <trkpt lat="41.945690" lon="-6.301540">
        <ele>887.128</ele>
        <time>2022-02-25T22:21:17Z</time>
      </trkpt>
      <trkpt lat="41.945720" lon="-6.301660">
        <ele>887.489</ele>
        <time>2022-02-25T22:21:57Z</time>
      </trkpt>
      <trkpt lat="41.945740" lon="-6.301760">
        <ele>887.717</ele>
        <time>2022-02-25T22:22:37Z</time>
      </trkpt>
      <trkpt lat="41.945760" lon="-6.301860">
        <ele>888.008</ele>
        <time>2022-02-25T22:23:17Z</time>
      </trkpt>
      <trkpt lat="41.945800" lon="-6.301970">
        <ele>888.131</ele>
        <time>2022-02-25T22:23:57Z</time>
      </trkpt>
      <trkpt lat="41.945830" lon="-6.302080">
        <ele>888.088</ele>
        <time>2022-02-25T22:24:37Z</time>
      </trkpt>
      <trkpt lat="41.945870" lon="-6.302180">
        <ele>887.512</ele>
        <time>2022-02-25T22:25:17Z</time>
      </trkpt>
      <trkpt lat="41.945940" lon="-6.302310">
        <ele>886.448</ele>
        <time>2022-02-25T22:25:57Z</time>
      </trkpt>
      <trkpt lat="41.945950" lon="-6.302340">
        <ele>886.375</ele>
        <time>2022-02-25T22:26:37Z</time>
      </trkpt>
      <trkpt lat="41.946000" lon="-6.302440">
        <ele>885.826</ele>
        <time>2022-02-25T22:27:17Z</time>
      </trkpt>
      <trkpt lat="41.946050" lon="-6.302540">
        <ele>885.550</ele>
        <time>2022-02-25T22:27:57Z</time>
      </trkpt>
      <trkpt lat="41.946090" lon="-6.302620">
        <ele>885.575</ele>
        <time>2022-02-25T22:28:37Z</time>
      </trkpt>
      <trkpt lat="41.946210" lon="-6.302810">
        <ele>885.879</ele>
        <time>2022-02-25T22:29:17Z</time>
      </trkpt>
      <trkpt lat="41.946330" lon="-6.303000">
        <ele>886.005</ele>
        <time>2022-02-25T22:29:57Z</time>
      </trkpt>
      <trkpt lat="41.946440" lon="-6.303170">
        <ele>886.325</ele>
        <time>2022-02-25T22:30:37Z</time>
      </trkpt>
      <trkpt lat="41.946540" lon="-6.303310">
        <ele>885.908</ele>
        <time>2022-02-25T22:31:17Z</time>
      </trkpt>
      <trkpt lat="41.946610" lon="-6.303450">
        <ele>885.896</ele>
        <time>2022-02-25T22:31:57Z</time>
      </trkpt>
      <trkpt lat="41.946620" lon="-6.303470">
        <ele>885.873</ele>
        <time>2022-02-25T22:32:37Z</time>
      </trkpt>
      <trkpt lat="41.946680" lon="-6.303600">
        <ele>885.957</ele>
        <time>2022-02-25T22:33:17Z</time>
      </trkpt>
      <trkpt lat="41.946740" lon="-6.303720">
        <ele>886.083</ele>
        <time>2022-02-25T22:33:57Z</time>
      </trkpt>
      <trkpt lat="41.946800" lon="-6.303880">
        <ele>886.580</ele>
        <time>2022-02-25T22:34:37Z</time>
      </trkpt>
      <trkpt lat="41.946850" lon="-6.304040">
        <ele>887.651</ele>
        <time>2022-02-25T22:35:17Z</time>
      </trkpt>
      <trkpt lat="41.946870" lon="-6.304120">
        <ele>888.255</ele>
        <time>2022-02-25T22:35:57Z</time>
      </trkpt>
      <trkpt lat="41.946880" lon="-6.304200">
        <ele>888.670</ele>
        <time>2022-02-25T22:36:37Z</time>
      </trkpt>
      <trkpt lat="41.946920" lon="-6.304350">
        <ele>888.898</ele>
        <time>2022-02-25T22:37:17Z</time>
      </trkpt>
      <trkpt lat="41.946940" lon="-6.304490">
        <ele>889.215</ele>
        <time>2022-02-25T22:37:57Z</time>
      </trkpt>
      <trkpt lat="41.946960" lon="-6.304580">
        <ele>889.426</ele>
        <time>2022-02-25T22:38:37Z</time>
      </trkpt>
      <trkpt lat="41.946960" lon="-6.304620">
        <ele>889.508</ele>
        <time>2022-02-25T22:39:17Z</time>
      </trkpt>
      <trkpt lat="41.946970" lon="-6.304760">
        <ele>889.858</ele>
        <time>2022-02-25T22:39:57Z</time>
      </trkpt>
      <trkpt lat="41.946980" lon="-6.304910">
        <ele>889.745</ele>
        <time>2022-02-25T22:40:37Z</time>
      </trkpt>
      <trkpt lat="41.946980" lon="-6.305080">
        <ele>889.729</ele>
        <time>2022-02-25T22:41:17Z</time>
      </trkpt>
      <trkpt lat="41.946980" lon="-6.305250">
        <ele>889.725</ele>
        <time>2022-02-25T22:41:57Z</time>
      </trkpt>
      <trkpt lat="41.946970" lon="-6.305340">
        <ele>889.882</ele>
        <time>2022-02-25T22:42:37Z</time>
      </trkpt>
      <trkpt lat="41.946970" lon="-6.305450">
        <ele>889.863</ele>
        <time>2022-02-25T22:43:17Z</time>
      </trkpt>
      <trkpt lat="41.946950" lon="-6.305770">
        <ele>890.037</ele>
        <time>2022-02-25T22:43:57Z</time>
      </trkpt>
      <trkpt lat="41.946920" lon="-6.306210">
        <ele>890.172</ele>
        <time>2022-02-25T22:44:37Z</time>
      </trkpt>
      <trkpt lat="41.946900" lon="-6.306570">
        <ele>890.268</ele>
        <time>2022-02-25T22:45:17Z</time>
      </trkpt>
      <trkpt lat="41.946880" lon="-6.306940">
        <ele>888.542</ele>
        <time>2022-02-25T22:45:57Z</time>
      </trkpt>
      <trkpt lat="41.946870" lon="-6.307180">
        <ele>887.126</ele>
        <time>2022-02-25T22:46:37Z</time>
      </trkpt>
      <trkpt lat="41.946870" lon="-6.307250">
        <ele>886.808</ele>
        <time>2022-02-25T22:47:17Z</time>
      </trkpt>
      <trkpt lat="41.946870" lon="-6.307340">
        <ele>886.835</ele>
        <time>2022-02-25T22:47:57Z</time>
      </trkpt>
      <trkpt lat="41.946870" lon="-6.307480">
        <ele>886.822</ele>
        <time>2022-02-25T22:48:37Z</time>
      </trkpt>
      <trkpt lat="41.946870" lon="-6.307490">
        <ele>886.856</ele>
        <time>2022-02-25T22:49:17Z</time>
      </trkpt>
      <trkpt lat="41.946870" lon="-6.307570">
        <ele>886.862</ele>
        <time>2022-02-25T22:49:57Z</time>
      </trkpt>
      <trkpt lat="41.946880" lon="-6.307670">
        <ele>886.749</ele>
        <time>2022-02-25T22:50:37Z</time>
      </trkpt>
      <trkpt lat="41.946890" lon="-6.307780">
        <ele>886.610</ele>
        <time>2022-02-25T22:51:17Z</time>
      </trkpt>
      <trkpt lat="41.946910" lon="-6.307930">
        <ele>887.014</ele>
        <time>2022-02-25T22:51:57Z</time>
      </trkpt>
      <trkpt lat="41.946930" lon="-6.308070">
        <ele>887.349</ele>
        <time>2022-02-25T22:52:37Z</time>
      </trkpt>
      <trkpt lat="41.946950" lon="-6.308200">
        <ele>888.045</ele>
        <time>2022-02-25T22:53:17Z</time>
      </trkpt>
      <trkpt lat="41.946980" lon="-6.308350">
        <ele>888.447</ele>
        <time>2022-02-25T22:53:57Z</time>
      </trkpt>
      <trkpt lat="41.947020" lon="-6.308490">
        <ele>887.611</ele>
        <time>2022-02-25T22:54:37Z</time>
      </trkpt>
      <trkpt lat="41.947050" lon="-6.308620">
        <ele>887.108</ele>
        <time>2022-02-25T22:55:17Z</time>
      </trkpt>
      <trkpt lat="41.947140" lon="-6.308890">
        <ele>887.213</ele>
        <time>2022-02-25T22:55:57Z</time>
      </trkpt>
      <trkpt lat="41.947140" lon="-6.308910">
        <ele>887.330</ele>
        <time>2022-02-25T22:56:37Z</time>
      </trkpt>
      <trkpt lat="41.947210" lon="-6.309110">
        <ele>887.794</ele>
        <time>2022-02-25T22:57:17Z</time>
      </trkpt>
      <trkpt lat="41.947270" lon="-6.309280">
        <ele>887.620</ele>
        <time>2022-02-25T22:57:57Z</time>
      </trkpt>
      <trkpt lat="41.947430" lon="-6.309690">
        <ele>885.877</ele>
        <time>2022-02-25T22:58:37Z</time>
      </trkpt>
      <trkpt lat="41.947530" lon="-6.309970">
        <ele>884.858</ele>
        <time>2022-02-25T22:59:17Z</time>
      </trkpt>
      <trkpt lat="41.947580" lon="-6.310090">
        <ele>885.162</ele>
        <time>2022-02-25T22:59:57Z</time>
      </trkpt>
      <trkpt lat="41.947610" lon="-6.310190">
        <ele>885.637</ele>
        <time>2022-02-25T23:00:37Z</time>
      </trkpt>
      <trkpt lat="41.947710" lon="-6.310440">
        <ele>886.171</ele>
        <time>2022-02-25T23:01:17Z</time>
      </trkpt>
      <trkpt lat="41.947830" lon="-6.310770">
        <ele>885.441</ele>
        <time>2022-02-25T23:01:57Z</time>
      </trkpt>
      <trkpt lat="41.947930" lon="-6.311040">
        <ele>884.815</ele>
        <time>2022-02-25T23:02:37Z</time>
      </trkpt>
      <trkpt lat="41.948030" lon="-6.311290">
        <ele>885.408</ele>
        <time>2022-02-25T23:03:17Z</time>
      </trkpt>
      <trkpt lat="41.948150" lon="-6.311620">
        <ele>888.646</ele>
        <time>2022-02-25T23:03:57Z</time>
      </trkpt>
      <trkpt lat="41.948230" lon="-6.311860">
        <ele>889.713</ele>
        <time>2022-02-25T23:04:37Z</time>
      </trkpt>
      <trkpt lat="41.948250" lon="-6.311920">
        <ele>889.977</ele>
        <time>2022-02-25T23:05:17Z</time>
      </trkpt>
      <trkpt lat="41.948300" lon="-6.312080">
        <ele>889.653</ele>
        <time>2022-02-25T23:05:57Z</time>
      </trkpt>
      <trkpt lat="41.948370" lon="-6.312290">
        <ele>888.760</ele>
        <time>2022-02-25T23:06:37Z</time>
      </trkpt>
      <trkpt lat="41.948370" lon="-6.312300">
        <ele>888.721</ele>
        <time>2022-02-25T23:07:17Z</time>
      </trkpt>
      <trkpt lat="41.948430" lon="-6.312500">
        <ele>888.085</ele>
        <time>2022-02-25T23:07:57Z</time>
      </trkpt>
      <trkpt lat="41.948440" lon="-6.312530">
        <ele>887.890</ele>
        <time>2022-02-25T23:08:37Z</time>
      </trkpt>
      <trkpt lat="41.948510" lon="-6.312790">
        <ele>886.531</ele>
        <time>2022-02-25T23:09:17Z</time>
      </trkpt>
      <trkpt lat="41.948620" lon="-6.313210">
        <ele>885.561</ele>
        <time>2022-02-25T23:09:57Z</time>
      </trkpt>
      <trkpt lat="41.948630" lon="-6.313260">
        <ele>885.607</ele>
        <time>2022-02-25T23:10:37Z</time>
      </trkpt>
      <trkpt lat="41.948800" lon="-6.313890">
        <ele>885.008</ele>
        <time>2022-02-25T23:11:17Z</time>
      </trkpt>
      <trkpt lat="41.948970" lon="-6.314510">
        <ele>883.652</ele>
        <time>2022-02-25T23:11:57Z</time>
      </trkpt>
      <trkpt lat="41.949060" lon="-6.314870">
        <ele>883.779</ele>
        <time>2022-02-25T23:12:37Z</time>
      </trkpt>
      <trkpt lat="41.949110" lon="-6.315090">
        <ele>883.913</ele>
        <time>2022-02-25T23:13:17Z</time>
      </trkpt>
      <trkpt lat="41.949140" lon="-6.315260">
        <ele>884.279</ele>
        <time>2022-02-25T23:13:57Z</time>
      </trkpt>
      <trkpt lat="41.949170" lon="-6.315410">
        <ele>884.056</ele>
        <time>2022-02-25T23:14:37Z</time>
      </trkpt>
      <trkpt lat="41.949170" lon="-6.315500">
        <ele>884.027</ele>
        <time>2022-02-25T23:15:17Z</time>
      </trkpt>
      <trkpt lat="41.949180" lon="-6.315590">
        <ele>884.171</ele>
        <time>2022-02-25T23:15:57Z</time>
      </trkpt>
      <trkpt lat="41.949190" lon="-6.315740">
        <ele>884.656</ele>
        <time>2022-02-25T23:16:37Z</time>
      </trkpt>
      <trkpt lat="41.949190" lon="-6.315770">
        <ele>884.743</ele>
        <time>2022-02-25T23:17:17Z</time>
      </trkpt>
      <trkpt lat="41.949200" lon="-6.315940">
        <ele>885.264</ele>
        <time>2022-02-25T23:17:57Z</time>
      </trkpt>
      <trkpt lat="41.949200" lon="-6.315990">
        <ele>885.310</ele>
        <time>2022-02-25T23:18:37Z</time>
      </trkpt>
      <trkpt lat="41.949190" lon="-6.316110">
        <ele>885.708</ele>
        <time>2022-02-25T23:19:17Z</time>
      </trkpt>
      <trkpt lat="41.949190" lon="-6.316280">
        <ele>885.743</ele>
        <time>2022-02-25T23:19:57Z</time>
      </trkpt>
      <trkpt lat="41.949180" lon="-6.316430">
        <ele>885.620</ele>
        <time>2022-02-25T23:20:37Z</time>
      </trkpt>
      <trkpt lat="41.949180" lon="-6.316460">
        <ele>885.484</ele>
        <time>2022-02-25T23:21:17Z</time>
      </trkpt>
      <trkpt lat="41.949170" lon="-6.316550">
        <ele>884.810</ele>
        <time>2022-02-25T23:21:57Z</time>
      </trkpt>
      <trkpt lat="41.949160" lon="-6.316700">
        <ele>883.957</ele>
        <time>2022-02-25T23:22:37Z</time>
      </trkpt>
      <trkpt lat="41.949130" lon="-6.316920">
        <ele>883.488</ele>
        <time>2022-02-25T23:23:17Z</time>
      </trkpt>
      <trkpt lat="41.949130" lon="-6.316940">
        <ele>883.332</ele>
        <time>2022-02-25T23:23:57Z</time>
      </trkpt>
      <trkpt lat="41.949100" lon="-6.317170">
        <ele>882.727</ele>
        <time>2022-02-25T23:24:37Z</time>
      </trkpt>
      <trkpt lat="41.949070" lon="-6.317380">
        <ele>881.664</ele>
        <time>2022-02-25T23:25:17Z</time>
      </trkpt>
      <trkpt lat="41.949060" lon="-6.317510">
        <ele>880.706</ele>
        <time>2022-02-25T23:25:57Z</time>
      </trkpt>
      <trkpt lat="41.949050" lon="-6.317620">
        <ele>880.216</ele>
        <time>2022-02-25T23:26:37Z</time>
      </trkpt>
      <trkpt lat="41.949050" lon="-6.317700">
        <ele>879.708</ele>
        <time>2022-02-25T23:27:17Z</time>
      </trkpt>
      <trkpt lat="41.949050" lon="-6.317820">
        <ele>879.055</ele>
        <time>2022-02-25T23:27:57Z</time>
      </trkpt>
      <trkpt lat="41.949060" lon="-6.318020">
        <ele>877.752</ele>
        <time>2022-02-25T23:28:37Z</time>
      </trkpt>
      <trkpt lat="41.949080" lon="-6.318330">
        <ele>876.696</ele>
        <time>2022-02-25T23:29:17Z</time>
      </trkpt>
      <trkpt lat="41.949090" lon="-6.318380">
        <ele>876.262</ele>
        <time>2022-02-25T23:29:57Z</time>
      </trkpt>
      <trkpt lat="41.949100" lon="-6.318620">
        <ele>875.299</ele>
        <time>2022-02-25T23:30:37Z</time>
      </trkpt>
      <trkpt lat="41.949110" lon="-6.318700">
        <ele>874.810</ele>
        <time>2022-02-25T23:31:17Z</time>
      </trkpt>
      <trkpt lat="41.949140" lon="-6.319110">
        <ele>873.654</ele>
        <time>2022-02-25T23:31:57Z</time>
      </trkpt>
      <trkpt lat="41.949180" lon="-6.319480">
        <ele>871.659</ele>
        <time>2022-02-25T23:32:37Z</time>
      </trkpt>
      <trkpt lat="41.949210" lon="-6.319820">
        <ele>869.353</ele>
        <time>2022-02-25T23:33:17Z</time>
      </trkpt>
      <trkpt lat="41.949210" lon="-6.319840">
        <ele>869.204</ele>
        <time>2022-02-25T23:33:57Z</time>
      </trkpt>
      <trkpt lat="41.949230" lon="-6.320030">
        <ele>868.214</ele>
        <time>2022-02-25T23:34:37Z</time>
      </trkpt>
      <trkpt lat="41.949240" lon="-6.320060">
        <ele>867.908</ele>
        <time>2022-02-25T23:35:17Z</time>
      </trkpt>
      <trkpt lat="41.949260" lon="-6.320180">
        <ele>867.134</ele>
        <time>2022-02-25T23:35:57Z</time>
      </trkpt>
      <trkpt lat="41.949280" lon="-6.320330">
        <ele>866.431</ele>
        <time>2022-02-25T23:36:37Z</time>
      </trkpt>
      <trkpt lat="41.949320" lon="-6.320460">
        <ele>865.845</ele>
        <time>2022-02-25T23:37:17Z</time>
      </trkpt>
      <trkpt lat="41.949340" lon="-6.320530">
        <ele>865.541</ele>
        <time>2022-02-25T23:37:57Z</time>
      </trkpt>
      <trkpt lat="41.949360" lon="-6.320600">
        <ele>865.578</ele>
        <time>2022-02-25T23:38:37Z</time>
      </trkpt>
      <trkpt lat="41.949420" lon="-6.320770">
        <ele>865.959</ele>
        <time>2022-02-25T23:39:17Z</time>
      </trkpt>
      <trkpt lat="41.949470" lon="-6.320900">
        <ele>866.613</ele>
        <time>2022-02-25T23:39:57Z</time>
      </trkpt>
      <trkpt lat="41.949520" lon="-6.321020">
        <ele>867.798</ele>
        <time>2022-02-25T23:40:37Z</time>
      </trkpt>
      <trkpt lat="41.949590" lon="-6.321170">
        <ele>868.874</ele>
        <time>2022-02-25T23:41:17Z</time>
      </trkpt>
      <trkpt lat="41.949670" lon="-6.321340">
        <ele>869.256</ele>
        <time>2022-02-25T23:41:57Z</time>
      </trkpt>
      <trkpt lat="41.949680" lon="-6.321370">
        <ele>869.221</ele>
        <time>2022-02-25T23:42:37Z</time>
      </trkpt>
      <trkpt lat="41.949830" lon="-6.321700">
        <ele>868.108</ele>
        <time>2022-02-25T23:43:17Z</time>
      </trkpt>
      <trkpt lat="41.949900" lon="-6.321870">
        <ele>867.036</ele>
        <time>2022-02-25T23:43:57Z</time>
      </trkpt>
      <trkpt lat="41.950010" lon="-6.322110">
        <ele>866.013</ele>
        <time>2022-02-25T23:44:37Z</time>
      </trkpt>
      <trkpt lat="41.950010" lon="-6.322120">
        <ele>866.037</ele>
        <time>2022-02-25T23:45:17Z</time>
      </trkpt>
      <trkpt lat="41.950110" lon="-6.322340">
        <ele>865.663</ele>
        <time>2022-02-25T23:45:57Z</time>
      </trkpt>
      <trkpt lat="41.950180" lon="-6.322520">
        <ele>865.330</ele>
        <time>2022-02-25T23:46:37Z</time>
      </trkpt>
      <trkpt lat="41.950210" lon="-6.322610">
        <ele>865.071</ele>
        <time>2022-02-25T23:47:17Z</time>
      </trkpt>
      <trkpt lat="41.950240" lon="-6.322680">
        <ele>864.765</ele>
        <time>2022-02-25T23:47:57Z</time>
      </trkpt>
      <trkpt lat="41.950280" lon="-6.322790">
        <ele>864.020</ele>
        <time>2022-02-25T23:48:37Z</time>
      </trkpt>
      <trkpt lat="41.950350" lon="-6.323060">
        <ele>863.771</ele>
        <time>2022-02-25T23:49:17Z</time>
      </trkpt>
      <trkpt lat="41.950400" lon="-6.323260">
        <ele>862.841</ele>
        <time>2022-02-25T23:49:57Z</time>
      </trkpt>
      <trkpt lat="41.950400" lon="-6.323290">
        <ele>862.715</ele>
        <time>2022-02-25T23:50:37Z</time>
      </trkpt>
      <trkpt lat="41.950450" lon="-6.323520">
        <ele>861.008</ele>
        <time>2022-02-25T23:51:17Z</time>
      </trkpt>
      <trkpt lat="41.950540" lon="-6.323950">
        <ele>856.756</ele>
        <time>2022-02-25T23:51:57Z</time>
      </trkpt>
      <trkpt lat="41.950760" lon="-6.324910">
        <ele>853.173</ele>
        <time>2022-02-25T23:52:37Z</time>
      </trkpt>
      <trkpt lat="41.950810" lon="-6.325120">
        <ele>851.327</ele>
        <time>2022-02-25T23:53:17Z</time>
      </trkpt>
      <trkpt lat="41.950810" lon="-6.325140">
        <ele>851.253</ele>
        <time>2022-02-25T23:53:57Z</time>
      </trkpt>
      <trkpt lat="41.951030" lon="-6.326070">
        <ele>850.160</ele>
        <time>2022-02-25T23:54:37Z</time>
      </trkpt>
      <trkpt lat="41.951050" lon="-6.326150">
        <ele>850.261</ele>
        <time>2022-02-25T23:55:17Z</time>
      </trkpt>
      <trkpt lat="41.951080" lon="-6.326290">
        <ele>850.135</ele>
        <time>2022-02-25T23:55:57Z</time>
      </trkpt>
      <trkpt lat="41.951180" lon="-6.326750">
        <ele>847.450</ele>
        <time>2022-02-25T23:56:37Z</time>
      </trkpt>
      <trkpt lat="41.951280" lon="-6.327210">
        <ele>845.895</ele>
        <time>2022-02-25T23:57:17Z</time>
      </trkpt>
      <trkpt lat="41.951290" lon="-6.327240">
        <ele>845.749</ele>
        <time>2022-02-25T23:57:57Z</time>
      </trkpt>
      <trkpt lat="41.951450" lon="-6.327920">
        <ele>844.823</ele>
        <time>2022-02-25T23:58:37Z</time>
      </trkpt>
      <trkpt lat="41.951500" lon="-6.328130">
        <ele>844.608</ele>
        <time>2022-02-25T23:59:17Z</time>
      </trkpt>
      <trkpt lat="41.951530" lon="-6.328250">
        <ele>844.588</ele>
        <time>2022-02-25T23:59:57Z</time>
      </trkpt>
      <trkpt lat="41.951620" lon="-6.328550">
        <ele>843.475</ele>
        <time>2022-02-26T00:00:37Z</time>
      </trkpt>
      <trkpt lat="41.951700" lon="-6.328730">
        <ele>842.689</ele>
        <time>2022-02-26T00:01:17Z</time>
      </trkpt>
      <trkpt lat="41.951740" lon="-6.328830">
        <ele>842.485</ele>
        <time>2022-02-26T00:01:57Z</time>
      </trkpt>
      <trkpt lat="41.951830" lon="-6.329030">
        <ele>842.492</ele>
        <time>2022-02-26T00:02:37Z</time>
      </trkpt>
      <trkpt lat="41.951850" lon="-6.329080">
        <ele>842.483</ele>
        <time>2022-02-26T00:03:17Z</time>
      </trkpt>
      <trkpt lat="41.952050" lon="-6.329420">
        <ele>843.477</ele>
        <time>2022-02-26T00:03:57Z</time>
      </trkpt>
      <trkpt lat="41.952060" lon="-6.329440">
        <ele>843.452</ele>
        <time>2022-02-26T00:04:37Z</time>
      </trkpt>
      <trkpt lat="41.952120" lon="-6.329530">
        <ele>843.653</ele>
        <time>2022-02-26T00:05:17Z</time>
      </trkpt>
      <trkpt lat="41.952170" lon="-6.329590">
        <ele>843.804</ele>
        <time>2022-02-26T00:05:57Z</time>
      </trkpt>
      <trkpt lat="41.952380" lon="-6.329860">
        <ele>844.914</ele>
        <time>2022-02-26T00:06:37Z</time>
      </trkpt>
      <trkpt lat="41.952440" lon="-6.329930">
        <ele>845.408</ele>
        <time>2022-02-26T00:07:17Z</time>
      </trkpt>
      <trkpt lat="41.952460" lon="-6.329960">
        <ele>845.684</ele>
        <time>2022-02-26T00:07:57Z</time>
      </trkpt>
      <trkpt lat="41.952520" lon="-6.330020">
        <ele>846.011</ele>
        <time>2022-02-26T00:08:37Z</time>
      </trkpt>
      <trkpt lat="41.952710" lon="-6.330260">
        <ele>846.085</ele>
        <time>2022-02-26T00:09:17Z</time>
      </trkpt>
      <trkpt lat="41.953050" lon="-6.330670">
        <ele>844.621</ele>
        <time>2022-02-26T00:09:57Z</time>
      </trkpt>
      <trkpt lat="41.953160" lon="-6.330820">
        <ele>843.318</ele>
        <time>2022-02-26T00:10:37Z</time>
      </trkpt>
      <trkpt lat="41.953170" lon="-6.330850">
        <ele>842.979</ele>
        <time>2022-02-26T00:11:17Z</time>
      </trkpt>
      <trkpt lat="41.953270" lon="-6.331040">
        <ele>839.533</ele>
        <time>2022-02-26T00:11:57Z</time>
      </trkpt>
      <trkpt lat="41.953320" lon="-6.331160">
        <ele>836.758</ele>
        <time>2022-02-26T00:12:37Z</time>
      </trkpt>
      <trkpt lat="41.953370" lon="-6.331280">
        <ele>833.138</ele>
        <time>2022-02-26T00:13:17Z</time>
      </trkpt>
      <trkpt lat="41.953530" lon="-6.331710">
        <ele>830.470</ele>
        <time>2022-02-26T00:13:57Z</time>
      </trkpt>
      <trkpt lat="41.953700" lon="-6.332140">
        <ele>833.817</ele>
        <time>2022-02-26T00:14:37Z</time>
      </trkpt>
      <trkpt lat="41.953870" lon="-6.332610">
        <ele>836.308</ele>
        <time>2022-02-26T00:15:17Z</time>
      </trkpt>
      <trkpt lat="41.953930" lon="-6.332760">
        <ele>837.132</ele>
        <time>2022-02-26T00:15:57Z</time>
      </trkpt>
      <trkpt lat="41.953970" lon="-6.332870">
        <ele>837.549</ele>
        <time>2022-02-26T00:16:37Z</time>
      </trkpt>
      <trkpt lat="41.954020" lon="-6.333000">
        <ele>838.223</ele>
        <time>2022-02-26T00:17:17Z</time>
      </trkpt>
      <trkpt lat="41.954060" lon="-6.333190">
        <ele>839.129</ele>
        <time>2022-02-26T00:17:57Z</time>
      </trkpt>
      <trkpt lat="41.954120" lon="-6.333510">
        <ele>840.396</ele>
        <time>2022-02-26T00:18:37Z</time>
      </trkpt>
      <trkpt lat="41.954120" lon="-6.333530">
        <ele>840.357</ele>
        <time>2022-02-26T00:19:17Z</time>
      </trkpt>
      <trkpt lat="41.954170" lon="-6.333840">
        <ele>838.661</ele>
        <time>2022-02-26T00:19:57Z</time>
      </trkpt>
      <trkpt lat="41.954210" lon="-6.334030">
        <ele>838.386</ele>
        <time>2022-02-26T00:20:37Z</time>
      </trkpt>
      <trkpt lat="41.954290" lon="-6.334280">
        <ele>838.837</ele>
        <time>2022-02-26T00:21:17Z</time>
      </trkpt>
      <trkpt lat="41.954350" lon="-6.334420">
        <ele>839.449</ele>
        <time>2022-02-26T00:21:57Z</time>
      </trkpt>
      <trkpt lat="41.954360" lon="-6.334440">
        <ele>839.513</ele>
        <time>2022-02-26T00:22:37Z</time>
      </trkpt>
      <trkpt lat="41.954420" lon="-6.334590">
        <ele>839.608</ele>
        <time>2022-02-26T00:23:17Z</time>
      </trkpt>
      <trkpt lat="41.954490" lon="-6.334730">
        <ele>839.782</ele>
        <time>2022-02-26T00:23:57Z</time>
      </trkpt>
      <trkpt lat="41.954600" lon="-6.334880">
        <ele>840.169</ele>
        <time>2022-02-26T00:24:37Z</time>
      </trkpt>
      <trkpt lat="41.954760" lon="-6.335100">
        <ele>840.923</ele>
        <time>2022-02-26T00:25:17Z</time>
      </trkpt>
      <trkpt lat="41.954880" lon="-6.335230">
        <ele>841.799</ele>
        <time>2022-02-26T00:25:57Z</time>
      </trkpt>
      <trkpt lat="41.954910" lon="-6.335260">
        <ele>841.916</ele>
        <time>2022-02-26T00:26:37Z</time>
      </trkpt>
      <trkpt lat="41.955030" lon="-6.335370">
        <ele>843.287</ele>
        <time>2022-02-26T00:27:17Z</time>
      </trkpt>
      <trkpt lat="41.955370" lon="-6.335590">
        <ele>847.241</ele>
        <time>2022-02-26T00:27:57Z</time>
      </trkpt>
      <trkpt lat="41.955460" lon="-6.335640">
        <ele>848.246</ele>
        <time>2022-02-26T00:28:37Z</time>
      </trkpt>
      <trkpt lat="41.955720" lon="-6.335750">
        <ele>849.014</ele>
        <time>2022-02-26T00:29:17Z</time>
      </trkpt>
      <trkpt lat="41.955970" lon="-6.335800">
        <ele>849.254</ele>
        <time>2022-02-26T00:29:57Z</time>
      </trkpt>
      <trkpt lat="41.956000" lon="-6.335810">
        <ele>849.109</ele>
        <time>2022-02-26T00:30:37Z</time>
      </trkpt>
      <trkpt lat="41.956150" lon="-6.335830">
        <ele>849.008</ele>
        <time>2022-02-26T00:31:17Z</time>
      </trkpt>
      <trkpt lat="41.956270" lon="-6.335850">
        <ele>849.060</ele>
        <time>2022-02-26T00:31:57Z</time>
      </trkpt>
      <trkpt lat="41.956430" lon="-6.335890">
        <ele>849.097</ele>
        <time>2022-02-26T00:32:37Z</time>
      </trkpt>
      <trkpt lat="41.956500" lon="-6.335920">
        <ele>849.131</ele>
        <time>2022-02-26T00:33:17Z</time>
      </trkpt>
      <trkpt lat="41.956580" lon="-6.335950">
        <ele>849.337</ele>
        <time>2022-02-26T00:33:57Z</time>
      </trkpt>
      <trkpt lat="41.956650" lon="-6.336010">
        <ele>849.674</ele>
        <time>2022-02-26T00:34:37Z</time>
      </trkpt>
      <trkpt lat="41.956750" lon="-6.336100">
        <ele>850.685</ele>
        <time>2022-02-26T00:35:17Z</time>
      </trkpt>
      <trkpt lat="41.956910" lon="-6.336210">
        <ele>852.179</ele>
        <time>2022-02-26T00:35:57Z</time>
      </trkpt>
      <trkpt lat="41.957070" lon="-6.336320">
        <ele>853.724</ele>
        <time>2022-02-26T00:36:37Z</time>
      </trkpt>
      <trkpt lat="41.957080" lon="-6.336320">
        <ele>853.737</ele>
        <time>2022-02-26T00:37:17Z</time>
      </trkpt>
      <trkpt lat="41.957110" lon="-6.336350">
        <ele>854.149</ele>
        <time>2022-02-26T00:37:57Z</time>
      </trkpt>
      <trkpt lat="41.957140" lon="-6.336380">
        <ele>854.413</ele>
        <time>2022-02-26T00:38:37Z</time>
      </trkpt>
      <trkpt lat="41.957160" lon="-6.336420">
        <ele>854.608</ele>
        <time>2022-02-26T00:39:17Z</time>
      </trkpt>
      <trkpt lat="41.957180" lon="-6.336470">
        <ele>854.932</ele>
        <time>2022-02-26T00:39:57Z</time>
      </trkpt>
      <trkpt lat="41.957250" lon="-6.336690">
        <ele>856.029</ele>
        <time>2022-02-26T00:40:37Z</time>
      </trkpt>
      <trkpt lat="41.957250" lon="-6.336700">
        <ele>856.043</ele>
        <time>2022-02-26T00:41:17Z</time>
      </trkpt>
      <trkpt lat="41.957330" lon="-6.336900">
        <ele>855.979</ele>
        <time>2022-02-26T00:41:57Z</time>
      </trkpt>
      <trkpt lat="41.957350" lon="-6.336940">
        <ele>855.936</ele>
        <time>2022-02-26T00:42:37Z</time>
      </trkpt>
      <trkpt lat="41.957390" lon="-6.337030">
        <ele>855.957</ele>
        <time>2022-02-26T00:43:17Z</time>
      </trkpt>
      <trkpt lat="41.957410" lon="-6.337050">
        <ele>856.081</ele>
        <time>2022-02-26T00:43:57Z</time>
      </trkpt>
      <trkpt lat="41.957520" lon="-6.337200">
        <ele>856.116</ele>
        <time>2022-02-26T00:44:37Z</time>
      </trkpt>
      <trkpt lat="41.957590" lon="-6.337280">
        <ele>856.371</ele>
        <time>2022-02-26T00:45:17Z</time>
      </trkpt>
      <trkpt lat="41.957730" lon="-6.337400">
        <ele>856.841</ele>
        <time>2022-02-26T00:45:57Z</time>
      </trkpt>
      <trkpt lat="41.957740" lon="-6.337400">
        <ele>856.915</ele>
        <time>2022-02-26T00:46:37Z</time>
      </trkpt>
      <trkpt lat="41.957790" lon="-6.337450">
        <ele>857.008</ele>
        <time>2022-02-26T00:47:17Z</time>
      </trkpt>
      <trkpt lat="41.957870" lon="-6.337510">
        <ele>857.396</ele>
        <time>2022-02-26T00:47:57Z</time>
      </trkpt>
      <trkpt lat="41.957920" lon="-6.337550">
        <ele>857.413</ele>
        <time>2022-02-26T00:48:37Z</time>
      </trkpt>
      <trkpt lat="41.957940" lon="-6.337570">
        <ele>857.477</ele>
        <time>2022-02-26T00:49:17Z</time>
      </trkpt>
      <trkpt lat="41.957950" lon="-6.337600">
        <ele>857.413</ele>
        <time>2022-02-26T00:49:57Z</time>
      </trkpt>
      <trkpt lat="41.957970" lon="-6.337670">
        <ele>857.320</ele>
        <time>2022-02-26T00:50:37Z</time>
      </trkpt>
      <trkpt lat="41.958010" lon="-6.337910">
        <ele>856.641</ele>
        <time>2022-02-26T00:51:17Z</time>
      </trkpt>
      <trkpt lat="41.958070" lon="-6.338160">
        <ele>856.035</ele>
        <time>2022-02-26T00:51:57Z</time>
      </trkpt>
      <trkpt lat="41.958090" lon="-6.338280">
        <ele>856.010</ele>
        <time>2022-02-26T00:52:37Z</time>
      </trkpt>
      <trkpt lat="41.958160" lon="-6.338530">
        <ele>856.323</ele>
        <time>2022-02-26T00:53:17Z</time>
      </trkpt>
      <trkpt lat="41.958210" lon="-6.338660">
        <ele>856.883</ele>
        <time>2022-02-26T00:53:57Z</time>
      </trkpt>
      <trkpt lat="41.958290" lon="-6.338810">
        <ele>857.711</ele>
        <time>2022-02-26T00:54:37Z</time>
      </trkpt>
      <trkpt lat="41.958400" lon="-6.339000">
        <ele>858.008</ele>
        <time>2022-02-26T00:55:17Z</time>
      </trkpt>
      <trkpt lat="41.958430" lon="-6.339050">
        <ele>858.031</ele>
        <time>2022-02-26T00:55:57Z</time>
      </trkpt>
      <trkpt lat="41.958470" lon="-6.339130">
        <ele>858.018</ele>
        <time>2022-02-26T00:56:37Z</time>
      </trkpt>
      <trkpt lat="41.958500" lon="-6.339230">
        <ele>858.162</ele>
        <time>2022-02-26T00:57:17Z</time>
      </trkpt>
      <trkpt lat="41.958550" lon="-6.339410">
        <ele>858.738</ele>
        <time>2022-02-26T00:57:57Z</time>
      </trkpt>
      <trkpt lat="41.958670" lon="-6.340020">
        <ele>858.975</ele>
        <time>2022-02-26T00:58:37Z</time>
      </trkpt>
      <trkpt lat="41.958850" lon="-6.340940">
        <ele>858.196</ele>
        <time>2022-02-26T00:59:17Z</time>
      </trkpt>
      <trkpt lat="41.958860" lon="-6.341000">
        <ele>858.120</ele>
        <time>2022-02-26T00:59:57Z</time>
      </trkpt>
      <trkpt lat="41.958890" lon="-6.341210">
        <ele>858.075</ele>
        <time>2022-02-26T01:00:37Z</time>
      </trkpt>
      <trkpt lat="41.958890" lon="-6.341220">
        <ele>858.031</ele>
        <time>2022-02-26T01:01:17Z</time>
      </trkpt>
      <trkpt lat="41.958980" lon="-6.341960">
        <ele>861.461</ele>
        <time>2022-02-26T01:01:57Z</time>
      </trkpt>
      <trkpt lat="41.959020" lon="-6.342330">
        <ele>863.407</ele>
        <time>2022-02-26T01:02:37Z</time>
      </trkpt>
      <trkpt lat="41.959030" lon="-6.342340">
        <ele>863.408</ele>
        <time>2022-02-26T01:03:17Z</time>
      </trkpt>
      <trkpt lat="41.959070" lon="-6.342670">
        <ele>864.692</ele>
        <time>2022-02-26T01:03:57Z</time>
      </trkpt>
      <trkpt lat="41.959120" lon="-6.342980">
        <ele>865.639</ele>
        <time>2022-02-26T01:04:37Z</time>
      </trkpt>
      <trkpt lat="41.959130" lon="-6.343040">
        <ele>865.863</ele>
        <time>2022-02-26T01:05:17Z</time>
      </trkpt>
      <trkpt lat="41.959230" lon="-6.343500">
        <ele>866.959</ele>
        <time>2022-02-26T01:05:57Z</time>
      </trkpt>
      <trkpt lat="41.959370" lon="-6.344150">
        <ele>869.966</ele>
        <time>2022-02-26T01:06:37Z</time>
      </trkpt>
      <trkpt lat="41.959460" lon="-6.344600">
        <ele>871.557</ele>
        <time>2022-02-26T01:07:17Z</time>
      </trkpt>
      <trkpt lat="41.959610" lon="-6.345290">
        <ele>873.041</ele>
        <time>2022-02-26T01:07:57Z</time>
      </trkpt>
      <trkpt lat="41.959710" lon="-6.345750">
        <ele>874.046</ele>
        <time>2022-02-26T01:08:37Z</time>
      </trkpt>
      <trkpt lat="41.959770" lon="-6.345980">
        <ele>874.053</ele>
        <time>2022-02-26T01:09:17Z</time>
      </trkpt>
      <trkpt lat="41.959870" lon="-6.346280">
        <ele>874.004</ele>
        <time>2022-02-26T01:09:57Z</time>
      </trkpt>
      <trkpt lat="41.959980" lon="-6.346520">
        <ele>874.414</ele>
        <time>2022-02-26T01:10:37Z</time>
      </trkpt>
      <trkpt lat="41.960210" lon="-6.347070">
        <ele>874.808</ele>
        <time>2022-02-26T01:11:17Z</time>
      </trkpt>
      <trkpt lat="41.960670" lon="-6.348100">
        <ele>876.864</ele>
        <time>2022-02-26T01:11:57Z</time>
      </trkpt>
      <trkpt lat="41.960760" lon="-6.348310">
        <ele>877.531</ele>
        <time>2022-02-26T01:12:37Z</time>
      </trkpt>
      <trkpt lat="41.960870" lon="-6.348560">
        <ele>878.085</ele>
        <time>2022-02-26T01:13:17Z</time>
      </trkpt>
      <trkpt lat="41.961180" lon="-6.349240">
        <ele>878.241</ele>
        <time>2022-02-26T01:13:57Z</time>
      </trkpt>
      <trkpt lat="41.961270" lon="-6.349460">
        <ele>878.078</ele>
        <time>2022-02-26T01:14:37Z</time>
      </trkpt>
      <trkpt lat="41.961580" lon="-6.350140">
        <ele>879.219</ele>
        <time>2022-02-26T01:15:17Z</time>
      </trkpt>
      <trkpt lat="41.961690" lon="-6.350360">
        <ele>880.263</ele>
        <time>2022-02-26T01:15:57Z</time>
      </trkpt>
      <trkpt lat="41.961880" lon="-6.350720">
        <ele>880.258</ele>
        <time>2022-02-26T01:16:37Z</time>
      </trkpt>
      <trkpt lat="41.962190" lon="-6.351250">
        <ele>879.415</ele>
        <time>2022-02-26T01:17:17Z</time>
      </trkpt>
      <trkpt lat="41.962200" lon="-6.351280">
        <ele>879.365</ele>
        <time>2022-02-26T01:17:57Z</time>
      </trkpt>
      <trkpt lat="41.962230" lon="-6.351320">
        <ele>879.211</ele>
        <time>2022-02-26T01:18:37Z</time>
      </trkpt>
      <trkpt lat="41.962890" lon="-6.352450">
        <ele>879.308</ele>
        <time>2022-02-26T01:19:17Z</time>
      </trkpt>
      <trkpt lat="41.962960" lon="-6.352580">
        <ele>879.920</ele>
        <time>2022-02-26T01:19:57Z</time>
      </trkpt>
      <trkpt lat="41.963120" lon="-6.352910">
        <ele>881.257</ele>
        <time>2022-02-26T01:20:37Z</time>
      </trkpt>
      <trkpt lat="41.963230" lon="-6.353180">
        <ele>881.581</ele>
        <time>2022-02-26T01:21:17Z</time>
      </trkpt>
      <trkpt lat="41.963240" lon="-6.353200">
        <ele>881.537</ele>
        <time>2022-02-26T01:21:57Z</time>
      </trkpt>
      <trkpt lat="41.963280" lon="-6.353330">
        <ele>881.644</ele>
        <time>2022-02-26T01:22:37Z</time>
      </trkpt>
      <trkpt lat="41.963300" lon="-6.353430">
        <ele>881.555</ele>
        <time>2022-02-26T01:23:17Z</time>
      </trkpt>
      <trkpt lat="41.963340" lon="-6.353580">
        <ele>881.169</ele>
        <time>2022-02-26T01:23:57Z</time>
      </trkpt>
      <trkpt lat="41.963360" lon="-6.353660">
        <ele>881.114</ele>
        <time>2022-02-26T01:24:37Z</time>
      </trkpt>
      <trkpt lat="41.963400" lon="-6.353800">
        <ele>881.413</ele>
        <time>2022-02-26T01:25:17Z</time>
      </trkpt>
      <trkpt lat="41.963470" lon="-6.354150">
        <ele>881.543</ele>
        <time>2022-02-26T01:25:57Z</time>
      </trkpt>
      <trkpt lat="41.963650" lon="-6.355060">
        <ele>881.807</ele>
        <time>2022-02-26T01:26:37Z</time>
      </trkpt>
      <trkpt lat="41.963690" lon="-6.355250">
        <ele>881.408</ele>
        <time>2022-02-26T01:27:17Z</time>
      </trkpt>
      <trkpt lat="41.963740" lon="-6.355520">
        <ele>881.940</ele>
        <time>2022-02-26T01:27:57Z</time>
      </trkpt>
      <trkpt lat="41.963880" lon="-6.356230">
        <ele>882.017</ele>
        <time>2022-02-26T01:28:37Z</time>
      </trkpt>
      <trkpt lat="41.963900" lon="-6.356350">
        <ele>882.041</ele>
        <time>2022-02-26T01:29:17Z</time>
      </trkpt>
      <trkpt lat="41.963920" lon="-6.356460">
        <ele>882.347</ele>
        <time>2022-02-26T01:29:57Z</time>
      </trkpt>
      <trkpt lat="41.964120" lon="-6.357390">
        <ele>882.674</ele>
        <time>2022-02-26T01:30:37Z</time>
      </trkpt>
      <trkpt lat="41.964160" lon="-6.357630">
        <ele>882.515</ele>
        <time>2022-02-26T01:31:17Z</time>
      </trkpt>
      <trkpt lat="41.964180" lon="-6.357690">
        <ele>882.649</ele>
        <time>2022-02-26T01:31:57Z</time>
      </trkpt>
      <trkpt lat="41.964300" lon="-6.358330">
        <ele>884.554</ele>
        <time>2022-02-26T01:32:37Z</time>
      </trkpt>
      <trkpt lat="41.964380" lon="-6.358690">
        <ele>882.956</ele>
        <time>2022-02-26T01:33:17Z</time>
      </trkpt>
      <trkpt lat="41.964480" lon="-6.359160">
        <ele>880.959</ele>
        <time>2022-02-26T01:33:57Z</time>
      </trkpt>
      <trkpt lat="41.964500" lon="-6.359280">
        <ele>880.814</ele>
        <time>2022-02-26T01:34:37Z</time>
      </trkpt>
      <trkpt lat="41.964530" lon="-6.359390">
        <ele>880.708</ele>
        <time>2022-02-26T01:35:17Z</time>
      </trkpt>
      <trkpt lat="41.964580" lon="-6.359620">
        <ele>880.264</ele>
        <time>2022-02-26T01:35:57Z</time>
      </trkpt>
      <trkpt lat="41.964720" lon="-6.360320">
        <ele>878.891</ele>
        <time>2022-02-26T01:36:37Z</time>
      </trkpt>
      <trkpt lat="41.964870" lon="-6.361020">
        <ele>877.735</ele>
        <time>2022-02-26T01:37:17Z</time>
      </trkpt>
      <trkpt lat="41.964900" lon="-6.361160">
        <ele>877.761</ele>
        <time>2022-02-26T01:37:57Z</time>
      </trkpt>
      <trkpt lat="41.965080" lon="-6.361950">
        <ele>879.398</ele>
        <time>2022-02-26T01:38:37Z</time>
      </trkpt>
      <trkpt lat="41.965190" lon="-6.362410">
        <ele>880.729</ele>
        <time>2022-02-26T01:39:17Z</time>
      </trkpt>
      <trkpt lat="41.965220" lon="-6.362570">
        <ele>881.043</ele>
        <time>2022-02-26T01:39:57Z</time>
      </trkpt>
      <trkpt lat="41.965330" lon="-6.363050">
        <ele>883.078</ele>
        <time>2022-02-26T01:40:37Z</time>
      </trkpt>
      <trkpt lat="41.965390" lon="-6.363260">
        <ele>883.019</ele>
        <time>2022-02-26T01:41:17Z</time>
      </trkpt>
      <trkpt lat="41.965440" lon="-6.363490">
        <ele>882.909</ele>
        <time>2022-02-26T01:41:57Z</time>
      </trkpt>
      <trkpt lat="41.965480" lon="-6.363650">
        <ele>882.419</ele>
        <time>2022-02-26T01:42:37Z</time>
      </trkpt>
      <trkpt lat="41.965600" lon="-6.364180">
        <ele>880.608</ele>
        <time>2022-02-26T01:43:17Z</time>
      </trkpt>
      <trkpt lat="41.965650" lon="-6.364420">
        <ele>880.940</ele>
        <time>2022-02-26T01:43:57Z</time>
      </trkpt>
      <trkpt lat="41.965670" lon="-6.364530">
        <ele>880.977</ele>
        <time>2022-02-26T01:44:37Z</time>
      </trkpt>
      <trkpt lat="41.965800" lon="-6.365110">
        <ele>878.951</ele>
        <time>2022-02-26T01:45:17Z</time>
      </trkpt>
      <trkpt lat="41.965900" lon="-6.365580">
        <ele>879.217</ele>
        <time>2022-02-26T01:45:57Z</time>
      </trkpt>
      <trkpt lat="41.965950" lon="-6.365810">
        <ele>880.444</ele>
        <time>2022-02-26T01:46:37Z</time>
      </trkpt>
      <trkpt lat="41.965990" lon="-6.366040">
        <ele>880.995</ele>
        <time>2022-02-26T01:47:17Z</time>
      </trkpt>
      <trkpt lat="41.966040" lon="-6.366280">
        <ele>881.619</ele>
        <time>2022-02-26T01:47:57Z</time>
      </trkpt>
      <trkpt lat="41.966160" lon="-6.366810">
        <ele>882.284</ele>
        <time>2022-02-26T01:48:37Z</time>
      </trkpt>
      <trkpt lat="41.966240" lon="-6.367210">
        <ele>881.566</ele>
        <time>2022-02-26T01:49:17Z</time>
      </trkpt>
      <trkpt lat="41.966290" lon="-6.367440">
        <ele>881.429</ele>
        <time>2022-02-26T01:49:57Z</time>
      </trkpt>
      <trkpt lat="41.966370" lon="-6.367820">
        <ele>880.821</ele>
        <time>2022-02-26T01:50:37Z</time>
      </trkpt>
      <trkpt lat="41.966390" lon="-6.367900">
        <ele>880.608</ele>
        <time>2022-02-26T01:51:17Z</time>
      </trkpt>
      <trkpt lat="41.966430" lon="-6.368060">
        <ele>879.925</ele>
        <time>2022-02-26T01:51:57Z</time>
      </trkpt>
      <trkpt lat="41.966470" lon="-6.368170">
        <ele>879.772</ele>
        <time>2022-02-26T01:52:37Z</time>
      </trkpt>
      <trkpt lat="41.966500" lon="-6.368280">
        <ele>879.696</ele>
        <time>2022-02-26T01:53:17Z</time>
      </trkpt>
      <trkpt lat="41.966530" lon="-6.368350">
        <ele>879.532</ele>
        <time>2022-02-26T01:53:57Z</time>
      </trkpt>
      <trkpt lat="41.966560" lon="-6.368440">
        <ele>879.669</ele>
        <time>2022-02-26T01:54:37Z</time>
      </trkpt>
      <trkpt lat="41.966630" lon="-6.368610">
        <ele>880.030</ele>
        <time>2022-02-26T01:55:17Z</time>
      </trkpt>
      <trkpt lat="41.966670" lon="-6.368690">
        <ele>880.674</ele>
        <time>2022-02-26T01:55:57Z</time>
      </trkpt>
      <trkpt lat="41.967010" lon="-6.369430">
        <ele>882.099</ele>
        <time>2022-02-26T01:56:37Z</time>
      </trkpt>
      <trkpt lat="41.967050" lon="-6.369510">
        <ele>882.155</ele>
        <time>2022-02-26T01:57:17Z</time>
      </trkpt>
      <trkpt lat="41.967110" lon="-6.369630">
        <ele>882.407</ele>
        <time>2022-02-26T01:57:57Z</time>
      </trkpt>
      <trkpt lat="41.967200" lon="-6.369830">
        <ele>883.317</ele>
        <time>2022-02-26T01:58:37Z</time>
      </trkpt>
      <trkpt lat="41.967250" lon="-6.369920">
        <ele>883.608</ele>
        <time>2022-02-26T01:59:17Z</time>
      </trkpt>
      <trkpt lat="41.967610" lon="-6.370660">
        <ele>883.854</ele>
        <time>2022-02-26T01:59:57Z</time>
      </trkpt>
      <trkpt lat="41.967700" lon="-6.370850">
        <ele>883.691</ele>
        <time>2022-02-26T02:00:37Z</time>
      </trkpt>
      <trkpt lat="41.967740" lon="-6.370930">
        <ele>883.965</ele>
        <time>2022-02-26T02:01:17Z</time>
      </trkpt>
      <trkpt lat="41.967800" lon="-6.371050">
        <ele>884.691</ele>
        <time>2022-02-26T02:01:57Z</time>
      </trkpt>
      <trkpt lat="41.967920" lon="-6.371300">
        <ele>886.038</ele>
        <time>2022-02-26T02:02:37Z</time>
      </trkpt>
      <trkpt lat="41.967990" lon="-6.371460">
        <ele>886.829</ele>
        <time>2022-02-26T02:03:17Z</time>
      </trkpt>
      <trkpt lat="41.968090" lon="-6.371660">
        <ele>886.873</ele>
        <time>2022-02-26T02:03:57Z</time>
      </trkpt>
      <trkpt lat="41.968130" lon="-6.371750">
        <ele>886.548</ele>
        <time>2022-02-26T02:04:37Z</time>
      </trkpt>
      <trkpt lat="41.968180" lon="-6.371870">
        <ele>886.179</ele>
        <time>2022-02-26T02:05:17Z</time>
      </trkpt>
      <trkpt lat="41.968230" lon="-6.371980">
        <ele>886.005</ele>
        <time>2022-02-26T02:05:57Z</time>
      </trkpt>
      <trkpt lat="41.968320" lon="-6.372190">
        <ele>886.825</ele>
        <time>2022-02-26T02:06:37Z</time>
      </trkpt>
      <trkpt lat="41.968420" lon="-6.372530">
        <ele>887.408</ele>
        <time>2022-02-26T02:07:17Z</time>
      </trkpt>
      <trkpt lat="41.968500" lon="-6.372920">
        <ele>887.036</ele>
        <time>2022-02-26T02:07:57Z</time>
      </trkpt>
      <trkpt lat="41.968520" lon="-6.373020">
        <ele>886.923</ele>
        <time>2022-02-26T02:08:37Z</time>
      </trkpt>
      <trkpt lat="41.968560" lon="-6.373260">
        <ele>886.497</ele>
        <time>2022-02-26T02:09:17Z</time>
      </trkpt>
      <trkpt lat="41.968600" lon="-6.373490">
        <ele>886.153</ele>
        <time>2022-02-26T02:09:57Z</time>
      </trkpt>
      <trkpt lat="41.968680" lon="-6.373960">
        <ele>883.740</ele>
        <time>2022-02-26T02:10:37Z</time>
      </trkpt>
      <trkpt lat="41.968710" lon="-6.374100">
        <ele>882.881</ele>
        <time>2022-02-26T02:11:17Z</time>
      </trkpt>
      <trkpt lat="41.968720" lon="-6.374200">
        <ele>882.285</ele>
        <time>2022-02-26T02:11:57Z</time>
      </trkpt>
      <trkpt lat="41.968770" lon="-6.374430">
        <ele>881.230</ele>
        <time>2022-02-26T02:12:37Z</time>
      </trkpt>
      <trkpt lat="41.968780" lon="-6.374480">
        <ele>881.152</ele>
        <time>2022-02-26T02:13:17Z</time>
      </trkpt>
      <trkpt lat="41.968790" lon="-6.374520">
        <ele>881.053</ele>
        <time>2022-02-26T02:13:57Z</time>
      </trkpt>
      <trkpt lat="41.968850" lon="-6.374740">
        <ele>880.708</ele>
        <time>2022-02-26T02:14:37Z</time>
      </trkpt>
      <trkpt lat="41.968850" lon="-6.374750">
        <ele>880.708</ele>
        <time>2022-02-26T02:15:17Z</time>
      </trkpt>
      <trkpt lat="41.968940" lon="-6.374980">
        <ele>881.244</ele>
        <time>2022-02-26T02:15:57Z</time>
      </trkpt>
      <trkpt lat="41.969030" lon="-6.375160">
        <ele>881.841</ele>
        <time>2022-02-26T02:16:37Z</time>
      </trkpt>
      <trkpt lat="41.969060" lon="-6.375220">
        <ele>881.965</ele>
        <time>2022-02-26T02:17:17Z</time>
      </trkpt>
      <trkpt lat="41.969090" lon="-6.375280">
        <ele>882.071</ele>
        <time>2022-02-26T02:17:57Z</time>
      </trkpt>
      <trkpt lat="41.969190" lon="-6.375490">
        <ele>881.188</ele>
        <time>2022-02-26T02:18:37Z</time>
      </trkpt>
      <trkpt lat="41.969200" lon="-6.375500">
        <ele>881.019</ele>
        <time>2022-02-26T02:19:17Z</time>
      </trkpt>
      <trkpt lat="41.969290" lon="-6.375710">
        <ele>878.743</ele>
        <time>2022-02-26T02:19:57Z</time>
      </trkpt>
      <trkpt lat="41.969300" lon="-6.375740">
        <ele>878.488</ele>
        <time>2022-02-26T02:20:37Z</time>
      </trkpt>
      <trkpt lat="41.969310" lon="-6.375760">
        <ele>878.138</ele>
        <time>2022-02-26T02:21:17Z</time>
      </trkpt>
      <trkpt lat="41.969380" lon="-6.375990">
        <ele>877.470</ele>
        <time>2022-02-26T02:21:57Z</time>
      </trkpt>
      <trkpt lat="41.969390" lon="-6.376010">
        <ele>877.317</ele>
        <time>2022-02-26T02:22:37Z</time>
      </trkpt>
      <trkpt lat="41.969430" lon="-6.376250">
        <ele>877.608</ele>
        <time>2022-02-26T02:23:17Z</time>
      </trkpt>
      <trkpt lat="41.969480" lon="-6.376480">
        <ele>877.732</ele>
        <time>2022-02-26T02:23:57Z</time>
      </trkpt>
      <trkpt lat="41.969500" lon="-6.376590">
        <ele>877.579</ele>
        <time>2022-02-26T02:24:37Z</time>
      </trkpt>
      <trkpt lat="41.969520" lon="-6.376700">
        <ele>877.033</ele>
        <time>2022-02-26T02:25:17Z</time>
      </trkpt>
      <trkpt lat="41.969540" lon="-6.376820">
        <ele>876.249</ele>
        <time>2022-02-26T02:25:57Z</time>
      </trkpt>
      <trkpt lat="41.969580" lon="-6.377060">
        <ele>874.436</ele>
        <time>2022-02-26T02:26:37Z</time>
      </trkpt>
      <trkpt lat="41.969600" lon="-6.377470">
        <ele>873.397</ele>
        <time>2022-02-26T02:27:17Z</time>
      </trkpt>
      <trkpt lat="41.969600" lon="-6.377580">
        <ele>873.321</ele>
        <time>2022-02-26T02:27:57Z</time>
      </trkpt>
      <trkpt lat="41.969590" lon="-6.377650">
        <ele>873.456</ele>
        <time>2022-02-26T02:28:37Z</time>
      </trkpt>
      <trkpt lat="41.969560" lon="-6.377740">
        <ele>873.891</ele>
        <time>2022-02-26T02:29:17Z</time>
      </trkpt>
      <trkpt lat="41.969540" lon="-6.377790">
        <ele>874.081</ele>
        <time>2022-02-26T02:29:57Z</time>
      </trkpt>
      <trkpt lat="41.969530" lon="-6.377810">
        <ele>874.119</ele>
        <time>2022-02-26T02:30:37Z</time>
      </trkpt>
      <trkpt lat="41.969380" lon="-6.378050">
        <ele>875.508</ele>
        <time>2022-02-26T02:31:17Z</time>
      </trkpt>
      <trkpt lat="41.969370" lon="-6.378080">
        <ele>875.758</ele>
        <time>2022-02-26T02:31:57Z</time>
      </trkpt>
      <trkpt lat="41.969300" lon="-6.378280">
        <ele>876.835</ele>
        <time>2022-02-26T02:32:37Z</time>
      </trkpt>
      <trkpt lat="41.969290" lon="-6.378300">
        <ele>876.959</ele>
        <time>2022-02-26T02:33:17Z</time>
      </trkpt>
      <trkpt lat="41.969250" lon="-6.378540">
        <ele>878.055</ele>
        <time>2022-02-26T02:33:57Z</time>
      </trkpt>
      <trkpt lat="41.969240" lon="-6.378600">
        <ele>878.222</ele>
        <time>2022-02-26T02:34:37Z</time>
      </trkpt>
      <trkpt lat="41.969220" lon="-6.378720">
        <ele>878.233</ele>
        <time>2022-02-26T02:35:17Z</time>
      </trkpt>
      <trkpt lat="41.969220" lon="-6.378760">
        <ele>878.227</ele>
        <time>2022-02-26T02:35:57Z</time>
      </trkpt>
      <trkpt lat="41.969220" lon="-6.378970">
        <ele>878.252</ele>
        <time>2022-02-26T02:36:37Z</time>
      </trkpt>
      <trkpt lat="41.969220" lon="-6.379040">
        <ele>878.256</ele>
        <time>2022-02-26T02:37:17Z</time>
      </trkpt>
      <trkpt lat="41.969240" lon="-6.379100">
        <ele>878.359</ele>
        <time>2022-02-26T02:37:57Z</time>
      </trkpt>
      <trkpt lat="41.969240" lon="-6.379120">
        <ele>878.314</ele>
        <time>2022-02-26T02:38:37Z</time>
      </trkpt>
      <trkpt lat="41.969330" lon="-6.379390">
        <ele>878.608</ele>
        <time>2022-02-26T02:39:17Z</time>
      </trkpt>
      <trkpt lat="41.969360" lon="-6.379510">
        <ele>878.934</ele>
        <time>2022-02-26T02:39:57Z</time>
      </trkpt>
      <trkpt lat="41.969430" lon="-6.379800">
        <ele>880.571</ele>
        <time>2022-02-26T02:40:37Z</time>
      </trkpt>
      <trkpt lat="41.969450" lon="-6.379910">
        <ele>881.435</ele>
        <time>2022-02-26T02:41:17Z</time>
      </trkpt>
      <trkpt lat="41.969510" lon="-6.380130">
        <ele>882.151</ele>
        <time>2022-02-26T02:41:57Z</time>
      </trkpt>
      <trkpt lat="41.969560" lon="-6.380290">
        <ele>882.428</ele>
        <time>2022-02-26T02:42:37Z</time>
      </trkpt>
      <trkpt lat="41.969600" lon="-6.380380">
        <ele>882.849</ele>
        <time>2022-02-26T02:43:17Z</time>
      </trkpt>
      <trkpt lat="41.969610" lon="-6.380410">
        <ele>882.923</ele>
        <time>2022-02-26T02:43:57Z</time>
      </trkpt>
      <trkpt lat="41.969660" lon="-6.380540">
        <ele>883.548</ele>
        <time>2022-02-26T02:44:37Z</time>
      </trkpt>
      <trkpt lat="41.969770" lon="-6.380750">
        <ele>885.039</ele>
        <time>2022-02-26T02:45:17Z</time>
      </trkpt>
      <trkpt lat="41.969810" lon="-6.380790">
        <ele>885.501</ele>
        <time>2022-02-26T02:45:57Z</time>
      </trkpt>
      <trkpt lat="41.969920" lon="-6.380890">
        <ele>886.521</ele>
        <time>2022-02-26T02:46:37Z</time>
      </trkpt>
      <trkpt lat="41.970010" lon="-6.380970">
        <ele>887.008</ele>
        <time>2022-02-26T02:47:17Z</time>
      </trkpt>
      <trkpt lat="41.970090" lon="-6.381130">
        <ele>886.932</ele>
        <time>2022-02-26T02:47:57Z</time>
      </trkpt>
      <trkpt lat="41.970130" lon="-6.381160">
        <ele>886.869</ele>
        <time>2022-02-26T02:48:37Z</time>
      </trkpt>
      <trkpt lat="41.970220" lon="-6.381230">
        <ele>886.643</ele>
        <time>2022-02-26T02:49:17Z</time>
      </trkpt>
      <trkpt lat="41.970300" lon="-6.381290">
        <ele>886.359</ele>
        <time>2022-02-26T02:49:57Z</time>
      </trkpt>
      <trkpt lat="41.970400" lon="-6.381720">
        <ele>887.396</ele>
        <time>2022-02-26T02:50:37Z</time>
      </trkpt>
      <trkpt lat="41.970420" lon="-6.381820">
        <ele>887.847</ele>
        <time>2022-02-26T02:51:17Z</time>
      </trkpt>
      <trkpt lat="41.970440" lon="-6.381940">
        <ele>888.651</ele>
        <time>2022-02-26T02:51:57Z</time>
      </trkpt>
      <trkpt lat="41.970470" lon="-6.382020">
        <ele>888.836</ele>
        <time>2022-02-26T02:52:37Z</time>
      </trkpt>
      <trkpt lat="41.970480" lon="-6.382050">
        <ele>888.824</ele>
        <time>2022-02-26T02:53:17Z</time>
      </trkpt>
      <trkpt lat="41.970500" lon="-6.382090">
        <ele>888.904</ele>
        <time>2022-02-26T02:53:57Z</time>
      </trkpt>
      <trkpt lat="41.970540" lon="-6.382130">
        <ele>889.014</ele>
        <time>2022-02-26T02:54:37Z</time>
      </trkpt>
      <trkpt lat="41.970780" lon="-6.382390">
        <ele>889.008</ele>
        <time>2022-02-26T02:55:17Z</time>
      </trkpt>
      <trkpt lat="41.970800" lon="-6.382420">
        <ele>889.031</ele>
        <time>2022-02-26T02:55:57Z</time>
      </trkpt>
      <trkpt lat="41.970830" lon="-6.382480">
        <ele>889.018</ele>
        <time>2022-02-26T02:56:37Z</time>
      </trkpt>
      <trkpt lat="41.970860" lon="-6.382600">
        <ele>888.942</ele>
        <time>2022-02-26T02:57:17Z</time>
      </trkpt>
      <trkpt lat="41.971020" lon="-6.383230">
        <ele>888.398</ele>
        <time>2022-02-26T02:57:57Z</time>
      </trkpt>
      <trkpt lat="41.971060" lon="-6.383380">
        <ele>888.025</ele>
        <time>2022-02-26T02:58:37Z</time>
      </trkpt>
      <trkpt lat="41.971270" lon="-6.384220">
        <ele>883.216</ele>
        <time>2022-02-26T02:59:17Z</time>
      </trkpt>
      <trkpt lat="41.971310" lon="-6.384350">
        <ele>882.630</ele>
        <time>2022-02-26T02:59:57Z</time>
      </trkpt>
      <trkpt lat="41.971410" lon="-6.384670">
        <ele>882.025</ele>
        <time>2022-02-26T03:00:37Z</time>
      </trkpt>
      <trkpt lat="41.971530" lon="-6.384950">
        <ele>882.062</ele>
        <time>2022-02-26T03:01:17Z</time>
      </trkpt>
      <trkpt lat="41.971820" lon="-6.385560">
        <ele>880.483</ele>
        <time>2022-02-26T03:01:57Z</time>
      </trkpt>
      <trkpt lat="41.971950" lon="-6.385780">
        <ele>880.011</ele>
        <time>2022-02-26T03:02:37Z</time>
      </trkpt>
      <trkpt lat="41.971960" lon="-6.385800">
        <ele>880.108</ele>
        <time>2022-02-26T03:03:17Z</time>
      </trkpt>
      <trkpt lat="41.972070" lon="-6.385970">
        <ele>880.565</ele>
        <time>2022-02-26T03:03:57Z</time>
      </trkpt>
      <trkpt lat="41.972080" lon="-6.385980">
        <ele>880.582</ele>
        <time>2022-02-26T03:04:37Z</time>
      </trkpt>
      <trkpt lat="41.972250" lon="-6.386200">
        <ele>881.226</ele>
        <time>2022-02-26T03:05:17Z</time>
      </trkpt>
      <trkpt lat="41.972680" lon="-6.386670">
        <ele>880.342</ele>
        <time>2022-02-26T03:05:57Z</time>
      </trkpt>
      <trkpt lat="41.972760" lon="-6.386760">
        <ele>879.719</ele>
        <time>2022-02-26T03:06:37Z</time>
      </trkpt>
      <trkpt lat="41.972870" lon="-6.386880">
        <ele>878.980</ele>
        <time>2022-02-26T03:07:17Z</time>
      </trkpt>
      <trkpt lat="41.972900" lon="-6.386920">
        <ele>878.684</ele>
        <time>2022-02-26T03:07:57Z</time>
      </trkpt>
      <trkpt lat="41.973180" lon="-6.387230">
        <ele>878.969</ele>
        <time>2022-02-26T03:08:37Z</time>
      </trkpt>
      <trkpt lat="41.973230" lon="-6.387280">
        <ele>879.584</ele>
        <time>2022-02-26T03:09:17Z</time>
      </trkpt>
      <trkpt lat="41.973390" lon="-6.387500">
        <ele>881.407</ele>
        <time>2022-02-26T03:09:57Z</time>
      </trkpt>
      <trkpt lat="41.973500" lon="-6.387670">
        <ele>882.417</ele>
        <time>2022-02-26T03:10:37Z</time>
      </trkpt>
      <trkpt lat="41.973650" lon="-6.387950">
        <ele>883.708</ele>
        <time>2022-02-26T03:11:17Z</time>
      </trkpt>
      <trkpt lat="41.973690" lon="-6.388050">
        <ele>884.047</ele>
        <time>2022-02-26T03:11:57Z</time>
      </trkpt>
      <trkpt lat="41.973730" lon="-6.388160">
        <ele>884.214</ele>
        <time>2022-02-26T03:12:37Z</time>
      </trkpt>
      <trkpt lat="41.973780" lon="-6.388290">
        <ele>884.538</ele>
        <time>2022-02-26T03:13:17Z</time>
      </trkpt>
      <trkpt lat="41.973880" lon="-6.388600">
        <ele>885.044</ele>
        <time>2022-02-26T03:13:57Z</time>
      </trkpt>
      <trkpt lat="41.973890" lon="-6.388630">
        <ele>885.071</ele>
        <time>2022-02-26T03:14:37Z</time>
      </trkpt>
      <trkpt lat="41.974000" lon="-6.389140">
        <ele>885.932</ele>
        <time>2022-02-26T03:15:17Z</time>
      </trkpt>
      <trkpt lat="41.974040" lon="-6.389290">
        <ele>886.216</ele>
        <time>2022-02-26T03:15:57Z</time>
      </trkpt>
      <trkpt lat="41.974130" lon="-6.389760">
        <ele>888.011</ele>
        <time>2022-02-26T03:16:37Z</time>
      </trkpt>
      <trkpt lat="41.974200" lon="-6.390050">
        <ele>889.322</ele>
        <time>2022-02-26T03:17:17Z</time>
      </trkpt>
      <trkpt lat="41.974230" lon="-6.390220">
        <ele>890.062</ele>
        <time>2022-02-26T03:17:57Z</time>
      </trkpt>
      <trkpt lat="41.974280" lon="-6.390470">
        <ele>890.708</ele>
        <time>2022-02-26T03:18:37Z</time>
      </trkpt>
      <trkpt lat="41.974300" lon="-6.390570">
        <ele>890.908</ele>
        <time>2022-02-26T03:19:17Z</time>
      </trkpt>
      <trkpt lat="41.974430" lon="-6.391200">
        <ele>890.941</ele>
        <time>2022-02-26T03:19:57Z</time>
      </trkpt>
      <trkpt lat="41.974650" lon="-6.392190">
        <ele>889.888</ele>
        <time>2022-02-26T03:20:37Z</time>
      </trkpt>
      <trkpt lat="41.974680" lon="-6.392330">
        <ele>889.992</ele>
        <time>2022-02-26T03:21:17Z</time>
      </trkpt>
      <trkpt lat="41.974870" lon="-6.393260">
        <ele>891.558</ele>
        <time>2022-02-26T03:21:57Z</time>
      </trkpt>
      <trkpt lat="41.974920" lon="-6.393500">
        <ele>891.575</ele>
        <time>2022-02-26T03:22:37Z</time>
      </trkpt>
      <trkpt lat="41.974970" lon="-6.393730">
        <ele>890.826</ele>
        <time>2022-02-26T03:23:17Z</time>
      </trkpt>
      <trkpt lat="41.975110" lon="-6.394430">
        <ele>889.640</ele>
        <time>2022-02-26T03:23:57Z</time>
      </trkpt>
      <trkpt lat="41.975160" lon="-6.394660">
        <ele>889.535</ele>
        <time>2022-02-26T03:24:37Z</time>
      </trkpt>
      <trkpt lat="41.975260" lon="-6.395130">
        <ele>890.927</ele>
        <time>2022-02-26T03:25:17Z</time>
      </trkpt>
      <trkpt lat="41.975310" lon="-6.395360">
        <ele>892.768</ele>
        <time>2022-02-26T03:25:57Z</time>
      </trkpt>
      <trkpt lat="41.975360" lon="-6.395630">
        <ele>894.914</ele>
        <time>2022-02-26T03:26:37Z</time>
      </trkpt>
      <trkpt lat="41.975410" lon="-6.395830">
        <ele>896.408</ele>
        <time>2022-02-26T03:27:17Z</time>
      </trkpt>
      <trkpt lat="41.975510" lon="-6.396290">
        <ele>899.581</ele>
        <time>2022-02-26T03:27:57Z</time>
      </trkpt>
      <trkpt lat="41.975710" lon="-6.397220">
        <ele>903.458</ele>
        <time>2022-02-26T03:28:37Z</time>
      </trkpt>
      <trkpt lat="41.975720" lon="-6.397260">
        <ele>903.552</ele>
        <time>2022-02-26T03:29:17Z</time>
      </trkpt>
      <trkpt lat="41.975900" lon="-6.398150">
        <ele>905.068</ele>
        <time>2022-02-26T03:29:57Z</time>
      </trkpt>
      <trkpt lat="41.975950" lon="-6.398390">
        <ele>905.125</ele>
        <time>2022-02-26T03:30:37Z</time>
      </trkpt>
      <trkpt lat="41.976050" lon="-6.398890">
        <ele>906.276</ele>
        <time>2022-02-26T03:31:17Z</time>
      </trkpt>
      <trkpt lat="41.976090" lon="-6.399090">
        <ele>906.770</ele>
        <time>2022-02-26T03:31:57Z</time>
      </trkpt>
      <trkpt lat="41.976140" lon="-6.399320">
        <ele>906.695</ele>
        <time>2022-02-26T03:32:37Z</time>
      </trkpt>
      <trkpt lat="41.976190" lon="-6.399550">
        <ele>905.824</ele>
        <time>2022-02-26T03:33:17Z</time>
      </trkpt>
      <trkpt lat="41.976240" lon="-6.399810">
        <ele>904.504</ele>
        <time>2022-02-26T03:33:57Z</time>
      </trkpt>
      <trkpt lat="41.976260" lon="-6.399870">
        <ele>904.214</ele>
        <time>2022-02-26T03:34:37Z</time>
      </trkpt>
      <trkpt lat="41.976290" lon="-6.400050">
        <ele>903.508</ele>
        <time>2022-02-26T03:35:17Z</time>
      </trkpt>
      <trkpt lat="41.976410" lon="-6.400600">
        <ele>901.881</ele>
        <time>2022-02-26T03:35:57Z</time>
      </trkpt>
      <trkpt lat="41.976600" lon="-6.401530">
        <ele>897.768</ele>
        <time>2022-02-26T03:36:37Z</time>
      </trkpt>
      <trkpt lat="41.976640" lon="-6.401770">
        <ele>897.962</ele>
        <time>2022-02-26T03:37:17Z</time>
      </trkpt>
      <trkpt lat="41.976700" lon="-6.402040">
        <ele>899.228</ele>
        <time>2022-02-26T03:37:57Z</time>
      </trkpt>
      <trkpt lat="41.976890" lon="-6.402930">
        <ele>898.345</ele>
        <time>2022-02-26T03:38:37Z</time>
      </trkpt>
      <trkpt lat="41.976940" lon="-6.403160">
        <ele>898.426</ele>
        <time>2022-02-26T03:39:17Z</time>
      </trkpt>
      <trkpt lat="41.977090" lon="-6.403870">
        <ele>899.490</ele>
        <time>2022-02-26T03:39:57Z</time>
      </trkpt>
      <trkpt lat="41.977250" lon="-6.404660">
        <ele>899.075</ele>
        <time>2022-02-26T03:40:37Z</time>
      </trkpt>
      <trkpt lat="41.977380" lon="-6.405260">
        <ele>900.038</ele>
        <time>2022-02-26T03:41:17Z</time>
      </trkpt>
      <trkpt lat="41.977400" lon="-6.405360">
        <ele>899.970</ele>
        <time>2022-02-26T03:41:57Z</time>
      </trkpt>
      <trkpt lat="41.977520" lon="-6.405910">
        <ele>898.917</ele>
        <time>2022-02-26T03:42:37Z</time>
      </trkpt>
      <trkpt lat="41.977610" lon="-6.406400">
        <ele>899.008</ele>
        <time>2022-02-26T03:43:17Z</time>
      </trkpt>
      <trkpt lat="41.977610" lon="-6.406430">
        <ele>899.022</ele>
        <time>2022-02-26T03:43:57Z</time>
      </trkpt>
      <trkpt lat="41.977660" lon="-6.406730">
        <ele>899.289</ele>
        <time>2022-02-26T03:44:37Z</time>
      </trkpt>
      <trkpt lat="41.977680" lon="-6.406900">
        <ele>899.813</ele>
        <time>2022-02-26T03:45:17Z</time>
      </trkpt>
      <trkpt lat="41.977680" lon="-6.406970">
        <ele>899.979</ele>
        <time>2022-02-26T03:45:57Z</time>
      </trkpt>
      <trkpt lat="41.977690" lon="-6.407150">
        <ele>899.566</ele>
        <time>2022-02-26T03:46:37Z</time>
      </trkpt>
      <trkpt lat="41.977700" lon="-6.407310">
        <ele>899.067</ele>
        <time>2022-02-26T03:47:17Z</time>
      </trkpt>
      <trkpt lat="41.977690" lon="-6.407600">
        <ele>898.031</ele>
        <time>2022-02-26T03:47:57Z</time>
      </trkpt>
      <trkpt lat="41.977680" lon="-6.407640">
        <ele>897.876</ele>
        <time>2022-02-26T03:48:37Z</time>
      </trkpt>
      <trkpt lat="41.977670" lon="-6.407800">
        <ele>897.312</ele>
        <time>2022-02-26T03:49:17Z</time>
      </trkpt>
      <trkpt lat="41.977650" lon="-6.407960">
        <ele>896.832</ele>
        <time>2022-02-26T03:49:57Z</time>
      </trkpt>
      <trkpt lat="41.977630" lon="-6.408110">
        <ele>896.505</ele>
        <time>2022-02-26T03:50:37Z</time>
      </trkpt>
      <trkpt lat="41.977600" lon="-6.408350">
        <ele>896.608</ele>
        <time>2022-02-26T03:51:17Z</time>
      </trkpt>
      <trkpt lat="41.977590" lon="-6.408400">
        <ele>896.580</ele>
        <time>2022-02-26T03:51:57Z</time>
      </trkpt>
      <trkpt lat="41.977560" lon="-6.408590">
        <ele>896.117</ele>
        <time>2022-02-26T03:52:37Z</time>
      </trkpt>
      <trkpt lat="41.977510" lon="-6.408910">
        <ele>897.071</ele>
        <time>2022-02-26T03:53:17Z</time>
      </trkpt>
      <trkpt lat="41.977480" lon="-6.409060">
        <ele>897.077</ele>
        <time>2022-02-26T03:53:57Z</time>
      </trkpt>
      <trkpt lat="41.977460" lon="-6.409170">
        <ele>896.854</ele>
        <time>2022-02-26T03:54:37Z</time>
      </trkpt>
      <trkpt lat="41.977420" lon="-6.409260">
        <ele>896.415</ele>
        <time>2022-02-26T03:55:17Z</time>
      </trkpt>
      <trkpt lat="41.977360" lon="-6.409360">
        <ele>895.819</ele>
        <time>2022-02-26T03:55:57Z</time>
      </trkpt>
      <trkpt lat="41.977310" lon="-6.409430">
        <ele>895.454</ele>
        <time>2022-02-26T03:56:37Z</time>
      </trkpt>
      <trkpt lat="41.977220" lon="-6.409520">
        <ele>895.099</ele>
        <time>2022-02-26T03:57:17Z</time>
      </trkpt>
      <trkpt lat="41.977090" lon="-6.409680">
        <ele>894.107</ele>
        <time>2022-02-26T03:57:57Z</time>
      </trkpt>
      <trkpt lat="41.977050" lon="-6.409740">
        <ele>893.727</ele>
        <time>2022-02-26T03:58:37Z</time>
      </trkpt>
      <trkpt lat="41.977030" lon="-6.409750">
        <ele>893.508</ele>
        <time>2022-02-26T03:59:17Z</time>
      </trkpt>
      <trkpt lat="41.976970" lon="-6.409840">
        <ele>892.898</ele>
        <time>2022-02-26T03:59:57Z</time>
      </trkpt>
      <trkpt lat="41.976950" lon="-6.409870">
        <ele>892.515</ele>
        <time>2022-02-26T04:00:37Z</time>
      </trkpt>
      <trkpt lat="41.976930" lon="-6.409920">
        <ele>892.299</ele>
        <time>2022-02-26T04:01:17Z</time>
      </trkpt>
      <trkpt lat="41.976900" lon="-6.410000">
        <ele>891.765</ele>
        <time>2022-02-26T04:01:57Z</time>
      </trkpt>
      <trkpt lat="41.976890" lon="-6.410040">
        <ele>891.532</ele>
        <time>2022-02-26T04:02:37Z</time>
      </trkpt>
      <trkpt lat="41.976890" lon="-6.410050">
        <ele>891.423</ele>
        <time>2022-02-26T04:03:17Z</time>
      </trkpt>
      <trkpt lat="41.976880" lon="-6.410100">
        <ele>891.297</ele>
        <time>2022-02-26T04:03:57Z</time>
      </trkpt>
      <trkpt lat="41.976870" lon="-6.410140">
        <ele>891.072</ele>
        <time>2022-02-26T04:04:37Z</time>
      </trkpt>
      <trkpt lat="41.976860" lon="-6.410180">
        <ele>890.715</ele>
        <time>2022-02-26T04:05:17Z</time>
      </trkpt>
      <trkpt lat="41.976820" lon="-6.410350">
        <ele>889.865</ele>
        <time>2022-02-26T04:05:57Z</time>
      </trkpt>
      <trkpt lat="41.976790" lon="-6.410460">
        <ele>889.211</ele>
        <time>2022-02-26T04:06:37Z</time>
      </trkpt>
      <trkpt lat="41.976760" lon="-6.410540">
        <ele>888.708</ele>
        <time>2022-02-26T04:07:17Z</time>
      </trkpt>
      <trkpt lat="41.976710" lon="-6.410670">
        <ele>887.960</ele>
        <time>2022-02-26T04:07:57Z</time>
      </trkpt>
      <trkpt lat="41.976680" lon="-6.410730">
        <ele>887.577</ele>
        <time>2022-02-26T04:08:37Z</time>
      </trkpt>
      <trkpt lat="41.976660" lon="-6.410800">
        <ele>887.161</ele>
        <time>2022-02-26T04:09:17Z</time>
      </trkpt>
      <trkpt lat="41.976620" lon="-6.410850">
        <ele>886.657</ele>
        <time>2022-02-26T04:09:57Z</time>
      </trkpt>
      <trkpt lat="41.976610" lon="-6.410870">
        <ele>886.464</ele>
        <time>2022-02-26T04:10:37Z</time>
      </trkpt>
      <trkpt lat="41.976590" lon="-6.410890">
        <ele>886.135</ele>
        <time>2022-02-26T04:11:17Z</time>
      </trkpt>
      <trkpt lat="41.976550" lon="-6.410930">
        <ele>885.619</ele>
        <time>2022-02-26T04:11:57Z</time>
      </trkpt>
      <trkpt lat="41.976510" lon="-6.410980">
        <ele>885.174</ele>
        <time>2022-02-26T04:12:37Z</time>
      </trkpt>
      <trkpt lat="41.976390" lon="-6.411130">
        <ele>883.956</ele>
        <time>2022-02-26T04:13:17Z</time>
      </trkpt>
      <trkpt lat="41.976380" lon="-6.411150">
        <ele>883.859</ele>
        <time>2022-02-26T04:13:57Z</time>
      </trkpt>
      <trkpt lat="41.976340" lon="-6.411200">
        <ele>883.514</ele>
        <time>2022-02-26T04:14:37Z</time>
      </trkpt>
      <trkpt lat="41.976280" lon="-6.411290">
        <ele>883.008</ele>
        <time>2022-02-26T04:15:17Z</time>
      </trkpt>
      <trkpt lat="41.976260" lon="-6.411330">
        <ele>882.744</ele>
        <time>2022-02-26T04:15:57Z</time>
      </trkpt>
      <trkpt lat="41.976250" lon="-6.411370">
        <ele>882.691</ele>
        <time>2022-02-26T04:16:37Z</time>
      </trkpt>
      <trkpt lat="41.976230" lon="-6.411470">
        <ele>882.035</ele>
        <time>2022-02-26T04:17:17Z</time>
      </trkpt>
      <trkpt lat="41.976230" lon="-6.411580">
        <ele>881.471</ele>
        <time>2022-02-26T04:17:57Z</time>
      </trkpt>
      <trkpt lat="41.976260" lon="-6.411980">
        <ele>879.568</ele>
        <time>2022-02-26T04:18:37Z</time>
      </trkpt>
      <trkpt lat="41.976270" lon="-6.412210">
        <ele>879.689</ele>
        <time>2022-02-26T04:19:17Z</time>
      </trkpt>
      <trkpt lat="41.976280" lon="-6.412380">
        <ele>879.443</ele>
        <time>2022-02-26T04:19:57Z</time>
      </trkpt>
      <trkpt lat="41.976270" lon="-6.412440">
        <ele>879.228</ele>
        <time>2022-02-26T04:20:37Z</time>
      </trkpt>
      <trkpt lat="41.976270" lon="-6.412530">
        <ele>879.091</ele>
        <time>2022-02-26T04:21:17Z</time>
      </trkpt>
      <trkpt lat="41.976240" lon="-6.412710">
        <ele>878.281</ele>
        <time>2022-02-26T04:21:57Z</time>
      </trkpt>
      <trkpt lat="41.976220" lon="-6.412870">
        <ele>877.519</ele>
        <time>2022-02-26T04:22:37Z</time>
      </trkpt>
      <trkpt lat="41.976090" lon="-6.413290">
        <ele>877.208</ele>
        <time>2022-02-26T04:23:17Z</time>
      </trkpt>
      <trkpt lat="41.976050" lon="-6.413430">
        <ele>877.478</ele>
        <time>2022-02-26T04:23:57Z</time>
      </trkpt>
      <trkpt lat="41.976030" lon="-6.413490">
        <ele>877.675</ele>
        <time>2022-02-26T04:24:37Z</time>
      </trkpt>
      <trkpt lat="41.975880" lon="-6.414070">
        <ele>879.319</ele>
        <time>2022-02-26T04:25:17Z</time>
      </trkpt>
      <trkpt lat="41.975870" lon="-6.414150">
        <ele>879.775</ele>
        <time>2022-02-26T04:25:57Z</time>
      </trkpt>
      <trkpt lat="41.975860" lon="-6.414220">
        <ele>880.012</ele>
        <time>2022-02-26T04:26:37Z</time>
      </trkpt>
      <trkpt lat="41.975850" lon="-6.414270">
        <ele>880.363</ele>
        <time>2022-02-26T04:27:17Z</time>
      </trkpt>
      <trkpt lat="41.975860" lon="-6.414320">
        <ele>880.487</ele>
        <time>2022-02-26T04:27:57Z</time>
      </trkpt>
      <trkpt lat="41.975870" lon="-6.414350">
        <ele>880.552</ele>
        <time>2022-02-26T04:28:37Z</time>
      </trkpt>
      <trkpt lat="41.975880" lon="-6.414380">
        <ele>880.666</ele>
        <time>2022-02-26T04:29:17Z</time>
      </trkpt>
      <trkpt lat="41.975920" lon="-6.414440">
        <ele>880.729</ele>
        <time>2022-02-26T04:29:57Z</time>
      </trkpt>
      <trkpt lat="41.975960" lon="-6.414490">
        <ele>880.921</ele>
        <time>2022-02-26T04:30:37Z</time>
      </trkpt>
      <trkpt lat="41.976000" lon="-6.414520">
        <ele>880.908</ele>
        <time>2022-02-26T04:31:17Z</time>
      </trkpt>
      <trkpt lat="41.976030" lon="-6.414560">
        <ele>881.165</ele>
        <time>2022-02-26T04:31:57Z</time>
      </trkpt>
      <trkpt lat="41.976090" lon="-6.414610">
        <ele>881.372</ele>
        <time>2022-02-26T04:32:37Z</time>
      </trkpt>
      <trkpt lat="41.976150" lon="-6.414660">
        <ele>881.676</ele>
        <time>2022-02-26T04:33:17Z</time>
      </trkpt>
      <trkpt lat="41.976150" lon="-6.414670">
        <ele>881.632</ele>
        <time>2022-02-26T04:33:57Z</time>
      </trkpt>
      <trkpt lat="41.976230" lon="-6.414730">
        <ele>882.159</ele>
        <time>2022-02-26T04:34:37Z</time>
      </trkpt>
      <trkpt lat="41.976270" lon="-6.414780">
        <ele>882.440</ele>
        <time>2022-02-26T04:35:17Z</time>
      </trkpt>
      <trkpt lat="41.976290" lon="-6.414810">
        <ele>882.654</ele>
        <time>2022-02-26T04:35:57Z</time>
      </trkpt>
      <trkpt lat="41.976300" lon="-6.414830">
        <ele>882.819</ele>
        <time>2022-02-26T04:36:37Z</time>
      </trkpt>
      <trkpt lat="41.976310" lon="-6.414860">
        <ele>883.035</ele>
        <time>2022-02-26T04:37:17Z</time>
      </trkpt>
      <trkpt lat="41.976330" lon="-6.414880">
        <ele>883.186</ele>
        <time>2022-02-26T04:37:57Z</time>
      </trkpt>
      <trkpt lat="41.976380" lon="-6.414980">
        <ele>883.914</ele>
        <time>2022-02-26T04:38:37Z</time>
      </trkpt>
      <trkpt lat="41.976410" lon="-6.415060">
        <ele>884.208</ele>
        <time>2022-02-26T04:39:17Z</time>
      </trkpt>
      <trkpt lat="41.976430" lon="-6.415100">
        <ele>884.362</ele>
        <time>2022-02-26T04:39:57Z</time>
      </trkpt>
      <trkpt lat="41.976500" lon="-6.415270">
        <ele>885.059</ele>
        <time>2022-02-26T04:40:37Z</time>
      </trkpt>
      <trkpt lat="41.976510" lon="-6.415290">
        <ele>885.053</ele>
        <time>2022-02-26T04:41:17Z</time>
      </trkpt>
      <trkpt lat="41.976560" lon="-6.415480">
        <ele>885.739</ele>
        <time>2022-02-26T04:41:57Z</time>
      </trkpt>
      <trkpt lat="41.976610" lon="-6.415580">
        <ele>886.116</ele>
        <time>2022-02-26T04:42:37Z</time>
      </trkpt>
      <trkpt lat="41.976670" lon="-6.415680">
        <ele>886.447</ele>
        <time>2022-02-26T04:43:17Z</time>
      </trkpt>
      <trkpt lat="41.976720" lon="-6.415740">
        <ele>886.531</ele>
        <time>2022-02-26T04:43:57Z</time>
      </trkpt>
      <trkpt lat="41.976810" lon="-6.415820">
        <ele>886.416</ele>
        <time>2022-02-26T04:44:37Z</time>
      </trkpt>
      <trkpt lat="41.976920" lon="-6.415950">
        <ele>886.563</ele>
        <time>2022-02-26T04:45:17Z</time>
      </trkpt>
      <trkpt lat="41.976960" lon="-6.415990">
        <ele>886.444</ele>
        <time>2022-02-26T04:45:57Z</time>
      </trkpt>
      <trkpt lat="41.977130" lon="-6.416250">
        <ele>885.718</ele>
        <time>2022-02-26T04:46:37Z</time>
      </trkpt>
      <trkpt lat="41.977200" lon="-6.416360">
        <ele>885.208</ele>
        <time>2022-02-26T04:47:17Z</time>
      </trkpt>
      <trkpt lat="41.977230" lon="-6.416410">
        <ele>885.225</ele>
        <time>2022-02-26T04:47:57Z</time>
      </trkpt>
      <trkpt lat="41.977320" lon="-6.416530">
        <ele>885.662</ele>
        <time>2022-02-26T04:48:37Z</time>
      </trkpt>
      <trkpt lat="41.977380" lon="-6.416600">
        <ele>885.796</ele>
        <time>2022-02-26T04:49:17Z</time>
      </trkpt>
      <trkpt lat="41.977510" lon="-6.416700">
        <ele>885.232</ele>
        <time>2022-02-26T04:49:57Z</time>
      </trkpt>
      <trkpt lat="41.977600" lon="-6.416770">
        <ele>885.779</ele>
        <time>2022-02-26T04:50:37Z</time>
      </trkpt>
      <trkpt lat="41.977740" lon="-6.416890">
        <ele>886.650</ele>
        <time>2022-02-26T04:51:17Z</time>
      </trkpt>
      <trkpt lat="41.977750" lon="-6.416900">
        <ele>886.794</ele>
        <time>2022-02-26T04:51:57Z</time>
      </trkpt>
      <trkpt lat="41.977770" lon="-6.416930">
        <ele>886.989</ele>
        <time>2022-02-26T04:52:37Z</time>
      </trkpt>
      <trkpt lat="41.977840" lon="-6.417000">
        <ele>887.437</ele>
        <time>2022-02-26T04:53:17Z</time>
      </trkpt>
      <trkpt lat="41.977950" lon="-6.417130">
        <ele>888.349</ele>
        <time>2022-02-26T04:53:57Z</time>
      </trkpt>
      <trkpt lat="41.978000" lon="-6.417200">
        <ele>888.813</ele>
        <time>2022-02-26T04:54:37Z</time>
      </trkpt>
      <trkpt lat="41.978020" lon="-6.417230">
        <ele>889.008</ele>
        <time>2022-02-26T04:55:17Z</time>
      </trkpt>
      <trkpt lat="41.978080" lon="-6.417300">
        <ele>889.162</ele>
        <time>2022-02-26T04:55:57Z</time>
      </trkpt>
      <trkpt lat="41.978090" lon="-6.417320">
        <ele>889.119</ele>
        <time>2022-02-26T04:56:37Z</time>
      </trkpt>
      <trkpt lat="41.978180" lon="-6.417440">
        <ele>888.933</ele>
        <time>2022-02-26T04:57:17Z</time>
      </trkpt>
      <trkpt lat="41.978280" lon="-6.417630">
        <ele>888.579</ele>
        <time>2022-02-26T04:57:57Z</time>
      </trkpt>
      <trkpt lat="41.978310" lon="-6.417700">
        <ele>888.226</ele>
        <time>2022-02-26T04:58:37Z</time>
      </trkpt>
      <trkpt lat="41.978330" lon="-6.417730">
        <ele>888.077</ele>
        <time>2022-02-26T04:59:17Z</time>
      </trkpt>
      <trkpt lat="41.978350" lon="-6.417780">
        <ele>887.921</ele>
        <time>2022-02-26T04:59:57Z</time>
      </trkpt>
      <trkpt lat="41.978470" lon="-6.418060">
        <ele>887.586</ele>
        <time>2022-02-26T05:00:37Z</time>
      </trkpt>
      <trkpt lat="41.978630" lon="-6.418490">
        <ele>888.632</ele>
        <time>2022-02-26T05:01:17Z</time>
      </trkpt>
      <trkpt lat="41.978780" lon="-6.418860">
        <ele>890.492</ele>
        <time>2022-02-26T05:01:57Z</time>
      </trkpt>
      <trkpt lat="41.978840" lon="-6.419010">
        <ele>890.511</ele>
        <time>2022-02-26T05:02:37Z</time>
      </trkpt>
      <trkpt lat="41.979250" lon="-6.420060">
        <ele>891.408</ele>
        <time>2022-02-26T05:03:17Z</time>
      </trkpt>
      <trkpt lat="41.979350" lon="-6.420290">
        <ele>891.832</ele>
        <time>2022-02-26T05:03:57Z</time>
      </trkpt>
      <trkpt lat="41.979440" lon="-6.420500">
        <ele>892.669</ele>
        <time>2022-02-26T05:04:37Z</time>
      </trkpt>
      <trkpt lat="41.979550" lon="-6.420700">
        <ele>892.783</ele>
        <time>2022-02-26T05:05:17Z</time>
      </trkpt>
      <trkpt lat="41.979590" lon="-6.420770">
        <ele>892.679</ele>
        <time>2022-02-26T05:05:57Z</time>
      </trkpt>
      <trkpt lat="41.979640" lon="-6.420830">
        <ele>892.236</ele>
        <time>2022-02-26T05:06:37Z</time>
      </trkpt>
      <trkpt lat="41.979750" lon="-6.420970">
        <ele>890.767</ele>
        <time>2022-02-26T05:07:17Z</time>
      </trkpt>
      <trkpt lat="41.979840" lon="-6.421070">
        <ele>889.721</ele>
        <time>2022-02-26T05:07:57Z</time>
      </trkpt>
      <trkpt lat="41.979970" lon="-6.421190">
        <ele>888.096</ele>
        <time>2022-02-26T05:08:37Z</time>
      </trkpt>
      <trkpt lat="41.981610" lon="-6.422410">
        <ele>885.557</ele>
        <time>2022-02-26T05:09:17Z</time>
      </trkpt>
      <trkpt lat="41.982120" lon="-6.422790">
        <ele>884.200</ele>
        <time>2022-02-26T05:09:57Z</time>
      </trkpt>
      <trkpt lat="41.982240" lon="-6.422890">
        <ele>883.720</ele>
        <time>2022-02-26T05:10:37Z</time>
      </trkpt>
      <trkpt lat="41.982390" lon="-6.423020">
        <ele>883.508</ele>
        <time>2022-02-26T05:11:17Z</time>
      </trkpt>
      <trkpt lat="41.982490" lon="-6.423100">
        <ele>883.694</ele>
        <time>2022-02-26T05:11:57Z</time>
      </trkpt>
      <trkpt lat="41.982540" lon="-6.423160">
        <ele>883.871</ele>
        <time>2022-02-26T05:12:37Z</time>
      </trkpt>
      <trkpt lat="41.982570" lon="-6.423200">
        <ele>883.985</ele>
        <time>2022-02-26T05:13:17Z</time>
      </trkpt>
      <trkpt lat="41.982650" lon="-6.423310">
        <ele>884.251</ele>
        <time>2022-02-26T05:13:57Z</time>
      </trkpt>
      <trkpt lat="41.982660" lon="-6.423330">
        <ele>884.238</ele>
        <time>2022-02-26T05:14:37Z</time>
      </trkpt>
      <trkpt lat="41.982710" lon="-6.423420">
        <ele>884.729</ele>
        <time>2022-02-26T05:15:17Z</time>
      </trkpt>
      <trkpt lat="41.982760" lon="-6.423490">
        <ele>884.973</ele>
        <time>2022-02-26T05:15:57Z</time>
      </trkpt>
      <trkpt lat="41.982770" lon="-6.423530">
        <ele>885.228</ele>
        <time>2022-02-26T05:16:37Z</time>
      </trkpt>
      <trkpt lat="41.982800" lon="-6.423600">
        <ele>885.498</ele>
        <time>2022-02-26T05:17:17Z</time>
      </trkpt>
      <trkpt lat="41.982860" lon="-6.423740">
        <ele>884.615</ele>
        <time>2022-02-26T05:17:57Z</time>
      </trkpt>
      <trkpt lat="41.982860" lon="-6.423760">
        <ele>884.626</ele>
        <time>2022-02-26T05:18:37Z</time>
      </trkpt>
      <trkpt lat="41.982920" lon="-6.423960">
        <ele>883.408</ele>
        <time>2022-02-26T05:19:17Z</time>
      </trkpt>
      <trkpt lat="41.983060" lon="-6.424460">
        <ele>882.028</ele>
        <time>2022-02-26T05:19:57Z</time>
      </trkpt>
      <trkpt lat="41.983150" lon="-6.424790">
        <ele>882.015</ele>
        <time>2022-02-26T05:20:37Z</time>
      </trkpt>
      <trkpt lat="41.983200" lon="-6.424930">
        <ele>881.339</ele>
        <time>2022-02-26T05:21:17Z</time>
      </trkpt>
      <trkpt lat="41.983230" lon="-6.425010">
        <ele>880.945</ele>
        <time>2022-02-26T05:21:57Z</time>
      </trkpt>
      <trkpt lat="41.983290" lon="-6.425110">
        <ele>880.452</ele>
        <time>2022-02-26T05:22:37Z</time>
      </trkpt>
      <trkpt lat="41.983290" lon="-6.425120">
        <ele>880.523</ele>
        <time>2022-02-26T05:23:17Z</time>
      </trkpt>
      <trkpt lat="41.983410" lon="-6.425290">
        <ele>879.747</ele>
        <time>2022-02-26T05:23:57Z</time>
      </trkpt>
      <trkpt lat="41.983500" lon="-6.425440">
        <ele>879.552</ele>
        <time>2022-02-26T05:24:37Z</time>
      </trkpt>
      <trkpt lat="41.983830" lon="-6.425910">
        <ele>873.895</ele>
        <time>2022-02-26T05:25:17Z</time>
      </trkpt>
      <trkpt lat="41.983890" lon="-6.426010">
        <ele>872.049</ele>
        <time>2022-02-26T05:25:57Z</time>
      </trkpt>
      <trkpt lat="41.983930" lon="-6.426090">
        <ele>871.523</ele>
        <time>2022-02-26T05:26:37Z</time>
      </trkpt>
      <trkpt lat="41.983990" lon="-6.426210">
        <ele>870.708</ele>
        <time>2022-02-26T05:27:17Z</time>
      </trkpt>
      <trkpt lat="41.984000" lon="-6.426230">
        <ele>870.598</ele>
        <time>2022-02-26T05:27:57Z</time>
      </trkpt>
      <trkpt lat="41.984050" lon="-6.426350">
        <ele>869.985</ele>
        <time>2022-02-26T05:28:37Z</time>
      </trkpt>
      <trkpt lat="41.984080" lon="-6.426420">
        <ele>869.529</ele>
        <time>2022-02-26T05:29:17Z</time>
      </trkpt>
      <trkpt lat="41.984090" lon="-6.426450">
        <ele>869.335</ele>
        <time>2022-02-26T05:29:57Z</time>
      </trkpt>
      <trkpt lat="41.984130" lon="-6.426620">
        <ele>868.492</ele>
        <time>2022-02-26T05:30:37Z</time>
      </trkpt>
      <trkpt lat="41.984140" lon="-6.426650">
        <ele>868.353</ele>
        <time>2022-02-26T05:31:17Z</time>
      </trkpt>
      <trkpt lat="41.984190" lon="-6.426880">
        <ele>868.157</ele>
        <time>2022-02-26T05:31:57Z</time>
      </trkpt>
      <trkpt lat="41.984200" lon="-6.426950">
        <ele>868.212</ele>
        <time>2022-02-26T05:32:37Z</time>
      </trkpt>
      <trkpt lat="41.984240" lon="-6.427110">
        <ele>868.727</ele>
        <time>2022-02-26T05:33:17Z</time>
      </trkpt>
      <trkpt lat="41.984300" lon="-6.427330">
        <ele>869.668</ele>
        <time>2022-02-26T05:33:57Z</time>
      </trkpt>
      <trkpt lat="41.984370" lon="-6.427560">
        <ele>870.614</ele>
        <time>2022-02-26T05:34:37Z</time>
      </trkpt>
      <trkpt lat="41.984420" lon="-6.427710">
        <ele>871.008</ele>
        <time>2022-02-26T05:35:17Z</time>
      </trkpt>
      <trkpt lat="41.984670" lon="-6.428380">
        <ele>873.741</ele>
        <time>2022-02-26T05:35:57Z</time>
      </trkpt>
      <trkpt lat="41.984690" lon="-6.428430">
        <ele>873.898</ele>
        <time>2022-02-26T05:36:37Z</time>
      </trkpt>
      <trkpt lat="41.984780" lon="-6.428640">
        <ele>874.992</ele>
        <time>2022-02-26T05:37:17Z</time>
      </trkpt>
      <trkpt lat="41.985040" lon="-6.429280">
        <ele>877.338</ele>
        <time>2022-02-26T05:37:57Z</time>
      </trkpt>
      <trkpt lat="41.985220" lon="-6.429740">
        <ele>879.515</ele>
        <time>2022-02-26T05:38:37Z</time>
      </trkpt>
      <trkpt lat="41.985380" lon="-6.430130">
        <ele>879.416</ele>
        <time>2022-02-26T05:39:17Z</time>
      </trkpt>
      <trkpt lat="41.985420" lon="-6.430250">
        <ele>879.590</ele>
        <time>2022-02-26T05:39:57Z</time>
      </trkpt>
      <trkpt lat="41.985460" lon="-6.430350">
        <ele>879.755</ele>
        <time>2022-02-26T05:40:37Z</time>
      </trkpt>
      <trkpt lat="41.985640" lon="-6.430770">
        <ele>880.996</ele>
        <time>2022-02-26T05:41:17Z</time>
      </trkpt>
      <trkpt lat="41.985720" lon="-6.430980">
        <ele>881.531</ele>
        <time>2022-02-26T05:41:57Z</time>
      </trkpt>
      <trkpt lat="41.985730" lon="-6.430990">
        <ele>881.624</ele>
        <time>2022-02-26T05:42:37Z</time>
      </trkpt>
      <trkpt lat="41.985810" lon="-6.431190">
        <ele>882.608</ele>
        <time>2022-02-26T05:43:17Z</time>
      </trkpt>
      <trkpt lat="41.985850" lon="-6.431280">
        <ele>883.368</ele>
        <time>2022-02-26T05:43:57Z</time>
      </trkpt>
      <trkpt lat="41.985910" lon="-6.431390">
        <ele>884.375</ele>
        <time>2022-02-26T05:44:37Z</time>
      </trkpt>
      <trkpt lat="41.985960" lon="-6.431480">
        <ele>885.349</ele>
        <time>2022-02-26T05:45:17Z</time>
      </trkpt>
      <trkpt lat="41.986020" lon="-6.431580">
        <ele>886.325</ele>
        <time>2022-02-26T05:45:57Z</time>
      </trkpt>
      <trkpt lat="41.986090" lon="-6.431680">
        <ele>887.032</ele>
        <time>2022-02-26T05:46:37Z</time>
      </trkpt>
      <trkpt lat="41.986300" lon="-6.431990">
        <ele>889.153</ele>
        <time>2022-02-26T05:47:17Z</time>
      </trkpt>
      <trkpt lat="41.986630" lon="-6.432470">
        <ele>891.787</ele>
        <time>2022-02-26T05:47:57Z</time>
      </trkpt>
      <trkpt lat="41.986750" lon="-6.432650">
        <ele>892.152</ele>
        <time>2022-02-26T05:48:37Z</time>
      </trkpt>
      <trkpt lat="41.986760" lon="-6.432670">
        <ele>892.167</ele>
        <time>2022-02-26T05:49:17Z</time>
      </trkpt>
      <trkpt lat="41.986880" lon="-6.432820">
        <ele>892.581</ele>
        <time>2022-02-26T05:49:57Z</time>
      </trkpt>
      <trkpt lat="41.986950" lon="-6.432910">
        <ele>893.119</ele>
        <time>2022-02-26T05:50:37Z</time>
      </trkpt>
      <trkpt lat="41.987070" lon="-6.433090">
        <ele>894.208</ele>
        <time>2022-02-26T05:51:17Z</time>
      </trkpt>
      <trkpt lat="41.987180" lon="-6.433260">
        <ele>894.865</ele>
        <time>2022-02-26T05:51:57Z</time>
      </trkpt>
      <trkpt lat="41.987220" lon="-6.433310">
        <ele>895.122</ele>
        <time>2022-02-26T05:52:37Z</time>
      </trkpt>
      <trkpt lat="41.987320" lon="-6.433430">
        <ele>895.926</ele>
        <time>2022-02-26T05:53:17Z</time>
      </trkpt>
      <trkpt lat="41.987380" lon="-6.433500">
        <ele>896.442</ele>
        <time>2022-02-26T05:53:57Z</time>
      </trkpt>
      <trkpt lat="41.987530" lon="-6.433670">
        <ele>897.029</ele>
        <time>2022-02-26T05:54:37Z</time>
      </trkpt>
      <trkpt lat="41.987700" lon="-6.433820">
        <ele>897.130</ele>
        <time>2022-02-26T05:55:17Z</time>
      </trkpt>
      <trkpt lat="41.987860" lon="-6.433920">
        <ele>897.584</ele>
        <time>2022-02-26T05:55:57Z</time>
      </trkpt>
      <trkpt lat="41.987910" lon="-6.433950">
        <ele>897.739</ele>
        <time>2022-02-26T05:56:37Z</time>
      </trkpt>
      <trkpt lat="41.988040" lon="-6.434020">
        <ele>898.434</ele>
        <time>2022-02-26T05:57:17Z</time>
      </trkpt>
      <trkpt lat="41.988440" lon="-6.434190">
        <ele>901.355</ele>
        <time>2022-02-26T05:57:57Z</time>
      </trkpt>
      <trkpt lat="41.988500" lon="-6.434220">
        <ele>901.410</ele>
        <time>2022-02-26T05:58:37Z</time>
      </trkpt>
      <trkpt lat="41.988690" lon="-6.434300">
        <ele>901.508</ele>
        <time>2022-02-26T05:59:17Z</time>
      </trkpt>
      <trkpt lat="41.988840" lon="-6.434390">
        <ele>901.232</ele>
        <time>2022-02-26T05:59:57Z</time>
      </trkpt>
      <trkpt lat="41.988870" lon="-6.434410">
        <ele>901.149</ele>
        <time>2022-02-26T06:00:37Z</time>
      </trkpt>
      <trkpt lat="41.989000" lon="-6.434520">
        <ele>901.483</ele>
        <time>2022-02-26T06:01:17Z</time>
      </trkpt>
      <trkpt lat="41.989100" lon="-6.434620">
        <ele>901.889</ele>
        <time>2022-02-26T06:01:57Z</time>
      </trkpt>
      <trkpt lat="41.989130" lon="-6.434660">
        <ele>901.966</ele>
        <time>2022-02-26T06:02:37Z</time>
      </trkpt>
      <trkpt lat="41.989170" lon="-6.434710">
        <ele>902.017</ele>
        <time>2022-02-26T06:03:17Z</time>
      </trkpt>
      <trkpt lat="41.989630" lon="-6.435370">
        <ele>902.741</ele>
        <time>2022-02-26T06:03:57Z</time>
      </trkpt>
      <trkpt lat="41.989720" lon="-6.435500">
        <ele>903.056</ele>
        <time>2022-02-26T06:04:37Z</time>
      </trkpt>
      <trkpt lat="41.990030" lon="-6.435920">
        <ele>901.541</ele>
        <time>2022-02-26T06:05:17Z</time>
      </trkpt>
      <trkpt lat="41.990210" lon="-6.436200">
        <ele>899.981</ele>
        <time>2022-02-26T06:05:57Z</time>
      </trkpt>
      <trkpt lat="41.990250" lon="-6.436280">
        <ele>899.509</ele>
        <time>2022-02-26T06:06:37Z</time>
      </trkpt>
      <trkpt lat="41.990400" lon="-6.436530">
        <ele>897.808</ele>
        <time>2022-02-26T06:07:17Z</time>
      </trkpt>
      <trkpt lat="41.990530" lon="-6.436750">
        <ele>897.053</ele>
        <time>2022-02-26T06:07:57Z</time>
      </trkpt>
      <trkpt lat="41.990590" lon="-6.436860">
        <ele>897.060</ele>
        <time>2022-02-26T06:08:37Z</time>
      </trkpt>
      <trkpt lat="41.990750" lon="-6.437100">
        <ele>896.854</ele>
        <time>2022-02-26T06:09:17Z</time>
      </trkpt>
      <trkpt lat="41.990940" lon="-6.437450">
        <ele>895.420</ele>
        <time>2022-02-26T06:09:57Z</time>
      </trkpt>
      <trkpt lat="41.990980" lon="-6.437500">
        <ele>895.077</ele>
        <time>2022-02-26T06:10:37Z</time>
      </trkpt>
      <trkpt lat="41.991040" lon="-6.437620">
        <ele>894.268</ele>
        <time>2022-02-26T06:11:17Z</time>
      </trkpt>
      <trkpt lat="41.991150" lon="-6.437850">
        <ele>893.082</ele>
        <time>2022-02-26T06:11:57Z</time>
      </trkpt>
      <trkpt lat="41.991170" lon="-6.437900">
        <ele>892.957</ele>
        <time>2022-02-26T06:12:37Z</time>
      </trkpt>
      <trkpt lat="41.991190" lon="-6.437960">
        <ele>892.838</ele>
        <time>2022-02-26T06:13:17Z</time>
      </trkpt>
      <trkpt lat="41.991200" lon="-6.438050">
        <ele>892.770</ele>
        <time>2022-02-26T06:13:57Z</time>
      </trkpt>
      <trkpt lat="41.991200" lon="-6.438080">
        <ele>892.617</ele>
        <time>2022-02-26T06:14:37Z</time>
      </trkpt>
      <trkpt lat="41.991200" lon="-6.438160">
        <ele>892.408</ele>
        <time>2022-02-26T06:15:17Z</time>
      </trkpt>
      <trkpt lat="41.991210" lon="-6.438260">
        <ele>892.232</ele>
        <time>2022-02-26T06:15:57Z</time>
      </trkpt>
      <trkpt lat="41.991210" lon="-6.438320">
        <ele>892.039</ele>
        <time>2022-02-26T06:16:37Z</time>
      </trkpt>
      <trkpt lat="41.991220" lon="-6.438350">
        <ele>891.963</ele>
        <time>2022-02-26T06:17:17Z</time>
      </trkpt>
      <trkpt lat="41.991230" lon="-6.438430">
        <ele>891.599</ele>
        <time>2022-02-26T06:17:57Z</time>
      </trkpt>
      <trkpt lat="41.991410" lon="-6.438960">
        <ele>888.526</ele>
        <time>2022-02-26T06:18:37Z</time>
      </trkpt>
      <trkpt lat="41.991460" lon="-6.439110">
        <ele>887.467</ele>
        <time>2022-02-26T06:19:17Z</time>
      </trkpt>
      <trkpt lat="41.991500" lon="-6.439190">
        <ele>887.041</ele>
        <time>2022-02-26T06:19:57Z</time>
      </trkpt>
      <trkpt lat="41.991460" lon="-6.439250">
        <ele>886.816</ele>
        <time>2022-02-26T06:20:37Z</time>
      </trkpt>
      <trkpt lat="41.991450" lon="-6.439270">
        <ele>886.719</ele>
        <time>2022-02-26T06:21:17Z</time>
      </trkpt>
      <trkpt lat="41.991430" lon="-6.439310">
        <ele>886.609</ele>
        <time>2022-02-26T06:21:57Z</time>
      </trkpt>
      <trkpt lat="41.991390" lon="-6.439430">
        <ele>886.119</ele>
        <time>2022-02-26T06:22:37Z</time>
      </trkpt>
      <trkpt lat="41.991320" lon="-6.439590">
        <ele>885.908</ele>
        <time>2022-02-26T06:23:17Z</time>
      </trkpt>
      <trkpt lat="41.991290" lon="-6.439650">
        <ele>885.790</ele>
        <time>2022-02-26T06:23:57Z</time>
      </trkpt>
      <trkpt lat="41.991200" lon="-6.439830">
        <ele>885.387</ele>
        <time>2022-02-26T06:24:37Z</time>
      </trkpt>
      <trkpt lat="41.991160" lon="-6.439930">
        <ele>885.261</ele>
        <time>2022-02-26T06:25:17Z</time>
      </trkpt>
      <trkpt lat="41.991140" lon="-6.440010">
        <ele>885.157</ele>
        <time>2022-02-26T06:25:57Z</time>
      </trkpt>
      <trkpt lat="41.991130" lon="-6.440060">
        <ele>885.154</ele>
        <time>2022-02-26T06:26:37Z</time>
      </trkpt>
      <trkpt lat="41.991120" lon="-6.440100">
        <ele>885.015</ele>
        <time>2022-02-26T06:27:17Z</time>
      </trkpt>
      <trkpt lat="41.991120" lon="-6.440320">
        <ele>885.279</ele>
        <time>2022-02-26T06:27:57Z</time>
      </trkpt>
      <trkpt lat="41.991130" lon="-6.440540">
        <ele>885.944</ele>
        <time>2022-02-26T06:28:37Z</time>
      </trkpt>
      <trkpt lat="41.991130" lon="-6.440660">
        <ele>886.751</ele>
        <time>2022-02-26T06:29:17Z</time>
      </trkpt>
      <trkpt lat="41.991130" lon="-6.440720">
        <ele>887.101</ele>
        <time>2022-02-26T06:29:57Z</time>
      </trkpt>
      <trkpt lat="41.991140" lon="-6.440760">
        <ele>887.311</ele>
        <time>2022-02-26T06:30:37Z</time>
      </trkpt>
      <trkpt lat="41.991150" lon="-6.440800">
        <ele>887.508</ele>
        <time>2022-02-26T06:31:17Z</time>
      </trkpt>
      <trkpt lat="41.991150" lon="-6.440830">
        <ele>887.724</ele>
        <time>2022-02-26T06:31:57Z</time>
      </trkpt>
      <trkpt lat="41.991220" lon="-6.440910">
        <ele>887.821</ele>
        <time>2022-02-26T06:32:37Z</time>
      </trkpt>
      <trkpt lat="41.991300" lon="-6.440980">
        <ele>887.775</ele>
        <time>2022-02-26T06:33:17Z</time>
      </trkpt>
      <trkpt lat="41.991410" lon="-6.441090">
        <ele>887.871</ele>
        <time>2022-02-26T06:33:57Z</time>
      </trkpt>
      <trkpt lat="41.991450" lon="-6.441160">
        <ele>888.088</ele>
        <time>2022-02-26T06:34:37Z</time>
      </trkpt>
      <trkpt lat="41.991470" lon="-6.441180">
        <ele>888.079</ele>
        <time>2022-02-26T06:35:17Z</time>
      </trkpt>
      <trkpt lat="41.991520" lon="-6.441270">
        <ele>888.183</ele>
        <time>2022-02-26T06:35:57Z</time>
      </trkpt>
      <trkpt lat="41.991660" lon="-6.441440">
        <ele>887.818</ele>
        <time>2022-02-26T06:36:37Z</time>
      </trkpt>
      <trkpt lat="41.991740" lon="-6.441570">
        <ele>887.128</ele>
        <time>2022-02-26T06:37:17Z</time>
      </trkpt>
      <trkpt lat="41.991770" lon="-6.441630">
        <ele>886.889</ele>
        <time>2022-02-26T06:37:57Z</time>
      </trkpt>
      <trkpt lat="41.991880" lon="-6.441820">
        <ele>885.817</ele>
        <time>2022-02-26T06:38:37Z</time>
      </trkpt>
      <trkpt lat="41.991890" lon="-6.441830">
        <ele>885.708</ele>
        <time>2022-02-26T06:39:17Z</time>
      </trkpt>
      <trkpt lat="41.991930" lon="-6.441900">
        <ele>885.371</ele>
        <time>2022-02-26T06:39:57Z</time>
      </trkpt>
      <trkpt lat="41.991970" lon="-6.441970">
        <ele>884.888</ele>
        <time>2022-02-26T06:40:37Z</time>
      </trkpt>
      <trkpt lat="41.992010" lon="-6.442060">
        <ele>884.342</ele>
        <time>2022-02-26T06:41:17Z</time>
      </trkpt>
      <trkpt lat="41.991990" lon="-6.442120">
        <ele>884.578</ele>
        <time>2022-02-26T06:41:57Z</time>
      </trkpt>
      <trkpt lat="41.991970" lon="-6.442150">
        <ele>884.715</ele>
        <time>2022-02-26T06:42:37Z</time>
      </trkpt>
      <trkpt lat="41.991920" lon="-6.442300">
        <ele>884.626</ele>
        <time>2022-02-26T06:43:17Z</time>
      </trkpt>
      <trkpt lat="41.991880" lon="-6.442510">
        <ele>883.310</ele>
        <time>2022-02-26T06:43:57Z</time>
      </trkpt>
      <trkpt lat="41.991830" lon="-6.442740">
        <ele>880.795</ele>
        <time>2022-02-26T06:44:37Z</time>
      </trkpt>
      <trkpt lat="41.991770" lon="-6.443040">
        <ele>879.679</ele>
        <time>2022-02-26T06:45:17Z</time>
      </trkpt>
      <trkpt lat="41.991760" lon="-6.443120">
        <ele>879.505</ele>
        <time>2022-02-26T06:45:57Z</time>
      </trkpt>
      <trkpt lat="41.991760" lon="-6.443210">
        <ele>879.325</ele>
        <time>2022-02-26T06:46:37Z</time>
      </trkpt>
      <trkpt lat="41.991760" lon="-6.443330">
        <ele>879.008</ele>
        <time>2022-02-26T06:47:17Z</time>
      </trkpt>
      <trkpt lat="41.991780" lon="-6.443510">
        <ele>879.466</ele>
        <time>2022-02-26T06:47:57Z</time>
      </trkpt>
      <trkpt lat="41.991780" lon="-6.443520">
        <ele>879.493</ele>
        <time>2022-02-26T06:48:37Z</time>
      </trkpt>
      <trkpt lat="41.991840" lon="-6.443820">
        <ele>879.787</ele>
        <time>2022-02-26T06:49:17Z</time>
      </trkpt>
      <trkpt lat="41.991930" lon="-6.444220">
        <ele>880.453</ele>
        <time>2022-02-26T06:49:57Z</time>
      </trkpt>
      <trkpt lat="41.991940" lon="-6.444280">
        <ele>880.510</ele>
        <time>2022-02-26T06:50:37Z</time>
      </trkpt>
      <trkpt lat="41.991970" lon="-6.444500">
        <ele>881.151</ele>
        <time>2022-02-26T06:51:17Z</time>
      </trkpt>
      <trkpt lat="41.991970" lon="-6.444570">
        <ele>881.435</ele>
        <time>2022-02-26T06:51:57Z</time>
      </trkpt>
      <trkpt lat="41.991970" lon="-6.444670">
        <ele>881.890</ele>
        <time>2022-02-26T06:52:37Z</time>
      </trkpt>
      <trkpt lat="41.991960" lon="-6.444910">
        <ele>881.487</ele>
        <time>2022-02-26T06:53:17Z</time>
      </trkpt>
      <trkpt lat="41.991950" lon="-6.445000">
        <ele>881.142</ele>
        <time>2022-02-26T06:53:57Z</time>
      </trkpt>
      <trkpt lat="41.991940" lon="-6.445110">
        <ele>881.526</ele>
        <time>2022-02-26T06:54:37Z</time>
      </trkpt>
      <trkpt lat="41.991880" lon="-6.445420">
        <ele>884.308</ele>
        <time>2022-02-26T06:55:17Z</time>
      </trkpt>
      <trkpt lat="41.991840" lon="-6.445610">
        <ele>885.897</ele>
        <time>2022-02-26T06:55:57Z</time>
      </trkpt>
      <trkpt lat="41.991760" lon="-6.445860">
        <ele>886.034</ele>
        <time>2022-02-26T06:56:37Z</time>
      </trkpt>
      <trkpt lat="41.991740" lon="-6.445920">
        <ele>886.018</ele>
        <time>2022-02-26T06:57:17Z</time>
      </trkpt>
      <trkpt lat="41.991660" lon="-6.446140">
        <ele>885.944</ele>
        <time>2022-02-26T06:57:57Z</time>
      </trkpt>
      <trkpt lat="41.991570" lon="-6.446380">
        <ele>885.161</ele>
        <time>2022-02-26T06:58:37Z</time>
      </trkpt>
      <trkpt lat="41.991430" lon="-6.446800">
        <ele>885.832</ele>
        <time>2022-02-26T06:59:17Z</time>
      </trkpt>
      <trkpt lat="41.991410" lon="-6.446880">
        <ele>885.926</ele>
        <time>2022-02-26T06:59:57Z</time>
      </trkpt>
      <trkpt lat="41.991360" lon="-6.447160">
        <ele>886.971</ele>
        <time>2022-02-26T07:00:37Z</time>
      </trkpt>
      <trkpt lat="41.991290" lon="-6.447490">
        <ele>888.967</ele>
        <time>2022-02-26T07:01:17Z</time>
      </trkpt>
      <trkpt lat="41.991280" lon="-6.447690">
        <ele>889.781</ele>
        <time>2022-02-26T07:01:57Z</time>
      </trkpt>
      <trkpt lat="41.991270" lon="-6.447820">
        <ele>890.219</ele>
        <time>2022-02-26T07:02:37Z</time>
      </trkpt>
      <trkpt lat="41.991260" lon="-6.448160">
        <ele>892.008</ele>
        <time>2022-02-26T07:03:17Z</time>
      </trkpt>
      <trkpt lat="41.991280" lon="-6.448410">
        <ele>893.435</ele>
        <time>2022-02-26T07:03:57Z</time>
      </trkpt>
      <trkpt lat="41.991300" lon="-6.448600">
        <ele>894.682</ele>
        <time>2022-02-26T07:04:37Z</time>
      </trkpt>
      <trkpt lat="41.991320" lon="-6.448700">
        <ele>895.266</ele>
        <time>2022-02-26T07:05:17Z</time>
      </trkpt>
      <trkpt lat="41.991330" lon="-6.448800">
        <ele>895.632</ele>
        <time>2022-02-26T07:05:57Z</time>
      </trkpt>
      <trkpt lat="41.991400" lon="-6.449180">
        <ele>898.039</ele>
        <time>2022-02-26T07:06:37Z</time>
      </trkpt>
      <trkpt lat="41.991500" lon="-6.449630">
        <ele>899.330</ele>
        <time>2022-02-26T07:07:17Z</time>
      </trkpt>
      <trkpt lat="41.991660" lon="-6.450390">
        <ele>901.414</ele>
        <time>2022-02-26T07:07:57Z</time>
      </trkpt>
      <trkpt lat="41.991800" lon="-6.451090">
        <ele>903.869</ele>
        <time>2022-02-26T07:08:37Z</time>
      </trkpt>
      <trkpt lat="41.991940" lon="-6.451800">
        <ele>905.658</ele>
        <time>2022-02-26T07:09:17Z</time>
      </trkpt>
      <trkpt lat="41.992020" lon="-6.452260">
        <ele>905.152</ele>
        <time>2022-02-26T07:09:57Z</time>
      </trkpt>
      <trkpt lat="41.992050" lon="-6.452430">
        <ele>905.517</ele>
        <time>2022-02-26T07:10:37Z</time>
      </trkpt>
      <trkpt lat="41.992070" lon="-6.452500">
        <ele>905.508</ele>
        <time>2022-02-26T07:11:17Z</time>
      </trkpt>
      <trkpt lat="41.992190" lon="-6.453240">
        <ele>906.934</ele>
        <time>2022-02-26T07:11:57Z</time>
      </trkpt>
      <trkpt lat="41.992320" lon="-6.454130">
        <ele>906.751</ele>
        <time>2022-02-26T07:12:37Z</time>
      </trkpt>
      <trkpt lat="41.992380" lon="-6.454400">
        <ele>906.125</ele>
        <time>2022-02-26T07:13:17Z</time>
      </trkpt>
      <trkpt lat="41.992380" lon="-6.454420">
        <ele>906.011</ele>
        <time>2022-02-26T07:13:57Z</time>
      </trkpt>
      <trkpt lat="41.992440" lon="-6.454650">
        <ele>906.948</ele>
        <time>2022-02-26T07:14:37Z</time>
      </trkpt>
      <trkpt lat="41.992480" lon="-6.454790">
        <ele>907.529</ele>
        <time>2022-02-26T07:15:17Z</time>
      </trkpt>
      <trkpt lat="41.992600" lon="-6.455100">
        <ele>909.493</ele>
        <time>2022-02-26T07:15:57Z</time>
      </trkpt>
      <trkpt lat="41.992700" lon="-6.455350">
        <ele>910.528</ele>
        <time>2022-02-26T07:16:37Z</time>
      </trkpt>
      <trkpt lat="41.992820" lon="-6.455670">
        <ele>912.311</ele>
        <time>2022-02-26T07:17:17Z</time>
      </trkpt>
      <trkpt lat="41.992960" lon="-6.456050">
        <ele>912.921</ele>
        <time>2022-02-26T07:17:57Z</time>
      </trkpt>
      <trkpt lat="41.993200" lon="-6.456700">
        <ele>913.603</ele>
        <time>2022-02-26T07:18:37Z</time>
      </trkpt>
      <trkpt lat="41.993540" lon="-6.457580">
        <ele>913.708</ele>
        <time>2022-02-26T07:19:17Z</time>
      </trkpt>
      <trkpt lat="41.993670" lon="-6.457920">
        <ele>913.710</ele>
        <time>2022-02-26T07:19:57Z</time>
      </trkpt>
      <trkpt lat="41.993780" lon="-6.458230">
        <ele>913.857</ele>
        <time>2022-02-26T07:20:37Z</time>
      </trkpt>
      <trkpt lat="41.993850" lon="-6.458440">
        <ele>913.661</ele>
        <time>2022-02-26T07:21:17Z</time>
      </trkpt>
      <trkpt lat="41.993860" lon="-6.458450">
        <ele>913.617</ele>
        <time>2022-02-26T07:21:57Z</time>
      </trkpt>
      <trkpt lat="41.993910" lon="-6.458640">
        <ele>913.064</ele>
        <time>2022-02-26T07:22:37Z</time>
      </trkpt>
      <trkpt lat="41.993920" lon="-6.458680">
        <ele>913.045</ele>
        <time>2022-02-26T07:23:17Z</time>
      </trkpt>
      <trkpt lat="41.993930" lon="-6.458740">
        <ele>912.989</ele>
        <time>2022-02-26T07:23:57Z</time>
      </trkpt>
      <trkpt lat="41.993970" lon="-6.458980">
        <ele>912.354</ele>
        <time>2022-02-26T07:24:37Z</time>
      </trkpt>
      <trkpt lat="41.994000" lon="-6.459240">
        <ele>911.062</ele>
        <time>2022-02-26T07:25:17Z</time>
      </trkpt>
      <trkpt lat="41.994040" lon="-6.459700">
        <ele>909.583</ele>
        <time>2022-02-26T07:25:57Z</time>
      </trkpt>
      <trkpt lat="41.994070" lon="-6.459940">
        <ele>908.111</ele>
        <time>2022-02-26T07:26:37Z</time>
      </trkpt>
      <trkpt lat="41.994100" lon="-6.460170">
        <ele>907.508</ele>
        <time>2022-02-26T07:27:17Z</time>
      </trkpt>
      <trkpt lat="41.994100" lon="-6.460190">
        <ele>907.525</ele>
        <time>2022-02-26T07:27:57Z</time>
      </trkpt>
      <trkpt lat="41.994150" lon="-6.460390">
        <ele>907.132</ele>
        <time>2022-02-26T07:28:37Z</time>
      </trkpt>
      <trkpt lat="41.994150" lon="-6.460410">
        <ele>907.186</ele>
        <time>2022-02-26T07:29:17Z</time>
      </trkpt>
      <trkpt lat="41.994200" lon="-6.460570">
        <ele>906.942</ele>
        <time>2022-02-26T07:29:57Z</time>
      </trkpt>
      <trkpt lat="41.994290" lon="-6.460830">
        <ele>907.549</ele>
        <time>2022-02-26T07:30:37Z</time>
      </trkpt>
      <trkpt lat="41.994390" lon="-6.461030">
        <ele>907.940</ele>
        <time>2022-02-26T07:31:17Z</time>
      </trkpt>
      <trkpt lat="41.994500" lon="-6.461220">
        <ele>908.444</ele>
        <time>2022-02-26T07:31:57Z</time>
      </trkpt>
      <trkpt lat="41.994550" lon="-6.461320">
        <ele>908.649</ele>
        <time>2022-02-26T07:32:37Z</time>
      </trkpt>
      <trkpt lat="41.994620" lon="-6.461430">
        <ele>908.542</ele>
        <time>2022-02-26T07:33:17Z</time>
      </trkpt>
      <trkpt lat="41.994630" lon="-6.461450">
        <ele>908.522</ele>
        <time>2022-02-26T07:33:57Z</time>
      </trkpt>
      <trkpt lat="41.994760" lon="-6.461590">
        <ele>908.614</ele>
        <time>2022-02-26T07:34:37Z</time>
      </trkpt>
      <trkpt lat="41.994900" lon="-6.461730">
        <ele>908.708</ele>
        <time>2022-02-26T07:35:17Z</time>
      </trkpt>
      <trkpt lat="41.995080" lon="-6.461900">
        <ele>909.173</ele>
        <time>2022-02-26T07:35:57Z</time>
      </trkpt>
      <trkpt lat="41.995310" lon="-6.462120">
        <ele>909.070</ele>
        <time>2022-02-26T07:36:37Z</time>
      </trkpt>
      <trkpt lat="41.995510" lon="-6.462350">
        <ele>909.364</ele>
        <time>2022-02-26T07:37:17Z</time>
      </trkpt>
      <trkpt lat="41.995600" lon="-6.462490">
        <ele>909.670</ele>
        <time>2022-02-26T07:37:57Z</time>
      </trkpt>
      <trkpt lat="41.995630" lon="-6.462540">
        <ele>909.947</ele>
        <time>2022-02-26T07:38:37Z</time>
      </trkpt>
      <trkpt lat="41.995690" lon="-6.462650">
        <ele>910.498</ele>
        <time>2022-02-26T07:39:17Z</time>
      </trkpt>
      <trkpt lat="41.995730" lon="-6.462740">
        <ele>910.852</ele>
        <time>2022-02-26T07:39:57Z</time>
      </trkpt>
      <trkpt lat="41.995810" lon="-6.462990">
        <ele>911.727</ele>
        <time>2022-02-26T07:40:37Z</time>
      </trkpt>
      <trkpt lat="41.996010" lon="-6.463620">
        <ele>912.164</ele>
        <time>2022-02-26T07:41:17Z</time>
      </trkpt>
      <trkpt lat="41.996070" lon="-6.463850">
        <ele>911.606</ele>
        <time>2022-02-26T07:41:57Z</time>
      </trkpt>
      <trkpt lat="41.996180" lon="-6.464310">
        <ele>910.916</ele>
        <time>2022-02-26T07:42:37Z</time>
      </trkpt>
      <trkpt lat="41.996230" lon="-6.464540">
        <ele>910.608</ele>
        <time>2022-02-26T07:43:17Z</time>
      </trkpt>
      <trkpt lat="41.996290" lon="-6.464780">
        <ele>909.195</ele>
        <time>2022-02-26T07:43:57Z</time>
      </trkpt>
      <trkpt lat="41.996330" lon="-6.464950">
        <ele>907.922</ele>
        <time>2022-02-26T07:44:37Z</time>
      </trkpt>
      <trkpt lat="41.996450" lon="-6.465320">
        <ele>903.496</ele>
        <time>2022-02-26T07:45:17Z</time>
      </trkpt>
      <trkpt lat="41.996540" lon="-6.465720">
        <ele>901.482</ele>
        <time>2022-02-26T07:45:57Z</time>
      </trkpt>
      <trkpt lat="41.996560" lon="-6.465780">
        <ele>901.299</ele>
        <time>2022-02-26T07:46:37Z</time>
      </trkpt>
      <trkpt lat="41.996690" lon="-6.466260">
        <ele>900.670</ele>
        <time>2022-02-26T07:47:17Z</time>
      </trkpt>
      <trkpt lat="41.996710" lon="-6.466340">
        <ele>900.714</ele>
        <time>2022-02-26T07:47:57Z</time>
      </trkpt>
      <trkpt lat="41.996800" lon="-6.466620">
        <ele>901.269</ele>
        <time>2022-02-26T07:48:37Z</time>
      </trkpt>
      <trkpt lat="41.996870" lon="-6.466780">
        <ele>900.384</ele>
        <time>2022-02-26T07:49:17Z</time>
      </trkpt>
      <trkpt lat="41.996930" lon="-6.466930">
        <ele>899.307</ele>
        <time>2022-02-26T07:49:57Z</time>
      </trkpt>
      <trkpt lat="41.997010" lon="-6.467090">
        <ele>899.117</ele>
        <time>2022-02-26T07:50:37Z</time>
      </trkpt>
      <trkpt lat="41.997120" lon="-6.467270">
        <ele>899.108</ele>
        <time>2022-02-26T07:51:17Z</time>
      </trkpt>
      <trkpt lat="41.997240" lon="-6.467450">
        <ele>900.587</ele>
        <time>2022-02-26T07:51:57Z</time>
      </trkpt>
      <trkpt lat="41.997360" lon="-6.467640">
        <ele>901.884</ele>
        <time>2022-02-26T07:52:37Z</time>
      </trkpt>
      <trkpt lat="41.997480" lon="-6.467820">
        <ele>902.298</ele>
        <time>2022-02-26T07:53:17Z</time>
      </trkpt>
      <trkpt lat="41.997590" lon="-6.468000">
        <ele>902.544</ele>
        <time>2022-02-26T07:53:57Z</time>
      </trkpt>
      <trkpt lat="41.997710" lon="-6.468190">
        <ele>902.631</ele>
        <time>2022-02-26T07:54:37Z</time>
      </trkpt>
      <trkpt lat="41.997830" lon="-6.468370">
        <ele>903.632</ele>
        <time>2022-02-26T07:55:17Z</time>
      </trkpt>
      <trkpt lat="41.997950" lon="-6.468550">
        <ele>904.846</ele>
        <time>2022-02-26T07:55:57Z</time>
      </trkpt>
      <trkpt lat="41.998410" lon="-6.469290">
        <ele>906.921</ele>
        <time>2022-02-26T07:56:37Z</time>
      </trkpt>
      <trkpt lat="41.998750" lon="-6.469820">
        <ele>909.254</ele>
        <time>2022-02-26T07:57:17Z</time>
      </trkpt>
      <trkpt lat="41.998770" lon="-6.469840">
        <ele>909.356</ele>
        <time>2022-02-26T07:57:57Z</time>
      </trkpt>
      <trkpt lat="41.998920" lon="-6.470080">
        <ele>910.411</ele>
        <time>2022-02-26T07:58:37Z</time>
      </trkpt>
      <trkpt lat="41.999000" lon="-6.470200">
        <ele>911.108</ele>
        <time>2022-02-26T07:59:17Z</time>
      </trkpt>
      <trkpt lat="41.999010" lon="-6.470220">
        <ele>911.294</ele>
        <time>2022-02-26T07:59:57Z</time>
      </trkpt>
      <trkpt lat="41.999120" lon="-6.470350">
        <ele>912.111</ele>
        <time>2022-02-26T08:00:37Z</time>
      </trkpt>
      <trkpt lat="41.999140" lon="-6.470370">
        <ele>912.265</ele>
        <time>2022-02-26T08:01:17Z</time>
      </trkpt>
      <trkpt lat="41.999220" lon="-6.470460">
        <ele>912.931</ele>
        <time>2022-02-26T08:01:57Z</time>
      </trkpt>
      <trkpt lat="41.999280" lon="-6.470500">
        <ele>913.318</ele>
        <time>2022-02-26T08:02:37Z</time>
      </trkpt>
      <trkpt lat="41.999360" lon="-6.470570">
        <ele>913.839</ele>
        <time>2022-02-26T08:03:17Z</time>
      </trkpt>
      <trkpt lat="41.999440" lon="-6.470620">
        <ele>914.443</ele>
        <time>2022-02-26T08:03:57Z</time>
      </trkpt>
      <trkpt lat="41.999550" lon="-6.470680">
        <ele>915.998</ele>
        <time>2022-02-26T08:04:37Z</time>
      </trkpt>
      <trkpt lat="41.999610" lon="-6.470700">
        <ele>916.557</ele>
        <time>2022-02-26T08:05:17Z</time>
      </trkpt>
      <trkpt lat="41.999740" lon="-6.470750">
        <ele>917.800</ele>
        <time>2022-02-26T08:05:57Z</time>
      </trkpt>
      <trkpt lat="41.999780" lon="-6.470760">
        <ele>918.220</ele>
        <time>2022-02-26T08:06:37Z</time>
      </trkpt>
      <trkpt lat="41.999950" lon="-6.470800">
        <ele>919.608</ele>
        <time>2022-02-26T08:07:17Z</time>
      </trkpt>
      <trkpt lat="41.999960" lon="-6.470810">
        <ele>919.734</ele>
        <time>2022-02-26T08:07:57Z</time>
      </trkpt>
      <trkpt lat="42.000140" lon="-6.470840">
        <ele>921.531</ele>
        <time>2022-02-26T08:08:37Z</time>
      </trkpt>
      <trkpt lat="42.000140" lon="-6.470850">
        <ele>921.585</ele>
        <time>2022-02-26T08:09:17Z</time>
      </trkpt>
      <trkpt lat="42.000320" lon="-6.470880">
        <ele>923.081</ele>
        <time>2022-02-26T08:09:57Z</time>
      </trkpt>
      <trkpt lat="42.000340" lon="-6.470890">
        <ele>923.028</ele>
        <time>2022-02-26T08:10:37Z</time>
      </trkpt>
      <trkpt lat="42.000490" lon="-6.470940">
        <ele>923.489</ele>
        <time>2022-02-26T08:11:17Z</time>
      </trkpt>
      <trkpt lat="42.000550" lon="-6.470960">
        <ele>923.513</ele>
        <time>2022-02-26T08:11:57Z</time>
      </trkpt>
      <trkpt lat="42.000660" lon="-6.471020">
        <ele>923.758</ele>
        <time>2022-02-26T08:12:37Z</time>
      </trkpt>
      <trkpt lat="42.000690" lon="-6.471030">
        <ele>923.837</ele>
        <time>2022-02-26T08:13:17Z</time>
      </trkpt>
      <trkpt lat="42.000760" lon="-6.471070">
        <ele>923.949</ele>
        <time>2022-02-26T08:13:57Z</time>
      </trkpt>
      <trkpt lat="42.000820" lon="-6.471120">
        <ele>923.913</ele>
        <time>2022-02-26T08:14:37Z</time>
      </trkpt>
      <trkpt lat="42.000950" lon="-6.471210">
        <ele>923.808</ele>
        <time>2022-02-26T08:15:17Z</time>
      </trkpt>
      <trkpt lat="42.000980" lon="-6.471240">
        <ele>923.812</ele>
        <time>2022-02-26T08:15:57Z</time>
      </trkpt>
      <trkpt lat="42.001060" lon="-6.471310">
        <ele>923.929</ele>
        <time>2022-02-26T08:16:37Z</time>
      </trkpt>
      <trkpt lat="42.001120" lon="-6.471390">
        <ele>924.093</ele>
        <time>2022-02-26T08:17:17Z</time>
      </trkpt>
      <trkpt lat="42.001170" lon="-6.471440">
        <ele>923.679</ele>
        <time>2022-02-26T08:17:57Z</time>
      </trkpt>
      <trkpt lat="42.001310" lon="-6.471620">
        <ele>922.576</ele>
        <time>2022-02-26T08:18:37Z</time>
      </trkpt>
      <trkpt lat="42.001370" lon="-6.471730">
        <ele>921.837</ele>
        <time>2022-02-26T08:19:17Z</time>
      </trkpt>
      <trkpt lat="42.001430" lon="-6.471830">
        <ele>921.331</ele>
        <time>2022-02-26T08:19:57Z</time>
      </trkpt>
      <trkpt lat="42.001520" lon="-6.471960">
        <ele>920.576</ele>
        <time>2022-02-26T08:20:37Z</time>
      </trkpt>
      <trkpt lat="42.001580" lon="-6.472060">
        <ele>920.325</ele>
        <time>2022-02-26T08:21:17Z</time>
      </trkpt>
      <trkpt lat="42.001700" lon="-6.472250">
        <ele>920.026</ele>
        <time>2022-02-26T08:21:57Z</time>
      </trkpt>
      <trkpt lat="42.001790" lon="-6.472390">
        <ele>919.908</ele>
        <time>2022-02-26T08:22:37Z</time>
      </trkpt>
      <trkpt lat="42.001910" lon="-6.472580">
        <ele>919.208</ele>
        <time>2022-02-26T08:23:17Z</time>
      </trkpt>
      <trkpt lat="42.001980" lon="-6.472700">
        <ele>918.721</ele>
        <time>2022-02-26T08:23:57Z</time>
      </trkpt>
      <trkpt lat="42.002140" lon="-6.472950">
        <ele>917.298</ele>
        <time>2022-02-26T08:24:37Z</time>
      </trkpt>
      <trkpt lat="42.002190" lon="-6.473030">
        <ele>916.422</ele>
        <time>2022-02-26T08:25:17Z</time>
      </trkpt>
      <trkpt lat="42.002280" lon="-6.473150">
        <ele>915.718</ele>
        <time>2022-02-26T08:25:57Z</time>
      </trkpt>
      <trkpt lat="42.002410" lon="-6.473270">
        <ele>915.225</ele>
        <time>2022-02-26T08:26:37Z</time>
      </trkpt>
      <trkpt lat="42.002470" lon="-6.473290">
        <ele>915.056</ele>
        <time>2022-02-26T08:27:17Z</time>
      </trkpt>
      <trkpt lat="42.002530" lon="-6.473300">
        <ele>914.850</ele>
        <time>2022-02-26T08:27:57Z</time>
      </trkpt>
      <trkpt lat="42.002730" lon="-6.473330">
        <ele>914.265</ele>
        <time>2022-02-26T08:28:37Z</time>
      </trkpt>
      <trkpt lat="42.002940" lon="-6.473340">
        <ele>914.621</ele>
        <time>2022-02-26T08:29:17Z</time>
      </trkpt>
      <trkpt lat="42.003340" lon="-6.473380">
        <ele>914.941</ele>
        <time>2022-02-26T08:29:57Z</time>
      </trkpt>
      <trkpt lat="42.003880" lon="-6.473410">
        <ele>914.505</ele>
        <time>2022-02-26T08:30:37Z</time>
      </trkpt>
      <trkpt lat="42.004060" lon="-6.473430">
        <ele>914.308</ele>
        <time>2022-02-26T08:31:17Z</time>
      </trkpt>
      <trkpt lat="42.004920" lon="-6.473490">
        <ele>916.071</ele>
        <time>2022-02-26T08:31:57Z</time>
      </trkpt>
      <trkpt lat="42.005460" lon="-6.473520">
        <ele>914.338</ele>
        <time>2022-02-26T08:32:37Z</time>
      </trkpt>
      <trkpt lat="42.005660" lon="-6.473540">
        <ele>914.962</ele>
        <time>2022-02-26T08:33:17Z</time>
      </trkpt>
      <trkpt lat="42.005820" lon="-6.473540">
        <ele>915.958</ele>
        <time>2022-02-26T08:33:57Z</time>
      </trkpt>
      <trkpt lat="42.005900" lon="-6.473540">
        <ele>916.595</ele>
        <time>2022-02-26T08:34:37Z</time>
      </trkpt>
      <trkpt lat="42.006200" lon="-6.473560">
        <ele>918.126</ele>
        <time>2022-02-26T08:35:17Z</time>
      </trkpt>
      <trkpt lat="42.006360" lon="-6.473570">
        <ele>918.130</ele>
        <time>2022-02-26T08:35:57Z</time>
      </trkpt>
      <trkpt lat="42.006590" lon="-6.473570">
        <ele>919.525</ele>
        <time>2022-02-26T08:36:37Z</time>
      </trkpt>
      <trkpt lat="42.006620" lon="-6.473570">
        <ele>919.731</ele>
        <time>2022-02-26T08:37:17Z</time>
      </trkpt>
      <trkpt lat="42.006670" lon="-6.473560">
        <ele>920.061</ele>
        <time>2022-02-26T08:37:57Z</time>
      </trkpt>
      <trkpt lat="42.006710" lon="-6.473550">
        <ele>919.707</ele>
        <time>2022-02-26T08:38:37Z</time>
      </trkpt>
      <trkpt lat="42.006790" lon="-6.473520">
        <ele>919.308</ele>
        <time>2022-02-26T08:39:17Z</time>
      </trkpt>
      <trkpt lat="42.006830" lon="-6.473500">
        <ele>919.192</ele>
        <time>2022-02-26T08:39:57Z</time>
      </trkpt>
      <trkpt lat="42.006930" lon="-6.473460">
        <ele>918.669</ele>
        <time>2022-02-26T08:40:37Z</time>
      </trkpt>
      <trkpt lat="42.006970" lon="-6.473430">
        <ele>918.483</ele>
        <time>2022-02-26T08:41:17Z</time>
      </trkpt>
      <trkpt lat="42.007010" lon="-6.473400">
        <ele>918.199</ele>
        <time>2022-02-26T08:41:57Z</time>
      </trkpt>
      <trkpt lat="42.007110" lon="-6.473280">
        <ele>917.356</ele>
        <time>2022-02-26T08:42:37Z</time>
      </trkpt>
      <trkpt lat="42.007230" lon="-6.473130">
        <ele>916.727</ele>
        <time>2022-02-26T08:43:17Z</time>
      </trkpt>
      <trkpt lat="42.007420" lon="-6.472850">
        <ele>915.821</ele>
        <time>2022-02-26T08:43:57Z</time>
      </trkpt>
      <trkpt lat="42.007680" lon="-6.472460">
        <ele>913.626</ele>
        <time>2022-02-26T08:44:37Z</time>
      </trkpt>
      <trkpt lat="42.007920" lon="-6.472100">
        <ele>910.813</ele>
        <time>2022-02-26T08:45:17Z</time>
      </trkpt>
      <trkpt lat="42.008040" lon="-6.471910">
        <ele>910.143</ele>
        <time>2022-02-26T08:45:57Z</time>
      </trkpt>
      <trkpt lat="42.008080" lon="-6.471850">
        <ele>909.907</ele>
        <time>2022-02-26T08:46:37Z</time>
      </trkpt>
      <trkpt lat="42.008280" lon="-6.471550">
        <ele>908.808</ele>
        <time>2022-02-26T08:47:17Z</time>
      </trkpt>
      <trkpt lat="42.008290" lon="-6.471530">
        <ele>908.790</ele>
        <time>2022-02-26T08:47:57Z</time>
      </trkpt>
      <trkpt lat="42.008390" lon="-6.471370">
        <ele>908.267</ele>
        <time>2022-02-26T08:48:37Z</time>
      </trkpt>
      <trkpt lat="42.008420" lon="-6.471320">
        <ele>908.441</ele>
        <time>2022-02-26T08:49:17Z</time>
      </trkpt>
      <trkpt lat="42.008560" lon="-6.471030">
        <ele>909.677</ele>
        <time>2022-02-26T08:49:57Z</time>
      </trkpt>
      <trkpt lat="42.008840" lon="-6.470340">
        <ele>909.954</ele>
        <time>2022-02-26T08:50:37Z</time>
      </trkpt>
      <trkpt lat="42.009170" lon="-6.469520">
        <ele>909.385</ele>
        <time>2022-02-26T08:51:17Z</time>
      </trkpt>
      <trkpt lat="42.009430" lon="-6.468810">
        <ele>908.999</ele>
        <time>2022-02-26T08:51:57Z</time>
      </trkpt>
      <trkpt lat="42.009470" lon="-6.468720">
        <ele>909.154</ele>
        <time>2022-02-26T08:52:37Z</time>
      </trkpt>
      <trkpt lat="42.009730" lon="-6.468080">
        <ele>910.037</ele>
        <time>2022-02-26T08:53:17Z</time>
      </trkpt>
      <trkpt lat="42.009760" lon="-6.468020">
        <ele>909.949</ele>
        <time>2022-02-26T08:53:57Z</time>
      </trkpt>
      <trkpt lat="42.009790" lon="-6.467970">
        <ele>909.813</ele>
        <time>2022-02-26T08:54:37Z</time>
      </trkpt>
      <trkpt lat="42.009810" lon="-6.467930">
        <ele>909.708</ele>
        <time>2022-02-26T08:55:17Z</time>
      </trkpt>
      <trkpt lat="42.009880" lon="-6.467810">
        <ele>909.652</ele>
        <time>2022-02-26T08:55:57Z</time>
      </trkpt>
      <trkpt lat="42.010030" lon="-6.467560">
        <ele>908.529</ele>
        <time>2022-02-26T08:56:37Z</time>
      </trkpt>
      <trkpt lat="42.010070" lon="-6.467500">
        <ele>908.383</ele>
        <time>2022-02-26T08:57:17Z</time>
      </trkpt>
      <trkpt lat="42.010280" lon="-6.467200">
        <ele>907.919</ele>
        <time>2022-02-26T08:57:57Z</time>
      </trkpt>
      <trkpt lat="42.010400" lon="-6.467020">
        <ele>906.516</ele>
        <time>2022-02-26T08:58:37Z</time>
      </trkpt>
      <trkpt lat="42.010680" lon="-6.466610">
        <ele>903.847</ele>
        <time>2022-02-26T08:59:17Z</time>
      </trkpt>
      <trkpt lat="42.011140" lon="-6.465910">
        <ele>901.061</ele>
        <time>2022-02-26T08:59:57Z</time>
      </trkpt>
      <trkpt lat="42.011270" lon="-6.465800">
        <ele>900.866</ele>
        <time>2022-02-26T09:00:37Z</time>
      </trkpt>
      <trkpt lat="42.011300" lon="-6.465760">
        <ele>900.726</ele>
        <time>2022-02-26T09:01:17Z</time>
      </trkpt>
      <trkpt lat="42.011370" lon="-6.465710">
        <ele>900.647</ele>
        <time>2022-02-26T09:01:57Z</time>
      </trkpt>
      <trkpt lat="42.011430" lon="-6.465700">
        <ele>900.611</ele>
        <time>2022-02-26T09:02:37Z</time>
      </trkpt>
      <trkpt lat="42.011440" lon="-6.465690">
        <ele>900.508</ele>
        <time>2022-02-26T09:03:17Z</time>
      </trkpt>
      <trkpt lat="42.011570" lon="-6.465670">
        <ele>900.251</ele>
        <time>2022-02-26T09:03:57Z</time>
      </trkpt>
      <trkpt lat="42.011610" lon="-6.465670">
        <ele>900.298</ele>
        <time>2022-02-26T09:04:37Z</time>
      </trkpt>
      <trkpt lat="42.011780" lon="-6.465680">
        <ele>900.232</ele>
        <time>2022-02-26T09:05:17Z</time>
      </trkpt>
      <trkpt lat="42.011790" lon="-6.465680">
        <ele>900.168</ele>
        <time>2022-02-26T09:05:57Z</time>
      </trkpt>
      <trkpt lat="42.011970" lon="-6.465670">
        <ele>899.935</ele>
        <time>2022-02-26T09:06:37Z</time>
      </trkpt>
      <trkpt lat="42.012010" lon="-6.465670">
        <ele>900.026</ele>
        <time>2022-02-26T09:07:17Z</time>
      </trkpt>
      <trkpt lat="42.012030" lon="-6.465660">
        <ele>899.930</ele>
        <time>2022-02-26T09:07:57Z</time>
      </trkpt>
      <trkpt lat="42.012060" lon="-6.465650">
        <ele>900.025</ele>
        <time>2022-02-26T09:08:37Z</time>
      </trkpt>
      <trkpt lat="42.012080" lon="-6.465640">
        <ele>899.978</ele>
        <time>2022-02-26T09:09:17Z</time>
      </trkpt>
      <trkpt lat="42.012110" lon="-6.465630">
        <ele>900.033</ele>
        <time>2022-02-26T09:09:57Z</time>
      </trkpt>
      <trkpt lat="42.012170" lon="-6.465580">
        <ele>899.926</ele>
        <time>2022-02-26T09:10:37Z</time>
      </trkpt>
      <trkpt lat="42.012210" lon="-6.465540">
        <ele>899.908</ele>
        <time>2022-02-26T09:11:17Z</time>
      </trkpt>
      <trkpt lat="42.012250" lon="-6.465480">
        <ele>899.996</ele>
        <time>2022-02-26T09:11:57Z</time>
      </trkpt>
      <trkpt lat="42.012370" lon="-6.465290">
        <ele>900.163</ele>
        <time>2022-02-26T09:12:37Z</time>
      </trkpt>
      <trkpt lat="42.012380" lon="-6.465260">
        <ele>900.017</ele>
        <time>2022-02-26T09:13:17Z</time>
      </trkpt>
      <trkpt lat="42.012860" lon="-6.464230">
        <ele>896.613</ele>
        <time>2022-02-26T09:13:57Z</time>
      </trkpt>
      <trkpt lat="42.012930" lon="-6.464080">
        <ele>895.250</ele>
        <time>2022-02-26T09:14:37Z</time>
      </trkpt>
      <trkpt lat="42.012950" lon="-6.464030">
        <ele>894.851</ele>
        <time>2022-02-26T09:15:17Z</time>
      </trkpt>
      <trkpt lat="42.013050" lon="-6.463820">
        <ele>893.795</ele>
        <time>2022-02-26T09:15:57Z</time>
      </trkpt>
      <trkpt lat="42.013560" lon="-6.462820">
        <ele>890.270</ele>
        <time>2022-02-26T09:16:37Z</time>
      </trkpt>
      <trkpt lat="42.013760" lon="-6.462420">
        <ele>888.638</ele>
        <time>2022-02-26T09:17:17Z</time>
      </trkpt>
      <trkpt lat="42.013960" lon="-6.462020">
        <ele>885.570</ele>
        <time>2022-02-26T09:17:57Z</time>
      </trkpt>
      <trkpt lat="42.014420" lon="-6.461120">
        <ele>882.917</ele>
        <time>2022-02-26T09:18:37Z</time>
      </trkpt>
      <trkpt lat="42.014680" lon="-6.460570">
        <ele>885.708</ele>
        <time>2022-02-26T09:19:17Z</time>
      </trkpt>
      <trkpt lat="42.014740" lon="-6.460460">
        <ele>886.022</ele>
        <time>2022-02-26T09:19:57Z</time>
      </trkpt>
      <trkpt lat="42.014780" lon="-6.460400">
        <ele>886.159</ele>
        <time>2022-02-26T09:20:37Z</time>
      </trkpt>
      <trkpt lat="42.014830" lon="-6.460340">
        <ele>886.363</ele>
        <time>2022-02-26T09:21:17Z</time>
      </trkpt>
      <trkpt lat="42.014910" lon="-6.460240">
        <ele>886.549</ele>
        <time>2022-02-26T09:21:57Z</time>
      </trkpt>
      <trkpt lat="42.014980" lon="-6.460170">
        <ele>886.586</ele>
        <time>2022-02-26T09:22:37Z</time>
      </trkpt>
      <trkpt lat="42.015090" lon="-6.460060">
        <ele>885.827</ele>
        <time>2022-02-26T09:23:17Z</time>
      </trkpt>
      <trkpt lat="42.015260" lon="-6.459970">
        <ele>885.091</ele>
        <time>2022-02-26T09:23:57Z</time>
      </trkpt>
      <trkpt lat="42.015400" lon="-6.459900">
        <ele>885.056</ele>
        <time>2022-02-26T09:24:37Z</time>
      </trkpt>
      <trkpt lat="42.015500" lon="-6.459860">
        <ele>885.097</ele>
        <time>2022-02-26T09:25:17Z</time>
      </trkpt>
      <trkpt lat="42.015590" lon="-6.459840">
        <ele>885.123</ele>
        <time>2022-02-26T09:25:57Z</time>
      </trkpt>
      <trkpt lat="42.015740" lon="-6.459830">
        <ele>885.425</ele>
        <time>2022-02-26T09:26:37Z</time>
      </trkpt>
      <trkpt lat="42.015770" lon="-6.459830">
        <ele>885.508</ele>
        <time>2022-02-26T09:27:17Z</time>
      </trkpt>
      <trkpt lat="42.015810" lon="-6.459830">
        <ele>885.638</ele>
        <time>2022-02-26T09:27:57Z</time>
      </trkpt>
      <trkpt lat="42.015900" lon="-6.459850">
        <ele>885.595</ele>
        <time>2022-02-26T09:28:37Z</time>
      </trkpt>
      <trkpt lat="42.015950" lon="-6.459860">
        <ele>885.579</ele>
        <time>2022-02-26T09:29:17Z</time>
      </trkpt>
      <trkpt lat="42.016060" lon="-6.459890">
        <ele>885.445</ele>
        <time>2022-02-26T09:29:57Z</time>
      </trkpt>
      <trkpt lat="42.016250" lon="-6.459960">
        <ele>885.032</ele>
        <time>2022-02-26T09:30:37Z</time>
      </trkpt>
      <trkpt lat="42.016760" lon="-6.460140">
        <ele>885.893</ele>
        <time>2022-02-26T09:31:17Z</time>
      </trkpt>
      <trkpt lat="42.016770" lon="-6.460150">
        <ele>885.937</ele>
        <time>2022-02-26T09:31:57Z</time>
      </trkpt>
      <trkpt lat="42.016940" lon="-6.460210">
        <ele>886.762</ele>
        <time>2022-02-26T09:32:37Z</time>
      </trkpt>
      <trkpt lat="42.017290" lon="-6.460340">
        <ele>887.713</ele>
        <time>2022-02-26T09:33:17Z</time>
      </trkpt>
      <trkpt lat="42.017440" lon="-6.460390">
        <ele>887.343</ele>
        <time>2022-02-26T09:33:57Z</time>
      </trkpt>
      <trkpt lat="42.017460" lon="-6.460390">
        <ele>887.207</ele>
        <time>2022-02-26T09:34:37Z</time>
      </trkpt>
      <trkpt lat="42.017530" lon="-6.460410">
        <ele>886.808</ele>
        <time>2022-02-26T09:35:17Z</time>
      </trkpt>
      <trkpt lat="42.017570" lon="-6.460420">
        <ele>886.590</ele>
        <time>2022-02-26T09:35:57Z</time>
      </trkpt>
      <trkpt lat="42.017640" lon="-6.460410">
        <ele>886.027</ele>
        <time>2022-02-26T09:36:37Z</time>
      </trkpt>
      <trkpt lat="42.017650" lon="-6.460410">
        <ele>886.011</ele>
        <time>2022-02-26T09:37:17Z</time>
      </trkpt>
      <trkpt lat="42.017710" lon="-6.460400">
        <ele>885.647</ele>
        <time>2022-02-26T09:37:57Z</time>
      </trkpt>
      <trkpt lat="42.017800" lon="-6.460350">
        <ele>885.344</ele>
        <time>2022-02-26T09:38:37Z</time>
      </trkpt>
      <trkpt lat="42.017820" lon="-6.460340">
        <ele>885.225</ele>
        <time>2022-02-26T09:39:17Z</time>
      </trkpt>
      <trkpt lat="42.017890" lon="-6.460290">
        <ele>884.879</ele>
        <time>2022-02-26T09:39:57Z</time>
      </trkpt>
      <trkpt lat="42.017990" lon="-6.460240">
        <ele>883.964</ele>
        <time>2022-02-26T09:40:37Z</time>
      </trkpt>
      <trkpt lat="42.018130" lon="-6.460100">
        <ele>884.541</ele>
        <time>2022-02-26T09:41:17Z</time>
      </trkpt>
      <trkpt lat="42.018200" lon="-6.460040">
        <ele>884.981</ele>
        <time>2022-02-26T09:41:57Z</time>
      </trkpt>
      <trkpt lat="42.018280" lon="-6.459970">
        <ele>884.209</ele>
        <time>2022-02-26T09:42:37Z</time>
      </trkpt>
      <trkpt lat="42.018440" lon="-6.459850">
        <ele>882.008</ele>
        <time>2022-02-26T09:43:17Z</time>
      </trkpt>
      <trkpt lat="42.018590" lon="-6.459720">
        <ele>884.313</ele>
        <time>2022-02-26T09:43:57Z</time>
      </trkpt>
      <trkpt lat="42.018750" lon="-6.459600">
        <ele>884.550</ele>
        <time>2022-02-26T09:44:37Z</time>
      </trkpt>
      <trkpt lat="42.018900" lon="-6.459480">
        <ele>884.094</ele>
        <time>2022-02-26T09:45:17Z</time>
      </trkpt>
      <trkpt lat="42.019000" lon="-6.459400">
        <ele>884.210</ele>
        <time>2022-02-26T09:45:57Z</time>
      </trkpt>
      <trkpt lat="42.019130" lon="-6.459300">
        <ele>884.567</ele>
        <time>2022-02-26T09:46:37Z</time>
      </trkpt>
      <trkpt lat="42.019280" lon="-6.459180">
        <ele>885.018</ele>
        <time>2022-02-26T09:47:17Z</time>
      </trkpt>
      <trkpt lat="42.019440" lon="-6.459060">
        <ele>873.562</ele>
        <time>2022-02-26T09:47:57Z</time>
      </trkpt>
      <trkpt lat="42.019450" lon="-6.459050">
        <ele>872.747</ele>
        <time>2022-02-26T09:48:37Z</time>
      </trkpt>
      <trkpt lat="42.019590" lon="-6.458940">
        <ele>873.312</ele>
        <time>2022-02-26T09:49:17Z</time>
      </trkpt>
      <trkpt lat="42.019750" lon="-6.458820">
        <ele>877.132</ele>
        <time>2022-02-26T09:49:57Z</time>
      </trkpt>
      <trkpt lat="42.019820" lon="-6.458770">
        <ele>871.805</ele>
        <time>2022-02-26T09:50:37Z</time>
      </trkpt>
      <trkpt lat="42.019910" lon="-6.458700">
        <ele>864.608</ele>
        <time>2022-02-26T09:51:17Z</time>
      </trkpt>
      <trkpt lat="42.020060" lon="-6.458570">
        <ele>858.280</ele>
        <time>2022-02-26T09:51:57Z</time>
      </trkpt>
      <trkpt lat="42.020210" lon="-6.458450">
        <ele>865.097</ele>
        <time>2022-02-26T09:52:37Z</time>
      </trkpt>
      <trkpt lat="42.020370" lon="-6.458320">
        <ele>873.041</ele>
        <time>2022-02-26T09:53:17Z</time>
      </trkpt>
      <trkpt lat="42.020520" lon="-6.458200">
        <ele>877.987</ele>
        <time>2022-02-26T09:53:57Z</time>
      </trkpt>
      <trkpt lat="42.020670" lon="-6.458070">
        <ele>882.344</ele>
        <time>2022-02-26T09:54:37Z</time>
      </trkpt>
      <trkpt lat="42.020830" lon="-6.457940">
        <ele>887.315</ele>
        <time>2022-02-26T09:55:17Z</time>
      </trkpt>
      <trkpt lat="42.020870" lon="-6.457910">
        <ele>888.259</ele>
        <time>2022-02-26T09:55:57Z</time>
      </trkpt>
      <trkpt lat="42.020920" lon="-6.457870">
        <ele>889.214</ele>
        <time>2022-02-26T09:56:37Z</time>
      </trkpt>
      <trkpt lat="42.020990" lon="-6.457830">
        <ele>890.623</ele>
        <time>2022-02-26T09:57:17Z</time>
      </trkpt>
      <trkpt lat="42.021040" lon="-6.457800">
        <ele>891.683</ele>
        <time>2022-02-26T09:57:57Z</time>
      </trkpt>
      <trkpt lat="42.021200" lon="-6.457690">
        <ele>893.811</ele>
        <time>2022-02-26T09:58:37Z</time>
      </trkpt>
      <trkpt lat="42.021210" lon="-6.457680">
        <ele>893.808</ele>
        <time>2022-02-26T09:59:17Z</time>
      </trkpt>
      <trkpt lat="42.021350" lon="-6.457650">
        <ele>894.841</ele>
        <time>2022-02-26T09:59:57Z</time>
      </trkpt>
      <trkpt lat="42.021370" lon="-6.457650">
        <ele>894.978</ele>
        <time>2022-02-26T10:00:37Z</time>
      </trkpt>
      <trkpt lat="42.021550" lon="-6.457630">
        <ele>894.412</ele>
        <time>2022-02-26T10:01:17Z</time>
      </trkpt>
      <trkpt lat="42.021650" lon="-6.457620">
        <ele>893.988</ele>
        <time>2022-02-26T10:01:57Z</time>
      </trkpt>
      <trkpt lat="42.021670" lon="-6.457620">
        <ele>893.815</ele>
        <time>2022-02-26T10:02:37Z</time>
      </trkpt>
      <trkpt lat="42.021850" lon="-6.457600">
        <ele>892.476</ele>
        <time>2022-02-26T10:03:17Z</time>
      </trkpt>
      <trkpt lat="42.021880" lon="-6.457600">
        <ele>892.220</ele>
        <time>2022-02-26T10:03:57Z</time>
      </trkpt>
      <trkpt lat="42.022210" lon="-6.457570">
        <ele>891.045</ele>
        <time>2022-02-26T10:04:37Z</time>
      </trkpt>
      <trkpt lat="42.022610" lon="-6.457530">
        <ele>892.413</ele>
        <time>2022-02-26T10:05:17Z</time>
      </trkpt>
      <trkpt lat="42.022740" lon="-6.457520">
        <ele>892.943</ele>
        <time>2022-02-26T10:05:57Z</time>
      </trkpt>
      <trkpt lat="42.022920" lon="-6.457520">
        <ele>894.507</ele>
        <time>2022-02-26T10:06:37Z</time>
      </trkpt>
      <trkpt lat="42.023010" lon="-6.457510">
        <ele>895.508</ele>
        <time>2022-02-26T10:07:17Z</time>
      </trkpt>
      <trkpt lat="42.023190" lon="-6.457540">
        <ele>896.390</ele>
        <time>2022-02-26T10:07:57Z</time>
      </trkpt>
      <trkpt lat="42.023240" lon="-6.457560">
        <ele>896.417</ele>
        <time>2022-02-26T10:08:37Z</time>
      </trkpt>
      <trkpt lat="42.023310" lon="-6.457610">
        <ele>896.571</ele>
        <time>2022-02-26T10:09:17Z</time>
      </trkpt>
      <trkpt lat="42.023430" lon="-6.457700">
        <ele>896.387</ele>
        <time>2022-02-26T10:09:57Z</time>
      </trkpt>
      <trkpt lat="42.023450" lon="-6.457710">
        <ele>896.264</ele>
        <time>2022-02-26T10:10:37Z</time>
      </trkpt>
      <trkpt lat="42.023550" lon="-6.457830">
        <ele>895.995</ele>
        <time>2022-02-26T10:11:17Z</time>
      </trkpt>
      <trkpt lat="42.023830" lon="-6.458200">
        <ele>896.759</ele>
        <time>2022-02-26T10:11:57Z</time>
      </trkpt>
      <trkpt lat="42.024060" lon="-6.458500">
        <ele>897.234</ele>
        <time>2022-02-26T10:12:37Z</time>
      </trkpt>
      <trkpt lat="42.024080" lon="-6.458540">
        <ele>897.262</ele>
        <time>2022-02-26T10:13:17Z</time>
      </trkpt>
      <trkpt lat="42.024210" lon="-6.458710">
        <ele>897.683</ele>
        <time>2022-02-26T10:13:57Z</time>
      </trkpt>
      <trkpt lat="42.024330" lon="-6.458880">
        <ele>898.611</ele>
        <time>2022-02-26T10:14:37Z</time>
      </trkpt>
      <trkpt lat="42.025090" lon="-6.459930">
        <ele>905.708</ele>
        <time>2022-02-26T10:15:17Z</time>
      </trkpt>
      <trkpt lat="42.025210" lon="-6.460100">
        <ele>906.735</ele>
        <time>2022-02-26T10:15:57Z</time>
      </trkpt>
      <trkpt lat="42.025460" lon="-6.460450">
        <ele>909.322</ele>
        <time>2022-02-26T10:16:37Z</time>
      </trkpt>
      <trkpt lat="42.025650" lon="-6.460710">
        <ele>910.966</ele>
        <time>2022-02-26T10:17:17Z</time>
      </trkpt>
      <trkpt lat="42.025730" lon="-6.460810">
        <ele>911.582</ele>
        <time>2022-02-26T10:17:57Z</time>
      </trkpt>
      <trkpt lat="42.025870" lon="-6.460910">
        <ele>912.099</ele>
        <time>2022-02-26T10:18:37Z</time>
      </trkpt>
      <trkpt lat="42.025920" lon="-6.460940">
        <ele>912.030</ele>
        <time>2022-02-26T10:19:17Z</time>
      </trkpt>
      <trkpt lat="42.026030" lon="-6.460980">
        <ele>912.064</ele>
        <time>2022-02-26T10:19:57Z</time>
      </trkpt>
      <trkpt lat="42.026130" lon="-6.461000">
        <ele>912.069</ele>
        <time>2022-02-26T10:20:37Z</time>
      </trkpt>
      <trkpt lat="42.026260" lon="-6.461000">
        <ele>911.899</ele>
        <time>2022-02-26T10:21:17Z</time>
      </trkpt>
      <trkpt lat="42.026390" lon="-6.460980">
        <ele>911.507</ele>
        <time>2022-02-26T10:21:57Z</time>
      </trkpt>
      <trkpt lat="42.027020" lon="-6.460920">
        <ele>911.327</ele>
        <time>2022-02-26T10:22:37Z</time>
      </trkpt>
      <trkpt lat="42.027560" lon="-6.460870">
        <ele>913.408</ele>
        <time>2022-02-26T10:23:17Z</time>
      </trkpt>
      <trkpt lat="42.027740" lon="-6.460850">
        <ele>914.788</ele>
        <time>2022-02-26T10:23:57Z</time>
      </trkpt>
      <trkpt lat="42.027920" lon="-6.460840">
        <ele>916.035</ele>
        <time>2022-02-26T10:24:37Z</time>
      </trkpt>
      <trkpt lat="42.028090" lon="-6.460820">
        <ele>916.869</ele>
        <time>2022-02-26T10:25:17Z</time>
      </trkpt>
      <trkpt lat="42.028270" lon="-6.460800">
        <ele>915.535</ele>
        <time>2022-02-26T10:25:57Z</time>
      </trkpt>
      <trkpt lat="42.028450" lon="-6.460790">
        <ele>914.212</ele>
        <time>2022-02-26T10:26:37Z</time>
      </trkpt>
      <trkpt lat="42.028630" lon="-6.460770">
        <ele>912.863</ele>
        <time>2022-02-26T10:27:17Z</time>
      </trkpt>
      <trkpt lat="42.028810" lon="-6.460750">
        <ele>911.417</ele>
        <time>2022-02-26T10:27:57Z</time>
      </trkpt>
      <trkpt lat="42.028990" lon="-6.460740">
        <ele>910.852</ele>
        <time>2022-02-26T10:28:37Z</time>
      </trkpt>
      <trkpt lat="42.029170" lon="-6.460720">
        <ele>911.015</ele>
        <time>2022-02-26T10:29:17Z</time>
      </trkpt>
      <trkpt lat="42.029350" lon="-6.460700">
        <ele>911.665</ele>
        <time>2022-02-26T10:29:57Z</time>
      </trkpt>
      <trkpt lat="42.029530" lon="-6.460680">
        <ele>911.811</ele>
        <time>2022-02-26T10:30:37Z</time>
      </trkpt>
      <trkpt lat="42.029710" lon="-6.460670">
        <ele>911.208</ele>
        <time>2022-02-26T10:31:17Z</time>
      </trkpt>
      <trkpt lat="42.030070" lon="-6.460640">
        <ele>911.910</ele>
        <time>2022-02-26T10:31:57Z</time>
      </trkpt>
      <trkpt lat="42.030250" lon="-6.460620">
        <ele>912.727</ele>
        <time>2022-02-26T10:32:37Z</time>
      </trkpt>
      <trkpt lat="42.030610" lon="-6.460590">
        <ele>914.221</ele>
        <time>2022-02-26T10:33:17Z</time>
      </trkpt>
      <trkpt lat="42.031150" lon="-6.460550">
        <ele>915.317</ele>
        <time>2022-02-26T10:33:57Z</time>
      </trkpt>
      <trkpt lat="42.031430" lon="-6.460520">
        <ele>917.324</ele>
        <time>2022-02-26T10:34:37Z</time>
      </trkpt>
      <trkpt lat="42.032760" lon="-6.460410">
        <ele>921.435</ele>
        <time>2022-02-26T10:35:17Z</time>
      </trkpt>
      <trkpt lat="42.033190" lon="-6.460380">
        <ele>921.599</ele>
        <time>2022-02-26T10:35:57Z</time>
      </trkpt>
      <trkpt lat="42.033480" lon="-6.460350">
        <ele>921.244</ele>
        <time>2022-02-26T10:36:37Z</time>
      </trkpt>
      <trkpt lat="42.033520" lon="-6.460350">
        <ele>921.168</ele>
        <time>2022-02-26T10:37:17Z</time>
      </trkpt>
      <trkpt lat="42.033840" lon="-6.460330">
        <ele>921.042</ele>
        <time>2022-02-26T10:37:57Z</time>
      </trkpt>
      <trkpt lat="42.034080" lon="-6.460310">
        <ele>922.326</ele>
        <time>2022-02-26T10:38:37Z</time>
      </trkpt>
      <trkpt lat="42.034200" lon="-6.460300">
        <ele>923.008</ele>
        <time>2022-02-26T10:39:17Z</time>
      </trkpt>
      <trkpt lat="42.034960" lon="-6.460230">
        <ele>926.335</ele>
        <time>2022-02-26T10:39:57Z</time>
      </trkpt>
      <trkpt lat="42.035100" lon="-6.460220">
        <ele>926.552</ele>
        <time>2022-02-26T10:40:37Z</time>
      </trkpt>
      <trkpt lat="42.035210" lon="-6.460210">
        <ele>926.786</ele>
        <time>2022-02-26T10:41:17Z</time>
      </trkpt>
      <trkpt lat="42.035320" lon="-6.460200">
        <ele>926.952</ele>
        <time>2022-02-26T10:41:57Z</time>
      </trkpt>
      <trkpt lat="42.035450" lon="-6.460190">
        <ele>927.499</ele>
        <time>2022-02-26T10:42:37Z</time>
      </trkpt>
      <trkpt lat="42.035630" lon="-6.460170">
        <ele>928.280</ele>
        <time>2022-02-26T10:43:17Z</time>
      </trkpt>
      <trkpt lat="42.035810" lon="-6.460160">
        <ele>929.314</ele>
        <time>2022-02-26T10:43:57Z</time>
      </trkpt>
      <trkpt lat="42.036350" lon="-6.460110">
        <ele>930.679</ele>
        <time>2022-02-26T10:44:37Z</time>
      </trkpt>
      <trkpt lat="42.036530" lon="-6.460100">
        <ele>930.559</ele>
        <time>2022-02-26T10:45:17Z</time>
      </trkpt>
      <trkpt lat="42.036970" lon="-6.460060">
        <ele>931.703</ele>
        <time>2022-02-26T10:45:57Z</time>
      </trkpt>
      <trkpt lat="42.037070" lon="-6.460050">
        <ele>932.623</ele>
        <time>2022-02-26T10:46:37Z</time>
      </trkpt>
      <trkpt lat="42.037250" lon="-6.460040">
        <ele>934.208</ele>
        <time>2022-02-26T10:47:17Z</time>
      </trkpt>
      <trkpt lat="42.037430" lon="-6.460030">
        <ele>935.434</ele>
        <time>2022-02-26T10:47:57Z</time>
      </trkpt>
      <trkpt lat="42.037440" lon="-6.460030">
        <ele>935.581</ele>
        <time>2022-02-26T10:48:37Z</time>
      </trkpt>
      <trkpt lat="42.037610" lon="-6.460020">
        <ele>936.315</ele>
        <time>2022-02-26T10:49:17Z</time>
      </trkpt>
      <trkpt lat="42.037830" lon="-6.460000">
        <ele>937.431</ele>
        <time>2022-02-26T10:49:57Z</time>
      </trkpt>
      <trkpt lat="42.037910" lon="-6.459990">
        <ele>937.988</ele>
        <time>2022-02-26T10:50:37Z</time>
      </trkpt>
      <trkpt lat="42.038110" lon="-6.459970">
        <ele>938.989</ele>
        <time>2022-02-26T10:51:17Z</time>
      </trkpt>
      <trkpt lat="42.038510" lon="-6.459930">
        <ele>939.213</ele>
        <time>2022-02-26T10:51:57Z</time>
      </trkpt>
      <trkpt lat="42.038690" lon="-6.459910">
        <ele>939.428</ele>
        <time>2022-02-26T10:52:37Z</time>
      </trkpt>
      <trkpt lat="42.038860" lon="-6.459900">
        <ele>939.642</ele>
        <time>2022-02-26T10:53:17Z</time>
      </trkpt>
      <trkpt lat="42.039090" lon="-6.459870">
        <ele>940.622</ele>
        <time>2022-02-26T10:53:57Z</time>
      </trkpt>
      <trkpt lat="42.039380" lon="-6.459830">
        <ele>941.014</ele>
        <time>2022-02-26T10:54:37Z</time>
      </trkpt>
      <trkpt lat="42.039920" lon="-6.459800">
        <ele>940.708</ele>
        <time>2022-02-26T10:55:17Z</time>
      </trkpt>
      <trkpt lat="42.039940" lon="-6.459800">
        <ele>940.873</ele>
        <time>2022-02-26T10:55:57Z</time>
      </trkpt>
      <trkpt lat="42.039980" lon="-6.459800">
        <ele>940.920</ele>
        <time>2022-02-26T10:56:37Z</time>
      </trkpt>
      <trkpt lat="42.040150" lon="-6.459790">
        <ele>941.994</ele>
        <time>2022-02-26T10:57:17Z</time>
      </trkpt>
      <trkpt lat="42.040490" lon="-6.459760">
        <ele>942.970</ele>
        <time>2022-02-26T10:57:57Z</time>
      </trkpt>
      <trkpt lat="42.041570" lon="-6.459670">
        <ele>947.257</ele>
        <time>2022-02-26T10:58:37Z</time>
      </trkpt>
      <trkpt lat="42.041750" lon="-6.459660">
        <ele>947.828</ele>
        <time>2022-02-26T10:59:17Z</time>
      </trkpt>
      <trkpt lat="42.042180" lon="-6.459620">
        <ele>949.272</ele>
        <time>2022-02-26T10:59:57Z</time>
      </trkpt>
      <trkpt lat="42.042350" lon="-6.459600">
        <ele>950.917</ele>
        <time>2022-02-26T11:00:37Z</time>
      </trkpt>
      <trkpt lat="42.042351" lon="-6.459595">
        <ele>950.955</ele>
        <time>2022-02-26T11:01:17Z</time>
      </trkpt>
      <trkpt lat="42.042430" lon="-6.460010">
        <ele>952.007</ele>
        <time>2022-02-26T11:01:57Z</time>
      </trkpt>
      <trkpt lat="42.042470" lon="-6.460250">
        <ele>951.817</ele>
        <time>2022-02-26T11:02:37Z</time>
      </trkpt>
      <trkpt lat="42.042620" lon="-6.461010">
        <ele>953.408</ele>
        <time>2022-02-26T11:03:17Z</time>
      </trkpt>
      <trkpt lat="42.042970" lon="-6.462870">
        <ele>952.144</ele>
        <time>2022-02-26T11:03:57Z</time>
      </trkpt>
      <trkpt lat="42.042970" lon="-6.462890">
        <ele>952.171</ele>
        <time>2022-02-26T11:04:37Z</time>
      </trkpt>
      <trkpt lat="42.043240" lon="-6.464300">
        <ele>954.345</ele>
        <time>2022-02-26T11:05:17Z</time>
      </trkpt>
      <trkpt lat="42.043280" lon="-6.464490">
        <ele>954.671</ele>
        <time>2022-02-26T11:05:57Z</time>
      </trkpt>
      <trkpt lat="42.043300" lon="-6.464590">
        <ele>954.868</ele>
        <time>2022-02-26T11:06:37Z</time>
      </trkpt>
      <trkpt lat="42.043340" lon="-6.464820">
        <ele>955.039</ele>
        <time>2022-02-26T11:07:17Z</time>
      </trkpt>
      <trkpt lat="42.043470" lon="-6.465480">
        <ele>953.973</ele>
        <time>2022-02-26T11:07:57Z</time>
      </trkpt>
      <trkpt lat="42.043650" lon="-6.466260">
        <ele>953.058</ele>
        <time>2022-02-26T11:08:37Z</time>
      </trkpt>
      <trkpt lat="42.043690" lon="-6.466450">
        <ele>954.072</ele>
        <time>2022-02-26T11:09:17Z</time>
      </trkpt>
      <trkpt lat="42.043720" lon="-6.466570">
        <ele>954.613</ele>
        <time>2022-02-26T11:09:57Z</time>
      </trkpt>
      <trkpt lat="42.043860" lon="-6.467040">
        <ele>955.814</ele>
        <time>2022-02-26T11:10:37Z</time>
      </trkpt>
      <trkpt lat="42.043880" lon="-6.467150">
        <ele>955.908</ele>
        <time>2022-02-26T11:11:17Z</time>
      </trkpt>
      <trkpt lat="42.043900" lon="-6.467210">
        <ele>956.056</ele>
        <time>2022-02-26T11:11:57Z</time>
      </trkpt>
      <trkpt lat="42.044080" lon="-6.467720">
        <ele>955.283</ele>
        <time>2022-02-26T11:12:37Z</time>
      </trkpt>
      <trkpt lat="42.044190" lon="-6.468030">
        <ele>955.147</ele>
        <time>2022-02-26T11:13:17Z</time>
      </trkpt>
      <trkpt lat="42.044520" lon="-6.468960">
        <ele>955.313</ele>
        <time>2022-02-26T11:13:57Z</time>
      </trkpt>
      <trkpt lat="42.044600" lon="-6.469190">
        <ele>955.610</ele>
        <time>2022-02-26T11:14:37Z</time>
      </trkpt>
      <trkpt lat="42.044760" lon="-6.469620">
        <ele>956.991</ele>
        <time>2022-02-26T11:15:17Z</time>
      </trkpt>
      <trkpt lat="42.044880" lon="-6.470010">
        <ele>958.155</ele>
        <time>2022-02-26T11:15:57Z</time>
      </trkpt>
      <trkpt lat="42.044970" lon="-6.470230">
        <ele>958.010</ele>
        <time>2022-02-26T11:16:37Z</time>
      </trkpt>
      <trkpt lat="42.045030" lon="-6.470400">
        <ele>956.642</ele>
        <time>2022-02-26T11:17:17Z</time>
      </trkpt>
      <trkpt lat="42.045050" lon="-6.470480">
        <ele>955.822</ele>
        <time>2022-02-26T11:17:57Z</time>
      </trkpt>
      <trkpt lat="42.045100" lon="-6.470600">
        <ele>954.814</ele>
        <time>2022-02-26T11:18:37Z</time>
      </trkpt>
      <trkpt lat="42.045280" lon="-6.471110">
        <ele>957.008</ele>
        <time>2022-02-26T11:19:17Z</time>
      </trkpt>
      <trkpt lat="42.045700" lon="-6.472250">
        <ele>957.593</ele>
        <time>2022-02-26T11:19:57Z</time>
      </trkpt>
      <trkpt lat="42.045940" lon="-6.472920">
        <ele>956.660</ele>
        <time>2022-02-26T11:20:37Z</time>
      </trkpt>
      <trkpt lat="42.046010" lon="-6.473120">
        <ele>956.854</ele>
        <time>2022-02-26T11:21:17Z</time>
      </trkpt>
      <trkpt lat="42.046090" lon="-6.473340">
        <ele>956.850</ele>
        <time>2022-02-26T11:21:57Z</time>
      </trkpt>
      <trkpt lat="42.046310" lon="-6.473920">
        <ele>958.737</ele>
        <time>2022-02-26T11:22:37Z</time>
      </trkpt>
      <trkpt lat="42.047290" lon="-6.476600">
        <ele>960.248</ele>
        <time>2022-02-26T11:23:17Z</time>
      </trkpt>
      <trkpt lat="42.047520" lon="-6.477250">
        <ele>960.272</ele>
        <time>2022-02-26T11:23:57Z</time>
      </trkpt>
      <trkpt lat="42.047600" lon="-6.477470">
        <ele>961.187</ele>
        <time>2022-02-26T11:24:37Z</time>
      </trkpt>
      <trkpt lat="42.047680" lon="-6.477680">
        <ele>961.568</ele>
        <time>2022-02-26T11:25:17Z</time>
      </trkpt>
      <trkpt lat="42.047900" lon="-6.478270">
        <ele>964.342</ele>
        <time>2022-02-26T11:25:57Z</time>
      </trkpt>
      <trkpt lat="42.047920" lon="-6.478340">
        <ele>964.526</ele>
        <time>2022-02-26T11:26:37Z</time>
      </trkpt>
      <trkpt lat="42.048080" lon="-6.478770">
        <ele>962.908</ele>
        <time>2022-02-26T11:27:17Z</time>
      </trkpt>
      <trkpt lat="42.048680" lon="-6.480430">
        <ele>964.865</ele>
        <time>2022-02-26T11:27:57Z</time>
      </trkpt>
      <trkpt lat="42.048690" lon="-6.480450">
        <ele>964.852</ele>
        <time>2022-02-26T11:28:37Z</time>
      </trkpt>
      <trkpt lat="42.048690" lon="-6.480460">
        <ele>964.776</ele>
        <time>2022-02-26T11:29:17Z</time>
      </trkpt>
      <trkpt lat="42.048700" lon="-6.480480">
        <ele>964.772</ele>
        <time>2022-02-26T11:29:57Z</time>
      </trkpt>
      <trkpt lat="42.048760" lon="-6.480650">
        <ele>964.549</ele>
        <time>2022-02-26T11:30:37Z</time>
      </trkpt>
      <trkpt lat="42.048940" lon="-6.481130">
        <ele>965.030</ele>
        <time>2022-02-26T11:31:17Z</time>
      </trkpt>
      <trkpt lat="42.048950" lon="-6.481170">
        <ele>965.014</ele>
        <time>2022-02-26T11:31:57Z</time>
      </trkpt>
      <trkpt lat="42.048980" lon="-6.481250">
        <ele>965.079</ele>
        <time>2022-02-26T11:32:37Z</time>
      </trkpt>
      <trkpt lat="42.049000" lon="-6.481300">
        <ele>965.038</ele>
        <time>2022-02-26T11:33:17Z</time>
      </trkpt>
      <trkpt lat="42.049010" lon="-6.481340">
        <ele>965.070</ele>
        <time>2022-02-26T11:33:57Z</time>
      </trkpt>
      <trkpt lat="42.049040" lon="-6.481410">
        <ele>965.017</ele>
        <time>2022-02-26T11:34:37Z</time>
      </trkpt>
      <trkpt lat="42.049210" lon="-6.481890">
        <ele>964.508</ele>
        <time>2022-02-26T11:35:17Z</time>
      </trkpt>
      <trkpt lat="42.049270" lon="-6.482040">
        <ele>964.452</ele>
        <time>2022-02-26T11:35:57Z</time>
      </trkpt>
      <trkpt lat="42.049460" lon="-6.482570">
        <ele>964.839</ele>
        <time>2022-02-26T11:36:37Z</time>
      </trkpt>
      <trkpt lat="42.049470" lon="-6.482580">
        <ele>964.863</ele>
        <time>2022-02-26T11:37:17Z</time>
      </trkpt>
      <trkpt lat="42.049700" lon="-6.483180">
        <ele>964.969</ele>
        <time>2022-02-26T11:37:57Z</time>
      </trkpt>
      <trkpt lat="42.049720" lon="-6.483270">
        <ele>965.076</ele>
        <time>2022-02-26T11:38:37Z</time>
      </trkpt>
      <trkpt lat="42.049800" lon="-6.483530">
        <ele>964.557</ele>
        <time>2022-02-26T11:39:17Z</time>
      </trkpt>
      <trkpt lat="42.049810" lon="-6.483540">
        <ele>964.531</ele>
        <time>2022-02-26T11:39:57Z</time>
      </trkpt>
      <trkpt lat="42.049870" lon="-6.483780">
        <ele>964.276</ele>
        <time>2022-02-26T11:40:37Z</time>
      </trkpt>
      <trkpt lat="42.049870" lon="-6.483790">
        <ele>964.251</ele>
        <time>2022-02-26T11:41:17Z</time>
      </trkpt>
      <trkpt lat="42.049980" lon="-6.484350">
        <ele>964.601</ele>
        <time>2022-02-26T11:41:57Z</time>
      </trkpt>
      <trkpt lat="42.050010" lon="-6.484500">
        <ele>965.211</ele>
        <time>2022-02-26T11:42:37Z</time>
      </trkpt>
      <trkpt lat="42.050060" lon="-6.484740">
        <ele>966.508</ele>
        <time>2022-02-26T11:43:17Z</time>
      </trkpt>
      <trkpt lat="42.050070" lon="-6.484810">
        <ele>966.764</ele>
        <time>2022-02-26T11:43:57Z</time>
      </trkpt>
      <trkpt lat="42.050100" lon="-6.484940">
        <ele>967.291</ele>
        <time>2022-02-26T11:44:37Z</time>
      </trkpt>
      <trkpt lat="42.050220" lon="-6.485390">
        <ele>966.375</ele>
        <time>2022-02-26T11:45:17Z</time>
      </trkpt>
      <trkpt lat="42.050320" lon="-6.485640">
        <ele>966.081</ele>
        <time>2022-02-26T11:45:57Z</time>
      </trkpt>
      <trkpt lat="42.050570" lon="-6.486380">
        <ele>967.118</ele>
        <time>2022-02-26T11:46:37Z</time>
      </trkpt>
      <trkpt lat="42.050630" lon="-6.486560">
        <ele>966.849</ele>
        <time>2022-02-26T11:47:17Z</time>
      </trkpt>
      <trkpt lat="42.050740" lon="-6.486860">
        <ele>967.373</ele>
        <time>2022-02-26T11:47:57Z</time>
      </trkpt>
      <trkpt lat="42.050850" lon="-6.487160">
        <ele>968.168</ele>
        <time>2022-02-26T11:48:37Z</time>
      </trkpt>
      <trkpt lat="42.051040" lon="-6.487590">
        <ele>969.518</ele>
        <time>2022-02-26T11:49:17Z</time>
      </trkpt>
      <trkpt lat="42.051170" lon="-6.487920">
        <ele>970.098</ele>
        <time>2022-02-26T11:49:57Z</time>
      </trkpt>
      <trkpt lat="42.051190" lon="-6.487970">
        <ele>970.117</ele>
        <time>2022-02-26T11:50:37Z</time>
      </trkpt>
      <trkpt lat="42.051260" lon="-6.488200">
        <ele>970.308</ele>
        <time>2022-02-26T11:51:17Z</time>
      </trkpt>
      <trkpt lat="42.051290" lon="-6.488370">
        <ele>970.250</ele>
        <time>2022-02-26T11:51:57Z</time>
      </trkpt>
      <trkpt lat="42.051300" lon="-6.488460">
        <ele>970.287</ele>
        <time>2022-02-26T11:52:37Z</time>
      </trkpt>
      <trkpt lat="42.051350" lon="-6.488870">
        <ele>969.841</ele>
        <time>2022-02-26T11:53:17Z</time>
      </trkpt>
      <trkpt lat="42.051350" lon="-6.489010">
        <ele>969.777</ele>
        <time>2022-02-26T11:53:57Z</time>
      </trkpt>
      <trkpt lat="42.051350" lon="-6.489110">
        <ele>969.634</ele>
        <time>2022-02-26T11:54:37Z</time>
      </trkpt>
      <trkpt lat="42.051340" lon="-6.489740">
        <ele>969.695</ele>
        <time>2022-02-26T11:55:17Z</time>
      </trkpt>
      <trkpt lat="42.051380" lon="-6.490280">
        <ele>968.979</ele>
        <time>2022-02-26T11:55:57Z</time>
      </trkpt>
      <trkpt lat="42.051400" lon="-6.490370">
        <ele>968.434</ele>
        <time>2022-02-26T11:56:37Z</time>
      </trkpt>
      <trkpt lat="42.051430" lon="-6.490570">
        <ele>967.332</ele>
        <time>2022-02-26T11:57:17Z</time>
      </trkpt>
      <trkpt lat="42.051470" lon="-6.490800">
        <ele>968.292</ele>
        <time>2022-02-26T11:57:57Z</time>
      </trkpt>
      <trkpt lat="42.051490" lon="-6.490900">
        <ele>968.611</ele>
        <time>2022-02-26T11:58:37Z</time>
      </trkpt>
      <trkpt lat="42.051540" lon="-6.491170">
        <ele>969.908</ele>
        <time>2022-02-26T11:59:17Z</time>
      </trkpt>
      <trkpt lat="42.051600" lon="-6.491470">
        <ele>971.392</ele>
        <time>2022-02-26T11:59:57Z</time>
      </trkpt>
      <trkpt lat="42.051650" lon="-6.491700">
        <ele>972.019</ele>
        <time>2022-02-26T12:00:37Z</time>
      </trkpt>
      <trkpt lat="42.051770" lon="-6.492200">
        <ele>971.813</ele>
        <time>2022-02-26T12:01:17Z</time>
      </trkpt>
      <trkpt lat="42.051780" lon="-6.492250">
        <ele>971.839</ele>
        <time>2022-02-26T12:01:57Z</time>
      </trkpt>
      <trkpt lat="42.051920" lon="-6.492880">
        <ele>973.166</ele>
        <time>2022-02-26T12:02:37Z</time>
      </trkpt>
      <trkpt lat="42.051970" lon="-6.493110">
        <ele>974.597</ele>
        <time>2022-02-26T12:03:17Z</time>
      </trkpt>
      <trkpt lat="42.052070" lon="-6.493570">
        <ele>975.991</ele>
        <time>2022-02-26T12:03:57Z</time>
      </trkpt>
      <trkpt lat="42.052130" lon="-6.493860">
        <ele>976.386</ele>
        <time>2022-02-26T12:04:37Z</time>
      </trkpt>
      <trkpt lat="42.052140" lon="-6.493920">
        <ele>976.432</ele>
        <time>2022-02-26T12:05:17Z</time>
      </trkpt>
      <trkpt lat="42.052300" lon="-6.494690">
        <ele>978.692</ele>
        <time>2022-02-26T12:05:57Z</time>
      </trkpt>
      <trkpt lat="42.052340" lon="-6.494880">
        <ele>980.411</ele>
        <time>2022-02-26T12:06:37Z</time>
      </trkpt>
      <trkpt lat="42.052390" lon="-6.495100">
        <ele>982.508</ele>
        <time>2022-02-26T12:07:17Z</time>
      </trkpt>
      <trkpt lat="42.052550" lon="-6.495810">
        <ele>981.942</ele>
        <time>2022-02-26T12:07:57Z</time>
      </trkpt>
      <trkpt lat="42.052610" lon="-6.496100">
        <ele>981.639</ele>
        <time>2022-02-26T12:08:37Z</time>
      </trkpt>
      <trkpt lat="42.052650" lon="-6.496290">
        <ele>981.563</ele>
        <time>2022-02-26T12:09:17Z</time>
      </trkpt>
      <trkpt lat="42.052750" lon="-6.496810">
        <ele>982.789</ele>
        <time>2022-02-26T12:09:57Z</time>
      </trkpt>
      <trkpt lat="42.052780" lon="-6.496960">
        <ele>983.046</ele>
        <time>2022-02-26T12:10:37Z</time>
      </trkpt>
      <trkpt lat="42.052850" lon="-6.497270">
        <ele>982.217</ele>
        <time>2022-02-26T12:11:17Z</time>
      </trkpt>
      <trkpt lat="42.052850" lon="-6.497280">
        <ele>982.211</ele>
        <time>2022-02-26T12:11:57Z</time>
      </trkpt>
      <trkpt lat="42.052900" lon="-6.497510">
        <ele>981.336</ele>
        <time>2022-02-26T12:12:37Z</time>
      </trkpt>
      <trkpt lat="42.052960" lon="-6.497790">
        <ele>981.395</ele>
        <time>2022-02-26T12:13:17Z</time>
      </trkpt>
      <trkpt lat="42.053140" lon="-6.498430">
        <ele>978.949</ele>
        <time>2022-02-26T12:13:57Z</time>
      </trkpt>
      <trkpt lat="42.053160" lon="-6.498540">
        <ele>978.323</ele>
        <time>2022-02-26T12:14:37Z</time>
      </trkpt>
      <trkpt lat="42.053410" lon="-6.499320">
        <ele>972.308</ele>
        <time>2022-02-26T12:15:17Z</time>
      </trkpt>
      <trkpt lat="42.053590" lon="-6.499900">
        <ele>972.978</ele>
        <time>2022-02-26T12:15:57Z</time>
      </trkpt>
      <trkpt lat="42.053860" lon="-6.500870">
        <ele>973.435</ele>
        <time>2022-02-26T12:16:37Z</time>
      </trkpt>
      <trkpt lat="42.053870" lon="-6.500900">
        <ele>973.339</ele>
        <time>2022-02-26T12:17:17Z</time>
      </trkpt>
      <trkpt lat="42.054060" lon="-6.501490">
        <ele>969.195</ele>
        <time>2022-02-26T12:17:57Z</time>
      </trkpt>
      <trkpt lat="42.054200" lon="-6.501900">
        <ele>964.872</ele>
        <time>2022-02-26T12:18:37Z</time>
      </trkpt>
      <trkpt lat="42.054240" lon="-6.502000">
        <ele>964.593</ele>
        <time>2022-02-26T12:19:17Z</time>
      </trkpt>
      <trkpt lat="42.054290" lon="-6.502110">
        <ele>964.587</ele>
        <time>2022-02-26T12:19:57Z</time>
      </trkpt>
      <trkpt lat="42.054360" lon="-6.502290">
        <ele>964.452</ele>
        <time>2022-02-26T12:20:37Z</time>
      </trkpt>
      <trkpt lat="42.054450" lon="-6.502470">
        <ele>965.019</ele>
        <time>2022-02-26T12:21:17Z</time>
      </trkpt>
      <trkpt lat="42.054620" lon="-6.502780">
        <ele>964.609</ele>
        <time>2022-02-26T12:21:57Z</time>
      </trkpt>
      <trkpt lat="42.054750" lon="-6.503000">
        <ele>964.419</ele>
        <time>2022-02-26T12:22:37Z</time>
      </trkpt>
      <trkpt lat="42.054850" lon="-6.503180">
        <ele>964.208</ele>
        <time>2022-02-26T12:23:17Z</time>
      </trkpt>
      <trkpt lat="42.054860" lon="-6.503190">
        <ele>964.370</ele>
        <time>2022-02-26T12:23:57Z</time>
      </trkpt>
      <trkpt lat="42.055710" lon="-6.504720">
        <ele>962.197</ele>
        <time>2022-02-26T12:24:37Z</time>
      </trkpt>
      <trkpt lat="42.055720" lon="-6.504740">
        <ele>962.031</ele>
        <time>2022-02-26T12:25:17Z</time>
      </trkpt>
      <trkpt lat="42.055830" lon="-6.504940">
        <ele>960.647</ele>
        <time>2022-02-26T12:25:57Z</time>
      </trkpt>
      <trkpt lat="42.056160" lon="-6.505510">
        <ele>955.624</ele>
        <time>2022-02-26T12:26:37Z</time>
      </trkpt>
      <trkpt lat="42.056240" lon="-6.505650">
        <ele>954.995</ele>
        <time>2022-02-26T12:27:17Z</time>
      </trkpt>
      <trkpt lat="42.056270" lon="-6.505710">
        <ele>954.819</ele>
        <time>2022-02-26T12:27:57Z</time>
      </trkpt>
      <trkpt lat="42.056370" lon="-6.505890">
        <ele>954.594</ele>
        <time>2022-02-26T12:28:37Z</time>
      </trkpt>
      <trkpt lat="42.056510" lon="-6.506130">
        <ele>953.441</ele>
        <time>2022-02-26T12:29:17Z</time>
      </trkpt>
      <trkpt lat="42.056590" lon="-6.506280">
        <ele>953.681</ele>
        <time>2022-02-26T12:29:57Z</time>
      </trkpt>
      <trkpt lat="42.056740" lon="-6.506550">
        <ele>955.109</ele>
        <time>2022-02-26T12:30:37Z</time>
      </trkpt>
      <trkpt lat="42.056800" lon="-6.506680">
        <ele>956.008</ele>
        <time>2022-02-26T12:31:17Z</time>
      </trkpt>
      <trkpt lat="42.056880" lon="-6.506860">
        <ele>956.513</ele>
        <time>2022-02-26T12:31:57Z</time>
      </trkpt>
      <trkpt lat="42.056880" lon="-6.506890">
        <ele>956.510</ele>
        <time>2022-02-26T12:32:37Z</time>
      </trkpt>
      <trkpt lat="42.056980" lon="-6.507170">
        <ele>956.434</ele>
        <time>2022-02-26T12:33:17Z</time>
      </trkpt>
      <trkpt lat="42.057070" lon="-6.507510">
        <ele>956.980</ele>
        <time>2022-02-26T12:33:57Z</time>
      </trkpt>
      <trkpt lat="42.057120" lon="-6.507710">
        <ele>957.067</ele>
        <time>2022-02-26T12:34:37Z</time>
      </trkpt>
      <trkpt lat="42.057180" lon="-6.507970">
        <ele>958.138</ele>
        <time>2022-02-26T12:35:17Z</time>
      </trkpt>
      <trkpt lat="42.057220" lon="-6.508320">
        <ele>959.062</ele>
        <time>2022-02-26T12:35:57Z</time>
      </trkpt>
      <trkpt lat="42.057270" lon="-6.508830">
        <ele>960.157</ele>
        <time>2022-02-26T12:36:37Z</time>
      </trkpt>
      <trkpt lat="42.057280" lon="-6.508900">
        <ele>960.222</ele>
        <time>2022-02-26T12:37:17Z</time>
      </trkpt>
      <trkpt lat="42.057320" lon="-6.509390">
        <ele>958.562</ele>
        <time>2022-02-26T12:37:57Z</time>
      </trkpt>
      <trkpt lat="42.057320" lon="-6.509500">
        <ele>958.408</ele>
        <time>2022-02-26T12:38:37Z</time>
      </trkpt>
      <trkpt lat="42.057330" lon="-6.509630">
        <ele>958.408</ele>
        <time>2022-02-26T12:39:17Z</time>
      </trkpt>
      <trkpt lat="42.057360" lon="-6.510110">
        <ele>957.851</ele>
        <time>2022-02-26T12:39:57Z</time>
      </trkpt>
      <trkpt lat="42.057380" lon="-6.510370">
        <ele>957.478</ele>
        <time>2022-02-26T12:40:37Z</time>
      </trkpt>
      <trkpt lat="42.057450" lon="-6.511560">
        <ele>955.792</ele>
        <time>2022-02-26T12:41:17Z</time>
      </trkpt>
      <trkpt lat="42.057470" lon="-6.511910">
        <ele>953.958</ele>
        <time>2022-02-26T12:41:57Z</time>
      </trkpt>
      <trkpt lat="42.057500" lon="-6.512280">
        <ele>951.845</ele>
        <time>2022-02-26T12:42:37Z</time>
      </trkpt>
      <trkpt lat="42.057520" lon="-6.512520">
        <ele>951.336</ele>
        <time>2022-02-26T12:43:17Z</time>
      </trkpt>
      <trkpt lat="42.057520" lon="-6.512630">
        <ele>951.740</ele>
        <time>2022-02-26T12:43:57Z</time>
      </trkpt>
      <trkpt lat="42.057530" lon="-6.512770">
        <ele>952.415</ele>
        <time>2022-02-26T12:44:37Z</time>
      </trkpt>
      <trkpt lat="42.057560" lon="-6.513250">
        <ele>955.596</ele>
        <time>2022-02-26T12:45:17Z</time>
      </trkpt>
      <trkpt lat="42.057570" lon="-6.513380">
        <ele>956.631</ele>
        <time>2022-02-26T12:45:57Z</time>
      </trkpt>
      <trkpt lat="42.057610" lon="-6.513730">
        <ele>959.224</ele>
        <time>2022-02-26T12:46:37Z</time>
      </trkpt>
      <trkpt lat="42.057620" lon="-6.513900">
        <ele>959.708</ele>
        <time>2022-02-26T12:47:17Z</time>
      </trkpt>
      <trkpt lat="42.057630" lon="-6.513970">
        <ele>959.788</ele>
        <time>2022-02-26T12:47:57Z</time>
      </trkpt>
      <trkpt lat="42.057650" lon="-6.514180">
        <ele>959.625</ele>
        <time>2022-02-26T12:48:37Z</time>
      </trkpt>
      <trkpt lat="42.057680" lon="-6.514590">
        <ele>959.869</ele>
        <time>2022-02-26T12:49:17Z</time>
      </trkpt>
      <trkpt lat="42.057720" lon="-6.514860">
        <ele>960.355</ele>
        <time>2022-02-26T12:49:57Z</time>
      </trkpt>
      <trkpt lat="42.057770" lon="-6.515170">
        <ele>961.532</ele>
        <time>2022-02-26T12:50:37Z</time>
      </trkpt>
      <trkpt lat="42.057780" lon="-6.515250">
        <ele>961.933</ele>
        <time>2022-02-26T12:51:17Z</time>
      </trkpt>
      <trkpt lat="42.057880" lon="-6.515860">
        <ele>964.257</ele>
        <time>2022-02-26T12:51:57Z</time>
      </trkpt>
      <trkpt lat="42.057880" lon="-6.515870">
        <ele>964.282</ele>
        <time>2022-02-26T12:52:37Z</time>
      </trkpt>
      <trkpt lat="42.057950" lon="-6.516310">
        <ele>966.163</ele>
        <time>2022-02-26T12:53:17Z</time>
      </trkpt>
      <trkpt lat="42.058040" lon="-6.516780">
        <ele>966.844</ele>
        <time>2022-02-26T12:53:57Z</time>
      </trkpt>
      <trkpt lat="42.058110" lon="-6.517220">
        <ele>968.818</ele>
        <time>2022-02-26T12:54:37Z</time>
      </trkpt>
      <trkpt lat="42.058130" lon="-6.517300">
        <ele>969.608</ele>
        <time>2022-02-26T12:55:17Z</time>
      </trkpt>
      <trkpt lat="42.058180" lon="-6.517580">
        <ele>971.945</ele>
        <time>2022-02-26T12:55:57Z</time>
      </trkpt>
      <trkpt lat="42.058320" lon="-6.518290">
        <ele>975.112</ele>
        <time>2022-02-26T12:56:37Z</time>
      </trkpt>
      <trkpt lat="42.058340" lon="-6.518400">
        <ele>974.896</ele>
        <time>2022-02-26T12:57:17Z</time>
      </trkpt>
      <trkpt lat="42.058380" lon="-6.518590">
        <ele>974.492</ele>
        <time>2022-02-26T12:57:57Z</time>
      </trkpt>
      <trkpt lat="42.058460" lon="-6.519010">
        <ele>977.299</ele>
        <time>2022-02-26T12:58:37Z</time>
      </trkpt>
      <trkpt lat="42.058530" lon="-6.519310">
        <ele>979.410</ele>
        <time>2022-02-26T12:59:17Z</time>
      </trkpt>
      <trkpt lat="42.058530" lon="-6.519320">
        <ele>979.484</ele>
        <time>2022-02-26T12:59:57Z</time>
      </trkpt>
      <trkpt lat="42.058680" lon="-6.519970">
        <ele>979.859</ele>
        <time>2022-02-26T13:00:37Z</time>
      </trkpt>
      <trkpt lat="42.058730" lon="-6.520240">
        <ele>978.291</ele>
        <time>2022-02-26T13:01:17Z</time>
      </trkpt>
      <trkpt lat="42.058790" lon="-6.520500">
        <ele>977.581</ele>
        <time>2022-02-26T13:01:57Z</time>
      </trkpt>
      <trkpt lat="42.058830" lon="-6.520770">
        <ele>978.019</ele>
        <time>2022-02-26T13:02:37Z</time>
      </trkpt>
      <trkpt lat="42.058860" lon="-6.521000">
        <ele>978.608</ele>
        <time>2022-02-26T13:03:17Z</time>
      </trkpt>
      <trkpt lat="42.058880" lon="-6.521240">
        <ele>978.518</ele>
        <time>2022-02-26T13:03:57Z</time>
      </trkpt>
      <trkpt lat="42.058900" lon="-6.521460">
        <ele>978.175</ele>
        <time>2022-02-26T13:04:37Z</time>
      </trkpt>
      <trkpt lat="42.058890" lon="-6.521710">
        <ele>978.069</ele>
        <time>2022-02-26T13:05:17Z</time>
      </trkpt>
      <trkpt lat="42.058840" lon="-6.522010">
        <ele>977.535</ele>
        <time>2022-02-26T13:05:57Z</time>
      </trkpt>
      <trkpt lat="42.058800" lon="-6.522310">
        <ele>977.462</ele>
        <time>2022-02-26T13:06:37Z</time>
      </trkpt>
      <trkpt lat="42.058760" lon="-6.522570">
        <ele>978.013</ele>
        <time>2022-02-26T13:07:17Z</time>
      </trkpt>
      <trkpt lat="42.058750" lon="-6.522630">
        <ele>978.247</ele>
        <time>2022-02-26T13:07:57Z</time>
      </trkpt>
      <trkpt lat="42.058650" lon="-6.523220">
        <ele>978.572</ele>
        <time>2022-02-26T13:08:37Z</time>
      </trkpt>
      <trkpt lat="42.058570" lon="-6.523720">
        <ele>976.382</ele>
        <time>2022-02-26T13:09:17Z</time>
      </trkpt>
      <trkpt lat="42.058560" lon="-6.523810">
        <ele>975.943</ele>
        <time>2022-02-26T13:09:57Z</time>
      </trkpt>
      <trkpt lat="42.058530" lon="-6.523980">
        <ele>974.917</ele>
        <time>2022-02-26T13:10:37Z</time>
      </trkpt>
      <trkpt lat="42.058450" lon="-6.524530">
        <ele>972.808</ele>
        <time>2022-02-26T13:11:17Z</time>
      </trkpt>
      <trkpt lat="42.058410" lon="-6.524790">
        <ele>972.457</ele>
        <time>2022-02-26T13:11:57Z</time>
      </trkpt>
      <trkpt lat="42.058350" lon="-6.525080">
        <ele>971.514</ele>
        <time>2022-02-26T13:12:37Z</time>
      </trkpt>
      <trkpt lat="42.058300" lon="-6.525360">
        <ele>971.788</ele>
        <time>2022-02-26T13:13:17Z</time>
      </trkpt>
      <trkpt lat="42.058160" lon="-6.526280">
        <ele>974.644</ele>
        <time>2022-02-26T13:13:57Z</time>
      </trkpt>
      <trkpt lat="42.058060" lon="-6.526880">
        <ele>973.811</ele>
        <time>2022-02-26T13:14:37Z</time>
      </trkpt>
      <trkpt lat="42.058040" lon="-6.527000">
        <ele>974.582</ele>
        <time>2022-02-26T13:15:17Z</time>
      </trkpt>
      <trkpt lat="42.058020" lon="-6.527110">
        <ele>975.556</ele>
        <time>2022-02-26T13:15:57Z</time>
      </trkpt>
      <trkpt lat="42.057910" lon="-6.527820">
        <ele>979.671</ele>
        <time>2022-02-26T13:16:37Z</time>
      </trkpt>
      <trkpt lat="42.057850" lon="-6.528280">
        <ele>979.563</ele>
        <time>2022-02-26T13:17:17Z</time>
      </trkpt>
      <trkpt lat="42.057840" lon="-6.528330">
        <ele>979.244</ele>
        <time>2022-02-26T13:17:57Z</time>
      </trkpt>
      <trkpt lat="42.057800" lon="-6.528610">
        <ele>978.118</ele>
        <time>2022-02-26T13:18:37Z</time>
      </trkpt>
      <trkpt lat="42.057780" lon="-6.528780">
        <ele>977.408</ele>
        <time>2022-02-26T13:19:17Z</time>
      </trkpt>
      <trkpt lat="42.057760" lon="-6.528990">
        <ele>976.575</ele>
        <time>2022-02-26T13:19:57Z</time>
      </trkpt>
      <trkpt lat="42.057750" lon="-6.529140">
        <ele>975.952</ele>
        <time>2022-02-26T13:20:37Z</time>
      </trkpt>
      <trkpt lat="42.057740" lon="-6.529310">
        <ele>975.716</ele>
        <time>2022-02-26T13:21:17Z</time>
      </trkpt>
      <trkpt lat="42.057720" lon="-6.529520">
        <ele>975.892</ele>
        <time>2022-02-26T13:21:57Z</time>
      </trkpt>
      <trkpt lat="42.057690" lon="-6.530050">
        <ele>976.449</ele>
        <time>2022-02-26T13:22:37Z</time>
      </trkpt>
      <trkpt lat="42.057670" lon="-6.530460">
        <ele>976.720</ele>
        <time>2022-02-26T13:23:17Z</time>
      </trkpt>
      <trkpt lat="42.057660" lon="-6.530860">
        <ele>977.634</ele>
        <time>2022-02-26T13:23:57Z</time>
      </trkpt>
      <trkpt lat="42.057660" lon="-6.531360">
        <ele>978.529</ele>
        <time>2022-02-26T13:24:37Z</time>
      </trkpt>
      <trkpt lat="42.057670" lon="-6.532310">
        <ele>977.847</ele>
        <time>2022-02-26T13:25:17Z</time>
      </trkpt>
      <trkpt lat="42.057730" lon="-6.533660">
        <ele>977.029</ele>
        <time>2022-02-26T13:25:57Z</time>
      </trkpt>
      <trkpt lat="42.057730" lon="-6.533720">
        <ele>977.021</ele>
        <time>2022-02-26T13:26:37Z</time>
      </trkpt>
      <trkpt lat="42.057740" lon="-6.533910">
        <ele>977.108</ele>
        <time>2022-02-26T13:27:17Z</time>
      </trkpt>
      <trkpt lat="42.057750" lon="-6.534040">
        <ele>977.023</ele>
        <time>2022-02-26T13:27:57Z</time>
      </trkpt>
      <trkpt lat="42.057750" lon="-6.534260">
        <ele>976.050</ele>
        <time>2022-02-26T13:28:37Z</time>
      </trkpt>
      <trkpt lat="42.057740" lon="-6.534390">
        <ele>975.184</ele>
        <time>2022-02-26T13:29:17Z</time>
      </trkpt>
      <trkpt lat="42.057740" lon="-6.534550">
        <ele>974.080</ele>
        <time>2022-02-26T13:29:57Z</time>
      </trkpt>
      <trkpt lat="42.057730" lon="-6.534810">
        <ele>972.337</ele>
        <time>2022-02-26T13:30:37Z</time>
      </trkpt>
      <trkpt lat="42.057720" lon="-6.534870">
        <ele>971.978</ele>
        <time>2022-02-26T13:31:17Z</time>
      </trkpt>
      <trkpt lat="42.057710" lon="-6.535040">
        <ele>971.332</ele>
        <time>2022-02-26T13:31:57Z</time>
      </trkpt>
      <trkpt lat="42.057700" lon="-6.535120">
        <ele>971.217</ele>
        <time>2022-02-26T13:32:37Z</time>
      </trkpt>
      <trkpt lat="42.057690" lon="-6.535240">
        <ele>971.133</ele>
        <time>2022-02-26T13:33:17Z</time>
      </trkpt>
      <trkpt lat="42.057660" lon="-6.535430">
        <ele>971.223</ele>
        <time>2022-02-26T13:33:57Z</time>
      </trkpt>
      <trkpt lat="42.057630" lon="-6.535590">
        <ele>971.615</ele>
        <time>2022-02-26T13:34:37Z</time>
      </trkpt>
      <trkpt lat="42.057620" lon="-6.535710">
        <ele>972.108</ele>
        <time>2022-02-26T13:35:17Z</time>
      </trkpt>
      <trkpt lat="42.057590" lon="-6.535830">
        <ele>972.792</ele>
        <time>2022-02-26T13:35:57Z</time>
      </trkpt>
      <trkpt lat="42.057570" lon="-6.535920">
        <ele>973.579</ele>
        <time>2022-02-26T13:36:37Z</time>
      </trkpt>
      <trkpt lat="42.057540" lon="-6.536060">
        <ele>974.753</ele>
        <time>2022-02-26T13:37:17Z</time>
      </trkpt>
      <trkpt lat="42.057510" lon="-6.536190">
        <ele>976.289</ele>
        <time>2022-02-26T13:37:57Z</time>
      </trkpt>
      <trkpt lat="42.057480" lon="-6.536290">
        <ele>977.416</ele>
        <time>2022-02-26T13:38:37Z</time>
      </trkpt>
      <trkpt lat="42.057420" lon="-6.536500">
        <ele>979.737</ele>
        <time>2022-02-26T13:39:17Z</time>
      </trkpt>
      <trkpt lat="42.057330" lon="-6.536720">
        <ele>981.951</ele>
        <time>2022-02-26T13:39:57Z</time>
      </trkpt>
      <trkpt lat="42.057320" lon="-6.536750">
        <ele>982.146</ele>
        <time>2022-02-26T13:40:37Z</time>
      </trkpt>
      <trkpt lat="42.057170" lon="-6.537070">
        <ele>985.056</ele>
        <time>2022-02-26T13:41:17Z</time>
      </trkpt>
      <trkpt lat="42.057140" lon="-6.537130">
        <ele>985.459</ele>
        <time>2022-02-26T13:41:57Z</time>
      </trkpt>
      <trkpt lat="42.057020" lon="-6.537390">
        <ele>986.914</ele>
        <time>2022-02-26T13:42:37Z</time>
      </trkpt>
      <trkpt lat="42.056740" lon="-6.537910">
        <ele>987.608</ele>
        <time>2022-02-26T13:43:17Z</time>
      </trkpt>
      <trkpt lat="42.056580" lon="-6.538200">
        <ele>988.924</ele>
        <time>2022-02-26T13:43:57Z</time>
      </trkpt>
      <trkpt lat="42.056410" lon="-6.538520">
        <ele>989.711</ele>
        <time>2022-02-26T13:44:37Z</time>
      </trkpt>
      <trkpt lat="42.056250" lon="-6.538810">
        <ele>990.785</ele>
        <time>2022-02-26T13:45:17Z</time>
      </trkpt>
      <trkpt lat="42.056200" lon="-6.538910">
        <ele>991.151</ele>
        <time>2022-02-26T13:45:57Z</time>
      </trkpt>
      <trkpt lat="42.056110" lon="-6.539120">
        <ele>991.888</ele>
        <time>2022-02-26T13:46:37Z</time>
      </trkpt>
      <trkpt lat="42.056000" lon="-6.539380">
        <ele>991.279</ele>
        <time>2022-02-26T13:47:17Z</time>
      </trkpt>
      <trkpt lat="42.055930" lon="-6.539540">
        <ele>990.793</ele>
        <time>2022-02-26T13:47:57Z</time>
      </trkpt>
      <trkpt lat="42.055850" lon="-6.539750">
        <ele>990.238</ele>
        <time>2022-02-26T13:48:37Z</time>
      </trkpt>
      <trkpt lat="42.055750" lon="-6.539990">
        <ele>990.774</ele>
        <time>2022-02-26T13:49:17Z</time>
      </trkpt>
      <trkpt lat="42.055680" lon="-6.540180">
        <ele>991.156</ele>
        <time>2022-02-26T13:49:57Z</time>
      </trkpt>
      <trkpt lat="42.055520" lon="-6.540590">
        <ele>990.921</ele>
        <time>2022-02-26T13:50:37Z</time>
      </trkpt>
      <trkpt lat="42.055180" lon="-6.541470">
        <ele>989.608</ele>
        <time>2022-02-26T13:51:17Z</time>
      </trkpt>
      <trkpt lat="42.055020" lon="-6.541850">
        <ele>989.826</ele>
        <time>2022-02-26T13:51:57Z</time>
      </trkpt>
      <trkpt lat="42.054920" lon="-6.542090">
        <ele>990.773</ele>
        <time>2022-02-26T13:52:37Z</time>
      </trkpt>
      <trkpt lat="42.054770" lon="-6.542470">
        <ele>992.817</ele>
        <time>2022-02-26T13:53:17Z</time>
      </trkpt>
      <trkpt lat="42.054560" lon="-6.542970">
        <ele>992.853</ele>
        <time>2022-02-26T13:53:57Z</time>
      </trkpt>
      <trkpt lat="42.054410" lon="-6.543340">
        <ele>991.620</ele>
        <time>2022-02-26T13:54:37Z</time>
      </trkpt>
      <trkpt lat="42.054300" lon="-6.543650">
        <ele>991.071</ele>
        <time>2022-02-26T13:55:17Z</time>
      </trkpt>
      <trkpt lat="42.054250" lon="-6.543840">
        <ele>990.355</ele>
        <time>2022-02-26T13:55:57Z</time>
      </trkpt>
      <trkpt lat="42.054230" lon="-6.543900">
        <ele>989.980</ele>
        <time>2022-02-26T13:56:37Z</time>
      </trkpt>
      <trkpt lat="42.054230" lon="-6.543910">
        <ele>989.934</ele>
        <time>2022-02-26T13:57:17Z</time>
      </trkpt>
      <trkpt lat="42.054170" lon="-6.544130">
        <ele>989.055</ele>
        <time>2022-02-26T13:57:57Z</time>
      </trkpt>
      <trkpt lat="42.054170" lon="-6.544150">
        <ele>989.010</ele>
        <time>2022-02-26T13:58:37Z</time>
      </trkpt>
      <trkpt lat="42.054130" lon="-6.544390">
        <ele>989.308</ele>
        <time>2022-02-26T13:59:17Z</time>
      </trkpt>
      <trkpt lat="42.054100" lon="-6.544630">
        <ele>989.222</ele>
        <time>2022-02-26T13:59:57Z</time>
      </trkpt>
      <trkpt lat="42.054100" lon="-6.544890">
        <ele>989.319</ele>
        <time>2022-02-26T14:00:37Z</time>
      </trkpt>
      <trkpt lat="42.054090" lon="-6.545180">
        <ele>989.223</ele>
        <time>2022-02-26T14:01:17Z</time>
      </trkpt>
      <trkpt lat="42.054100" lon="-6.545580">
        <ele>989.519</ele>
        <time>2022-02-26T14:01:57Z</time>
      </trkpt>
      <trkpt lat="42.054110" lon="-6.546920">
        <ele>988.156</ele>
        <time>2022-02-26T14:02:37Z</time>
      </trkpt>
      <trkpt lat="42.054120" lon="-6.547460">
        <ele>987.067</ele>
        <time>2022-02-26T14:03:17Z</time>
      </trkpt>
      <trkpt lat="42.054120" lon="-6.547780">
        <ele>986.821</ele>
        <time>2022-02-26T14:03:57Z</time>
      </trkpt>
      <trkpt lat="42.054150" lon="-6.547990">
        <ele>986.996</ele>
        <time>2022-02-26T14:04:37Z</time>
      </trkpt>
      <trkpt lat="42.054150" lon="-6.548170">
        <ele>986.588</ele>
        <time>2022-02-26T14:05:17Z</time>
      </trkpt>
      <trkpt lat="42.054160" lon="-6.548410">
        <ele>986.024</ele>
        <time>2022-02-26T14:05:57Z</time>
      </trkpt>
      <trkpt lat="42.054190" lon="-6.549380">
        <ele>983.326</ele>
        <time>2022-02-26T14:06:37Z</time>
      </trkpt>
      <trkpt lat="42.054180" lon="-6.549990">
        <ele>981.108</ele>
        <time>2022-02-26T14:07:17Z</time>
      </trkpt>
      <trkpt lat="42.054200" lon="-6.550580">
        <ele>980.247</ele>
        <time>2022-02-26T14:07:57Z</time>
      </trkpt>
      <trkpt lat="42.054200" lon="-6.550670">
        <ele>980.234</ele>
        <time>2022-02-26T14:08:37Z</time>
      </trkpt>
      <trkpt lat="42.054210" lon="-6.551040">
        <ele>979.538</ele>
        <time>2022-02-26T14:09:17Z</time>
      </trkpt>
      <trkpt lat="42.054230" lon="-6.551720">
        <ele>978.314</ele>
        <time>2022-02-26T14:09:57Z</time>
      </trkpt>
      <trkpt lat="42.054230" lon="-6.552190">
        <ele>976.871</ele>
        <time>2022-02-26T14:10:37Z</time>
      </trkpt>
      <trkpt lat="42.054220" lon="-6.552330">
        <ele>975.232</ele>
        <time>2022-02-26T14:11:17Z</time>
      </trkpt>
      <trkpt lat="42.054210" lon="-6.552600">
        <ele>972.396</ele>
        <time>2022-02-26T14:11:57Z</time>
      </trkpt>
      <trkpt lat="42.054190" lon="-6.552820">
        <ele>971.111</ele>
        <time>2022-02-26T14:12:37Z</time>
      </trkpt>
      <trkpt lat="42.054160" lon="-6.553130">
        <ele>970.531</ele>
        <time>2022-02-26T14:13:17Z</time>
      </trkpt>
      <trkpt lat="42.054110" lon="-6.553310">
        <ele>971.661</ele>
        <time>2022-02-26T14:13:57Z</time>
      </trkpt>
      <trkpt lat="42.054030" lon="-6.553820">
        <ele>974.507</ele>
        <time>2022-02-26T14:14:37Z</time>
      </trkpt>
      <trkpt lat="42.053970" lon="-6.554080">
        <ele>975.508</ele>
        <time>2022-02-26T14:15:17Z</time>
      </trkpt>
      <trkpt lat="42.053960" lon="-6.554140">
        <ele>975.652</ele>
        <time>2022-02-26T14:15:57Z</time>
      </trkpt>
      <trkpt lat="42.053920" lon="-6.554310">
        <ele>975.859</ele>
        <time>2022-02-26T14:16:37Z</time>
      </trkpt>
      <trkpt lat="42.053830" lon="-6.554720">
        <ele>977.063</ele>
        <time>2022-02-26T14:17:17Z</time>
      </trkpt>
      <trkpt lat="42.053740" lon="-6.555170">
        <ele>979.459</ele>
        <time>2022-02-26T14:17:57Z</time>
      </trkpt>
      <trkpt lat="42.053670" lon="-6.555480">
        <ele>980.756</ele>
        <time>2022-02-26T14:18:37Z</time>
      </trkpt>
      <trkpt lat="42.053470" lon="-6.556420">
        <ele>981.477</ele>
        <time>2022-02-26T14:19:17Z</time>
      </trkpt>
      <trkpt lat="42.053370" lon="-6.556880">
        <ele>978.251</ele>
        <time>2022-02-26T14:19:57Z</time>
      </trkpt>
      <trkpt lat="42.053270" lon="-6.557300">
        <ele>975.446</ele>
        <time>2022-02-26T14:20:37Z</time>
      </trkpt>
      <trkpt lat="42.053090" lon="-6.558030">
        <ele>972.296</ele>
        <time>2022-02-26T14:21:17Z</time>
      </trkpt>
      <trkpt lat="42.053040" lon="-6.558310">
        <ele>972.731</ele>
        <time>2022-02-26T14:21:57Z</time>
      </trkpt>
      <trkpt lat="42.052980" lon="-6.558500">
        <ele>972.824</ele>
        <time>2022-02-26T14:22:37Z</time>
      </trkpt>
      <trkpt lat="42.052900" lon="-6.558740">
        <ele>972.808</ele>
        <time>2022-02-26T14:23:17Z</time>
      </trkpt>
      <trkpt lat="42.052800" lon="-6.559040">
        <ele>972.288</ele>
        <time>2022-02-26T14:23:57Z</time>
      </trkpt>
      <trkpt lat="42.052740" lon="-6.559190">
        <ele>971.945</ele>
        <time>2022-02-26T14:24:37Z</time>
      </trkpt>
      <trkpt lat="42.052560" lon="-6.559690">
        <ele>973.639</ele>
        <time>2022-02-26T14:25:17Z</time>
      </trkpt>
      <trkpt lat="42.052370" lon="-6.560070">
        <ele>975.135</ele>
        <time>2022-02-26T14:25:57Z</time>
      </trkpt>
      <trkpt lat="42.052120" lon="-6.560570">
        <ele>975.792</ele>
        <time>2022-02-26T14:26:37Z</time>
      </trkpt>
      <trkpt lat="42.052110" lon="-6.560590">
        <ele>975.753</ele>
        <time>2022-02-26T14:27:17Z</time>
      </trkpt>
      <trkpt lat="42.052070" lon="-6.560650">
        <ele>975.847</ele>
        <time>2022-02-26T14:27:57Z</time>
      </trkpt>
      <trkpt lat="42.051860" lon="-6.561010">
        <ele>976.362</ele>
        <time>2022-02-26T14:28:37Z</time>
      </trkpt>
      <trkpt lat="42.051830" lon="-6.561060">
        <ele>976.418</ele>
        <time>2022-02-26T14:29:17Z</time>
      </trkpt>
      <trkpt lat="42.051710" lon="-6.561280">
        <ele>976.398</ele>
        <time>2022-02-26T14:29:57Z</time>
      </trkpt>
      <trkpt lat="42.051590" lon="-6.561620">
        <ele>975.117</ele>
        <time>2022-02-26T14:30:37Z</time>
      </trkpt>
      <trkpt lat="42.051280" lon="-6.562160">
        <ele>975.908</ele>
        <time>2022-02-26T14:31:17Z</time>
      </trkpt>
      <trkpt lat="42.050920" lon="-6.562780">
        <ele>975.670</ele>
        <time>2022-02-26T14:31:57Z</time>
      </trkpt>
      <trkpt lat="42.050790" lon="-6.562950">
        <ele>974.827</ele>
        <time>2022-02-26T14:32:37Z</time>
      </trkpt>
      <trkpt lat="42.050670" lon="-6.563190">
        <ele>974.681</ele>
        <time>2022-02-26T14:33:17Z</time>
      </trkpt>
      <trkpt lat="42.050580" lon="-6.563380">
        <ele>974.287</ele>
        <time>2022-02-26T14:33:57Z</time>
      </trkpt>
      <trkpt lat="42.050500" lon="-6.563560">
        <ele>973.654</ele>
        <time>2022-02-26T14:34:37Z</time>
      </trkpt>
      <trkpt lat="42.050430" lon="-6.563760">
        <ele>973.675</ele>
        <time>2022-02-26T14:35:17Z</time>
      </trkpt>
      <trkpt lat="42.050390" lon="-6.563920">
        <ele>973.889</ele>
        <time>2022-02-26T14:35:57Z</time>
      </trkpt>
      <trkpt lat="42.050320" lon="-6.564170">
        <ele>973.334</ele>
        <time>2022-02-26T14:36:37Z</time>
      </trkpt>
      <trkpt lat="42.050260" lon="-6.564420">
        <ele>972.935</ele>
        <time>2022-02-26T14:37:17Z</time>
      </trkpt>
      <trkpt lat="42.050260" lon="-6.564430">
        <ele>972.986</ele>
        <time>2022-02-26T14:37:57Z</time>
      </trkpt>
      <trkpt lat="42.050230" lon="-6.564530">
        <ele>972.414</ele>
        <time>2022-02-26T14:38:37Z</time>
      </trkpt>
      <trkpt lat="42.050170" lon="-6.564790">
        <ele>971.808</ele>
        <time>2022-02-26T14:39:17Z</time>
      </trkpt>
      <trkpt lat="42.050150" lon="-6.564860">
        <ele>971.892</ele>
        <time>2022-02-26T14:39:57Z</time>
      </trkpt>
      <trkpt lat="42.050090" lon="-6.565120">
        <ele>971.979</ele>
        <time>2022-02-26T14:40:37Z</time>
      </trkpt>
      <trkpt lat="42.049910" lon="-6.565970">
        <ele>969.713</ele>
        <time>2022-02-26T14:41:17Z</time>
      </trkpt>
      <trkpt lat="42.049890" lon="-6.566040">
        <ele>969.799</ele>
        <time>2022-02-26T14:41:57Z</time>
      </trkpt>
      <trkpt lat="42.049860" lon="-6.566190">
        <ele>969.536</ele>
        <time>2022-02-26T14:42:37Z</time>
      </trkpt>
      <trkpt lat="42.049840" lon="-6.566270">
        <ele>969.387</ele>
        <time>2022-02-26T14:43:17Z</time>
      </trkpt>
      <trkpt lat="42.049670" lon="-6.566990">
        <ele>968.541</ele>
        <time>2022-02-26T14:43:57Z</time>
      </trkpt>
      <trkpt lat="42.049660" lon="-6.567060">
        <ele>968.266</ele>
        <time>2022-02-26T14:44:37Z</time>
      </trkpt>
      <trkpt lat="42.049530" lon="-6.567700">
        <ele>966.676</ele>
        <time>2022-02-26T14:45:17Z</time>
      </trkpt>
      <trkpt lat="42.049500" lon="-6.567890">
        <ele>966.090</ele>
        <time>2022-02-26T14:45:57Z</time>
      </trkpt>
      <trkpt lat="42.049410" lon="-6.568370">
        <ele>963.919</ele>
        <time>2022-02-26T14:46:37Z</time>
      </trkpt>
      <trkpt lat="42.049410" lon="-6.568390">
        <ele>963.808</ele>
        <time>2022-02-26T14:47:17Z</time>
      </trkpt>
      <trkpt lat="42.049380" lon="-6.568630">
        <ele>962.896</ele>
        <time>2022-02-26T14:47:57Z</time>
      </trkpt>
      <trkpt lat="42.049360" lon="-6.568980">
        <ele>962.193</ele>
        <time>2022-02-26T14:48:37Z</time>
      </trkpt>
      <trkpt lat="42.049340" lon="-6.569580">
        <ele>959.827</ele>
        <time>2022-02-26T14:49:17Z</time>
      </trkpt>
      <trkpt lat="42.049340" lon="-6.569680">
        <ele>959.483</ele>
        <time>2022-02-26T14:49:57Z</time>
      </trkpt>
      <trkpt lat="42.049320" lon="-6.570520">
        <ele>957.290</ele>
        <time>2022-02-26T14:50:37Z</time>
      </trkpt>
      <trkpt lat="42.049300" lon="-6.571080">
        <ele>956.931</ele>
        <time>2022-02-26T14:51:17Z</time>
      </trkpt>
      <trkpt lat="42.049280" lon="-6.572300">
        <ele>958.465</ele>
        <time>2022-02-26T14:51:57Z</time>
      </trkpt>
      <trkpt lat="42.049270" lon="-6.572540">
        <ele>958.410</ele>
        <time>2022-02-26T14:52:37Z</time>
      </trkpt>
      <trkpt lat="42.049270" lon="-6.572660">
        <ele>958.481</ele>
        <time>2022-02-26T14:53:17Z</time>
      </trkpt>
      <trkpt lat="42.049250" lon="-6.573170">
        <ele>957.961</ele>
        <time>2022-02-26T14:53:57Z</time>
      </trkpt>
      <trkpt lat="42.049250" lon="-6.573180">
        <ele>957.917</ele>
        <time>2022-02-26T14:54:37Z</time>
      </trkpt>
      <trkpt lat="42.049240" lon="-6.573470">
        <ele>957.308</ele>
        <time>2022-02-26T14:55:17Z</time>
      </trkpt>
      <trkpt lat="42.049240" lon="-6.573830">
        <ele>956.087</ele>
        <time>2022-02-26T14:55:57Z</time>
      </trkpt>
      <trkpt lat="42.049230" lon="-6.574050">
        <ele>955.294</ele>
        <time>2022-02-26T14:56:37Z</time>
      </trkpt>
      <trkpt lat="42.049240" lon="-6.574140">
        <ele>955.118</ele>
        <time>2022-02-26T14:57:17Z</time>
      </trkpt>
      <trkpt lat="42.049250" lon="-6.574310">
        <ele>955.294</ele>
        <time>2022-02-26T14:57:57Z</time>
      </trkpt>
      <trkpt lat="42.049260" lon="-6.574490">
        <ele>955.131</ele>
        <time>2022-02-26T14:58:37Z</time>
      </trkpt>
      <trkpt lat="42.049280" lon="-6.574650">
        <ele>954.652</ele>
        <time>2022-02-26T14:59:17Z</time>
      </trkpt>
      <trkpt lat="42.049300" lon="-6.574810">
        <ele>954.086</ele>
        <time>2022-02-26T14:59:57Z</time>
      </trkpt>
      <trkpt lat="42.049330" lon="-6.574990">
        <ele>953.421</ele>
        <time>2022-02-26T15:00:37Z</time>
      </trkpt>
      <trkpt lat="42.049370" lon="-6.575180">
        <ele>952.668</ele>
        <time>2022-02-26T15:01:17Z</time>
      </trkpt>
      <trkpt lat="42.049390" lon="-6.575290">
        <ele>952.142</ele>
        <time>2022-02-26T15:01:57Z</time>
      </trkpt>
      <trkpt lat="42.049410" lon="-6.575410">
        <ele>951.626</ele>
        <time>2022-02-26T15:02:37Z</time>
      </trkpt>
      <trkpt lat="42.049450" lon="-6.575710">
        <ele>950.508</ele>
        <time>2022-02-26T15:03:17Z</time>
      </trkpt>
      <trkpt lat="42.049460" lon="-6.575770">
        <ele>950.425</ele>
        <time>2022-02-26T15:03:57Z</time>
      </trkpt>
      <trkpt lat="42.049500" lon="-6.576120">
        <ele>950.622</ele>
        <time>2022-02-26T15:04:37Z</time>
      </trkpt>
      <trkpt lat="42.049510" lon="-6.576430">
        <ele>951.586</ele>
        <time>2022-02-26T15:05:17Z</time>
      </trkpt>
      <trkpt lat="42.049510" lon="-6.576530">
        <ele>951.562</ele>
        <time>2022-02-26T15:05:57Z</time>
      </trkpt>
      <trkpt lat="42.049500" lon="-6.576660">
        <ele>951.479</ele>
        <time>2022-02-26T15:06:37Z</time>
      </trkpt>
      <trkpt lat="42.049490" lon="-6.576790">
        <ele>951.050</ele>
        <time>2022-02-26T15:07:17Z</time>
      </trkpt>
      <trkpt lat="42.049470" lon="-6.577010">
        <ele>950.394</ele>
        <time>2022-02-26T15:07:57Z</time>
      </trkpt>
      <trkpt lat="42.049340" lon="-6.577890">
        <ele>948.539</ele>
        <time>2022-02-26T15:08:37Z</time>
      </trkpt>
      <trkpt lat="42.049330" lon="-6.577920">
        <ele>948.498</ele>
        <time>2022-02-26T15:09:17Z</time>
      </trkpt>
      <trkpt lat="42.049290" lon="-6.578180">
        <ele>948.215</ele>
        <time>2022-02-26T15:09:57Z</time>
      </trkpt>
      <trkpt lat="42.049120" lon="-6.579370">
        <ele>940.326</ele>
        <time>2022-02-26T15:10:37Z</time>
      </trkpt>
      <trkpt lat="42.049090" lon="-6.579550">
        <ele>939.308</ele>
        <time>2022-02-26T15:11:17Z</time>
      </trkpt>
      <trkpt lat="42.049040" lon="-6.579860">
        <ele>938.538</ele>
        <time>2022-02-26T15:11:57Z</time>
      </trkpt>
      <trkpt lat="42.049020" lon="-6.580040">
        <ele>938.545</ele>
        <time>2022-02-26T15:12:37Z</time>
      </trkpt>
      <trkpt lat="42.048930" lon="-6.580580">
        <ele>938.439</ele>
        <time>2022-02-26T15:13:17Z</time>
      </trkpt>
      <trkpt lat="42.048910" lon="-6.580760">
        <ele>938.825</ele>
        <time>2022-02-26T15:13:57Z</time>
      </trkpt>
      <trkpt lat="42.048690" lon="-6.582180">
        <ele>934.982</ele>
        <time>2022-02-26T15:14:37Z</time>
      </trkpt>
      <trkpt lat="42.048680" lon="-6.582270">
        <ele>935.073</ele>
        <time>2022-02-26T15:15:17Z</time>
      </trkpt>
      <trkpt lat="42.048640" lon="-6.582540">
        <ele>936.227</ele>
        <time>2022-02-26T15:15:57Z</time>
      </trkpt>
      <trkpt lat="42.048620" lon="-6.582640">
        <ele>936.542</ele>
        <time>2022-02-26T15:16:37Z</time>
      </trkpt>
      <trkpt lat="42.048510" lon="-6.583330">
        <ele>939.468</ele>
        <time>2022-02-26T15:17:17Z</time>
      </trkpt>
      <trkpt lat="42.048430" lon="-6.583840">
        <ele>939.342</ele>
        <time>2022-02-26T15:17:57Z</time>
      </trkpt>
      <trkpt lat="42.048430" lon="-6.583860">
        <ele>939.326</ele>
        <time>2022-02-26T15:18:37Z</time>
      </trkpt>
      <trkpt lat="42.048370" lon="-6.584320">
        <ele>939.208</ele>
        <time>2022-02-26T15:19:17Z</time>
      </trkpt>
      <trkpt lat="42.048300" lon="-6.584790">
        <ele>937.735</ele>
        <time>2022-02-26T15:19:57Z</time>
      </trkpt>
      <trkpt lat="42.048290" lon="-6.584850">
        <ele>937.592</ele>
        <time>2022-02-26T15:20:37Z</time>
      </trkpt>
      <trkpt lat="42.048250" lon="-6.585280">
        <ele>935.456</ele>
        <time>2022-02-26T15:21:17Z</time>
      </trkpt>
      <trkpt lat="42.048220" lon="-6.585640">
        <ele>933.982</ele>
        <time>2022-02-26T15:21:57Z</time>
      </trkpt>
      <trkpt lat="42.048230" lon="-6.586330">
        <ele>932.619</ele>
        <time>2022-02-26T15:22:37Z</time>
      </trkpt>
      <trkpt lat="42.048250" lon="-6.586670">
        <ele>932.720</ele>
        <time>2022-02-26T15:23:17Z</time>
      </trkpt>
      <trkpt lat="42.048290" lon="-6.586960">
        <ele>931.654</ele>
        <time>2022-02-26T15:23:57Z</time>
      </trkpt>
      <trkpt lat="42.048300" lon="-6.587040">
        <ele>931.189</ele>
        <time>2022-02-26T15:24:37Z</time>
      </trkpt>
      <trkpt lat="42.048360" lon="-6.587420">
        <ele>928.856</ele>
        <time>2022-02-26T15:25:17Z</time>
      </trkpt>
      <trkpt lat="42.048370" lon="-6.587430">
        <ele>928.959</ele>
        <time>2022-02-26T15:25:57Z</time>
      </trkpt>
      <trkpt lat="42.048490" lon="-6.587900">
        <ele>927.014</ele>
        <time>2022-02-26T15:26:37Z</time>
      </trkpt>
      <trkpt lat="42.048720" lon="-6.588580">
        <ele>925.108</ele>
        <time>2022-02-26T15:27:17Z</time>
      </trkpt>
      <trkpt lat="42.048970" lon="-6.589290">
        <ele>919.834</ele>
        <time>2022-02-26T15:27:57Z</time>
      </trkpt>
      <trkpt lat="42.049100" lon="-6.589640">
        <ele>917.691</ele>
        <time>2022-02-26T15:28:37Z</time>
      </trkpt>
      <trkpt lat="42.049250" lon="-6.590080">
        <ele>915.335</ele>
        <time>2022-02-26T15:29:17Z</time>
      </trkpt>
      <trkpt lat="42.049310" lon="-6.590240">
        <ele>914.921</ele>
        <time>2022-02-26T15:29:57Z</time>
      </trkpt>
      <trkpt lat="42.049560" lon="-6.590950">
        <ele>915.978</ele>
        <time>2022-02-26T15:30:37Z</time>
      </trkpt>
      <trkpt lat="42.049640" lon="-6.591170">
        <ele>915.579</ele>
        <time>2022-02-26T15:31:17Z</time>
      </trkpt>
      <trkpt lat="42.049720" lon="-6.591390">
        <ele>914.083</ele>
        <time>2022-02-26T15:31:57Z</time>
      </trkpt>
      <trkpt lat="42.049900" lon="-6.591880">
        <ele>909.368</ele>
        <time>2022-02-26T15:32:37Z</time>
      </trkpt>
      <trkpt lat="42.050160" lon="-6.592510">
        <ele>907.083</ele>
        <time>2022-02-26T15:33:17Z</time>
      </trkpt>
      <trkpt lat="42.050380" lon="-6.593010">
        <ele>908.625</ele>
        <time>2022-02-26T15:33:57Z</time>
      </trkpt>
      <trkpt lat="42.050440" lon="-6.593130">
        <ele>908.717</ele>
        <time>2022-02-26T15:34:37Z</time>
      </trkpt>
      <trkpt lat="42.050530" lon="-6.593340">
        <ele>909.208</ele>
        <time>2022-02-26T15:35:17Z</time>
      </trkpt>
      <trkpt lat="42.050870" lon="-6.594060">
        <ele>916.457</ele>
        <time>2022-02-26T15:35:57Z</time>
      </trkpt>
      <trkpt lat="42.051030" lon="-6.594350">
        <ele>918.414</ele>
        <time>2022-02-26T15:36:37Z</time>
      </trkpt>
      <trkpt lat="42.051150" lon="-6.594560">
        <ele>918.928</ele>
        <time>2022-02-26T15:37:17Z</time>
      </trkpt>
      <trkpt lat="42.051250" lon="-6.594730">
        <ele>918.544</ele>
        <time>2022-02-26T15:37:57Z</time>
      </trkpt>
      <trkpt lat="42.051570" lon="-6.595260">
        <ele>920.841</ele>
        <time>2022-02-26T15:38:37Z</time>
      </trkpt>
      <trkpt lat="42.051710" lon="-6.595480">
        <ele>922.322</ele>
        <time>2022-02-26T15:39:17Z</time>
      </trkpt>
      <trkpt lat="42.052000" lon="-6.595950">
        <ele>922.436</ele>
        <time>2022-02-26T15:39:57Z</time>
      </trkpt>
      <trkpt lat="42.052180" lon="-6.596210">
        <ele>920.821</ele>
        <time>2022-02-26T15:40:37Z</time>
      </trkpt>
      <trkpt lat="42.052300" lon="-6.596390">
        <ele>921.011</ele>
        <time>2022-02-26T15:41:17Z</time>
      </trkpt>
      <trkpt lat="42.052500" lon="-6.596680">
        <ele>922.221</ele>
        <time>2022-02-26T15:41:57Z</time>
      </trkpt>
      <trkpt lat="42.052960" lon="-6.597390">
        <ele>931.303</ele>
        <time>2022-02-26T15:42:37Z</time>
      </trkpt>
      <trkpt lat="42.053060" lon="-6.597570">
        <ele>931.208</ele>
        <time>2022-02-26T15:43:17Z</time>
      </trkpt>
      <trkpt lat="42.053160" lon="-6.597760">
        <ele>930.830</ele>
        <time>2022-02-26T15:43:57Z</time>
      </trkpt>
      <trkpt lat="42.053210" lon="-6.597890">
        <ele>931.097</ele>
        <time>2022-02-26T15:44:37Z</time>
      </trkpt>
      <trkpt lat="42.053260" lon="-6.598020">
        <ele>931.311</ele>
        <time>2022-02-26T15:45:17Z</time>
      </trkpt>
      <trkpt lat="42.053290" lon="-6.598100">
        <ele>931.687</ele>
        <time>2022-02-26T15:45:57Z</time>
      </trkpt>
      <trkpt lat="42.053360" lon="-6.598270">
        <ele>932.554</ele>
        <time>2022-02-26T15:46:37Z</time>
      </trkpt>
      <trkpt lat="42.053420" lon="-6.598450">
        <ele>933.435</ele>
        <time>2022-02-26T15:47:17Z</time>
      </trkpt>
      <trkpt lat="42.053490" lon="-6.598640">
        <ele>934.019</ele>
        <time>2022-02-26T15:47:57Z</time>
      </trkpt>
      <trkpt lat="42.053580" lon="-6.598990">
        <ele>934.214</ele>
        <time>2022-02-26T15:48:37Z</time>
      </trkpt>
      <trkpt lat="42.053680" lon="-6.599420">
        <ele>934.759</ele>
        <time>2022-02-26T15:49:17Z</time>
      </trkpt>
      <trkpt lat="42.053800" lon="-6.599950">
        <ele>937.303</ele>
        <time>2022-02-26T15:49:57Z</time>
      </trkpt>
      <trkpt lat="42.053880" lon="-6.600450">
        <ele>937.723</ele>
        <time>2022-02-26T15:50:37Z</time>
      </trkpt>
      <trkpt lat="42.053950" lon="-6.600800">
        <ele>939.608</ele>
        <time>2022-02-26T15:51:17Z</time>
      </trkpt>
      <trkpt lat="42.054010" lon="-6.601160">
        <ele>940.884</ele>
        <time>2022-02-26T15:51:57Z</time>
      </trkpt>
      <trkpt lat="42.054040" lon="-6.601330">
        <ele>941.711</ele>
        <time>2022-02-26T15:52:37Z</time>
      </trkpt>
      <trkpt lat="42.054060" lon="-6.601460">
        <ele>942.065</ele>
        <time>2022-02-26T15:53:17Z</time>
      </trkpt>
      <trkpt lat="42.054110" lon="-6.601910">
        <ele>942.051</ele>
        <time>2022-02-26T15:53:57Z</time>
      </trkpt>
      <trkpt lat="42.054150" lon="-6.602250">
        <ele>941.928</ele>
        <time>2022-02-26T15:54:37Z</time>
      </trkpt>
      <trkpt lat="42.054190" lon="-6.602520">
        <ele>942.189</ele>
        <time>2022-02-26T15:55:17Z</time>
      </trkpt>
      <trkpt lat="42.054240" lon="-6.602830">
        <ele>942.693</ele>
        <time>2022-02-26T15:55:57Z</time>
      </trkpt>
      <trkpt lat="42.054340" lon="-6.603510">
        <ele>945.688</ele>
        <time>2022-02-26T15:56:37Z</time>
      </trkpt>
      <trkpt lat="42.054630" lon="-6.605750">
        <ele>952.136</ele>
        <time>2022-02-26T15:57:17Z</time>
      </trkpt>
      <trkpt lat="42.054770" lon="-6.606710">
        <ele>955.317</ele>
        <time>2022-02-26T15:57:57Z</time>
      </trkpt>
      <trkpt lat="42.054790" lon="-6.606860">
        <ele>955.918</ele>
        <time>2022-02-26T15:58:37Z</time>
      </trkpt>
      <trkpt lat="42.054910" lon="-6.607410">
        <ele>955.508</ele>
        <time>2022-02-26T15:59:17Z</time>
      </trkpt>
      <trkpt lat="42.054980" lon="-6.607730">
        <ele>954.292</ele>
        <time>2022-02-26T15:59:57Z</time>
      </trkpt>
      <trkpt lat="42.055050" lon="-6.608060">
        <ele>952.039</ele>
        <time>2022-02-26T16:00:37Z</time>
      </trkpt>
      <trkpt lat="42.055140" lon="-6.608320">
        <ele>951.033</ele>
        <time>2022-02-26T16:01:17Z</time>
      </trkpt>
      <trkpt lat="42.055210" lon="-6.608530">
        <ele>950.679</ele>
        <time>2022-02-26T16:01:57Z</time>
      </trkpt>
      <trkpt lat="42.055280" lon="-6.608770">
        <ele>950.046</ele>
        <time>2022-02-26T16:02:37Z</time>
      </trkpt>
      <trkpt lat="42.055370" lon="-6.609040">
        <ele>949.397</ele>
        <time>2022-02-26T16:03:17Z</time>
      </trkpt>
      <trkpt lat="42.055630" lon="-6.609680">
        <ele>948.211</ele>
        <time>2022-02-26T16:03:57Z</time>
      </trkpt>
      <trkpt lat="42.055880" lon="-6.610280">
        <ele>946.516</ele>
        <time>2022-02-26T16:04:37Z</time>
      </trkpt>
      <trkpt lat="42.055910" lon="-6.610380">
        <ele>946.699</ele>
        <time>2022-02-26T16:05:17Z</time>
      </trkpt>
      <trkpt lat="42.056090" lon="-6.610810">
        <ele>947.907</ele>
        <time>2022-02-26T16:05:57Z</time>
      </trkpt>
      <trkpt lat="42.056100" lon="-6.610830">
        <ele>947.927</ele>
        <time>2022-02-26T16:06:37Z</time>
      </trkpt>
      <trkpt lat="42.056180" lon="-6.611010">
        <ele>947.108</ele>
        <time>2022-02-26T16:07:17Z</time>
      </trkpt>
      <trkpt lat="42.056270" lon="-6.611220">
        <ele>946.518</ele>
        <time>2022-02-26T16:07:57Z</time>
      </trkpt>
      <trkpt lat="42.056320" lon="-6.611340">
        <ele>946.175</ele>
        <time>2022-02-26T16:08:37Z</time>
      </trkpt>
      <trkpt lat="42.056440" lon="-6.611630">
        <ele>945.089</ele>
        <time>2022-02-26T16:09:17Z</time>
      </trkpt>
      <trkpt lat="42.056540" lon="-6.611870">
        <ele>943.015</ele>
        <time>2022-02-26T16:09:57Z</time>
      </trkpt>
      <trkpt lat="42.056690" lon="-6.612280">
        <ele>940.222</ele>
        <time>2022-02-26T16:10:37Z</time>
      </trkpt>
      <trkpt lat="42.056750" lon="-6.612440">
        <ele>938.553</ele>
        <time>2022-02-26T16:11:17Z</time>
      </trkpt>
      <trkpt lat="42.056910" lon="-6.613000">
        <ele>935.937</ele>
        <time>2022-02-26T16:11:57Z</time>
      </trkpt>
      <trkpt lat="42.057060" lon="-6.613660">
        <ele>934.962</ele>
        <time>2022-02-26T16:12:37Z</time>
      </trkpt>
      <trkpt lat="42.057120" lon="-6.614050">
        <ele>932.729</ele>
        <time>2022-02-26T16:13:17Z</time>
      </trkpt>
      <trkpt lat="42.057160" lon="-6.614430">
        <ele>930.400</ele>
        <time>2022-02-26T16:13:57Z</time>
      </trkpt>
      <trkpt lat="42.057220" lon="-6.614920">
        <ele>928.320</ele>
        <time>2022-02-26T16:14:37Z</time>
      </trkpt>
      <trkpt lat="42.057280" lon="-6.615530">
        <ele>927.008</ele>
        <time>2022-02-26T16:15:17Z</time>
      </trkpt>
      <trkpt lat="42.057350" lon="-6.616310">
        <ele>923.991</ele>
        <time>2022-02-26T16:15:57Z</time>
      </trkpt>
      <trkpt lat="42.057420" lon="-6.616920">
        <ele>920.138</ele>
        <time>2022-02-26T16:16:37Z</time>
      </trkpt>
      <trkpt lat="42.057500" lon="-6.617790">
        <ele>917.062</ele>
        <time>2022-02-26T16:17:17Z</time>
      </trkpt>
      <trkpt lat="42.057500" lon="-6.617800">
        <ele>916.948</ele>
        <time>2022-02-26T16:17:57Z</time>
      </trkpt>
      <trkpt lat="42.057510" lon="-6.617900">
        <ele>916.855</ele>
        <time>2022-02-26T16:18:37Z</time>
      </trkpt>
      <trkpt lat="42.057560" lon="-6.618280">
        <ele>916.926</ele>
        <time>2022-02-26T16:19:17Z</time>
      </trkpt>
      <trkpt lat="42.057650" lon="-6.618790">
        <ele>916.290</ele>
        <time>2022-02-26T16:19:57Z</time>
      </trkpt>
      <trkpt lat="42.057690" lon="-6.618980">
        <ele>914.955</ele>
        <time>2022-02-26T16:20:37Z</time>
      </trkpt>
      <trkpt lat="42.057800" lon="-6.619380">
        <ele>912.312</ele>
        <time>2022-02-26T16:21:17Z</time>
      </trkpt>
      <trkpt lat="42.057900" lon="-6.619600">
        <ele>912.832</ele>
        <time>2022-02-26T16:21:57Z</time>
      </trkpt>
      <trkpt lat="42.058030" lon="-6.619780">
        <ele>913.905</ele>
        <time>2022-02-26T16:22:37Z</time>
      </trkpt>
      <trkpt lat="42.058032" lon="-6.619781">
        <ele>913.908</ele>
        <time>2022-02-26T16:23:17Z</time>
      </trkpt>
      <trkpt lat="42.058070" lon="-6.619790">
        <ele>914.020</ele>
        <time>2022-02-26T16:23:57Z</time>
      </trkpt>
      <trkpt lat="42.058110" lon="-6.619810">
        <ele>914.187</ele>
        <time>2022-02-26T16:24:37Z</time>
      </trkpt>
      <trkpt lat="42.058150" lon="-6.619840">
        <ele>914.131</ele>
        <time>2022-02-26T16:25:17Z</time>
      </trkpt>
      <trkpt lat="42.058180" lon="-6.619880">
        <ele>913.927</ele>
        <time>2022-02-26T16:25:57Z</time>
      </trkpt>
      <trkpt lat="42.058210" lon="-6.619910">
        <ele>913.884</ele>
        <time>2022-02-26T16:26:37Z</time>
      </trkpt>
      <trkpt lat="42.058240" lon="-6.619960">
        <ele>913.565</ele>
        <time>2022-02-26T16:27:17Z</time>
      </trkpt>
      <trkpt lat="42.058270" lon="-6.620000">
        <ele>913.259</ele>
        <time>2022-02-26T16:27:57Z</time>
      </trkpt>
      <trkpt lat="42.058290" lon="-6.620050">
        <ele>912.714</ele>
        <time>2022-02-26T16:28:37Z</time>
      </trkpt>
      <trkpt lat="42.058310" lon="-6.620100">
        <ele>912.195</ele>
        <time>2022-02-26T16:29:17Z</time>
      </trkpt>
      <trkpt lat="42.058320" lon="-6.620150">
        <ele>911.549</ele>
        <time>2022-02-26T16:29:57Z</time>
      </trkpt>
      <trkpt lat="42.058330" lon="-6.620200">
        <ele>910.923</ele>
        <time>2022-02-26T16:30:37Z</time>
      </trkpt>
      <trkpt lat="42.058340" lon="-6.620250">
        <ele>910.208</ele>
        <time>2022-02-26T16:31:17Z</time>
      </trkpt>
      <trkpt lat="42.058340" lon="-6.620300">
        <ele>909.828</ele>
        <time>2022-02-26T16:31:57Z</time>
      </trkpt>
      <trkpt lat="42.058350" lon="-6.620350">
        <ele>909.315</ele>
        <time>2022-02-26T16:32:37Z</time>
      </trkpt>
      <trkpt lat="42.058340" lon="-6.620410">
        <ele>909.079</ele>
        <time>2022-02-26T16:33:17Z</time>
      </trkpt>
      <trkpt lat="42.058330" lon="-6.620460">
        <ele>908.765</ele>
        <time>2022-02-26T16:33:57Z</time>
      </trkpt>
      <trkpt lat="42.058330" lon="-6.620510">
        <ele>908.422</ele>
        <time>2022-02-26T16:34:37Z</time>
      </trkpt>
      <trkpt lat="42.058320" lon="-6.620560">
        <ele>908.173</ele>
        <time>2022-02-26T16:35:17Z</time>
      </trkpt>
      <trkpt lat="42.058300" lon="-6.620610">
        <ele>908.057</ele>
        <time>2022-02-26T16:35:57Z</time>
      </trkpt>
      <trkpt lat="42.058280" lon="-6.620660">
        <ele>907.962</ele>
        <time>2022-02-26T16:36:37Z</time>
      </trkpt>
      <trkpt lat="42.058260" lon="-6.620710">
        <ele>907.875</ele>
        <time>2022-02-26T16:37:17Z</time>
      </trkpt>
      <trkpt lat="42.058230" lon="-6.620750">
        <ele>908.028</ele>
        <time>2022-02-26T16:37:57Z</time>
      </trkpt>
      <trkpt lat="42.058200" lon="-6.620790">
        <ele>908.220</ele>
        <time>2022-02-26T16:38:37Z</time>
      </trkpt>
      <trkpt lat="42.058170" lon="-6.620830">
        <ele>908.408</ele>
        <time>2022-02-26T16:39:17Z</time>
      </trkpt>
      <trkpt lat="42.058140" lon="-6.620850">
        <ele>908.896</ele>
        <time>2022-02-26T16:39:57Z</time>
      </trkpt>
      <trkpt lat="42.058110" lon="-6.620870">
        <ele>909.293</ele>
        <time>2022-02-26T16:40:37Z</time>
      </trkpt>
      <trkpt lat="42.058070" lon="-6.620890">
        <ele>909.837</ele>
        <time>2022-02-26T16:41:17Z</time>
      </trkpt>
      <trkpt lat="42.058030" lon="-6.620900">
        <ele>910.223</ele>
        <time>2022-02-26T16:41:57Z</time>
      </trkpt>
      <trkpt lat="42.058000" lon="-6.620910">
        <ele>910.310</ele>
        <time>2022-02-26T16:42:37Z</time>
      </trkpt>
      <trkpt lat="42.057960" lon="-6.620910">
        <ele>910.661</ele>
        <time>2022-02-26T16:43:17Z</time>
      </trkpt>
      <trkpt lat="42.057920" lon="-6.620900">
        <ele>910.955</ele>
        <time>2022-02-26T16:43:57Z</time>
      </trkpt>
      <trkpt lat="42.057880" lon="-6.620890">
        <ele>911.130</ele>
        <time>2022-02-26T16:44:37Z</time>
      </trkpt>
      <trkpt lat="42.057830" lon="-6.620880">
        <ele>911.597</ele>
        <time>2022-02-26T16:45:17Z</time>
      </trkpt>
      <trkpt lat="42.057790" lon="-6.620870">
        <ele>911.823</ele>
        <time>2022-02-26T16:45:57Z</time>
      </trkpt>
      <trkpt lat="42.057750" lon="-6.620840">
        <ele>911.825</ele>
        <time>2022-02-26T16:46:37Z</time>
      </trkpt>
      <trkpt lat="42.057710" lon="-6.620810">
        <ele>911.608</ele>
        <time>2022-02-26T16:47:17Z</time>
      </trkpt>
      <trkpt lat="42.057680" lon="-6.620780">
        <ele>911.528</ele>
        <time>2022-02-26T16:47:57Z</time>
      </trkpt>
      <trkpt lat="42.057640" lon="-6.620740">
        <ele>911.325</ele>
        <time>2022-02-26T16:48:37Z</time>
      </trkpt>
      <trkpt lat="42.057610" lon="-6.620700">
        <ele>911.369</ele>
        <time>2022-02-26T16:49:17Z</time>
      </trkpt>
      <trkpt lat="42.057580" lon="-6.620650">
        <ele>911.235</ele>
        <time>2022-02-26T16:49:57Z</time>
      </trkpt>
      <trkpt lat="42.057420" lon="-6.620660">
        <ele>909.852</ele>
        <time>2022-02-26T16:50:37Z</time>
      </trkpt>
      <trkpt lat="42.057240" lon="-6.620660">
        <ele>907.813</ele>
        <time>2022-02-26T16:51:17Z</time>
      </trkpt>
      <trkpt lat="42.057220" lon="-6.620670">
        <ele>907.657</ele>
        <time>2022-02-26T16:51:57Z</time>
      </trkpt>
      <trkpt lat="42.057170" lon="-6.620700">
        <ele>907.192</ele>
        <time>2022-02-26T16:52:37Z</time>
      </trkpt>
      <trkpt lat="42.057120" lon="-6.620720">
        <ele>906.719</ele>
        <time>2022-02-26T16:53:17Z</time>
      </trkpt>
      <trkpt lat="42.057090" lon="-6.620750">
        <ele>906.509</ele>
        <time>2022-02-26T16:53:57Z</time>
      </trkpt>
      <trkpt lat="42.057050" lon="-6.620790">
        <ele>906.319</ele>
        <time>2022-02-26T16:54:37Z</time>
      </trkpt>
      <trkpt lat="42.056970" lon="-6.620910">
        <ele>905.608</ele>
        <time>2022-02-26T16:55:17Z</time>
      </trkpt>
      <trkpt lat="42.056950" lon="-6.620940">
        <ele>905.370</ele>
        <time>2022-02-26T16:55:57Z</time>
      </trkpt>
      <trkpt lat="42.056830" lon="-6.621120">
        <ele>903.577</ele>
        <time>2022-02-26T16:56:37Z</time>
      </trkpt>
      <trkpt lat="42.056750" lon="-6.621230">
        <ele>902.611</ele>
        <time>2022-02-26T16:57:17Z</time>
      </trkpt>
      <trkpt lat="42.056710" lon="-6.621300">
        <ele>901.987</ele>
        <time>2022-02-26T16:57:57Z</time>
      </trkpt>
      <trkpt lat="42.056590" lon="-6.621470">
        <ele>900.514</ele>
        <time>2022-02-26T16:58:37Z</time>
      </trkpt>
      <trkpt lat="42.056470" lon="-6.621650">
        <ele>900.055</ele>
        <time>2022-02-26T16:59:17Z</time>
      </trkpt>
      <trkpt lat="42.056460" lon="-6.621660">
        <ele>900.019</ele>
        <time>2022-02-26T16:59:57Z</time>
      </trkpt>
      <trkpt lat="42.056340" lon="-6.621840">
        <ele>899.354</ele>
        <time>2022-02-26T17:00:37Z</time>
      </trkpt>
      <trkpt lat="42.056270" lon="-6.621950">
        <ele>899.082</ele>
        <time>2022-02-26T17:01:17Z</time>
      </trkpt>
      <trkpt lat="42.056230" lon="-6.622010">
        <ele>898.843</ele>
        <time>2022-02-26T17:01:57Z</time>
      </trkpt>
      <trkpt lat="42.056150" lon="-6.622130">
        <ele>898.317</ele>
        <time>2022-02-26T17:02:37Z</time>
      </trkpt>
      <trkpt lat="42.056110" lon="-6.622190">
        <ele>898.108</ele>
        <time>2022-02-26T17:03:17Z</time>
      </trkpt>
      <trkpt lat="42.056100" lon="-6.622200">
        <ele>898.187</ele>
        <time>2022-02-26T17:03:57Z</time>
      </trkpt>
      <trkpt lat="42.055910" lon="-6.622490">
        <ele>897.744</ele>
        <time>2022-02-26T17:04:37Z</time>
      </trkpt>
      <trkpt lat="42.055850" lon="-6.622580">
        <ele>897.928</ele>
        <time>2022-02-26T17:05:17Z</time>
      </trkpt>
      <trkpt lat="42.055750" lon="-6.622740">
        <ele>898.014</ele>
        <time>2022-02-26T17:05:57Z</time>
      </trkpt>
      <trkpt lat="42.055730" lon="-6.622770">
        <ele>898.061</ele>
        <time>2022-02-26T17:06:37Z</time>
      </trkpt>
      <trkpt lat="42.055680" lon="-6.622860">
        <ele>897.752</ele>
        <time>2022-02-26T17:07:17Z</time>
      </trkpt>
      <trkpt lat="42.055570" lon="-6.623060">
        <ele>897.936</ele>
        <time>2022-02-26T17:07:57Z</time>
      </trkpt>
      <trkpt lat="42.055470" lon="-6.623250">
        <ele>897.291</ele>
        <time>2022-02-26T17:08:37Z</time>
      </trkpt>
      <trkpt lat="42.055360" lon="-6.623450">
        <ele>897.525</ele>
        <time>2022-02-26T17:09:17Z</time>
      </trkpt>
      <trkpt lat="42.055310" lon="-6.623540">
        <ele>897.826</ele>
        <time>2022-02-26T17:09:57Z</time>
      </trkpt>
      <trkpt lat="42.055220" lon="-6.623750">
        <ele>900.108</ele>
        <time>2022-02-26T17:10:37Z</time>
      </trkpt>
      <trkpt lat="42.055120" lon="-6.623960">
        <ele>902.908</ele>
        <time>2022-02-26T17:11:17Z</time>
      </trkpt>
      <trkpt lat="42.054880" lon="-6.624470">
        <ele>907.741</ele>
        <time>2022-02-26T17:11:57Z</time>
      </trkpt>
      <trkpt lat="42.054680" lon="-6.624870">
        <ele>908.878</ele>
        <time>2022-02-26T17:12:37Z</time>
      </trkpt>
      <trkpt lat="42.054670" lon="-6.624900">
        <ele>909.052</ele>
        <time>2022-02-26T17:13:17Z</time>
      </trkpt>
      <trkpt lat="42.054490" lon="-6.625230">
        <ele>911.648</ele>
        <time>2022-02-26T17:13:57Z</time>
      </trkpt>
      <trkpt lat="42.054494" lon="-6.625225">
        <ele>911.615</ele>
        <time>2022-02-26T17:14:37Z</time>
      </trkpt>
      <trkpt lat="42.054500" lon="-6.625230">
        <ele>911.766</ele>
        <time>2022-02-26T17:15:17Z</time>
      </trkpt>
      <trkpt lat="42.054500" lon="-6.625240">
        <ele>911.810</ele>
        <time>2022-02-26T17:15:57Z</time>
      </trkpt>
      <trkpt lat="42.054510" lon="-6.625240">
        <ele>911.845</ele>
        <time>2022-02-26T17:16:37Z</time>
      </trkpt>
      <trkpt lat="42.054510" lon="-6.625250">
        <ele>911.928</ele>
        <time>2022-02-26T17:17:17Z</time>
      </trkpt>
      <trkpt lat="42.054520" lon="-6.625260">
        <ele>912.189</ele>
        <time>2022-02-26T17:17:57Z</time>
      </trkpt>
      <trkpt lat="42.054520" lon="-6.625270">
        <ele>912.217</ele>
        <time>2022-02-26T17:18:37Z</time>
      </trkpt>
      <trkpt lat="42.054530" lon="-6.625280">
        <ele>912.308</ele>
        <time>2022-02-26T17:19:17Z</time>
      </trkpt>
      <trkpt lat="42.054530" lon="-6.625290">
        <ele>912.491</ele>
        <time>2022-02-26T17:19:57Z</time>
      </trkpt>
      <trkpt lat="42.054530" lon="-6.625300">
        <ele>912.518</ele>
        <time>2022-02-26T17:20:37Z</time>
      </trkpt>
      <trkpt lat="42.054530" lon="-6.625310">
        <ele>912.542</ele>
        <time>2022-02-26T17:21:17Z</time>
      </trkpt>
      <trkpt lat="42.054540" lon="-6.625310">
        <ele>912.698</ele>
        <time>2022-02-26T17:21:57Z</time>
      </trkpt>
      <trkpt lat="42.054540" lon="-6.625320">
        <ele>912.625</ele>
        <time>2022-02-26T17:22:37Z</time>
      </trkpt>
      <trkpt lat="42.054540" lon="-6.625330">
        <ele>912.756</ele>
        <time>2022-02-26T17:23:17Z</time>
      </trkpt>
      <trkpt lat="42.054540" lon="-6.625340">
        <ele>912.870</ele>
        <time>2022-02-26T17:23:57Z</time>
      </trkpt>
      <trkpt lat="42.054540" lon="-6.625350">
        <ele>912.935</ele>
        <time>2022-02-26T17:24:37Z</time>
      </trkpt>
      <trkpt lat="42.054540" lon="-6.625360">
        <ele>912.938</ele>
        <time>2022-02-26T17:25:17Z</time>
      </trkpt>
      <trkpt lat="42.054540" lon="-6.625370">
        <ele>913.070</ele>
        <time>2022-02-26T17:25:57Z</time>
      </trkpt>
      <trkpt lat="42.054540" lon="-6.625380">
        <ele>913.117</ele>
        <time>2022-02-26T17:26:37Z</time>
      </trkpt>
      <trkpt lat="42.054540" lon="-6.625390">
        <ele>913.208</ele>
        <time>2022-02-26T17:27:17Z</time>
      </trkpt>
      <trkpt lat="42.054530" lon="-6.625400">
        <ele>913.252</ele>
        <time>2022-02-26T17:27:57Z</time>
      </trkpt>
      <trkpt lat="42.054530" lon="-6.625410">
        <ele>913.339</ele>
        <time>2022-02-26T17:28:37Z</time>
      </trkpt>
      <trkpt lat="42.054530" lon="-6.625420">
        <ele>913.333</ele>
        <time>2022-02-26T17:29:17Z</time>
      </trkpt>
      <trkpt lat="42.054530" lon="-6.625430">
        <ele>913.439</ele>
        <time>2022-02-26T17:29:57Z</time>
      </trkpt>
      <trkpt lat="42.054520" lon="-6.625440">
        <ele>913.446</ele>
        <time>2022-02-26T17:30:37Z</time>
      </trkpt>
      <trkpt lat="42.054520" lon="-6.625450">
        <ele>913.527</ele>
        <time>2022-02-26T17:31:17Z</time>
      </trkpt>
      <trkpt lat="42.054510" lon="-6.625460">
        <ele>913.581</ele>
        <time>2022-02-26T17:31:57Z</time>
      </trkpt>
      <trkpt lat="42.054510" lon="-6.625470">
        <ele>913.656</ele>
        <time>2022-02-26T17:32:37Z</time>
      </trkpt>
      <trkpt lat="42.054500" lon="-6.625470">
        <ele>913.645</ele>
        <time>2022-02-26T17:33:17Z</time>
      </trkpt>
      <trkpt lat="42.054500" lon="-6.625480">
        <ele>913.747</ele>
        <time>2022-02-26T17:33:57Z</time>
      </trkpt>
      <trkpt lat="42.054490" lon="-6.625480">
        <ele>913.611</ele>
        <time>2022-02-26T17:34:37Z</time>
      </trkpt>
      <trkpt lat="42.054490" lon="-6.625490">
        <ele>913.708</ele>
        <time>2022-02-26T17:35:17Z</time>
      </trkpt>
      <trkpt lat="42.054480" lon="-6.625500">
        <ele>913.753</ele>
        <time>2022-02-26T17:35:57Z</time>
      </trkpt>
      <trkpt lat="42.054470" lon="-6.625500">
        <ele>913.740</ele>
        <time>2022-02-26T17:36:37Z</time>
      </trkpt>
      <trkpt lat="42.054460" lon="-6.625510">
        <ele>913.714</ele>
        <time>2022-02-26T17:37:17Z</time>
      </trkpt>
      <trkpt lat="42.054450" lon="-6.625510">
        <ele>913.730</ele>
        <time>2022-02-26T17:37:57Z</time>
      </trkpt>
      <trkpt lat="42.054450" lon="-6.625520">
        <ele>913.847</ele>
        <time>2022-02-26T17:38:37Z</time>
      </trkpt>
      <trkpt lat="42.054440" lon="-6.625520">
        <ele>913.778</ele>
        <time>2022-02-26T17:39:17Z</time>
      </trkpt>
      <trkpt lat="42.054430" lon="-6.625520">
        <ele>913.732</ele>
        <time>2022-02-26T17:39:57Z</time>
      </trkpt>
      <trkpt lat="42.054420" lon="-6.625520">
        <ele>913.667</ele>
        <time>2022-02-26T17:40:37Z</time>
      </trkpt>
      <trkpt lat="42.054410" lon="-6.625520">
        <ele>913.536</ele>
        <time>2022-02-26T17:41:17Z</time>
      </trkpt>
      <trkpt lat="42.054400" lon="-6.625520">
        <ele>913.517</ele>
        <time>2022-02-26T17:41:57Z</time>
      </trkpt>
      <trkpt lat="42.054390" lon="-6.625520">
        <ele>913.418</ele>
        <time>2022-02-26T17:42:37Z</time>
      </trkpt>
      <trkpt lat="42.054390" lon="-6.625510">
        <ele>913.308</ele>
        <time>2022-02-26T17:43:17Z</time>
      </trkpt>
      <trkpt lat="42.054380" lon="-6.625510">
        <ele>913.342</ele>
        <time>2022-02-26T17:43:57Z</time>
      </trkpt>
      <trkpt lat="42.054370" lon="-6.625510">
        <ele>913.259</ele>
        <time>2022-02-26T17:44:37Z</time>
      </trkpt>
      <trkpt lat="42.054360" lon="-6.625500">
        <ele>913.143</ele>
        <time>2022-02-26T17:45:17Z</time>
      </trkpt>
      <trkpt lat="42.054260" lon="-6.625710">
        <ele>913.669</ele>
        <time>2022-02-26T17:45:57Z</time>
      </trkpt>
      <trkpt lat="42.054130" lon="-6.625980">
        <ele>913.976</ele>
        <time>2022-02-26T17:46:37Z</time>
      </trkpt>
      <trkpt lat="42.053990" lon="-6.626310">
        <ele>914.387</ele>
        <time>2022-02-26T17:47:17Z</time>
      </trkpt>
      <trkpt lat="42.053870" lon="-6.626610">
        <ele>913.961</ele>
        <time>2022-02-26T17:47:57Z</time>
      </trkpt>
      <trkpt lat="42.053840" lon="-6.626680">
        <ele>913.826</ele>
        <time>2022-02-26T17:48:37Z</time>
      </trkpt>
      <trkpt lat="42.053700" lon="-6.627000">
        <ele>914.086</ele>
        <time>2022-02-26T17:49:17Z</time>
      </trkpt>
      <trkpt lat="42.053640" lon="-6.627220">
        <ele>914.060</ele>
        <time>2022-02-26T17:49:57Z</time>
      </trkpt>
      <trkpt lat="42.053630" lon="-6.627420">
        <ele>913.326</ele>
        <time>2022-02-26T17:50:37Z</time>
      </trkpt>
      <trkpt lat="42.053630" lon="-6.627470">
        <ele>913.208</ele>
        <time>2022-02-26T17:51:17Z</time>
      </trkpt>
      <trkpt lat="42.053630" lon="-6.627610">
        <ele>912.797</ele>
        <time>2022-02-26T17:51:57Z</time>
      </trkpt>
      <trkpt lat="42.053650" lon="-6.627710">
        <ele>912.414</ele>
        <time>2022-02-26T17:52:37Z</time>
      </trkpt>
      <trkpt lat="42.053660" lon="-6.627840">
        <ele>912.138</ele>
        <time>2022-02-26T17:53:17Z</time>
      </trkpt>
      <trkpt lat="42.053690" lon="-6.627940">
        <ele>912.124</ele>
        <time>2022-02-26T17:53:57Z</time>
      </trkpt>
      <trkpt lat="42.053710" lon="-6.628010">
        <ele>912.181</ele>
        <time>2022-02-26T17:54:37Z</time>
      </trkpt>
      <trkpt lat="42.053780" lon="-6.628150">
        <ele>911.542</ele>
        <time>2022-02-26T17:55:17Z</time>
      </trkpt>
      <trkpt lat="42.053830" lon="-6.628280">
        <ele>911.076</ele>
        <time>2022-02-26T17:55:57Z</time>
      </trkpt>
      <trkpt lat="42.053870" lon="-6.628360">
        <ele>910.931</ele>
        <time>2022-02-26T17:56:37Z</time>
      </trkpt>
      <trkpt lat="42.053960" lon="-6.628570">
        <ele>911.017</ele>
        <time>2022-02-26T17:57:17Z</time>
      </trkpt>
      <trkpt lat="42.054250" lon="-6.629230">
        <ele>906.587</ele>
        <time>2022-02-26T17:57:57Z</time>
      </trkpt>
      <trkpt lat="42.054340" lon="-6.629420">
        <ele>905.215</ele>
        <time>2022-02-26T17:58:37Z</time>
      </trkpt>
      <trkpt lat="42.054610" lon="-6.629960">
        <ele>902.008</ele>
        <time>2022-02-26T17:59:17Z</time>
      </trkpt>
      <trkpt lat="42.054700" lon="-6.630130">
        <ele>901.070</ele>
        <time>2022-02-26T17:59:57Z</time>
      </trkpt>
      <trkpt lat="42.054800" lon="-6.630370">
        <ele>899.997</ele>
        <time>2022-02-26T18:00:37Z</time>
      </trkpt>
      <trkpt lat="42.054850" lon="-6.630460">
        <ele>899.861</ele>
        <time>2022-02-26T18:01:17Z</time>
      </trkpt>
      <trkpt lat="42.054900" lon="-6.630570">
        <ele>899.677</ele>
        <time>2022-02-26T18:01:57Z</time>
      </trkpt>
      <trkpt lat="42.055030" lon="-6.630880">
        <ele>898.974</ele>
        <time>2022-02-26T18:02:37Z</time>
      </trkpt>
      <trkpt lat="42.055190" lon="-6.631260">
        <ele>897.615</ele>
        <time>2022-02-26T18:03:17Z</time>
      </trkpt>
      <trkpt lat="42.055230" lon="-6.631430">
        <ele>896.339</ele>
        <time>2022-02-26T18:03:57Z</time>
      </trkpt>
      <trkpt lat="42.055240" lon="-6.631580">
        <ele>894.214</ele>
        <time>2022-02-26T18:04:37Z</time>
      </trkpt>
      <trkpt lat="42.055250" lon="-6.631700">
        <ele>892.951</ele>
        <time>2022-02-26T18:05:17Z</time>
      </trkpt>
      <trkpt lat="42.055260" lon="-6.631820">
        <ele>892.401</ele>
        <time>2022-02-26T18:05:57Z</time>
      </trkpt>
      <trkpt lat="42.055320" lon="-6.632910">
        <ele>904.011</ele>
        <time>2022-02-26T18:06:37Z</time>
      </trkpt>
      <trkpt lat="42.055323" lon="-6.632910">
        <ele>903.908</ele>
        <time>2022-02-26T18:07:17Z</time>
      </trkpt>
      <trkpt lat="42.055460" lon="-6.632970">
        <ele>903.534</ele>
        <time>2022-02-26T18:07:57Z</time>
      </trkpt>
      <trkpt lat="42.055660" lon="-6.633050">
        <ele>902.011</ele>
        <time>2022-02-26T18:08:37Z</time>
      </trkpt>
      <trkpt lat="42.055920" lon="-6.633120">
        <ele>900.965</ele>
        <time>2022-02-26T18:09:17Z</time>
      </trkpt>
      <trkpt lat="42.055990" lon="-6.633130">
        <ele>901.061</ele>
        <time>2022-02-26T18:09:57Z</time>
      </trkpt>
      <trkpt lat="42.056060" lon="-6.633140">
        <ele>901.048</ele>
        <time>2022-02-26T18:10:37Z</time>
      </trkpt>
      <trkpt lat="42.056160" lon="-6.633130">
        <ele>900.649</ele>
        <time>2022-02-26T18:11:17Z</time>
      </trkpt>
      <trkpt lat="42.056340" lon="-6.633120">
        <ele>900.443</ele>
        <time>2022-02-26T18:11:57Z</time>
      </trkpt>
      <trkpt lat="42.056370" lon="-6.633110">
        <ele>900.278</ele>
        <time>2022-02-26T18:12:37Z</time>
      </trkpt>
      <trkpt lat="42.056480" lon="-6.633140">
        <ele>900.138</ele>
        <time>2022-02-26T18:13:17Z</time>
      </trkpt>
      <trkpt lat="42.056630" lon="-6.633180">
        <ele>899.670</ele>
        <time>2022-02-26T18:13:57Z</time>
      </trkpt>
      <trkpt lat="42.056770" lon="-6.633250">
        <ele>899.917</ele>
        <time>2022-02-26T18:14:37Z</time>
      </trkpt>
      <trkpt lat="42.056860" lon="-6.633310">
        <ele>900.208</ele>
        <time>2022-02-26T18:15:17Z</time>
      </trkpt>
      <trkpt lat="42.056940" lon="-6.633370">
        <ele>900.632</ele>
        <time>2022-02-26T18:15:57Z</time>
      </trkpt>
      <trkpt lat="42.057010" lon="-6.633440">
        <ele>901.199</ele>
        <time>2022-02-26T18:16:37Z</time>
      </trkpt>
      <trkpt lat="42.057090" lon="-6.633520">
        <ele>901.673</ele>
        <time>2022-02-26T18:17:17Z</time>
      </trkpt>
      <trkpt lat="42.057230" lon="-6.633720">
        <ele>902.649</ele>
        <time>2022-02-26T18:17:57Z</time>
      </trkpt>
      <trkpt lat="42.057330" lon="-6.633880">
        <ele>901.226</ele>
        <time>2022-02-26T18:18:37Z</time>
      </trkpt>
      <trkpt lat="42.057410" lon="-6.634060">
        <ele>898.067</ele>
        <time>2022-02-26T18:19:17Z</time>
      </trkpt>
      <trkpt lat="42.057430" lon="-6.634240">
        <ele>896.771</ele>
        <time>2022-02-26T18:19:57Z</time>
      </trkpt>
      <trkpt lat="42.057420" lon="-6.634420">
        <ele>896.836</ele>
        <time>2022-02-26T18:20:37Z</time>
      </trkpt>
      <trkpt lat="42.057420" lon="-6.634440">
        <ele>896.776</ele>
        <time>2022-02-26T18:21:17Z</time>
      </trkpt>
      <trkpt lat="42.057370" lon="-6.634590">
        <ele>897.690</ele>
        <time>2022-02-26T18:21:57Z</time>
      </trkpt>
      <trkpt lat="42.057374" lon="-6.634593">
        <ele>897.519</ele>
        <time>2022-02-26T18:22:37Z</time>
      </trkpt>
      <trkpt lat="42.057200" lon="-6.634740">
        <ele>900.308</ele>
        <time>2022-02-26T18:23:17Z</time>
      </trkpt>
      <trkpt lat="42.056540" lon="-6.635290">
        <ele>904.636</ele>
        <time>2022-02-26T18:23:57Z</time>
      </trkpt>
      <trkpt lat="42.056430" lon="-6.635370">
        <ele>905.013</ele>
        <time>2022-02-26T18:24:37Z</time>
      </trkpt>
      <trkpt lat="42.056360" lon="-6.635370">
        <ele>906.117</ele>
        <time>2022-02-26T18:25:17Z</time>
      </trkpt>
      <trkpt lat="42.056250" lon="-6.635370">
        <ele>907.843</ele>
        <time>2022-02-26T18:25:57Z</time>
      </trkpt>
      <trkpt lat="42.056070" lon="-6.635360">
        <ele>910.280</ele>
        <time>2022-02-26T18:26:37Z</time>
      </trkpt>
      <trkpt lat="42.055890" lon="-6.635360">
        <ele>910.251</ele>
        <time>2022-02-26T18:27:17Z</time>
      </trkpt>
      <trkpt lat="42.055860" lon="-6.635360">
        <ele>910.245</ele>
        <time>2022-02-26T18:27:57Z</time>
      </trkpt>
      <trkpt lat="42.055720" lon="-6.635340">
        <ele>911.430</ele>
        <time>2022-02-26T18:28:37Z</time>
      </trkpt>
      <trkpt lat="42.055710" lon="-6.635340">
        <ele>911.456</ele>
        <time>2022-02-26T18:29:17Z</time>
      </trkpt>
      <trkpt lat="42.055540" lon="-6.635290">
        <ele>913.959</ele>
        <time>2022-02-26T18:29:57Z</time>
      </trkpt>
      <trkpt lat="42.055420" lon="-6.635250">
        <ele>916.414</ele>
        <time>2022-02-26T18:30:37Z</time>
      </trkpt>
      <trkpt lat="42.055330" lon="-6.635260">
        <ele>917.108</ele>
        <time>2022-02-26T18:31:17Z</time>
      </trkpt>
      <trkpt lat="42.055190" lon="-6.635300">
        <ele>917.924</ele>
        <time>2022-02-26T18:31:57Z</time>
      </trkpt>
      <trkpt lat="42.054740" lon="-6.635530">
        <ele>918.221</ele>
        <time>2022-02-26T18:32:37Z</time>
      </trkpt>
      <trkpt lat="42.054540" lon="-6.635690">
        <ele>916.265</ele>
        <time>2022-02-26T18:33:17Z</time>
      </trkpt>
      <trkpt lat="42.054520" lon="-6.635700">
        <ele>916.111</ele>
        <time>2022-02-26T18:33:57Z</time>
      </trkpt>
      <trkpt lat="42.054490" lon="-6.635700">
        <ele>916.268</ele>
        <time>2022-02-26T18:34:37Z</time>
      </trkpt>
      <trkpt lat="42.054460" lon="-6.635700">
        <ele>916.379</ele>
        <time>2022-02-26T18:35:17Z</time>
      </trkpt>
      <trkpt lat="42.054440" lon="-6.635690">
        <ele>916.533</ele>
        <time>2022-02-26T18:35:57Z</time>
      </trkpt>
      <trkpt lat="42.054430" lon="-6.635680">
        <ele>916.718</ele>
        <time>2022-02-26T18:36:37Z</time>
      </trkpt>
      <trkpt lat="42.054430" lon="-6.635660">
        <ele>917.093</ele>
        <time>2022-02-26T18:37:17Z</time>
      </trkpt>
      <trkpt lat="42.054400" lon="-6.635590">
        <ele>918.265</ele>
        <time>2022-02-26T18:37:57Z</time>
      </trkpt>
      <trkpt lat="42.054404" lon="-6.635588">
        <ele>918.221</ele>
        <time>2022-02-26T18:38:37Z</time>
      </trkpt>
      <trkpt lat="42.054510" lon="-6.635500">
        <ele>919.908</ele>
        <time>2022-02-26T18:39:17Z</time>
      </trkpt>
      <trkpt lat="42.054550" lon="-6.635470">
        <ele>920.438</ele>
        <time>2022-02-26T18:39:57Z</time>
      </trkpt>
      <trkpt lat="42.054700" lon="-6.635360">
        <ele>921.715</ele>
        <time>2022-02-26T18:40:37Z</time>
      </trkpt>
      <trkpt lat="42.054920" lon="-6.635170">
        <ele>925.329</ele>
        <time>2022-02-26T18:41:17Z</time>
      </trkpt>
      <trkpt lat="42.054970" lon="-6.635120">
        <ele>926.615</ele>
        <time>2022-02-26T18:41:57Z</time>
      </trkpt>
      <trkpt lat="42.055080" lon="-6.635030">
        <ele>928.212</ele>
        <time>2022-02-26T18:42:37Z</time>
      </trkpt>
      <trkpt lat="42.055200" lon="-6.634930">
        <ele>929.443</ele>
        <time>2022-02-26T18:43:17Z</time>
      </trkpt>
      <trkpt lat="42.055340" lon="-6.634860">
        <ele>929.947</ele>
        <time>2022-02-26T18:43:57Z</time>
      </trkpt>
      <trkpt lat="42.055350" lon="-6.634860">
        <ele>929.892</ele>
        <time>2022-02-26T18:44:37Z</time>
      </trkpt>
      <trkpt lat="42.055440" lon="-6.634790">
        <ele>930.864</ele>
        <time>2022-02-26T18:45:17Z</time>
      </trkpt>
      <trkpt lat="42.055460" lon="-6.634770">
        <ele>931.306</ele>
        <time>2022-02-26T18:45:57Z</time>
      </trkpt>
      <trkpt lat="42.055470" lon="-6.634750">
        <ele>931.816</ele>
        <time>2022-02-26T18:46:37Z</time>
      </trkpt>
      <trkpt lat="42.055480" lon="-6.634740">
        <ele>932.008</ele>
        <time>2022-02-26T18:47:17Z</time>
      </trkpt>
      <trkpt lat="42.055480" lon="-6.634720">
        <ele>932.625</ele>
        <time>2022-02-26T18:47:57Z</time>
      </trkpt>
      <trkpt lat="42.055484" lon="-6.634720">
        <ele>932.672</ele>
        <time>2022-02-26T18:48:37Z</time>
      </trkpt>
      <trkpt lat="42.055490" lon="-6.634710">
        <ele>932.756</ele>
        <time>2022-02-26T18:49:17Z</time>
      </trkpt>
      <trkpt lat="42.055490" lon="-6.634690">
        <ele>933.082</ele>
        <time>2022-02-26T18:49:57Z</time>
      </trkpt>
      <trkpt lat="42.055490" lon="-6.634680">
        <ele>933.249</ele>
        <time>2022-02-26T18:50:37Z</time>
      </trkpt>
      <trkpt lat="42.055480" lon="-6.634670">
        <ele>933.430</ele>
        <time>2022-02-26T18:51:17Z</time>
      </trkpt>
      <trkpt lat="42.055390" lon="-6.634530">
        <ele>936.254</ele>
        <time>2022-02-26T18:51:57Z</time>
      </trkpt>
      <trkpt lat="42.055370" lon="-6.634500">
        <ele>936.859</ele>
        <time>2022-02-26T18:52:37Z</time>
      </trkpt>
      <trkpt lat="42.055350" lon="-6.634450">
        <ele>937.717</ele>
        <time>2022-02-26T18:53:17Z</time>
      </trkpt>
      <trkpt lat="42.055351" lon="-6.634450">
        <ele>937.787</ele>
        <time>2022-02-26T18:53:57Z</time>
      </trkpt>
      <trkpt lat="42.055190" lon="-6.634530">
        <ele>936.815</ele>
        <time>2022-02-26T18:54:37Z</time>
      </trkpt>
      <trkpt lat="42.055120" lon="-6.634580">
        <ele>936.008</ele>
        <time>2022-02-26T18:55:17Z</time>
      </trkpt>
      <trkpt lat="42.055040" lon="-6.634620">
        <ele>935.550</ele>
        <time>2022-02-26T18:55:57Z</time>
      </trkpt>
      <trkpt lat="42.054960" lon="-6.634660">
        <ele>934.927</ele>
        <time>2022-02-26T18:56:37Z</time>
      </trkpt>
      <trkpt lat="42.054860" lon="-6.634720">
        <ele>934.011</ele>
        <time>2022-02-26T18:57:17Z</time>
      </trkpt>
      <trkpt lat="42.054830" lon="-6.634760">
        <ele>933.557</ele>
        <time>2022-02-26T18:57:57Z</time>
      </trkpt>
      <trkpt lat="42.054827" lon="-6.634761">
        <ele>933.454</ele>
        <time>2022-02-26T18:58:37Z</time>
      </trkpt>
      <trkpt lat="42.054830" lon="-6.634810">
        <ele>932.745</ele>
        <time>2022-02-26T18:59:17Z</time>
      </trkpt>
      <trkpt lat="42.054820" lon="-6.634840">
        <ele>932.369</ele>
        <time>2022-02-26T18:59:57Z</time>
      </trkpt>
      <trkpt lat="42.054820" lon="-6.634870">
        <ele>931.914</ele>
        <time>2022-02-26T19:00:37Z</time>
      </trkpt>
      <trkpt lat="42.054810" lon="-6.634900">
        <ele>931.491</ele>
        <time>2022-02-26T19:01:17Z</time>
      </trkpt>
      <trkpt lat="42.054790" lon="-6.634940">
        <ele>930.981</ele>
        <time>2022-02-26T19:01:57Z</time>
      </trkpt>
      <trkpt lat="42.054770" lon="-6.634950">
        <ele>930.719</ele>
        <time>2022-02-26T19:02:37Z</time>
      </trkpt>
      <trkpt lat="42.054770" lon="-6.634960">
        <ele>930.608</ele>
        <time>2022-02-26T19:03:17Z</time>
      </trkpt>
      <trkpt lat="42.054750" lon="-6.634960">
        <ele>930.628</ele>
        <time>2022-02-26T19:03:57Z</time>
      </trkpt>
      <trkpt lat="42.054740" lon="-6.634960">
        <ele>930.665</ele>
        <time>2022-02-26T19:04:37Z</time>
      </trkpt>
      <trkpt lat="42.054700" lon="-6.634970">
        <ele>930.419</ele>
        <time>2022-02-26T19:05:17Z</time>
      </trkpt>
      <trkpt lat="42.054640" lon="-6.634980">
        <ele>930.355</ele>
        <time>2022-02-26T19:05:57Z</time>
      </trkpt>
      <trkpt lat="42.054510" lon="-6.634980">
        <ele>930.382</ele>
        <time>2022-02-26T19:06:37Z</time>
      </trkpt>
      <trkpt lat="42.054420" lon="-6.634960">
        <ele>930.743</ele>
        <time>2022-02-26T19:07:17Z</time>
      </trkpt>
      <trkpt lat="42.054380" lon="-6.634950">
        <ele>930.957</ele>
        <time>2022-02-26T19:07:57Z</time>
      </trkpt>
      <trkpt lat="42.054383" lon="-6.634955">
        <ele>930.832</ele>
        <time>2022-02-26T19:08:37Z</time>
      </trkpt>
    </trkseg>
  </trk>
</gpx>
